<?xml version="1.0" encoding="UTF-8" standalone="no" ?>
<gpx xmlns="http://www.topografix.com/GPX/1/1" xmlns:xsi="http://www.w3.org/2001/XMLSchema-instance" xsi:schemaLocation="http://www.topografix.com/GPX/1/1 http://www.topografix.com/GPX/1/1/gpx.xsd" version="1.1" creator="VisuGPX - https://www.visugpx.com">
  <metadata>
    <name>French Divide 2018</name>
  </metadata>
  <trk>
    <name><![CDATA[French Divide 2018]]></name>
    <trkseg>
      <trkpt lat="51.08251" lon="2.52493">
        <ele>6</ele>
        <time>2018-06-25T08:53:58.807Z</time>
      </trkpt>
      <trkpt lat="51.08086" lon="2.51908">
        <ele>5</ele>
        <time>2018-06-25T08:53:59.807Z</time>
      </trkpt>
      <trkpt lat="51.07987" lon="2.51583">
        <ele>4</ele>
        <time>2018-06-25T08:54:00.807Z</time>
      </trkpt>
      <trkpt lat="51.07909" lon="2.51628">
        <ele>8</ele>
        <time>2018-06-25T08:54:01.807Z</time>
      </trkpt>
      <trkpt lat="51.079" lon="2.51621">
        <ele>8</ele>
        <time>2018-06-25T08:54:02.807Z</time>
      </trkpt>
      <trkpt lat="51.07824" lon="2.51316">
        <ele>9</ele>
        <time>2018-06-25T08:54:03.807Z</time>
      </trkpt>
      <trkpt lat="51.06998" lon="2.51625">
        <ele>5</ele>
        <time>2018-06-25T08:54:04.807Z</time>
      </trkpt>
      <trkpt lat="51.06987" lon="2.51638">
        <ele>5</ele>
        <time>2018-06-25T08:54:05.807Z</time>
      </trkpt>
      <trkpt lat="51.07101" lon="2.52572">
        <ele>5</ele>
        <time>2018-06-25T08:54:06.807Z</time>
      </trkpt>
      <trkpt lat="51.07176" lon="2.52986">
        <ele>4</ele>
        <time>2018-06-25T08:54:07.807Z</time>
      </trkpt>
      <trkpt lat="51.07226" lon="2.5315">
        <ele>4</ele>
        <time>2018-06-25T08:54:08.807Z</time>
      </trkpt>
      <trkpt lat="51.07276" lon="2.53358">
        <ele>5</ele>
        <time>2018-06-25T08:54:09.807Z</time>
      </trkpt>
      <trkpt lat="51.07293" lon="2.53462">
        <ele>5</ele>
        <time>2018-06-25T08:54:10.807Z</time>
      </trkpt>
      <trkpt lat="51.07306" lon="2.53677">
        <ele>4</ele>
        <time>2018-06-25T08:54:11.807Z</time>
      </trkpt>
      <trkpt lat="51.07338" lon="2.53891">
        <ele>3</ele>
        <time>2018-06-25T08:54:12.807Z</time>
      </trkpt>
      <trkpt lat="51.07351" lon="2.54055">
        <ele>4</ele>
        <time>2018-06-25T08:54:13.807Z</time>
      </trkpt>
      <trkpt lat="51.07428" lon="2.54577">
        <ele>2</ele>
        <time>2018-06-25T08:54:14.807Z</time>
      </trkpt>
      <trkpt lat="51.07464" lon="2.54933">
        <ele>3</ele>
        <time>2018-06-25T08:54:15.807Z</time>
      </trkpt>
      <trkpt lat="51.07539" lon="2.55361">
        <ele>2</ele>
        <time>2018-06-25T08:54:16.807Z</time>
      </trkpt>
      <trkpt lat="51.07579" lon="2.55538">
        <ele>3</ele>
        <time>2018-06-25T08:54:17.807Z</time>
      </trkpt>
      <trkpt lat="51.07577" lon="2.55553">
        <ele>3</ele>
        <time>2018-06-25T08:54:18.807Z</time>
      </trkpt>
      <trkpt lat="51.07022" lon="2.55986">
        <ele>1</ele>
        <time>2018-06-25T08:54:19.807Z</time>
      </trkpt>
      <trkpt lat="51.06992" lon="2.55994">
        <ele>1</ele>
        <time>2018-06-25T08:54:20.807Z</time>
      </trkpt>
      <trkpt lat="51.06982" lon="2.5593">
        <ele>3.8</ele>
        <time>2018-06-25T08:54:21.807Z</time>
      </trkpt>
      <trkpt lat="51.06946" lon="2.55944">
        <ele>4</ele>
        <time>2018-06-25T08:54:22.807Z</time>
      </trkpt>
      <trkpt lat="51.06825" lon="2.56046">
        <ele>1</ele>
        <time>2018-06-25T08:54:23.807Z</time>
      </trkpt>
      <trkpt lat="51.06477" lon="2.56298">
        <ele>1</ele>
        <time>2018-06-25T08:54:24.807Z</time>
      </trkpt>
      <trkpt lat="51.06027" lon="2.56277">
        <ele>6</ele>
        <time>2018-06-25T08:54:25.807Z</time>
      </trkpt>
      <trkpt lat="51.05901" lon="2.56232">
        <ele>3</ele>
        <time>2018-06-25T08:54:26.807Z</time>
      </trkpt>
      <trkpt lat="51.05894" lon="2.56238">
        <ele>2</ele>
        <time>2018-06-25T08:54:27.807Z</time>
      </trkpt>
      <trkpt lat="51.05973" lon="2.56504">
        <ele>4</ele>
        <time>2018-06-25T08:54:28.807Z</time>
      </trkpt>
      <trkpt lat="51.05999" lon="2.56633">
        <ele>2</ele>
        <time>2018-06-25T08:54:29.807Z</time>
      </trkpt>
      <trkpt lat="51.06034" lon="2.56706">
        <ele>3</ele>
        <time>2018-06-25T08:54:30.807Z</time>
      </trkpt>
      <trkpt lat="51.06071" lon="2.56809">
        <ele>4</ele>
        <time>2018-06-25T08:54:31.807Z</time>
      </trkpt>
      <trkpt lat="51.061" lon="2.57047">
        <ele>3</ele>
        <time>2018-06-25T08:54:32.807Z</time>
      </trkpt>
      <trkpt lat="51.06119" lon="2.57316">
        <ele>5</ele>
        <time>2018-06-25T08:54:33.807Z</time>
      </trkpt>
      <trkpt lat="51.06164" lon="2.57409">
        <ele>5</ele>
        <time>2018-06-25T08:54:34.807Z</time>
      </trkpt>
      <trkpt lat="51.06194" lon="2.57553">
        <ele>5</ele>
        <time>2018-06-25T08:54:35.807Z</time>
      </trkpt>
      <trkpt lat="51.06204" lon="2.57641">
        <ele>2</ele>
        <time>2018-06-25T08:54:36.807Z</time>
      </trkpt>
      <trkpt lat="51.06267" lon="2.57824">
        <ele>1</ele>
        <time>2018-06-25T08:54:37.807Z</time>
      </trkpt>
      <trkpt lat="51.06288" lon="2.57838">
        <ele>2</ele>
        <time>2018-06-25T08:54:38.807Z</time>
      </trkpt>
      <trkpt lat="51.0631" lon="2.57874">
        <ele>2</ele>
        <time>2018-06-25T08:54:39.807Z</time>
      </trkpt>
      <trkpt lat="51.06346" lon="2.57996">
        <ele>1</ele>
        <time>2018-06-25T08:54:40.807Z</time>
      </trkpt>
      <trkpt lat="51.06377" lon="2.58054">
        <ele>2</ele>
        <time>2018-06-25T08:54:41.807Z</time>
      </trkpt>
      <trkpt lat="51.06439" lon="2.58132">
        <ele>3</ele>
        <time>2018-06-25T08:54:42.807Z</time>
      </trkpt>
      <trkpt lat="51.06517" lon="2.58302">
        <ele>1</ele>
        <time>2018-06-25T08:54:43.807Z</time>
      </trkpt>
      <trkpt lat="51.06564" lon="2.58426">
        <ele>2</ele>
        <time>2018-06-25T08:54:44.807Z</time>
      </trkpt>
      <trkpt lat="51.06618" lon="2.585">
        <ele>2</ele>
        <time>2018-06-25T08:54:45.807Z</time>
      </trkpt>
      <trkpt lat="51.06634" lon="2.58577">
        <ele>4.8</ele>
        <time>2018-06-25T08:54:46.807Z</time>
      </trkpt>
      <trkpt lat="51.06666" lon="2.58631">
        <ele>4.3</ele>
        <time>2018-06-25T08:54:47.807Z</time>
      </trkpt>
      <trkpt lat="51.06673" lon="2.58666">
        <ele>5</ele>
        <time>2018-06-25T08:54:48.807Z</time>
      </trkpt>
      <trkpt lat="51.06669" lon="2.58674">
        <ele>4.8</ele>
        <time>2018-06-25T08:54:49.807Z</time>
      </trkpt>
      <trkpt lat="51.06604" lon="2.58609">
        <ele>5.1</ele>
        <time>2018-06-25T08:54:50.807Z</time>
      </trkpt>
      <trkpt lat="51.06575" lon="2.58595">
        <ele>4.7</ele>
        <time>2018-06-25T08:54:51.807Z</time>
      </trkpt>
      <trkpt lat="51.0652" lon="2.58598">
        <ele>1</ele>
        <time>2018-06-25T08:54:52.807Z</time>
      </trkpt>
      <trkpt lat="51.06266" lon="2.58764">
        <ele>-2</ele>
        <time>2018-06-25T08:54:53.807Z</time>
      </trkpt>
      <trkpt lat="51.06248" lon="2.58786">
        <ele>-2</ele>
        <time>2018-06-25T08:54:54.807Z</time>
      </trkpt>
      <trkpt lat="51.06247" lon="2.58804">
        <ele>-2</ele>
        <time>2018-06-25T08:54:55.807Z</time>
      </trkpt>
      <trkpt lat="51.06256" lon="2.58815">
        <ele>-2</ele>
        <time>2018-06-25T08:54:56.807Z</time>
      </trkpt>
      <trkpt lat="51.06451" lon="2.58703">
        <ele>-1</ele>
        <time>2018-06-25T08:54:57.807Z</time>
      </trkpt>
      <trkpt lat="51.06464" lon="2.58711">
        <ele>-1</ele>
        <time>2018-06-25T08:54:58.807Z</time>
      </trkpt>
      <trkpt lat="51.06548" lon="2.58986">
        <ele>-1</ele>
        <time>2018-06-25T08:54:59.807Z</time>
      </trkpt>
      <trkpt lat="51.06571" lon="2.59112">
        <ele>2.4</ele>
        <time>2018-06-25T08:55:00.807Z</time>
      </trkpt>
      <trkpt lat="51.06567" lon="2.59152">
        <ele>-1</ele>
        <time>2018-06-25T08:55:01.807Z</time>
      </trkpt>
      <trkpt lat="51.06463" lon="2.5943">
        <ele>-1</ele>
        <time>2018-06-25T08:55:02.807Z</time>
      </trkpt>
      <trkpt lat="51.05896" lon="2.60134">
        <ele>-2</ele>
        <time>2018-06-25T08:55:03.807Z</time>
      </trkpt>
      <trkpt lat="51.05156" lon="2.61006">
        <ele>-2</ele>
        <time>2018-06-25T08:55:04.807Z</time>
      </trkpt>
      <trkpt lat="51.04978" lon="2.61243">
        <ele>-1</ele>
        <time>2018-06-25T08:55:05.807Z</time>
      </trkpt>
      <trkpt lat="51.04749" lon="2.61529">
        <ele>-1</ele>
        <time>2018-06-25T08:55:06.807Z</time>
      </trkpt>
      <trkpt lat="51.04576" lon="2.61716">
        <ele>-1</ele>
        <time>2018-06-25T08:55:07.807Z</time>
      </trkpt>
      <trkpt lat="51.04829" lon="2.62445">
        <ele>-1</ele>
        <time>2018-06-25T08:55:08.807Z</time>
      </trkpt>
      <trkpt lat="51.04853" lon="2.62532">
        <ele>-1</ele>
        <time>2018-06-25T08:55:09.807Z</time>
      </trkpt>
      <trkpt lat="51.04868" lon="2.62637">
        <ele>-1</ele>
        <time>2018-06-25T08:55:10.807Z</time>
      </trkpt>
      <trkpt lat="51.0487" lon="2.62721">
        <ele>-1</ele>
        <time>2018-06-25T08:55:11.807Z</time>
      </trkpt>
      <trkpt lat="51.04768" lon="2.63665">
        <ele>2</ele>
        <time>2018-06-25T08:55:12.807Z</time>
      </trkpt>
      <trkpt lat="51.04759" lon="2.64022">
        <ele>3.3</ele>
        <time>2018-06-25T08:55:13.807Z</time>
      </trkpt>
      <trkpt lat="51.0473" lon="2.64195">
        <ele>3.3</ele>
        <time>2018-06-25T08:55:14.807Z</time>
      </trkpt>
      <trkpt lat="51.04646" lon="2.64417">
        <ele>1</ele>
        <time>2018-06-25T08:55:15.807Z</time>
      </trkpt>
      <trkpt lat="51.04633" lon="2.64483">
        <ele>2</ele>
        <time>2018-06-25T08:55:16.807Z</time>
      </trkpt>
      <trkpt lat="51.04551" lon="2.64603">
        <ele>2</ele>
        <time>2018-06-25T08:55:17.807Z</time>
      </trkpt>
      <trkpt lat="51.04417" lon="2.64956">
        <ele>2</ele>
        <time>2018-06-25T08:55:18.807Z</time>
      </trkpt>
      <trkpt lat="51.04381" lon="2.64993">
        <ele>3</ele>
        <time>2018-06-25T08:55:19.807Z</time>
      </trkpt>
      <trkpt lat="51.04334" lon="2.65013">
        <ele>4</ele>
        <time>2018-06-25T08:55:20.807Z</time>
      </trkpt>
      <trkpt lat="51.04303" lon="2.65008">
        <ele>4</ele>
        <time>2018-06-25T08:55:21.807Z</time>
      </trkpt>
      <trkpt lat="51.0422" lon="2.64962">
        <ele>3</ele>
        <time>2018-06-25T08:55:22.807Z</time>
      </trkpt>
      <trkpt lat="51.04133" lon="2.65005">
        <ele>4</ele>
        <time>2018-06-25T08:55:23.807Z</time>
      </trkpt>
      <trkpt lat="51.04076" lon="2.65072">
        <ele>2</ele>
        <time>2018-06-25T08:55:24.807Z</time>
      </trkpt>
      <trkpt lat="51.0399" lon="2.65256">
        <ele>1</ele>
        <time>2018-06-25T08:55:25.807Z</time>
      </trkpt>
      <trkpt lat="51.03963" lon="2.65292">
        <ele>1</ele>
        <time>2018-06-25T08:55:26.807Z</time>
      </trkpt>
      <trkpt lat="51.03955" lon="2.65317">
        <ele>1</ele>
        <time>2018-06-25T08:55:27.807Z</time>
      </trkpt>
      <trkpt lat="51.03976" lon="2.65485">
        <ele>-1</ele>
        <time>2018-06-25T08:55:28.807Z</time>
      </trkpt>
      <trkpt lat="51.04041" lon="2.65735">
        <ele>4</ele>
        <time>2018-06-25T08:55:29.807Z</time>
      </trkpt>
      <trkpt lat="51.04291" lon="2.66309">
        <ele>1</ele>
        <time>2018-06-25T08:55:30.807Z</time>
      </trkpt>
      <trkpt lat="51.043" lon="2.66427">
        <ele>4</ele>
        <time>2018-06-25T08:55:31.807Z</time>
      </trkpt>
      <trkpt lat="51.04269" lon="2.66562">
        <ele>4</ele>
        <time>2018-06-25T08:55:32.807Z</time>
      </trkpt>
      <trkpt lat="51.04269" lon="2.66647">
        <ele>1</ele>
        <time>2018-06-25T08:55:33.807Z</time>
      </trkpt>
      <trkpt lat="51.04242" lon="2.66801">
        <ele>4</ele>
        <time>2018-06-25T08:55:34.807Z</time>
      </trkpt>
      <trkpt lat="51.04151" lon="2.67165">
        <ele>1</ele>
        <time>2018-06-25T08:55:35.807Z</time>
      </trkpt>
      <trkpt lat="51.04132" lon="2.67271">
        <ele>4</ele>
        <time>2018-06-25T08:55:36.807Z</time>
      </trkpt>
      <trkpt lat="51.04137" lon="2.67306">
        <ele>4</ele>
        <time>2018-06-25T08:55:37.807Z</time>
      </trkpt>
      <trkpt lat="51.0416" lon="2.67328">
        <ele>4</ele>
        <time>2018-06-25T08:55:38.807Z</time>
      </trkpt>
      <trkpt lat="51.0417" lon="2.67364">
        <ele>3.2</ele>
        <time>2018-06-25T08:55:39.807Z</time>
      </trkpt>
      <trkpt lat="51.04166" lon="2.67551">
        <ele>4</ele>
        <time>2018-06-25T08:55:40.807Z</time>
      </trkpt>
      <trkpt lat="51.04152" lon="2.67585">
        <ele>4</ele>
        <time>2018-06-25T08:55:41.807Z</time>
      </trkpt>
      <trkpt lat="51.04104" lon="2.67615">
        <ele>1</ele>
        <time>2018-06-25T08:55:42.807Z</time>
      </trkpt>
      <trkpt lat="51.04018" lon="2.67597">
        <ele>1</ele>
        <time>2018-06-25T08:55:43.807Z</time>
      </trkpt>
      <trkpt lat="51.04" lon="2.67609">
        <ele>1</ele>
        <time>2018-06-25T08:55:44.807Z</time>
      </trkpt>
      <trkpt lat="51.03915" lon="2.67802">
        <ele>1</ele>
        <time>2018-06-25T08:55:45.807Z</time>
      </trkpt>
      <trkpt lat="51.03897" lon="2.67955">
        <ele>4</ele>
        <time>2018-06-25T08:55:46.807Z</time>
      </trkpt>
      <trkpt lat="51.03844" lon="2.68243">
        <ele>4</ele>
        <time>2018-06-25T08:55:47.807Z</time>
      </trkpt>
      <trkpt lat="51.03826" lon="2.68254">
        <ele>4</ele>
        <time>2018-06-25T08:55:48.807Z</time>
      </trkpt>
      <trkpt lat="51.03786" lon="2.68253">
        <ele>4</ele>
        <time>2018-06-25T08:55:49.807Z</time>
      </trkpt>
      <trkpt lat="51.03767" lon="2.68264">
        <ele>4</ele>
        <time>2018-06-25T08:55:50.807Z</time>
      </trkpt>
      <trkpt lat="51.03721" lon="2.68357">
        <ele>1</ele>
        <time>2018-06-25T08:55:51.807Z</time>
      </trkpt>
      <trkpt lat="51.03553" lon="2.68538">
        <ele>4</ele>
        <time>2018-06-25T08:55:52.807Z</time>
      </trkpt>
      <trkpt lat="51.03424" lon="2.68635">
        <ele>3.3</ele>
        <time>2018-06-25T08:55:53.807Z</time>
      </trkpt>
      <trkpt lat="51.03382" lon="2.6865">
        <ele>3.1</ele>
        <time>2018-06-25T08:55:54.807Z</time>
      </trkpt>
      <trkpt lat="51.03186" lon="2.68806">
        <ele>2.7</ele>
        <time>2018-06-25T08:55:55.807Z</time>
      </trkpt>
      <trkpt lat="51.03132" lon="2.68874">
        <ele>2.9</ele>
        <time>2018-06-25T08:55:56.807Z</time>
      </trkpt>
      <trkpt lat="51.02829" lon="2.69118">
        <ele>-1</ele>
        <time>2018-06-25T08:55:57.807Z</time>
      </trkpt>
      <trkpt lat="51.028" lon="2.69183">
        <ele>3</ele>
        <time>2018-06-25T08:55:58.807Z</time>
      </trkpt>
      <trkpt lat="51.02612" lon="2.69881">
        <ele>2</ele>
        <time>2018-06-25T08:55:59.807Z</time>
      </trkpt>
      <trkpt lat="51.02537" lon="2.70111">
        <ele>1</ele>
        <time>2018-06-25T08:56:00.807Z</time>
      </trkpt>
      <trkpt lat="51.02462" lon="2.70245">
        <ele>2</ele>
        <time>2018-06-25T08:56:01.807Z</time>
      </trkpt>
      <trkpt lat="51.02417" lon="2.70384">
        <ele>2</ele>
        <time>2018-06-25T08:56:02.807Z</time>
      </trkpt>
      <trkpt lat="51.02308" lon="2.70524">
        <ele>3</ele>
        <time>2018-06-25T08:56:03.807Z</time>
      </trkpt>
      <trkpt lat="51.02305" lon="2.7054">
        <ele>3</ele>
        <time>2018-06-25T08:56:04.807Z</time>
      </trkpt>
      <trkpt lat="51.02326" lon="2.70651">
        <ele>3</ele>
        <time>2018-06-25T08:56:05.807Z</time>
      </trkpt>
      <trkpt lat="51.02345" lon="2.70692">
        <ele>3</ele>
        <time>2018-06-25T08:56:06.807Z</time>
      </trkpt>
      <trkpt lat="51.02418" lon="2.70792">
        <ele>1</ele>
        <time>2018-06-25T08:56:07.807Z</time>
      </trkpt>
      <trkpt lat="51.02421" lon="2.70821">
        <ele>1</ele>
        <time>2018-06-25T08:56:08.807Z</time>
      </trkpt>
      <trkpt lat="51.0241" lon="2.70869">
        <ele>1</ele>
        <time>2018-06-25T08:56:09.807Z</time>
      </trkpt>
      <trkpt lat="51.0241" lon="2.7091">
        <ele>2</ele>
        <time>2018-06-25T08:56:10.807Z</time>
      </trkpt>
      <trkpt lat="51.02423" lon="2.70957">
        <ele>2</ele>
        <time>2018-06-25T08:56:11.807Z</time>
      </trkpt>
      <trkpt lat="51.0247" lon="2.71037">
        <ele>2</ele>
        <time>2018-06-25T08:56:12.807Z</time>
      </trkpt>
      <trkpt lat="51.02493" lon="2.71104">
        <ele>2</ele>
        <time>2018-06-25T08:56:13.807Z</time>
      </trkpt>
      <trkpt lat="51.02501" lon="2.71156">
        <ele>1</ele>
        <time>2018-06-25T08:56:14.807Z</time>
      </trkpt>
      <trkpt lat="51.02493" lon="2.71184">
        <ele>1</ele>
        <time>2018-06-25T08:56:15.807Z</time>
      </trkpt>
      <trkpt lat="51.02382" lon="2.71266">
        <ele>2</ele>
        <time>2018-06-25T08:56:16.807Z</time>
      </trkpt>
      <trkpt lat="51.02359" lon="2.71301">
        <ele>2</ele>
        <time>2018-06-25T08:56:17.807Z</time>
      </trkpt>
      <trkpt lat="51.02352" lon="2.71327">
        <ele>1</ele>
        <time>2018-06-25T08:56:18.807Z</time>
      </trkpt>
      <trkpt lat="51.02424" lon="2.71516">
        <ele>3</ele>
        <time>2018-06-25T08:56:19.807Z</time>
      </trkpt>
      <trkpt lat="51.02445" lon="2.71609">
        <ele>1</ele>
        <time>2018-06-25T08:56:20.807Z</time>
      </trkpt>
      <trkpt lat="51.02194" lon="2.7191">
        <ele>1</ele>
        <time>2018-06-25T08:56:21.807Z</time>
      </trkpt>
      <trkpt lat="51.01982" lon="2.72112">
        <ele>2</ele>
        <time>2018-06-25T08:56:22.807Z</time>
      </trkpt>
      <trkpt lat="51.01953" lon="2.72159">
        <ele>2</ele>
        <time>2018-06-25T08:56:23.807Z</time>
      </trkpt>
      <trkpt lat="51.01832" lon="2.72511">
        <ele>3</ele>
        <time>2018-06-25T08:56:24.807Z</time>
      </trkpt>
      <trkpt lat="51.01769" lon="2.72593">
        <ele>4</ele>
        <time>2018-06-25T08:56:25.807Z</time>
      </trkpt>
      <trkpt lat="51.01613" lon="2.72746">
        <ele>3</ele>
        <time>2018-06-25T08:56:26.807Z</time>
      </trkpt>
      <trkpt lat="51.0159" lon="2.72785">
        <ele>2</ele>
        <time>2018-06-25T08:56:27.807Z</time>
      </trkpt>
      <trkpt lat="51.0155" lon="2.72799">
        <ele>2</ele>
        <time>2018-06-25T08:56:28.807Z</time>
      </trkpt>
      <trkpt lat="51.0142" lon="2.72897">
        <ele>2</ele>
        <time>2018-06-25T08:56:29.807Z</time>
      </trkpt>
      <trkpt lat="51.01131" lon="2.73047">
        <ele>1</ele>
        <time>2018-06-25T08:56:30.807Z</time>
      </trkpt>
      <trkpt lat="51.00864" lon="2.73214">
        <ele>1</ele>
        <time>2018-06-25T08:56:31.807Z</time>
      </trkpt>
      <trkpt lat="51.00195" lon="2.73572">
        <ele>1</ele>
        <time>2018-06-25T08:56:32.807Z</time>
      </trkpt>
      <trkpt lat="50.9979" lon="2.73649">
        <ele>1</ele>
        <time>2018-06-25T08:56:33.807Z</time>
      </trkpt>
      <trkpt lat="50.99402" lon="2.73791">
        <ele>1</ele>
        <time>2018-06-25T08:56:34.807Z</time>
      </trkpt>
      <trkpt lat="50.98427" lon="2.74177">
        <ele>1</ele>
        <time>2018-06-25T08:56:35.807Z</time>
      </trkpt>
      <trkpt lat="50.98371" lon="2.74187">
        <ele>1</ele>
        <time>2018-06-25T08:56:36.807Z</time>
      </trkpt>
      <trkpt lat="50.98049" lon="2.74169">
        <ele>1</ele>
        <time>2018-06-25T08:56:37.807Z</time>
      </trkpt>
      <trkpt lat="50.98024" lon="2.74158">
        <ele>2</ele>
        <time>2018-06-25T08:56:38.807Z</time>
      </trkpt>
      <trkpt lat="50.98005" lon="2.74161">
        <ele>2</ele>
        <time>2018-06-25T08:56:39.807Z</time>
      </trkpt>
      <trkpt lat="50.97943" lon="2.7414">
        <ele>2</ele>
        <time>2018-06-25T08:56:40.807Z</time>
      </trkpt>
      <trkpt lat="50.97604" lon="2.73942">
        <ele>-1</ele>
        <time>2018-06-25T08:56:41.807Z</time>
      </trkpt>
      <trkpt lat="50.97413" lon="2.73788">
        <ele>4.6</ele>
        <time>2018-06-25T08:56:42.807Z</time>
      </trkpt>
      <trkpt lat="50.97306" lon="2.73742">
        <ele>1</ele>
        <time>2018-06-25T08:56:43.807Z</time>
      </trkpt>
      <trkpt lat="50.97189" lon="2.73738">
        <ele>2</ele>
        <time>2018-06-25T08:56:44.807Z</time>
      </trkpt>
      <trkpt lat="50.96967" lon="2.73873">
        <ele>2</ele>
        <time>2018-06-25T08:56:45.807Z</time>
      </trkpt>
      <trkpt lat="50.96931" lon="2.73884">
        <ele>2</ele>
        <time>2018-06-25T08:56:46.807Z</time>
      </trkpt>
      <trkpt lat="50.96865" lon="2.73883">
        <ele>2</ele>
        <time>2018-06-25T08:56:47.807Z</time>
      </trkpt>
      <trkpt lat="50.96819" lon="2.73867">
        <ele>2</ele>
        <time>2018-06-25T08:56:48.807Z</time>
      </trkpt>
      <trkpt lat="50.96763" lon="2.73831">
        <ele>2</ele>
        <time>2018-06-25T08:56:49.807Z</time>
      </trkpt>
      <trkpt lat="50.96594" lon="2.73618">
        <ele>2</ele>
        <time>2018-06-25T08:56:50.807Z</time>
      </trkpt>
      <trkpt lat="50.96499" lon="2.73558">
        <ele>1</ele>
        <time>2018-06-25T08:56:51.807Z</time>
      </trkpt>
      <trkpt lat="50.9631" lon="2.73508">
        <ele>-1</ele>
        <time>2018-06-25T08:56:52.807Z</time>
      </trkpt>
      <trkpt lat="50.96201" lon="2.73506">
        <ele>4.8</ele>
        <time>2018-06-25T08:56:53.807Z</time>
      </trkpt>
      <trkpt lat="50.95984" lon="2.73547">
        <ele>4.4</ele>
        <time>2018-06-25T08:56:54.807Z</time>
      </trkpt>
      <trkpt lat="50.95889" lon="2.73553">
        <ele>1</ele>
        <time>2018-06-25T08:56:55.807Z</time>
      </trkpt>
      <trkpt lat="50.95729" lon="2.73545">
        <ele>2</ele>
        <time>2018-06-25T08:56:56.807Z</time>
      </trkpt>
      <trkpt lat="50.95724" lon="2.73543">
        <ele>2</ele>
        <time>2018-06-25T08:56:57.807Z</time>
      </trkpt>
      <trkpt lat="50.9565" lon="2.73535">
        <ele>1</ele>
        <time>2018-06-25T08:56:58.807Z</time>
      </trkpt>
      <trkpt lat="50.9564" lon="2.73515">
        <ele>1</ele>
        <time>2018-06-25T08:56:59.807Z</time>
      </trkpt>
      <trkpt lat="50.95596" lon="2.73186">
        <ele>1</ele>
        <time>2018-06-25T08:57:00.807Z</time>
      </trkpt>
      <trkpt lat="50.9551" lon="2.72893">
        <ele>4</ele>
        <time>2018-06-25T08:57:01.807Z</time>
      </trkpt>
      <trkpt lat="50.9549" lon="2.72784">
        <ele>-1</ele>
        <time>2018-06-25T08:57:02.807Z</time>
      </trkpt>
      <trkpt lat="50.95409" lon="2.72542">
        <ele>4.4</ele>
        <time>2018-06-25T08:57:03.807Z</time>
      </trkpt>
      <trkpt lat="50.95374" lon="2.72388">
        <ele>1</ele>
        <time>2018-06-25T08:57:04.807Z</time>
      </trkpt>
      <trkpt lat="50.95351" lon="2.72318">
        <ele>1</ele>
        <time>2018-06-25T08:57:05.807Z</time>
      </trkpt>
      <trkpt lat="50.95327" lon="2.7227">
        <ele>2</ele>
        <time>2018-06-25T08:57:06.807Z</time>
      </trkpt>
      <trkpt lat="50.95204" lon="2.72133">
        <ele>1</ele>
        <time>2018-06-25T08:57:07.807Z</time>
      </trkpt>
      <trkpt lat="50.95185" lon="2.72123">
        <ele>1</ele>
        <time>2018-06-25T08:57:08.807Z</time>
      </trkpt>
      <trkpt lat="50.9512" lon="2.72144">
        <ele>1</ele>
        <time>2018-06-25T08:57:09.807Z</time>
      </trkpt>
      <trkpt lat="50.95091" lon="2.7214">
        <ele>2</ele>
        <time>2018-06-25T08:57:10.807Z</time>
      </trkpt>
      <trkpt lat="50.95029" lon="2.72068">
        <ele>3</ele>
        <time>2018-06-25T08:57:11.807Z</time>
      </trkpt>
      <trkpt lat="50.94977" lon="2.7198">
        <ele>2</ele>
        <time>2018-06-25T08:57:12.807Z</time>
      </trkpt>
      <trkpt lat="50.94951" lon="2.71901">
        <ele>2</ele>
        <time>2018-06-25T08:57:13.807Z</time>
      </trkpt>
      <trkpt lat="50.94934" lon="2.71809">
        <ele>1</ele>
        <time>2018-06-25T08:57:14.807Z</time>
      </trkpt>
      <trkpt lat="50.94933" lon="2.71751">
        <ele>4</ele>
        <time>2018-06-25T08:57:15.807Z</time>
      </trkpt>
      <trkpt lat="50.94949" lon="2.71584">
        <ele>1</ele>
        <time>2018-06-25T08:57:16.807Z</time>
      </trkpt>
      <trkpt lat="50.94982" lon="2.71414">
        <ele>1</ele>
        <time>2018-06-25T08:57:17.807Z</time>
      </trkpt>
      <trkpt lat="50.95003" lon="2.71366">
        <ele>4.9</ele>
        <time>2018-06-25T08:57:18.807Z</time>
      </trkpt>
      <trkpt lat="50.95098" lon="2.71249">
        <ele>1</ele>
        <time>2018-06-25T08:57:19.807Z</time>
      </trkpt>
      <trkpt lat="50.95097" lon="2.71167">
        <ele>4</ele>
        <time>2018-06-25T08:57:20.807Z</time>
      </trkpt>
      <trkpt lat="50.95065" lon="2.70987">
        <ele>-1</ele>
        <time>2018-06-25T08:57:21.807Z</time>
      </trkpt>
      <trkpt lat="50.95037" lon="2.70894">
        <ele>4</ele>
        <time>2018-06-25T08:57:22.807Z</time>
      </trkpt>
      <trkpt lat="50.94977" lon="2.70784">
        <ele>4.8</ele>
        <time>2018-06-25T08:57:23.807Z</time>
      </trkpt>
      <trkpt lat="50.95026" lon="2.70341">
        <ele>4.3</ele>
        <time>2018-06-25T08:57:24.807Z</time>
      </trkpt>
      <trkpt lat="50.9504" lon="2.70271">
        <ele>4</ele>
        <time>2018-06-25T08:57:25.807Z</time>
      </trkpt>
      <trkpt lat="50.9508" lon="2.70176">
        <ele>1</ele>
        <time>2018-06-25T08:57:26.807Z</time>
      </trkpt>
      <trkpt lat="50.95135" lon="2.70106">
        <ele>1</ele>
        <time>2018-06-25T08:57:27.807Z</time>
      </trkpt>
      <trkpt lat="50.95143" lon="2.70082">
        <ele>1</ele>
        <time>2018-06-25T08:57:28.807Z</time>
      </trkpt>
      <trkpt lat="50.9515" lon="2.69974">
        <ele>4</ele>
        <time>2018-06-25T08:57:29.807Z</time>
      </trkpt>
      <trkpt lat="50.95118" lon="2.69763">
        <ele>3.9</ele>
        <time>2018-06-25T08:57:30.807Z</time>
      </trkpt>
      <trkpt lat="50.95096" lon="2.69679">
        <ele>1</ele>
        <time>2018-06-25T08:57:31.807Z</time>
      </trkpt>
      <trkpt lat="50.9502" lon="2.69516">
        <ele>4</ele>
        <time>2018-06-25T08:57:32.807Z</time>
      </trkpt>
      <trkpt lat="50.94872" lon="2.69296">
        <ele>1</ele>
        <time>2018-06-25T08:57:33.807Z</time>
      </trkpt>
      <trkpt lat="50.94818" lon="2.69156">
        <ele>4</ele>
        <time>2018-06-25T08:57:34.807Z</time>
      </trkpt>
      <trkpt lat="50.94754" lon="2.6878">
        <ele>4</ele>
        <time>2018-06-25T08:57:35.807Z</time>
      </trkpt>
      <trkpt lat="50.94718" lon="2.68348">
        <ele>-1</ele>
        <time>2018-06-25T08:57:36.807Z</time>
      </trkpt>
      <trkpt lat="50.94615" lon="2.68078">
        <ele>1</ele>
        <time>2018-06-25T08:57:37.807Z</time>
      </trkpt>
      <trkpt lat="50.94555" lon="2.67865">
        <ele>4.8</ele>
        <time>2018-06-25T08:57:38.807Z</time>
      </trkpt>
      <trkpt lat="50.94495" lon="2.67731">
        <ele>4.3</ele>
        <time>2018-06-25T08:57:39.807Z</time>
      </trkpt>
      <trkpt lat="50.94454" lon="2.67587">
        <ele>4.6</ele>
        <time>2018-06-25T08:57:40.807Z</time>
      </trkpt>
      <trkpt lat="50.94369" lon="2.67438">
        <ele>-1</ele>
        <time>2018-06-25T08:57:41.807Z</time>
      </trkpt>
      <trkpt lat="50.94349" lon="2.67377">
        <ele>4.8</ele>
        <time>2018-06-25T08:57:42.807Z</time>
      </trkpt>
      <trkpt lat="50.94341" lon="2.6732">
        <ele>2</ele>
        <time>2018-06-25T08:57:43.807Z</time>
      </trkpt>
      <trkpt lat="50.94347" lon="2.67213">
        <ele>2</ele>
        <time>2018-06-25T08:57:44.807Z</time>
      </trkpt>
      <trkpt lat="50.94337" lon="2.67136">
        <ele>2</ele>
        <time>2018-06-25T08:57:45.807Z</time>
      </trkpt>
      <trkpt lat="50.94307" lon="2.67004">
        <ele>4</ele>
        <time>2018-06-25T08:57:46.807Z</time>
      </trkpt>
      <trkpt lat="50.94269" lon="2.66782">
        <ele>1</ele>
        <time>2018-06-25T08:57:47.807Z</time>
      </trkpt>
      <trkpt lat="50.94246" lon="2.66524">
        <ele>5</ele>
        <time>2018-06-25T08:57:48.807Z</time>
      </trkpt>
      <trkpt lat="50.9426" lon="2.66207">
        <ele>4.4</ele>
        <time>2018-06-25T08:57:49.807Z</time>
      </trkpt>
      <trkpt lat="50.9428" lon="2.66107">
        <ele>4.9</ele>
        <time>2018-06-25T08:57:50.807Z</time>
      </trkpt>
      <trkpt lat="50.94327" lon="2.66">
        <ele>1</ele>
        <time>2018-06-25T08:57:51.807Z</time>
      </trkpt>
      <trkpt lat="50.94331" lon="2.65875">
        <ele>1</ele>
        <time>2018-06-25T08:57:52.807Z</time>
      </trkpt>
      <trkpt lat="50.94313" lon="2.65735">
        <ele>1</ele>
        <time>2018-06-25T08:57:53.807Z</time>
      </trkpt>
      <trkpt lat="50.9431" lon="2.65662">
        <ele>-1</ele>
        <time>2018-06-25T08:57:54.807Z</time>
      </trkpt>
      <trkpt lat="50.9429" lon="2.65593">
        <ele>-1</ele>
        <time>2018-06-25T08:57:55.807Z</time>
      </trkpt>
      <trkpt lat="50.94262" lon="2.65536">
        <ele>-1</ele>
        <time>2018-06-25T08:57:56.807Z</time>
      </trkpt>
      <trkpt lat="50.94216" lon="2.65465">
        <ele>-1</ele>
        <time>2018-06-25T08:57:57.807Z</time>
      </trkpt>
      <trkpt lat="50.94068" lon="2.65304">
        <ele>1</ele>
        <time>2018-06-25T08:57:58.807Z</time>
      </trkpt>
      <trkpt lat="50.9403" lon="2.65284">
        <ele>4.7</ele>
        <time>2018-06-25T08:57:59.807Z</time>
      </trkpt>
      <trkpt lat="50.93908" lon="2.65251">
        <ele>1</ele>
        <time>2018-06-25T08:58:00.807Z</time>
      </trkpt>
      <trkpt lat="50.93882" lon="2.65223">
        <ele>1</ele>
        <time>2018-06-25T08:58:01.807Z</time>
      </trkpt>
      <trkpt lat="50.93642" lon="2.64825">
        <ele>1</ele>
        <time>2018-06-25T08:58:02.807Z</time>
      </trkpt>
      <trkpt lat="50.93594" lon="2.6462">
        <ele>3.8</ele>
        <time>2018-06-25T08:58:03.807Z</time>
      </trkpt>
      <trkpt lat="50.93493" lon="2.64503">
        <ele>1</ele>
        <time>2018-06-25T08:58:04.807Z</time>
      </trkpt>
      <trkpt lat="50.93316" lon="2.64422">
        <ele>4.4</ele>
        <time>2018-06-25T08:58:05.807Z</time>
      </trkpt>
      <trkpt lat="50.93263" lon="2.64343">
        <ele>-1</ele>
        <time>2018-06-25T08:58:06.807Z</time>
      </trkpt>
      <trkpt lat="50.93232" lon="2.6427">
        <ele>4.4</ele>
        <time>2018-06-25T08:58:07.807Z</time>
      </trkpt>
      <trkpt lat="50.93214" lon="2.64187">
        <ele>1</ele>
        <time>2018-06-25T08:58:08.807Z</time>
      </trkpt>
      <trkpt lat="50.93207" lon="2.64083">
        <ele>2</ele>
        <time>2018-06-25T08:58:09.807Z</time>
      </trkpt>
      <trkpt lat="50.93195" lon="2.64041">
        <ele>1</ele>
        <time>2018-06-25T08:58:10.807Z</time>
      </trkpt>
      <trkpt lat="50.93171" lon="2.64">
        <ele>1</ele>
        <time>2018-06-25T08:58:11.807Z</time>
      </trkpt>
      <trkpt lat="50.93149" lon="2.63982">
        <ele>1</ele>
        <time>2018-06-25T08:58:12.807Z</time>
      </trkpt>
      <trkpt lat="50.93033" lon="2.63943">
        <ele>1</ele>
        <time>2018-06-25T08:58:13.807Z</time>
      </trkpt>
      <trkpt lat="50.93006" lon="2.63907">
        <ele>1</ele>
        <time>2018-06-25T08:58:14.807Z</time>
      </trkpt>
      <trkpt lat="50.92916" lon="2.63641">
        <ele>1</ele>
        <time>2018-06-25T08:58:15.807Z</time>
      </trkpt>
      <trkpt lat="50.929" lon="2.6351">
        <ele>1</ele>
        <time>2018-06-25T08:58:16.807Z</time>
      </trkpt>
      <trkpt lat="50.9275" lon="2.63063">
        <ele>1</ele>
        <time>2018-06-25T08:58:17.807Z</time>
      </trkpt>
      <trkpt lat="50.92695" lon="2.62963">
        <ele>1</ele>
        <time>2018-06-25T08:58:18.807Z</time>
      </trkpt>
      <trkpt lat="50.92665" lon="2.62925">
        <ele>1</ele>
        <time>2018-06-25T08:58:19.807Z</time>
      </trkpt>
      <trkpt lat="50.92616" lon="2.629">
        <ele>1</ele>
        <time>2018-06-25T08:58:20.807Z</time>
      </trkpt>
      <trkpt lat="50.92509" lon="2.62684">
        <ele>2</ele>
        <time>2018-06-25T08:58:21.807Z</time>
      </trkpt>
      <trkpt lat="50.92486" lon="2.62589">
        <ele>3</ele>
        <time>2018-06-25T08:58:22.807Z</time>
      </trkpt>
      <trkpt lat="50.92446" lon="2.62523">
        <ele>3</ele>
        <time>2018-06-25T08:58:23.807Z</time>
      </trkpt>
      <trkpt lat="50.92424" lon="2.62502">
        <ele>2</ele>
        <time>2018-06-25T08:58:24.807Z</time>
      </trkpt>
      <trkpt lat="50.92091" lon="2.62317">
        <ele>3</ele>
        <time>2018-06-25T08:58:25.807Z</time>
      </trkpt>
      <trkpt lat="50.9209" lon="2.62317">
        <ele>3</ele>
        <time>2018-06-25T08:58:26.807Z</time>
      </trkpt>
      <trkpt lat="50.92066" lon="2.62302">
        <ele>3</ele>
        <time>2018-06-25T08:58:27.807Z</time>
      </trkpt>
      <trkpt lat="50.9205" lon="2.62288">
        <ele>3</ele>
        <time>2018-06-25T08:58:28.807Z</time>
      </trkpt>
      <trkpt lat="50.9203" lon="2.62263">
        <ele>3</ele>
        <time>2018-06-25T08:58:29.807Z</time>
      </trkpt>
      <trkpt lat="50.91983" lon="2.62342">
        <ele>4</ele>
        <time>2018-06-25T08:58:30.807Z</time>
      </trkpt>
      <trkpt lat="50.9195" lon="2.62387">
        <ele>6</ele>
        <time>2018-06-25T08:58:31.807Z</time>
      </trkpt>
      <trkpt lat="50.91891" lon="2.62475">
        <ele>6</ele>
        <time>2018-06-25T08:58:32.807Z</time>
      </trkpt>
      <trkpt lat="50.9188" lon="2.62471">
        <ele>5</ele>
        <time>2018-06-25T08:58:33.807Z</time>
      </trkpt>
      <trkpt lat="50.91868" lon="2.62468">
        <ele>5</ele>
        <time>2018-06-25T08:58:34.807Z</time>
      </trkpt>
      <trkpt lat="50.91795" lon="2.62491">
        <ele>4</ele>
        <time>2018-06-25T08:58:35.807Z</time>
      </trkpt>
      <trkpt lat="50.91738" lon="2.62512">
        <ele>4</ele>
        <time>2018-06-25T08:58:36.807Z</time>
      </trkpt>
      <trkpt lat="50.9173" lon="2.62519">
        <ele>4</ele>
        <time>2018-06-25T08:58:37.807Z</time>
      </trkpt>
      <trkpt lat="50.9164" lon="2.62553">
        <ele>4</ele>
        <time>2018-06-25T08:58:38.807Z</time>
      </trkpt>
      <trkpt lat="50.91358" lon="2.62658">
        <ele>4</ele>
        <time>2018-06-25T08:58:39.807Z</time>
      </trkpt>
      <trkpt lat="50.91331" lon="2.62665">
        <ele>4</ele>
        <time>2018-06-25T08:58:40.807Z</time>
      </trkpt>
      <trkpt lat="50.9131" lon="2.62661">
        <ele>5</ele>
        <time>2018-06-25T08:58:41.807Z</time>
      </trkpt>
      <trkpt lat="50.91296" lon="2.62654">
        <ele>5</ele>
        <time>2018-06-25T08:58:42.807Z</time>
      </trkpt>
      <trkpt lat="50.91283" lon="2.62642">
        <ele>5</ele>
        <time>2018-06-25T08:58:43.807Z</time>
      </trkpt>
      <trkpt lat="50.91185" lon="2.62526">
        <ele>7</ele>
        <time>2018-06-25T08:58:44.807Z</time>
      </trkpt>
      <trkpt lat="50.91179" lon="2.6254">
        <ele>7</ele>
        <time>2018-06-25T08:58:45.807Z</time>
      </trkpt>
      <trkpt lat="50.91137" lon="2.6258">
        <ele>7</ele>
        <time>2018-06-25T08:58:46.807Z</time>
      </trkpt>
      <trkpt lat="50.91119" lon="2.62573">
        <ele>8</ele>
        <time>2018-06-25T08:58:47.807Z</time>
      </trkpt>
      <trkpt lat="50.91015" lon="2.62552">
        <ele>6</ele>
        <time>2018-06-25T08:58:48.807Z</time>
      </trkpt>
      <trkpt lat="50.90812" lon="2.62524">
        <ele>6</ele>
        <time>2018-06-25T08:58:49.807Z</time>
      </trkpt>
      <trkpt lat="50.9079" lon="2.62519">
        <ele>6</ele>
        <time>2018-06-25T08:58:50.807Z</time>
      </trkpt>
      <trkpt lat="50.90726" lon="2.6249">
        <ele>7</ele>
        <time>2018-06-25T08:58:51.807Z</time>
      </trkpt>
      <trkpt lat="50.9071" lon="2.62485">
        <ele>7</ele>
        <time>2018-06-25T08:58:52.807Z</time>
      </trkpt>
      <trkpt lat="50.90673" lon="2.62491">
        <ele>8</ele>
        <time>2018-06-25T08:58:53.807Z</time>
      </trkpt>
      <trkpt lat="50.90638" lon="2.6249">
        <ele>8</ele>
        <time>2018-06-25T08:58:54.807Z</time>
      </trkpt>
      <trkpt lat="50.90606" lon="2.62487">
        <ele>8</ele>
        <time>2018-06-25T08:58:55.807Z</time>
      </trkpt>
      <trkpt lat="50.90556" lon="2.62476">
        <ele>8</ele>
        <time>2018-06-25T08:58:56.807Z</time>
      </trkpt>
      <trkpt lat="50.90545" lon="2.62471">
        <ele>8</ele>
        <time>2018-06-25T08:58:57.807Z</time>
      </trkpt>
      <trkpt lat="50.90483" lon="2.62422">
        <ele>8</ele>
        <time>2018-06-25T08:58:58.807Z</time>
      </trkpt>
      <trkpt lat="50.90473" lon="2.62416">
        <ele>8</ele>
        <time>2018-06-25T08:58:59.807Z</time>
      </trkpt>
      <trkpt lat="50.90463" lon="2.62414">
        <ele>8</ele>
        <time>2018-06-25T08:59:00.807Z</time>
      </trkpt>
      <trkpt lat="50.90393" lon="2.62415">
        <ele>7</ele>
        <time>2018-06-25T08:59:01.807Z</time>
      </trkpt>
      <trkpt lat="50.90328" lon="2.62424">
        <ele>8</ele>
        <time>2018-06-25T08:59:02.807Z</time>
      </trkpt>
      <trkpt lat="50.90231" lon="2.62447">
        <ele>6</ele>
        <time>2018-06-25T08:59:03.807Z</time>
      </trkpt>
      <trkpt lat="50.90166" lon="2.62453">
        <ele>6</ele>
        <time>2018-06-25T08:59:04.807Z</time>
      </trkpt>
      <trkpt lat="50.90145" lon="2.6245">
        <ele>6</ele>
        <time>2018-06-25T08:59:05.807Z</time>
      </trkpt>
      <trkpt lat="50.90114" lon="2.62442">
        <ele>6</ele>
        <time>2018-06-25T08:59:06.807Z</time>
      </trkpt>
      <trkpt lat="50.9009" lon="2.62432">
        <ele>6</ele>
        <time>2018-06-25T08:59:07.807Z</time>
      </trkpt>
      <trkpt lat="50.90045" lon="2.62403">
        <ele>6</ele>
        <time>2018-06-25T08:59:08.807Z</time>
      </trkpt>
      <trkpt lat="50.8998" lon="2.62371">
        <ele>7</ele>
        <time>2018-06-25T08:59:09.807Z</time>
      </trkpt>
      <trkpt lat="50.89968" lon="2.62371">
        <ele>7</ele>
        <time>2018-06-25T08:59:10.807Z</time>
      </trkpt>
      <trkpt lat="50.89926" lon="2.62387">
        <ele>6</ele>
        <time>2018-06-25T08:59:11.807Z</time>
      </trkpt>
      <trkpt lat="50.89906" lon="2.62389">
        <ele>6</ele>
        <time>2018-06-25T08:59:12.807Z</time>
      </trkpt>
      <trkpt lat="50.89865" lon="2.62376">
        <ele>7</ele>
        <time>2018-06-25T08:59:13.807Z</time>
      </trkpt>
      <trkpt lat="50.89798" lon="2.6236">
        <ele>7</ele>
        <time>2018-06-25T08:59:14.807Z</time>
      </trkpt>
      <trkpt lat="50.89776" lon="2.62353">
        <ele>8</ele>
        <time>2018-06-25T08:59:15.807Z</time>
      </trkpt>
      <trkpt lat="50.89699" lon="2.62308">
        <ele>9</ele>
        <time>2018-06-25T08:59:16.807Z</time>
      </trkpt>
      <trkpt lat="50.89664" lon="2.62283">
        <ele>9</ele>
        <time>2018-06-25T08:59:17.807Z</time>
      </trkpt>
      <trkpt lat="50.89635" lon="2.62289">
        <ele>9</ele>
        <time>2018-06-25T08:59:18.807Z</time>
      </trkpt>
      <trkpt lat="50.89623" lon="2.6229">
        <ele>9</ele>
        <time>2018-06-25T08:59:19.807Z</time>
      </trkpt>
      <trkpt lat="50.89616" lon="2.62307">
        <ele>9</ele>
        <time>2018-06-25T08:59:20.807Z</time>
      </trkpt>
      <trkpt lat="50.89608" lon="2.62317">
        <ele>10</ele>
        <time>2018-06-25T08:59:21.807Z</time>
      </trkpt>
      <trkpt lat="50.89556" lon="2.62356">
        <ele>9</ele>
        <time>2018-06-25T08:59:22.807Z</time>
      </trkpt>
      <trkpt lat="50.89497" lon="2.62393">
        <ele>8</ele>
        <time>2018-06-25T08:59:23.807Z</time>
      </trkpt>
      <trkpt lat="50.89477" lon="2.62409">
        <ele>8</ele>
        <time>2018-06-25T08:59:24.807Z</time>
      </trkpt>
      <trkpt lat="50.89453" lon="2.62431">
        <ele>9</ele>
        <time>2018-06-25T08:59:25.807Z</time>
      </trkpt>
      <trkpt lat="50.89407" lon="2.62482">
        <ele>9</ele>
        <time>2018-06-25T08:59:26.807Z</time>
      </trkpt>
      <trkpt lat="50.89349" lon="2.62525">
        <ele>9</ele>
        <time>2018-06-25T08:59:27.807Z</time>
      </trkpt>
      <trkpt lat="50.89301" lon="2.62562">
        <ele>11</ele>
        <time>2018-06-25T08:59:28.807Z</time>
      </trkpt>
      <trkpt lat="50.8921" lon="2.62648">
        <ele>11</ele>
        <time>2018-06-25T08:59:29.807Z</time>
      </trkpt>
      <trkpt lat="50.89194" lon="2.62659">
        <ele>12</ele>
        <time>2018-06-25T08:59:30.807Z</time>
      </trkpt>
      <trkpt lat="50.89179" lon="2.62665">
        <ele>12</ele>
        <time>2018-06-25T08:59:31.807Z</time>
      </trkpt>
      <trkpt lat="50.89138" lon="2.62667">
        <ele>12</ele>
        <time>2018-06-25T08:59:32.807Z</time>
      </trkpt>
      <trkpt lat="50.89139" lon="2.62668">
        <ele>12</ele>
        <time>2018-06-25T08:59:33.807Z</time>
      </trkpt>
      <trkpt lat="50.8913" lon="2.62669">
        <ele>12</ele>
        <time>2018-06-25T08:59:34.807Z</time>
      </trkpt>
      <trkpt lat="50.89116" lon="2.62673">
        <ele>13</ele>
        <time>2018-06-25T08:59:35.807Z</time>
      </trkpt>
      <trkpt lat="50.89105" lon="2.62681">
        <ele>13</ele>
        <time>2018-06-25T08:59:36.807Z</time>
      </trkpt>
      <trkpt lat="50.89092" lon="2.62696">
        <ele>13</ele>
        <time>2018-06-25T08:59:37.807Z</time>
      </trkpt>
      <trkpt lat="50.89066" lon="2.62736">
        <ele>12</ele>
        <time>2018-06-25T08:59:38.807Z</time>
      </trkpt>
      <trkpt lat="50.89053" lon="2.62761">
        <ele>12</ele>
        <time>2018-06-25T08:59:39.807Z</time>
      </trkpt>
      <trkpt lat="50.89041" lon="2.62793">
        <ele>11</ele>
        <time>2018-06-25T08:59:40.807Z</time>
      </trkpt>
      <trkpt lat="50.8904" lon="2.62825">
        <ele>11</ele>
        <time>2018-06-25T08:59:41.807Z</time>
      </trkpt>
      <trkpt lat="50.89036" lon="2.62836">
        <ele>11</ele>
        <time>2018-06-25T08:59:42.807Z</time>
      </trkpt>
      <trkpt lat="50.88965" lon="2.62927">
        <ele>12</ele>
        <time>2018-06-25T08:59:43.807Z</time>
      </trkpt>
      <trkpt lat="50.88963" lon="2.62938">
        <ele>12</ele>
        <time>2018-06-25T08:59:44.807Z</time>
      </trkpt>
      <trkpt lat="50.88965" lon="2.62956">
        <ele>12</ele>
        <time>2018-06-25T08:59:45.807Z</time>
      </trkpt>
      <trkpt lat="50.89001" lon="2.63045">
        <ele>13</ele>
        <time>2018-06-25T08:59:46.807Z</time>
      </trkpt>
      <trkpt lat="50.89029" lon="2.63123">
        <ele>12</ele>
        <time>2018-06-25T08:59:47.807Z</time>
      </trkpt>
      <trkpt lat="50.89072" lon="2.63291">
        <ele>12</ele>
        <time>2018-06-25T08:59:48.807Z</time>
      </trkpt>
      <trkpt lat="50.89072" lon="2.63308">
        <ele>13</ele>
        <time>2018-06-25T08:59:49.807Z</time>
      </trkpt>
      <trkpt lat="50.89065" lon="2.63324">
        <ele>13</ele>
        <time>2018-06-25T08:59:50.807Z</time>
      </trkpt>
      <trkpt lat="50.89037" lon="2.63343">
        <ele>12</ele>
        <time>2018-06-25T08:59:51.807Z</time>
      </trkpt>
      <trkpt lat="50.89009" lon="2.63355">
        <ele>12</ele>
        <time>2018-06-25T08:59:52.807Z</time>
      </trkpt>
      <trkpt lat="50.88886" lon="2.63392">
        <ele>13</ele>
        <time>2018-06-25T08:59:53.807Z</time>
      </trkpt>
      <trkpt lat="50.88886" lon="2.63393">
        <ele>13</ele>
        <time>2018-06-25T08:59:54.807Z</time>
      </trkpt>
      <trkpt lat="50.88768" lon="2.63428">
        <ele>12</ele>
        <time>2018-06-25T08:59:55.807Z</time>
      </trkpt>
      <trkpt lat="50.88742" lon="2.63438">
        <ele>12</ele>
        <time>2018-06-25T08:59:56.807Z</time>
      </trkpt>
      <trkpt lat="50.88598" lon="2.63518">
        <ele>13</ele>
        <time>2018-06-25T08:59:57.807Z</time>
      </trkpt>
      <trkpt lat="50.88492" lon="2.6358">
        <ele>14</ele>
        <time>2018-06-25T08:59:58.807Z</time>
      </trkpt>
      <trkpt lat="50.88488" lon="2.63584">
        <ele>14</ele>
        <time>2018-06-25T08:59:59.807Z</time>
      </trkpt>
      <trkpt lat="50.88419" lon="2.63603">
        <ele>15</ele>
        <time>2018-06-25T09:00:00.807Z</time>
      </trkpt>
      <trkpt lat="50.88224" lon="2.63701">
        <ele>18</ele>
        <time>2018-06-25T09:00:01.807Z</time>
      </trkpt>
      <trkpt lat="50.88146" lon="2.63753">
        <ele>19</ele>
        <time>2018-06-25T09:00:02.807Z</time>
      </trkpt>
      <trkpt lat="50.88146" lon="2.63754">
        <ele>19</ele>
        <time>2018-06-25T09:00:03.807Z</time>
      </trkpt>
      <trkpt lat="50.88115" lon="2.6377">
        <ele>19</ele>
        <time>2018-06-25T09:00:04.807Z</time>
      </trkpt>
      <trkpt lat="50.88027" lon="2.63812">
        <ele>18</ele>
        <time>2018-06-25T09:00:05.807Z</time>
      </trkpt>
      <trkpt lat="50.87946" lon="2.63871">
        <ele>18</ele>
        <time>2018-06-25T09:00:06.807Z</time>
      </trkpt>
      <trkpt lat="50.87928" lon="2.63887">
        <ele>19</ele>
        <time>2018-06-25T09:00:07.807Z</time>
      </trkpt>
      <trkpt lat="50.88029" lon="2.6414">
        <ele>17</ele>
        <time>2018-06-25T09:00:08.807Z</time>
      </trkpt>
      <trkpt lat="50.88063" lon="2.64247">
        <ele>19</ele>
        <time>2018-06-25T09:00:09.807Z</time>
      </trkpt>
      <trkpt lat="50.88115" lon="2.64449">
        <ele>22</ele>
        <time>2018-06-25T09:00:10.807Z</time>
      </trkpt>
      <trkpt lat="50.88157" lon="2.6458">
        <ele>20</ele>
        <time>2018-06-25T09:00:11.807Z</time>
      </trkpt>
      <trkpt lat="50.88073" lon="2.64645">
        <ele>20</ele>
        <time>2018-06-25T09:00:12.807Z</time>
      </trkpt>
      <trkpt lat="50.88028" lon="2.64677">
        <ele>20</ele>
        <time>2018-06-25T09:00:13.807Z</time>
      </trkpt>
      <trkpt lat="50.87936" lon="2.64763">
        <ele>20</ele>
        <time>2018-06-25T09:00:14.807Z</time>
      </trkpt>
      <trkpt lat="50.87883" lon="2.64799">
        <ele>21</ele>
        <time>2018-06-25T09:00:15.807Z</time>
      </trkpt>
      <trkpt lat="50.87844" lon="2.64822">
        <ele>21</ele>
        <time>2018-06-25T09:00:16.807Z</time>
      </trkpt>
      <trkpt lat="50.87804" lon="2.6484">
        <ele>22</ele>
        <time>2018-06-25T09:00:17.807Z</time>
      </trkpt>
      <trkpt lat="50.87759" lon="2.64865">
        <ele>22</ele>
        <time>2018-06-25T09:00:18.807Z</time>
      </trkpt>
      <trkpt lat="50.87708" lon="2.64905">
        <ele>22</ele>
        <time>2018-06-25T09:00:19.807Z</time>
      </trkpt>
      <trkpt lat="50.8765" lon="2.64955">
        <ele>22</ele>
        <time>2018-06-25T09:00:20.807Z</time>
      </trkpt>
      <trkpt lat="50.87562" lon="2.65046">
        <ele>24</ele>
        <time>2018-06-25T09:00:21.807Z</time>
      </trkpt>
      <trkpt lat="50.87506" lon="2.65088">
        <ele>24</ele>
        <time>2018-06-25T09:00:22.807Z</time>
      </trkpt>
      <trkpt lat="50.87392" lon="2.65156">
        <ele>25</ele>
        <time>2018-06-25T09:00:23.807Z</time>
      </trkpt>
      <trkpt lat="50.87313" lon="2.65198">
        <ele>25</ele>
        <time>2018-06-25T09:00:24.807Z</time>
      </trkpt>
      <trkpt lat="50.87227" lon="2.65228">
        <ele>26</ele>
        <time>2018-06-25T09:00:25.807Z</time>
      </trkpt>
      <trkpt lat="50.8722" lon="2.65226">
        <ele>26</ele>
        <time>2018-06-25T09:00:26.807Z</time>
      </trkpt>
      <trkpt lat="50.87209" lon="2.65217">
        <ele>26</ele>
        <time>2018-06-25T09:00:27.807Z</time>
      </trkpt>
      <trkpt lat="50.87191" lon="2.65207">
        <ele>27</ele>
        <time>2018-06-25T09:00:28.807Z</time>
      </trkpt>
      <trkpt lat="50.87165" lon="2.65203">
        <ele>27</ele>
        <time>2018-06-25T09:00:29.807Z</time>
      </trkpt>
      <trkpt lat="50.86945" lon="2.65198">
        <ele>29</ele>
        <time>2018-06-25T09:00:30.807Z</time>
      </trkpt>
      <trkpt lat="50.86946" lon="2.65198">
        <ele>29</ele>
        <time>2018-06-25T09:00:31.807Z</time>
      </trkpt>
      <trkpt lat="50.86929" lon="2.65197">
        <ele>29</ele>
        <time>2018-06-25T09:00:32.807Z</time>
      </trkpt>
      <trkpt lat="50.86872" lon="2.65222">
        <ele>28</ele>
        <time>2018-06-25T09:00:33.807Z</time>
      </trkpt>
      <trkpt lat="50.86863" lon="2.65226">
        <ele>28</ele>
        <time>2018-06-25T09:00:34.807Z</time>
      </trkpt>
      <trkpt lat="50.8684" lon="2.6521">
        <ele>29</ele>
        <time>2018-06-25T09:00:35.807Z</time>
      </trkpt>
      <trkpt lat="50.86834" lon="2.65218">
        <ele>28</ele>
        <time>2018-06-25T09:00:36.807Z</time>
      </trkpt>
      <trkpt lat="50.86797" lon="2.65236">
        <ele>28</ele>
        <time>2018-06-25T09:00:37.807Z</time>
      </trkpt>
      <trkpt lat="50.86756" lon="2.6526">
        <ele>29</ele>
        <time>2018-06-25T09:00:38.807Z</time>
      </trkpt>
      <trkpt lat="50.86644" lon="2.65347">
        <ele>29</ele>
        <time>2018-06-25T09:00:39.807Z</time>
      </trkpt>
      <trkpt lat="50.86627" lon="2.65352">
        <ele>28</ele>
        <time>2018-06-25T09:00:40.807Z</time>
      </trkpt>
      <trkpt lat="50.86617" lon="2.65353">
        <ele>28</ele>
        <time>2018-06-25T09:00:41.807Z</time>
      </trkpt>
      <trkpt lat="50.86577" lon="2.65347">
        <ele>26</ele>
        <time>2018-06-25T09:00:42.807Z</time>
      </trkpt>
      <trkpt lat="50.86514" lon="2.65332">
        <ele>25</ele>
        <time>2018-06-25T09:00:43.807Z</time>
      </trkpt>
      <trkpt lat="50.8649" lon="2.65324">
        <ele>25</ele>
        <time>2018-06-25T09:00:44.807Z</time>
      </trkpt>
      <trkpt lat="50.86477" lon="2.65314">
        <ele>25</ele>
        <time>2018-06-25T09:00:45.807Z</time>
      </trkpt>
      <trkpt lat="50.86421" lon="2.65242">
        <ele>23</ele>
        <time>2018-06-25T09:00:46.807Z</time>
      </trkpt>
      <trkpt lat="50.86407" lon="2.65228">
        <ele>23</ele>
        <time>2018-06-25T09:00:47.807Z</time>
      </trkpt>
      <trkpt lat="50.86392" lon="2.65223">
        <ele>22</ele>
        <time>2018-06-25T09:00:48.807Z</time>
      </trkpt>
      <trkpt lat="50.86381" lon="2.65225">
        <ele>22</ele>
        <time>2018-06-25T09:00:49.807Z</time>
      </trkpt>
      <trkpt lat="50.8632" lon="2.65248">
        <ele>21</ele>
        <time>2018-06-25T09:00:50.807Z</time>
      </trkpt>
      <trkpt lat="50.86251" lon="2.65259">
        <ele>21</ele>
        <time>2018-06-25T09:00:51.807Z</time>
      </trkpt>
      <trkpt lat="50.86183" lon="2.65262">
        <ele>20</ele>
        <time>2018-06-25T09:00:52.807Z</time>
      </trkpt>
      <trkpt lat="50.86173" lon="2.65267">
        <ele>20</ele>
        <time>2018-06-25T09:00:53.807Z</time>
      </trkpt>
      <trkpt lat="50.86143" lon="2.65266">
        <ele>19</ele>
        <time>2018-06-25T09:00:54.807Z</time>
      </trkpt>
      <trkpt lat="50.86087" lon="2.65256">
        <ele>20</ele>
        <time>2018-06-25T09:00:55.807Z</time>
      </trkpt>
      <trkpt lat="50.86087" lon="2.65257">
        <ele>20</ele>
        <time>2018-06-25T09:00:56.807Z</time>
      </trkpt>
      <trkpt lat="50.86015" lon="2.65245">
        <ele>21</ele>
        <time>2018-06-25T09:00:57.807Z</time>
      </trkpt>
      <trkpt lat="50.85912" lon="2.65257">
        <ele>19</ele>
        <time>2018-06-25T09:00:58.807Z</time>
      </trkpt>
      <trkpt lat="50.8587" lon="2.65268">
        <ele>19</ele>
        <time>2018-06-25T09:00:59.807Z</time>
      </trkpt>
      <trkpt lat="50.85834" lon="2.65283">
        <ele>19</ele>
        <time>2018-06-25T09:01:00.807Z</time>
      </trkpt>
      <trkpt lat="50.85695" lon="2.65342">
        <ele>24</ele>
        <time>2018-06-25T09:01:01.807Z</time>
      </trkpt>
      <trkpt lat="50.85642" lon="2.65354">
        <ele>26</ele>
        <time>2018-06-25T09:01:02.807Z</time>
      </trkpt>
      <trkpt lat="50.85628" lon="2.6536">
        <ele>26</ele>
        <time>2018-06-25T09:01:03.807Z</time>
      </trkpt>
      <trkpt lat="50.8557" lon="2.65399">
        <ele>28</ele>
        <time>2018-06-25T09:01:04.807Z</time>
      </trkpt>
      <trkpt lat="50.85547" lon="2.65409">
        <ele>28</ele>
        <time>2018-06-25T09:01:05.807Z</time>
      </trkpt>
      <trkpt lat="50.85475" lon="2.65428">
        <ele>30</ele>
        <time>2018-06-25T09:01:06.807Z</time>
      </trkpt>
      <trkpt lat="50.85421" lon="2.65466">
        <ele>31</ele>
        <time>2018-06-25T09:01:07.807Z</time>
      </trkpt>
      <trkpt lat="50.85394" lon="2.65491">
        <ele>31</ele>
        <time>2018-06-25T09:01:08.807Z</time>
      </trkpt>
      <trkpt lat="50.85364" lon="2.65523">
        <ele>31</ele>
        <time>2018-06-25T09:01:09.807Z</time>
      </trkpt>
      <trkpt lat="50.85269" lon="2.65635">
        <ele>35</ele>
        <time>2018-06-25T09:01:10.807Z</time>
      </trkpt>
      <trkpt lat="50.85257" lon="2.65636">
        <ele>35</ele>
        <time>2018-06-25T09:01:11.807Z</time>
      </trkpt>
      <trkpt lat="50.85072" lon="2.65701">
        <ele>35</ele>
        <time>2018-06-25T09:01:12.807Z</time>
      </trkpt>
      <trkpt lat="50.85025" lon="2.65721">
        <ele>35</ele>
        <time>2018-06-25T09:01:13.807Z</time>
      </trkpt>
      <trkpt lat="50.84982" lon="2.65749">
        <ele>34</ele>
        <time>2018-06-25T09:01:14.807Z</time>
      </trkpt>
      <trkpt lat="50.84927" lon="2.65792">
        <ele>32</ele>
        <time>2018-06-25T09:01:15.807Z</time>
      </trkpt>
      <trkpt lat="50.84899" lon="2.6581">
        <ele>31</ele>
        <time>2018-06-25T09:01:16.807Z</time>
      </trkpt>
      <trkpt lat="50.84872" lon="2.65822">
        <ele>30</ele>
        <time>2018-06-25T09:01:17.807Z</time>
      </trkpt>
      <trkpt lat="50.84857" lon="2.65821">
        <ele>29</ele>
        <time>2018-06-25T09:01:18.807Z</time>
      </trkpt>
      <trkpt lat="50.84808" lon="2.65807">
        <ele>28</ele>
        <time>2018-06-25T09:01:19.807Z</time>
      </trkpt>
      <trkpt lat="50.848" lon="2.65807">
        <ele>28</ele>
        <time>2018-06-25T09:01:20.807Z</time>
      </trkpt>
      <trkpt lat="50.8479" lon="2.65811">
        <ele>28</ele>
        <time>2018-06-25T09:01:21.807Z</time>
      </trkpt>
      <trkpt lat="50.84659" lon="2.65946">
        <ele>30</ele>
        <time>2018-06-25T09:01:22.807Z</time>
      </trkpt>
      <trkpt lat="50.8466" lon="2.65947">
        <ele>30</ele>
        <time>2018-06-25T09:01:23.807Z</time>
      </trkpt>
      <trkpt lat="50.84642" lon="2.65964">
        <ele>31</ele>
        <time>2018-06-25T09:01:24.807Z</time>
      </trkpt>
      <trkpt lat="50.84616" lon="2.65997">
        <ele>31</ele>
        <time>2018-06-25T09:01:25.807Z</time>
      </trkpt>
      <trkpt lat="50.84565" lon="2.66078">
        <ele>33</ele>
        <time>2018-06-25T09:01:26.807Z</time>
      </trkpt>
      <trkpt lat="50.8452" lon="2.66158">
        <ele>34</ele>
        <time>2018-06-25T09:01:27.807Z</time>
      </trkpt>
      <trkpt lat="50.84508" lon="2.66175">
        <ele>34</ele>
        <time>2018-06-25T09:01:28.807Z</time>
      </trkpt>
      <trkpt lat="50.84501" lon="2.66179">
        <ele>34</ele>
        <time>2018-06-25T09:01:29.807Z</time>
      </trkpt>
      <trkpt lat="50.84392" lon="2.66201">
        <ele>35</ele>
        <time>2018-06-25T09:01:30.807Z</time>
      </trkpt>
      <trkpt lat="50.84373" lon="2.66206">
        <ele>36</ele>
        <time>2018-06-25T09:01:31.807Z</time>
      </trkpt>
      <trkpt lat="50.84363" lon="2.66211">
        <ele>37</ele>
        <time>2018-06-25T09:01:32.807Z</time>
      </trkpt>
      <trkpt lat="50.8435" lon="2.66222">
        <ele>38</ele>
        <time>2018-06-25T09:01:33.807Z</time>
      </trkpt>
      <trkpt lat="50.84249" lon="2.66353">
        <ele>42</ele>
        <time>2018-06-25T09:01:34.807Z</time>
      </trkpt>
      <trkpt lat="50.84179" lon="2.66451">
        <ele>46</ele>
        <time>2018-06-25T09:01:35.807Z</time>
      </trkpt>
      <trkpt lat="50.84123" lon="2.66541">
        <ele>47</ele>
        <time>2018-06-25T09:01:36.807Z</time>
      </trkpt>
      <trkpt lat="50.84115" lon="2.66551">
        <ele>47</ele>
        <time>2018-06-25T09:01:37.807Z</time>
      </trkpt>
      <trkpt lat="50.84104" lon="2.66561">
        <ele>48</ele>
        <time>2018-06-25T09:01:38.807Z</time>
      </trkpt>
      <trkpt lat="50.84088" lon="2.66566">
        <ele>48</ele>
        <time>2018-06-25T09:01:39.807Z</time>
      </trkpt>
      <trkpt lat="50.84078" lon="2.66565">
        <ele>48</ele>
        <time>2018-06-25T09:01:40.807Z</time>
      </trkpt>
      <trkpt lat="50.84074" lon="2.66562">
        <ele>48</ele>
        <time>2018-06-25T09:01:41.807Z</time>
      </trkpt>
      <trkpt lat="50.84016" lon="2.66486">
        <ele>51</ele>
        <time>2018-06-25T09:01:42.807Z</time>
      </trkpt>
      <trkpt lat="50.84007" lon="2.66479">
        <ele>51</ele>
        <time>2018-06-25T09:01:43.807Z</time>
      </trkpt>
      <trkpt lat="50.84003" lon="2.66479">
        <ele>52</ele>
        <time>2018-06-25T09:01:44.807Z</time>
      </trkpt>
      <trkpt lat="50.83956" lon="2.6651">
        <ele>52</ele>
        <time>2018-06-25T09:01:45.807Z</time>
      </trkpt>
      <trkpt lat="50.83747" lon="2.66681">
        <ele>55</ele>
        <time>2018-06-25T09:01:46.807Z</time>
      </trkpt>
      <trkpt lat="50.83713" lon="2.66557">
        <ele>55</ele>
        <time>2018-06-25T09:01:47.807Z</time>
      </trkpt>
      <trkpt lat="50.83691" lon="2.66564">
        <ele>54</ele>
        <time>2018-06-25T09:01:48.807Z</time>
      </trkpt>
      <trkpt lat="50.83631" lon="2.66571">
        <ele>54</ele>
        <time>2018-06-25T09:01:49.807Z</time>
      </trkpt>
      <trkpt lat="50.83539" lon="2.66562">
        <ele>59</ele>
        <time>2018-06-25T09:01:50.807Z</time>
      </trkpt>
      <trkpt lat="50.83455" lon="2.66534">
        <ele>64</ele>
        <time>2018-06-25T09:01:51.807Z</time>
      </trkpt>
      <trkpt lat="50.83417" lon="2.66529">
        <ele>65</ele>
        <time>2018-06-25T09:01:52.807Z</time>
      </trkpt>
      <trkpt lat="50.83417" lon="2.66529">
        <ele>65</ele>
        <time>2018-06-25T09:01:53.807Z</time>
      </trkpt>
      <trkpt lat="50.83417" lon="2.66532">
        <ele>65</ele>
        <time>2018-06-25T09:01:54.807Z</time>
      </trkpt>
      <trkpt lat="50.83284" lon="2.66534">
        <ele>67</ele>
        <time>2018-06-25T09:01:55.807Z</time>
      </trkpt>
      <trkpt lat="50.83249" lon="2.66543">
        <ele>68</ele>
        <time>2018-06-25T09:01:56.807Z</time>
      </trkpt>
      <trkpt lat="50.83197" lon="2.66568">
        <ele>68</ele>
        <time>2018-06-25T09:01:57.807Z</time>
      </trkpt>
      <trkpt lat="50.83076" lon="2.66636">
        <ele>60</ele>
        <time>2018-06-25T09:01:58.807Z</time>
      </trkpt>
      <trkpt lat="50.83032" lon="2.66671">
        <ele>56</ele>
        <time>2018-06-25T09:01:59.807Z</time>
      </trkpt>
      <trkpt lat="50.83021" lon="2.66672">
        <ele>55</ele>
        <time>2018-06-25T09:02:00.807Z</time>
      </trkpt>
      <trkpt lat="50.83012" lon="2.66667">
        <ele>54</ele>
        <time>2018-06-25T09:02:01.807Z</time>
      </trkpt>
      <trkpt lat="50.83008" lon="2.66662">
        <ele>54</ele>
        <time>2018-06-25T09:02:02.807Z</time>
      </trkpt>
      <trkpt lat="50.82942" lon="2.66534">
        <ele>52</ele>
        <time>2018-06-25T09:02:03.807Z</time>
      </trkpt>
      <trkpt lat="50.82929" lon="2.66493">
        <ele>52</ele>
        <time>2018-06-25T09:02:04.807Z</time>
      </trkpt>
      <trkpt lat="50.82922" lon="2.66431">
        <ele>51</ele>
        <time>2018-06-25T09:02:05.807Z</time>
      </trkpt>
      <trkpt lat="50.82919" lon="2.66407">
        <ele>51</ele>
        <time>2018-06-25T09:02:06.807Z</time>
      </trkpt>
      <trkpt lat="50.82915" lon="2.66391">
        <ele>50</ele>
        <time>2018-06-25T09:02:07.807Z</time>
      </trkpt>
      <trkpt lat="50.82902" lon="2.66363">
        <ele>51</ele>
        <time>2018-06-25T09:02:08.807Z</time>
      </trkpt>
      <trkpt lat="50.82854" lon="2.6628">
        <ele>54</ele>
        <time>2018-06-25T09:02:09.807Z</time>
      </trkpt>
      <trkpt lat="50.82803" lon="2.6622">
        <ele>54</ele>
        <time>2018-06-25T09:02:10.807Z</time>
      </trkpt>
      <trkpt lat="50.82779" lon="2.6619">
        <ele>53</ele>
        <time>2018-06-25T09:02:11.807Z</time>
      </trkpt>
      <trkpt lat="50.82736" lon="2.66111">
        <ele>53</ele>
        <time>2018-06-25T09:02:12.807Z</time>
      </trkpt>
      <trkpt lat="50.8264" lon="2.65952">
        <ele>48</ele>
        <time>2018-06-25T09:02:13.807Z</time>
      </trkpt>
      <trkpt lat="50.82754" lon="2.6566">
        <ele>48</ele>
        <time>2018-06-25T09:02:14.807Z</time>
      </trkpt>
      <trkpt lat="50.8274" lon="2.65635">
        <ele>47</ele>
        <time>2018-06-25T09:02:15.807Z</time>
      </trkpt>
      <trkpt lat="50.82714" lon="2.65556">
        <ele>45</ele>
        <time>2018-06-25T09:02:16.807Z</time>
      </trkpt>
      <trkpt lat="50.82662" lon="2.65364">
        <ele>41</ele>
        <time>2018-06-25T09:02:17.807Z</time>
      </trkpt>
      <trkpt lat="50.82602" lon="2.65378">
        <ele>40</ele>
        <time>2018-06-25T09:02:18.807Z</time>
      </trkpt>
      <trkpt lat="50.82519" lon="2.65391">
        <ele>39</ele>
        <time>2018-06-25T09:02:19.807Z</time>
      </trkpt>
      <trkpt lat="50.82479" lon="2.65392">
        <ele>38</ele>
        <time>2018-06-25T09:02:20.807Z</time>
      </trkpt>
      <trkpt lat="50.82461" lon="2.6539">
        <ele>38</ele>
        <time>2018-06-25T09:02:21.807Z</time>
      </trkpt>
      <trkpt lat="50.82416" lon="2.65372">
        <ele>37</ele>
        <time>2018-06-25T09:02:22.807Z</time>
      </trkpt>
      <trkpt lat="50.82306" lon="2.65296">
        <ele>36</ele>
        <time>2018-06-25T09:02:23.807Z</time>
      </trkpt>
      <trkpt lat="50.82293" lon="2.65293">
        <ele>36</ele>
        <time>2018-06-25T09:02:24.807Z</time>
      </trkpt>
      <trkpt lat="50.82273" lon="2.65293">
        <ele>36</ele>
        <time>2018-06-25T09:02:25.807Z</time>
      </trkpt>
      <trkpt lat="50.82232" lon="2.65302">
        <ele>36</ele>
        <time>2018-06-25T09:02:26.807Z</time>
      </trkpt>
      <trkpt lat="50.82219" lon="2.65307">
        <ele>36</ele>
        <time>2018-06-25T09:02:27.807Z</time>
      </trkpt>
      <trkpt lat="50.82205" lon="2.65316">
        <ele>37</ele>
        <time>2018-06-25T09:02:28.807Z</time>
      </trkpt>
      <trkpt lat="50.82165" lon="2.6535">
        <ele>37</ele>
        <time>2018-06-25T09:02:29.807Z</time>
      </trkpt>
      <trkpt lat="50.82098" lon="2.65419">
        <ele>36</ele>
        <time>2018-06-25T09:02:30.807Z</time>
      </trkpt>
      <trkpt lat="50.82075" lon="2.65436">
        <ele>35</ele>
        <time>2018-06-25T09:02:31.807Z</time>
      </trkpt>
      <trkpt lat="50.82056" lon="2.65444">
        <ele>34</ele>
        <time>2018-06-25T09:02:32.807Z</time>
      </trkpt>
      <trkpt lat="50.81938" lon="2.65476">
        <ele>32</ele>
        <time>2018-06-25T09:02:33.807Z</time>
      </trkpt>
      <trkpt lat="50.81817" lon="2.65525">
        <ele>33</ele>
        <time>2018-06-25T09:02:34.807Z</time>
      </trkpt>
      <trkpt lat="50.81804" lon="2.65528">
        <ele>33</ele>
        <time>2018-06-25T09:02:35.807Z</time>
      </trkpt>
      <trkpt lat="50.8172" lon="2.65524">
        <ele>35</ele>
        <time>2018-06-25T09:02:36.807Z</time>
      </trkpt>
      <trkpt lat="50.81652" lon="2.65538">
        <ele>38</ele>
        <time>2018-06-25T09:02:37.807Z</time>
      </trkpt>
      <trkpt lat="50.81484" lon="2.65577">
        <ele>40</ele>
        <time>2018-06-25T09:02:38.807Z</time>
      </trkpt>
      <trkpt lat="50.81449" lon="2.65588">
        <ele>40</ele>
        <time>2018-06-25T09:02:39.807Z</time>
      </trkpt>
      <trkpt lat="50.81363" lon="2.65605">
        <ele>41</ele>
        <time>2018-06-25T09:02:40.807Z</time>
      </trkpt>
      <trkpt lat="50.8136" lon="2.6561">
        <ele>41</ele>
        <time>2018-06-25T09:02:41.807Z</time>
      </trkpt>
      <trkpt lat="50.81347" lon="2.65535">
        <ele>41</ele>
        <time>2018-06-25T09:02:42.807Z</time>
      </trkpt>
      <trkpt lat="50.8134" lon="2.65429">
        <ele>41</ele>
        <time>2018-06-25T09:02:43.807Z</time>
      </trkpt>
      <trkpt lat="50.81338" lon="2.65207">
        <ele>44</ele>
        <time>2018-06-25T09:02:44.807Z</time>
      </trkpt>
      <trkpt lat="50.81337" lon="2.64748">
        <ele>46</ele>
        <time>2018-06-25T09:02:45.807Z</time>
      </trkpt>
      <trkpt lat="50.81332" lon="2.64591">
        <ele>46</ele>
        <time>2018-06-25T09:02:46.807Z</time>
      </trkpt>
      <trkpt lat="50.81317" lon="2.64588">
        <ele>46</ele>
        <time>2018-06-25T09:02:47.807Z</time>
      </trkpt>
      <trkpt lat="50.81259" lon="2.64533">
        <ele>47</ele>
        <time>2018-06-25T09:02:48.807Z</time>
      </trkpt>
      <trkpt lat="50.81159" lon="2.64451">
        <ele>48</ele>
        <time>2018-06-25T09:02:49.807Z</time>
      </trkpt>
      <trkpt lat="50.81122" lon="2.64437">
        <ele>49</ele>
        <time>2018-06-25T09:02:50.807Z</time>
      </trkpt>
      <trkpt lat="50.8109" lon="2.64417">
        <ele>50</ele>
        <time>2018-06-25T09:02:51.807Z</time>
      </trkpt>
      <trkpt lat="50.81054" lon="2.64387">
        <ele>50</ele>
        <time>2018-06-25T09:02:52.807Z</time>
      </trkpt>
      <trkpt lat="50.81036" lon="2.64369">
        <ele>51</ele>
        <time>2018-06-25T09:02:53.807Z</time>
      </trkpt>
      <trkpt lat="50.81021" lon="2.64348">
        <ele>51</ele>
        <time>2018-06-25T09:02:54.807Z</time>
      </trkpt>
      <trkpt lat="50.80996" lon="2.64308">
        <ele>52</ele>
        <time>2018-06-25T09:02:55.807Z</time>
      </trkpt>
      <trkpt lat="50.80966" lon="2.64275">
        <ele>53</ele>
        <time>2018-06-25T09:02:56.807Z</time>
      </trkpt>
      <trkpt lat="50.80925" lon="2.64239">
        <ele>56</ele>
        <time>2018-06-25T09:02:57.807Z</time>
      </trkpt>
      <trkpt lat="50.8083" lon="2.6416">
        <ele>62</ele>
        <time>2018-06-25T09:02:58.807Z</time>
      </trkpt>
      <trkpt lat="50.80811" lon="2.64151">
        <ele>63</ele>
        <time>2018-06-25T09:02:59.807Z</time>
      </trkpt>
      <trkpt lat="50.80694" lon="2.64129">
        <ele>65</ele>
        <time>2018-06-25T09:03:00.807Z</time>
      </trkpt>
      <trkpt lat="50.80636" lon="2.64123">
        <ele>65</ele>
        <time>2018-06-25T09:03:01.807Z</time>
      </trkpt>
      <trkpt lat="50.80522" lon="2.64118">
        <ele>63</ele>
        <time>2018-06-25T09:03:02.807Z</time>
      </trkpt>
      <trkpt lat="50.80501" lon="2.6412">
        <ele>62</ele>
        <time>2018-06-25T09:03:03.807Z</time>
      </trkpt>
      <trkpt lat="50.80464" lon="2.64126">
        <ele>61</ele>
        <time>2018-06-25T09:03:04.807Z</time>
      </trkpt>
      <trkpt lat="50.80326" lon="2.64165">
        <ele>60</ele>
        <time>2018-06-25T09:03:05.807Z</time>
      </trkpt>
      <trkpt lat="50.80169" lon="2.64173">
        <ele>54</ele>
        <time>2018-06-25T09:03:06.807Z</time>
      </trkpt>
      <trkpt lat="50.8017" lon="2.64173">
        <ele>54</ele>
        <time>2018-06-25T09:03:07.807Z</time>
      </trkpt>
      <trkpt lat="50.79846" lon="2.64235">
        <ele>44</ele>
        <time>2018-06-25T09:03:08.807Z</time>
      </trkpt>
      <trkpt lat="50.7973" lon="2.64249">
        <ele>42</ele>
        <time>2018-06-25T09:03:09.807Z</time>
      </trkpt>
      <trkpt lat="50.79698" lon="2.6426">
        <ele>42</ele>
        <time>2018-06-25T09:03:10.807Z</time>
      </trkpt>
      <trkpt lat="50.79698" lon="2.6426">
        <ele>42</ele>
        <time>2018-06-25T09:03:11.807Z</time>
      </trkpt>
      <trkpt lat="50.7962" lon="2.64283">
        <ele>44</ele>
        <time>2018-06-25T09:03:12.807Z</time>
      </trkpt>
      <trkpt lat="50.7956" lon="2.64293">
        <ele>46</ele>
        <time>2018-06-25T09:03:13.807Z</time>
      </trkpt>
      <trkpt lat="50.7955" lon="2.643">
        <ele>46</ele>
        <time>2018-06-25T09:03:14.807Z</time>
      </trkpt>
      <trkpt lat="50.79459" lon="2.64322">
        <ele>46</ele>
        <time>2018-06-25T09:03:15.807Z</time>
      </trkpt>
      <trkpt lat="50.79405" lon="2.64355">
        <ele>47</ele>
        <time>2018-06-25T09:03:16.807Z</time>
      </trkpt>
      <trkpt lat="50.79373" lon="2.64298">
        <ele>46</ele>
        <time>2018-06-25T09:03:17.807Z</time>
      </trkpt>
      <trkpt lat="50.79365" lon="2.64291">
        <ele>46</ele>
        <time>2018-06-25T09:03:18.807Z</time>
      </trkpt>
      <trkpt lat="50.79336" lon="2.64395">
        <ele>45</ele>
        <time>2018-06-25T09:03:19.807Z</time>
      </trkpt>
      <trkpt lat="50.79276" lon="2.64471">
        <ele>43</ele>
        <time>2018-06-25T09:03:20.807Z</time>
      </trkpt>
      <trkpt lat="50.79241" lon="2.64532">
        <ele>44</ele>
        <time>2018-06-25T09:03:21.807Z</time>
      </trkpt>
      <trkpt lat="50.79359" lon="2.64684">
        <ele>45</ele>
        <time>2018-06-25T09:03:22.807Z</time>
      </trkpt>
      <trkpt lat="50.79459" lon="2.64769">
        <ele>44</ele>
        <time>2018-06-25T09:03:23.807Z</time>
      </trkpt>
      <trkpt lat="50.79476" lon="2.64761">
        <ele>43</ele>
        <time>2018-06-25T09:03:24.807Z</time>
      </trkpt>
      <trkpt lat="50.7949" lon="2.64781">
        <ele>43</ele>
        <time>2018-06-25T09:03:25.807Z</time>
      </trkpt>
      <trkpt lat="50.79468" lon="2.64754">
        <ele>43</ele>
        <time>2018-06-25T09:03:26.807Z</time>
      </trkpt>
      <trkpt lat="50.79473" lon="2.64747">
        <ele>43</ele>
        <time>2018-06-25T09:03:27.807Z</time>
      </trkpt>
      <trkpt lat="50.79492" lon="2.6476">
        <ele>43</ele>
        <time>2018-06-25T09:03:28.807Z</time>
      </trkpt>
      <trkpt lat="50.79549" lon="2.64849">
        <ele>43</ele>
        <time>2018-06-25T09:03:29.807Z</time>
      </trkpt>
      <trkpt lat="50.79627" lon="2.64911">
        <ele>41</ele>
        <time>2018-06-25T09:03:30.807Z</time>
      </trkpt>
      <trkpt lat="50.79683" lon="2.64987">
        <ele>42</ele>
        <time>2018-06-25T09:03:31.807Z</time>
      </trkpt>
      <trkpt lat="50.79734" lon="2.6504">
        <ele>40</ele>
        <time>2018-06-25T09:03:32.807Z</time>
      </trkpt>
      <trkpt lat="50.79737" lon="2.65052">
        <ele>40</ele>
        <time>2018-06-25T09:03:33.807Z</time>
      </trkpt>
      <trkpt lat="50.79591" lon="2.65285">
        <ele>48</ele>
        <time>2018-06-25T09:03:34.807Z</time>
      </trkpt>
      <trkpt lat="50.79578" lon="2.65289">
        <ele>48</ele>
        <time>2018-06-25T09:03:35.807Z</time>
      </trkpt>
      <trkpt lat="50.79577" lon="2.65289">
        <ele>48</ele>
        <time>2018-06-25T09:03:36.807Z</time>
      </trkpt>
      <trkpt lat="50.79559" lon="2.65284">
        <ele>47</ele>
        <time>2018-06-25T09:03:37.807Z</time>
      </trkpt>
      <trkpt lat="50.79555" lon="2.65277">
        <ele>47</ele>
        <time>2018-06-25T09:03:38.807Z</time>
      </trkpt>
      <trkpt lat="50.79536" lon="2.65241">
        <ele>46</ele>
        <time>2018-06-25T09:03:39.807Z</time>
      </trkpt>
      <trkpt lat="50.79536" lon="2.6524">
        <ele>46</ele>
        <time>2018-06-25T09:03:40.807Z</time>
      </trkpt>
      <trkpt lat="50.79528" lon="2.65237">
        <ele>45</ele>
        <time>2018-06-25T09:03:41.807Z</time>
      </trkpt>
      <trkpt lat="50.79517" lon="2.65241">
        <ele>45</ele>
        <time>2018-06-25T09:03:42.807Z</time>
      </trkpt>
      <trkpt lat="50.79474" lon="2.65296">
        <ele>46</ele>
        <time>2018-06-25T09:03:43.807Z</time>
      </trkpt>
      <trkpt lat="50.79447" lon="2.65355">
        <ele>47</ele>
        <time>2018-06-25T09:03:44.807Z</time>
      </trkpt>
      <trkpt lat="50.79424" lon="2.65387">
        <ele>48</ele>
        <time>2018-06-25T09:03:45.807Z</time>
      </trkpt>
      <trkpt lat="50.79156" lon="2.65545">
        <ele>65</ele>
        <time>2018-06-25T09:03:46.807Z</time>
      </trkpt>
      <trkpt lat="50.78957" lon="2.65699">
        <ele>86</ele>
        <time>2018-06-25T09:03:47.807Z</time>
      </trkpt>
      <trkpt lat="50.78826" lon="2.65741">
        <ele>101</ele>
        <time>2018-06-25T09:03:48.807Z</time>
      </trkpt>
      <trkpt lat="50.7881" lon="2.65728">
        <ele>102</ele>
        <time>2018-06-25T09:03:49.807Z</time>
      </trkpt>
      <trkpt lat="50.78793" lon="2.65692">
        <ele>104</ele>
        <time>2018-06-25T09:03:50.807Z</time>
      </trkpt>
      <trkpt lat="50.78737" lon="2.6573">
        <ele>107</ele>
        <time>2018-06-25T09:03:51.807Z</time>
      </trkpt>
      <trkpt lat="50.78709" lon="2.65849">
        <ele>113</ele>
        <time>2018-06-25T09:03:52.807Z</time>
      </trkpt>
      <trkpt lat="50.78654" lon="2.65974">
        <ele>123</ele>
        <time>2018-06-25T09:03:53.807Z</time>
      </trkpt>
      <trkpt lat="50.78653" lon="2.65975">
        <ele>123</ele>
        <time>2018-06-25T09:03:54.807Z</time>
      </trkpt>
      <trkpt lat="50.78651" lon="2.65971">
        <ele>123</ele>
        <time>2018-06-25T09:03:55.807Z</time>
      </trkpt>
      <trkpt lat="50.78634" lon="2.66027">
        <ele>123</ele>
        <time>2018-06-25T09:03:56.807Z</time>
      </trkpt>
      <trkpt lat="50.78617" lon="2.66146">
        <ele>131</ele>
        <time>2018-06-25T09:03:57.807Z</time>
      </trkpt>
      <trkpt lat="50.78636" lon="2.66252">
        <ele>136</ele>
        <time>2018-06-25T09:03:58.807Z</time>
      </trkpt>
      <trkpt lat="50.7865" lon="2.6658">
        <ele>148</ele>
        <time>2018-06-25T09:03:59.807Z</time>
      </trkpt>
      <trkpt lat="50.7863" lon="2.66611">
        <ele>151</ele>
        <time>2018-06-25T09:04:00.807Z</time>
      </trkpt>
      <trkpt lat="50.7861" lon="2.6662">
        <ele>153</ele>
        <time>2018-06-25T09:04:01.807Z</time>
      </trkpt>
      <trkpt lat="50.78549" lon="2.66603">
        <ele>160</ele>
        <time>2018-06-25T09:04:02.807Z</time>
      </trkpt>
      <trkpt lat="50.78474" lon="2.66612">
        <ele>164</ele>
        <time>2018-06-25T09:04:03.807Z</time>
      </trkpt>
      <trkpt lat="50.78459" lon="2.66626">
        <ele>164</ele>
        <time>2018-06-25T09:04:04.807Z</time>
      </trkpt>
      <trkpt lat="50.78421" lon="2.66737">
        <ele>164</ele>
        <time>2018-06-25T09:04:05.807Z</time>
      </trkpt>
      <trkpt lat="50.78406" lon="2.66804">
        <ele>164</ele>
        <time>2018-06-25T09:04:06.807Z</time>
      </trkpt>
      <trkpt lat="50.78395" lon="2.66944">
        <ele>159</ele>
        <time>2018-06-25T09:04:07.807Z</time>
      </trkpt>
      <trkpt lat="50.784" lon="2.66974">
        <ele>158</ele>
        <time>2018-06-25T09:04:08.807Z</time>
      </trkpt>
      <trkpt lat="50.78387" lon="2.67035">
        <ele>154</ele>
        <time>2018-06-25T09:04:09.807Z</time>
      </trkpt>
      <trkpt lat="50.78387" lon="2.6708">
        <ele>151</ele>
        <time>2018-06-25T09:04:10.807Z</time>
      </trkpt>
      <trkpt lat="50.78409" lon="2.6712">
        <ele>145</ele>
        <time>2018-06-25T09:04:11.807Z</time>
      </trkpt>
      <trkpt lat="50.78389" lon="2.67185">
        <ele>143</ele>
        <time>2018-06-25T09:04:12.807Z</time>
      </trkpt>
      <trkpt lat="50.78395" lon="2.6721">
        <ele>142</ele>
        <time>2018-06-25T09:04:13.807Z</time>
      </trkpt>
      <trkpt lat="50.78348" lon="2.6714">
        <ele>150</ele>
        <time>2018-06-25T09:04:14.807Z</time>
      </trkpt>
      <trkpt lat="50.78262" lon="2.67088">
        <ele>153</ele>
        <time>2018-06-25T09:04:15.807Z</time>
      </trkpt>
      <trkpt lat="50.78254" lon="2.67101">
        <ele>154</ele>
        <time>2018-06-25T09:04:16.807Z</time>
      </trkpt>
      <trkpt lat="50.78242" lon="2.67193">
        <ele>153</ele>
        <time>2018-06-25T09:04:17.807Z</time>
      </trkpt>
      <trkpt lat="50.78222" lon="2.67246">
        <ele>148</ele>
        <time>2018-06-25T09:04:18.807Z</time>
      </trkpt>
      <trkpt lat="50.78191" lon="2.67258">
        <ele>142</ele>
        <time>2018-06-25T09:04:19.807Z</time>
      </trkpt>
      <trkpt lat="50.78182" lon="2.67272">
        <ele>140</ele>
        <time>2018-06-25T09:04:20.807Z</time>
      </trkpt>
      <trkpt lat="50.78117" lon="2.673">
        <ele>126</ele>
        <time>2018-06-25T09:04:21.807Z</time>
      </trkpt>
      <trkpt lat="50.78109" lon="2.67323">
        <ele>124</ele>
        <time>2018-06-25T09:04:22.807Z</time>
      </trkpt>
      <trkpt lat="50.78114" lon="2.67424">
        <ele>118</ele>
        <time>2018-06-25T09:04:23.807Z</time>
      </trkpt>
      <trkpt lat="50.78134" lon="2.67478">
        <ele>113</ele>
        <time>2018-06-25T09:04:24.807Z</time>
      </trkpt>
      <trkpt lat="50.78171" lon="2.67538">
        <ele>109</ele>
        <time>2018-06-25T09:04:25.807Z</time>
      </trkpt>
      <trkpt lat="50.78189" lon="2.67605">
        <ele>104</ele>
        <time>2018-06-25T09:04:26.807Z</time>
      </trkpt>
      <trkpt lat="50.78192" lon="2.67709">
        <ele>98</ele>
        <time>2018-06-25T09:04:27.807Z</time>
      </trkpt>
      <trkpt lat="50.78177" lon="2.67749">
        <ele>96</ele>
        <time>2018-06-25T09:04:28.807Z</time>
      </trkpt>
      <trkpt lat="50.78111" lon="2.67838">
        <ele>92</ele>
        <time>2018-06-25T09:04:29.807Z</time>
      </trkpt>
      <trkpt lat="50.78026" lon="2.67915">
        <ele>90</ele>
        <time>2018-06-25T09:04:30.807Z</time>
      </trkpt>
      <trkpt lat="50.78021" lon="2.67933">
        <ele>89</ele>
        <time>2018-06-25T09:04:31.807Z</time>
      </trkpt>
      <trkpt lat="50.78054" lon="2.68237">
        <ele>75</ele>
        <time>2018-06-25T09:04:32.807Z</time>
      </trkpt>
      <trkpt lat="50.78058" lon="2.68348">
        <ele>72</ele>
        <time>2018-06-25T09:04:33.807Z</time>
      </trkpt>
      <trkpt lat="50.78082" lon="2.68622">
        <ele>64</ele>
        <time>2018-06-25T09:04:34.807Z</time>
      </trkpt>
      <trkpt lat="50.78079" lon="2.68817">
        <ele>61</ele>
        <time>2018-06-25T09:04:35.807Z</time>
      </trkpt>
      <trkpt lat="50.78056" lon="2.69028">
        <ele>56</ele>
        <time>2018-06-25T09:04:36.807Z</time>
      </trkpt>
      <trkpt lat="50.78078" lon="2.69068">
        <ele>56</ele>
        <time>2018-06-25T09:04:37.807Z</time>
      </trkpt>
      <trkpt lat="50.78128" lon="2.69246">
        <ele>62</ele>
        <time>2018-06-25T09:04:38.807Z</time>
      </trkpt>
      <trkpt lat="50.78255" lon="2.69525">
        <ele>57</ele>
        <time>2018-06-25T09:04:39.807Z</time>
      </trkpt>
      <trkpt lat="50.77752" lon="2.70129">
        <ele>41</ele>
        <time>2018-06-25T09:04:40.807Z</time>
      </trkpt>
      <trkpt lat="50.77617" lon="2.70233">
        <ele>43</ele>
        <time>2018-06-25T09:04:41.807Z</time>
      </trkpt>
      <trkpt lat="50.77675" lon="2.70534">
        <ele>38</ele>
        <time>2018-06-25T09:04:42.807Z</time>
      </trkpt>
      <trkpt lat="50.77699" lon="2.7055">
        <ele>37</ele>
        <time>2018-06-25T09:04:43.807Z</time>
      </trkpt>
      <trkpt lat="50.77728" lon="2.70679">
        <ele>37</ele>
        <time>2018-06-25T09:04:44.807Z</time>
      </trkpt>
      <trkpt lat="50.77737" lon="2.70802">
        <ele>40</ele>
        <time>2018-06-25T09:04:45.807Z</time>
      </trkpt>
      <trkpt lat="50.77757" lon="2.70895">
        <ele>46</ele>
        <time>2018-06-25T09:04:46.807Z</time>
      </trkpt>
      <trkpt lat="50.77799" lon="2.7119">
        <ele>66</ele>
        <time>2018-06-25T09:04:47.807Z</time>
      </trkpt>
      <trkpt lat="50.77905" lon="2.7149">
        <ele>71</ele>
        <time>2018-06-25T09:04:48.807Z</time>
      </trkpt>
      <trkpt lat="50.77971" lon="2.71817">
        <ele>82</ele>
        <time>2018-06-25T09:04:49.807Z</time>
      </trkpt>
      <trkpt lat="50.77982" lon="2.71963">
        <ele>89</ele>
        <time>2018-06-25T09:04:50.807Z</time>
      </trkpt>
      <trkpt lat="50.77997" lon="2.71999">
        <ele>92</ele>
        <time>2018-06-25T09:04:51.807Z</time>
      </trkpt>
      <trkpt lat="50.78003" lon="2.72054">
        <ele>96</ele>
        <time>2018-06-25T09:04:52.807Z</time>
      </trkpt>
      <trkpt lat="50.77999" lon="2.72153">
        <ele>99</ele>
        <time>2018-06-25T09:04:53.807Z</time>
      </trkpt>
      <trkpt lat="50.78025" lon="2.72264">
        <ele>107</ele>
        <time>2018-06-25T09:04:54.807Z</time>
      </trkpt>
      <trkpt lat="50.77991" lon="2.72265">
        <ele>102</ele>
        <time>2018-06-25T09:04:55.807Z</time>
      </trkpt>
      <trkpt lat="50.77981" lon="2.72275">
        <ele>102</ele>
        <time>2018-06-25T09:04:56.807Z</time>
      </trkpt>
      <trkpt lat="50.77833" lon="2.72276">
        <ele>89</ele>
        <time>2018-06-25T09:04:57.807Z</time>
      </trkpt>
      <trkpt lat="50.77753" lon="2.72214">
        <ele>78</ele>
        <time>2018-06-25T09:04:58.807Z</time>
      </trkpt>
      <trkpt lat="50.77724" lon="2.72181">
        <ele>71</ele>
        <time>2018-06-25T09:04:59.807Z</time>
      </trkpt>
      <trkpt lat="50.77661" lon="2.72145">
        <ele>61</ele>
        <time>2018-06-25T09:05:00.807Z</time>
      </trkpt>
      <trkpt lat="50.77546" lon="2.72138">
        <ele>50</ele>
        <time>2018-06-25T09:05:01.807Z</time>
      </trkpt>
      <trkpt lat="50.77442" lon="2.72148">
        <ele>43</ele>
        <time>2018-06-25T09:05:02.807Z</time>
      </trkpt>
      <trkpt lat="50.77435" lon="2.72129">
        <ele>42</ele>
        <time>2018-06-25T09:05:03.807Z</time>
      </trkpt>
      <trkpt lat="50.77432" lon="2.72041">
        <ele>43</ele>
        <time>2018-06-25T09:05:04.807Z</time>
      </trkpt>
      <trkpt lat="50.77421" lon="2.72035">
        <ele>42</ele>
        <time>2018-06-25T09:05:05.807Z</time>
      </trkpt>
      <trkpt lat="50.77307" lon="2.72075">
        <ele>39</ele>
        <time>2018-06-25T09:05:06.807Z</time>
      </trkpt>
      <trkpt lat="50.77302" lon="2.72088">
        <ele>39</ele>
        <time>2018-06-25T09:05:07.807Z</time>
      </trkpt>
      <trkpt lat="50.773" lon="2.72212">
        <ele>38</ele>
        <time>2018-06-25T09:05:08.807Z</time>
      </trkpt>
      <trkpt lat="50.77337" lon="2.72289">
        <ele>40</ele>
        <time>2018-06-25T09:05:09.807Z</time>
      </trkpt>
      <trkpt lat="50.77349" lon="2.72351">
        <ele>41</ele>
        <time>2018-06-25T09:05:10.807Z</time>
      </trkpt>
      <trkpt lat="50.77361" lon="2.72545">
        <ele>47</ele>
        <time>2018-06-25T09:05:11.807Z</time>
      </trkpt>
      <trkpt lat="50.77396" lon="2.72655">
        <ele>53</ele>
        <time>2018-06-25T09:05:12.807Z</time>
      </trkpt>
      <trkpt lat="50.77363" lon="2.72745">
        <ele>63</ele>
        <time>2018-06-25T09:05:13.807Z</time>
      </trkpt>
      <trkpt lat="50.77336" lon="2.72789">
        <ele>69</ele>
        <time>2018-06-25T09:05:14.807Z</time>
      </trkpt>
      <trkpt lat="50.77345" lon="2.72853">
        <ele>76</ele>
        <time>2018-06-25T09:05:15.807Z</time>
      </trkpt>
      <trkpt lat="50.77338" lon="2.7291">
        <ele>82</ele>
        <time>2018-06-25T09:05:16.807Z</time>
      </trkpt>
      <trkpt lat="50.77321" lon="2.72955">
        <ele>83</ele>
        <time>2018-06-25T09:05:17.807Z</time>
      </trkpt>
      <trkpt lat="50.77314" lon="2.73048">
        <ele>82</ele>
        <time>2018-06-25T09:05:18.807Z</time>
      </trkpt>
      <trkpt lat="50.77311" lon="2.7302">
        <ele>83</ele>
        <time>2018-06-25T09:05:19.807Z</time>
      </trkpt>
      <trkpt lat="50.77326" lon="2.73359">
        <ele>87</ele>
        <time>2018-06-25T09:05:20.807Z</time>
      </trkpt>
      <trkpt lat="50.77307" lon="2.73393">
        <ele>86</ele>
        <time>2018-06-25T09:05:21.807Z</time>
      </trkpt>
      <trkpt lat="50.77294" lon="2.73456">
        <ele>87</ele>
        <time>2018-06-25T09:05:22.807Z</time>
      </trkpt>
      <trkpt lat="50.77241" lon="2.73602">
        <ele>88</ele>
        <time>2018-06-25T09:05:23.807Z</time>
      </trkpt>
      <trkpt lat="50.77191" lon="2.73852">
        <ele>88</ele>
        <time>2018-06-25T09:05:24.807Z</time>
      </trkpt>
      <trkpt lat="50.77189" lon="2.73852">
        <ele>88</ele>
        <time>2018-06-25T09:05:25.807Z</time>
      </trkpt>
      <trkpt lat="50.77196" lon="2.73968">
        <ele>89</ele>
        <time>2018-06-25T09:05:26.807Z</time>
      </trkpt>
      <trkpt lat="50.77218" lon="2.73957">
        <ele>90</ele>
        <time>2018-06-25T09:05:27.807Z</time>
      </trkpt>
      <trkpt lat="50.77219" lon="2.73958">
        <ele>90</ele>
        <time>2018-06-25T09:05:28.807Z</time>
      </trkpt>
      <trkpt lat="50.77316" lon="2.73912">
        <ele>93</ele>
        <time>2018-06-25T09:05:29.807Z</time>
      </trkpt>
      <trkpt lat="50.77502" lon="2.73858">
        <ele>102</ele>
        <time>2018-06-25T09:05:30.807Z</time>
      </trkpt>
      <trkpt lat="50.776" lon="2.7384">
        <ele>106</ele>
        <time>2018-06-25T09:05:31.807Z</time>
      </trkpt>
      <trkpt lat="50.77631" lon="2.73881">
        <ele>103</ele>
        <time>2018-06-25T09:05:32.807Z</time>
      </trkpt>
      <trkpt lat="50.77663" lon="2.73931">
        <ele>100</ele>
        <time>2018-06-25T09:05:33.807Z</time>
      </trkpt>
      <trkpt lat="50.77663" lon="2.7393">
        <ele>100</ele>
        <time>2018-06-25T09:05:34.807Z</time>
      </trkpt>
      <trkpt lat="50.77675" lon="2.73951">
        <ele>99</ele>
        <time>2018-06-25T09:05:35.807Z</time>
      </trkpt>
      <trkpt lat="50.77717" lon="2.74054">
        <ele>96</ele>
        <time>2018-06-25T09:05:36.807Z</time>
      </trkpt>
      <trkpt lat="50.77739" lon="2.74089">
        <ele>95</ele>
        <time>2018-06-25T09:05:37.807Z</time>
      </trkpt>
      <trkpt lat="50.77779" lon="2.74122">
        <ele>98</ele>
        <time>2018-06-25T09:05:38.807Z</time>
      </trkpt>
      <trkpt lat="50.77896" lon="2.74182">
        <ele>108</ele>
        <time>2018-06-25T09:05:39.807Z</time>
      </trkpt>
      <trkpt lat="50.77975" lon="2.74249">
        <ele>116</ele>
        <time>2018-06-25T09:05:40.807Z</time>
      </trkpt>
      <trkpt lat="50.78046" lon="2.74284">
        <ele>115</ele>
        <time>2018-06-25T09:05:41.807Z</time>
      </trkpt>
      <trkpt lat="50.78095" lon="2.74201">
        <ele>121</ele>
        <time>2018-06-25T09:05:42.807Z</time>
      </trkpt>
      <trkpt lat="50.78163" lon="2.74127">
        <ele>120</ele>
        <time>2018-06-25T09:05:43.807Z</time>
      </trkpt>
      <trkpt lat="50.78164" lon="2.74127">
        <ele>120</ele>
        <time>2018-06-25T09:05:44.807Z</time>
      </trkpt>
      <trkpt lat="50.78174" lon="2.74116">
        <ele>119</ele>
        <time>2018-06-25T09:05:45.807Z</time>
      </trkpt>
      <trkpt lat="50.78308" lon="2.74465">
        <ele>124</ele>
        <time>2018-06-25T09:05:46.807Z</time>
      </trkpt>
      <trkpt lat="50.78317" lon="2.74499">
        <ele>124</ele>
        <time>2018-06-25T09:05:47.807Z</time>
      </trkpt>
      <trkpt lat="50.78321" lon="2.747">
        <ele>125</ele>
        <time>2018-06-25T09:05:48.807Z</time>
      </trkpt>
      <trkpt lat="50.78325" lon="2.74739">
        <ele>125</ele>
        <time>2018-06-25T09:05:49.807Z</time>
      </trkpt>
      <trkpt lat="50.7834" lon="2.74833">
        <ele>123</ele>
        <time>2018-06-25T09:05:50.807Z</time>
      </trkpt>
      <trkpt lat="50.78352" lon="2.74877">
        <ele>122</ele>
        <time>2018-06-25T09:05:51.807Z</time>
      </trkpt>
      <trkpt lat="50.78365" lon="2.74914">
        <ele>120</ele>
        <time>2018-06-25T09:05:52.807Z</time>
      </trkpt>
      <trkpt lat="50.78436" lon="2.75085">
        <ele>110</ele>
        <time>2018-06-25T09:05:53.807Z</time>
      </trkpt>
      <trkpt lat="50.78446" lon="2.7512">
        <ele>108</ele>
        <time>2018-06-25T09:05:54.807Z</time>
      </trkpt>
      <trkpt lat="50.78455" lon="2.75235">
        <ele>108</ele>
        <time>2018-06-25T09:05:55.807Z</time>
      </trkpt>
      <trkpt lat="50.78454" lon="2.75261">
        <ele>109</ele>
        <time>2018-06-25T09:05:56.807Z</time>
      </trkpt>
      <trkpt lat="50.7845" lon="2.75292">
        <ele>110</ele>
        <time>2018-06-25T09:05:57.807Z</time>
      </trkpt>
      <trkpt lat="50.7844" lon="2.7536">
        <ele>113</ele>
        <time>2018-06-25T09:05:58.807Z</time>
      </trkpt>
      <trkpt lat="50.78438" lon="2.75392">
        <ele>114</ele>
        <time>2018-06-25T09:05:59.807Z</time>
      </trkpt>
      <trkpt lat="50.7844" lon="2.75434">
        <ele>116</ele>
        <time>2018-06-25T09:06:00.807Z</time>
      </trkpt>
      <trkpt lat="50.7846" lon="2.75536">
        <ele>123</ele>
        <time>2018-06-25T09:06:01.807Z</time>
      </trkpt>
      <trkpt lat="50.78453" lon="2.75539">
        <ele>124</ele>
        <time>2018-06-25T09:06:02.807Z</time>
      </trkpt>
      <trkpt lat="50.78445" lon="2.75536">
        <ele>125</ele>
        <time>2018-06-25T09:06:03.807Z</time>
      </trkpt>
      <trkpt lat="50.78424" lon="2.7551">
        <ele>125</ele>
        <time>2018-06-25T09:06:04.807Z</time>
      </trkpt>
      <trkpt lat="50.78409" lon="2.75503">
        <ele>125</ele>
        <time>2018-06-25T09:06:05.807Z</time>
      </trkpt>
      <trkpt lat="50.78391" lon="2.75505">
        <ele>123</ele>
        <time>2018-06-25T09:06:06.807Z</time>
      </trkpt>
      <trkpt lat="50.78392" lon="2.75505">
        <ele>124</ele>
        <time>2018-06-25T09:06:07.807Z</time>
      </trkpt>
      <trkpt lat="50.78381" lon="2.75511">
        <ele>123</ele>
        <time>2018-06-25T09:06:08.807Z</time>
      </trkpt>
      <trkpt lat="50.78371" lon="2.75525">
        <ele>124</ele>
        <time>2018-06-25T09:06:09.807Z</time>
      </trkpt>
      <trkpt lat="50.78368" lon="2.75538">
        <ele>126</ele>
        <time>2018-06-25T09:06:10.807Z</time>
      </trkpt>
      <trkpt lat="50.78351" lon="2.75592">
        <ele>132</ele>
        <time>2018-06-25T09:06:11.807Z</time>
      </trkpt>
      <trkpt lat="50.78352" lon="2.75645">
        <ele>139</ele>
        <time>2018-06-25T09:06:12.807Z</time>
      </trkpt>
      <trkpt lat="50.78377" lon="2.75693">
        <ele>139</ele>
        <time>2018-06-25T09:06:13.807Z</time>
      </trkpt>
      <trkpt lat="50.7838" lon="2.75691">
        <ele>139</ele>
        <time>2018-06-25T09:06:14.807Z</time>
      </trkpt>
      <trkpt lat="50.78409" lon="2.75786">
        <ele>134</ele>
        <time>2018-06-25T09:06:15.807Z</time>
      </trkpt>
      <trkpt lat="50.78424" lon="2.75816">
        <ele>133</ele>
        <time>2018-06-25T09:06:16.807Z</time>
      </trkpt>
      <trkpt lat="50.78442" lon="2.75846">
        <ele>133</ele>
        <time>2018-06-25T09:06:17.807Z</time>
      </trkpt>
      <trkpt lat="50.78454" lon="2.75858">
        <ele>133</ele>
        <time>2018-06-25T09:06:18.807Z</time>
      </trkpt>
      <trkpt lat="50.78413" lon="2.75877">
        <ele>132</ele>
        <time>2018-06-25T09:06:19.807Z</time>
      </trkpt>
      <trkpt lat="50.78402" lon="2.7589">
        <ele>131</ele>
        <time>2018-06-25T09:06:20.807Z</time>
      </trkpt>
      <trkpt lat="50.78395" lon="2.75903">
        <ele>130</ele>
        <time>2018-06-25T09:06:21.807Z</time>
      </trkpt>
      <trkpt lat="50.78395" lon="2.75903">
        <ele>130</ele>
        <time>2018-06-25T09:06:22.807Z</time>
      </trkpt>
      <trkpt lat="50.7838" lon="2.75927">
        <ele>128</ele>
        <time>2018-06-25T09:06:23.807Z</time>
      </trkpt>
      <trkpt lat="50.78369" lon="2.7595">
        <ele>127</ele>
        <time>2018-06-25T09:06:24.807Z</time>
      </trkpt>
      <trkpt lat="50.78364" lon="2.75965">
        <ele>126</ele>
        <time>2018-06-25T09:06:25.807Z</time>
      </trkpt>
      <trkpt lat="50.78359" lon="2.76012">
        <ele>125</ele>
        <time>2018-06-25T09:06:26.807Z</time>
      </trkpt>
      <trkpt lat="50.78362" lon="2.76174">
        <ele>117</ele>
        <time>2018-06-25T09:06:27.807Z</time>
      </trkpt>
      <trkpt lat="50.78395" lon="2.76311">
        <ele>111</ele>
        <time>2018-06-25T09:06:28.807Z</time>
      </trkpt>
      <trkpt lat="50.78386" lon="2.76388">
        <ele>106</ele>
        <time>2018-06-25T09:06:29.807Z</time>
      </trkpt>
      <trkpt lat="50.78377" lon="2.76435">
        <ele>104</ele>
        <time>2018-06-25T09:06:30.807Z</time>
      </trkpt>
      <trkpt lat="50.78373" lon="2.76465">
        <ele>103</ele>
        <time>2018-06-25T09:06:31.807Z</time>
      </trkpt>
      <trkpt lat="50.78371" lon="2.76558">
        <ele>100</ele>
        <time>2018-06-25T09:06:32.807Z</time>
      </trkpt>
      <trkpt lat="50.78366" lon="2.76635">
        <ele>97</ele>
        <time>2018-06-25T09:06:33.807Z</time>
      </trkpt>
      <trkpt lat="50.78371" lon="2.76664">
        <ele>97</ele>
        <time>2018-06-25T09:06:34.807Z</time>
      </trkpt>
      <trkpt lat="50.78382" lon="2.76704">
        <ele>96</ele>
        <time>2018-06-25T09:06:35.807Z</time>
      </trkpt>
      <trkpt lat="50.78369" lon="2.76723">
        <ele>95</ele>
        <time>2018-06-25T09:06:36.807Z</time>
      </trkpt>
      <trkpt lat="50.78323" lon="2.76775">
        <ele>94</ele>
        <time>2018-06-25T09:06:37.807Z</time>
      </trkpt>
      <trkpt lat="50.78258" lon="2.76817">
        <ele>91</ele>
        <time>2018-06-25T09:06:38.807Z</time>
      </trkpt>
      <trkpt lat="50.78258" lon="2.76817">
        <ele>91</ele>
        <time>2018-06-25T09:06:39.807Z</time>
      </trkpt>
      <trkpt lat="50.78158" lon="2.76882">
        <ele>83</ele>
        <time>2018-06-25T09:06:40.807Z</time>
      </trkpt>
      <trkpt lat="50.78129" lon="2.76905">
        <ele>81</ele>
        <time>2018-06-25T09:06:41.807Z</time>
      </trkpt>
      <trkpt lat="50.78069" lon="2.76969">
        <ele>79</ele>
        <time>2018-06-25T09:06:42.807Z</time>
      </trkpt>
      <trkpt lat="50.78061" lon="2.76981">
        <ele>79</ele>
        <time>2018-06-25T09:06:43.807Z</time>
      </trkpt>
      <trkpt lat="50.78049" lon="2.77005">
        <ele>78</ele>
        <time>2018-06-25T09:06:44.807Z</time>
      </trkpt>
      <trkpt lat="50.7804" lon="2.77035">
        <ele>79</ele>
        <time>2018-06-25T09:06:45.807Z</time>
      </trkpt>
      <trkpt lat="50.78031" lon="2.77085">
        <ele>80</ele>
        <time>2018-06-25T09:06:46.807Z</time>
      </trkpt>
      <trkpt lat="50.78017" lon="2.77123">
        <ele>80</ele>
        <time>2018-06-25T09:06:47.807Z</time>
      </trkpt>
      <trkpt lat="50.78006" lon="2.77141">
        <ele>80</ele>
        <time>2018-06-25T09:06:48.807Z</time>
      </trkpt>
      <trkpt lat="50.78003" lon="2.77137">
        <ele>79</ele>
        <time>2018-06-25T09:06:49.807Z</time>
      </trkpt>
      <trkpt lat="50.77959" lon="2.77205">
        <ele>78</ele>
        <time>2018-06-25T09:06:50.807Z</time>
      </trkpt>
      <trkpt lat="50.77959" lon="2.77206">
        <ele>78</ele>
        <time>2018-06-25T09:06:51.807Z</time>
      </trkpt>
      <trkpt lat="50.77925" lon="2.77255">
        <ele>77</ele>
        <time>2018-06-25T09:06:52.807Z</time>
      </trkpt>
      <trkpt lat="50.77847" lon="2.77339">
        <ele>76</ele>
        <time>2018-06-25T09:06:53.807Z</time>
      </trkpt>
      <trkpt lat="50.778" lon="2.77367">
        <ele>75</ele>
        <time>2018-06-25T09:06:54.807Z</time>
      </trkpt>
      <trkpt lat="50.77784" lon="2.77374">
        <ele>74</ele>
        <time>2018-06-25T09:06:55.807Z</time>
      </trkpt>
      <trkpt lat="50.77686" lon="2.77395">
        <ele>72</ele>
        <time>2018-06-25T09:06:56.807Z</time>
      </trkpt>
      <trkpt lat="50.77641" lon="2.774">
        <ele>71</ele>
        <time>2018-06-25T09:06:57.807Z</time>
      </trkpt>
      <trkpt lat="50.77621" lon="2.77404">
        <ele>70</ele>
        <time>2018-06-25T09:06:58.807Z</time>
      </trkpt>
      <trkpt lat="50.77558" lon="2.77442">
        <ele>70</ele>
        <time>2018-06-25T09:06:59.807Z</time>
      </trkpt>
      <trkpt lat="50.7754" lon="2.77456">
        <ele>71</ele>
        <time>2018-06-25T09:07:00.807Z</time>
      </trkpt>
      <trkpt lat="50.77498" lon="2.77501">
        <ele>73</ele>
        <time>2018-06-25T09:07:01.807Z</time>
      </trkpt>
      <trkpt lat="50.77462" lon="2.77547">
        <ele>74</ele>
        <time>2018-06-25T09:07:02.807Z</time>
      </trkpt>
      <trkpt lat="50.77452" lon="2.77567">
        <ele>74</ele>
        <time>2018-06-25T09:07:03.807Z</time>
      </trkpt>
      <trkpt lat="50.77456" lon="2.77583">
        <ele>75</ele>
        <time>2018-06-25T09:07:04.807Z</time>
      </trkpt>
      <trkpt lat="50.77511" lon="2.77652">
        <ele>73</ele>
        <time>2018-06-25T09:07:05.807Z</time>
      </trkpt>
      <trkpt lat="50.77511" lon="2.77652">
        <ele>73</ele>
        <time>2018-06-25T09:07:06.807Z</time>
      </trkpt>
      <trkpt lat="50.7754" lon="2.77692">
        <ele>72</ele>
        <time>2018-06-25T09:07:07.807Z</time>
      </trkpt>
      <trkpt lat="50.77547" lon="2.77709">
        <ele>71</ele>
        <time>2018-06-25T09:07:08.807Z</time>
      </trkpt>
      <trkpt lat="50.7758" lon="2.77861">
        <ele>67</ele>
        <time>2018-06-25T09:07:09.807Z</time>
      </trkpt>
      <trkpt lat="50.77599" lon="2.77936">
        <ele>65</ele>
        <time>2018-06-25T09:07:10.807Z</time>
      </trkpt>
      <trkpt lat="50.7761" lon="2.78009">
        <ele>63</ele>
        <time>2018-06-25T09:07:11.807Z</time>
      </trkpt>
      <trkpt lat="50.7762" lon="2.78057">
        <ele>62</ele>
        <time>2018-06-25T09:07:12.807Z</time>
      </trkpt>
      <trkpt lat="50.77652" lon="2.78143">
        <ele>60</ele>
        <time>2018-06-25T09:07:13.807Z</time>
      </trkpt>
      <trkpt lat="50.77672" lon="2.78207">
        <ele>58</ele>
        <time>2018-06-25T09:07:14.807Z</time>
      </trkpt>
      <trkpt lat="50.77686" lon="2.78274">
        <ele>57</ele>
        <time>2018-06-25T09:07:15.807Z</time>
      </trkpt>
      <trkpt lat="50.77735" lon="2.78553">
        <ele>50</ele>
        <time>2018-06-25T09:07:16.807Z</time>
      </trkpt>
      <trkpt lat="50.77739" lon="2.78618">
        <ele>51</ele>
        <time>2018-06-25T09:07:17.807Z</time>
      </trkpt>
      <trkpt lat="50.77741" lon="2.78628">
        <ele>51</ele>
        <time>2018-06-25T09:07:18.807Z</time>
      </trkpt>
      <trkpt lat="50.77745" lon="2.78635">
        <ele>51</ele>
        <time>2018-06-25T09:07:19.807Z</time>
      </trkpt>
      <trkpt lat="50.77744" lon="2.78636">
        <ele>51</ele>
        <time>2018-06-25T09:07:20.807Z</time>
      </trkpt>
      <trkpt lat="50.77749" lon="2.78644">
        <ele>51</ele>
        <time>2018-06-25T09:07:21.807Z</time>
      </trkpt>
      <trkpt lat="50.77756" lon="2.78651">
        <ele>52</ele>
        <time>2018-06-25T09:07:22.807Z</time>
      </trkpt>
      <trkpt lat="50.77811" lon="2.78677">
        <ele>55</ele>
        <time>2018-06-25T09:07:23.807Z</time>
      </trkpt>
      <trkpt lat="50.77822" lon="2.78687">
        <ele>56</ele>
        <time>2018-06-25T09:07:24.807Z</time>
      </trkpt>
      <trkpt lat="50.77862" lon="2.78733">
        <ele>59</ele>
        <time>2018-06-25T09:07:25.807Z</time>
      </trkpt>
      <trkpt lat="50.77896" lon="2.78765">
        <ele>61</ele>
        <time>2018-06-25T09:07:26.807Z</time>
      </trkpt>
      <trkpt lat="50.77892" lon="2.78959">
        <ele>67</ele>
        <time>2018-06-25T09:07:27.807Z</time>
      </trkpt>
      <trkpt lat="50.77894" lon="2.7899">
        <ele>68</ele>
        <time>2018-06-25T09:07:28.807Z</time>
      </trkpt>
      <trkpt lat="50.77903" lon="2.79054">
        <ele>69</ele>
        <time>2018-06-25T09:07:29.807Z</time>
      </trkpt>
      <trkpt lat="50.77929" lon="2.7918">
        <ele>68</ele>
        <time>2018-06-25T09:07:30.807Z</time>
      </trkpt>
      <trkpt lat="50.77933" lon="2.79239">
        <ele>68</ele>
        <time>2018-06-25T09:07:31.807Z</time>
      </trkpt>
      <trkpt lat="50.77947" lon="2.79342">
        <ele>69</ele>
        <time>2018-06-25T09:07:32.807Z</time>
      </trkpt>
      <trkpt lat="50.77948" lon="2.79454">
        <ele>69</ele>
        <time>2018-06-25T09:07:33.807Z</time>
      </trkpt>
      <trkpt lat="50.77946" lon="2.79548">
        <ele>69</ele>
        <time>2018-06-25T09:07:34.807Z</time>
      </trkpt>
      <trkpt lat="50.77945" lon="2.79571">
        <ele>69</ele>
        <time>2018-06-25T09:07:35.807Z</time>
      </trkpt>
      <trkpt lat="50.77923" lon="2.79679">
        <ele>69</ele>
        <time>2018-06-25T09:07:36.807Z</time>
      </trkpt>
      <trkpt lat="50.77921" lon="2.79705">
        <ele>70</ele>
        <time>2018-06-25T09:07:37.807Z</time>
      </trkpt>
      <trkpt lat="50.77925" lon="2.7976">
        <ele>71</ele>
        <time>2018-06-25T09:07:38.807Z</time>
      </trkpt>
      <trkpt lat="50.77939" lon="2.79851">
        <ele>73</ele>
        <time>2018-06-25T09:07:39.807Z</time>
      </trkpt>
      <trkpt lat="50.77984" lon="2.80084">
        <ele>79</ele>
        <time>2018-06-25T09:07:40.807Z</time>
      </trkpt>
      <trkpt lat="50.77992" lon="2.8011">
        <ele>80</ele>
        <time>2018-06-25T09:07:41.807Z</time>
      </trkpt>
      <trkpt lat="50.77878" lon="2.80205">
        <ele>82</ele>
        <time>2018-06-25T09:07:42.807Z</time>
      </trkpt>
      <trkpt lat="50.7788" lon="2.80285">
        <ele>85</ele>
        <time>2018-06-25T09:07:43.807Z</time>
      </trkpt>
      <trkpt lat="50.7788" lon="2.80286">
        <ele>85</ele>
        <time>2018-06-25T09:07:44.807Z</time>
      </trkpt>
      <trkpt lat="50.7788" lon="2.80327">
        <ele>87</ele>
        <time>2018-06-25T09:07:45.807Z</time>
      </trkpt>
      <trkpt lat="50.77872" lon="2.80411">
        <ele>90</ele>
        <time>2018-06-25T09:07:46.807Z</time>
      </trkpt>
      <trkpt lat="50.77871" lon="2.80435">
        <ele>91</ele>
        <time>2018-06-25T09:07:47.807Z</time>
      </trkpt>
      <trkpt lat="50.77872" lon="2.80476">
        <ele>92</ele>
        <time>2018-06-25T09:07:48.807Z</time>
      </trkpt>
      <trkpt lat="50.77885" lon="2.80553">
        <ele>97</ele>
        <time>2018-06-25T09:07:49.807Z</time>
      </trkpt>
      <trkpt lat="50.77889" lon="2.80599">
        <ele>101</ele>
        <time>2018-06-25T09:07:50.807Z</time>
      </trkpt>
      <trkpt lat="50.77878" lon="2.8073">
        <ele>112</ele>
        <time>2018-06-25T09:07:51.807Z</time>
      </trkpt>
      <trkpt lat="50.77881" lon="2.80789">
        <ele>119</ele>
        <time>2018-06-25T09:07:52.807Z</time>
      </trkpt>
      <trkpt lat="50.77887" lon="2.80822">
        <ele>122</ele>
        <time>2018-06-25T09:07:53.807Z</time>
      </trkpt>
      <trkpt lat="50.77863" lon="2.80885">
        <ele>135</ele>
        <time>2018-06-25T09:07:54.807Z</time>
      </trkpt>
      <trkpt lat="50.77864" lon="2.80885">
        <ele>135</ele>
        <time>2018-06-25T09:07:55.807Z</time>
      </trkpt>
      <trkpt lat="50.77824" lon="2.80995">
        <ele>153</ele>
        <time>2018-06-25T09:07:56.807Z</time>
      </trkpt>
      <trkpt lat="50.77819" lon="2.81018">
        <ele>153</ele>
        <time>2018-06-25T09:07:57.807Z</time>
      </trkpt>
      <trkpt lat="50.77817" lon="2.81034">
        <ele>153</ele>
        <time>2018-06-25T09:07:58.807Z</time>
      </trkpt>
      <trkpt lat="50.7782" lon="2.81056">
        <ele>153</ele>
        <time>2018-06-25T09:07:59.807Z</time>
      </trkpt>
      <trkpt lat="50.77871" lon="2.81207">
        <ele>156</ele>
        <time>2018-06-25T09:08:00.807Z</time>
      </trkpt>
      <trkpt lat="50.77871" lon="2.81207">
        <ele>156</ele>
        <time>2018-06-25T09:08:01.807Z</time>
      </trkpt>
      <trkpt lat="50.77883" lon="2.81244">
        <ele>156</ele>
        <time>2018-06-25T09:08:02.807Z</time>
      </trkpt>
      <trkpt lat="50.77888" lon="2.81293">
        <ele>157</ele>
        <time>2018-06-25T09:08:03.807Z</time>
      </trkpt>
      <trkpt lat="50.77891" lon="2.81313">
        <ele>157</ele>
        <time>2018-06-25T09:08:04.807Z</time>
      </trkpt>
      <trkpt lat="50.77917" lon="2.81419">
        <ele>160</ele>
        <time>2018-06-25T09:08:05.807Z</time>
      </trkpt>
      <trkpt lat="50.77955" lon="2.81606">
        <ele>145</ele>
        <time>2018-06-25T09:08:06.807Z</time>
      </trkpt>
      <trkpt lat="50.77955" lon="2.81635">
        <ele>142</ele>
        <time>2018-06-25T09:08:07.807Z</time>
      </trkpt>
      <trkpt lat="50.77952" lon="2.81652">
        <ele>140</ele>
        <time>2018-06-25T09:08:08.807Z</time>
      </trkpt>
      <trkpt lat="50.77945" lon="2.81675">
        <ele>138</ele>
        <time>2018-06-25T09:08:09.807Z</time>
      </trkpt>
      <trkpt lat="50.77934" lon="2.81696">
        <ele>137</ele>
        <time>2018-06-25T09:08:10.807Z</time>
      </trkpt>
      <trkpt lat="50.77919" lon="2.81715">
        <ele>137</ele>
        <time>2018-06-25T09:08:11.807Z</time>
      </trkpt>
      <trkpt lat="50.77907" lon="2.81724">
        <ele>136</ele>
        <time>2018-06-25T09:08:12.807Z</time>
      </trkpt>
      <trkpt lat="50.77892" lon="2.8173">
        <ele>135</ele>
        <time>2018-06-25T09:08:13.807Z</time>
      </trkpt>
      <trkpt lat="50.77817" lon="2.81744">
        <ele>130</ele>
        <time>2018-06-25T09:08:14.807Z</time>
      </trkpt>
      <trkpt lat="50.77817" lon="2.81744">
        <ele>130</ele>
        <time>2018-06-25T09:08:15.807Z</time>
      </trkpt>
      <trkpt lat="50.77783" lon="2.81749">
        <ele>124</ele>
        <time>2018-06-25T09:08:16.807Z</time>
      </trkpt>
      <trkpt lat="50.77765" lon="2.81757">
        <ele>120</ele>
        <time>2018-06-25T09:08:17.807Z</time>
      </trkpt>
      <trkpt lat="50.77732" lon="2.81792">
        <ele>112</ele>
        <time>2018-06-25T09:08:18.807Z</time>
      </trkpt>
      <trkpt lat="50.77695" lon="2.8184">
        <ele>103</ele>
        <time>2018-06-25T09:08:19.807Z</time>
      </trkpt>
      <trkpt lat="50.77682" lon="2.81816">
        <ele>103</ele>
        <time>2018-06-25T09:08:20.807Z</time>
      </trkpt>
      <trkpt lat="50.77678" lon="2.81831">
        <ele>101</ele>
        <time>2018-06-25T09:08:21.807Z</time>
      </trkpt>
      <trkpt lat="50.77676" lon="2.8184">
        <ele>100</ele>
        <time>2018-06-25T09:08:22.807Z</time>
      </trkpt>
      <trkpt lat="50.77676" lon="2.8185">
        <ele>99</ele>
        <time>2018-06-25T09:08:23.807Z</time>
      </trkpt>
      <trkpt lat="50.7768" lon="2.8187">
        <ele>98</ele>
        <time>2018-06-25T09:08:24.807Z</time>
      </trkpt>
      <trkpt lat="50.77679" lon="2.8187">
        <ele>98</ele>
        <time>2018-06-25T09:08:25.807Z</time>
      </trkpt>
      <trkpt lat="50.77701" lon="2.81912">
        <ele>98</ele>
        <time>2018-06-25T09:08:26.807Z</time>
      </trkpt>
      <trkpt lat="50.77704" lon="2.81923">
        <ele>97</ele>
        <time>2018-06-25T09:08:27.807Z</time>
      </trkpt>
      <trkpt lat="50.77707" lon="2.81945">
        <ele>96</ele>
        <time>2018-06-25T09:08:28.807Z</time>
      </trkpt>
      <trkpt lat="50.7771" lon="2.82">
        <ele>92</ele>
        <time>2018-06-25T09:08:29.807Z</time>
      </trkpt>
      <trkpt lat="50.77708" lon="2.82017">
        <ele>91</ele>
        <time>2018-06-25T09:08:30.807Z</time>
      </trkpt>
      <trkpt lat="50.77684" lon="2.82099">
        <ele>87</ele>
        <time>2018-06-25T09:08:31.807Z</time>
      </trkpt>
      <trkpt lat="50.77662" lon="2.82192">
        <ele>83</ele>
        <time>2018-06-25T09:08:32.807Z</time>
      </trkpt>
      <trkpt lat="50.77656" lon="2.8223">
        <ele>83</ele>
        <time>2018-06-25T09:08:33.807Z</time>
      </trkpt>
      <trkpt lat="50.77648" lon="2.82302">
        <ele>81</ele>
        <time>2018-06-25T09:08:34.807Z</time>
      </trkpt>
      <trkpt lat="50.77612" lon="2.82535">
        <ele>78</ele>
        <time>2018-06-25T09:08:35.807Z</time>
      </trkpt>
      <trkpt lat="50.7759" lon="2.82644">
        <ele>76</ele>
        <time>2018-06-25T09:08:36.807Z</time>
      </trkpt>
      <trkpt lat="50.77588" lon="2.82666">
        <ele>76</ele>
        <time>2018-06-25T09:08:37.807Z</time>
      </trkpt>
      <trkpt lat="50.77586" lon="2.82763">
        <ele>76</ele>
        <time>2018-06-25T09:08:38.807Z</time>
      </trkpt>
      <trkpt lat="50.77574" lon="2.82768">
        <ele>76</ele>
        <time>2018-06-25T09:08:39.807Z</time>
      </trkpt>
      <trkpt lat="50.77546" lon="2.82769">
        <ele>75</ele>
        <time>2018-06-25T09:08:40.807Z</time>
      </trkpt>
      <trkpt lat="50.77546" lon="2.8277">
        <ele>75</ele>
        <time>2018-06-25T09:08:41.807Z</time>
      </trkpt>
      <trkpt lat="50.77357" lon="2.82782">
        <ele>67</ele>
        <time>2018-06-25T09:08:42.807Z</time>
      </trkpt>
      <trkpt lat="50.77339" lon="2.82744">
        <ele>65</ele>
        <time>2018-06-25T09:08:43.807Z</time>
      </trkpt>
      <trkpt lat="50.77278" lon="2.82635">
        <ele>61</ele>
        <time>2018-06-25T09:08:44.807Z</time>
      </trkpt>
      <trkpt lat="50.77267" lon="2.82621">
        <ele>60</ele>
        <time>2018-06-25T09:08:45.807Z</time>
      </trkpt>
      <trkpt lat="50.77206" lon="2.82553">
        <ele>57</ele>
        <time>2018-06-25T09:08:46.807Z</time>
      </trkpt>
      <trkpt lat="50.77164" lon="2.82487">
        <ele>54</ele>
        <time>2018-06-25T09:08:47.807Z</time>
      </trkpt>
      <trkpt lat="50.77139" lon="2.82443">
        <ele>52</ele>
        <time>2018-06-25T09:08:48.807Z</time>
      </trkpt>
      <trkpt lat="50.77116" lon="2.82395">
        <ele>50</ele>
        <time>2018-06-25T09:08:49.807Z</time>
      </trkpt>
      <trkpt lat="50.77079" lon="2.82303">
        <ele>47</ele>
        <time>2018-06-25T09:08:50.807Z</time>
      </trkpt>
      <trkpt lat="50.77068" lon="2.82288">
        <ele>47</ele>
        <time>2018-06-25T09:08:51.807Z</time>
      </trkpt>
      <trkpt lat="50.7707" lon="2.82266">
        <ele>47</ele>
        <time>2018-06-25T09:08:52.807Z</time>
      </trkpt>
      <trkpt lat="50.7707" lon="2.82267">
        <ele>47</ele>
        <time>2018-06-25T09:08:53.807Z</time>
      </trkpt>
      <trkpt lat="50.7707" lon="2.82217">
        <ele>47</ele>
        <time>2018-06-25T09:08:54.807Z</time>
      </trkpt>
      <trkpt lat="50.77066" lon="2.82153">
        <ele>48</ele>
        <time>2018-06-25T09:08:55.807Z</time>
      </trkpt>
      <trkpt lat="50.77062" lon="2.82126">
        <ele>48</ele>
        <time>2018-06-25T09:08:56.807Z</time>
      </trkpt>
      <trkpt lat="50.77052" lon="2.82074">
        <ele>48</ele>
        <time>2018-06-25T09:08:57.807Z</time>
      </trkpt>
      <trkpt lat="50.77037" lon="2.82027">
        <ele>49</ele>
        <time>2018-06-25T09:08:58.807Z</time>
      </trkpt>
      <trkpt lat="50.7701" lon="2.8196">
        <ele>51</ele>
        <time>2018-06-25T09:08:59.807Z</time>
      </trkpt>
      <trkpt lat="50.76874" lon="2.81696">
        <ele>50</ele>
        <time>2018-06-25T09:09:00.807Z</time>
      </trkpt>
      <trkpt lat="50.76847" lon="2.81631">
        <ele>48</ele>
        <time>2018-06-25T09:09:01.807Z</time>
      </trkpt>
      <trkpt lat="50.7682" lon="2.81554">
        <ele>46</ele>
        <time>2018-06-25T09:09:02.807Z</time>
      </trkpt>
      <trkpt lat="50.76809" lon="2.81512">
        <ele>44</ele>
        <time>2018-06-25T09:09:03.807Z</time>
      </trkpt>
      <trkpt lat="50.76775" lon="2.81535">
        <ele>44</ele>
        <time>2018-06-25T09:09:04.807Z</time>
      </trkpt>
      <trkpt lat="50.76736" lon="2.81566">
        <ele>43</ele>
        <time>2018-06-25T09:09:05.807Z</time>
      </trkpt>
      <trkpt lat="50.76736" lon="2.81567">
        <ele>43</ele>
        <time>2018-06-25T09:09:06.807Z</time>
      </trkpt>
      <trkpt lat="50.76703" lon="2.81594">
        <ele>42</ele>
        <time>2018-06-25T09:09:07.807Z</time>
      </trkpt>
      <trkpt lat="50.76504" lon="2.8172">
        <ele>34</ele>
        <time>2018-06-25T09:09:08.807Z</time>
      </trkpt>
      <trkpt lat="50.7649" lon="2.81739">
        <ele>34</ele>
        <time>2018-06-25T09:09:09.807Z</time>
      </trkpt>
      <trkpt lat="50.76463" lon="2.81778">
        <ele>35</ele>
        <time>2018-06-25T09:09:10.807Z</time>
      </trkpt>
      <trkpt lat="50.76443" lon="2.81811">
        <ele>35</ele>
        <time>2018-06-25T09:09:11.807Z</time>
      </trkpt>
      <trkpt lat="50.76351" lon="2.81917">
        <ele>33</ele>
        <time>2018-06-25T09:09:12.807Z</time>
      </trkpt>
      <trkpt lat="50.76318" lon="2.81961">
        <ele>32</ele>
        <time>2018-06-25T09:09:13.807Z</time>
      </trkpt>
      <trkpt lat="50.76203" lon="2.82041">
        <ele>30</ele>
        <time>2018-06-25T09:09:14.807Z</time>
      </trkpt>
      <trkpt lat="50.76082" lon="2.82133">
        <ele>29</ele>
        <time>2018-06-25T09:09:15.807Z</time>
      </trkpt>
      <trkpt lat="50.76048" lon="2.82141">
        <ele>30</ele>
        <time>2018-06-25T09:09:16.807Z</time>
      </trkpt>
      <trkpt lat="50.76048" lon="2.82142">
        <ele>30</ele>
        <time>2018-06-25T09:09:17.807Z</time>
      </trkpt>
      <trkpt lat="50.76049" lon="2.82143">
        <ele>30</ele>
        <time>2018-06-25T09:09:18.807Z</time>
      </trkpt>
      <trkpt lat="50.76047" lon="2.8212">
        <ele>30</ele>
        <time>2018-06-25T09:09:19.807Z</time>
      </trkpt>
      <trkpt lat="50.76047" lon="2.82079">
        <ele>30</ele>
        <time>2018-06-25T09:09:20.807Z</time>
      </trkpt>
      <trkpt lat="50.76057" lon="2.81982">
        <ele>30</ele>
        <time>2018-06-25T09:09:21.807Z</time>
      </trkpt>
      <trkpt lat="50.76061" lon="2.81876">
        <ele>29</ele>
        <time>2018-06-25T09:09:22.807Z</time>
      </trkpt>
      <trkpt lat="50.76048" lon="2.81709">
        <ele>28</ele>
        <time>2018-06-25T09:09:23.807Z</time>
      </trkpt>
      <trkpt lat="50.76045" lon="2.81685">
        <ele>28</ele>
        <time>2018-06-25T09:09:24.807Z</time>
      </trkpt>
      <trkpt lat="50.76039" lon="2.81662">
        <ele>28</ele>
        <time>2018-06-25T09:09:25.807Z</time>
      </trkpt>
      <trkpt lat="50.76029" lon="2.81645">
        <ele>28</ele>
        <time>2018-06-25T09:09:26.807Z</time>
      </trkpt>
      <trkpt lat="50.76009" lon="2.81631">
        <ele>28</ele>
        <time>2018-06-25T09:09:27.807Z</time>
      </trkpt>
      <trkpt lat="50.76004" lon="2.81624">
        <ele>28</ele>
        <time>2018-06-25T09:09:28.807Z</time>
      </trkpt>
      <trkpt lat="50.75962" lon="2.81526">
        <ele>31</ele>
        <time>2018-06-25T09:09:29.807Z</time>
      </trkpt>
      <trkpt lat="50.7594" lon="2.81491">
        <ele>31</ele>
        <time>2018-06-25T09:09:30.807Z</time>
      </trkpt>
      <trkpt lat="50.75916" lon="2.81447">
        <ele>31</ele>
        <time>2018-06-25T09:09:31.807Z</time>
      </trkpt>
      <trkpt lat="50.75894" lon="2.81398">
        <ele>32</ele>
        <time>2018-06-25T09:09:32.807Z</time>
      </trkpt>
      <trkpt lat="50.75847" lon="2.81299">
        <ele>33</ele>
        <time>2018-06-25T09:09:33.807Z</time>
      </trkpt>
      <trkpt lat="50.7575" lon="2.81133">
        <ele>34</ele>
        <time>2018-06-25T09:09:34.807Z</time>
      </trkpt>
      <trkpt lat="50.75703" lon="2.81034">
        <ele>35</ele>
        <time>2018-06-25T09:09:35.807Z</time>
      </trkpt>
      <trkpt lat="50.75656" lon="2.80942">
        <ele>37</ele>
        <time>2018-06-25T09:09:36.807Z</time>
      </trkpt>
      <trkpt lat="50.7561" lon="2.80857">
        <ele>39</ele>
        <time>2018-06-25T09:09:37.807Z</time>
      </trkpt>
      <trkpt lat="50.75603" lon="2.80863">
        <ele>40</ele>
        <time>2018-06-25T09:09:38.807Z</time>
      </trkpt>
      <trkpt lat="50.75576" lon="2.80896">
        <ele>41</ele>
        <time>2018-06-25T09:09:39.807Z</time>
      </trkpt>
      <trkpt lat="50.75576" lon="2.80898">
        <ele>41</ele>
        <time>2018-06-25T09:09:40.807Z</time>
      </trkpt>
      <trkpt lat="50.75557" lon="2.80921">
        <ele>41</ele>
        <time>2018-06-25T09:09:41.807Z</time>
      </trkpt>
      <trkpt lat="50.75519" lon="2.80975">
        <ele>43</ele>
        <time>2018-06-25T09:09:42.807Z</time>
      </trkpt>
      <trkpt lat="50.75409" lon="2.81154">
        <ele>43</ele>
        <time>2018-06-25T09:09:43.807Z</time>
      </trkpt>
      <trkpt lat="50.75394" lon="2.81173">
        <ele>43</ele>
        <time>2018-06-25T09:09:44.807Z</time>
      </trkpt>
      <trkpt lat="50.75381" lon="2.81184">
        <ele>43</ele>
        <time>2018-06-25T09:09:45.807Z</time>
      </trkpt>
      <trkpt lat="50.75344" lon="2.81199">
        <ele>42</ele>
        <time>2018-06-25T09:09:46.807Z</time>
      </trkpt>
      <trkpt lat="50.75317" lon="2.8122">
        <ele>41</ele>
        <time>2018-06-25T09:09:47.807Z</time>
      </trkpt>
      <trkpt lat="50.75309" lon="2.81225">
        <ele>41</ele>
        <time>2018-06-25T09:09:48.807Z</time>
      </trkpt>
      <trkpt lat="50.75301" lon="2.81223">
        <ele>41</ele>
        <time>2018-06-25T09:09:49.807Z</time>
      </trkpt>
      <trkpt lat="50.75244" lon="2.81147">
        <ele>41</ele>
        <time>2018-06-25T09:09:50.807Z</time>
      </trkpt>
      <trkpt lat="50.75191" lon="2.8108">
        <ele>40</ele>
        <time>2018-06-25T09:09:51.807Z</time>
      </trkpt>
      <trkpt lat="50.7518" lon="2.81073">
        <ele>40</ele>
        <time>2018-06-25T09:09:52.807Z</time>
      </trkpt>
      <trkpt lat="50.75171" lon="2.81074">
        <ele>40</ele>
        <time>2018-06-25T09:09:53.807Z</time>
      </trkpt>
      <trkpt lat="50.75156" lon="2.8108">
        <ele>40</ele>
        <time>2018-06-25T09:09:54.807Z</time>
      </trkpt>
      <trkpt lat="50.75155" lon="2.81098">
        <ele>40</ele>
        <time>2018-06-25T09:09:55.807Z</time>
      </trkpt>
      <trkpt lat="50.7515" lon="2.81116">
        <ele>40</ele>
        <time>2018-06-25T09:09:56.807Z</time>
      </trkpt>
      <trkpt lat="50.75131" lon="2.8116">
        <ele>39</ele>
        <time>2018-06-25T09:09:57.807Z</time>
      </trkpt>
      <trkpt lat="50.75131" lon="2.8116">
        <ele>39</ele>
        <time>2018-06-25T09:09:58.807Z</time>
      </trkpt>
      <trkpt lat="50.75084" lon="2.81261">
        <ele>36</ele>
        <time>2018-06-25T09:09:59.807Z</time>
      </trkpt>
      <trkpt lat="50.75031" lon="2.81399">
        <ele>44</ele>
        <time>2018-06-25T09:10:00.807Z</time>
      </trkpt>
      <trkpt lat="50.75001" lon="2.81511">
        <ele>50</ele>
        <time>2018-06-25T09:10:01.807Z</time>
      </trkpt>
      <trkpt lat="50.74995" lon="2.81555">
        <ele>52</ele>
        <time>2018-06-25T09:10:02.807Z</time>
      </trkpt>
      <trkpt lat="50.74974" lon="2.81643">
        <ele>55</ele>
        <time>2018-06-25T09:10:03.807Z</time>
      </trkpt>
      <trkpt lat="50.74974" lon="2.81663">
        <ele>56</ele>
        <time>2018-06-25T09:10:04.807Z</time>
      </trkpt>
      <trkpt lat="50.74987" lon="2.81701">
        <ele>56</ele>
        <time>2018-06-25T09:10:05.807Z</time>
      </trkpt>
      <trkpt lat="50.74984" lon="2.81731">
        <ele>56</ele>
        <time>2018-06-25T09:10:06.807Z</time>
      </trkpt>
      <trkpt lat="50.74956" lon="2.81871">
        <ele>60</ele>
        <time>2018-06-25T09:10:07.807Z</time>
      </trkpt>
      <trkpt lat="50.74958" lon="2.81923">
        <ele>61</ele>
        <time>2018-06-25T09:10:08.807Z</time>
      </trkpt>
      <trkpt lat="50.74954" lon="2.82154">
        <ele>61</ele>
        <time>2018-06-25T09:10:09.807Z</time>
      </trkpt>
      <trkpt lat="50.74953" lon="2.82172">
        <ele>61</ele>
        <time>2018-06-25T09:10:10.807Z</time>
      </trkpt>
      <trkpt lat="50.74954" lon="2.82173">
        <ele>61</ele>
        <time>2018-06-25T09:10:11.807Z</time>
      </trkpt>
      <trkpt lat="50.74947" lon="2.82195">
        <ele>60</ele>
        <time>2018-06-25T09:10:12.807Z</time>
      </trkpt>
      <trkpt lat="50.74896" lon="2.82193">
        <ele>62</ele>
        <time>2018-06-25T09:10:13.807Z</time>
      </trkpt>
      <trkpt lat="50.74853" lon="2.82187">
        <ele>64</ele>
        <time>2018-06-25T09:10:14.807Z</time>
      </trkpt>
      <trkpt lat="50.74821" lon="2.82188">
        <ele>65</ele>
        <time>2018-06-25T09:10:15.807Z</time>
      </trkpt>
      <trkpt lat="50.7472" lon="2.82201">
        <ele>66</ele>
        <time>2018-06-25T09:10:16.807Z</time>
      </trkpt>
      <trkpt lat="50.7472" lon="2.82201">
        <ele>66</ele>
        <time>2018-06-25T09:10:17.807Z</time>
      </trkpt>
      <trkpt lat="50.74717" lon="2.82206">
        <ele>66</ele>
        <time>2018-06-25T09:10:18.807Z</time>
      </trkpt>
      <trkpt lat="50.74697" lon="2.82215">
        <ele>67</ele>
        <time>2018-06-25T09:10:19.807Z</time>
      </trkpt>
      <trkpt lat="50.74603" lon="2.82255">
        <ele>64</ele>
        <time>2018-06-25T09:10:20.807Z</time>
      </trkpt>
      <trkpt lat="50.7452" lon="2.82305">
        <ele>63</ele>
        <time>2018-06-25T09:10:21.807Z</time>
      </trkpt>
      <trkpt lat="50.74512" lon="2.82294">
        <ele>63</ele>
        <time>2018-06-25T09:10:22.807Z</time>
      </trkpt>
      <trkpt lat="50.74514" lon="2.82285">
        <ele>63</ele>
        <time>2018-06-25T09:10:23.807Z</time>
      </trkpt>
      <trkpt lat="50.74512" lon="2.82274">
        <ele>63</ele>
        <time>2018-06-25T09:10:24.807Z</time>
      </trkpt>
      <trkpt lat="50.74485" lon="2.8218">
        <ele>66</ele>
        <time>2018-06-25T09:10:25.807Z</time>
      </trkpt>
      <trkpt lat="50.74403" lon="2.81966">
        <ele>70</ele>
        <time>2018-06-25T09:10:26.807Z</time>
      </trkpt>
      <trkpt lat="50.74403" lon="2.81965">
        <ele>70</ele>
        <time>2018-06-25T09:10:27.807Z</time>
      </trkpt>
      <trkpt lat="50.74356" lon="2.81853">
        <ele>71</ele>
        <time>2018-06-25T09:10:28.807Z</time>
      </trkpt>
      <trkpt lat="50.74311" lon="2.8172">
        <ele>74</ele>
        <time>2018-06-25T09:10:29.807Z</time>
      </trkpt>
      <trkpt lat="50.74277" lon="2.8163">
        <ele>74</ele>
        <time>2018-06-25T09:10:30.807Z</time>
      </trkpt>
      <trkpt lat="50.74253" lon="2.81578">
        <ele>74</ele>
        <time>2018-06-25T09:10:31.807Z</time>
      </trkpt>
      <trkpt lat="50.74228" lon="2.8153">
        <ele>72</ele>
        <time>2018-06-25T09:10:32.807Z</time>
      </trkpt>
      <trkpt lat="50.74214" lon="2.81489">
        <ele>72</ele>
        <time>2018-06-25T09:10:33.807Z</time>
      </trkpt>
      <trkpt lat="50.7419" lon="2.81379">
        <ele>72</ele>
        <time>2018-06-25T09:10:34.807Z</time>
      </trkpt>
      <trkpt lat="50.74152" lon="2.81171">
        <ele>70</ele>
        <time>2018-06-25T09:10:35.807Z</time>
      </trkpt>
      <trkpt lat="50.74127" lon="2.81181">
        <ele>70</ele>
        <time>2018-06-25T09:10:36.807Z</time>
      </trkpt>
      <trkpt lat="50.74098" lon="2.81198">
        <ele>69</ele>
        <time>2018-06-25T09:10:37.807Z</time>
      </trkpt>
      <trkpt lat="50.74052" lon="2.8124">
        <ele>65</ele>
        <time>2018-06-25T09:10:38.807Z</time>
      </trkpt>
      <trkpt lat="50.74028" lon="2.81258">
        <ele>63</ele>
        <time>2018-06-25T09:10:39.807Z</time>
      </trkpt>
      <trkpt lat="50.74003" lon="2.8127">
        <ele>61</ele>
        <time>2018-06-25T09:10:40.807Z</time>
      </trkpt>
      <trkpt lat="50.73979" lon="2.81272">
        <ele>60</ele>
        <time>2018-06-25T09:10:41.807Z</time>
      </trkpt>
      <trkpt lat="50.73947" lon="2.8128">
        <ele>58</ele>
        <time>2018-06-25T09:10:42.807Z</time>
      </trkpt>
      <trkpt lat="50.73917" lon="2.81278">
        <ele>56</ele>
        <time>2018-06-25T09:10:43.807Z</time>
      </trkpt>
      <trkpt lat="50.73891" lon="2.81272">
        <ele>55</ele>
        <time>2018-06-25T09:10:44.807Z</time>
      </trkpt>
      <trkpt lat="50.7387" lon="2.8127">
        <ele>53</ele>
        <time>2018-06-25T09:10:45.807Z</time>
      </trkpt>
      <trkpt lat="50.73825" lon="2.8127">
        <ele>51</ele>
        <time>2018-06-25T09:10:46.807Z</time>
      </trkpt>
      <trkpt lat="50.7377" lon="2.81276">
        <ele>48</ele>
        <time>2018-06-25T09:10:47.807Z</time>
      </trkpt>
      <trkpt lat="50.7377" lon="2.81276">
        <ele>48</ele>
        <time>2018-06-25T09:10:48.807Z</time>
      </trkpt>
      <trkpt lat="50.73719" lon="2.81286">
        <ele>46</ele>
        <time>2018-06-25T09:10:49.807Z</time>
      </trkpt>
      <trkpt lat="50.73661" lon="2.8132">
        <ele>45</ele>
        <time>2018-06-25T09:10:50.807Z</time>
      </trkpt>
      <trkpt lat="50.73641" lon="2.81339">
        <ele>44</ele>
        <time>2018-06-25T09:10:51.807Z</time>
      </trkpt>
      <trkpt lat="50.73594" lon="2.81356">
        <ele>42</ele>
        <time>2018-06-25T09:10:52.807Z</time>
      </trkpt>
      <trkpt lat="50.7355" lon="2.81059">
        <ele>40</ele>
        <time>2018-06-25T09:10:53.807Z</time>
      </trkpt>
      <trkpt lat="50.73453" lon="2.81077">
        <ele>38</ele>
        <time>2018-06-25T09:10:54.807Z</time>
      </trkpt>
      <trkpt lat="50.73427" lon="2.81077">
        <ele>38</ele>
        <time>2018-06-25T09:10:55.807Z</time>
      </trkpt>
      <trkpt lat="50.73404" lon="2.81066">
        <ele>37</ele>
        <time>2018-06-25T09:10:56.807Z</time>
      </trkpt>
      <trkpt lat="50.7337" lon="2.81045">
        <ele>36</ele>
        <time>2018-06-25T09:10:57.807Z</time>
      </trkpt>
      <trkpt lat="50.73361" lon="2.81036">
        <ele>36</ele>
        <time>2018-06-25T09:10:58.807Z</time>
      </trkpt>
      <trkpt lat="50.73361" lon="2.81036">
        <ele>36</ele>
        <time>2018-06-25T09:10:59.807Z</time>
      </trkpt>
      <trkpt lat="50.73339" lon="2.81017">
        <ele>35</ele>
        <time>2018-06-25T09:11:00.807Z</time>
      </trkpt>
      <trkpt lat="50.7331" lon="2.80977">
        <ele>33</ele>
        <time>2018-06-25T09:11:01.807Z</time>
      </trkpt>
      <trkpt lat="50.73276" lon="2.80944">
        <ele>30</ele>
        <time>2018-06-25T09:11:02.807Z</time>
      </trkpt>
      <trkpt lat="50.73181" lon="2.80872">
        <ele>21</ele>
        <time>2018-06-25T09:11:03.807Z</time>
      </trkpt>
      <trkpt lat="50.73116" lon="2.8083">
        <ele>20</ele>
        <time>2018-06-25T09:11:04.807Z</time>
      </trkpt>
      <trkpt lat="50.73091" lon="2.80808">
        <ele>20</ele>
        <time>2018-06-25T09:11:05.807Z</time>
      </trkpt>
      <trkpt lat="50.73078" lon="2.80763">
        <ele>19</ele>
        <time>2018-06-25T09:11:06.807Z</time>
      </trkpt>
      <trkpt lat="50.73038" lon="2.80729">
        <ele>18</ele>
        <time>2018-06-25T09:11:07.807Z</time>
      </trkpt>
      <trkpt lat="50.72961" lon="2.80651">
        <ele>16</ele>
        <time>2018-06-25T09:11:08.807Z</time>
      </trkpt>
      <trkpt lat="50.72891" lon="2.8059">
        <ele>17</ele>
        <time>2018-06-25T09:11:09.807Z</time>
      </trkpt>
      <trkpt lat="50.72861" lon="2.80572">
        <ele>18</ele>
        <time>2018-06-25T09:11:10.807Z</time>
      </trkpt>
      <trkpt lat="50.72801" lon="2.80517">
        <ele>18</ele>
        <time>2018-06-25T09:11:11.807Z</time>
      </trkpt>
      <trkpt lat="50.72782" lon="2.80503">
        <ele>18</ele>
        <time>2018-06-25T09:11:12.807Z</time>
      </trkpt>
      <trkpt lat="50.72759" lon="2.80494">
        <ele>18</ele>
        <time>2018-06-25T09:11:13.807Z</time>
      </trkpt>
      <trkpt lat="50.72704" lon="2.80481">
        <ele>17</ele>
        <time>2018-06-25T09:11:14.807Z</time>
      </trkpt>
      <trkpt lat="50.72711" lon="2.80412">
        <ele>17</ele>
        <time>2018-06-25T09:11:15.807Z</time>
      </trkpt>
      <trkpt lat="50.72712" lon="2.80412">
        <ele>17</ele>
        <time>2018-06-25T09:11:16.807Z</time>
      </trkpt>
      <trkpt lat="50.72726" lon="2.80281">
        <ele>17</ele>
        <time>2018-06-25T09:11:17.807Z</time>
      </trkpt>
      <trkpt lat="50.72746" lon="2.8015">
        <ele>19</ele>
        <time>2018-06-25T09:11:18.807Z</time>
      </trkpt>
      <trkpt lat="50.72764" lon="2.80044">
        <ele>18</ele>
        <time>2018-06-25T09:11:19.807Z</time>
      </trkpt>
      <trkpt lat="50.72694" lon="2.8003">
        <ele>19</ele>
        <time>2018-06-25T09:11:20.807Z</time>
      </trkpt>
      <trkpt lat="50.72666" lon="2.80022">
        <ele>20</ele>
        <time>2018-06-25T09:11:21.807Z</time>
      </trkpt>
      <trkpt lat="50.72613" lon="2.79986">
        <ele>19</ele>
        <time>2018-06-25T09:11:22.807Z</time>
      </trkpt>
      <trkpt lat="50.72582" lon="2.79962">
        <ele>19</ele>
        <time>2018-06-25T09:11:23.807Z</time>
      </trkpt>
      <trkpt lat="50.72521" lon="2.79901">
        <ele>19</ele>
        <time>2018-06-25T09:11:24.807Z</time>
      </trkpt>
      <trkpt lat="50.72503" lon="2.79889">
        <ele>19</ele>
        <time>2018-06-25T09:11:25.807Z</time>
      </trkpt>
      <trkpt lat="50.7247" lon="2.79877">
        <ele>19</ele>
        <time>2018-06-25T09:11:26.807Z</time>
      </trkpt>
      <trkpt lat="50.72457" lon="2.79867">
        <ele>19</ele>
        <time>2018-06-25T09:11:27.807Z</time>
      </trkpt>
      <trkpt lat="50.72429" lon="2.79835">
        <ele>19</ele>
        <time>2018-06-25T09:11:28.807Z</time>
      </trkpt>
      <trkpt lat="50.72386" lon="2.79796">
        <ele>19</ele>
        <time>2018-06-25T09:11:29.807Z</time>
      </trkpt>
      <trkpt lat="50.7231" lon="2.79737">
        <ele>19</ele>
        <time>2018-06-25T09:11:30.807Z</time>
      </trkpt>
      <trkpt lat="50.72274" lon="2.79713">
        <ele>18</ele>
        <time>2018-06-25T09:11:31.807Z</time>
      </trkpt>
      <trkpt lat="50.72333" lon="2.79556">
        <ele>17</ele>
        <time>2018-06-25T09:11:32.807Z</time>
      </trkpt>
      <trkpt lat="50.72319" lon="2.79546">
        <ele>17</ele>
        <time>2018-06-25T09:11:33.807Z</time>
      </trkpt>
      <trkpt lat="50.72163" lon="2.79644">
        <ele>17</ele>
        <time>2018-06-25T09:11:34.807Z</time>
      </trkpt>
      <trkpt lat="50.72156" lon="2.79646">
        <ele>17</ele>
        <time>2018-06-25T09:11:35.807Z</time>
      </trkpt>
      <trkpt lat="50.72156" lon="2.79646">
        <ele>17</ele>
        <time>2018-06-25T09:11:36.807Z</time>
      </trkpt>
      <trkpt lat="50.7194" lon="2.7971">
        <ele>17</ele>
        <time>2018-06-25T09:11:37.807Z</time>
      </trkpt>
      <trkpt lat="50.71846" lon="2.79726">
        <ele>18</ele>
        <time>2018-06-25T09:11:38.807Z</time>
      </trkpt>
      <trkpt lat="50.71789" lon="2.79741">
        <ele>17</ele>
        <time>2018-06-25T09:11:39.807Z</time>
      </trkpt>
      <trkpt lat="50.71739" lon="2.79783">
        <ele>17</ele>
        <time>2018-06-25T09:11:40.807Z</time>
      </trkpt>
      <trkpt lat="50.71671" lon="2.79818">
        <ele>17</ele>
        <time>2018-06-25T09:11:41.807Z</time>
      </trkpt>
      <trkpt lat="50.71638" lon="2.79922">
        <ele>16</ele>
        <time>2018-06-25T09:11:42.807Z</time>
      </trkpt>
      <trkpt lat="50.7158" lon="2.79887">
        <ele>17</ele>
        <time>2018-06-25T09:11:43.807Z</time>
      </trkpt>
      <trkpt lat="50.71557" lon="2.79856">
        <ele>17</ele>
        <time>2018-06-25T09:11:44.807Z</time>
      </trkpt>
      <trkpt lat="50.7155" lon="2.7984">
        <ele>17</ele>
        <time>2018-06-25T09:11:45.807Z</time>
      </trkpt>
      <trkpt lat="50.71551" lon="2.79839">
        <ele>17</ele>
        <time>2018-06-25T09:11:46.807Z</time>
      </trkpt>
      <trkpt lat="50.71541" lon="2.79815">
        <ele>18</ele>
        <time>2018-06-25T09:11:47.807Z</time>
      </trkpt>
      <trkpt lat="50.71509" lon="2.79692">
        <ele>17</ele>
        <time>2018-06-25T09:11:48.807Z</time>
      </trkpt>
      <trkpt lat="50.71427" lon="2.79475">
        <ele>16</ele>
        <time>2018-06-25T09:11:49.807Z</time>
      </trkpt>
      <trkpt lat="50.71413" lon="2.79432">
        <ele>17</ele>
        <time>2018-06-25T09:11:50.807Z</time>
      </trkpt>
      <trkpt lat="50.714" lon="2.7937">
        <ele>16</ele>
        <time>2018-06-25T09:11:51.807Z</time>
      </trkpt>
      <trkpt lat="50.71293" lon="2.78849">
        <ele>16</ele>
        <time>2018-06-25T09:11:52.807Z</time>
      </trkpt>
      <trkpt lat="50.71293" lon="2.78799">
        <ele>16</ele>
        <time>2018-06-25T09:11:53.807Z</time>
      </trkpt>
      <trkpt lat="50.7127" lon="2.78803">
        <ele>17</ele>
        <time>2018-06-25T09:11:54.807Z</time>
      </trkpt>
      <trkpt lat="50.71266" lon="2.78807">
        <ele>17</ele>
        <time>2018-06-25T09:11:55.807Z</time>
      </trkpt>
      <trkpt lat="50.71118" lon="2.79185">
        <ele>16</ele>
        <time>2018-06-25T09:11:56.807Z</time>
      </trkpt>
      <trkpt lat="50.71119" lon="2.79186">
        <ele>16</ele>
        <time>2018-06-25T09:11:57.807Z</time>
      </trkpt>
      <trkpt lat="50.70828" lon="2.79934">
        <ele>16</ele>
        <time>2018-06-25T09:11:58.807Z</time>
      </trkpt>
      <trkpt lat="50.7059" lon="2.80551">
        <ele>18</ele>
        <time>2018-06-25T09:11:59.807Z</time>
      </trkpt>
      <trkpt lat="50.7055" lon="2.8051">
        <ele>17</ele>
        <time>2018-06-25T09:12:00.807Z</time>
      </trkpt>
      <trkpt lat="50.70526" lon="2.80481">
        <ele>16</ele>
        <time>2018-06-25T09:12:01.807Z</time>
      </trkpt>
      <trkpt lat="50.70522" lon="2.8051">
        <ele>16</ele>
        <time>2018-06-25T09:12:02.807Z</time>
      </trkpt>
      <trkpt lat="50.70519" lon="2.80646">
        <ele>16</ele>
        <time>2018-06-25T09:12:03.807Z</time>
      </trkpt>
      <trkpt lat="50.70517" lon="2.80659">
        <ele>16</ele>
        <time>2018-06-25T09:12:04.807Z</time>
      </trkpt>
      <trkpt lat="50.70514" lon="2.80672">
        <ele>16</ele>
        <time>2018-06-25T09:12:05.807Z</time>
      </trkpt>
      <trkpt lat="50.70483" lon="2.8075">
        <ele>16</ele>
        <time>2018-06-25T09:12:06.807Z</time>
      </trkpt>
      <trkpt lat="50.70469" lon="2.80766">
        <ele>16</ele>
        <time>2018-06-25T09:12:07.807Z</time>
      </trkpt>
      <trkpt lat="50.70429" lon="2.80793">
        <ele>16</ele>
        <time>2018-06-25T09:12:08.807Z</time>
      </trkpt>
      <trkpt lat="50.70401" lon="2.80803">
        <ele>16</ele>
        <time>2018-06-25T09:12:09.807Z</time>
      </trkpt>
      <trkpt lat="50.70346" lon="2.80842">
        <ele>16</ele>
        <time>2018-06-25T09:12:10.807Z</time>
      </trkpt>
      <trkpt lat="50.70319" lon="2.80863">
        <ele>16</ele>
        <time>2018-06-25T09:12:11.807Z</time>
      </trkpt>
      <trkpt lat="50.70229" lon="2.80891">
        <ele>17</ele>
        <time>2018-06-25T09:12:12.807Z</time>
      </trkpt>
      <trkpt lat="50.70185" lon="2.80909">
        <ele>16</ele>
        <time>2018-06-25T09:12:13.807Z</time>
      </trkpt>
      <trkpt lat="50.7003" lon="2.8097">
        <ele>16</ele>
        <time>2018-06-25T09:12:14.807Z</time>
      </trkpt>
      <trkpt lat="50.69954" lon="2.81011">
        <ele>17</ele>
        <time>2018-06-25T09:12:15.807Z</time>
      </trkpt>
      <trkpt lat="50.69946" lon="2.8102">
        <ele>17</ele>
        <time>2018-06-25T09:12:16.807Z</time>
      </trkpt>
      <trkpt lat="50.69954" lon="2.81029">
        <ele>17</ele>
        <time>2018-06-25T09:12:17.807Z</time>
      </trkpt>
      <trkpt lat="50.70026" lon="2.8107">
        <ele>17</ele>
        <time>2018-06-25T09:12:18.807Z</time>
      </trkpt>
      <trkpt lat="50.70038" lon="2.81089">
        <ele>17</ele>
        <time>2018-06-25T09:12:19.807Z</time>
      </trkpt>
      <trkpt lat="50.70046" lon="2.81108">
        <ele>17</ele>
        <time>2018-06-25T09:12:20.807Z</time>
      </trkpt>
      <trkpt lat="50.70053" lon="2.81144">
        <ele>17</ele>
        <time>2018-06-25T09:12:21.807Z</time>
      </trkpt>
      <trkpt lat="50.70053" lon="2.81143">
        <ele>17</ele>
        <time>2018-06-25T09:12:22.807Z</time>
      </trkpt>
      <trkpt lat="50.7008" lon="2.8128">
        <ele>16</ele>
        <time>2018-06-25T09:12:23.807Z</time>
      </trkpt>
      <trkpt lat="50.70092" lon="2.81407">
        <ele>17</ele>
        <time>2018-06-25T09:12:24.807Z</time>
      </trkpt>
      <trkpt lat="50.70131" lon="2.81644">
        <ele>16</ele>
        <time>2018-06-25T09:12:25.807Z</time>
      </trkpt>
      <trkpt lat="50.70133" lon="2.81649">
        <ele>16</ele>
        <time>2018-06-25T09:12:26.807Z</time>
      </trkpt>
      <trkpt lat="50.70164" lon="2.81684">
        <ele>16</ele>
        <time>2018-06-25T09:12:27.807Z</time>
      </trkpt>
      <trkpt lat="50.7017" lon="2.81689">
        <ele>16</ele>
        <time>2018-06-25T09:12:28.807Z</time>
      </trkpt>
      <trkpt lat="50.70144" lon="2.8172">
        <ele>17</ele>
        <time>2018-06-25T09:12:29.807Z</time>
      </trkpt>
      <trkpt lat="50.70132" lon="2.81742">
        <ele>17</ele>
        <time>2018-06-25T09:12:30.807Z</time>
      </trkpt>
      <trkpt lat="50.7009" lon="2.81847">
        <ele>16</ele>
        <time>2018-06-25T09:12:31.807Z</time>
      </trkpt>
      <trkpt lat="50.7009" lon="2.81848">
        <ele>16</ele>
        <time>2018-06-25T09:12:32.807Z</time>
      </trkpt>
      <trkpt lat="50.69694" lon="2.8287">
        <ele>16</ele>
        <time>2018-06-25T09:12:33.807Z</time>
      </trkpt>
      <trkpt lat="50.69679" lon="2.82829">
        <ele>15</ele>
        <time>2018-06-25T09:12:34.807Z</time>
      </trkpt>
      <trkpt lat="50.69672" lon="2.82847">
        <ele>15</ele>
        <time>2018-06-25T09:12:35.807Z</time>
      </trkpt>
      <trkpt lat="50.69549" lon="2.83169">
        <ele>16</ele>
        <time>2018-06-25T09:12:36.807Z</time>
      </trkpt>
      <trkpt lat="50.69549" lon="2.8317">
        <ele>16</ele>
        <time>2018-06-25T09:12:37.807Z</time>
      </trkpt>
      <trkpt lat="50.69469" lon="2.8338">
        <ele>16</ele>
        <time>2018-06-25T09:12:38.807Z</time>
      </trkpt>
      <trkpt lat="50.69394" lon="2.83569">
        <ele>15</ele>
        <time>2018-06-25T09:12:39.807Z</time>
      </trkpt>
      <trkpt lat="50.69326" lon="2.83754">
        <ele>16</ele>
        <time>2018-06-25T09:12:40.807Z</time>
      </trkpt>
      <trkpt lat="50.69285" lon="2.83823">
        <ele>16</ele>
        <time>2018-06-25T09:12:41.807Z</time>
      </trkpt>
      <trkpt lat="50.69272" lon="2.83842">
        <ele>16</ele>
        <time>2018-06-25T09:12:42.807Z</time>
      </trkpt>
      <trkpt lat="50.69264" lon="2.83847">
        <ele>16</ele>
        <time>2018-06-25T09:12:43.807Z</time>
      </trkpt>
      <trkpt lat="50.69247" lon="2.83853">
        <ele>16</ele>
        <time>2018-06-25T09:12:44.807Z</time>
      </trkpt>
      <trkpt lat="50.6924" lon="2.83861">
        <ele>16</ele>
        <time>2018-06-25T09:12:45.807Z</time>
      </trkpt>
      <trkpt lat="50.69155" lon="2.83976">
        <ele>16</ele>
        <time>2018-06-25T09:12:46.807Z</time>
      </trkpt>
      <trkpt lat="50.6914" lon="2.83987">
        <ele>16</ele>
        <time>2018-06-25T09:12:47.807Z</time>
      </trkpt>
      <trkpt lat="50.69124" lon="2.8399">
        <ele>15</ele>
        <time>2018-06-25T09:12:48.807Z</time>
      </trkpt>
      <trkpt lat="50.69096" lon="2.83981">
        <ele>15</ele>
        <time>2018-06-25T09:12:49.807Z</time>
      </trkpt>
      <trkpt lat="50.69021" lon="2.83948">
        <ele>15</ele>
        <time>2018-06-25T09:12:50.807Z</time>
      </trkpt>
      <trkpt lat="50.69003" lon="2.83948">
        <ele>15</ele>
        <time>2018-06-25T09:12:51.807Z</time>
      </trkpt>
      <trkpt lat="50.68994" lon="2.83952">
        <ele>15</ele>
        <time>2018-06-25T09:12:52.807Z</time>
      </trkpt>
      <trkpt lat="50.68901" lon="2.84072">
        <ele>17</ele>
        <time>2018-06-25T09:12:53.807Z</time>
      </trkpt>
      <trkpt lat="50.68897" lon="2.84061">
        <ele>17</ele>
        <time>2018-06-25T09:12:54.807Z</time>
      </trkpt>
      <trkpt lat="50.68897" lon="2.84061">
        <ele>17</ele>
        <time>2018-06-25T09:12:55.807Z</time>
      </trkpt>
      <trkpt lat="50.6886" lon="2.83955">
        <ele>16</ele>
        <time>2018-06-25T09:12:56.807Z</time>
      </trkpt>
      <trkpt lat="50.6882" lon="2.83834">
        <ele>15</ele>
        <time>2018-06-25T09:12:57.807Z</time>
      </trkpt>
      <trkpt lat="50.68798" lon="2.83755">
        <ele>16</ele>
        <time>2018-06-25T09:12:58.807Z</time>
      </trkpt>
      <trkpt lat="50.68757" lon="2.83545">
        <ele>16</ele>
        <time>2018-06-25T09:12:59.807Z</time>
      </trkpt>
      <trkpt lat="50.68734" lon="2.83446">
        <ele>16</ele>
        <time>2018-06-25T09:13:00.807Z</time>
      </trkpt>
      <trkpt lat="50.68694" lon="2.83317">
        <ele>17</ele>
        <time>2018-06-25T09:13:01.807Z</time>
      </trkpt>
      <trkpt lat="50.68692" lon="2.83288">
        <ele>17</ele>
        <time>2018-06-25T09:13:02.807Z</time>
      </trkpt>
      <trkpt lat="50.68696" lon="2.83266">
        <ele>17</ele>
        <time>2018-06-25T09:13:03.807Z</time>
      </trkpt>
      <trkpt lat="50.68718" lon="2.83232">
        <ele>18</ele>
        <time>2018-06-25T09:13:04.807Z</time>
      </trkpt>
      <trkpt lat="50.68732" lon="2.83195">
        <ele>18</ele>
        <time>2018-06-25T09:13:05.807Z</time>
      </trkpt>
      <trkpt lat="50.68648" lon="2.83177">
        <ele>18</ele>
        <time>2018-06-25T09:13:06.807Z</time>
      </trkpt>
      <trkpt lat="50.68613" lon="2.8315">
        <ele>16</ele>
        <time>2018-06-25T09:13:07.807Z</time>
      </trkpt>
      <trkpt lat="50.68602" lon="2.83211">
        <ele>16</ele>
        <time>2018-06-25T09:13:08.807Z</time>
      </trkpt>
      <trkpt lat="50.68577" lon="2.83264">
        <ele>16</ele>
        <time>2018-06-25T09:13:09.807Z</time>
      </trkpt>
      <trkpt lat="50.68542" lon="2.83312">
        <ele>17</ele>
        <time>2018-06-25T09:13:10.807Z</time>
      </trkpt>
      <trkpt lat="50.68496" lon="2.83336">
        <ele>17</ele>
        <time>2018-06-25T09:13:11.807Z</time>
      </trkpt>
      <trkpt lat="50.68496" lon="2.83337">
        <ele>17</ele>
        <time>2018-06-25T09:13:12.807Z</time>
      </trkpt>
      <trkpt lat="50.68378" lon="2.83413">
        <ele>16</ele>
        <time>2018-06-25T09:13:13.807Z</time>
      </trkpt>
      <trkpt lat="50.68279" lon="2.83498">
        <ele>16</ele>
        <time>2018-06-25T09:13:14.807Z</time>
      </trkpt>
      <trkpt lat="50.68195" lon="2.83556">
        <ele>15</ele>
        <time>2018-06-25T09:13:15.807Z</time>
      </trkpt>
      <trkpt lat="50.68011" lon="2.83648">
        <ele>13</ele>
        <time>2018-06-25T09:13:16.807Z</time>
      </trkpt>
      <trkpt lat="50.67967" lon="2.83671">
        <ele>13</ele>
        <time>2018-06-25T09:13:17.807Z</time>
      </trkpt>
      <trkpt lat="50.67945" lon="2.83675">
        <ele>12</ele>
        <time>2018-06-25T09:13:18.807Z</time>
      </trkpt>
      <trkpt lat="50.67922" lon="2.83668">
        <ele>12</ele>
        <time>2018-06-25T09:13:19.807Z</time>
      </trkpt>
      <trkpt lat="50.67895" lon="2.83685">
        <ele>12</ele>
        <time>2018-06-25T09:13:20.807Z</time>
      </trkpt>
      <trkpt lat="50.67781" lon="2.83551">
        <ele>12</ele>
        <time>2018-06-25T09:13:21.807Z</time>
      </trkpt>
      <trkpt lat="50.67763" lon="2.83537">
        <ele>13</ele>
        <time>2018-06-25T09:13:22.807Z</time>
      </trkpt>
      <trkpt lat="50.67663" lon="2.83477">
        <ele>15</ele>
        <time>2018-06-25T09:13:23.807Z</time>
      </trkpt>
      <trkpt lat="50.67559" lon="2.83407">
        <ele>17</ele>
        <time>2018-06-25T09:13:24.807Z</time>
      </trkpt>
      <trkpt lat="50.67544" lon="2.83392">
        <ele>17</ele>
        <time>2018-06-25T09:13:25.807Z</time>
      </trkpt>
      <trkpt lat="50.67547" lon="2.83382">
        <ele>17</ele>
        <time>2018-06-25T09:13:26.807Z</time>
      </trkpt>
      <trkpt lat="50.67548" lon="2.83374">
        <ele>17</ele>
        <time>2018-06-25T09:13:27.807Z</time>
      </trkpt>
      <trkpt lat="50.67547" lon="2.83363">
        <ele>17</ele>
        <time>2018-06-25T09:13:28.807Z</time>
      </trkpt>
      <trkpt lat="50.67542" lon="2.83351">
        <ele>17</ele>
        <time>2018-06-25T09:13:29.807Z</time>
      </trkpt>
      <trkpt lat="50.67536" lon="2.83345">
        <ele>17</ele>
        <time>2018-06-25T09:13:30.807Z</time>
      </trkpt>
      <trkpt lat="50.6753" lon="2.83343">
        <ele>16</ele>
        <time>2018-06-25T09:13:31.807Z</time>
      </trkpt>
      <trkpt lat="50.6752" lon="2.83346">
        <ele>16</ele>
        <time>2018-06-25T09:13:32.807Z</time>
      </trkpt>
      <trkpt lat="50.67515" lon="2.83352">
        <ele>17</ele>
        <time>2018-06-25T09:13:33.807Z</time>
      </trkpt>
      <trkpt lat="50.6751" lon="2.83367">
        <ele>17</ele>
        <time>2018-06-25T09:13:34.807Z</time>
      </trkpt>
      <trkpt lat="50.67509" lon="2.83378">
        <ele>17</ele>
        <time>2018-06-25T09:13:35.807Z</time>
      </trkpt>
      <trkpt lat="50.67444" lon="2.83417">
        <ele>17</ele>
        <time>2018-06-25T09:13:36.807Z</time>
      </trkpt>
      <trkpt lat="50.67444" lon="2.83419">
        <ele>17</ele>
        <time>2018-06-25T09:13:37.807Z</time>
      </trkpt>
      <trkpt lat="50.67346" lon="2.83477">
        <ele>16</ele>
        <time>2018-06-25T09:13:38.807Z</time>
      </trkpt>
      <trkpt lat="50.67189" lon="2.83581">
        <ele>16</ele>
        <time>2018-06-25T09:13:39.807Z</time>
      </trkpt>
      <trkpt lat="50.67109" lon="2.83642">
        <ele>17</ele>
        <time>2018-06-25T09:13:40.807Z</time>
      </trkpt>
      <trkpt lat="50.6707" lon="2.83671">
        <ele>18</ele>
        <time>2018-06-25T09:13:41.807Z</time>
      </trkpt>
      <trkpt lat="50.67051" lon="2.83686">
        <ele>18</ele>
        <time>2018-06-25T09:13:42.807Z</time>
      </trkpt>
      <trkpt lat="50.67041" lon="2.83698">
        <ele>18</ele>
        <time>2018-06-25T09:13:43.807Z</time>
      </trkpt>
      <trkpt lat="50.67012" lon="2.83739">
        <ele>17</ele>
        <time>2018-06-25T09:13:44.807Z</time>
      </trkpt>
      <trkpt lat="50.6699" lon="2.83784">
        <ele>16</ele>
        <time>2018-06-25T09:13:45.807Z</time>
      </trkpt>
      <trkpt lat="50.66965" lon="2.83852">
        <ele>15</ele>
        <time>2018-06-25T09:13:46.807Z</time>
      </trkpt>
      <trkpt lat="50.6723" lon="2.8456">
        <ele>16</ele>
        <time>2018-06-25T09:13:47.807Z</time>
      </trkpt>
      <trkpt lat="50.67407" lon="2.85054">
        <ele>15</ele>
        <time>2018-06-25T09:13:48.807Z</time>
      </trkpt>
      <trkpt lat="50.67407" lon="2.85055">
        <ele>15</ele>
        <time>2018-06-25T09:13:49.807Z</time>
      </trkpt>
      <trkpt lat="50.67318" lon="2.85103">
        <ele>14</ele>
        <time>2018-06-25T09:13:50.807Z</time>
      </trkpt>
      <trkpt lat="50.67282" lon="2.85152">
        <ele>13</ele>
        <time>2018-06-25T09:13:51.807Z</time>
      </trkpt>
      <trkpt lat="50.67139" lon="2.85371">
        <ele>15</ele>
        <time>2018-06-25T09:13:52.807Z</time>
      </trkpt>
      <trkpt lat="50.67093" lon="2.85454">
        <ele>15</ele>
        <time>2018-06-25T09:13:53.807Z</time>
      </trkpt>
      <trkpt lat="50.66993" lon="2.85535">
        <ele>16</ele>
        <time>2018-06-25T09:13:54.807Z</time>
      </trkpt>
      <trkpt lat="50.66934" lon="2.85631">
        <ele>15</ele>
        <time>2018-06-25T09:13:55.807Z</time>
      </trkpt>
      <trkpt lat="50.6682" lon="2.85726">
        <ele>16</ele>
        <time>2018-06-25T09:13:56.807Z</time>
      </trkpt>
      <trkpt lat="50.66677" lon="2.85787">
        <ele>17</ele>
        <time>2018-06-25T09:13:57.807Z</time>
      </trkpt>
      <trkpt lat="50.66677" lon="2.85787">
        <ele>17</ele>
        <time>2018-06-25T09:13:58.807Z</time>
      </trkpt>
      <trkpt lat="50.66587" lon="2.85833">
        <ele>16</ele>
        <time>2018-06-25T09:13:59.807Z</time>
      </trkpt>
      <trkpt lat="50.66498" lon="2.85906">
        <ele>16</ele>
        <time>2018-06-25T09:14:00.807Z</time>
      </trkpt>
      <trkpt lat="50.66451" lon="2.8594">
        <ele>17</ele>
        <time>2018-06-25T09:14:01.807Z</time>
      </trkpt>
      <trkpt lat="50.66385" lon="2.85956">
        <ele>16</ele>
        <time>2018-06-25T09:14:02.807Z</time>
      </trkpt>
      <trkpt lat="50.6628" lon="2.85957">
        <ele>16</ele>
        <time>2018-06-25T09:14:03.807Z</time>
      </trkpt>
      <trkpt lat="50.66065" lon="2.86084">
        <ele>16</ele>
        <time>2018-06-25T09:14:04.807Z</time>
      </trkpt>
      <trkpt lat="50.66038" lon="2.85989">
        <ele>17</ele>
        <time>2018-06-25T09:14:05.807Z</time>
      </trkpt>
      <trkpt lat="50.65964" lon="2.85847">
        <ele>17</ele>
        <time>2018-06-25T09:14:06.807Z</time>
      </trkpt>
      <trkpt lat="50.65961" lon="2.85868">
        <ele>17</ele>
        <time>2018-06-25T09:14:07.807Z</time>
      </trkpt>
      <trkpt lat="50.65965" lon="2.8593">
        <ele>17</ele>
        <time>2018-06-25T09:14:08.807Z</time>
      </trkpt>
      <trkpt lat="50.65981" lon="2.85999">
        <ele>17</ele>
        <time>2018-06-25T09:14:09.807Z</time>
      </trkpt>
      <trkpt lat="50.65965" lon="2.86064">
        <ele>17</ele>
        <time>2018-06-25T09:14:10.807Z</time>
      </trkpt>
      <trkpt lat="50.6594" lon="2.86087">
        <ele>16</ele>
        <time>2018-06-25T09:14:11.807Z</time>
      </trkpt>
      <trkpt lat="50.65941" lon="2.86087">
        <ele>16</ele>
        <time>2018-06-25T09:14:12.807Z</time>
      </trkpt>
      <trkpt lat="50.6548" lon="2.86517">
        <ele>17</ele>
        <time>2018-06-25T09:14:13.807Z</time>
      </trkpt>
      <trkpt lat="50.65454" lon="2.86536">
        <ele>17</ele>
        <time>2018-06-25T09:14:14.807Z</time>
      </trkpt>
      <trkpt lat="50.65175" lon="2.86802">
        <ele>18</ele>
        <time>2018-06-25T09:14:15.807Z</time>
      </trkpt>
      <trkpt lat="50.65038" lon="2.86919">
        <ele>17</ele>
        <time>2018-06-25T09:14:16.807Z</time>
      </trkpt>
      <trkpt lat="50.6487" lon="2.87037">
        <ele>19</ele>
        <time>2018-06-25T09:14:17.807Z</time>
      </trkpt>
      <trkpt lat="50.64849" lon="2.87049">
        <ele>19</ele>
        <time>2018-06-25T09:14:18.807Z</time>
      </trkpt>
      <trkpt lat="50.64827" lon="2.87039">
        <ele>18</ele>
        <time>2018-06-25T09:14:19.807Z</time>
      </trkpt>
      <trkpt lat="50.64734" lon="2.87122">
        <ele>18</ele>
        <time>2018-06-25T09:14:20.807Z</time>
      </trkpt>
      <trkpt lat="50.64728" lon="2.87149">
        <ele>19</ele>
        <time>2018-06-25T09:14:21.807Z</time>
      </trkpt>
      <trkpt lat="50.64671" lon="2.87197">
        <ele>19</ele>
        <time>2018-06-25T09:14:22.807Z</time>
      </trkpt>
      <trkpt lat="50.64645" lon="2.87222">
        <ele>19</ele>
        <time>2018-06-25T09:14:23.807Z</time>
      </trkpt>
      <trkpt lat="50.64645" lon="2.87222">
        <ele>19</ele>
        <time>2018-06-25T09:14:24.807Z</time>
      </trkpt>
      <trkpt lat="50.64626" lon="2.87241">
        <ele>18</ele>
        <time>2018-06-25T09:14:25.807Z</time>
      </trkpt>
      <trkpt lat="50.64583" lon="2.87427">
        <ele>18</ele>
        <time>2018-06-25T09:14:26.807Z</time>
      </trkpt>
      <trkpt lat="50.64622" lon="2.87528">
        <ele>19</ele>
        <time>2018-06-25T09:14:27.807Z</time>
      </trkpt>
      <trkpt lat="50.64667" lon="2.87649">
        <ele>18</ele>
        <time>2018-06-25T09:14:28.807Z</time>
      </trkpt>
      <trkpt lat="50.64613" lon="2.87701">
        <ele>18</ele>
        <time>2018-06-25T09:14:29.807Z</time>
      </trkpt>
      <trkpt lat="50.64614" lon="2.87702">
        <ele>18</ele>
        <time>2018-06-25T09:14:30.807Z</time>
      </trkpt>
      <trkpt lat="50.64572" lon="2.87752">
        <ele>18</ele>
        <time>2018-06-25T09:14:31.807Z</time>
      </trkpt>
      <trkpt lat="50.6453" lon="2.87778">
        <ele>18</ele>
        <time>2018-06-25T09:14:32.807Z</time>
      </trkpt>
      <trkpt lat="50.64418" lon="2.8788">
        <ele>17</ele>
        <time>2018-06-25T09:14:33.807Z</time>
      </trkpt>
      <trkpt lat="50.64135" lon="2.88049">
        <ele>20</ele>
        <time>2018-06-25T09:14:34.807Z</time>
      </trkpt>
      <trkpt lat="50.64027" lon="2.8811">
        <ele>19</ele>
        <time>2018-06-25T09:14:35.807Z</time>
      </trkpt>
      <trkpt lat="50.64011" lon="2.88124">
        <ele>18</ele>
        <time>2018-06-25T09:14:36.807Z</time>
      </trkpt>
      <trkpt lat="50.64" lon="2.88148">
        <ele>18</ele>
        <time>2018-06-25T09:14:37.807Z</time>
      </trkpt>
      <trkpt lat="50.6397" lon="2.88318">
        <ele>17</ele>
        <time>2018-06-25T09:14:38.807Z</time>
      </trkpt>
      <trkpt lat="50.63946" lon="2.884">
        <ele>17</ele>
        <time>2018-06-25T09:14:39.807Z</time>
      </trkpt>
      <trkpt lat="50.63946" lon="2.88401">
        <ele>17</ele>
        <time>2018-06-25T09:14:40.807Z</time>
      </trkpt>
      <trkpt lat="50.6392" lon="2.8849">
        <ele>18</ele>
        <time>2018-06-25T09:14:41.807Z</time>
      </trkpt>
      <trkpt lat="50.63813" lon="2.88671">
        <ele>18</ele>
        <time>2018-06-25T09:14:42.807Z</time>
      </trkpt>
      <trkpt lat="50.63565" lon="2.8905">
        <ele>19</ele>
        <time>2018-06-25T09:14:43.807Z</time>
      </trkpt>
      <trkpt lat="50.63493" lon="2.89169">
        <ele>19</ele>
        <time>2018-06-25T09:14:44.807Z</time>
      </trkpt>
      <trkpt lat="50.63411" lon="2.89298">
        <ele>20</ele>
        <time>2018-06-25T09:14:45.807Z</time>
      </trkpt>
      <trkpt lat="50.63338" lon="2.89363">
        <ele>19</ele>
        <time>2018-06-25T09:14:46.807Z</time>
      </trkpt>
      <trkpt lat="50.63193" lon="2.89511">
        <ele>17</ele>
        <time>2018-06-25T09:14:47.807Z</time>
      </trkpt>
      <trkpt lat="50.63124" lon="2.89574">
        <ele>19</ele>
        <time>2018-06-25T09:14:48.807Z</time>
      </trkpt>
      <trkpt lat="50.63079" lon="2.8963">
        <ele>20</ele>
        <time>2018-06-25T09:14:49.807Z</time>
      </trkpt>
      <trkpt lat="50.62943" lon="2.89809">
        <ele>21</ele>
        <time>2018-06-25T09:14:50.807Z</time>
      </trkpt>
      <trkpt lat="50.62877" lon="2.89912">
        <ele>20</ele>
        <time>2018-06-25T09:14:51.807Z</time>
      </trkpt>
      <trkpt lat="50.62845" lon="2.89966">
        <ele>18</ele>
        <time>2018-06-25T09:14:52.807Z</time>
      </trkpt>
      <trkpt lat="50.62689" lon="2.9022">
        <ele>19</ele>
        <time>2018-06-25T09:14:53.807Z</time>
      </trkpt>
      <trkpt lat="50.62505" lon="2.90428">
        <ele>21</ele>
        <time>2018-06-25T09:14:54.807Z</time>
      </trkpt>
      <trkpt lat="50.62396" lon="2.90517">
        <ele>22</ele>
        <time>2018-06-25T09:14:55.807Z</time>
      </trkpt>
      <trkpt lat="50.623" lon="2.90553">
        <ele>22</ele>
        <time>2018-06-25T09:14:56.807Z</time>
      </trkpt>
      <trkpt lat="50.62264" lon="2.90574">
        <ele>23</ele>
        <time>2018-06-25T09:14:57.807Z</time>
      </trkpt>
      <trkpt lat="50.62218" lon="2.90604">
        <ele>23</ele>
        <time>2018-06-25T09:14:58.807Z</time>
      </trkpt>
      <trkpt lat="50.62201" lon="2.9063">
        <ele>23</ele>
        <time>2018-06-25T09:14:59.807Z</time>
      </trkpt>
      <trkpt lat="50.62181" lon="2.90646">
        <ele>23</ele>
        <time>2018-06-25T09:15:00.807Z</time>
      </trkpt>
      <trkpt lat="50.62145" lon="2.90662">
        <ele>24</ele>
        <time>2018-06-25T09:15:01.807Z</time>
      </trkpt>
      <trkpt lat="50.62146" lon="2.90673">
        <ele>24</ele>
        <time>2018-06-25T09:15:02.807Z</time>
      </trkpt>
      <trkpt lat="50.62144" lon="2.90743">
        <ele>24</ele>
        <time>2018-06-25T09:15:03.807Z</time>
      </trkpt>
      <trkpt lat="50.62144" lon="2.90743">
        <ele>24</ele>
        <time>2018-06-25T09:15:04.807Z</time>
      </trkpt>
      <trkpt lat="50.62144" lon="2.90825">
        <ele>25</ele>
        <time>2018-06-25T09:15:05.807Z</time>
      </trkpt>
      <trkpt lat="50.62146" lon="2.9084">
        <ele>25</ele>
        <time>2018-06-25T09:15:06.807Z</time>
      </trkpt>
      <trkpt lat="50.62222" lon="2.9112">
        <ele>22</ele>
        <time>2018-06-25T09:15:07.807Z</time>
      </trkpt>
      <trkpt lat="50.62243" lon="2.91167">
        <ele>21</ele>
        <time>2018-06-25T09:15:08.807Z</time>
      </trkpt>
      <trkpt lat="50.62265" lon="2.91205">
        <ele>21</ele>
        <time>2018-06-25T09:15:09.807Z</time>
      </trkpt>
      <trkpt lat="50.62235" lon="2.9125">
        <ele>24</ele>
        <time>2018-06-25T09:15:10.807Z</time>
      </trkpt>
      <trkpt lat="50.62222" lon="2.91261">
        <ele>24</ele>
        <time>2018-06-25T09:15:11.807Z</time>
      </trkpt>
      <trkpt lat="50.62223" lon="2.91261">
        <ele>24</ele>
        <time>2018-06-25T09:15:12.807Z</time>
      </trkpt>
      <trkpt lat="50.62188" lon="2.91293">
        <ele>26</ele>
        <time>2018-06-25T09:15:13.807Z</time>
      </trkpt>
      <trkpt lat="50.62097" lon="2.91351">
        <ele>28</ele>
        <time>2018-06-25T09:15:14.807Z</time>
      </trkpt>
      <trkpt lat="50.62008" lon="2.91383">
        <ele>28</ele>
        <time>2018-06-25T09:15:15.807Z</time>
      </trkpt>
      <trkpt lat="50.61974" lon="2.914">
        <ele>29</ele>
        <time>2018-06-25T09:15:16.807Z</time>
      </trkpt>
      <trkpt lat="50.61863" lon="2.91465">
        <ele>31</ele>
        <time>2018-06-25T09:15:17.807Z</time>
      </trkpt>
      <trkpt lat="50.61725" lon="2.91566">
        <ele>32</ele>
        <time>2018-06-25T09:15:18.807Z</time>
      </trkpt>
      <trkpt lat="50.61739" lon="2.91665">
        <ele>31</ele>
        <time>2018-06-25T09:15:19.807Z</time>
      </trkpt>
      <trkpt lat="50.61735" lon="2.91666">
        <ele>31</ele>
        <time>2018-06-25T09:15:20.807Z</time>
      </trkpt>
      <trkpt lat="50.61752" lon="2.91961">
        <ele>35</ele>
        <time>2018-06-25T09:15:21.807Z</time>
      </trkpt>
      <trkpt lat="50.61762" lon="2.9229">
        <ele>36</ele>
        <time>2018-06-25T09:15:22.807Z</time>
      </trkpt>
      <trkpt lat="50.61766" lon="2.92354">
        <ele>37</ele>
        <time>2018-06-25T09:15:23.807Z</time>
      </trkpt>
      <trkpt lat="50.61775" lon="2.92418">
        <ele>36</ele>
        <time>2018-06-25T09:15:24.807Z</time>
      </trkpt>
      <trkpt lat="50.61784" lon="2.92455">
        <ele>37</ele>
        <time>2018-06-25T09:15:25.807Z</time>
      </trkpt>
      <trkpt lat="50.61796" lon="2.9249">
        <ele>37</ele>
        <time>2018-06-25T09:15:26.807Z</time>
      </trkpt>
      <trkpt lat="50.61819" lon="2.9254">
        <ele>38</ele>
        <time>2018-06-25T09:15:27.807Z</time>
      </trkpt>
      <trkpt lat="50.61847" lon="2.92591">
        <ele>37</ele>
        <time>2018-06-25T09:15:28.807Z</time>
      </trkpt>
      <trkpt lat="50.61774" lon="2.9265">
        <ele>39</ele>
        <time>2018-06-25T09:15:29.807Z</time>
      </trkpt>
      <trkpt lat="50.6155" lon="2.92796">
        <ele>39</ele>
        <time>2018-06-25T09:15:30.807Z</time>
      </trkpt>
      <trkpt lat="50.61448" lon="2.92905">
        <ele>39</ele>
        <time>2018-06-25T09:15:31.807Z</time>
      </trkpt>
      <trkpt lat="50.61458" lon="2.92921">
        <ele>38</ele>
        <time>2018-06-25T09:15:32.807Z</time>
      </trkpt>
      <trkpt lat="50.6145" lon="2.92927">
        <ele>39</ele>
        <time>2018-06-25T09:15:33.807Z</time>
      </trkpt>
      <trkpt lat="50.61312" lon="2.93002">
        <ele>37</ele>
        <time>2018-06-25T09:15:34.807Z</time>
      </trkpt>
      <trkpt lat="50.61278" lon="2.93023">
        <ele>37</ele>
        <time>2018-06-25T09:15:35.807Z</time>
      </trkpt>
      <trkpt lat="50.61266" lon="2.93037">
        <ele>37</ele>
        <time>2018-06-25T09:15:36.807Z</time>
      </trkpt>
      <trkpt lat="50.61231" lon="2.9306">
        <ele>36</ele>
        <time>2018-06-25T09:15:37.807Z</time>
      </trkpt>
      <trkpt lat="50.61126" lon="2.93119">
        <ele>34</ele>
        <time>2018-06-25T09:15:38.807Z</time>
      </trkpt>
      <trkpt lat="50.61126" lon="2.93119">
        <ele>34</ele>
        <time>2018-06-25T09:15:39.807Z</time>
      </trkpt>
      <trkpt lat="50.61012" lon="2.93185">
        <ele>31</ele>
        <time>2018-06-25T09:15:40.807Z</time>
      </trkpt>
      <trkpt lat="50.60995" lon="2.93192">
        <ele>31</ele>
        <time>2018-06-25T09:15:41.807Z</time>
      </trkpt>
      <trkpt lat="50.60962" lon="2.93215">
        <ele>30</ele>
        <time>2018-06-25T09:15:42.807Z</time>
      </trkpt>
      <trkpt lat="50.60938" lon="2.93223">
        <ele>30</ele>
        <time>2018-06-25T09:15:43.807Z</time>
      </trkpt>
      <trkpt lat="50.60892" lon="2.93256">
        <ele>30</ele>
        <time>2018-06-25T09:15:44.807Z</time>
      </trkpt>
      <trkpt lat="50.60851" lon="2.93272">
        <ele>29</ele>
        <time>2018-06-25T09:15:45.807Z</time>
      </trkpt>
      <trkpt lat="50.60797" lon="2.93306">
        <ele>29</ele>
        <time>2018-06-25T09:15:46.807Z</time>
      </trkpt>
      <trkpt lat="50.60773" lon="2.93315">
        <ele>29</ele>
        <time>2018-06-25T09:15:47.807Z</time>
      </trkpt>
      <trkpt lat="50.60746" lon="2.93334">
        <ele>29</ele>
        <time>2018-06-25T09:15:48.807Z</time>
      </trkpt>
      <trkpt lat="50.60708" lon="2.93354">
        <ele>28</ele>
        <time>2018-06-25T09:15:49.807Z</time>
      </trkpt>
      <trkpt lat="50.60682" lon="2.93371">
        <ele>28</ele>
        <time>2018-06-25T09:15:50.807Z</time>
      </trkpt>
      <trkpt lat="50.60661" lon="2.9338">
        <ele>28</ele>
        <time>2018-06-25T09:15:51.807Z</time>
      </trkpt>
      <trkpt lat="50.60636" lon="2.93393">
        <ele>28</ele>
        <time>2018-06-25T09:15:52.807Z</time>
      </trkpt>
      <trkpt lat="50.60605" lon="2.93416">
        <ele>27</ele>
        <time>2018-06-25T09:15:53.807Z</time>
      </trkpt>
      <trkpt lat="50.60522" lon="2.93461">
        <ele>27</ele>
        <time>2018-06-25T09:15:54.807Z</time>
      </trkpt>
      <trkpt lat="50.60505" lon="2.93475">
        <ele>26</ele>
        <time>2018-06-25T09:15:55.807Z</time>
      </trkpt>
      <trkpt lat="50.60445" lon="2.93503">
        <ele>26</ele>
        <time>2018-06-25T09:15:56.807Z</time>
      </trkpt>
      <trkpt lat="50.60438" lon="2.9351">
        <ele>26</ele>
        <time>2018-06-25T09:15:57.807Z</time>
      </trkpt>
      <trkpt lat="50.60412" lon="2.93523">
        <ele>26</ele>
        <time>2018-06-25T09:15:58.807Z</time>
      </trkpt>
      <trkpt lat="50.60393" lon="2.93537">
        <ele>26</ele>
        <time>2018-06-25T09:15:59.807Z</time>
      </trkpt>
      <trkpt lat="50.60374" lon="2.93546">
        <ele>26</ele>
        <time>2018-06-25T09:16:00.807Z</time>
      </trkpt>
      <trkpt lat="50.60351" lon="2.93562">
        <ele>26</ele>
        <time>2018-06-25T09:16:01.807Z</time>
      </trkpt>
      <trkpt lat="50.60331" lon="2.93573">
        <ele>26</ele>
        <time>2018-06-25T09:16:02.807Z</time>
      </trkpt>
      <trkpt lat="50.60322" lon="2.93573">
        <ele>26</ele>
        <time>2018-06-25T09:16:03.807Z</time>
      </trkpt>
      <trkpt lat="50.60318" lon="2.93575">
        <ele>26</ele>
        <time>2018-06-25T09:16:04.807Z</time>
      </trkpt>
      <trkpt lat="50.60296" lon="2.93592">
        <ele>26</ele>
        <time>2018-06-25T09:16:05.807Z</time>
      </trkpt>
      <trkpt lat="50.60001" lon="2.93757">
        <ele>23</ele>
        <time>2018-06-25T09:16:06.807Z</time>
      </trkpt>
      <trkpt lat="50.59966" lon="2.93723">
        <ele>23</ele>
        <time>2018-06-25T09:16:07.807Z</time>
      </trkpt>
      <trkpt lat="50.59963" lon="2.93685">
        <ele>23</ele>
        <time>2018-06-25T09:16:08.807Z</time>
      </trkpt>
      <trkpt lat="50.59963" lon="2.93684">
        <ele>23</ele>
        <time>2018-06-25T09:16:09.807Z</time>
      </trkpt>
      <trkpt lat="50.59925" lon="2.93174">
        <ele>24</ele>
        <time>2018-06-25T09:16:10.807Z</time>
      </trkpt>
      <trkpt lat="50.59921" lon="2.93139">
        <ele>24</ele>
        <time>2018-06-25T09:16:11.807Z</time>
      </trkpt>
      <trkpt lat="50.59909" lon="2.9311">
        <ele>24</ele>
        <time>2018-06-25T09:16:12.807Z</time>
      </trkpt>
      <trkpt lat="50.59576" lon="2.92552">
        <ele>29</ele>
        <time>2018-06-25T09:16:13.807Z</time>
      </trkpt>
      <trkpt lat="50.59573" lon="2.92555">
        <ele>29</ele>
        <time>2018-06-25T09:16:14.807Z</time>
      </trkpt>
      <trkpt lat="50.59574" lon="2.92555">
        <ele>29</ele>
        <time>2018-06-25T09:16:15.807Z</time>
      </trkpt>
      <trkpt lat="50.59551" lon="2.92578">
        <ele>29</ele>
        <time>2018-06-25T09:16:16.807Z</time>
      </trkpt>
      <trkpt lat="50.59469" lon="2.92617">
        <ele>30</ele>
        <time>2018-06-25T09:16:17.807Z</time>
      </trkpt>
      <trkpt lat="50.59378" lon="2.92656">
        <ele>31</ele>
        <time>2018-06-25T09:16:18.807Z</time>
      </trkpt>
      <trkpt lat="50.59304" lon="2.92683">
        <ele>31</ele>
        <time>2018-06-25T09:16:19.807Z</time>
      </trkpt>
      <trkpt lat="50.59227" lon="2.92703">
        <ele>31</ele>
        <time>2018-06-25T09:16:20.807Z</time>
      </trkpt>
      <trkpt lat="50.59134" lon="2.92704">
        <ele>30</ele>
        <time>2018-06-25T09:16:21.807Z</time>
      </trkpt>
      <trkpt lat="50.59133" lon="2.92693">
        <ele>30</ele>
        <time>2018-06-25T09:16:22.807Z</time>
      </trkpt>
      <trkpt lat="50.59088" lon="2.92698">
        <ele>30</ele>
        <time>2018-06-25T09:16:23.807Z</time>
      </trkpt>
      <trkpt lat="50.59083" lon="2.92694">
        <ele>30</ele>
        <time>2018-06-25T09:16:24.807Z</time>
      </trkpt>
      <trkpt lat="50.59082" lon="2.92694">
        <ele>30</ele>
        <time>2018-06-25T09:16:25.807Z</time>
      </trkpt>
      <trkpt lat="50.59064" lon="2.92679">
        <ele>30</ele>
        <time>2018-06-25T09:16:26.807Z</time>
      </trkpt>
      <trkpt lat="50.59045" lon="2.92683">
        <ele>30</ele>
        <time>2018-06-25T09:16:27.807Z</time>
      </trkpt>
      <trkpt lat="50.59045" lon="2.92682">
        <ele>30</ele>
        <time>2018-06-25T09:16:28.807Z</time>
      </trkpt>
      <trkpt lat="50.59034" lon="2.92685">
        <ele>30</ele>
        <time>2018-06-25T09:16:29.807Z</time>
      </trkpt>
      <trkpt lat="50.59032" lon="2.92694">
        <ele>30</ele>
        <time>2018-06-25T09:16:30.807Z</time>
      </trkpt>
      <trkpt lat="50.59033" lon="2.92702">
        <ele>30</ele>
        <time>2018-06-25T09:16:31.807Z</time>
      </trkpt>
      <trkpt lat="50.59031" lon="2.92708">
        <ele>30</ele>
        <time>2018-06-25T09:16:32.807Z</time>
      </trkpt>
      <trkpt lat="50.59031" lon="2.92708">
        <ele>30</ele>
        <time>2018-06-25T09:16:33.807Z</time>
      </trkpt>
      <trkpt lat="50.59026" lon="2.92734">
        <ele>29</ele>
        <time>2018-06-25T09:16:34.807Z</time>
      </trkpt>
      <trkpt lat="50.59008" lon="2.92755">
        <ele>29</ele>
        <time>2018-06-25T09:16:35.807Z</time>
      </trkpt>
      <trkpt lat="50.58978" lon="2.9278">
        <ele>29</ele>
        <time>2018-06-25T09:16:36.807Z</time>
      </trkpt>
      <trkpt lat="50.58958" lon="2.9279">
        <ele>28</ele>
        <time>2018-06-25T09:16:37.807Z</time>
      </trkpt>
      <trkpt lat="50.58945" lon="2.92787">
        <ele>28</ele>
        <time>2018-06-25T09:16:38.807Z</time>
      </trkpt>
      <trkpt lat="50.58933" lon="2.92775">
        <ele>28</ele>
        <time>2018-06-25T09:16:39.807Z</time>
      </trkpt>
      <trkpt lat="50.58932" lon="2.92775">
        <ele>28</ele>
        <time>2018-06-25T09:16:40.807Z</time>
      </trkpt>
      <trkpt lat="50.58928" lon="2.92774">
        <ele>28</ele>
        <time>2018-06-25T09:16:41.807Z</time>
      </trkpt>
      <trkpt lat="50.58921" lon="2.92779">
        <ele>28</ele>
        <time>2018-06-25T09:16:42.807Z</time>
      </trkpt>
      <trkpt lat="50.58906" lon="2.92801">
        <ele>28</ele>
        <time>2018-06-25T09:16:43.807Z</time>
      </trkpt>
      <trkpt lat="50.58897" lon="2.92833">
        <ele>28</ele>
        <time>2018-06-25T09:16:44.807Z</time>
      </trkpt>
      <trkpt lat="50.58873" lon="2.92857">
        <ele>27</ele>
        <time>2018-06-25T09:16:45.807Z</time>
      </trkpt>
      <trkpt lat="50.58873" lon="2.92869">
        <ele>27</ele>
        <time>2018-06-25T09:16:46.807Z</time>
      </trkpt>
      <trkpt lat="50.5881" lon="2.92914">
        <ele>28</ele>
        <time>2018-06-25T09:16:47.807Z</time>
      </trkpt>
      <trkpt lat="50.58788" lon="2.92924">
        <ele>28</ele>
        <time>2018-06-25T09:16:48.807Z</time>
      </trkpt>
      <trkpt lat="50.5877" lon="2.9293">
        <ele>28</ele>
        <time>2018-06-25T09:16:49.807Z</time>
      </trkpt>
      <trkpt lat="50.58751" lon="2.92931">
        <ele>29</ele>
        <time>2018-06-25T09:16:50.807Z</time>
      </trkpt>
      <trkpt lat="50.58754" lon="2.92996">
        <ele>27</ele>
        <time>2018-06-25T09:16:51.807Z</time>
      </trkpt>
      <trkpt lat="50.58745" lon="2.92923">
        <ele>29</ele>
        <time>2018-06-25T08:54:36.662Z</time>
      </trkpt>
      <trkpt lat="50.58775" lon="2.93369">
        <ele>27</ele>
        <time>2018-06-25T08:54:37.662Z</time>
      </trkpt>
      <trkpt lat="50.58785" lon="2.93358">
        <ele>27</ele>
        <time>2018-06-25T08:54:38.662Z</time>
      </trkpt>
      <trkpt lat="50.58811" lon="2.93423">
        <ele>26</ele>
        <time>2018-06-25T08:54:39.662Z</time>
      </trkpt>
      <trkpt lat="50.58906" lon="2.93523">
        <ele>26</ele>
        <time>2018-06-25T08:54:40.662Z</time>
      </trkpt>
      <trkpt lat="50.58971" lon="2.93621">
        <ele>25</ele>
        <time>2018-06-25T08:54:41.662Z</time>
      </trkpt>
      <trkpt lat="50.59095" lon="2.93801">
        <ele>25</ele>
        <time>2018-06-25T08:54:42.662Z</time>
      </trkpt>
      <trkpt lat="50.59113" lon="2.93818">
        <ele>25</ele>
        <time>2018-06-25T08:54:43.662Z</time>
      </trkpt>
      <trkpt lat="50.59287" lon="2.93917">
        <ele>25</ele>
        <time>2018-06-25T08:54:44.662Z</time>
      </trkpt>
      <trkpt lat="50.59287" lon="2.9392">
        <ele>25</ele>
        <time>2018-06-25T08:54:45.662Z</time>
      </trkpt>
      <trkpt lat="50.59287" lon="2.93919">
        <ele>25</ele>
        <time>2018-06-25T08:54:46.662Z</time>
      </trkpt>
      <trkpt lat="50.5929" lon="2.93941">
        <ele>25</ele>
        <time>2018-06-25T08:54:47.662Z</time>
      </trkpt>
      <trkpt lat="50.59282" lon="2.9401">
        <ele>24</ele>
        <time>2018-06-25T08:54:48.662Z</time>
      </trkpt>
      <trkpt lat="50.59255" lon="2.94204">
        <ele>23</ele>
        <time>2018-06-25T08:54:49.662Z</time>
      </trkpt>
      <trkpt lat="50.59257" lon="2.94219">
        <ele>23</ele>
        <time>2018-06-25T08:54:50.662Z</time>
      </trkpt>
      <trkpt lat="50.59291" lon="2.94366">
        <ele>23</ele>
        <time>2018-06-25T08:54:51.662Z</time>
      </trkpt>
      <trkpt lat="50.59327" lon="2.94593">
        <ele>22</ele>
        <time>2018-06-25T08:54:52.662Z</time>
      </trkpt>
      <trkpt lat="50.59327" lon="2.94592">
        <ele>22</ele>
        <time>2018-06-25T08:54:53.662Z</time>
      </trkpt>
      <trkpt lat="50.59328" lon="2.94603">
        <ele>22</ele>
        <time>2018-06-25T08:54:54.662Z</time>
      </trkpt>
      <trkpt lat="50.59244" lon="2.94692">
        <ele>23</ele>
        <time>2018-06-25T08:54:55.662Z</time>
      </trkpt>
      <trkpt lat="50.59184" lon="2.94769">
        <ele>22</ele>
        <time>2018-06-25T08:54:56.662Z</time>
      </trkpt>
      <trkpt lat="50.59178" lon="2.94781">
        <ele>22</ele>
        <time>2018-06-25T08:54:57.662Z</time>
      </trkpt>
      <trkpt lat="50.59169" lon="2.94815">
        <ele>22</ele>
        <time>2018-06-25T08:54:58.662Z</time>
      </trkpt>
      <trkpt lat="50.59196" lon="2.94837">
        <ele>22</ele>
        <time>2018-06-25T08:54:59.662Z</time>
      </trkpt>
      <trkpt lat="50.59184" lon="2.94865">
        <ele>23</ele>
        <time>2018-06-25T08:55:00.662Z</time>
      </trkpt>
      <trkpt lat="50.59169" lon="2.94894">
        <ele>23</ele>
        <time>2018-06-25T08:55:01.662Z</time>
      </trkpt>
      <trkpt lat="50.59102" lon="2.94968">
        <ele>21</ele>
        <time>2018-06-25T08:55:02.662Z</time>
      </trkpt>
      <trkpt lat="50.59071" lon="2.95012">
        <ele>21</ele>
        <time>2018-06-25T08:55:03.662Z</time>
      </trkpt>
      <trkpt lat="50.59046" lon="2.95052">
        <ele>21</ele>
        <time>2018-06-25T08:55:04.662Z</time>
      </trkpt>
      <trkpt lat="50.58999" lon="2.95144">
        <ele>20</ele>
        <time>2018-06-25T08:55:05.662Z</time>
      </trkpt>
      <trkpt lat="50.58977" lon="2.95173">
        <ele>20</ele>
        <time>2018-06-25T08:55:06.662Z</time>
      </trkpt>
      <trkpt lat="50.58933" lon="2.95221">
        <ele>21</ele>
        <time>2018-06-25T08:55:07.662Z</time>
      </trkpt>
      <trkpt lat="50.58848" lon="2.95307">
        <ele>22</ele>
        <time>2018-06-25T08:55:08.662Z</time>
      </trkpt>
      <trkpt lat="50.58806" lon="2.95342">
        <ele>22</ele>
        <time>2018-06-25T08:55:09.662Z</time>
      </trkpt>
      <trkpt lat="50.5876" lon="2.95394">
        <ele>22</ele>
        <time>2018-06-25T08:55:10.662Z</time>
      </trkpt>
      <trkpt lat="50.58725" lon="2.95441">
        <ele>22</ele>
        <time>2018-06-25T08:55:11.662Z</time>
      </trkpt>
      <trkpt lat="50.58684" lon="2.95502">
        <ele>22</ele>
        <time>2018-06-25T08:55:12.662Z</time>
      </trkpt>
      <trkpt lat="50.58684" lon="2.95502">
        <ele>22</ele>
        <time>2018-06-25T08:55:13.662Z</time>
      </trkpt>
      <trkpt lat="50.58629" lon="2.95554">
        <ele>20</ele>
        <time>2018-06-25T08:55:14.662Z</time>
      </trkpt>
      <trkpt lat="50.58618" lon="2.95555">
        <ele>20</ele>
        <time>2018-06-25T08:55:15.662Z</time>
      </trkpt>
      <trkpt lat="50.58608" lon="2.95553">
        <ele>20</ele>
        <time>2018-06-25T08:55:16.662Z</time>
      </trkpt>
      <trkpt lat="50.58581" lon="2.95517">
        <ele>20</ele>
        <time>2018-06-25T08:55:17.662Z</time>
      </trkpt>
      <trkpt lat="50.58572" lon="2.95513">
        <ele>20</ele>
        <time>2018-06-25T08:55:18.662Z</time>
      </trkpt>
      <trkpt lat="50.58561" lon="2.95519">
        <ele>20</ele>
        <time>2018-06-25T08:55:19.662Z</time>
      </trkpt>
      <trkpt lat="50.58443" lon="2.95641">
        <ele>19</ele>
        <time>2018-06-25T08:55:20.662Z</time>
      </trkpt>
      <trkpt lat="50.58441" lon="2.95638">
        <ele>19</ele>
        <time>2018-06-25T08:55:21.662Z</time>
      </trkpt>
      <trkpt lat="50.58441" lon="2.95638">
        <ele>19</ele>
        <time>2018-06-25T08:55:22.662Z</time>
      </trkpt>
      <trkpt lat="50.58385" lon="2.9555">
        <ele>19</ele>
        <time>2018-06-25T08:55:23.662Z</time>
      </trkpt>
      <trkpt lat="50.58336" lon="2.95634">
        <ele>19</ele>
        <time>2018-06-25T08:55:24.662Z</time>
      </trkpt>
      <trkpt lat="50.58291" lon="2.95699">
        <ele>19</ele>
        <time>2018-06-25T08:55:25.662Z</time>
      </trkpt>
      <trkpt lat="50.58284" lon="2.95705">
        <ele>19</ele>
        <time>2018-06-25T08:55:26.662Z</time>
      </trkpt>
      <trkpt lat="50.58208" lon="2.95742">
        <ele>19</ele>
        <time>2018-06-25T08:55:27.662Z</time>
      </trkpt>
      <trkpt lat="50.58191" lon="2.95745">
        <ele>19</ele>
        <time>2018-06-25T08:55:28.662Z</time>
      </trkpt>
      <trkpt lat="50.58163" lon="2.95728">
        <ele>19</ele>
        <time>2018-06-25T08:55:29.662Z</time>
      </trkpt>
      <trkpt lat="50.58095" lon="2.95765">
        <ele>19</ele>
        <time>2018-06-25T08:55:30.662Z</time>
      </trkpt>
      <trkpt lat="50.58084" lon="2.95779">
        <ele>19</ele>
        <time>2018-06-25T08:55:31.662Z</time>
      </trkpt>
      <trkpt lat="50.58005" lon="2.95967">
        <ele>17</ele>
        <time>2018-06-25T08:55:32.662Z</time>
      </trkpt>
      <trkpt lat="50.57944" lon="2.96144">
        <ele>17</ele>
        <time>2018-06-25T08:55:33.662Z</time>
      </trkpt>
      <trkpt lat="50.57909" lon="2.96211">
        <ele>18</ele>
        <time>2018-06-25T08:55:34.662Z</time>
      </trkpt>
      <trkpt lat="50.57837" lon="2.96302">
        <ele>20</ele>
        <time>2018-06-25T08:55:35.662Z</time>
      </trkpt>
      <trkpt lat="50.5783" lon="2.96328">
        <ele>20</ele>
        <time>2018-06-25T08:55:36.662Z</time>
      </trkpt>
      <trkpt lat="50.57835" lon="2.96386">
        <ele>21</ele>
        <time>2018-06-25T08:55:37.662Z</time>
      </trkpt>
      <trkpt lat="50.57834" lon="2.96439">
        <ele>22</ele>
        <time>2018-06-25T08:55:38.662Z</time>
      </trkpt>
      <trkpt lat="50.57843" lon="2.96462">
        <ele>22</ele>
        <time>2018-06-25T08:55:39.662Z</time>
      </trkpt>
      <trkpt lat="50.57866" lon="2.96489">
        <ele>22</ele>
        <time>2018-06-25T08:55:40.662Z</time>
      </trkpt>
      <trkpt lat="50.57906" lon="2.96556">
        <ele>21</ele>
        <time>2018-06-25T08:55:41.662Z</time>
      </trkpt>
      <trkpt lat="50.57919" lon="2.96583">
        <ele>20</ele>
        <time>2018-06-25T08:55:42.662Z</time>
      </trkpt>
      <trkpt lat="50.57919" lon="2.96613">
        <ele>22</ele>
        <time>2018-06-25T08:55:43.662Z</time>
      </trkpt>
      <trkpt lat="50.57902" lon="2.9676">
        <ele>27</ele>
        <time>2018-06-25T08:55:44.662Z</time>
      </trkpt>
      <trkpt lat="50.57888" lon="2.96778">
        <ele>26</ele>
        <time>2018-06-25T08:55:45.662Z</time>
      </trkpt>
      <trkpt lat="50.57841" lon="2.96808">
        <ele>25</ele>
        <time>2018-06-25T08:55:46.662Z</time>
      </trkpt>
      <trkpt lat="50.5783" lon="2.96818">
        <ele>24</ele>
        <time>2018-06-25T08:55:47.662Z</time>
      </trkpt>
      <trkpt lat="50.57807" lon="2.96828">
        <ele>23</ele>
        <time>2018-06-25T08:55:48.662Z</time>
      </trkpt>
      <trkpt lat="50.57803" lon="2.96841">
        <ele>23</ele>
        <time>2018-06-25T08:55:49.662Z</time>
      </trkpt>
      <trkpt lat="50.57825" lon="2.96868">
        <ele>23</ele>
        <time>2018-06-25T08:55:50.662Z</time>
      </trkpt>
      <trkpt lat="50.57846" lon="2.96941">
        <ele>22</ele>
        <time>2018-06-25T08:55:51.662Z</time>
      </trkpt>
      <trkpt lat="50.57866" lon="2.96972">
        <ele>21</ele>
        <time>2018-06-25T08:55:52.662Z</time>
      </trkpt>
      <trkpt lat="50.57879" lon="2.96988">
        <ele>20</ele>
        <time>2018-06-25T08:55:53.662Z</time>
      </trkpt>
      <trkpt lat="50.57892" lon="2.97012">
        <ele>19</ele>
        <time>2018-06-25T08:55:54.662Z</time>
      </trkpt>
      <trkpt lat="50.57893" lon="2.97032">
        <ele>20</ele>
        <time>2018-06-25T08:55:55.662Z</time>
      </trkpt>
      <trkpt lat="50.57888" lon="2.97049">
        <ele>21</ele>
        <time>2018-06-25T08:55:56.662Z</time>
      </trkpt>
      <trkpt lat="50.57868" lon="2.97106">
        <ele>23</ele>
        <time>2018-06-25T08:55:57.662Z</time>
      </trkpt>
      <trkpt lat="50.57856" lon="2.97166">
        <ele>26</ele>
        <time>2018-06-25T08:55:58.662Z</time>
      </trkpt>
      <trkpt lat="50.5785" lon="2.97243">
        <ele>27</ele>
        <time>2018-06-25T08:55:59.662Z</time>
      </trkpt>
      <trkpt lat="50.57819" lon="2.97341">
        <ele>25</ele>
        <time>2018-06-25T08:56:00.662Z</time>
      </trkpt>
      <trkpt lat="50.57785" lon="2.97391">
        <ele>24</ele>
        <time>2018-06-25T08:56:01.662Z</time>
      </trkpt>
      <trkpt lat="50.57785" lon="2.97428">
        <ele>23</ele>
        <time>2018-06-25T08:56:02.662Z</time>
      </trkpt>
      <trkpt lat="50.57781" lon="2.97468">
        <ele>22</ele>
        <time>2018-06-25T08:56:03.662Z</time>
      </trkpt>
      <trkpt lat="50.57789" lon="2.97502">
        <ele>21</ele>
        <time>2018-06-25T08:56:04.662Z</time>
      </trkpt>
      <trkpt lat="50.57841" lon="2.97565">
        <ele>21</ele>
        <time>2018-06-25T08:56:05.662Z</time>
      </trkpt>
      <trkpt lat="50.57982" lon="2.97673">
        <ele>19</ele>
        <time>2018-06-25T08:56:06.662Z</time>
      </trkpt>
      <trkpt lat="50.58" lon="2.97692">
        <ele>19</ele>
        <time>2018-06-25T08:56:07.662Z</time>
      </trkpt>
      <trkpt lat="50.57949" lon="2.97906">
        <ele>19</ele>
        <time>2018-06-25T08:56:08.662Z</time>
      </trkpt>
      <trkpt lat="50.57924" lon="2.97914">
        <ele>21</ele>
        <time>2018-06-25T08:56:09.662Z</time>
      </trkpt>
      <trkpt lat="50.57906" lon="2.97914">
        <ele>21</ele>
        <time>2018-06-25T08:56:10.662Z</time>
      </trkpt>
      <trkpt lat="50.57883" lon="2.97921">
        <ele>21</ele>
        <time>2018-06-25T08:56:11.662Z</time>
      </trkpt>
      <trkpt lat="50.57884" lon="2.97927">
        <ele>21</ele>
        <time>2018-06-25T08:56:12.662Z</time>
      </trkpt>
      <trkpt lat="50.5787" lon="2.9793">
        <ele>20</ele>
        <time>2018-06-25T08:56:13.662Z</time>
      </trkpt>
      <trkpt lat="50.57866" lon="2.97937">
        <ele>20</ele>
        <time>2018-06-25T08:56:14.662Z</time>
      </trkpt>
      <trkpt lat="50.57865" lon="2.97947">
        <ele>20</ele>
        <time>2018-06-25T08:56:15.662Z</time>
      </trkpt>
      <trkpt lat="50.5785" lon="2.97917">
        <ele>20</ele>
        <time>2018-06-25T08:56:16.662Z</time>
      </trkpt>
      <trkpt lat="50.5777" lon="2.9788">
        <ele>21</ele>
        <time>2018-06-25T08:56:17.662Z</time>
      </trkpt>
      <trkpt lat="50.57753" lon="2.97864">
        <ele>22</ele>
        <time>2018-06-25T08:56:18.662Z</time>
      </trkpt>
      <trkpt lat="50.57715" lon="2.97837">
        <ele>24</ele>
        <time>2018-06-25T08:56:19.662Z</time>
      </trkpt>
      <trkpt lat="50.57664" lon="2.9777">
        <ele>24</ele>
        <time>2018-06-25T08:56:20.662Z</time>
      </trkpt>
      <trkpt lat="50.57646" lon="2.9772">
        <ele>22</ele>
        <time>2018-06-25T08:56:21.662Z</time>
      </trkpt>
      <trkpt lat="50.57645" lon="2.97721">
        <ele>22</ele>
        <time>2018-06-25T08:56:22.662Z</time>
      </trkpt>
      <trkpt lat="50.57666" lon="2.97771">
        <ele>24</ele>
        <time>2018-06-25T08:56:23.662Z</time>
      </trkpt>
      <trkpt lat="50.57694" lon="2.97809">
        <ele>25</ele>
        <time>2018-06-25T08:56:24.662Z</time>
      </trkpt>
      <trkpt lat="50.57694" lon="2.97809">
        <ele>25</ele>
        <time>2018-06-25T08:56:25.662Z</time>
      </trkpt>
      <trkpt lat="50.57666" lon="2.97771">
        <ele>24</ele>
        <time>2018-06-25T08:56:26.662Z</time>
      </trkpt>
      <trkpt lat="50.57646" lon="2.97721">
        <ele>22</ele>
        <time>2018-06-25T08:56:27.662Z</time>
      </trkpt>
      <trkpt lat="50.57605" lon="2.97689">
        <ele>21</ele>
        <time>2018-06-25T08:56:28.662Z</time>
      </trkpt>
      <trkpt lat="50.57551" lon="2.97596">
        <ele>19</ele>
        <time>2018-06-25T08:56:29.662Z</time>
      </trkpt>
      <trkpt lat="50.57541" lon="2.97584">
        <ele>19</ele>
        <time>2018-06-25T08:56:30.662Z</time>
      </trkpt>
      <trkpt lat="50.57496" lon="2.97538">
        <ele>19</ele>
        <time>2018-06-25T08:56:31.662Z</time>
      </trkpt>
      <trkpt lat="50.5742" lon="2.97445">
        <ele>17</ele>
        <time>2018-06-25T08:56:32.662Z</time>
      </trkpt>
      <trkpt lat="50.57214" lon="2.97177">
        <ele>19</ele>
        <time>2018-06-25T08:56:33.662Z</time>
      </trkpt>
      <trkpt lat="50.572" lon="2.97153">
        <ele>19</ele>
        <time>2018-06-25T08:56:34.662Z</time>
      </trkpt>
      <trkpt lat="50.57195" lon="2.97152">
        <ele>19</ele>
        <time>2018-06-25T08:56:35.662Z</time>
      </trkpt>
      <trkpt lat="50.57188" lon="2.97153">
        <ele>19</ele>
        <time>2018-06-25T08:56:36.662Z</time>
      </trkpt>
      <trkpt lat="50.5716" lon="2.97193">
        <ele>18</ele>
        <time>2018-06-25T08:56:37.662Z</time>
      </trkpt>
      <trkpt lat="50.57153" lon="2.97193">
        <ele>18</ele>
        <time>2018-06-25T08:56:38.662Z</time>
      </trkpt>
      <trkpt lat="50.57144" lon="2.97176">
        <ele>18</ele>
        <time>2018-06-25T08:56:39.662Z</time>
      </trkpt>
      <trkpt lat="50.57147" lon="2.97156">
        <ele>18</ele>
        <time>2018-06-25T08:56:40.662Z</time>
      </trkpt>
      <trkpt lat="50.57147" lon="2.97156">
        <ele>18</ele>
        <time>2018-06-25T08:56:41.662Z</time>
      </trkpt>
      <trkpt lat="50.57158" lon="2.97117">
        <ele>18</ele>
        <time>2018-06-25T08:56:42.662Z</time>
      </trkpt>
      <trkpt lat="50.57169" lon="2.97101">
        <ele>18</ele>
        <time>2018-06-25T08:56:43.662Z</time>
      </trkpt>
      <trkpt lat="50.5717" lon="2.97091">
        <ele>18</ele>
        <time>2018-06-25T08:56:44.662Z</time>
      </trkpt>
      <trkpt lat="50.57169" lon="2.9708">
        <ele>18</ele>
        <time>2018-06-25T08:56:45.662Z</time>
      </trkpt>
      <trkpt lat="50.57161" lon="2.97063">
        <ele>18</ele>
        <time>2018-06-25T08:56:46.662Z</time>
      </trkpt>
      <trkpt lat="50.57138" lon="2.97021">
        <ele>18</ele>
        <time>2018-06-25T08:56:47.662Z</time>
      </trkpt>
      <trkpt lat="50.57046" lon="2.96836">
        <ele>20</ele>
        <time>2018-06-25T08:56:48.662Z</time>
      </trkpt>
      <trkpt lat="50.57011" lon="2.96788">
        <ele>20</ele>
        <time>2018-06-25T08:56:49.662Z</time>
      </trkpt>
      <trkpt lat="50.56935" lon="2.96675">
        <ele>21</ele>
        <time>2018-06-25T08:56:50.662Z</time>
      </trkpt>
      <trkpt lat="50.5693" lon="2.96659">
        <ele>21</ele>
        <time>2018-06-25T08:56:51.662Z</time>
      </trkpt>
      <trkpt lat="50.56919" lon="2.96646">
        <ele>21</ele>
        <time>2018-06-25T08:56:52.662Z</time>
      </trkpt>
      <trkpt lat="50.56903" lon="2.96635">
        <ele>21</ele>
        <time>2018-06-25T08:56:53.662Z</time>
      </trkpt>
      <trkpt lat="50.56782" lon="2.96479">
        <ele>21</ele>
        <time>2018-06-25T08:56:54.662Z</time>
      </trkpt>
      <trkpt lat="50.56706" lon="2.96363">
        <ele>19</ele>
        <time>2018-06-25T08:56:55.662Z</time>
      </trkpt>
      <trkpt lat="50.56613" lon="2.96216">
        <ele>19</ele>
        <time>2018-06-25T08:56:56.662Z</time>
      </trkpt>
      <trkpt lat="50.56541" lon="2.96094">
        <ele>20</ele>
        <time>2018-06-25T08:56:57.662Z</time>
      </trkpt>
      <trkpt lat="50.5647" lon="2.9598">
        <ele>18</ele>
        <time>2018-06-25T08:56:58.662Z</time>
      </trkpt>
      <trkpt lat="50.56416" lon="2.95899">
        <ele>17</ele>
        <time>2018-06-25T08:56:59.662Z</time>
      </trkpt>
      <trkpt lat="50.56344" lon="2.95804">
        <ele>20</ele>
        <time>2018-06-25T08:57:00.662Z</time>
      </trkpt>
      <trkpt lat="50.56278" lon="2.95728">
        <ele>20</ele>
        <time>2018-06-25T08:57:01.662Z</time>
      </trkpt>
      <trkpt lat="50.56207" lon="2.95655">
        <ele>19</ele>
        <time>2018-06-25T08:57:02.662Z</time>
      </trkpt>
      <trkpt lat="50.56021" lon="2.95485">
        <ele>22</ele>
        <time>2018-06-25T08:57:03.662Z</time>
      </trkpt>
      <trkpt lat="50.55968" lon="2.95433">
        <ele>23</ele>
        <time>2018-06-25T08:57:04.662Z</time>
      </trkpt>
      <trkpt lat="50.55904" lon="2.95361">
        <ele>22</ele>
        <time>2018-06-25T08:57:05.662Z</time>
      </trkpt>
      <trkpt lat="50.55893" lon="2.95347">
        <ele>22</ele>
        <time>2018-06-25T08:57:06.662Z</time>
      </trkpt>
      <trkpt lat="50.55862" lon="2.95394">
        <ele>23</ele>
        <time>2018-06-25T08:57:07.662Z</time>
      </trkpt>
      <trkpt lat="50.55862" lon="2.95394">
        <ele>23</ele>
        <time>2018-06-25T08:57:08.662Z</time>
      </trkpt>
      <trkpt lat="50.55574" lon="2.95829">
        <ele>19</ele>
        <time>2018-06-25T08:57:09.662Z</time>
      </trkpt>
      <trkpt lat="50.55567" lon="2.95845">
        <ele>19</ele>
        <time>2018-06-25T08:57:10.662Z</time>
      </trkpt>
      <trkpt lat="50.55562" lon="2.95868">
        <ele>19</ele>
        <time>2018-06-25T08:57:11.662Z</time>
      </trkpt>
      <trkpt lat="50.55556" lon="2.95915">
        <ele>19</ele>
        <time>2018-06-25T08:57:12.662Z</time>
      </trkpt>
      <trkpt lat="50.55551" lon="2.95938">
        <ele>19</ele>
        <time>2018-06-25T08:57:13.662Z</time>
      </trkpt>
      <trkpt lat="50.55539" lon="2.95965">
        <ele>19</ele>
        <time>2018-06-25T08:57:14.662Z</time>
      </trkpt>
      <trkpt lat="50.55512" lon="2.96004">
        <ele>18</ele>
        <time>2018-06-25T08:57:15.662Z</time>
      </trkpt>
      <trkpt lat="50.55489" lon="2.96059">
        <ele>18</ele>
        <time>2018-06-25T08:57:16.662Z</time>
      </trkpt>
      <trkpt lat="50.555" lon="2.96068">
        <ele>17</ele>
        <time>2018-06-25T08:57:17.662Z</time>
      </trkpt>
      <trkpt lat="50.55406" lon="2.96297">
        <ele>19</ele>
        <time>2018-06-25T08:57:18.662Z</time>
      </trkpt>
      <trkpt lat="50.55407" lon="2.96297">
        <ele>19</ele>
        <time>2018-06-25T08:57:19.662Z</time>
      </trkpt>
      <trkpt lat="50.55388" lon="2.96344">
        <ele>19</ele>
        <time>2018-06-25T08:57:20.662Z</time>
      </trkpt>
      <trkpt lat="50.55376" lon="2.96358">
        <ele>19</ele>
        <time>2018-06-25T08:57:21.662Z</time>
      </trkpt>
      <trkpt lat="50.55361" lon="2.96365">
        <ele>20</ele>
        <time>2018-06-25T08:57:22.662Z</time>
      </trkpt>
      <trkpt lat="50.55274" lon="2.96391">
        <ele>19</ele>
        <time>2018-06-25T08:57:23.662Z</time>
      </trkpt>
      <trkpt lat="50.55272" lon="2.96388">
        <ele>19</ele>
        <time>2018-06-25T08:57:24.662Z</time>
      </trkpt>
      <trkpt lat="50.5526" lon="2.96398">
        <ele>20</ele>
        <time>2018-06-25T08:57:25.662Z</time>
      </trkpt>
      <trkpt lat="50.55243" lon="2.96404">
        <ele>20</ele>
        <time>2018-06-25T08:57:26.662Z</time>
      </trkpt>
      <trkpt lat="50.55228" lon="2.96405">
        <ele>20</ele>
        <time>2018-06-25T08:57:27.662Z</time>
      </trkpt>
      <trkpt lat="50.55153" lon="2.96391">
        <ele>19</ele>
        <time>2018-06-25T08:57:28.662Z</time>
      </trkpt>
      <trkpt lat="50.55065" lon="2.96387">
        <ele>19</ele>
        <time>2018-06-25T08:57:29.662Z</time>
      </trkpt>
      <trkpt lat="50.55016" lon="2.96388">
        <ele>21</ele>
        <time>2018-06-25T08:57:30.662Z</time>
      </trkpt>
      <trkpt lat="50.54915" lon="2.96409">
        <ele>21</ele>
        <time>2018-06-25T08:57:31.662Z</time>
      </trkpt>
      <trkpt lat="50.549" lon="2.96414">
        <ele>21</ele>
        <time>2018-06-25T08:57:32.662Z</time>
      </trkpt>
      <trkpt lat="50.54775" lon="2.96475">
        <ele>23</ele>
        <time>2018-06-25T08:57:33.662Z</time>
      </trkpt>
      <trkpt lat="50.54728" lon="2.96496">
        <ele>24</ele>
        <time>2018-06-25T08:57:34.662Z</time>
      </trkpt>
      <trkpt lat="50.54695" lon="2.96508">
        <ele>24</ele>
        <time>2018-06-25T08:57:35.662Z</time>
      </trkpt>
      <trkpt lat="50.5466" lon="2.96513">
        <ele>24</ele>
        <time>2018-06-25T08:57:36.662Z</time>
      </trkpt>
      <trkpt lat="50.54605" lon="2.96513">
        <ele>24</ele>
        <time>2018-06-25T08:57:37.662Z</time>
      </trkpt>
      <trkpt lat="50.54523" lon="2.96518">
        <ele>23</ele>
        <time>2018-06-25T08:57:38.662Z</time>
      </trkpt>
      <trkpt lat="50.54506" lon="2.96522">
        <ele>23</ele>
        <time>2018-06-25T08:57:39.662Z</time>
      </trkpt>
      <trkpt lat="50.54494" lon="2.96532">
        <ele>23</ele>
        <time>2018-06-25T08:57:40.662Z</time>
      </trkpt>
      <trkpt lat="50.54373" lon="2.96662">
        <ele>24</ele>
        <time>2018-06-25T08:57:41.662Z</time>
      </trkpt>
      <trkpt lat="50.54336" lon="2.96554">
        <ele>24</ele>
        <time>2018-06-25T08:57:42.662Z</time>
      </trkpt>
      <trkpt lat="50.54307" lon="2.96541">
        <ele>23</ele>
        <time>2018-06-25T08:57:43.662Z</time>
      </trkpt>
      <trkpt lat="50.54274" lon="2.96551">
        <ele>23</ele>
        <time>2018-06-25T08:57:44.662Z</time>
      </trkpt>
      <trkpt lat="50.54089" lon="2.96656">
        <ele>24</ele>
        <time>2018-06-25T08:57:45.662Z</time>
      </trkpt>
      <trkpt lat="50.53702" lon="2.96748">
        <ele>24</ele>
        <time>2018-06-25T08:57:46.662Z</time>
      </trkpt>
      <trkpt lat="50.53701" lon="2.96749">
        <ele>24</ele>
        <time>2018-06-25T08:57:47.662Z</time>
      </trkpt>
      <trkpt lat="50.53754" lon="2.96991">
        <ele>25</ele>
        <time>2018-06-25T08:57:48.662Z</time>
      </trkpt>
      <trkpt lat="50.53754" lon="2.9699">
        <ele>25</ele>
        <time>2018-06-25T08:57:49.662Z</time>
      </trkpt>
      <trkpt lat="50.53786" lon="2.97137">
        <ele>25</ele>
        <time>2018-06-25T08:57:50.662Z</time>
      </trkpt>
      <trkpt lat="50.53787" lon="2.97167">
        <ele>25</ele>
        <time>2018-06-25T08:57:51.662Z</time>
      </trkpt>
      <trkpt lat="50.53878" lon="2.97583">
        <ele>25</ele>
        <time>2018-06-25T08:57:52.662Z</time>
      </trkpt>
      <trkpt lat="50.5389" lon="2.9759">
        <ele>25</ele>
        <time>2018-06-25T08:57:53.662Z</time>
      </trkpt>
      <trkpt lat="50.53913" lon="2.97709">
        <ele>24</ele>
        <time>2018-06-25T08:57:54.662Z</time>
      </trkpt>
      <trkpt lat="50.53915" lon="2.97736">
        <ele>24</ele>
        <time>2018-06-25T08:57:55.662Z</time>
      </trkpt>
      <trkpt lat="50.53963" lon="2.98004">
        <ele>24</ele>
        <time>2018-06-25T08:57:56.662Z</time>
      </trkpt>
      <trkpt lat="50.53963" lon="2.98003">
        <ele>24</ele>
        <time>2018-06-25T08:57:57.662Z</time>
      </trkpt>
      <trkpt lat="50.53978" lon="2.98099">
        <ele>24</ele>
        <time>2018-06-25T08:57:58.662Z</time>
      </trkpt>
      <trkpt lat="50.53979" lon="2.98122">
        <ele>23</ele>
        <time>2018-06-25T08:57:59.662Z</time>
      </trkpt>
      <trkpt lat="50.54" lon="2.98299">
        <ele>25</ele>
        <time>2018-06-25T08:58:00.662Z</time>
      </trkpt>
      <trkpt lat="50.54012" lon="2.98437">
        <ele>25</ele>
        <time>2018-06-25T08:58:01.662Z</time>
      </trkpt>
      <trkpt lat="50.53998" lon="2.98437">
        <ele>25</ele>
        <time>2018-06-25T08:58:02.662Z</time>
      </trkpt>
      <trkpt lat="50.53997" lon="2.98504">
        <ele>24</ele>
        <time>2018-06-25T08:58:03.662Z</time>
      </trkpt>
      <trkpt lat="50.5399" lon="2.98804">
        <ele>23</ele>
        <time>2018-06-25T08:58:04.662Z</time>
      </trkpt>
      <trkpt lat="50.5402" lon="2.99004">
        <ele>22</ele>
        <time>2018-06-25T08:58:05.662Z</time>
      </trkpt>
      <trkpt lat="50.54069" lon="2.99143">
        <ele>23</ele>
        <time>2018-06-25T08:58:06.662Z</time>
      </trkpt>
      <trkpt lat="50.54085" lon="2.9935">
        <ele>23</ele>
        <time>2018-06-25T08:58:07.662Z</time>
      </trkpt>
      <trkpt lat="50.5407" lon="2.99815">
        <ele>23</ele>
        <time>2018-06-25T08:58:08.662Z</time>
      </trkpt>
      <trkpt lat="50.53901" lon="3.01741">
        <ele>23</ele>
        <time>2018-06-25T08:58:09.662Z</time>
      </trkpt>
      <trkpt lat="50.53863" lon="3.01957">
        <ele>23</ele>
        <time>2018-06-25T08:58:10.662Z</time>
      </trkpt>
      <trkpt lat="50.53884" lon="3.01971">
        <ele>23</ele>
        <time>2018-06-25T08:58:11.662Z</time>
      </trkpt>
      <trkpt lat="50.53856" lon="3.02249">
        <ele>26</ele>
        <time>2018-06-25T08:58:12.662Z</time>
      </trkpt>
      <trkpt lat="50.53836" lon="3.02467">
        <ele>25</ele>
        <time>2018-06-25T08:58:13.662Z</time>
      </trkpt>
      <trkpt lat="50.53843" lon="3.0256">
        <ele>26</ele>
        <time>2018-06-25T08:58:14.662Z</time>
      </trkpt>
      <trkpt lat="50.53838" lon="3.0261">
        <ele>26</ele>
        <time>2018-06-25T08:58:15.662Z</time>
      </trkpt>
      <trkpt lat="50.53852" lon="3.02687">
        <ele>26</ele>
        <time>2018-06-25T08:58:16.662Z</time>
      </trkpt>
      <trkpt lat="50.53883" lon="3.02789">
        <ele>27</ele>
        <time>2018-06-25T08:58:17.662Z</time>
      </trkpt>
      <trkpt lat="50.53866" lon="3.02781">
        <ele>27</ele>
        <time>2018-06-25T08:58:18.662Z</time>
      </trkpt>
      <trkpt lat="50.53751" lon="3.02979">
        <ele>30</ele>
        <time>2018-06-25T08:58:19.662Z</time>
      </trkpt>
      <trkpt lat="50.53718" lon="3.02985">
        <ele>30</ele>
        <time>2018-06-25T08:58:20.662Z</time>
      </trkpt>
      <trkpt lat="50.53691" lon="3.03001">
        <ele>31</ele>
        <time>2018-06-25T08:58:21.662Z</time>
      </trkpt>
      <trkpt lat="50.53637" lon="3.03062">
        <ele>29</ele>
        <time>2018-06-25T08:58:22.662Z</time>
      </trkpt>
      <trkpt lat="50.53539" lon="3.03139">
        <ele>29</ele>
        <time>2018-06-25T08:58:23.662Z</time>
      </trkpt>
      <trkpt lat="50.53413" lon="3.03213">
        <ele>31</ele>
        <time>2018-06-25T08:58:24.662Z</time>
      </trkpt>
      <trkpt lat="50.53308" lon="3.03213">
        <ele>32</ele>
        <time>2018-06-25T08:58:25.662Z</time>
      </trkpt>
      <trkpt lat="50.53277" lon="3.03182">
        <ele>32</ele>
        <time>2018-06-25T08:58:26.662Z</time>
      </trkpt>
      <trkpt lat="50.53256" lon="3.03173">
        <ele>32</ele>
        <time>2018-06-25T08:58:27.662Z</time>
      </trkpt>
      <trkpt lat="50.53189" lon="3.03186">
        <ele>33</ele>
        <time>2018-06-25T08:58:28.662Z</time>
      </trkpt>
      <trkpt lat="50.53147" lon="3.03206">
        <ele>34</ele>
        <time>2018-06-25T08:58:29.662Z</time>
      </trkpt>
      <trkpt lat="50.5292" lon="3.0335">
        <ele>36</ele>
        <time>2018-06-25T08:58:30.662Z</time>
      </trkpt>
      <trkpt lat="50.52653" lon="3.03578">
        <ele>38</ele>
        <time>2018-06-25T08:58:31.662Z</time>
      </trkpt>
      <trkpt lat="50.52568" lon="3.03615">
        <ele>39</ele>
        <time>2018-06-25T08:58:32.662Z</time>
      </trkpt>
      <trkpt lat="50.52525" lon="3.03618">
        <ele>39</ele>
        <time>2018-06-25T08:58:33.662Z</time>
      </trkpt>
      <trkpt lat="50.52577" lon="3.03806">
        <ele>44</ele>
        <time>2018-06-25T08:58:34.662Z</time>
      </trkpt>
      <trkpt lat="50.52592" lon="3.03873">
        <ele>44</ele>
        <time>2018-06-25T08:58:35.662Z</time>
      </trkpt>
      <trkpt lat="50.52593" lon="3.03953">
        <ele>44</ele>
        <time>2018-06-25T08:58:36.662Z</time>
      </trkpt>
      <trkpt lat="50.52583" lon="3.04024">
        <ele>44</ele>
        <time>2018-06-25T08:58:37.662Z</time>
      </trkpt>
      <trkpt lat="50.52514" lon="3.04265">
        <ele>45</ele>
        <time>2018-06-25T08:58:38.662Z</time>
      </trkpt>
      <trkpt lat="50.52505" lon="3.04282">
        <ele>45</ele>
        <time>2018-06-25T08:58:39.662Z</time>
      </trkpt>
      <trkpt lat="50.52492" lon="3.04289">
        <ele>45</ele>
        <time>2018-06-25T08:58:40.662Z</time>
      </trkpt>
      <trkpt lat="50.52268" lon="3.0411">
        <ele>41</ele>
        <time>2018-06-25T08:58:41.662Z</time>
      </trkpt>
      <trkpt lat="50.52256" lon="3.04118">
        <ele>40</ele>
        <time>2018-06-25T08:58:42.662Z</time>
      </trkpt>
      <trkpt lat="50.52144" lon="3.04416">
        <ele>41</ele>
        <time>2018-06-25T08:58:43.662Z</time>
      </trkpt>
      <trkpt lat="50.52126" lon="3.04409">
        <ele>41</ele>
        <time>2018-06-25T08:58:44.662Z</time>
      </trkpt>
      <trkpt lat="50.52126" lon="3.04413">
        <ele>41</ele>
        <time>2018-06-25T08:58:45.662Z</time>
      </trkpt>
      <trkpt lat="50.51508" lon="3.04788">
        <ele>50</ele>
        <time>2018-06-25T08:58:46.662Z</time>
      </trkpt>
      <trkpt lat="50.51494" lon="3.04861">
        <ele>50</ele>
        <time>2018-06-25T08:58:47.662Z</time>
      </trkpt>
      <trkpt lat="50.51505" lon="3.04902">
        <ele>50</ele>
        <time>2018-06-25T08:58:48.662Z</time>
      </trkpt>
      <trkpt lat="50.51555" lon="3.04972">
        <ele>49</ele>
        <time>2018-06-25T08:58:49.662Z</time>
      </trkpt>
      <trkpt lat="50.5156" lon="3.04993">
        <ele>50</ele>
        <time>2018-06-25T08:58:50.662Z</time>
      </trkpt>
      <trkpt lat="50.51565" lon="3.05043">
        <ele>51</ele>
        <time>2018-06-25T08:58:51.662Z</time>
      </trkpt>
      <trkpt lat="50.51547" lon="3.05073">
        <ele>53</ele>
        <time>2018-06-25T08:58:52.662Z</time>
      </trkpt>
      <trkpt lat="50.51456" lon="3.0512">
        <ele>56</ele>
        <time>2018-06-25T08:58:53.662Z</time>
      </trkpt>
      <trkpt lat="50.514" lon="3.05126">
        <ele>58</ele>
        <time>2018-06-25T08:58:54.662Z</time>
      </trkpt>
      <trkpt lat="50.51378" lon="3.05133">
        <ele>59</ele>
        <time>2018-06-25T08:58:55.662Z</time>
      </trkpt>
      <trkpt lat="50.51288" lon="3.0471">
        <ele>54</ele>
        <time>2018-06-25T08:58:56.662Z</time>
      </trkpt>
      <trkpt lat="50.51257" lon="3.04657">
        <ele>55</ele>
        <time>2018-06-25T08:58:57.662Z</time>
      </trkpt>
      <trkpt lat="50.51099" lon="3.04751">
        <ele>59</ele>
        <time>2018-06-25T08:58:58.662Z</time>
      </trkpt>
      <trkpt lat="50.51072" lon="3.04761">
        <ele>59</ele>
        <time>2018-06-25T08:58:59.662Z</time>
      </trkpt>
      <trkpt lat="50.5106" lon="3.04754">
        <ele>60</ele>
        <time>2018-06-25T08:59:00.662Z</time>
      </trkpt>
      <trkpt lat="50.51052" lon="3.04741">
        <ele>60</ele>
        <time>2018-06-25T08:59:01.662Z</time>
      </trkpt>
      <trkpt lat="50.5105" lon="3.04661">
        <ele>59</ele>
        <time>2018-06-25T08:59:02.662Z</time>
      </trkpt>
      <trkpt lat="50.51019" lon="3.0452">
        <ele>53</ele>
        <time>2018-06-25T08:59:03.662Z</time>
      </trkpt>
      <trkpt lat="50.51012" lon="3.04513">
        <ele>52</ele>
        <time>2018-06-25T08:59:04.662Z</time>
      </trkpt>
      <trkpt lat="50.50925" lon="3.04543">
        <ele>56</ele>
        <time>2018-06-25T08:59:05.662Z</time>
      </trkpt>
      <trkpt lat="50.50927" lon="3.04556">
        <ele>56</ele>
        <time>2018-06-25T08:59:06.662Z</time>
      </trkpt>
      <trkpt lat="50.50857" lon="3.04694">
        <ele>59</ele>
        <time>2018-06-25T08:59:07.662Z</time>
      </trkpt>
      <trkpt lat="50.5079" lon="3.04805">
        <ele>61</ele>
        <time>2018-06-25T08:59:08.662Z</time>
      </trkpt>
      <trkpt lat="50.50535" lon="3.0529">
        <ele>63</ele>
        <time>2018-06-25T08:59:09.662Z</time>
      </trkpt>
      <trkpt lat="50.50532" lon="3.05314">
        <ele>62</ele>
        <time>2018-06-25T08:59:10.662Z</time>
      </trkpt>
      <trkpt lat="50.50736" lon="3.05529">
        <ele>62</ele>
        <time>2018-06-25T08:59:11.662Z</time>
      </trkpt>
      <trkpt lat="50.5074" lon="3.05539">
        <ele>62</ele>
        <time>2018-06-25T08:59:12.662Z</time>
      </trkpt>
      <trkpt lat="50.4986" lon="3.06745">
        <ele>53</ele>
        <time>2018-06-25T08:59:13.662Z</time>
      </trkpt>
      <trkpt lat="50.49662" lon="3.07027">
        <ele>50</ele>
        <time>2018-06-25T08:59:14.662Z</time>
      </trkpt>
      <trkpt lat="50.49653" lon="3.07047">
        <ele>48</ele>
        <time>2018-06-25T08:59:15.662Z</time>
      </trkpt>
      <trkpt lat="50.49575" lon="3.07114">
        <ele>42</ele>
        <time>2018-06-25T08:59:16.662Z</time>
      </trkpt>
      <trkpt lat="50.4953" lon="3.0717">
        <ele>42</ele>
        <time>2018-06-25T08:59:17.662Z</time>
      </trkpt>
      <trkpt lat="50.4944" lon="3.07208">
        <ele>42</ele>
        <time>2018-06-25T08:59:18.662Z</time>
      </trkpt>
      <trkpt lat="50.49398" lon="3.07245">
        <ele>42</ele>
        <time>2018-06-25T08:59:19.662Z</time>
      </trkpt>
      <trkpt lat="50.49368" lon="3.07288">
        <ele>43</ele>
        <time>2018-06-25T08:59:20.662Z</time>
      </trkpt>
      <trkpt lat="50.49347" lon="3.07299">
        <ele>43</ele>
        <time>2018-06-25T08:59:21.662Z</time>
      </trkpt>
      <trkpt lat="50.49283" lon="3.07302">
        <ele>43</ele>
        <time>2018-06-25T08:59:22.662Z</time>
      </trkpt>
      <trkpt lat="50.49275" lon="3.07321">
        <ele>43</ele>
        <time>2018-06-25T08:59:23.662Z</time>
      </trkpt>
      <trkpt lat="50.4927" lon="3.07433">
        <ele>42</ele>
        <time>2018-06-25T08:59:24.662Z</time>
      </trkpt>
      <trkpt lat="50.49257" lon="3.07466">
        <ele>43</ele>
        <time>2018-06-25T08:59:25.662Z</time>
      </trkpt>
      <trkpt lat="50.49201" lon="3.07539">
        <ele>43</ele>
        <time>2018-06-25T08:59:26.662Z</time>
      </trkpt>
      <trkpt lat="50.49113" lon="3.07674">
        <ele>44</ele>
        <time>2018-06-25T08:59:27.662Z</time>
      </trkpt>
      <trkpt lat="50.49068" lon="3.07798">
        <ele>45</ele>
        <time>2018-06-25T08:59:28.662Z</time>
      </trkpt>
      <trkpt lat="50.49048" lon="3.07955">
        <ele>47</ele>
        <time>2018-06-25T08:59:29.662Z</time>
      </trkpt>
      <trkpt lat="50.49076" lon="3.08086">
        <ele>47</ele>
        <time>2018-06-25T08:59:30.662Z</time>
      </trkpt>
      <trkpt lat="50.49094" lon="3.08247">
        <ele>48</ele>
        <time>2018-06-25T08:59:31.662Z</time>
      </trkpt>
      <trkpt lat="50.49089" lon="3.08294">
        <ele>49</ele>
        <time>2018-06-25T08:59:32.662Z</time>
      </trkpt>
      <trkpt lat="50.49054" lon="3.08354">
        <ele>50</ele>
        <time>2018-06-25T08:59:33.662Z</time>
      </trkpt>
      <trkpt lat="50.49051" lon="3.08371">
        <ele>50</ele>
        <time>2018-06-25T08:59:34.662Z</time>
      </trkpt>
      <trkpt lat="50.49075" lon="3.08435">
        <ele>51</ele>
        <time>2018-06-25T08:59:35.662Z</time>
      </trkpt>
      <trkpt lat="50.4921" lon="3.08592">
        <ele>53</ele>
        <time>2018-06-25T08:59:36.662Z</time>
      </trkpt>
      <trkpt lat="50.49221" lon="3.08628">
        <ele>54</ele>
        <time>2018-06-25T08:59:37.662Z</time>
      </trkpt>
      <trkpt lat="50.49239" lon="3.0871">
        <ele>56</ele>
        <time>2018-06-25T08:59:38.662Z</time>
      </trkpt>
      <trkpt lat="50.49239" lon="3.0875">
        <ele>57</ele>
        <time>2018-06-25T08:59:39.662Z</time>
      </trkpt>
      <trkpt lat="50.49219" lon="3.08921">
        <ele>59</ele>
        <time>2018-06-25T08:59:40.662Z</time>
      </trkpt>
      <trkpt lat="50.49183" lon="3.09047">
        <ele>58</ele>
        <time>2018-06-25T08:59:41.662Z</time>
      </trkpt>
      <trkpt lat="50.49185" lon="3.09065">
        <ele>58</ele>
        <time>2018-06-25T08:59:42.662Z</time>
      </trkpt>
      <trkpt lat="50.49265" lon="3.09135">
        <ele>57</ele>
        <time>2018-06-25T08:59:43.662Z</time>
      </trkpt>
      <trkpt lat="50.49275" lon="3.09152">
        <ele>56</ele>
        <time>2018-06-25T08:59:44.662Z</time>
      </trkpt>
      <trkpt lat="50.49288" lon="3.09249">
        <ele>56</ele>
        <time>2018-06-25T08:59:45.662Z</time>
      </trkpt>
      <trkpt lat="50.49335" lon="3.09467">
        <ele>52</ele>
        <time>2018-06-25T08:59:46.662Z</time>
      </trkpt>
      <trkpt lat="50.49283" lon="3.09527">
        <ele>54</ele>
        <time>2018-06-25T08:59:47.662Z</time>
      </trkpt>
      <trkpt lat="50.49283" lon="3.09564">
        <ele>54</ele>
        <time>2018-06-25T08:59:48.662Z</time>
      </trkpt>
      <trkpt lat="50.4929" lon="3.09614">
        <ele>53</ele>
        <time>2018-06-25T08:59:49.662Z</time>
      </trkpt>
      <trkpt lat="50.49281" lon="3.09641">
        <ele>53</ele>
        <time>2018-06-25T08:59:50.662Z</time>
      </trkpt>
      <trkpt lat="50.49257" lon="3.09658">
        <ele>55</ele>
        <time>2018-06-25T08:59:51.662Z</time>
      </trkpt>
      <trkpt lat="50.49251" lon="3.09682">
        <ele>55</ele>
        <time>2018-06-25T08:59:52.662Z</time>
      </trkpt>
      <trkpt lat="50.49283" lon="3.09836">
        <ele>56</ele>
        <time>2018-06-25T08:59:53.662Z</time>
      </trkpt>
      <trkpt lat="50.49306" lon="3.09879">
        <ele>55</ele>
        <time>2018-06-25T08:59:54.662Z</time>
      </trkpt>
      <trkpt lat="50.49326" lon="3.09936">
        <ele>55</ele>
        <time>2018-06-25T08:59:55.662Z</time>
      </trkpt>
      <trkpt lat="50.49323" lon="3.0996">
        <ele>55</ele>
        <time>2018-06-25T08:59:56.662Z</time>
      </trkpt>
      <trkpt lat="50.49265" lon="3.09986">
        <ele>58</ele>
        <time>2018-06-25T08:59:57.662Z</time>
      </trkpt>
      <trkpt lat="50.49248" lon="3.1">
        <ele>59</ele>
        <time>2018-06-25T08:59:58.662Z</time>
      </trkpt>
      <trkpt lat="50.49245" lon="3.10013">
        <ele>59</ele>
        <time>2018-06-25T08:59:59.662Z</time>
      </trkpt>
      <trkpt lat="50.49279" lon="3.10127">
        <ele>57</ele>
        <time>2018-06-25T09:00:00.662Z</time>
      </trkpt>
      <trkpt lat="50.49328" lon="3.10167">
        <ele>55</ele>
        <time>2018-06-25T09:00:01.662Z</time>
      </trkpt>
      <trkpt lat="50.49355" lon="3.10208">
        <ele>53</ele>
        <time>2018-06-25T09:00:02.662Z</time>
      </trkpt>
      <trkpt lat="50.49364" lon="3.10235">
        <ele>53</ele>
        <time>2018-06-25T09:00:03.662Z</time>
      </trkpt>
      <trkpt lat="50.49357" lon="3.10291">
        <ele>54</ele>
        <time>2018-06-25T09:00:04.662Z</time>
      </trkpt>
      <trkpt lat="50.49346" lon="3.10322">
        <ele>54</ele>
        <time>2018-06-25T09:00:05.662Z</time>
      </trkpt>
      <trkpt lat="50.49192" lon="3.10261">
        <ele>60</ele>
        <time>2018-06-25T09:00:06.662Z</time>
      </trkpt>
      <trkpt lat="50.4913" lon="3.10248">
        <ele>63</ele>
        <time>2018-06-25T09:00:07.662Z</time>
      </trkpt>
      <trkpt lat="50.49072" lon="3.10248">
        <ele>67</ele>
        <time>2018-06-25T09:00:08.662Z</time>
      </trkpt>
      <trkpt lat="50.49012" lon="3.10258">
        <ele>69</ele>
        <time>2018-06-25T09:00:09.662Z</time>
      </trkpt>
      <trkpt lat="50.48707" lon="3.10359">
        <ele>65</ele>
        <time>2018-06-25T09:00:10.662Z</time>
      </trkpt>
      <trkpt lat="50.48707" lon="3.10381">
        <ele>64</ele>
        <time>2018-06-25T09:00:11.662Z</time>
      </trkpt>
      <trkpt lat="50.48867" lon="3.10857">
        <ele>57</ele>
        <time>2018-06-25T09:00:12.662Z</time>
      </trkpt>
      <trkpt lat="50.49211" lon="3.11605">
        <ele>49</ele>
        <time>2018-06-25T09:00:13.662Z</time>
      </trkpt>
      <trkpt lat="50.49243" lon="3.11699">
        <ele>47</ele>
        <time>2018-06-25T09:00:14.662Z</time>
      </trkpt>
      <trkpt lat="50.49234" lon="3.11713">
        <ele>48</ele>
        <time>2018-06-25T09:00:15.662Z</time>
      </trkpt>
      <trkpt lat="50.49068" lon="3.118">
        <ele>51</ele>
        <time>2018-06-25T09:00:16.662Z</time>
      </trkpt>
      <trkpt lat="50.49032" lon="3.11846">
        <ele>51</ele>
        <time>2018-06-25T09:00:17.662Z</time>
      </trkpt>
      <trkpt lat="50.4899" lon="3.1192">
        <ele>51</ele>
        <time>2018-06-25T09:00:18.662Z</time>
      </trkpt>
      <trkpt lat="50.48858" lon="3.12095">
        <ele>48</ele>
        <time>2018-06-25T09:00:19.662Z</time>
      </trkpt>
      <trkpt lat="50.48824" lon="3.12115">
        <ele>48</ele>
        <time>2018-06-25T09:00:20.662Z</time>
      </trkpt>
      <trkpt lat="50.48786" lon="3.12118">
        <ele>49</ele>
        <time>2018-06-25T09:00:21.662Z</time>
      </trkpt>
      <trkpt lat="50.48701" lon="3.12108">
        <ele>50</ele>
        <time>2018-06-25T09:00:22.662Z</time>
      </trkpt>
      <trkpt lat="50.48613" lon="3.12125">
        <ele>52</ele>
        <time>2018-06-25T09:00:23.662Z</time>
      </trkpt>
      <trkpt lat="50.48608" lon="3.12134">
        <ele>52</ele>
        <time>2018-06-25T09:00:24.662Z</time>
      </trkpt>
      <trkpt lat="50.48611" lon="3.12131">
        <ele>52</ele>
        <time>2018-06-25T09:00:25.662Z</time>
      </trkpt>
      <trkpt lat="50.48607" lon="3.12128">
        <ele>52</ele>
        <time>2018-06-25T09:00:26.662Z</time>
      </trkpt>
      <trkpt lat="50.48828" lon="3.1246">
        <ele>52</ele>
        <time>2018-06-25T09:00:27.662Z</time>
      </trkpt>
      <trkpt lat="50.48866" lon="3.1251">
        <ele>52</ele>
        <time>2018-06-25T09:00:28.662Z</time>
      </trkpt>
      <trkpt lat="50.48934" lon="3.12574">
        <ele>50</ele>
        <time>2018-06-25T09:00:29.662Z</time>
      </trkpt>
      <trkpt lat="50.49064" lon="3.12721">
        <ele>51</ele>
        <time>2018-06-25T09:00:30.662Z</time>
      </trkpt>
      <trkpt lat="50.49063" lon="3.12721">
        <ele>51</ele>
        <time>2018-06-25T09:00:31.662Z</time>
      </trkpt>
      <trkpt lat="50.49073" lon="3.12732">
        <ele>51</ele>
        <time>2018-06-25T09:00:32.662Z</time>
      </trkpt>
      <trkpt lat="50.49136" lon="3.12759">
        <ele>50</ele>
        <time>2018-06-25T09:00:33.662Z</time>
      </trkpt>
      <trkpt lat="50.49155" lon="3.1277">
        <ele>50</ele>
        <time>2018-06-25T09:00:34.662Z</time>
      </trkpt>
      <trkpt lat="50.49001" lon="3.12995">
        <ele>50</ele>
        <time>2018-06-25T09:00:35.662Z</time>
      </trkpt>
      <trkpt lat="50.48935" lon="3.13067">
        <ele>50</ele>
        <time>2018-06-25T09:00:36.662Z</time>
      </trkpt>
      <trkpt lat="50.48869" lon="3.1311">
        <ele>50</ele>
        <time>2018-06-25T09:00:37.662Z</time>
      </trkpt>
      <trkpt lat="50.48858" lon="3.13122">
        <ele>50</ele>
        <time>2018-06-25T09:00:38.662Z</time>
      </trkpt>
      <trkpt lat="50.48858" lon="3.13122">
        <ele>50</ele>
        <time>2018-06-25T09:00:39.662Z</time>
      </trkpt>
      <trkpt lat="50.48789" lon="3.13193">
        <ele>52</ele>
        <time>2018-06-25T09:00:40.662Z</time>
      </trkpt>
      <trkpt lat="50.48757" lon="3.13242">
        <ele>55</ele>
        <time>2018-06-25T09:00:41.662Z</time>
      </trkpt>
      <trkpt lat="50.48737" lon="3.13266">
        <ele>55</ele>
        <time>2018-06-25T09:00:42.662Z</time>
      </trkpt>
      <trkpt lat="50.48695" lon="3.13327">
        <ele>54</ele>
        <time>2018-06-25T09:00:43.662Z</time>
      </trkpt>
      <trkpt lat="50.48668" lon="3.13371">
        <ele>54</ele>
        <time>2018-06-25T09:00:44.662Z</time>
      </trkpt>
      <trkpt lat="50.48592" lon="3.13482">
        <ele>54</ele>
        <time>2018-06-25T09:00:45.662Z</time>
      </trkpt>
      <trkpt lat="50.48593" lon="3.13498">
        <ele>54</ele>
        <time>2018-06-25T09:00:46.662Z</time>
      </trkpt>
      <trkpt lat="50.48591" lon="3.13508">
        <ele>54</ele>
        <time>2018-06-25T09:00:47.662Z</time>
      </trkpt>
      <trkpt lat="50.48562" lon="3.13517">
        <ele>54</ele>
        <time>2018-06-25T09:00:48.662Z</time>
      </trkpt>
      <trkpt lat="50.48555" lon="3.13527">
        <ele>54</ele>
        <time>2018-06-25T09:00:49.662Z</time>
      </trkpt>
      <trkpt lat="50.48505" lon="3.13561">
        <ele>55</ele>
        <time>2018-06-25T09:00:50.662Z</time>
      </trkpt>
      <trkpt lat="50.4844" lon="3.13595">
        <ele>56</ele>
        <time>2018-06-25T09:00:51.662Z</time>
      </trkpt>
      <trkpt lat="50.4838" lon="3.13642">
        <ele>55</ele>
        <time>2018-06-25T09:00:52.662Z</time>
      </trkpt>
      <trkpt lat="50.48238" lon="3.13816">
        <ele>54</ele>
        <time>2018-06-25T09:00:53.662Z</time>
      </trkpt>
      <trkpt lat="50.48238" lon="3.13816">
        <ele>54</ele>
        <time>2018-06-25T09:00:54.662Z</time>
      </trkpt>
      <trkpt lat="50.4823" lon="3.13825">
        <ele>54</ele>
        <time>2018-06-25T09:00:55.662Z</time>
      </trkpt>
      <trkpt lat="50.48178" lon="3.13872">
        <ele>53</ele>
        <time>2018-06-25T09:00:56.662Z</time>
      </trkpt>
      <trkpt lat="50.48122" lon="3.1391">
        <ele>53</ele>
        <time>2018-06-25T09:00:57.662Z</time>
      </trkpt>
      <trkpt lat="50.48057" lon="3.13958">
        <ele>53</ele>
        <time>2018-06-25T09:00:58.662Z</time>
      </trkpt>
      <trkpt lat="50.4806" lon="3.13996">
        <ele>52</ele>
        <time>2018-06-25T09:00:59.662Z</time>
      </trkpt>
      <trkpt lat="50.48069" lon="3.14058">
        <ele>51</ele>
        <time>2018-06-25T09:01:00.662Z</time>
      </trkpt>
      <trkpt lat="50.48075" lon="3.14108">
        <ele>51</ele>
        <time>2018-06-25T09:01:01.662Z</time>
      </trkpt>
      <trkpt lat="50.48086" lon="3.14228">
        <ele>51</ele>
        <time>2018-06-25T09:01:02.662Z</time>
      </trkpt>
      <trkpt lat="50.4809" lon="3.14243">
        <ele>51</ele>
        <time>2018-06-25T09:01:03.662Z</time>
      </trkpt>
      <trkpt lat="50.48102" lon="3.14271">
        <ele>52</ele>
        <time>2018-06-25T09:01:04.662Z</time>
      </trkpt>
      <trkpt lat="50.48062" lon="3.14383">
        <ele>51</ele>
        <time>2018-06-25T09:01:05.662Z</time>
      </trkpt>
      <trkpt lat="50.48037" lon="3.1446">
        <ele>51</ele>
        <time>2018-06-25T09:01:06.662Z</time>
      </trkpt>
      <trkpt lat="50.48006" lon="3.14541">
        <ele>53</ele>
        <time>2018-06-25T09:01:07.662Z</time>
      </trkpt>
      <trkpt lat="50.48001" lon="3.14561">
        <ele>53</ele>
        <time>2018-06-25T09:01:08.662Z</time>
      </trkpt>
      <trkpt lat="50.47969" lon="3.14689">
        <ele>52</ele>
        <time>2018-06-25T09:01:09.662Z</time>
      </trkpt>
      <trkpt lat="50.47974" lon="3.14709">
        <ele>53</ele>
        <time>2018-06-25T09:01:10.662Z</time>
      </trkpt>
      <trkpt lat="50.48021" lon="3.14753">
        <ele>55</ele>
        <time>2018-06-25T09:01:11.662Z</time>
      </trkpt>
      <trkpt lat="50.48153" lon="3.14917">
        <ele>54</ele>
        <time>2018-06-25T09:01:12.662Z</time>
      </trkpt>
      <trkpt lat="50.48183" lon="3.15091">
        <ele>55</ele>
        <time>2018-06-25T09:01:13.662Z</time>
      </trkpt>
      <trkpt lat="50.48236" lon="3.15285">
        <ele>54</ele>
        <time>2018-06-25T09:01:14.662Z</time>
      </trkpt>
      <trkpt lat="50.48295" lon="3.15586">
        <ele>54</ele>
        <time>2018-06-25T09:01:15.662Z</time>
      </trkpt>
      <trkpt lat="50.48344" lon="3.15795">
        <ele>54</ele>
        <time>2018-06-25T09:01:16.662Z</time>
      </trkpt>
      <trkpt lat="50.48355" lon="3.15804">
        <ele>54</ele>
        <time>2018-06-25T09:01:17.662Z</time>
      </trkpt>
      <trkpt lat="50.48386" lon="3.15798">
        <ele>55</ele>
        <time>2018-06-25T09:01:18.662Z</time>
      </trkpt>
      <trkpt lat="50.48499" lon="3.16194">
        <ele>55</ele>
        <time>2018-06-25T09:01:19.662Z</time>
      </trkpt>
      <trkpt lat="50.48516" lon="3.16196">
        <ele>54</ele>
        <time>2018-06-25T09:01:20.662Z</time>
      </trkpt>
      <trkpt lat="50.48629" lon="3.161">
        <ele>54</ele>
        <time>2018-06-25T09:01:21.662Z</time>
      </trkpt>
      <trkpt lat="50.48638" lon="3.16113">
        <ele>54</ele>
        <time>2018-06-25T09:01:22.662Z</time>
      </trkpt>
      <trkpt lat="50.48741" lon="3.16445">
        <ele>55</ele>
        <time>2018-06-25T09:01:23.662Z</time>
      </trkpt>
      <trkpt lat="50.48806" lon="3.16609">
        <ele>54</ele>
        <time>2018-06-25T09:01:24.662Z</time>
      </trkpt>
      <trkpt lat="50.48909" lon="3.16944">
        <ele>54</ele>
        <time>2018-06-25T09:01:25.662Z</time>
      </trkpt>
      <trkpt lat="50.48947" lon="3.17048">
        <ele>54</ele>
        <time>2018-06-25T09:01:26.662Z</time>
      </trkpt>
      <trkpt lat="50.48973" lon="3.17155">
        <ele>53</ele>
        <time>2018-06-25T09:01:27.662Z</time>
      </trkpt>
      <trkpt lat="50.48911" lon="3.17504">
        <ele>50</ele>
        <time>2018-06-25T09:01:28.662Z</time>
      </trkpt>
      <trkpt lat="50.4884" lon="3.17715">
        <ele>47</ele>
        <time>2018-06-25T09:01:29.662Z</time>
      </trkpt>
      <trkpt lat="50.48656" lon="3.18459">
        <ele>41</ele>
        <time>2018-06-25T09:01:30.662Z</time>
      </trkpt>
      <trkpt lat="50.48584" lon="3.1856">
        <ele>41</ele>
        <time>2018-06-25T09:01:31.662Z</time>
      </trkpt>
      <trkpt lat="50.48525" lon="3.18604">
        <ele>40</ele>
        <time>2018-06-25T09:01:32.662Z</time>
      </trkpt>
      <trkpt lat="50.48494" lon="3.18586">
        <ele>40</ele>
        <time>2018-06-25T09:01:33.662Z</time>
      </trkpt>
      <trkpt lat="50.48472" lon="3.18587">
        <ele>40</ele>
        <time>2018-06-25T09:01:34.662Z</time>
      </trkpt>
      <trkpt lat="50.48448" lon="3.18607">
        <ele>40</ele>
        <time>2018-06-25T09:01:35.662Z</time>
      </trkpt>
      <trkpt lat="50.48414" lon="3.18664">
        <ele>40</ele>
        <time>2018-06-25T09:01:36.662Z</time>
      </trkpt>
      <trkpt lat="50.48301" lon="3.19016">
        <ele>39</ele>
        <time>2018-06-25T09:01:37.662Z</time>
      </trkpt>
      <trkpt lat="50.48244" lon="3.19113">
        <ele>40</ele>
        <time>2018-06-25T09:01:38.662Z</time>
      </trkpt>
      <trkpt lat="50.48216" lon="3.19207">
        <ele>41</ele>
        <time>2018-06-25T09:01:39.662Z</time>
      </trkpt>
      <trkpt lat="50.48218" lon="3.19358">
        <ele>41</ele>
        <time>2018-06-25T09:01:40.662Z</time>
      </trkpt>
      <trkpt lat="50.48229" lon="3.19415">
        <ele>41</ele>
        <time>2018-06-25T09:01:41.662Z</time>
      </trkpt>
      <trkpt lat="50.48279" lon="3.19568">
        <ele>41</ele>
        <time>2018-06-25T09:01:42.662Z</time>
      </trkpt>
      <trkpt lat="50.48287" lon="3.19629">
        <ele>41</ele>
        <time>2018-06-25T09:01:43.662Z</time>
      </trkpt>
      <trkpt lat="50.48162" lon="3.19897">
        <ele>45</ele>
        <time>2018-06-25T09:01:44.662Z</time>
      </trkpt>
      <trkpt lat="50.48133" lon="3.19998">
        <ele>44</ele>
        <time>2018-06-25T09:01:45.662Z</time>
      </trkpt>
      <trkpt lat="50.48113" lon="3.20121">
        <ele>44</ele>
        <time>2018-06-25T09:01:46.662Z</time>
      </trkpt>
      <trkpt lat="50.48095" lon="3.20168">
        <ele>45</ele>
        <time>2018-06-25T09:01:47.662Z</time>
      </trkpt>
      <trkpt lat="50.48003" lon="3.20319">
        <ele>46</ele>
        <time>2018-06-25T09:01:48.662Z</time>
      </trkpt>
      <trkpt lat="50.47979" lon="3.20369">
        <ele>47</ele>
        <time>2018-06-25T09:01:49.662Z</time>
      </trkpt>
      <trkpt lat="50.47972" lon="3.2042">
        <ele>48</ele>
        <time>2018-06-25T09:01:50.662Z</time>
      </trkpt>
      <trkpt lat="50.47961" lon="3.20433">
        <ele>48</ele>
        <time>2018-06-25T09:01:51.662Z</time>
      </trkpt>
      <trkpt lat="50.47955" lon="3.20454">
        <ele>48</ele>
        <time>2018-06-25T09:01:52.662Z</time>
      </trkpt>
      <trkpt lat="50.47956" lon="3.20483">
        <ele>48</ele>
        <time>2018-06-25T09:01:53.662Z</time>
      </trkpt>
      <trkpt lat="50.48005" lon="3.20511">
        <ele>47</ele>
        <time>2018-06-25T09:01:54.662Z</time>
      </trkpt>
      <trkpt lat="50.48086" lon="3.20641">
        <ele>44</ele>
        <time>2018-06-25T09:01:55.662Z</time>
      </trkpt>
      <trkpt lat="50.48123" lon="3.20724">
        <ele>45</ele>
        <time>2018-06-25T09:01:56.662Z</time>
      </trkpt>
      <trkpt lat="50.48149" lon="3.20761">
        <ele>44</ele>
        <time>2018-06-25T09:01:57.662Z</time>
      </trkpt>
      <trkpt lat="50.48371" lon="3.20953">
        <ele>38</ele>
        <time>2018-06-25T09:01:58.662Z</time>
      </trkpt>
      <trkpt lat="50.48421" lon="3.20987">
        <ele>38</ele>
        <time>2018-06-25T09:01:59.662Z</time>
      </trkpt>
      <trkpt lat="50.48459" lon="3.2099">
        <ele>38</ele>
        <time>2018-06-25T09:02:00.662Z</time>
      </trkpt>
      <trkpt lat="50.48634" lon="3.2105">
        <ele>37</ele>
        <time>2018-06-25T09:02:01.662Z</time>
      </trkpt>
      <trkpt lat="50.48723" lon="3.21056">
        <ele>36</ele>
        <time>2018-06-25T09:02:02.662Z</time>
      </trkpt>
      <trkpt lat="50.48821" lon="3.21087">
        <ele>36</ele>
        <time>2018-06-25T09:02:03.662Z</time>
      </trkpt>
      <trkpt lat="50.48873" lon="3.21117">
        <ele>36</ele>
        <time>2018-06-25T09:02:04.662Z</time>
      </trkpt>
      <trkpt lat="50.4888" lon="3.21144">
        <ele>36</ele>
        <time>2018-06-25T09:02:05.662Z</time>
      </trkpt>
      <trkpt lat="50.48868" lon="3.21251">
        <ele>36</ele>
        <time>2018-06-25T09:02:06.662Z</time>
      </trkpt>
      <trkpt lat="50.48873" lon="3.21315">
        <ele>37</ele>
        <time>2018-06-25T09:02:07.662Z</time>
      </trkpt>
      <trkpt lat="50.48945" lon="3.21587">
        <ele>36</ele>
        <time>2018-06-25T09:02:08.662Z</time>
      </trkpt>
      <trkpt lat="50.48949" lon="3.21644">
        <ele>35</ele>
        <time>2018-06-25T09:02:09.662Z</time>
      </trkpt>
      <trkpt lat="50.4894" lon="3.21711">
        <ele>35</ele>
        <time>2018-06-25T09:02:10.662Z</time>
      </trkpt>
      <trkpt lat="50.48882" lon="3.21861">
        <ele>33</ele>
        <time>2018-06-25T09:02:11.662Z</time>
      </trkpt>
      <trkpt lat="50.48752" lon="3.22099">
        <ele>33</ele>
        <time>2018-06-25T09:02:12.662Z</time>
      </trkpt>
      <trkpt lat="50.48725" lon="3.22187">
        <ele>32</ele>
        <time>2018-06-25T09:02:13.662Z</time>
      </trkpt>
      <trkpt lat="50.48719" lon="3.22199">
        <ele>32</ele>
        <time>2018-06-25T09:02:14.662Z</time>
      </trkpt>
      <trkpt lat="50.48701" lon="3.222">
        <ele>32</ele>
        <time>2018-06-25T09:02:15.662Z</time>
      </trkpt>
      <trkpt lat="50.48683" lon="3.22216">
        <ele>32</ele>
        <time>2018-06-25T09:02:16.662Z</time>
      </trkpt>
      <trkpt lat="50.48671" lon="3.22247">
        <ele>33</ele>
        <time>2018-06-25T09:02:17.662Z</time>
      </trkpt>
      <trkpt lat="50.48626" lon="3.22408">
        <ele>31</ele>
        <time>2018-06-25T09:02:18.662Z</time>
      </trkpt>
      <trkpt lat="50.48539" lon="3.22609">
        <ele>31</ele>
        <time>2018-06-25T09:02:19.662Z</time>
      </trkpt>
      <trkpt lat="50.48445" lon="3.22732">
        <ele>31</ele>
        <time>2018-06-25T09:02:20.662Z</time>
      </trkpt>
      <trkpt lat="50.4825" lon="3.23068">
        <ele>33</ele>
        <time>2018-06-25T09:02:21.662Z</time>
      </trkpt>
      <trkpt lat="50.47988" lon="3.23557">
        <ele>39</ele>
        <time>2018-06-25T09:02:22.662Z</time>
      </trkpt>
      <trkpt lat="50.47963" lon="3.23527">
        <ele>39</ele>
        <time>2018-06-25T09:02:23.662Z</time>
      </trkpt>
      <trkpt lat="50.47956" lon="3.23497">
        <ele>39</ele>
        <time>2018-06-25T09:02:24.662Z</time>
      </trkpt>
      <trkpt lat="50.4797" lon="3.2343">
        <ele>38</ele>
        <time>2018-06-25T09:02:25.662Z</time>
      </trkpt>
      <trkpt lat="50.47958" lon="3.23383">
        <ele>38</ele>
        <time>2018-06-25T09:02:26.662Z</time>
      </trkpt>
      <trkpt lat="50.47887" lon="3.23198">
        <ele>40</ele>
        <time>2018-06-25T09:02:27.662Z</time>
      </trkpt>
      <trkpt lat="50.47829" lon="3.23088">
        <ele>41</ele>
        <time>2018-06-25T09:02:28.662Z</time>
      </trkpt>
      <trkpt lat="50.47728" lon="3.22941">
        <ele>40</ele>
        <time>2018-06-25T09:02:29.662Z</time>
      </trkpt>
      <trkpt lat="50.47687" lon="3.2284">
        <ele>39</ele>
        <time>2018-06-25T09:02:30.662Z</time>
      </trkpt>
      <trkpt lat="50.47683" lon="3.22762">
        <ele>39</ele>
        <time>2018-06-25T09:02:31.662Z</time>
      </trkpt>
      <trkpt lat="50.47667" lon="3.22712">
        <ele>39</ele>
        <time>2018-06-25T09:02:32.662Z</time>
      </trkpt>
      <trkpt lat="50.47642" lon="3.22679">
        <ele>39</ele>
        <time>2018-06-25T09:02:33.662Z</time>
      </trkpt>
      <trkpt lat="50.47489" lon="3.22535">
        <ele>39</ele>
        <time>2018-06-25T09:02:34.662Z</time>
      </trkpt>
      <trkpt lat="50.47456" lon="3.22461">
        <ele>39</ele>
        <time>2018-06-25T09:02:35.662Z</time>
      </trkpt>
      <trkpt lat="50.47396" lon="3.22387">
        <ele>42</ele>
        <time>2018-06-25T09:02:36.662Z</time>
      </trkpt>
      <trkpt lat="50.47382" lon="3.22384">
        <ele>43</ele>
        <time>2018-06-25T09:02:37.662Z</time>
      </trkpt>
      <trkpt lat="50.47375" lon="3.22398">
        <ele>43</ele>
        <time>2018-06-25T09:02:38.662Z</time>
      </trkpt>
      <trkpt lat="50.4733" lon="3.22592">
        <ele>45</ele>
        <time>2018-06-25T09:02:39.662Z</time>
      </trkpt>
      <trkpt lat="50.4729" lon="3.22723">
        <ele>44</ele>
        <time>2018-06-25T09:02:40.662Z</time>
      </trkpt>
      <trkpt lat="50.47263" lon="3.22833">
        <ele>46</ele>
        <time>2018-06-25T09:02:41.662Z</time>
      </trkpt>
      <trkpt lat="50.47264" lon="3.22907">
        <ele>45</ele>
        <time>2018-06-25T09:02:42.662Z</time>
      </trkpt>
      <trkpt lat="50.47326" lon="3.23179">
        <ele>43</ele>
        <time>2018-06-25T09:02:43.662Z</time>
      </trkpt>
      <trkpt lat="50.47326" lon="3.23195">
        <ele>43</ele>
        <time>2018-06-25T09:02:44.662Z</time>
      </trkpt>
      <trkpt lat="50.47299" lon="3.23195">
        <ele>42</ele>
        <time>2018-06-25T09:02:45.662Z</time>
      </trkpt>
      <trkpt lat="50.47287" lon="3.23205">
        <ele>42</ele>
        <time>2018-06-25T09:02:46.662Z</time>
      </trkpt>
      <trkpt lat="50.4727" lon="3.23249">
        <ele>42</ele>
        <time>2018-06-25T09:02:47.662Z</time>
      </trkpt>
      <trkpt lat="50.47253" lon="3.23249">
        <ele>42</ele>
        <time>2018-06-25T09:02:48.662Z</time>
      </trkpt>
      <trkpt lat="50.47135" lon="3.23134">
        <ele>46</ele>
        <time>2018-06-25T09:02:49.662Z</time>
      </trkpt>
      <trkpt lat="50.47127" lon="3.23135">
        <ele>46</ele>
        <time>2018-06-25T09:02:50.662Z</time>
      </trkpt>
      <trkpt lat="50.47079" lon="3.23319">
        <ele>46</ele>
        <time>2018-06-25T09:02:51.662Z</time>
      </trkpt>
      <trkpt lat="50.47082" lon="3.23356">
        <ele>46</ele>
        <time>2018-06-25T09:02:52.662Z</time>
      </trkpt>
      <trkpt lat="50.47098" lon="3.23386">
        <ele>45</ele>
        <time>2018-06-25T09:02:53.662Z</time>
      </trkpt>
      <trkpt lat="50.47295" lon="3.23658">
        <ele>42</ele>
        <time>2018-06-25T09:02:54.662Z</time>
      </trkpt>
      <trkpt lat="50.47322" lon="3.23715">
        <ele>42</ele>
        <time>2018-06-25T09:02:55.662Z</time>
      </trkpt>
      <trkpt lat="50.47349" lon="3.23802">
        <ele>41</ele>
        <time>2018-06-25T09:02:56.662Z</time>
      </trkpt>
      <trkpt lat="50.47347" lon="3.23822">
        <ele>41</ele>
        <time>2018-06-25T09:02:57.662Z</time>
      </trkpt>
      <trkpt lat="50.47319" lon="3.23915">
        <ele>41</ele>
        <time>2018-06-25T09:02:58.662Z</time>
      </trkpt>
      <trkpt lat="50.47332" lon="3.23946">
        <ele>41</ele>
        <time>2018-06-25T09:02:59.662Z</time>
      </trkpt>
      <trkpt lat="50.4744" lon="3.24103">
        <ele>41</ele>
        <time>2018-06-25T09:03:00.662Z</time>
      </trkpt>
      <trkpt lat="50.47442" lon="3.2412">
        <ele>41</ele>
        <time>2018-06-25T09:03:01.662Z</time>
      </trkpt>
      <trkpt lat="50.47356" lon="3.24244">
        <ele>41</ele>
        <time>2018-06-25T09:03:02.662Z</time>
      </trkpt>
      <trkpt lat="50.47284" lon="3.24331">
        <ele>39</ele>
        <time>2018-06-25T09:03:03.662Z</time>
      </trkpt>
      <trkpt lat="50.47116" lon="3.24459">
        <ele>38</ele>
        <time>2018-06-25T09:03:04.662Z</time>
      </trkpt>
      <trkpt lat="50.47116" lon="3.24476">
        <ele>37</ele>
        <time>2018-06-25T09:03:05.662Z</time>
      </trkpt>
      <trkpt lat="50.47163" lon="3.24616">
        <ele>36</ele>
        <time>2018-06-25T09:03:06.662Z</time>
      </trkpt>
      <trkpt lat="50.47163" lon="3.24637">
        <ele>36</ele>
        <time>2018-06-25T09:03:07.662Z</time>
      </trkpt>
      <trkpt lat="50.47148" lon="3.2468">
        <ele>36</ele>
        <time>2018-06-25T09:03:08.662Z</time>
      </trkpt>
      <trkpt lat="50.47033" lon="3.24878">
        <ele>34</ele>
        <time>2018-06-25T09:03:09.662Z</time>
      </trkpt>
      <trkpt lat="50.46968" lon="3.24951">
        <ele>33</ele>
        <time>2018-06-25T09:03:10.662Z</time>
      </trkpt>
      <trkpt lat="50.46945" lon="3.24985">
        <ele>32</ele>
        <time>2018-06-25T09:03:11.662Z</time>
      </trkpt>
      <trkpt lat="50.46821" lon="3.25247">
        <ele>30</ele>
        <time>2018-06-25T09:03:12.662Z</time>
      </trkpt>
      <trkpt lat="50.46797" lon="3.25283">
        <ele>30</ele>
        <time>2018-06-25T09:03:13.662Z</time>
      </trkpt>
      <trkpt lat="50.46768" lon="3.25306">
        <ele>31</ele>
        <time>2018-06-25T09:03:14.662Z</time>
      </trkpt>
      <trkpt lat="50.4677" lon="3.25354">
        <ele>31</ele>
        <time>2018-06-25T09:03:15.662Z</time>
      </trkpt>
      <trkpt lat="50.46669" lon="3.25746">
        <ele>27</ele>
        <time>2018-06-25T09:03:16.662Z</time>
      </trkpt>
      <trkpt lat="50.46622" lon="3.25803">
        <ele>27</ele>
        <time>2018-06-25T09:03:17.662Z</time>
      </trkpt>
      <trkpt lat="50.46597" lon="3.25816">
        <ele>27</ele>
        <time>2018-06-25T09:03:18.662Z</time>
      </trkpt>
      <trkpt lat="50.46494" lon="3.25833">
        <ele>26</ele>
        <time>2018-06-25T09:03:19.662Z</time>
      </trkpt>
      <trkpt lat="50.46465" lon="3.25853">
        <ele>26</ele>
        <time>2018-06-25T09:03:20.662Z</time>
      </trkpt>
      <trkpt lat="50.46308" lon="3.26037">
        <ele>26</ele>
        <time>2018-06-25T09:03:21.662Z</time>
      </trkpt>
      <trkpt lat="50.46183" lon="3.26208">
        <ele>26</ele>
        <time>2018-06-25T09:03:22.662Z</time>
      </trkpt>
      <trkpt lat="50.4615" lon="3.26272">
        <ele>26</ele>
        <time>2018-06-25T09:03:23.662Z</time>
      </trkpt>
      <trkpt lat="50.46151" lon="3.26273">
        <ele>26</ele>
        <time>2018-06-25T09:03:24.662Z</time>
      </trkpt>
      <trkpt lat="50.46134" lon="3.26314">
        <ele>26</ele>
        <time>2018-06-25T09:03:25.662Z</time>
      </trkpt>
      <trkpt lat="50.46058" lon="3.26523">
        <ele>29</ele>
        <time>2018-06-25T09:03:26.662Z</time>
      </trkpt>
      <trkpt lat="50.46014" lon="3.26539">
        <ele>30</ele>
        <time>2018-06-25T09:03:27.662Z</time>
      </trkpt>
      <trkpt lat="50.45967" lon="3.26548">
        <ele>30</ele>
        <time>2018-06-25T09:03:28.662Z</time>
      </trkpt>
      <trkpt lat="50.45527" lon="3.26664">
        <ele>24</ele>
        <time>2018-06-25T09:03:29.662Z</time>
      </trkpt>
      <trkpt lat="50.45354" lon="3.26705">
        <ele>22</ele>
        <time>2018-06-25T09:03:30.662Z</time>
      </trkpt>
      <trkpt lat="50.45354" lon="3.26705">
        <ele>22</ele>
        <time>2018-06-25T09:03:31.662Z</time>
      </trkpt>
      <trkpt lat="50.45034" lon="3.26778">
        <ele>21</ele>
        <time>2018-06-25T09:03:32.662Z</time>
      </trkpt>
      <trkpt lat="50.44806" lon="3.26843">
        <ele>20</ele>
        <time>2018-06-25T09:03:33.662Z</time>
      </trkpt>
      <trkpt lat="50.44713" lon="3.26866">
        <ele>20</ele>
        <time>2018-06-25T09:03:34.662Z</time>
      </trkpt>
      <trkpt lat="50.44643" lon="3.26888">
        <ele>20</ele>
        <time>2018-06-25T09:03:35.662Z</time>
      </trkpt>
      <trkpt lat="50.44488" lon="3.26947">
        <ele>20</ele>
        <time>2018-06-25T09:03:36.662Z</time>
      </trkpt>
      <trkpt lat="50.44367" lon="3.27002">
        <ele>20</ele>
        <time>2018-06-25T09:03:37.662Z</time>
      </trkpt>
      <trkpt lat="50.44092" lon="3.27121">
        <ele>30</ele>
        <time>2018-06-25T09:03:38.662Z</time>
      </trkpt>
      <trkpt lat="50.43788" lon="3.27257">
        <ele>27</ele>
        <time>2018-06-25T09:03:39.662Z</time>
      </trkpt>
      <trkpt lat="50.43783" lon="3.27275">
        <ele>27</ele>
        <time>2018-06-25T09:03:40.662Z</time>
      </trkpt>
      <trkpt lat="50.43783" lon="3.27334">
        <ele>29</ele>
        <time>2018-06-25T09:03:41.662Z</time>
      </trkpt>
      <trkpt lat="50.43775" lon="3.27384">
        <ele>29</ele>
        <time>2018-06-25T09:03:42.662Z</time>
      </trkpt>
      <trkpt lat="50.43776" lon="3.27432">
        <ele>30</ele>
        <time>2018-06-25T09:03:43.662Z</time>
      </trkpt>
      <trkpt lat="50.43772" lon="3.27468">
        <ele>30</ele>
        <time>2018-06-25T09:03:44.662Z</time>
      </trkpt>
      <trkpt lat="50.43775" lon="3.27553">
        <ele>30</ele>
        <time>2018-06-25T09:03:45.662Z</time>
      </trkpt>
      <trkpt lat="50.43772" lon="3.27583">
        <ele>30</ele>
        <time>2018-06-25T09:03:46.662Z</time>
      </trkpt>
      <trkpt lat="50.43772" lon="3.27583">
        <ele>30</ele>
        <time>2018-06-25T09:03:47.662Z</time>
      </trkpt>
      <trkpt lat="50.43766" lon="3.27626">
        <ele>30</ele>
        <time>2018-06-25T09:03:48.662Z</time>
      </trkpt>
      <trkpt lat="50.43768" lon="3.2767">
        <ele>30</ele>
        <time>2018-06-25T09:03:49.662Z</time>
      </trkpt>
      <trkpt lat="50.43769" lon="3.27673">
        <ele>30</ele>
        <time>2018-06-25T09:03:50.662Z</time>
      </trkpt>
      <trkpt lat="50.43767" lon="3.27687">
        <ele>30</ele>
        <time>2018-06-25T09:03:51.662Z</time>
      </trkpt>
      <trkpt lat="50.43769" lon="3.27727">
        <ele>30</ele>
        <time>2018-06-25T09:03:52.662Z</time>
      </trkpt>
      <trkpt lat="50.43766" lon="3.27744">
        <ele>30</ele>
        <time>2018-06-25T09:03:53.662Z</time>
      </trkpt>
      <trkpt lat="50.43768" lon="3.27762">
        <ele>30</ele>
        <time>2018-06-25T09:03:54.662Z</time>
      </trkpt>
      <trkpt lat="50.43764" lon="3.27792">
        <ele>29</ele>
        <time>2018-06-25T09:03:55.662Z</time>
      </trkpt>
      <trkpt lat="50.43758" lon="3.27803">
        <ele>29</ele>
        <time>2018-06-25T09:03:56.662Z</time>
      </trkpt>
      <trkpt lat="50.4376" lon="3.27809">
        <ele>29</ele>
        <time>2018-06-25T09:03:57.662Z</time>
      </trkpt>
      <trkpt lat="50.43761" lon="3.27831">
        <ele>29</ele>
        <time>2018-06-25T09:03:58.662Z</time>
      </trkpt>
      <trkpt lat="50.43759" lon="3.27842">
        <ele>29</ele>
        <time>2018-06-25T09:03:59.662Z</time>
      </trkpt>
      <trkpt lat="50.43764" lon="3.27872">
        <ele>29</ele>
        <time>2018-06-25T09:04:00.662Z</time>
      </trkpt>
      <trkpt lat="50.43763" lon="3.27888">
        <ele>29</ele>
        <time>2018-06-25T09:04:01.662Z</time>
      </trkpt>
      <trkpt lat="50.43766" lon="3.27894">
        <ele>29</ele>
        <time>2018-06-25T09:04:02.662Z</time>
      </trkpt>
      <trkpt lat="50.4377" lon="3.27924">
        <ele>28</ele>
        <time>2018-06-25T09:04:03.662Z</time>
      </trkpt>
      <trkpt lat="50.43769" lon="3.27953">
        <ele>28</ele>
        <time>2018-06-25T09:04:04.662Z</time>
      </trkpt>
      <trkpt lat="50.43749" lon="3.28018">
        <ele>27</ele>
        <time>2018-06-25T09:04:05.662Z</time>
      </trkpt>
      <trkpt lat="50.43745" lon="3.28038">
        <ele>27</ele>
        <time>2018-06-25T09:04:06.662Z</time>
      </trkpt>
      <trkpt lat="50.43733" lon="3.28033">
        <ele>27</ele>
        <time>2018-06-25T09:04:07.662Z</time>
      </trkpt>
      <trkpt lat="50.43732" lon="3.28042">
        <ele>28</ele>
        <time>2018-06-25T09:04:08.662Z</time>
      </trkpt>
      <trkpt lat="50.4373" lon="3.28043">
        <ele>28</ele>
        <time>2018-06-25T09:04:09.662Z</time>
      </trkpt>
      <trkpt lat="50.43631" lon="3.28066">
        <ele>28</ele>
        <time>2018-06-25T09:04:10.662Z</time>
      </trkpt>
      <trkpt lat="50.42581" lon="3.28332">
        <ele>22</ele>
        <time>2018-06-25T09:04:11.662Z</time>
      </trkpt>
      <trkpt lat="50.42581" lon="3.28332">
        <ele>22</ele>
        <time>2018-06-25T09:04:12.662Z</time>
      </trkpt>
      <trkpt lat="50.42069" lon="3.28455">
        <ele>21</ele>
        <time>2018-06-25T09:04:13.662Z</time>
      </trkpt>
      <trkpt lat="50.41894" lon="3.28478">
        <ele>18</ele>
        <time>2018-06-25T09:04:14.662Z</time>
      </trkpt>
      <trkpt lat="50.41136" lon="3.28594">
        <ele>16</ele>
        <time>2018-06-25T09:04:15.662Z</time>
      </trkpt>
      <trkpt lat="50.41136" lon="3.28595">
        <ele>16</ele>
        <time>2018-06-25T09:04:16.662Z</time>
      </trkpt>
      <trkpt lat="50.41015" lon="3.28613">
        <ele>16</ele>
        <time>2018-06-25T09:04:17.662Z</time>
      </trkpt>
      <trkpt lat="50.41002" lon="3.28618">
        <ele>16</ele>
        <time>2018-06-25T09:04:18.662Z</time>
      </trkpt>
      <trkpt lat="50.40985" lon="3.28637">
        <ele>17</ele>
        <time>2018-06-25T09:04:19.662Z</time>
      </trkpt>
      <trkpt lat="50.40971" lon="3.28659">
        <ele>18</ele>
        <time>2018-06-25T09:04:20.662Z</time>
      </trkpt>
      <trkpt lat="50.40918" lon="3.28763">
        <ele>18</ele>
        <time>2018-06-25T09:04:21.662Z</time>
      </trkpt>
      <trkpt lat="50.40911" lon="3.28738">
        <ele>18</ele>
        <time>2018-06-25T09:04:22.662Z</time>
      </trkpt>
      <trkpt lat="50.40889" lon="3.28772">
        <ele>18</ele>
        <time>2018-06-25T09:04:23.662Z</time>
      </trkpt>
      <trkpt lat="50.40703" lon="3.29132">
        <ele>16</ele>
        <time>2018-06-25T09:04:24.662Z</time>
      </trkpt>
      <trkpt lat="50.40617" lon="3.29291">
        <ele>16</ele>
        <time>2018-06-25T09:04:25.662Z</time>
      </trkpt>
      <trkpt lat="50.40575" lon="3.29357">
        <ele>16</ele>
        <time>2018-06-25T09:04:26.662Z</time>
      </trkpt>
      <trkpt lat="50.40554" lon="3.29384">
        <ele>17</ele>
        <time>2018-06-25T09:04:27.662Z</time>
      </trkpt>
      <trkpt lat="50.40531" lon="3.29409">
        <ele>17</ele>
        <time>2018-06-25T09:04:28.662Z</time>
      </trkpt>
      <trkpt lat="50.40471" lon="3.29466">
        <ele>17</ele>
        <time>2018-06-25T09:04:29.662Z</time>
      </trkpt>
      <trkpt lat="50.40369" lon="3.29513">
        <ele>17</ele>
        <time>2018-06-25T09:04:30.662Z</time>
      </trkpt>
      <trkpt lat="50.40321" lon="3.2953">
        <ele>16</ele>
        <time>2018-06-25T09:04:31.662Z</time>
      </trkpt>
      <trkpt lat="50.40249" lon="3.29532">
        <ele>17</ele>
        <time>2018-06-25T09:04:32.662Z</time>
      </trkpt>
      <trkpt lat="50.40143" lon="3.29541">
        <ele>18</ele>
        <time>2018-06-25T09:04:33.662Z</time>
      </trkpt>
      <trkpt lat="50.40143" lon="3.29598">
        <ele>19</ele>
        <time>2018-06-25T09:04:34.662Z</time>
      </trkpt>
      <trkpt lat="50.40153" lon="3.29794">
        <ele>16</ele>
        <time>2018-06-25T09:04:35.662Z</time>
      </trkpt>
      <trkpt lat="50.40166" lon="3.29864">
        <ele>17</ele>
        <time>2018-06-25T09:04:36.662Z</time>
      </trkpt>
      <trkpt lat="50.40233" lon="3.30094">
        <ele>16</ele>
        <time>2018-06-25T09:04:37.662Z</time>
      </trkpt>
      <trkpt lat="50.40246" lon="3.30181">
        <ele>17</ele>
        <time>2018-06-25T09:04:38.662Z</time>
      </trkpt>
      <trkpt lat="50.40256" lon="3.30307">
        <ele>17</ele>
        <time>2018-06-25T09:04:39.662Z</time>
      </trkpt>
      <trkpt lat="50.40262" lon="3.30437">
        <ele>18</ele>
        <time>2018-06-25T09:04:40.662Z</time>
      </trkpt>
      <trkpt lat="50.40269" lon="3.30572">
        <ele>18</ele>
        <time>2018-06-25T09:04:41.662Z</time>
      </trkpt>
      <trkpt lat="50.40395" lon="3.31543">
        <ele>18</ele>
        <time>2018-06-25T09:04:42.662Z</time>
      </trkpt>
      <trkpt lat="50.40396" lon="3.31544">
        <ele>18</ele>
        <time>2018-06-25T09:04:43.662Z</time>
      </trkpt>
      <trkpt lat="50.4047" lon="3.32065">
        <ele>16</ele>
        <time>2018-06-25T09:04:44.662Z</time>
      </trkpt>
      <trkpt lat="50.40477" lon="3.32105">
        <ele>16</ele>
        <time>2018-06-25T09:04:45.662Z</time>
      </trkpt>
      <trkpt lat="50.4049" lon="3.32133">
        <ele>16</ele>
        <time>2018-06-25T09:04:46.662Z</time>
      </trkpt>
      <trkpt lat="50.40595" lon="3.32308">
        <ele>18</ele>
        <time>2018-06-25T09:04:47.662Z</time>
      </trkpt>
      <trkpt lat="50.4061" lon="3.32329">
        <ele>18</ele>
        <time>2018-06-25T09:04:48.662Z</time>
      </trkpt>
      <trkpt lat="50.40612" lon="3.32331">
        <ele>18</ele>
        <time>2018-06-25T09:04:49.662Z</time>
      </trkpt>
      <trkpt lat="50.40653" lon="3.32392">
        <ele>17</ele>
        <time>2018-06-25T09:04:50.662Z</time>
      </trkpt>
      <trkpt lat="50.4067" lon="3.32473">
        <ele>18</ele>
        <time>2018-06-25T09:04:51.662Z</time>
      </trkpt>
      <trkpt lat="50.4073" lon="3.3286">
        <ele>17</ele>
        <time>2018-06-25T09:04:52.662Z</time>
      </trkpt>
      <trkpt lat="50.40765" lon="3.33107">
        <ele>18</ele>
        <time>2018-06-25T09:04:53.662Z</time>
      </trkpt>
      <trkpt lat="50.40781" lon="3.33231">
        <ele>17</ele>
        <time>2018-06-25T09:04:54.662Z</time>
      </trkpt>
      <trkpt lat="50.40768" lon="3.33237">
        <ele>17</ele>
        <time>2018-06-25T09:04:55.662Z</time>
      </trkpt>
      <trkpt lat="50.40761" lon="3.33244">
        <ele>17</ele>
        <time>2018-06-25T09:04:56.662Z</time>
      </trkpt>
      <trkpt lat="50.40754" lon="3.33257">
        <ele>17</ele>
        <time>2018-06-25T09:04:57.662Z</time>
      </trkpt>
      <trkpt lat="50.4075" lon="3.33273">
        <ele>17</ele>
        <time>2018-06-25T09:04:58.662Z</time>
      </trkpt>
      <trkpt lat="50.40752" lon="3.33304">
        <ele>18</ele>
        <time>2018-06-25T09:04:59.662Z</time>
      </trkpt>
      <trkpt lat="50.40779" lon="3.33502">
        <ele>15</ele>
        <time>2018-06-25T09:05:00.662Z</time>
      </trkpt>
      <trkpt lat="50.40776" lon="3.33532">
        <ele>15</ele>
        <time>2018-06-25T09:05:01.662Z</time>
      </trkpt>
      <trkpt lat="50.40731" lon="3.33683">
        <ele>14</ele>
        <time>2018-06-25T09:05:02.662Z</time>
      </trkpt>
      <trkpt lat="50.40672" lon="3.33894">
        <ele>15</ele>
        <time>2018-06-25T09:05:03.662Z</time>
      </trkpt>
      <trkpt lat="50.40567" lon="3.3418">
        <ele>16</ele>
        <time>2018-06-25T09:05:04.662Z</time>
      </trkpt>
      <trkpt lat="50.40471" lon="3.34417">
        <ele>14</ele>
        <time>2018-06-25T09:05:05.662Z</time>
      </trkpt>
      <trkpt lat="50.40566" lon="3.34623">
        <ele>15</ele>
        <time>2018-06-25T09:05:06.662Z</time>
      </trkpt>
      <trkpt lat="50.40573" lon="3.34646">
        <ele>15</ele>
        <time>2018-06-25T09:05:07.662Z</time>
      </trkpt>
      <trkpt lat="50.40578" lon="3.34673">
        <ele>15</ele>
        <time>2018-06-25T09:05:08.662Z</time>
      </trkpt>
      <trkpt lat="50.40582" lon="3.34864">
        <ele>17</ele>
        <time>2018-06-25T09:05:09.662Z</time>
      </trkpt>
      <trkpt lat="50.40575" lon="3.34924">
        <ele>18</ele>
        <time>2018-06-25T09:05:10.662Z</time>
      </trkpt>
      <trkpt lat="50.40569" lon="3.34941">
        <ele>18</ele>
        <time>2018-06-25T09:05:11.662Z</time>
      </trkpt>
      <trkpt lat="50.40564" lon="3.34954">
        <ele>18</ele>
        <time>2018-06-25T09:05:12.662Z</time>
      </trkpt>
      <trkpt lat="50.40513" lon="3.3503">
        <ele>18</ele>
        <time>2018-06-25T09:05:13.662Z</time>
      </trkpt>
      <trkpt lat="50.40465" lon="3.35112">
        <ele>18</ele>
        <time>2018-06-25T09:05:14.662Z</time>
      </trkpt>
      <trkpt lat="50.40407" lon="3.35248">
        <ele>16</ele>
        <time>2018-06-25T09:05:15.662Z</time>
      </trkpt>
      <trkpt lat="50.40386" lon="3.35292">
        <ele>16</ele>
        <time>2018-06-25T09:05:16.662Z</time>
      </trkpt>
      <trkpt lat="50.40372" lon="3.35327">
        <ele>16</ele>
        <time>2018-06-25T09:05:17.662Z</time>
      </trkpt>
      <trkpt lat="50.40362" lon="3.3537">
        <ele>16</ele>
        <time>2018-06-25T09:05:18.662Z</time>
      </trkpt>
      <trkpt lat="50.40358" lon="3.35419">
        <ele>15</ele>
        <time>2018-06-25T09:05:19.662Z</time>
      </trkpt>
      <trkpt lat="50.40357" lon="3.35489">
        <ele>15</ele>
        <time>2018-06-25T09:05:20.662Z</time>
      </trkpt>
      <trkpt lat="50.40365" lon="3.35622">
        <ele>15</ele>
        <time>2018-06-25T09:05:21.662Z</time>
      </trkpt>
      <trkpt lat="50.40369" lon="3.35641">
        <ele>16</ele>
        <time>2018-06-25T09:05:22.662Z</time>
      </trkpt>
      <trkpt lat="50.40383" lon="3.35654">
        <ele>16</ele>
        <time>2018-06-25T09:05:23.662Z</time>
      </trkpt>
      <trkpt lat="50.40493" lon="3.35696">
        <ele>20</ele>
        <time>2018-06-25T09:05:24.662Z</time>
      </trkpt>
      <trkpt lat="50.4049" lon="3.35732">
        <ele>22</ele>
        <time>2018-06-25T09:05:25.662Z</time>
      </trkpt>
      <trkpt lat="50.4045" lon="3.35997">
        <ele>28</ele>
        <time>2018-06-25T09:05:26.662Z</time>
      </trkpt>
      <trkpt lat="50.40438" lon="3.36065">
        <ele>27</ele>
        <time>2018-06-25T09:05:27.662Z</time>
      </trkpt>
      <trkpt lat="50.40382" lon="3.36423">
        <ele>23</ele>
        <time>2018-06-25T09:05:28.662Z</time>
      </trkpt>
      <trkpt lat="50.40326" lon="3.36796">
        <ele>26</ele>
        <time>2018-06-25T09:05:29.662Z</time>
      </trkpt>
      <trkpt lat="50.4017" lon="3.37766">
        <ele>25</ele>
        <time>2018-06-25T09:05:30.662Z</time>
      </trkpt>
      <trkpt lat="50.40191" lon="3.37782">
        <ele>25</ele>
        <time>2018-06-25T09:05:31.662Z</time>
      </trkpt>
      <trkpt lat="50.40218" lon="3.37808">
        <ele>25</ele>
        <time>2018-06-25T09:05:32.662Z</time>
      </trkpt>
      <trkpt lat="50.40836" lon="3.3836">
        <ele>18</ele>
        <time>2018-06-25T09:05:33.662Z</time>
      </trkpt>
      <trkpt lat="50.4088" lon="3.38393">
        <ele>18</ele>
        <time>2018-06-25T09:05:34.662Z</time>
      </trkpt>
      <trkpt lat="50.40884" lon="3.38394">
        <ele>18</ele>
        <time>2018-06-25T09:05:35.662Z</time>
      </trkpt>
      <trkpt lat="50.4088" lon="3.38417">
        <ele>18</ele>
        <time>2018-06-25T09:05:36.662Z</time>
      </trkpt>
      <trkpt lat="50.40833" lon="3.3848">
        <ele>22</ele>
        <time>2018-06-25T09:05:37.662Z</time>
      </trkpt>
      <trkpt lat="50.40827" lon="3.38495">
        <ele>22</ele>
        <time>2018-06-25T09:05:38.662Z</time>
      </trkpt>
      <trkpt lat="50.40827" lon="3.38513">
        <ele>22</ele>
        <time>2018-06-25T09:05:39.662Z</time>
      </trkpt>
      <trkpt lat="50.40833" lon="3.38571">
        <ele>20</ele>
        <time>2018-06-25T09:05:40.662Z</time>
      </trkpt>
      <trkpt lat="50.40893" lon="3.39083">
        <ele>16</ele>
        <time>2018-06-25T09:05:41.662Z</time>
      </trkpt>
      <trkpt lat="50.40952" lon="3.39665">
        <ele>14</ele>
        <time>2018-06-25T09:05:42.662Z</time>
      </trkpt>
      <trkpt lat="50.40965" lon="3.39809">
        <ele>16</ele>
        <time>2018-06-25T09:05:43.662Z</time>
      </trkpt>
      <trkpt lat="50.40966" lon="3.39809">
        <ele>16</ele>
        <time>2018-06-25T09:05:44.662Z</time>
      </trkpt>
      <trkpt lat="50.40967" lon="3.39822">
        <ele>16</ele>
        <time>2018-06-25T09:05:45.662Z</time>
      </trkpt>
      <trkpt lat="50.40962" lon="3.39833">
        <ele>16</ele>
        <time>2018-06-25T09:05:46.662Z</time>
      </trkpt>
      <trkpt lat="50.40903" lon="3.39959">
        <ele>18</ele>
        <time>2018-06-25T09:05:47.662Z</time>
      </trkpt>
      <trkpt lat="50.40897" lon="3.3998">
        <ele>19</ele>
        <time>2018-06-25T09:05:48.662Z</time>
      </trkpt>
      <trkpt lat="50.40897" lon="3.40002">
        <ele>19</ele>
        <time>2018-06-25T09:05:49.662Z</time>
      </trkpt>
      <trkpt lat="50.40897" lon="3.40002">
        <ele>19</ele>
        <time>2018-06-25T09:05:50.662Z</time>
      </trkpt>
      <trkpt lat="50.40907" lon="3.40104">
        <ele>18</ele>
        <time>2018-06-25T09:05:51.662Z</time>
      </trkpt>
      <trkpt lat="50.40916" lon="3.40209">
        <ele>16</ele>
        <time>2018-06-25T09:05:52.662Z</time>
      </trkpt>
      <trkpt lat="50.4092" lon="3.40216">
        <ele>16</ele>
        <time>2018-06-25T09:05:53.662Z</time>
      </trkpt>
      <trkpt lat="50.40933" lon="3.40234">
        <ele>16</ele>
        <time>2018-06-25T09:05:54.662Z</time>
      </trkpt>
      <trkpt lat="50.4094" lon="3.40255">
        <ele>16</ele>
        <time>2018-06-25T09:05:55.662Z</time>
      </trkpt>
      <trkpt lat="50.40929" lon="3.40268">
        <ele>16</ele>
        <time>2018-06-25T09:05:56.662Z</time>
      </trkpt>
      <trkpt lat="50.4088" lon="3.40338">
        <ele>17</ele>
        <time>2018-06-25T09:05:57.662Z</time>
      </trkpt>
      <trkpt lat="50.40799" lon="3.4043">
        <ele>18</ele>
        <time>2018-06-25T09:05:58.662Z</time>
      </trkpt>
      <trkpt lat="50.40785" lon="3.40456">
        <ele>18</ele>
        <time>2018-06-25T09:05:59.662Z</time>
      </trkpt>
      <trkpt lat="50.40773" lon="3.4049">
        <ele>19</ele>
        <time>2018-06-25T09:06:00.662Z</time>
      </trkpt>
      <trkpt lat="50.40719" lon="3.40509">
        <ele>19</ele>
        <time>2018-06-25T09:06:01.662Z</time>
      </trkpt>
      <trkpt lat="50.40597" lon="3.4057">
        <ele>22</ele>
        <time>2018-06-25T09:06:02.662Z</time>
      </trkpt>
      <trkpt lat="50.40544" lon="3.4062">
        <ele>25</ele>
        <time>2018-06-25T09:06:03.662Z</time>
      </trkpt>
      <trkpt lat="50.40534" lon="3.40637">
        <ele>26</ele>
        <time>2018-06-25T09:06:04.662Z</time>
      </trkpt>
      <trkpt lat="50.39872" lon="3.41338">
        <ele>26</ele>
        <time>2018-06-25T09:06:05.662Z</time>
      </trkpt>
      <trkpt lat="50.38938" lon="3.42303">
        <ele>37</ele>
        <time>2018-06-25T09:06:06.662Z</time>
      </trkpt>
      <trkpt lat="50.38845" lon="3.4239">
        <ele>36</ele>
        <time>2018-06-25T09:06:07.662Z</time>
      </trkpt>
      <trkpt lat="50.38184" lon="3.43064">
        <ele>40</ele>
        <time>2018-06-25T09:06:08.662Z</time>
      </trkpt>
      <trkpt lat="50.38158" lon="3.43081">
        <ele>40</ele>
        <time>2018-06-25T09:06:09.662Z</time>
      </trkpt>
      <trkpt lat="50.37898" lon="3.43097">
        <ele>38</ele>
        <time>2018-06-25T09:06:10.662Z</time>
      </trkpt>
      <trkpt lat="50.3784" lon="3.43117">
        <ele>38</ele>
        <time>2018-06-25T09:06:11.662Z</time>
      </trkpt>
      <trkpt lat="50.37826" lon="3.43104">
        <ele>38</ele>
        <time>2018-06-25T09:06:12.662Z</time>
      </trkpt>
      <trkpt lat="50.37786" lon="3.42989">
        <ele>38</ele>
        <time>2018-06-25T09:06:13.662Z</time>
      </trkpt>
      <trkpt lat="50.37768" lon="3.42969">
        <ele>38</ele>
        <time>2018-06-25T09:06:14.662Z</time>
      </trkpt>
      <trkpt lat="50.37759" lon="3.42967">
        <ele>38</ele>
        <time>2018-06-25T09:06:15.662Z</time>
      </trkpt>
      <trkpt lat="50.37688" lon="3.4299">
        <ele>40</ele>
        <time>2018-06-25T09:06:16.662Z</time>
      </trkpt>
      <trkpt lat="50.37584" lon="3.43">
        <ele>38</ele>
        <time>2018-06-25T09:06:17.662Z</time>
      </trkpt>
      <trkpt lat="50.37526" lon="3.43017">
        <ele>39</ele>
        <time>2018-06-25T09:06:18.662Z</time>
      </trkpt>
      <trkpt lat="50.37446" lon="3.4306">
        <ele>39</ele>
        <time>2018-06-25T09:06:19.662Z</time>
      </trkpt>
      <trkpt lat="50.37273" lon="3.43047">
        <ele>41</ele>
        <time>2018-06-25T09:06:20.662Z</time>
      </trkpt>
      <trkpt lat="50.37239" lon="3.43053">
        <ele>41</ele>
        <time>2018-06-25T09:06:21.662Z</time>
      </trkpt>
      <trkpt lat="50.3719" lon="3.43027">
        <ele>43</ele>
        <time>2018-06-25T09:06:22.662Z</time>
      </trkpt>
      <trkpt lat="50.3714" lon="3.43016">
        <ele>44</ele>
        <time>2018-06-25T09:06:23.662Z</time>
      </trkpt>
      <trkpt lat="50.3711" lon="3.4299">
        <ele>44</ele>
        <time>2018-06-25T09:06:24.662Z</time>
      </trkpt>
      <trkpt lat="50.36975" lon="3.42916">
        <ele>44</ele>
        <time>2018-06-25T09:06:25.662Z</time>
      </trkpt>
      <trkpt lat="50.36853" lon="3.42866">
        <ele>45</ele>
        <time>2018-06-25T09:06:26.662Z</time>
      </trkpt>
      <trkpt lat="50.36867" lon="3.42823">
        <ele>43</ele>
        <time>2018-06-25T09:06:27.662Z</time>
      </trkpt>
      <trkpt lat="50.36966" lon="3.42605">
        <ele>40</ele>
        <time>2018-06-25T09:06:28.662Z</time>
      </trkpt>
      <trkpt lat="50.37046" lon="3.42387">
        <ele>36</ele>
        <time>2018-06-25T09:06:29.662Z</time>
      </trkpt>
      <trkpt lat="50.37069" lon="3.42249">
        <ele>34</ele>
        <time>2018-06-25T09:06:30.662Z</time>
      </trkpt>
      <trkpt lat="50.37083" lon="3.42243">
        <ele>34</ele>
        <time>2018-06-25T09:06:31.662Z</time>
      </trkpt>
      <trkpt lat="50.3712" lon="3.42011">
        <ele>30</ele>
        <time>2018-06-25T09:06:32.662Z</time>
      </trkpt>
      <trkpt lat="50.37187" lon="3.4189">
        <ele>27</ele>
        <time>2018-06-25T09:06:33.662Z</time>
      </trkpt>
      <trkpt lat="50.37187" lon="3.41871">
        <ele>27</ele>
        <time>2018-06-25T09:06:34.662Z</time>
      </trkpt>
      <trkpt lat="50.37153" lon="3.41824">
        <ele>26</ele>
        <time>2018-06-25T09:06:35.662Z</time>
      </trkpt>
      <trkpt lat="50.36979" lon="3.41538">
        <ele>27</ele>
        <time>2018-06-25T09:06:36.662Z</time>
      </trkpt>
      <trkpt lat="50.36867" lon="3.41288">
        <ele>22</ele>
        <time>2018-06-25T09:06:37.662Z</time>
      </trkpt>
      <trkpt lat="50.36834" lon="3.41234">
        <ele>21</ele>
        <time>2018-06-25T09:06:38.662Z</time>
      </trkpt>
      <trkpt lat="50.36827" lon="3.41207">
        <ele>21</ele>
        <time>2018-06-25T09:06:39.662Z</time>
      </trkpt>
      <trkpt lat="50.36733" lon="3.4113">
        <ele>23</ele>
        <time>2018-06-25T09:06:40.662Z</time>
      </trkpt>
      <trkpt lat="50.36652" lon="3.41086">
        <ele>20</ele>
        <time>2018-06-25T09:06:41.662Z</time>
      </trkpt>
      <trkpt lat="50.3656" lon="3.41073">
        <ele>21</ele>
        <time>2018-06-25T09:06:42.662Z</time>
      </trkpt>
      <trkpt lat="50.36507" lon="3.41079">
        <ele>24</ele>
        <time>2018-06-25T09:06:43.662Z</time>
      </trkpt>
      <trkpt lat="50.3649" lon="3.41069">
        <ele>23</ele>
        <time>2018-06-25T09:06:44.662Z</time>
      </trkpt>
      <trkpt lat="50.36481" lon="3.41083">
        <ele>24</ele>
        <time>2018-06-25T09:06:45.662Z</time>
      </trkpt>
      <trkpt lat="50.3647" lon="3.41083">
        <ele>24</ele>
        <time>2018-06-25T09:06:46.662Z</time>
      </trkpt>
      <trkpt lat="50.36463" lon="3.4107">
        <ele>23</ele>
        <time>2018-06-25T09:06:47.662Z</time>
      </trkpt>
      <trkpt lat="50.36372" lon="3.41019">
        <ele>22</ele>
        <time>2018-06-25T09:06:48.662Z</time>
      </trkpt>
      <trkpt lat="50.36343" lon="3.41053">
        <ele>23</ele>
        <time>2018-06-25T09:06:49.662Z</time>
      </trkpt>
      <trkpt lat="50.36322" lon="3.41059">
        <ele>23</ele>
        <time>2018-06-25T09:06:50.662Z</time>
      </trkpt>
      <trkpt lat="50.36107" lon="3.41006">
        <ele>24</ele>
        <time>2018-06-25T09:06:51.662Z</time>
      </trkpt>
      <trkpt lat="50.36044" lon="3.41069">
        <ele>25</ele>
        <time>2018-06-25T09:06:52.662Z</time>
      </trkpt>
      <trkpt lat="50.36038" lon="3.41083">
        <ele>25</ele>
        <time>2018-06-25T09:06:53.662Z</time>
      </trkpt>
      <trkpt lat="50.36" lon="3.41086">
        <ele>25</ele>
        <time>2018-06-25T09:06:54.662Z</time>
      </trkpt>
      <trkpt lat="50.35977" lon="3.41079">
        <ele>26</ele>
        <time>2018-06-25T09:06:55.662Z</time>
      </trkpt>
      <trkpt lat="50.35965" lon="3.41086">
        <ele>27</ele>
        <time>2018-06-25T09:06:56.662Z</time>
      </trkpt>
      <trkpt lat="50.35856" lon="3.4108">
        <ele>31</ele>
        <time>2018-06-25T09:06:57.662Z</time>
      </trkpt>
      <trkpt lat="50.35688" lon="3.4111">
        <ele>27</ele>
        <time>2018-06-25T09:06:58.662Z</time>
      </trkpt>
      <trkpt lat="50.35526" lon="3.41153">
        <ele>28</ele>
        <time>2018-06-25T09:06:59.662Z</time>
      </trkpt>
      <trkpt lat="50.35515" lon="3.41164">
        <ele>27</ele>
        <time>2018-06-25T09:07:00.662Z</time>
      </trkpt>
      <trkpt lat="50.35351" lon="3.41207">
        <ele>26</ele>
        <time>2018-06-25T09:07:01.662Z</time>
      </trkpt>
      <trkpt lat="50.35262" lon="3.4121">
        <ele>24</ele>
        <time>2018-06-25T09:07:02.662Z</time>
      </trkpt>
      <trkpt lat="50.35206" lon="3.41203">
        <ele>23</ele>
        <time>2018-06-25T09:07:03.662Z</time>
      </trkpt>
      <trkpt lat="50.35091" lon="3.41167">
        <ele>24</ele>
        <time>2018-06-25T09:07:04.662Z</time>
      </trkpt>
      <trkpt lat="50.35028" lon="3.41174">
        <ele>25</ele>
        <time>2018-06-25T09:07:05.662Z</time>
      </trkpt>
      <trkpt lat="50.35004" lon="3.41153">
        <ele>26</ele>
        <time>2018-06-25T09:07:06.662Z</time>
      </trkpt>
      <trkpt lat="50.34957" lon="3.41147">
        <ele>27</ele>
        <time>2018-06-25T09:07:07.662Z</time>
      </trkpt>
      <trkpt lat="50.3484" lon="3.41448">
        <ele>26</ele>
        <time>2018-06-25T09:07:08.662Z</time>
      </trkpt>
      <trkpt lat="50.34849" lon="3.41472">
        <ele>27</ele>
        <time>2018-06-25T09:07:09.662Z</time>
      </trkpt>
      <trkpt lat="50.34852" lon="3.41505">
        <ele>28</ele>
        <time>2018-06-25T09:07:10.662Z</time>
      </trkpt>
      <trkpt lat="50.34746" lon="3.41602">
        <ele>27</ele>
        <time>2018-06-25T09:07:11.662Z</time>
      </trkpt>
      <trkpt lat="50.34627" lon="3.4173">
        <ele>27</ele>
        <time>2018-06-25T09:07:12.662Z</time>
      </trkpt>
      <trkpt lat="50.34508" lon="3.41891">
        <ele>27</ele>
        <time>2018-06-25T09:07:13.662Z</time>
      </trkpt>
      <trkpt lat="50.34484" lon="3.41918">
        <ele>27</ele>
        <time>2018-06-25T09:07:14.662Z</time>
      </trkpt>
      <trkpt lat="50.34356" lon="3.41991">
        <ele>30</ele>
        <time>2018-06-25T09:07:15.662Z</time>
      </trkpt>
      <trkpt lat="50.34323" lon="3.42018">
        <ele>30</ele>
        <time>2018-06-25T09:07:16.662Z</time>
      </trkpt>
      <trkpt lat="50.34282" lon="3.42015">
        <ele>31</ele>
        <time>2018-06-25T09:07:17.662Z</time>
      </trkpt>
      <trkpt lat="50.34273" lon="3.42028">
        <ele>31</ele>
        <time>2018-06-25T09:07:18.662Z</time>
      </trkpt>
      <trkpt lat="50.34038" lon="3.42115">
        <ele>32</ele>
        <time>2018-06-25T09:07:19.662Z</time>
      </trkpt>
      <trkpt lat="50.33892" lon="3.42142">
        <ele>34</ele>
        <time>2018-06-25T09:07:20.662Z</time>
      </trkpt>
      <trkpt lat="50.33765" lon="3.42132">
        <ele>32</ele>
        <time>2018-06-25T09:07:21.662Z</time>
      </trkpt>
      <trkpt lat="50.33428" lon="3.42064">
        <ele>37</ele>
        <time>2018-06-25T09:07:22.662Z</time>
      </trkpt>
      <trkpt lat="50.33388" lon="3.42065">
        <ele>37</ele>
        <time>2018-06-25T09:07:23.662Z</time>
      </trkpt>
      <trkpt lat="50.33356" lon="3.42045">
        <ele>37</ele>
        <time>2018-06-25T09:07:24.662Z</time>
      </trkpt>
      <trkpt lat="50.33222" lon="3.41881">
        <ele>36</ele>
        <time>2018-06-25T09:07:25.662Z</time>
      </trkpt>
      <trkpt lat="50.33166" lon="3.41827">
        <ele>36</ele>
        <time>2018-06-25T09:07:26.662Z</time>
      </trkpt>
      <trkpt lat="50.331" lon="3.4179">
        <ele>33</ele>
        <time>2018-06-25T09:07:27.662Z</time>
      </trkpt>
      <trkpt lat="50.33065" lon="3.41759">
        <ele>32</ele>
        <time>2018-06-25T09:07:28.662Z</time>
      </trkpt>
      <trkpt lat="50.33013" lon="3.42158">
        <ele>31</ele>
        <time>2018-06-25T09:07:29.662Z</time>
      </trkpt>
      <trkpt lat="50.32991" lon="3.42377">
        <ele>29</ele>
        <time>2018-06-25T09:07:30.662Z</time>
      </trkpt>
      <trkpt lat="50.32856" lon="3.43034">
        <ele>29</ele>
        <time>2018-06-25T09:07:31.662Z</time>
      </trkpt>
      <trkpt lat="50.32833" lon="3.43121">
        <ele>28</ele>
        <time>2018-06-25T09:07:32.662Z</time>
      </trkpt>
      <trkpt lat="50.32786" lon="3.43254">
        <ele>27</ele>
        <time>2018-06-25T09:07:33.662Z</time>
      </trkpt>
      <trkpt lat="50.3274" lon="3.43359">
        <ele>27</ele>
        <time>2018-06-25T09:07:34.662Z</time>
      </trkpt>
      <trkpt lat="50.32643" lon="3.43549">
        <ele>29</ele>
        <time>2018-06-25T09:07:35.662Z</time>
      </trkpt>
      <trkpt lat="50.32552" lon="3.43694">
        <ele>27</ele>
        <time>2018-06-25T09:07:36.662Z</time>
      </trkpt>
      <trkpt lat="50.3249" lon="3.43687">
        <ele>28</ele>
        <time>2018-06-25T09:07:37.662Z</time>
      </trkpt>
      <trkpt lat="50.3249" lon="3.4369">
        <ele>27</ele>
        <time>2018-06-25T09:07:38.662Z</time>
      </trkpt>
      <trkpt lat="50.32446" lon="3.43842">
        <ele>29</ele>
        <time>2018-06-25T09:07:39.662Z</time>
      </trkpt>
      <trkpt lat="50.32435" lon="3.43888">
        <ele>29</ele>
        <time>2018-06-25T09:07:40.662Z</time>
      </trkpt>
      <trkpt lat="50.32421" lon="3.44025">
        <ele>28</ele>
        <time>2018-06-25T09:07:41.662Z</time>
      </trkpt>
      <trkpt lat="50.324" lon="3.44103">
        <ele>28</ele>
        <time>2018-06-25T09:07:42.662Z</time>
      </trkpt>
      <trkpt lat="50.32367" lon="3.44163">
        <ele>27</ele>
        <time>2018-06-25T09:07:43.662Z</time>
      </trkpt>
      <trkpt lat="50.32226" lon="3.44377">
        <ele>30</ele>
        <time>2018-06-25T09:07:44.662Z</time>
      </trkpt>
      <trkpt lat="50.32005" lon="3.44679">
        <ele>28</ele>
        <time>2018-06-25T09:07:45.662Z</time>
      </trkpt>
      <trkpt lat="50.31874" lon="3.44763">
        <ele>31</ele>
        <time>2018-06-25T09:07:46.662Z</time>
      </trkpt>
      <trkpt lat="50.3176" lon="3.44817">
        <ele>31</ele>
        <time>2018-06-25T09:07:47.662Z</time>
      </trkpt>
      <trkpt lat="50.31753" lon="3.44834">
        <ele>31</ele>
        <time>2018-06-25T09:07:48.662Z</time>
      </trkpt>
      <trkpt lat="50.31782" lon="3.44977">
        <ele>36</ele>
        <time>2018-06-25T09:07:49.662Z</time>
      </trkpt>
      <trkpt lat="50.31757" lon="3.45008">
        <ele>34</ele>
        <time>2018-06-25T09:07:50.662Z</time>
      </trkpt>
      <trkpt lat="50.31755" lon="3.45025">
        <ele>34</ele>
        <time>2018-06-25T09:07:51.662Z</time>
      </trkpt>
      <trkpt lat="50.31773" lon="3.45182">
        <ele>33</ele>
        <time>2018-06-25T09:07:52.662Z</time>
      </trkpt>
      <trkpt lat="50.31769" lon="3.45202">
        <ele>32</ele>
        <time>2018-06-25T09:07:53.662Z</time>
      </trkpt>
      <trkpt lat="50.31759" lon="3.45229">
        <ele>31</ele>
        <time>2018-06-25T09:07:54.662Z</time>
      </trkpt>
      <trkpt lat="50.31541" lon="3.455">
        <ele>27</ele>
        <time>2018-06-25T09:07:55.662Z</time>
      </trkpt>
      <trkpt lat="50.31499" lon="3.45531">
        <ele>27</ele>
        <time>2018-06-25T09:07:56.662Z</time>
      </trkpt>
      <trkpt lat="50.31493" lon="3.45524">
        <ele>27</ele>
        <time>2018-06-25T09:07:57.662Z</time>
      </trkpt>
      <trkpt lat="50.31479" lon="3.4547">
        <ele>27</ele>
        <time>2018-06-25T09:07:58.662Z</time>
      </trkpt>
      <trkpt lat="50.31412" lon="3.45285">
        <ele>30</ele>
        <time>2018-06-25T09:07:59.662Z</time>
      </trkpt>
      <trkpt lat="50.31394" lon="3.45246">
        <ele>30</ele>
        <time>2018-06-25T09:08:00.662Z</time>
      </trkpt>
      <trkpt lat="50.31391" lon="3.45253">
        <ele>30</ele>
        <time>2018-06-25T09:08:01.662Z</time>
      </trkpt>
      <trkpt lat="50.31383" lon="3.45242">
        <ele>30</ele>
        <time>2018-06-25T09:08:02.662Z</time>
      </trkpt>
      <trkpt lat="50.31273" lon="3.45165">
        <ele>29</ele>
        <time>2018-06-25T09:08:03.662Z</time>
      </trkpt>
      <trkpt lat="50.31262" lon="3.45152">
        <ele>29</ele>
        <time>2018-06-25T09:08:04.662Z</time>
      </trkpt>
      <trkpt lat="50.31105" lon="3.44857">
        <ele>27</ele>
        <time>2018-06-25T09:08:05.662Z</time>
      </trkpt>
      <trkpt lat="50.3108" lon="3.4484">
        <ele>27</ele>
        <time>2018-06-25T09:08:06.662Z</time>
      </trkpt>
      <trkpt lat="50.31079" lon="3.44847">
        <ele>27</ele>
        <time>2018-06-25T09:08:07.662Z</time>
      </trkpt>
      <trkpt lat="50.30943" lon="3.44803">
        <ele>27</ele>
        <time>2018-06-25T09:08:08.662Z</time>
      </trkpt>
      <trkpt lat="50.30894" lon="3.44934">
        <ele>26</ele>
        <time>2018-06-25T09:08:09.662Z</time>
      </trkpt>
      <trkpt lat="50.30854" lon="3.45074">
        <ele>27</ele>
        <time>2018-06-25T09:08:10.662Z</time>
      </trkpt>
      <trkpt lat="50.30796" lon="3.45172">
        <ele>27</ele>
        <time>2018-06-25T09:08:11.662Z</time>
      </trkpt>
      <trkpt lat="50.30755" lon="3.45222">
        <ele>28</ele>
        <time>2018-06-25T09:08:12.662Z</time>
      </trkpt>
      <trkpt lat="50.30708" lon="3.45186">
        <ele>27</ele>
        <time>2018-06-25T09:08:13.662Z</time>
      </trkpt>
      <trkpt lat="50.30651" lon="3.45128">
        <ele>28</ele>
        <time>2018-06-25T09:08:14.662Z</time>
      </trkpt>
      <trkpt lat="50.30642" lon="3.45108">
        <ele>29</ele>
        <time>2018-06-25T09:08:15.662Z</time>
      </trkpt>
      <trkpt lat="50.3062" lon="3.45038">
        <ele>31</ele>
        <time>2018-06-25T09:08:16.662Z</time>
      </trkpt>
      <trkpt lat="50.3061" lon="3.45015">
        <ele>32</ele>
        <time>2018-06-25T09:08:17.662Z</time>
      </trkpt>
      <trkpt lat="50.3058" lon="3.44991">
        <ele>33</ele>
        <time>2018-06-25T09:08:18.662Z</time>
      </trkpt>
      <trkpt lat="50.3056" lon="3.44984">
        <ele>33</ele>
        <time>2018-06-25T09:08:19.662Z</time>
      </trkpt>
      <trkpt lat="50.30459" lon="3.44977">
        <ele>33</ele>
        <time>2018-06-25T09:08:20.662Z</time>
      </trkpt>
      <trkpt lat="50.30441" lon="3.45222">
        <ele>30</ele>
        <time>2018-06-25T09:08:21.662Z</time>
      </trkpt>
      <trkpt lat="50.30442" lon="3.45252">
        <ele>30</ele>
        <time>2018-06-25T09:08:22.662Z</time>
      </trkpt>
      <trkpt lat="50.30457" lon="3.45299">
        <ele>30</ele>
        <time>2018-06-25T09:08:23.662Z</time>
      </trkpt>
      <trkpt lat="50.30446" lon="3.45363">
        <ele>30</ele>
        <time>2018-06-25T09:08:24.662Z</time>
      </trkpt>
      <trkpt lat="50.30312" lon="3.45306">
        <ele>30</ele>
        <time>2018-06-25T09:08:25.662Z</time>
      </trkpt>
      <trkpt lat="50.3028" lon="3.45259">
        <ele>30</ele>
        <time>2018-06-25T09:08:26.662Z</time>
      </trkpt>
      <trkpt lat="50.30238" lon="3.45229">
        <ele>30</ele>
        <time>2018-06-25T09:08:27.662Z</time>
      </trkpt>
      <trkpt lat="50.30239" lon="3.45232">
        <ele>30</ele>
        <time>2018-06-25T09:08:28.662Z</time>
      </trkpt>
      <trkpt lat="50.30152" lon="3.45186">
        <ele>29</ele>
        <time>2018-06-25T09:08:29.662Z</time>
      </trkpt>
      <trkpt lat="50.30108" lon="3.45165">
        <ele>28</ele>
        <time>2018-06-25T09:08:30.662Z</time>
      </trkpt>
      <trkpt lat="50.30013" lon="3.45149">
        <ele>29</ele>
        <time>2018-06-25T09:08:31.662Z</time>
      </trkpt>
      <trkpt lat="50.29984" lon="3.45152">
        <ele>29</ele>
        <time>2018-06-25T09:08:32.662Z</time>
      </trkpt>
      <trkpt lat="50.29971" lon="3.45182">
        <ele>29</ele>
        <time>2018-06-25T09:08:33.662Z</time>
      </trkpt>
      <trkpt lat="50.29968" lon="3.45228">
        <ele>30</ele>
        <time>2018-06-25T09:08:34.662Z</time>
      </trkpt>
      <trkpt lat="50.29951" lon="3.45246">
        <ele>30</ele>
        <time>2018-06-25T09:08:35.662Z</time>
      </trkpt>
      <trkpt lat="50.29865" lon="3.45249">
        <ele>30</ele>
        <time>2018-06-25T09:08:36.662Z</time>
      </trkpt>
      <trkpt lat="50.29742" lon="3.45225">
        <ele>29</ele>
        <time>2018-06-25T09:08:37.662Z</time>
      </trkpt>
      <trkpt lat="50.29677" lon="3.45219">
        <ele>29</ele>
        <time>2018-06-25T09:08:38.662Z</time>
      </trkpt>
      <trkpt lat="50.29467" lon="3.45246">
        <ele>30</ele>
        <time>2018-06-25T09:08:39.662Z</time>
      </trkpt>
      <trkpt lat="50.29338" lon="3.45272">
        <ele>32</ele>
        <time>2018-06-25T09:08:40.662Z</time>
      </trkpt>
      <trkpt lat="50.29072" lon="3.45363">
        <ele>32</ele>
        <time>2018-06-25T09:08:41.662Z</time>
      </trkpt>
      <trkpt lat="50.28899" lon="3.45501">
        <ele>34</ele>
        <time>2018-06-25T09:08:42.662Z</time>
      </trkpt>
      <trkpt lat="50.28854" lon="3.45521">
        <ele>36</ele>
        <time>2018-06-25T09:08:43.662Z</time>
      </trkpt>
      <trkpt lat="50.2885" lon="3.45534">
        <ele>37</ele>
        <time>2018-06-25T09:08:44.662Z</time>
      </trkpt>
      <trkpt lat="50.2893" lon="3.45553">
        <ele>39</ele>
        <time>2018-06-25T09:08:45.662Z</time>
      </trkpt>
      <trkpt lat="50.29006" lon="3.45607">
        <ele>44</ele>
        <time>2018-06-25T09:08:46.662Z</time>
      </trkpt>
      <trkpt lat="50.28993" lon="3.45598">
        <ele>43</ele>
        <time>2018-06-25T09:08:47.662Z</time>
      </trkpt>
      <trkpt lat="50.29271" lon="3.45856">
        <ele>47</ele>
        <time>2018-06-25T09:08:48.662Z</time>
      </trkpt>
      <trkpt lat="50.29296" lon="3.45895">
        <ele>48</ele>
        <time>2018-06-25T09:08:49.662Z</time>
      </trkpt>
      <trkpt lat="50.29362" lon="3.46027">
        <ele>50</ele>
        <time>2018-06-25T09:08:50.662Z</time>
      </trkpt>
      <trkpt lat="50.2939" lon="3.46066">
        <ele>50</ele>
        <time>2018-06-25T09:08:51.662Z</time>
      </trkpt>
      <trkpt lat="50.29467" lon="3.46137">
        <ele>52</ele>
        <time>2018-06-25T09:08:52.662Z</time>
      </trkpt>
      <trkpt lat="50.29571" lon="3.46261">
        <ele>53</ele>
        <time>2018-06-25T09:08:53.662Z</time>
      </trkpt>
      <trkpt lat="50.29671" lon="3.46405">
        <ele>54</ele>
        <time>2018-06-25T09:08:54.662Z</time>
      </trkpt>
      <trkpt lat="50.29738" lon="3.4655">
        <ele>54</ele>
        <time>2018-06-25T09:08:55.662Z</time>
      </trkpt>
      <trkpt lat="50.29805" lon="3.46734">
        <ele>55</ele>
        <time>2018-06-25T09:08:56.662Z</time>
      </trkpt>
      <trkpt lat="50.29978" lon="3.47153">
        <ele>50</ele>
        <time>2018-06-25T09:08:57.662Z</time>
      </trkpt>
      <trkpt lat="50.30002" lon="3.47283">
        <ele>46</ele>
        <time>2018-06-25T09:08:58.662Z</time>
      </trkpt>
      <trkpt lat="50.30016" lon="3.47398">
        <ele>44</ele>
        <time>2018-06-25T09:08:59.662Z</time>
      </trkpt>
      <trkpt lat="50.30098" lon="3.47692">
        <ele>47</ele>
        <time>2018-06-25T09:09:00.662Z</time>
      </trkpt>
      <trkpt lat="50.30211" lon="3.47924">
        <ele>44</ele>
        <time>2018-06-25T09:09:01.662Z</time>
      </trkpt>
      <trkpt lat="50.30266" lon="3.48087">
        <ele>43</ele>
        <time>2018-06-25T09:09:02.662Z</time>
      </trkpt>
      <trkpt lat="50.30303" lon="3.48158">
        <ele>43</ele>
        <time>2018-06-25T09:09:03.662Z</time>
      </trkpt>
      <trkpt lat="50.30304" lon="3.48191">
        <ele>44</ele>
        <time>2018-06-25T09:09:04.662Z</time>
      </trkpt>
      <trkpt lat="50.30191" lon="3.48332">
        <ele>49</ele>
        <time>2018-06-25T09:09:05.662Z</time>
      </trkpt>
      <trkpt lat="50.30107" lon="3.48409">
        <ele>51</ele>
        <time>2018-06-25T09:09:06.662Z</time>
      </trkpt>
      <trkpt lat="50.30035" lon="3.48463">
        <ele>55</ele>
        <time>2018-06-25T09:09:07.662Z</time>
      </trkpt>
      <trkpt lat="50.30004" lon="3.485">
        <ele>57</ele>
        <time>2018-06-25T09:09:08.662Z</time>
      </trkpt>
      <trkpt lat="50.29926" lon="3.48634">
        <ele>61</ele>
        <time>2018-06-25T09:09:09.662Z</time>
      </trkpt>
      <trkpt lat="50.2989" lon="3.48768">
        <ele>65</ele>
        <time>2018-06-25T09:09:10.662Z</time>
      </trkpt>
      <trkpt lat="50.29841" lon="3.48882">
        <ele>67</ele>
        <time>2018-06-25T09:09:11.662Z</time>
      </trkpt>
      <trkpt lat="50.29729" lon="3.49022">
        <ele>70</ele>
        <time>2018-06-25T09:09:12.662Z</time>
      </trkpt>
      <trkpt lat="50.2963" lon="3.4909">
        <ele>72</ele>
        <time>2018-06-25T09:09:13.662Z</time>
      </trkpt>
      <trkpt lat="50.29526" lon="3.49254">
        <ele>72</ele>
        <time>2018-06-25T09:09:14.662Z</time>
      </trkpt>
      <trkpt lat="50.29513" lon="3.49287">
        <ele>72</ele>
        <time>2018-06-25T09:09:15.662Z</time>
      </trkpt>
      <trkpt lat="50.29501" lon="3.49355">
        <ele>72</ele>
        <time>2018-06-25T09:09:16.662Z</time>
      </trkpt>
      <trkpt lat="50.29501" lon="3.49522">
        <ele>73</ele>
        <time>2018-06-25T09:09:17.662Z</time>
      </trkpt>
      <trkpt lat="50.29489" lon="3.49717">
        <ele>78</ele>
        <time>2018-06-25T09:09:18.662Z</time>
      </trkpt>
      <trkpt lat="50.29471" lon="3.49794">
        <ele>78</ele>
        <time>2018-06-25T09:09:19.662Z</time>
      </trkpt>
      <trkpt lat="50.29412" lon="3.49897">
        <ele>77</ele>
        <time>2018-06-25T09:09:20.662Z</time>
      </trkpt>
      <trkpt lat="50.29378" lon="3.49994">
        <ele>76</ele>
        <time>2018-06-25T09:09:21.662Z</time>
      </trkpt>
      <trkpt lat="50.29325" lon="3.50324">
        <ele>75</ele>
        <time>2018-06-25T09:09:22.662Z</time>
      </trkpt>
      <trkpt lat="50.2928" lon="3.50454">
        <ele>72</ele>
        <time>2018-06-25T09:09:23.662Z</time>
      </trkpt>
      <trkpt lat="50.29221" lon="3.50588">
        <ele>72</ele>
        <time>2018-06-25T09:09:24.662Z</time>
      </trkpt>
      <trkpt lat="50.29164" lon="3.50866">
        <ele>79</ele>
        <time>2018-06-25T09:09:25.662Z</time>
      </trkpt>
      <trkpt lat="50.29091" lon="3.51115">
        <ele>85</ele>
        <time>2018-06-25T09:09:26.662Z</time>
      </trkpt>
      <trkpt lat="50.29042" lon="3.51225">
        <ele>87</ele>
        <time>2018-06-25T09:09:27.662Z</time>
      </trkpt>
      <trkpt lat="50.29002" lon="3.51369">
        <ele>89</ele>
        <time>2018-06-25T09:09:28.662Z</time>
      </trkpt>
      <trkpt lat="50.28995" lon="3.51452">
        <ele>89</ele>
        <time>2018-06-25T09:09:29.662Z</time>
      </trkpt>
      <trkpt lat="50.28962" lon="3.51563">
        <ele>88</ele>
        <time>2018-06-25T09:09:30.662Z</time>
      </trkpt>
      <trkpt lat="50.29022" lon="3.51868">
        <ele>82</ele>
        <time>2018-06-25T09:09:31.662Z</time>
      </trkpt>
      <trkpt lat="50.29013" lon="3.51969">
        <ele>79</ele>
        <time>2018-06-25T09:09:32.662Z</time>
      </trkpt>
      <trkpt lat="50.28943" lon="3.52194">
        <ele>78</ele>
        <time>2018-06-25T09:09:33.662Z</time>
      </trkpt>
      <trkpt lat="50.28908" lon="3.52361">
        <ele>81</ele>
        <time>2018-06-25T09:09:34.662Z</time>
      </trkpt>
      <trkpt lat="50.28879" lon="3.52606">
        <ele>87</ele>
        <time>2018-06-25T09:09:35.662Z</time>
      </trkpt>
      <trkpt lat="50.28854" lon="3.52697">
        <ele>89</ele>
        <time>2018-06-25T09:09:36.662Z</time>
      </trkpt>
      <trkpt lat="50.28817" lon="3.52928">
        <ele>93</ele>
        <time>2018-06-25T09:09:37.662Z</time>
      </trkpt>
      <trkpt lat="50.28679" lon="3.52975">
        <ele>91</ele>
        <time>2018-06-25T09:09:38.662Z</time>
      </trkpt>
      <trkpt lat="50.28298" lon="3.53149">
        <ele>86</ele>
        <time>2018-06-25T09:09:39.662Z</time>
      </trkpt>
      <trkpt lat="50.28042" lon="3.53229">
        <ele>91</ele>
        <time>2018-06-25T09:09:40.662Z</time>
      </trkpt>
      <trkpt lat="50.27665" lon="3.53383">
        <ele>93</ele>
        <time>2018-06-25T09:09:41.662Z</time>
      </trkpt>
      <trkpt lat="50.27626" lon="3.53404">
        <ele>93</ele>
        <time>2018-06-25T09:09:42.662Z</time>
      </trkpt>
      <trkpt lat="50.27522" lon="3.53437">
        <ele>91</ele>
        <time>2018-06-25T09:09:43.662Z</time>
      </trkpt>
      <trkpt lat="50.27327" lon="3.53534">
        <ele>86</ele>
        <time>2018-06-25T09:09:44.662Z</time>
      </trkpt>
      <trkpt lat="50.27296" lon="3.53534">
        <ele>85</ele>
        <time>2018-06-25T09:09:45.662Z</time>
      </trkpt>
      <trkpt lat="50.27224" lon="3.53511">
        <ele>85</ele>
        <time>2018-06-25T09:09:46.662Z</time>
      </trkpt>
      <trkpt lat="50.26798" lon="3.53474">
        <ele>80</ele>
        <time>2018-06-25T09:09:47.662Z</time>
      </trkpt>
      <trkpt lat="50.26365" lon="3.5335">
        <ele>86</ele>
        <time>2018-06-25T09:09:48.662Z</time>
      </trkpt>
      <trkpt lat="50.26233" lon="3.533">
        <ele>91</ele>
        <time>2018-06-25T09:09:49.662Z</time>
      </trkpt>
      <trkpt lat="50.26172" lon="3.53296">
        <ele>93</ele>
        <time>2018-06-25T09:09:50.662Z</time>
      </trkpt>
      <trkpt lat="50.26072" lon="3.53319">
        <ele>93</ele>
        <time>2018-06-25T09:09:51.662Z</time>
      </trkpt>
      <trkpt lat="50.26025" lon="3.53309">
        <ele>93</ele>
        <time>2018-06-25T09:09:52.662Z</time>
      </trkpt>
      <trkpt lat="50.25933" lon="3.53266">
        <ele>94</ele>
        <time>2018-06-25T09:09:53.662Z</time>
      </trkpt>
      <trkpt lat="50.2558" lon="3.53273">
        <ele>85</ele>
        <time>2018-06-25T09:09:54.662Z</time>
      </trkpt>
      <trkpt lat="50.25459" lon="3.53317">
        <ele>83</ele>
        <time>2018-06-25T09:09:55.662Z</time>
      </trkpt>
      <trkpt lat="50.25365" lon="3.53307">
        <ele>80</ele>
        <time>2018-06-25T09:09:56.662Z</time>
      </trkpt>
      <trkpt lat="50.25202" lon="3.53323">
        <ele>73</ele>
        <time>2018-06-25T09:09:57.662Z</time>
      </trkpt>
      <trkpt lat="50.25178" lon="3.5338">
        <ele>73</ele>
        <time>2018-06-25T09:09:58.662Z</time>
      </trkpt>
      <trkpt lat="50.25123" lon="3.53447">
        <ele>72</ele>
        <time>2018-06-25T09:09:59.662Z</time>
      </trkpt>
      <trkpt lat="50.25031" lon="3.53638">
        <ele>75</ele>
        <time>2018-06-25T09:10:00.662Z</time>
      </trkpt>
      <trkpt lat="50.24966" lon="3.53745">
        <ele>74</ele>
        <time>2018-06-25T09:10:01.662Z</time>
      </trkpt>
      <trkpt lat="50.2494" lon="3.53729">
        <ele>73</ele>
        <time>2018-06-25T09:10:02.662Z</time>
      </trkpt>
      <trkpt lat="50.2489" lon="3.53722">
        <ele>69</ele>
        <time>2018-06-25T09:10:03.662Z</time>
      </trkpt>
      <trkpt lat="50.24873" lon="3.53739">
        <ele>67</ele>
        <time>2018-06-25T09:10:04.662Z</time>
      </trkpt>
      <trkpt lat="50.24809" lon="3.5385">
        <ele>65</ele>
        <time>2018-06-25T09:10:05.662Z</time>
      </trkpt>
      <trkpt lat="50.248" lon="3.5388">
        <ele>65</ele>
        <time>2018-06-25T09:10:06.662Z</time>
      </trkpt>
      <trkpt lat="50.24807" lon="3.54034">
        <ele>68</ele>
        <time>2018-06-25T09:10:07.662Z</time>
      </trkpt>
      <trkpt lat="50.24804" lon="3.54077">
        <ele>69</ele>
        <time>2018-06-25T09:10:08.662Z</time>
      </trkpt>
      <trkpt lat="50.24776" lon="3.54211">
        <ele>67</ele>
        <time>2018-06-25T09:10:09.662Z</time>
      </trkpt>
      <trkpt lat="50.24751" lon="3.54272">
        <ele>65</ele>
        <time>2018-06-25T09:10:10.662Z</time>
      </trkpt>
      <trkpt lat="50.24686" lon="3.54479">
        <ele>64</ele>
        <time>2018-06-25T09:10:11.662Z</time>
      </trkpt>
      <trkpt lat="50.24663" lon="3.54761">
        <ele>63</ele>
        <time>2018-06-25T09:10:12.662Z</time>
      </trkpt>
      <trkpt lat="50.24682" lon="3.54892">
        <ele>65</ele>
        <time>2018-06-25T09:10:13.662Z</time>
      </trkpt>
      <trkpt lat="50.24688" lon="3.55096">
        <ele>69</ele>
        <time>2018-06-25T09:10:14.662Z</time>
      </trkpt>
      <trkpt lat="50.24684" lon="3.5515">
        <ele>68</ele>
        <time>2018-06-25T09:10:15.662Z</time>
      </trkpt>
      <trkpt lat="50.24668" lon="3.5521">
        <ele>65</ele>
        <time>2018-06-25T09:10:16.662Z</time>
      </trkpt>
      <trkpt lat="50.24657" lon="3.55318">
        <ele>66</ele>
        <time>2018-06-25T09:10:17.662Z</time>
      </trkpt>
      <trkpt lat="50.24632" lon="3.55434">
        <ele>67</ele>
        <time>2018-06-25T09:10:18.662Z</time>
      </trkpt>
      <trkpt lat="50.24611" lon="3.55562">
        <ele>67</ele>
        <time>2018-06-25T09:10:19.662Z</time>
      </trkpt>
      <trkpt lat="50.24545" lon="3.55682">
        <ele>67</ele>
        <time>2018-06-25T09:10:20.662Z</time>
      </trkpt>
      <trkpt lat="50.24524" lon="3.55746">
        <ele>69</ele>
        <time>2018-06-25T09:10:21.662Z</time>
      </trkpt>
      <trkpt lat="50.24501" lon="3.55904">
        <ele>68</ele>
        <time>2018-06-25T09:10:22.662Z</time>
      </trkpt>
      <trkpt lat="50.2449" lon="3.55941">
        <ele>68</ele>
        <time>2018-06-25T09:10:23.662Z</time>
      </trkpt>
      <trkpt lat="50.24437" lon="3.56017">
        <ele>69</ele>
        <time>2018-06-25T09:10:24.662Z</time>
      </trkpt>
      <trkpt lat="50.24399" lon="3.56092">
        <ele>70</ele>
        <time>2018-06-25T09:10:25.662Z</time>
      </trkpt>
      <trkpt lat="50.24401" lon="3.56105">
        <ele>70</ele>
        <time>2018-06-25T09:10:26.662Z</time>
      </trkpt>
      <trkpt lat="50.24441" lon="3.56179">
        <ele>73</ele>
        <time>2018-06-25T09:10:27.662Z</time>
      </trkpt>
      <trkpt lat="50.24499" lon="3.56246">
        <ele>82</ele>
        <time>2018-06-25T09:10:28.662Z</time>
      </trkpt>
      <trkpt lat="50.24704" lon="3.5641">
        <ele>91</ele>
        <time>2018-06-25T09:10:29.662Z</time>
      </trkpt>
      <trkpt lat="50.24705" lon="3.5641">
        <ele>91</ele>
        <time>2018-06-25T09:10:30.662Z</time>
      </trkpt>
      <trkpt lat="50.24702" lon="3.56637">
        <ele>94</ele>
        <time>2018-06-25T09:10:31.662Z</time>
      </trkpt>
      <trkpt lat="50.24689" lon="3.56985">
        <ele>97</ele>
        <time>2018-06-25T09:10:32.662Z</time>
      </trkpt>
      <trkpt lat="50.24691" lon="3.57641">
        <ele>99</ele>
        <time>2018-06-25T09:10:33.662Z</time>
      </trkpt>
      <trkpt lat="50.24685" lon="3.57745">
        <ele>100</ele>
        <time>2018-06-25T09:10:34.662Z</time>
      </trkpt>
      <trkpt lat="50.24678" lon="3.5783">
        <ele>100</ele>
        <time>2018-06-25T09:10:35.662Z</time>
      </trkpt>
      <trkpt lat="50.24654" lon="3.58037">
        <ele>98</ele>
        <time>2018-06-25T09:10:36.662Z</time>
      </trkpt>
      <trkpt lat="50.24644" lon="3.58081">
        <ele>98</ele>
        <time>2018-06-25T09:10:37.662Z</time>
      </trkpt>
      <trkpt lat="50.24586" lon="3.5825">
        <ele>98</ele>
        <time>2018-06-25T09:10:38.662Z</time>
      </trkpt>
      <trkpt lat="50.24548" lon="3.58375">
        <ele>95</ele>
        <time>2018-06-25T09:10:39.662Z</time>
      </trkpt>
      <trkpt lat="50.24532" lon="3.58441">
        <ele>95</ele>
        <time>2018-06-25T09:10:40.662Z</time>
      </trkpt>
      <trkpt lat="50.24514" lon="3.58537">
        <ele>96</ele>
        <time>2018-06-25T09:10:41.662Z</time>
      </trkpt>
      <trkpt lat="50.24514" lon="3.58537">
        <ele>96</ele>
        <time>2018-06-25T09:10:42.662Z</time>
      </trkpt>
      <trkpt lat="50.24501" lon="3.58608">
        <ele>96</ele>
        <time>2018-06-25T09:10:43.662Z</time>
      </trkpt>
      <trkpt lat="50.24487" lon="3.58615">
        <ele>95</ele>
        <time>2018-06-25T09:10:44.662Z</time>
      </trkpt>
      <trkpt lat="50.24446" lon="3.58641">
        <ele>94</ele>
        <time>2018-06-25T09:10:45.662Z</time>
      </trkpt>
      <trkpt lat="50.24406" lon="3.58672">
        <ele>92</ele>
        <time>2018-06-25T09:10:46.662Z</time>
      </trkpt>
      <trkpt lat="50.24382" lon="3.58702">
        <ele>89</ele>
        <time>2018-06-25T09:10:47.662Z</time>
      </trkpt>
      <trkpt lat="50.24362" lon="3.58746">
        <ele>88</ele>
        <time>2018-06-25T09:10:48.662Z</time>
      </trkpt>
      <trkpt lat="50.24344" lon="3.58818">
        <ele>88</ele>
        <time>2018-06-25T09:10:49.662Z</time>
      </trkpt>
      <trkpt lat="50.24303" lon="3.58933">
        <ele>91</ele>
        <time>2018-06-25T09:10:50.662Z</time>
      </trkpt>
      <trkpt lat="50.2427" lon="3.59004">
        <ele>90</ele>
        <time>2018-06-25T09:10:51.662Z</time>
      </trkpt>
      <trkpt lat="50.24248" lon="3.59043">
        <ele>88</ele>
        <time>2018-06-25T09:10:52.662Z</time>
      </trkpt>
      <trkpt lat="50.24211" lon="3.59068">
        <ele>85</ele>
        <time>2018-06-25T09:10:53.662Z</time>
      </trkpt>
      <trkpt lat="50.24169" lon="3.59093">
        <ele>81</ele>
        <time>2018-06-25T09:10:54.662Z</time>
      </trkpt>
      <trkpt lat="50.24157" lon="3.59107">
        <ele>81</ele>
        <time>2018-06-25T09:10:55.662Z</time>
      </trkpt>
      <trkpt lat="50.24132" lon="3.59174">
        <ele>82</ele>
        <time>2018-06-25T09:10:56.662Z</time>
      </trkpt>
      <trkpt lat="50.24113" lon="3.59234">
        <ele>82</ele>
        <time>2018-06-25T09:10:57.662Z</time>
      </trkpt>
      <trkpt lat="50.24098" lon="3.59253">
        <ele>81</ele>
        <time>2018-06-25T09:10:58.662Z</time>
      </trkpt>
      <trkpt lat="50.24102" lon="3.5926">
        <ele>82</ele>
        <time>2018-06-25T09:10:59.662Z</time>
      </trkpt>
      <trkpt lat="50.24121" lon="3.59337">
        <ele>86</ele>
        <time>2018-06-25T09:11:00.662Z</time>
      </trkpt>
      <trkpt lat="50.24128" lon="3.59353">
        <ele>87</ele>
        <time>2018-06-25T09:11:01.662Z</time>
      </trkpt>
      <trkpt lat="50.24152" lon="3.59387">
        <ele>89</ele>
        <time>2018-06-25T09:11:02.662Z</time>
      </trkpt>
      <trkpt lat="50.24189" lon="3.59449">
        <ele>95</ele>
        <time>2018-06-25T09:11:03.662Z</time>
      </trkpt>
      <trkpt lat="50.24232" lon="3.59513">
        <ele>99</ele>
        <time>2018-06-25T09:11:04.662Z</time>
      </trkpt>
      <trkpt lat="50.24243" lon="3.59524">
        <ele>99</ele>
        <time>2018-06-25T09:11:05.662Z</time>
      </trkpt>
      <trkpt lat="50.24236" lon="3.59545">
        <ele>100</ele>
        <time>2018-06-25T09:11:06.662Z</time>
      </trkpt>
      <trkpt lat="50.24221" lon="3.59562">
        <ele>100</ele>
        <time>2018-06-25T09:11:07.662Z</time>
      </trkpt>
      <trkpt lat="50.24201" lon="3.59575">
        <ele>101</ele>
        <time>2018-06-25T09:11:08.662Z</time>
      </trkpt>
      <trkpt lat="50.24134" lon="3.596">
        <ele>101</ele>
        <time>2018-06-25T09:11:09.662Z</time>
      </trkpt>
      <trkpt lat="50.24002" lon="3.59707">
        <ele>101</ele>
        <time>2018-06-25T09:11:10.662Z</time>
      </trkpt>
      <trkpt lat="50.23899" lon="3.59776">
        <ele>103</ele>
        <time>2018-06-25T09:11:11.662Z</time>
      </trkpt>
      <trkpt lat="50.23869" lon="3.59801">
        <ele>104</ele>
        <time>2018-06-25T09:11:12.662Z</time>
      </trkpt>
      <trkpt lat="50.23796" lon="3.59869">
        <ele>105</ele>
        <time>2018-06-25T09:11:13.662Z</time>
      </trkpt>
      <trkpt lat="50.23769" lon="3.59899">
        <ele>105</ele>
        <time>2018-06-25T09:11:14.662Z</time>
      </trkpt>
      <trkpt lat="50.23784" lon="3.59917">
        <ele>105</ele>
        <time>2018-06-25T09:11:15.662Z</time>
      </trkpt>
      <trkpt lat="50.23827" lon="3.59986">
        <ele>107</ele>
        <time>2018-06-25T09:11:16.662Z</time>
      </trkpt>
      <trkpt lat="50.23844" lon="3.60018">
        <ele>107</ele>
        <time>2018-06-25T09:11:17.662Z</time>
      </trkpt>
      <trkpt lat="50.23896" lon="3.60134">
        <ele>110</ele>
        <time>2018-06-25T09:11:18.662Z</time>
      </trkpt>
      <trkpt lat="50.23941" lon="3.60247">
        <ele>112</ele>
        <time>2018-06-25T09:11:19.662Z</time>
      </trkpt>
      <trkpt lat="50.23955" lon="3.60271">
        <ele>113</ele>
        <time>2018-06-25T09:11:20.662Z</time>
      </trkpt>
      <trkpt lat="50.23974" lon="3.603">
        <ele>113</ele>
        <time>2018-06-25T09:11:21.662Z</time>
      </trkpt>
      <trkpt lat="50.24013" lon="3.60352">
        <ele>114</ele>
        <time>2018-06-25T09:11:22.662Z</time>
      </trkpt>
      <trkpt lat="50.24007" lon="3.6038">
        <ele>114</ele>
        <time>2018-06-25T09:11:23.662Z</time>
      </trkpt>
      <trkpt lat="50.23988" lon="3.60501">
        <ele>116</ele>
        <time>2018-06-25T09:11:24.662Z</time>
      </trkpt>
      <trkpt lat="50.23975" lon="3.6056">
        <ele>117</ele>
        <time>2018-06-25T09:11:25.662Z</time>
      </trkpt>
      <trkpt lat="50.23959" lon="3.60613">
        <ele>117</ele>
        <time>2018-06-25T09:11:26.662Z</time>
      </trkpt>
      <trkpt lat="50.23932" lon="3.60676">
        <ele>117</ele>
        <time>2018-06-25T09:11:27.662Z</time>
      </trkpt>
      <trkpt lat="50.23876" lon="3.60785">
        <ele>118</ele>
        <time>2018-06-25T09:11:28.662Z</time>
      </trkpt>
      <trkpt lat="50.23839" lon="3.6089">
        <ele>119</ele>
        <time>2018-06-25T09:11:29.662Z</time>
      </trkpt>
      <trkpt lat="50.23831" lon="3.60923">
        <ele>120</ele>
        <time>2018-06-25T09:11:30.662Z</time>
      </trkpt>
      <trkpt lat="50.23827" lon="3.60965">
        <ele>121</ele>
        <time>2018-06-25T09:11:31.662Z</time>
      </trkpt>
      <trkpt lat="50.23829" lon="3.61092">
        <ele>123</ele>
        <time>2018-06-25T09:11:32.662Z</time>
      </trkpt>
      <trkpt lat="50.23822" lon="3.61129">
        <ele>124</ele>
        <time>2018-06-25T09:11:33.662Z</time>
      </trkpt>
      <trkpt lat="50.23809" lon="3.61145">
        <ele>124</ele>
        <time>2018-06-25T09:11:34.662Z</time>
      </trkpt>
      <trkpt lat="50.23753" lon="3.61173">
        <ele>125</ele>
        <time>2018-06-25T09:11:35.662Z</time>
      </trkpt>
      <trkpt lat="50.23708" lon="3.61212">
        <ele>125</ele>
        <time>2018-06-25T09:11:36.662Z</time>
      </trkpt>
      <trkpt lat="50.23672" lon="3.61252">
        <ele>125</ele>
        <time>2018-06-25T09:11:37.662Z</time>
      </trkpt>
      <trkpt lat="50.23652" lon="3.61281">
        <ele>125</ele>
        <time>2018-06-25T09:11:38.662Z</time>
      </trkpt>
      <trkpt lat="50.23589" lon="3.61401">
        <ele>126</ele>
        <time>2018-06-25T09:11:39.662Z</time>
      </trkpt>
      <trkpt lat="50.23562" lon="3.61464">
        <ele>127</ele>
        <time>2018-06-25T09:11:40.662Z</time>
      </trkpt>
      <trkpt lat="50.23541" lon="3.61508">
        <ele>127</ele>
        <time>2018-06-25T09:11:41.662Z</time>
      </trkpt>
      <trkpt lat="50.23494" lon="3.6158">
        <ele>127</ele>
        <time>2018-06-25T09:11:42.662Z</time>
      </trkpt>
      <trkpt lat="50.23466" lon="3.6163">
        <ele>127</ele>
        <time>2018-06-25T09:11:43.662Z</time>
      </trkpt>
      <trkpt lat="50.23404" lon="3.61763">
        <ele>125</ele>
        <time>2018-06-25T09:11:44.662Z</time>
      </trkpt>
      <trkpt lat="50.23404" lon="3.61764">
        <ele>125</ele>
        <time>2018-06-25T09:11:45.662Z</time>
      </trkpt>
      <trkpt lat="50.23388" lon="3.61799">
        <ele>125</ele>
        <time>2018-06-25T09:11:46.662Z</time>
      </trkpt>
      <trkpt lat="50.23344" lon="3.6193">
        <ele>122</ele>
        <time>2018-06-25T09:11:47.662Z</time>
      </trkpt>
      <trkpt lat="50.23335" lon="3.6196">
        <ele>122</ele>
        <time>2018-06-25T09:11:48.662Z</time>
      </trkpt>
      <trkpt lat="50.23333" lon="3.61984">
        <ele>122</ele>
        <time>2018-06-25T09:11:49.662Z</time>
      </trkpt>
      <trkpt lat="50.23287" lon="3.6212">
        <ele>124</ele>
        <time>2018-06-25T09:11:50.662Z</time>
      </trkpt>
      <trkpt lat="50.23262" lon="3.62172">
        <ele>125</ele>
        <time>2018-06-25T09:11:51.662Z</time>
      </trkpt>
      <trkpt lat="50.23214" lon="3.62253">
        <ele>126</ele>
        <time>2018-06-25T09:11:52.662Z</time>
      </trkpt>
      <trkpt lat="50.23202" lon="3.62268">
        <ele>127</ele>
        <time>2018-06-25T09:11:53.662Z</time>
      </trkpt>
      <trkpt lat="50.23198" lon="3.62286">
        <ele>127</ele>
        <time>2018-06-25T09:11:54.662Z</time>
      </trkpt>
      <trkpt lat="50.23198" lon="3.62307">
        <ele>128</ele>
        <time>2018-06-25T09:11:55.662Z</time>
      </trkpt>
      <trkpt lat="50.23218" lon="3.62294">
        <ele>127</ele>
        <time>2018-06-25T09:11:56.662Z</time>
      </trkpt>
      <trkpt lat="50.23258" lon="3.62274">
        <ele>127</ele>
        <time>2018-06-25T09:11:57.662Z</time>
      </trkpt>
      <trkpt lat="50.23289" lon="3.62263">
        <ele>127</ele>
        <time>2018-06-25T09:11:58.662Z</time>
      </trkpt>
      <trkpt lat="50.23333" lon="3.62254">
        <ele>127</ele>
        <time>2018-06-25T09:11:59.662Z</time>
      </trkpt>
      <trkpt lat="50.23367" lon="3.62252">
        <ele>127</ele>
        <time>2018-06-25T09:12:00.662Z</time>
      </trkpt>
      <trkpt lat="50.23402" lon="3.62255">
        <ele>126</ele>
        <time>2018-06-25T09:12:01.662Z</time>
      </trkpt>
      <trkpt lat="50.23561" lon="3.62287">
        <ele>124</ele>
        <time>2018-06-25T09:12:02.662Z</time>
      </trkpt>
      <trkpt lat="50.23693" lon="3.6231">
        <ele>121</ele>
        <time>2018-06-25T09:12:03.662Z</time>
      </trkpt>
      <trkpt lat="50.23955" lon="3.62371">
        <ele>120</ele>
        <time>2018-06-25T09:12:04.662Z</time>
      </trkpt>
      <trkpt lat="50.24063" lon="3.62391">
        <ele>120</ele>
        <time>2018-06-25T09:12:05.662Z</time>
      </trkpt>
      <trkpt lat="50.23683" lon="3.62334">
        <ele>121</ele>
        <time>2018-06-25T08:55:04.973Z</time>
      </trkpt>
      <trkpt lat="50.24484" lon="3.62478">
        <ele>125</ele>
        <time>2018-06-25T08:55:05.973Z</time>
      </trkpt>
      <trkpt lat="50.24601" lon="3.62659">
        <ele>121</ele>
        <time>2018-06-25T08:55:06.973Z</time>
      </trkpt>
      <trkpt lat="50.24678" lon="3.62749">
        <ele>122</ele>
        <time>2018-06-25T08:55:07.973Z</time>
      </trkpt>
      <trkpt lat="50.24759" lon="3.62802">
        <ele>123</ele>
        <time>2018-06-25T08:55:08.973Z</time>
      </trkpt>
      <trkpt lat="50.24801" lon="3.62793">
        <ele>123</ele>
        <time>2018-06-25T08:55:09.973Z</time>
      </trkpt>
      <trkpt lat="50.2481" lon="3.62813">
        <ele>125</ele>
        <time>2018-06-25T08:55:10.973Z</time>
      </trkpt>
      <trkpt lat="50.24725" lon="3.6288">
        <ele>126</ele>
        <time>2018-06-25T08:55:11.973Z</time>
      </trkpt>
      <trkpt lat="50.24694" lon="3.62919">
        <ele>127</ele>
        <time>2018-06-25T08:55:12.973Z</time>
      </trkpt>
      <trkpt lat="50.24649" lon="3.629">
        <ele>127</ele>
        <time>2018-06-25T08:55:13.973Z</time>
      </trkpt>
      <trkpt lat="50.24591" lon="3.62803">
        <ele>127</ele>
        <time>2018-06-25T08:55:14.973Z</time>
      </trkpt>
      <trkpt lat="50.24582" lon="3.62812">
        <ele>128</ele>
        <time>2018-06-25T08:55:15.973Z</time>
      </trkpt>
      <trkpt lat="50.24551" lon="3.62958">
        <ele>127</ele>
        <time>2018-06-25T08:55:16.973Z</time>
      </trkpt>
      <trkpt lat="50.24521" lon="3.63033">
        <ele>125</ele>
        <time>2018-06-25T08:55:17.973Z</time>
      </trkpt>
      <trkpt lat="50.2452" lon="3.63078">
        <ele>125</ele>
        <time>2018-06-25T08:55:18.973Z</time>
      </trkpt>
      <trkpt lat="50.24417" lon="3.63105">
        <ele>128</ele>
        <time>2018-06-25T08:55:19.973Z</time>
      </trkpt>
      <trkpt lat="50.24417" lon="3.63099">
        <ele>128</ele>
        <time>2018-06-25T08:55:20.973Z</time>
      </trkpt>
      <trkpt lat="50.24411" lon="3.631">
        <ele>128</ele>
        <time>2018-06-25T08:55:21.973Z</time>
      </trkpt>
      <trkpt lat="50.24409" lon="3.63103">
        <ele>128</ele>
        <time>2018-06-25T08:55:22.973Z</time>
      </trkpt>
      <trkpt lat="50.24417" lon="3.63146">
        <ele>128</ele>
        <time>2018-06-25T08:55:23.973Z</time>
      </trkpt>
      <trkpt lat="50.24416" lon="3.63146">
        <ele>128</ele>
        <time>2018-06-25T08:55:24.973Z</time>
      </trkpt>
      <trkpt lat="50.24433" lon="3.6325">
        <ele>126</ele>
        <time>2018-06-25T08:55:25.973Z</time>
      </trkpt>
      <trkpt lat="50.24433" lon="3.6325">
        <ele>126</ele>
        <time>2018-06-25T08:55:26.973Z</time>
      </trkpt>
      <trkpt lat="50.24433" lon="3.63246">
        <ele>126</ele>
        <time>2018-06-25T08:55:27.973Z</time>
      </trkpt>
      <trkpt lat="50.24442" lon="3.63241">
        <ele>126</ele>
        <time>2018-06-25T08:55:28.973Z</time>
      </trkpt>
      <trkpt lat="50.24445" lon="3.63254">
        <ele>126</ele>
        <time>2018-06-25T08:55:29.973Z</time>
      </trkpt>
      <trkpt lat="50.2446" lon="3.63246">
        <ele>127</ele>
        <time>2018-06-25T08:55:30.973Z</time>
      </trkpt>
      <trkpt lat="50.24462" lon="3.63257">
        <ele>126</ele>
        <time>2018-06-25T08:55:31.973Z</time>
      </trkpt>
      <trkpt lat="50.2446" lon="3.63262">
        <ele>126</ele>
        <time>2018-06-25T08:55:32.973Z</time>
      </trkpt>
      <trkpt lat="50.24478" lon="3.63341">
        <ele>125</ele>
        <time>2018-06-25T08:55:33.973Z</time>
      </trkpt>
      <trkpt lat="50.2452" lon="3.6333">
        <ele>125</ele>
        <time>2018-06-25T08:55:34.973Z</time>
      </trkpt>
      <trkpt lat="50.24533" lon="3.63343">
        <ele>125</ele>
        <time>2018-06-25T08:55:35.973Z</time>
      </trkpt>
      <trkpt lat="50.24547" lon="3.63317">
        <ele>125</ele>
        <time>2018-06-25T08:55:36.973Z</time>
      </trkpt>
      <trkpt lat="50.24578" lon="3.63307">
        <ele>126</ele>
        <time>2018-06-25T08:55:37.973Z</time>
      </trkpt>
      <trkpt lat="50.24661" lon="3.63584">
        <ele>127</ele>
        <time>2018-06-25T08:55:38.973Z</time>
      </trkpt>
      <trkpt lat="50.2467" lon="3.63645">
        <ele>128</ele>
        <time>2018-06-25T08:55:39.973Z</time>
      </trkpt>
      <trkpt lat="50.24651" lon="3.63707">
        <ele>130</ele>
        <time>2018-06-25T08:55:40.973Z</time>
      </trkpt>
      <trkpt lat="50.2463" lon="3.63735">
        <ele>130</ele>
        <time>2018-06-25T08:55:41.973Z</time>
      </trkpt>
      <trkpt lat="50.24626" lon="3.63736">
        <ele>130</ele>
        <time>2018-06-25T08:55:42.973Z</time>
      </trkpt>
      <trkpt lat="50.24626" lon="3.6374">
        <ele>130</ele>
        <time>2018-06-25T08:55:43.973Z</time>
      </trkpt>
      <trkpt lat="50.24609" lon="3.63743">
        <ele>130</ele>
        <time>2018-06-25T08:55:44.973Z</time>
      </trkpt>
      <trkpt lat="50.24609" lon="3.63743">
        <ele>130</ele>
        <time>2018-06-25T08:55:45.973Z</time>
      </trkpt>
      <trkpt lat="50.24602" lon="3.63745">
        <ele>129</ele>
        <time>2018-06-25T08:55:46.973Z</time>
      </trkpt>
      <trkpt lat="50.24595" lon="3.63753">
        <ele>129</ele>
        <time>2018-06-25T08:55:47.973Z</time>
      </trkpt>
      <trkpt lat="50.24553" lon="3.63759">
        <ele>127</ele>
        <time>2018-06-25T08:55:48.973Z</time>
      </trkpt>
      <trkpt lat="50.2455" lon="3.63748">
        <ele>127</ele>
        <time>2018-06-25T08:55:49.973Z</time>
      </trkpt>
      <trkpt lat="50.24547" lon="3.63732">
        <ele>127</ele>
        <time>2018-06-25T08:55:50.973Z</time>
      </trkpt>
      <trkpt lat="50.24545" lon="3.63707">
        <ele>127</ele>
        <time>2018-06-25T08:55:51.973Z</time>
      </trkpt>
      <trkpt lat="50.24502" lon="3.6371">
        <ele>124</ele>
        <time>2018-06-25T08:55:52.973Z</time>
      </trkpt>
      <trkpt lat="50.24474" lon="3.63759">
        <ele>123</ele>
        <time>2018-06-25T08:55:53.973Z</time>
      </trkpt>
      <trkpt lat="50.24453" lon="3.64063">
        <ele>123</ele>
        <time>2018-06-25T08:55:54.973Z</time>
      </trkpt>
      <trkpt lat="50.2446" lon="3.64085">
        <ele>123</ele>
        <time>2018-06-25T08:55:55.973Z</time>
      </trkpt>
      <trkpt lat="50.24518" lon="3.6414">
        <ele>124</ele>
        <time>2018-06-25T08:55:56.973Z</time>
      </trkpt>
      <trkpt lat="50.24552" lon="3.64249">
        <ele>124</ele>
        <time>2018-06-25T08:55:57.973Z</time>
      </trkpt>
      <trkpt lat="50.24397" lon="3.6457">
        <ele>127</ele>
        <time>2018-06-25T08:55:58.973Z</time>
      </trkpt>
      <trkpt lat="50.2425" lon="3.64803">
        <ele>129</ele>
        <time>2018-06-25T08:55:59.973Z</time>
      </trkpt>
      <trkpt lat="50.24237" lon="3.64804">
        <ele>128</ele>
        <time>2018-06-25T08:56:00.973Z</time>
      </trkpt>
      <trkpt lat="50.24212" lon="3.64728">
        <ele>127</ele>
        <time>2018-06-25T08:56:01.973Z</time>
      </trkpt>
      <trkpt lat="50.24016" lon="3.64487">
        <ele>124</ele>
        <time>2018-06-25T08:56:02.973Z</time>
      </trkpt>
      <trkpt lat="50.24002" lon="3.64432">
        <ele>126</ele>
        <time>2018-06-25T08:56:03.973Z</time>
      </trkpt>
      <trkpt lat="50.23909" lon="3.64404">
        <ele>128</ele>
        <time>2018-06-25T08:56:04.973Z</time>
      </trkpt>
      <trkpt lat="50.23544" lon="3.64367">
        <ele>130</ele>
        <time>2018-06-25T08:56:05.973Z</time>
      </trkpt>
      <trkpt lat="50.23275" lon="3.64472">
        <ele>133</ele>
        <time>2018-06-25T08:56:06.973Z</time>
      </trkpt>
      <trkpt lat="50.23051" lon="3.64513">
        <ele>136</ele>
        <time>2018-06-25T08:56:07.973Z</time>
      </trkpt>
      <trkpt lat="50.22711" lon="3.64664">
        <ele>136</ele>
        <time>2018-06-25T08:56:08.973Z</time>
      </trkpt>
      <trkpt lat="50.22358" lon="3.64941">
        <ele>136</ele>
        <time>2018-06-25T08:56:09.973Z</time>
      </trkpt>
      <trkpt lat="50.2225" lon="3.65012">
        <ele>138</ele>
        <time>2018-06-25T08:56:10.973Z</time>
      </trkpt>
      <trkpt lat="50.22141" lon="3.65047">
        <ele>141</ele>
        <time>2018-06-25T08:56:11.973Z</time>
      </trkpt>
      <trkpt lat="50.21988" lon="3.65134">
        <ele>137</ele>
        <time>2018-06-25T08:56:12.973Z</time>
      </trkpt>
      <trkpt lat="50.21793" lon="3.65215">
        <ele>139</ele>
        <time>2018-06-25T08:56:13.973Z</time>
      </trkpt>
      <trkpt lat="50.21723" lon="3.65227">
        <ele>138</ele>
        <time>2018-06-25T08:56:14.973Z</time>
      </trkpt>
      <trkpt lat="50.21577" lon="3.65333">
        <ele>132</ele>
        <time>2018-06-25T08:56:15.973Z</time>
      </trkpt>
      <trkpt lat="50.21371" lon="3.65317">
        <ele>128</ele>
        <time>2018-06-25T08:56:16.973Z</time>
      </trkpt>
      <trkpt lat="50.21204" lon="3.65326">
        <ele>131</ele>
        <time>2018-06-25T08:56:17.973Z</time>
      </trkpt>
      <trkpt lat="50.21158" lon="3.65469">
        <ele>135</ele>
        <time>2018-06-25T08:56:18.973Z</time>
      </trkpt>
      <trkpt lat="50.21047" lon="3.65904">
        <ele>140</ele>
        <time>2018-06-25T08:56:19.973Z</time>
      </trkpt>
      <trkpt lat="50.20905" lon="3.66174">
        <ele>140</ele>
        <time>2018-06-25T08:56:20.973Z</time>
      </trkpt>
      <trkpt lat="50.20854" lon="3.66302">
        <ele>141</ele>
        <time>2018-06-25T08:56:21.973Z</time>
      </trkpt>
      <trkpt lat="50.2079" lon="3.66526">
        <ele>149</ele>
        <time>2018-06-25T08:56:22.973Z</time>
      </trkpt>
      <trkpt lat="50.20898" lon="3.6671">
        <ele>150</ele>
        <time>2018-06-25T08:56:23.973Z</time>
      </trkpt>
      <trkpt lat="50.20603" lon="3.67192">
        <ele>160</ele>
        <time>2018-06-25T08:56:24.973Z</time>
      </trkpt>
      <trkpt lat="50.20442" lon="3.67459">
        <ele>153</ele>
        <time>2018-06-25T08:56:25.973Z</time>
      </trkpt>
      <trkpt lat="50.20143" lon="3.67035">
        <ele>159</ele>
        <time>2018-06-25T08:56:26.973Z</time>
      </trkpt>
      <trkpt lat="50.20144" lon="3.67266">
        <ele>155</ele>
        <time>2018-06-25T08:56:27.973Z</time>
      </trkpt>
      <trkpt lat="50.20182" lon="3.68011">
        <ele>153</ele>
        <time>2018-06-25T08:56:28.973Z</time>
      </trkpt>
      <trkpt lat="50.20369" lon="3.68745">
        <ele>162</ele>
        <time>2018-06-25T08:56:29.973Z</time>
      </trkpt>
      <trkpt lat="50.20363" lon="3.68765">
        <ele>162</ele>
        <time>2018-06-25T08:56:30.973Z</time>
      </trkpt>
      <trkpt lat="50.20422" lon="3.68944">
        <ele>162</ele>
        <time>2018-06-25T08:56:31.973Z</time>
      </trkpt>
      <trkpt lat="50.19398" lon="3.70666">
        <ele>172</ele>
        <time>2018-06-25T08:56:32.973Z</time>
      </trkpt>
      <trkpt lat="50.19025" lon="3.70969">
        <ele>177</ele>
        <time>2018-06-25T08:56:33.973Z</time>
      </trkpt>
      <trkpt lat="50.19094" lon="3.71283">
        <ele>176</ele>
        <time>2018-06-25T08:56:34.973Z</time>
      </trkpt>
      <trkpt lat="50.19121" lon="3.71456">
        <ele>173</ele>
        <time>2018-06-25T08:56:35.973Z</time>
      </trkpt>
      <trkpt lat="50.19019" lon="3.71488">
        <ele>172</ele>
        <time>2018-06-25T08:56:36.973Z</time>
      </trkpt>
      <trkpt lat="50.18977" lon="3.71661">
        <ele>176</ele>
        <time>2018-06-25T08:56:37.973Z</time>
      </trkpt>
      <trkpt lat="50.18974" lon="3.71752">
        <ele>177</ele>
        <time>2018-06-25T08:56:38.973Z</time>
      </trkpt>
      <trkpt lat="50.18993" lon="3.71899">
        <ele>181</ele>
        <time>2018-06-25T08:56:39.973Z</time>
      </trkpt>
      <trkpt lat="50.18972" lon="3.71918">
        <ele>180</ele>
        <time>2018-06-25T08:56:40.973Z</time>
      </trkpt>
      <trkpt lat="50.18971" lon="3.71949">
        <ele>179</ele>
        <time>2018-06-25T08:56:41.973Z</time>
      </trkpt>
      <trkpt lat="50.18938" lon="3.72">
        <ele>174</ele>
        <time>2018-06-25T08:56:42.973Z</time>
      </trkpt>
      <trkpt lat="50.19013" lon="3.72079">
        <ele>177</ele>
        <time>2018-06-25T08:56:43.973Z</time>
      </trkpt>
      <trkpt lat="50.19015" lon="3.72168">
        <ele>171</ele>
        <time>2018-06-25T08:56:44.973Z</time>
      </trkpt>
      <trkpt lat="50.19045" lon="3.7223">
        <ele>172</ele>
        <time>2018-06-25T08:56:45.973Z</time>
      </trkpt>
      <trkpt lat="50.19187" lon="3.72358">
        <ele>176</ele>
        <time>2018-06-25T08:56:46.973Z</time>
      </trkpt>
      <trkpt lat="50.19235" lon="3.72446">
        <ele>177</ele>
        <time>2018-06-25T08:56:47.973Z</time>
      </trkpt>
      <trkpt lat="50.19255" lon="3.7252">
        <ele>177</ele>
        <time>2018-06-25T08:56:48.973Z</time>
      </trkpt>
      <trkpt lat="50.19253" lon="3.72545">
        <ele>177</ele>
        <time>2018-06-25T08:56:49.973Z</time>
      </trkpt>
      <trkpt lat="50.19148" lon="3.72689">
        <ele>175</ele>
        <time>2018-06-25T08:56:50.973Z</time>
      </trkpt>
      <trkpt lat="50.19007" lon="3.72777">
        <ele>174</ele>
        <time>2018-06-25T08:56:51.973Z</time>
      </trkpt>
      <trkpt lat="50.18896" lon="3.72898">
        <ele>175</ele>
        <time>2018-06-25T08:56:52.973Z</time>
      </trkpt>
      <trkpt lat="50.18858" lon="3.73">
        <ele>176</ele>
        <time>2018-06-25T08:56:53.973Z</time>
      </trkpt>
      <trkpt lat="50.18785" lon="3.73033">
        <ele>174</ele>
        <time>2018-06-25T08:56:54.973Z</time>
      </trkpt>
      <trkpt lat="50.18718" lon="3.73096">
        <ele>172</ele>
        <time>2018-06-25T08:56:55.973Z</time>
      </trkpt>
      <trkpt lat="50.18675" lon="3.7321">
        <ele>173</ele>
        <time>2018-06-25T08:56:56.973Z</time>
      </trkpt>
      <trkpt lat="50.18673" lon="3.73208">
        <ele>173</ele>
        <time>2018-06-25T08:56:57.973Z</time>
      </trkpt>
      <trkpt lat="50.18665" lon="3.73228">
        <ele>174</ele>
        <time>2018-06-25T08:56:58.973Z</time>
      </trkpt>
      <trkpt lat="50.18655" lon="3.73237">
        <ele>175</ele>
        <time>2018-06-25T08:56:59.973Z</time>
      </trkpt>
      <trkpt lat="50.1863" lon="3.73269">
        <ele>178</ele>
        <time>2018-06-25T08:57:00.973Z</time>
      </trkpt>
      <trkpt lat="50.18233" lon="3.73767">
        <ele>173</ele>
        <time>2018-06-25T08:57:01.973Z</time>
      </trkpt>
      <trkpt lat="50.18221" lon="3.73871">
        <ele>170</ele>
        <time>2018-06-25T08:57:02.973Z</time>
      </trkpt>
      <trkpt lat="50.18222" lon="3.73871">
        <ele>170</ele>
        <time>2018-06-25T08:57:03.973Z</time>
      </trkpt>
      <trkpt lat="50.18055" lon="3.75301">
        <ele>172</ele>
        <time>2018-06-25T08:57:04.973Z</time>
      </trkpt>
      <trkpt lat="50.18055" lon="3.75301">
        <ele>172</ele>
        <time>2018-06-25T08:57:05.973Z</time>
      </trkpt>
      <trkpt lat="50.18029" lon="3.75513">
        <ele>168</ele>
        <time>2018-06-25T08:57:06.973Z</time>
      </trkpt>
      <trkpt lat="50.18019" lon="3.75533">
        <ele>167</ele>
        <time>2018-06-25T08:57:07.973Z</time>
      </trkpt>
      <trkpt lat="50.18007" lon="3.75567">
        <ele>164</ele>
        <time>2018-06-25T08:57:08.973Z</time>
      </trkpt>
      <trkpt lat="50.17333" lon="3.78348">
        <ele>141</ele>
        <time>2018-06-25T08:57:09.973Z</time>
      </trkpt>
      <trkpt lat="50.17333" lon="3.78361">
        <ele>140</ele>
        <time>2018-06-25T08:57:10.973Z</time>
      </trkpt>
      <trkpt lat="50.17348" lon="3.78451">
        <ele>134</ele>
        <time>2018-06-25T08:57:11.973Z</time>
      </trkpt>
      <trkpt lat="50.17375" lon="3.78552">
        <ele>134</ele>
        <time>2018-06-25T08:57:12.973Z</time>
      </trkpt>
      <trkpt lat="50.17386" lon="3.78602">
        <ele>136</ele>
        <time>2018-06-25T08:57:13.973Z</time>
      </trkpt>
      <trkpt lat="50.17396" lon="3.78629">
        <ele>137</ele>
        <time>2018-06-25T08:57:14.973Z</time>
      </trkpt>
      <trkpt lat="50.17421" lon="3.78677">
        <ele>141</ele>
        <time>2018-06-25T08:57:15.973Z</time>
      </trkpt>
      <trkpt lat="50.17411" lon="3.78665">
        <ele>140</ele>
        <time>2018-06-25T08:57:16.973Z</time>
      </trkpt>
      <trkpt lat="50.17356" lon="3.78612">
        <ele>135</ele>
        <time>2018-06-25T08:57:17.973Z</time>
      </trkpt>
      <trkpt lat="50.17342" lon="3.78594">
        <ele>134</ele>
        <time>2018-06-25T08:57:18.973Z</time>
      </trkpt>
      <trkpt lat="50.1727" lon="3.7859">
        <ele>131</ele>
        <time>2018-06-25T08:57:19.973Z</time>
      </trkpt>
      <trkpt lat="50.1727" lon="3.7859">
        <ele>131</ele>
        <time>2018-06-25T08:57:20.973Z</time>
      </trkpt>
      <trkpt lat="50.17259" lon="3.78588">
        <ele>130</ele>
        <time>2018-06-25T08:57:21.973Z</time>
      </trkpt>
      <trkpt lat="50.17256" lon="3.78593">
        <ele>130</ele>
        <time>2018-06-25T08:57:22.973Z</time>
      </trkpt>
      <trkpt lat="50.1725" lon="3.78624">
        <ele>130</ele>
        <time>2018-06-25T08:57:23.973Z</time>
      </trkpt>
      <trkpt lat="50.1725" lon="3.78679">
        <ele>130</ele>
        <time>2018-06-25T08:57:24.973Z</time>
      </trkpt>
      <trkpt lat="50.17229" lon="3.78679">
        <ele>130</ele>
        <time>2018-06-25T08:57:25.973Z</time>
      </trkpt>
      <trkpt lat="50.17218" lon="3.78754">
        <ele>131</ele>
        <time>2018-06-25T08:57:26.973Z</time>
      </trkpt>
      <trkpt lat="50.17215" lon="3.78832">
        <ele>130</ele>
        <time>2018-06-25T08:57:27.973Z</time>
      </trkpt>
      <trkpt lat="50.17196" lon="3.78903">
        <ele>131</ele>
        <time>2018-06-25T08:57:28.973Z</time>
      </trkpt>
      <trkpt lat="50.17196" lon="3.78922">
        <ele>131</ele>
        <time>2018-06-25T08:57:29.973Z</time>
      </trkpt>
      <trkpt lat="50.17202" lon="3.7895">
        <ele>131</ele>
        <time>2018-06-25T08:57:30.973Z</time>
      </trkpt>
      <trkpt lat="50.1721" lon="3.78963">
        <ele>130</ele>
        <time>2018-06-25T08:57:31.973Z</time>
      </trkpt>
      <trkpt lat="50.17236" lon="3.78997">
        <ele>130</ele>
        <time>2018-06-25T08:57:32.973Z</time>
      </trkpt>
      <trkpt lat="50.17251" lon="3.79024">
        <ele>130</ele>
        <time>2018-06-25T08:57:33.973Z</time>
      </trkpt>
      <trkpt lat="50.17258" lon="3.79041">
        <ele>130</ele>
        <time>2018-06-25T08:57:34.973Z</time>
      </trkpt>
      <trkpt lat="50.17259" lon="3.79041">
        <ele>130</ele>
        <time>2018-06-25T08:57:35.973Z</time>
      </trkpt>
      <trkpt lat="50.17264" lon="3.79054">
        <ele>130</ele>
        <time>2018-06-25T08:57:36.973Z</time>
      </trkpt>
      <trkpt lat="50.17269" lon="3.79081">
        <ele>129</ele>
        <time>2018-06-25T08:57:37.973Z</time>
      </trkpt>
      <trkpt lat="50.17269" lon="3.79109">
        <ele>130</ele>
        <time>2018-06-25T08:57:38.973Z</time>
      </trkpt>
      <trkpt lat="50.17256" lon="3.79183">
        <ele>130</ele>
        <time>2018-06-25T08:57:39.973Z</time>
      </trkpt>
      <trkpt lat="50.17255" lon="3.79226">
        <ele>130</ele>
        <time>2018-06-25T08:57:40.973Z</time>
      </trkpt>
      <trkpt lat="50.17264" lon="3.79328">
        <ele>129</ele>
        <time>2018-06-25T08:57:41.973Z</time>
      </trkpt>
      <trkpt lat="50.17262" lon="3.79347">
        <ele>129</ele>
        <time>2018-06-25T08:57:42.973Z</time>
      </trkpt>
      <trkpt lat="50.17238" lon="3.79411">
        <ele>129</ele>
        <time>2018-06-25T08:57:43.973Z</time>
      </trkpt>
      <trkpt lat="50.17231" lon="3.79449">
        <ele>130</ele>
        <time>2018-06-25T08:57:44.973Z</time>
      </trkpt>
      <trkpt lat="50.1723" lon="3.79485">
        <ele>130</ele>
        <time>2018-06-25T08:57:45.973Z</time>
      </trkpt>
      <trkpt lat="50.17256" lon="3.79657">
        <ele>130</ele>
        <time>2018-06-25T08:57:46.973Z</time>
      </trkpt>
      <trkpt lat="50.17256" lon="3.7969">
        <ele>130</ele>
        <time>2018-06-25T08:57:47.973Z</time>
      </trkpt>
      <trkpt lat="50.1725" lon="3.79765">
        <ele>130</ele>
        <time>2018-06-25T08:57:48.973Z</time>
      </trkpt>
      <trkpt lat="50.17247" lon="3.79813">
        <ele>130</ele>
        <time>2018-06-25T08:57:49.973Z</time>
      </trkpt>
      <trkpt lat="50.17241" lon="3.79845">
        <ele>130</ele>
        <time>2018-06-25T08:57:50.973Z</time>
      </trkpt>
      <trkpt lat="50.17243" lon="3.79872">
        <ele>130</ele>
        <time>2018-06-25T08:57:51.973Z</time>
      </trkpt>
      <trkpt lat="50.1725" lon="3.79891">
        <ele>130</ele>
        <time>2018-06-25T08:57:52.973Z</time>
      </trkpt>
      <trkpt lat="50.1726" lon="3.79908">
        <ele>130</ele>
        <time>2018-06-25T08:57:53.973Z</time>
      </trkpt>
      <trkpt lat="50.17283" lon="3.79931">
        <ele>130</ele>
        <time>2018-06-25T08:57:54.973Z</time>
      </trkpt>
      <trkpt lat="50.17311" lon="3.79941">
        <ele>129</ele>
        <time>2018-06-25T08:57:55.973Z</time>
      </trkpt>
      <trkpt lat="50.17351" lon="3.79949">
        <ele>129</ele>
        <time>2018-06-25T08:57:56.973Z</time>
      </trkpt>
      <trkpt lat="50.17362" lon="3.79953">
        <ele>129</ele>
        <time>2018-06-25T08:57:57.973Z</time>
      </trkpt>
      <trkpt lat="50.1737" lon="3.79961">
        <ele>129</ele>
        <time>2018-06-25T08:57:58.973Z</time>
      </trkpt>
      <trkpt lat="50.17384" lon="3.79992">
        <ele>129</ele>
        <time>2018-06-25T08:57:59.973Z</time>
      </trkpt>
      <trkpt lat="50.17415" lon="3.80134">
        <ele>131</ele>
        <time>2018-06-25T08:58:00.973Z</time>
      </trkpt>
      <trkpt lat="50.17418" lon="3.80167">
        <ele>131</ele>
        <time>2018-06-25T08:58:01.973Z</time>
      </trkpt>
      <trkpt lat="50.17426" lon="3.80202">
        <ele>130</ele>
        <time>2018-06-25T08:58:02.973Z</time>
      </trkpt>
      <trkpt lat="50.17431" lon="3.80215">
        <ele>130</ele>
        <time>2018-06-25T08:58:03.973Z</time>
      </trkpt>
      <trkpt lat="50.17447" lon="3.80232">
        <ele>130</ele>
        <time>2018-06-25T08:58:04.973Z</time>
      </trkpt>
      <trkpt lat="50.17458" lon="3.80235">
        <ele>130</ele>
        <time>2018-06-25T08:58:05.973Z</time>
      </trkpt>
      <trkpt lat="50.17499" lon="3.80239">
        <ele>131</ele>
        <time>2018-06-25T08:58:06.973Z</time>
      </trkpt>
      <trkpt lat="50.17514" lon="3.8025">
        <ele>131</ele>
        <time>2018-06-25T08:58:07.973Z</time>
      </trkpt>
      <trkpt lat="50.17521" lon="3.8026">
        <ele>131</ele>
        <time>2018-06-25T08:58:08.973Z</time>
      </trkpt>
      <trkpt lat="50.17526" lon="3.80272">
        <ele>131</ele>
        <time>2018-06-25T08:58:09.973Z</time>
      </trkpt>
      <trkpt lat="50.1753" lon="3.80297">
        <ele>131</ele>
        <time>2018-06-25T08:58:10.973Z</time>
      </trkpt>
      <trkpt lat="50.17534" lon="3.80372">
        <ele>130</ele>
        <time>2018-06-25T08:58:11.973Z</time>
      </trkpt>
      <trkpt lat="50.17534" lon="3.80371">
        <ele>130</ele>
        <time>2018-06-25T08:58:12.973Z</time>
      </trkpt>
      <trkpt lat="50.17539" lon="3.80456">
        <ele>130</ele>
        <time>2018-06-25T08:58:13.973Z</time>
      </trkpt>
      <trkpt lat="50.17554" lon="3.80566">
        <ele>129</ele>
        <time>2018-06-25T08:58:14.973Z</time>
      </trkpt>
      <trkpt lat="50.17555" lon="3.8061">
        <ele>128</ele>
        <time>2018-06-25T08:58:15.973Z</time>
      </trkpt>
      <trkpt lat="50.17553" lon="3.80663">
        <ele>128</ele>
        <time>2018-06-25T08:58:16.973Z</time>
      </trkpt>
      <trkpt lat="50.17545" lon="3.80751">
        <ele>128</ele>
        <time>2018-06-25T08:58:17.973Z</time>
      </trkpt>
      <trkpt lat="50.17526" lon="3.80858">
        <ele>130</ele>
        <time>2018-06-25T08:58:18.973Z</time>
      </trkpt>
      <trkpt lat="50.17512" lon="3.80998">
        <ele>129</ele>
        <time>2018-06-25T08:58:19.973Z</time>
      </trkpt>
      <trkpt lat="50.17511" lon="3.81039">
        <ele>129</ele>
        <time>2018-06-25T08:58:20.973Z</time>
      </trkpt>
      <trkpt lat="50.17514" lon="3.81091">
        <ele>129</ele>
        <time>2018-06-25T08:58:21.973Z</time>
      </trkpt>
      <trkpt lat="50.17514" lon="3.81159">
        <ele>130</ele>
        <time>2018-06-25T08:58:22.973Z</time>
      </trkpt>
      <trkpt lat="50.17513" lon="3.81197">
        <ele>130</ele>
        <time>2018-06-25T08:58:23.973Z</time>
      </trkpt>
      <trkpt lat="50.17519" lon="3.81243">
        <ele>129</ele>
        <time>2018-06-25T08:58:24.973Z</time>
      </trkpt>
      <trkpt lat="50.17556" lon="3.81415">
        <ele>129</ele>
        <time>2018-06-25T08:58:25.973Z</time>
      </trkpt>
      <trkpt lat="50.17557" lon="3.81414">
        <ele>129</ele>
        <time>2018-06-25T08:58:26.973Z</time>
      </trkpt>
      <trkpt lat="50.17563" lon="3.81445">
        <ele>129</ele>
        <time>2018-06-25T08:58:27.973Z</time>
      </trkpt>
      <trkpt lat="50.17583" lon="3.81515">
        <ele>128</ele>
        <time>2018-06-25T08:58:28.973Z</time>
      </trkpt>
      <trkpt lat="50.17601" lon="3.8157">
        <ele>128</ele>
        <time>2018-06-25T08:58:29.973Z</time>
      </trkpt>
      <trkpt lat="50.17621" lon="3.81619">
        <ele>128</ele>
        <time>2018-06-25T08:58:30.973Z</time>
      </trkpt>
      <trkpt lat="50.177" lon="3.81796">
        <ele>129</ele>
        <time>2018-06-25T08:58:31.973Z</time>
      </trkpt>
      <trkpt lat="50.17744" lon="3.81887">
        <ele>130</ele>
        <time>2018-06-25T08:58:32.973Z</time>
      </trkpt>
      <trkpt lat="50.17782" lon="3.81949">
        <ele>129</ele>
        <time>2018-06-25T08:58:33.973Z</time>
      </trkpt>
      <trkpt lat="50.17807" lon="3.81986">
        <ele>129</ele>
        <time>2018-06-25T08:58:34.973Z</time>
      </trkpt>
      <trkpt lat="50.17917" lon="3.82087">
        <ele>129</ele>
        <time>2018-06-25T08:58:35.973Z</time>
      </trkpt>
      <trkpt lat="50.17912" lon="3.82097">
        <ele>130</ele>
        <time>2018-06-25T08:58:36.973Z</time>
      </trkpt>
      <trkpt lat="50.17914" lon="3.82118">
        <ele>130</ele>
        <time>2018-06-25T08:58:37.973Z</time>
      </trkpt>
      <trkpt lat="50.17912" lon="3.82146">
        <ele>131</ele>
        <time>2018-06-25T08:58:38.973Z</time>
      </trkpt>
      <trkpt lat="50.1789" lon="3.82248">
        <ele>131</ele>
        <time>2018-06-25T08:58:39.973Z</time>
      </trkpt>
      <trkpt lat="50.17883" lon="3.82292">
        <ele>130</ele>
        <time>2018-06-25T08:58:40.973Z</time>
      </trkpt>
      <trkpt lat="50.17881" lon="3.82307">
        <ele>130</ele>
        <time>2018-06-25T08:58:41.973Z</time>
      </trkpt>
      <trkpt lat="50.17885" lon="3.82337">
        <ele>130</ele>
        <time>2018-06-25T08:58:42.973Z</time>
      </trkpt>
      <trkpt lat="50.17879" lon="3.8234">
        <ele>130</ele>
        <time>2018-06-25T08:58:43.973Z</time>
      </trkpt>
      <trkpt lat="50.17881" lon="3.82352">
        <ele>130</ele>
        <time>2018-06-25T08:58:44.973Z</time>
      </trkpt>
      <trkpt lat="50.17905" lon="3.82433">
        <ele>130</ele>
        <time>2018-06-25T08:58:45.973Z</time>
      </trkpt>
      <trkpt lat="50.17921" lon="3.82469">
        <ele>131</ele>
        <time>2018-06-25T08:58:46.973Z</time>
      </trkpt>
      <trkpt lat="50.17959" lon="3.82541">
        <ele>130</ele>
        <time>2018-06-25T08:58:47.973Z</time>
      </trkpt>
      <trkpt lat="50.17975" lon="3.82575">
        <ele>130</ele>
        <time>2018-06-25T08:58:48.973Z</time>
      </trkpt>
      <trkpt lat="50.17986" lon="3.82609">
        <ele>130</ele>
        <time>2018-06-25T08:58:49.973Z</time>
      </trkpt>
      <trkpt lat="50.17989" lon="3.82631">
        <ele>130</ele>
        <time>2018-06-25T08:58:50.973Z</time>
      </trkpt>
      <trkpt lat="50.1799" lon="3.82653">
        <ele>130</ele>
        <time>2018-06-25T08:58:51.973Z</time>
      </trkpt>
      <trkpt lat="50.17989" lon="3.82674">
        <ele>130</ele>
        <time>2018-06-25T08:58:52.973Z</time>
      </trkpt>
      <trkpt lat="50.17983" lon="3.8272">
        <ele>131</ele>
        <time>2018-06-25T08:58:53.973Z</time>
      </trkpt>
      <trkpt lat="50.17977" lon="3.8274">
        <ele>132</ele>
        <time>2018-06-25T08:58:54.973Z</time>
      </trkpt>
      <trkpt lat="50.17969" lon="3.82756">
        <ele>132</ele>
        <time>2018-06-25T08:58:55.973Z</time>
      </trkpt>
      <trkpt lat="50.1795" lon="3.8277">
        <ele>131</ele>
        <time>2018-06-25T08:58:56.973Z</time>
      </trkpt>
      <trkpt lat="50.17938" lon="3.82782">
        <ele>131</ele>
        <time>2018-06-25T08:58:57.973Z</time>
      </trkpt>
      <trkpt lat="50.17928" lon="3.82808">
        <ele>131</ele>
        <time>2018-06-25T08:58:58.973Z</time>
      </trkpt>
      <trkpt lat="50.17911" lon="3.8288">
        <ele>131</ele>
        <time>2018-06-25T08:58:59.973Z</time>
      </trkpt>
      <trkpt lat="50.17906" lon="3.82884">
        <ele>131</ele>
        <time>2018-06-25T08:59:00.973Z</time>
      </trkpt>
      <trkpt lat="50.1788" lon="3.82887">
        <ele>132</ele>
        <time>2018-06-25T08:59:01.973Z</time>
      </trkpt>
      <trkpt lat="50.17875" lon="3.82884">
        <ele>133</ele>
        <time>2018-06-25T08:59:02.973Z</time>
      </trkpt>
      <trkpt lat="50.1785" lon="3.82884">
        <ele>134</ele>
        <time>2018-06-25T08:59:03.973Z</time>
      </trkpt>
      <trkpt lat="50.17846" lon="3.82891">
        <ele>134</ele>
        <time>2018-06-25T08:59:04.973Z</time>
      </trkpt>
      <trkpt lat="50.1783" lon="3.82958">
        <ele>135</ele>
        <time>2018-06-25T08:59:05.973Z</time>
      </trkpt>
      <trkpt lat="50.17846" lon="3.82967">
        <ele>134</ele>
        <time>2018-06-25T08:59:06.973Z</time>
      </trkpt>
      <trkpt lat="50.17832" lon="3.83032">
        <ele>133</ele>
        <time>2018-06-25T08:59:07.973Z</time>
      </trkpt>
      <trkpt lat="50.17829" lon="3.83058">
        <ele>133</ele>
        <time>2018-06-25T08:59:08.973Z</time>
      </trkpt>
      <trkpt lat="50.17827" lon="3.83107">
        <ele>132</ele>
        <time>2018-06-25T08:59:09.973Z</time>
      </trkpt>
      <trkpt lat="50.17824" lon="3.83135">
        <ele>132</ele>
        <time>2018-06-25T08:59:10.973Z</time>
      </trkpt>
      <trkpt lat="50.17796" lon="3.83316">
        <ele>132</ele>
        <time>2018-06-25T08:59:11.973Z</time>
      </trkpt>
      <trkpt lat="50.17764" lon="3.83506">
        <ele>134</ele>
        <time>2018-06-25T08:59:12.973Z</time>
      </trkpt>
      <trkpt lat="50.17756" lon="3.83562">
        <ele>133</ele>
        <time>2018-06-25T08:59:13.973Z</time>
      </trkpt>
      <trkpt lat="50.17753" lon="3.83612">
        <ele>133</ele>
        <time>2018-06-25T08:59:14.973Z</time>
      </trkpt>
      <trkpt lat="50.17748" lon="3.8364">
        <ele>132</ele>
        <time>2018-06-25T08:59:15.973Z</time>
      </trkpt>
      <trkpt lat="50.17737" lon="3.83692">
        <ele>132</ele>
        <time>2018-06-25T08:59:16.973Z</time>
      </trkpt>
      <trkpt lat="50.17722" lon="3.83735">
        <ele>132</ele>
        <time>2018-06-25T08:59:17.973Z</time>
      </trkpt>
      <trkpt lat="50.1772" lon="3.83747">
        <ele>132</ele>
        <time>2018-06-25T08:59:18.973Z</time>
      </trkpt>
      <trkpt lat="50.17719" lon="3.83764">
        <ele>132</ele>
        <time>2018-06-25T08:59:19.973Z</time>
      </trkpt>
      <trkpt lat="50.17731" lon="3.83846">
        <ele>133</ele>
        <time>2018-06-25T08:59:20.973Z</time>
      </trkpt>
      <trkpt lat="50.1773" lon="3.83858">
        <ele>133</ele>
        <time>2018-06-25T08:59:21.973Z</time>
      </trkpt>
      <trkpt lat="50.17707" lon="3.83926">
        <ele>133</ele>
        <time>2018-06-25T08:59:22.973Z</time>
      </trkpt>
      <trkpt lat="50.1765" lon="3.84253">
        <ele>136</ele>
        <time>2018-06-25T08:59:23.973Z</time>
      </trkpt>
      <trkpt lat="50.1765" lon="3.84268">
        <ele>136</ele>
        <time>2018-06-25T08:59:24.973Z</time>
      </trkpt>
      <trkpt lat="50.17652" lon="3.84281">
        <ele>136</ele>
        <time>2018-06-25T08:59:25.973Z</time>
      </trkpt>
      <trkpt lat="50.17668" lon="3.84341">
        <ele>137</ele>
        <time>2018-06-25T08:59:26.973Z</time>
      </trkpt>
      <trkpt lat="50.17667" lon="3.84353">
        <ele>137</ele>
        <time>2018-06-25T08:59:27.973Z</time>
      </trkpt>
      <trkpt lat="50.17665" lon="3.84364">
        <ele>137</ele>
        <time>2018-06-25T08:59:28.973Z</time>
      </trkpt>
      <trkpt lat="50.17658" lon="3.84375">
        <ele>137</ele>
        <time>2018-06-25T08:59:29.973Z</time>
      </trkpt>
      <trkpt lat="50.17619" lon="3.84415">
        <ele>137</ele>
        <time>2018-06-25T08:59:30.973Z</time>
      </trkpt>
      <trkpt lat="50.1761" lon="3.84429">
        <ele>137</ele>
        <time>2018-06-25T08:59:31.973Z</time>
      </trkpt>
      <trkpt lat="50.176" lon="3.84453">
        <ele>137</ele>
        <time>2018-06-25T08:59:32.973Z</time>
      </trkpt>
      <trkpt lat="50.17579" lon="3.8451">
        <ele>136</ele>
        <time>2018-06-25T08:59:33.973Z</time>
      </trkpt>
      <trkpt lat="50.17571" lon="3.84525">
        <ele>136</ele>
        <time>2018-06-25T08:59:34.973Z</time>
      </trkpt>
      <trkpt lat="50.17563" lon="3.84536">
        <ele>136</ele>
        <time>2018-06-25T08:59:35.973Z</time>
      </trkpt>
      <trkpt lat="50.17547" lon="3.84551">
        <ele>137</ele>
        <time>2018-06-25T08:59:36.973Z</time>
      </trkpt>
      <trkpt lat="50.17483" lon="3.8459">
        <ele>136</ele>
        <time>2018-06-25T08:59:37.973Z</time>
      </trkpt>
      <trkpt lat="50.17468" lon="3.84603">
        <ele>136</ele>
        <time>2018-06-25T08:59:38.973Z</time>
      </trkpt>
      <trkpt lat="50.17453" lon="3.84622">
        <ele>136</ele>
        <time>2018-06-25T08:59:39.973Z</time>
      </trkpt>
      <trkpt lat="50.17429" lon="3.84664">
        <ele>137</ele>
        <time>2018-06-25T08:59:40.973Z</time>
      </trkpt>
      <trkpt lat="50.17401" lon="3.84718">
        <ele>137</ele>
        <time>2018-06-25T08:59:41.973Z</time>
      </trkpt>
      <trkpt lat="50.17393" lon="3.84748">
        <ele>136</ele>
        <time>2018-06-25T08:59:42.973Z</time>
      </trkpt>
      <trkpt lat="50.17377" lon="3.84839">
        <ele>136</ele>
        <time>2018-06-25T08:59:43.973Z</time>
      </trkpt>
      <trkpt lat="50.17371" lon="3.84859">
        <ele>137</ele>
        <time>2018-06-25T08:59:44.973Z</time>
      </trkpt>
      <trkpt lat="50.17364" lon="3.84877">
        <ele>136</ele>
        <time>2018-06-25T08:59:45.973Z</time>
      </trkpt>
      <trkpt lat="50.17323" lon="3.84966">
        <ele>137</ele>
        <time>2018-06-25T08:59:46.973Z</time>
      </trkpt>
      <trkpt lat="50.17272" lon="3.85101">
        <ele>139</ele>
        <time>2018-06-25T08:59:47.973Z</time>
      </trkpt>
      <trkpt lat="50.17244" lon="3.85192">
        <ele>141</ele>
        <time>2018-06-25T08:59:48.973Z</time>
      </trkpt>
      <trkpt lat="50.17205" lon="3.85301">
        <ele>141</ele>
        <time>2018-06-25T08:59:49.973Z</time>
      </trkpt>
      <trkpt lat="50.17199" lon="3.85326">
        <ele>141</ele>
        <time>2018-06-25T08:59:50.973Z</time>
      </trkpt>
      <trkpt lat="50.17198" lon="3.85337">
        <ele>141</ele>
        <time>2018-06-25T08:59:51.973Z</time>
      </trkpt>
      <trkpt lat="50.172" lon="3.8535">
        <ele>141</ele>
        <time>2018-06-25T08:59:52.973Z</time>
      </trkpt>
      <trkpt lat="50.17203" lon="3.85363">
        <ele>141</ele>
        <time>2018-06-25T08:59:53.973Z</time>
      </trkpt>
      <trkpt lat="50.172" lon="3.85367">
        <ele>141</ele>
        <time>2018-06-25T08:59:54.973Z</time>
      </trkpt>
      <trkpt lat="50.17196" lon="3.8538">
        <ele>141</ele>
        <time>2018-06-25T08:59:55.973Z</time>
      </trkpt>
      <trkpt lat="50.17162" lon="3.85543">
        <ele>138</ele>
        <time>2018-06-25T08:59:56.973Z</time>
      </trkpt>
      <trkpt lat="50.17149" lon="3.85583">
        <ele>137</ele>
        <time>2018-06-25T08:59:57.973Z</time>
      </trkpt>
      <trkpt lat="50.17142" lon="3.85598">
        <ele>137</ele>
        <time>2018-06-25T08:59:58.973Z</time>
      </trkpt>
      <trkpt lat="50.17131" lon="3.85627">
        <ele>137</ele>
        <time>2018-06-25T08:59:59.973Z</time>
      </trkpt>
      <trkpt lat="50.17126" lon="3.85671">
        <ele>137</ele>
        <time>2018-06-25T09:00:00.973Z</time>
      </trkpt>
      <trkpt lat="50.17122" lon="3.85674">
        <ele>137</ele>
        <time>2018-06-25T09:00:01.973Z</time>
      </trkpt>
      <trkpt lat="50.1705" lon="3.85655">
        <ele>139</ele>
        <time>2018-06-25T09:00:02.973Z</time>
      </trkpt>
      <trkpt lat="50.17037" lon="3.85686">
        <ele>139</ele>
        <time>2018-06-25T09:00:03.973Z</time>
      </trkpt>
      <trkpt lat="50.17017" lon="3.85723">
        <ele>140</ele>
        <time>2018-06-25T09:00:04.973Z</time>
      </trkpt>
      <trkpt lat="50.16994" lon="3.85778">
        <ele>142</ele>
        <time>2018-06-25T09:00:05.973Z</time>
      </trkpt>
      <trkpt lat="50.16986" lon="3.85799">
        <ele>142</ele>
        <time>2018-06-25T09:00:06.973Z</time>
      </trkpt>
      <trkpt lat="50.16977" lon="3.85841">
        <ele>143</ele>
        <time>2018-06-25T09:00:07.973Z</time>
      </trkpt>
      <trkpt lat="50.1697" lon="3.8588">
        <ele>143</ele>
        <time>2018-06-25T09:00:08.973Z</time>
      </trkpt>
      <trkpt lat="50.16963" lon="3.8595">
        <ele>144</ele>
        <time>2018-06-25T09:00:09.973Z</time>
      </trkpt>
      <trkpt lat="50.16959" lon="3.85976">
        <ele>145</ele>
        <time>2018-06-25T09:00:10.973Z</time>
      </trkpt>
      <trkpt lat="50.16953" lon="3.85991">
        <ele>145</ele>
        <time>2018-06-25T09:00:11.973Z</time>
      </trkpt>
      <trkpt lat="50.16935" lon="3.86027">
        <ele>145</ele>
        <time>2018-06-25T09:00:12.973Z</time>
      </trkpt>
      <trkpt lat="50.16929" lon="3.86043">
        <ele>146</ele>
        <time>2018-06-25T09:00:13.973Z</time>
      </trkpt>
      <trkpt lat="50.16916" lon="3.86101">
        <ele>146</ele>
        <time>2018-06-25T09:00:14.973Z</time>
      </trkpt>
      <trkpt lat="50.16911" lon="3.86137">
        <ele>147</ele>
        <time>2018-06-25T09:00:15.973Z</time>
      </trkpt>
      <trkpt lat="50.16912" lon="3.86161">
        <ele>147</ele>
        <time>2018-06-25T09:00:16.973Z</time>
      </trkpt>
      <trkpt lat="50.16925" lon="3.862">
        <ele>147</ele>
        <time>2018-06-25T09:00:17.973Z</time>
      </trkpt>
      <trkpt lat="50.16931" lon="3.86225">
        <ele>146</ele>
        <time>2018-06-25T09:00:18.973Z</time>
      </trkpt>
      <trkpt lat="50.16938" lon="3.86263">
        <ele>146</ele>
        <time>2018-06-25T09:00:19.973Z</time>
      </trkpt>
      <trkpt lat="50.16942" lon="3.86303">
        <ele>145</ele>
        <time>2018-06-25T09:00:20.973Z</time>
      </trkpt>
      <trkpt lat="50.16946" lon="3.86442">
        <ele>144</ele>
        <time>2018-06-25T09:00:21.973Z</time>
      </trkpt>
      <trkpt lat="50.16945" lon="3.86491">
        <ele>144</ele>
        <time>2018-06-25T09:00:22.973Z</time>
      </trkpt>
      <trkpt lat="50.16937" lon="3.86575">
        <ele>145</ele>
        <time>2018-06-25T09:00:23.973Z</time>
      </trkpt>
      <trkpt lat="50.16931" lon="3.86681">
        <ele>145</ele>
        <time>2018-06-25T09:00:24.973Z</time>
      </trkpt>
      <trkpt lat="50.16927" lon="3.86713">
        <ele>145</ele>
        <time>2018-06-25T09:00:25.973Z</time>
      </trkpt>
      <trkpt lat="50.16924" lon="3.86742">
        <ele>145</ele>
        <time>2018-06-25T09:00:26.973Z</time>
      </trkpt>
      <trkpt lat="50.16924" lon="3.86788">
        <ele>143</ele>
        <time>2018-06-25T09:00:27.973Z</time>
      </trkpt>
      <trkpt lat="50.16926" lon="3.86823">
        <ele>141</ele>
        <time>2018-06-25T09:00:28.973Z</time>
      </trkpt>
      <trkpt lat="50.16931" lon="3.86843">
        <ele>140</ele>
        <time>2018-06-25T09:00:29.973Z</time>
      </trkpt>
      <trkpt lat="50.16939" lon="3.86859">
        <ele>140</ele>
        <time>2018-06-25T09:00:30.973Z</time>
      </trkpt>
      <trkpt lat="50.16975" lon="3.86914">
        <ele>139</ele>
        <time>2018-06-25T09:00:31.973Z</time>
      </trkpt>
      <trkpt lat="50.16997" lon="3.86984">
        <ele>141</ele>
        <time>2018-06-25T09:00:32.973Z</time>
      </trkpt>
      <trkpt lat="50.16957" lon="3.87057">
        <ele>144</ele>
        <time>2018-06-25T09:00:33.973Z</time>
      </trkpt>
      <trkpt lat="50.16996" lon="3.87148">
        <ele>147</ele>
        <time>2018-06-25T09:00:34.973Z</time>
      </trkpt>
      <trkpt lat="50.16998" lon="3.87164">
        <ele>147</ele>
        <time>2018-06-25T09:00:35.973Z</time>
      </trkpt>
      <trkpt lat="50.16998" lon="3.87254">
        <ele>147</ele>
        <time>2018-06-25T09:00:36.973Z</time>
      </trkpt>
      <trkpt lat="50.16995" lon="3.87265">
        <ele>147</ele>
        <time>2018-06-25T09:00:37.973Z</time>
      </trkpt>
      <trkpt lat="50.1698" lon="3.87306">
        <ele>148</ele>
        <time>2018-06-25T09:00:38.973Z</time>
      </trkpt>
      <trkpt lat="50.16977" lon="3.87322">
        <ele>148</ele>
        <time>2018-06-25T09:00:39.973Z</time>
      </trkpt>
      <trkpt lat="50.16965" lon="3.87448">
        <ele>147</ele>
        <time>2018-06-25T09:00:40.973Z</time>
      </trkpt>
      <trkpt lat="50.16981" lon="3.87461">
        <ele>145</ele>
        <time>2018-06-25T09:00:41.973Z</time>
      </trkpt>
      <trkpt lat="50.17004" lon="3.87476">
        <ele>143</ele>
        <time>2018-06-25T09:00:42.973Z</time>
      </trkpt>
      <trkpt lat="50.1703" lon="3.87488">
        <ele>142</ele>
        <time>2018-06-25T09:00:43.973Z</time>
      </trkpt>
      <trkpt lat="50.17086" lon="3.87505">
        <ele>139</ele>
        <time>2018-06-25T09:00:44.973Z</time>
      </trkpt>
      <trkpt lat="50.17112" lon="3.87498">
        <ele>140</ele>
        <time>2018-06-25T09:00:45.973Z</time>
      </trkpt>
      <trkpt lat="50.17127" lon="3.87502">
        <ele>141</ele>
        <time>2018-06-25T09:00:46.973Z</time>
      </trkpt>
      <trkpt lat="50.17153" lon="3.87514">
        <ele>142</ele>
        <time>2018-06-25T09:00:47.973Z</time>
      </trkpt>
      <trkpt lat="50.17176" lon="3.87534">
        <ele>143</ele>
        <time>2018-06-25T09:00:48.973Z</time>
      </trkpt>
      <trkpt lat="50.17205" lon="3.87594">
        <ele>146</ele>
        <time>2018-06-25T09:00:49.973Z</time>
      </trkpt>
      <trkpt lat="50.17212" lon="3.87617">
        <ele>146</ele>
        <time>2018-06-25T09:00:50.973Z</time>
      </trkpt>
      <trkpt lat="50.17222" lon="3.87637">
        <ele>147</ele>
        <time>2018-06-25T09:00:51.973Z</time>
      </trkpt>
      <trkpt lat="50.17231" lon="3.87648">
        <ele>148</ele>
        <time>2018-06-25T09:00:52.973Z</time>
      </trkpt>
      <trkpt lat="50.17239" lon="3.87706">
        <ele>148</ele>
        <time>2018-06-25T09:00:53.973Z</time>
      </trkpt>
      <trkpt lat="50.17262" lon="3.87826">
        <ele>149</ele>
        <time>2018-06-25T09:00:54.973Z</time>
      </trkpt>
      <trkpt lat="50.17272" lon="3.87832">
        <ele>150</ele>
        <time>2018-06-25T09:00:55.973Z</time>
      </trkpt>
      <trkpt lat="50.17298" lon="3.8784">
        <ele>153</ele>
        <time>2018-06-25T09:00:56.973Z</time>
      </trkpt>
      <trkpt lat="50.17332" lon="3.87854">
        <ele>157</ele>
        <time>2018-06-25T09:00:57.973Z</time>
      </trkpt>
      <trkpt lat="50.17375" lon="3.8786">
        <ele>159</ele>
        <time>2018-06-25T09:00:58.973Z</time>
      </trkpt>
      <trkpt lat="50.17389" lon="3.87859">
        <ele>160</ele>
        <time>2018-06-25T09:00:59.973Z</time>
      </trkpt>
      <trkpt lat="50.17395" lon="3.87854">
        <ele>160</ele>
        <time>2018-06-25T09:01:00.973Z</time>
      </trkpt>
      <trkpt lat="50.17409" lon="3.87886">
        <ele>160</ele>
        <time>2018-06-25T09:01:01.973Z</time>
      </trkpt>
      <trkpt lat="50.17429" lon="3.87922">
        <ele>160</ele>
        <time>2018-06-25T09:01:02.973Z</time>
      </trkpt>
      <trkpt lat="50.17471" lon="3.87987">
        <ele>161</ele>
        <time>2018-06-25T09:01:03.973Z</time>
      </trkpt>
      <trkpt lat="50.1753" lon="3.88089">
        <ele>163</ele>
        <time>2018-06-25T09:01:04.973Z</time>
      </trkpt>
      <trkpt lat="50.17547" lon="3.88114">
        <ele>163</ele>
        <time>2018-06-25T09:01:05.973Z</time>
      </trkpt>
      <trkpt lat="50.17559" lon="3.88129">
        <ele>163</ele>
        <time>2018-06-25T09:01:06.973Z</time>
      </trkpt>
      <trkpt lat="50.17603" lon="3.88161">
        <ele>166</ele>
        <time>2018-06-25T09:01:07.973Z</time>
      </trkpt>
      <trkpt lat="50.17642" lon="3.88211">
        <ele>167</ele>
        <time>2018-06-25T09:01:08.973Z</time>
      </trkpt>
      <trkpt lat="50.17642" lon="3.88211">
        <ele>167</ele>
        <time>2018-06-25T09:01:09.973Z</time>
      </trkpt>
      <trkpt lat="50.17728" lon="3.88336">
        <ele>167</ele>
        <time>2018-06-25T09:01:10.973Z</time>
      </trkpt>
      <trkpt lat="50.17745" lon="3.88358">
        <ele>167</ele>
        <time>2018-06-25T09:01:11.973Z</time>
      </trkpt>
      <trkpt lat="50.17797" lon="3.8841">
        <ele>168</ele>
        <time>2018-06-25T09:01:12.973Z</time>
      </trkpt>
      <trkpt lat="50.17822" lon="3.88441">
        <ele>169</ele>
        <time>2018-06-25T09:01:13.973Z</time>
      </trkpt>
      <trkpt lat="50.17865" lon="3.88505">
        <ele>169</ele>
        <time>2018-06-25T09:01:14.973Z</time>
      </trkpt>
      <trkpt lat="50.17896" lon="3.88536">
        <ele>170</ele>
        <time>2018-06-25T09:01:15.973Z</time>
      </trkpt>
      <trkpt lat="50.17924" lon="3.88569">
        <ele>170</ele>
        <time>2018-06-25T09:01:16.973Z</time>
      </trkpt>
      <trkpt lat="50.17977" lon="3.88653">
        <ele>171</ele>
        <time>2018-06-25T09:01:17.973Z</time>
      </trkpt>
      <trkpt lat="50.18047" lon="3.88745">
        <ele>173</ele>
        <time>2018-06-25T09:01:18.973Z</time>
      </trkpt>
      <trkpt lat="50.18147" lon="3.88878">
        <ele>175</ele>
        <time>2018-06-25T09:01:19.973Z</time>
      </trkpt>
      <trkpt lat="50.18164" lon="3.88904">
        <ele>176</ele>
        <time>2018-06-25T09:01:20.973Z</time>
      </trkpt>
      <trkpt lat="50.18181" lon="3.88942">
        <ele>176</ele>
        <time>2018-06-25T09:01:21.973Z</time>
      </trkpt>
      <trkpt lat="50.18193" lon="3.88976">
        <ele>176</ele>
        <time>2018-06-25T09:01:22.973Z</time>
      </trkpt>
      <trkpt lat="50.18207" lon="3.89029">
        <ele>176</ele>
        <time>2018-06-25T09:01:23.973Z</time>
      </trkpt>
      <trkpt lat="50.18222" lon="3.89062">
        <ele>176</ele>
        <time>2018-06-25T09:01:24.973Z</time>
      </trkpt>
      <trkpt lat="50.18228" lon="3.89073">
        <ele>176</ele>
        <time>2018-06-25T09:01:25.973Z</time>
      </trkpt>
      <trkpt lat="50.1825" lon="3.89129">
        <ele>175</ele>
        <time>2018-06-25T09:01:26.973Z</time>
      </trkpt>
      <trkpt lat="50.18278" lon="3.89189">
        <ele>175</ele>
        <time>2018-06-25T09:01:27.973Z</time>
      </trkpt>
      <trkpt lat="50.18284" lon="3.89209">
        <ele>174</ele>
        <time>2018-06-25T09:01:28.973Z</time>
      </trkpt>
      <trkpt lat="50.18294" lon="3.89261">
        <ele>173</ele>
        <time>2018-06-25T09:01:29.973Z</time>
      </trkpt>
      <trkpt lat="50.18295" lon="3.89288">
        <ele>173</ele>
        <time>2018-06-25T09:01:30.973Z</time>
      </trkpt>
      <trkpt lat="50.18308" lon="3.89329">
        <ele>173</ele>
        <time>2018-06-25T09:01:31.973Z</time>
      </trkpt>
      <trkpt lat="50.18316" lon="3.89333">
        <ele>174</ele>
        <time>2018-06-25T09:01:32.973Z</time>
      </trkpt>
      <trkpt lat="50.18328" lon="3.89347">
        <ele>174</ele>
        <time>2018-06-25T09:01:33.973Z</time>
      </trkpt>
      <trkpt lat="50.18356" lon="3.89403">
        <ele>173</ele>
        <time>2018-06-25T09:01:34.973Z</time>
      </trkpt>
      <trkpt lat="50.18388" lon="3.89482">
        <ele>173</ele>
        <time>2018-06-25T09:01:35.973Z</time>
      </trkpt>
      <trkpt lat="50.18401" lon="3.89519">
        <ele>173</ele>
        <time>2018-06-25T09:01:36.973Z</time>
      </trkpt>
      <trkpt lat="50.1841" lon="3.89524">
        <ele>173</ele>
        <time>2018-06-25T09:01:37.973Z</time>
      </trkpt>
      <trkpt lat="50.18457" lon="3.89494">
        <ele>176</ele>
        <time>2018-06-25T09:01:38.973Z</time>
      </trkpt>
      <trkpt lat="50.18467" lon="3.89512">
        <ele>176</ele>
        <time>2018-06-25T09:01:39.973Z</time>
      </trkpt>
      <trkpt lat="50.18538" lon="3.89698">
        <ele>179</ele>
        <time>2018-06-25T09:01:40.973Z</time>
      </trkpt>
      <trkpt lat="50.18425" lon="3.89971">
        <ele>176</ele>
        <time>2018-06-25T09:01:41.973Z</time>
      </trkpt>
      <trkpt lat="50.1841" lon="3.9001">
        <ele>176</ele>
        <time>2018-06-25T09:01:42.973Z</time>
      </trkpt>
      <trkpt lat="50.18406" lon="3.90027">
        <ele>176</ele>
        <time>2018-06-25T09:01:43.973Z</time>
      </trkpt>
      <trkpt lat="50.18406" lon="3.90039">
        <ele>176</ele>
        <time>2018-06-25T09:01:44.973Z</time>
      </trkpt>
      <trkpt lat="50.18407" lon="3.90049">
        <ele>176</ele>
        <time>2018-06-25T09:01:45.973Z</time>
      </trkpt>
      <trkpt lat="50.18465" lon="3.90246">
        <ele>178</ele>
        <time>2018-06-25T09:01:46.973Z</time>
      </trkpt>
      <trkpt lat="50.18471" lon="3.90282">
        <ele>178</ele>
        <time>2018-06-25T09:01:47.973Z</time>
      </trkpt>
      <trkpt lat="50.1847" lon="3.90307">
        <ele>178</ele>
        <time>2018-06-25T09:01:48.973Z</time>
      </trkpt>
      <trkpt lat="50.18468" lon="3.90331">
        <ele>179</ele>
        <time>2018-06-25T09:01:49.973Z</time>
      </trkpt>
      <trkpt lat="50.18403" lon="3.90734">
        <ele>194</ele>
        <time>2018-06-25T09:01:50.973Z</time>
      </trkpt>
      <trkpt lat="50.18288" lon="3.91313">
        <ele>191</ele>
        <time>2018-06-25T09:01:51.973Z</time>
      </trkpt>
      <trkpt lat="50.18258" lon="3.91435">
        <ele>184</ele>
        <time>2018-06-25T09:01:52.973Z</time>
      </trkpt>
      <trkpt lat="50.18222" lon="3.91521">
        <ele>183</ele>
        <time>2018-06-25T09:01:53.973Z</time>
      </trkpt>
      <trkpt lat="50.17902" lon="3.92558">
        <ele>170</ele>
        <time>2018-06-25T09:01:54.973Z</time>
      </trkpt>
      <trkpt lat="50.17827" lon="3.92781">
        <ele>165</ele>
        <time>2018-06-25T09:01:55.973Z</time>
      </trkpt>
      <trkpt lat="50.17649" lon="3.9335">
        <ele>172</ele>
        <time>2018-06-25T09:01:56.973Z</time>
      </trkpt>
      <trkpt lat="50.17646" lon="3.93526">
        <ele>168</ele>
        <time>2018-06-25T09:01:57.973Z</time>
      </trkpt>
      <trkpt lat="50.17641" lon="3.93567">
        <ele>167</ele>
        <time>2018-06-25T09:01:58.973Z</time>
      </trkpt>
      <trkpt lat="50.17604" lon="3.93715">
        <ele>171</ele>
        <time>2018-06-25T09:01:59.973Z</time>
      </trkpt>
      <trkpt lat="50.17614" lon="3.93786">
        <ele>174</ele>
        <time>2018-06-25T09:02:00.973Z</time>
      </trkpt>
      <trkpt lat="50.1764" lon="3.93921">
        <ele>177</ele>
        <time>2018-06-25T09:02:01.973Z</time>
      </trkpt>
      <trkpt lat="50.17645" lon="3.9406">
        <ele>176</ele>
        <time>2018-06-25T09:02:02.973Z</time>
      </trkpt>
      <trkpt lat="50.17645" lon="3.94204">
        <ele>176</ele>
        <time>2018-06-25T09:02:03.973Z</time>
      </trkpt>
      <trkpt lat="50.17662" lon="3.94372">
        <ele>177</ele>
        <time>2018-06-25T09:02:04.973Z</time>
      </trkpt>
      <trkpt lat="50.17666" lon="3.9446">
        <ele>177</ele>
        <time>2018-06-25T09:02:05.973Z</time>
      </trkpt>
      <trkpt lat="50.17668" lon="3.94612">
        <ele>178</ele>
        <time>2018-06-25T09:02:06.973Z</time>
      </trkpt>
      <trkpt lat="50.17667" lon="3.94647">
        <ele>179</ele>
        <time>2018-06-25T09:02:07.973Z</time>
      </trkpt>
      <trkpt lat="50.17664" lon="3.94677">
        <ele>179</ele>
        <time>2018-06-25T09:02:08.973Z</time>
      </trkpt>
      <trkpt lat="50.17655" lon="3.94721">
        <ele>180</ele>
        <time>2018-06-25T09:02:09.973Z</time>
      </trkpt>
      <trkpt lat="50.17564" lon="3.95156">
        <ele>179</ele>
        <time>2018-06-25T09:02:10.973Z</time>
      </trkpt>
      <trkpt lat="50.17546" lon="3.95262">
        <ele>179</ele>
        <time>2018-06-25T09:02:11.973Z</time>
      </trkpt>
      <trkpt lat="50.17544" lon="3.95285">
        <ele>179</ele>
        <time>2018-06-25T09:02:12.973Z</time>
      </trkpt>
      <trkpt lat="50.17538" lon="3.95286">
        <ele>179</ele>
        <time>2018-06-25T09:02:13.973Z</time>
      </trkpt>
      <trkpt lat="50.17535" lon="3.95312">
        <ele>179</ele>
        <time>2018-06-25T09:02:14.973Z</time>
      </trkpt>
      <trkpt lat="50.17528" lon="3.95338">
        <ele>179</ele>
        <time>2018-06-25T09:02:15.973Z</time>
      </trkpt>
      <trkpt lat="50.1752" lon="3.9538">
        <ele>178</ele>
        <time>2018-06-25T09:02:16.973Z</time>
      </trkpt>
      <trkpt lat="50.1751" lon="3.95442">
        <ele>178</ele>
        <time>2018-06-25T09:02:17.973Z</time>
      </trkpt>
      <trkpt lat="50.17509" lon="3.95466">
        <ele>178</ele>
        <time>2018-06-25T09:02:18.973Z</time>
      </trkpt>
      <trkpt lat="50.17509" lon="3.95548">
        <ele>178</ele>
        <time>2018-06-25T09:02:19.973Z</time>
      </trkpt>
      <trkpt lat="50.17503" lon="3.95566">
        <ele>178</ele>
        <time>2018-06-25T09:02:20.973Z</time>
      </trkpt>
      <trkpt lat="50.17497" lon="3.95594">
        <ele>178</ele>
        <time>2018-06-25T09:02:21.973Z</time>
      </trkpt>
      <trkpt lat="50.1749" lon="3.95635">
        <ele>179</ele>
        <time>2018-06-25T09:02:22.973Z</time>
      </trkpt>
      <trkpt lat="50.17479" lon="3.95751">
        <ele>180</ele>
        <time>2018-06-25T09:02:23.973Z</time>
      </trkpt>
      <trkpt lat="50.17458" lon="3.95803">
        <ele>179</ele>
        <time>2018-06-25T09:02:24.973Z</time>
      </trkpt>
      <trkpt lat="50.17444" lon="3.95829">
        <ele>178</ele>
        <time>2018-06-25T09:02:25.973Z</time>
      </trkpt>
      <trkpt lat="50.17433" lon="3.95844">
        <ele>178</ele>
        <time>2018-06-25T09:02:26.973Z</time>
      </trkpt>
      <trkpt lat="50.17422" lon="3.95878">
        <ele>179</ele>
        <time>2018-06-25T09:02:27.973Z</time>
      </trkpt>
      <trkpt lat="50.17417" lon="3.95978">
        <ele>181</ele>
        <time>2018-06-25T09:02:28.973Z</time>
      </trkpt>
      <trkpt lat="50.17425" lon="3.96013">
        <ele>182</ele>
        <time>2018-06-25T09:02:29.973Z</time>
      </trkpt>
      <trkpt lat="50.17421" lon="3.9608">
        <ele>183</ele>
        <time>2018-06-25T09:02:30.973Z</time>
      </trkpt>
      <trkpt lat="50.17405" lon="3.96152">
        <ele>183</ele>
        <time>2018-06-25T09:02:31.973Z</time>
      </trkpt>
      <trkpt lat="50.17401" lon="3.96271">
        <ele>184</ele>
        <time>2018-06-25T09:02:32.973Z</time>
      </trkpt>
      <trkpt lat="50.17423" lon="3.96352">
        <ele>185</ele>
        <time>2018-06-25T09:02:33.973Z</time>
      </trkpt>
      <trkpt lat="50.17429" lon="3.96403">
        <ele>186</ele>
        <time>2018-06-25T09:02:34.973Z</time>
      </trkpt>
      <trkpt lat="50.17429" lon="3.96443">
        <ele>187</ele>
        <time>2018-06-25T09:02:35.973Z</time>
      </trkpt>
      <trkpt lat="50.17425" lon="3.96468">
        <ele>187</ele>
        <time>2018-06-25T09:02:36.973Z</time>
      </trkpt>
      <trkpt lat="50.17418" lon="3.96493">
        <ele>187</ele>
        <time>2018-06-25T09:02:37.973Z</time>
      </trkpt>
      <trkpt lat="50.17403" lon="3.96535">
        <ele>188</ele>
        <time>2018-06-25T09:02:38.973Z</time>
      </trkpt>
      <trkpt lat="50.17311" lon="3.96858">
        <ele>194</ele>
        <time>2018-06-25T09:02:39.973Z</time>
      </trkpt>
      <trkpt lat="50.17255" lon="3.97016">
        <ele>194</ele>
        <time>2018-06-25T09:02:40.973Z</time>
      </trkpt>
      <trkpt lat="50.17242" lon="3.97068">
        <ele>193</ele>
        <time>2018-06-25T09:02:41.973Z</time>
      </trkpt>
      <trkpt lat="50.17229" lon="3.97151">
        <ele>192</ele>
        <time>2018-06-25T09:02:42.973Z</time>
      </trkpt>
      <trkpt lat="50.17224" lon="3.97229">
        <ele>192</ele>
        <time>2018-06-25T09:02:43.973Z</time>
      </trkpt>
      <trkpt lat="50.17208" lon="3.97662">
        <ele>189</ele>
        <time>2018-06-25T09:02:44.973Z</time>
      </trkpt>
      <trkpt lat="50.17209" lon="3.97815">
        <ele>190</ele>
        <time>2018-06-25T09:02:45.973Z</time>
      </trkpt>
      <trkpt lat="50.17203" lon="3.97886">
        <ele>191</ele>
        <time>2018-06-25T09:02:46.973Z</time>
      </trkpt>
      <trkpt lat="50.17192" lon="3.9797">
        <ele>192</ele>
        <time>2018-06-25T09:02:47.973Z</time>
      </trkpt>
      <trkpt lat="50.17168" lon="3.98139">
        <ele>195</ele>
        <time>2018-06-25T09:02:48.973Z</time>
      </trkpt>
      <trkpt lat="50.17147" lon="3.98365">
        <ele>196</ele>
        <time>2018-06-25T09:02:49.973Z</time>
      </trkpt>
      <trkpt lat="50.17137" lon="3.98494">
        <ele>201</ele>
        <time>2018-06-25T09:02:50.973Z</time>
      </trkpt>
      <trkpt lat="50.17135" lon="3.98545">
        <ele>206</ele>
        <time>2018-06-25T09:02:51.973Z</time>
      </trkpt>
      <trkpt lat="50.17119" lon="3.99799">
        <ele>220</ele>
        <time>2018-06-25T09:02:52.973Z</time>
      </trkpt>
      <trkpt lat="50.17104" lon="3.99924">
        <ele>217</ele>
        <time>2018-06-25T09:02:53.973Z</time>
      </trkpt>
      <trkpt lat="50.17068" lon="4.00021">
        <ele>209</ele>
        <time>2018-06-25T09:02:54.973Z</time>
      </trkpt>
      <trkpt lat="50.1706" lon="4.00055">
        <ele>209</ele>
        <time>2018-06-25T09:02:55.973Z</time>
      </trkpt>
      <trkpt lat="50.17054" lon="4.0015">
        <ele>208</ele>
        <time>2018-06-25T09:02:56.973Z</time>
      </trkpt>
      <trkpt lat="50.17056" lon="4.00176">
        <ele>208</ele>
        <time>2018-06-25T09:02:57.973Z</time>
      </trkpt>
      <trkpt lat="50.17076" lon="4.0031">
        <ele>207</ele>
        <time>2018-06-25T09:02:58.973Z</time>
      </trkpt>
      <trkpt lat="50.17077" lon="4.00361">
        <ele>207</ele>
        <time>2018-06-25T09:02:59.973Z</time>
      </trkpt>
      <trkpt lat="50.17074" lon="4.00415">
        <ele>206</ele>
        <time>2018-06-25T09:03:00.973Z</time>
      </trkpt>
      <trkpt lat="50.17067" lon="4.00458">
        <ele>206</ele>
        <time>2018-06-25T09:03:01.973Z</time>
      </trkpt>
      <trkpt lat="50.17053" lon="4.00592">
        <ele>204</ele>
        <time>2018-06-25T09:03:02.973Z</time>
      </trkpt>
      <trkpt lat="50.17049" lon="4.006">
        <ele>204</ele>
        <time>2018-06-25T09:03:03.973Z</time>
      </trkpt>
      <trkpt lat="50.17048" lon="4.00609">
        <ele>203</ele>
        <time>2018-06-25T09:03:04.973Z</time>
      </trkpt>
      <trkpt lat="50.17055" lon="4.00729">
        <ele>201</ele>
        <time>2018-06-25T09:03:05.973Z</time>
      </trkpt>
      <trkpt lat="50.17055" lon="4.00787">
        <ele>199</ele>
        <time>2018-06-25T09:03:06.973Z</time>
      </trkpt>
      <trkpt lat="50.17052" lon="4.00859">
        <ele>198</ele>
        <time>2018-06-25T09:03:07.973Z</time>
      </trkpt>
      <trkpt lat="50.17047" lon="4.00921">
        <ele>198</ele>
        <time>2018-06-25T09:03:08.973Z</time>
      </trkpt>
      <trkpt lat="50.17041" lon="4.00978">
        <ele>197</ele>
        <time>2018-06-25T09:03:09.973Z</time>
      </trkpt>
      <trkpt lat="50.17017" lon="4.01112">
        <ele>198</ele>
        <time>2018-06-25T09:03:10.973Z</time>
      </trkpt>
      <trkpt lat="50.1701" lon="4.01202">
        <ele>197</ele>
        <time>2018-06-25T09:03:11.973Z</time>
      </trkpt>
      <trkpt lat="50.16984" lon="4.01402">
        <ele>193</ele>
        <time>2018-06-25T09:03:12.973Z</time>
      </trkpt>
      <trkpt lat="50.16986" lon="4.01462">
        <ele>192</ele>
        <time>2018-06-25T09:03:13.973Z</time>
      </trkpt>
      <trkpt lat="50.16989" lon="4.01495">
        <ele>191</ele>
        <time>2018-06-25T09:03:14.973Z</time>
      </trkpt>
      <trkpt lat="50.16997" lon="4.01547">
        <ele>191</ele>
        <time>2018-06-25T09:03:15.973Z</time>
      </trkpt>
      <trkpt lat="50.17018" lon="4.0165">
        <ele>192</ele>
        <time>2018-06-25T09:03:16.973Z</time>
      </trkpt>
      <trkpt lat="50.17081" lon="4.01934">
        <ele>187</ele>
        <time>2018-06-25T09:03:17.973Z</time>
      </trkpt>
      <trkpt lat="50.17112" lon="4.02059">
        <ele>186</ele>
        <time>2018-06-25T09:03:18.973Z</time>
      </trkpt>
      <trkpt lat="50.17112" lon="4.02073">
        <ele>186</ele>
        <time>2018-06-25T09:03:19.973Z</time>
      </trkpt>
      <trkpt lat="50.17106" lon="4.02162">
        <ele>184</ele>
        <time>2018-06-25T09:03:20.973Z</time>
      </trkpt>
      <trkpt lat="50.171" lon="4.02207">
        <ele>182</ele>
        <time>2018-06-25T09:03:21.973Z</time>
      </trkpt>
      <trkpt lat="50.17094" lon="4.02236">
        <ele>181</ele>
        <time>2018-06-25T09:03:22.973Z</time>
      </trkpt>
      <trkpt lat="50.17082" lon="4.02279">
        <ele>180</ele>
        <time>2018-06-25T09:03:23.973Z</time>
      </trkpt>
      <trkpt lat="50.1708" lon="4.02312">
        <ele>180</ele>
        <time>2018-06-25T09:03:24.973Z</time>
      </trkpt>
      <trkpt lat="50.17107" lon="4.0248">
        <ele>173</ele>
        <time>2018-06-25T09:03:25.973Z</time>
      </trkpt>
      <trkpt lat="50.17115" lon="4.02518">
        <ele>173</ele>
        <time>2018-06-25T09:03:26.973Z</time>
      </trkpt>
      <trkpt lat="50.1714" lon="4.02585">
        <ele>172</ele>
        <time>2018-06-25T09:03:27.973Z</time>
      </trkpt>
      <trkpt lat="50.17152" lon="4.02624">
        <ele>172</ele>
        <time>2018-06-25T09:03:28.973Z</time>
      </trkpt>
      <trkpt lat="50.1716" lon="4.02658">
        <ele>172</ele>
        <time>2018-06-25T09:03:29.973Z</time>
      </trkpt>
      <trkpt lat="50.17168" lon="4.02718">
        <ele>173</ele>
        <time>2018-06-25T09:03:30.973Z</time>
      </trkpt>
      <trkpt lat="50.17159" lon="4.02745">
        <ele>173</ele>
        <time>2018-06-25T09:03:31.973Z</time>
      </trkpt>
      <trkpt lat="50.17152" lon="4.02773">
        <ele>174</ele>
        <time>2018-06-25T09:03:32.973Z</time>
      </trkpt>
      <trkpt lat="50.17151" lon="4.02808">
        <ele>174</ele>
        <time>2018-06-25T09:03:33.973Z</time>
      </trkpt>
      <trkpt lat="50.17154" lon="4.02822">
        <ele>174</ele>
        <time>2018-06-25T09:03:34.973Z</time>
      </trkpt>
      <trkpt lat="50.17163" lon="4.02832">
        <ele>174</ele>
        <time>2018-06-25T09:03:35.973Z</time>
      </trkpt>
      <trkpt lat="50.17176" lon="4.02842">
        <ele>175</ele>
        <time>2018-06-25T09:03:36.973Z</time>
      </trkpt>
      <trkpt lat="50.17226" lon="4.02858">
        <ele>176</ele>
        <time>2018-06-25T09:03:37.973Z</time>
      </trkpt>
      <trkpt lat="50.17246" lon="4.02873">
        <ele>176</ele>
        <time>2018-06-25T09:03:38.973Z</time>
      </trkpt>
      <trkpt lat="50.17204" lon="4.03182">
        <ele>182</ele>
        <time>2018-06-25T09:03:39.973Z</time>
      </trkpt>
      <trkpt lat="50.17187" lon="4.03327">
        <ele>184</ele>
        <time>2018-06-25T09:03:40.973Z</time>
      </trkpt>
      <trkpt lat="50.17096" lon="4.03976">
        <ele>186</ele>
        <time>2018-06-25T09:03:41.973Z</time>
      </trkpt>
      <trkpt lat="50.17091" lon="4.04028">
        <ele>187</ele>
        <time>2018-06-25T09:03:42.973Z</time>
      </trkpt>
      <trkpt lat="50.17091" lon="4.041">
        <ele>186</ele>
        <time>2018-06-25T09:03:43.973Z</time>
      </trkpt>
      <trkpt lat="50.17098" lon="4.04186">
        <ele>185</ele>
        <time>2018-06-25T09:03:44.973Z</time>
      </trkpt>
      <trkpt lat="50.17106" lon="4.04247">
        <ele>186</ele>
        <time>2018-06-25T09:03:45.973Z</time>
      </trkpt>
      <trkpt lat="50.17115" lon="4.04297">
        <ele>187</ele>
        <time>2018-06-25T09:03:46.973Z</time>
      </trkpt>
      <trkpt lat="50.17133" lon="4.04359">
        <ele>188</ele>
        <time>2018-06-25T09:03:47.973Z</time>
      </trkpt>
      <trkpt lat="50.17154" lon="4.04409">
        <ele>190</ele>
        <time>2018-06-25T09:03:48.973Z</time>
      </trkpt>
      <trkpt lat="50.17174" lon="4.04445">
        <ele>190</ele>
        <time>2018-06-25T09:03:49.973Z</time>
      </trkpt>
      <trkpt lat="50.17204" lon="4.04488">
        <ele>189</ele>
        <time>2018-06-25T09:03:50.973Z</time>
      </trkpt>
      <trkpt lat="50.17255" lon="4.0454">
        <ele>190</ele>
        <time>2018-06-25T09:03:51.973Z</time>
      </trkpt>
      <trkpt lat="50.17727" lon="4.04882">
        <ele>198</ele>
        <time>2018-06-25T09:03:52.973Z</time>
      </trkpt>
      <trkpt lat="50.17769" lon="4.04921">
        <ele>196</ele>
        <time>2018-06-25T09:03:53.973Z</time>
      </trkpt>
      <trkpt lat="50.17812" lon="4.04974">
        <ele>193</ele>
        <time>2018-06-25T09:03:54.973Z</time>
      </trkpt>
      <trkpt lat="50.17838" lon="4.05015">
        <ele>190</ele>
        <time>2018-06-25T09:03:55.973Z</time>
      </trkpt>
      <trkpt lat="50.17842" lon="4.05019">
        <ele>190</ele>
        <time>2018-06-25T09:03:56.973Z</time>
      </trkpt>
      <trkpt lat="50.17855" lon="4.05039">
        <ele>190</ele>
        <time>2018-06-25T09:03:57.973Z</time>
      </trkpt>
      <trkpt lat="50.17893" lon="4.05113">
        <ele>188</ele>
        <time>2018-06-25T09:03:58.973Z</time>
      </trkpt>
      <trkpt lat="50.17912" lon="4.0516">
        <ele>189</ele>
        <time>2018-06-25T09:03:59.973Z</time>
      </trkpt>
      <trkpt lat="50.17933" lon="4.05234">
        <ele>190</ele>
        <time>2018-06-25T09:04:00.973Z</time>
      </trkpt>
      <trkpt lat="50.17955" lon="4.05334">
        <ele>188</ele>
        <time>2018-06-25T09:04:01.973Z</time>
      </trkpt>
      <trkpt lat="50.17961" lon="4.05383">
        <ele>186</ele>
        <time>2018-06-25T09:04:02.973Z</time>
      </trkpt>
      <trkpt lat="50.17965" lon="4.05433">
        <ele>184</ele>
        <time>2018-06-25T09:04:03.973Z</time>
      </trkpt>
      <trkpt lat="50.17967" lon="4.05496">
        <ele>183</ele>
        <time>2018-06-25T09:04:04.973Z</time>
      </trkpt>
      <trkpt lat="50.17963" lon="4.05591">
        <ele>181</ele>
        <time>2018-06-25T09:04:05.973Z</time>
      </trkpt>
      <trkpt lat="50.17953" lon="4.05681">
        <ele>181</ele>
        <time>2018-06-25T09:04:06.973Z</time>
      </trkpt>
      <trkpt lat="50.17936" lon="4.05803">
        <ele>181</ele>
        <time>2018-06-25T09:04:07.973Z</time>
      </trkpt>
      <trkpt lat="50.17929" lon="4.05869">
        <ele>181</ele>
        <time>2018-06-25T09:04:08.973Z</time>
      </trkpt>
      <trkpt lat="50.17923" lon="4.05956">
        <ele>180</ele>
        <time>2018-06-25T09:04:09.973Z</time>
      </trkpt>
      <trkpt lat="50.17923" lon="4.05979">
        <ele>181</ele>
        <time>2018-06-25T09:04:10.973Z</time>
      </trkpt>
      <trkpt lat="50.17934" lon="4.0612">
        <ele>180</ele>
        <time>2018-06-25T09:04:11.973Z</time>
      </trkpt>
      <trkpt lat="50.17943" lon="4.06265">
        <ele>177</ele>
        <time>2018-06-25T09:04:12.973Z</time>
      </trkpt>
      <trkpt lat="50.17943" lon="4.06317">
        <ele>176</ele>
        <time>2018-06-25T09:04:13.973Z</time>
      </trkpt>
      <trkpt lat="50.17937" lon="4.06438">
        <ele>176</ele>
        <time>2018-06-25T09:04:14.973Z</time>
      </trkpt>
      <trkpt lat="50.17917" lon="4.06578">
        <ele>176</ele>
        <time>2018-06-25T09:04:15.973Z</time>
      </trkpt>
      <trkpt lat="50.17913" lon="4.06615">
        <ele>177</ele>
        <time>2018-06-25T09:04:16.973Z</time>
      </trkpt>
      <trkpt lat="50.1791" lon="4.06699">
        <ele>179</ele>
        <time>2018-06-25T09:04:17.973Z</time>
      </trkpt>
      <trkpt lat="50.17912" lon="4.06771">
        <ele>180</ele>
        <time>2018-06-25T09:04:18.973Z</time>
      </trkpt>
      <trkpt lat="50.17922" lon="4.06931">
        <ele>181</ele>
        <time>2018-06-25T09:04:19.973Z</time>
      </trkpt>
      <trkpt lat="50.17924" lon="4.07001">
        <ele>182</ele>
        <time>2018-06-25T09:04:20.973Z</time>
      </trkpt>
      <trkpt lat="50.17918" lon="4.07088">
        <ele>182</ele>
        <time>2018-06-25T09:04:21.973Z</time>
      </trkpt>
      <trkpt lat="50.179" lon="4.07207">
        <ele>183</ele>
        <time>2018-06-25T09:04:22.973Z</time>
      </trkpt>
      <trkpt lat="50.17886" lon="4.07271">
        <ele>184</ele>
        <time>2018-06-25T09:04:23.973Z</time>
      </trkpt>
      <trkpt lat="50.17763" lon="4.07736">
        <ele>188</ele>
        <time>2018-06-25T09:04:24.973Z</time>
      </trkpt>
      <trkpt lat="50.1774" lon="4.07803">
        <ele>188</ele>
        <time>2018-06-25T09:04:25.973Z</time>
      </trkpt>
      <trkpt lat="50.17731" lon="4.07823">
        <ele>188</ele>
        <time>2018-06-25T09:04:26.973Z</time>
      </trkpt>
      <trkpt lat="50.17731" lon="4.07823">
        <ele>188</ele>
        <time>2018-06-25T09:04:27.973Z</time>
      </trkpt>
      <trkpt lat="50.17717" lon="4.07853">
        <ele>189</ele>
        <time>2018-06-25T09:04:28.973Z</time>
      </trkpt>
      <trkpt lat="50.17697" lon="4.07886">
        <ele>190</ele>
        <time>2018-06-25T09:04:29.973Z</time>
      </trkpt>
      <trkpt lat="50.17668" lon="4.07928">
        <ele>192</ele>
        <time>2018-06-25T09:04:30.973Z</time>
      </trkpt>
      <trkpt lat="50.17641" lon="4.07957">
        <ele>192</ele>
        <time>2018-06-25T09:04:31.973Z</time>
      </trkpt>
      <trkpt lat="50.17605" lon="4.0799">
        <ele>193</ele>
        <time>2018-06-25T09:04:32.973Z</time>
      </trkpt>
      <trkpt lat="50.1757" lon="4.08014">
        <ele>195</ele>
        <time>2018-06-25T09:04:33.973Z</time>
      </trkpt>
      <trkpt lat="50.1752" lon="4.08032">
        <ele>197</ele>
        <time>2018-06-25T09:04:34.973Z</time>
      </trkpt>
      <trkpt lat="50.1748" lon="4.08038">
        <ele>198</ele>
        <time>2018-06-25T09:04:35.973Z</time>
      </trkpt>
      <trkpt lat="50.17433" lon="4.08036">
        <ele>198</ele>
        <time>2018-06-25T09:04:36.973Z</time>
      </trkpt>
      <trkpt lat="50.17381" lon="4.08019">
        <ele>199</ele>
        <time>2018-06-25T09:04:37.973Z</time>
      </trkpt>
      <trkpt lat="50.17338" lon="4.07994">
        <ele>200</ele>
        <time>2018-06-25T09:04:38.973Z</time>
      </trkpt>
      <trkpt lat="50.17281" lon="4.07946">
        <ele>199</ele>
        <time>2018-06-25T09:04:39.973Z</time>
      </trkpt>
      <trkpt lat="50.17102" lon="4.0779">
        <ele>199</ele>
        <time>2018-06-25T09:04:40.973Z</time>
      </trkpt>
      <trkpt lat="50.16566" lon="4.0735">
        <ele>207</ele>
        <time>2018-06-25T09:04:41.973Z</time>
      </trkpt>
      <trkpt lat="50.16474" lon="4.07285">
        <ele>208</ele>
        <time>2018-06-25T09:04:42.973Z</time>
      </trkpt>
      <trkpt lat="50.16374" lon="4.07223">
        <ele>210</ele>
        <time>2018-06-25T09:04:43.973Z</time>
      </trkpt>
      <trkpt lat="50.16318" lon="4.07194">
        <ele>211</ele>
        <time>2018-06-25T09:04:44.973Z</time>
      </trkpt>
      <trkpt lat="50.16224" lon="4.07151">
        <ele>215</ele>
        <time>2018-06-25T09:04:45.973Z</time>
      </trkpt>
      <trkpt lat="50.16116" lon="4.07118">
        <ele>220</ele>
        <time>2018-06-25T09:04:46.973Z</time>
      </trkpt>
      <trkpt lat="50.1599" lon="4.07084">
        <ele>224</ele>
        <time>2018-06-25T09:04:47.973Z</time>
      </trkpt>
      <trkpt lat="50.15826" lon="4.07048">
        <ele>223</ele>
        <time>2018-06-25T09:04:48.973Z</time>
      </trkpt>
      <trkpt lat="50.15156" lon="4.0692">
        <ele>216</ele>
        <time>2018-06-25T09:04:49.973Z</time>
      </trkpt>
      <trkpt lat="50.15161" lon="4.06921">
        <ele>217</ele>
        <time>2018-06-25T09:04:50.973Z</time>
      </trkpt>
      <trkpt lat="50.14837" lon="4.06857">
        <ele>207</ele>
        <time>2018-06-25T09:04:51.973Z</time>
      </trkpt>
      <trkpt lat="50.14681" lon="4.06831">
        <ele>218</ele>
        <time>2018-06-25T09:04:52.973Z</time>
      </trkpt>
      <trkpt lat="50.14602" lon="4.06821">
        <ele>222</ele>
        <time>2018-06-25T09:04:53.973Z</time>
      </trkpt>
      <trkpt lat="50.14515" lon="4.06815">
        <ele>222</ele>
        <time>2018-06-25T09:04:54.973Z</time>
      </trkpt>
      <trkpt lat="50.14388" lon="4.06798">
        <ele>231</ele>
        <time>2018-06-25T09:04:55.973Z</time>
      </trkpt>
      <trkpt lat="50.1427" lon="4.06767">
        <ele>233</ele>
        <time>2018-06-25T09:04:56.973Z</time>
      </trkpt>
      <trkpt lat="50.14113" lon="4.06719">
        <ele>228</ele>
        <time>2018-06-25T09:04:57.973Z</time>
      </trkpt>
      <trkpt lat="50.13981" lon="4.06674">
        <ele>222</ele>
        <time>2018-06-25T09:04:58.973Z</time>
      </trkpt>
      <trkpt lat="50.13929" lon="4.06661">
        <ele>218</ele>
        <time>2018-06-25T09:04:59.973Z</time>
      </trkpt>
      <trkpt lat="50.13873" lon="4.06641">
        <ele>218</ele>
        <time>2018-06-25T09:05:00.973Z</time>
      </trkpt>
      <trkpt lat="50.13808" lon="4.06628">
        <ele>219</ele>
        <time>2018-06-25T09:05:01.973Z</time>
      </trkpt>
      <trkpt lat="50.13723" lon="4.06616">
        <ele>218</ele>
        <time>2018-06-25T09:05:02.973Z</time>
      </trkpt>
      <trkpt lat="50.13535" lon="4.06623">
        <ele>213</ele>
        <time>2018-06-25T09:05:03.973Z</time>
      </trkpt>
      <trkpt lat="50.13394" lon="4.06636">
        <ele>210</ele>
        <time>2018-06-25T09:05:04.973Z</time>
      </trkpt>
      <trkpt lat="50.13294" lon="4.06638">
        <ele>208</ele>
        <time>2018-06-25T09:05:05.973Z</time>
      </trkpt>
      <trkpt lat="50.13245" lon="4.06642">
        <ele>204</ele>
        <time>2018-06-25T09:05:06.973Z</time>
      </trkpt>
      <trkpt lat="50.13183" lon="4.06635">
        <ele>204</ele>
        <time>2018-06-25T09:05:07.973Z</time>
      </trkpt>
      <trkpt lat="50.12911" lon="4.06542">
        <ele>196</ele>
        <time>2018-06-25T09:05:08.973Z</time>
      </trkpt>
      <trkpt lat="50.12859" lon="4.06529">
        <ele>194</ele>
        <time>2018-06-25T09:05:09.973Z</time>
      </trkpt>
      <trkpt lat="50.12826" lon="4.06526">
        <ele>193</ele>
        <time>2018-06-25T09:05:10.973Z</time>
      </trkpt>
      <trkpt lat="50.12779" lon="4.06532">
        <ele>193</ele>
        <time>2018-06-25T09:05:11.973Z</time>
      </trkpt>
      <trkpt lat="50.12725" lon="4.06551">
        <ele>193</ele>
        <time>2018-06-25T09:05:12.973Z</time>
      </trkpt>
      <trkpt lat="50.12638" lon="4.06594">
        <ele>194</ele>
        <time>2018-06-25T09:05:13.973Z</time>
      </trkpt>
      <trkpt lat="50.1251" lon="4.06695">
        <ele>189</ele>
        <time>2018-06-25T09:05:14.973Z</time>
      </trkpt>
      <trkpt lat="50.12458" lon="4.06729">
        <ele>184</ele>
        <time>2018-06-25T09:05:15.973Z</time>
      </trkpt>
      <trkpt lat="50.12412" lon="4.06745">
        <ele>180</ele>
        <time>2018-06-25T09:05:16.973Z</time>
      </trkpt>
      <trkpt lat="50.12354" lon="4.06757">
        <ele>179</ele>
        <time>2018-06-25T09:05:17.973Z</time>
      </trkpt>
      <trkpt lat="50.12299" lon="4.06763">
        <ele>178</ele>
        <time>2018-06-25T09:05:18.973Z</time>
      </trkpt>
      <trkpt lat="50.12151" lon="4.06728">
        <ele>177</ele>
        <time>2018-06-25T09:05:19.973Z</time>
      </trkpt>
      <trkpt lat="50.12152" lon="4.06728">
        <ele>177</ele>
        <time>2018-06-25T09:05:20.973Z</time>
      </trkpt>
      <trkpt lat="50.12298" lon="4.06763">
        <ele>178</ele>
        <time>2018-06-25T09:05:21.973Z</time>
      </trkpt>
      <trkpt lat="50.12353" lon="4.06757">
        <ele>179</ele>
        <time>2018-06-25T09:05:22.973Z</time>
      </trkpt>
      <trkpt lat="50.12411" lon="4.06745">
        <ele>180</ele>
        <time>2018-06-25T09:05:23.973Z</time>
      </trkpt>
      <trkpt lat="50.12457" lon="4.06729">
        <ele>184</ele>
        <time>2018-06-25T09:05:24.973Z</time>
      </trkpt>
      <trkpt lat="50.12509" lon="4.06695">
        <ele>189</ele>
        <time>2018-06-25T09:05:25.973Z</time>
      </trkpt>
      <trkpt lat="50.12637" lon="4.06594">
        <ele>194</ele>
        <time>2018-06-25T09:05:26.973Z</time>
      </trkpt>
      <trkpt lat="50.12724" lon="4.06551">
        <ele>193</ele>
        <time>2018-06-25T09:05:27.973Z</time>
      </trkpt>
      <trkpt lat="50.12778" lon="4.06532">
        <ele>193</ele>
        <time>2018-06-25T09:05:28.973Z</time>
      </trkpt>
      <trkpt lat="50.12825" lon="4.06526">
        <ele>193</ele>
        <time>2018-06-25T09:05:29.973Z</time>
      </trkpt>
      <trkpt lat="50.12858" lon="4.06529">
        <ele>194</ele>
        <time>2018-06-25T09:05:30.973Z</time>
      </trkpt>
      <trkpt lat="50.1291" lon="4.06542">
        <ele>196</ele>
        <time>2018-06-25T09:05:31.973Z</time>
      </trkpt>
      <trkpt lat="50.13057" lon="4.06593">
        <ele>202</ele>
        <time>2018-06-25T09:05:32.973Z</time>
      </trkpt>
      <trkpt lat="50.13058" lon="4.06592">
        <ele>201</ele>
        <time>2018-06-25T09:05:33.973Z</time>
      </trkpt>
      <trkpt lat="50.12911" lon="4.06542">
        <ele>196</ele>
        <time>2018-06-25T09:05:34.973Z</time>
      </trkpt>
      <trkpt lat="50.12859" lon="4.06529">
        <ele>194</ele>
        <time>2018-06-25T09:05:35.973Z</time>
      </trkpt>
      <trkpt lat="50.12826" lon="4.06526">
        <ele>193</ele>
        <time>2018-06-25T09:05:36.973Z</time>
      </trkpt>
      <trkpt lat="50.12779" lon="4.06532">
        <ele>193</ele>
        <time>2018-06-25T09:05:37.973Z</time>
      </trkpt>
      <trkpt lat="50.12725" lon="4.06551">
        <ele>193</ele>
        <time>2018-06-25T09:05:38.973Z</time>
      </trkpt>
      <trkpt lat="50.12638" lon="4.06594">
        <ele>194</ele>
        <time>2018-06-25T09:05:39.973Z</time>
      </trkpt>
      <trkpt lat="50.1251" lon="4.06695">
        <ele>189</ele>
        <time>2018-06-25T09:05:40.973Z</time>
      </trkpt>
      <trkpt lat="50.12458" lon="4.06729">
        <ele>184</ele>
        <time>2018-06-25T09:05:41.973Z</time>
      </trkpt>
      <trkpt lat="50.12412" lon="4.06745">
        <ele>180</ele>
        <time>2018-06-25T09:05:42.973Z</time>
      </trkpt>
      <trkpt lat="50.12354" lon="4.06757">
        <ele>179</ele>
        <time>2018-06-25T09:05:43.973Z</time>
      </trkpt>
      <trkpt lat="50.12299" lon="4.06763">
        <ele>178</ele>
        <time>2018-06-25T09:05:44.973Z</time>
      </trkpt>
      <trkpt lat="50.12146" lon="4.06726">
        <ele>176</ele>
        <time>2018-06-25T09:05:45.973Z</time>
      </trkpt>
      <trkpt lat="50.12151" lon="4.06756">
        <ele>177</ele>
        <time>2018-06-25T09:05:46.973Z</time>
      </trkpt>
      <trkpt lat="50.12162" lon="4.06795">
        <ele>177</ele>
        <time>2018-06-25T09:05:47.973Z</time>
      </trkpt>
      <trkpt lat="50.1218" lon="4.06881">
        <ele>175</ele>
        <time>2018-06-25T09:05:48.973Z</time>
      </trkpt>
      <trkpt lat="50.12182" lon="4.06891">
        <ele>175</ele>
        <time>2018-06-25T09:05:49.973Z</time>
      </trkpt>
      <trkpt lat="50.12182" lon="4.06919">
        <ele>173</ele>
        <time>2018-06-25T09:05:50.973Z</time>
      </trkpt>
      <trkpt lat="50.12177" lon="4.06979">
        <ele>171</ele>
        <time>2018-06-25T09:05:51.973Z</time>
      </trkpt>
      <trkpt lat="50.1215" lon="4.07104">
        <ele>168</ele>
        <time>2018-06-25T09:05:52.973Z</time>
      </trkpt>
      <trkpt lat="50.12136" lon="4.07184">
        <ele>167</ele>
        <time>2018-06-25T09:05:53.973Z</time>
      </trkpt>
      <trkpt lat="50.12133" lon="4.07211">
        <ele>167</ele>
        <time>2018-06-25T09:05:54.973Z</time>
      </trkpt>
      <trkpt lat="50.12133" lon="4.07241">
        <ele>166</ele>
        <time>2018-06-25T09:05:55.973Z</time>
      </trkpt>
      <trkpt lat="50.1214" lon="4.07287">
        <ele>166</ele>
        <time>2018-06-25T09:05:56.973Z</time>
      </trkpt>
      <trkpt lat="50.12141" lon="4.07307">
        <ele>166</ele>
        <time>2018-06-25T09:05:57.973Z</time>
      </trkpt>
      <trkpt lat="50.12133" lon="4.07368">
        <ele>166</ele>
        <time>2018-06-25T09:05:58.973Z</time>
      </trkpt>
      <trkpt lat="50.12125" lon="4.07407">
        <ele>166</ele>
        <time>2018-06-25T09:05:59.973Z</time>
      </trkpt>
      <trkpt lat="50.12115" lon="4.07476">
        <ele>166</ele>
        <time>2018-06-25T09:06:00.973Z</time>
      </trkpt>
      <trkpt lat="50.12115" lon="4.07476">
        <ele>166</ele>
        <time>2018-06-25T09:06:01.973Z</time>
      </trkpt>
      <trkpt lat="50.12102" lon="4.07544">
        <ele>168</ele>
        <time>2018-06-25T09:06:02.973Z</time>
      </trkpt>
      <trkpt lat="50.12111" lon="4.07588">
        <ele>169</ele>
        <time>2018-06-25T09:06:03.973Z</time>
      </trkpt>
      <trkpt lat="50.12128" lon="4.07588">
        <ele>169</ele>
        <time>2018-06-25T09:06:04.973Z</time>
      </trkpt>
      <trkpt lat="50.12144" lon="4.07597">
        <ele>169</ele>
        <time>2018-06-25T09:06:05.973Z</time>
      </trkpt>
      <trkpt lat="50.12167" lon="4.07618">
        <ele>170</ele>
        <time>2018-06-25T09:06:06.973Z</time>
      </trkpt>
      <trkpt lat="50.12189" lon="4.07647">
        <ele>171</ele>
        <time>2018-06-25T09:06:07.973Z</time>
      </trkpt>
      <trkpt lat="50.12211" lon="4.07684">
        <ele>172</ele>
        <time>2018-06-25T09:06:08.973Z</time>
      </trkpt>
      <trkpt lat="50.12303" lon="4.07913">
        <ele>177</ele>
        <time>2018-06-25T09:06:09.973Z</time>
      </trkpt>
      <trkpt lat="50.12329" lon="4.0796">
        <ele>179</ele>
        <time>2018-06-25T09:06:10.973Z</time>
      </trkpt>
      <trkpt lat="50.12341" lon="4.07976">
        <ele>179</ele>
        <time>2018-06-25T09:06:11.973Z</time>
      </trkpt>
      <trkpt lat="50.12378" lon="4.08015">
        <ele>177</ele>
        <time>2018-06-25T09:06:12.973Z</time>
      </trkpt>
      <trkpt lat="50.12381" lon="4.08023">
        <ele>177</ele>
        <time>2018-06-25T09:06:13.973Z</time>
      </trkpt>
      <trkpt lat="50.12381" lon="4.08049">
        <ele>178</ele>
        <time>2018-06-25T09:06:14.973Z</time>
      </trkpt>
      <trkpt lat="50.12378" lon="4.0806">
        <ele>179</ele>
        <time>2018-06-25T09:06:15.973Z</time>
      </trkpt>
      <trkpt lat="50.12329" lon="4.08164">
        <ele>181</ele>
        <time>2018-06-25T09:06:16.973Z</time>
      </trkpt>
      <trkpt lat="50.12342" lon="4.08186">
        <ele>181</ele>
        <time>2018-06-25T09:06:17.973Z</time>
      </trkpt>
      <trkpt lat="50.12363" lon="4.08217">
        <ele>182</ele>
        <time>2018-06-25T09:06:18.973Z</time>
      </trkpt>
      <trkpt lat="50.12391" lon="4.08261">
        <ele>184</ele>
        <time>2018-06-25T09:06:19.973Z</time>
      </trkpt>
      <trkpt lat="50.12403" lon="4.08283">
        <ele>185</ele>
        <time>2018-06-25T09:06:20.973Z</time>
      </trkpt>
      <trkpt lat="50.12411" lon="4.08302">
        <ele>186</ele>
        <time>2018-06-25T09:06:21.973Z</time>
      </trkpt>
      <trkpt lat="50.1243" lon="4.08338">
        <ele>187</ele>
        <time>2018-06-25T09:06:22.973Z</time>
      </trkpt>
      <trkpt lat="50.12461" lon="4.0838">
        <ele>190</ele>
        <time>2018-06-25T09:06:23.973Z</time>
      </trkpt>
      <trkpt lat="50.12488" lon="4.08445">
        <ele>193</ele>
        <time>2018-06-25T09:06:24.973Z</time>
      </trkpt>
      <trkpt lat="50.12496" lon="4.08446">
        <ele>193</ele>
        <time>2018-06-25T09:06:25.973Z</time>
      </trkpt>
      <trkpt lat="50.12507" lon="4.08455">
        <ele>193</ele>
        <time>2018-06-25T09:06:26.973Z</time>
      </trkpt>
      <trkpt lat="50.12546" lon="4.08508">
        <ele>193</ele>
        <time>2018-06-25T09:06:27.973Z</time>
      </trkpt>
      <trkpt lat="50.12583" lon="4.08544">
        <ele>194</ele>
        <time>2018-06-25T09:06:28.973Z</time>
      </trkpt>
      <trkpt lat="50.12627" lon="4.08577">
        <ele>192</ele>
        <time>2018-06-25T09:06:29.973Z</time>
      </trkpt>
      <trkpt lat="50.12644" lon="4.08603">
        <ele>192</ele>
        <time>2018-06-25T09:06:30.973Z</time>
      </trkpt>
      <trkpt lat="50.12656" lon="4.0863">
        <ele>193</ele>
        <time>2018-06-25T09:06:31.973Z</time>
      </trkpt>
      <trkpt lat="50.12666" lon="4.0866">
        <ele>194</ele>
        <time>2018-06-25T09:06:32.973Z</time>
      </trkpt>
      <trkpt lat="50.12673" lon="4.08687">
        <ele>193</ele>
        <time>2018-06-25T09:06:33.973Z</time>
      </trkpt>
      <trkpt lat="50.12692" lon="4.08745">
        <ele>190</ele>
        <time>2018-06-25T09:06:34.973Z</time>
      </trkpt>
      <trkpt lat="50.12694" lon="4.08757">
        <ele>189</ele>
        <time>2018-06-25T09:06:35.973Z</time>
      </trkpt>
      <trkpt lat="50.12706" lon="4.08792">
        <ele>188</ele>
        <time>2018-06-25T09:06:36.973Z</time>
      </trkpt>
      <trkpt lat="50.12714" lon="4.08805">
        <ele>188</ele>
        <time>2018-06-25T09:06:37.973Z</time>
      </trkpt>
      <trkpt lat="50.12716" lon="4.08805">
        <ele>187</ele>
        <time>2018-06-25T09:06:38.973Z</time>
      </trkpt>
      <trkpt lat="50.12722" lon="4.08815">
        <ele>187</ele>
        <time>2018-06-25T09:06:39.973Z</time>
      </trkpt>
      <trkpt lat="50.12744" lon="4.08838">
        <ele>186</ele>
        <time>2018-06-25T09:06:40.973Z</time>
      </trkpt>
      <trkpt lat="50.12769" lon="4.08845">
        <ele>184</ele>
        <time>2018-06-25T09:06:41.973Z</time>
      </trkpt>
      <trkpt lat="50.12787" lon="4.08878">
        <ele>185</ele>
        <time>2018-06-25T09:06:42.973Z</time>
      </trkpt>
      <trkpt lat="50.12808" lon="4.08902">
        <ele>184</ele>
        <time>2018-06-25T09:06:43.973Z</time>
      </trkpt>
      <trkpt lat="50.12824" lon="4.08923">
        <ele>184</ele>
        <time>2018-06-25T09:06:44.973Z</time>
      </trkpt>
      <trkpt lat="50.12836" lon="4.08937">
        <ele>184</ele>
        <time>2018-06-25T09:06:45.973Z</time>
      </trkpt>
      <trkpt lat="50.12911" lon="4.08984">
        <ele>183</ele>
        <time>2018-06-25T09:06:46.973Z</time>
      </trkpt>
      <trkpt lat="50.12911" lon="4.08984">
        <ele>183</ele>
        <time>2018-06-25T09:06:47.973Z</time>
      </trkpt>
      <trkpt lat="50.12918" lon="4.0899">
        <ele>183</ele>
        <time>2018-06-25T09:06:48.973Z</time>
      </trkpt>
      <trkpt lat="50.1294" lon="4.09011">
        <ele>183</ele>
        <time>2018-06-25T09:06:49.973Z</time>
      </trkpt>
      <trkpt lat="50.12965" lon="4.09031">
        <ele>181</ele>
        <time>2018-06-25T09:06:50.973Z</time>
      </trkpt>
      <trkpt lat="50.12992" lon="4.0905">
        <ele>180</ele>
        <time>2018-06-25T09:06:51.973Z</time>
      </trkpt>
      <trkpt lat="50.13032" lon="4.09063">
        <ele>183</ele>
        <time>2018-06-25T09:06:52.973Z</time>
      </trkpt>
      <trkpt lat="50.13059" lon="4.09047">
        <ele>186</ele>
        <time>2018-06-25T09:06:53.973Z</time>
      </trkpt>
      <trkpt lat="50.13081" lon="4.09063">
        <ele>189</ele>
        <time>2018-06-25T09:06:54.973Z</time>
      </trkpt>
      <trkpt lat="50.13124" lon="4.09137">
        <ele>197</ele>
        <time>2018-06-25T09:06:55.973Z</time>
      </trkpt>
      <trkpt lat="50.13168" lon="4.09245">
        <ele>204</ele>
        <time>2018-06-25T09:06:56.973Z</time>
      </trkpt>
      <trkpt lat="50.13225" lon="4.09327">
        <ele>211</ele>
        <time>2018-06-25T09:06:57.973Z</time>
      </trkpt>
      <trkpt lat="50.13226" lon="4.09326">
        <ele>211</ele>
        <time>2018-06-25T09:06:58.973Z</time>
      </trkpt>
      <trkpt lat="50.13262" lon="4.09378">
        <ele>215</ele>
        <time>2018-06-25T09:06:59.973Z</time>
      </trkpt>
      <trkpt lat="50.13269" lon="4.09406">
        <ele>215</ele>
        <time>2018-06-25T09:07:00.973Z</time>
      </trkpt>
      <trkpt lat="50.13299" lon="4.09427">
        <ele>218</ele>
        <time>2018-06-25T09:07:01.973Z</time>
      </trkpt>
      <trkpt lat="50.13327" lon="4.09507">
        <ele>219</ele>
        <time>2018-06-25T09:07:02.973Z</time>
      </trkpt>
      <trkpt lat="50.13362" lon="4.09572">
        <ele>220</ele>
        <time>2018-06-25T09:07:03.973Z</time>
      </trkpt>
      <trkpt lat="50.13368" lon="4.09592">
        <ele>219</ele>
        <time>2018-06-25T09:07:04.973Z</time>
      </trkpt>
      <trkpt lat="50.13364" lon="4.09602">
        <ele>218</ele>
        <time>2018-06-25T09:07:05.973Z</time>
      </trkpt>
      <trkpt lat="50.13318" lon="4.09623">
        <ele>211</ele>
        <time>2018-06-25T09:07:06.973Z</time>
      </trkpt>
      <trkpt lat="50.13299" lon="4.0966">
        <ele>205</ele>
        <time>2018-06-25T09:07:07.973Z</time>
      </trkpt>
      <trkpt lat="50.13297" lon="4.09712">
        <ele>202</ele>
        <time>2018-06-25T09:07:08.973Z</time>
      </trkpt>
      <trkpt lat="50.13285" lon="4.09743">
        <ele>200</ele>
        <time>2018-06-25T09:07:09.973Z</time>
      </trkpt>
      <trkpt lat="50.13269" lon="4.09775">
        <ele>198</ele>
        <time>2018-06-25T09:07:10.973Z</time>
      </trkpt>
      <trkpt lat="50.1326" lon="4.09803">
        <ele>198</ele>
        <time>2018-06-25T09:07:11.973Z</time>
      </trkpt>
      <trkpt lat="50.13243" lon="4.09834">
        <ele>198</ele>
        <time>2018-06-25T09:07:12.973Z</time>
      </trkpt>
      <trkpt lat="50.13231" lon="4.09842">
        <ele>199</ele>
        <time>2018-06-25T09:07:13.973Z</time>
      </trkpt>
      <trkpt lat="50.1296" lon="4.10008">
        <ele>219</ele>
        <time>2018-06-25T09:07:14.973Z</time>
      </trkpt>
      <trkpt lat="50.12663" lon="4.10047">
        <ele>219</ele>
        <time>2018-06-25T09:07:15.973Z</time>
      </trkpt>
      <trkpt lat="50.12664" lon="4.10061">
        <ele>218</ele>
        <time>2018-06-25T09:07:16.973Z</time>
      </trkpt>
      <trkpt lat="50.12651" lon="4.10063">
        <ele>217</ele>
        <time>2018-06-25T09:07:17.973Z</time>
      </trkpt>
      <trkpt lat="50.12648" lon="4.10075">
        <ele>216</ele>
        <time>2018-06-25T09:07:18.973Z</time>
      </trkpt>
      <trkpt lat="50.12663" lon="4.10199">
        <ele>216</ele>
        <time>2018-06-25T09:07:19.973Z</time>
      </trkpt>
      <trkpt lat="50.12674" lon="4.10323">
        <ele>217</ele>
        <time>2018-06-25T09:07:20.973Z</time>
      </trkpt>
      <trkpt lat="50.12679" lon="4.10467">
        <ele>216</ele>
        <time>2018-06-25T09:07:21.973Z</time>
      </trkpt>
      <trkpt lat="50.12701" lon="4.10715">
        <ele>217</ele>
        <time>2018-06-25T09:07:22.973Z</time>
      </trkpt>
      <trkpt lat="50.12701" lon="4.10715">
        <ele>217</ele>
        <time>2018-06-25T09:07:23.973Z</time>
      </trkpt>
      <trkpt lat="50.12704" lon="4.10758">
        <ele>217</ele>
        <time>2018-06-25T09:07:24.973Z</time>
      </trkpt>
      <trkpt lat="50.12715" lon="4.10771">
        <ele>217</ele>
        <time>2018-06-25T09:07:25.973Z</time>
      </trkpt>
      <trkpt lat="50.12732" lon="4.10797">
        <ele>218</ele>
        <time>2018-06-25T09:07:26.973Z</time>
      </trkpt>
      <trkpt lat="50.12739" lon="4.10836">
        <ele>217</ele>
        <time>2018-06-25T09:07:27.973Z</time>
      </trkpt>
      <trkpt lat="50.12763" lon="4.11025">
        <ele>215</ele>
        <time>2018-06-25T09:07:28.973Z</time>
      </trkpt>
      <trkpt lat="50.12763" lon="4.11034">
        <ele>215</ele>
        <time>2018-06-25T09:07:29.973Z</time>
      </trkpt>
      <trkpt lat="50.12764" lon="4.11034">
        <ele>215</ele>
        <time>2018-06-25T09:07:30.973Z</time>
      </trkpt>
      <trkpt lat="50.12762" lon="4.11051">
        <ele>214</ele>
        <time>2018-06-25T09:07:31.973Z</time>
      </trkpt>
      <trkpt lat="50.12723" lon="4.11107">
        <ele>213</ele>
        <time>2018-06-25T09:07:32.973Z</time>
      </trkpt>
      <trkpt lat="50.12703" lon="4.11163">
        <ele>211</ele>
        <time>2018-06-25T09:07:33.973Z</time>
      </trkpt>
      <trkpt lat="50.12683" lon="4.11243">
        <ele>208</ele>
        <time>2018-06-25T09:07:34.973Z</time>
      </trkpt>
      <trkpt lat="50.12668" lon="4.11273">
        <ele>206</ele>
        <time>2018-06-25T09:07:35.973Z</time>
      </trkpt>
      <trkpt lat="50.12655" lon="4.11292">
        <ele>204</ele>
        <time>2018-06-25T09:07:36.973Z</time>
      </trkpt>
      <trkpt lat="50.12649" lon="4.11314">
        <ele>203</ele>
        <time>2018-06-25T09:07:37.973Z</time>
      </trkpt>
      <trkpt lat="50.12643" lon="4.11349">
        <ele>202</ele>
        <time>2018-06-25T09:07:38.973Z</time>
      </trkpt>
      <trkpt lat="50.12644" lon="4.11372">
        <ele>202</ele>
        <time>2018-06-25T09:07:39.973Z</time>
      </trkpt>
      <trkpt lat="50.12644" lon="4.11372">
        <ele>202</ele>
        <time>2018-06-25T09:07:40.973Z</time>
      </trkpt>
      <trkpt lat="50.12645" lon="4.1139">
        <ele>202</ele>
        <time>2018-06-25T09:07:41.973Z</time>
      </trkpt>
      <trkpt lat="50.12643" lon="4.11412">
        <ele>202</ele>
        <time>2018-06-25T09:07:42.973Z</time>
      </trkpt>
      <trkpt lat="50.12635" lon="4.11426">
        <ele>202</ele>
        <time>2018-06-25T09:07:43.973Z</time>
      </trkpt>
      <trkpt lat="50.12622" lon="4.1144">
        <ele>202</ele>
        <time>2018-06-25T09:07:44.973Z</time>
      </trkpt>
      <trkpt lat="50.12606" lon="4.11444">
        <ele>202</ele>
        <time>2018-06-25T09:07:45.973Z</time>
      </trkpt>
      <trkpt lat="50.12551" lon="4.11424">
        <ele>204</ele>
        <time>2018-06-25T09:07:46.973Z</time>
      </trkpt>
      <trkpt lat="50.12541" lon="4.11417">
        <ele>205</ele>
        <time>2018-06-25T09:07:47.973Z</time>
      </trkpt>
      <trkpt lat="50.12534" lon="4.114">
        <ele>205</ele>
        <time>2018-06-25T09:07:48.973Z</time>
      </trkpt>
      <trkpt lat="50.12527" lon="4.1137">
        <ele>206</ele>
        <time>2018-06-25T09:07:49.973Z</time>
      </trkpt>
      <trkpt lat="50.12518" lon="4.11349">
        <ele>206</ele>
        <time>2018-06-25T09:07:50.973Z</time>
      </trkpt>
      <trkpt lat="50.12494" lon="4.11304">
        <ele>206</ele>
        <time>2018-06-25T09:07:51.973Z</time>
      </trkpt>
      <trkpt lat="50.12494" lon="4.11304">
        <ele>206</ele>
        <time>2018-06-25T09:07:52.973Z</time>
      </trkpt>
      <trkpt lat="50.12473" lon="4.11268">
        <ele>205</ele>
        <time>2018-06-25T09:07:53.973Z</time>
      </trkpt>
      <trkpt lat="50.12455" lon="4.11241">
        <ele>205</ele>
        <time>2018-06-25T09:07:54.973Z</time>
      </trkpt>
      <trkpt lat="50.12443" lon="4.11231">
        <ele>204</ele>
        <time>2018-06-25T09:07:55.973Z</time>
      </trkpt>
      <trkpt lat="50.12419" lon="4.1122">
        <ele>204</ele>
        <time>2018-06-25T09:07:56.973Z</time>
      </trkpt>
      <trkpt lat="50.12412" lon="4.11219">
        <ele>203</ele>
        <time>2018-06-25T09:07:57.973Z</time>
      </trkpt>
      <trkpt lat="50.12399" lon="4.11224">
        <ele>204</ele>
        <time>2018-06-25T09:07:58.973Z</time>
      </trkpt>
      <trkpt lat="50.12378" lon="4.11246">
        <ele>205</ele>
        <time>2018-06-25T09:07:59.973Z</time>
      </trkpt>
      <trkpt lat="50.12378" lon="4.11246">
        <ele>205</ele>
        <time>2018-06-25T09:08:00.973Z</time>
      </trkpt>
      <trkpt lat="50.12367" lon="4.11259">
        <ele>205</ele>
        <time>2018-06-25T09:08:01.973Z</time>
      </trkpt>
      <trkpt lat="50.12336" lon="4.11281">
        <ele>205</ele>
        <time>2018-06-25T09:08:02.973Z</time>
      </trkpt>
      <trkpt lat="50.12311" lon="4.11292">
        <ele>205</ele>
        <time>2018-06-25T09:08:03.973Z</time>
      </trkpt>
      <trkpt lat="50.12249" lon="4.11316">
        <ele>205</ele>
        <time>2018-06-25T09:08:04.973Z</time>
      </trkpt>
      <trkpt lat="50.12237" lon="4.11323">
        <ele>205</ele>
        <time>2018-06-25T09:08:05.973Z</time>
      </trkpt>
      <trkpt lat="50.12222" lon="4.11339">
        <ele>205</ele>
        <time>2018-06-25T09:08:06.973Z</time>
      </trkpt>
      <trkpt lat="50.12211" lon="4.1136">
        <ele>203</ele>
        <time>2018-06-25T09:08:07.973Z</time>
      </trkpt>
      <trkpt lat="50.12206" lon="4.11386">
        <ele>202</ele>
        <time>2018-06-25T09:08:08.973Z</time>
      </trkpt>
      <trkpt lat="50.1221" lon="4.11465">
        <ele>196</ele>
        <time>2018-06-25T09:08:09.973Z</time>
      </trkpt>
      <trkpt lat="50.12214" lon="4.11493">
        <ele>194</ele>
        <time>2018-06-25T09:08:10.973Z</time>
      </trkpt>
      <trkpt lat="50.12218" lon="4.11538">
        <ele>190</ele>
        <time>2018-06-25T09:08:11.973Z</time>
      </trkpt>
      <trkpt lat="50.12219" lon="4.11537">
        <ele>191</ele>
        <time>2018-06-25T09:08:12.973Z</time>
      </trkpt>
      <trkpt lat="50.12223" lon="4.11595">
        <ele>186</ele>
        <time>2018-06-25T09:08:13.973Z</time>
      </trkpt>
      <trkpt lat="50.12223" lon="4.11612">
        <ele>185</ele>
        <time>2018-06-25T09:08:14.973Z</time>
      </trkpt>
      <trkpt lat="50.12217" lon="4.11634">
        <ele>184</ele>
        <time>2018-06-25T09:08:15.973Z</time>
      </trkpt>
      <trkpt lat="50.12213" lon="4.1164">
        <ele>183</ele>
        <time>2018-06-25T09:08:16.973Z</time>
      </trkpt>
      <trkpt lat="50.12215" lon="4.11652">
        <ele>183</ele>
        <time>2018-06-25T09:08:17.973Z</time>
      </trkpt>
      <trkpt lat="50.12158" lon="4.11685">
        <ele>181</ele>
        <time>2018-06-25T09:08:18.973Z</time>
      </trkpt>
      <trkpt lat="50.12156" lon="4.11679">
        <ele>181</ele>
        <time>2018-06-25T09:08:19.973Z</time>
      </trkpt>
      <trkpt lat="50.12148" lon="4.11683">
        <ele>181</ele>
        <time>2018-06-25T09:08:20.973Z</time>
      </trkpt>
      <trkpt lat="50.1218" lon="4.11821">
        <ele>179</ele>
        <time>2018-06-25T09:08:21.973Z</time>
      </trkpt>
      <trkpt lat="50.12204" lon="4.11943">
        <ele>180</ele>
        <time>2018-06-25T09:08:22.973Z</time>
      </trkpt>
      <trkpt lat="50.12208" lon="4.12027">
        <ele>182</ele>
        <time>2018-06-25T09:08:23.973Z</time>
      </trkpt>
      <trkpt lat="50.12205" lon="4.12045">
        <ele>182</ele>
        <time>2018-06-25T09:08:24.973Z</time>
      </trkpt>
      <trkpt lat="50.12192" lon="4.12084">
        <ele>182</ele>
        <time>2018-06-25T09:08:25.973Z</time>
      </trkpt>
      <trkpt lat="50.12174" lon="4.12119">
        <ele>180</ele>
        <time>2018-06-25T09:08:26.973Z</time>
      </trkpt>
      <trkpt lat="50.12168" lon="4.12134">
        <ele>179</ele>
        <time>2018-06-25T09:08:27.973Z</time>
      </trkpt>
      <trkpt lat="50.12163" lon="4.12159">
        <ele>179</ele>
        <time>2018-06-25T09:08:28.973Z</time>
      </trkpt>
      <trkpt lat="50.12164" lon="4.12168">
        <ele>179</ele>
        <time>2018-06-25T09:08:29.973Z</time>
      </trkpt>
      <trkpt lat="50.12168" lon="4.12189">
        <ele>179</ele>
        <time>2018-06-25T09:08:30.973Z</time>
      </trkpt>
      <trkpt lat="50.12179" lon="4.12218">
        <ele>180</ele>
        <time>2018-06-25T09:08:31.973Z</time>
      </trkpt>
      <trkpt lat="50.1218" lon="4.12241">
        <ele>179</ele>
        <time>2018-06-25T09:08:32.973Z</time>
      </trkpt>
      <trkpt lat="50.12186" lon="4.12259">
        <ele>180</ele>
        <time>2018-06-25T09:08:33.973Z</time>
      </trkpt>
      <trkpt lat="50.12186" lon="4.12258">
        <ele>180</ele>
        <time>2018-06-25T09:08:34.973Z</time>
      </trkpt>
      <trkpt lat="50.1218" lon="4.12241">
        <ele>179</ele>
        <time>2018-06-25T09:08:35.973Z</time>
      </trkpt>
      <trkpt lat="50.12179" lon="4.1229">
        <ele>179</ele>
        <time>2018-06-25T09:08:36.973Z</time>
      </trkpt>
      <trkpt lat="50.12182" lon="4.12338">
        <ele>179</ele>
        <time>2018-06-25T09:08:37.973Z</time>
      </trkpt>
      <trkpt lat="50.12181" lon="4.12362">
        <ele>179</ele>
        <time>2018-06-25T09:08:38.973Z</time>
      </trkpt>
      <trkpt lat="50.12182" lon="4.12368">
        <ele>179</ele>
        <time>2018-06-25T09:08:39.973Z</time>
      </trkpt>
      <trkpt lat="50.12183" lon="4.12367">
        <ele>179</ele>
        <time>2018-06-25T09:08:40.973Z</time>
      </trkpt>
      <trkpt lat="50.12185" lon="4.12376">
        <ele>179</ele>
        <time>2018-06-25T09:08:41.973Z</time>
      </trkpt>
      <trkpt lat="50.12198" lon="4.12404">
        <ele>179</ele>
        <time>2018-06-25T09:08:42.973Z</time>
      </trkpt>
      <trkpt lat="50.12211" lon="4.12414">
        <ele>180</ele>
        <time>2018-06-25T09:08:43.973Z</time>
      </trkpt>
      <trkpt lat="50.12222" lon="4.1242">
        <ele>180</ele>
        <time>2018-06-25T09:08:44.973Z</time>
      </trkpt>
      <trkpt lat="50.12225" lon="4.12424">
        <ele>180</ele>
        <time>2018-06-25T09:08:45.973Z</time>
      </trkpt>
      <trkpt lat="50.12227" lon="4.12433">
        <ele>180</ele>
        <time>2018-06-25T09:08:46.973Z</time>
      </trkpt>
      <trkpt lat="50.12224" lon="4.12469">
        <ele>179</ele>
        <time>2018-06-25T09:08:47.973Z</time>
      </trkpt>
      <trkpt lat="50.12224" lon="4.12469">
        <ele>179</ele>
        <time>2018-06-25T09:08:48.973Z</time>
      </trkpt>
      <trkpt lat="50.12222" lon="4.12511">
        <ele>179</ele>
        <time>2018-06-25T09:08:49.973Z</time>
      </trkpt>
      <trkpt lat="50.12218" lon="4.12528">
        <ele>180</ele>
        <time>2018-06-25T09:08:50.973Z</time>
      </trkpt>
      <trkpt lat="50.12222" lon="4.12546">
        <ele>181</ele>
        <time>2018-06-25T09:08:51.973Z</time>
      </trkpt>
      <trkpt lat="50.12223" lon="4.12562">
        <ele>182</ele>
        <time>2018-06-25T09:08:52.973Z</time>
      </trkpt>
      <trkpt lat="50.12221" lon="4.12584">
        <ele>183</ele>
        <time>2018-06-25T09:08:53.973Z</time>
      </trkpt>
      <trkpt lat="50.12221" lon="4.12584">
        <ele>183</ele>
        <time>2018-06-25T09:08:54.973Z</time>
      </trkpt>
      <trkpt lat="50.12217" lon="4.12644">
        <ele>186</ele>
        <time>2018-06-25T09:08:55.973Z</time>
      </trkpt>
      <trkpt lat="50.12211" lon="4.12694">
        <ele>188</ele>
        <time>2018-06-25T09:08:56.973Z</time>
      </trkpt>
      <trkpt lat="50.12211" lon="4.12694">
        <ele>188</ele>
        <time>2018-06-25T09:08:57.973Z</time>
      </trkpt>
      <trkpt lat="50.12204" lon="4.12721">
        <ele>188</ele>
        <time>2018-06-25T09:08:58.973Z</time>
      </trkpt>
      <trkpt lat="50.12191" lon="4.12756">
        <ele>187</ele>
        <time>2018-06-25T09:08:59.973Z</time>
      </trkpt>
      <trkpt lat="50.12182" lon="4.12772">
        <ele>185</ele>
        <time>2018-06-25T09:09:00.973Z</time>
      </trkpt>
      <trkpt lat="50.12179" lon="4.12783">
        <ele>185</ele>
        <time>2018-06-25T09:09:01.973Z</time>
      </trkpt>
      <trkpt lat="50.12081" lon="4.13011">
        <ele>178</ele>
        <time>2018-06-25T09:09:02.973Z</time>
      </trkpt>
      <trkpt lat="50.1207" lon="4.13041">
        <ele>179</ele>
        <time>2018-06-25T09:09:03.973Z</time>
      </trkpt>
      <trkpt lat="50.12032" lon="4.13188">
        <ele>182</ele>
        <time>2018-06-25T09:09:04.973Z</time>
      </trkpt>
      <trkpt lat="50.12023" lon="4.13189">
        <ele>181</ele>
        <time>2018-06-25T09:09:05.973Z</time>
      </trkpt>
      <trkpt lat="50.12016" lon="4.13198">
        <ele>181</ele>
        <time>2018-06-25T09:09:06.973Z</time>
      </trkpt>
      <trkpt lat="50.12015" lon="4.13212">
        <ele>181</ele>
        <time>2018-06-25T09:09:07.973Z</time>
      </trkpt>
      <trkpt lat="50.12015" lon="4.13212">
        <ele>181</ele>
        <time>2018-06-25T09:09:08.973Z</time>
      </trkpt>
      <trkpt lat="50.12017" lon="4.13218">
        <ele>182</ele>
        <time>2018-06-25T09:09:09.973Z</time>
      </trkpt>
      <trkpt lat="50.12022" lon="4.13227">
        <ele>183</ele>
        <time>2018-06-25T09:09:10.973Z</time>
      </trkpt>
      <trkpt lat="50.12005" lon="4.13267">
        <ele>182</ele>
        <time>2018-06-25T09:09:11.973Z</time>
      </trkpt>
      <trkpt lat="50.12005" lon="4.13267">
        <ele>182</ele>
        <time>2018-06-25T09:09:12.973Z</time>
      </trkpt>
      <trkpt lat="50.11985" lon="4.13314">
        <ele>183</ele>
        <time>2018-06-25T09:09:13.973Z</time>
      </trkpt>
      <trkpt lat="50.11965" lon="4.13381">
        <ele>188</ele>
        <time>2018-06-25T09:09:14.973Z</time>
      </trkpt>
      <trkpt lat="50.11971" lon="4.13386">
        <ele>188</ele>
        <time>2018-06-25T09:09:15.973Z</time>
      </trkpt>
      <trkpt lat="50.1198" lon="4.13381">
        <ele>188</ele>
        <time>2018-06-25T09:09:16.973Z</time>
      </trkpt>
      <trkpt lat="50.1203" lon="4.13422">
        <ele>193</ele>
        <time>2018-06-25T09:09:17.973Z</time>
      </trkpt>
      <trkpt lat="50.12032" lon="4.13423">
        <ele>193</ele>
        <time>2018-06-25T09:09:18.973Z</time>
      </trkpt>
      <trkpt lat="50.12054" lon="4.13441">
        <ele>195</ele>
        <time>2018-06-25T09:09:19.973Z</time>
      </trkpt>
      <trkpt lat="50.12092" lon="4.1345">
        <ele>196</ele>
        <time>2018-06-25T09:09:20.973Z</time>
      </trkpt>
      <trkpt lat="50.12105" lon="4.13459">
        <ele>198</ele>
        <time>2018-06-25T09:09:21.973Z</time>
      </trkpt>
      <trkpt lat="50.1215" lon="4.13535">
        <ele>202</ele>
        <time>2018-06-25T09:09:22.973Z</time>
      </trkpt>
      <trkpt lat="50.12164" lon="4.13578">
        <ele>203</ele>
        <time>2018-06-25T09:09:23.973Z</time>
      </trkpt>
      <trkpt lat="50.12165" lon="4.13577">
        <ele>203</ele>
        <time>2018-06-25T09:09:24.973Z</time>
      </trkpt>
      <trkpt lat="50.12175" lon="4.13605">
        <ele>204</ele>
        <time>2018-06-25T09:09:25.973Z</time>
      </trkpt>
      <trkpt lat="50.12182" lon="4.13629">
        <ele>206</ele>
        <time>2018-06-25T09:09:26.973Z</time>
      </trkpt>
      <trkpt lat="50.12182" lon="4.1366">
        <ele>208</ele>
        <time>2018-06-25T09:09:27.973Z</time>
      </trkpt>
      <trkpt lat="50.12172" lon="4.13702">
        <ele>209</ele>
        <time>2018-06-25T09:09:28.973Z</time>
      </trkpt>
      <trkpt lat="50.12165" lon="4.13723">
        <ele>209</ele>
        <time>2018-06-25T09:09:29.973Z</time>
      </trkpt>
      <trkpt lat="50.12099" lon="4.13928">
        <ele>223</ele>
        <time>2018-06-25T09:09:30.973Z</time>
      </trkpt>
      <trkpt lat="50.12124" lon="4.14122">
        <ele>228</ele>
        <time>2018-06-25T09:09:31.973Z</time>
      </trkpt>
      <trkpt lat="50.12127" lon="4.14208">
        <ele>225</ele>
        <time>2018-06-25T09:09:32.973Z</time>
      </trkpt>
      <trkpt lat="50.12163" lon="4.1432">
        <ele>222</ele>
        <time>2018-06-25T09:09:33.973Z</time>
      </trkpt>
      <trkpt lat="50.12187" lon="4.14405">
        <ele>217</ele>
        <time>2018-06-25T09:09:34.973Z</time>
      </trkpt>
      <trkpt lat="50.12208" lon="4.14524">
        <ele>211</ele>
        <time>2018-06-25T09:09:35.973Z</time>
      </trkpt>
      <trkpt lat="50.12198" lon="4.14669">
        <ele>204</ele>
        <time>2018-06-25T09:09:36.973Z</time>
      </trkpt>
      <trkpt lat="50.12219" lon="4.14674">
        <ele>204</ele>
        <time>2018-06-25T09:09:37.973Z</time>
      </trkpt>
      <trkpt lat="50.12223" lon="4.14792">
        <ele>198</ele>
        <time>2018-06-25T09:09:38.973Z</time>
      </trkpt>
      <trkpt lat="50.12229" lon="4.14867">
        <ele>194</ele>
        <time>2018-06-25T09:09:39.973Z</time>
      </trkpt>
      <trkpt lat="50.1222" lon="4.14942">
        <ele>187</ele>
        <time>2018-06-25T09:09:40.973Z</time>
      </trkpt>
      <trkpt lat="50.12286" lon="4.15233">
        <ele>180</ele>
        <time>2018-06-25T09:09:41.973Z</time>
      </trkpt>
      <trkpt lat="50.12285" lon="4.15235">
        <ele>180</ele>
        <time>2018-06-25T09:09:42.973Z</time>
      </trkpt>
      <trkpt lat="50.12287" lon="4.15236">
        <ele>180</ele>
        <time>2018-06-25T09:09:43.973Z</time>
      </trkpt>
      <trkpt lat="50.12284" lon="4.15256">
        <ele>179</ele>
        <time>2018-06-25T09:09:44.973Z</time>
      </trkpt>
      <trkpt lat="50.12276" lon="4.1527">
        <ele>179</ele>
        <time>2018-06-25T09:09:45.973Z</time>
      </trkpt>
      <trkpt lat="50.12254" lon="4.15297">
        <ele>178</ele>
        <time>2018-06-25T09:09:46.973Z</time>
      </trkpt>
      <trkpt lat="50.12248" lon="4.15321">
        <ele>177</ele>
        <time>2018-06-25T09:09:47.973Z</time>
      </trkpt>
      <trkpt lat="50.1225" lon="4.15334">
        <ele>177</ele>
        <time>2018-06-25T09:09:48.973Z</time>
      </trkpt>
      <trkpt lat="50.1225" lon="4.15333">
        <ele>177</ele>
        <time>2018-06-25T09:09:49.973Z</time>
      </trkpt>
      <trkpt lat="50.12251" lon="4.15344">
        <ele>177</ele>
        <time>2018-06-25T09:09:50.973Z</time>
      </trkpt>
      <trkpt lat="50.12267" lon="4.15397">
        <ele>181</ele>
        <time>2018-06-25T09:09:51.973Z</time>
      </trkpt>
      <trkpt lat="50.12282" lon="4.1544">
        <ele>185</ele>
        <time>2018-06-25T09:09:52.973Z</time>
      </trkpt>
      <trkpt lat="50.12267" lon="4.15473">
        <ele>185</ele>
        <time>2018-06-25T09:09:53.973Z</time>
      </trkpt>
      <trkpt lat="50.12276" lon="4.15492">
        <ele>187</ele>
        <time>2018-06-25T09:09:54.973Z</time>
      </trkpt>
      <trkpt lat="50.12289" lon="4.15512">
        <ele>190</ele>
        <time>2018-06-25T09:09:55.973Z</time>
      </trkpt>
      <trkpt lat="50.12294" lon="4.15536">
        <ele>192</ele>
        <time>2018-06-25T09:09:56.973Z</time>
      </trkpt>
      <trkpt lat="50.12299" lon="4.15569">
        <ele>195</ele>
        <time>2018-06-25T09:09:57.973Z</time>
      </trkpt>
      <trkpt lat="50.12296" lon="4.15591">
        <ele>196</ele>
        <time>2018-06-25T09:09:58.973Z</time>
      </trkpt>
      <trkpt lat="50.12295" lon="4.15667">
        <ele>203</ele>
        <time>2018-06-25T09:09:59.973Z</time>
      </trkpt>
      <trkpt lat="50.12298" lon="4.15713">
        <ele>206</ele>
        <time>2018-06-25T09:10:00.973Z</time>
      </trkpt>
      <trkpt lat="50.12301" lon="4.15719">
        <ele>207</ele>
        <time>2018-06-25T09:10:01.973Z</time>
      </trkpt>
      <trkpt lat="50.1236" lon="4.15896">
        <ele>212</ele>
        <time>2018-06-25T09:10:02.973Z</time>
      </trkpt>
      <trkpt lat="50.12359" lon="4.15904">
        <ele>212</ele>
        <time>2018-06-25T09:10:03.973Z</time>
      </trkpt>
      <trkpt lat="50.12421" lon="4.15911">
        <ele>212</ele>
        <time>2018-06-25T09:10:04.973Z</time>
      </trkpt>
      <trkpt lat="50.12457" lon="4.15909">
        <ele>215</ele>
        <time>2018-06-25T09:10:05.973Z</time>
      </trkpt>
      <trkpt lat="50.12477" lon="4.15917">
        <ele>216</ele>
        <time>2018-06-25T09:10:06.973Z</time>
      </trkpt>
      <trkpt lat="50.12477" lon="4.15916">
        <ele>216</ele>
        <time>2018-06-25T09:10:07.973Z</time>
      </trkpt>
      <trkpt lat="50.12558" lon="4.15947">
        <ele>220</ele>
        <time>2018-06-25T09:10:08.973Z</time>
      </trkpt>
      <trkpt lat="50.12577" lon="4.15973">
        <ele>221</ele>
        <time>2018-06-25T09:10:09.973Z</time>
      </trkpt>
      <trkpt lat="50.12647" lon="4.16109">
        <ele>223</ele>
        <time>2018-06-25T09:10:10.973Z</time>
      </trkpt>
      <trkpt lat="50.12647" lon="4.16108">
        <ele>223</ele>
        <time>2018-06-25T09:10:11.973Z</time>
      </trkpt>
      <trkpt lat="50.12645" lon="4.16111">
        <ele>223</ele>
        <time>2018-06-25T09:10:12.973Z</time>
      </trkpt>
      <trkpt lat="50.12648" lon="4.16121">
        <ele>223</ele>
        <time>2018-06-25T09:10:13.973Z</time>
      </trkpt>
      <trkpt lat="50.12654" lon="4.16151">
        <ele>223</ele>
        <time>2018-06-25T09:10:14.973Z</time>
      </trkpt>
      <trkpt lat="50.12657" lon="4.16219">
        <ele>223</ele>
        <time>2018-06-25T09:10:15.973Z</time>
      </trkpt>
      <trkpt lat="50.1265" lon="4.16256">
        <ele>222</ele>
        <time>2018-06-25T09:10:16.973Z</time>
      </trkpt>
      <trkpt lat="50.12646" lon="4.16265">
        <ele>222</ele>
        <time>2018-06-25T09:10:17.973Z</time>
      </trkpt>
      <trkpt lat="50.12646" lon="4.16265">
        <ele>222</ele>
        <time>2018-06-25T09:10:18.973Z</time>
      </trkpt>
      <trkpt lat="50.1263" lon="4.16298">
        <ele>220</ele>
        <time>2018-06-25T09:10:19.973Z</time>
      </trkpt>
      <trkpt lat="50.12604" lon="4.16318">
        <ele>218</ele>
        <time>2018-06-25T09:10:20.973Z</time>
      </trkpt>
      <trkpt lat="50.12543" lon="4.16381">
        <ele>210</ele>
        <time>2018-06-25T09:10:21.973Z</time>
      </trkpt>
      <trkpt lat="50.12538" lon="4.16408">
        <ele>208</ele>
        <time>2018-06-25T09:10:22.973Z</time>
      </trkpt>
      <trkpt lat="50.12534" lon="4.1645">
        <ele>206</ele>
        <time>2018-06-25T09:10:23.973Z</time>
      </trkpt>
      <trkpt lat="50.12524" lon="4.16506">
        <ele>203</ele>
        <time>2018-06-25T09:10:24.973Z</time>
      </trkpt>
      <trkpt lat="50.12509" lon="4.1654">
        <ele>201</ele>
        <time>2018-06-25T09:10:25.973Z</time>
      </trkpt>
      <trkpt lat="50.12486" lon="4.16573">
        <ele>199</ele>
        <time>2018-06-25T09:10:26.973Z</time>
      </trkpt>
      <trkpt lat="50.12459" lon="4.16592">
        <ele>196</ele>
        <time>2018-06-25T09:10:27.973Z</time>
      </trkpt>
      <trkpt lat="50.12437" lon="4.16602">
        <ele>195</ele>
        <time>2018-06-25T09:10:28.973Z</time>
      </trkpt>
      <trkpt lat="50.12437" lon="4.16602">
        <ele>195</ele>
        <time>2018-06-25T09:10:29.973Z</time>
      </trkpt>
      <trkpt lat="50.12366" lon="4.16625">
        <ele>190</ele>
        <time>2018-06-25T09:10:30.973Z</time>
      </trkpt>
      <trkpt lat="50.12385" lon="4.16665">
        <ele>189</ele>
        <time>2018-06-25T09:10:31.973Z</time>
      </trkpt>
      <trkpt lat="50.1239" lon="4.16773">
        <ele>186</ele>
        <time>2018-06-25T09:10:32.973Z</time>
      </trkpt>
      <trkpt lat="50.12388" lon="4.16801">
        <ele>188</ele>
        <time>2018-06-25T09:10:33.973Z</time>
      </trkpt>
      <trkpt lat="50.12353" lon="4.16832">
        <ele>190</ele>
        <time>2018-06-25T09:10:34.973Z</time>
      </trkpt>
      <trkpt lat="50.12343" lon="4.16847">
        <ele>192</ele>
        <time>2018-06-25T09:10:35.973Z</time>
      </trkpt>
      <trkpt lat="50.12339" lon="4.16862">
        <ele>193</ele>
        <time>2018-06-25T09:10:36.973Z</time>
      </trkpt>
      <trkpt lat="50.12336" lon="4.1689">
        <ele>197</ele>
        <time>2018-06-25T09:10:37.973Z</time>
      </trkpt>
      <trkpt lat="50.12339" lon="4.16908">
        <ele>199</ele>
        <time>2018-06-25T09:10:38.973Z</time>
      </trkpt>
      <trkpt lat="50.12351" lon="4.16934">
        <ele>200</ele>
        <time>2018-06-25T09:10:39.973Z</time>
      </trkpt>
      <trkpt lat="50.12374" lon="4.16956">
        <ele>201</ele>
        <time>2018-06-25T09:10:40.973Z</time>
      </trkpt>
      <trkpt lat="50.12396" lon="4.16981">
        <ele>201</ele>
        <time>2018-06-25T09:10:41.973Z</time>
      </trkpt>
      <trkpt lat="50.12412" lon="4.17022">
        <ele>203</ele>
        <time>2018-06-25T09:10:42.973Z</time>
      </trkpt>
      <trkpt lat="50.12419" lon="4.17052">
        <ele>205</ele>
        <time>2018-06-25T09:10:43.973Z</time>
      </trkpt>
      <trkpt lat="50.12419" lon="4.17053">
        <ele>205</ele>
        <time>2018-06-25T09:10:44.973Z</time>
      </trkpt>
      <trkpt lat="50.1242" lon="4.17063">
        <ele>205</ele>
        <time>2018-06-25T09:10:45.973Z</time>
      </trkpt>
      <trkpt lat="50.12433" lon="4.17221">
        <ele>211</ele>
        <time>2018-06-25T09:10:46.973Z</time>
      </trkpt>
      <trkpt lat="50.12431" lon="4.17286">
        <ele>214</ele>
        <time>2018-06-25T09:10:47.973Z</time>
      </trkpt>
      <trkpt lat="50.12408" lon="4.17646">
        <ele>221</ele>
        <time>2018-06-25T09:10:48.973Z</time>
      </trkpt>
      <trkpt lat="50.12401" lon="4.17732">
        <ele>221</ele>
        <time>2018-06-25T09:10:49.973Z</time>
      </trkpt>
      <trkpt lat="50.12406" lon="4.17838">
        <ele>223</ele>
        <time>2018-06-25T09:10:50.973Z</time>
      </trkpt>
      <trkpt lat="50.12412" lon="4.17865">
        <ele>224</ele>
        <time>2018-06-25T09:10:51.973Z</time>
      </trkpt>
      <trkpt lat="50.12444" lon="4.17867">
        <ele>223</ele>
        <time>2018-06-25T09:10:52.973Z</time>
      </trkpt>
      <trkpt lat="50.12468" lon="4.17874">
        <ele>223</ele>
        <time>2018-06-25T09:10:53.973Z</time>
      </trkpt>
      <trkpt lat="50.12493" lon="4.1789">
        <ele>223</ele>
        <time>2018-06-25T09:10:54.973Z</time>
      </trkpt>
      <trkpt lat="50.12516" lon="4.17911">
        <ele>223</ele>
        <time>2018-06-25T09:10:55.973Z</time>
      </trkpt>
      <trkpt lat="50.12511" lon="4.18027">
        <ele>222</ele>
        <time>2018-06-25T09:10:56.973Z</time>
      </trkpt>
      <trkpt lat="50.12543" lon="4.182">
        <ele>218</ele>
        <time>2018-06-25T09:10:57.973Z</time>
      </trkpt>
      <trkpt lat="50.12541" lon="4.18508">
        <ele>214</ele>
        <time>2018-06-25T09:10:58.973Z</time>
      </trkpt>
      <trkpt lat="50.12508" lon="4.18596">
        <ele>210</ele>
        <time>2018-06-25T09:10:59.973Z</time>
      </trkpt>
      <trkpt lat="50.12462" lon="4.18678">
        <ele>207</ele>
        <time>2018-06-25T09:11:00.973Z</time>
      </trkpt>
      <trkpt lat="50.12464" lon="4.18721">
        <ele>210</ele>
        <time>2018-06-25T09:11:01.973Z</time>
      </trkpt>
      <trkpt lat="50.1246" lon="4.18828">
        <ele>214</ele>
        <time>2018-06-25T09:11:02.973Z</time>
      </trkpt>
      <trkpt lat="50.12462" lon="4.18845">
        <ele>215</ele>
        <time>2018-06-25T09:11:03.973Z</time>
      </trkpt>
      <trkpt lat="50.12477" lon="4.18865">
        <ele>217</ele>
        <time>2018-06-25T09:11:04.973Z</time>
      </trkpt>
      <trkpt lat="50.12478" lon="4.1889">
        <ele>217</ele>
        <time>2018-06-25T09:11:05.973Z</time>
      </trkpt>
      <trkpt lat="50.12477" lon="4.18943">
        <ele>217</ele>
        <time>2018-06-25T09:11:06.973Z</time>
      </trkpt>
      <trkpt lat="50.12479" lon="4.18997">
        <ele>217</ele>
        <time>2018-06-25T09:11:07.973Z</time>
      </trkpt>
      <trkpt lat="50.12485" lon="4.19054">
        <ele>218</ele>
        <time>2018-06-25T09:11:08.973Z</time>
      </trkpt>
      <trkpt lat="50.12487" lon="4.1907">
        <ele>217</ele>
        <time>2018-06-25T09:11:09.973Z</time>
      </trkpt>
      <trkpt lat="50.1255" lon="4.19065">
        <ele>221</ele>
        <time>2018-06-25T09:11:10.973Z</time>
      </trkpt>
      <trkpt lat="50.12605" lon="4.19063">
        <ele>225</ele>
        <time>2018-06-25T09:11:11.973Z</time>
      </trkpt>
      <trkpt lat="50.12635" lon="4.19071">
        <ele>227</ele>
        <time>2018-06-25T09:11:12.973Z</time>
      </trkpt>
      <trkpt lat="50.12708" lon="4.19054">
        <ele>233</ele>
        <time>2018-06-25T09:11:13.973Z</time>
      </trkpt>
      <trkpt lat="50.12712" lon="4.19092">
        <ele>234</ele>
        <time>2018-06-25T09:11:14.973Z</time>
      </trkpt>
      <trkpt lat="50.12712" lon="4.19115">
        <ele>234</ele>
        <time>2018-06-25T09:11:15.973Z</time>
      </trkpt>
      <trkpt lat="50.1271" lon="4.19138">
        <ele>233</ele>
        <time>2018-06-25T09:11:16.973Z</time>
      </trkpt>
      <trkpt lat="50.12722" lon="4.19224">
        <ele>233</ele>
        <time>2018-06-25T09:11:17.973Z</time>
      </trkpt>
      <trkpt lat="50.12723" lon="4.19312">
        <ele>233</ele>
        <time>2018-06-25T09:11:18.973Z</time>
      </trkpt>
      <trkpt lat="50.12723" lon="4.19311">
        <ele>233</ele>
        <time>2018-06-25T09:11:19.973Z</time>
      </trkpt>
      <trkpt lat="50.12723" lon="4.19358">
        <ele>233</ele>
        <time>2018-06-25T09:11:20.973Z</time>
      </trkpt>
      <trkpt lat="50.12715" lon="4.19411">
        <ele>232</ele>
        <time>2018-06-25T09:11:21.973Z</time>
      </trkpt>
      <trkpt lat="50.12694" lon="4.19455">
        <ele>229</ele>
        <time>2018-06-25T09:11:22.973Z</time>
      </trkpt>
      <trkpt lat="50.12683" lon="4.19486">
        <ele>227</ele>
        <time>2018-06-25T09:11:23.973Z</time>
      </trkpt>
      <trkpt lat="50.12678" lon="4.19554">
        <ele>226</ele>
        <time>2018-06-25T09:11:24.973Z</time>
      </trkpt>
      <trkpt lat="50.12672" lon="4.19581">
        <ele>226</ele>
        <time>2018-06-25T09:11:25.973Z</time>
      </trkpt>
      <trkpt lat="50.12634" lon="4.19691">
        <ele>219</ele>
        <time>2018-06-25T09:11:26.973Z</time>
      </trkpt>
      <trkpt lat="50.12636" lon="4.19711">
        <ele>218</ele>
        <time>2018-06-25T09:11:27.973Z</time>
      </trkpt>
      <trkpt lat="50.12636" lon="4.1971">
        <ele>218</ele>
        <time>2018-06-25T09:11:28.973Z</time>
      </trkpt>
      <trkpt lat="50.12639" lon="4.19738">
        <ele>216</ele>
        <time>2018-06-25T09:11:29.973Z</time>
      </trkpt>
      <trkpt lat="50.12655" lon="4.19802">
        <ele>214</ele>
        <time>2018-06-25T09:11:30.973Z</time>
      </trkpt>
      <trkpt lat="50.12636" lon="4.1987">
        <ele>211</ele>
        <time>2018-06-25T09:11:31.973Z</time>
      </trkpt>
      <trkpt lat="50.12609" lon="4.19928">
        <ele>209</ele>
        <time>2018-06-25T09:11:32.973Z</time>
      </trkpt>
      <trkpt lat="50.12578" lon="4.19975">
        <ele>205</ele>
        <time>2018-06-25T09:11:33.973Z</time>
      </trkpt>
      <trkpt lat="50.12533" lon="4.19992">
        <ele>203</ele>
        <time>2018-06-25T09:11:34.973Z</time>
      </trkpt>
      <trkpt lat="50.12459" lon="4.20066">
        <ele>199</ele>
        <time>2018-06-25T09:11:35.973Z</time>
      </trkpt>
      <trkpt lat="50.12455" lon="4.20089">
        <ele>198</ele>
        <time>2018-06-25T09:11:36.973Z</time>
      </trkpt>
      <trkpt lat="50.12448" lon="4.20096">
        <ele>197</ele>
        <time>2018-06-25T09:11:37.973Z</time>
      </trkpt>
      <trkpt lat="50.12432" lon="4.20094">
        <ele>196</ele>
        <time>2018-06-25T09:11:38.973Z</time>
      </trkpt>
      <trkpt lat="50.12412" lon="4.20138">
        <ele>193</ele>
        <time>2018-06-25T09:11:39.973Z</time>
      </trkpt>
      <trkpt lat="50.12439" lon="4.20183">
        <ele>195</ele>
        <time>2018-06-25T09:11:40.973Z</time>
      </trkpt>
      <trkpt lat="50.1245" lon="4.20209">
        <ele>196</ele>
        <time>2018-06-25T09:11:41.973Z</time>
      </trkpt>
      <trkpt lat="50.12459" lon="4.20249">
        <ele>198</ele>
        <time>2018-06-25T09:11:42.973Z</time>
      </trkpt>
      <trkpt lat="50.12479" lon="4.20503">
        <ele>200</ele>
        <time>2018-06-25T09:11:43.973Z</time>
      </trkpt>
      <trkpt lat="50.12531" lon="4.20813">
        <ele>195</ele>
        <time>2018-06-25T09:11:44.973Z</time>
      </trkpt>
      <trkpt lat="50.12533" lon="4.20836">
        <ele>194</ele>
        <time>2018-06-25T09:11:45.973Z</time>
      </trkpt>
      <trkpt lat="50.12526" lon="4.20914">
        <ele>191</ele>
        <time>2018-06-25T09:11:46.973Z</time>
      </trkpt>
      <trkpt lat="50.12504" lon="4.21006">
        <ele>188</ele>
        <time>2018-06-25T09:11:47.973Z</time>
      </trkpt>
      <trkpt lat="50.1249" lon="4.21127">
        <ele>191</ele>
        <time>2018-06-25T09:11:48.973Z</time>
      </trkpt>
      <trkpt lat="50.12488" lon="4.21188">
        <ele>193</ele>
        <time>2018-06-25T09:11:49.973Z</time>
      </trkpt>
      <trkpt lat="50.12503" lon="4.21256">
        <ele>196</ele>
        <time>2018-06-25T09:11:50.973Z</time>
      </trkpt>
      <trkpt lat="50.12519" lon="4.21282">
        <ele>198</ele>
        <time>2018-06-25T09:11:51.973Z</time>
      </trkpt>
      <trkpt lat="50.12492" lon="4.21323">
        <ele>194</ele>
        <time>2018-06-25T09:11:52.973Z</time>
      </trkpt>
      <trkpt lat="50.12457" lon="4.21395">
        <ele>190</ele>
        <time>2018-06-25T09:11:53.973Z</time>
      </trkpt>
      <trkpt lat="50.12341" lon="4.21398">
        <ele>188</ele>
        <time>2018-06-25T09:11:54.973Z</time>
      </trkpt>
      <trkpt lat="50.12303" lon="4.21412">
        <ele>189</ele>
        <time>2018-06-25T09:11:55.973Z</time>
      </trkpt>
      <trkpt lat="50.123" lon="4.21412">
        <ele>189</ele>
        <time>2018-06-25T09:11:56.973Z</time>
      </trkpt>
      <trkpt lat="50.123" lon="4.21413">
        <ele>189</ele>
        <time>2018-06-25T09:11:57.973Z</time>
      </trkpt>
      <trkpt lat="50.12265" lon="4.2151">
        <ele>193</ele>
        <time>2018-06-25T09:11:58.973Z</time>
      </trkpt>
      <trkpt lat="50.12264" lon="4.21557">
        <ele>195</ele>
        <time>2018-06-25T09:11:59.973Z</time>
      </trkpt>
      <trkpt lat="50.12265" lon="4.21558">
        <ele>195</ele>
        <time>2018-06-25T09:12:00.973Z</time>
      </trkpt>
      <trkpt lat="50.12264" lon="4.21637">
        <ele>198</ele>
        <time>2018-06-25T09:12:01.973Z</time>
      </trkpt>
      <trkpt lat="50.12271" lon="4.21704">
        <ele>198</ele>
        <time>2018-06-25T09:12:02.973Z</time>
      </trkpt>
      <trkpt lat="50.12255" lon="4.21832">
        <ele>202</ele>
        <time>2018-06-25T09:12:03.973Z</time>
      </trkpt>
      <trkpt lat="50.12262" lon="4.21972">
        <ele>203</ele>
        <time>2018-06-25T09:12:04.973Z</time>
      </trkpt>
      <trkpt lat="50.12271" lon="4.22049">
        <ele>202</ele>
        <time>2018-06-25T09:12:05.973Z</time>
      </trkpt>
      <trkpt lat="50.12294" lon="4.22153">
        <ele>196</ele>
        <time>2018-06-25T09:12:06.973Z</time>
      </trkpt>
      <trkpt lat="50.12295" lon="4.22152">
        <ele>196</ele>
        <time>2018-06-25T09:12:07.973Z</time>
      </trkpt>
      <trkpt lat="50.12305" lon="4.22196">
        <ele>194</ele>
        <time>2018-06-25T09:12:08.973Z</time>
      </trkpt>
      <trkpt lat="50.12303" lon="4.2226">
        <ele>195</ele>
        <time>2018-06-25T09:12:09.973Z</time>
      </trkpt>
      <trkpt lat="50.12272" lon="4.22417">
        <ele>200</ele>
        <time>2018-06-25T09:12:10.973Z</time>
      </trkpt>
      <trkpt lat="50.12262" lon="4.22486">
        <ele>203</ele>
        <time>2018-06-25T09:12:11.973Z</time>
      </trkpt>
      <trkpt lat="50.12258" lon="4.22558">
        <ele>202</ele>
        <time>2018-06-25T09:12:12.973Z</time>
      </trkpt>
      <trkpt lat="50.12258" lon="4.22558">
        <ele>202</ele>
        <time>2018-06-25T09:12:13.973Z</time>
      </trkpt>
      <trkpt lat="50.12254" lon="4.22652">
        <ele>202</ele>
        <time>2018-06-25T09:12:14.973Z</time>
      </trkpt>
      <trkpt lat="50.1225" lon="4.22641">
        <ele>203</ele>
        <time>2018-06-25T09:12:15.973Z</time>
      </trkpt>
      <trkpt lat="50.12242" lon="4.2263">
        <ele>205</ele>
        <time>2018-06-25T09:12:16.973Z</time>
      </trkpt>
      <trkpt lat="50.12231" lon="4.22631">
        <ele>208</ele>
        <time>2018-06-25T09:12:17.973Z</time>
      </trkpt>
      <trkpt lat="50.12205" lon="4.22645">
        <ele>214</ele>
        <time>2018-06-25T09:12:18.973Z</time>
      </trkpt>
      <trkpt lat="50.12205" lon="4.22646">
        <ele>214</ele>
        <time>2018-06-25T09:12:19.973Z</time>
      </trkpt>
      <trkpt lat="50.12192" lon="4.22652">
        <ele>216</ele>
        <time>2018-06-25T09:12:20.973Z</time>
      </trkpt>
      <trkpt lat="50.12165" lon="4.22728">
        <ele>226</ele>
        <time>2018-06-25T09:12:21.973Z</time>
      </trkpt>
      <trkpt lat="50.12136" lon="4.22759">
        <ele>230</ele>
        <time>2018-06-25T09:12:22.973Z</time>
      </trkpt>
      <trkpt lat="50.12114" lon="4.22772">
        <ele>233</ele>
        <time>2018-06-25T09:12:23.973Z</time>
      </trkpt>
      <trkpt lat="50.12019" lon="4.22657">
        <ele>241</ele>
        <time>2018-06-25T09:12:24.973Z</time>
      </trkpt>
      <trkpt lat="50.11965" lon="4.22618">
        <ele>233</ele>
        <time>2018-06-25T09:12:25.973Z</time>
      </trkpt>
      <trkpt lat="50.11919" lon="4.22715">
        <ele>227</ele>
        <time>2018-06-25T09:12:26.973Z</time>
      </trkpt>
      <trkpt lat="50.11889" lon="4.22809">
        <ele>226</ele>
        <time>2018-06-25T09:12:27.973Z</time>
      </trkpt>
      <trkpt lat="50.11819" lon="4.22828">
        <ele>223</ele>
        <time>2018-06-25T09:12:28.973Z</time>
      </trkpt>
      <trkpt lat="50.11716" lon="4.22882">
        <ele>229</ele>
        <time>2018-06-25T09:12:29.973Z</time>
      </trkpt>
      <trkpt lat="50.1162" lon="4.22967">
        <ele>235</ele>
        <time>2018-06-25T09:12:30.973Z</time>
      </trkpt>
      <trkpt lat="50.11546" lon="4.23028">
        <ele>241</ele>
        <time>2018-06-25T09:12:31.973Z</time>
      </trkpt>
      <trkpt lat="50.11547" lon="4.23028">
        <ele>241</ele>
        <time>2018-06-25T09:12:32.973Z</time>
      </trkpt>
      <trkpt lat="50.11464" lon="4.23093">
        <ele>249</ele>
        <time>2018-06-25T09:12:33.973Z</time>
      </trkpt>
      <trkpt lat="50.1136" lon="4.23154">
        <ele>252</ele>
        <time>2018-06-25T09:12:34.973Z</time>
      </trkpt>
      <trkpt lat="50.11314" lon="4.23161">
        <ele>254</ele>
        <time>2018-06-25T09:12:35.973Z</time>
      </trkpt>
      <trkpt lat="50.11229" lon="4.23163">
        <ele>257</ele>
        <time>2018-06-25T09:12:36.973Z</time>
      </trkpt>
      <trkpt lat="50.11158" lon="4.23144">
        <ele>258</ele>
        <time>2018-06-25T09:12:37.973Z</time>
      </trkpt>
      <trkpt lat="50.11091" lon="4.23173">
        <ele>257</ele>
        <time>2018-06-25T09:12:38.973Z</time>
      </trkpt>
      <trkpt lat="50.11091" lon="4.23174">
        <ele>257</ele>
        <time>2018-06-25T09:12:39.973Z</time>
      </trkpt>
      <trkpt lat="50.10975" lon="4.23223">
        <ele>260</ele>
        <time>2018-06-25T09:12:40.973Z</time>
      </trkpt>
      <trkpt lat="50.11163" lon="4.23925">
        <ele>263</ele>
        <time>2018-06-25T09:12:41.973Z</time>
      </trkpt>
      <trkpt lat="50.1127" lon="4.24327">
        <ele>272</ele>
        <time>2018-06-25T09:12:42.973Z</time>
      </trkpt>
      <trkpt lat="50.11371" lon="4.24705">
        <ele>267</ele>
        <time>2018-06-25T09:12:43.973Z</time>
      </trkpt>
      <trkpt lat="50.11385" lon="4.24747">
        <ele>267</ele>
        <time>2018-06-25T09:12:44.973Z</time>
      </trkpt>
      <trkpt lat="50.10996" lon="4.25106">
        <ele>260</ele>
        <time>2018-06-25T09:12:45.973Z</time>
      </trkpt>
      <trkpt lat="50.10878" lon="4.25217">
        <ele>264</ele>
        <time>2018-06-25T09:12:46.973Z</time>
      </trkpt>
      <trkpt lat="50.10717" lon="4.25362">
        <ele>266</ele>
        <time>2018-06-25T09:12:47.973Z</time>
      </trkpt>
      <trkpt lat="50.1045" lon="4.25614">
        <ele>261</ele>
        <time>2018-06-25T09:12:48.973Z</time>
      </trkpt>
      <trkpt lat="50.1041" lon="4.25684">
        <ele>261</ele>
        <time>2018-06-25T09:12:49.973Z</time>
      </trkpt>
      <trkpt lat="50.10393" lon="4.25815">
        <ele>260</ele>
        <time>2018-06-25T09:12:50.973Z</time>
      </trkpt>
      <trkpt lat="50.10399" lon="4.26146">
        <ele>264</ele>
        <time>2018-06-25T09:12:51.973Z</time>
      </trkpt>
      <trkpt lat="50.10399" lon="4.26314">
        <ele>268</ele>
        <time>2018-06-25T09:12:52.973Z</time>
      </trkpt>
      <trkpt lat="50.10405" lon="4.26923">
        <ele>256</ele>
        <time>2018-06-25T09:12:53.973Z</time>
      </trkpt>
      <trkpt lat="50.10405" lon="4.27485">
        <ele>240</ele>
        <time>2018-06-25T09:12:54.973Z</time>
      </trkpt>
      <trkpt lat="50.1044" lon="4.2765">
        <ele>237</ele>
        <time>2018-06-25T09:12:55.973Z</time>
      </trkpt>
      <trkpt lat="50.10472" lon="4.27755">
        <ele>234</ele>
        <time>2018-06-25T09:12:56.973Z</time>
      </trkpt>
      <trkpt lat="50.10483" lon="4.2783">
        <ele>233</ele>
        <time>2018-06-25T09:12:57.973Z</time>
      </trkpt>
      <trkpt lat="50.10471" lon="4.27908">
        <ele>233</ele>
        <time>2018-06-25T09:12:58.973Z</time>
      </trkpt>
      <trkpt lat="50.10454" lon="4.27951">
        <ele>234</ele>
        <time>2018-06-25T09:12:59.973Z</time>
      </trkpt>
      <trkpt lat="50.10424" lon="4.28015">
        <ele>235</ele>
        <time>2018-06-25T09:13:00.973Z</time>
      </trkpt>
      <trkpt lat="50.10377" lon="4.28137">
        <ele>235</ele>
        <time>2018-06-25T09:13:01.973Z</time>
      </trkpt>
      <trkpt lat="50.10366" lon="4.2817">
        <ele>235</ele>
        <time>2018-06-25T09:13:02.973Z</time>
      </trkpt>
      <trkpt lat="50.10357" lon="4.2821">
        <ele>234</ele>
        <time>2018-06-25T09:13:03.973Z</time>
      </trkpt>
      <trkpt lat="50.10319" lon="4.28688">
        <ele>240</ele>
        <time>2018-06-25T09:13:04.973Z</time>
      </trkpt>
      <trkpt lat="50.10296" lon="4.28778">
        <ele>243</ele>
        <time>2018-06-25T09:13:05.973Z</time>
      </trkpt>
      <trkpt lat="50.09902" lon="4.28914">
        <ele>250</ele>
        <time>2018-06-25T09:13:06.973Z</time>
      </trkpt>
      <trkpt lat="50.09382" lon="4.29088">
        <ele>235</ele>
        <time>2018-06-25T09:13:07.973Z</time>
      </trkpt>
      <trkpt lat="50.08849" lon="4.29278">
        <ele>255</ele>
        <time>2018-06-25T09:13:08.973Z</time>
      </trkpt>
      <trkpt lat="50.08773" lon="4.29292">
        <ele>254</ele>
        <time>2018-06-25T09:13:09.973Z</time>
      </trkpt>
      <trkpt lat="50.08584" lon="4.29315">
        <ele>258</ele>
        <time>2018-06-25T09:13:10.973Z</time>
      </trkpt>
      <trkpt lat="50.08585" lon="4.29316">
        <ele>258</ele>
        <time>2018-06-25T09:13:11.973Z</time>
      </trkpt>
      <trkpt lat="50.07906" lon="4.29405">
        <ele>237</ele>
        <time>2018-06-25T09:13:12.973Z</time>
      </trkpt>
      <trkpt lat="50.07713" lon="4.29428">
        <ele>230</ele>
        <time>2018-06-25T09:13:13.973Z</time>
      </trkpt>
      <trkpt lat="50.07311" lon="4.29483">
        <ele>237</ele>
        <time>2018-06-25T09:13:14.973Z</time>
      </trkpt>
      <trkpt lat="50.07288" lon="4.29481">
        <ele>239</ele>
        <time>2018-06-25T09:13:15.973Z</time>
      </trkpt>
      <trkpt lat="50.07288" lon="4.29481">
        <ele>239</ele>
        <time>2018-06-25T09:13:16.973Z</time>
      </trkpt>
      <trkpt lat="50.07159" lon="4.29475">
        <ele>249</ele>
        <time>2018-06-25T09:13:17.973Z</time>
      </trkpt>
      <trkpt lat="50.06997" lon="4.29441">
        <ele>260</ele>
        <time>2018-06-25T09:13:18.973Z</time>
      </trkpt>
      <trkpt lat="50.06984" lon="4.29632">
        <ele>260</ele>
        <time>2018-06-25T09:13:19.973Z</time>
      </trkpt>
      <trkpt lat="50.06969" lon="4.29784">
        <ele>259</ele>
        <time>2018-06-25T09:13:20.973Z</time>
      </trkpt>
      <trkpt lat="50.06961" lon="4.29925">
        <ele>256</ele>
        <time>2018-06-25T09:13:21.973Z</time>
      </trkpt>
      <trkpt lat="50.06953" lon="4.29983">
        <ele>255</ele>
        <time>2018-06-25T09:13:22.973Z</time>
      </trkpt>
      <trkpt lat="50.06851" lon="4.30309">
        <ele>250</ele>
        <time>2018-06-25T09:13:23.973Z</time>
      </trkpt>
      <trkpt lat="50.06851" lon="4.30309">
        <ele>250</ele>
        <time>2018-06-25T09:13:24.973Z</time>
      </trkpt>
      <trkpt lat="50.06834" lon="4.30363">
        <ele>253</ele>
        <time>2018-06-25T09:13:25.973Z</time>
      </trkpt>
      <trkpt lat="50.06793" lon="4.30477">
        <ele>256</ele>
        <time>2018-06-25T09:13:26.973Z</time>
      </trkpt>
      <trkpt lat="50.0676" lon="4.30549">
        <ele>257</ele>
        <time>2018-06-25T09:13:27.973Z</time>
      </trkpt>
      <trkpt lat="50.06656" lon="4.30651">
        <ele>266</ele>
        <time>2018-06-25T09:13:28.973Z</time>
      </trkpt>
      <trkpt lat="50.0657" lon="4.30762">
        <ele>268</ele>
        <time>2018-06-25T09:13:29.973Z</time>
      </trkpt>
      <trkpt lat="50.06501" lon="4.30831">
        <ele>269</ele>
        <time>2018-06-25T09:13:30.973Z</time>
      </trkpt>
      <trkpt lat="50.06422" lon="4.30873">
        <ele>269</ele>
        <time>2018-06-25T09:13:31.973Z</time>
      </trkpt>
      <trkpt lat="50.06397" lon="4.30877">
        <ele>266</ele>
        <time>2018-06-25T09:13:32.973Z</time>
      </trkpt>
      <trkpt lat="50.06379" lon="4.30868">
        <ele>264</ele>
        <time>2018-06-25T09:13:33.973Z</time>
      </trkpt>
      <trkpt lat="50.06274" lon="4.30763">
        <ele>262</ele>
        <time>2018-06-25T09:13:34.973Z</time>
      </trkpt>
      <trkpt lat="50.0625" lon="4.30753">
        <ele>261</ele>
        <time>2018-06-25T09:13:35.973Z</time>
      </trkpt>
      <trkpt lat="50.06228" lon="4.30767">
        <ele>257</ele>
        <time>2018-06-25T09:13:36.973Z</time>
      </trkpt>
      <trkpt lat="50.06146" lon="4.30986">
        <ele>250</ele>
        <time>2018-06-25T09:13:37.973Z</time>
      </trkpt>
      <trkpt lat="50.06137" lon="4.31018">
        <ele>250</ele>
        <time>2018-06-25T09:13:38.973Z</time>
      </trkpt>
      <trkpt lat="50.06137" lon="4.31053">
        <ele>251</ele>
        <time>2018-06-25T09:13:39.973Z</time>
      </trkpt>
      <trkpt lat="50.06172" lon="4.31261">
        <ele>257</ele>
        <time>2018-06-25T09:13:40.973Z</time>
      </trkpt>
      <trkpt lat="50.06171" lon="4.31624">
        <ele>247</ele>
        <time>2018-06-25T09:13:41.973Z</time>
      </trkpt>
      <trkpt lat="50.06153" lon="4.32081">
        <ele>232</ele>
        <time>2018-06-25T09:13:42.973Z</time>
      </trkpt>
      <trkpt lat="50.0616" lon="4.32254">
        <ele>221</ele>
        <time>2018-06-25T09:13:43.973Z</time>
      </trkpt>
      <trkpt lat="50.06174" lon="4.32445">
        <ele>213</ele>
        <time>2018-06-25T09:13:44.973Z</time>
      </trkpt>
      <trkpt lat="50.06216" lon="4.32607">
        <ele>211</ele>
        <time>2018-06-25T09:13:45.973Z</time>
      </trkpt>
      <trkpt lat="50.06212" lon="4.3271">
        <ele>214</ele>
        <time>2018-06-25T09:13:46.973Z</time>
      </trkpt>
      <trkpt lat="50.06225" lon="4.32766">
        <ele>216</ele>
        <time>2018-06-25T09:13:47.973Z</time>
      </trkpt>
      <trkpt lat="50.06274" lon="4.32876">
        <ele>218</ele>
        <time>2018-06-25T09:13:48.973Z</time>
      </trkpt>
      <trkpt lat="50.06323" lon="4.32967">
        <ele>216</ele>
        <time>2018-06-25T09:13:49.973Z</time>
      </trkpt>
      <trkpt lat="50.06343" lon="4.33064">
        <ele>215</ele>
        <time>2018-06-25T09:13:50.973Z</time>
      </trkpt>
      <trkpt lat="50.06225" lon="4.3317">
        <ele>213</ele>
        <time>2018-06-25T09:13:51.973Z</time>
      </trkpt>
      <trkpt lat="50.06221" lon="4.33183">
        <ele>212</ele>
        <time>2018-06-25T09:13:52.973Z</time>
      </trkpt>
      <trkpt lat="50.06225" lon="4.33247">
        <ele>208</ele>
        <time>2018-06-25T09:13:53.973Z</time>
      </trkpt>
      <trkpt lat="50.06245" lon="4.33313">
        <ele>207</ele>
        <time>2018-06-25T09:13:54.973Z</time>
      </trkpt>
      <trkpt lat="50.06248" lon="4.33337">
        <ele>207</ele>
        <time>2018-06-25T09:13:55.973Z</time>
      </trkpt>
      <trkpt lat="50.06261" lon="4.33377">
        <ele>205</ele>
        <time>2018-06-25T09:13:56.973Z</time>
      </trkpt>
      <trkpt lat="50.06256" lon="4.3338">
        <ele>205</ele>
        <time>2018-06-25T09:13:57.973Z</time>
      </trkpt>
      <trkpt lat="50.06308" lon="4.33573">
        <ele>203</ele>
        <time>2018-06-25T09:13:58.973Z</time>
      </trkpt>
      <trkpt lat="50.06259" lon="4.33622">
        <ele>206</ele>
        <time>2018-06-25T09:13:59.973Z</time>
      </trkpt>
      <trkpt lat="50.06245" lon="4.33629">
        <ele>207</ele>
        <time>2018-06-25T09:14:00.973Z</time>
      </trkpt>
      <trkpt lat="50.06238" lon="4.33629">
        <ele>209</ele>
        <time>2018-06-25T09:14:01.973Z</time>
      </trkpt>
      <trkpt lat="50.06249" lon="4.33725">
        <ele>209</ele>
        <time>2018-06-25T09:14:02.973Z</time>
      </trkpt>
      <trkpt lat="50.06312" lon="4.33949">
        <ele>212</ele>
        <time>2018-06-25T09:14:03.973Z</time>
      </trkpt>
      <trkpt lat="50.06391" lon="4.34152">
        <ele>211</ele>
        <time>2018-06-25T09:14:04.973Z</time>
      </trkpt>
      <trkpt lat="50.06429" lon="4.34274">
        <ele>210</ele>
        <time>2018-06-25T09:14:05.973Z</time>
      </trkpt>
      <trkpt lat="50.06458" lon="4.34385">
        <ele>211</ele>
        <time>2018-06-25T09:14:06.973Z</time>
      </trkpt>
      <trkpt lat="50.06482" lon="4.34527">
        <ele>210</ele>
        <time>2018-06-25T09:14:07.973Z</time>
      </trkpt>
      <trkpt lat="50.065" lon="4.346">
        <ele>209</ele>
        <time>2018-06-25T09:14:08.973Z</time>
      </trkpt>
      <trkpt lat="50.06512" lon="4.34695">
        <ele>212</ele>
        <time>2018-06-25T09:14:09.973Z</time>
      </trkpt>
      <trkpt lat="50.06532" lon="4.34783">
        <ele>211</ele>
        <time>2018-06-25T09:14:10.973Z</time>
      </trkpt>
      <trkpt lat="50.06544" lon="4.34898">
        <ele>214</ele>
        <time>2018-06-25T09:14:11.973Z</time>
      </trkpt>
      <trkpt lat="50.06546" lon="4.34969">
        <ele>216</ele>
        <time>2018-06-25T09:14:12.973Z</time>
      </trkpt>
      <trkpt lat="50.06559" lon="4.35044">
        <ele>216</ele>
        <time>2018-06-25T09:14:13.973Z</time>
      </trkpt>
      <trkpt lat="50.06591" lon="4.35116">
        <ele>214</ele>
        <time>2018-06-25T09:14:14.973Z</time>
      </trkpt>
      <trkpt lat="50.06605" lon="4.35203">
        <ele>217</ele>
        <time>2018-06-25T09:14:15.973Z</time>
      </trkpt>
      <trkpt lat="50.06607" lon="4.35233">
        <ele>220</ele>
        <time>2018-06-25T09:14:16.973Z</time>
      </trkpt>
      <trkpt lat="50.066" lon="4.35296">
        <ele>224</ele>
        <time>2018-06-25T09:14:17.973Z</time>
      </trkpt>
      <trkpt lat="50.06592" lon="4.35425">
        <ele>216</ele>
        <time>2018-06-25T09:14:18.973Z</time>
      </trkpt>
      <trkpt lat="50.06611" lon="4.35719">
        <ele>235</ele>
        <time>2018-06-25T09:14:19.973Z</time>
      </trkpt>
      <trkpt lat="50.06664" lon="4.36532">
        <ele>226</ele>
        <time>2018-06-25T09:14:20.973Z</time>
      </trkpt>
      <trkpt lat="50.06666" lon="4.36542">
        <ele>226</ele>
        <time>2018-06-25T09:14:21.973Z</time>
      </trkpt>
      <trkpt lat="50.0661" lon="4.36552">
        <ele>229</ele>
        <time>2018-06-25T09:14:22.973Z</time>
      </trkpt>
      <trkpt lat="50.06579" lon="4.36562">
        <ele>230</ele>
        <time>2018-06-25T09:14:23.973Z</time>
      </trkpt>
      <trkpt lat="50.06546" lon="4.36632">
        <ele>231</ele>
        <time>2018-06-25T09:14:24.973Z</time>
      </trkpt>
      <trkpt lat="50.06473" lon="4.36679">
        <ele>230</ele>
        <time>2018-06-25T09:14:25.973Z</time>
      </trkpt>
      <trkpt lat="50.0645" lon="4.36687">
        <ele>226</ele>
        <time>2018-06-25T09:14:26.973Z</time>
      </trkpt>
      <trkpt lat="50.06444" lon="4.36703">
        <ele>227</ele>
        <time>2018-06-25T09:14:27.973Z</time>
      </trkpt>
      <trkpt lat="50.06449" lon="4.36758">
        <ele>233</ele>
        <time>2018-06-25T09:14:28.973Z</time>
      </trkpt>
      <trkpt lat="50.06452" lon="4.36767">
        <ele>233</ele>
        <time>2018-06-25T09:14:29.973Z</time>
      </trkpt>
      <trkpt lat="50.06452" lon="4.36767">
        <ele>233</ele>
        <time>2018-06-25T09:14:30.973Z</time>
      </trkpt>
      <trkpt lat="50.06471" lon="4.36828">
        <ele>235</ele>
        <time>2018-06-25T09:14:31.973Z</time>
      </trkpt>
      <trkpt lat="50.06499" lon="4.37013">
        <ele>236</ele>
        <time>2018-06-25T09:14:32.973Z</time>
      </trkpt>
      <trkpt lat="50.06496" lon="4.37091">
        <ele>234</ele>
        <time>2018-06-25T09:14:33.973Z</time>
      </trkpt>
      <trkpt lat="50.06488" lon="4.3711">
        <ele>233</ele>
        <time>2018-06-25T09:14:34.973Z</time>
      </trkpt>
      <trkpt lat="50.06477" lon="4.37123">
        <ele>231</ele>
        <time>2018-06-25T09:14:35.973Z</time>
      </trkpt>
      <trkpt lat="50.06465" lon="4.37158">
        <ele>231</ele>
        <time>2018-06-25T09:14:36.973Z</time>
      </trkpt>
      <trkpt lat="50.0644" lon="4.37196">
        <ele>230</ele>
        <time>2018-06-25T09:14:37.973Z</time>
      </trkpt>
      <trkpt lat="50.06441" lon="4.37195">
        <ele>230</ele>
        <time>2018-06-25T09:14:38.973Z</time>
      </trkpt>
      <trkpt lat="50.06434" lon="4.37213">
        <ele>231</ele>
        <time>2018-06-25T09:14:39.973Z</time>
      </trkpt>
      <trkpt lat="50.06428" lon="4.37271">
        <ele>234</ele>
        <time>2018-06-25T09:14:40.973Z</time>
      </trkpt>
      <trkpt lat="50.06431" lon="4.37308">
        <ele>235</ele>
        <time>2018-06-25T09:14:41.973Z</time>
      </trkpt>
      <trkpt lat="50.06423" lon="4.37375">
        <ele>235</ele>
        <time>2018-06-25T09:14:42.973Z</time>
      </trkpt>
      <trkpt lat="50.06404" lon="4.37428">
        <ele>230</ele>
        <time>2018-06-25T09:14:43.973Z</time>
      </trkpt>
      <trkpt lat="50.06387" lon="4.3746">
        <ele>225</ele>
        <time>2018-06-25T09:14:44.973Z</time>
      </trkpt>
      <trkpt lat="50.06364" lon="4.37491">
        <ele>220</ele>
        <time>2018-06-25T09:14:45.973Z</time>
      </trkpt>
      <trkpt lat="50.06362" lon="4.37544">
        <ele>219</ele>
        <time>2018-06-25T09:14:46.973Z</time>
      </trkpt>
      <trkpt lat="50.06347" lon="4.37593">
        <ele>216</ele>
        <time>2018-06-25T09:14:47.973Z</time>
      </trkpt>
      <trkpt lat="50.06338" lon="4.37605">
        <ele>214</ele>
        <time>2018-06-25T09:14:48.973Z</time>
      </trkpt>
      <trkpt lat="50.06327" lon="4.37655">
        <ele>209</ele>
        <time>2018-06-25T09:14:49.973Z</time>
      </trkpt>
      <trkpt lat="50.06333" lon="4.37685">
        <ele>207</ele>
        <time>2018-06-25T09:14:50.973Z</time>
      </trkpt>
      <trkpt lat="50.06363" lon="4.37764">
        <ele>205</ele>
        <time>2018-06-25T09:14:51.973Z</time>
      </trkpt>
      <trkpt lat="50.06411" lon="4.37844">
        <ele>200</ele>
        <time>2018-06-25T09:14:52.973Z</time>
      </trkpt>
      <trkpt lat="50.06394" lon="4.37863">
        <ele>198</ele>
        <time>2018-06-25T09:14:53.973Z</time>
      </trkpt>
      <trkpt lat="50.06345" lon="4.37949">
        <ele>195</ele>
        <time>2018-06-25T09:14:54.973Z</time>
      </trkpt>
      <trkpt lat="50.06336" lon="4.37956">
        <ele>195</ele>
        <time>2018-06-25T09:14:55.973Z</time>
      </trkpt>
      <trkpt lat="50.06328" lon="4.37958">
        <ele>195</ele>
        <time>2018-06-25T09:14:56.973Z</time>
      </trkpt>
      <trkpt lat="50.06317" lon="4.37957">
        <ele>196</ele>
        <time>2018-06-25T09:14:57.973Z</time>
      </trkpt>
      <trkpt lat="50.06307" lon="4.37949">
        <ele>197</ele>
        <time>2018-06-25T09:14:58.973Z</time>
      </trkpt>
      <trkpt lat="50.06293" lon="4.37954">
        <ele>197</ele>
        <time>2018-06-25T09:14:59.973Z</time>
      </trkpt>
      <trkpt lat="50.06242" lon="4.37937">
        <ele>199</ele>
        <time>2018-06-25T09:15:00.973Z</time>
      </trkpt>
      <trkpt lat="50.06213" lon="4.37935">
        <ele>198</ele>
        <time>2018-06-25T09:15:01.973Z</time>
      </trkpt>
      <trkpt lat="50.06173" lon="4.37929">
        <ele>196</ele>
        <time>2018-06-25T09:15:02.973Z</time>
      </trkpt>
      <trkpt lat="50.06132" lon="4.37915">
        <ele>197</ele>
        <time>2018-06-25T09:15:03.973Z</time>
      </trkpt>
      <trkpt lat="50.06073" lon="4.37918">
        <ele>199</ele>
        <time>2018-06-25T09:15:04.973Z</time>
      </trkpt>
      <trkpt lat="50.06045" lon="4.3793">
        <ele>205</ele>
        <time>2018-06-25T09:15:05.973Z</time>
      </trkpt>
      <trkpt lat="50.0602" lon="4.37949">
        <ele>210</ele>
        <time>2018-06-25T09:15:06.973Z</time>
      </trkpt>
      <trkpt lat="50.06004" lon="4.37991">
        <ele>210</ele>
        <time>2018-06-25T09:15:07.973Z</time>
      </trkpt>
      <trkpt lat="50.05992" lon="4.38032">
        <ele>210</ele>
        <time>2018-06-25T09:15:08.973Z</time>
      </trkpt>
      <trkpt lat="50.05987" lon="4.38082">
        <ele>209</ele>
        <time>2018-06-25T09:15:09.973Z</time>
      </trkpt>
      <trkpt lat="50.05999" lon="4.38179">
        <ele>206</ele>
        <time>2018-06-25T09:15:10.973Z</time>
      </trkpt>
      <trkpt lat="50.0605" lon="4.38302">
        <ele>200</ele>
        <time>2018-06-25T09:15:11.973Z</time>
      </trkpt>
      <trkpt lat="50.06073" lon="4.38339">
        <ele>197</ele>
        <time>2018-06-25T09:15:12.973Z</time>
      </trkpt>
      <trkpt lat="50.06098" lon="4.38354">
        <ele>196</ele>
        <time>2018-06-25T09:15:13.973Z</time>
      </trkpt>
      <trkpt lat="50.0614" lon="4.3839">
        <ele>196</ele>
        <time>2018-06-25T09:15:14.973Z</time>
      </trkpt>
      <trkpt lat="50.06228" lon="4.38499">
        <ele>196</ele>
        <time>2018-06-25T09:15:15.973Z</time>
      </trkpt>
      <trkpt lat="50.06258" lon="4.38534">
        <ele>197</ele>
        <time>2018-06-25T09:15:16.973Z</time>
      </trkpt>
      <trkpt lat="50.06321" lon="4.38586">
        <ele>195</ele>
        <time>2018-06-25T09:15:17.973Z</time>
      </trkpt>
      <trkpt lat="50.06351" lon="4.38628">
        <ele>196</ele>
        <time>2018-06-25T09:15:18.973Z</time>
      </trkpt>
      <trkpt lat="50.06369" lon="4.38659">
        <ele>196</ele>
        <time>2018-06-25T09:15:19.973Z</time>
      </trkpt>
      <trkpt lat="50.06372" lon="4.38681">
        <ele>195</ele>
        <time>2018-06-25T09:15:20.973Z</time>
      </trkpt>
      <trkpt lat="50.06372" lon="4.38697">
        <ele>194</ele>
        <time>2018-06-25T09:15:21.973Z</time>
      </trkpt>
      <trkpt lat="50.06368" lon="4.3871">
        <ele>194</ele>
        <time>2018-06-25T09:15:22.973Z</time>
      </trkpt>
      <trkpt lat="50.0636" lon="4.38721">
        <ele>194</ele>
        <time>2018-06-25T09:15:23.973Z</time>
      </trkpt>
      <trkpt lat="50.06349" lon="4.38728">
        <ele>194</ele>
        <time>2018-06-25T09:15:24.973Z</time>
      </trkpt>
      <trkpt lat="50.06319" lon="4.38733">
        <ele>196</ele>
        <time>2018-06-25T09:15:25.973Z</time>
      </trkpt>
      <trkpt lat="50.06283" lon="4.38745">
        <ele>200</ele>
        <time>2018-06-25T09:15:26.973Z</time>
      </trkpt>
      <trkpt lat="50.06254" lon="4.38759">
        <ele>202</ele>
        <time>2018-06-25T09:15:27.973Z</time>
      </trkpt>
      <trkpt lat="50.06238" lon="4.38778">
        <ele>203</ele>
        <time>2018-06-25T09:15:28.973Z</time>
      </trkpt>
      <trkpt lat="50.06196" lon="4.38857">
        <ele>205</ele>
        <time>2018-06-25T09:15:29.973Z</time>
      </trkpt>
      <trkpt lat="50.06189" lon="4.38878">
        <ele>205</ele>
        <time>2018-06-25T09:15:30.973Z</time>
      </trkpt>
      <trkpt lat="50.06189" lon="4.38878">
        <ele>205</ele>
        <time>2018-06-25T09:15:31.973Z</time>
      </trkpt>
      <trkpt lat="50.06182" lon="4.38898">
        <ele>205</ele>
        <time>2018-06-25T09:15:32.973Z</time>
      </trkpt>
      <trkpt lat="50.06174" lon="4.38957">
        <ele>203</ele>
        <time>2018-06-25T09:15:33.973Z</time>
      </trkpt>
      <trkpt lat="50.0617" lon="4.39024">
        <ele>203</ele>
        <time>2018-06-25T09:15:34.973Z</time>
      </trkpt>
      <trkpt lat="50.06174" lon="4.3908">
        <ele>202</ele>
        <time>2018-06-25T09:15:35.973Z</time>
      </trkpt>
      <trkpt lat="50.06169" lon="4.39119">
        <ele>201</ele>
        <time>2018-06-25T09:15:36.973Z</time>
      </trkpt>
      <trkpt lat="50.06158" lon="4.39144">
        <ele>203</ele>
        <time>2018-06-25T09:15:37.973Z</time>
      </trkpt>
      <trkpt lat="50.06133" lon="4.39178">
        <ele>209</ele>
        <time>2018-06-25T09:15:38.973Z</time>
      </trkpt>
      <trkpt lat="50.06117" lon="4.39214">
        <ele>211</ele>
        <time>2018-06-25T09:15:39.973Z</time>
      </trkpt>
      <trkpt lat="50.061" lon="4.39233">
        <ele>213</ele>
        <time>2018-06-25T09:15:40.973Z</time>
      </trkpt>
      <trkpt lat="50.0609" lon="4.39235">
        <ele>215</ele>
        <time>2018-06-25T09:15:41.973Z</time>
      </trkpt>
      <trkpt lat="50.06079" lon="4.39231">
        <ele>217</ele>
        <time>2018-06-25T09:15:42.973Z</time>
      </trkpt>
      <trkpt lat="50.06047" lon="4.39204">
        <ele>226</ele>
        <time>2018-06-25T09:15:43.973Z</time>
      </trkpt>
      <trkpt lat="50.06033" lon="4.39201">
        <ele>229</ele>
        <time>2018-06-25T09:15:44.973Z</time>
      </trkpt>
      <trkpt lat="50.05972" lon="4.39222">
        <ele>235</ele>
        <time>2018-06-25T09:15:45.973Z</time>
      </trkpt>
      <trkpt lat="50.05897" lon="4.39223">
        <ele>238</ele>
        <time>2018-06-25T09:15:46.973Z</time>
      </trkpt>
      <trkpt lat="50.05876" lon="4.39216">
        <ele>237</ele>
        <time>2018-06-25T09:15:47.973Z</time>
      </trkpt>
      <trkpt lat="50.05831" lon="4.3918">
        <ele>239</ele>
        <time>2018-06-25T09:15:48.973Z</time>
      </trkpt>
      <trkpt lat="50.05794" lon="4.39159">
        <ele>241</ele>
        <time>2018-06-25T09:15:49.973Z</time>
      </trkpt>
      <trkpt lat="50.05736" lon="4.3913">
        <ele>243</ele>
        <time>2018-06-25T09:15:50.973Z</time>
      </trkpt>
      <trkpt lat="50.05696" lon="4.39107">
        <ele>245</ele>
        <time>2018-06-25T09:15:51.973Z</time>
      </trkpt>
      <trkpt lat="50.05589" lon="4.39031">
        <ele>245</ele>
        <time>2018-06-25T09:15:52.973Z</time>
      </trkpt>
      <trkpt lat="50.05518" lon="4.38975">
        <ele>245</ele>
        <time>2018-06-25T09:15:53.973Z</time>
      </trkpt>
      <trkpt lat="50.05502" lon="4.38966">
        <ele>244</ele>
        <time>2018-06-25T09:15:54.973Z</time>
      </trkpt>
      <trkpt lat="50.05471" lon="4.38941">
        <ele>242</ele>
        <time>2018-06-25T09:15:55.973Z</time>
      </trkpt>
      <trkpt lat="50.05455" lon="4.38917">
        <ele>242</ele>
        <time>2018-06-25T09:15:56.973Z</time>
      </trkpt>
      <trkpt lat="50.05422" lon="4.3888">
        <ele>240</ele>
        <time>2018-06-25T09:15:57.973Z</time>
      </trkpt>
      <trkpt lat="50.05386" lon="4.38832">
        <ele>239</ele>
        <time>2018-06-25T09:15:58.973Z</time>
      </trkpt>
      <trkpt lat="50.0536" lon="4.38793">
        <ele>237</ele>
        <time>2018-06-25T09:15:59.973Z</time>
      </trkpt>
      <trkpt lat="50.05326" lon="4.38735">
        <ele>236</ele>
        <time>2018-06-25T09:16:00.973Z</time>
      </trkpt>
      <trkpt lat="50.05303" lon="4.38701">
        <ele>232</ele>
        <time>2018-06-25T09:16:01.973Z</time>
      </trkpt>
      <trkpt lat="50.05261" lon="4.38665">
        <ele>227</ele>
        <time>2018-06-25T09:16:02.973Z</time>
      </trkpt>
      <trkpt lat="50.05253" lon="4.38747">
        <ele>225</ele>
        <time>2018-06-25T09:16:03.973Z</time>
      </trkpt>
      <trkpt lat="50.0525" lon="4.38804">
        <ele>222</ele>
        <time>2018-06-25T09:16:04.973Z</time>
      </trkpt>
      <trkpt lat="50.0529" lon="4.38892">
        <ele>222</ele>
        <time>2018-06-25T09:16:05.973Z</time>
      </trkpt>
      <trkpt lat="50.05308" lon="4.38953">
        <ele>220</ele>
        <time>2018-06-25T09:16:06.973Z</time>
      </trkpt>
      <trkpt lat="50.05315" lon="4.38991">
        <ele>217</ele>
        <time>2018-06-25T09:16:07.973Z</time>
      </trkpt>
      <trkpt lat="50.05313" lon="4.39053">
        <ele>211</ele>
        <time>2018-06-25T09:16:08.973Z</time>
      </trkpt>
      <trkpt lat="50.05344" lon="4.39129">
        <ele>207</ele>
        <time>2018-06-25T09:16:09.973Z</time>
      </trkpt>
      <trkpt lat="50.05353" lon="4.39171">
        <ele>203</ele>
        <time>2018-06-25T09:16:10.973Z</time>
      </trkpt>
      <trkpt lat="50.05359" lon="4.39251">
        <ele>194</ele>
        <time>2018-06-25T09:16:11.973Z</time>
      </trkpt>
      <trkpt lat="50.05358" lon="4.39276">
        <ele>193</ele>
        <time>2018-06-25T09:16:12.973Z</time>
      </trkpt>
      <trkpt lat="50.05363" lon="4.39312">
        <ele>191</ele>
        <time>2018-06-25T09:16:13.973Z</time>
      </trkpt>
      <trkpt lat="50.05332" lon="4.3945">
        <ele>186</ele>
        <time>2018-06-25T09:16:14.973Z</time>
      </trkpt>
      <trkpt lat="50.0532" lon="4.39528">
        <ele>189</ele>
        <time>2018-06-25T09:16:15.973Z</time>
      </trkpt>
      <trkpt lat="50.05316" lon="4.3961">
        <ele>194</ele>
        <time>2018-06-25T09:16:16.973Z</time>
      </trkpt>
      <trkpt lat="50.05309" lon="4.39691">
        <ele>204</ele>
        <time>2018-06-25T09:16:17.973Z</time>
      </trkpt>
      <trkpt lat="50.05311" lon="4.39706">
        <ele>206</ele>
        <time>2018-06-25T09:16:18.973Z</time>
      </trkpt>
      <trkpt lat="50.05354" lon="4.398">
        <ele>214</ele>
        <time>2018-06-25T09:16:19.973Z</time>
      </trkpt>
      <trkpt lat="50.05362" lon="4.39858">
        <ele>219</ele>
        <time>2018-06-25T09:16:20.973Z</time>
      </trkpt>
      <trkpt lat="50.05349" lon="4.39884">
        <ele>221</ele>
        <time>2018-06-25T09:16:21.973Z</time>
      </trkpt>
      <trkpt lat="50.05332" lon="4.39951">
        <ele>224</ele>
        <time>2018-06-25T09:16:22.973Z</time>
      </trkpt>
      <trkpt lat="50.05322" lon="4.40044">
        <ele>231</ele>
        <time>2018-06-25T09:16:23.973Z</time>
      </trkpt>
      <trkpt lat="50.05323" lon="4.40122">
        <ele>237</ele>
        <time>2018-06-25T09:16:24.973Z</time>
      </trkpt>
      <trkpt lat="50.05327" lon="4.40163">
        <ele>239</ele>
        <time>2018-06-25T09:16:25.973Z</time>
      </trkpt>
      <trkpt lat="50.05335" lon="4.40195">
        <ele>239</ele>
        <time>2018-06-25T09:16:26.973Z</time>
      </trkpt>
      <trkpt lat="50.05336" lon="4.40272">
        <ele>242</ele>
        <time>2018-06-25T09:16:27.973Z</time>
      </trkpt>
      <trkpt lat="50.05324" lon="4.40321">
        <ele>246</ele>
        <time>2018-06-25T09:16:28.973Z</time>
      </trkpt>
      <trkpt lat="50.05316" lon="4.40339">
        <ele>247</ele>
        <time>2018-06-25T09:16:29.973Z</time>
      </trkpt>
      <trkpt lat="50.05283" lon="4.40391">
        <ele>249</ele>
        <time>2018-06-25T09:16:30.973Z</time>
      </trkpt>
      <trkpt lat="50.05253" lon="4.4045">
        <ele>248</ele>
        <time>2018-06-25T09:16:31.973Z</time>
      </trkpt>
      <trkpt lat="50.05201" lon="4.407">
        <ele>241</ele>
        <time>2018-06-25T09:16:32.973Z</time>
      </trkpt>
      <trkpt lat="50.05195" lon="4.40719">
        <ele>241</ele>
        <time>2018-06-25T09:16:33.973Z</time>
      </trkpt>
      <trkpt lat="50.05172" lon="4.4075">
        <ele>242</ele>
        <time>2018-06-25T09:16:34.973Z</time>
      </trkpt>
      <trkpt lat="50.05131" lon="4.40872">
        <ele>244</ele>
        <time>2018-06-25T09:16:35.973Z</time>
      </trkpt>
      <trkpt lat="50.05136" lon="4.40998">
        <ele>242</ele>
        <time>2018-06-25T09:16:36.973Z</time>
      </trkpt>
      <trkpt lat="50.05136" lon="4.41038">
        <ele>242</ele>
        <time>2018-06-25T09:16:37.973Z</time>
      </trkpt>
      <trkpt lat="50.05133" lon="4.41066">
        <ele>241</ele>
        <time>2018-06-25T09:16:38.973Z</time>
      </trkpt>
      <trkpt lat="50.05082" lon="4.41066">
        <ele>243</ele>
        <time>2018-06-25T09:16:39.973Z</time>
      </trkpt>
      <trkpt lat="50.05021" lon="4.41075">
        <ele>242</ele>
        <time>2018-06-25T09:16:40.973Z</time>
      </trkpt>
      <trkpt lat="50.04994" lon="4.41089">
        <ele>241</ele>
        <time>2018-06-25T09:16:41.973Z</time>
      </trkpt>
      <trkpt lat="50.0471" lon="4.41348">
        <ele>251</ele>
        <time>2018-06-25T09:16:42.973Z</time>
      </trkpt>
      <trkpt lat="50.04492" lon="4.41475">
        <ele>249</ele>
        <time>2018-06-25T09:16:43.973Z</time>
      </trkpt>
      <trkpt lat="50.04284" lon="4.41618">
        <ele>248</ele>
        <time>2018-06-25T09:16:44.973Z</time>
      </trkpt>
      <trkpt lat="50.041" lon="4.41691">
        <ele>245</ele>
        <time>2018-06-25T09:16:45.973Z</time>
      </trkpt>
      <trkpt lat="50.03971" lon="4.4176">
        <ele>242</ele>
        <time>2018-06-25T09:16:46.973Z</time>
      </trkpt>
      <trkpt lat="50.03944" lon="4.41796">
        <ele>241</ele>
        <time>2018-06-25T09:16:47.973Z</time>
      </trkpt>
      <trkpt lat="50.0392" lon="4.41874">
        <ele>240</ele>
        <time>2018-06-25T09:16:48.973Z</time>
      </trkpt>
      <trkpt lat="50.03882" lon="4.41939">
        <ele>239</ele>
        <time>2018-06-25T09:16:49.973Z</time>
      </trkpt>
      <trkpt lat="50.0388" lon="4.41817">
        <ele>241</ele>
        <time>2018-06-25T09:16:50.973Z</time>
      </trkpt>
      <trkpt lat="50.0387" lon="4.41692">
        <ele>240</ele>
        <time>2018-06-25T09:16:51.973Z</time>
      </trkpt>
      <trkpt lat="50.03853" lon="4.41569">
        <ele>243</ele>
        <time>2018-06-25T09:16:52.973Z</time>
      </trkpt>
      <trkpt lat="50.03835" lon="4.41462">
        <ele>246</ele>
        <time>2018-06-25T09:16:53.973Z</time>
      </trkpt>
      <trkpt lat="50.03818" lon="4.41236">
        <ele>248</ele>
        <time>2018-06-25T09:16:54.973Z</time>
      </trkpt>
      <trkpt lat="50.03819" lon="4.41237">
        <ele>248</ele>
        <time>2018-06-25T09:16:55.973Z</time>
      </trkpt>
      <trkpt lat="50.03814" lon="4.41178">
        <ele>248</ele>
        <time>2018-06-25T09:16:56.973Z</time>
      </trkpt>
      <trkpt lat="50.03803" lon="4.41141">
        <ele>249</ele>
        <time>2018-06-25T09:16:57.973Z</time>
      </trkpt>
      <trkpt lat="50.03778" lon="4.41017">
        <ele>251</ele>
        <time>2018-06-25T09:16:58.973Z</time>
      </trkpt>
      <trkpt lat="50.03754" lon="4.40925">
        <ele>253</ele>
        <time>2018-06-25T09:16:59.973Z</time>
      </trkpt>
      <trkpt lat="50.0373" lon="4.40867">
        <ele>255</ele>
        <time>2018-06-25T09:17:00.973Z</time>
      </trkpt>
      <trkpt lat="50.03709" lon="4.40848">
        <ele>257</ele>
        <time>2018-06-25T09:17:01.973Z</time>
      </trkpt>
      <trkpt lat="50.03657" lon="4.40837">
        <ele>258</ele>
        <time>2018-06-25T09:17:02.973Z</time>
      </trkpt>
      <trkpt lat="50.03624" lon="4.40839">
        <ele>260</ele>
        <time>2018-06-25T09:17:03.973Z</time>
      </trkpt>
      <trkpt lat="50.03591" lon="4.40852">
        <ele>262</ele>
        <time>2018-06-25T09:17:04.973Z</time>
      </trkpt>
      <trkpt lat="50.03572" lon="4.40855">
        <ele>262</ele>
        <time>2018-06-25T09:17:05.973Z</time>
      </trkpt>
      <trkpt lat="50.03514" lon="4.40855">
        <ele>265</ele>
        <time>2018-06-25T09:17:06.973Z</time>
      </trkpt>
      <trkpt lat="50.03485" lon="4.40868">
        <ele>267</ele>
        <time>2018-06-25T09:17:07.973Z</time>
      </trkpt>
      <trkpt lat="50.03451" lon="4.40889">
        <ele>269</ele>
        <time>2018-06-25T09:17:08.973Z</time>
      </trkpt>
      <trkpt lat="50.03382" lon="4.40952">
        <ele>273</ele>
        <time>2018-06-25T09:17:09.973Z</time>
      </trkpt>
      <trkpt lat="50.03351" lon="4.40964">
        <ele>275</ele>
        <time>2018-06-25T09:17:10.973Z</time>
      </trkpt>
      <trkpt lat="50.03313" lon="4.4095">
        <ele>276</ele>
        <time>2018-06-25T09:17:11.973Z</time>
      </trkpt>
      <trkpt lat="50.03289" lon="4.40946">
        <ele>277</ele>
        <time>2018-06-25T09:17:12.973Z</time>
      </trkpt>
      <trkpt lat="50.03289" lon="4.40946">
        <ele>277</ele>
        <time>2018-06-25T09:17:13.973Z</time>
      </trkpt>
      <trkpt lat="50.0323" lon="4.40961">
        <ele>281</ele>
        <time>2018-06-25T09:17:14.973Z</time>
      </trkpt>
      <trkpt lat="50.03143" lon="4.41013">
        <ele>288</ele>
        <time>2018-06-25T09:17:15.973Z</time>
      </trkpt>
      <trkpt lat="50.03104" lon="4.41025">
        <ele>290</ele>
        <time>2018-06-25T09:17:16.973Z</time>
      </trkpt>
      <trkpt lat="50.0303" lon="4.41025">
        <ele>292</ele>
        <time>2018-06-25T09:17:17.973Z</time>
      </trkpt>
      <trkpt lat="50.03006" lon="4.41023">
        <ele>292</ele>
        <time>2018-06-25T09:17:18.973Z</time>
      </trkpt>
      <trkpt lat="50.02934" lon="4.40999">
        <ele>294</ele>
        <time>2018-06-25T09:17:19.973Z</time>
      </trkpt>
      <trkpt lat="50.02927" lon="4.40992">
        <ele>294</ele>
        <time>2018-06-25T09:17:20.973Z</time>
      </trkpt>
      <trkpt lat="50.02857" lon="4.40982">
        <ele>297</ele>
        <time>2018-06-25T09:17:21.973Z</time>
      </trkpt>
      <trkpt lat="50.0279" lon="4.40989">
        <ele>303</ele>
        <time>2018-06-25T09:17:22.973Z</time>
      </trkpt>
      <trkpt lat="50.02726" lon="4.41017">
        <ele>307</ele>
        <time>2018-06-25T09:17:23.973Z</time>
      </trkpt>
      <trkpt lat="50.02376" lon="4.41109">
        <ele>314</ele>
        <time>2018-06-25T09:17:24.973Z</time>
      </trkpt>
      <trkpt lat="50.02319" lon="4.41128">
        <ele>314</ele>
        <time>2018-06-25T09:17:25.973Z</time>
      </trkpt>
      <trkpt lat="50.02153" lon="4.41186">
        <ele>315</ele>
        <time>2018-06-25T09:17:26.973Z</time>
      </trkpt>
      <trkpt lat="50.01823" lon="4.41322">
        <ele>330</ele>
        <time>2018-06-25T09:17:27.973Z</time>
      </trkpt>
      <trkpt lat="50.01803" lon="4.41355">
        <ele>331</ele>
        <time>2018-06-25T09:17:28.973Z</time>
      </trkpt>
      <trkpt lat="50.01787" lon="4.41407">
        <ele>332</ele>
        <time>2018-06-25T09:17:29.973Z</time>
      </trkpt>
      <trkpt lat="50.01755" lon="4.41522">
        <ele>334</ele>
        <time>2018-06-25T09:17:30.973Z</time>
      </trkpt>
      <trkpt lat="50.01733" lon="4.41564">
        <ele>334</ele>
        <time>2018-06-25T09:17:31.973Z</time>
      </trkpt>
      <trkpt lat="50.01685" lon="4.4163">
        <ele>335</ele>
        <time>2018-06-25T09:17:32.973Z</time>
      </trkpt>
      <trkpt lat="50.01617" lon="4.41728">
        <ele>336</ele>
        <time>2018-06-25T09:17:33.973Z</time>
      </trkpt>
      <trkpt lat="50.0159" lon="4.41839">
        <ele>337</ele>
        <time>2018-06-25T09:17:34.973Z</time>
      </trkpt>
      <trkpt lat="50.01587" lon="4.41878">
        <ele>337</ele>
        <time>2018-06-25T09:17:35.973Z</time>
      </trkpt>
      <trkpt lat="50.01283" lon="4.41479">
        <ele>331</ele>
        <time>2018-06-25T09:17:36.973Z</time>
      </trkpt>
      <trkpt lat="50.01237" lon="4.41502">
        <ele>330</ele>
        <time>2018-06-25T09:17:37.973Z</time>
      </trkpt>
      <trkpt lat="50.01237" lon="4.41503">
        <ele>330</ele>
        <time>2018-06-25T09:17:38.973Z</time>
      </trkpt>
      <trkpt lat="50.01132" lon="4.41545">
        <ele>330</ele>
        <time>2018-06-25T09:17:39.973Z</time>
      </trkpt>
      <trkpt lat="50.01048" lon="4.41531">
        <ele>328</ele>
        <time>2018-06-25T09:17:40.973Z</time>
      </trkpt>
      <trkpt lat="50.00971" lon="4.41543">
        <ele>327</ele>
        <time>2018-06-25T09:17:41.973Z</time>
      </trkpt>
      <trkpt lat="50.00855" lon="4.41589">
        <ele>322</ele>
        <time>2018-06-25T09:17:42.973Z</time>
      </trkpt>
      <trkpt lat="50.00808" lon="4.416">
        <ele>318</ele>
        <time>2018-06-25T09:17:43.973Z</time>
      </trkpt>
      <trkpt lat="50.00767" lon="4.41577">
        <ele>313</ele>
        <time>2018-06-25T09:17:44.973Z</time>
      </trkpt>
      <trkpt lat="50.0076" lon="4.41553">
        <ele>311</ele>
        <time>2018-06-25T09:17:45.973Z</time>
      </trkpt>
      <trkpt lat="50.00586" lon="4.41487">
        <ele>281</ele>
        <time>2018-06-25T09:17:46.973Z</time>
      </trkpt>
      <trkpt lat="50.00494" lon="4.41462">
        <ele>263</ele>
        <time>2018-06-25T09:17:47.973Z</time>
      </trkpt>
      <trkpt lat="50.00478" lon="4.41465">
        <ele>262</ele>
        <time>2018-06-25T09:17:48.973Z</time>
      </trkpt>
      <trkpt lat="50.00472" lon="4.41478">
        <ele>262</ele>
        <time>2018-06-25T09:17:49.973Z</time>
      </trkpt>
      <trkpt lat="50.00458" lon="4.41551">
        <ele>261</ele>
        <time>2018-06-25T09:17:50.973Z</time>
      </trkpt>
      <trkpt lat="50.00443" lon="4.41547">
        <ele>260</ele>
        <time>2018-06-25T09:17:51.973Z</time>
      </trkpt>
      <trkpt lat="50.00427" lon="4.4154">
        <ele>260</ele>
        <time>2018-06-25T09:17:52.973Z</time>
      </trkpt>
      <trkpt lat="50.00406" lon="4.41537">
        <ele>259</ele>
        <time>2018-06-25T09:17:53.973Z</time>
      </trkpt>
      <trkpt lat="50.00383" lon="4.41515">
        <ele>259</ele>
        <time>2018-06-25T09:17:54.973Z</time>
      </trkpt>
      <trkpt lat="50.00362" lon="4.41529">
        <ele>259</ele>
        <time>2018-06-25T09:17:55.973Z</time>
      </trkpt>
      <trkpt lat="50.00338" lon="4.41555">
        <ele>257</ele>
        <time>2018-06-25T09:17:56.973Z</time>
      </trkpt>
      <trkpt lat="50.00293" lon="4.41562">
        <ele>256</ele>
        <time>2018-06-25T09:17:57.973Z</time>
      </trkpt>
      <trkpt lat="50.0027" lon="4.41556">
        <ele>256</ele>
        <time>2018-06-25T09:17:58.973Z</time>
      </trkpt>
      <trkpt lat="50.0025" lon="4.41547">
        <ele>258</ele>
        <time>2018-06-25T09:17:59.973Z</time>
      </trkpt>
      <trkpt lat="50.00159" lon="4.41539">
        <ele>260</ele>
        <time>2018-06-25T09:18:00.973Z</time>
      </trkpt>
      <trkpt lat="50.00142" lon="4.4155">
        <ele>259</ele>
        <time>2018-06-25T09:18:01.973Z</time>
      </trkpt>
      <trkpt lat="50.00123" lon="4.41569">
        <ele>256</ele>
        <time>2018-06-25T09:18:02.973Z</time>
      </trkpt>
      <trkpt lat="50.00102" lon="4.41622">
        <ele>253</ele>
        <time>2018-06-25T09:18:03.973Z</time>
      </trkpt>
      <trkpt lat="50.0006" lon="4.41785">
        <ele>252</ele>
        <time>2018-06-25T09:18:04.973Z</time>
      </trkpt>
      <trkpt lat="50.00059" lon="4.41898">
        <ele>252</ele>
        <time>2018-06-25T09:18:05.973Z</time>
      </trkpt>
      <trkpt lat="50.00043" lon="4.41947">
        <ele>257</ele>
        <time>2018-06-25T09:18:06.973Z</time>
      </trkpt>
      <trkpt lat="50.00048" lon="4.41957">
        <ele>257</ele>
        <time>2018-06-25T09:18:07.973Z</time>
      </trkpt>
      <trkpt lat="50.00106" lon="4.42055">
        <ele>258</ele>
        <time>2018-06-25T09:18:08.973Z</time>
      </trkpt>
      <trkpt lat="50.00225" lon="4.4218">
        <ele>254</ele>
        <time>2018-06-25T09:18:09.973Z</time>
      </trkpt>
      <trkpt lat="50.00278" lon="4.42283">
        <ele>255</ele>
        <time>2018-06-25T09:18:10.973Z</time>
      </trkpt>
      <trkpt lat="50.00307" lon="4.42369">
        <ele>254</ele>
        <time>2018-06-25T09:18:11.973Z</time>
      </trkpt>
      <trkpt lat="50.00371" lon="4.42617">
        <ele>249</ele>
        <time>2018-06-25T09:18:12.973Z</time>
      </trkpt>
      <trkpt lat="50.00396" lon="4.42677">
        <ele>247</ele>
        <time>2018-06-25T09:18:13.973Z</time>
      </trkpt>
      <trkpt lat="50.00362" lon="4.42763">
        <ele>250</ele>
        <time>2018-06-25T09:18:14.973Z</time>
      </trkpt>
      <trkpt lat="50.00265" lon="4.4284">
        <ele>258</ele>
        <time>2018-06-25T09:18:15.973Z</time>
      </trkpt>
      <trkpt lat="50.00045" lon="4.43173">
        <ele>274</ele>
        <time>2018-06-25T09:18:16.973Z</time>
      </trkpt>
      <trkpt lat="50.00021" lon="4.43208">
        <ele>278</ele>
        <time>2018-06-25T09:18:17.973Z</time>
      </trkpt>
      <trkpt lat="49.99994" lon="4.4322">
        <ele>281</ele>
        <time>2018-06-25T09:18:18.973Z</time>
      </trkpt>
      <trkpt lat="49.99775" lon="4.432">
        <ele>289</ele>
        <time>2018-06-25T09:18:19.973Z</time>
      </trkpt>
      <trkpt lat="49.99731" lon="4.43224">
        <ele>293</ele>
        <time>2018-06-25T09:18:20.973Z</time>
      </trkpt>
      <trkpt lat="49.99685" lon="4.43412">
        <ele>299</ele>
        <time>2018-06-25T09:18:21.973Z</time>
      </trkpt>
      <trkpt lat="49.99657" lon="4.43673">
        <ele>307</ele>
        <time>2018-06-25T09:18:22.973Z</time>
      </trkpt>
      <trkpt lat="49.99585" lon="4.43875">
        <ele>309</ele>
        <time>2018-06-25T09:18:23.973Z</time>
      </trkpt>
      <trkpt lat="49.99566" lon="4.44271">
        <ele>315</ele>
        <time>2018-06-25T09:18:24.973Z</time>
      </trkpt>
      <trkpt lat="49.99492" lon="4.44569">
        <ele>318</ele>
        <time>2018-06-25T09:18:25.973Z</time>
      </trkpt>
      <trkpt lat="49.9938" lon="4.4471">
        <ele>325</ele>
        <time>2018-06-25T09:18:26.973Z</time>
      </trkpt>
      <trkpt lat="49.99283" lon="4.44864">
        <ele>329</ele>
        <time>2018-06-25T09:18:27.973Z</time>
      </trkpt>
      <trkpt lat="49.99147" lon="4.44975">
        <ele>333</ele>
        <time>2018-06-25T09:18:28.973Z</time>
      </trkpt>
      <trkpt lat="49.99111" lon="4.44999">
        <ele>338</ele>
        <time>2018-06-25T09:18:29.973Z</time>
      </trkpt>
      <trkpt lat="49.98713" lon="4.4512">
        <ele>350</ele>
        <time>2018-06-25T09:18:30.973Z</time>
      </trkpt>
      <trkpt lat="49.98662" lon="4.45142">
        <ele>347</ele>
        <time>2018-06-25T09:18:31.973Z</time>
      </trkpt>
      <trkpt lat="49.98515" lon="4.45295">
        <ele>340</ele>
        <time>2018-06-25T09:18:32.973Z</time>
      </trkpt>
      <trkpt lat="49.98347" lon="4.45461">
        <ele>343</ele>
        <time>2018-06-25T09:18:33.973Z</time>
      </trkpt>
      <trkpt lat="49.98266" lon="4.45509">
        <ele>343</ele>
        <time>2018-06-25T09:18:34.973Z</time>
      </trkpt>
      <trkpt lat="49.98198" lon="4.45558">
        <ele>341</ele>
        <time>2018-06-25T09:18:35.973Z</time>
      </trkpt>
      <trkpt lat="49.98063" lon="4.45747">
        <ele>336</ele>
        <time>2018-06-25T09:18:36.973Z</time>
      </trkpt>
      <trkpt lat="49.98032" lon="4.45781">
        <ele>336</ele>
        <time>2018-06-25T09:18:37.973Z</time>
      </trkpt>
      <trkpt lat="49.98012" lon="4.45777">
        <ele>334</ele>
        <time>2018-06-25T09:18:38.973Z</time>
      </trkpt>
      <trkpt lat="49.97647" lon="4.45599">
        <ele>351</ele>
        <time>2018-06-25T09:18:39.973Z</time>
      </trkpt>
      <trkpt lat="49.974" lon="4.45527">
        <ele>364</ele>
        <time>2018-06-25T09:18:40.973Z</time>
      </trkpt>
      <trkpt lat="49.97381" lon="4.45527">
        <ele>363</ele>
        <time>2018-06-25T09:18:41.973Z</time>
      </trkpt>
      <trkpt lat="49.97333" lon="4.45539">
        <ele>363</ele>
        <time>2018-06-25T09:18:42.973Z</time>
      </trkpt>
      <trkpt lat="49.97333" lon="4.4554">
        <ele>363</ele>
        <time>2018-06-25T09:18:43.973Z</time>
      </trkpt>
      <trkpt lat="49.97233" lon="4.45567">
        <ele>364</ele>
        <time>2018-06-25T09:18:44.973Z</time>
      </trkpt>
      <trkpt lat="49.97093" lon="4.45503">
        <ele>365</ele>
        <time>2018-06-25T09:18:45.973Z</time>
      </trkpt>
      <trkpt lat="49.9688" lon="4.45474">
        <ele>361</ele>
        <time>2018-06-25T09:18:46.973Z</time>
      </trkpt>
      <trkpt lat="49.96768" lon="4.45413">
        <ele>361</ele>
        <time>2018-06-25T09:18:47.973Z</time>
      </trkpt>
      <trkpt lat="49.96704" lon="4.45426">
        <ele>362</ele>
        <time>2018-06-25T09:18:48.973Z</time>
      </trkpt>
      <trkpt lat="49.96673" lon="4.45424">
        <ele>362</ele>
        <time>2018-06-25T09:18:49.973Z</time>
      </trkpt>
      <trkpt lat="49.96578" lon="4.45478">
        <ele>365</ele>
        <time>2018-06-25T09:18:50.973Z</time>
      </trkpt>
      <trkpt lat="49.96469" lon="4.45488">
        <ele>367</ele>
        <time>2018-06-25T09:18:51.973Z</time>
      </trkpt>
      <trkpt lat="49.96469" lon="4.45488">
        <ele>367</ele>
        <time>2018-06-25T09:18:52.973Z</time>
      </trkpt>
      <trkpt lat="49.96438" lon="4.45489">
        <ele>366</ele>
        <time>2018-06-25T09:18:53.973Z</time>
      </trkpt>
      <trkpt lat="49.96353" lon="4.4548">
        <ele>365</ele>
        <time>2018-06-25T09:18:54.973Z</time>
      </trkpt>
      <trkpt lat="49.96282" lon="4.45482">
        <ele>364</ele>
        <time>2018-06-25T09:18:55.973Z</time>
      </trkpt>
      <trkpt lat="49.96257" lon="4.45526">
        <ele>362</ele>
        <time>2018-06-25T09:18:56.973Z</time>
      </trkpt>
      <trkpt lat="49.96242" lon="4.45502">
        <ele>363</ele>
        <time>2018-06-25T09:18:57.973Z</time>
      </trkpt>
      <trkpt lat="49.96203" lon="4.45471">
        <ele>363</ele>
        <time>2018-06-25T09:18:58.973Z</time>
      </trkpt>
      <trkpt lat="49.96161" lon="4.45543">
        <ele>362</ele>
        <time>2018-06-25T09:18:59.973Z</time>
      </trkpt>
      <trkpt lat="49.96152" lon="4.45551">
        <ele>362</ele>
        <time>2018-06-25T09:19:00.973Z</time>
      </trkpt>
      <trkpt lat="49.96152" lon="4.45551">
        <ele>362</ele>
        <time>2018-06-25T09:19:01.973Z</time>
      </trkpt>
      <trkpt lat="49.9607" lon="4.45627">
        <ele>357</ele>
        <time>2018-06-25T09:19:02.973Z</time>
      </trkpt>
      <trkpt lat="49.95807" lon="4.45799">
        <ele>345</ele>
        <time>2018-06-25T09:19:03.973Z</time>
      </trkpt>
      <trkpt lat="49.95807" lon="4.45799">
        <ele>345</ele>
        <time>2018-06-25T09:19:04.973Z</time>
      </trkpt>
      <trkpt lat="49.95804" lon="4.45801">
        <ele>345</ele>
        <time>2018-06-25T09:19:05.973Z</time>
      </trkpt>
      <trkpt lat="49.95794" lon="4.45844">
        <ele>345</ele>
        <time>2018-06-25T09:19:06.973Z</time>
      </trkpt>
      <trkpt lat="49.95773" lon="4.45862">
        <ele>343</ele>
        <time>2018-06-25T09:19:07.973Z</time>
      </trkpt>
      <trkpt lat="49.95746" lon="4.45984">
        <ele>342</ele>
        <time>2018-06-25T09:19:08.973Z</time>
      </trkpt>
      <trkpt lat="49.95703" lon="4.46136">
        <ele>343</ele>
        <time>2018-06-25T09:19:09.973Z</time>
      </trkpt>
      <trkpt lat="49.95627" lon="4.463">
        <ele>346</ele>
        <time>2018-06-25T09:19:10.973Z</time>
      </trkpt>
      <trkpt lat="49.95393" lon="4.46577">
        <ele>355</ele>
        <time>2018-06-25T09:19:11.973Z</time>
      </trkpt>
      <trkpt lat="49.95369" lon="4.46702">
        <ele>354</ele>
        <time>2018-06-25T09:19:12.973Z</time>
      </trkpt>
      <trkpt lat="49.95017" lon="4.4667">
        <ele>333</ele>
        <time>2018-06-25T09:19:13.973Z</time>
      </trkpt>
      <trkpt lat="49.94971" lon="4.46869">
        <ele>335</ele>
        <time>2018-06-25T09:19:14.973Z</time>
      </trkpt>
      <trkpt lat="49.94961" lon="4.47089">
        <ele>333</ele>
        <time>2018-06-25T09:19:15.973Z</time>
      </trkpt>
      <trkpt lat="49.94928" lon="4.47552">
        <ele>335</ele>
        <time>2018-06-25T09:19:16.973Z</time>
      </trkpt>
      <trkpt lat="49.94814" lon="4.4756">
        <ele>337</ele>
        <time>2018-06-25T09:19:17.973Z</time>
      </trkpt>
      <trkpt lat="49.94766" lon="4.47691">
        <ele>340</ele>
        <time>2018-06-25T09:19:18.973Z</time>
      </trkpt>
      <trkpt lat="49.94717" lon="4.4778">
        <ele>343</ele>
        <time>2018-06-25T09:19:19.973Z</time>
      </trkpt>
      <trkpt lat="49.94717" lon="4.47781">
        <ele>343</ele>
        <time>2018-06-25T09:19:20.973Z</time>
      </trkpt>
      <trkpt lat="49.94715" lon="4.47777">
        <ele>343</ele>
        <time>2018-06-25T09:19:21.973Z</time>
      </trkpt>
      <trkpt lat="49.94699" lon="4.47797">
        <ele>343</ele>
        <time>2018-06-25T09:19:22.973Z</time>
      </trkpt>
      <trkpt lat="49.9463" lon="4.47889">
        <ele>344</ele>
        <time>2018-06-25T09:19:23.973Z</time>
      </trkpt>
      <trkpt lat="49.9463" lon="4.47889">
        <ele>344</ele>
        <time>2018-06-25T09:19:24.973Z</time>
      </trkpt>
      <trkpt lat="49.94533" lon="4.48017">
        <ele>347</ele>
        <time>2018-06-25T09:19:25.973Z</time>
      </trkpt>
      <trkpt lat="49.94309" lon="4.48307">
        <ele>352</ele>
        <time>2018-06-25T09:19:26.973Z</time>
      </trkpt>
      <trkpt lat="49.94296" lon="4.48331">
        <ele>352</ele>
        <time>2018-06-25T09:19:27.973Z</time>
      </trkpt>
      <trkpt lat="49.94252" lon="4.4843">
        <ele>353</ele>
        <time>2018-06-25T09:19:28.973Z</time>
      </trkpt>
      <trkpt lat="49.94154" lon="4.48658">
        <ele>357</ele>
        <time>2018-06-25T09:19:29.973Z</time>
      </trkpt>
      <trkpt lat="49.94121" lon="4.4874">
        <ele>358</ele>
        <time>2018-06-25T09:19:30.973Z</time>
      </trkpt>
      <trkpt lat="49.9409" lon="4.48803">
        <ele>359</ele>
        <time>2018-06-25T09:19:31.973Z</time>
      </trkpt>
      <trkpt lat="49.94079" lon="4.48831">
        <ele>359</ele>
        <time>2018-06-25T09:19:32.973Z</time>
      </trkpt>
      <trkpt lat="49.94056" lon="4.48908">
        <ele>360</ele>
        <time>2018-06-25T09:19:33.973Z</time>
      </trkpt>
      <trkpt lat="49.94044" lon="4.48938">
        <ele>360</ele>
        <time>2018-06-25T09:19:34.973Z</time>
      </trkpt>
      <trkpt lat="49.94034" lon="4.48959">
        <ele>360</ele>
        <time>2018-06-25T09:19:35.973Z</time>
      </trkpt>
      <trkpt lat="49.94008" lon="4.48996">
        <ele>360</ele>
        <time>2018-06-25T09:19:36.973Z</time>
      </trkpt>
      <trkpt lat="49.93974" lon="4.49029">
        <ele>360</ele>
        <time>2018-06-25T09:19:37.973Z</time>
      </trkpt>
      <trkpt lat="49.93959" lon="4.4905">
        <ele>361</ele>
        <time>2018-06-25T09:19:38.973Z</time>
      </trkpt>
      <trkpt lat="49.93849" lon="4.49235">
        <ele>363</ele>
        <time>2018-06-25T09:19:39.973Z</time>
      </trkpt>
      <trkpt lat="49.93833" lon="4.49265">
        <ele>363</ele>
        <time>2018-06-25T09:19:40.973Z</time>
      </trkpt>
      <trkpt lat="49.93816" lon="4.49302">
        <ele>364</ele>
        <time>2018-06-25T09:19:41.973Z</time>
      </trkpt>
      <trkpt lat="49.93794" lon="4.49355">
        <ele>365</ele>
        <time>2018-06-25T09:19:42.973Z</time>
      </trkpt>
      <trkpt lat="49.93756" lon="4.49461">
        <ele>368</ele>
        <time>2018-06-25T09:19:43.973Z</time>
      </trkpt>
      <trkpt lat="49.93674" lon="4.49706">
        <ele>373</ele>
        <time>2018-06-25T09:19:44.973Z</time>
      </trkpt>
      <trkpt lat="49.93666" lon="4.49737">
        <ele>374</ele>
        <time>2018-06-25T09:19:45.973Z</time>
      </trkpt>
      <trkpt lat="49.93658" lon="4.49786">
        <ele>375</ele>
        <time>2018-06-25T09:19:46.973Z</time>
      </trkpt>
      <trkpt lat="49.93654" lon="4.49834">
        <ele>375</ele>
        <time>2018-06-25T09:19:47.973Z</time>
      </trkpt>
      <trkpt lat="49.93653" lon="4.49869">
        <ele>376</ele>
        <time>2018-06-25T09:19:48.973Z</time>
      </trkpt>
      <trkpt lat="49.93657" lon="4.49897">
        <ele>376</ele>
        <time>2018-06-25T09:19:49.973Z</time>
      </trkpt>
      <trkpt lat="49.93658" lon="4.49924">
        <ele>376</ele>
        <time>2018-06-25T09:19:50.973Z</time>
      </trkpt>
      <trkpt lat="49.93655" lon="4.50026">
        <ele>376</ele>
        <time>2018-06-25T09:19:51.973Z</time>
      </trkpt>
      <trkpt lat="49.93654" lon="4.50143">
        <ele>376</ele>
        <time>2018-06-25T09:19:52.973Z</time>
      </trkpt>
      <trkpt lat="49.93656" lon="4.5029">
        <ele>379</ele>
        <time>2018-06-25T09:19:53.973Z</time>
      </trkpt>
      <trkpt lat="49.93659" lon="4.50317">
        <ele>379</ele>
        <time>2018-06-25T09:19:54.973Z</time>
      </trkpt>
      <trkpt lat="49.93665" lon="4.50345">
        <ele>379</ele>
        <time>2018-06-25T09:19:55.973Z</time>
      </trkpt>
      <trkpt lat="49.93701" lon="4.50464">
        <ele>379</ele>
        <time>2018-06-25T09:19:56.973Z</time>
      </trkpt>
      <trkpt lat="49.93736" lon="4.50645">
        <ele>379</ele>
        <time>2018-06-25T09:19:57.973Z</time>
      </trkpt>
      <trkpt lat="49.93739" lon="4.5068">
        <ele>379</ele>
        <time>2018-06-25T09:19:58.973Z</time>
      </trkpt>
      <trkpt lat="49.9374" lon="4.50714">
        <ele>378</ele>
        <time>2018-06-25T09:19:59.973Z</time>
      </trkpt>
      <trkpt lat="49.93739" lon="4.50729">
        <ele>378</ele>
        <time>2018-06-25T09:20:00.973Z</time>
      </trkpt>
      <trkpt lat="49.93735" lon="4.50753">
        <ele>378</ele>
        <time>2018-06-25T09:20:01.973Z</time>
      </trkpt>
      <trkpt lat="49.93724" lon="4.50794">
        <ele>378</ele>
        <time>2018-06-25T09:20:02.973Z</time>
      </trkpt>
      <trkpt lat="49.9372" lon="4.50822">
        <ele>378</ele>
        <time>2018-06-25T09:20:03.973Z</time>
      </trkpt>
      <trkpt lat="49.93698" lon="4.50969">
        <ele>378</ele>
        <time>2018-06-25T09:20:04.973Z</time>
      </trkpt>
      <trkpt lat="49.93638" lon="4.51351">
        <ele>378</ele>
        <time>2018-06-25T09:20:05.973Z</time>
      </trkpt>
      <trkpt lat="49.9361" lon="4.51506">
        <ele>379</ele>
        <time>2018-06-25T09:20:06.973Z</time>
      </trkpt>
      <trkpt lat="49.936" lon="4.51578">
        <ele>379</ele>
        <time>2018-06-25T09:20:07.973Z</time>
      </trkpt>
      <trkpt lat="49.93579" lon="4.51764">
        <ele>377</ele>
        <time>2018-06-25T09:20:08.973Z</time>
      </trkpt>
      <trkpt lat="49.93579" lon="4.5178">
        <ele>377</ele>
        <time>2018-06-25T09:20:09.973Z</time>
      </trkpt>
      <trkpt lat="49.93521" lon="4.51804">
        <ele>379</ele>
        <time>2018-06-25T09:20:10.973Z</time>
      </trkpt>
      <trkpt lat="49.93498" lon="4.51804">
        <ele>379</ele>
        <time>2018-06-25T09:20:11.973Z</time>
      </trkpt>
      <trkpt lat="49.93428" lon="4.51765">
        <ele>382</ele>
        <time>2018-06-25T09:20:12.973Z</time>
      </trkpt>
      <trkpt lat="49.93412" lon="4.51765">
        <ele>383</ele>
        <time>2018-06-25T09:20:13.973Z</time>
      </trkpt>
      <trkpt lat="49.93395" lon="4.51771">
        <ele>382</ele>
        <time>2018-06-25T09:20:14.973Z</time>
      </trkpt>
      <trkpt lat="49.93327" lon="4.5183">
        <ele>382</ele>
        <time>2018-06-25T09:20:15.973Z</time>
      </trkpt>
      <trkpt lat="49.93327" lon="4.5183">
        <ele>382</ele>
        <time>2018-06-25T09:20:16.973Z</time>
      </trkpt>
      <trkpt lat="49.93125" lon="4.52009">
        <ele>384</ele>
        <time>2018-06-25T09:20:17.973Z</time>
      </trkpt>
      <trkpt lat="49.93056" lon="4.52081">
        <ele>385</ele>
        <time>2018-06-25T09:20:18.973Z</time>
      </trkpt>
      <trkpt lat="49.92957" lon="4.52153">
        <ele>384</ele>
        <time>2018-06-25T09:20:19.973Z</time>
      </trkpt>
      <trkpt lat="49.92928" lon="4.52084">
        <ele>383</ele>
        <time>2018-06-25T09:20:20.973Z</time>
      </trkpt>
      <trkpt lat="49.92835" lon="4.5209">
        <ele>383</ele>
        <time>2018-06-25T09:20:21.973Z</time>
      </trkpt>
      <trkpt lat="49.92746" lon="4.52054">
        <ele>381</ele>
        <time>2018-06-25T09:20:22.973Z</time>
      </trkpt>
      <trkpt lat="49.92727" lon="4.52142">
        <ele>383</ele>
        <time>2018-06-25T09:20:23.973Z</time>
      </trkpt>
      <trkpt lat="49.92652" lon="4.52186">
        <ele>384</ele>
        <time>2018-06-25T09:20:24.973Z</time>
      </trkpt>
      <trkpt lat="49.92613" lon="4.52205">
        <ele>385</ele>
        <time>2018-06-25T09:20:25.973Z</time>
      </trkpt>
      <trkpt lat="49.92516" lon="4.52059">
        <ele>387</ele>
        <time>2018-06-25T09:20:26.973Z</time>
      </trkpt>
      <trkpt lat="49.92509" lon="4.52019">
        <ele>387</ele>
        <time>2018-06-25T09:20:27.973Z</time>
      </trkpt>
      <trkpt lat="49.92481" lon="4.52013">
        <ele>387</ele>
        <time>2018-06-25T09:20:28.973Z</time>
      </trkpt>
      <trkpt lat="49.92465" lon="4.52045">
        <ele>386</ele>
        <time>2018-06-25T09:20:29.973Z</time>
      </trkpt>
      <trkpt lat="49.9236" lon="4.52023">
        <ele>385</ele>
        <time>2018-06-25T09:20:30.973Z</time>
      </trkpt>
      <trkpt lat="49.92359" lon="4.52063">
        <ele>385</ele>
        <time>2018-06-25T09:20:31.973Z</time>
      </trkpt>
      <trkpt lat="49.92399" lon="4.52145">
        <ele>384</ele>
        <time>2018-06-25T09:20:32.973Z</time>
      </trkpt>
      <trkpt lat="49.92372" lon="4.5216">
        <ele>384</ele>
        <time>2018-06-25T09:20:33.973Z</time>
      </trkpt>
      <trkpt lat="49.92322" lon="4.52215">
        <ele>383</ele>
        <time>2018-06-25T09:20:34.973Z</time>
      </trkpt>
      <trkpt lat="49.92343" lon="4.52229">
        <ele>383</ele>
        <time>2018-06-25T09:20:35.973Z</time>
      </trkpt>
      <trkpt lat="49.92358" lon="4.52279">
        <ele>382</ele>
        <time>2018-06-25T09:20:36.973Z</time>
      </trkpt>
      <trkpt lat="49.92351" lon="4.52343">
        <ele>382</ele>
        <time>2018-06-25T09:20:37.973Z</time>
      </trkpt>
      <trkpt lat="49.92299" lon="4.52422">
        <ele>380</ele>
        <time>2018-06-25T09:20:38.973Z</time>
      </trkpt>
      <trkpt lat="49.92299" lon="4.52422">
        <ele>380</ele>
        <time>2018-06-25T09:20:39.973Z</time>
      </trkpt>
      <trkpt lat="49.92271" lon="4.52457">
        <ele>379</ele>
        <time>2018-06-25T09:20:40.973Z</time>
      </trkpt>
      <trkpt lat="49.92219" lon="4.52538">
        <ele>376</ele>
        <time>2018-06-25T09:20:41.973Z</time>
      </trkpt>
      <trkpt lat="49.92182" lon="4.52573">
        <ele>375</ele>
        <time>2018-06-25T09:20:42.973Z</time>
      </trkpt>
      <trkpt lat="49.9217" lon="4.52588">
        <ele>374</ele>
        <time>2018-06-25T09:20:43.973Z</time>
      </trkpt>
      <trkpt lat="49.92145" lon="4.52625">
        <ele>375</ele>
        <time>2018-06-25T09:20:44.973Z</time>
      </trkpt>
      <trkpt lat="49.92133" lon="4.52647">
        <ele>375</ele>
        <time>2018-06-25T09:20:45.973Z</time>
      </trkpt>
      <trkpt lat="49.92037" lon="4.52839">
        <ele>377</ele>
        <time>2018-06-25T09:20:46.973Z</time>
      </trkpt>
      <trkpt lat="49.92027" lon="4.52855">
        <ele>377</ele>
        <time>2018-06-25T09:20:47.973Z</time>
      </trkpt>
      <trkpt lat="49.92016" lon="4.52865">
        <ele>377</ele>
        <time>2018-06-25T09:20:48.973Z</time>
      </trkpt>
      <trkpt lat="49.91992" lon="4.52877">
        <ele>377</ele>
        <time>2018-06-25T09:20:49.973Z</time>
      </trkpt>
      <trkpt lat="49.91972" lon="4.52893">
        <ele>377</ele>
        <time>2018-06-25T09:20:50.973Z</time>
      </trkpt>
      <trkpt lat="49.91931" lon="4.52949">
        <ele>377</ele>
        <time>2018-06-25T09:20:51.973Z</time>
      </trkpt>
      <trkpt lat="49.91907" lon="4.52974">
        <ele>378</ele>
        <time>2018-06-25T09:20:52.973Z</time>
      </trkpt>
      <trkpt lat="49.91894" lon="4.52981">
        <ele>379</ele>
        <time>2018-06-25T09:20:53.973Z</time>
      </trkpt>
      <trkpt lat="49.91858" lon="4.52989">
        <ele>379</ele>
        <time>2018-06-25T09:20:54.973Z</time>
      </trkpt>
      <trkpt lat="49.91836" lon="4.53011">
        <ele>380</ele>
        <time>2018-06-25T09:20:55.973Z</time>
      </trkpt>
      <trkpt lat="49.91798" lon="4.53079">
        <ele>379</ele>
        <time>2018-06-25T09:20:56.973Z</time>
      </trkpt>
      <trkpt lat="49.91762" lon="4.53149">
        <ele>378</ele>
        <time>2018-06-25T09:20:57.973Z</time>
      </trkpt>
      <trkpt lat="49.91762" lon="4.5315">
        <ele>378</ele>
        <time>2018-06-25T09:20:58.973Z</time>
      </trkpt>
      <trkpt lat="49.91717" lon="4.53231">
        <ele>376</ele>
        <time>2018-06-25T09:20:59.973Z</time>
      </trkpt>
      <trkpt lat="49.91672" lon="4.53302">
        <ele>376</ele>
        <time>2018-06-25T09:21:00.973Z</time>
      </trkpt>
      <trkpt lat="49.91623" lon="4.53384">
        <ele>374</ele>
        <time>2018-06-25T09:21:01.973Z</time>
      </trkpt>
      <trkpt lat="49.91605" lon="4.53411">
        <ele>374</ele>
        <time>2018-06-25T09:21:02.973Z</time>
      </trkpt>
      <trkpt lat="49.91575" lon="4.53445">
        <ele>373</ele>
        <time>2018-06-25T09:21:03.973Z</time>
      </trkpt>
      <trkpt lat="49.91539" lon="4.53475">
        <ele>371</ele>
        <time>2018-06-25T09:21:04.973Z</time>
      </trkpt>
      <trkpt lat="49.9147" lon="4.53557">
        <ele>368</ele>
        <time>2018-06-25T09:21:05.973Z</time>
      </trkpt>
      <trkpt lat="49.9145" lon="4.53577">
        <ele>368</ele>
        <time>2018-06-25T09:21:06.973Z</time>
      </trkpt>
      <trkpt lat="49.91432" lon="4.53586">
        <ele>367</ele>
        <time>2018-06-25T09:21:07.973Z</time>
      </trkpt>
      <trkpt lat="49.91419" lon="4.53595">
        <ele>367</ele>
        <time>2018-06-25T09:21:08.973Z</time>
      </trkpt>
      <trkpt lat="49.91339" lon="4.53642">
        <ele>360</ele>
        <time>2018-06-25T09:21:09.973Z</time>
      </trkpt>
      <trkpt lat="49.91316" lon="4.53659">
        <ele>357</ele>
        <time>2018-06-25T09:21:10.973Z</time>
      </trkpt>
      <trkpt lat="49.91238" lon="4.53696">
        <ele>350</ele>
        <time>2018-06-25T09:21:11.973Z</time>
      </trkpt>
      <trkpt lat="49.91227" lon="4.53707">
        <ele>348</ele>
        <time>2018-06-25T09:21:12.973Z</time>
      </trkpt>
      <trkpt lat="49.91204" lon="4.53737">
        <ele>346</ele>
        <time>2018-06-25T09:21:13.973Z</time>
      </trkpt>
      <trkpt lat="49.9117" lon="4.53775">
        <ele>341</ele>
        <time>2018-06-25T09:21:14.973Z</time>
      </trkpt>
      <trkpt lat="49.91142" lon="4.53827">
        <ele>336</ele>
        <time>2018-06-25T09:21:15.973Z</time>
      </trkpt>
      <trkpt lat="49.91121" lon="4.53874">
        <ele>333</ele>
        <time>2018-06-25T09:21:16.973Z</time>
      </trkpt>
      <trkpt lat="49.91112" lon="4.53903">
        <ele>331</ele>
        <time>2018-06-25T09:21:17.973Z</time>
      </trkpt>
      <trkpt lat="49.91102" lon="4.5394">
        <ele>328</ele>
        <time>2018-06-25T09:21:18.973Z</time>
      </trkpt>
      <trkpt lat="49.91103" lon="4.5394">
        <ele>328</ele>
        <time>2018-06-25T09:21:19.973Z</time>
      </trkpt>
      <trkpt lat="49.91101" lon="4.53944">
        <ele>328</ele>
        <time>2018-06-25T09:21:20.973Z</time>
      </trkpt>
      <trkpt lat="49.91128" lon="4.5401">
        <ele>326</ele>
        <time>2018-06-25T09:21:21.973Z</time>
      </trkpt>
      <trkpt lat="49.91155" lon="4.54053">
        <ele>327</ele>
        <time>2018-06-25T09:21:22.973Z</time>
      </trkpt>
      <trkpt lat="49.91168" lon="4.54085">
        <ele>327</ele>
        <time>2018-06-25T09:21:23.973Z</time>
      </trkpt>
      <trkpt lat="49.912" lon="4.54188">
        <ele>320</ele>
        <time>2018-06-25T09:21:24.973Z</time>
      </trkpt>
      <trkpt lat="49.91214" lon="4.54224">
        <ele>319</ele>
        <time>2018-06-25T09:21:25.973Z</time>
      </trkpt>
      <trkpt lat="49.91282" lon="4.54289">
        <ele>315</ele>
        <time>2018-06-25T09:21:26.973Z</time>
      </trkpt>
      <trkpt lat="49.91331" lon="4.54323">
        <ele>315</ele>
        <time>2018-06-25T09:21:27.973Z</time>
      </trkpt>
      <trkpt lat="49.91331" lon="4.54323">
        <ele>315</ele>
        <time>2018-06-25T09:21:28.973Z</time>
      </trkpt>
      <trkpt lat="49.91495" lon="4.54436">
        <ele>306</ele>
        <time>2018-06-25T09:21:29.973Z</time>
      </trkpt>
      <trkpt lat="49.9158" lon="4.54632">
        <ele>303</ele>
        <time>2018-06-25T09:21:30.973Z</time>
      </trkpt>
      <trkpt lat="49.91618" lon="4.54654">
        <ele>301</ele>
        <time>2018-06-25T09:21:31.973Z</time>
      </trkpt>
      <trkpt lat="49.91664" lon="4.54701">
        <ele>300</ele>
        <time>2018-06-25T09:21:32.973Z</time>
      </trkpt>
      <trkpt lat="49.91697" lon="4.54783">
        <ele>302</ele>
        <time>2018-06-25T09:21:33.973Z</time>
      </trkpt>
      <trkpt lat="49.91737" lon="4.54833">
        <ele>298</ele>
        <time>2018-06-25T09:21:34.973Z</time>
      </trkpt>
      <trkpt lat="49.91773" lon="4.54901">
        <ele>296</ele>
        <time>2018-06-25T09:21:35.973Z</time>
      </trkpt>
      <trkpt lat="49.91804" lon="4.54906">
        <ele>290</ele>
        <time>2018-06-25T09:21:36.973Z</time>
      </trkpt>
      <trkpt lat="49.91804" lon="4.54929">
        <ele>291</ele>
        <time>2018-06-25T09:21:37.973Z</time>
      </trkpt>
      <trkpt lat="49.91804" lon="4.54929">
        <ele>291</ele>
        <time>2018-06-25T09:21:38.973Z</time>
      </trkpt>
      <trkpt lat="49.91842" lon="4.5528">
        <ele>294</ele>
        <time>2018-06-25T09:21:39.973Z</time>
      </trkpt>
      <trkpt lat="49.91842" lon="4.55279">
        <ele>294</ele>
        <time>2018-06-25T09:21:40.973Z</time>
      </trkpt>
      <trkpt lat="49.91863" lon="4.55467">
        <ele>286</ele>
        <time>2018-06-25T09:21:41.973Z</time>
      </trkpt>
      <trkpt lat="49.91863" lon="4.555">
        <ele>285</ele>
        <time>2018-06-25T09:21:42.973Z</time>
      </trkpt>
      <trkpt lat="49.91859" lon="4.55611">
        <ele>284</ele>
        <time>2018-06-25T09:21:43.973Z</time>
      </trkpt>
      <trkpt lat="49.9186" lon="4.5564">
        <ele>284</ele>
        <time>2018-06-25T09:21:44.973Z</time>
      </trkpt>
      <trkpt lat="49.91866" lon="4.55693">
        <ele>281</ele>
        <time>2018-06-25T09:21:45.973Z</time>
      </trkpt>
      <trkpt lat="49.9188" lon="4.55776">
        <ele>276</ele>
        <time>2018-06-25T09:21:46.973Z</time>
      </trkpt>
      <trkpt lat="49.91883" lon="4.55808">
        <ele>276</ele>
        <time>2018-06-25T09:21:47.973Z</time>
      </trkpt>
      <trkpt lat="49.91886" lon="4.55925">
        <ele>273</ele>
        <time>2018-06-25T09:21:48.973Z</time>
      </trkpt>
      <trkpt lat="49.91888" lon="4.55955">
        <ele>272</ele>
        <time>2018-06-25T09:21:49.973Z</time>
      </trkpt>
      <trkpt lat="49.91901" lon="4.56037">
        <ele>268</ele>
        <time>2018-06-25T09:21:50.973Z</time>
      </trkpt>
      <trkpt lat="49.91923" lon="4.56129">
        <ele>264</ele>
        <time>2018-06-25T09:21:51.973Z</time>
      </trkpt>
      <trkpt lat="49.91993" lon="4.56342">
        <ele>258</ele>
        <time>2018-06-25T09:21:52.973Z</time>
      </trkpt>
      <trkpt lat="49.92013" lon="4.56405">
        <ele>255</ele>
        <time>2018-06-25T09:21:53.973Z</time>
      </trkpt>
      <trkpt lat="49.92019" lon="4.56435">
        <ele>255</ele>
        <time>2018-06-25T09:21:54.973Z</time>
      </trkpt>
      <trkpt lat="49.92028" lon="4.56519">
        <ele>253</ele>
        <time>2018-06-25T09:21:55.973Z</time>
      </trkpt>
      <trkpt lat="49.92008" lon="4.56523">
        <ele>257</ele>
        <time>2018-06-25T09:21:56.973Z</time>
      </trkpt>
      <trkpt lat="49.92001" lon="4.56537">
        <ele>258</ele>
        <time>2018-06-25T09:21:57.973Z</time>
      </trkpt>
      <trkpt lat="49.91965" lon="4.56679">
        <ele>268</ele>
        <time>2018-06-25T09:21:58.973Z</time>
      </trkpt>
      <trkpt lat="49.91965" lon="4.5668">
        <ele>268</ele>
        <time>2018-06-25T09:21:59.973Z</time>
      </trkpt>
      <trkpt lat="49.91921" lon="4.56793">
        <ele>272</ele>
        <time>2018-06-25T09:22:00.973Z</time>
      </trkpt>
      <trkpt lat="49.91847" lon="4.569">
        <ele>280</ele>
        <time>2018-06-25T09:22:01.973Z</time>
      </trkpt>
      <trkpt lat="49.91751" lon="4.57118">
        <ele>295</ele>
        <time>2018-06-25T09:22:02.973Z</time>
      </trkpt>
      <trkpt lat="49.9173" lon="4.57212">
        <ele>299</ele>
        <time>2018-06-25T09:22:03.973Z</time>
      </trkpt>
      <trkpt lat="49.91722" lon="4.57323">
        <ele>303</ele>
        <time>2018-06-25T09:22:04.973Z</time>
      </trkpt>
      <trkpt lat="49.91706" lon="4.57424">
        <ele>307</ele>
        <time>2018-06-25T09:22:05.973Z</time>
      </trkpt>
      <trkpt lat="49.91676" lon="4.57529">
        <ele>312</ele>
        <time>2018-06-25T09:22:06.973Z</time>
      </trkpt>
      <trkpt lat="49.91636" lon="4.57968">
        <ele>332</ele>
        <time>2018-06-25T09:22:07.973Z</time>
      </trkpt>
      <trkpt lat="49.91595" lon="4.57953">
        <ele>334</ele>
        <time>2018-06-25T09:22:08.973Z</time>
      </trkpt>
      <trkpt lat="49.91567" lon="4.57899">
        <ele>334</ele>
        <time>2018-06-25T09:22:09.973Z</time>
      </trkpt>
      <trkpt lat="49.91557" lon="4.57835">
        <ele>335</ele>
        <time>2018-06-25T09:22:10.973Z</time>
      </trkpt>
      <trkpt lat="49.91412" lon="4.57589">
        <ele>349</ele>
        <time>2018-06-25T09:22:11.973Z</time>
      </trkpt>
      <trkpt lat="49.91355" lon="4.57568">
        <ele>354</ele>
        <time>2018-06-25T09:22:12.973Z</time>
      </trkpt>
      <trkpt lat="49.91219" lon="4.57636">
        <ele>347</ele>
        <time>2018-06-25T09:22:13.973Z</time>
      </trkpt>
      <trkpt lat="49.91181" lon="4.5763">
        <ele>346</ele>
        <time>2018-06-25T09:22:14.973Z</time>
      </trkpt>
      <trkpt lat="49.91169" lon="4.57632">
        <ele>345</ele>
        <time>2018-06-25T09:22:15.973Z</time>
      </trkpt>
      <trkpt lat="49.91169" lon="4.57632">
        <ele>345</ele>
        <time>2018-06-25T09:22:16.973Z</time>
      </trkpt>
      <trkpt lat="49.91031" lon="4.57654">
        <ele>336</ele>
        <time>2018-06-25T09:22:17.973Z</time>
      </trkpt>
      <trkpt lat="49.90982" lon="4.57689">
        <ele>328</ele>
        <time>2018-06-25T09:22:18.973Z</time>
      </trkpt>
      <trkpt lat="49.90942" lon="4.57695">
        <ele>328</ele>
        <time>2018-06-25T09:22:19.973Z</time>
      </trkpt>
      <trkpt lat="49.90778" lon="4.57787">
        <ele>309</ele>
        <time>2018-06-25T09:22:20.973Z</time>
      </trkpt>
      <trkpt lat="49.90737" lon="4.57753">
        <ele>316</ele>
        <time>2018-06-25T09:22:21.973Z</time>
      </trkpt>
      <trkpt lat="49.90708" lon="4.57747">
        <ele>320</ele>
        <time>2018-06-25T09:22:22.973Z</time>
      </trkpt>
      <trkpt lat="49.90636" lon="4.57773">
        <ele>324</ele>
        <time>2018-06-25T09:22:23.973Z</time>
      </trkpt>
      <trkpt lat="49.90578" lon="4.5782">
        <ele>324</ele>
        <time>2018-06-25T09:22:24.973Z</time>
      </trkpt>
      <trkpt lat="49.90465" lon="4.5778">
        <ele>338</ele>
        <time>2018-06-25T09:22:25.973Z</time>
      </trkpt>
      <trkpt lat="49.90397" lon="4.577">
        <ele>349</ele>
        <time>2018-06-25T09:22:26.973Z</time>
      </trkpt>
      <trkpt lat="49.90455" lon="4.58842">
        <ele>217</ele>
        <time>2018-06-25T09:22:27.973Z</time>
      </trkpt>
      <trkpt lat="49.90411" lon="4.58846">
        <ele>217</ele>
        <time>2018-06-25T09:22:28.973Z</time>
      </trkpt>
      <trkpt lat="49.90354" lon="4.58792">
        <ele>220</ele>
        <time>2018-06-25T09:22:29.973Z</time>
      </trkpt>
      <trkpt lat="49.90299" lon="4.5876">
        <ele>219</ele>
        <time>2018-06-25T09:22:30.973Z</time>
      </trkpt>
      <trkpt lat="49.90266" lon="4.58704">
        <ele>217</ele>
        <time>2018-06-25T09:22:31.973Z</time>
      </trkpt>
      <trkpt lat="49.90207" lon="4.58634">
        <ele>213</ele>
        <time>2018-06-25T09:22:32.973Z</time>
      </trkpt>
      <trkpt lat="49.90164" lon="4.58619">
        <ele>211</ele>
        <time>2018-06-25T09:22:33.973Z</time>
      </trkpt>
      <trkpt lat="49.90068" lon="4.58623">
        <ele>209</ele>
        <time>2018-06-25T09:22:34.973Z</time>
      </trkpt>
      <trkpt lat="49.89962" lon="4.58599">
        <ele>215</ele>
        <time>2018-06-25T09:22:35.973Z</time>
      </trkpt>
      <trkpt lat="49.90003" lon="4.58685">
        <ele>216</ele>
        <time>2018-06-25T09:22:36.973Z</time>
      </trkpt>
      <trkpt lat="49.89962" lon="4.5878">
        <ele>226</ele>
        <time>2018-06-25T09:22:37.973Z</time>
      </trkpt>
      <trkpt lat="49.89929" lon="4.58904">
        <ele>236</ele>
        <time>2018-06-25T09:22:38.973Z</time>
      </trkpt>
      <trkpt lat="49.89923" lon="4.59095">
        <ele>244</ele>
        <time>2018-06-25T09:22:39.973Z</time>
      </trkpt>
      <trkpt lat="49.89956" lon="4.59303">
        <ele>255</ele>
        <time>2018-06-25T09:22:40.973Z</time>
      </trkpt>
      <trkpt lat="49.89981" lon="4.5955">
        <ele>270</ele>
        <time>2018-06-25T09:22:41.973Z</time>
      </trkpt>
      <trkpt lat="49.89944" lon="4.59713">
        <ele>272</ele>
        <time>2018-06-25T09:22:42.973Z</time>
      </trkpt>
      <trkpt lat="49.89897" lon="4.59904">
        <ele>280</ele>
        <time>2018-06-25T09:22:43.973Z</time>
      </trkpt>
      <trkpt lat="49.89865" lon="4.59996">
        <ele>283</ele>
        <time>2018-06-25T09:22:44.973Z</time>
      </trkpt>
      <trkpt lat="49.89822" lon="4.60108">
        <ele>284</ele>
        <time>2018-06-25T09:22:45.973Z</time>
      </trkpt>
      <trkpt lat="49.8979" lon="4.60217">
        <ele>291</ele>
        <time>2018-06-25T09:22:46.973Z</time>
      </trkpt>
      <trkpt lat="49.89796" lon="4.60327">
        <ele>296</ele>
        <time>2018-06-25T09:22:47.973Z</time>
      </trkpt>
      <trkpt lat="49.89816" lon="4.6045">
        <ele>303</ele>
        <time>2018-06-25T09:22:48.973Z</time>
      </trkpt>
      <trkpt lat="49.89818" lon="4.60734">
        <ele>311</ele>
        <time>2018-06-25T09:22:49.973Z</time>
      </trkpt>
      <trkpt lat="49.89875" lon="4.61018">
        <ele>322</ele>
        <time>2018-06-25T09:22:50.973Z</time>
      </trkpt>
      <trkpt lat="49.89952" lon="4.61288">
        <ele>330</ele>
        <time>2018-06-25T09:22:51.973Z</time>
      </trkpt>
      <trkpt lat="49.8986" lon="4.61309">
        <ele>333</ele>
        <time>2018-06-25T09:22:52.973Z</time>
      </trkpt>
      <trkpt lat="49.89822" lon="4.61554">
        <ele>346</ele>
        <time>2018-06-25T09:22:53.973Z</time>
      </trkpt>
      <trkpt lat="49.89767" lon="4.61882">
        <ele>361</ele>
        <time>2018-06-25T09:22:54.973Z</time>
      </trkpt>
      <trkpt lat="49.89578" lon="4.62081">
        <ele>378</ele>
        <time>2018-06-25T09:22:55.973Z</time>
      </trkpt>
      <trkpt lat="49.89525" lon="4.6224">
        <ele>381</ele>
        <time>2018-06-25T09:22:56.973Z</time>
      </trkpt>
      <trkpt lat="49.89516" lon="4.62383">
        <ele>381</ele>
        <time>2018-06-25T09:22:57.973Z</time>
      </trkpt>
      <trkpt lat="49.89397" lon="4.62558">
        <ele>376</ele>
        <time>2018-06-25T09:22:58.973Z</time>
      </trkpt>
      <trkpt lat="49.88904" lon="4.62678">
        <ele>336</ele>
        <time>2018-06-25T09:22:59.973Z</time>
      </trkpt>
      <trkpt lat="49.88904" lon="4.62694">
        <ele>336</ele>
        <time>2018-06-25T09:23:00.973Z</time>
      </trkpt>
      <trkpt lat="49.88879" lon="4.62694">
        <ele>334</ele>
        <time>2018-06-25T09:23:01.973Z</time>
      </trkpt>
      <trkpt lat="49.88862" lon="4.62685">
        <ele>334</ele>
        <time>2018-06-25T09:23:02.973Z</time>
      </trkpt>
      <trkpt lat="49.88839" lon="4.62681">
        <ele>333</ele>
        <time>2018-06-25T09:23:03.973Z</time>
      </trkpt>
      <trkpt lat="49.88832" lon="4.62671">
        <ele>333</ele>
        <time>2018-06-25T09:23:04.973Z</time>
      </trkpt>
      <trkpt lat="49.88823" lon="4.6268">
        <ele>332</ele>
        <time>2018-06-25T09:23:05.973Z</time>
      </trkpt>
      <trkpt lat="49.88811" lon="4.6268">
        <ele>332</ele>
        <time>2018-06-25T09:23:06.973Z</time>
      </trkpt>
      <trkpt lat="49.88767" lon="4.62667">
        <ele>331</ele>
        <time>2018-06-25T09:23:07.973Z</time>
      </trkpt>
      <trkpt lat="49.88742" lon="4.62709">
        <ele>329</ele>
        <time>2018-06-25T09:23:08.973Z</time>
      </trkpt>
      <trkpt lat="49.88515" lon="4.62882">
        <ele>332</ele>
        <time>2018-06-25T09:23:09.973Z</time>
      </trkpt>
      <trkpt lat="49.88448" lon="4.62874">
        <ele>335</ele>
        <time>2018-06-25T09:23:10.973Z</time>
      </trkpt>
      <trkpt lat="49.8843" lon="4.62816">
        <ele>340</ele>
        <time>2018-06-25T09:23:11.973Z</time>
      </trkpt>
      <trkpt lat="49.8833" lon="4.6283">
        <ele>339</ele>
        <time>2018-06-25T09:23:12.973Z</time>
      </trkpt>
      <trkpt lat="49.88179" lon="4.62335">
        <ele>361</ele>
        <time>2018-06-25T09:23:13.973Z</time>
      </trkpt>
      <trkpt lat="49.88065" lon="4.62368">
        <ele>361</ele>
        <time>2018-06-25T09:23:14.973Z</time>
      </trkpt>
      <trkpt lat="49.87919" lon="4.62367">
        <ele>362</ele>
        <time>2018-06-25T09:23:15.973Z</time>
      </trkpt>
      <trkpt lat="49.87926" lon="4.61872">
        <ele>340</ele>
        <time>2018-06-25T09:23:16.973Z</time>
      </trkpt>
      <trkpt lat="49.87758" lon="4.61859">
        <ele>345</ele>
        <time>2018-06-25T09:23:17.973Z</time>
      </trkpt>
      <trkpt lat="49.87773" lon="4.61288">
        <ele>302</ele>
        <time>2018-06-25T09:23:18.973Z</time>
      </trkpt>
      <trkpt lat="49.87623" lon="4.61234">
        <ele>290</ele>
        <time>2018-06-25T09:23:19.973Z</time>
      </trkpt>
      <trkpt lat="49.87519" lon="4.61271">
        <ele>284</ele>
        <time>2018-06-25T09:23:20.973Z</time>
      </trkpt>
      <trkpt lat="49.87382" lon="4.61211">
        <ele>275</ele>
        <time>2018-06-25T09:23:21.973Z</time>
      </trkpt>
      <trkpt lat="49.87208" lon="4.61133">
        <ele>260</ele>
        <time>2018-06-25T09:23:22.973Z</time>
      </trkpt>
      <trkpt lat="49.87138" lon="4.61106">
        <ele>256</ele>
        <time>2018-06-25T09:23:23.973Z</time>
      </trkpt>
      <trkpt lat="49.87137" lon="4.61116">
        <ele>256</ele>
        <time>2018-06-25T09:23:24.973Z</time>
      </trkpt>
      <trkpt lat="49.87115" lon="4.61078">
        <ele>257</ele>
        <time>2018-06-25T09:23:25.973Z</time>
      </trkpt>
      <trkpt lat="49.87073" lon="4.61055">
        <ele>256</ele>
        <time>2018-06-25T09:23:26.973Z</time>
      </trkpt>
      <trkpt lat="49.87057" lon="4.6108">
        <ele>254</ele>
        <time>2018-06-25T09:23:27.973Z</time>
      </trkpt>
      <trkpt lat="49.87047" lon="4.61141">
        <ele>254</ele>
        <time>2018-06-25T09:23:28.973Z</time>
      </trkpt>
      <trkpt lat="49.87027" lon="4.61237">
        <ele>252</ele>
        <time>2018-06-25T09:23:29.973Z</time>
      </trkpt>
      <trkpt lat="49.86998" lon="4.61282">
        <ele>249</ele>
        <time>2018-06-25T09:23:30.973Z</time>
      </trkpt>
      <trkpt lat="49.86938" lon="4.61399">
        <ele>247</ele>
        <time>2018-06-25T09:23:31.973Z</time>
      </trkpt>
      <trkpt lat="49.86926" lon="4.61469">
        <ele>247</ele>
        <time>2018-06-25T09:23:32.973Z</time>
      </trkpt>
      <trkpt lat="49.86922" lon="4.6156">
        <ele>249</ele>
        <time>2018-06-25T09:23:33.973Z</time>
      </trkpt>
      <trkpt lat="49.86886" lon="4.61693">
        <ele>249</ele>
        <time>2018-06-25T09:23:34.973Z</time>
      </trkpt>
      <trkpt lat="49.86853" lon="4.61869">
        <ele>252</ele>
        <time>2018-06-25T09:23:35.973Z</time>
      </trkpt>
      <trkpt lat="49.8685" lon="4.61955">
        <ele>253</ele>
        <time>2018-06-25T09:23:36.973Z</time>
      </trkpt>
      <trkpt lat="49.8682" lon="4.6203">
        <ele>252</ele>
        <time>2018-06-25T09:23:37.973Z</time>
      </trkpt>
      <trkpt lat="49.86751" lon="4.62241">
        <ele>253</ele>
        <time>2018-06-25T09:23:38.973Z</time>
      </trkpt>
      <trkpt lat="49.86722" lon="4.62293">
        <ele>251</ele>
        <time>2018-06-25T09:23:39.973Z</time>
      </trkpt>
      <trkpt lat="49.86717" lon="4.62346">
        <ele>252</ele>
        <time>2018-06-25T09:23:40.973Z</time>
      </trkpt>
      <trkpt lat="49.86728" lon="4.62415">
        <ele>254</ele>
        <time>2018-06-25T09:23:41.973Z</time>
      </trkpt>
      <trkpt lat="49.86755" lon="4.62432">
        <ele>257</ele>
        <time>2018-06-25T09:23:42.973Z</time>
      </trkpt>
      <trkpt lat="49.86781" lon="4.62458">
        <ele>258</ele>
        <time>2018-06-25T09:23:43.973Z</time>
      </trkpt>
      <trkpt lat="49.86782" lon="4.62459">
        <ele>258</ele>
        <time>2018-06-25T09:23:44.973Z</time>
      </trkpt>
      <trkpt lat="49.86791" lon="4.62468">
        <ele>259</ele>
        <time>2018-06-25T09:23:45.973Z</time>
      </trkpt>
      <trkpt lat="49.86812" lon="4.62502">
        <ele>259</ele>
        <time>2018-06-25T09:23:46.973Z</time>
      </trkpt>
      <trkpt lat="49.86811" lon="4.62553">
        <ele>257</ele>
        <time>2018-06-25T09:23:47.973Z</time>
      </trkpt>
      <trkpt lat="49.86815" lon="4.62607">
        <ele>258</ele>
        <time>2018-06-25T09:23:48.973Z</time>
      </trkpt>
      <trkpt lat="49.86826" lon="4.62645">
        <ele>259</ele>
        <time>2018-06-25T09:23:49.973Z</time>
      </trkpt>
      <trkpt lat="49.86798" lon="4.62686">
        <ele>261</ele>
        <time>2018-06-25T09:23:50.973Z</time>
      </trkpt>
      <trkpt lat="49.86754" lon="4.62686">
        <ele>261</ele>
        <time>2018-06-25T09:23:51.973Z</time>
      </trkpt>
      <trkpt lat="49.86682" lon="4.62673">
        <ele>262</ele>
        <time>2018-06-25T09:23:52.973Z</time>
      </trkpt>
      <trkpt lat="49.86637" lon="4.62655">
        <ele>259</ele>
        <time>2018-06-25T09:23:53.973Z</time>
      </trkpt>
      <trkpt lat="49.86614" lon="4.62666">
        <ele>258</ele>
        <time>2018-06-25T09:23:54.973Z</time>
      </trkpt>
      <trkpt lat="49.86581" lon="4.62752">
        <ele>259</ele>
        <time>2018-06-25T09:23:55.973Z</time>
      </trkpt>
      <trkpt lat="49.86523" lon="4.62834">
        <ele>258</ele>
        <time>2018-06-25T09:23:56.973Z</time>
      </trkpt>
      <trkpt lat="49.86479" lon="4.62902">
        <ele>256</ele>
        <time>2018-06-25T09:23:57.973Z</time>
      </trkpt>
      <trkpt lat="49.86416" lon="4.62942">
        <ele>252</ele>
        <time>2018-06-25T09:23:58.973Z</time>
      </trkpt>
      <trkpt lat="49.86386" lon="4.62953">
        <ele>251</ele>
        <time>2018-06-25T09:23:59.973Z</time>
      </trkpt>
      <trkpt lat="49.86354" lon="4.62951">
        <ele>249</ele>
        <time>2018-06-25T09:24:00.973Z</time>
      </trkpt>
      <trkpt lat="49.86268" lon="4.6291">
        <ele>246</ele>
        <time>2018-06-25T09:24:01.973Z</time>
      </trkpt>
      <trkpt lat="49.86199" lon="4.62874">
        <ele>246</ele>
        <time>2018-06-25T09:24:02.973Z</time>
      </trkpt>
      <trkpt lat="49.86156" lon="4.62846">
        <ele>248</ele>
        <time>2018-06-25T09:24:03.973Z</time>
      </trkpt>
      <trkpt lat="49.86139" lon="4.62844">
        <ele>249</ele>
        <time>2018-06-25T09:24:04.973Z</time>
      </trkpt>
      <trkpt lat="49.86133" lon="4.62854">
        <ele>249</ele>
        <time>2018-06-25T09:24:05.973Z</time>
      </trkpt>
      <trkpt lat="49.86127" lon="4.62853">
        <ele>250</ele>
        <time>2018-06-25T09:24:06.973Z</time>
      </trkpt>
      <trkpt lat="49.86064" lon="4.62826">
        <ele>255</ele>
        <time>2018-06-25T09:24:07.973Z</time>
      </trkpt>
      <trkpt lat="49.86032" lon="4.62816">
        <ele>259</ele>
        <time>2018-06-25T09:24:08.973Z</time>
      </trkpt>
      <trkpt lat="49.85975" lon="4.62791">
        <ele>263</ele>
        <time>2018-06-25T09:24:09.973Z</time>
      </trkpt>
      <trkpt lat="49.85974" lon="4.62791">
        <ele>263</ele>
        <time>2018-06-25T09:24:10.973Z</time>
      </trkpt>
      <trkpt lat="49.85915" lon="4.62765">
        <ele>267</ele>
        <time>2018-06-25T09:24:11.973Z</time>
      </trkpt>
      <trkpt lat="49.85876" lon="4.62738">
        <ele>268</ele>
        <time>2018-06-25T09:24:12.973Z</time>
      </trkpt>
      <trkpt lat="49.85856" lon="4.62717">
        <ele>269</ele>
        <time>2018-06-25T09:24:13.973Z</time>
      </trkpt>
      <trkpt lat="49.85825" lon="4.62665">
        <ele>273</ele>
        <time>2018-06-25T09:24:14.973Z</time>
      </trkpt>
      <trkpt lat="49.85805" lon="4.62619">
        <ele>273</ele>
        <time>2018-06-25T09:24:15.973Z</time>
      </trkpt>
      <trkpt lat="49.85827" lon="4.62741">
        <ele>266</ele>
        <time>2018-06-25T09:24:16.973Z</time>
      </trkpt>
      <trkpt lat="49.85815" lon="4.62717">
        <ele>268</ele>
        <time>2018-06-25T09:24:17.973Z</time>
      </trkpt>
      <trkpt lat="49.85783" lon="4.62702">
        <ele>266</ele>
        <time>2018-06-25T09:24:18.973Z</time>
      </trkpt>
      <trkpt lat="49.85754" lon="4.62698">
        <ele>263</ele>
        <time>2018-06-25T09:24:19.973Z</time>
      </trkpt>
      <trkpt lat="49.85736" lon="4.627">
        <ele>263</ele>
        <time>2018-06-25T09:24:20.973Z</time>
      </trkpt>
      <trkpt lat="49.85711" lon="4.62785">
        <ele>261</ele>
        <time>2018-06-25T09:24:21.973Z</time>
      </trkpt>
      <trkpt lat="49.85696" lon="4.62855">
        <ele>260</ele>
        <time>2018-06-25T09:24:22.973Z</time>
      </trkpt>
      <trkpt lat="49.85551" lon="4.63502">
        <ele>277</ele>
        <time>2018-06-25T09:24:23.973Z</time>
      </trkpt>
      <trkpt lat="49.85234" lon="4.63331">
        <ele>277</ele>
        <time>2018-06-25T09:24:24.973Z</time>
      </trkpt>
      <trkpt lat="49.85202" lon="4.63163">
        <ele>276</ele>
        <time>2018-06-25T09:24:25.973Z</time>
      </trkpt>
      <trkpt lat="49.85161" lon="4.63123">
        <ele>275</ele>
        <time>2018-06-25T09:24:26.973Z</time>
      </trkpt>
      <trkpt lat="49.85159" lon="4.63123">
        <ele>275</ele>
        <time>2018-06-25T09:24:27.973Z</time>
      </trkpt>
      <trkpt lat="49.85157" lon="4.62869">
        <ele>285</ele>
        <time>2018-06-25T09:24:28.973Z</time>
      </trkpt>
      <trkpt lat="49.85086" lon="4.6289">
        <ele>286</ele>
        <time>2018-06-25T09:24:29.973Z</time>
      </trkpt>
      <trkpt lat="49.85038" lon="4.6292">
        <ele>287</ele>
        <time>2018-06-25T09:24:30.973Z</time>
      </trkpt>
      <trkpt lat="49.8489" lon="4.62872">
        <ele>294</ele>
        <time>2018-06-25T09:24:31.973Z</time>
      </trkpt>
      <trkpt lat="49.8489" lon="4.62871">
        <ele>294</ele>
        <time>2018-06-25T09:24:32.973Z</time>
      </trkpt>
      <trkpt lat="49.84858" lon="4.62861">
        <ele>296</ele>
        <time>2018-06-25T09:24:33.973Z</time>
      </trkpt>
      <trkpt lat="49.84653" lon="4.62887">
        <ele>303</ele>
        <time>2018-06-25T09:24:34.973Z</time>
      </trkpt>
      <trkpt lat="49.8453" lon="4.62875">
        <ele>304</ele>
        <time>2018-06-25T09:24:35.973Z</time>
      </trkpt>
      <trkpt lat="49.84508" lon="4.62865">
        <ele>304</ele>
        <time>2018-06-25T09:24:36.973Z</time>
      </trkpt>
      <trkpt lat="49.84444" lon="4.62815">
        <ele>307</ele>
        <time>2018-06-25T09:24:37.973Z</time>
      </trkpt>
      <trkpt lat="49.84379" lon="4.62802">
        <ele>308</ele>
        <time>2018-06-25T09:24:38.973Z</time>
      </trkpt>
      <trkpt lat="49.84285" lon="4.62807">
        <ele>308</ele>
        <time>2018-06-25T09:24:39.973Z</time>
      </trkpt>
      <trkpt lat="49.84289" lon="4.62929">
        <ele>312</ele>
        <time>2018-06-25T09:24:40.973Z</time>
      </trkpt>
      <trkpt lat="49.84301" lon="4.63058">
        <ele>313</ele>
        <time>2018-06-25T09:24:41.973Z</time>
      </trkpt>
      <trkpt lat="49.84288" lon="4.63191">
        <ele>315</ele>
        <time>2018-06-25T09:24:42.973Z</time>
      </trkpt>
      <trkpt lat="49.84241" lon="4.63373">
        <ele>318</ele>
        <time>2018-06-25T09:24:43.973Z</time>
      </trkpt>
      <trkpt lat="49.84252" lon="4.63555">
        <ele>320</ele>
        <time>2018-06-25T09:24:44.973Z</time>
      </trkpt>
      <trkpt lat="49.84279" lon="4.63674">
        <ele>321</ele>
        <time>2018-06-25T09:24:45.973Z</time>
      </trkpt>
      <trkpt lat="49.84274" lon="4.63753">
        <ele>320</ele>
        <time>2018-06-25T09:24:46.973Z</time>
      </trkpt>
      <trkpt lat="49.84396" lon="4.64322">
        <ele>302</ele>
        <time>2018-06-25T09:24:47.973Z</time>
      </trkpt>
      <trkpt lat="49.84524" lon="4.64587">
        <ele>292</ele>
        <time>2018-06-25T09:24:48.973Z</time>
      </trkpt>
      <trkpt lat="49.84576" lon="4.64742">
        <ele>287</ele>
        <time>2018-06-25T09:24:49.973Z</time>
      </trkpt>
      <trkpt lat="49.84603" lon="4.6484">
        <ele>281</ele>
        <time>2018-06-25T09:24:50.973Z</time>
      </trkpt>
      <trkpt lat="49.84599" lon="4.64897">
        <ele>278</ele>
        <time>2018-06-25T09:24:51.973Z</time>
      </trkpt>
      <trkpt lat="49.84544" lon="4.64996">
        <ele>279</ele>
        <time>2018-06-25T09:24:52.973Z</time>
      </trkpt>
      <trkpt lat="49.84541" lon="4.64987">
        <ele>280</ele>
        <time>2018-06-25T09:24:53.973Z</time>
      </trkpt>
      <trkpt lat="49.84535" lon="4.64992">
        <ele>280</ele>
        <time>2018-06-25T09:24:54.973Z</time>
      </trkpt>
      <trkpt lat="49.84485" lon="4.64999">
        <ele>282</ele>
        <time>2018-06-25T09:24:55.973Z</time>
      </trkpt>
      <trkpt lat="49.84337" lon="4.64992">
        <ele>290</ele>
        <time>2018-06-25T09:24:56.973Z</time>
      </trkpt>
      <trkpt lat="49.84323" lon="4.64997">
        <ele>289</ele>
        <time>2018-06-25T09:24:57.973Z</time>
      </trkpt>
      <trkpt lat="49.84272" lon="4.64994">
        <ele>290</ele>
        <time>2018-06-25T09:24:58.973Z</time>
      </trkpt>
      <trkpt lat="49.84231" lon="4.64996">
        <ele>291</ele>
        <time>2018-06-25T09:24:59.973Z</time>
      </trkpt>
      <trkpt lat="49.84171" lon="4.65008">
        <ele>292</ele>
        <time>2018-06-25T09:25:00.973Z</time>
      </trkpt>
      <trkpt lat="49.84134" lon="4.65032">
        <ele>292</ele>
        <time>2018-06-25T09:25:01.973Z</time>
      </trkpt>
      <trkpt lat="49.84101" lon="4.65072">
        <ele>291</ele>
        <time>2018-06-25T09:25:02.973Z</time>
      </trkpt>
      <trkpt lat="49.84042" lon="4.65133">
        <ele>291</ele>
        <time>2018-06-25T09:25:03.973Z</time>
      </trkpt>
      <trkpt lat="49.84029" lon="4.65159">
        <ele>291</ele>
        <time>2018-06-25T09:25:04.973Z</time>
      </trkpt>
      <trkpt lat="49.84012" lon="4.65185">
        <ele>291</ele>
        <time>2018-06-25T09:25:05.973Z</time>
      </trkpt>
      <trkpt lat="49.84005" lon="4.65225">
        <ele>290</ele>
        <time>2018-06-25T09:25:06.973Z</time>
      </trkpt>
      <trkpt lat="49.83973" lon="4.653">
        <ele>287</ele>
        <time>2018-06-25T09:25:07.973Z</time>
      </trkpt>
      <trkpt lat="49.83891" lon="4.65352">
        <ele>282</ele>
        <time>2018-06-25T09:25:08.973Z</time>
      </trkpt>
      <trkpt lat="49.83815" lon="4.65403">
        <ele>277</ele>
        <time>2018-06-25T09:25:09.973Z</time>
      </trkpt>
      <trkpt lat="49.83749" lon="4.65413">
        <ele>274</ele>
        <time>2018-06-25T09:25:10.973Z</time>
      </trkpt>
      <trkpt lat="49.8369" lon="4.65415">
        <ele>271</ele>
        <time>2018-06-25T09:25:11.973Z</time>
      </trkpt>
      <trkpt lat="49.83651" lon="4.65422">
        <ele>269</ele>
        <time>2018-06-25T09:25:12.973Z</time>
      </trkpt>
      <trkpt lat="49.83614" lon="4.65439">
        <ele>267</ele>
        <time>2018-06-25T09:25:13.973Z</time>
      </trkpt>
      <trkpt lat="49.83604" lon="4.6544">
        <ele>267</ele>
        <time>2018-06-25T09:25:14.973Z</time>
      </trkpt>
      <trkpt lat="49.83489" lon="4.6553">
        <ele>260</ele>
        <time>2018-06-25T09:25:15.973Z</time>
      </trkpt>
      <trkpt lat="49.83438" lon="4.65549">
        <ele>257</ele>
        <time>2018-06-25T09:25:16.973Z</time>
      </trkpt>
      <trkpt lat="49.83297" lon="4.65446">
        <ele>242</ele>
        <time>2018-06-25T09:25:17.973Z</time>
      </trkpt>
      <trkpt lat="49.83259" lon="4.65367">
        <ele>234</ele>
        <time>2018-06-25T09:25:18.973Z</time>
      </trkpt>
      <trkpt lat="49.83253" lon="4.65379">
        <ele>233</ele>
        <time>2018-06-25T09:25:19.973Z</time>
      </trkpt>
      <trkpt lat="49.83249" lon="4.65374">
        <ele>232</ele>
        <time>2018-06-25T09:25:20.973Z</time>
      </trkpt>
      <trkpt lat="49.83216" lon="4.65359">
        <ele>232</ele>
        <time>2018-06-25T09:25:21.973Z</time>
      </trkpt>
      <trkpt lat="49.83184" lon="4.65356">
        <ele>232</ele>
        <time>2018-06-25T09:25:22.973Z</time>
      </trkpt>
      <trkpt lat="49.83172" lon="4.6536">
        <ele>232</ele>
        <time>2018-06-25T09:25:23.973Z</time>
      </trkpt>
      <trkpt lat="49.83143" lon="4.65377">
        <ele>236</ele>
        <time>2018-06-25T09:25:24.973Z</time>
      </trkpt>
      <trkpt lat="49.83117" lon="4.65399">
        <ele>240</ele>
        <time>2018-06-25T09:25:25.973Z</time>
      </trkpt>
      <trkpt lat="49.83099" lon="4.65419">
        <ele>242</ele>
        <time>2018-06-25T09:25:26.973Z</time>
      </trkpt>
      <trkpt lat="49.83078" lon="4.65455">
        <ele>243</ele>
        <time>2018-06-25T09:25:27.973Z</time>
      </trkpt>
      <trkpt lat="49.83065" lon="4.65491">
        <ele>242</ele>
        <time>2018-06-25T09:25:28.973Z</time>
      </trkpt>
      <trkpt lat="49.83054" lon="4.65514">
        <ele>243</ele>
        <time>2018-06-25T09:25:29.973Z</time>
      </trkpt>
      <trkpt lat="49.83044" lon="4.65525">
        <ele>245</ele>
        <time>2018-06-25T09:25:30.973Z</time>
      </trkpt>
      <trkpt lat="49.83034" lon="4.65528">
        <ele>247</ele>
        <time>2018-06-25T09:25:31.973Z</time>
      </trkpt>
      <trkpt lat="49.83025" lon="4.65525">
        <ele>248</ele>
        <time>2018-06-25T09:25:32.973Z</time>
      </trkpt>
      <trkpt lat="49.83016" lon="4.6551">
        <ele>250</ele>
        <time>2018-06-25T09:25:33.973Z</time>
      </trkpt>
      <trkpt lat="49.83014" lon="4.65491">
        <ele>250</ele>
        <time>2018-06-25T09:25:34.973Z</time>
      </trkpt>
      <trkpt lat="49.83022" lon="4.65449">
        <ele>250</ele>
        <time>2018-06-25T09:25:35.973Z</time>
      </trkpt>
      <trkpt lat="49.83033" lon="4.65429">
        <ele>250</ele>
        <time>2018-06-25T09:25:36.973Z</time>
      </trkpt>
      <trkpt lat="49.83056" lon="4.65394">
        <ele>249</ele>
        <time>2018-06-25T09:25:37.973Z</time>
      </trkpt>
      <trkpt lat="49.83059" lon="4.65382">
        <ele>250</ele>
        <time>2018-06-25T09:25:38.973Z</time>
      </trkpt>
      <trkpt lat="49.83057" lon="4.65369">
        <ele>250</ele>
        <time>2018-06-25T09:25:39.973Z</time>
      </trkpt>
      <trkpt lat="49.83054" lon="4.65361">
        <ele>251</ele>
        <time>2018-06-25T09:25:40.973Z</time>
      </trkpt>
      <trkpt lat="49.83041" lon="4.65357">
        <ele>252</ele>
        <time>2018-06-25T09:25:41.973Z</time>
      </trkpt>
      <trkpt lat="49.83041" lon="4.65357">
        <ele>252</ele>
        <time>2018-06-25T09:25:42.973Z</time>
      </trkpt>
      <trkpt lat="49.83035" lon="4.65356">
        <ele>252</ele>
        <time>2018-06-25T09:25:43.973Z</time>
      </trkpt>
      <trkpt lat="49.83015" lon="4.65368">
        <ele>253</ele>
        <time>2018-06-25T09:25:44.973Z</time>
      </trkpt>
      <trkpt lat="49.82992" lon="4.65387">
        <ele>255</ele>
        <time>2018-06-25T09:25:45.973Z</time>
      </trkpt>
      <trkpt lat="49.82944" lon="4.65406">
        <ele>257</ele>
        <time>2018-06-25T09:25:46.973Z</time>
      </trkpt>
      <trkpt lat="49.82933" lon="4.65402">
        <ele>257</ele>
        <time>2018-06-25T09:25:47.973Z</time>
      </trkpt>
      <trkpt lat="49.82779" lon="4.65265">
        <ele>257</ele>
        <time>2018-06-25T09:25:48.973Z</time>
      </trkpt>
      <trkpt lat="49.82781" lon="4.65262">
        <ele>257</ele>
        <time>2018-06-25T09:25:49.973Z</time>
      </trkpt>
      <trkpt lat="49.82781" lon="4.65262">
        <ele>257</ele>
        <time>2018-06-25T09:25:50.973Z</time>
      </trkpt>
      <trkpt lat="49.82779" lon="4.65264">
        <ele>257</ele>
        <time>2018-06-25T09:25:51.973Z</time>
      </trkpt>
      <trkpt lat="49.82639" lon="4.65133">
        <ele>258</ele>
        <time>2018-06-25T09:25:52.973Z</time>
      </trkpt>
      <trkpt lat="49.82609" lon="4.6511">
        <ele>257</ele>
        <time>2018-06-25T09:25:53.973Z</time>
      </trkpt>
      <trkpt lat="49.82569" lon="4.65114">
        <ele>257</ele>
        <time>2018-06-25T09:25:54.973Z</time>
      </trkpt>
      <trkpt lat="49.82553" lon="4.65121">
        <ele>257</ele>
        <time>2018-06-25T09:25:55.973Z</time>
      </trkpt>
      <trkpt lat="49.82558" lon="4.65134">
        <ele>258</ele>
        <time>2018-06-25T09:25:56.973Z</time>
      </trkpt>
      <trkpt lat="49.82581" lon="4.65153">
        <ele>259</ele>
        <time>2018-06-25T09:25:57.973Z</time>
      </trkpt>
      <trkpt lat="49.82605" lon="4.6519">
        <ele>261</ele>
        <time>2018-06-25T09:25:58.973Z</time>
      </trkpt>
      <trkpt lat="49.82608" lon="4.65198">
        <ele>261</ele>
        <time>2018-06-25T09:25:59.973Z</time>
      </trkpt>
      <trkpt lat="49.82599" lon="4.65306">
        <ele>265</ele>
        <time>2018-06-25T09:26:00.973Z</time>
      </trkpt>
      <trkpt lat="49.826" lon="4.65326">
        <ele>266</ele>
        <time>2018-06-25T09:26:01.973Z</time>
      </trkpt>
      <trkpt lat="49.8262" lon="4.65374">
        <ele>267</ele>
        <time>2018-06-25T09:26:02.973Z</time>
      </trkpt>
      <trkpt lat="49.82624" lon="4.6539">
        <ele>267</ele>
        <time>2018-06-25T09:26:03.973Z</time>
      </trkpt>
      <trkpt lat="49.82617" lon="4.65467">
        <ele>270</ele>
        <time>2018-06-25T09:26:04.973Z</time>
      </trkpt>
      <trkpt lat="49.82617" lon="4.65467">
        <ele>270</ele>
        <time>2018-06-25T09:26:05.973Z</time>
      </trkpt>
      <trkpt lat="49.82609" lon="4.65568">
        <ele>274</ele>
        <time>2018-06-25T09:26:06.973Z</time>
      </trkpt>
      <trkpt lat="49.82605" lon="4.65579">
        <ele>274</ele>
        <time>2018-06-25T09:26:07.973Z</time>
      </trkpt>
      <trkpt lat="49.82578" lon="4.6562">
        <ele>272</ele>
        <time>2018-06-25T09:26:08.973Z</time>
      </trkpt>
      <trkpt lat="49.82564" lon="4.65635">
        <ele>271</ele>
        <time>2018-06-25T09:26:09.973Z</time>
      </trkpt>
      <trkpt lat="49.82549" lon="4.65644">
        <ele>269</ele>
        <time>2018-06-25T09:26:10.973Z</time>
      </trkpt>
      <trkpt lat="49.82531" lon="4.65648">
        <ele>268</ele>
        <time>2018-06-25T09:26:11.973Z</time>
      </trkpt>
      <trkpt lat="49.8253" lon="4.65648">
        <ele>268</ele>
        <time>2018-06-25T09:26:12.973Z</time>
      </trkpt>
      <trkpt lat="49.82514" lon="4.65646">
        <ele>268</ele>
        <time>2018-06-25T09:26:13.973Z</time>
      </trkpt>
      <trkpt lat="49.82414" lon="4.65615">
        <ele>262</ele>
        <time>2018-06-25T09:26:14.973Z</time>
      </trkpt>
      <trkpt lat="49.82409" lon="4.6561">
        <ele>262</ele>
        <time>2018-06-25T09:26:15.973Z</time>
      </trkpt>
      <trkpt lat="49.82408" lon="4.65602">
        <ele>262</ele>
        <time>2018-06-25T09:26:16.973Z</time>
      </trkpt>
      <trkpt lat="49.82437" lon="4.65428">
        <ele>263</ele>
        <time>2018-06-25T09:26:17.973Z</time>
      </trkpt>
      <trkpt lat="49.82438" lon="4.65409">
        <ele>263</ele>
        <time>2018-06-25T09:26:18.973Z</time>
      </trkpt>
      <trkpt lat="49.82366" lon="4.65385">
        <ele>260</ele>
        <time>2018-06-25T09:26:19.973Z</time>
      </trkpt>
      <trkpt lat="49.82354" lon="4.65392">
        <ele>259</ele>
        <time>2018-06-25T09:26:20.973Z</time>
      </trkpt>
      <trkpt lat="49.82349" lon="4.65392">
        <ele>259</ele>
        <time>2018-06-25T09:26:21.973Z</time>
      </trkpt>
      <trkpt lat="49.82335" lon="4.65428">
        <ele>259</ele>
        <time>2018-06-25T09:26:22.973Z</time>
      </trkpt>
      <trkpt lat="49.82297" lon="4.65485">
        <ele>261</ele>
        <time>2018-06-25T09:26:23.973Z</time>
      </trkpt>
      <trkpt lat="49.82251" lon="4.6556">
        <ele>264</ele>
        <time>2018-06-25T09:26:24.973Z</time>
      </trkpt>
      <trkpt lat="49.82233" lon="4.6561">
        <ele>264</ele>
        <time>2018-06-25T09:26:25.973Z</time>
      </trkpt>
      <trkpt lat="49.82103" lon="4.66073">
        <ele>268</ele>
        <time>2018-06-25T09:26:26.973Z</time>
      </trkpt>
      <trkpt lat="49.82093" lon="4.6612">
        <ele>269</ele>
        <time>2018-06-25T09:26:27.973Z</time>
      </trkpt>
      <trkpt lat="49.82075" lon="4.66222">
        <ele>274</ele>
        <time>2018-06-25T09:26:28.973Z</time>
      </trkpt>
      <trkpt lat="49.8207" lon="4.66264">
        <ele>276</ele>
        <time>2018-06-25T09:26:29.973Z</time>
      </trkpt>
      <trkpt lat="49.82071" lon="4.66302">
        <ele>278</ele>
        <time>2018-06-25T09:26:30.973Z</time>
      </trkpt>
      <trkpt lat="49.82075" lon="4.66348">
        <ele>280</ele>
        <time>2018-06-25T09:26:31.973Z</time>
      </trkpt>
      <trkpt lat="49.82105" lon="4.66597">
        <ele>281</ele>
        <time>2018-06-25T09:26:32.973Z</time>
      </trkpt>
      <trkpt lat="49.82124" lon="4.66745">
        <ele>284</ele>
        <time>2018-06-25T09:26:33.973Z</time>
      </trkpt>
      <trkpt lat="49.82143" lon="4.66998">
        <ele>288</ele>
        <time>2018-06-25T09:26:34.973Z</time>
      </trkpt>
      <trkpt lat="49.82169" lon="4.67392">
        <ele>297</ele>
        <time>2018-06-25T09:26:35.973Z</time>
      </trkpt>
      <trkpt lat="49.82175" lon="4.67427">
        <ele>298</ele>
        <time>2018-06-25T09:26:36.973Z</time>
      </trkpt>
      <trkpt lat="49.82198" lon="4.67521">
        <ele>297</ele>
        <time>2018-06-25T09:26:37.973Z</time>
      </trkpt>
      <trkpt lat="49.8221" lon="4.6758">
        <ele>297</ele>
        <time>2018-06-25T09:26:38.973Z</time>
      </trkpt>
      <trkpt lat="49.82216" lon="4.67642">
        <ele>299</ele>
        <time>2018-06-25T09:26:39.973Z</time>
      </trkpt>
      <trkpt lat="49.8222" lon="4.67753">
        <ele>304</ele>
        <time>2018-06-25T09:26:40.973Z</time>
      </trkpt>
      <trkpt lat="49.82225" lon="4.67776">
        <ele>305</ele>
        <time>2018-06-25T09:26:41.973Z</time>
      </trkpt>
      <trkpt lat="49.82254" lon="4.6786">
        <ele>308</ele>
        <time>2018-06-25T09:26:42.973Z</time>
      </trkpt>
      <trkpt lat="49.82274" lon="4.6791">
        <ele>309</ele>
        <time>2018-06-25T09:26:43.973Z</time>
      </trkpt>
      <trkpt lat="49.82332" lon="4.68041">
        <ele>308</ele>
        <time>2018-06-25T09:26:44.973Z</time>
      </trkpt>
      <trkpt lat="49.82351" lon="4.68076">
        <ele>309</ele>
        <time>2018-06-25T09:26:45.973Z</time>
      </trkpt>
      <trkpt lat="49.82371" lon="4.68107">
        <ele>308</ele>
        <time>2018-06-25T09:26:46.973Z</time>
      </trkpt>
      <trkpt lat="49.82449" lon="4.68182">
        <ele>303</ele>
        <time>2018-06-25T09:26:47.973Z</time>
      </trkpt>
      <trkpt lat="49.82515" lon="4.68256">
        <ele>297</ele>
        <time>2018-06-25T09:26:48.973Z</time>
      </trkpt>
      <trkpt lat="49.82545" lon="4.68308">
        <ele>295</ele>
        <time>2018-06-25T09:26:49.973Z</time>
      </trkpt>
      <trkpt lat="49.82633" lon="4.68514">
        <ele>289</ele>
        <time>2018-06-25T09:26:50.973Z</time>
      </trkpt>
      <trkpt lat="49.8265" lon="4.68593">
        <ele>288</ele>
        <time>2018-06-25T09:26:51.973Z</time>
      </trkpt>
      <trkpt lat="49.82657" lon="4.68697">
        <ele>287</ele>
        <time>2018-06-25T09:26:52.973Z</time>
      </trkpt>
      <trkpt lat="49.82661" lon="4.68711">
        <ele>287</ele>
        <time>2018-06-25T09:26:53.973Z</time>
      </trkpt>
      <trkpt lat="49.82667" lon="4.68718">
        <ele>286</ele>
        <time>2018-06-25T09:26:54.973Z</time>
      </trkpt>
      <trkpt lat="49.82603" lon="4.6898">
        <ele>295</ele>
        <time>2018-06-25T09:26:55.973Z</time>
      </trkpt>
      <trkpt lat="49.82574" lon="4.69032">
        <ele>298</ele>
        <time>2018-06-25T09:26:56.973Z</time>
      </trkpt>
      <trkpt lat="49.82531" lon="4.69077">
        <ele>302</ele>
        <time>2018-06-25T09:26:57.973Z</time>
      </trkpt>
      <trkpt lat="49.82186" lon="4.69408">
        <ele>302</ele>
        <time>2018-06-25T09:26:58.973Z</time>
      </trkpt>
      <trkpt lat="49.82165" lon="4.69436">
        <ele>302</ele>
        <time>2018-06-25T09:26:59.973Z</time>
      </trkpt>
      <trkpt lat="49.82143" lon="4.69473">
        <ele>302</ele>
        <time>2018-06-25T09:27:00.973Z</time>
      </trkpt>
      <trkpt lat="49.82127" lon="4.69514">
        <ele>303</ele>
        <time>2018-06-25T09:27:01.973Z</time>
      </trkpt>
      <trkpt lat="49.82094" lon="4.69605">
        <ele>304</ele>
        <time>2018-06-25T09:27:02.973Z</time>
      </trkpt>
      <trkpt lat="49.82094" lon="4.69606">
        <ele>304</ele>
        <time>2018-06-25T09:27:03.973Z</time>
      </trkpt>
      <trkpt lat="49.82017" lon="4.69819">
        <ele>308</ele>
        <time>2018-06-25T09:27:04.973Z</time>
      </trkpt>
      <trkpt lat="49.82002" lon="4.69847">
        <ele>309</ele>
        <time>2018-06-25T09:27:05.973Z</time>
      </trkpt>
      <trkpt lat="49.81978" lon="4.69875">
        <ele>312</ele>
        <time>2018-06-25T09:27:06.973Z</time>
      </trkpt>
      <trkpt lat="49.81948" lon="4.699">
        <ele>314</ele>
        <time>2018-06-25T09:27:07.973Z</time>
      </trkpt>
      <trkpt lat="49.81908" lon="4.69928">
        <ele>315</ele>
        <time>2018-06-25T09:27:08.973Z</time>
      </trkpt>
      <trkpt lat="49.81782" lon="4.69989">
        <ele>312</ele>
        <time>2018-06-25T09:27:09.973Z</time>
      </trkpt>
      <trkpt lat="49.81656" lon="4.70086">
        <ele>312</ele>
        <time>2018-06-25T09:27:10.973Z</time>
      </trkpt>
      <trkpt lat="49.81544" lon="4.70162">
        <ele>306</ele>
        <time>2018-06-25T09:27:11.973Z</time>
      </trkpt>
      <trkpt lat="49.81509" lon="4.70177">
        <ele>304</ele>
        <time>2018-06-25T09:27:12.973Z</time>
      </trkpt>
      <trkpt lat="49.81506" lon="4.70262">
        <ele>306</ele>
        <time>2018-06-25T09:27:13.973Z</time>
      </trkpt>
      <trkpt lat="49.81513" lon="4.70362">
        <ele>309</ele>
        <time>2018-06-25T09:27:14.973Z</time>
      </trkpt>
      <trkpt lat="49.81553" lon="4.70566">
        <ele>310</ele>
        <time>2018-06-25T09:27:15.973Z</time>
      </trkpt>
      <trkpt lat="49.81582" lon="4.70651">
        <ele>308</ele>
        <time>2018-06-25T09:27:16.973Z</time>
      </trkpt>
      <trkpt lat="49.81672" lon="4.70927">
        <ele>316</ele>
        <time>2018-06-25T09:27:17.973Z</time>
      </trkpt>
      <trkpt lat="49.8168" lon="4.70984">
        <ele>317</ele>
        <time>2018-06-25T09:27:18.973Z</time>
      </trkpt>
      <trkpt lat="49.81681" lon="4.70983">
        <ele>317</ele>
        <time>2018-06-25T09:27:19.973Z</time>
      </trkpt>
      <trkpt lat="49.81682" lon="4.70997">
        <ele>317</ele>
        <time>2018-06-25T09:27:20.973Z</time>
      </trkpt>
      <trkpt lat="49.81688" lon="4.71083">
        <ele>318</ele>
        <time>2018-06-25T09:27:21.973Z</time>
      </trkpt>
      <trkpt lat="49.81682" lon="4.71159">
        <ele>315</ele>
        <time>2018-06-25T09:27:22.973Z</time>
      </trkpt>
      <trkpt lat="49.81666" lon="4.71236">
        <ele>310</ele>
        <time>2018-06-25T09:27:23.973Z</time>
      </trkpt>
      <trkpt lat="49.81567" lon="4.72068">
        <ele>311</ele>
        <time>2018-06-25T09:27:24.973Z</time>
      </trkpt>
      <trkpt lat="49.81556" lon="4.72142">
        <ele>308</ele>
        <time>2018-06-25T09:27:25.973Z</time>
      </trkpt>
      <trkpt lat="49.81489" lon="4.72148">
        <ele>317</ele>
        <time>2018-06-25T09:27:26.973Z</time>
      </trkpt>
      <trkpt lat="49.81446" lon="4.72148">
        <ele>319</ele>
        <time>2018-06-25T09:27:27.973Z</time>
      </trkpt>
      <trkpt lat="49.81446" lon="4.72148">
        <ele>319</ele>
        <time>2018-06-25T09:27:28.973Z</time>
      </trkpt>
      <trkpt lat="49.81321" lon="4.72138">
        <ele>326</ele>
        <time>2018-06-25T09:27:29.973Z</time>
      </trkpt>
      <trkpt lat="49.81243" lon="4.72176">
        <ele>323</ele>
        <time>2018-06-25T09:27:30.973Z</time>
      </trkpt>
      <trkpt lat="49.8108" lon="4.7229">
        <ele>312</ele>
        <time>2018-06-25T09:27:31.973Z</time>
      </trkpt>
      <trkpt lat="49.8092" lon="4.72392">
        <ele>298</ele>
        <time>2018-06-25T09:27:32.973Z</time>
      </trkpt>
      <trkpt lat="49.809" lon="4.7241">
        <ele>296</ele>
        <time>2018-06-25T09:27:33.973Z</time>
      </trkpt>
      <trkpt lat="49.80831" lon="4.72527">
        <ele>288</ele>
        <time>2018-06-25T09:27:34.973Z</time>
      </trkpt>
      <trkpt lat="49.80704" lon="4.72766">
        <ele>273</ele>
        <time>2018-06-25T09:27:35.973Z</time>
      </trkpt>
      <trkpt lat="49.80576" lon="4.73">
        <ele>262</ele>
        <time>2018-06-25T09:27:36.973Z</time>
      </trkpt>
      <trkpt lat="49.80532" lon="4.73133">
        <ele>260</ele>
        <time>2018-06-25T09:27:37.973Z</time>
      </trkpt>
      <trkpt lat="49.80467" lon="4.73242">
        <ele>259</ele>
        <time>2018-06-25T09:27:38.973Z</time>
      </trkpt>
      <trkpt lat="49.80334" lon="4.73381">
        <ele>248</ele>
        <time>2018-06-25T09:27:39.973Z</time>
      </trkpt>
      <trkpt lat="49.80292" lon="4.73414">
        <ele>246</ele>
        <time>2018-06-25T09:27:40.973Z</time>
      </trkpt>
      <trkpt lat="49.80225" lon="4.73427">
        <ele>244</ele>
        <time>2018-06-25T09:27:41.973Z</time>
      </trkpt>
      <trkpt lat="49.80133" lon="4.73517">
        <ele>246</ele>
        <time>2018-06-25T09:27:42.973Z</time>
      </trkpt>
      <trkpt lat="49.80128" lon="4.73693">
        <ele>255</ele>
        <time>2018-06-25T09:27:43.973Z</time>
      </trkpt>
      <trkpt lat="49.80092" lon="4.73757">
        <ele>257</ele>
        <time>2018-06-25T09:27:44.973Z</time>
      </trkpt>
      <trkpt lat="49.80031" lon="4.73785">
        <ele>254</ele>
        <time>2018-06-25T09:27:45.973Z</time>
      </trkpt>
      <trkpt lat="49.79913" lon="4.73772">
        <ele>251</ele>
        <time>2018-06-25T09:27:46.973Z</time>
      </trkpt>
      <trkpt lat="49.79767" lon="4.73901">
        <ele>246</ele>
        <time>2018-06-25T09:27:47.973Z</time>
      </trkpt>
      <trkpt lat="49.79665" lon="4.73997">
        <ele>234</ele>
        <time>2018-06-25T09:27:48.973Z</time>
      </trkpt>
      <trkpt lat="49.79629" lon="4.74087">
        <ele>226</ele>
        <time>2018-06-25T09:27:49.973Z</time>
      </trkpt>
      <trkpt lat="49.79601" lon="4.74216">
        <ele>222</ele>
        <time>2018-06-25T09:27:50.973Z</time>
      </trkpt>
      <trkpt lat="49.79543" lon="4.74253">
        <ele>213</ele>
        <time>2018-06-25T09:27:51.973Z</time>
      </trkpt>
      <trkpt lat="49.7949" lon="4.74377">
        <ele>209</ele>
        <time>2018-06-25T09:27:52.973Z</time>
      </trkpt>
      <trkpt lat="49.79446" lon="4.74386">
        <ele>200</ele>
        <time>2018-06-25T09:27:53.973Z</time>
      </trkpt>
      <trkpt lat="49.79474" lon="4.74963">
        <ele>217</ele>
        <time>2018-06-25T09:27:54.973Z</time>
      </trkpt>
      <trkpt lat="49.79283" lon="4.75195">
        <ele>214</ele>
        <time>2018-06-25T09:27:55.973Z</time>
      </trkpt>
      <trkpt lat="49.79238" lon="4.75233">
        <ele>213</ele>
        <time>2018-06-25T09:27:56.973Z</time>
      </trkpt>
      <trkpt lat="49.78853" lon="4.75145">
        <ele>208</ele>
        <time>2018-06-25T09:27:57.973Z</time>
      </trkpt>
      <trkpt lat="49.78845" lon="4.75248">
        <ele>213</ele>
        <time>2018-06-25T09:27:58.973Z</time>
      </trkpt>
      <trkpt lat="49.78776" lon="4.75283">
        <ele>212</ele>
        <time>2018-06-25T09:27:59.973Z</time>
      </trkpt>
      <trkpt lat="49.78681" lon="4.75283">
        <ele>211</ele>
        <time>2018-06-25T09:28:00.973Z</time>
      </trkpt>
      <trkpt lat="49.78575" lon="4.75246">
        <ele>201</ele>
        <time>2018-06-25T09:28:01.973Z</time>
      </trkpt>
      <trkpt lat="49.78482" lon="4.75203">
        <ele>200</ele>
        <time>2018-06-25T09:28:02.973Z</time>
      </trkpt>
      <trkpt lat="49.78357" lon="4.75106">
        <ele>203</ele>
        <time>2018-06-25T09:28:03.973Z</time>
      </trkpt>
      <trkpt lat="49.78299" lon="4.75064">
        <ele>200</ele>
        <time>2018-06-25T09:28:04.973Z</time>
      </trkpt>
      <trkpt lat="49.78243" lon="4.75039">
        <ele>194</ele>
        <time>2018-06-25T09:28:05.973Z</time>
      </trkpt>
      <trkpt lat="49.78181" lon="4.74975">
        <ele>189</ele>
        <time>2018-06-25T09:28:06.973Z</time>
      </trkpt>
      <trkpt lat="49.78176" lon="4.74941">
        <ele>191</ele>
        <time>2018-06-25T09:28:07.973Z</time>
      </trkpt>
      <trkpt lat="49.78167" lon="4.74925">
        <ele>191</ele>
        <time>2018-06-25T09:28:08.973Z</time>
      </trkpt>
      <trkpt lat="49.78081" lon="4.74883">
        <ele>189</ele>
        <time>2018-06-25T09:28:09.973Z</time>
      </trkpt>
      <trkpt lat="49.78062" lon="4.74888">
        <ele>188</ele>
        <time>2018-06-25T09:28:10.973Z</time>
      </trkpt>
      <trkpt lat="49.78024" lon="4.74867">
        <ele>188</ele>
        <time>2018-06-25T09:28:11.973Z</time>
      </trkpt>
      <trkpt lat="49.77976" lon="4.74861">
        <ele>185</ele>
        <time>2018-06-25T09:28:12.973Z</time>
      </trkpt>
      <trkpt lat="49.77965" lon="4.74871">
        <ele>184</ele>
        <time>2018-06-25T09:28:13.973Z</time>
      </trkpt>
      <trkpt lat="49.77959" lon="4.74897">
        <ele>183</ele>
        <time>2018-06-25T09:28:14.973Z</time>
      </trkpt>
      <trkpt lat="49.77845" lon="4.7489">
        <ele>176</ele>
        <time>2018-06-25T09:28:15.973Z</time>
      </trkpt>
      <trkpt lat="49.77771" lon="4.74862">
        <ele>172</ele>
        <time>2018-06-25T09:28:16.973Z</time>
      </trkpt>
      <trkpt lat="49.77718" lon="4.74822">
        <ele>170</ele>
        <time>2018-06-25T09:28:17.973Z</time>
      </trkpt>
      <trkpt lat="49.77706" lon="4.74785">
        <ele>171</ele>
        <time>2018-06-25T09:28:18.973Z</time>
      </trkpt>
      <trkpt lat="49.77706" lon="4.74784">
        <ele>171</ele>
        <time>2018-06-25T09:28:19.973Z</time>
      </trkpt>
      <trkpt lat="49.77686" lon="4.74783">
        <ele>170</ele>
        <time>2018-06-25T09:28:20.973Z</time>
      </trkpt>
      <trkpt lat="49.77601" lon="4.74747">
        <ele>167</ele>
        <time>2018-06-25T09:28:21.973Z</time>
      </trkpt>
      <trkpt lat="49.77561" lon="4.74733">
        <ele>165</ele>
        <time>2018-06-25T09:28:22.973Z</time>
      </trkpt>
      <trkpt lat="49.77518" lon="4.74728">
        <ele>162</ele>
        <time>2018-06-25T09:28:23.973Z</time>
      </trkpt>
      <trkpt lat="49.77498" lon="4.74721">
        <ele>161</ele>
        <time>2018-06-25T09:28:24.973Z</time>
      </trkpt>
      <trkpt lat="49.77457" lon="4.74698">
        <ele>159</ele>
        <time>2018-06-25T09:28:25.973Z</time>
      </trkpt>
      <trkpt lat="49.77442" lon="4.74677">
        <ele>159</ele>
        <time>2018-06-25T09:28:26.973Z</time>
      </trkpt>
      <trkpt lat="49.77433" lon="4.74654">
        <ele>159</ele>
        <time>2018-06-25T09:28:27.973Z</time>
      </trkpt>
      <trkpt lat="49.7741" lon="4.74583">
        <ele>159</ele>
        <time>2018-06-25T09:28:28.973Z</time>
      </trkpt>
      <trkpt lat="49.77379" lon="4.74487">
        <ele>159</ele>
        <time>2018-06-25T09:28:29.973Z</time>
      </trkpt>
      <trkpt lat="49.77374" lon="4.74459">
        <ele>159</ele>
        <time>2018-06-25T09:28:30.973Z</time>
      </trkpt>
      <trkpt lat="49.77368" lon="4.74405">
        <ele>160</ele>
        <time>2018-06-25T09:28:31.973Z</time>
      </trkpt>
      <trkpt lat="49.77368" lon="4.74393">
        <ele>159</ele>
        <time>2018-06-25T09:28:32.973Z</time>
      </trkpt>
      <trkpt lat="49.77372" lon="4.74381">
        <ele>159</ele>
        <time>2018-06-25T09:28:33.973Z</time>
      </trkpt>
      <trkpt lat="49.77393" lon="4.74335">
        <ele>160</ele>
        <time>2018-06-25T09:28:34.973Z</time>
      </trkpt>
      <trkpt lat="49.77428" lon="4.74329">
        <ele>161</ele>
        <time>2018-06-25T09:28:35.973Z</time>
      </trkpt>
      <trkpt lat="49.77433" lon="4.74321">
        <ele>161</ele>
        <time>2018-06-25T09:28:36.973Z</time>
      </trkpt>
      <trkpt lat="49.7743" lon="4.74306">
        <ele>160</ele>
        <time>2018-06-25T09:28:37.973Z</time>
      </trkpt>
      <trkpt lat="49.77426" lon="4.74233">
        <ele>155</ele>
        <time>2018-06-25T09:28:38.973Z</time>
      </trkpt>
      <trkpt lat="49.77421" lon="4.74197">
        <ele>151</ele>
        <time>2018-06-25T09:28:39.973Z</time>
      </trkpt>
      <trkpt lat="49.77413" lon="4.74131">
        <ele>145</ele>
        <time>2018-06-25T09:28:40.973Z</time>
      </trkpt>
      <trkpt lat="49.7741" lon="4.74118">
        <ele>144</ele>
        <time>2018-06-25T09:28:41.973Z</time>
      </trkpt>
      <trkpt lat="49.77411" lon="4.74117">
        <ele>144</ele>
        <time>2018-06-25T09:28:42.973Z</time>
      </trkpt>
      <trkpt lat="49.77387" lon="4.74001">
        <ele>142</ele>
        <time>2018-06-25T09:28:43.973Z</time>
      </trkpt>
      <trkpt lat="49.77381" lon="4.73962">
        <ele>141</ele>
        <time>2018-06-25T09:28:44.973Z</time>
      </trkpt>
      <trkpt lat="49.7738" lon="4.73941">
        <ele>142</ele>
        <time>2018-06-25T09:28:45.973Z</time>
      </trkpt>
      <trkpt lat="49.77384" lon="4.73903">
        <ele>142</ele>
        <time>2018-06-25T09:28:46.973Z</time>
      </trkpt>
      <trkpt lat="49.77394" lon="4.73859">
        <ele>143</ele>
        <time>2018-06-25T09:28:47.973Z</time>
      </trkpt>
      <trkpt lat="49.77421" lon="4.73758">
        <ele>146</ele>
        <time>2018-06-25T09:28:48.973Z</time>
      </trkpt>
      <trkpt lat="49.77471" lon="4.73605">
        <ele>150</ele>
        <time>2018-06-25T09:28:49.973Z</time>
      </trkpt>
      <trkpt lat="49.77476" lon="4.73583">
        <ele>150</ele>
        <time>2018-06-25T09:28:50.973Z</time>
      </trkpt>
      <trkpt lat="49.77524" lon="4.73245">
        <ele>153</ele>
        <time>2018-06-25T09:28:51.973Z</time>
      </trkpt>
      <trkpt lat="49.7753" lon="4.73225">
        <ele>152</ele>
        <time>2018-06-25T09:28:52.973Z</time>
      </trkpt>
      <trkpt lat="49.77537" lon="4.73208">
        <ele>152</ele>
        <time>2018-06-25T09:28:53.973Z</time>
      </trkpt>
      <trkpt lat="49.77607" lon="4.73063">
        <ele>152</ele>
        <time>2018-06-25T09:28:54.973Z</time>
      </trkpt>
      <trkpt lat="49.77611" lon="4.73051">
        <ele>152</ele>
        <time>2018-06-25T09:28:55.973Z</time>
      </trkpt>
      <trkpt lat="49.77615" lon="4.73025">
        <ele>152</ele>
        <time>2018-06-25T09:28:56.973Z</time>
      </trkpt>
      <trkpt lat="49.77617" lon="4.72897">
        <ele>153</ele>
        <time>2018-06-25T09:28:57.973Z</time>
      </trkpt>
      <trkpt lat="49.77624" lon="4.72828">
        <ele>156</ele>
        <time>2018-06-25T09:28:58.973Z</time>
      </trkpt>
      <trkpt lat="49.77618" lon="4.72751">
        <ele>157</ele>
        <time>2018-06-25T09:28:59.973Z</time>
      </trkpt>
      <trkpt lat="49.77616" lon="4.72708">
        <ele>156</ele>
        <time>2018-06-25T09:29:00.973Z</time>
      </trkpt>
      <trkpt lat="49.77618" lon="4.72667">
        <ele>157</ele>
        <time>2018-06-25T09:29:01.973Z</time>
      </trkpt>
      <trkpt lat="49.77626" lon="4.72576">
        <ele>156</ele>
        <time>2018-06-25T09:29:02.973Z</time>
      </trkpt>
      <trkpt lat="49.77641" lon="4.72475">
        <ele>154</ele>
        <time>2018-06-25T09:29:03.973Z</time>
      </trkpt>
      <trkpt lat="49.77655" lon="4.72427">
        <ele>154</ele>
        <time>2018-06-25T09:29:04.973Z</time>
      </trkpt>
      <trkpt lat="49.77669" lon="4.7239">
        <ele>153</ele>
        <time>2018-06-25T09:29:05.973Z</time>
      </trkpt>
      <trkpt lat="49.77677" lon="4.72373">
        <ele>153</ele>
        <time>2018-06-25T09:29:06.973Z</time>
      </trkpt>
      <trkpt lat="49.77677" lon="4.72373">
        <ele>153</ele>
        <time>2018-06-25T09:29:07.973Z</time>
      </trkpt>
      <trkpt lat="49.77683" lon="4.72359">
        <ele>153</ele>
        <time>2018-06-25T09:29:08.973Z</time>
      </trkpt>
      <trkpt lat="49.77722" lon="4.72308">
        <ele>154</ele>
        <time>2018-06-25T09:29:09.973Z</time>
      </trkpt>
      <trkpt lat="49.77788" lon="4.72226">
        <ele>153</ele>
        <time>2018-06-25T09:29:10.973Z</time>
      </trkpt>
      <trkpt lat="49.778" lon="4.72227">
        <ele>155</ele>
        <time>2018-06-25T09:29:11.973Z</time>
      </trkpt>
      <trkpt lat="49.77766" lon="4.72283">
        <ele>157</ele>
        <time>2018-06-25T09:29:12.973Z</time>
      </trkpt>
      <trkpt lat="49.77762" lon="4.72285">
        <ele>156</ele>
        <time>2018-06-25T09:29:13.973Z</time>
      </trkpt>
      <trkpt lat="49.77748" lon="4.72305">
        <ele>157</ele>
        <time>2018-06-25T09:29:14.973Z</time>
      </trkpt>
      <trkpt lat="49.77743" lon="4.7231">
        <ele>157</ele>
        <time>2018-06-25T09:29:15.973Z</time>
      </trkpt>
      <trkpt lat="49.7773" lon="4.72305">
        <ele>155</ele>
        <time>2018-06-25T09:29:16.973Z</time>
      </trkpt>
      <trkpt lat="49.77665" lon="4.72267">
        <ele>144</ele>
        <time>2018-06-25T09:29:17.973Z</time>
      </trkpt>
      <trkpt lat="49.77665" lon="4.72267">
        <ele>144</ele>
        <time>2018-06-25T09:29:18.973Z</time>
      </trkpt>
      <trkpt lat="49.77549" lon="4.72203">
        <ele>147</ele>
        <time>2018-06-25T09:29:19.973Z</time>
      </trkpt>
      <trkpt lat="49.77551" lon="4.72193">
        <ele>148</ele>
        <time>2018-06-25T09:29:20.973Z</time>
      </trkpt>
      <trkpt lat="49.77585" lon="4.7211">
        <ele>147</ele>
        <time>2018-06-25T09:29:21.973Z</time>
      </trkpt>
      <trkpt lat="49.77524" lon="4.72076">
        <ele>151</ele>
        <time>2018-06-25T09:29:22.973Z</time>
      </trkpt>
      <trkpt lat="49.77524" lon="4.72075">
        <ele>151</ele>
        <time>2018-06-25T09:29:23.973Z</time>
      </trkpt>
      <trkpt lat="49.7748" lon="4.72051">
        <ele>154</ele>
        <time>2018-06-25T09:29:24.973Z</time>
      </trkpt>
      <trkpt lat="49.7746" lon="4.72144">
        <ele>152</ele>
        <time>2018-06-25T09:29:25.973Z</time>
      </trkpt>
      <trkpt lat="49.77384" lon="4.72103">
        <ele>153</ele>
        <time>2018-06-25T09:29:26.973Z</time>
      </trkpt>
      <trkpt lat="49.77382" lon="4.72109">
        <ele>153</ele>
        <time>2018-06-25T09:29:27.973Z</time>
      </trkpt>
      <trkpt lat="49.77379" lon="4.72119">
        <ele>153</ele>
        <time>2018-06-25T08:55:22.033Z</time>
      </trkpt>
      <trkpt lat="49.774" lon="4.72031">
        <ele>154</ele>
        <time>2018-06-25T08:55:23.033Z</time>
      </trkpt>
      <trkpt lat="49.77368" lon="4.72014">
        <ele>154</ele>
        <time>2018-06-25T08:55:24.033Z</time>
      </trkpt>
      <trkpt lat="49.77397" lon="4.71882">
        <ele>157</ele>
        <time>2018-06-25T08:55:25.033Z</time>
      </trkpt>
      <trkpt lat="49.76855" lon="4.71586">
        <ele>154</ele>
        <time>2018-06-25T08:55:26.033Z</time>
      </trkpt>
      <trkpt lat="49.76837" lon="4.71537">
        <ele>152</ele>
        <time>2018-06-25T08:55:27.033Z</time>
      </trkpt>
      <trkpt lat="49.76672" lon="4.7188">
        <ele>148</ele>
        <time>2018-06-25T08:55:28.033Z</time>
      </trkpt>
      <trkpt lat="49.76642" lon="4.71929">
        <ele>147</ele>
        <time>2018-06-25T08:55:29.033Z</time>
      </trkpt>
      <trkpt lat="49.76601" lon="4.71945">
        <ele>146</ele>
        <time>2018-06-25T08:55:30.033Z</time>
      </trkpt>
      <trkpt lat="49.76494" lon="4.71945">
        <ele>147</ele>
        <time>2018-06-25T08:55:31.033Z</time>
      </trkpt>
      <trkpt lat="49.76249" lon="4.71912">
        <ele>146</ele>
        <time>2018-06-25T08:55:32.033Z</time>
      </trkpt>
      <trkpt lat="49.76059" lon="4.71901">
        <ele>149</ele>
        <time>2018-06-25T08:55:33.033Z</time>
      </trkpt>
      <trkpt lat="49.76055" lon="4.71985">
        <ele>147</ele>
        <time>2018-06-25T08:55:34.033Z</time>
      </trkpt>
      <trkpt lat="49.7605" lon="4.71994">
        <ele>147</ele>
        <time>2018-06-25T08:55:35.033Z</time>
      </trkpt>
      <trkpt lat="49.76004" lon="4.71998">
        <ele>147</ele>
        <time>2018-06-25T08:55:36.033Z</time>
      </trkpt>
      <trkpt lat="49.75953" lon="4.72062">
        <ele>148</ele>
        <time>2018-06-25T08:55:37.033Z</time>
      </trkpt>
      <trkpt lat="49.75885" lon="4.72179">
        <ele>149</ele>
        <time>2018-06-25T08:55:38.033Z</time>
      </trkpt>
      <trkpt lat="49.75873" lon="4.7222">
        <ele>148</ele>
        <time>2018-06-25T08:55:39.033Z</time>
      </trkpt>
      <trkpt lat="49.75837" lon="4.72408">
        <ele>148</ele>
        <time>2018-06-25T08:55:40.033Z</time>
      </trkpt>
      <trkpt lat="49.75834" lon="4.72452">
        <ele>148</ele>
        <time>2018-06-25T08:55:41.033Z</time>
      </trkpt>
      <trkpt lat="49.75856" lon="4.72568">
        <ele>150</ele>
        <time>2018-06-25T08:55:42.033Z</time>
      </trkpt>
      <trkpt lat="49.75807" lon="4.72595">
        <ele>148</ele>
        <time>2018-06-25T08:55:43.033Z</time>
      </trkpt>
      <trkpt lat="49.75799" lon="4.72579">
        <ele>148</ele>
        <time>2018-06-25T08:55:44.033Z</time>
      </trkpt>
      <trkpt lat="49.75781" lon="4.72591">
        <ele>148</ele>
        <time>2018-06-25T08:55:45.033Z</time>
      </trkpt>
      <trkpt lat="49.75762" lon="4.72626">
        <ele>148</ele>
        <time>2018-06-25T08:55:46.033Z</time>
      </trkpt>
      <trkpt lat="49.75736" lon="4.72776">
        <ele>147</ele>
        <time>2018-06-25T08:55:47.033Z</time>
      </trkpt>
      <trkpt lat="49.75727" lon="4.72863">
        <ele>147</ele>
        <time>2018-06-25T08:55:48.033Z</time>
      </trkpt>
      <trkpt lat="49.7564" lon="4.73216">
        <ele>147</ele>
        <time>2018-06-25T08:55:49.033Z</time>
      </trkpt>
      <trkpt lat="49.75596" lon="4.73436">
        <ele>144</ele>
        <time>2018-06-25T08:55:50.033Z</time>
      </trkpt>
      <trkpt lat="49.75586" lon="4.73544">
        <ele>145</ele>
        <time>2018-06-25T08:55:51.033Z</time>
      </trkpt>
      <trkpt lat="49.75584" lon="4.73654">
        <ele>145</ele>
        <time>2018-06-25T08:55:52.033Z</time>
      </trkpt>
      <trkpt lat="49.75613" lon="4.73873">
        <ele>146</ele>
        <time>2018-06-25T08:55:53.033Z</time>
      </trkpt>
      <trkpt lat="49.75641" lon="4.74032">
        <ele>148</ele>
        <time>2018-06-25T08:55:54.033Z</time>
      </trkpt>
      <trkpt lat="49.75659" lon="4.74354">
        <ele>144</ele>
        <time>2018-06-25T08:55:55.033Z</time>
      </trkpt>
      <trkpt lat="49.75612" lon="4.75113">
        <ele>149</ele>
        <time>2018-06-25T08:55:56.033Z</time>
      </trkpt>
      <trkpt lat="49.75595" lon="4.7527">
        <ele>152</ele>
        <time>2018-06-25T08:55:57.033Z</time>
      </trkpt>
      <trkpt lat="49.75552" lon="4.75561">
        <ele>159</ele>
        <time>2018-06-25T08:55:58.033Z</time>
      </trkpt>
      <trkpt lat="49.75519" lon="4.75682">
        <ele>156</ele>
        <time>2018-06-25T08:55:59.033Z</time>
      </trkpt>
      <trkpt lat="49.75487" lon="4.75768">
        <ele>154</ele>
        <time>2018-06-25T08:56:00.033Z</time>
      </trkpt>
      <trkpt lat="49.75416" lon="4.75909">
        <ele>149</ele>
        <time>2018-06-25T08:56:01.033Z</time>
      </trkpt>
      <trkpt lat="49.75366" lon="4.75984">
        <ele>148</ele>
        <time>2018-06-25T08:56:02.033Z</time>
      </trkpt>
      <trkpt lat="49.75106" lon="4.7649">
        <ele>145</ele>
        <time>2018-06-25T08:56:03.033Z</time>
      </trkpt>
      <trkpt lat="49.74628" lon="4.7772">
        <ele>147</ele>
        <time>2018-06-25T08:56:04.033Z</time>
      </trkpt>
      <trkpt lat="49.74578" lon="4.77804">
        <ele>146</ele>
        <time>2018-06-25T08:56:05.033Z</time>
      </trkpt>
      <trkpt lat="49.74489" lon="4.77907">
        <ele>147</ele>
        <time>2018-06-25T08:56:06.033Z</time>
      </trkpt>
      <trkpt lat="49.74421" lon="4.77911">
        <ele>147</ele>
        <time>2018-06-25T08:56:07.033Z</time>
      </trkpt>
      <trkpt lat="49.74355" lon="4.77873">
        <ele>146</ele>
        <time>2018-06-25T08:56:08.033Z</time>
      </trkpt>
      <trkpt lat="49.74318" lon="4.77828">
        <ele>146</ele>
        <time>2018-06-25T08:56:09.033Z</time>
      </trkpt>
      <trkpt lat="49.74297" lon="4.77814">
        <ele>146</ele>
        <time>2018-06-25T08:56:10.033Z</time>
      </trkpt>
      <trkpt lat="49.74152" lon="4.77619">
        <ele>145</ele>
        <time>2018-06-25T08:56:11.033Z</time>
      </trkpt>
      <trkpt lat="49.74117" lon="4.77595">
        <ele>144</ele>
        <time>2018-06-25T08:56:12.033Z</time>
      </trkpt>
      <trkpt lat="49.73898" lon="4.77532">
        <ele>147</ele>
        <time>2018-06-25T08:56:13.033Z</time>
      </trkpt>
      <trkpt lat="49.73884" lon="4.77543">
        <ele>147</ele>
        <time>2018-06-25T08:56:14.033Z</time>
      </trkpt>
      <trkpt lat="49.73825" lon="4.77542">
        <ele>149</ele>
        <time>2018-06-25T08:56:15.033Z</time>
      </trkpt>
      <trkpt lat="49.73795" lon="4.77561">
        <ele>149</ele>
        <time>2018-06-25T08:56:16.033Z</time>
      </trkpt>
      <trkpt lat="49.73783" lon="4.77549">
        <ele>149</ele>
        <time>2018-06-25T08:56:17.033Z</time>
      </trkpt>
      <trkpt lat="49.73763" lon="4.77551">
        <ele>149</ele>
        <time>2018-06-25T08:56:18.033Z</time>
      </trkpt>
      <trkpt lat="49.73716" lon="4.77575">
        <ele>148</ele>
        <time>2018-06-25T08:56:19.033Z</time>
      </trkpt>
      <trkpt lat="49.73693" lon="4.77598">
        <ele>148</ele>
        <time>2018-06-25T08:56:20.033Z</time>
      </trkpt>
      <trkpt lat="49.73597" lon="4.77589">
        <ele>146</ele>
        <time>2018-06-25T08:56:21.033Z</time>
      </trkpt>
      <trkpt lat="49.7355" lon="4.77606">
        <ele>146</ele>
        <time>2018-06-25T08:56:22.033Z</time>
      </trkpt>
      <trkpt lat="49.7352" lon="4.77793">
        <ele>147</ele>
        <time>2018-06-25T08:56:23.033Z</time>
      </trkpt>
      <trkpt lat="49.73489" lon="4.77913">
        <ele>148</ele>
        <time>2018-06-25T08:56:24.033Z</time>
      </trkpt>
      <trkpt lat="49.73458" lon="4.78005">
        <ele>148</ele>
        <time>2018-06-25T08:56:25.033Z</time>
      </trkpt>
      <trkpt lat="49.73409" lon="4.78091">
        <ele>149</ele>
        <time>2018-06-25T08:56:26.033Z</time>
      </trkpt>
      <trkpt lat="49.73402" lon="4.78125">
        <ele>150</ele>
        <time>2018-06-25T08:56:27.033Z</time>
      </trkpt>
      <trkpt lat="49.73346" lon="4.78216">
        <ele>150</ele>
        <time>2018-06-25T08:56:28.033Z</time>
      </trkpt>
      <trkpt lat="49.73305" lon="4.78265">
        <ele>150</ele>
        <time>2018-06-25T08:56:29.033Z</time>
      </trkpt>
      <trkpt lat="49.73318" lon="4.78276">
        <ele>151</ele>
        <time>2018-06-25T08:56:30.033Z</time>
      </trkpt>
      <trkpt lat="49.7335" lon="4.78342">
        <ele>153</ele>
        <time>2018-06-25T08:56:31.033Z</time>
      </trkpt>
      <trkpt lat="49.734" lon="4.78353">
        <ele>154</ele>
        <time>2018-06-25T08:56:32.033Z</time>
      </trkpt>
      <trkpt lat="49.73427" lon="4.78374">
        <ele>154</ele>
        <time>2018-06-25T08:56:33.033Z</time>
      </trkpt>
      <trkpt lat="49.73409" lon="4.78407">
        <ele>155</ele>
        <time>2018-06-25T08:56:34.033Z</time>
      </trkpt>
      <trkpt lat="49.73406" lon="4.7843">
        <ele>155</ele>
        <time>2018-06-25T08:56:35.033Z</time>
      </trkpt>
      <trkpt lat="49.73423" lon="4.78557">
        <ele>158</ele>
        <time>2018-06-25T08:56:36.033Z</time>
      </trkpt>
      <trkpt lat="49.73375" lon="4.78658">
        <ele>163</ele>
        <time>2018-06-25T08:56:37.033Z</time>
      </trkpt>
      <trkpt lat="49.73306" lon="4.78755">
        <ele>166</ele>
        <time>2018-06-25T08:56:38.033Z</time>
      </trkpt>
      <trkpt lat="49.73299" lon="4.78775">
        <ele>167</ele>
        <time>2018-06-25T08:56:39.033Z</time>
      </trkpt>
      <trkpt lat="49.73278" lon="4.7896">
        <ele>173</ele>
        <time>2018-06-25T08:56:40.033Z</time>
      </trkpt>
      <trkpt lat="49.73314" lon="4.79147">
        <ele>188</ele>
        <time>2018-06-25T08:56:41.033Z</time>
      </trkpt>
      <trkpt lat="49.73319" lon="4.79305">
        <ele>194</ele>
        <time>2018-06-25T08:56:42.033Z</time>
      </trkpt>
      <trkpt lat="49.73315" lon="4.79315">
        <ele>195</ele>
        <time>2018-06-25T08:56:43.033Z</time>
      </trkpt>
      <trkpt lat="49.73258" lon="4.79352">
        <ele>199</ele>
        <time>2018-06-25T08:56:44.033Z</time>
      </trkpt>
      <trkpt lat="49.73207" lon="4.79402">
        <ele>204</ele>
        <time>2018-06-25T08:56:45.033Z</time>
      </trkpt>
      <trkpt lat="49.73171" lon="4.79452">
        <ele>208</ele>
        <time>2018-06-25T08:56:46.033Z</time>
      </trkpt>
      <trkpt lat="49.73073" lon="4.7953">
        <ele>210</ele>
        <time>2018-06-25T08:56:47.033Z</time>
      </trkpt>
      <trkpt lat="49.72956" lon="4.79597">
        <ele>212</ele>
        <time>2018-06-25T08:56:48.033Z</time>
      </trkpt>
      <trkpt lat="49.727" lon="4.79825">
        <ele>215</ele>
        <time>2018-06-25T08:56:49.033Z</time>
      </trkpt>
      <trkpt lat="49.72552" lon="4.79875">
        <ele>218</ele>
        <time>2018-06-25T08:56:50.033Z</time>
      </trkpt>
      <trkpt lat="49.72418" lon="4.79945">
        <ele>217</ele>
        <time>2018-06-25T08:56:51.033Z</time>
      </trkpt>
      <trkpt lat="49.72389" lon="4.79978">
        <ele>217</ele>
        <time>2018-06-25T08:56:52.033Z</time>
      </trkpt>
      <trkpt lat="49.72012" lon="4.80519">
        <ele>239</ele>
        <time>2018-06-25T08:56:53.033Z</time>
      </trkpt>
      <trkpt lat="49.71738" lon="4.81025">
        <ele>244</ele>
        <time>2018-06-25T08:56:54.033Z</time>
      </trkpt>
      <trkpt lat="49.71671" lon="4.81082">
        <ele>242</ele>
        <time>2018-06-25T08:56:55.033Z</time>
      </trkpt>
      <trkpt lat="49.71592" lon="4.81226">
        <ele>243</ele>
        <time>2018-06-25T08:56:56.033Z</time>
      </trkpt>
      <trkpt lat="49.71489" lon="4.81537">
        <ele>236</ele>
        <time>2018-06-25T08:56:57.033Z</time>
      </trkpt>
      <trkpt lat="49.7144" lon="4.81642">
        <ele>234</ele>
        <time>2018-06-25T08:56:58.033Z</time>
      </trkpt>
      <trkpt lat="49.71278" lon="4.81926">
        <ele>242</ele>
        <time>2018-06-25T08:56:59.033Z</time>
      </trkpt>
      <trkpt lat="49.7123" lon="4.82061">
        <ele>242</ele>
        <time>2018-06-25T08:57:00.033Z</time>
      </trkpt>
      <trkpt lat="49.71211" lon="4.8222">
        <ele>239</ele>
        <time>2018-06-25T08:57:01.033Z</time>
      </trkpt>
      <trkpt lat="49.71127" lon="4.82508">
        <ele>244</ele>
        <time>2018-06-25T08:57:02.033Z</time>
      </trkpt>
      <trkpt lat="49.71103" lon="4.8263">
        <ele>244</ele>
        <time>2018-06-25T08:57:03.033Z</time>
      </trkpt>
      <trkpt lat="49.71102" lon="4.82693">
        <ele>242</ele>
        <time>2018-06-25T08:57:04.033Z</time>
      </trkpt>
      <trkpt lat="49.71032" lon="4.82901">
        <ele>239</ele>
        <time>2018-06-25T08:57:05.033Z</time>
      </trkpt>
      <trkpt lat="49.70891" lon="4.8321">
        <ele>238</ele>
        <time>2018-06-25T08:57:06.033Z</time>
      </trkpt>
      <trkpt lat="49.70804" lon="4.83314">
        <ele>236</ele>
        <time>2018-06-25T08:57:07.033Z</time>
      </trkpt>
      <trkpt lat="49.70783" lon="4.83364">
        <ele>236</ele>
        <time>2018-06-25T08:57:08.033Z</time>
      </trkpt>
      <trkpt lat="49.70731" lon="4.83554">
        <ele>233</ele>
        <time>2018-06-25T08:57:09.033Z</time>
      </trkpt>
      <trkpt lat="49.70704" lon="4.83629">
        <ele>230</ele>
        <time>2018-06-25T08:57:10.033Z</time>
      </trkpt>
      <trkpt lat="49.70626" lon="4.83757">
        <ele>219</ele>
        <time>2018-06-25T08:57:11.033Z</time>
      </trkpt>
      <trkpt lat="49.70597" lon="4.83837">
        <ele>212</ele>
        <time>2018-06-25T08:57:12.033Z</time>
      </trkpt>
      <trkpt lat="49.7053" lon="4.84125">
        <ele>191</ele>
        <time>2018-06-25T08:57:13.033Z</time>
      </trkpt>
      <trkpt lat="49.70505" lon="4.84215">
        <ele>184</ele>
        <time>2018-06-25T08:57:14.033Z</time>
      </trkpt>
      <trkpt lat="49.70467" lon="4.84303">
        <ele>177</ele>
        <time>2018-06-25T08:57:15.033Z</time>
      </trkpt>
      <trkpt lat="49.70337" lon="4.84473">
        <ele>160</ele>
        <time>2018-06-25T08:57:16.033Z</time>
      </trkpt>
      <trkpt lat="49.70265" lon="4.84578">
        <ele>154</ele>
        <time>2018-06-25T08:57:17.033Z</time>
      </trkpt>
      <trkpt lat="49.70247" lon="4.84561">
        <ele>153</ele>
        <time>2018-06-25T08:57:18.033Z</time>
      </trkpt>
      <trkpt lat="49.70158" lon="4.84426">
        <ele>153</ele>
        <time>2018-06-25T08:57:19.033Z</time>
      </trkpt>
      <trkpt lat="49.70124" lon="4.84336">
        <ele>152</ele>
        <time>2018-06-25T08:57:20.033Z</time>
      </trkpt>
      <trkpt lat="49.70079" lon="4.84346">
        <ele>150</ele>
        <time>2018-06-25T08:57:21.033Z</time>
      </trkpt>
      <trkpt lat="49.70077" lon="4.84373">
        <ele>149</ele>
        <time>2018-06-25T08:57:22.033Z</time>
      </trkpt>
      <trkpt lat="49.70099" lon="4.84587">
        <ele>149</ele>
        <time>2018-06-25T08:57:23.033Z</time>
      </trkpt>
      <trkpt lat="49.70109" lon="4.84771">
        <ele>148</ele>
        <time>2018-06-25T08:57:24.033Z</time>
      </trkpt>
      <trkpt lat="49.70104" lon="4.84938">
        <ele>147</ele>
        <time>2018-06-25T08:57:25.033Z</time>
      </trkpt>
      <trkpt lat="49.70093" lon="4.85053">
        <ele>148</ele>
        <time>2018-06-25T08:57:26.033Z</time>
      </trkpt>
      <trkpt lat="49.69987" lon="4.85672">
        <ele>148</ele>
        <time>2018-06-25T08:57:27.033Z</time>
      </trkpt>
      <trkpt lat="49.69979" lon="4.8577">
        <ele>149</ele>
        <time>2018-06-25T08:57:28.033Z</time>
      </trkpt>
      <trkpt lat="49.69969" lon="4.86095">
        <ele>148</ele>
        <time>2018-06-25T08:57:29.033Z</time>
      </trkpt>
      <trkpt lat="49.69898" lon="4.8625">
        <ele>149</ele>
        <time>2018-06-25T08:57:30.033Z</time>
      </trkpt>
      <trkpt lat="49.69839" lon="4.86444">
        <ele>149</ele>
        <time>2018-06-25T08:57:31.033Z</time>
      </trkpt>
      <trkpt lat="49.69701" lon="4.86769">
        <ele>149</ele>
        <time>2018-06-25T08:57:32.033Z</time>
      </trkpt>
      <trkpt lat="49.69677" lon="4.86843">
        <ele>149</ele>
        <time>2018-06-25T08:57:33.033Z</time>
      </trkpt>
      <trkpt lat="49.69673" lon="4.86876">
        <ele>149</ele>
        <time>2018-06-25T08:57:34.033Z</time>
      </trkpt>
      <trkpt lat="49.69683" lon="4.86921">
        <ele>150</ele>
        <time>2018-06-25T08:57:35.033Z</time>
      </trkpt>
      <trkpt lat="49.69624" lon="4.86912">
        <ele>149</ele>
        <time>2018-06-25T08:57:36.033Z</time>
      </trkpt>
      <trkpt lat="49.69595" lon="4.8706">
        <ele>150</ele>
        <time>2018-06-25T08:57:37.033Z</time>
      </trkpt>
      <trkpt lat="49.69584" lon="4.87479">
        <ele>151</ele>
        <time>2018-06-25T08:57:38.033Z</time>
      </trkpt>
      <trkpt lat="49.69191" lon="4.87453">
        <ele>154</ele>
        <time>2018-06-25T08:57:39.033Z</time>
      </trkpt>
      <trkpt lat="49.6919" lon="4.87503">
        <ele>155</ele>
        <time>2018-06-25T08:57:40.033Z</time>
      </trkpt>
      <trkpt lat="49.69018" lon="4.8749">
        <ele>176</ele>
        <time>2018-06-25T08:57:41.033Z</time>
      </trkpt>
      <trkpt lat="49.6888" lon="4.87419">
        <ele>196</ele>
        <time>2018-06-25T08:57:42.033Z</time>
      </trkpt>
      <trkpt lat="49.6884" lon="4.87376">
        <ele>200</ele>
        <time>2018-06-25T08:57:43.033Z</time>
      </trkpt>
      <trkpt lat="49.6879" lon="4.87338">
        <ele>207</ele>
        <time>2018-06-25T08:57:44.033Z</time>
      </trkpt>
      <trkpt lat="49.6874" lon="4.87266">
        <ele>218</ele>
        <time>2018-06-25T08:57:45.033Z</time>
      </trkpt>
      <trkpt lat="49.68685" lon="4.87215">
        <ele>230</ele>
        <time>2018-06-25T08:57:46.033Z</time>
      </trkpt>
      <trkpt lat="49.68666" lon="4.87181">
        <ele>235</ele>
        <time>2018-06-25T08:57:47.033Z</time>
      </trkpt>
      <trkpt lat="49.68653" lon="4.87124">
        <ele>241</ele>
        <time>2018-06-25T08:57:48.033Z</time>
      </trkpt>
      <trkpt lat="49.68613" lon="4.87067">
        <ele>252</ele>
        <time>2018-06-25T08:57:49.033Z</time>
      </trkpt>
      <trkpt lat="49.68547" lon="4.87016">
        <ele>261</ele>
        <time>2018-06-25T08:57:50.033Z</time>
      </trkpt>
      <trkpt lat="49.68521" lon="4.87037">
        <ele>264</ele>
        <time>2018-06-25T08:57:51.033Z</time>
      </trkpt>
      <trkpt lat="49.68503" lon="4.871">
        <ele>271</ele>
        <time>2018-06-25T08:57:52.033Z</time>
      </trkpt>
      <trkpt lat="49.68458" lon="4.87189">
        <ele>283</ele>
        <time>2018-06-25T08:57:53.033Z</time>
      </trkpt>
      <trkpt lat="49.68453" lon="4.87302">
        <ele>292</ele>
        <time>2018-06-25T08:57:54.033Z</time>
      </trkpt>
      <trkpt lat="49.68475" lon="4.87499">
        <ele>294</ele>
        <time>2018-06-25T08:57:55.033Z</time>
      </trkpt>
      <trkpt lat="49.68664" lon="4.87808">
        <ele>279</ele>
        <time>2018-06-25T08:57:56.033Z</time>
      </trkpt>
      <trkpt lat="49.68767" lon="4.88049">
        <ele>255</ele>
        <time>2018-06-25T08:57:57.033Z</time>
      </trkpt>
      <trkpt lat="49.68813" lon="4.88238">
        <ele>244</ele>
        <time>2018-06-25T08:57:58.033Z</time>
      </trkpt>
      <trkpt lat="49.68786" lon="4.88365">
        <ele>239</ele>
        <time>2018-06-25T08:57:59.033Z</time>
      </trkpt>
      <trkpt lat="49.6879" lon="4.88503">
        <ele>231</ele>
        <time>2018-06-25T08:58:00.033Z</time>
      </trkpt>
      <trkpt lat="49.68808" lon="4.88632">
        <ele>224</ele>
        <time>2018-06-25T08:58:01.033Z</time>
      </trkpt>
      <trkpt lat="49.68936" lon="4.88632">
        <ele>222</ele>
        <time>2018-06-25T08:58:02.033Z</time>
      </trkpt>
      <trkpt lat="49.68911" lon="4.88787">
        <ele>222</ele>
        <time>2018-06-25T08:58:03.033Z</time>
      </trkpt>
      <trkpt lat="49.68919" lon="4.88907">
        <ele>216</ele>
        <time>2018-06-25T08:58:04.033Z</time>
      </trkpt>
      <trkpt lat="49.68875" lon="4.89014">
        <ele>212</ele>
        <time>2018-06-25T08:58:05.033Z</time>
      </trkpt>
      <trkpt lat="49.6891" lon="4.89228">
        <ele>206</ele>
        <time>2018-06-25T08:58:06.033Z</time>
      </trkpt>
      <trkpt lat="49.68974" lon="4.89359">
        <ele>199</ele>
        <time>2018-06-25T08:58:07.033Z</time>
      </trkpt>
      <trkpt lat="49.6903" lon="4.89562">
        <ele>188</ele>
        <time>2018-06-25T08:58:08.033Z</time>
      </trkpt>
      <trkpt lat="49.68926" lon="4.89733">
        <ele>182</ele>
        <time>2018-06-25T08:58:09.033Z</time>
      </trkpt>
      <trkpt lat="49.68921" lon="4.89751">
        <ele>181</ele>
        <time>2018-06-25T08:58:10.033Z</time>
      </trkpt>
      <trkpt lat="49.68856" lon="4.89847">
        <ele>178</ele>
        <time>2018-06-25T08:58:11.033Z</time>
      </trkpt>
      <trkpt lat="49.6883" lon="4.8996">
        <ele>177</ele>
        <time>2018-06-25T08:58:12.033Z</time>
      </trkpt>
      <trkpt lat="49.68794" lon="4.90044">
        <ele>179</ele>
        <time>2018-06-25T08:58:13.033Z</time>
      </trkpt>
      <trkpt lat="49.68627" lon="4.90138">
        <ele>184</ele>
        <time>2018-06-25T08:58:14.033Z</time>
      </trkpt>
      <trkpt lat="49.68624" lon="4.90157">
        <ele>183</ele>
        <time>2018-06-25T08:58:15.033Z</time>
      </trkpt>
      <trkpt lat="49.68638" lon="4.90221">
        <ele>180</ele>
        <time>2018-06-25T08:58:16.033Z</time>
      </trkpt>
      <trkpt lat="49.68548" lon="4.90267">
        <ele>183</ele>
        <time>2018-06-25T08:58:17.033Z</time>
      </trkpt>
      <trkpt lat="49.68504" lon="4.90308">
        <ele>183</ele>
        <time>2018-06-25T08:58:18.033Z</time>
      </trkpt>
      <trkpt lat="49.68508" lon="4.90353">
        <ele>183</ele>
        <time>2018-06-25T08:58:19.033Z</time>
      </trkpt>
      <trkpt lat="49.68539" lon="4.90456">
        <ele>184</ele>
        <time>2018-06-25T08:58:20.033Z</time>
      </trkpt>
      <trkpt lat="49.68588" lon="4.90664">
        <ele>196</ele>
        <time>2018-06-25T08:58:21.033Z</time>
      </trkpt>
      <trkpt lat="49.68517" lon="4.90768">
        <ele>201</ele>
        <time>2018-06-25T08:58:22.033Z</time>
      </trkpt>
      <trkpt lat="49.68476" lon="4.90801">
        <ele>202</ele>
        <time>2018-06-25T08:58:23.033Z</time>
      </trkpt>
      <trkpt lat="49.68541" lon="4.90885">
        <ele>207</ele>
        <time>2018-06-25T08:58:24.033Z</time>
      </trkpt>
      <trkpt lat="49.68692" lon="4.91119">
        <ele>220</ele>
        <time>2018-06-25T08:58:25.033Z</time>
      </trkpt>
      <trkpt lat="49.68682" lon="4.91107">
        <ele>220</ele>
        <time>2018-06-25T08:58:26.033Z</time>
      </trkpt>
      <trkpt lat="49.6866" lon="4.91179">
        <ele>224</ele>
        <time>2018-06-25T08:58:27.033Z</time>
      </trkpt>
      <trkpt lat="49.68564" lon="4.91382">
        <ele>230</ele>
        <time>2018-06-25T08:58:28.033Z</time>
      </trkpt>
      <trkpt lat="49.68523" lon="4.91515">
        <ele>234</ele>
        <time>2018-06-25T08:58:29.033Z</time>
      </trkpt>
      <trkpt lat="49.68493" lon="4.91705">
        <ele>240</ele>
        <time>2018-06-25T08:58:30.033Z</time>
      </trkpt>
      <trkpt lat="49.68464" lon="4.9179">
        <ele>242</ele>
        <time>2018-06-25T08:58:31.033Z</time>
      </trkpt>
      <trkpt lat="49.68418" lon="4.91863">
        <ele>246</ele>
        <time>2018-06-25T08:58:32.033Z</time>
      </trkpt>
      <trkpt lat="49.68364" lon="4.9203">
        <ele>234</ele>
        <time>2018-06-25T08:58:33.033Z</time>
      </trkpt>
      <trkpt lat="49.68355" lon="4.92085">
        <ele>229</ele>
        <time>2018-06-25T08:58:34.033Z</time>
      </trkpt>
      <trkpt lat="49.68357" lon="4.92322">
        <ele>212</ele>
        <time>2018-06-25T08:58:35.033Z</time>
      </trkpt>
      <trkpt lat="49.68319" lon="4.92471">
        <ele>204</ele>
        <time>2018-06-25T08:58:36.033Z</time>
      </trkpt>
      <trkpt lat="49.68315" lon="4.92544">
        <ele>200</ele>
        <time>2018-06-25T08:58:37.033Z</time>
      </trkpt>
      <trkpt lat="49.68328" lon="4.92608">
        <ele>198</ele>
        <time>2018-06-25T08:58:38.033Z</time>
      </trkpt>
      <trkpt lat="49.68375" lon="4.92738">
        <ele>191</ele>
        <time>2018-06-25T08:58:39.033Z</time>
      </trkpt>
      <trkpt lat="49.68436" lon="4.92836">
        <ele>186</ele>
        <time>2018-06-25T08:58:40.033Z</time>
      </trkpt>
      <trkpt lat="49.68444" lon="4.92863">
        <ele>184</ele>
        <time>2018-06-25T08:58:41.033Z</time>
      </trkpt>
      <trkpt lat="49.68481" lon="4.93225">
        <ele>172</ele>
        <time>2018-06-25T08:58:42.033Z</time>
      </trkpt>
      <trkpt lat="49.68504" lon="4.93301">
        <ele>172</ele>
        <time>2018-06-25T08:58:43.033Z</time>
      </trkpt>
      <trkpt lat="49.68568" lon="4.93446">
        <ele>175</ele>
        <time>2018-06-25T08:58:44.033Z</time>
      </trkpt>
      <trkpt lat="49.68624" lon="4.93532">
        <ele>176</ele>
        <time>2018-06-25T08:58:45.033Z</time>
      </trkpt>
      <trkpt lat="49.687" lon="4.93681">
        <ele>174</ele>
        <time>2018-06-25T08:58:46.033Z</time>
      </trkpt>
      <trkpt lat="49.68696" lon="4.93708">
        <ele>173</ele>
        <time>2018-06-25T08:58:47.033Z</time>
      </trkpt>
      <trkpt lat="49.68658" lon="4.93753">
        <ele>170</ele>
        <time>2018-06-25T08:58:48.033Z</time>
      </trkpt>
      <trkpt lat="49.6865" lon="4.93774">
        <ele>169</ele>
        <time>2018-06-25T08:58:49.033Z</time>
      </trkpt>
      <trkpt lat="49.68644" lon="4.93821">
        <ele>166</ele>
        <time>2018-06-25T08:58:50.033Z</time>
      </trkpt>
      <trkpt lat="49.68648" lon="4.93855">
        <ele>164</ele>
        <time>2018-06-25T08:58:51.033Z</time>
      </trkpt>
      <trkpt lat="49.68698" lon="4.94035">
        <ele>155</ele>
        <time>2018-06-25T08:58:52.033Z</time>
      </trkpt>
      <trkpt lat="49.68683" lon="4.94056">
        <ele>154</ele>
        <time>2018-06-25T08:58:53.033Z</time>
      </trkpt>
      <trkpt lat="49.68707" lon="4.94127">
        <ele>153</ele>
        <time>2018-06-25T08:58:54.033Z</time>
      </trkpt>
      <trkpt lat="49.68762" lon="4.9419">
        <ele>152</ele>
        <time>2018-06-25T08:58:55.033Z</time>
      </trkpt>
      <trkpt lat="49.68755" lon="4.94256">
        <ele>152</ele>
        <time>2018-06-25T08:58:56.033Z</time>
      </trkpt>
      <trkpt lat="49.68768" lon="4.94328">
        <ele>149</ele>
        <time>2018-06-25T08:58:57.033Z</time>
      </trkpt>
      <trkpt lat="49.68583" lon="4.94367">
        <ele>153</ele>
        <time>2018-06-25T08:58:58.033Z</time>
      </trkpt>
      <trkpt lat="49.68553" lon="4.94343">
        <ele>153</ele>
        <time>2018-06-25T08:58:59.033Z</time>
      </trkpt>
      <trkpt lat="49.68513" lon="4.94389">
        <ele>154</ele>
        <time>2018-06-25T08:59:00.033Z</time>
      </trkpt>
      <trkpt lat="49.68409" lon="4.94427">
        <ele>151</ele>
        <time>2018-06-25T08:59:01.033Z</time>
      </trkpt>
      <trkpt lat="49.68169" lon="4.94492">
        <ele>152</ele>
        <time>2018-06-25T08:59:02.033Z</time>
      </trkpt>
      <trkpt lat="49.68066" lon="4.94552">
        <ele>151</ele>
        <time>2018-06-25T08:59:03.033Z</time>
      </trkpt>
      <trkpt lat="49.67959" lon="4.94633">
        <ele>151</ele>
        <time>2018-06-25T08:59:04.033Z</time>
      </trkpt>
      <trkpt lat="49.67676" lon="4.94663">
        <ele>154</ele>
        <time>2018-06-25T08:59:05.033Z</time>
      </trkpt>
      <trkpt lat="49.67493" lon="4.947">
        <ele>156</ele>
        <time>2018-06-25T08:59:06.033Z</time>
      </trkpt>
      <trkpt lat="49.674" lon="4.94764">
        <ele>156</ele>
        <time>2018-06-25T08:59:07.033Z</time>
      </trkpt>
      <trkpt lat="49.67346" lon="4.94839">
        <ele>154</ele>
        <time>2018-06-25T08:59:08.033Z</time>
      </trkpt>
      <trkpt lat="49.67262" lon="4.95249">
        <ele>153</ele>
        <time>2018-06-25T08:59:09.033Z</time>
      </trkpt>
      <trkpt lat="49.67197" lon="4.95489">
        <ele>151</ele>
        <time>2018-06-25T08:59:10.033Z</time>
      </trkpt>
      <trkpt lat="49.67143" lon="4.9559">
        <ele>152</ele>
        <time>2018-06-25T08:59:11.033Z</time>
      </trkpt>
      <trkpt lat="49.67021" lon="4.95697">
        <ele>152</ele>
        <time>2018-06-25T08:59:12.033Z</time>
      </trkpt>
      <trkpt lat="49.66919" lon="4.95843">
        <ele>154</ele>
        <time>2018-06-25T08:59:13.033Z</time>
      </trkpt>
      <trkpt lat="49.66832" lon="4.96047">
        <ele>155</ele>
        <time>2018-06-25T08:59:14.033Z</time>
      </trkpt>
      <trkpt lat="49.66764" lon="4.96277">
        <ele>154</ele>
        <time>2018-06-25T08:59:15.033Z</time>
      </trkpt>
      <trkpt lat="49.66768" lon="4.96376">
        <ele>154</ele>
        <time>2018-06-25T08:59:16.033Z</time>
      </trkpt>
      <trkpt lat="49.66833" lon="4.96717">
        <ele>152</ele>
        <time>2018-06-25T08:59:17.033Z</time>
      </trkpt>
      <trkpt lat="49.66819" lon="4.96828">
        <ele>152</ele>
        <time>2018-06-25T08:59:18.033Z</time>
      </trkpt>
      <trkpt lat="49.66703" lon="4.97034">
        <ele>153</ele>
        <time>2018-06-25T08:59:19.033Z</time>
      </trkpt>
      <trkpt lat="49.66548" lon="4.97403">
        <ele>150</ele>
        <time>2018-06-25T08:59:20.033Z</time>
      </trkpt>
      <trkpt lat="49.66307" lon="4.97867">
        <ele>152</ele>
        <time>2018-06-25T08:59:21.033Z</time>
      </trkpt>
      <trkpt lat="49.6603" lon="4.984">
        <ele>153</ele>
        <time>2018-06-25T08:59:22.033Z</time>
      </trkpt>
      <trkpt lat="49.66014" lon="4.9842">
        <ele>153</ele>
        <time>2018-06-25T08:59:23.033Z</time>
      </trkpt>
      <trkpt lat="49.6597" lon="4.98502">
        <ele>153</ele>
        <time>2018-06-25T08:59:24.033Z</time>
      </trkpt>
      <trkpt lat="49.65953" lon="4.98481">
        <ele>153</ele>
        <time>2018-06-25T08:59:25.033Z</time>
      </trkpt>
      <trkpt lat="49.65909" lon="4.98443">
        <ele>153</ele>
        <time>2018-06-25T08:59:26.033Z</time>
      </trkpt>
      <trkpt lat="49.65873" lon="4.98422">
        <ele>153</ele>
        <time>2018-06-25T08:59:27.033Z</time>
      </trkpt>
      <trkpt lat="49.65843" lon="4.98416">
        <ele>153</ele>
        <time>2018-06-25T08:59:28.033Z</time>
      </trkpt>
      <trkpt lat="49.65773" lon="4.98409">
        <ele>154</ele>
        <time>2018-06-25T08:59:29.033Z</time>
      </trkpt>
      <trkpt lat="49.65377" lon="4.99176">
        <ele>154</ele>
        <time>2018-06-25T08:59:30.033Z</time>
      </trkpt>
      <trkpt lat="49.65291" lon="4.99351">
        <ele>157</ele>
        <time>2018-06-25T08:59:31.033Z</time>
      </trkpt>
      <trkpt lat="49.65278" lon="4.99368">
        <ele>157</ele>
        <time>2018-06-25T08:59:32.033Z</time>
      </trkpt>
      <trkpt lat="49.65272" lon="4.99373">
        <ele>157</ele>
        <time>2018-06-25T08:59:33.033Z</time>
      </trkpt>
      <trkpt lat="49.65262" lon="4.99376">
        <ele>158</ele>
        <time>2018-06-25T08:59:34.033Z</time>
      </trkpt>
      <trkpt lat="49.65253" lon="4.99373">
        <ele>158</ele>
        <time>2018-06-25T08:59:35.033Z</time>
      </trkpt>
      <trkpt lat="49.6521" lon="4.99516">
        <ele>159</ele>
        <time>2018-06-25T08:59:36.033Z</time>
      </trkpt>
      <trkpt lat="49.65128" lon="4.99794">
        <ele>162</ele>
        <time>2018-06-25T08:59:37.033Z</time>
      </trkpt>
      <trkpt lat="49.65118" lon="4.99827">
        <ele>162</ele>
        <time>2018-06-25T08:59:38.033Z</time>
      </trkpt>
      <trkpt lat="49.65136" lon="4.9986">
        <ele>160</ele>
        <time>2018-06-25T08:59:39.033Z</time>
      </trkpt>
      <trkpt lat="49.65157" lon="4.99919">
        <ele>157</ele>
        <time>2018-06-25T08:59:40.033Z</time>
      </trkpt>
      <trkpt lat="49.65168" lon="4.99933">
        <ele>157</ele>
        <time>2018-06-25T08:59:41.033Z</time>
      </trkpt>
      <trkpt lat="49.65175" lon="4.99939">
        <ele>157</ele>
        <time>2018-06-25T08:59:42.033Z</time>
      </trkpt>
      <trkpt lat="49.65184" lon="4.99934">
        <ele>157</ele>
        <time>2018-06-25T08:59:43.033Z</time>
      </trkpt>
      <trkpt lat="49.65193" lon="4.99923">
        <ele>157</ele>
        <time>2018-06-25T08:59:44.033Z</time>
      </trkpt>
      <trkpt lat="49.65202" lon="4.99902">
        <ele>158</ele>
        <time>2018-06-25T08:59:45.033Z</time>
      </trkpt>
      <trkpt lat="49.65213" lon="4.99888">
        <ele>158</ele>
        <time>2018-06-25T08:59:46.033Z</time>
      </trkpt>
      <trkpt lat="49.65244" lon="4.99921">
        <ele>158</ele>
        <time>2018-06-25T08:59:47.033Z</time>
      </trkpt>
      <trkpt lat="49.65365" lon="5.00061">
        <ele>153</ele>
        <time>2018-06-25T08:59:48.033Z</time>
      </trkpt>
      <trkpt lat="49.65407" lon="5.00113">
        <ele>152</ele>
        <time>2018-06-25T08:59:49.033Z</time>
      </trkpt>
      <trkpt lat="49.65439" lon="5.00173">
        <ele>151</ele>
        <time>2018-06-25T08:59:50.033Z</time>
      </trkpt>
      <trkpt lat="49.65593" lon="5.00504">
        <ele>152</ele>
        <time>2018-06-25T08:59:51.033Z</time>
      </trkpt>
      <trkpt lat="49.65629" lon="5.0059">
        <ele>151</ele>
        <time>2018-06-25T08:59:52.033Z</time>
      </trkpt>
      <trkpt lat="49.65642" lon="5.00635">
        <ele>152</ele>
        <time>2018-06-25T08:59:53.033Z</time>
      </trkpt>
      <trkpt lat="49.65683" lon="5.00973">
        <ele>152</ele>
        <time>2018-06-25T08:59:54.033Z</time>
      </trkpt>
      <trkpt lat="49.6569" lon="5.01056">
        <ele>153</ele>
        <time>2018-06-25T08:59:55.033Z</time>
      </trkpt>
      <trkpt lat="49.65727" lon="5.01474">
        <ele>152</ele>
        <time>2018-06-25T08:59:56.033Z</time>
      </trkpt>
      <trkpt lat="49.65745" lon="5.0156">
        <ele>152</ele>
        <time>2018-06-25T08:59:57.033Z</time>
      </trkpt>
      <trkpt lat="49.65779" lon="5.01646">
        <ele>152</ele>
        <time>2018-06-25T08:59:58.033Z</time>
      </trkpt>
      <trkpt lat="49.65551" lon="5.01849">
        <ele>152</ele>
        <time>2018-06-25T08:59:59.033Z</time>
      </trkpt>
      <trkpt lat="49.65555" lon="5.01871">
        <ele>152</ele>
        <time>2018-06-25T09:00:00.033Z</time>
      </trkpt>
      <trkpt lat="49.65513" lon="5.02094">
        <ele>153</ele>
        <time>2018-06-25T09:00:01.033Z</time>
      </trkpt>
      <trkpt lat="49.65455" lon="5.02291">
        <ele>152</ele>
        <time>2018-06-25T09:00:02.033Z</time>
      </trkpt>
      <trkpt lat="49.65384" lon="5.02492">
        <ele>150</ele>
        <time>2018-06-25T09:00:03.033Z</time>
      </trkpt>
      <trkpt lat="49.65364" lon="5.02785">
        <ele>150</ele>
        <time>2018-06-25T09:00:04.033Z</time>
      </trkpt>
      <trkpt lat="49.65329" lon="5.02997">
        <ele>151</ele>
        <time>2018-06-25T09:00:05.033Z</time>
      </trkpt>
      <trkpt lat="49.65245" lon="5.03087">
        <ele>152</ele>
        <time>2018-06-25T09:00:06.033Z</time>
      </trkpt>
      <trkpt lat="49.65208" lon="5.03348">
        <ele>151</ele>
        <time>2018-06-25T09:00:07.033Z</time>
      </trkpt>
      <trkpt lat="49.65189" lon="5.03497">
        <ele>154</ele>
        <time>2018-06-25T09:00:08.033Z</time>
      </trkpt>
      <trkpt lat="49.65133" lon="5.03835">
        <ele>152</ele>
        <time>2018-06-25T09:00:09.033Z</time>
      </trkpt>
      <trkpt lat="49.65118" lon="5.03919">
        <ele>153</ele>
        <time>2018-06-25T09:00:10.033Z</time>
      </trkpt>
      <trkpt lat="49.65092" lon="5.04031">
        <ele>154</ele>
        <time>2018-06-25T09:00:11.033Z</time>
      </trkpt>
      <trkpt lat="49.65086" lon="5.04038">
        <ele>154</ele>
        <time>2018-06-25T09:00:12.033Z</time>
      </trkpt>
      <trkpt lat="49.65073" lon="5.04036">
        <ele>153</ele>
        <time>2018-06-25T09:00:13.033Z</time>
      </trkpt>
      <trkpt lat="49.65023" lon="5.0428">
        <ele>155</ele>
        <time>2018-06-25T09:00:14.033Z</time>
      </trkpt>
      <trkpt lat="49.65023" lon="5.04379">
        <ele>156</ele>
        <time>2018-06-25T09:00:15.033Z</time>
      </trkpt>
      <trkpt lat="49.64984" lon="5.04596">
        <ele>166</ele>
        <time>2018-06-25T09:00:16.033Z</time>
      </trkpt>
      <trkpt lat="49.64977" lon="5.04629">
        <ele>168</ele>
        <time>2018-06-25T09:00:17.033Z</time>
      </trkpt>
      <trkpt lat="49.64906" lon="5.04811">
        <ele>178</ele>
        <time>2018-06-25T09:00:18.033Z</time>
      </trkpt>
      <trkpt lat="49.64888" lon="5.04834">
        <ele>179</ele>
        <time>2018-06-25T09:00:19.033Z</time>
      </trkpt>
      <trkpt lat="49.64866" lon="5.04843">
        <ele>179</ele>
        <time>2018-06-25T09:00:20.033Z</time>
      </trkpt>
      <trkpt lat="49.64821" lon="5.04846">
        <ele>178</ele>
        <time>2018-06-25T09:00:21.033Z</time>
      </trkpt>
      <trkpt lat="49.64778" lon="5.04835">
        <ele>178</ele>
        <time>2018-06-25T09:00:22.033Z</time>
      </trkpt>
      <trkpt lat="49.64617" lon="5.0484">
        <ele>172</ele>
        <time>2018-06-25T09:00:23.033Z</time>
      </trkpt>
      <trkpt lat="49.64578" lon="5.04862">
        <ele>172</ele>
        <time>2018-06-25T09:00:24.033Z</time>
      </trkpt>
      <trkpt lat="49.64522" lon="5.04892">
        <ele>172</ele>
        <time>2018-06-25T09:00:25.033Z</time>
      </trkpt>
      <trkpt lat="49.64517" lon="5.0489">
        <ele>171</ele>
        <time>2018-06-25T09:00:26.033Z</time>
      </trkpt>
      <trkpt lat="49.64511" lon="5.04883">
        <ele>171</ele>
        <time>2018-06-25T09:00:27.033Z</time>
      </trkpt>
      <trkpt lat="49.64364" lon="5.0501">
        <ele>176</ele>
        <time>2018-06-25T09:00:28.033Z</time>
      </trkpt>
      <trkpt lat="49.64193" lon="5.05148">
        <ele>175</ele>
        <time>2018-06-25T09:00:29.033Z</time>
      </trkpt>
      <trkpt lat="49.64145" lon="5.05164">
        <ele>175</ele>
        <time>2018-06-25T09:00:30.033Z</time>
      </trkpt>
      <trkpt lat="49.64085" lon="5.05172">
        <ele>173</ele>
        <time>2018-06-25T09:00:31.033Z</time>
      </trkpt>
      <trkpt lat="49.63943" lon="5.05172">
        <ele>172</ele>
        <time>2018-06-25T09:00:32.033Z</time>
      </trkpt>
      <trkpt lat="49.63719" lon="5.05186">
        <ele>171</ele>
        <time>2018-06-25T09:00:33.033Z</time>
      </trkpt>
      <trkpt lat="49.63525" lon="5.05193">
        <ele>170</ele>
        <time>2018-06-25T09:00:34.033Z</time>
      </trkpt>
      <trkpt lat="49.63355" lon="5.05191">
        <ele>167</ele>
        <time>2018-06-25T09:00:35.033Z</time>
      </trkpt>
      <trkpt lat="49.63211" lon="5.05174">
        <ele>164</ele>
        <time>2018-06-25T09:00:36.033Z</time>
      </trkpt>
      <trkpt lat="49.63207" lon="5.05183">
        <ele>164</ele>
        <time>2018-06-25T09:00:37.033Z</time>
      </trkpt>
      <trkpt lat="49.63128" lon="5.05241">
        <ele>172</ele>
        <time>2018-06-25T09:00:38.033Z</time>
      </trkpt>
      <trkpt lat="49.6301" lon="5.05323">
        <ele>185</ele>
        <time>2018-06-25T09:00:39.033Z</time>
      </trkpt>
      <trkpt lat="49.63002" lon="5.05321">
        <ele>185</ele>
        <time>2018-06-25T09:00:40.033Z</time>
      </trkpt>
      <trkpt lat="49.62997" lon="5.05335">
        <ele>186</ele>
        <time>2018-06-25T09:00:41.033Z</time>
      </trkpt>
      <trkpt lat="49.62862" lon="5.05441">
        <ele>203</ele>
        <time>2018-06-25T09:00:42.033Z</time>
      </trkpt>
      <trkpt lat="49.62851" lon="5.05454">
        <ele>205</ele>
        <time>2018-06-25T09:00:43.033Z</time>
      </trkpt>
      <trkpt lat="49.62817" lon="5.0556">
        <ele>210</ele>
        <time>2018-06-25T09:00:44.033Z</time>
      </trkpt>
      <trkpt lat="49.62802" lon="5.05701">
        <ele>213</ele>
        <time>2018-06-25T09:00:45.033Z</time>
      </trkpt>
      <trkpt lat="49.62799" lon="5.05746">
        <ele>212</ele>
        <time>2018-06-25T09:00:46.033Z</time>
      </trkpt>
      <trkpt lat="49.62798" lon="5.0578">
        <ele>213</ele>
        <time>2018-06-25T09:00:47.033Z</time>
      </trkpt>
      <trkpt lat="49.62803" lon="5.05832">
        <ele>213</ele>
        <time>2018-06-25T09:00:48.033Z</time>
      </trkpt>
      <trkpt lat="49.62809" lon="5.05868">
        <ele>214</ele>
        <time>2018-06-25T09:00:49.033Z</time>
      </trkpt>
      <trkpt lat="49.62853" lon="5.06062">
        <ele>213</ele>
        <time>2018-06-25T09:00:50.033Z</time>
      </trkpt>
      <trkpt lat="49.6287" lon="5.06123">
        <ele>215</ele>
        <time>2018-06-25T09:00:51.033Z</time>
      </trkpt>
      <trkpt lat="49.62875" lon="5.06144">
        <ele>216</ele>
        <time>2018-06-25T09:00:52.033Z</time>
      </trkpt>
      <trkpt lat="49.6288" lon="5.06229">
        <ele>223</ele>
        <time>2018-06-25T09:00:53.033Z</time>
      </trkpt>
      <trkpt lat="49.62877" lon="5.06241">
        <ele>224</ele>
        <time>2018-06-25T09:00:54.033Z</time>
      </trkpt>
      <trkpt lat="49.62879" lon="5.06262">
        <ele>225</ele>
        <time>2018-06-25T09:00:55.033Z</time>
      </trkpt>
      <trkpt lat="49.6288" lon="5.06263">
        <ele>225</ele>
        <time>2018-06-25T09:00:56.033Z</time>
      </trkpt>
      <trkpt lat="49.62881" lon="5.06269">
        <ele>225</ele>
        <time>2018-06-25T09:00:57.033Z</time>
      </trkpt>
      <trkpt lat="49.62888" lon="5.06278">
        <ele>225</ele>
        <time>2018-06-25T09:00:58.033Z</time>
      </trkpt>
      <trkpt lat="49.62897" lon="5.06278">
        <ele>225</ele>
        <time>2018-06-25T09:00:59.033Z</time>
      </trkpt>
      <trkpt lat="49.62906" lon="5.06274">
        <ele>224</ele>
        <time>2018-06-25T09:01:00.033Z</time>
      </trkpt>
      <trkpt lat="49.62908" lon="5.06269">
        <ele>224</ele>
        <time>2018-06-25T09:01:01.033Z</time>
      </trkpt>
      <trkpt lat="49.62971" lon="5.06356">
        <ele>224</ele>
        <time>2018-06-25T09:01:02.033Z</time>
      </trkpt>
      <trkpt lat="49.62979" lon="5.06371">
        <ele>224</ele>
        <time>2018-06-25T09:01:03.033Z</time>
      </trkpt>
      <trkpt lat="49.62999" lon="5.06425">
        <ele>224</ele>
        <time>2018-06-25T09:01:04.033Z</time>
      </trkpt>
      <trkpt lat="49.63006" lon="5.06452">
        <ele>224</ele>
        <time>2018-06-25T09:01:05.033Z</time>
      </trkpt>
      <trkpt lat="49.63008" lon="5.06471">
        <ele>225</ele>
        <time>2018-06-25T09:01:06.033Z</time>
      </trkpt>
      <trkpt lat="49.63004" lon="5.06481">
        <ele>226</ele>
        <time>2018-06-25T09:01:07.033Z</time>
      </trkpt>
      <trkpt lat="49.62961" lon="5.06547">
        <ele>230</ele>
        <time>2018-06-25T09:01:08.033Z</time>
      </trkpt>
      <trkpt lat="49.62958" lon="5.06571">
        <ele>230</ele>
        <time>2018-06-25T09:01:09.033Z</time>
      </trkpt>
      <trkpt lat="49.62961" lon="5.06603">
        <ele>230</ele>
        <time>2018-06-25T09:01:10.033Z</time>
      </trkpt>
      <trkpt lat="49.62992" lon="5.06772">
        <ele>227</ele>
        <time>2018-06-25T09:01:11.033Z</time>
      </trkpt>
      <trkpt lat="49.62994" lon="5.06789">
        <ele>226</ele>
        <time>2018-06-25T09:01:12.033Z</time>
      </trkpt>
      <trkpt lat="49.62992" lon="5.06812">
        <ele>225</ele>
        <time>2018-06-25T09:01:13.033Z</time>
      </trkpt>
      <trkpt lat="49.62993" lon="5.06812">
        <ele>225</ele>
        <time>2018-06-25T09:01:14.033Z</time>
      </trkpt>
      <trkpt lat="49.62988" lon="5.06882">
        <ele>225</ele>
        <time>2018-06-25T09:01:15.033Z</time>
      </trkpt>
      <trkpt lat="49.62987" lon="5.06943">
        <ele>225</ele>
        <time>2018-06-25T09:01:16.033Z</time>
      </trkpt>
      <trkpt lat="49.62981" lon="5.07022">
        <ele>228</ele>
        <time>2018-06-25T09:01:17.033Z</time>
      </trkpt>
      <trkpt lat="49.62991" lon="5.07073">
        <ele>228</ele>
        <time>2018-06-25T09:01:18.033Z</time>
      </trkpt>
      <trkpt lat="49.63007" lon="5.07132">
        <ele>230</ele>
        <time>2018-06-25T09:01:19.033Z</time>
      </trkpt>
      <trkpt lat="49.63055" lon="5.07184">
        <ele>231</ele>
        <time>2018-06-25T09:01:20.033Z</time>
      </trkpt>
      <trkpt lat="49.63132" lon="5.07202">
        <ele>232</ele>
        <time>2018-06-25T09:01:21.033Z</time>
      </trkpt>
      <trkpt lat="49.63183" lon="5.07229">
        <ele>237</ele>
        <time>2018-06-25T09:01:22.033Z</time>
      </trkpt>
      <trkpt lat="49.63209" lon="5.07243">
        <ele>239</ele>
        <time>2018-06-25T09:01:23.033Z</time>
      </trkpt>
      <trkpt lat="49.6325" lon="5.07289">
        <ele>244</ele>
        <time>2018-06-25T09:01:24.033Z</time>
      </trkpt>
      <trkpt lat="49.63349" lon="5.07387">
        <ele>256</ele>
        <time>2018-06-25T09:01:25.033Z</time>
      </trkpt>
      <trkpt lat="49.63364" lon="5.07412">
        <ele>257</ele>
        <time>2018-06-25T09:01:26.033Z</time>
      </trkpt>
      <trkpt lat="49.63367" lon="5.07431">
        <ele>258</ele>
        <time>2018-06-25T09:01:27.033Z</time>
      </trkpt>
      <trkpt lat="49.63358" lon="5.07474">
        <ele>259</ele>
        <time>2018-06-25T09:01:28.033Z</time>
      </trkpt>
      <trkpt lat="49.63271" lon="5.07728">
        <ele>265</ele>
        <time>2018-06-25T09:01:29.033Z</time>
      </trkpt>
      <trkpt lat="49.63163" lon="5.07913">
        <ele>269</ele>
        <time>2018-06-25T09:01:30.033Z</time>
      </trkpt>
      <trkpt lat="49.63083" lon="5.08082">
        <ele>273</ele>
        <time>2018-06-25T09:01:31.033Z</time>
      </trkpt>
      <trkpt lat="49.63069" lon="5.08131">
        <ele>275</ele>
        <time>2018-06-25T09:01:32.033Z</time>
      </trkpt>
      <trkpt lat="49.63056" lon="5.08247">
        <ele>273</ele>
        <time>2018-06-25T09:01:33.033Z</time>
      </trkpt>
      <trkpt lat="49.63049" lon="5.08356">
        <ele>274</ele>
        <time>2018-06-25T09:01:34.033Z</time>
      </trkpt>
      <trkpt lat="49.63039" lon="5.0851">
        <ele>277</ele>
        <time>2018-06-25T09:01:35.033Z</time>
      </trkpt>
      <trkpt lat="49.63046" lon="5.08731">
        <ele>274</ele>
        <time>2018-06-25T09:01:36.033Z</time>
      </trkpt>
      <trkpt lat="49.63041" lon="5.0876">
        <ele>274</ele>
        <time>2018-06-25T09:01:37.033Z</time>
      </trkpt>
      <trkpt lat="49.6303" lon="5.08791">
        <ele>273</ele>
        <time>2018-06-25T09:01:38.033Z</time>
      </trkpt>
      <trkpt lat="49.62941" lon="5.08964">
        <ele>266</ele>
        <time>2018-06-25T09:01:39.033Z</time>
      </trkpt>
      <trkpt lat="49.6292" lon="5.09009">
        <ele>265</ele>
        <time>2018-06-25T09:01:40.033Z</time>
      </trkpt>
      <trkpt lat="49.62882" lon="5.09119">
        <ele>272</ele>
        <time>2018-06-25T09:01:41.033Z</time>
      </trkpt>
      <trkpt lat="49.62835" lon="5.0928">
        <ele>271</ele>
        <time>2018-06-25T09:01:42.033Z</time>
      </trkpt>
      <trkpt lat="49.6279" lon="5.09479">
        <ele>261</ele>
        <time>2018-06-25T09:01:43.033Z</time>
      </trkpt>
      <trkpt lat="49.62775" lon="5.09526">
        <ele>259</ele>
        <time>2018-06-25T09:01:44.033Z</time>
      </trkpt>
      <trkpt lat="49.6275" lon="5.09558">
        <ele>258</ele>
        <time>2018-06-25T09:01:45.033Z</time>
      </trkpt>
      <trkpt lat="49.62723" lon="5.09638">
        <ele>251</ele>
        <time>2018-06-25T09:01:46.033Z</time>
      </trkpt>
      <trkpt lat="49.62715" lon="5.09665">
        <ele>249</ele>
        <time>2018-06-25T09:01:47.033Z</time>
      </trkpt>
      <trkpt lat="49.62712" lon="5.09696">
        <ele>247</ele>
        <time>2018-06-25T09:01:48.033Z</time>
      </trkpt>
      <trkpt lat="49.6271" lon="5.09747">
        <ele>245</ele>
        <time>2018-06-25T09:01:49.033Z</time>
      </trkpt>
      <trkpt lat="49.62711" lon="5.09747">
        <ele>245</ele>
        <time>2018-06-25T09:01:50.033Z</time>
      </trkpt>
      <trkpt lat="49.6271" lon="5.09805">
        <ele>244</ele>
        <time>2018-06-25T09:01:51.033Z</time>
      </trkpt>
      <trkpt lat="49.62705" lon="5.09883">
        <ele>243</ele>
        <time>2018-06-25T09:01:52.033Z</time>
      </trkpt>
      <trkpt lat="49.62706" lon="5.09921">
        <ele>243</ele>
        <time>2018-06-25T09:01:53.033Z</time>
      </trkpt>
      <trkpt lat="49.62721" lon="5.10023">
        <ele>248</ele>
        <time>2018-06-25T09:01:54.033Z</time>
      </trkpt>
      <trkpt lat="49.62722" lon="5.10063">
        <ele>250</ele>
        <time>2018-06-25T09:01:55.033Z</time>
      </trkpt>
      <trkpt lat="49.62704" lon="5.10244">
        <ele>253</ele>
        <time>2018-06-25T09:01:56.033Z</time>
      </trkpt>
      <trkpt lat="49.62704" lon="5.10305">
        <ele>251</ele>
        <time>2018-06-25T09:01:57.033Z</time>
      </trkpt>
      <trkpt lat="49.62707" lon="5.10373">
        <ele>248</ele>
        <time>2018-06-25T09:01:58.033Z</time>
      </trkpt>
      <trkpt lat="49.62728" lon="5.10469">
        <ele>239</ele>
        <time>2018-06-25T09:01:59.033Z</time>
      </trkpt>
      <trkpt lat="49.62751" lon="5.10553">
        <ele>234</ele>
        <time>2018-06-25T09:02:00.033Z</time>
      </trkpt>
      <trkpt lat="49.62782" lon="5.10711">
        <ele>224</ele>
        <time>2018-06-25T09:02:01.033Z</time>
      </trkpt>
      <trkpt lat="49.62803" lon="5.10862">
        <ele>220</ele>
        <time>2018-06-25T09:02:02.033Z</time>
      </trkpt>
      <trkpt lat="49.62805" lon="5.10916">
        <ele>219</ele>
        <time>2018-06-25T09:02:03.033Z</time>
      </trkpt>
      <trkpt lat="49.62796" lon="5.10993">
        <ele>218</ele>
        <time>2018-06-25T09:02:04.033Z</time>
      </trkpt>
      <trkpt lat="49.62773" lon="5.11071">
        <ele>218</ele>
        <time>2018-06-25T09:02:05.033Z</time>
      </trkpt>
      <trkpt lat="49.62767" lon="5.11193">
        <ele>214</ele>
        <time>2018-06-25T09:02:06.033Z</time>
      </trkpt>
      <trkpt lat="49.62765" lon="5.11297">
        <ele>212</ele>
        <time>2018-06-25T09:02:07.033Z</time>
      </trkpt>
      <trkpt lat="49.62768" lon="5.11347">
        <ele>211</ele>
        <time>2018-06-25T09:02:08.033Z</time>
      </trkpt>
      <trkpt lat="49.62768" lon="5.1142">
        <ele>210</ele>
        <time>2018-06-25T09:02:09.033Z</time>
      </trkpt>
      <trkpt lat="49.62771" lon="5.11486">
        <ele>210</ele>
        <time>2018-06-25T09:02:10.033Z</time>
      </trkpt>
      <trkpt lat="49.6278" lon="5.11552">
        <ele>208</ele>
        <time>2018-06-25T09:02:11.033Z</time>
      </trkpt>
      <trkpt lat="49.62808" lon="5.11646">
        <ele>205</ele>
        <time>2018-06-25T09:02:12.033Z</time>
      </trkpt>
      <trkpt lat="49.62814" lon="5.11677">
        <ele>204</ele>
        <time>2018-06-25T09:02:13.033Z</time>
      </trkpt>
      <trkpt lat="49.62813" lon="5.11677">
        <ele>204</ele>
        <time>2018-06-25T09:02:14.033Z</time>
      </trkpt>
      <trkpt lat="49.62817" lon="5.11697">
        <ele>203</ele>
        <time>2018-06-25T09:02:15.033Z</time>
      </trkpt>
      <trkpt lat="49.62833" lon="5.11753">
        <ele>201</ele>
        <time>2018-06-25T09:02:16.033Z</time>
      </trkpt>
      <trkpt lat="49.62859" lon="5.11805">
        <ele>203</ele>
        <time>2018-06-25T09:02:17.033Z</time>
      </trkpt>
      <trkpt lat="49.62868" lon="5.1183">
        <ele>203</ele>
        <time>2018-06-25T09:02:18.033Z</time>
      </trkpt>
      <trkpt lat="49.62902" lon="5.12005">
        <ele>204</ele>
        <time>2018-06-25T09:02:19.033Z</time>
      </trkpt>
      <trkpt lat="49.62939" lon="5.12156">
        <ele>200</ele>
        <time>2018-06-25T09:02:20.033Z</time>
      </trkpt>
      <trkpt lat="49.62987" lon="5.12275">
        <ele>198</ele>
        <time>2018-06-25T09:02:21.033Z</time>
      </trkpt>
      <trkpt lat="49.63034" lon="5.12383">
        <ele>196</ele>
        <time>2018-06-25T09:02:22.033Z</time>
      </trkpt>
      <trkpt lat="49.63042" lon="5.12413">
        <ele>196</ele>
        <time>2018-06-25T09:02:23.033Z</time>
      </trkpt>
      <trkpt lat="49.63021" lon="5.1244">
        <ele>195</ele>
        <time>2018-06-25T09:02:24.033Z</time>
      </trkpt>
      <trkpt lat="49.62983" lon="5.12468">
        <ele>193</ele>
        <time>2018-06-25T09:02:25.033Z</time>
      </trkpt>
      <trkpt lat="49.62943" lon="5.12504">
        <ele>189</ele>
        <time>2018-06-25T09:02:26.033Z</time>
      </trkpt>
      <trkpt lat="49.62924" lon="5.12531">
        <ele>187</ele>
        <time>2018-06-25T09:02:27.033Z</time>
      </trkpt>
      <trkpt lat="49.62893" lon="5.12583">
        <ele>183</ele>
        <time>2018-06-25T09:02:28.033Z</time>
      </trkpt>
      <trkpt lat="49.62863" lon="5.12616">
        <ele>180</ele>
        <time>2018-06-25T09:02:29.033Z</time>
      </trkpt>
      <trkpt lat="49.62841" lon="5.12645">
        <ele>179</ele>
        <time>2018-06-25T09:02:30.033Z</time>
      </trkpt>
      <trkpt lat="49.62775" lon="5.12747">
        <ele>172</ele>
        <time>2018-06-25T09:02:31.033Z</time>
      </trkpt>
      <trkpt lat="49.62755" lon="5.12797">
        <ele>170</ele>
        <time>2018-06-25T09:02:32.033Z</time>
      </trkpt>
      <trkpt lat="49.62736" lon="5.12859">
        <ele>169</ele>
        <time>2018-06-25T09:02:33.033Z</time>
      </trkpt>
      <trkpt lat="49.6271" lon="5.12968">
        <ele>167</ele>
        <time>2018-06-25T09:02:34.033Z</time>
      </trkpt>
      <trkpt lat="49.62698" lon="5.13029">
        <ele>168</ele>
        <time>2018-06-25T09:02:35.033Z</time>
      </trkpt>
      <trkpt lat="49.627" lon="5.1305">
        <ele>168</ele>
        <time>2018-06-25T09:02:36.033Z</time>
      </trkpt>
      <trkpt lat="49.6276" lon="5.13206">
        <ele>168</ele>
        <time>2018-06-25T09:02:37.033Z</time>
      </trkpt>
      <trkpt lat="49.62782" lon="5.13287">
        <ele>169</ele>
        <time>2018-06-25T09:02:38.033Z</time>
      </trkpt>
      <trkpt lat="49.62792" lon="5.13344">
        <ele>170</ele>
        <time>2018-06-25T09:02:39.033Z</time>
      </trkpt>
      <trkpt lat="49.62804" lon="5.13432">
        <ele>170</ele>
        <time>2018-06-25T09:02:40.033Z</time>
      </trkpt>
      <trkpt lat="49.62852" lon="5.13541">
        <ele>165</ele>
        <time>2018-06-25T09:02:41.033Z</time>
      </trkpt>
      <trkpt lat="49.62855" lon="5.13559">
        <ele>165</ele>
        <time>2018-06-25T09:02:42.033Z</time>
      </trkpt>
      <trkpt lat="49.62854" lon="5.13578">
        <ele>164</ele>
        <time>2018-06-25T09:02:43.033Z</time>
      </trkpt>
      <trkpt lat="49.6285" lon="5.13595">
        <ele>164</ele>
        <time>2018-06-25T09:02:44.033Z</time>
      </trkpt>
      <trkpt lat="49.62841" lon="5.1361">
        <ele>164</ele>
        <time>2018-06-25T09:02:45.033Z</time>
      </trkpt>
      <trkpt lat="49.62818" lon="5.13643">
        <ele>163</ele>
        <time>2018-06-25T09:02:46.033Z</time>
      </trkpt>
      <trkpt lat="49.62781" lon="5.13682">
        <ele>162</ele>
        <time>2018-06-25T09:02:47.033Z</time>
      </trkpt>
      <trkpt lat="49.62728" lon="5.13725">
        <ele>161</ele>
        <time>2018-06-25T09:02:48.033Z</time>
      </trkpt>
      <trkpt lat="49.62729" lon="5.13726">
        <ele>161</ele>
        <time>2018-06-25T09:02:49.033Z</time>
      </trkpt>
      <trkpt lat="49.62701" lon="5.13749">
        <ele>161</ele>
        <time>2018-06-25T09:02:50.033Z</time>
      </trkpt>
      <trkpt lat="49.62553" lon="5.13822">
        <ele>162</ele>
        <time>2018-06-25T09:02:51.033Z</time>
      </trkpt>
      <trkpt lat="49.62529" lon="5.13838">
        <ele>162</ele>
        <time>2018-06-25T09:02:52.033Z</time>
      </trkpt>
      <trkpt lat="49.62511" lon="5.13854">
        <ele>161</ele>
        <time>2018-06-25T09:02:53.033Z</time>
      </trkpt>
      <trkpt lat="49.62496" lon="5.13877">
        <ele>161</ele>
        <time>2018-06-25T09:02:54.033Z</time>
      </trkpt>
      <trkpt lat="49.62442" lon="5.13975">
        <ele>161</ele>
        <time>2018-06-25T09:02:55.033Z</time>
      </trkpt>
      <trkpt lat="49.62418" lon="5.14041">
        <ele>160</ele>
        <time>2018-06-25T09:02:56.033Z</time>
      </trkpt>
      <trkpt lat="49.62405" lon="5.14083">
        <ele>160</ele>
        <time>2018-06-25T09:02:57.033Z</time>
      </trkpt>
      <trkpt lat="49.62378" lon="5.14188">
        <ele>160</ele>
        <time>2018-06-25T09:02:58.033Z</time>
      </trkpt>
      <trkpt lat="49.62368" lon="5.1421">
        <ele>160</ele>
        <time>2018-06-25T09:02:59.033Z</time>
      </trkpt>
      <trkpt lat="49.62358" lon="5.14222">
        <ele>160</ele>
        <time>2018-06-25T09:03:00.033Z</time>
      </trkpt>
      <trkpt lat="49.62347" lon="5.14213">
        <ele>160</ele>
        <time>2018-06-25T09:03:01.033Z</time>
      </trkpt>
      <trkpt lat="49.62326" lon="5.14207">
        <ele>160</ele>
        <time>2018-06-25T09:03:02.033Z</time>
      </trkpt>
      <trkpt lat="49.62316" lon="5.14219">
        <ele>160</ele>
        <time>2018-06-25T09:03:03.033Z</time>
      </trkpt>
      <trkpt lat="49.62283" lon="5.14284">
        <ele>160</ele>
        <time>2018-06-25T09:03:04.033Z</time>
      </trkpt>
      <trkpt lat="49.62119" lon="5.14595">
        <ele>163</ele>
        <time>2018-06-25T09:03:05.033Z</time>
      </trkpt>
      <trkpt lat="49.62097" lon="5.14656">
        <ele>163</ele>
        <time>2018-06-25T09:03:06.033Z</time>
      </trkpt>
      <trkpt lat="49.62067" lon="5.14779">
        <ele>162</ele>
        <time>2018-06-25T09:03:07.033Z</time>
      </trkpt>
      <trkpt lat="49.62029" lon="5.14909">
        <ele>160</ele>
        <time>2018-06-25T09:03:08.033Z</time>
      </trkpt>
      <trkpt lat="49.62003" lon="5.14988">
        <ele>160</ele>
        <time>2018-06-25T09:03:09.033Z</time>
      </trkpt>
      <trkpt lat="49.61987" lon="5.15029">
        <ele>160</ele>
        <time>2018-06-25T09:03:10.033Z</time>
      </trkpt>
      <trkpt lat="49.61857" lon="5.1529">
        <ele>159</ele>
        <time>2018-06-25T09:03:11.033Z</time>
      </trkpt>
      <trkpt lat="49.61767" lon="5.15494">
        <ele>162</ele>
        <time>2018-06-25T09:03:12.033Z</time>
      </trkpt>
      <trkpt lat="49.61712" lon="5.15621">
        <ele>161</ele>
        <time>2018-06-25T09:03:13.033Z</time>
      </trkpt>
      <trkpt lat="49.61627" lon="5.15842">
        <ele>160</ele>
        <time>2018-06-25T09:03:14.033Z</time>
      </trkpt>
      <trkpt lat="49.61619" lon="5.15856">
        <ele>160</ele>
        <time>2018-06-25T09:03:15.033Z</time>
      </trkpt>
      <trkpt lat="49.61605" lon="5.15865">
        <ele>160</ele>
        <time>2018-06-25T09:03:16.033Z</time>
      </trkpt>
      <trkpt lat="49.61587" lon="5.15863">
        <ele>159</ele>
        <time>2018-06-25T09:03:17.033Z</time>
      </trkpt>
      <trkpt lat="49.61495" lon="5.15832">
        <ele>160</ele>
        <time>2018-06-25T09:03:18.033Z</time>
      </trkpt>
      <trkpt lat="49.61477" lon="5.15832">
        <ele>161</ele>
        <time>2018-06-25T09:03:19.033Z</time>
      </trkpt>
      <trkpt lat="49.61469" lon="5.15839">
        <ele>161</ele>
        <time>2018-06-25T09:03:20.033Z</time>
      </trkpt>
      <trkpt lat="49.61461" lon="5.15849">
        <ele>161</ele>
        <time>2018-06-25T09:03:21.033Z</time>
      </trkpt>
      <trkpt lat="49.61451" lon="5.15875">
        <ele>161</ele>
        <time>2018-06-25T09:03:22.033Z</time>
      </trkpt>
      <trkpt lat="49.61333" lon="5.16236">
        <ele>162</ele>
        <time>2018-06-25T09:03:23.033Z</time>
      </trkpt>
      <trkpt lat="49.61306" lon="5.16326">
        <ele>162</ele>
        <time>2018-06-25T09:03:24.033Z</time>
      </trkpt>
      <trkpt lat="49.61289" lon="5.16364">
        <ele>162</ele>
        <time>2018-06-25T09:03:25.033Z</time>
      </trkpt>
      <trkpt lat="49.61227" lon="5.16494">
        <ele>162</ele>
        <time>2018-06-25T09:03:26.033Z</time>
      </trkpt>
      <trkpt lat="49.6122" lon="5.16512">
        <ele>162</ele>
        <time>2018-06-25T09:03:27.033Z</time>
      </trkpt>
      <trkpt lat="49.61218" lon="5.16531">
        <ele>163</ele>
        <time>2018-06-25T09:03:28.033Z</time>
      </trkpt>
      <trkpt lat="49.61219" lon="5.16551">
        <ele>163</ele>
        <time>2018-06-25T09:03:29.033Z</time>
      </trkpt>
      <trkpt lat="49.61236" lon="5.16619">
        <ele>162</ele>
        <time>2018-06-25T09:03:30.033Z</time>
      </trkpt>
      <trkpt lat="49.61239" lon="5.16644">
        <ele>162</ele>
        <time>2018-06-25T09:03:31.033Z</time>
      </trkpt>
      <trkpt lat="49.61236" lon="5.16666">
        <ele>162</ele>
        <time>2018-06-25T09:03:32.033Z</time>
      </trkpt>
      <trkpt lat="49.61223" lon="5.16717">
        <ele>162</ele>
        <time>2018-06-25T09:03:33.033Z</time>
      </trkpt>
      <trkpt lat="49.6122" lon="5.16741">
        <ele>162</ele>
        <time>2018-06-25T09:03:34.033Z</time>
      </trkpt>
      <trkpt lat="49.61212" lon="5.16755">
        <ele>162</ele>
        <time>2018-06-25T09:03:35.033Z</time>
      </trkpt>
      <trkpt lat="49.61202" lon="5.16775">
        <ele>163</ele>
        <time>2018-06-25T09:03:36.033Z</time>
      </trkpt>
      <trkpt lat="49.61188" lon="5.16815">
        <ele>163</ele>
        <time>2018-06-25T09:03:37.033Z</time>
      </trkpt>
      <trkpt lat="49.61182" lon="5.16862">
        <ele>163</ele>
        <time>2018-06-25T09:03:38.033Z</time>
      </trkpt>
      <trkpt lat="49.61165" lon="5.17118">
        <ele>162</ele>
        <time>2018-06-25T09:03:39.033Z</time>
      </trkpt>
      <trkpt lat="49.61158" lon="5.17247">
        <ele>164</ele>
        <time>2018-06-25T09:03:40.033Z</time>
      </trkpt>
      <trkpt lat="49.61122" lon="5.1731">
        <ele>163</ele>
        <time>2018-06-25T09:03:41.033Z</time>
      </trkpt>
      <trkpt lat="49.61104" lon="5.17386">
        <ele>163</ele>
        <time>2018-06-25T09:03:42.033Z</time>
      </trkpt>
      <trkpt lat="49.6109" lon="5.17439">
        <ele>164</ele>
        <time>2018-06-25T09:03:43.033Z</time>
      </trkpt>
      <trkpt lat="49.61033" lon="5.17538">
        <ele>165</ele>
        <time>2018-06-25T09:03:44.033Z</time>
      </trkpt>
      <trkpt lat="49.60997" lon="5.17629">
        <ele>164</ele>
        <time>2018-06-25T09:03:45.033Z</time>
      </trkpt>
      <trkpt lat="49.60958" lon="5.17646">
        <ele>164</ele>
        <time>2018-06-25T09:03:46.033Z</time>
      </trkpt>
      <trkpt lat="49.60915" lon="5.17679">
        <ele>164</ele>
        <time>2018-06-25T09:03:47.033Z</time>
      </trkpt>
      <trkpt lat="49.6088" lon="5.17711">
        <ele>165</ele>
        <time>2018-06-25T09:03:48.033Z</time>
      </trkpt>
      <trkpt lat="49.60858" lon="5.17737">
        <ele>164</ele>
        <time>2018-06-25T09:03:49.033Z</time>
      </trkpt>
      <trkpt lat="49.60844" lon="5.17744">
        <ele>164</ele>
        <time>2018-06-25T09:03:50.033Z</time>
      </trkpt>
      <trkpt lat="49.60789" lon="5.17784">
        <ele>164</ele>
        <time>2018-06-25T09:03:51.033Z</time>
      </trkpt>
      <trkpt lat="49.60743" lon="5.17829">
        <ele>164</ele>
        <time>2018-06-25T09:03:52.033Z</time>
      </trkpt>
      <trkpt lat="49.60613" lon="5.17988">
        <ele>163</ele>
        <time>2018-06-25T09:03:53.033Z</time>
      </trkpt>
      <trkpt lat="49.60508" lon="5.18132">
        <ele>165</ele>
        <time>2018-06-25T09:03:54.033Z</time>
      </trkpt>
      <trkpt lat="49.6044" lon="5.18255">
        <ele>165</ele>
        <time>2018-06-25T09:03:55.033Z</time>
      </trkpt>
      <trkpt lat="49.60407" lon="5.18304">
        <ele>165</ele>
        <time>2018-06-25T09:03:56.033Z</time>
      </trkpt>
      <trkpt lat="49.60379" lon="5.18361">
        <ele>164</ele>
        <time>2018-06-25T09:03:57.033Z</time>
      </trkpt>
      <trkpt lat="49.60363" lon="5.18404">
        <ele>164</ele>
        <time>2018-06-25T09:03:58.033Z</time>
      </trkpt>
      <trkpt lat="49.60351" lon="5.18451">
        <ele>164</ele>
        <time>2018-06-25T09:03:59.033Z</time>
      </trkpt>
      <trkpt lat="49.60325" lon="5.1857">
        <ele>163</ele>
        <time>2018-06-25T09:04:00.033Z</time>
      </trkpt>
      <trkpt lat="49.60303" lon="5.18654">
        <ele>164</ele>
        <time>2018-06-25T09:04:01.033Z</time>
      </trkpt>
      <trkpt lat="49.6029" lon="5.18674">
        <ele>164</ele>
        <time>2018-06-25T09:04:02.033Z</time>
      </trkpt>
      <trkpt lat="49.60273" lon="5.18679">
        <ele>164</ele>
        <time>2018-06-25T09:04:03.033Z</time>
      </trkpt>
      <trkpt lat="49.5933" lon="5.18283">
        <ele>230</ele>
        <time>2018-06-25T09:04:04.033Z</time>
      </trkpt>
      <trkpt lat="49.59288" lon="5.18379">
        <ele>235</ele>
        <time>2018-06-25T09:04:05.033Z</time>
      </trkpt>
      <trkpt lat="49.59223" lon="5.18574">
        <ele>234</ele>
        <time>2018-06-25T09:04:06.033Z</time>
      </trkpt>
      <trkpt lat="49.59188" lon="5.18684">
        <ele>236</ele>
        <time>2018-06-25T09:04:07.033Z</time>
      </trkpt>
      <trkpt lat="49.59164" lon="5.18749">
        <ele>237</ele>
        <time>2018-06-25T09:04:08.033Z</time>
      </trkpt>
      <trkpt lat="49.59032" lon="5.18905">
        <ele>248</ele>
        <time>2018-06-25T09:04:09.033Z</time>
      </trkpt>
      <trkpt lat="49.58948" lon="5.19032">
        <ele>252</ele>
        <time>2018-06-25T09:04:10.033Z</time>
      </trkpt>
      <trkpt lat="49.58864" lon="5.19141">
        <ele>248</ele>
        <time>2018-06-25T09:04:11.033Z</time>
      </trkpt>
      <trkpt lat="49.58788" lon="5.19222">
        <ele>245</ele>
        <time>2018-06-25T09:04:12.033Z</time>
      </trkpt>
      <trkpt lat="49.5874" lon="5.19259">
        <ele>242</ele>
        <time>2018-06-25T09:04:13.033Z</time>
      </trkpt>
      <trkpt lat="49.58687" lon="5.19288">
        <ele>240</ele>
        <time>2018-06-25T09:04:14.033Z</time>
      </trkpt>
      <trkpt lat="49.58642" lon="5.19299">
        <ele>238</ele>
        <time>2018-06-25T09:04:15.033Z</time>
      </trkpt>
      <trkpt lat="49.58593" lon="5.19292">
        <ele>237</ele>
        <time>2018-06-25T09:04:16.033Z</time>
      </trkpt>
      <trkpt lat="49.58538" lon="5.19272">
        <ele>236</ele>
        <time>2018-06-25T09:04:17.033Z</time>
      </trkpt>
      <trkpt lat="49.58497" lon="5.19246">
        <ele>235</ele>
        <time>2018-06-25T09:04:18.033Z</time>
      </trkpt>
      <trkpt lat="49.58464" lon="5.19208">
        <ele>235</ele>
        <time>2018-06-25T09:04:19.033Z</time>
      </trkpt>
      <trkpt lat="49.58441" lon="5.19194">
        <ele>233</ele>
        <time>2018-06-25T09:04:20.033Z</time>
      </trkpt>
      <trkpt lat="49.58416" lon="5.19202">
        <ele>230</ele>
        <time>2018-06-25T09:04:21.033Z</time>
      </trkpt>
      <trkpt lat="49.58128" lon="5.1936">
        <ele>203</ele>
        <time>2018-06-25T09:04:22.033Z</time>
      </trkpt>
      <trkpt lat="49.58023" lon="5.19422">
        <ele>193</ele>
        <time>2018-06-25T09:04:23.033Z</time>
      </trkpt>
      <trkpt lat="49.5799" lon="5.19453">
        <ele>190</ele>
        <time>2018-06-25T09:04:24.033Z</time>
      </trkpt>
      <trkpt lat="49.5795" lon="5.19505">
        <ele>188</ele>
        <time>2018-06-25T09:04:25.033Z</time>
      </trkpt>
      <trkpt lat="49.57925" lon="5.19533">
        <ele>187</ele>
        <time>2018-06-25T09:04:26.033Z</time>
      </trkpt>
      <trkpt lat="49.5794" lon="5.19553">
        <ele>187</ele>
        <time>2018-06-25T09:04:27.033Z</time>
      </trkpt>
      <trkpt lat="49.57995" lon="5.1964">
        <ele>186</ele>
        <time>2018-06-25T09:04:28.033Z</time>
      </trkpt>
      <trkpt lat="49.58036" lon="5.19752">
        <ele>185</ele>
        <time>2018-06-25T09:04:29.033Z</time>
      </trkpt>
      <trkpt lat="49.58126" lon="5.19908">
        <ele>185</ele>
        <time>2018-06-25T09:04:30.033Z</time>
      </trkpt>
      <trkpt lat="49.58144" lon="5.19961">
        <ele>184</ele>
        <time>2018-06-25T09:04:31.033Z</time>
      </trkpt>
      <trkpt lat="49.5818" lon="5.20134">
        <ele>184</ele>
        <time>2018-06-25T09:04:32.033Z</time>
      </trkpt>
      <trkpt lat="49.58188" lon="5.20217">
        <ele>185</ele>
        <time>2018-06-25T09:04:33.033Z</time>
      </trkpt>
      <trkpt lat="49.58201" lon="5.20244">
        <ele>185</ele>
        <time>2018-06-25T09:04:34.033Z</time>
      </trkpt>
      <trkpt lat="49.58207" lon="5.20274">
        <ele>186</ele>
        <time>2018-06-25T09:04:35.033Z</time>
      </trkpt>
      <trkpt lat="49.58219" lon="5.2031">
        <ele>187</ele>
        <time>2018-06-25T09:04:36.033Z</time>
      </trkpt>
      <trkpt lat="49.58227" lon="5.2034">
        <ele>188</ele>
        <time>2018-06-25T09:04:37.033Z</time>
      </trkpt>
      <trkpt lat="49.58228" lon="5.20373">
        <ele>190</ele>
        <time>2018-06-25T09:04:38.033Z</time>
      </trkpt>
      <trkpt lat="49.5822" lon="5.20429">
        <ele>193</ele>
        <time>2018-06-25T09:04:39.033Z</time>
      </trkpt>
      <trkpt lat="49.58207" lon="5.20488">
        <ele>195</ele>
        <time>2018-06-25T09:04:40.033Z</time>
      </trkpt>
      <trkpt lat="49.58192" lon="5.20534">
        <ele>197</ele>
        <time>2018-06-25T09:04:41.033Z</time>
      </trkpt>
      <trkpt lat="49.5817" lon="5.20561">
        <ele>198</ele>
        <time>2018-06-25T09:04:42.033Z</time>
      </trkpt>
      <trkpt lat="49.58147" lon="5.20579">
        <ele>201</ele>
        <time>2018-06-25T09:04:43.033Z</time>
      </trkpt>
      <trkpt lat="49.58113" lon="5.2059">
        <ele>203</ele>
        <time>2018-06-25T09:04:44.033Z</time>
      </trkpt>
      <trkpt lat="49.58046" lon="5.20599">
        <ele>209</ele>
        <time>2018-06-25T09:04:45.033Z</time>
      </trkpt>
      <trkpt lat="49.57986" lon="5.20599">
        <ele>213</ele>
        <time>2018-06-25T09:04:46.033Z</time>
      </trkpt>
      <trkpt lat="49.57932" lon="5.20616">
        <ele>215</ele>
        <time>2018-06-25T09:04:47.033Z</time>
      </trkpt>
      <trkpt lat="49.57853" lon="5.20656">
        <ele>219</ele>
        <time>2018-06-25T09:04:48.033Z</time>
      </trkpt>
      <trkpt lat="49.57796" lon="5.20703">
        <ele>220</ele>
        <time>2018-06-25T09:04:49.033Z</time>
      </trkpt>
      <trkpt lat="49.5776" lon="5.20742">
        <ele>222</ele>
        <time>2018-06-25T09:04:50.033Z</time>
      </trkpt>
      <trkpt lat="49.57731" lon="5.20782">
        <ele>222</ele>
        <time>2018-06-25T09:04:51.033Z</time>
      </trkpt>
      <trkpt lat="49.57711" lon="5.20815">
        <ele>222</ele>
        <time>2018-06-25T09:04:52.033Z</time>
      </trkpt>
      <trkpt lat="49.57699" lon="5.20827">
        <ele>223</ele>
        <time>2018-06-25T09:04:53.033Z</time>
      </trkpt>
      <trkpt lat="49.57689" lon="5.20831">
        <ele>222</ele>
        <time>2018-06-25T09:04:54.033Z</time>
      </trkpt>
      <trkpt lat="49.57679" lon="5.2083">
        <ele>222</ele>
        <time>2018-06-25T09:04:55.033Z</time>
      </trkpt>
      <trkpt lat="49.57638" lon="5.20817">
        <ele>222</ele>
        <time>2018-06-25T09:04:56.033Z</time>
      </trkpt>
      <trkpt lat="49.57627" lon="5.20816">
        <ele>222</ele>
        <time>2018-06-25T09:04:57.033Z</time>
      </trkpt>
      <trkpt lat="49.57608" lon="5.20829">
        <ele>223</ele>
        <time>2018-06-25T09:04:58.033Z</time>
      </trkpt>
      <trkpt lat="49.57573" lon="5.2088">
        <ele>224</ele>
        <time>2018-06-25T09:04:59.033Z</time>
      </trkpt>
      <trkpt lat="49.57534" lon="5.2095">
        <ele>227</ele>
        <time>2018-06-25T09:05:00.033Z</time>
      </trkpt>
      <trkpt lat="49.5752" lon="5.20986">
        <ele>228</ele>
        <time>2018-06-25T09:05:01.033Z</time>
      </trkpt>
      <trkpt lat="49.57511" lon="5.21031">
        <ele>227</ele>
        <time>2018-06-25T09:05:02.033Z</time>
      </trkpt>
      <trkpt lat="49.57501" lon="5.21123">
        <ele>226</ele>
        <time>2018-06-25T09:05:03.033Z</time>
      </trkpt>
      <trkpt lat="49.57495" lon="5.21195">
        <ele>226</ele>
        <time>2018-06-25T09:05:04.033Z</time>
      </trkpt>
      <trkpt lat="49.5748" lon="5.21256">
        <ele>226</ele>
        <time>2018-06-25T09:05:05.033Z</time>
      </trkpt>
      <trkpt lat="49.57444" lon="5.21383">
        <ele>222</ele>
        <time>2018-06-25T09:05:06.033Z</time>
      </trkpt>
      <trkpt lat="49.57431" lon="5.21441">
        <ele>222</ele>
        <time>2018-06-25T09:05:07.033Z</time>
      </trkpt>
      <trkpt lat="49.5743" lon="5.21463">
        <ele>222</ele>
        <time>2018-06-25T09:05:08.033Z</time>
      </trkpt>
      <trkpt lat="49.57431" lon="5.21496">
        <ele>221</ele>
        <time>2018-06-25T09:05:09.033Z</time>
      </trkpt>
      <trkpt lat="49.57437" lon="5.21525">
        <ele>221</ele>
        <time>2018-06-25T09:05:10.033Z</time>
      </trkpt>
      <trkpt lat="49.57508" lon="5.21655">
        <ele>215</ele>
        <time>2018-06-25T09:05:11.033Z</time>
      </trkpt>
      <trkpt lat="49.57516" lon="5.21685">
        <ele>215</ele>
        <time>2018-06-25T09:05:12.033Z</time>
      </trkpt>
      <trkpt lat="49.57519" lon="5.2171">
        <ele>215</ele>
        <time>2018-06-25T09:05:13.033Z</time>
      </trkpt>
      <trkpt lat="49.57516" lon="5.21741">
        <ele>215</ele>
        <time>2018-06-25T09:05:14.033Z</time>
      </trkpt>
      <trkpt lat="49.57488" lon="5.21829">
        <ele>214</ele>
        <time>2018-06-25T09:05:15.033Z</time>
      </trkpt>
      <trkpt lat="49.57483" lon="5.21848">
        <ele>214</ele>
        <time>2018-06-25T09:05:16.033Z</time>
      </trkpt>
      <trkpt lat="49.57477" lon="5.2189">
        <ele>212</ele>
        <time>2018-06-25T09:05:17.033Z</time>
      </trkpt>
      <trkpt lat="49.57475" lon="5.21943">
        <ele>209</ele>
        <time>2018-06-25T09:05:18.033Z</time>
      </trkpt>
      <trkpt lat="49.57481" lon="5.21998">
        <ele>205</ele>
        <time>2018-06-25T09:05:19.033Z</time>
      </trkpt>
      <trkpt lat="49.57483" lon="5.2204">
        <ele>204</ele>
        <time>2018-06-25T09:05:20.033Z</time>
      </trkpt>
      <trkpt lat="49.57461" lon="5.22267">
        <ele>193</ele>
        <time>2018-06-25T09:05:21.033Z</time>
      </trkpt>
      <trkpt lat="49.57447" lon="5.22381">
        <ele>186</ele>
        <time>2018-06-25T09:05:22.033Z</time>
      </trkpt>
      <trkpt lat="49.57429" lon="5.22559">
        <ele>172</ele>
        <time>2018-06-25T09:05:23.033Z</time>
      </trkpt>
      <trkpt lat="49.57423" lon="5.22603">
        <ele>170</ele>
        <time>2018-06-25T09:05:24.033Z</time>
      </trkpt>
      <trkpt lat="49.57379" lon="5.22854">
        <ele>166</ele>
        <time>2018-06-25T09:05:25.033Z</time>
      </trkpt>
      <trkpt lat="49.57378" lon="5.22879">
        <ele>166</ele>
        <time>2018-06-25T09:05:26.033Z</time>
      </trkpt>
      <trkpt lat="49.5738" lon="5.22905">
        <ele>166</ele>
        <time>2018-06-25T09:05:27.033Z</time>
      </trkpt>
      <trkpt lat="49.57456" lon="5.23353">
        <ele>165</ele>
        <time>2018-06-25T09:05:28.033Z</time>
      </trkpt>
      <trkpt lat="49.57492" lon="5.23567">
        <ele>165</ele>
        <time>2018-06-25T09:05:29.033Z</time>
      </trkpt>
      <trkpt lat="49.57434" lon="5.23555">
        <ele>164</ele>
        <time>2018-06-25T09:05:30.033Z</time>
      </trkpt>
      <trkpt lat="49.57337" lon="5.23525">
        <ele>165</ele>
        <time>2018-06-25T09:05:31.033Z</time>
      </trkpt>
      <trkpt lat="49.5727" lon="5.23492">
        <ele>166</ele>
        <time>2018-06-25T09:05:32.033Z</time>
      </trkpt>
      <trkpt lat="49.57182" lon="5.23434">
        <ele>165</ele>
        <time>2018-06-25T09:05:33.033Z</time>
      </trkpt>
      <trkpt lat="49.57139" lon="5.23398">
        <ele>165</ele>
        <time>2018-06-25T09:05:34.033Z</time>
      </trkpt>
      <trkpt lat="49.57066" lon="5.23314">
        <ele>165</ele>
        <time>2018-06-25T09:05:35.033Z</time>
      </trkpt>
      <trkpt lat="49.57026" lon="5.23282">
        <ele>166</ele>
        <time>2018-06-25T09:05:36.033Z</time>
      </trkpt>
      <trkpt lat="49.57012" lon="5.23274">
        <ele>166</ele>
        <time>2018-06-25T09:05:37.033Z</time>
      </trkpt>
      <trkpt lat="49.56987" lon="5.23265">
        <ele>166</ele>
        <time>2018-06-25T09:05:38.033Z</time>
      </trkpt>
      <trkpt lat="49.56928" lon="5.23257">
        <ele>164</ele>
        <time>2018-06-25T09:05:39.033Z</time>
      </trkpt>
      <trkpt lat="49.569" lon="5.2325">
        <ele>164</ele>
        <time>2018-06-25T09:05:40.033Z</time>
      </trkpt>
      <trkpt lat="49.56731" lon="5.23185">
        <ele>166</ele>
        <time>2018-06-25T09:05:41.033Z</time>
      </trkpt>
      <trkpt lat="49.56636" lon="5.23152">
        <ele>166</ele>
        <time>2018-06-25T09:05:42.033Z</time>
      </trkpt>
      <trkpt lat="49.564" lon="5.23089">
        <ele>167</ele>
        <time>2018-06-25T09:05:43.033Z</time>
      </trkpt>
      <trkpt lat="49.56287" lon="5.23056">
        <ele>166</ele>
        <time>2018-06-25T09:05:44.033Z</time>
      </trkpt>
      <trkpt lat="49.56261" lon="5.23046">
        <ele>166</ele>
        <time>2018-06-25T09:05:45.033Z</time>
      </trkpt>
      <trkpt lat="49.56195" lon="5.23014">
        <ele>166</ele>
        <time>2018-06-25T09:05:46.033Z</time>
      </trkpt>
      <trkpt lat="49.55411" lon="5.22589">
        <ele>167</ele>
        <time>2018-06-25T09:05:47.033Z</time>
      </trkpt>
      <trkpt lat="49.55399" lon="5.22585">
        <ele>167</ele>
        <time>2018-06-25T09:05:48.033Z</time>
      </trkpt>
      <trkpt lat="49.5537" lon="5.22581">
        <ele>168</ele>
        <time>2018-06-25T09:05:49.033Z</time>
      </trkpt>
      <trkpt lat="49.55328" lon="5.2258">
        <ele>168</ele>
        <time>2018-06-25T09:05:50.033Z</time>
      </trkpt>
      <trkpt lat="49.5481" lon="5.22587">
        <ele>174</ele>
        <time>2018-06-25T09:05:51.033Z</time>
      </trkpt>
      <trkpt lat="49.54656" lon="5.22584">
        <ele>174</ele>
        <time>2018-06-25T09:05:52.033Z</time>
      </trkpt>
      <trkpt lat="49.54638" lon="5.2258">
        <ele>173</ele>
        <time>2018-06-25T09:05:53.033Z</time>
      </trkpt>
      <trkpt lat="49.54628" lon="5.22575">
        <ele>173</ele>
        <time>2018-06-25T09:05:54.033Z</time>
      </trkpt>
      <trkpt lat="49.54611" lon="5.22562">
        <ele>173</ele>
        <time>2018-06-25T09:05:55.033Z</time>
      </trkpt>
      <trkpt lat="49.54591" lon="5.22535">
        <ele>172</ele>
        <time>2018-06-25T09:05:56.033Z</time>
      </trkpt>
      <trkpt lat="49.54584" lon="5.22518">
        <ele>172</ele>
        <time>2018-06-25T09:05:57.033Z</time>
      </trkpt>
      <trkpt lat="49.54578" lon="5.22499">
        <ele>172</ele>
        <time>2018-06-25T09:05:58.033Z</time>
      </trkpt>
      <trkpt lat="49.54572" lon="5.22471">
        <ele>172</ele>
        <time>2018-06-25T09:05:59.033Z</time>
      </trkpt>
      <trkpt lat="49.54572" lon="5.22436">
        <ele>173</ele>
        <time>2018-06-25T09:06:00.033Z</time>
      </trkpt>
      <trkpt lat="49.54576" lon="5.22406">
        <ele>174</ele>
        <time>2018-06-25T09:06:01.033Z</time>
      </trkpt>
      <trkpt lat="49.54605" lon="5.22267">
        <ele>176</ele>
        <time>2018-06-25T09:06:02.033Z</time>
      </trkpt>
      <trkpt lat="49.54571" lon="5.22244">
        <ele>174</ele>
        <time>2018-06-25T09:06:03.033Z</time>
      </trkpt>
      <trkpt lat="49.54558" lon="5.22232">
        <ele>173</ele>
        <time>2018-06-25T09:06:04.033Z</time>
      </trkpt>
      <trkpt lat="49.54549" lon="5.22221">
        <ele>173</ele>
        <time>2018-06-25T09:06:05.033Z</time>
      </trkpt>
      <trkpt lat="49.54536" lon="5.22199">
        <ele>172</ele>
        <time>2018-06-25T09:06:06.033Z</time>
      </trkpt>
      <trkpt lat="49.5451" lon="5.22139">
        <ele>171</ele>
        <time>2018-06-25T09:06:07.033Z</time>
      </trkpt>
      <trkpt lat="49.54495" lon="5.22113">
        <ele>171</ele>
        <time>2018-06-25T09:06:08.033Z</time>
      </trkpt>
      <trkpt lat="49.54489" lon="5.22106">
        <ele>171</ele>
        <time>2018-06-25T09:06:09.033Z</time>
      </trkpt>
      <trkpt lat="49.54479" lon="5.221">
        <ele>171</ele>
        <time>2018-06-25T09:06:10.033Z</time>
      </trkpt>
      <trkpt lat="49.5446" lon="5.221">
        <ele>172</ele>
        <time>2018-06-25T09:06:11.033Z</time>
      </trkpt>
      <trkpt lat="49.5439" lon="5.22111">
        <ele>174</ele>
        <time>2018-06-25T09:06:12.033Z</time>
      </trkpt>
      <trkpt lat="49.54303" lon="5.22126">
        <ele>179</ele>
        <time>2018-06-25T09:06:13.033Z</time>
      </trkpt>
      <trkpt lat="49.54277" lon="5.22125">
        <ele>181</ele>
        <time>2018-06-25T09:06:14.033Z</time>
      </trkpt>
      <trkpt lat="49.54219" lon="5.22116">
        <ele>184</ele>
        <time>2018-06-25T09:06:15.033Z</time>
      </trkpt>
      <trkpt lat="49.54195" lon="5.22117">
        <ele>184</ele>
        <time>2018-06-25T09:06:16.033Z</time>
      </trkpt>
      <trkpt lat="49.54179" lon="5.22124">
        <ele>185</ele>
        <time>2018-06-25T09:06:17.033Z</time>
      </trkpt>
      <trkpt lat="49.54169" lon="5.22133">
        <ele>185</ele>
        <time>2018-06-25T09:06:18.033Z</time>
      </trkpt>
      <trkpt lat="49.54158" lon="5.22146">
        <ele>185</ele>
        <time>2018-06-25T09:06:19.033Z</time>
      </trkpt>
      <trkpt lat="49.54054" lon="5.22283">
        <ele>185</ele>
        <time>2018-06-25T09:06:20.033Z</time>
      </trkpt>
      <trkpt lat="49.54035" lon="5.2232">
        <ele>185</ele>
        <time>2018-06-25T09:06:21.033Z</time>
      </trkpt>
      <trkpt lat="49.54024" lon="5.22346">
        <ele>185</ele>
        <time>2018-06-25T09:06:22.033Z</time>
      </trkpt>
      <trkpt lat="49.53919" lon="5.22356">
        <ele>182</ele>
        <time>2018-06-25T09:06:23.033Z</time>
      </trkpt>
      <trkpt lat="49.53883" lon="5.22361">
        <ele>181</ele>
        <time>2018-06-25T09:06:24.033Z</time>
      </trkpt>
      <trkpt lat="49.53884" lon="5.22362">
        <ele>181</ele>
        <time>2018-06-25T09:06:25.033Z</time>
      </trkpt>
      <trkpt lat="49.53848" lon="5.22369">
        <ele>179</ele>
        <time>2018-06-25T09:06:26.033Z</time>
      </trkpt>
      <trkpt lat="49.53842" lon="5.22392">
        <ele>179</ele>
        <time>2018-06-25T09:06:27.033Z</time>
      </trkpt>
      <trkpt lat="49.53834" lon="5.22414">
        <ele>179</ele>
        <time>2018-06-25T09:06:28.033Z</time>
      </trkpt>
      <trkpt lat="49.5382" lon="5.22441">
        <ele>179</ele>
        <time>2018-06-25T09:06:29.033Z</time>
      </trkpt>
      <trkpt lat="49.53819" lon="5.22452">
        <ele>179</ele>
        <time>2018-06-25T09:06:30.033Z</time>
      </trkpt>
      <trkpt lat="49.53841" lon="5.22697">
        <ele>175</ele>
        <time>2018-06-25T09:06:31.033Z</time>
      </trkpt>
      <trkpt lat="49.53877" lon="5.22939">
        <ele>173</ele>
        <time>2018-06-25T09:06:32.033Z</time>
      </trkpt>
      <trkpt lat="49.53909" lon="5.23118">
        <ele>172</ele>
        <time>2018-06-25T09:06:33.033Z</time>
      </trkpt>
      <trkpt lat="49.53911" lon="5.23155">
        <ele>172</ele>
        <time>2018-06-25T09:06:34.033Z</time>
      </trkpt>
      <trkpt lat="49.53906" lon="5.23211">
        <ele>172</ele>
        <time>2018-06-25T09:06:35.033Z</time>
      </trkpt>
      <trkpt lat="49.53865" lon="5.23549">
        <ele>172</ele>
        <time>2018-06-25T09:06:36.033Z</time>
      </trkpt>
      <trkpt lat="49.53856" lon="5.23593">
        <ele>173</ele>
        <time>2018-06-25T09:06:37.033Z</time>
      </trkpt>
      <trkpt lat="49.53843" lon="5.23632">
        <ele>173</ele>
        <time>2018-06-25T09:06:38.033Z</time>
      </trkpt>
      <trkpt lat="49.53781" lon="5.23792">
        <ele>175</ele>
        <time>2018-06-25T09:06:39.033Z</time>
      </trkpt>
      <trkpt lat="49.53756" lon="5.23864">
        <ele>176</ele>
        <time>2018-06-25T09:06:40.033Z</time>
      </trkpt>
      <trkpt lat="49.53729" lon="5.23959">
        <ele>176</ele>
        <time>2018-06-25T09:06:41.033Z</time>
      </trkpt>
      <trkpt lat="49.53706" lon="5.24011">
        <ele>177</ele>
        <time>2018-06-25T09:06:42.033Z</time>
      </trkpt>
      <trkpt lat="49.53669" lon="5.24081">
        <ele>179</ele>
        <time>2018-06-25T09:06:43.033Z</time>
      </trkpt>
      <trkpt lat="49.53655" lon="5.24104">
        <ele>180</ele>
        <time>2018-06-25T09:06:44.033Z</time>
      </trkpt>
      <trkpt lat="49.53633" lon="5.24128">
        <ele>181</ele>
        <time>2018-06-25T09:06:45.033Z</time>
      </trkpt>
      <trkpt lat="49.53553" lon="5.24191">
        <ele>190</ele>
        <time>2018-06-25T09:06:46.033Z</time>
      </trkpt>
      <trkpt lat="49.53532" lon="5.24199">
        <ele>193</ele>
        <time>2018-06-25T09:06:47.033Z</time>
      </trkpt>
      <trkpt lat="49.535" lon="5.24204">
        <ele>198</ele>
        <time>2018-06-25T09:06:48.033Z</time>
      </trkpt>
      <trkpt lat="49.53469" lon="5.24218">
        <ele>201</ele>
        <time>2018-06-25T09:06:49.033Z</time>
      </trkpt>
      <trkpt lat="49.53359" lon="5.24282">
        <ele>208</ele>
        <time>2018-06-25T09:06:50.033Z</time>
      </trkpt>
      <trkpt lat="49.5331" lon="5.24322">
        <ele>207</ele>
        <time>2018-06-25T09:06:51.033Z</time>
      </trkpt>
      <trkpt lat="49.53279" lon="5.24345">
        <ele>207</ele>
        <time>2018-06-25T09:06:52.033Z</time>
      </trkpt>
      <trkpt lat="49.53265" lon="5.24353">
        <ele>208</ele>
        <time>2018-06-25T09:06:53.033Z</time>
      </trkpt>
      <trkpt lat="49.53248" lon="5.2436">
        <ele>209</ele>
        <time>2018-06-25T09:06:54.033Z</time>
      </trkpt>
      <trkpt lat="49.53234" lon="5.24348">
        <ele>212</ele>
        <time>2018-06-25T09:06:55.033Z</time>
      </trkpt>
      <trkpt lat="49.53234" lon="5.24347">
        <ele>213</ele>
        <time>2018-06-25T09:06:56.033Z</time>
      </trkpt>
      <trkpt lat="49.53239" lon="5.24352">
        <ele>211</ele>
        <time>2018-06-25T09:06:57.033Z</time>
      </trkpt>
      <trkpt lat="49.53247" lon="5.2436">
        <ele>209</ele>
        <time>2018-06-25T09:06:58.033Z</time>
      </trkpt>
      <trkpt lat="49.53213" lon="5.24366">
        <ele>209</ele>
        <time>2018-06-25T09:06:59.033Z</time>
      </trkpt>
      <trkpt lat="49.53181" lon="5.24369">
        <ele>210</ele>
        <time>2018-06-25T09:07:00.033Z</time>
      </trkpt>
      <trkpt lat="49.53141" lon="5.24369">
        <ele>211</ele>
        <time>2018-06-25T09:07:01.033Z</time>
      </trkpt>
      <trkpt lat="49.53083" lon="5.24364">
        <ele>215</ele>
        <time>2018-06-25T09:07:02.033Z</time>
      </trkpt>
      <trkpt lat="49.53042" lon="5.2437">
        <ele>215</ele>
        <time>2018-06-25T09:07:03.033Z</time>
      </trkpt>
      <trkpt lat="49.53004" lon="5.24388">
        <ele>211</ele>
        <time>2018-06-25T09:07:04.033Z</time>
      </trkpt>
      <trkpt lat="49.52957" lon="5.24417">
        <ele>210</ele>
        <time>2018-06-25T09:07:05.033Z</time>
      </trkpt>
      <trkpt lat="49.52937" lon="5.24423">
        <ele>211</ele>
        <time>2018-06-25T09:07:06.033Z</time>
      </trkpt>
      <trkpt lat="49.52911" lon="5.24426">
        <ele>214</ele>
        <time>2018-06-25T09:07:07.033Z</time>
      </trkpt>
      <trkpt lat="49.52887" lon="5.24432">
        <ele>215</ele>
        <time>2018-06-25T09:07:08.033Z</time>
      </trkpt>
      <trkpt lat="49.52805" lon="5.24474">
        <ele>214</ele>
        <time>2018-06-25T09:07:09.033Z</time>
      </trkpt>
      <trkpt lat="49.52782" lon="5.2449">
        <ele>213</ele>
        <time>2018-06-25T09:07:10.033Z</time>
      </trkpt>
      <trkpt lat="49.52732" lon="5.24542">
        <ele>210</ele>
        <time>2018-06-25T09:07:11.033Z</time>
      </trkpt>
      <trkpt lat="49.52638" lon="5.24649">
        <ele>212</ele>
        <time>2018-06-25T09:07:12.033Z</time>
      </trkpt>
      <trkpt lat="49.52613" lon="5.24681">
        <ele>213</ele>
        <time>2018-06-25T09:07:13.033Z</time>
      </trkpt>
      <trkpt lat="49.52591" lon="5.24712">
        <ele>212</ele>
        <time>2018-06-25T09:07:14.033Z</time>
      </trkpt>
      <trkpt lat="49.52564" lon="5.24759">
        <ele>211</ele>
        <time>2018-06-25T09:07:15.033Z</time>
      </trkpt>
      <trkpt lat="49.52535" lon="5.24816">
        <ele>211</ele>
        <time>2018-06-25T09:07:16.033Z</time>
      </trkpt>
      <trkpt lat="49.5252" lon="5.2485">
        <ele>211</ele>
        <time>2018-06-25T09:07:17.033Z</time>
      </trkpt>
      <trkpt lat="49.52496" lon="5.24917">
        <ele>208</ele>
        <time>2018-06-25T09:07:18.033Z</time>
      </trkpt>
      <trkpt lat="49.52442" lon="5.25109">
        <ele>205</ele>
        <time>2018-06-25T09:07:19.033Z</time>
      </trkpt>
      <trkpt lat="49.52422" lon="5.25178">
        <ele>204</ele>
        <time>2018-06-25T09:07:20.033Z</time>
      </trkpt>
      <trkpt lat="49.52383" lon="5.2536">
        <ele>207</ele>
        <time>2018-06-25T09:07:21.033Z</time>
      </trkpt>
      <trkpt lat="49.52375" lon="5.25412">
        <ele>208</ele>
        <time>2018-06-25T09:07:22.033Z</time>
      </trkpt>
      <trkpt lat="49.52374" lon="5.25435">
        <ele>208</ele>
        <time>2018-06-25T09:07:23.033Z</time>
      </trkpt>
      <trkpt lat="49.52377" lon="5.25517">
        <ele>205</ele>
        <time>2018-06-25T09:07:24.033Z</time>
      </trkpt>
      <trkpt lat="49.52375" lon="5.25566">
        <ele>205</ele>
        <time>2018-06-25T09:07:25.033Z</time>
      </trkpt>
      <trkpt lat="49.52368" lon="5.25677">
        <ele>203</ele>
        <time>2018-06-25T09:07:26.033Z</time>
      </trkpt>
      <trkpt lat="49.52332" lon="5.25895">
        <ele>201</ele>
        <time>2018-06-25T09:07:27.033Z</time>
      </trkpt>
      <trkpt lat="49.52326" lon="5.25923">
        <ele>201</ele>
        <time>2018-06-25T09:07:28.033Z</time>
      </trkpt>
      <trkpt lat="49.52319" lon="5.25947">
        <ele>200</ele>
        <time>2018-06-25T09:07:29.033Z</time>
      </trkpt>
      <trkpt lat="49.5231" lon="5.25966">
        <ele>199</ele>
        <time>2018-06-25T09:07:30.033Z</time>
      </trkpt>
      <trkpt lat="49.52302" lon="5.2598">
        <ele>199</ele>
        <time>2018-06-25T09:07:31.033Z</time>
      </trkpt>
      <trkpt lat="49.52271" lon="5.26011">
        <ele>200</ele>
        <time>2018-06-25T09:07:32.033Z</time>
      </trkpt>
      <trkpt lat="49.52261" lon="5.26018">
        <ele>201</ele>
        <time>2018-06-25T09:07:33.033Z</time>
      </trkpt>
      <trkpt lat="49.52232" lon="5.26027">
        <ele>203</ele>
        <time>2018-06-25T09:07:34.033Z</time>
      </trkpt>
      <trkpt lat="49.52223" lon="5.26032">
        <ele>203</ele>
        <time>2018-06-25T09:07:35.033Z</time>
      </trkpt>
      <trkpt lat="49.52208" lon="5.26042">
        <ele>202</ele>
        <time>2018-06-25T09:07:36.033Z</time>
      </trkpt>
      <trkpt lat="49.52133" lon="5.26105">
        <ele>197</ele>
        <time>2018-06-25T09:07:37.033Z</time>
      </trkpt>
      <trkpt lat="49.52068" lon="5.26145">
        <ele>195</ele>
        <time>2018-06-25T09:07:38.033Z</time>
      </trkpt>
      <trkpt lat="49.51993" lon="5.26185">
        <ele>193</ele>
        <time>2018-06-25T09:07:39.033Z</time>
      </trkpt>
      <trkpt lat="49.51959" lon="5.26208">
        <ele>193</ele>
        <time>2018-06-25T09:07:40.033Z</time>
      </trkpt>
      <trkpt lat="49.51905" lon="5.26237">
        <ele>193</ele>
        <time>2018-06-25T09:07:41.033Z</time>
      </trkpt>
      <trkpt lat="49.51885" lon="5.26249">
        <ele>192</ele>
        <time>2018-06-25T09:07:42.033Z</time>
      </trkpt>
      <trkpt lat="49.51859" lon="5.26276">
        <ele>189</ele>
        <time>2018-06-25T09:07:43.033Z</time>
      </trkpt>
      <trkpt lat="49.51845" lon="5.26293">
        <ele>187</ele>
        <time>2018-06-25T09:07:44.033Z</time>
      </trkpt>
      <trkpt lat="49.51758" lon="5.26431">
        <ele>178</ele>
        <time>2018-06-25T09:07:45.033Z</time>
      </trkpt>
      <trkpt lat="49.51749" lon="5.26442">
        <ele>178</ele>
        <time>2018-06-25T09:07:46.033Z</time>
      </trkpt>
      <trkpt lat="49.51739" lon="5.26448">
        <ele>177</ele>
        <time>2018-06-25T09:07:47.033Z</time>
      </trkpt>
      <trkpt lat="49.51703" lon="5.26462">
        <ele>174</ele>
        <time>2018-06-25T09:07:48.033Z</time>
      </trkpt>
      <trkpt lat="49.5172" lon="5.26547">
        <ele>173</ele>
        <time>2018-06-25T09:07:49.033Z</time>
      </trkpt>
      <trkpt lat="49.51722" lon="5.26563">
        <ele>173</ele>
        <time>2018-06-25T09:07:50.033Z</time>
      </trkpt>
      <trkpt lat="49.51721" lon="5.26581">
        <ele>173</ele>
        <time>2018-06-25T09:07:51.033Z</time>
      </trkpt>
      <trkpt lat="49.51714" lon="5.26616">
        <ele>173</ele>
        <time>2018-06-25T09:07:52.033Z</time>
      </trkpt>
      <trkpt lat="49.51708" lon="5.2665">
        <ele>174</ele>
        <time>2018-06-25T09:07:53.033Z</time>
      </trkpt>
      <trkpt lat="49.51705" lon="5.26737">
        <ele>177</ele>
        <time>2018-06-25T09:07:54.033Z</time>
      </trkpt>
      <trkpt lat="49.51707" lon="5.26794">
        <ele>178</ele>
        <time>2018-06-25T09:07:55.033Z</time>
      </trkpt>
      <trkpt lat="49.51703" lon="5.26814">
        <ele>179</ele>
        <time>2018-06-25T09:07:56.033Z</time>
      </trkpt>
      <trkpt lat="49.51687" lon="5.26856">
        <ele>182</ele>
        <time>2018-06-25T09:07:57.033Z</time>
      </trkpt>
      <trkpt lat="49.51659" lon="5.26894">
        <ele>185</ele>
        <time>2018-06-25T09:07:58.033Z</time>
      </trkpt>
      <trkpt lat="49.51641" lon="5.26911">
        <ele>186</ele>
        <time>2018-06-25T09:07:59.033Z</time>
      </trkpt>
      <trkpt lat="49.51367" lon="5.27118">
        <ele>207</ele>
        <time>2018-06-25T09:08:00.033Z</time>
      </trkpt>
      <trkpt lat="49.51341" lon="5.27143">
        <ele>208</ele>
        <time>2018-06-25T09:08:01.033Z</time>
      </trkpt>
      <trkpt lat="49.51318" lon="5.27155">
        <ele>209</ele>
        <time>2018-06-25T09:08:02.033Z</time>
      </trkpt>
      <trkpt lat="49.51289" lon="5.27162">
        <ele>210</ele>
        <time>2018-06-25T09:08:03.033Z</time>
      </trkpt>
      <trkpt lat="49.51202" lon="5.27196">
        <ele>213</ele>
        <time>2018-06-25T09:08:04.033Z</time>
      </trkpt>
      <trkpt lat="49.51176" lon="5.27215">
        <ele>214</ele>
        <time>2018-06-25T09:08:05.033Z</time>
      </trkpt>
      <trkpt lat="49.51145" lon="5.27244">
        <ele>215</ele>
        <time>2018-06-25T09:08:06.033Z</time>
      </trkpt>
      <trkpt lat="49.51086" lon="5.2732">
        <ele>221</ele>
        <time>2018-06-25T09:08:07.033Z</time>
      </trkpt>
      <trkpt lat="49.51041" lon="5.27382">
        <ele>221</ele>
        <time>2018-06-25T09:08:08.033Z</time>
      </trkpt>
      <trkpt lat="49.50999" lon="5.27467">
        <ele>219</ele>
        <time>2018-06-25T09:08:09.033Z</time>
      </trkpt>
      <trkpt lat="49.50959" lon="5.27547">
        <ele>218</ele>
        <time>2018-06-25T09:08:10.033Z</time>
      </trkpt>
      <trkpt lat="49.50923" lon="5.27602">
        <ele>218</ele>
        <time>2018-06-25T09:08:11.033Z</time>
      </trkpt>
      <trkpt lat="49.50894" lon="5.27631">
        <ele>219</ele>
        <time>2018-06-25T09:08:12.033Z</time>
      </trkpt>
      <trkpt lat="49.50854" lon="5.27649">
        <ele>220</ele>
        <time>2018-06-25T09:08:13.033Z</time>
      </trkpt>
      <trkpt lat="49.50808" lon="5.27659">
        <ele>220</ele>
        <time>2018-06-25T09:08:14.033Z</time>
      </trkpt>
      <trkpt lat="49.50709" lon="5.27654">
        <ele>220</ele>
        <time>2018-06-25T09:08:15.033Z</time>
      </trkpt>
      <trkpt lat="49.50678" lon="5.27659">
        <ele>221</ele>
        <time>2018-06-25T09:08:16.033Z</time>
      </trkpt>
      <trkpt lat="49.50657" lon="5.27668">
        <ele>221</ele>
        <time>2018-06-25T09:08:17.033Z</time>
      </trkpt>
      <trkpt lat="49.50615" lon="5.27704">
        <ele>223</ele>
        <time>2018-06-25T09:08:18.033Z</time>
      </trkpt>
      <trkpt lat="49.50518" lon="5.27824">
        <ele>227</ele>
        <time>2018-06-25T09:08:19.033Z</time>
      </trkpt>
      <trkpt lat="49.50503" lon="5.27837">
        <ele>227</ele>
        <time>2018-06-25T09:08:20.033Z</time>
      </trkpt>
      <trkpt lat="49.5049" lon="5.27844">
        <ele>228</ele>
        <time>2018-06-25T09:08:21.033Z</time>
      </trkpt>
      <trkpt lat="49.50473" lon="5.27849">
        <ele>229</ele>
        <time>2018-06-25T09:08:22.033Z</time>
      </trkpt>
      <trkpt lat="49.50456" lon="5.27844">
        <ele>230</ele>
        <time>2018-06-25T09:08:23.033Z</time>
      </trkpt>
      <trkpt lat="49.50421" lon="5.27823">
        <ele>233</ele>
        <time>2018-06-25T09:08:24.033Z</time>
      </trkpt>
      <trkpt lat="49.50408" lon="5.2782">
        <ele>233</ele>
        <time>2018-06-25T09:08:25.033Z</time>
      </trkpt>
      <trkpt lat="49.50396" lon="5.27825">
        <ele>234</ele>
        <time>2018-06-25T09:08:26.033Z</time>
      </trkpt>
      <trkpt lat="49.50383" lon="5.27836">
        <ele>235</ele>
        <time>2018-06-25T09:08:27.033Z</time>
      </trkpt>
      <trkpt lat="49.50365" lon="5.27876">
        <ele>234</ele>
        <time>2018-06-25T09:08:28.033Z</time>
      </trkpt>
      <trkpt lat="49.50362" lon="5.27891">
        <ele>234</ele>
        <time>2018-06-25T09:08:29.033Z</time>
      </trkpt>
      <trkpt lat="49.50354" lon="5.27911">
        <ele>233</ele>
        <time>2018-06-25T09:08:30.033Z</time>
      </trkpt>
      <trkpt lat="49.50335" lon="5.27938">
        <ele>233</ele>
        <time>2018-06-25T09:08:31.033Z</time>
      </trkpt>
      <trkpt lat="49.50315" lon="5.27954">
        <ele>232</ele>
        <time>2018-06-25T09:08:32.033Z</time>
      </trkpt>
      <trkpt lat="49.50258" lon="5.27987">
        <ele>229</ele>
        <time>2018-06-25T09:08:33.033Z</time>
      </trkpt>
      <trkpt lat="49.5015" lon="5.28036">
        <ele>219</ele>
        <time>2018-06-25T09:08:34.033Z</time>
      </trkpt>
      <trkpt lat="49.50117" lon="5.28058">
        <ele>216</ele>
        <time>2018-06-25T09:08:35.033Z</time>
      </trkpt>
      <trkpt lat="49.50057" lon="5.28102">
        <ele>212</ele>
        <time>2018-06-25T09:08:36.033Z</time>
      </trkpt>
      <trkpt lat="49.49988" lon="5.28161">
        <ele>212</ele>
        <time>2018-06-25T09:08:37.033Z</time>
      </trkpt>
      <trkpt lat="49.49968" lon="5.28175">
        <ele>213</ele>
        <time>2018-06-25T09:08:38.033Z</time>
      </trkpt>
      <trkpt lat="49.49946" lon="5.28184">
        <ele>214</ele>
        <time>2018-06-25T09:08:39.033Z</time>
      </trkpt>
      <trkpt lat="49.49789" lon="5.28203">
        <ele>222</ele>
        <time>2018-06-25T09:08:40.033Z</time>
      </trkpt>
      <trkpt lat="49.49748" lon="5.28212">
        <ele>224</ele>
        <time>2018-06-25T09:08:41.033Z</time>
      </trkpt>
      <trkpt lat="49.49696" lon="5.2821">
        <ele>226</ele>
        <time>2018-06-25T09:08:42.033Z</time>
      </trkpt>
      <trkpt lat="49.49668" lon="5.28203">
        <ele>226</ele>
        <time>2018-06-25T09:08:43.033Z</time>
      </trkpt>
      <trkpt lat="49.49643" lon="5.28192">
        <ele>228</ele>
        <time>2018-06-25T09:08:44.033Z</time>
      </trkpt>
      <trkpt lat="49.49615" lon="5.28171">
        <ele>230</ele>
        <time>2018-06-25T09:08:45.033Z</time>
      </trkpt>
      <trkpt lat="49.49586" lon="5.28146">
        <ele>232</ele>
        <time>2018-06-25T09:08:46.033Z</time>
      </trkpt>
      <trkpt lat="49.49549" lon="5.28123">
        <ele>234</ele>
        <time>2018-06-25T09:08:47.033Z</time>
      </trkpt>
      <trkpt lat="49.49527" lon="5.28116">
        <ele>236</ele>
        <time>2018-06-25T09:08:48.033Z</time>
      </trkpt>
      <trkpt lat="49.49478" lon="5.28109">
        <ele>239</ele>
        <time>2018-06-25T09:08:49.033Z</time>
      </trkpt>
      <trkpt lat="49.49451" lon="5.28115">
        <ele>240</ele>
        <time>2018-06-25T09:08:50.033Z</time>
      </trkpt>
      <trkpt lat="49.49441" lon="5.28122">
        <ele>240</ele>
        <time>2018-06-25T09:08:51.033Z</time>
      </trkpt>
      <trkpt lat="49.49427" lon="5.28135">
        <ele>240</ele>
        <time>2018-06-25T09:08:52.033Z</time>
      </trkpt>
      <trkpt lat="49.49427" lon="5.28136">
        <ele>240</ele>
        <time>2018-06-25T09:08:53.033Z</time>
      </trkpt>
      <trkpt lat="49.4942" lon="5.28144">
        <ele>241</ele>
        <time>2018-06-25T09:08:54.033Z</time>
      </trkpt>
      <trkpt lat="49.49403" lon="5.28175">
        <ele>241</ele>
        <time>2018-06-25T09:08:55.033Z</time>
      </trkpt>
      <trkpt lat="49.49398" lon="5.28163">
        <ele>241</ele>
        <time>2018-06-25T09:08:56.033Z</time>
      </trkpt>
      <trkpt lat="49.49377" lon="5.28147">
        <ele>242</ele>
        <time>2018-06-25T09:08:57.033Z</time>
      </trkpt>
      <trkpt lat="49.49344" lon="5.28139">
        <ele>242</ele>
        <time>2018-06-25T09:08:58.033Z</time>
      </trkpt>
      <trkpt lat="49.49316" lon="5.28125">
        <ele>242</ele>
        <time>2018-06-25T09:08:59.033Z</time>
      </trkpt>
      <trkpt lat="49.49283" lon="5.28106">
        <ele>242</ele>
        <time>2018-06-25T09:09:00.033Z</time>
      </trkpt>
      <trkpt lat="49.4925" lon="5.28056">
        <ele>240</ele>
        <time>2018-06-25T09:09:01.033Z</time>
      </trkpt>
      <trkpt lat="49.49229" lon="5.28029">
        <ele>238</ele>
        <time>2018-06-25T09:09:02.033Z</time>
      </trkpt>
      <trkpt lat="49.49181" lon="5.27984">
        <ele>236</ele>
        <time>2018-06-25T09:09:03.033Z</time>
      </trkpt>
      <trkpt lat="49.49155" lon="5.27952">
        <ele>234</ele>
        <time>2018-06-25T09:09:04.033Z</time>
      </trkpt>
      <trkpt lat="49.49125" lon="5.27907">
        <ele>232</ele>
        <time>2018-06-25T09:09:05.033Z</time>
      </trkpt>
      <trkpt lat="49.49082" lon="5.27849">
        <ele>228</ele>
        <time>2018-06-25T09:09:06.033Z</time>
      </trkpt>
      <trkpt lat="49.48999" lon="5.27739">
        <ele>225</ele>
        <time>2018-06-25T09:09:07.033Z</time>
      </trkpt>
      <trkpt lat="49.4899" lon="5.27724">
        <ele>225</ele>
        <time>2018-06-25T09:09:08.033Z</time>
      </trkpt>
      <trkpt lat="49.48984" lon="5.27701">
        <ele>225</ele>
        <time>2018-06-25T09:09:09.033Z</time>
      </trkpt>
      <trkpt lat="49.48984" lon="5.2765">
        <ele>225</ele>
        <time>2018-06-25T09:09:10.033Z</time>
      </trkpt>
      <trkpt lat="49.48991" lon="5.27573">
        <ele>229</ele>
        <time>2018-06-25T09:09:11.033Z</time>
      </trkpt>
      <trkpt lat="49.49005" lon="5.27502">
        <ele>233</ele>
        <time>2018-06-25T09:09:12.033Z</time>
      </trkpt>
      <trkpt lat="49.49013" lon="5.27455">
        <ele>235</ele>
        <time>2018-06-25T09:09:13.033Z</time>
      </trkpt>
      <trkpt lat="49.49017" lon="5.27408">
        <ele>237</ele>
        <time>2018-06-25T09:09:14.033Z</time>
      </trkpt>
      <trkpt lat="49.49019" lon="5.27301">
        <ele>239</ele>
        <time>2018-06-25T09:09:15.033Z</time>
      </trkpt>
      <trkpt lat="49.4901" lon="5.2717">
        <ele>240</ele>
        <time>2018-06-25T09:09:16.033Z</time>
      </trkpt>
      <trkpt lat="49.4901" lon="5.27155">
        <ele>241</ele>
        <time>2018-06-25T09:09:17.033Z</time>
      </trkpt>
      <trkpt lat="49.49013" lon="5.2714">
        <ele>241</ele>
        <time>2018-06-25T09:09:18.033Z</time>
      </trkpt>
      <trkpt lat="49.49021" lon="5.27124">
        <ele>241</ele>
        <time>2018-06-25T09:09:19.033Z</time>
      </trkpt>
      <trkpt lat="49.49077" lon="5.26997">
        <ele>250</ele>
        <time>2018-06-25T09:09:20.033Z</time>
      </trkpt>
      <trkpt lat="49.49093" lon="5.26946">
        <ele>253</ele>
        <time>2018-06-25T09:09:21.033Z</time>
      </trkpt>
      <trkpt lat="49.491" lon="5.26917">
        <ele>255</ele>
        <time>2018-06-25T09:09:22.033Z</time>
      </trkpt>
      <trkpt lat="49.49108" lon="5.26862">
        <ele>256</ele>
        <time>2018-06-25T09:09:23.033Z</time>
      </trkpt>
      <trkpt lat="49.49109" lon="5.26822">
        <ele>257</ele>
        <time>2018-06-25T09:09:24.033Z</time>
      </trkpt>
      <trkpt lat="49.49112" lon="5.26786">
        <ele>258</ele>
        <time>2018-06-25T09:09:25.033Z</time>
      </trkpt>
      <trkpt lat="49.49135" lon="5.26619">
        <ele>261</ele>
        <time>2018-06-25T09:09:26.033Z</time>
      </trkpt>
      <trkpt lat="49.49137" lon="5.26589">
        <ele>262</ele>
        <time>2018-06-25T09:09:27.033Z</time>
      </trkpt>
      <trkpt lat="49.4913" lon="5.26451">
        <ele>260</ele>
        <time>2018-06-25T09:09:28.033Z</time>
      </trkpt>
      <trkpt lat="49.49129" lon="5.26407">
        <ele>259</ele>
        <time>2018-06-25T09:09:29.033Z</time>
      </trkpt>
      <trkpt lat="49.49132" lon="5.26301">
        <ele>258</ele>
        <time>2018-06-25T09:09:30.033Z</time>
      </trkpt>
      <trkpt lat="49.49131" lon="5.26267">
        <ele>258</ele>
        <time>2018-06-25T09:09:31.033Z</time>
      </trkpt>
      <trkpt lat="49.49129" lon="5.26237">
        <ele>257</ele>
        <time>2018-06-25T09:09:32.033Z</time>
      </trkpt>
      <trkpt lat="49.49118" lon="5.26157">
        <ele>256</ele>
        <time>2018-06-25T09:09:33.033Z</time>
      </trkpt>
      <trkpt lat="49.49091" lon="5.25891">
        <ele>246</ele>
        <time>2018-06-25T09:09:34.033Z</time>
      </trkpt>
      <trkpt lat="49.49075" lon="5.25685">
        <ele>238</ele>
        <time>2018-06-25T09:09:35.033Z</time>
      </trkpt>
      <trkpt lat="49.4907" lon="5.25647">
        <ele>238</ele>
        <time>2018-06-25T09:09:36.033Z</time>
      </trkpt>
      <trkpt lat="49.49055" lon="5.25589">
        <ele>238</ele>
        <time>2018-06-25T09:09:37.033Z</time>
      </trkpt>
      <trkpt lat="49.49041" lon="5.25543">
        <ele>238</ele>
        <time>2018-06-25T09:09:38.033Z</time>
      </trkpt>
      <trkpt lat="49.4902" lon="5.25487">
        <ele>236</ele>
        <time>2018-06-25T09:09:39.033Z</time>
      </trkpt>
      <trkpt lat="49.49001" lon="5.25442">
        <ele>235</ele>
        <time>2018-06-25T09:09:40.033Z</time>
      </trkpt>
      <trkpt lat="49.48958" lon="5.25306">
        <ele>233</ele>
        <time>2018-06-25T09:09:41.033Z</time>
      </trkpt>
      <trkpt lat="49.48943" lon="5.25277">
        <ele>231</ele>
        <time>2018-06-25T09:09:42.033Z</time>
      </trkpt>
      <trkpt lat="49.48884" lon="5.25009">
        <ele>227</ele>
        <time>2018-06-25T09:09:43.033Z</time>
      </trkpt>
      <trkpt lat="49.48883" lon="5.24956">
        <ele>226</ele>
        <time>2018-06-25T09:09:44.033Z</time>
      </trkpt>
      <trkpt lat="49.48876" lon="5.24933">
        <ele>225</ele>
        <time>2018-06-25T09:09:45.033Z</time>
      </trkpt>
      <trkpt lat="49.48881" lon="5.2489">
        <ele>225</ele>
        <time>2018-06-25T09:09:46.033Z</time>
      </trkpt>
      <trkpt lat="49.48883" lon="5.24715">
        <ele>223</ele>
        <time>2018-06-25T09:09:47.033Z</time>
      </trkpt>
      <trkpt lat="49.4888" lon="5.24714">
        <ele>223</ele>
        <time>2018-06-25T09:09:48.033Z</time>
      </trkpt>
      <trkpt lat="49.48869" lon="5.24691">
        <ele>221</ele>
        <time>2018-06-25T09:09:49.033Z</time>
      </trkpt>
      <trkpt lat="49.48817" lon="5.24593">
        <ele>214</ele>
        <time>2018-06-25T09:09:50.033Z</time>
      </trkpt>
      <trkpt lat="49.48807" lon="5.24568">
        <ele>213</ele>
        <time>2018-06-25T09:09:51.033Z</time>
      </trkpt>
      <trkpt lat="49.48797" lon="5.24529">
        <ele>210</ele>
        <time>2018-06-25T09:09:52.033Z</time>
      </trkpt>
      <trkpt lat="49.48795" lon="5.24507">
        <ele>208</ele>
        <time>2018-06-25T09:09:53.033Z</time>
      </trkpt>
      <trkpt lat="49.48794" lon="5.2444">
        <ele>204</ele>
        <time>2018-06-25T09:09:54.033Z</time>
      </trkpt>
      <trkpt lat="49.48792" lon="5.24426">
        <ele>204</ele>
        <time>2018-06-25T09:09:55.033Z</time>
      </trkpt>
      <trkpt lat="49.48788" lon="5.24415">
        <ele>203</ele>
        <time>2018-06-25T09:09:56.033Z</time>
      </trkpt>
      <trkpt lat="49.48749" lon="5.24365">
        <ele>200</ele>
        <time>2018-06-25T09:09:57.033Z</time>
      </trkpt>
      <trkpt lat="49.4874" lon="5.24351">
        <ele>201</ele>
        <time>2018-06-25T09:09:58.033Z</time>
      </trkpt>
      <trkpt lat="49.48721" lon="5.24289">
        <ele>202</ele>
        <time>2018-06-25T09:09:59.033Z</time>
      </trkpt>
      <trkpt lat="49.48717" lon="5.24268">
        <ele>202</ele>
        <time>2018-06-25T09:10:00.033Z</time>
      </trkpt>
      <trkpt lat="49.48722" lon="5.24227">
        <ele>201</ele>
        <time>2018-06-25T09:10:01.033Z</time>
      </trkpt>
      <trkpt lat="49.48726" lon="5.24213">
        <ele>201</ele>
        <time>2018-06-25T09:10:02.033Z</time>
      </trkpt>
      <trkpt lat="49.48677" lon="5.24151">
        <ele>202</ele>
        <time>2018-06-25T09:10:03.033Z</time>
      </trkpt>
      <trkpt lat="49.48662" lon="5.24129">
        <ele>203</ele>
        <time>2018-06-25T09:10:04.033Z</time>
      </trkpt>
      <trkpt lat="49.48655" lon="5.24113">
        <ele>204</ele>
        <time>2018-06-25T09:10:05.033Z</time>
      </trkpt>
      <trkpt lat="49.48642" lon="5.24068">
        <ele>205</ele>
        <time>2018-06-25T09:10:06.033Z</time>
      </trkpt>
      <trkpt lat="49.48638" lon="5.2405">
        <ele>206</ele>
        <time>2018-06-25T09:10:07.033Z</time>
      </trkpt>
      <trkpt lat="49.48635" lon="5.24012">
        <ele>208</ele>
        <time>2018-06-25T09:10:08.033Z</time>
      </trkpt>
      <trkpt lat="49.48635" lon="5.23991">
        <ele>208</ele>
        <time>2018-06-25T09:10:09.033Z</time>
      </trkpt>
      <trkpt lat="49.4864" lon="5.23946">
        <ele>208</ele>
        <time>2018-06-25T09:10:10.033Z</time>
      </trkpt>
      <trkpt lat="49.48648" lon="5.23902">
        <ele>209</ele>
        <time>2018-06-25T09:10:11.033Z</time>
      </trkpt>
      <trkpt lat="49.48656" lon="5.23874">
        <ele>209</ele>
        <time>2018-06-25T09:10:12.033Z</time>
      </trkpt>
      <trkpt lat="49.48679" lon="5.2381">
        <ele>210</ele>
        <time>2018-06-25T09:10:13.033Z</time>
      </trkpt>
      <trkpt lat="49.48685" lon="5.23768">
        <ele>213</ele>
        <time>2018-06-25T09:10:14.033Z</time>
      </trkpt>
      <trkpt lat="49.48688" lon="5.23761">
        <ele>214</ele>
        <time>2018-06-25T09:10:15.033Z</time>
      </trkpt>
      <trkpt lat="49.48634" lon="5.23581">
        <ele>215</ele>
        <time>2018-06-25T09:10:16.033Z</time>
      </trkpt>
      <trkpt lat="49.48589" lon="5.23398">
        <ele>214</ele>
        <time>2018-06-25T09:10:17.033Z</time>
      </trkpt>
      <trkpt lat="49.48543" lon="5.23222">
        <ele>223</ele>
        <time>2018-06-25T09:10:18.033Z</time>
      </trkpt>
      <trkpt lat="49.48536" lon="5.23205">
        <ele>224</ele>
        <time>2018-06-25T09:10:19.033Z</time>
      </trkpt>
      <trkpt lat="49.48516" lon="5.23164">
        <ele>228</ele>
        <time>2018-06-25T09:10:20.033Z</time>
      </trkpt>
      <trkpt lat="49.4842" lon="5.22987">
        <ele>235</ele>
        <time>2018-06-25T09:10:21.033Z</time>
      </trkpt>
      <trkpt lat="49.48392" lon="5.229">
        <ele>238</ele>
        <time>2018-06-25T09:10:22.033Z</time>
      </trkpt>
      <trkpt lat="49.48375" lon="5.22857">
        <ele>239</ele>
        <time>2018-06-25T09:10:23.033Z</time>
      </trkpt>
      <trkpt lat="49.48359" lon="5.2283">
        <ele>239</ele>
        <time>2018-06-25T09:10:24.033Z</time>
      </trkpt>
      <trkpt lat="49.48346" lon="5.22818">
        <ele>240</ele>
        <time>2018-06-25T09:10:25.033Z</time>
      </trkpt>
      <trkpt lat="49.48332" lon="5.22809">
        <ele>240</ele>
        <time>2018-06-25T09:10:26.033Z</time>
      </trkpt>
      <trkpt lat="49.48311" lon="5.22803">
        <ele>240</ele>
        <time>2018-06-25T09:10:27.033Z</time>
      </trkpt>
      <trkpt lat="49.48244" lon="5.22819">
        <ele>238</ele>
        <time>2018-06-25T09:10:28.033Z</time>
      </trkpt>
      <trkpt lat="49.48227" lon="5.22821">
        <ele>237</ele>
        <time>2018-06-25T09:10:29.033Z</time>
      </trkpt>
      <trkpt lat="49.4821" lon="5.22816">
        <ele>236</ele>
        <time>2018-06-25T09:10:30.033Z</time>
      </trkpt>
      <trkpt lat="49.48171" lon="5.22784">
        <ele>233</ele>
        <time>2018-06-25T09:10:31.033Z</time>
      </trkpt>
      <trkpt lat="49.48161" lon="5.22768">
        <ele>232</ele>
        <time>2018-06-25T09:10:32.033Z</time>
      </trkpt>
      <trkpt lat="49.48151" lon="5.22751">
        <ele>230</ele>
        <time>2018-06-25T09:10:33.033Z</time>
      </trkpt>
      <trkpt lat="49.48137" lon="5.22707">
        <ele>229</ele>
        <time>2018-06-25T09:10:34.033Z</time>
      </trkpt>
      <trkpt lat="49.4813" lon="5.22669">
        <ele>228</ele>
        <time>2018-06-25T09:10:35.033Z</time>
      </trkpt>
      <trkpt lat="49.4811" lon="5.22542">
        <ele>224</ele>
        <time>2018-06-25T09:10:36.033Z</time>
      </trkpt>
      <trkpt lat="49.48094" lon="5.22491">
        <ele>222</ele>
        <time>2018-06-25T09:10:37.033Z</time>
      </trkpt>
      <trkpt lat="49.48061" lon="5.22445">
        <ele>220</ele>
        <time>2018-06-25T09:10:38.033Z</time>
      </trkpt>
      <trkpt lat="49.48025" lon="5.22427">
        <ele>218</ele>
        <time>2018-06-25T09:10:39.033Z</time>
      </trkpt>
      <trkpt lat="49.47947" lon="5.22455">
        <ele>211</ele>
        <time>2018-06-25T09:10:40.033Z</time>
      </trkpt>
      <trkpt lat="49.47891" lon="5.22497">
        <ele>209</ele>
        <time>2018-06-25T09:10:41.033Z</time>
      </trkpt>
      <trkpt lat="49.47864" lon="5.22489">
        <ele>207</ele>
        <time>2018-06-25T09:10:42.033Z</time>
      </trkpt>
      <trkpt lat="49.47823" lon="5.22473">
        <ele>205</ele>
        <time>2018-06-25T09:10:43.033Z</time>
      </trkpt>
      <trkpt lat="49.47362" lon="5.22159">
        <ele>197</ele>
        <time>2018-06-25T09:10:44.033Z</time>
      </trkpt>
      <trkpt lat="49.47298" lon="5.22127">
        <ele>195</ele>
        <time>2018-06-25T09:10:45.033Z</time>
      </trkpt>
      <trkpt lat="49.47177" lon="5.22097">
        <ele>191</ele>
        <time>2018-06-25T09:10:46.033Z</time>
      </trkpt>
      <trkpt lat="49.47058" lon="5.22004">
        <ele>186</ele>
        <time>2018-06-25T09:10:47.033Z</time>
      </trkpt>
      <trkpt lat="49.46988" lon="5.21938">
        <ele>185</ele>
        <time>2018-06-25T09:10:48.033Z</time>
      </trkpt>
      <trkpt lat="49.46969" lon="5.21911">
        <ele>185</ele>
        <time>2018-06-25T09:10:49.033Z</time>
      </trkpt>
      <trkpt lat="49.46929" lon="5.21838">
        <ele>185</ele>
        <time>2018-06-25T09:10:50.033Z</time>
      </trkpt>
      <trkpt lat="49.46815" lon="5.21643">
        <ele>184</ele>
        <time>2018-06-25T09:10:51.033Z</time>
      </trkpt>
      <trkpt lat="49.46775" lon="5.21578">
        <ele>182</ele>
        <time>2018-06-25T09:10:52.033Z</time>
      </trkpt>
      <trkpt lat="49.46754" lon="5.21526">
        <ele>181</ele>
        <time>2018-06-25T09:10:53.033Z</time>
      </trkpt>
      <trkpt lat="49.46743" lon="5.21491">
        <ele>181</ele>
        <time>2018-06-25T09:10:54.033Z</time>
      </trkpt>
      <trkpt lat="49.46713" lon="5.2135">
        <ele>178</ele>
        <time>2018-06-25T09:10:55.033Z</time>
      </trkpt>
      <trkpt lat="49.46705" lon="5.21319">
        <ele>177</ele>
        <time>2018-06-25T09:10:56.033Z</time>
      </trkpt>
      <trkpt lat="49.46698" lon="5.21297">
        <ele>177</ele>
        <time>2018-06-25T09:10:57.033Z</time>
      </trkpt>
      <trkpt lat="49.46684" lon="5.21267">
        <ele>176</ele>
        <time>2018-06-25T09:10:58.033Z</time>
      </trkpt>
      <trkpt lat="49.46685" lon="5.21266">
        <ele>176</ele>
        <time>2018-06-25T09:10:59.033Z</time>
      </trkpt>
      <trkpt lat="49.46633" lon="5.21153">
        <ele>173</ele>
        <time>2018-06-25T09:11:00.033Z</time>
      </trkpt>
      <trkpt lat="49.46563" lon="5.21198">
        <ele>174</ele>
        <time>2018-06-25T09:11:01.033Z</time>
      </trkpt>
      <trkpt lat="49.46528" lon="5.21223">
        <ele>174</ele>
        <time>2018-06-25T09:11:02.033Z</time>
      </trkpt>
      <trkpt lat="49.46503" lon="5.21247">
        <ele>174</ele>
        <time>2018-06-25T09:11:03.033Z</time>
      </trkpt>
      <trkpt lat="49.46485" lon="5.21275">
        <ele>174</ele>
        <time>2018-06-25T09:11:04.033Z</time>
      </trkpt>
      <trkpt lat="49.4644" lon="5.21369">
        <ele>173</ele>
        <time>2018-06-25T09:11:05.033Z</time>
      </trkpt>
      <trkpt lat="49.46396" lon="5.21451">
        <ele>172</ele>
        <time>2018-06-25T09:11:06.033Z</time>
      </trkpt>
      <trkpt lat="49.46371" lon="5.21482">
        <ele>171</ele>
        <time>2018-06-25T09:11:07.033Z</time>
      </trkpt>
      <trkpt lat="49.46295" lon="5.21545">
        <ele>170</ele>
        <time>2018-06-25T09:11:08.033Z</time>
      </trkpt>
      <trkpt lat="49.46301" lon="5.21562">
        <ele>170</ele>
        <time>2018-06-25T09:11:09.033Z</time>
      </trkpt>
      <trkpt lat="49.46295" lon="5.21578">
        <ele>170</ele>
        <time>2018-06-25T09:11:10.033Z</time>
      </trkpt>
      <trkpt lat="49.46257" lon="5.21639">
        <ele>172</ele>
        <time>2018-06-25T09:11:11.033Z</time>
      </trkpt>
      <trkpt lat="49.46247" lon="5.2166">
        <ele>173</ele>
        <time>2018-06-25T09:11:12.033Z</time>
      </trkpt>
      <trkpt lat="49.46208" lon="5.2173">
        <ele>171</ele>
        <time>2018-06-25T09:11:13.033Z</time>
      </trkpt>
      <trkpt lat="49.46185" lon="5.21766">
        <ele>170</ele>
        <time>2018-06-25T09:11:14.033Z</time>
      </trkpt>
      <trkpt lat="49.46164" lon="5.21822">
        <ele>169</ele>
        <time>2018-06-25T09:11:15.033Z</time>
      </trkpt>
      <trkpt lat="49.46164" lon="5.21831">
        <ele>169</ele>
        <time>2018-06-25T09:11:16.033Z</time>
      </trkpt>
      <trkpt lat="49.46174" lon="5.21852">
        <ele>169</ele>
        <time>2018-06-25T09:11:17.033Z</time>
      </trkpt>
      <trkpt lat="49.46176" lon="5.21853">
        <ele>170</ele>
        <time>2018-06-25T09:11:18.033Z</time>
      </trkpt>
      <trkpt lat="49.46219" lon="5.2192">
        <ele>172</ele>
        <time>2018-06-25T09:11:19.033Z</time>
      </trkpt>
      <trkpt lat="49.4623" lon="5.21943">
        <ele>173</ele>
        <time>2018-06-25T09:11:20.033Z</time>
      </trkpt>
      <trkpt lat="49.46233" lon="5.21962">
        <ele>173</ele>
        <time>2018-06-25T09:11:21.033Z</time>
      </trkpt>
      <trkpt lat="49.46229" lon="5.21978">
        <ele>173</ele>
        <time>2018-06-25T09:11:22.033Z</time>
      </trkpt>
      <trkpt lat="49.46201" lon="5.2202">
        <ele>173</ele>
        <time>2018-06-25T09:11:23.033Z</time>
      </trkpt>
      <trkpt lat="49.46169" lon="5.22063">
        <ele>173</ele>
        <time>2018-06-25T09:11:24.033Z</time>
      </trkpt>
      <trkpt lat="49.46104" lon="5.22165">
        <ele>174</ele>
        <time>2018-06-25T09:11:25.033Z</time>
      </trkpt>
      <trkpt lat="49.46079" lon="5.22194">
        <ele>174</ele>
        <time>2018-06-25T09:11:26.033Z</time>
      </trkpt>
      <trkpt lat="49.46047" lon="5.22224">
        <ele>173</ele>
        <time>2018-06-25T09:11:27.033Z</time>
      </trkpt>
      <trkpt lat="49.4599" lon="5.22266">
        <ele>172</ele>
        <time>2018-06-25T09:11:28.033Z</time>
      </trkpt>
      <trkpt lat="49.45753" lon="5.22384">
        <ele>168</ele>
        <time>2018-06-25T09:11:29.033Z</time>
      </trkpt>
      <trkpt lat="49.45655" lon="5.22451">
        <ele>168</ele>
        <time>2018-06-25T09:11:30.033Z</time>
      </trkpt>
      <trkpt lat="49.45357" lon="5.22691">
        <ele>170</ele>
        <time>2018-06-25T09:11:31.033Z</time>
      </trkpt>
      <trkpt lat="49.45099" lon="5.22893">
        <ele>175</ele>
        <time>2018-06-25T09:11:32.033Z</time>
      </trkpt>
      <trkpt lat="49.45028" lon="5.22938">
        <ele>173</ele>
        <time>2018-06-25T09:11:33.033Z</time>
      </trkpt>
      <trkpt lat="49.44981" lon="5.22964">
        <ele>173</ele>
        <time>2018-06-25T09:11:34.033Z</time>
      </trkpt>
      <trkpt lat="49.44914" lon="5.2297">
        <ele>172</ele>
        <time>2018-06-25T09:11:35.033Z</time>
      </trkpt>
      <trkpt lat="49.44884" lon="5.22994">
        <ele>172</ele>
        <time>2018-06-25T09:11:36.033Z</time>
      </trkpt>
      <trkpt lat="49.44829" lon="5.23054">
        <ele>173</ele>
        <time>2018-06-25T09:11:37.033Z</time>
      </trkpt>
      <trkpt lat="49.44596" lon="5.2323">
        <ele>175</ele>
        <time>2018-06-25T09:11:38.033Z</time>
      </trkpt>
      <trkpt lat="49.44537" lon="5.23286">
        <ele>177</ele>
        <time>2018-06-25T09:11:39.033Z</time>
      </trkpt>
      <trkpt lat="49.44491" lon="5.23341">
        <ele>179</ele>
        <time>2018-06-25T09:11:40.033Z</time>
      </trkpt>
      <trkpt lat="49.44423" lon="5.23511">
        <ele>187</ele>
        <time>2018-06-25T09:11:41.033Z</time>
      </trkpt>
      <trkpt lat="49.44379" lon="5.23607">
        <ele>189</ele>
        <time>2018-06-25T09:11:42.033Z</time>
      </trkpt>
      <trkpt lat="49.44307" lon="5.23717">
        <ele>193</ele>
        <time>2018-06-25T09:11:43.033Z</time>
      </trkpt>
      <trkpt lat="49.44276" lon="5.23734">
        <ele>194</ele>
        <time>2018-06-25T09:11:44.033Z</time>
      </trkpt>
      <trkpt lat="49.44222" lon="5.2372">
        <ele>195</ele>
        <time>2018-06-25T09:11:45.033Z</time>
      </trkpt>
      <trkpt lat="49.44117" lon="5.23744">
        <ele>196</ele>
        <time>2018-06-25T09:11:46.033Z</time>
      </trkpt>
      <trkpt lat="49.43937" lon="5.23775">
        <ele>195</ele>
        <time>2018-06-25T09:11:47.033Z</time>
      </trkpt>
      <trkpt lat="49.43815" lon="5.23734">
        <ele>195</ele>
        <time>2018-06-25T09:11:48.033Z</time>
      </trkpt>
      <trkpt lat="49.43112" lon="5.23923">
        <ele>198</ele>
        <time>2018-06-25T09:11:49.033Z</time>
      </trkpt>
      <trkpt lat="49.43058" lon="5.23906">
        <ele>196</ele>
        <time>2018-06-25T09:11:50.033Z</time>
      </trkpt>
      <trkpt lat="49.42858" lon="5.23805">
        <ele>190</ele>
        <time>2018-06-25T09:11:51.033Z</time>
      </trkpt>
      <trkpt lat="49.42834" lon="5.23777">
        <ele>191</ele>
        <time>2018-06-25T09:11:52.033Z</time>
      </trkpt>
      <trkpt lat="49.42758" lon="5.23533">
        <ele>186</ele>
        <time>2018-06-25T09:11:53.033Z</time>
      </trkpt>
      <trkpt lat="49.42732" lon="5.23496">
        <ele>184</ele>
        <time>2018-06-25T09:11:54.033Z</time>
      </trkpt>
      <trkpt lat="49.42731" lon="5.23496">
        <ele>184</ele>
        <time>2018-06-25T09:11:55.033Z</time>
      </trkpt>
      <trkpt lat="49.42566" lon="5.23384">
        <ele>175</ele>
        <time>2018-06-25T09:11:56.033Z</time>
      </trkpt>
      <trkpt lat="49.42529" lon="5.23354">
        <ele>173</ele>
        <time>2018-06-25T09:11:57.033Z</time>
      </trkpt>
      <trkpt lat="49.42529" lon="5.23353">
        <ele>173</ele>
        <time>2018-06-25T09:11:58.033Z</time>
      </trkpt>
      <trkpt lat="49.4248" lon="5.23308">
        <ele>172</ele>
        <time>2018-06-25T09:11:59.033Z</time>
      </trkpt>
      <trkpt lat="49.42467" lon="5.23289">
        <ele>171</ele>
        <time>2018-06-25T09:12:00.033Z</time>
      </trkpt>
      <trkpt lat="49.42439" lon="5.23218">
        <ele>170</ele>
        <time>2018-06-25T09:12:01.033Z</time>
      </trkpt>
      <trkpt lat="49.42416" lon="5.23177">
        <ele>170</ele>
        <time>2018-06-25T09:12:02.033Z</time>
      </trkpt>
      <trkpt lat="49.42399" lon="5.23154">
        <ele>170</ele>
        <time>2018-06-25T09:12:03.033Z</time>
      </trkpt>
      <trkpt lat="49.42349" lon="5.23122">
        <ele>171</ele>
        <time>2018-06-25T09:12:04.033Z</time>
      </trkpt>
      <trkpt lat="49.42294" lon="5.231">
        <ele>171</ele>
        <time>2018-06-25T09:12:05.033Z</time>
      </trkpt>
      <trkpt lat="49.42253" lon="5.2309">
        <ele>172</ele>
        <time>2018-06-25T09:12:06.033Z</time>
      </trkpt>
      <trkpt lat="49.4217" lon="5.23082">
        <ele>172</ele>
        <time>2018-06-25T09:12:07.033Z</time>
      </trkpt>
      <trkpt lat="49.42169" lon="5.23082">
        <ele>172</ele>
        <time>2018-06-25T09:12:08.033Z</time>
      </trkpt>
      <trkpt lat="49.42134" lon="5.23077">
        <ele>172</ele>
        <time>2018-06-25T09:12:09.033Z</time>
      </trkpt>
      <trkpt lat="49.42096" lon="5.23067">
        <ele>172</ele>
        <time>2018-06-25T09:12:10.033Z</time>
      </trkpt>
      <trkpt lat="49.41928" lon="5.2301">
        <ele>171</ele>
        <time>2018-06-25T09:12:11.033Z</time>
      </trkpt>
      <trkpt lat="49.41722" lon="5.22921">
        <ele>171</ele>
        <time>2018-06-25T09:12:12.033Z</time>
      </trkpt>
      <trkpt lat="49.41531" lon="5.22869">
        <ele>173</ele>
        <time>2018-06-25T09:12:13.033Z</time>
      </trkpt>
      <trkpt lat="49.41393" lon="5.22821">
        <ele>173</ele>
        <time>2018-06-25T09:12:14.033Z</time>
      </trkpt>
      <trkpt lat="49.41319" lon="5.22804">
        <ele>174</ele>
        <time>2018-06-25T09:12:15.033Z</time>
      </trkpt>
      <trkpt lat="49.41121" lon="5.22738">
        <ele>176</ele>
        <time>2018-06-25T09:12:16.033Z</time>
      </trkpt>
      <trkpt lat="49.41" lon="5.22675">
        <ele>173</ele>
        <time>2018-06-25T09:12:17.033Z</time>
      </trkpt>
      <trkpt lat="49.40919" lon="5.22668">
        <ele>174</ele>
        <time>2018-06-25T09:12:18.033Z</time>
      </trkpt>
      <trkpt lat="49.40858" lon="5.22903">
        <ele>179</ele>
        <time>2018-06-25T09:12:19.033Z</time>
      </trkpt>
      <trkpt lat="49.40575" lon="5.23279">
        <ele>201</ele>
        <time>2018-06-25T09:12:20.033Z</time>
      </trkpt>
      <trkpt lat="49.40422" lon="5.23543">
        <ele>222</ele>
        <time>2018-06-25T09:12:21.033Z</time>
      </trkpt>
      <trkpt lat="49.40238" lon="5.23995">
        <ele>274</ele>
        <time>2018-06-25T09:12:22.033Z</time>
      </trkpt>
      <trkpt lat="49.40182" lon="5.24254">
        <ele>307</ele>
        <time>2018-06-25T09:12:23.033Z</time>
      </trkpt>
      <trkpt lat="49.40195" lon="5.24411">
        <ele>309</ele>
        <time>2018-06-25T09:12:24.033Z</time>
      </trkpt>
      <trkpt lat="49.4024" lon="5.24761">
        <ele>314</ele>
        <time>2018-06-25T09:12:25.033Z</time>
      </trkpt>
      <trkpt lat="49.40347" lon="5.24911">
        <ele>312</ele>
        <time>2018-06-25T09:12:26.033Z</time>
      </trkpt>
      <trkpt lat="49.40594" lon="5.25155">
        <ele>327</ele>
        <time>2018-06-25T09:12:27.033Z</time>
      </trkpt>
      <trkpt lat="49.4079" lon="5.25232">
        <ele>336</ele>
        <time>2018-06-25T09:12:28.033Z</time>
      </trkpt>
      <trkpt lat="49.41027" lon="5.25237">
        <ele>330</ele>
        <time>2018-06-25T09:12:29.033Z</time>
      </trkpt>
      <trkpt lat="49.407" lon="5.25228">
        <ele>334</ele>
        <time>2018-06-25T09:12:30.033Z</time>
      </trkpt>
      <trkpt lat="49.40431" lon="5.25028">
        <ele>315</ele>
        <time>2018-06-25T09:12:31.033Z</time>
      </trkpt>
      <trkpt lat="49.40173" lon="5.24649">
        <ele>318</ele>
        <time>2018-06-25T09:12:32.033Z</time>
      </trkpt>
      <trkpt lat="49.40112" lon="5.24033">
        <ele>323</ele>
        <time>2018-06-25T09:12:33.033Z</time>
      </trkpt>
      <trkpt lat="49.4011" lon="5.23822">
        <ele>325</ele>
        <time>2018-06-25T09:12:34.033Z</time>
      </trkpt>
      <trkpt lat="49.40101" lon="5.23663">
        <ele>328</ele>
        <time>2018-06-25T09:12:35.033Z</time>
      </trkpt>
      <trkpt lat="49.40128" lon="5.23569">
        <ele>321</ele>
        <time>2018-06-25T09:12:36.033Z</time>
      </trkpt>
      <trkpt lat="49.40082" lon="5.23403">
        <ele>340</ele>
        <time>2018-06-25T09:12:37.033Z</time>
      </trkpt>
      <trkpt lat="49.40206" lon="5.23245">
        <ele>324</ele>
        <time>2018-06-25T09:12:38.033Z</time>
      </trkpt>
      <trkpt lat="49.40197" lon="5.2312">
        <ele>325</ele>
        <time>2018-06-25T09:12:39.033Z</time>
      </trkpt>
      <trkpt lat="49.40012" lon="5.22991">
        <ele>325</ele>
        <time>2018-06-25T09:12:40.033Z</time>
      </trkpt>
      <trkpt lat="49.39821" lon="5.22568">
        <ele>262</ele>
        <time>2018-06-25T09:12:41.033Z</time>
      </trkpt>
      <trkpt lat="49.39778" lon="5.22424">
        <ele>236</ele>
        <time>2018-06-25T09:12:42.033Z</time>
      </trkpt>
      <trkpt lat="49.39786" lon="5.22266">
        <ele>208</ele>
        <time>2018-06-25T09:12:43.033Z</time>
      </trkpt>
      <trkpt lat="49.39888" lon="5.2234">
        <ele>209</ele>
        <time>2018-06-25T09:12:44.033Z</time>
      </trkpt>
      <trkpt lat="49.401" lon="5.21747">
        <ele>175</ele>
        <time>2018-06-25T09:12:45.033Z</time>
      </trkpt>
      <trkpt lat="49.4011" lon="5.21734">
        <ele>175</ele>
        <time>2018-06-25T09:12:46.033Z</time>
      </trkpt>
      <trkpt lat="49.39982" lon="5.21382">
        <ele>175</ele>
        <time>2018-06-25T09:12:47.033Z</time>
      </trkpt>
      <trkpt lat="49.39906" lon="5.21073">
        <ele>172</ele>
        <time>2018-06-25T09:12:48.033Z</time>
      </trkpt>
      <trkpt lat="49.39865" lon="5.20967">
        <ele>172</ele>
        <time>2018-06-25T09:12:49.033Z</time>
      </trkpt>
      <trkpt lat="49.39841" lon="5.20943">
        <ele>171</ele>
        <time>2018-06-25T09:12:50.033Z</time>
      </trkpt>
      <trkpt lat="49.39716" lon="5.20918">
        <ele>173</ele>
        <time>2018-06-25T09:12:51.033Z</time>
      </trkpt>
      <trkpt lat="49.39704" lon="5.20902">
        <ele>174</ele>
        <time>2018-06-25T09:12:52.033Z</time>
      </trkpt>
      <trkpt lat="49.39694" lon="5.20835">
        <ele>173</ele>
        <time>2018-06-25T09:12:53.033Z</time>
      </trkpt>
      <trkpt lat="49.39698" lon="5.20772">
        <ele>174</ele>
        <time>2018-06-25T09:12:54.033Z</time>
      </trkpt>
      <trkpt lat="49.39689" lon="5.20678">
        <ele>174</ele>
        <time>2018-06-25T09:12:55.033Z</time>
      </trkpt>
      <trkpt lat="49.39706" lon="5.20661">
        <ele>174</ele>
        <time>2018-06-25T09:12:56.033Z</time>
      </trkpt>
      <trkpt lat="49.39671" lon="5.2055">
        <ele>173</ele>
        <time>2018-06-25T09:12:57.033Z</time>
      </trkpt>
      <trkpt lat="49.39483" lon="5.20071">
        <ele>172</ele>
        <time>2018-06-25T09:12:58.033Z</time>
      </trkpt>
      <trkpt lat="49.39263" lon="5.19571">
        <ele>172</ele>
        <time>2018-06-25T09:12:59.033Z</time>
      </trkpt>
      <trkpt lat="49.39087" lon="5.19049">
        <ele>175</ele>
        <time>2018-06-25T09:13:00.033Z</time>
      </trkpt>
      <trkpt lat="49.38996" lon="5.18711">
        <ele>184</ele>
        <time>2018-06-25T09:13:01.033Z</time>
      </trkpt>
      <trkpt lat="49.38948" lon="5.18576">
        <ele>191</ele>
        <time>2018-06-25T09:13:02.033Z</time>
      </trkpt>
      <trkpt lat="49.38885" lon="5.18747">
        <ele>205</ele>
        <time>2018-06-25T09:13:03.033Z</time>
      </trkpt>
      <trkpt lat="49.3883" lon="5.18857">
        <ele>218</ele>
        <time>2018-06-25T09:13:04.033Z</time>
      </trkpt>
      <trkpt lat="49.38812" lon="5.18861">
        <ele>218</ele>
        <time>2018-06-25T09:13:05.033Z</time>
      </trkpt>
      <trkpt lat="49.38789" lon="5.1885">
        <ele>217</ele>
        <time>2018-06-25T09:13:06.033Z</time>
      </trkpt>
      <trkpt lat="49.38647" lon="5.18659">
        <ele>221</ele>
        <time>2018-06-25T09:13:07.033Z</time>
      </trkpt>
      <trkpt lat="49.38592" lon="5.186">
        <ele>217</ele>
        <time>2018-06-25T09:13:08.033Z</time>
      </trkpt>
      <trkpt lat="49.38577" lon="5.18569">
        <ele>215</ele>
        <time>2018-06-25T09:13:09.033Z</time>
      </trkpt>
      <trkpt lat="49.38572" lon="5.18523">
        <ele>214</ele>
        <time>2018-06-25T09:13:10.033Z</time>
      </trkpt>
      <trkpt lat="49.38556" lon="5.18496">
        <ele>210</ele>
        <time>2018-06-25T09:13:11.033Z</time>
      </trkpt>
      <trkpt lat="49.3854" lon="5.18418">
        <ele>194</ele>
        <time>2018-06-25T09:13:12.033Z</time>
      </trkpt>
      <trkpt lat="49.38552" lon="5.18366">
        <ele>190</ele>
        <time>2018-06-25T09:13:13.033Z</time>
      </trkpt>
      <trkpt lat="49.38583" lon="5.18298">
        <ele>185</ele>
        <time>2018-06-25T09:13:14.033Z</time>
      </trkpt>
      <trkpt lat="49.38567" lon="5.18282">
        <ele>181</ele>
        <time>2018-06-25T09:13:15.033Z</time>
      </trkpt>
      <trkpt lat="49.38482" lon="5.18388">
        <ele>178</ele>
        <time>2018-06-25T09:13:16.033Z</time>
      </trkpt>
      <trkpt lat="49.38365" lon="5.18486">
        <ele>177</ele>
        <time>2018-06-25T09:13:17.033Z</time>
      </trkpt>
      <trkpt lat="49.38374" lon="5.18523">
        <ele>178</ele>
        <time>2018-06-25T09:13:18.033Z</time>
      </trkpt>
      <trkpt lat="49.38396" lon="5.18536">
        <ele>179</ele>
        <time>2018-06-25T09:13:19.033Z</time>
      </trkpt>
      <trkpt lat="49.38281" lon="5.18775">
        <ele>200</ele>
        <time>2018-06-25T09:13:20.033Z</time>
      </trkpt>
      <trkpt lat="49.3822" lon="5.18827">
        <ele>210</ele>
        <time>2018-06-25T09:13:21.033Z</time>
      </trkpt>
      <trkpt lat="49.38182" lon="5.18891">
        <ele>217</ele>
        <time>2018-06-25T09:13:22.033Z</time>
      </trkpt>
      <trkpt lat="49.38054" lon="5.19036">
        <ele>232</ele>
        <time>2018-06-25T09:13:23.033Z</time>
      </trkpt>
      <trkpt lat="49.38036" lon="5.19068">
        <ele>234</ele>
        <time>2018-06-25T09:13:24.033Z</time>
      </trkpt>
      <trkpt lat="49.37956" lon="5.1927">
        <ele>248</ele>
        <time>2018-06-25T09:13:25.033Z</time>
      </trkpt>
      <trkpt lat="49.37864" lon="5.19555">
        <ele>267</ele>
        <time>2018-06-25T09:13:26.033Z</time>
      </trkpt>
      <trkpt lat="49.37803" lon="5.19659">
        <ele>273</ele>
        <time>2018-06-25T09:13:27.033Z</time>
      </trkpt>
      <trkpt lat="49.37919" lon="5.20102">
        <ele>272</ele>
        <time>2018-06-25T09:13:28.033Z</time>
      </trkpt>
      <trkpt lat="49.37886" lon="5.20158">
        <ele>276</ele>
        <time>2018-06-25T09:13:29.033Z</time>
      </trkpt>
      <trkpt lat="49.37873" lon="5.20219">
        <ele>281</ele>
        <time>2018-06-25T09:13:30.033Z</time>
      </trkpt>
      <trkpt lat="49.37648" lon="5.20479">
        <ele>254</ele>
        <time>2018-06-25T09:13:31.033Z</time>
      </trkpt>
      <trkpt lat="49.37552" lon="5.20759">
        <ele>234</ele>
        <time>2018-06-25T09:13:32.033Z</time>
      </trkpt>
      <trkpt lat="49.37444" lon="5.21183">
        <ele>232</ele>
        <time>2018-06-25T09:13:33.033Z</time>
      </trkpt>
      <trkpt lat="49.37485" lon="5.2221">
        <ele>254</ele>
        <time>2018-06-25T09:13:34.033Z</time>
      </trkpt>
      <trkpt lat="49.37471" lon="5.22605">
        <ele>234</ele>
        <time>2018-06-25T09:13:35.033Z</time>
      </trkpt>
      <trkpt lat="49.37442" lon="5.22766">
        <ele>220</ele>
        <time>2018-06-25T09:13:36.033Z</time>
      </trkpt>
      <trkpt lat="49.3742" lon="5.22971">
        <ele>210</ele>
        <time>2018-06-25T09:13:37.033Z</time>
      </trkpt>
      <trkpt lat="49.37281" lon="5.23199">
        <ele>211</ele>
        <time>2018-06-25T09:13:38.033Z</time>
      </trkpt>
      <trkpt lat="49.37227" lon="5.23319">
        <ele>207</ele>
        <time>2018-06-25T09:13:39.033Z</time>
      </trkpt>
      <trkpt lat="49.37081" lon="5.2345">
        <ele>207</ele>
        <time>2018-06-25T09:13:40.033Z</time>
      </trkpt>
      <trkpt lat="49.36886" lon="5.23701">
        <ele>208</ele>
        <time>2018-06-25T09:13:41.033Z</time>
      </trkpt>
      <trkpt lat="49.36611" lon="5.24236">
        <ele>217</ele>
        <time>2018-06-25T09:13:42.033Z</time>
      </trkpt>
      <trkpt lat="49.36599" lon="5.2475">
        <ele>228</ele>
        <time>2018-06-25T09:13:43.033Z</time>
      </trkpt>
      <trkpt lat="49.36599" lon="5.25155">
        <ele>233</ele>
        <time>2018-06-25T09:13:44.033Z</time>
      </trkpt>
      <trkpt lat="49.36532" lon="5.25601">
        <ele>254</ele>
        <time>2018-06-25T09:13:45.033Z</time>
      </trkpt>
      <trkpt lat="49.36518" lon="5.2639">
        <ele>264</ele>
        <time>2018-06-25T09:13:46.033Z</time>
      </trkpt>
      <trkpt lat="49.36597" lon="5.26969">
        <ele>278</ele>
        <time>2018-06-25T09:13:47.033Z</time>
      </trkpt>
      <trkpt lat="49.36869" lon="5.27227">
        <ele>289</ele>
        <time>2018-06-25T09:13:48.033Z</time>
      </trkpt>
      <trkpt lat="49.37005" lon="5.27485">
        <ele>290</ele>
        <time>2018-06-25T09:13:49.033Z</time>
      </trkpt>
      <trkpt lat="49.37054" lon="5.2766">
        <ele>297</ele>
        <time>2018-06-25T09:13:50.033Z</time>
      </trkpt>
      <trkpt lat="49.3765" lon="5.2842">
        <ele>330</ele>
        <time>2018-06-25T09:13:51.033Z</time>
      </trkpt>
      <trkpt lat="49.37895" lon="5.28544">
        <ele>344</ele>
        <time>2018-06-25T09:13:52.033Z</time>
      </trkpt>
      <trkpt lat="49.38161" lon="5.28823">
        <ele>350</ele>
        <time>2018-06-25T09:13:53.033Z</time>
      </trkpt>
      <trkpt lat="49.38256" lon="5.29">
        <ele>356</ele>
        <time>2018-06-25T09:13:54.033Z</time>
      </trkpt>
      <trkpt lat="49.38491" lon="5.29265">
        <ele>345</ele>
        <time>2018-06-25T09:13:55.033Z</time>
      </trkpt>
      <trkpt lat="49.38534" lon="5.29466">
        <ele>338</ele>
        <time>2018-06-25T09:13:56.033Z</time>
      </trkpt>
      <trkpt lat="49.38574" lon="5.29563">
        <ele>334</ele>
        <time>2018-06-25T09:13:57.033Z</time>
      </trkpt>
      <trkpt lat="49.38668" lon="5.29929">
        <ele>300</ele>
        <time>2018-06-25T09:13:58.033Z</time>
      </trkpt>
      <trkpt lat="49.38722" lon="5.30079">
        <ele>286</ele>
        <time>2018-06-25T09:13:59.033Z</time>
      </trkpt>
      <trkpt lat="49.38785" lon="5.30149">
        <ele>274</ele>
        <time>2018-06-25T09:14:00.033Z</time>
      </trkpt>
      <trkpt lat="49.38823" lon="5.30169">
        <ele>269</ele>
        <time>2018-06-25T09:14:01.033Z</time>
      </trkpt>
      <trkpt lat="49.3889" lon="5.30183">
        <ele>263</ele>
        <time>2018-06-25T09:14:02.033Z</time>
      </trkpt>
      <trkpt lat="49.38996" lon="5.3027">
        <ele>241</ele>
        <time>2018-06-25T09:14:03.033Z</time>
      </trkpt>
      <trkpt lat="49.38994" lon="5.303">
        <ele>238</ele>
        <time>2018-06-25T09:14:04.033Z</time>
      </trkpt>
      <trkpt lat="49.38958" lon="5.3029">
        <ele>241</ele>
        <time>2018-06-25T09:14:05.033Z</time>
      </trkpt>
      <trkpt lat="49.3885" lon="5.30314">
        <ele>245</ele>
        <time>2018-06-25T09:14:06.033Z</time>
      </trkpt>
      <trkpt lat="49.38815" lon="5.30301">
        <ele>247</ele>
        <time>2018-06-25T09:14:07.033Z</time>
      </trkpt>
      <trkpt lat="49.3876" lon="5.3025">
        <ele>253</ele>
        <time>2018-06-25T09:14:08.033Z</time>
      </trkpt>
      <trkpt lat="49.38707" lon="5.30241">
        <ele>253</ele>
        <time>2018-06-25T09:14:09.033Z</time>
      </trkpt>
      <trkpt lat="49.38677" lon="5.30224">
        <ele>255</ele>
        <time>2018-06-25T09:14:10.033Z</time>
      </trkpt>
      <trkpt lat="49.38649" lon="5.30193">
        <ele>257</ele>
        <time>2018-06-25T09:14:11.033Z</time>
      </trkpt>
      <trkpt lat="49.38634" lon="5.30162">
        <ele>260</ele>
        <time>2018-06-25T09:14:12.033Z</time>
      </trkpt>
      <trkpt lat="49.38622" lon="5.30113">
        <ele>264</ele>
        <time>2018-06-25T09:14:13.033Z</time>
      </trkpt>
      <trkpt lat="49.38579" lon="5.29986">
        <ele>271</ele>
        <time>2018-06-25T09:14:14.033Z</time>
      </trkpt>
      <trkpt lat="49.38568" lon="5.29847">
        <ele>290</ele>
        <time>2018-06-25T09:14:15.033Z</time>
      </trkpt>
      <trkpt lat="49.38545" lon="5.29784">
        <ele>297</ele>
        <time>2018-06-25T09:14:16.033Z</time>
      </trkpt>
      <trkpt lat="49.38522" lon="5.29757">
        <ele>301</ele>
        <time>2018-06-25T09:14:17.033Z</time>
      </trkpt>
      <trkpt lat="49.38494" lon="5.29753">
        <ele>301</ele>
        <time>2018-06-25T09:14:18.033Z</time>
      </trkpt>
      <trkpt lat="49.38465" lon="5.29764">
        <ele>304</ele>
        <time>2018-06-25T09:14:19.033Z</time>
      </trkpt>
      <trkpt lat="49.38424" lon="5.29828">
        <ele>299</ele>
        <time>2018-06-25T09:14:20.033Z</time>
      </trkpt>
      <trkpt lat="49.38397" lon="5.29854">
        <ele>300</ele>
        <time>2018-06-25T09:14:21.033Z</time>
      </trkpt>
      <trkpt lat="49.38345" lon="5.29865">
        <ele>307</ele>
        <time>2018-06-25T09:14:22.033Z</time>
      </trkpt>
      <trkpt lat="49.38281" lon="5.2985">
        <ele>315</ele>
        <time>2018-06-25T09:14:23.033Z</time>
      </trkpt>
      <trkpt lat="49.38249" lon="5.29865">
        <ele>318</ele>
        <time>2018-06-25T09:14:24.033Z</time>
      </trkpt>
      <trkpt lat="49.38235" lon="5.29915">
        <ele>319</ele>
        <time>2018-06-25T09:14:25.033Z</time>
      </trkpt>
      <trkpt lat="49.38252" lon="5.29998">
        <ele>318</ele>
        <time>2018-06-25T09:14:26.033Z</time>
      </trkpt>
      <trkpt lat="49.38256" lon="5.30096">
        <ele>320</ele>
        <time>2018-06-25T09:14:27.033Z</time>
      </trkpt>
      <trkpt lat="49.38238" lon="5.30193">
        <ele>323</ele>
        <time>2018-06-25T09:14:28.033Z</time>
      </trkpt>
      <trkpt lat="49.38209" lon="5.3024">
        <ele>326</ele>
        <time>2018-06-25T09:14:29.033Z</time>
      </trkpt>
      <trkpt lat="49.38025" lon="5.30356">
        <ele>345</ele>
        <time>2018-06-25T09:14:30.033Z</time>
      </trkpt>
      <trkpt lat="49.37975" lon="5.30375">
        <ele>347</ele>
        <time>2018-06-25T09:14:31.033Z</time>
      </trkpt>
      <trkpt lat="49.37922" lon="5.30437">
        <ele>348</ele>
        <time>2018-06-25T09:14:32.033Z</time>
      </trkpt>
      <trkpt lat="49.37908" lon="5.30482">
        <ele>351</ele>
        <time>2018-06-25T09:14:33.033Z</time>
      </trkpt>
      <trkpt lat="49.37902" lon="5.30532">
        <ele>354</ele>
        <time>2018-06-25T09:14:34.033Z</time>
      </trkpt>
      <trkpt lat="49.37904" lon="5.30626">
        <ele>357</ele>
        <time>2018-06-25T09:14:35.033Z</time>
      </trkpt>
      <trkpt lat="49.37895" lon="5.30666">
        <ele>360</ele>
        <time>2018-06-25T09:14:36.033Z</time>
      </trkpt>
      <trkpt lat="49.37863" lon="5.30719">
        <ele>365</ele>
        <time>2018-06-25T09:14:37.033Z</time>
      </trkpt>
      <trkpt lat="49.37823" lon="5.30732">
        <ele>368</ele>
        <time>2018-06-25T09:14:38.033Z</time>
      </trkpt>
      <trkpt lat="49.37765" lon="5.30699">
        <ele>366</ele>
        <time>2018-06-25T09:14:39.033Z</time>
      </trkpt>
      <trkpt lat="49.37776" lon="5.30742">
        <ele>366</ele>
        <time>2018-06-25T09:14:40.033Z</time>
      </trkpt>
      <trkpt lat="49.37776" lon="5.30813">
        <ele>363</ele>
        <time>2018-06-25T09:14:41.033Z</time>
      </trkpt>
      <trkpt lat="49.37742" lon="5.31075">
        <ele>366</ele>
        <time>2018-06-25T09:14:42.033Z</time>
      </trkpt>
      <trkpt lat="49.37756" lon="5.31175">
        <ele>365</ele>
        <time>2018-06-25T09:14:43.033Z</time>
      </trkpt>
      <trkpt lat="49.37783" lon="5.31265">
        <ele>363</ele>
        <time>2018-06-25T09:14:44.033Z</time>
      </trkpt>
      <trkpt lat="49.37608" lon="5.31413">
        <ele>360</ele>
        <time>2018-06-25T09:14:45.033Z</time>
      </trkpt>
      <trkpt lat="49.37581" lon="5.31459">
        <ele>360</ele>
        <time>2018-06-25T09:14:46.033Z</time>
      </trkpt>
      <trkpt lat="49.37317" lon="5.32013">
        <ele>363</ele>
        <time>2018-06-25T09:14:47.033Z</time>
      </trkpt>
      <trkpt lat="49.3729" lon="5.32027">
        <ele>362</ele>
        <time>2018-06-25T09:14:48.033Z</time>
      </trkpt>
      <trkpt lat="49.36891" lon="5.31902">
        <ele>341</ele>
        <time>2018-06-25T09:14:49.033Z</time>
      </trkpt>
      <trkpt lat="49.36869" lon="5.31903">
        <ele>339</ele>
        <time>2018-06-25T09:14:50.033Z</time>
      </trkpt>
      <trkpt lat="49.36593" lon="5.32017">
        <ele>331</ele>
        <time>2018-06-25T09:14:51.033Z</time>
      </trkpt>
      <trkpt lat="49.3657" lon="5.32037">
        <ele>332</ele>
        <time>2018-06-25T09:14:52.033Z</time>
      </trkpt>
      <trkpt lat="49.36372" lon="5.32282">
        <ele>339</ele>
        <time>2018-06-25T09:14:53.033Z</time>
      </trkpt>
      <trkpt lat="49.3624" lon="5.32462">
        <ele>337</ele>
        <time>2018-06-25T09:14:54.033Z</time>
      </trkpt>
      <trkpt lat="49.36121" lon="5.32525">
        <ele>334</ele>
        <time>2018-06-25T09:14:55.033Z</time>
      </trkpt>
      <trkpt lat="49.3611" lon="5.32519">
        <ele>333</ele>
        <time>2018-06-25T09:14:56.033Z</time>
      </trkpt>
      <trkpt lat="49.35881" lon="5.3227">
        <ele>330</ele>
        <time>2018-06-25T09:14:57.033Z</time>
      </trkpt>
      <trkpt lat="49.35873" lon="5.32287">
        <ele>329</ele>
        <time>2018-06-25T09:14:58.033Z</time>
      </trkpt>
      <trkpt lat="49.35819" lon="5.3225">
        <ele>331</ele>
        <time>2018-06-25T09:14:59.033Z</time>
      </trkpt>
      <trkpt lat="49.35778" lon="5.32241">
        <ele>333</ele>
        <time>2018-06-25T09:15:00.033Z</time>
      </trkpt>
      <trkpt lat="49.35754" lon="5.32248">
        <ele>333</ele>
        <time>2018-06-25T09:15:01.033Z</time>
      </trkpt>
      <trkpt lat="49.35581" lon="5.32402">
        <ele>345</ele>
        <time>2018-06-25T09:15:02.033Z</time>
      </trkpt>
      <trkpt lat="49.3558" lon="5.32396">
        <ele>345</ele>
        <time>2018-06-25T09:15:03.033Z</time>
      </trkpt>
      <trkpt lat="49.35546" lon="5.32438">
        <ele>347</ele>
        <time>2018-06-25T09:15:04.033Z</time>
      </trkpt>
      <trkpt lat="49.35461" lon="5.32505">
        <ele>353</ele>
        <time>2018-06-25T09:15:05.033Z</time>
      </trkpt>
      <trkpt lat="49.35181" lon="5.32957">
        <ele>350</ele>
        <time>2018-06-25T09:15:06.033Z</time>
      </trkpt>
      <trkpt lat="49.35142" lon="5.32976">
        <ele>345</ele>
        <time>2018-06-25T09:15:07.033Z</time>
      </trkpt>
      <trkpt lat="49.35001" lon="5.32948">
        <ele>331</ele>
        <time>2018-06-25T09:15:08.033Z</time>
      </trkpt>
      <trkpt lat="49.34973" lon="5.32965">
        <ele>330</ele>
        <time>2018-06-25T09:15:09.033Z</time>
      </trkpt>
      <trkpt lat="49.34922" lon="5.33072">
        <ele>324</ele>
        <time>2018-06-25T09:15:10.033Z</time>
      </trkpt>
      <trkpt lat="49.34875" lon="5.33059">
        <ele>320</ele>
        <time>2018-06-25T09:15:11.033Z</time>
      </trkpt>
      <trkpt lat="49.34787" lon="5.32972">
        <ele>312</ele>
        <time>2018-06-25T09:15:12.033Z</time>
      </trkpt>
      <trkpt lat="49.3463" lon="5.33016">
        <ele>299</ele>
        <time>2018-06-25T09:15:13.033Z</time>
      </trkpt>
      <trkpt lat="49.34386" lon="5.33242">
        <ele>291</ele>
        <time>2018-06-25T09:15:14.033Z</time>
      </trkpt>
      <trkpt lat="49.34099" lon="5.33415">
        <ele>274</ele>
        <time>2018-06-25T09:15:15.033Z</time>
      </trkpt>
      <trkpt lat="49.34218" lon="5.33866">
        <ele>267</ele>
        <time>2018-06-25T09:15:16.033Z</time>
      </trkpt>
      <trkpt lat="49.33976" lon="5.33968">
        <ele>293</ele>
        <time>2018-06-25T09:15:17.033Z</time>
      </trkpt>
      <trkpt lat="49.33859" lon="5.34476">
        <ele>317</ele>
        <time>2018-06-25T09:15:18.033Z</time>
      </trkpt>
      <trkpt lat="49.33848" lon="5.34466">
        <ele>317</ele>
        <time>2018-06-25T09:15:19.033Z</time>
      </trkpt>
      <trkpt lat="49.33821" lon="5.3449">
        <ele>318</ele>
        <time>2018-06-25T09:15:20.033Z</time>
      </trkpt>
      <trkpt lat="49.33782" lon="5.3449">
        <ele>318</ele>
        <time>2018-06-25T09:15:21.033Z</time>
      </trkpt>
      <trkpt lat="49.33764" lon="5.34476">
        <ele>317</ele>
        <time>2018-06-25T09:15:22.033Z</time>
      </trkpt>
      <trkpt lat="49.33756" lon="5.34457">
        <ele>317</ele>
        <time>2018-06-25T09:15:23.033Z</time>
      </trkpt>
      <trkpt lat="49.33559" lon="5.34355">
        <ele>320</ele>
        <time>2018-06-25T09:15:24.033Z</time>
      </trkpt>
      <trkpt lat="49.33267" lon="5.34249">
        <ele>334</ele>
        <time>2018-06-25T09:15:25.033Z</time>
      </trkpt>
      <trkpt lat="49.3312" lon="5.34167">
        <ele>335</ele>
        <time>2018-06-25T09:15:26.033Z</time>
      </trkpt>
      <trkpt lat="49.31927" lon="5.33205">
        <ele>366</ele>
        <time>2018-06-25T09:15:27.033Z</time>
      </trkpt>
      <trkpt lat="49.31398" lon="5.33098">
        <ele>364</ele>
        <time>2018-06-25T09:15:28.033Z</time>
      </trkpt>
      <trkpt lat="49.31348" lon="5.32553">
        <ele>372</ele>
        <time>2018-06-25T09:15:29.033Z</time>
      </trkpt>
      <trkpt lat="49.3107" lon="5.32545">
        <ele>359</ele>
        <time>2018-06-25T09:15:30.033Z</time>
      </trkpt>
      <trkpt lat="49.30864" lon="5.32748">
        <ele>361</ele>
        <time>2018-06-25T09:15:31.033Z</time>
      </trkpt>
      <trkpt lat="49.30503" lon="5.32918">
        <ele>378</ele>
        <time>2018-06-25T09:15:32.033Z</time>
      </trkpt>
      <trkpt lat="49.3022" lon="5.32904">
        <ele>358</ele>
        <time>2018-06-25T09:15:33.033Z</time>
      </trkpt>
      <trkpt lat="49.29409" lon="5.33236">
        <ele>334</ele>
        <time>2018-06-25T09:15:34.033Z</time>
      </trkpt>
      <trkpt lat="49.29022" lon="5.33313">
        <ele>323</ele>
        <time>2018-06-25T09:15:35.033Z</time>
      </trkpt>
      <trkpt lat="49.28899" lon="5.33317">
        <ele>322</ele>
        <time>2018-06-25T09:15:36.033Z</time>
      </trkpt>
      <trkpt lat="49.28337" lon="5.3275">
        <ele>310</ele>
        <time>2018-06-25T09:15:37.033Z</time>
      </trkpt>
      <trkpt lat="49.28113" lon="5.33098">
        <ele>318</ele>
        <time>2018-06-25T09:15:38.033Z</time>
      </trkpt>
      <trkpt lat="49.28362" lon="5.33729">
        <ele>312</ele>
        <time>2018-06-25T09:15:39.033Z</time>
      </trkpt>
      <trkpt lat="49.28678" lon="5.34114">
        <ele>301</ele>
        <time>2018-06-25T09:15:40.033Z</time>
      </trkpt>
      <trkpt lat="49.28801" lon="5.34124">
        <ele>292</ele>
        <time>2018-06-25T09:15:41.033Z</time>
      </trkpt>
      <trkpt lat="49.28835" lon="5.34184">
        <ele>284</ele>
        <time>2018-06-25T09:15:42.033Z</time>
      </trkpt>
      <trkpt lat="49.28753" lon="5.34463">
        <ele>270</ele>
        <time>2018-06-25T09:15:43.033Z</time>
      </trkpt>
      <trkpt lat="49.2877" lon="5.34711">
        <ele>259</ele>
        <time>2018-06-25T09:15:44.033Z</time>
      </trkpt>
      <trkpt lat="49.28635" lon="5.34879">
        <ele>255</ele>
        <time>2018-06-25T09:15:45.033Z</time>
      </trkpt>
      <trkpt lat="49.28627" lon="5.3524">
        <ele>235</ele>
        <time>2018-06-25T09:15:46.033Z</time>
      </trkpt>
      <trkpt lat="49.28663" lon="5.35385">
        <ele>224</ele>
        <time>2018-06-25T09:15:47.033Z</time>
      </trkpt>
      <trkpt lat="49.28611" lon="5.35452">
        <ele>230</ele>
        <time>2018-06-25T09:15:48.033Z</time>
      </trkpt>
      <trkpt lat="49.28342" lon="5.35312">
        <ele>231</ele>
        <time>2018-06-25T09:15:49.033Z</time>
      </trkpt>
      <trkpt lat="49.27942" lon="5.34755">
        <ele>222</ele>
        <time>2018-06-25T09:15:50.033Z</time>
      </trkpt>
      <trkpt lat="49.27739" lon="5.34506">
        <ele>222</ele>
        <time>2018-06-25T09:15:51.033Z</time>
      </trkpt>
      <trkpt lat="49.27649" lon="5.34533">
        <ele>223</ele>
        <time>2018-06-25T09:15:52.033Z</time>
      </trkpt>
      <trkpt lat="49.27514" lon="5.3455">
        <ele>210</ele>
        <time>2018-06-25T09:15:53.033Z</time>
      </trkpt>
      <trkpt lat="49.27389" lon="5.3443">
        <ele>211</ele>
        <time>2018-06-25T09:15:54.033Z</time>
      </trkpt>
      <trkpt lat="49.27225" lon="5.34363">
        <ele>216</ele>
        <time>2018-06-25T09:15:55.033Z</time>
      </trkpt>
      <trkpt lat="49.26998" lon="5.34422">
        <ele>205</ele>
        <time>2018-06-25T09:15:56.033Z</time>
      </trkpt>
      <trkpt lat="49.26805" lon="5.34426">
        <ele>204</ele>
        <time>2018-06-25T09:15:57.033Z</time>
      </trkpt>
      <trkpt lat="49.26947" lon="5.34506">
        <ele>208</ele>
        <time>2018-06-25T09:15:58.033Z</time>
      </trkpt>
      <trkpt lat="49.26999" lon="5.34631">
        <ele>215</ele>
        <time>2018-06-25T09:15:59.033Z</time>
      </trkpt>
      <trkpt lat="49.27105" lon="5.34624">
        <ele>229</ele>
        <time>2018-06-25T09:16:00.033Z</time>
      </trkpt>
      <trkpt lat="49.27185" lon="5.34661">
        <ele>238</ele>
        <time>2018-06-25T09:16:01.033Z</time>
      </trkpt>
      <trkpt lat="49.27194" lon="5.34762">
        <ele>245</ele>
        <time>2018-06-25T09:16:02.033Z</time>
      </trkpt>
      <trkpt lat="49.27169" lon="5.34935">
        <ele>258</ele>
        <time>2018-06-25T09:16:03.033Z</time>
      </trkpt>
      <trkpt lat="49.272" lon="5.351">
        <ele>269</ele>
        <time>2018-06-25T09:16:04.033Z</time>
      </trkpt>
      <trkpt lat="49.27292" lon="5.35305">
        <ele>285</ele>
        <time>2018-06-25T09:16:05.033Z</time>
      </trkpt>
      <trkpt lat="49.2733" lon="5.35438">
        <ele>294</ele>
        <time>2018-06-25T09:16:06.033Z</time>
      </trkpt>
      <trkpt lat="49.2733" lon="5.3567">
        <ele>306</ele>
        <time>2018-06-25T09:16:07.033Z</time>
      </trkpt>
      <trkpt lat="49.27395" lon="5.35887">
        <ele>315</ele>
        <time>2018-06-25T09:16:08.033Z</time>
      </trkpt>
      <trkpt lat="49.27542" lon="5.36277">
        <ele>322</ele>
        <time>2018-06-25T09:16:09.033Z</time>
      </trkpt>
      <trkpt lat="49.28062" lon="5.36887">
        <ele>343</ele>
        <time>2018-06-25T09:16:10.033Z</time>
      </trkpt>
      <trkpt lat="49.28194" lon="5.37278">
        <ele>350</ele>
        <time>2018-06-25T09:16:11.033Z</time>
      </trkpt>
      <trkpt lat="49.28277" lon="5.37355">
        <ele>350</ele>
        <time>2018-06-25T09:16:12.033Z</time>
      </trkpt>
      <trkpt lat="49.286" lon="5.37801">
        <ele>326</ele>
        <time>2018-06-25T09:16:13.033Z</time>
      </trkpt>
      <trkpt lat="49.28661" lon="5.3799">
        <ele>319</ele>
        <time>2018-06-25T09:16:14.033Z</time>
      </trkpt>
      <trkpt lat="49.2881" lon="5.38244">
        <ele>308</ele>
        <time>2018-06-25T09:16:15.033Z</time>
      </trkpt>
      <trkpt lat="49.28882" lon="5.38502">
        <ele>300</ele>
        <time>2018-06-25T09:16:16.033Z</time>
      </trkpt>
      <trkpt lat="49.28877" lon="5.38705">
        <ele>292</ele>
        <time>2018-06-25T09:16:17.033Z</time>
      </trkpt>
      <trkpt lat="49.28857" lon="5.38937">
        <ele>273</ele>
        <time>2018-06-25T09:16:18.033Z</time>
      </trkpt>
      <trkpt lat="49.28891" lon="5.39206">
        <ele>255</ele>
        <time>2018-06-25T09:16:19.033Z</time>
      </trkpt>
      <trkpt lat="49.29129" lon="5.39468">
        <ele>260</ele>
        <time>2018-06-25T09:16:20.033Z</time>
      </trkpt>
      <trkpt lat="49.29249" lon="5.39558">
        <ele>254</ele>
        <time>2018-06-25T09:16:21.033Z</time>
      </trkpt>
      <trkpt lat="49.29286" lon="5.39601">
        <ele>253</ele>
        <time>2018-06-25T09:16:22.033Z</time>
      </trkpt>
      <trkpt lat="49.29328" lon="5.3983">
        <ele>250</ele>
        <time>2018-06-25T09:16:23.033Z</time>
      </trkpt>
      <trkpt lat="49.29341" lon="5.3986">
        <ele>249</ele>
        <time>2018-06-25T09:16:24.033Z</time>
      </trkpt>
      <trkpt lat="49.29309" lon="5.39915">
        <ele>242</ele>
        <time>2018-06-25T09:16:25.033Z</time>
      </trkpt>
      <trkpt lat="49.29275" lon="5.40001">
        <ele>240</ele>
        <time>2018-06-25T09:16:26.033Z</time>
      </trkpt>
      <trkpt lat="49.29261" lon="5.40067">
        <ele>243</ele>
        <time>2018-06-25T09:16:27.033Z</time>
      </trkpt>
      <trkpt lat="49.29219" lon="5.4007">
        <ele>243</ele>
        <time>2018-06-25T09:16:28.033Z</time>
      </trkpt>
      <trkpt lat="49.29154" lon="5.40107">
        <ele>247</ele>
        <time>2018-06-25T09:16:29.033Z</time>
      </trkpt>
      <trkpt lat="49.29109" lon="5.40195">
        <ele>256</ele>
        <time>2018-06-25T09:16:30.033Z</time>
      </trkpt>
      <trkpt lat="49.29075" lon="5.40214">
        <ele>260</ele>
        <time>2018-06-25T09:16:31.033Z</time>
      </trkpt>
      <trkpt lat="49.28933" lon="5.40147">
        <ele>278</ele>
        <time>2018-06-25T09:16:32.033Z</time>
      </trkpt>
      <trkpt lat="49.28558" lon="5.40066">
        <ele>304</ele>
        <time>2018-06-25T09:16:33.033Z</time>
      </trkpt>
      <trkpt lat="49.28361" lon="5.39959">
        <ele>317</ele>
        <time>2018-06-25T09:16:34.033Z</time>
      </trkpt>
      <trkpt lat="49.28314" lon="5.39942">
        <ele>316</ele>
        <time>2018-06-25T09:16:35.033Z</time>
      </trkpt>
      <trkpt lat="49.28277" lon="5.39943">
        <ele>316</ele>
        <time>2018-06-25T09:16:36.033Z</time>
      </trkpt>
      <trkpt lat="49.28202" lon="5.39991">
        <ele>318</ele>
        <time>2018-06-25T09:16:37.033Z</time>
      </trkpt>
      <trkpt lat="49.27781" lon="5.40204">
        <ele>327</ele>
        <time>2018-06-25T09:16:38.033Z</time>
      </trkpt>
      <trkpt lat="49.2753" lon="5.40487">
        <ele>328</ele>
        <time>2018-06-25T09:16:39.033Z</time>
      </trkpt>
      <trkpt lat="49.27135" lon="5.4056">
        <ele>331</ele>
        <time>2018-06-25T09:16:40.033Z</time>
      </trkpt>
      <trkpt lat="49.27131" lon="5.4057">
        <ele>331</ele>
        <time>2018-06-25T09:16:41.033Z</time>
      </trkpt>
      <trkpt lat="49.27115" lon="5.40563">
        <ele>332</ele>
        <time>2018-06-25T09:16:42.033Z</time>
      </trkpt>
      <trkpt lat="49.2708" lon="5.40516">
        <ele>333</ele>
        <time>2018-06-25T09:16:43.033Z</time>
      </trkpt>
      <trkpt lat="49.26947" lon="5.40248">
        <ele>323</ele>
        <time>2018-06-25T09:16:44.033Z</time>
      </trkpt>
      <trkpt lat="49.26899" lon="5.40168">
        <ele>323</ele>
        <time>2018-06-25T09:16:45.033Z</time>
      </trkpt>
      <trkpt lat="49.26845" lon="5.40103">
        <ele>320</ele>
        <time>2018-06-25T09:16:46.033Z</time>
      </trkpt>
      <trkpt lat="49.26696" lon="5.39959">
        <ele>311</ele>
        <time>2018-06-25T09:16:47.033Z</time>
      </trkpt>
      <trkpt lat="49.26626" lon="5.39866">
        <ele>307</ele>
        <time>2018-06-25T09:16:48.033Z</time>
      </trkpt>
      <trkpt lat="49.2659" lon="5.39802">
        <ele>305</ele>
        <time>2018-06-25T09:16:49.033Z</time>
      </trkpt>
      <trkpt lat="49.26526" lon="5.39728">
        <ele>306</ele>
        <time>2018-06-25T09:16:50.033Z</time>
      </trkpt>
      <trkpt lat="49.26457" lon="5.39716">
        <ele>306</ele>
        <time>2018-06-25T09:16:51.033Z</time>
      </trkpt>
      <trkpt lat="49.26429" lon="5.39738">
        <ele>303</ele>
        <time>2018-06-25T09:16:52.033Z</time>
      </trkpt>
      <trkpt lat="49.26377" lon="5.39826">
        <ele>298</ele>
        <time>2018-06-25T09:16:53.033Z</time>
      </trkpt>
      <trkpt lat="49.26366" lon="5.39893">
        <ele>294</ele>
        <time>2018-06-25T09:16:54.033Z</time>
      </trkpt>
      <trkpt lat="49.26347" lon="5.39942">
        <ele>289</ele>
        <time>2018-06-25T09:16:55.033Z</time>
      </trkpt>
      <trkpt lat="49.26286" lon="5.40004">
        <ele>284</ele>
        <time>2018-06-25T09:16:56.033Z</time>
      </trkpt>
      <trkpt lat="49.26234" lon="5.4">
        <ele>285</ele>
        <time>2018-06-25T09:16:57.033Z</time>
      </trkpt>
      <trkpt lat="49.26143" lon="5.39956">
        <ele>289</ele>
        <time>2018-06-25T09:16:58.033Z</time>
      </trkpt>
      <trkpt lat="49.26075" lon="5.39956">
        <ele>285</ele>
        <time>2018-06-25T09:16:59.033Z</time>
      </trkpt>
      <trkpt lat="49.25985" lon="5.40014">
        <ele>271</ele>
        <time>2018-06-25T09:17:00.033Z</time>
      </trkpt>
      <trkpt lat="49.25929" lon="5.40014">
        <ele>266</ele>
        <time>2018-06-25T09:17:01.033Z</time>
      </trkpt>
      <trkpt lat="49.259" lon="5.39994">
        <ele>266</ele>
        <time>2018-06-25T09:17:02.033Z</time>
      </trkpt>
      <trkpt lat="49.25752" lon="5.39785">
        <ele>262</ele>
        <time>2018-06-25T09:17:03.033Z</time>
      </trkpt>
      <trkpt lat="49.25689" lon="5.39735">
        <ele>257</ele>
        <time>2018-06-25T09:17:04.033Z</time>
      </trkpt>
      <trkpt lat="49.2549" lon="5.39648">
        <ele>254</ele>
        <time>2018-06-25T09:17:05.033Z</time>
      </trkpt>
      <trkpt lat="49.25439" lon="5.39645">
        <ele>256</ele>
        <time>2018-06-25T09:17:06.033Z</time>
      </trkpt>
      <trkpt lat="49.25322" lon="5.39681">
        <ele>251</ele>
        <time>2018-06-25T09:17:07.033Z</time>
      </trkpt>
      <trkpt lat="49.25355" lon="5.39728">
        <ele>250</ele>
        <time>2018-06-25T09:17:08.033Z</time>
      </trkpt>
      <trkpt lat="49.25445" lon="5.39769">
        <ele>256</ele>
        <time>2018-06-25T09:17:09.033Z</time>
      </trkpt>
      <trkpt lat="49.25559" lon="5.39856">
        <ele>259</ele>
        <time>2018-06-25T09:17:10.033Z</time>
      </trkpt>
      <trkpt lat="49.25621" lon="5.3994">
        <ele>262</ele>
        <time>2018-06-25T09:17:11.033Z</time>
      </trkpt>
      <trkpt lat="49.25676" lon="5.40097">
        <ele>274</ele>
        <time>2018-06-25T09:17:12.033Z</time>
      </trkpt>
      <trkpt lat="49.25721" lon="5.40259">
        <ele>285</ele>
        <time>2018-06-25T09:17:13.033Z</time>
      </trkpt>
      <trkpt lat="49.25747" lon="5.40393">
        <ele>296</ele>
        <time>2018-06-25T09:17:14.033Z</time>
      </trkpt>
      <trkpt lat="49.25757" lon="5.40487">
        <ele>305</ele>
        <time>2018-06-25T09:17:15.033Z</time>
      </trkpt>
      <trkpt lat="49.25781" lon="5.40542">
        <ele>308</ele>
        <time>2018-06-25T09:17:16.033Z</time>
      </trkpt>
      <trkpt lat="49.2582" lon="5.4059">
        <ele>307</ele>
        <time>2018-06-25T09:17:17.033Z</time>
      </trkpt>
      <trkpt lat="49.25862" lon="5.40599">
        <ele>305</ele>
        <time>2018-06-25T09:17:18.033Z</time>
      </trkpt>
      <trkpt lat="49.25857" lon="5.40619">
        <ele>306</ele>
        <time>2018-06-25T09:17:19.033Z</time>
      </trkpt>
      <trkpt lat="49.25862" lon="5.40597">
        <ele>305</ele>
        <time>2018-06-25T09:17:20.033Z</time>
      </trkpt>
      <trkpt lat="49.2582" lon="5.4059">
        <ele>307</ele>
        <time>2018-06-25T09:17:21.033Z</time>
      </trkpt>
      <trkpt lat="49.25781" lon="5.4054">
        <ele>308</ele>
        <time>2018-06-25T09:17:22.033Z</time>
      </trkpt>
      <trkpt lat="49.25757" lon="5.40486">
        <ele>305</ele>
        <time>2018-06-25T09:17:23.033Z</time>
      </trkpt>
      <trkpt lat="49.25747" lon="5.40392">
        <ele>296</ele>
        <time>2018-06-25T09:17:24.033Z</time>
      </trkpt>
      <trkpt lat="49.25721" lon="5.40259">
        <ele>285</ele>
        <time>2018-06-25T09:17:25.033Z</time>
      </trkpt>
      <trkpt lat="49.25676" lon="5.40097">
        <ele>274</ele>
        <time>2018-06-25T09:17:26.033Z</time>
      </trkpt>
      <trkpt lat="49.25627" lon="5.39954">
        <ele>263</ele>
        <time>2018-06-25T09:17:27.033Z</time>
      </trkpt>
      <trkpt lat="49.25676" lon="5.40097">
        <ele>274</ele>
        <time>2018-06-25T09:17:28.033Z</time>
      </trkpt>
      <trkpt lat="49.25721" lon="5.40259">
        <ele>285</ele>
        <time>2018-06-25T09:17:29.033Z</time>
      </trkpt>
      <trkpt lat="49.25747" lon="5.40392">
        <ele>296</ele>
        <time>2018-06-25T09:17:30.033Z</time>
      </trkpt>
      <trkpt lat="49.25757" lon="5.40486">
        <ele>305</ele>
        <time>2018-06-25T09:17:31.033Z</time>
      </trkpt>
      <trkpt lat="49.25781" lon="5.4054">
        <ele>308</ele>
        <time>2018-06-25T09:17:32.033Z</time>
      </trkpt>
      <trkpt lat="49.2582" lon="5.4059">
        <ele>307</ele>
        <time>2018-06-25T09:17:33.033Z</time>
      </trkpt>
      <trkpt lat="49.25862" lon="5.40597">
        <ele>305</ele>
        <time>2018-06-25T09:17:34.033Z</time>
      </trkpt>
      <trkpt lat="49.25831" lon="5.40747">
        <ele>320</ele>
        <time>2018-06-25T09:17:35.033Z</time>
      </trkpt>
      <trkpt lat="49.25835" lon="5.40869">
        <ele>330</ele>
        <time>2018-06-25T09:17:36.033Z</time>
      </trkpt>
      <trkpt lat="49.25972" lon="5.41532">
        <ele>346</ele>
        <time>2018-06-25T09:17:37.033Z</time>
      </trkpt>
      <trkpt lat="49.2594" lon="5.42253">
        <ele>355</ele>
        <time>2018-06-25T09:17:38.033Z</time>
      </trkpt>
      <trkpt lat="49.26021" lon="5.42587">
        <ele>352</ele>
        <time>2018-06-25T09:17:39.033Z</time>
      </trkpt>
      <trkpt lat="49.26003" lon="5.43004">
        <ele>352</ele>
        <time>2018-06-25T09:17:40.033Z</time>
      </trkpt>
      <trkpt lat="49.25929" lon="5.43328">
        <ele>357</ele>
        <time>2018-06-25T09:17:41.033Z</time>
      </trkpt>
      <trkpt lat="49.24828" lon="5.43476">
        <ele>342</ele>
        <time>2018-06-25T09:17:42.033Z</time>
      </trkpt>
      <trkpt lat="49.24474" lon="5.4351">
        <ele>353</ele>
        <time>2018-06-25T09:17:43.033Z</time>
      </trkpt>
      <trkpt lat="49.24436" lon="5.43495">
        <ele>353</ele>
        <time>2018-06-25T09:17:44.033Z</time>
      </trkpt>
      <trkpt lat="49.2388" lon="5.42856">
        <ele>351</ele>
        <time>2018-06-25T09:17:45.033Z</time>
      </trkpt>
      <trkpt lat="49.23858" lon="5.42809">
        <ele>351</ele>
        <time>2018-06-25T09:17:46.033Z</time>
      </trkpt>
      <trkpt lat="49.23844" lon="5.42742">
        <ele>352</ele>
        <time>2018-06-25T09:17:47.033Z</time>
      </trkpt>
      <trkpt lat="49.23826" lon="5.4257">
        <ele>353</ele>
        <time>2018-06-25T09:17:48.033Z</time>
      </trkpt>
      <trkpt lat="49.23554" lon="5.42286">
        <ele>369</ele>
        <time>2018-06-25T09:17:49.033Z</time>
      </trkpt>
      <trkpt lat="49.23436" lon="5.42205">
        <ele>372</ele>
        <time>2018-06-25T09:17:50.033Z</time>
      </trkpt>
      <trkpt lat="49.22295" lon="5.40093">
        <ele>273</ele>
        <time>2018-06-25T09:17:51.033Z</time>
      </trkpt>
      <trkpt lat="49.22176" lon="5.40155">
        <ele>259</ele>
        <time>2018-06-25T09:17:52.033Z</time>
      </trkpt>
      <trkpt lat="49.22052" lon="5.39999">
        <ele>241</ele>
        <time>2018-06-25T09:17:53.033Z</time>
      </trkpt>
      <trkpt lat="49.22024" lon="5.40113">
        <ele>239</ele>
        <time>2018-06-25T09:17:54.033Z</time>
      </trkpt>
      <trkpt lat="49.22019" lon="5.40111">
        <ele>239</ele>
        <time>2018-06-25T09:17:55.033Z</time>
      </trkpt>
      <trkpt lat="49.22012" lon="5.40147">
        <ele>238</ele>
        <time>2018-06-25T09:17:56.033Z</time>
      </trkpt>
      <trkpt lat="49.22001" lon="5.40456">
        <ele>237</ele>
        <time>2018-06-25T09:17:57.033Z</time>
      </trkpt>
      <trkpt lat="49.22071" lon="5.40919">
        <ele>242</ele>
        <time>2018-06-25T09:17:58.033Z</time>
      </trkpt>
      <trkpt lat="49.22106" lon="5.41053">
        <ele>243</ele>
        <time>2018-06-25T09:17:59.033Z</time>
      </trkpt>
      <trkpt lat="49.22095" lon="5.41076">
        <ele>244</ele>
        <time>2018-06-25T09:18:00.033Z</time>
      </trkpt>
      <trkpt lat="49.22114" lon="5.4108">
        <ele>244</ele>
        <time>2018-06-25T09:18:01.033Z</time>
      </trkpt>
      <trkpt lat="49.22264" lon="5.41516">
        <ele>248</ele>
        <time>2018-06-25T09:18:02.033Z</time>
      </trkpt>
      <trkpt lat="49.22106" lon="5.41052">
        <ele>243</ele>
        <time>2018-06-25T09:18:03.033Z</time>
      </trkpt>
      <trkpt lat="49.22071" lon="5.40918">
        <ele>242</ele>
        <time>2018-06-25T09:18:04.033Z</time>
      </trkpt>
      <trkpt lat="49.22032" lon="5.40653">
        <ele>243</ele>
        <time>2018-06-25T09:18:05.033Z</time>
      </trkpt>
      <trkpt lat="49.22071" lon="5.40919">
        <ele>242</ele>
        <time>2018-06-25T09:18:06.033Z</time>
      </trkpt>
      <trkpt lat="49.22106" lon="5.41053">
        <ele>243</ele>
        <time>2018-06-25T09:18:07.033Z</time>
      </trkpt>
      <trkpt lat="49.22095" lon="5.41076">
        <ele>244</ele>
        <time>2018-06-25T09:18:08.033Z</time>
      </trkpt>
      <trkpt lat="49.22114" lon="5.4108">
        <ele>244</ele>
        <time>2018-06-25T09:18:09.033Z</time>
      </trkpt>
      <trkpt lat="49.22267" lon="5.41525">
        <ele>249</ele>
        <time>2018-06-25T09:18:10.033Z</time>
      </trkpt>
      <trkpt lat="49.22205" lon="5.41672">
        <ele>258</ele>
        <time>2018-06-25T09:18:11.033Z</time>
      </trkpt>
      <trkpt lat="49.22147" lon="5.41733">
        <ele>267</ele>
        <time>2018-06-25T09:18:12.033Z</time>
      </trkpt>
      <trkpt lat="49.22138" lon="5.4182">
        <ele>276</ele>
        <time>2018-06-25T09:18:13.033Z</time>
      </trkpt>
      <trkpt lat="49.22143" lon="5.41914">
        <ele>285</ele>
        <time>2018-06-25T09:18:14.033Z</time>
      </trkpt>
      <trkpt lat="49.22086" lon="5.42262">
        <ele>309</ele>
        <time>2018-06-25T09:18:15.033Z</time>
      </trkpt>
      <trkpt lat="49.22068" lon="5.42493">
        <ele>320</ele>
        <time>2018-06-25T09:18:16.033Z</time>
      </trkpt>
      <trkpt lat="49.22026" lon="5.42784">
        <ele>328</ele>
        <time>2018-06-25T09:18:17.033Z</time>
      </trkpt>
      <trkpt lat="49.21989" lon="5.42906">
        <ele>334</ele>
        <time>2018-06-25T09:18:18.033Z</time>
      </trkpt>
      <trkpt lat="49.21948" lon="5.42973">
        <ele>337</ele>
        <time>2018-06-25T09:18:19.033Z</time>
      </trkpt>
      <trkpt lat="49.21872" lon="5.43057">
        <ele>342</ele>
        <time>2018-06-25T09:18:20.033Z</time>
      </trkpt>
      <trkpt lat="49.21863" lon="5.43077">
        <ele>344</ele>
        <time>2018-06-25T09:18:21.033Z</time>
      </trkpt>
      <trkpt lat="49.21859" lon="5.4312">
        <ele>346</ele>
        <time>2018-06-25T09:18:22.033Z</time>
      </trkpt>
      <trkpt lat="49.2188" lon="5.43395">
        <ele>359</ele>
        <time>2018-06-25T09:18:23.033Z</time>
      </trkpt>
      <trkpt lat="49.21892" lon="5.43409">
        <ele>358</ele>
        <time>2018-06-25T09:18:24.033Z</time>
      </trkpt>
      <trkpt lat="49.21618" lon="5.43297">
        <ele>365</ele>
        <time>2018-06-25T09:18:25.033Z</time>
      </trkpt>
      <trkpt lat="49.2127" lon="5.431">
        <ele>372</ele>
        <time>2018-06-25T09:18:26.033Z</time>
      </trkpt>
      <trkpt lat="49.20977" lon="5.42792">
        <ele>360</ele>
        <time>2018-06-25T09:18:27.033Z</time>
      </trkpt>
      <trkpt lat="49.20665" lon="5.42139">
        <ele>354</ele>
        <time>2018-06-25T09:18:28.033Z</time>
      </trkpt>
      <trkpt lat="49.2047" lon="5.42078">
        <ele>345</ele>
        <time>2018-06-25T09:18:29.033Z</time>
      </trkpt>
      <trkpt lat="49.20354" lon="5.42172">
        <ele>339</ele>
        <time>2018-06-25T09:18:30.033Z</time>
      </trkpt>
      <trkpt lat="49.20136" lon="5.42393">
        <ele>336</ele>
        <time>2018-06-25T09:18:31.033Z</time>
      </trkpt>
      <trkpt lat="49.19986" lon="5.42721">
        <ele>336</ele>
        <time>2018-06-25T09:18:32.033Z</time>
      </trkpt>
      <trkpt lat="49.19956" lon="5.42768">
        <ele>338</ele>
        <time>2018-06-25T09:18:33.033Z</time>
      </trkpt>
      <trkpt lat="49.19833" lon="5.42919">
        <ele>338</ele>
        <time>2018-06-25T09:18:34.033Z</time>
      </trkpt>
      <trkpt lat="49.19625" lon="5.43198">
        <ele>349</ele>
        <time>2018-06-25T09:18:35.033Z</time>
      </trkpt>
      <trkpt lat="49.19587" lon="5.43291">
        <ele>348</ele>
        <time>2018-06-25T09:18:36.033Z</time>
      </trkpt>
      <trkpt lat="49.19331" lon="5.43663">
        <ele>350</ele>
        <time>2018-06-25T09:18:37.033Z</time>
      </trkpt>
      <trkpt lat="49.19218" lon="5.43784">
        <ele>356</ele>
        <time>2018-06-25T09:18:38.033Z</time>
      </trkpt>
      <trkpt lat="49.18968" lon="5.43439">
        <ele>363</ele>
        <time>2018-06-25T09:18:39.033Z</time>
      </trkpt>
      <trkpt lat="49.18481" lon="5.42923">
        <ele>347</ele>
        <time>2018-06-25T09:18:40.033Z</time>
      </trkpt>
      <trkpt lat="49.18438" lon="5.42899">
        <ele>348</ele>
        <time>2018-06-25T09:18:41.033Z</time>
      </trkpt>
      <trkpt lat="49.18381" lon="5.429">
        <ele>347</ele>
        <time>2018-06-25T09:18:42.033Z</time>
      </trkpt>
      <trkpt lat="49.18339" lon="5.42913">
        <ele>346</ele>
        <time>2018-06-25T09:18:43.033Z</time>
      </trkpt>
      <trkpt lat="49.18264" lon="5.42906">
        <ele>345</ele>
        <time>2018-06-25T09:18:44.033Z</time>
      </trkpt>
      <trkpt lat="49.17941" lon="5.42778">
        <ele>340</ele>
        <time>2018-06-25T09:18:45.033Z</time>
      </trkpt>
      <trkpt lat="49.1782" lon="5.42786">
        <ele>341</ele>
        <time>2018-06-25T09:18:46.033Z</time>
      </trkpt>
      <trkpt lat="49.17748" lon="5.42829">
        <ele>338</ele>
        <time>2018-06-25T09:18:47.033Z</time>
      </trkpt>
      <trkpt lat="49.17681" lon="5.42823">
        <ele>339</ele>
        <time>2018-06-25T09:18:48.033Z</time>
      </trkpt>
      <trkpt lat="49.17625" lon="5.42778">
        <ele>337</ele>
        <time>2018-06-25T09:18:49.033Z</time>
      </trkpt>
      <trkpt lat="49.17587" lon="5.42704">
        <ele>335</ele>
        <time>2018-06-25T09:18:50.033Z</time>
      </trkpt>
      <trkpt lat="49.17487" lon="5.42162">
        <ele>313</ele>
        <time>2018-06-25T09:18:51.033Z</time>
      </trkpt>
      <trkpt lat="49.17482" lon="5.42058">
        <ele>312</ele>
        <time>2018-06-25T09:18:52.033Z</time>
      </trkpt>
      <trkpt lat="49.17473" lon="5.4202">
        <ele>311</ele>
        <time>2018-06-25T09:18:53.033Z</time>
      </trkpt>
      <trkpt lat="49.17454" lon="5.41998">
        <ele>309</ele>
        <time>2018-06-25T09:18:54.033Z</time>
      </trkpt>
      <trkpt lat="49.17365" lon="5.4194">
        <ele>302</ele>
        <time>2018-06-25T09:18:55.033Z</time>
      </trkpt>
      <trkpt lat="49.17192" lon="5.41881">
        <ele>289</ele>
        <time>2018-06-25T09:18:56.033Z</time>
      </trkpt>
      <trkpt lat="49.1712" lon="5.41847">
        <ele>285</ele>
        <time>2018-06-25T09:18:57.033Z</time>
      </trkpt>
      <trkpt lat="49.17075" lon="5.41796">
        <ele>282</ele>
        <time>2018-06-25T09:18:58.033Z</time>
      </trkpt>
      <trkpt lat="49.17051" lon="5.41789">
        <ele>279</ele>
        <time>2018-06-25T09:18:59.033Z</time>
      </trkpt>
      <trkpt lat="49.17031" lon="5.41797">
        <ele>277</ele>
        <time>2018-06-25T09:19:00.033Z</time>
      </trkpt>
      <trkpt lat="49.16959" lon="5.419">
        <ele>272</ele>
        <time>2018-06-25T09:19:01.033Z</time>
      </trkpt>
      <trkpt lat="49.16925" lon="5.41994">
        <ele>268</ele>
        <time>2018-06-25T09:19:02.033Z</time>
      </trkpt>
      <trkpt lat="49.16916" lon="5.42078">
        <ele>265</ele>
        <time>2018-06-25T09:19:03.033Z</time>
      </trkpt>
      <trkpt lat="49.16907" lon="5.42101">
        <ele>264</ele>
        <time>2018-06-25T09:19:04.033Z</time>
      </trkpt>
      <trkpt lat="49.16888" lon="5.42117">
        <ele>262</ele>
        <time>2018-06-25T09:19:05.033Z</time>
      </trkpt>
      <trkpt lat="49.1687" lon="5.42115">
        <ele>260</ele>
        <time>2018-06-25T09:19:06.033Z</time>
      </trkpt>
      <trkpt lat="49.16851" lon="5.42088">
        <ele>259</ele>
        <time>2018-06-25T09:19:07.033Z</time>
      </trkpt>
      <trkpt lat="49.16786" lon="5.41908">
        <ele>252</ele>
        <time>2018-06-25T09:19:08.033Z</time>
      </trkpt>
      <trkpt lat="49.16771" lon="5.41823">
        <ele>249</ele>
        <time>2018-06-25T09:19:09.033Z</time>
      </trkpt>
      <trkpt lat="49.16766" lon="5.41652">
        <ele>246</ele>
        <time>2018-06-25T09:19:10.033Z</time>
      </trkpt>
      <trkpt lat="49.16759" lon="5.41621">
        <ele>245</ele>
        <time>2018-06-25T09:19:11.033Z</time>
      </trkpt>
      <trkpt lat="49.16744" lon="5.41595">
        <ele>243</ele>
        <time>2018-06-25T09:19:12.033Z</time>
      </trkpt>
      <trkpt lat="49.16697" lon="5.41564">
        <ele>237</ele>
        <time>2018-06-25T09:19:13.033Z</time>
      </trkpt>
      <trkpt lat="49.1668" lon="5.41528">
        <ele>235</ele>
        <time>2018-06-25T09:19:14.033Z</time>
      </trkpt>
      <trkpt lat="49.16677" lon="5.41492">
        <ele>234</ele>
        <time>2018-06-25T09:19:15.033Z</time>
      </trkpt>
      <trkpt lat="49.16706" lon="5.41328">
        <ele>236</ele>
        <time>2018-06-25T09:19:16.033Z</time>
      </trkpt>
      <trkpt lat="49.16703" lon="5.41294">
        <ele>235</ele>
        <time>2018-06-25T09:19:17.033Z</time>
      </trkpt>
      <trkpt lat="49.1658" lon="5.40993">
        <ele>221</ele>
        <time>2018-06-25T09:19:18.033Z</time>
      </trkpt>
      <trkpt lat="49.16558" lon="5.40918">
        <ele>218</ele>
        <time>2018-06-25T09:19:19.033Z</time>
      </trkpt>
      <trkpt lat="49.16553" lon="5.40802">
        <ele>214</ele>
        <time>2018-06-25T09:19:20.033Z</time>
      </trkpt>
      <trkpt lat="49.16571" lon="5.40657">
        <ele>210</ele>
        <time>2018-06-25T09:19:21.033Z</time>
      </trkpt>
      <trkpt lat="49.16535" lon="5.40623">
        <ele>209</ele>
        <time>2018-06-25T09:19:22.033Z</time>
      </trkpt>
      <trkpt lat="49.16456" lon="5.40579">
        <ele>207</ele>
        <time>2018-06-25T09:19:23.033Z</time>
      </trkpt>
      <trkpt lat="49.16408" lon="5.40529">
        <ele>205</ele>
        <time>2018-06-25T09:19:24.033Z</time>
      </trkpt>
      <trkpt lat="49.16382" lon="5.39534">
        <ele>197</ele>
        <time>2018-06-25T09:19:25.033Z</time>
      </trkpt>
      <trkpt lat="49.16365" lon="5.39463">
        <ele>196</ele>
        <time>2018-06-25T09:19:26.033Z</time>
      </trkpt>
      <trkpt lat="49.16284" lon="5.39246">
        <ele>195</ele>
        <time>2018-06-25T09:19:27.033Z</time>
      </trkpt>
      <trkpt lat="49.16245" lon="5.39079">
        <ele>196</ele>
        <time>2018-06-25T09:19:28.033Z</time>
      </trkpt>
      <trkpt lat="49.16246" lon="5.39062">
        <ele>196</ele>
        <time>2018-06-25T09:19:29.033Z</time>
      </trkpt>
      <trkpt lat="49.16206" lon="5.39054">
        <ele>197</ele>
        <time>2018-06-25T09:19:30.033Z</time>
      </trkpt>
      <trkpt lat="49.16174" lon="5.39032">
        <ele>197</ele>
        <time>2018-06-25T09:19:31.033Z</time>
      </trkpt>
      <trkpt lat="49.16173" lon="5.39032">
        <ele>197</ele>
        <time>2018-06-25T09:19:32.033Z</time>
      </trkpt>
      <trkpt lat="49.16149" lon="5.39003">
        <ele>197</ele>
        <time>2018-06-25T09:19:33.033Z</time>
      </trkpt>
      <trkpt lat="49.16145" lon="5.38993">
        <ele>197</ele>
        <time>2018-06-25T09:19:34.033Z</time>
      </trkpt>
      <trkpt lat="49.1614" lon="5.38987">
        <ele>197</ele>
        <time>2018-06-25T09:19:35.033Z</time>
      </trkpt>
      <trkpt lat="49.1615" lon="5.38935">
        <ele>197</ele>
        <time>2018-06-25T09:19:36.033Z</time>
      </trkpt>
      <trkpt lat="49.16167" lon="5.38873">
        <ele>197</ele>
        <time>2018-06-25T09:19:37.033Z</time>
      </trkpt>
      <trkpt lat="49.16185" lon="5.38841">
        <ele>198</ele>
        <time>2018-06-25T09:19:38.033Z</time>
      </trkpt>
      <trkpt lat="49.16195" lon="5.38817">
        <ele>197</ele>
        <time>2018-06-25T09:19:39.033Z</time>
      </trkpt>
      <trkpt lat="49.16199" lon="5.38791">
        <ele>197</ele>
        <time>2018-06-25T09:19:40.033Z</time>
      </trkpt>
      <trkpt lat="49.16201" lon="5.38786">
        <ele>197</ele>
        <time>2018-06-25T09:19:41.033Z</time>
      </trkpt>
      <trkpt lat="49.16201" lon="5.38777">
        <ele>196</ele>
        <time>2018-06-25T09:19:42.033Z</time>
      </trkpt>
      <trkpt lat="49.16196" lon="5.38771">
        <ele>196</ele>
        <time>2018-06-25T09:19:43.033Z</time>
      </trkpt>
      <trkpt lat="49.16198" lon="5.38763">
        <ele>196</ele>
        <time>2018-06-25T09:19:44.033Z</time>
      </trkpt>
      <trkpt lat="49.162" lon="5.38749">
        <ele>196</ele>
        <time>2018-06-25T09:19:45.033Z</time>
      </trkpt>
      <trkpt lat="49.16197" lon="5.38667">
        <ele>196</ele>
        <time>2018-06-25T09:19:46.033Z</time>
      </trkpt>
      <trkpt lat="49.16196" lon="5.38667">
        <ele>196</ele>
        <time>2018-06-25T09:19:47.033Z</time>
      </trkpt>
      <trkpt lat="49.16209" lon="5.38662">
        <ele>196</ele>
        <time>2018-06-25T09:19:48.033Z</time>
      </trkpt>
      <trkpt lat="49.16225" lon="5.38645">
        <ele>197</ele>
        <time>2018-06-25T09:19:49.033Z</time>
      </trkpt>
      <trkpt lat="49.16216" lon="5.38633">
        <ele>197</ele>
        <time>2018-06-25T09:19:50.033Z</time>
      </trkpt>
      <trkpt lat="49.16199" lon="5.38628">
        <ele>198</ele>
        <time>2018-06-25T09:19:51.033Z</time>
      </trkpt>
      <trkpt lat="49.16199" lon="5.38608">
        <ele>198</ele>
        <time>2018-06-25T09:19:52.033Z</time>
      </trkpt>
      <trkpt lat="49.16149" lon="5.386">
        <ele>199</ele>
        <time>2018-06-25T09:19:53.033Z</time>
      </trkpt>
      <trkpt lat="49.16119" lon="5.38592">
        <ele>198</ele>
        <time>2018-06-25T09:19:54.033Z</time>
      </trkpt>
      <trkpt lat="49.16119" lon="5.38616">
        <ele>197</ele>
        <time>2018-06-25T09:19:55.033Z</time>
      </trkpt>
      <trkpt lat="49.16091" lon="5.38599">
        <ele>198</ele>
        <time>2018-06-25T09:19:56.033Z</time>
      </trkpt>
      <trkpt lat="49.1609" lon="5.38599">
        <ele>198</ele>
        <time>2018-06-25T09:19:57.033Z</time>
      </trkpt>
      <trkpt lat="49.15978" lon="5.38526">
        <ele>198</ele>
        <time>2018-06-25T09:19:58.033Z</time>
      </trkpt>
      <trkpt lat="49.15954" lon="5.38503">
        <ele>199</ele>
        <time>2018-06-25T09:19:59.033Z</time>
      </trkpt>
      <trkpt lat="49.16196" lon="5.38708">
        <ele>196</ele>
        <time>2018-06-25T08:56:08.369Z</time>
      </trkpt>
      <trkpt lat="49.16194" lon="5.38471">
        <ele>202</ele>
        <time>2018-06-25T08:56:09.369Z</time>
      </trkpt>
      <trkpt lat="49.16014" lon="5.38453">
        <ele>204</ele>
        <time>2018-06-25T08:56:10.369Z</time>
      </trkpt>
      <trkpt lat="49.15909" lon="5.38393">
        <ele>203</ele>
        <time>2018-06-25T08:56:11.369Z</time>
      </trkpt>
      <trkpt lat="49.15868" lon="5.38424">
        <ele>200</ele>
        <time>2018-06-25T08:56:12.369Z</time>
      </trkpt>
      <trkpt lat="49.15807" lon="5.38454">
        <ele>199</ele>
        <time>2018-06-25T08:56:13.369Z</time>
      </trkpt>
      <trkpt lat="49.15662" lon="5.38016">
        <ele>197</ele>
        <time>2018-06-25T08:56:14.369Z</time>
      </trkpt>
      <trkpt lat="49.15653" lon="5.37977">
        <ele>197</ele>
        <time>2018-06-25T08:56:15.369Z</time>
      </trkpt>
      <trkpt lat="49.15695" lon="5.37961">
        <ele>198</ele>
        <time>2018-06-25T08:56:16.369Z</time>
      </trkpt>
      <trkpt lat="49.15802" lon="5.37908">
        <ele>208</ele>
        <time>2018-06-25T08:56:17.369Z</time>
      </trkpt>
      <trkpt lat="49.15817" lon="5.37969">
        <ele>207</ele>
        <time>2018-06-25T08:56:18.369Z</time>
      </trkpt>
      <trkpt lat="49.1582" lon="5.37943">
        <ele>209</ele>
        <time>2018-06-25T08:56:19.369Z</time>
      </trkpt>
      <trkpt lat="49.15821" lon="5.37921">
        <ele>211</ele>
        <time>2018-06-25T08:56:20.369Z</time>
      </trkpt>
      <trkpt lat="49.15811" lon="5.37852">
        <ele>211</ele>
        <time>2018-06-25T08:56:21.369Z</time>
      </trkpt>
      <trkpt lat="49.1582" lon="5.37805">
        <ele>215</ele>
        <time>2018-06-25T08:56:22.369Z</time>
      </trkpt>
      <trkpt lat="49.15875" lon="5.37758">
        <ele>222</ele>
        <time>2018-06-25T08:56:23.369Z</time>
      </trkpt>
      <trkpt lat="49.15988" lon="5.37765">
        <ele>225</ele>
        <time>2018-06-25T08:56:24.369Z</time>
      </trkpt>
      <trkpt lat="49.16047" lon="5.37787">
        <ele>219</ele>
        <time>2018-06-25T08:56:25.369Z</time>
      </trkpt>
      <trkpt lat="49.1607" lon="5.3778">
        <ele>216</ele>
        <time>2018-06-25T08:56:26.369Z</time>
      </trkpt>
      <trkpt lat="49.16065" lon="5.37581">
        <ele>218</ele>
        <time>2018-06-25T08:56:27.369Z</time>
      </trkpt>
      <trkpt lat="49.16096" lon="5.37481">
        <ele>218</ele>
        <time>2018-06-25T08:56:28.369Z</time>
      </trkpt>
      <trkpt lat="49.16144" lon="5.37395">
        <ele>218</ele>
        <time>2018-06-25T08:56:29.369Z</time>
      </trkpt>
      <trkpt lat="49.16069" lon="5.37267">
        <ele>220</ele>
        <time>2018-06-25T08:56:30.369Z</time>
      </trkpt>
      <trkpt lat="49.16042" lon="5.37178">
        <ele>220</ele>
        <time>2018-06-25T08:56:31.369Z</time>
      </trkpt>
      <trkpt lat="49.16027" lon="5.37039">
        <ele>216</ele>
        <time>2018-06-25T08:56:32.369Z</time>
      </trkpt>
      <trkpt lat="49.15937" lon="5.37048">
        <ele>217</ele>
        <time>2018-06-25T08:56:33.369Z</time>
      </trkpt>
      <trkpt lat="49.1585" lon="5.37017">
        <ele>219</ele>
        <time>2018-06-25T08:56:34.369Z</time>
      </trkpt>
      <trkpt lat="49.15785" lon="5.36934">
        <ele>216</ele>
        <time>2018-06-25T08:56:35.369Z</time>
      </trkpt>
      <trkpt lat="49.15697" lon="5.3708">
        <ele>211</ele>
        <time>2018-06-25T08:56:36.369Z</time>
      </trkpt>
      <trkpt lat="49.15636" lon="5.371">
        <ele>205</ele>
        <time>2018-06-25T08:56:37.369Z</time>
      </trkpt>
      <trkpt lat="49.15576" lon="5.37038">
        <ele>202</ele>
        <time>2018-06-25T08:56:38.369Z</time>
      </trkpt>
      <trkpt lat="49.15535" lon="5.37082">
        <ele>200</ele>
        <time>2018-06-25T08:56:39.369Z</time>
      </trkpt>
      <trkpt lat="49.15149" lon="5.37345">
        <ele>197</ele>
        <time>2018-06-25T08:56:40.369Z</time>
      </trkpt>
      <trkpt lat="49.15019" lon="5.37453">
        <ele>196</ele>
        <time>2018-06-25T08:56:41.369Z</time>
      </trkpt>
      <trkpt lat="49.14993" lon="5.37494">
        <ele>196</ele>
        <time>2018-06-25T08:56:42.369Z</time>
      </trkpt>
      <trkpt lat="49.14896" lon="5.37768">
        <ele>200</ele>
        <time>2018-06-25T08:56:43.369Z</time>
      </trkpt>
      <trkpt lat="49.14954" lon="5.37677">
        <ele>198</ele>
        <time>2018-06-25T08:56:44.369Z</time>
      </trkpt>
      <trkpt lat="49.14956" lon="5.37647">
        <ele>197</ele>
        <time>2018-06-25T08:56:45.369Z</time>
      </trkpt>
      <trkpt lat="49.14945" lon="5.37628">
        <ele>197</ele>
        <time>2018-06-25T08:56:46.369Z</time>
      </trkpt>
      <trkpt lat="49.1489" lon="5.37623">
        <ele>197</ele>
        <time>2018-06-25T08:56:47.369Z</time>
      </trkpt>
      <trkpt lat="49.14607" lon="5.37718">
        <ele>198</ele>
        <time>2018-06-25T08:56:48.369Z</time>
      </trkpt>
      <trkpt lat="49.14421" lon="5.37852">
        <ele>199</ele>
        <time>2018-06-25T08:56:49.369Z</time>
      </trkpt>
      <trkpt lat="49.14281" lon="5.37927">
        <ele>195</ele>
        <time>2018-06-25T08:56:50.369Z</time>
      </trkpt>
      <trkpt lat="49.14197" lon="5.37949">
        <ele>193</ele>
        <time>2018-06-25T08:56:51.369Z</time>
      </trkpt>
      <trkpt lat="49.14172" lon="5.37977">
        <ele>194</ele>
        <time>2018-06-25T08:56:52.369Z</time>
      </trkpt>
      <trkpt lat="49.14102" lon="5.38171">
        <ele>196</ele>
        <time>2018-06-25T08:56:53.369Z</time>
      </trkpt>
      <trkpt lat="49.14055" lon="5.38368">
        <ele>196</ele>
        <time>2018-06-25T08:56:54.369Z</time>
      </trkpt>
      <trkpt lat="49.14008" lon="5.38741">
        <ele>198</ele>
        <time>2018-06-25T08:56:55.369Z</time>
      </trkpt>
      <trkpt lat="49.14046" lon="5.39834">
        <ele>201</ele>
        <time>2018-06-25T08:56:56.369Z</time>
      </trkpt>
      <trkpt lat="49.14027" lon="5.3984">
        <ele>200</ele>
        <time>2018-06-25T08:56:57.369Z</time>
      </trkpt>
      <trkpt lat="49.1403" lon="5.40031">
        <ele>202</ele>
        <time>2018-06-25T08:56:58.369Z</time>
      </trkpt>
      <trkpt lat="49.14017" lon="5.40154">
        <ele>201</ele>
        <time>2018-06-25T08:56:59.369Z</time>
      </trkpt>
      <trkpt lat="49.13886" lon="5.40592">
        <ele>201</ele>
        <time>2018-06-25T08:57:00.369Z</time>
      </trkpt>
      <trkpt lat="49.13771" lon="5.40839">
        <ele>199</ele>
        <time>2018-06-25T08:57:01.369Z</time>
      </trkpt>
      <trkpt lat="49.13534" lon="5.41173">
        <ele>198</ele>
        <time>2018-06-25T08:57:02.369Z</time>
      </trkpt>
      <trkpt lat="49.13294" lon="5.41484">
        <ele>197</ele>
        <time>2018-06-25T08:57:03.369Z</time>
      </trkpt>
      <trkpt lat="49.13153" lon="5.41571">
        <ele>198</ele>
        <time>2018-06-25T08:57:04.369Z</time>
      </trkpt>
      <trkpt lat="49.13044" lon="5.41589">
        <ele>197</ele>
        <time>2018-06-25T08:57:05.369Z</time>
      </trkpt>
      <trkpt lat="49.12941" lon="5.41566">
        <ele>199</ele>
        <time>2018-06-25T08:57:06.369Z</time>
      </trkpt>
      <trkpt lat="49.12803" lon="5.41486">
        <ele>200</ele>
        <time>2018-06-25T08:57:07.369Z</time>
      </trkpt>
      <trkpt lat="49.12792" lon="5.41547">
        <ele>199</ele>
        <time>2018-06-25T08:57:08.369Z</time>
      </trkpt>
      <trkpt lat="49.12829" lon="5.42137">
        <ele>205</ele>
        <time>2018-06-25T08:57:09.369Z</time>
      </trkpt>
      <trkpt lat="49.12766" lon="5.42181">
        <ele>206</ele>
        <time>2018-06-25T08:57:10.369Z</time>
      </trkpt>
      <trkpt lat="49.12818" lon="5.42405">
        <ele>206</ele>
        <time>2018-06-25T08:57:11.369Z</time>
      </trkpt>
      <trkpt lat="49.12821" lon="5.42417">
        <ele>206</ele>
        <time>2018-06-25T08:57:12.369Z</time>
      </trkpt>
      <trkpt lat="49.12754" lon="5.42474">
        <ele>210</ele>
        <time>2018-06-25T08:57:13.369Z</time>
      </trkpt>
      <trkpt lat="49.12721" lon="5.4266">
        <ele>225</ele>
        <time>2018-06-25T08:57:14.369Z</time>
      </trkpt>
      <trkpt lat="49.12618" lon="5.42883">
        <ele>247</ele>
        <time>2018-06-25T08:57:15.369Z</time>
      </trkpt>
      <trkpt lat="49.12542" lon="5.43014">
        <ele>252</ele>
        <time>2018-06-25T08:57:16.369Z</time>
      </trkpt>
      <trkpt lat="49.12441" lon="5.43418">
        <ele>271</ele>
        <time>2018-06-25T08:57:17.369Z</time>
      </trkpt>
      <trkpt lat="49.12404" lon="5.4348">
        <ele>274</ele>
        <time>2018-06-25T08:57:18.369Z</time>
      </trkpt>
      <trkpt lat="49.12373" lon="5.43566">
        <ele>278</ele>
        <time>2018-06-25T08:57:19.369Z</time>
      </trkpt>
      <trkpt lat="49.12324" lon="5.43836">
        <ele>280</ele>
        <time>2018-06-25T08:57:20.369Z</time>
      </trkpt>
      <trkpt lat="49.12306" lon="5.43884">
        <ele>281</ele>
        <time>2018-06-25T08:57:21.369Z</time>
      </trkpt>
      <trkpt lat="49.12197" lon="5.44063">
        <ele>294</ele>
        <time>2018-06-25T08:57:22.369Z</time>
      </trkpt>
      <trkpt lat="49.12146" lon="5.44184">
        <ele>305</ele>
        <time>2018-06-25T08:57:23.369Z</time>
      </trkpt>
      <trkpt lat="49.11832" lon="5.44686">
        <ele>342</ele>
        <time>2018-06-25T08:57:24.369Z</time>
      </trkpt>
      <trkpt lat="49.11702" lon="5.44631">
        <ele>328</ele>
        <time>2018-06-25T08:57:25.369Z</time>
      </trkpt>
      <trkpt lat="49.1165" lon="5.44546">
        <ele>322</ele>
        <time>2018-06-25T08:57:26.369Z</time>
      </trkpt>
      <trkpt lat="49.11618" lon="5.44441">
        <ele>321</ele>
        <time>2018-06-25T08:57:27.369Z</time>
      </trkpt>
      <trkpt lat="49.11501" lon="5.44282">
        <ele>308</ele>
        <time>2018-06-25T08:57:28.369Z</time>
      </trkpt>
      <trkpt lat="49.11589" lon="5.44548">
        <ele>315</ele>
        <time>2018-06-25T08:57:29.369Z</time>
      </trkpt>
      <trkpt lat="49.1152" lon="5.44589">
        <ele>307</ele>
        <time>2018-06-25T08:57:30.369Z</time>
      </trkpt>
      <trkpt lat="49.11472" lon="5.44558">
        <ele>302</ele>
        <time>2018-06-25T08:57:31.369Z</time>
      </trkpt>
      <trkpt lat="49.11354" lon="5.44519">
        <ele>288</ele>
        <time>2018-06-25T08:57:32.369Z</time>
      </trkpt>
      <trkpt lat="49.11302" lon="5.44459">
        <ele>277</ele>
        <time>2018-06-25T08:57:33.369Z</time>
      </trkpt>
      <trkpt lat="49.11278" lon="5.44398">
        <ele>270</ele>
        <time>2018-06-25T08:57:34.369Z</time>
      </trkpt>
      <trkpt lat="49.11234" lon="5.44371">
        <ele>269</ele>
        <time>2018-06-25T08:57:35.369Z</time>
      </trkpt>
      <trkpt lat="49.11175" lon="5.44625">
        <ele>278</ele>
        <time>2018-06-25T08:57:36.369Z</time>
      </trkpt>
      <trkpt lat="49.11159" lon="5.44745">
        <ele>276</ele>
        <time>2018-06-25T08:57:37.369Z</time>
      </trkpt>
      <trkpt lat="49.1115" lon="5.45">
        <ele>288</ele>
        <time>2018-06-25T08:57:38.369Z</time>
      </trkpt>
      <trkpt lat="49.11163" lon="5.45063">
        <ele>285</ele>
        <time>2018-06-25T08:57:39.369Z</time>
      </trkpt>
      <trkpt lat="49.11158" lon="5.45171">
        <ele>286</ele>
        <time>2018-06-25T08:57:40.369Z</time>
      </trkpt>
      <trkpt lat="49.11137" lon="5.45249">
        <ele>290</ele>
        <time>2018-06-25T08:57:41.369Z</time>
      </trkpt>
      <trkpt lat="49.11104" lon="5.45306">
        <ele>294</ele>
        <time>2018-06-25T08:57:42.369Z</time>
      </trkpt>
      <trkpt lat="49.1108" lon="5.4541">
        <ele>294</ele>
        <time>2018-06-25T08:57:43.369Z</time>
      </trkpt>
      <trkpt lat="49.10973" lon="5.4546">
        <ele>305</ele>
        <time>2018-06-25T08:57:44.369Z</time>
      </trkpt>
      <trkpt lat="49.1079" lon="5.456">
        <ele>312</ele>
        <time>2018-06-25T08:57:45.369Z</time>
      </trkpt>
      <trkpt lat="49.10694" lon="5.45648">
        <ele>323</ele>
        <time>2018-06-25T08:57:46.369Z</time>
      </trkpt>
      <trkpt lat="49.10628" lon="5.45714">
        <ele>339</ele>
        <time>2018-06-25T08:57:47.369Z</time>
      </trkpt>
      <trkpt lat="49.10578" lon="5.45815">
        <ele>355</ele>
        <time>2018-06-25T08:57:48.369Z</time>
      </trkpt>
      <trkpt lat="49.1049" lon="5.45912">
        <ele>361</ele>
        <time>2018-06-25T08:57:49.369Z</time>
      </trkpt>
      <trkpt lat="49.10411" lon="5.45945">
        <ele>362</ele>
        <time>2018-06-25T08:57:50.369Z</time>
      </trkpt>
      <trkpt lat="49.10344" lon="5.45953">
        <ele>361</ele>
        <time>2018-06-25T08:57:51.369Z</time>
      </trkpt>
      <trkpt lat="49.10236" lon="5.45997">
        <ele>357</ele>
        <time>2018-06-25T08:57:52.369Z</time>
      </trkpt>
      <trkpt lat="49.10266" lon="5.46021">
        <ele>356</ele>
        <time>2018-06-25T08:57:53.369Z</time>
      </trkpt>
      <trkpt lat="49.10267" lon="5.46039">
        <ele>354</ele>
        <time>2018-06-25T08:57:54.369Z</time>
      </trkpt>
      <trkpt lat="49.10105" lon="5.46243">
        <ele>338</ele>
        <time>2018-06-25T08:57:55.369Z</time>
      </trkpt>
      <trkpt lat="49.10035" lon="5.46096">
        <ele>335</ele>
        <time>2018-06-25T08:57:56.369Z</time>
      </trkpt>
      <trkpt lat="49.09974" lon="5.46037">
        <ele>331</ele>
        <time>2018-06-25T08:57:57.369Z</time>
      </trkpt>
      <trkpt lat="49.09909" lon="5.46033">
        <ele>325</ele>
        <time>2018-06-25T08:57:58.369Z</time>
      </trkpt>
      <trkpt lat="49.09904" lon="5.46048">
        <ele>324</ele>
        <time>2018-06-25T08:57:59.369Z</time>
      </trkpt>
      <trkpt lat="49.09791" lon="5.46058">
        <ele>324</ele>
        <time>2018-06-25T08:58:00.369Z</time>
      </trkpt>
      <trkpt lat="49.09719" lon="5.46164">
        <ele>323</ele>
        <time>2018-06-25T08:58:01.369Z</time>
      </trkpt>
      <trkpt lat="49.09646" lon="5.46327">
        <ele>328</ele>
        <time>2018-06-25T08:58:02.369Z</time>
      </trkpt>
      <trkpt lat="49.09636" lon="5.46394">
        <ele>324</ele>
        <time>2018-06-25T08:58:03.369Z</time>
      </trkpt>
      <trkpt lat="49.09585" lon="5.46526">
        <ele>320</ele>
        <time>2018-06-25T08:58:04.369Z</time>
      </trkpt>
      <trkpt lat="49.09564" lon="5.46621">
        <ele>315</ele>
        <time>2018-06-25T08:58:05.369Z</time>
      </trkpt>
      <trkpt lat="49.09573" lon="5.46636">
        <ele>314</ele>
        <time>2018-06-25T08:58:06.369Z</time>
      </trkpt>
      <trkpt lat="49.09565" lon="5.46688">
        <ele>308</ele>
        <time>2018-06-25T08:58:07.369Z</time>
      </trkpt>
      <trkpt lat="49.09524" lon="5.46749">
        <ele>302</ele>
        <time>2018-06-25T08:58:08.369Z</time>
      </trkpt>
      <trkpt lat="49.09511" lon="5.46741">
        <ele>303</ele>
        <time>2018-06-25T08:58:09.369Z</time>
      </trkpt>
      <trkpt lat="49.09511" lon="5.46766">
        <ele>297</ele>
        <time>2018-06-25T08:58:10.369Z</time>
      </trkpt>
      <trkpt lat="49.09527" lon="5.46792">
        <ele>288</ele>
        <time>2018-06-25T08:58:11.369Z</time>
      </trkpt>
      <trkpt lat="49.09443" lon="5.46795">
        <ele>279</ele>
        <time>2018-06-25T08:58:12.369Z</time>
      </trkpt>
      <trkpt lat="49.0944" lon="5.46819">
        <ele>270</ele>
        <time>2018-06-25T08:58:13.369Z</time>
      </trkpt>
      <trkpt lat="49.09424" lon="5.46823">
        <ele>265</ele>
        <time>2018-06-25T08:58:14.369Z</time>
      </trkpt>
      <trkpt lat="49.09427" lon="5.46843">
        <ele>260</ele>
        <time>2018-06-25T08:58:15.369Z</time>
      </trkpt>
      <trkpt lat="49.09406" lon="5.46849">
        <ele>256</ele>
        <time>2018-06-25T08:58:16.369Z</time>
      </trkpt>
      <trkpt lat="49.09433" lon="5.46875">
        <ele>254</ele>
        <time>2018-06-25T08:58:17.369Z</time>
      </trkpt>
      <trkpt lat="49.09435" lon="5.46897">
        <ele>249</ele>
        <time>2018-06-25T08:58:18.369Z</time>
      </trkpt>
      <trkpt lat="49.09412" lon="5.46957">
        <ele>242</ele>
        <time>2018-06-25T08:58:19.369Z</time>
      </trkpt>
      <trkpt lat="49.09377" lon="5.46986">
        <ele>246</ele>
        <time>2018-06-25T08:58:20.369Z</time>
      </trkpt>
      <trkpt lat="49.09349" lon="5.46977">
        <ele>248</ele>
        <time>2018-06-25T08:58:21.369Z</time>
      </trkpt>
      <trkpt lat="49.09198" lon="5.47008">
        <ele>253</ele>
        <time>2018-06-25T08:58:22.369Z</time>
      </trkpt>
      <trkpt lat="49.09141" lon="5.47044">
        <ele>254</ele>
        <time>2018-06-25T08:58:23.369Z</time>
      </trkpt>
      <trkpt lat="49.09033" lon="5.47175">
        <ele>253</ele>
        <time>2018-06-25T08:58:24.369Z</time>
      </trkpt>
      <trkpt lat="49.08976" lon="5.47208">
        <ele>249</ele>
        <time>2018-06-25T08:58:25.369Z</time>
      </trkpt>
      <trkpt lat="49.08938" lon="5.47168">
        <ele>250</ele>
        <time>2018-06-25T08:58:26.369Z</time>
      </trkpt>
      <trkpt lat="49.08871" lon="5.47006">
        <ele>247</ele>
        <time>2018-06-25T08:58:27.369Z</time>
      </trkpt>
      <trkpt lat="49.08855" lon="5.46928">
        <ele>243</ele>
        <time>2018-06-25T08:58:28.369Z</time>
      </trkpt>
      <trkpt lat="49.0884" lon="5.46904">
        <ele>242</ele>
        <time>2018-06-25T08:58:29.369Z</time>
      </trkpt>
      <trkpt lat="49.08791" lon="5.46895">
        <ele>246</ele>
        <time>2018-06-25T08:58:30.369Z</time>
      </trkpt>
      <trkpt lat="49.08675" lon="5.46792">
        <ele>245</ele>
        <time>2018-06-25T08:58:31.369Z</time>
      </trkpt>
      <trkpt lat="49.08677" lon="5.46742">
        <ele>238</ele>
        <time>2018-06-25T08:58:32.369Z</time>
      </trkpt>
      <trkpt lat="49.08561" lon="5.46569">
        <ele>233</ele>
        <time>2018-06-25T08:58:33.369Z</time>
      </trkpt>
      <trkpt lat="49.08529" lon="5.46561">
        <ele>234</ele>
        <time>2018-06-25T08:58:34.369Z</time>
      </trkpt>
      <trkpt lat="49.08551" lon="5.46516">
        <ele>232</ele>
        <time>2018-06-25T08:58:35.369Z</time>
      </trkpt>
      <trkpt lat="49.08537" lon="5.46471">
        <ele>232</ele>
        <time>2018-06-25T08:58:36.369Z</time>
      </trkpt>
      <trkpt lat="49.0848" lon="5.46382">
        <ele>231</ele>
        <time>2018-06-25T08:58:37.369Z</time>
      </trkpt>
      <trkpt lat="49.08431" lon="5.46416">
        <ele>230</ele>
        <time>2018-06-25T08:58:38.369Z</time>
      </trkpt>
      <trkpt lat="49.08426" lon="5.46448">
        <ele>230</ele>
        <time>2018-06-25T08:58:39.369Z</time>
      </trkpt>
      <trkpt lat="49.08355" lon="5.4652">
        <ele>235</ele>
        <time>2018-06-25T08:58:40.369Z</time>
      </trkpt>
      <trkpt lat="49.08284" lon="5.46546">
        <ele>239</ele>
        <time>2018-06-25T08:58:41.369Z</time>
      </trkpt>
      <trkpt lat="49.08251" lon="5.4644">
        <ele>241</ele>
        <time>2018-06-25T08:58:42.369Z</time>
      </trkpt>
      <trkpt lat="49.08258" lon="5.46419">
        <ele>242</ele>
        <time>2018-06-25T08:58:43.369Z</time>
      </trkpt>
      <trkpt lat="49.0819" lon="5.4622">
        <ele>260</ele>
        <time>2018-06-25T08:58:44.369Z</time>
      </trkpt>
      <trkpt lat="49.08187" lon="5.46022">
        <ele>250</ele>
        <time>2018-06-25T08:58:45.369Z</time>
      </trkpt>
      <trkpt lat="49.08166" lon="5.45989">
        <ele>255</ele>
        <time>2018-06-25T08:58:46.369Z</time>
      </trkpt>
      <trkpt lat="49.08141" lon="5.45876">
        <ele>253</ele>
        <time>2018-06-25T08:58:47.369Z</time>
      </trkpt>
      <trkpt lat="49.08149" lon="5.45795">
        <ele>244</ele>
        <time>2018-06-25T08:58:48.369Z</time>
      </trkpt>
      <trkpt lat="49.08058" lon="5.45667">
        <ele>248</ele>
        <time>2018-06-25T08:58:49.369Z</time>
      </trkpt>
      <trkpt lat="49.08029" lon="5.45603">
        <ele>244</ele>
        <time>2018-06-25T08:58:50.369Z</time>
      </trkpt>
      <trkpt lat="49.0798" lon="5.45548">
        <ele>244</ele>
        <time>2018-06-25T08:58:51.369Z</time>
      </trkpt>
      <trkpt lat="49.07974" lon="5.45522">
        <ele>241</ele>
        <time>2018-06-25T08:58:52.369Z</time>
      </trkpt>
      <trkpt lat="49.07921" lon="5.45483">
        <ele>246</ele>
        <time>2018-06-25T08:58:53.369Z</time>
      </trkpt>
      <trkpt lat="49.07895" lon="5.45496">
        <ele>251</ele>
        <time>2018-06-25T08:58:54.369Z</time>
      </trkpt>
      <trkpt lat="49.07893" lon="5.45583">
        <ele>256</ele>
        <time>2018-06-25T08:58:55.369Z</time>
      </trkpt>
      <trkpt lat="49.07859" lon="5.45708">
        <ele>267</ele>
        <time>2018-06-25T08:58:56.369Z</time>
      </trkpt>
      <trkpt lat="49.07992" lon="5.46121">
        <ele>283</ele>
        <time>2018-06-25T08:58:57.369Z</time>
      </trkpt>
      <trkpt lat="49.07933" lon="5.46232">
        <ele>290</ele>
        <time>2018-06-25T08:58:58.369Z</time>
      </trkpt>
      <trkpt lat="49.07864" lon="5.46455">
        <ele>297</ele>
        <time>2018-06-25T08:58:59.369Z</time>
      </trkpt>
      <trkpt lat="49.07855" lon="5.46522">
        <ele>298</ele>
        <time>2018-06-25T08:59:00.369Z</time>
      </trkpt>
      <trkpt lat="49.07862" lon="5.4668">
        <ele>303</ele>
        <time>2018-06-25T08:59:01.369Z</time>
      </trkpt>
      <trkpt lat="49.07838" lon="5.4694">
        <ele>316</ele>
        <time>2018-06-25T08:59:02.369Z</time>
      </trkpt>
      <trkpt lat="49.07804" lon="5.47065">
        <ele>324</ele>
        <time>2018-06-25T08:59:03.369Z</time>
      </trkpt>
      <trkpt lat="49.0769" lon="5.47179">
        <ele>332</ele>
        <time>2018-06-25T08:59:04.369Z</time>
      </trkpt>
      <trkpt lat="49.07525" lon="5.47456">
        <ele>342</ele>
        <time>2018-06-25T08:59:05.369Z</time>
      </trkpt>
      <trkpt lat="49.07445" lon="5.47623">
        <ele>340</ele>
        <time>2018-06-25T08:59:06.369Z</time>
      </trkpt>
      <trkpt lat="49.0745" lon="5.47609">
        <ele>341</ele>
        <time>2018-06-25T08:59:07.369Z</time>
      </trkpt>
      <trkpt lat="49.07431" lon="5.47645">
        <ele>339</ele>
        <time>2018-06-25T08:59:08.369Z</time>
      </trkpt>
      <trkpt lat="49.07343" lon="5.47688">
        <ele>342</ele>
        <time>2018-06-25T08:59:09.369Z</time>
      </trkpt>
      <trkpt lat="49.07165" lon="5.47691">
        <ele>354</ele>
        <time>2018-06-25T08:59:10.369Z</time>
      </trkpt>
      <trkpt lat="49.07125" lon="5.4767">
        <ele>356</ele>
        <time>2018-06-25T08:59:11.369Z</time>
      </trkpt>
      <trkpt lat="49.07066" lon="5.47677">
        <ele>360</ele>
        <time>2018-06-25T08:59:12.369Z</time>
      </trkpt>
      <trkpt lat="49.0694" lon="5.47803">
        <ele>364</ele>
        <time>2018-06-25T08:59:13.369Z</time>
      </trkpt>
      <trkpt lat="49.06373" lon="5.46789">
        <ele>362</ele>
        <time>2018-06-25T08:59:14.369Z</time>
      </trkpt>
      <trkpt lat="49.06229" lon="5.46557">
        <ele>364</ele>
        <time>2018-06-25T08:59:15.369Z</time>
      </trkpt>
      <trkpt lat="49.06154" lon="5.46891">
        <ele>346</ele>
        <time>2018-06-25T08:59:16.369Z</time>
      </trkpt>
      <trkpt lat="49.06132" lon="5.46861">
        <ele>345</ele>
        <time>2018-06-25T08:59:17.369Z</time>
      </trkpt>
      <trkpt lat="49.06036" lon="5.46619">
        <ele>333</ele>
        <time>2018-06-25T08:59:18.369Z</time>
      </trkpt>
      <trkpt lat="49.05991" lon="5.46567">
        <ele>322</ele>
        <time>2018-06-25T08:59:19.369Z</time>
      </trkpt>
      <trkpt lat="49.05894" lon="5.4654">
        <ele>312</ele>
        <time>2018-06-25T08:59:20.369Z</time>
      </trkpt>
      <trkpt lat="49.05835" lon="5.46545">
        <ele>308</ele>
        <time>2018-06-25T08:59:21.369Z</time>
      </trkpt>
      <trkpt lat="49.05762" lon="5.46585">
        <ele>301</ele>
        <time>2018-06-25T08:59:22.369Z</time>
      </trkpt>
      <trkpt lat="49.05649" lon="5.46708">
        <ele>294</ele>
        <time>2018-06-25T08:59:23.369Z</time>
      </trkpt>
      <trkpt lat="49.05575" lon="5.46834">
        <ele>287</ele>
        <time>2018-06-25T08:59:24.369Z</time>
      </trkpt>
      <trkpt lat="49.05485" lon="5.47073">
        <ele>281</ele>
        <time>2018-06-25T08:59:25.369Z</time>
      </trkpt>
      <trkpt lat="49.0532" lon="5.4711">
        <ele>272</ele>
        <time>2018-06-25T08:59:26.369Z</time>
      </trkpt>
      <trkpt lat="49.05312" lon="5.47096">
        <ele>275</ele>
        <time>2018-06-25T08:59:27.369Z</time>
      </trkpt>
      <trkpt lat="49.05305" lon="5.46854">
        <ele>301</ele>
        <time>2018-06-25T08:59:28.369Z</time>
      </trkpt>
      <trkpt lat="49.05257" lon="5.46684">
        <ele>325</ele>
        <time>2018-06-25T08:59:29.369Z</time>
      </trkpt>
      <trkpt lat="49.05187" lon="5.46549">
        <ele>334</ele>
        <time>2018-06-25T08:59:30.369Z</time>
      </trkpt>
      <trkpt lat="49.04999" lon="5.46066">
        <ele>340</ele>
        <time>2018-06-25T08:59:31.369Z</time>
      </trkpt>
      <trkpt lat="49.0445" lon="5.45372">
        <ele>319</ele>
        <time>2018-06-25T08:59:32.369Z</time>
      </trkpt>
      <trkpt lat="49.04145" lon="5.45013">
        <ele>300</ele>
        <time>2018-06-25T08:59:33.369Z</time>
      </trkpt>
      <trkpt lat="49.03816" lon="5.44797">
        <ele>276</ele>
        <time>2018-06-25T08:59:34.369Z</time>
      </trkpt>
      <trkpt lat="49.03665" lon="5.44449">
        <ele>257</ele>
        <time>2018-06-25T08:59:35.369Z</time>
      </trkpt>
      <trkpt lat="49.03581" lon="5.44102">
        <ele>236</ele>
        <time>2018-06-25T08:59:36.369Z</time>
      </trkpt>
      <trkpt lat="49.03575" lon="5.44097">
        <ele>235</ele>
        <time>2018-06-25T08:59:37.369Z</time>
      </trkpt>
      <trkpt lat="49.03602" lon="5.43852">
        <ele>225</ele>
        <time>2018-06-25T08:59:38.369Z</time>
      </trkpt>
      <trkpt lat="49.03548" lon="5.43827">
        <ele>219</ele>
        <time>2018-06-25T08:59:39.369Z</time>
      </trkpt>
      <trkpt lat="49.0351" lon="5.43201">
        <ele>205</ele>
        <time>2018-06-25T08:59:40.369Z</time>
      </trkpt>
      <trkpt lat="49.03467" lon="5.43059">
        <ele>203</ele>
        <time>2018-06-25T08:59:41.369Z</time>
      </trkpt>
      <trkpt lat="49.03448" lon="5.42897">
        <ele>202</ele>
        <time>2018-06-25T08:59:42.369Z</time>
      </trkpt>
      <trkpt lat="49.03381" lon="5.42575">
        <ele>204</ele>
        <time>2018-06-25T08:59:43.369Z</time>
      </trkpt>
      <trkpt lat="49.03349" lon="5.42522">
        <ele>203</ele>
        <time>2018-06-25T08:59:44.369Z</time>
      </trkpt>
      <trkpt lat="49.03181" lon="5.42339">
        <ele>203</ele>
        <time>2018-06-25T08:59:45.369Z</time>
      </trkpt>
      <trkpt lat="49.02615" lon="5.42238">
        <ele>202</ele>
        <time>2018-06-25T08:59:46.369Z</time>
      </trkpt>
      <trkpt lat="49.02362" lon="5.42063">
        <ele>204</ele>
        <time>2018-06-25T08:59:47.369Z</time>
      </trkpt>
      <trkpt lat="49.02267" lon="5.4205">
        <ele>204</ele>
        <time>2018-06-25T08:59:48.369Z</time>
      </trkpt>
      <trkpt lat="49.02212" lon="5.42063">
        <ele>205</ele>
        <time>2018-06-25T08:59:49.369Z</time>
      </trkpt>
      <trkpt lat="49.02175" lon="5.42097">
        <ele>205</ele>
        <time>2018-06-25T08:59:50.369Z</time>
      </trkpt>
      <trkpt lat="49.01996" lon="5.4184">
        <ele>205</ele>
        <time>2018-06-25T08:59:51.369Z</time>
      </trkpt>
      <trkpt lat="49.01935" lon="5.41683">
        <ele>209</ele>
        <time>2018-06-25T08:59:52.369Z</time>
      </trkpt>
      <trkpt lat="49.01962" lon="5.41631">
        <ele>209</ele>
        <time>2018-06-25T08:59:53.369Z</time>
      </trkpt>
      <trkpt lat="49.01812" lon="5.41009">
        <ele>229</ele>
        <time>2018-06-25T08:59:54.369Z</time>
      </trkpt>
      <trkpt lat="49.01604" lon="5.40509">
        <ele>225</ele>
        <time>2018-06-25T08:59:55.369Z</time>
      </trkpt>
      <trkpt lat="49.01553" lon="5.40334">
        <ele>225</ele>
        <time>2018-06-25T08:59:56.369Z</time>
      </trkpt>
      <trkpt lat="49.01439" lon="5.4016">
        <ele>222</ele>
        <time>2018-06-25T08:59:57.369Z</time>
      </trkpt>
      <trkpt lat="49.01275" lon="5.40059">
        <ele>219</ele>
        <time>2018-06-25T08:59:58.369Z</time>
      </trkpt>
      <trkpt lat="49.0121" lon="5.39986">
        <ele>220</ele>
        <time>2018-06-25T08:59:59.369Z</time>
      </trkpt>
      <trkpt lat="49.01069" lon="5.39754">
        <ele>217</ele>
        <time>2018-06-25T09:00:00.369Z</time>
      </trkpt>
      <trkpt lat="49.00914" lon="5.39416">
        <ele>216</ele>
        <time>2018-06-25T09:00:01.369Z</time>
      </trkpt>
      <trkpt lat="49.00753" lon="5.3925">
        <ele>219</ele>
        <time>2018-06-25T09:00:02.369Z</time>
      </trkpt>
      <trkpt lat="49.00646" lon="5.39336">
        <ele>220</ele>
        <time>2018-06-25T09:00:03.369Z</time>
      </trkpt>
      <trkpt lat="49.00554" lon="5.39141">
        <ele>224</ele>
        <time>2018-06-25T09:00:04.369Z</time>
      </trkpt>
      <trkpt lat="49.00496" lon="5.39072">
        <ele>221</ele>
        <time>2018-06-25T09:00:05.369Z</time>
      </trkpt>
      <trkpt lat="49.00452" lon="5.39044">
        <ele>221</ele>
        <time>2018-06-25T09:00:06.369Z</time>
      </trkpt>
      <trkpt lat="49.00314" lon="5.39047">
        <ele>224</ele>
        <time>2018-06-25T09:00:07.369Z</time>
      </trkpt>
      <trkpt lat="49.00292" lon="5.39035">
        <ele>226</ele>
        <time>2018-06-25T09:00:08.369Z</time>
      </trkpt>
      <trkpt lat="49.00173" lon="5.3881">
        <ele>226</ele>
        <time>2018-06-25T09:00:09.369Z</time>
      </trkpt>
      <trkpt lat="48.9994" lon="5.38439">
        <ele>237</ele>
        <time>2018-06-25T09:00:10.369Z</time>
      </trkpt>
      <trkpt lat="48.9975" lon="5.38257">
        <ele>249</ele>
        <time>2018-06-25T09:00:11.369Z</time>
      </trkpt>
      <trkpt lat="48.99584" lon="5.3814">
        <ele>260</ele>
        <time>2018-06-25T09:00:12.369Z</time>
      </trkpt>
      <trkpt lat="48.99267" lon="5.37991">
        <ele>259</ele>
        <time>2018-06-25T09:00:13.369Z</time>
      </trkpt>
      <trkpt lat="48.99142" lon="5.37974">
        <ele>259</ele>
        <time>2018-06-25T09:00:14.369Z</time>
      </trkpt>
      <trkpt lat="48.98778" lon="5.38043">
        <ele>265</ele>
        <time>2018-06-25T09:00:15.369Z</time>
      </trkpt>
      <trkpt lat="48.98639" lon="5.38049">
        <ele>268</ele>
        <time>2018-06-25T09:00:16.369Z</time>
      </trkpt>
      <trkpt lat="48.98498" lon="5.37969">
        <ele>272</ele>
        <time>2018-06-25T09:00:17.369Z</time>
      </trkpt>
      <trkpt lat="48.98378" lon="5.37874">
        <ele>274</ele>
        <time>2018-06-25T09:00:18.369Z</time>
      </trkpt>
      <trkpt lat="48.98293" lon="5.3784">
        <ele>275</ele>
        <time>2018-06-25T09:00:19.369Z</time>
      </trkpt>
      <trkpt lat="48.98095" lon="5.37798">
        <ele>281</ele>
        <time>2018-06-25T09:00:20.369Z</time>
      </trkpt>
      <trkpt lat="48.97986" lon="5.37704">
        <ele>281</ele>
        <time>2018-06-25T09:00:21.369Z</time>
      </trkpt>
      <trkpt lat="48.97869" lon="5.37413">
        <ele>292</ele>
        <time>2018-06-25T09:00:22.369Z</time>
      </trkpt>
      <trkpt lat="48.97837" lon="5.37375">
        <ele>292</ele>
        <time>2018-06-25T09:00:23.369Z</time>
      </trkpt>
      <trkpt lat="48.97745" lon="5.37325">
        <ele>296</ele>
        <time>2018-06-25T09:00:24.369Z</time>
      </trkpt>
      <trkpt lat="48.97567" lon="5.37187">
        <ele>302</ele>
        <time>2018-06-25T09:00:25.369Z</time>
      </trkpt>
      <trkpt lat="48.97376" lon="5.36979">
        <ele>307</ele>
        <time>2018-06-25T09:00:26.369Z</time>
      </trkpt>
      <trkpt lat="48.97359" lon="5.36913">
        <ele>309</ele>
        <time>2018-06-25T09:00:27.369Z</time>
      </trkpt>
      <trkpt lat="48.9722" lon="5.36588">
        <ele>326</ele>
        <time>2018-06-25T09:00:28.369Z</time>
      </trkpt>
      <trkpt lat="48.97194" lon="5.36385">
        <ele>334</ele>
        <time>2018-06-25T09:00:29.369Z</time>
      </trkpt>
      <trkpt lat="48.97183" lon="5.36378">
        <ele>334</ele>
        <time>2018-06-25T09:00:30.369Z</time>
      </trkpt>
      <trkpt lat="48.97113" lon="5.36427">
        <ele>336</ele>
        <time>2018-06-25T09:00:31.369Z</time>
      </trkpt>
      <trkpt lat="48.97073" lon="5.36476">
        <ele>338</ele>
        <time>2018-06-25T09:00:32.369Z</time>
      </trkpt>
      <trkpt lat="48.97015" lon="5.36483">
        <ele>342</ele>
        <time>2018-06-25T09:00:33.369Z</time>
      </trkpt>
      <trkpt lat="48.97011" lon="5.36533">
        <ele>342</ele>
        <time>2018-06-25T09:00:34.369Z</time>
      </trkpt>
      <trkpt lat="48.96991" lon="5.36569">
        <ele>342</ele>
        <time>2018-06-25T09:00:35.369Z</time>
      </trkpt>
      <trkpt lat="48.96908" lon="5.36721">
        <ele>342</ele>
        <time>2018-06-25T09:00:36.369Z</time>
      </trkpt>
      <trkpt lat="48.96906" lon="5.36832">
        <ele>342</ele>
        <time>2018-06-25T09:00:37.369Z</time>
      </trkpt>
      <trkpt lat="48.96857" lon="5.37026">
        <ele>341</ele>
        <time>2018-06-25T09:00:38.369Z</time>
      </trkpt>
      <trkpt lat="48.96834" lon="5.37042">
        <ele>341</ele>
        <time>2018-06-25T09:00:39.369Z</time>
      </trkpt>
      <trkpt lat="48.96811" lon="5.37088">
        <ele>338</ele>
        <time>2018-06-25T09:00:40.369Z</time>
      </trkpt>
      <trkpt lat="48.9678" lon="5.37211">
        <ele>334</ele>
        <time>2018-06-25T09:00:41.369Z</time>
      </trkpt>
      <trkpt lat="48.96709" lon="5.37362">
        <ele>330</ele>
        <time>2018-06-25T09:00:42.369Z</time>
      </trkpt>
      <trkpt lat="48.96661" lon="5.37433">
        <ele>327</ele>
        <time>2018-06-25T09:00:43.369Z</time>
      </trkpt>
      <trkpt lat="48.96604" lon="5.3761">
        <ele>319</ele>
        <time>2018-06-25T09:00:44.369Z</time>
      </trkpt>
      <trkpt lat="48.96525" lon="5.37709">
        <ele>309</ele>
        <time>2018-06-25T09:00:45.369Z</time>
      </trkpt>
      <trkpt lat="48.96405" lon="5.37808">
        <ele>303</ele>
        <time>2018-06-25T09:00:46.369Z</time>
      </trkpt>
      <trkpt lat="48.96354" lon="5.37903">
        <ele>292</ele>
        <time>2018-06-25T09:00:47.369Z</time>
      </trkpt>
      <trkpt lat="48.96329" lon="5.38085">
        <ele>279</ele>
        <time>2018-06-25T09:00:48.369Z</time>
      </trkpt>
      <trkpt lat="48.96233" lon="5.38198">
        <ele>278</ele>
        <time>2018-06-25T09:00:49.369Z</time>
      </trkpt>
      <trkpt lat="48.96164" lon="5.3834">
        <ele>271</ele>
        <time>2018-06-25T09:00:50.369Z</time>
      </trkpt>
      <trkpt lat="48.96105" lon="5.38402">
        <ele>267</ele>
        <time>2018-06-25T09:00:51.369Z</time>
      </trkpt>
      <trkpt lat="48.95955" lon="5.3865">
        <ele>278</ele>
        <time>2018-06-25T09:00:52.369Z</time>
      </trkpt>
      <trkpt lat="48.9591" lon="5.38783">
        <ele>282</ele>
        <time>2018-06-25T09:00:53.369Z</time>
      </trkpt>
      <trkpt lat="48.95887" lon="5.38891">
        <ele>283</ele>
        <time>2018-06-25T09:00:54.369Z</time>
      </trkpt>
      <trkpt lat="48.95848" lon="5.39258">
        <ele>277</ele>
        <time>2018-06-25T09:00:55.369Z</time>
      </trkpt>
      <trkpt lat="48.95857" lon="5.39521">
        <ele>268</ele>
        <time>2018-06-25T09:00:56.369Z</time>
      </trkpt>
      <trkpt lat="48.95796" lon="5.39661">
        <ele>265</ele>
        <time>2018-06-25T09:00:57.369Z</time>
      </trkpt>
      <trkpt lat="48.95761" lon="5.39825">
        <ele>260</ele>
        <time>2018-06-25T09:00:58.369Z</time>
      </trkpt>
      <trkpt lat="48.95706" lon="5.39901">
        <ele>252</ele>
        <time>2018-06-25T09:00:59.369Z</time>
      </trkpt>
      <trkpt lat="48.95705" lon="5.39939">
        <ele>251</ele>
        <time>2018-06-25T09:01:00.369Z</time>
      </trkpt>
      <trkpt lat="48.9565" lon="5.39983">
        <ele>249</ele>
        <time>2018-06-25T09:01:01.369Z</time>
      </trkpt>
      <trkpt lat="48.95607" lon="5.39934">
        <ele>249</ele>
        <time>2018-06-25T09:01:02.369Z</time>
      </trkpt>
      <trkpt lat="48.95551" lon="5.39782">
        <ele>250</ele>
        <time>2018-06-25T09:01:03.369Z</time>
      </trkpt>
      <trkpt lat="48.95492" lon="5.39725">
        <ele>254</ele>
        <time>2018-06-25T09:01:04.369Z</time>
      </trkpt>
      <trkpt lat="48.95395" lon="5.39701">
        <ele>264</ele>
        <time>2018-06-25T09:01:05.369Z</time>
      </trkpt>
      <trkpt lat="48.95331" lon="5.39653">
        <ele>273</ele>
        <time>2018-06-25T09:01:06.369Z</time>
      </trkpt>
      <trkpt lat="48.95241" lon="5.39627">
        <ele>282</ele>
        <time>2018-06-25T09:01:07.369Z</time>
      </trkpt>
      <trkpt lat="48.95014" lon="5.39614">
        <ele>301</ele>
        <time>2018-06-25T09:01:08.369Z</time>
      </trkpt>
      <trkpt lat="48.94669" lon="5.39719">
        <ele>325</ele>
        <time>2018-06-25T09:01:09.369Z</time>
      </trkpt>
      <trkpt lat="48.9453" lon="5.3981">
        <ele>327</ele>
        <time>2018-06-25T09:01:10.369Z</time>
      </trkpt>
      <trkpt lat="48.9445" lon="5.39803">
        <ele>321</ele>
        <time>2018-06-25T09:01:11.369Z</time>
      </trkpt>
      <trkpt lat="48.94322" lon="5.3974">
        <ele>312</ele>
        <time>2018-06-25T09:01:12.369Z</time>
      </trkpt>
      <trkpt lat="48.94267" lon="5.39767">
        <ele>308</ele>
        <time>2018-06-25T09:01:13.369Z</time>
      </trkpt>
      <trkpt lat="48.94227" lon="5.39752">
        <ele>307</ele>
        <time>2018-06-25T09:01:14.369Z</time>
      </trkpt>
      <trkpt lat="48.94045" lon="5.39831">
        <ele>313</ele>
        <time>2018-06-25T09:01:15.369Z</time>
      </trkpt>
      <trkpt lat="48.93968" lon="5.39902">
        <ele>323</ele>
        <time>2018-06-25T09:01:16.369Z</time>
      </trkpt>
      <trkpt lat="48.93903" lon="5.39924">
        <ele>326</ele>
        <time>2018-06-25T09:01:17.369Z</time>
      </trkpt>
      <trkpt lat="48.93863" lon="5.39908">
        <ele>326</ele>
        <time>2018-06-25T09:01:18.369Z</time>
      </trkpt>
      <trkpt lat="48.93823" lon="5.39941">
        <ele>326</ele>
        <time>2018-06-25T09:01:19.369Z</time>
      </trkpt>
      <trkpt lat="48.93757" lon="5.40089">
        <ele>312</ele>
        <time>2018-06-25T09:01:20.369Z</time>
      </trkpt>
      <trkpt lat="48.93802" lon="5.40346">
        <ele>287</ele>
        <time>2018-06-25T09:01:21.369Z</time>
      </trkpt>
      <trkpt lat="48.93912" lon="5.40559">
        <ele>273</ele>
        <time>2018-06-25T09:01:22.369Z</time>
      </trkpt>
      <trkpt lat="48.93963" lon="5.40712">
        <ele>270</ele>
        <time>2018-06-25T09:01:23.369Z</time>
      </trkpt>
      <trkpt lat="48.93967" lon="5.40773">
        <ele>269</ele>
        <time>2018-06-25T09:01:24.369Z</time>
      </trkpt>
      <trkpt lat="48.93939" lon="5.40912">
        <ele>268</ele>
        <time>2018-06-25T09:01:25.369Z</time>
      </trkpt>
      <trkpt lat="48.93944" lon="5.40966">
        <ele>267</ele>
        <time>2018-06-25T09:01:26.369Z</time>
      </trkpt>
      <trkpt lat="48.93856" lon="5.40887">
        <ele>273</ele>
        <time>2018-06-25T09:01:27.369Z</time>
      </trkpt>
      <trkpt lat="48.93836" lon="5.40883">
        <ele>274</ele>
        <time>2018-06-25T09:01:28.369Z</time>
      </trkpt>
      <trkpt lat="48.93799" lon="5.40801">
        <ele>280</ele>
        <time>2018-06-25T09:01:29.369Z</time>
      </trkpt>
      <trkpt lat="48.93535" lon="5.40694">
        <ele>301</ele>
        <time>2018-06-25T09:01:30.369Z</time>
      </trkpt>
      <trkpt lat="48.93245" lon="5.40408">
        <ele>320</ele>
        <time>2018-06-25T09:01:31.369Z</time>
      </trkpt>
      <trkpt lat="48.93185" lon="5.40365">
        <ele>323</ele>
        <time>2018-06-25T09:01:32.369Z</time>
      </trkpt>
      <trkpt lat="48.92978" lon="5.40274">
        <ele>327</ele>
        <time>2018-06-25T09:01:33.369Z</time>
      </trkpt>
      <trkpt lat="48.92793" lon="5.40128">
        <ele>331</ele>
        <time>2018-06-25T09:01:34.369Z</time>
      </trkpt>
      <trkpt lat="48.9257" lon="5.39922">
        <ele>342</ele>
        <time>2018-06-25T09:01:35.369Z</time>
      </trkpt>
      <trkpt lat="48.92523" lon="5.39908">
        <ele>343</ele>
        <time>2018-06-25T09:01:36.369Z</time>
      </trkpt>
      <trkpt lat="48.92343" lon="5.39329">
        <ele>339</ele>
        <time>2018-06-25T09:01:37.369Z</time>
      </trkpt>
      <trkpt lat="48.9234" lon="5.39259">
        <ele>341</ele>
        <time>2018-06-25T09:01:38.369Z</time>
      </trkpt>
      <trkpt lat="48.9236" lon="5.39089">
        <ele>339</ele>
        <time>2018-06-25T09:01:39.369Z</time>
      </trkpt>
      <trkpt lat="48.92289" lon="5.39079">
        <ele>342</ele>
        <time>2018-06-25T09:01:40.369Z</time>
      </trkpt>
      <trkpt lat="48.92283" lon="5.38997">
        <ele>341</ele>
        <time>2018-06-25T09:01:41.369Z</time>
      </trkpt>
      <trkpt lat="48.92292" lon="5.38837">
        <ele>335</ele>
        <time>2018-06-25T09:01:42.369Z</time>
      </trkpt>
      <trkpt lat="48.9225" lon="5.38755">
        <ele>333</ele>
        <time>2018-06-25T09:01:43.369Z</time>
      </trkpt>
      <trkpt lat="48.92176" lon="5.38714">
        <ele>336</ele>
        <time>2018-06-25T09:01:44.369Z</time>
      </trkpt>
      <trkpt lat="48.92113" lon="5.38653">
        <ele>334</ele>
        <time>2018-06-25T09:01:45.369Z</time>
      </trkpt>
      <trkpt lat="48.92283" lon="5.38289">
        <ele>323</ele>
        <time>2018-06-25T09:01:46.369Z</time>
      </trkpt>
      <trkpt lat="48.91998" lon="5.37685">
        <ele>318</ele>
        <time>2018-06-25T09:01:47.369Z</time>
      </trkpt>
      <trkpt lat="48.91934" lon="5.37512">
        <ele>314</ele>
        <time>2018-06-25T09:01:48.369Z</time>
      </trkpt>
      <trkpt lat="48.91786" lon="5.3723">
        <ele>303</ele>
        <time>2018-06-25T09:01:49.369Z</time>
      </trkpt>
      <trkpt lat="48.91749" lon="5.37116">
        <ele>300</ele>
        <time>2018-06-25T09:01:50.369Z</time>
      </trkpt>
      <trkpt lat="48.91613" lon="5.36978">
        <ele>290</ele>
        <time>2018-06-25T09:01:51.369Z</time>
      </trkpt>
      <trkpt lat="48.91462" lon="5.36306">
        <ele>282</ele>
        <time>2018-06-25T09:01:52.369Z</time>
      </trkpt>
      <trkpt lat="48.91191" lon="5.35381">
        <ele>269</ele>
        <time>2018-06-25T09:01:53.369Z</time>
      </trkpt>
      <trkpt lat="48.91153" lon="5.35053">
        <ele>265</ele>
        <time>2018-06-25T09:01:54.369Z</time>
      </trkpt>
      <trkpt lat="48.91052" lon="5.34853">
        <ele>266</ele>
        <time>2018-06-25T09:01:55.369Z</time>
      </trkpt>
      <trkpt lat="48.90997" lon="5.34604">
        <ele>271</ele>
        <time>2018-06-25T09:01:56.369Z</time>
      </trkpt>
      <trkpt lat="48.90904" lon="5.34401">
        <ele>269</ele>
        <time>2018-06-25T09:01:57.369Z</time>
      </trkpt>
      <trkpt lat="48.90735" lon="5.34191">
        <ele>265</ele>
        <time>2018-06-25T09:01:58.369Z</time>
      </trkpt>
      <trkpt lat="48.90702" lon="5.34111">
        <ele>264</ele>
        <time>2018-06-25T09:01:59.369Z</time>
      </trkpt>
      <trkpt lat="48.90559" lon="5.33962">
        <ele>268</ele>
        <time>2018-06-25T09:02:00.369Z</time>
      </trkpt>
      <trkpt lat="48.90359" lon="5.33674">
        <ele>271</ele>
        <time>2018-06-25T09:02:01.369Z</time>
      </trkpt>
      <trkpt lat="48.90299" lon="5.33622">
        <ele>273</ele>
        <time>2018-06-25T09:02:02.369Z</time>
      </trkpt>
      <trkpt lat="48.90211" lon="5.33575">
        <ele>274</ele>
        <time>2018-06-25T09:02:03.369Z</time>
      </trkpt>
      <trkpt lat="48.90058" lon="5.33381">
        <ele>270</ele>
        <time>2018-06-25T09:02:04.369Z</time>
      </trkpt>
      <trkpt lat="48.90011" lon="5.33288">
        <ele>267</ele>
        <time>2018-06-25T09:02:05.369Z</time>
      </trkpt>
      <trkpt lat="48.8997" lon="5.32981">
        <ele>256</ele>
        <time>2018-06-25T09:02:06.369Z</time>
      </trkpt>
      <trkpt lat="48.89952" lon="5.3295">
        <ele>255</ele>
        <time>2018-06-25T09:02:07.369Z</time>
      </trkpt>
      <trkpt lat="48.89933" lon="5.32948">
        <ele>255</ele>
        <time>2018-06-25T09:02:08.369Z</time>
      </trkpt>
      <trkpt lat="48.89931" lon="5.32905">
        <ele>253</ele>
        <time>2018-06-25T09:02:09.369Z</time>
      </trkpt>
      <trkpt lat="48.89946" lon="5.32889">
        <ele>252</ele>
        <time>2018-06-25T09:02:10.369Z</time>
      </trkpt>
      <trkpt lat="48.89934" lon="5.32833">
        <ele>250</ele>
        <time>2018-06-25T09:02:11.369Z</time>
      </trkpt>
      <trkpt lat="48.89905" lon="5.32811">
        <ele>250</ele>
        <time>2018-06-25T09:02:12.369Z</time>
      </trkpt>
      <trkpt lat="48.89828" lon="5.32603">
        <ele>249</ele>
        <time>2018-06-25T09:02:13.369Z</time>
      </trkpt>
      <trkpt lat="48.89774" lon="5.32554">
        <ele>249</ele>
        <time>2018-06-25T09:02:14.369Z</time>
      </trkpt>
      <trkpt lat="48.8969" lon="5.32346">
        <ele>253</ele>
        <time>2018-06-25T09:02:15.369Z</time>
      </trkpt>
      <trkpt lat="48.89542" lon="5.31892">
        <ele>261</ele>
        <time>2018-06-25T09:02:16.369Z</time>
      </trkpt>
      <trkpt lat="48.89391" lon="5.31804">
        <ele>262</ele>
        <time>2018-06-25T09:02:17.369Z</time>
      </trkpt>
      <trkpt lat="48.89315" lon="5.31739">
        <ele>263</ele>
        <time>2018-06-25T09:02:18.369Z</time>
      </trkpt>
      <trkpt lat="48.89253" lon="5.31652">
        <ele>266</ele>
        <time>2018-06-25T09:02:19.369Z</time>
      </trkpt>
      <trkpt lat="48.89214" lon="5.31494">
        <ele>272</ele>
        <time>2018-06-25T09:02:20.369Z</time>
      </trkpt>
      <trkpt lat="48.8909" lon="5.3126">
        <ele>280</ele>
        <time>2018-06-25T09:02:21.369Z</time>
      </trkpt>
      <trkpt lat="48.88965" lon="5.31156">
        <ele>292</ele>
        <time>2018-06-25T09:02:22.369Z</time>
      </trkpt>
      <trkpt lat="48.88972" lon="5.31089">
        <ele>298</ele>
        <time>2018-06-25T09:02:23.369Z</time>
      </trkpt>
      <trkpt lat="48.88904" lon="5.30701">
        <ele>332</ele>
        <time>2018-06-25T09:02:24.369Z</time>
      </trkpt>
      <trkpt lat="48.88781" lon="5.30351">
        <ele>351</ele>
        <time>2018-06-25T09:02:25.369Z</time>
      </trkpt>
      <trkpt lat="48.88726" lon="5.3011">
        <ele>346</ele>
        <time>2018-06-25T09:02:26.369Z</time>
      </trkpt>
      <trkpt lat="48.88678" lon="5.29712">
        <ele>337</ele>
        <time>2018-06-25T09:02:27.369Z</time>
      </trkpt>
      <trkpt lat="48.88688" lon="5.29276">
        <ele>333</ele>
        <time>2018-06-25T09:02:28.369Z</time>
      </trkpt>
      <trkpt lat="48.88662" lon="5.29258">
        <ele>333</ele>
        <time>2018-06-25T09:02:29.369Z</time>
      </trkpt>
      <trkpt lat="48.88587" lon="5.28971">
        <ele>333</ele>
        <time>2018-06-25T09:02:30.369Z</time>
      </trkpt>
      <trkpt lat="48.88564" lon="5.28922">
        <ele>334</ele>
        <time>2018-06-25T09:02:31.369Z</time>
      </trkpt>
      <trkpt lat="48.88279" lon="5.28515">
        <ele>328</ele>
        <time>2018-06-25T09:02:32.369Z</time>
      </trkpt>
      <trkpt lat="48.87778" lon="5.2692">
        <ele>305</ele>
        <time>2018-06-25T09:02:33.369Z</time>
      </trkpt>
      <trkpt lat="48.87765" lon="5.26908">
        <ele>304</ele>
        <time>2018-06-25T09:02:34.369Z</time>
      </trkpt>
      <trkpt lat="48.87519" lon="5.26893">
        <ele>286</ele>
        <time>2018-06-25T09:02:35.369Z</time>
      </trkpt>
      <trkpt lat="48.87343" lon="5.26976">
        <ele>278</ele>
        <time>2018-06-25T09:02:36.369Z</time>
      </trkpt>
      <trkpt lat="48.87297" lon="5.26969">
        <ele>276</ele>
        <time>2018-06-25T09:02:37.369Z</time>
      </trkpt>
      <trkpt lat="48.87272" lon="5.26961">
        <ele>275</ele>
        <time>2018-06-25T09:02:38.369Z</time>
      </trkpt>
      <trkpt lat="48.87235" lon="5.27096">
        <ele>281</ele>
        <time>2018-06-25T09:02:39.369Z</time>
      </trkpt>
      <trkpt lat="48.87168" lon="5.27086">
        <ele>278</ele>
        <time>2018-06-25T09:02:40.369Z</time>
      </trkpt>
      <trkpt lat="48.87049" lon="5.27165">
        <ele>278</ele>
        <time>2018-06-25T09:02:41.369Z</time>
      </trkpt>
      <trkpt lat="48.86981" lon="5.27166">
        <ele>278</ele>
        <time>2018-06-25T09:02:42.369Z</time>
      </trkpt>
      <trkpt lat="48.86906" lon="5.27214">
        <ele>277</ele>
        <time>2018-06-25T09:02:43.369Z</time>
      </trkpt>
      <trkpt lat="48.86869" lon="5.27212">
        <ele>277</ele>
        <time>2018-06-25T09:02:44.369Z</time>
      </trkpt>
      <trkpt lat="48.86823" lon="5.2716">
        <ele>275</ele>
        <time>2018-06-25T09:02:45.369Z</time>
      </trkpt>
      <trkpt lat="48.86821" lon="5.27126">
        <ele>276</ele>
        <time>2018-06-25T09:02:46.369Z</time>
      </trkpt>
      <trkpt lat="48.86877" lon="5.27045">
        <ele>278</ele>
        <time>2018-06-25T09:02:47.369Z</time>
      </trkpt>
      <trkpt lat="48.86795" lon="5.27009">
        <ele>280</ele>
        <time>2018-06-25T09:02:48.369Z</time>
      </trkpt>
      <trkpt lat="48.86724" lon="5.26869">
        <ele>288</ele>
        <time>2018-06-25T09:02:49.369Z</time>
      </trkpt>
      <trkpt lat="48.86657" lon="5.26546">
        <ele>301</ele>
        <time>2018-06-25T09:02:50.369Z</time>
      </trkpt>
      <trkpt lat="48.86613" lon="5.26396">
        <ele>304</ele>
        <time>2018-06-25T09:02:51.369Z</time>
      </trkpt>
      <trkpt lat="48.86245" lon="5.25755">
        <ele>317</ele>
        <time>2018-06-25T09:02:52.369Z</time>
      </trkpt>
      <trkpt lat="48.86121" lon="5.25446">
        <ele>317</ele>
        <time>2018-06-25T09:02:53.369Z</time>
      </trkpt>
      <trkpt lat="48.85886" lon="5.25071">
        <ele>309</ele>
        <time>2018-06-25T09:02:54.369Z</time>
      </trkpt>
      <trkpt lat="48.85819" lon="5.24935">
        <ele>305</ele>
        <time>2018-06-25T09:02:55.369Z</time>
      </trkpt>
      <trkpt lat="48.8567" lon="5.24698">
        <ele>297</ele>
        <time>2018-06-25T09:02:56.369Z</time>
      </trkpt>
      <trkpt lat="48.85452" lon="5.24265">
        <ele>285</ele>
        <time>2018-06-25T09:02:57.369Z</time>
      </trkpt>
      <trkpt lat="48.85395" lon="5.24186">
        <ele>279</ele>
        <time>2018-06-25T09:02:58.369Z</time>
      </trkpt>
      <trkpt lat="48.85276" lon="5.23942">
        <ele>271</ele>
        <time>2018-06-25T09:02:59.369Z</time>
      </trkpt>
      <trkpt lat="48.85218" lon="5.23714">
        <ele>269</ele>
        <time>2018-06-25T09:03:00.369Z</time>
      </trkpt>
      <trkpt lat="48.85222" lon="5.23683">
        <ele>269</ele>
        <time>2018-06-25T09:03:01.369Z</time>
      </trkpt>
      <trkpt lat="48.85248" lon="5.2365">
        <ele>271</ele>
        <time>2018-06-25T09:03:02.369Z</time>
      </trkpt>
      <trkpt lat="48.85252" lon="5.23638">
        <ele>272</ele>
        <time>2018-06-25T09:03:03.369Z</time>
      </trkpt>
      <trkpt lat="48.85194" lon="5.2349">
        <ele>270</ele>
        <time>2018-06-25T09:03:04.369Z</time>
      </trkpt>
      <trkpt lat="48.85152" lon="5.23252">
        <ele>274</ele>
        <time>2018-06-25T09:03:05.369Z</time>
      </trkpt>
      <trkpt lat="48.85054" lon="5.2296">
        <ele>268</ele>
        <time>2018-06-25T09:03:06.369Z</time>
      </trkpt>
      <trkpt lat="48.84971" lon="5.22821">
        <ele>262</ele>
        <time>2018-06-25T09:03:07.369Z</time>
      </trkpt>
      <trkpt lat="48.84927" lon="5.22707">
        <ele>260</ele>
        <time>2018-06-25T09:03:08.369Z</time>
      </trkpt>
      <trkpt lat="48.84873" lon="5.22608">
        <ele>259</ele>
        <time>2018-06-25T09:03:09.369Z</time>
      </trkpt>
      <trkpt lat="48.84762" lon="5.22338">
        <ele>254</ele>
        <time>2018-06-25T09:03:10.369Z</time>
      </trkpt>
      <trkpt lat="48.84663" lon="5.21912">
        <ele>250</ele>
        <time>2018-06-25T09:03:11.369Z</time>
      </trkpt>
      <trkpt lat="48.84637" lon="5.21502">
        <ele>246</ele>
        <time>2018-06-25T09:03:12.369Z</time>
      </trkpt>
      <trkpt lat="48.84646" lon="5.21156">
        <ele>252</ele>
        <time>2018-06-25T09:03:13.369Z</time>
      </trkpt>
      <trkpt lat="48.84511" lon="5.20581">
        <ele>245</ele>
        <time>2018-06-25T09:03:14.369Z</time>
      </trkpt>
      <trkpt lat="48.84511" lon="5.20188">
        <ele>241</ele>
        <time>2018-06-25T09:03:15.369Z</time>
      </trkpt>
      <trkpt lat="48.84564" lon="5.19686">
        <ele>241</ele>
        <time>2018-06-25T09:03:16.369Z</time>
      </trkpt>
      <trkpt lat="48.84659" lon="5.19257">
        <ele>231</ele>
        <time>2018-06-25T09:03:17.369Z</time>
      </trkpt>
      <trkpt lat="48.84656" lon="5.19165">
        <ele>229</ele>
        <time>2018-06-25T09:03:18.369Z</time>
      </trkpt>
      <trkpt lat="48.84589" lon="5.18798">
        <ele>226</ele>
        <time>2018-06-25T09:03:19.369Z</time>
      </trkpt>
      <trkpt lat="48.84601" lon="5.18671">
        <ele>228</ele>
        <time>2018-06-25T09:03:20.369Z</time>
      </trkpt>
      <trkpt lat="48.84588" lon="5.18543">
        <ele>226</ele>
        <time>2018-06-25T09:03:21.369Z</time>
      </trkpt>
      <trkpt lat="48.84591" lon="5.18302">
        <ele>225</ele>
        <time>2018-06-25T09:03:22.369Z</time>
      </trkpt>
      <trkpt lat="48.84541" lon="5.18244">
        <ele>225</ele>
        <time>2018-06-25T09:03:23.369Z</time>
      </trkpt>
      <trkpt lat="48.84549" lon="5.18173">
        <ele>226</ele>
        <time>2018-06-25T09:03:24.369Z</time>
      </trkpt>
      <trkpt lat="48.8454" lon="5.18131">
        <ele>227</ele>
        <time>2018-06-25T09:03:25.369Z</time>
      </trkpt>
      <trkpt lat="48.84549" lon="5.1808">
        <ele>228</ele>
        <time>2018-06-25T09:03:26.369Z</time>
      </trkpt>
      <trkpt lat="48.84311" lon="5.17676">
        <ele>247</ele>
        <time>2018-06-25T09:03:27.369Z</time>
      </trkpt>
      <trkpt lat="48.84216" lon="5.17544">
        <ele>248</ele>
        <time>2018-06-25T09:03:28.369Z</time>
      </trkpt>
      <trkpt lat="48.84184" lon="5.17446">
        <ele>250</ele>
        <time>2018-06-25T09:03:29.369Z</time>
      </trkpt>
      <trkpt lat="48.84172" lon="5.1732">
        <ele>255</ele>
        <time>2018-06-25T09:03:30.369Z</time>
      </trkpt>
      <trkpt lat="48.84125" lon="5.17063">
        <ele>260</ele>
        <time>2018-06-25T09:03:31.369Z</time>
      </trkpt>
      <trkpt lat="48.84049" lon="5.1677">
        <ele>256</ele>
        <time>2018-06-25T09:03:32.369Z</time>
      </trkpt>
      <trkpt lat="48.83929" lon="5.16485">
        <ele>255</ele>
        <time>2018-06-25T09:03:33.369Z</time>
      </trkpt>
      <trkpt lat="48.83864" lon="5.16369">
        <ele>259</ele>
        <time>2018-06-25T09:03:34.369Z</time>
      </trkpt>
      <trkpt lat="48.83835" lon="5.1626">
        <ele>260</ele>
        <time>2018-06-25T09:03:35.369Z</time>
      </trkpt>
      <trkpt lat="48.83787" lon="5.15967">
        <ele>255</ele>
        <time>2018-06-25T09:03:36.369Z</time>
      </trkpt>
      <trkpt lat="48.837" lon="5.15737">
        <ele>251</ele>
        <time>2018-06-25T09:03:37.369Z</time>
      </trkpt>
      <trkpt lat="48.83655" lon="5.15509">
        <ele>252</ele>
        <time>2018-06-25T09:03:38.369Z</time>
      </trkpt>
      <trkpt lat="48.83656" lon="5.15403">
        <ele>253</ele>
        <time>2018-06-25T09:03:39.369Z</time>
      </trkpt>
      <trkpt lat="48.83647" lon="5.15358">
        <ele>252</ele>
        <time>2018-06-25T09:03:40.369Z</time>
      </trkpt>
      <trkpt lat="48.83251" lon="5.14682">
        <ele>248</ele>
        <time>2018-06-25T09:03:41.369Z</time>
      </trkpt>
      <trkpt lat="48.83197" lon="5.14526">
        <ele>246</ele>
        <time>2018-06-25T09:03:42.369Z</time>
      </trkpt>
      <trkpt lat="48.83174" lon="5.14387">
        <ele>244</ele>
        <time>2018-06-25T09:03:43.369Z</time>
      </trkpt>
      <trkpt lat="48.83066" lon="5.14015">
        <ele>238</ele>
        <time>2018-06-25T09:03:44.369Z</time>
      </trkpt>
      <trkpt lat="48.83046" lon="5.13832">
        <ele>239</ele>
        <time>2018-06-25T09:03:45.369Z</time>
      </trkpt>
      <trkpt lat="48.83027" lon="5.13784">
        <ele>238</ele>
        <time>2018-06-25T09:03:46.369Z</time>
      </trkpt>
      <trkpt lat="48.82933" lon="5.13645">
        <ele>235</ele>
        <time>2018-06-25T09:03:47.369Z</time>
      </trkpt>
      <trkpt lat="48.82867" lon="5.13464">
        <ele>232</ele>
        <time>2018-06-25T09:03:48.369Z</time>
      </trkpt>
      <trkpt lat="48.82797" lon="5.13351">
        <ele>231</ele>
        <time>2018-06-25T09:03:49.369Z</time>
      </trkpt>
      <trkpt lat="48.82741" lon="5.1323">
        <ele>231</ele>
        <time>2018-06-25T09:03:50.369Z</time>
      </trkpt>
      <trkpt lat="48.82687" lon="5.13214">
        <ele>231</ele>
        <time>2018-06-25T09:03:51.369Z</time>
      </trkpt>
      <trkpt lat="48.82647" lon="5.13171">
        <ele>230</ele>
        <time>2018-06-25T09:03:52.369Z</time>
      </trkpt>
      <trkpt lat="48.82475" lon="5.13059">
        <ele>220</ele>
        <time>2018-06-25T09:03:53.369Z</time>
      </trkpt>
      <trkpt lat="48.8243" lon="5.1289">
        <ele>217</ele>
        <time>2018-06-25T09:03:54.369Z</time>
      </trkpt>
      <trkpt lat="48.8238" lon="5.12805">
        <ele>217</ele>
        <time>2018-06-25T09:03:55.369Z</time>
      </trkpt>
      <trkpt lat="48.82377" lon="5.12686">
        <ele>217</ele>
        <time>2018-06-25T09:03:56.369Z</time>
      </trkpt>
      <trkpt lat="48.82354" lon="5.12534">
        <ele>216</ele>
        <time>2018-06-25T09:03:57.369Z</time>
      </trkpt>
      <trkpt lat="48.82349" lon="5.12364">
        <ele>216</ele>
        <time>2018-06-25T09:03:58.369Z</time>
      </trkpt>
      <trkpt lat="48.82367" lon="5.12313">
        <ele>217</ele>
        <time>2018-06-25T09:03:59.369Z</time>
      </trkpt>
      <trkpt lat="48.82312" lon="5.12275">
        <ele>214</ele>
        <time>2018-06-25T09:04:00.369Z</time>
      </trkpt>
      <trkpt lat="48.82237" lon="5.12279">
        <ele>213</ele>
        <time>2018-06-25T09:04:01.369Z</time>
      </trkpt>
      <trkpt lat="48.82201" lon="5.12248">
        <ele>213</ele>
        <time>2018-06-25T09:04:02.369Z</time>
      </trkpt>
      <trkpt lat="48.82148" lon="5.12105">
        <ele>210</ele>
        <time>2018-06-25T09:04:03.369Z</time>
      </trkpt>
      <trkpt lat="48.82092" lon="5.11854">
        <ele>206</ele>
        <time>2018-06-25T09:04:04.369Z</time>
      </trkpt>
      <trkpt lat="48.81908" lon="5.11326">
        <ele>206</ele>
        <time>2018-06-25T09:04:05.369Z</time>
      </trkpt>
      <trkpt lat="48.81834" lon="5.11152">
        <ele>207</ele>
        <time>2018-06-25T09:04:06.369Z</time>
      </trkpt>
      <trkpt lat="48.81744" lon="5.10855">
        <ele>206</ele>
        <time>2018-06-25T09:04:07.369Z</time>
      </trkpt>
      <trkpt lat="48.81573" lon="5.10537">
        <ele>201</ele>
        <time>2018-06-25T09:04:08.369Z</time>
      </trkpt>
      <trkpt lat="48.81428" lon="5.10384">
        <ele>196</ele>
        <time>2018-06-25T09:04:09.369Z</time>
      </trkpt>
      <trkpt lat="48.81426" lon="5.10239">
        <ele>194</ele>
        <time>2018-06-25T09:04:10.369Z</time>
      </trkpt>
      <trkpt lat="48.81329" lon="5.0992">
        <ele>196</ele>
        <time>2018-06-25T09:04:11.369Z</time>
      </trkpt>
      <trkpt lat="48.81344" lon="5.09782">
        <ele>194</ele>
        <time>2018-06-25T09:04:12.369Z</time>
      </trkpt>
      <trkpt lat="48.81368" lon="5.09688">
        <ele>193</ele>
        <time>2018-06-25T09:04:13.369Z</time>
      </trkpt>
      <trkpt lat="48.81383" lon="5.09466">
        <ele>191</ele>
        <time>2018-06-25T09:04:14.369Z</time>
      </trkpt>
      <trkpt lat="48.81407" lon="5.09308">
        <ele>195</ele>
        <time>2018-06-25T09:04:15.369Z</time>
      </trkpt>
      <trkpt lat="48.8141" lon="5.09096">
        <ele>193</ele>
        <time>2018-06-25T09:04:16.369Z</time>
      </trkpt>
      <trkpt lat="48.8137" lon="5.08865">
        <ele>189</ele>
        <time>2018-06-25T09:04:17.369Z</time>
      </trkpt>
      <trkpt lat="48.81395" lon="5.08384">
        <ele>190</ele>
        <time>2018-06-25T09:04:18.369Z</time>
      </trkpt>
      <trkpt lat="48.81384" lon="5.08223">
        <ele>185</ele>
        <time>2018-06-25T09:04:19.369Z</time>
      </trkpt>
      <trkpt lat="48.8139" lon="5.08067">
        <ele>182</ele>
        <time>2018-06-25T09:04:20.369Z</time>
      </trkpt>
      <trkpt lat="48.81437" lon="5.07727">
        <ele>181</ele>
        <time>2018-06-25T09:04:21.369Z</time>
      </trkpt>
      <trkpt lat="48.81438" lon="5.07655">
        <ele>181</ele>
        <time>2018-06-25T09:04:22.369Z</time>
      </trkpt>
      <trkpt lat="48.81415" lon="5.07481">
        <ele>179</ele>
        <time>2018-06-25T09:04:23.369Z</time>
      </trkpt>
      <trkpt lat="48.81492" lon="5.07102">
        <ele>173</ele>
        <time>2018-06-25T09:04:24.369Z</time>
      </trkpt>
      <trkpt lat="48.81762" lon="5.06518">
        <ele>162</ele>
        <time>2018-06-25T09:04:25.369Z</time>
      </trkpt>
      <trkpt lat="48.81786" lon="5.06434">
        <ele>163</ele>
        <time>2018-06-25T09:04:26.369Z</time>
      </trkpt>
      <trkpt lat="48.81887" lon="5.05846">
        <ele>161</ele>
        <time>2018-06-25T09:04:27.369Z</time>
      </trkpt>
      <trkpt lat="48.82031" lon="5.05603">
        <ele>158</ele>
        <time>2018-06-25T09:04:28.369Z</time>
      </trkpt>
      <trkpt lat="48.8212" lon="5.05482">
        <ele>156</ele>
        <time>2018-06-25T09:04:29.369Z</time>
      </trkpt>
      <trkpt lat="48.82191" lon="5.05354">
        <ele>157</ele>
        <time>2018-06-25T09:04:30.369Z</time>
      </trkpt>
      <trkpt lat="48.82223" lon="5.05246">
        <ele>157</ele>
        <time>2018-06-25T09:04:31.369Z</time>
      </trkpt>
      <trkpt lat="48.82283" lon="5.05143">
        <ele>157</ele>
        <time>2018-06-25T09:04:32.369Z</time>
      </trkpt>
      <trkpt lat="48.82187" lon="5.04953">
        <ele>156</ele>
        <time>2018-06-25T09:04:33.369Z</time>
      </trkpt>
      <trkpt lat="48.82165" lon="5.04851">
        <ele>157</ele>
        <time>2018-06-25T09:04:34.369Z</time>
      </trkpt>
      <trkpt lat="48.82179" lon="5.0477">
        <ele>157</ele>
        <time>2018-06-25T09:04:35.369Z</time>
      </trkpt>
      <trkpt lat="48.82175" lon="5.04771">
        <ele>157</ele>
        <time>2018-06-25T09:04:36.369Z</time>
      </trkpt>
      <trkpt lat="48.8214" lon="5.046">
        <ele>156</ele>
        <time>2018-06-25T09:04:37.369Z</time>
      </trkpt>
      <trkpt lat="48.82125" lon="5.045">
        <ele>155</ele>
        <time>2018-06-25T09:04:38.369Z</time>
      </trkpt>
      <trkpt lat="48.82117" lon="5.04409">
        <ele>154</ele>
        <time>2018-06-25T09:04:39.369Z</time>
      </trkpt>
      <trkpt lat="48.82102" lon="5.04362">
        <ele>154</ele>
        <time>2018-06-25T09:04:40.369Z</time>
      </trkpt>
      <trkpt lat="48.82066" lon="5.04285">
        <ele>154</ele>
        <time>2018-06-25T09:04:41.369Z</time>
      </trkpt>
      <trkpt lat="48.82084" lon="5.04268">
        <ele>153</ele>
        <time>2018-06-25T09:04:42.369Z</time>
      </trkpt>
      <trkpt lat="48.82084" lon="5.04269">
        <ele>153</ele>
        <time>2018-06-25T09:04:43.369Z</time>
      </trkpt>
      <trkpt lat="48.82105" lon="5.04249">
        <ele>154</ele>
        <time>2018-06-25T09:04:44.369Z</time>
      </trkpt>
      <trkpt lat="48.82131" lon="5.04242">
        <ele>154</ele>
        <time>2018-06-25T09:04:45.369Z</time>
      </trkpt>
      <trkpt lat="48.82141" lon="5.04242">
        <ele>154</ele>
        <time>2018-06-25T09:04:46.369Z</time>
      </trkpt>
      <trkpt lat="48.82152" lon="5.04247">
        <ele>155</ele>
        <time>2018-06-25T09:04:47.369Z</time>
      </trkpt>
      <trkpt lat="48.82169" lon="5.04258">
        <ele>155</ele>
        <time>2018-06-25T09:04:48.369Z</time>
      </trkpt>
      <trkpt lat="48.82181" lon="5.04271">
        <ele>155</ele>
        <time>2018-06-25T09:04:49.369Z</time>
      </trkpt>
      <trkpt lat="48.82226" lon="5.04336">
        <ele>154</ele>
        <time>2018-06-25T09:04:50.369Z</time>
      </trkpt>
      <trkpt lat="48.82225" lon="5.04336">
        <ele>154</ele>
        <time>2018-06-25T09:04:51.369Z</time>
      </trkpt>
      <trkpt lat="48.82279" lon="5.04417">
        <ele>155</ele>
        <time>2018-06-25T09:04:52.369Z</time>
      </trkpt>
      <trkpt lat="48.82288" lon="5.04438">
        <ele>155</ele>
        <time>2018-06-25T09:04:53.369Z</time>
      </trkpt>
      <trkpt lat="48.82301" lon="5.0443">
        <ele>155</ele>
        <time>2018-06-25T09:04:54.369Z</time>
      </trkpt>
      <trkpt lat="48.82311" lon="5.04421">
        <ele>155</ele>
        <time>2018-06-25T09:04:55.369Z</time>
      </trkpt>
      <trkpt lat="48.82348" lon="5.04374">
        <ele>155</ele>
        <time>2018-06-25T09:04:56.369Z</time>
      </trkpt>
      <trkpt lat="48.82357" lon="5.04378">
        <ele>155</ele>
        <time>2018-06-25T09:04:57.369Z</time>
      </trkpt>
      <trkpt lat="48.82393" lon="5.04426">
        <ele>154</ele>
        <time>2018-06-25T09:04:58.369Z</time>
      </trkpt>
      <trkpt lat="48.82402" lon="5.04441">
        <ele>155</ele>
        <time>2018-06-25T09:04:59.369Z</time>
      </trkpt>
      <trkpt lat="48.82588" lon="5.04204">
        <ele>152</ele>
        <time>2018-06-25T09:05:00.369Z</time>
      </trkpt>
      <trkpt lat="48.82589" lon="5.04205">
        <ele>152</ele>
        <time>2018-06-25T09:05:01.369Z</time>
      </trkpt>
      <trkpt lat="48.82607" lon="5.04184">
        <ele>152</ele>
        <time>2018-06-25T09:05:02.369Z</time>
      </trkpt>
      <trkpt lat="48.82625" lon="5.04171">
        <ele>152</ele>
        <time>2018-06-25T09:05:03.369Z</time>
      </trkpt>
      <trkpt lat="48.82645" lon="5.04166">
        <ele>152</ele>
        <time>2018-06-25T09:05:04.369Z</time>
      </trkpt>
      <trkpt lat="48.82685" lon="5.04173">
        <ele>152</ele>
        <time>2018-06-25T09:05:05.369Z</time>
      </trkpt>
      <trkpt lat="48.82743" lon="5.04187">
        <ele>152</ele>
        <time>2018-06-25T09:05:06.369Z</time>
      </trkpt>
      <trkpt lat="48.82767" lon="5.04197">
        <ele>152</ele>
        <time>2018-06-25T09:05:07.369Z</time>
      </trkpt>
      <trkpt lat="48.82807" lon="5.04225">
        <ele>152</ele>
        <time>2018-06-25T09:05:08.369Z</time>
      </trkpt>
      <trkpt lat="48.82902" lon="5.04304">
        <ele>152</ele>
        <time>2018-06-25T09:05:09.369Z</time>
      </trkpt>
      <trkpt lat="48.82998" lon="5.0439">
        <ele>154</ele>
        <time>2018-06-25T09:05:10.369Z</time>
      </trkpt>
      <trkpt lat="48.83089" lon="5.04475">
        <ele>158</ele>
        <time>2018-06-25T09:05:11.369Z</time>
      </trkpt>
      <trkpt lat="48.83108" lon="5.04489">
        <ele>159</ele>
        <time>2018-06-25T09:05:12.369Z</time>
      </trkpt>
      <trkpt lat="48.83121" lon="5.04494">
        <ele>160</ele>
        <time>2018-06-25T09:05:13.369Z</time>
      </trkpt>
      <trkpt lat="48.8314" lon="5.04493">
        <ele>161</ele>
        <time>2018-06-25T09:05:14.369Z</time>
      </trkpt>
      <trkpt lat="48.83159" lon="5.04486">
        <ele>162</ele>
        <time>2018-06-25T09:05:15.369Z</time>
      </trkpt>
      <trkpt lat="48.83323" lon="5.04396">
        <ele>178</ele>
        <time>2018-06-25T09:05:16.369Z</time>
      </trkpt>
      <trkpt lat="48.83382" lon="5.04376">
        <ele>183</ele>
        <time>2018-06-25T09:05:17.369Z</time>
      </trkpt>
      <trkpt lat="48.83403" lon="5.04371">
        <ele>184</ele>
        <time>2018-06-25T09:05:18.369Z</time>
      </trkpt>
      <trkpt lat="48.83414" lon="5.04371">
        <ele>185</ele>
        <time>2018-06-25T09:05:19.369Z</time>
      </trkpt>
      <trkpt lat="48.83444" lon="5.04381">
        <ele>186</ele>
        <time>2018-06-25T09:05:20.369Z</time>
      </trkpt>
      <trkpt lat="48.83512" lon="5.04123">
        <ele>186</ele>
        <time>2018-06-25T09:05:21.369Z</time>
      </trkpt>
      <trkpt lat="48.83524" lon="5.04064">
        <ele>185</ele>
        <time>2018-06-25T09:05:22.369Z</time>
      </trkpt>
      <trkpt lat="48.83547" lon="5.0393">
        <ele>184</ele>
        <time>2018-06-25T09:05:23.369Z</time>
      </trkpt>
      <trkpt lat="48.83635" lon="5.03555">
        <ele>180</ele>
        <time>2018-06-25T09:05:24.369Z</time>
      </trkpt>
      <trkpt lat="48.83643" lon="5.03515">
        <ele>180</ele>
        <time>2018-06-25T09:05:25.369Z</time>
      </trkpt>
      <trkpt lat="48.83648" lon="5.03465">
        <ele>179</ele>
        <time>2018-06-25T09:05:26.369Z</time>
      </trkpt>
      <trkpt lat="48.83652" lon="5.03357">
        <ele>176</ele>
        <time>2018-06-25T09:05:27.369Z</time>
      </trkpt>
      <trkpt lat="48.83692" lon="5.01665">
        <ele>147</ele>
        <time>2018-06-25T09:05:28.369Z</time>
      </trkpt>
      <trkpt lat="48.83715" lon="5.00686">
        <ele>144</ele>
        <time>2018-06-25T09:05:29.369Z</time>
      </trkpt>
      <trkpt lat="48.83715" lon="5.00607">
        <ele>145</ele>
        <time>2018-06-25T09:05:30.369Z</time>
      </trkpt>
      <trkpt lat="48.83711" lon="5.00545">
        <ele>145</ele>
        <time>2018-06-25T09:05:31.369Z</time>
      </trkpt>
      <trkpt lat="48.837" lon="5.00473">
        <ele>145</ele>
        <time>2018-06-25T09:05:32.369Z</time>
      </trkpt>
      <trkpt lat="48.83676" lon="5.00365">
        <ele>144</ele>
        <time>2018-06-25T09:05:33.369Z</time>
      </trkpt>
      <trkpt lat="48.83443" lon="4.99343">
        <ele>143</ele>
        <time>2018-06-25T09:05:34.369Z</time>
      </trkpt>
      <trkpt lat="48.83425" lon="4.99283">
        <ele>142</ele>
        <time>2018-06-25T09:05:35.369Z</time>
      </trkpt>
      <trkpt lat="48.83406" lon="4.99245">
        <ele>142</ele>
        <time>2018-06-25T09:05:36.369Z</time>
      </trkpt>
      <trkpt lat="48.83389" lon="4.9922">
        <ele>142</ele>
        <time>2018-06-25T09:05:37.369Z</time>
      </trkpt>
      <trkpt lat="48.83369" lon="4.99198">
        <ele>143</ele>
        <time>2018-06-25T09:05:38.369Z</time>
      </trkpt>
      <trkpt lat="48.83336" lon="4.99179">
        <ele>144</ele>
        <time>2018-06-25T09:05:39.369Z</time>
      </trkpt>
      <trkpt lat="48.83126" lon="4.99115">
        <ele>145</ele>
        <time>2018-06-25T09:05:40.369Z</time>
      </trkpt>
      <trkpt lat="48.82873" lon="4.99034">
        <ele>147</ele>
        <time>2018-06-25T09:05:41.369Z</time>
      </trkpt>
      <trkpt lat="48.82866" lon="4.99025">
        <ele>146</ele>
        <time>2018-06-25T09:05:42.369Z</time>
      </trkpt>
      <trkpt lat="48.82863" lon="4.99013">
        <ele>146</ele>
        <time>2018-06-25T09:05:43.369Z</time>
      </trkpt>
      <trkpt lat="48.82859" lon="4.9895">
        <ele>146</ele>
        <time>2018-06-25T09:05:44.369Z</time>
      </trkpt>
      <trkpt lat="48.82838" lon="4.98809">
        <ele>145</ele>
        <time>2018-06-25T09:05:45.369Z</time>
      </trkpt>
      <trkpt lat="48.82835" lon="4.98774">
        <ele>145</ele>
        <time>2018-06-25T09:05:46.369Z</time>
      </trkpt>
      <trkpt lat="48.82834" lon="4.98758">
        <ele>145</ele>
        <time>2018-06-25T09:05:47.369Z</time>
      </trkpt>
      <trkpt lat="48.82846" lon="4.98718">
        <ele>145</ele>
        <time>2018-06-25T09:05:48.369Z</time>
      </trkpt>
      <trkpt lat="48.82851" lon="4.9871">
        <ele>145</ele>
        <time>2018-06-25T09:05:49.369Z</time>
      </trkpt>
      <trkpt lat="48.82851" lon="4.98706">
        <ele>145</ele>
        <time>2018-06-25T09:05:50.369Z</time>
      </trkpt>
      <trkpt lat="48.8285" lon="4.98697">
        <ele>145</ele>
        <time>2018-06-25T09:05:51.369Z</time>
      </trkpt>
      <trkpt lat="48.82845" lon="4.98692">
        <ele>145</ele>
        <time>2018-06-25T09:05:52.369Z</time>
      </trkpt>
      <trkpt lat="48.82839" lon="4.98692">
        <ele>145</ele>
        <time>2018-06-25T09:05:53.369Z</time>
      </trkpt>
      <trkpt lat="48.82822" lon="4.98676">
        <ele>145</ele>
        <time>2018-06-25T09:05:54.369Z</time>
      </trkpt>
      <trkpt lat="48.82812" lon="4.98653">
        <ele>145</ele>
        <time>2018-06-25T09:05:55.369Z</time>
      </trkpt>
      <trkpt lat="48.82791" lon="4.98588">
        <ele>144</ele>
        <time>2018-06-25T09:05:56.369Z</time>
      </trkpt>
      <trkpt lat="48.82779" lon="4.98555">
        <ele>144</ele>
        <time>2018-06-25T09:05:57.369Z</time>
      </trkpt>
      <trkpt lat="48.82748" lon="4.98502">
        <ele>144</ele>
        <time>2018-06-25T09:05:58.369Z</time>
      </trkpt>
      <trkpt lat="48.82736" lon="4.9849">
        <ele>144</ele>
        <time>2018-06-25T09:05:59.369Z</time>
      </trkpt>
      <trkpt lat="48.8272" lon="4.9848">
        <ele>144</ele>
        <time>2018-06-25T09:06:00.369Z</time>
      </trkpt>
      <trkpt lat="48.82675" lon="4.9847">
        <ele>144</ele>
        <time>2018-06-25T09:06:01.369Z</time>
      </trkpt>
      <trkpt lat="48.82644" lon="4.98476">
        <ele>144</ele>
        <time>2018-06-25T09:06:02.369Z</time>
      </trkpt>
      <trkpt lat="48.8261" lon="4.98495">
        <ele>144</ele>
        <time>2018-06-25T09:06:03.369Z</time>
      </trkpt>
      <trkpt lat="48.82611" lon="4.98496">
        <ele>144</ele>
        <time>2018-06-25T09:06:04.369Z</time>
      </trkpt>
      <trkpt lat="48.82472" lon="4.98586">
        <ele>145</ele>
        <time>2018-06-25T09:06:05.369Z</time>
      </trkpt>
      <trkpt lat="48.82465" lon="4.98586">
        <ele>145</ele>
        <time>2018-06-25T09:06:06.369Z</time>
      </trkpt>
      <trkpt lat="48.82456" lon="4.98584">
        <ele>145</ele>
        <time>2018-06-25T09:06:07.369Z</time>
      </trkpt>
      <trkpt lat="48.82443" lon="4.98576">
        <ele>145</ele>
        <time>2018-06-25T09:06:08.369Z</time>
      </trkpt>
      <trkpt lat="48.82438" lon="4.98569">
        <ele>145</ele>
        <time>2018-06-25T09:06:09.369Z</time>
      </trkpt>
      <trkpt lat="48.82432" lon="4.9856">
        <ele>145</ele>
        <time>2018-06-25T09:06:10.369Z</time>
      </trkpt>
      <trkpt lat="48.82436" lon="4.98552">
        <ele>145</ele>
        <time>2018-06-25T09:06:11.369Z</time>
      </trkpt>
      <trkpt lat="48.82438" lon="4.98515">
        <ele>144</ele>
        <time>2018-06-25T09:06:12.369Z</time>
      </trkpt>
      <trkpt lat="48.82436" lon="4.98481">
        <ele>144</ele>
        <time>2018-06-25T09:06:13.369Z</time>
      </trkpt>
      <trkpt lat="48.82422" lon="4.98413">
        <ele>144</ele>
        <time>2018-06-25T09:06:14.369Z</time>
      </trkpt>
      <trkpt lat="48.82407" lon="4.98401">
        <ele>144</ele>
        <time>2018-06-25T09:06:15.369Z</time>
      </trkpt>
      <trkpt lat="48.82413" lon="4.98385">
        <ele>144</ele>
        <time>2018-06-25T09:06:16.369Z</time>
      </trkpt>
      <trkpt lat="48.82409" lon="4.98354">
        <ele>144</ele>
        <time>2018-06-25T09:06:17.369Z</time>
      </trkpt>
      <trkpt lat="48.82392" lon="4.9829">
        <ele>143</ele>
        <time>2018-06-25T09:06:18.369Z</time>
      </trkpt>
      <trkpt lat="48.82378" lon="4.9825">
        <ele>142</ele>
        <time>2018-06-25T09:06:19.369Z</time>
      </trkpt>
      <trkpt lat="48.82363" lon="4.98198">
        <ele>142</ele>
        <time>2018-06-25T09:06:20.369Z</time>
      </trkpt>
      <trkpt lat="48.8234" lon="4.98087">
        <ele>142</ele>
        <time>2018-06-25T09:06:21.369Z</time>
      </trkpt>
      <trkpt lat="48.82336" lon="4.98061">
        <ele>142</ele>
        <time>2018-06-25T09:06:22.369Z</time>
      </trkpt>
      <trkpt lat="48.82333" lon="4.97847">
        <ele>142</ele>
        <time>2018-06-25T09:06:23.369Z</time>
      </trkpt>
      <trkpt lat="48.82263" lon="4.97601">
        <ele>141</ele>
        <time>2018-06-25T09:06:24.369Z</time>
      </trkpt>
      <trkpt lat="48.82212" lon="4.97505">
        <ele>141</ele>
        <time>2018-06-25T09:06:25.369Z</time>
      </trkpt>
      <trkpt lat="48.82176" lon="4.97465">
        <ele>141</ele>
        <time>2018-06-25T09:06:26.369Z</time>
      </trkpt>
      <trkpt lat="48.82202" lon="4.96972">
        <ele>140</ele>
        <time>2018-06-25T09:06:27.369Z</time>
      </trkpt>
      <trkpt lat="48.82195" lon="4.96941">
        <ele>140</ele>
        <time>2018-06-25T09:06:28.369Z</time>
      </trkpt>
      <trkpt lat="48.82094" lon="4.9677">
        <ele>139</ele>
        <time>2018-06-25T09:06:29.369Z</time>
      </trkpt>
      <trkpt lat="48.82042" lon="4.96602">
        <ele>139</ele>
        <time>2018-06-25T09:06:30.369Z</time>
      </trkpt>
      <trkpt lat="48.81877" lon="4.96312">
        <ele>137</ele>
        <time>2018-06-25T09:06:31.369Z</time>
      </trkpt>
      <trkpt lat="48.81838" lon="4.9621">
        <ele>138</ele>
        <time>2018-06-25T09:06:32.369Z</time>
      </trkpt>
      <trkpt lat="48.81507" lon="4.94557">
        <ele>133</ele>
        <time>2018-06-25T09:06:33.369Z</time>
      </trkpt>
      <trkpt lat="48.81464" lon="4.94436">
        <ele>132</ele>
        <time>2018-06-25T09:06:34.369Z</time>
      </trkpt>
      <trkpt lat="48.81391" lon="4.94324">
        <ele>132</ele>
        <time>2018-06-25T09:06:35.369Z</time>
      </trkpt>
      <trkpt lat="48.813" lon="4.94248">
        <ele>132</ele>
        <time>2018-06-25T09:06:36.369Z</time>
      </trkpt>
      <trkpt lat="48.81196" lon="4.94214">
        <ele>133</ele>
        <time>2018-06-25T09:06:37.369Z</time>
      </trkpt>
      <trkpt lat="48.81099" lon="4.94219">
        <ele>132</ele>
        <time>2018-06-25T09:06:38.369Z</time>
      </trkpt>
      <trkpt lat="48.80727" lon="4.93009">
        <ele>130</ele>
        <time>2018-06-25T09:06:39.369Z</time>
      </trkpt>
      <trkpt lat="48.80616" lon="4.92754">
        <ele>129</ele>
        <time>2018-06-25T09:06:40.369Z</time>
      </trkpt>
      <trkpt lat="48.80497" lon="4.9252">
        <ele>129</ele>
        <time>2018-06-25T09:06:41.369Z</time>
      </trkpt>
      <trkpt lat="48.80418" lon="4.9231">
        <ele>128</ele>
        <time>2018-06-25T09:06:42.369Z</time>
      </trkpt>
      <trkpt lat="48.80389" lon="4.92276">
        <ele>128</ele>
        <time>2018-06-25T09:06:43.369Z</time>
      </trkpt>
      <trkpt lat="48.80292" lon="4.9222">
        <ele>128</ele>
        <time>2018-06-25T09:06:44.369Z</time>
      </trkpt>
      <trkpt lat="48.80264" lon="4.92166">
        <ele>128</ele>
        <time>2018-06-25T09:06:45.369Z</time>
      </trkpt>
      <trkpt lat="48.80252" lon="4.92034">
        <ele>129</ele>
        <time>2018-06-25T09:06:46.369Z</time>
      </trkpt>
      <trkpt lat="48.80242" lon="4.92019">
        <ele>129</ele>
        <time>2018-06-25T09:06:47.369Z</time>
      </trkpt>
      <trkpt lat="48.80103" lon="4.92019">
        <ele>128</ele>
        <time>2018-06-25T09:06:48.369Z</time>
      </trkpt>
      <trkpt lat="48.79907" lon="4.91842">
        <ele>128</ele>
        <time>2018-06-25T09:06:49.369Z</time>
      </trkpt>
      <trkpt lat="48.79308" lon="4.91159">
        <ele>126</ele>
        <time>2018-06-25T09:06:50.369Z</time>
      </trkpt>
      <trkpt lat="48.79254" lon="4.91036">
        <ele>125</ele>
        <time>2018-06-25T09:06:51.369Z</time>
      </trkpt>
      <trkpt lat="48.79238" lon="4.90962">
        <ele>125</ele>
        <time>2018-06-25T09:06:52.369Z</time>
      </trkpt>
      <trkpt lat="48.79221" lon="4.90724">
        <ele>124</ele>
        <time>2018-06-25T09:06:53.369Z</time>
      </trkpt>
      <trkpt lat="48.79206" lon="4.90669">
        <ele>124</ele>
        <time>2018-06-25T09:06:54.369Z</time>
      </trkpt>
      <trkpt lat="48.79151" lon="4.90577">
        <ele>125</ele>
        <time>2018-06-25T09:06:55.369Z</time>
      </trkpt>
      <trkpt lat="48.79115" lon="4.90546">
        <ele>126</ele>
        <time>2018-06-25T09:06:56.369Z</time>
      </trkpt>
      <trkpt lat="48.79005" lon="4.90525">
        <ele>126</ele>
        <time>2018-06-25T09:06:57.369Z</time>
      </trkpt>
      <trkpt lat="48.78986" lon="4.90507">
        <ele>126</ele>
        <time>2018-06-25T09:06:58.369Z</time>
      </trkpt>
      <trkpt lat="48.78953" lon="4.90422">
        <ele>125</ele>
        <time>2018-06-25T09:06:59.369Z</time>
      </trkpt>
      <trkpt lat="48.78917" lon="4.90046">
        <ele>129</ele>
        <time>2018-06-25T09:07:00.369Z</time>
      </trkpt>
      <trkpt lat="48.78917" lon="4.89525">
        <ele>124</ele>
        <time>2018-06-25T09:07:01.369Z</time>
      </trkpt>
      <trkpt lat="48.79008" lon="4.89271">
        <ele>122</ele>
        <time>2018-06-25T09:07:02.369Z</time>
      </trkpt>
      <trkpt lat="48.78994" lon="4.89114">
        <ele>122</ele>
        <time>2018-06-25T09:07:03.369Z</time>
      </trkpt>
      <trkpt lat="48.78911" lon="4.88717">
        <ele>122</ele>
        <time>2018-06-25T09:07:04.369Z</time>
      </trkpt>
      <trkpt lat="48.78822" lon="4.88462">
        <ele>122</ele>
        <time>2018-06-25T09:07:05.369Z</time>
      </trkpt>
      <trkpt lat="48.78717" lon="4.88535">
        <ele>121</ele>
        <time>2018-06-25T09:07:06.369Z</time>
      </trkpt>
      <trkpt lat="48.78477" lon="4.87482">
        <ele>121</ele>
        <time>2018-06-25T09:07:07.369Z</time>
      </trkpt>
      <trkpt lat="48.78033" lon="4.86394">
        <ele>118</ele>
        <time>2018-06-25T09:07:08.369Z</time>
      </trkpt>
      <trkpt lat="48.7792" lon="4.85938">
        <ele>119</ele>
        <time>2018-06-25T09:07:09.369Z</time>
      </trkpt>
      <trkpt lat="48.77939" lon="4.85957">
        <ele>118</ele>
        <time>2018-06-25T09:07:10.369Z</time>
      </trkpt>
      <trkpt lat="48.77971" lon="4.85946">
        <ele>118</ele>
        <time>2018-06-25T09:07:11.369Z</time>
      </trkpt>
      <trkpt lat="48.77975" lon="4.85913">
        <ele>118</ele>
        <time>2018-06-25T09:07:12.369Z</time>
      </trkpt>
      <trkpt lat="48.77927" lon="4.85763">
        <ele>117</ele>
        <time>2018-06-25T09:07:13.369Z</time>
      </trkpt>
      <trkpt lat="48.77919" lon="4.85696">
        <ele>118</ele>
        <time>2018-06-25T09:07:14.369Z</time>
      </trkpt>
      <trkpt lat="48.77927" lon="4.8567">
        <ele>118</ele>
        <time>2018-06-25T09:07:15.369Z</time>
      </trkpt>
      <trkpt lat="48.77961" lon="4.85634">
        <ele>118</ele>
        <time>2018-06-25T09:07:16.369Z</time>
      </trkpt>
      <trkpt lat="48.77949" lon="4.8555">
        <ele>121</ele>
        <time>2018-06-25T09:07:17.369Z</time>
      </trkpt>
      <trkpt lat="48.77809" lon="4.85075">
        <ele>117</ele>
        <time>2018-06-25T09:07:18.369Z</time>
      </trkpt>
      <trkpt lat="48.7781" lon="4.84968">
        <ele>117</ele>
        <time>2018-06-25T09:07:19.369Z</time>
      </trkpt>
      <trkpt lat="48.77764" lon="4.84699">
        <ele>118</ele>
        <time>2018-06-25T09:07:20.369Z</time>
      </trkpt>
      <trkpt lat="48.77682" lon="4.84451">
        <ele>116</ele>
        <time>2018-06-25T09:07:21.369Z</time>
      </trkpt>
      <trkpt lat="48.77614" lon="4.84186">
        <ele>115</ele>
        <time>2018-06-25T09:07:22.369Z</time>
      </trkpt>
      <trkpt lat="48.77599" lon="4.8391">
        <ele>115</ele>
        <time>2018-06-25T09:07:23.369Z</time>
      </trkpt>
      <trkpt lat="48.77552" lon="4.83645">
        <ele>115</ele>
        <time>2018-06-25T09:07:24.369Z</time>
      </trkpt>
      <trkpt lat="48.77514" lon="4.83548">
        <ele>115</ele>
        <time>2018-06-25T09:07:25.369Z</time>
      </trkpt>
      <trkpt lat="48.77471" lon="4.8357">
        <ele>115</ele>
        <time>2018-06-25T09:07:26.369Z</time>
      </trkpt>
      <trkpt lat="48.77408" lon="4.83446">
        <ele>115</ele>
        <time>2018-06-25T09:07:27.369Z</time>
      </trkpt>
      <trkpt lat="48.77428" lon="4.8341">
        <ele>114</ele>
        <time>2018-06-25T09:07:28.369Z</time>
      </trkpt>
      <trkpt lat="48.77293" lon="4.83152">
        <ele>115</ele>
        <time>2018-06-25T09:07:29.369Z</time>
      </trkpt>
      <trkpt lat="48.77315" lon="4.83114">
        <ele>115</ele>
        <time>2018-06-25T09:07:30.369Z</time>
      </trkpt>
      <trkpt lat="48.77332" lon="4.82979">
        <ele>115</ele>
        <time>2018-06-25T09:07:31.369Z</time>
      </trkpt>
      <trkpt lat="48.77328" lon="4.8282">
        <ele>115</ele>
        <time>2018-06-25T09:07:32.369Z</time>
      </trkpt>
      <trkpt lat="48.77337" lon="4.82754">
        <ele>114</ele>
        <time>2018-06-25T09:07:33.369Z</time>
      </trkpt>
      <trkpt lat="48.77389" lon="4.82671">
        <ele>115</ele>
        <time>2018-06-25T09:07:34.369Z</time>
      </trkpt>
      <trkpt lat="48.77471" lon="4.82655">
        <ele>115</ele>
        <time>2018-06-25T09:07:35.369Z</time>
      </trkpt>
      <trkpt lat="48.77526" lon="4.82711">
        <ele>115</ele>
        <time>2018-06-25T09:07:36.369Z</time>
      </trkpt>
      <trkpt lat="48.77555" lon="4.82694">
        <ele>115</ele>
        <time>2018-06-25T09:07:37.369Z</time>
      </trkpt>
      <trkpt lat="48.77613" lon="4.82545">
        <ele>115</ele>
        <time>2018-06-25T09:07:38.369Z</time>
      </trkpt>
      <trkpt lat="48.77621" lon="4.82432">
        <ele>115</ele>
        <time>2018-06-25T09:07:39.369Z</time>
      </trkpt>
      <trkpt lat="48.77531" lon="4.8226">
        <ele>113</ele>
        <time>2018-06-25T09:07:40.369Z</time>
      </trkpt>
      <trkpt lat="48.77494" lon="4.82246">
        <ele>113</ele>
        <time>2018-06-25T09:07:41.369Z</time>
      </trkpt>
      <trkpt lat="48.7739" lon="4.82118">
        <ele>114</ele>
        <time>2018-06-25T09:07:42.369Z</time>
      </trkpt>
      <trkpt lat="48.77265" lon="4.82048">
        <ele>113</ele>
        <time>2018-06-25T09:07:43.369Z</time>
      </trkpt>
      <trkpt lat="48.77213" lon="4.82036">
        <ele>113</ele>
        <time>2018-06-25T09:07:44.369Z</time>
      </trkpt>
      <trkpt lat="48.77152" lon="4.8199">
        <ele>113</ele>
        <time>2018-06-25T09:07:45.369Z</time>
      </trkpt>
      <trkpt lat="48.77125" lon="4.81914">
        <ele>113</ele>
        <time>2018-06-25T09:07:46.369Z</time>
      </trkpt>
      <trkpt lat="48.77121" lon="4.8184">
        <ele>113</ele>
        <time>2018-06-25T09:07:47.369Z</time>
      </trkpt>
      <trkpt lat="48.77171" lon="4.817">
        <ele>113</ele>
        <time>2018-06-25T09:07:48.369Z</time>
      </trkpt>
      <trkpt lat="48.7719" lon="4.81611">
        <ele>113</ele>
        <time>2018-06-25T09:07:49.369Z</time>
      </trkpt>
      <trkpt lat="48.77182" lon="4.81545">
        <ele>113</ele>
        <time>2018-06-25T09:07:50.369Z</time>
      </trkpt>
      <trkpt lat="48.77143" lon="4.81472">
        <ele>113</ele>
        <time>2018-06-25T09:07:51.369Z</time>
      </trkpt>
      <trkpt lat="48.77132" lon="4.81425">
        <ele>113</ele>
        <time>2018-06-25T09:07:52.369Z</time>
      </trkpt>
      <trkpt lat="48.77151" lon="4.81079">
        <ele>114</ele>
        <time>2018-06-25T09:07:53.369Z</time>
      </trkpt>
      <trkpt lat="48.77125" lon="4.80954">
        <ele>113</ele>
        <time>2018-06-25T09:07:54.369Z</time>
      </trkpt>
      <trkpt lat="48.76987" lon="4.80689">
        <ele>111</ele>
        <time>2018-06-25T09:07:55.369Z</time>
      </trkpt>
      <trkpt lat="48.76888" lon="4.8054">
        <ele>113</ele>
        <time>2018-06-25T09:07:56.369Z</time>
      </trkpt>
      <trkpt lat="48.76839" lon="4.80334">
        <ele>112</ele>
        <time>2018-06-25T09:07:57.369Z</time>
      </trkpt>
      <trkpt lat="48.76848" lon="4.80323">
        <ele>112</ele>
        <time>2018-06-25T09:07:58.369Z</time>
      </trkpt>
      <trkpt lat="48.76933" lon="4.80347">
        <ele>111</ele>
        <time>2018-06-25T09:07:59.369Z</time>
      </trkpt>
      <trkpt lat="48.77013" lon="4.80318">
        <ele>110</ele>
        <time>2018-06-25T09:08:00.369Z</time>
      </trkpt>
      <trkpt lat="48.76922" lon="4.8034">
        <ele>111</ele>
        <time>2018-06-25T09:08:01.369Z</time>
      </trkpt>
      <trkpt lat="48.76825" lon="4.80324">
        <ele>112</ele>
        <time>2018-06-25T09:08:02.369Z</time>
      </trkpt>
      <trkpt lat="48.76929" lon="4.80344">
        <ele>111</ele>
        <time>2018-06-25T09:08:03.369Z</time>
      </trkpt>
      <trkpt lat="48.77309" lon="4.80224">
        <ele>110</ele>
        <time>2018-06-25T09:08:04.369Z</time>
      </trkpt>
      <trkpt lat="48.77523" lon="4.80273">
        <ele>112</ele>
        <time>2018-06-25T09:08:05.369Z</time>
      </trkpt>
      <trkpt lat="48.77744" lon="4.80177">
        <ele>114</ele>
        <time>2018-06-25T09:08:06.369Z</time>
      </trkpt>
      <trkpt lat="48.77858" lon="4.80272">
        <ele>112</ele>
        <time>2018-06-25T09:08:07.369Z</time>
      </trkpt>
      <trkpt lat="48.78051" lon="4.80247">
        <ele>113</ele>
        <time>2018-06-25T09:08:08.369Z</time>
      </trkpt>
      <trkpt lat="48.78058" lon="4.80262">
        <ele>112</ele>
        <time>2018-06-25T09:08:09.369Z</time>
      </trkpt>
      <trkpt lat="48.78126" lon="4.80262">
        <ele>113</ele>
        <time>2018-06-25T09:08:10.369Z</time>
      </trkpt>
      <trkpt lat="48.78159" lon="4.80241">
        <ele>114</ele>
        <time>2018-06-25T09:08:11.369Z</time>
      </trkpt>
      <trkpt lat="48.78199" lon="4.8026">
        <ele>114</ele>
        <time>2018-06-25T09:08:12.369Z</time>
      </trkpt>
      <trkpt lat="48.78245" lon="4.80258">
        <ele>115</ele>
        <time>2018-06-25T09:08:13.369Z</time>
      </trkpt>
      <trkpt lat="48.78264" lon="4.80601">
        <ele>114</ele>
        <time>2018-06-25T09:08:14.369Z</time>
      </trkpt>
      <trkpt lat="48.78311" lon="4.8063">
        <ele>115</ele>
        <time>2018-06-25T09:08:15.369Z</time>
      </trkpt>
      <trkpt lat="48.78349" lon="4.80594">
        <ele>115</ele>
        <time>2018-06-25T09:08:16.369Z</time>
      </trkpt>
      <trkpt lat="48.78464" lon="4.80601">
        <ele>116</ele>
        <time>2018-06-25T09:08:17.369Z</time>
      </trkpt>
      <trkpt lat="48.78472" lon="4.80559">
        <ele>116</ele>
        <time>2018-06-25T09:08:18.369Z</time>
      </trkpt>
      <trkpt lat="48.78519" lon="4.80534">
        <ele>115</ele>
        <time>2018-06-25T09:08:19.369Z</time>
      </trkpt>
      <trkpt lat="48.78597" lon="4.80774">
        <ele>116</ele>
        <time>2018-06-25T09:08:20.369Z</time>
      </trkpt>
      <trkpt lat="48.78723" lon="4.81">
        <ele>113</ele>
        <time>2018-06-25T09:08:21.369Z</time>
      </trkpt>
      <trkpt lat="48.78752" lon="4.81095">
        <ele>114</ele>
        <time>2018-06-25T09:08:22.369Z</time>
      </trkpt>
      <trkpt lat="48.78767" lon="4.81259">
        <ele>115</ele>
        <time>2018-06-25T09:08:23.369Z</time>
      </trkpt>
      <trkpt lat="48.78755" lon="4.81338">
        <ele>116</ele>
        <time>2018-06-25T09:08:24.369Z</time>
      </trkpt>
      <trkpt lat="48.7879" lon="4.81435">
        <ele>115</ele>
        <time>2018-06-25T09:08:25.369Z</time>
      </trkpt>
      <trkpt lat="48.78791" lon="4.81516">
        <ele>115</ele>
        <time>2018-06-25T09:08:26.369Z</time>
      </trkpt>
      <trkpt lat="48.78977" lon="4.81519">
        <ele>114</ele>
        <time>2018-06-25T09:08:27.369Z</time>
      </trkpt>
      <trkpt lat="48.78998" lon="4.81499">
        <ele>114</ele>
        <time>2018-06-25T09:08:28.369Z</time>
      </trkpt>
      <trkpt lat="48.79029" lon="4.81347">
        <ele>115</ele>
        <time>2018-06-25T09:08:29.369Z</time>
      </trkpt>
      <trkpt lat="48.79076" lon="4.81276">
        <ele>115</ele>
        <time>2018-06-25T09:08:30.369Z</time>
      </trkpt>
      <trkpt lat="48.79199" lon="4.81265">
        <ele>116</ele>
        <time>2018-06-25T09:08:31.369Z</time>
      </trkpt>
      <trkpt lat="48.79206" lon="4.81377">
        <ele>117</ele>
        <time>2018-06-25T09:08:32.369Z</time>
      </trkpt>
      <trkpt lat="48.79305" lon="4.8133">
        <ele>118</ele>
        <time>2018-06-25T09:08:33.369Z</time>
      </trkpt>
      <trkpt lat="48.79322" lon="4.81326">
        <ele>118</ele>
        <time>2018-06-25T09:08:34.369Z</time>
      </trkpt>
      <trkpt lat="48.79384" lon="4.81319">
        <ele>117</ele>
        <time>2018-06-25T09:08:35.369Z</time>
      </trkpt>
      <trkpt lat="48.79356" lon="4.80948">
        <ele>115</ele>
        <time>2018-06-25T09:08:36.369Z</time>
      </trkpt>
      <trkpt lat="48.79059" lon="4.79351">
        <ele>115</ele>
        <time>2018-06-25T09:08:37.369Z</time>
      </trkpt>
      <trkpt lat="48.79051" lon="4.79226">
        <ele>114</ele>
        <time>2018-06-25T09:08:38.369Z</time>
      </trkpt>
      <trkpt lat="48.78995" lon="4.78959">
        <ele>115</ele>
        <time>2018-06-25T09:08:39.369Z</time>
      </trkpt>
      <trkpt lat="48.78818" lon="4.78455">
        <ele>114</ele>
        <time>2018-06-25T09:08:40.369Z</time>
      </trkpt>
      <trkpt lat="48.78773" lon="4.78275">
        <ele>113</ele>
        <time>2018-06-25T09:08:41.369Z</time>
      </trkpt>
      <trkpt lat="48.78222" lon="4.75118">
        <ele>108</ele>
        <time>2018-06-25T09:08:42.369Z</time>
      </trkpt>
      <trkpt lat="48.78117" lon="4.74904">
        <ele>109</ele>
        <time>2018-06-25T09:08:43.369Z</time>
      </trkpt>
      <trkpt lat="48.78037" lon="4.74696">
        <ele>109</ele>
        <time>2018-06-25T09:08:44.369Z</time>
      </trkpt>
      <trkpt lat="48.78013" lon="4.74421">
        <ele>110</ele>
        <time>2018-06-25T09:08:45.369Z</time>
      </trkpt>
      <trkpt lat="48.77949" lon="4.74234">
        <ele>109</ele>
        <time>2018-06-25T09:08:46.369Z</time>
      </trkpt>
      <trkpt lat="48.77885" lon="4.73989">
        <ele>108</ele>
        <time>2018-06-25T09:08:47.369Z</time>
      </trkpt>
      <trkpt lat="48.77861" lon="4.7396">
        <ele>108</ele>
        <time>2018-06-25T09:08:48.369Z</time>
      </trkpt>
      <trkpt lat="48.77178" lon="4.73976">
        <ele>105</ele>
        <time>2018-06-25T09:08:49.369Z</time>
      </trkpt>
      <trkpt lat="48.77108" lon="4.73956">
        <ele>105</ele>
        <time>2018-06-25T09:08:50.369Z</time>
      </trkpt>
      <trkpt lat="48.77035" lon="4.73903">
        <ele>105</ele>
        <time>2018-06-25T09:08:51.369Z</time>
      </trkpt>
      <trkpt lat="48.7697" lon="4.73805">
        <ele>105</ele>
        <time>2018-06-25T09:08:52.369Z</time>
      </trkpt>
      <trkpt lat="48.76927" lon="4.73651">
        <ele>106</ele>
        <time>2018-06-25T09:08:53.369Z</time>
      </trkpt>
      <trkpt lat="48.76877" lon="4.72392">
        <ele>105</ele>
        <time>2018-06-25T09:08:54.369Z</time>
      </trkpt>
      <trkpt lat="48.76804" lon="4.70959">
        <ele>103</ele>
        <time>2018-06-25T09:08:55.369Z</time>
      </trkpt>
      <trkpt lat="48.76731" lon="4.70222">
        <ele>104</ele>
        <time>2018-06-25T09:08:56.369Z</time>
      </trkpt>
      <trkpt lat="48.76701" lon="4.69353">
        <ele>101</ele>
        <time>2018-06-25T09:08:57.369Z</time>
      </trkpt>
      <trkpt lat="48.76801" lon="4.68638">
        <ele>102</ele>
        <time>2018-06-25T09:08:58.369Z</time>
      </trkpt>
      <trkpt lat="48.76785" lon="4.68416">
        <ele>102</ele>
        <time>2018-06-25T09:08:59.369Z</time>
      </trkpt>
      <trkpt lat="48.76712" lon="4.6814">
        <ele>102</ele>
        <time>2018-06-25T09:09:00.369Z</time>
      </trkpt>
      <trkpt lat="48.76674" lon="4.6805">
        <ele>102</ele>
        <time>2018-06-25T09:09:01.369Z</time>
      </trkpt>
      <trkpt lat="48.76485" lon="4.67875">
        <ele>102</ele>
        <time>2018-06-25T09:09:02.369Z</time>
      </trkpt>
      <trkpt lat="48.76466" lon="4.67831">
        <ele>102</ele>
        <time>2018-06-25T09:09:03.369Z</time>
      </trkpt>
      <trkpt lat="48.76281" lon="4.67072">
        <ele>103</ele>
        <time>2018-06-25T09:09:04.369Z</time>
      </trkpt>
      <trkpt lat="48.76225" lon="4.66988">
        <ele>103</ele>
        <time>2018-06-25T09:09:05.369Z</time>
      </trkpt>
      <trkpt lat="48.76193" lon="4.66868">
        <ele>107</ele>
        <time>2018-06-25T09:09:06.369Z</time>
      </trkpt>
      <trkpt lat="48.76114" lon="4.66661">
        <ele>110</ele>
        <time>2018-06-25T09:09:07.369Z</time>
      </trkpt>
      <trkpt lat="48.76108" lon="4.66616">
        <ele>111</ele>
        <time>2018-06-25T09:09:08.369Z</time>
      </trkpt>
      <trkpt lat="48.76049" lon="4.66267">
        <ele>106</ele>
        <time>2018-06-25T09:09:09.369Z</time>
      </trkpt>
      <trkpt lat="48.76054" lon="4.66032">
        <ele>110</ele>
        <time>2018-06-25T09:09:10.369Z</time>
      </trkpt>
      <trkpt lat="48.76026" lon="4.65731">
        <ele>110</ele>
        <time>2018-06-25T09:09:11.369Z</time>
      </trkpt>
      <trkpt lat="48.7599" lon="4.65591">
        <ele>107</ele>
        <time>2018-06-25T09:09:12.369Z</time>
      </trkpt>
      <trkpt lat="48.75745" lon="4.65093">
        <ele>104</ele>
        <time>2018-06-25T09:09:13.369Z</time>
      </trkpt>
      <trkpt lat="48.75314" lon="4.64448">
        <ele>98</ele>
        <time>2018-06-25T09:09:14.369Z</time>
      </trkpt>
      <trkpt lat="48.75271" lon="4.64315">
        <ele>97</ele>
        <time>2018-06-25T09:09:15.369Z</time>
      </trkpt>
      <trkpt lat="48.75244" lon="4.64146">
        <ele>98</ele>
        <time>2018-06-25T09:09:16.369Z</time>
      </trkpt>
      <trkpt lat="48.75186" lon="4.63244">
        <ele>101</ele>
        <time>2018-06-25T09:09:17.369Z</time>
      </trkpt>
      <trkpt lat="48.7517" lon="4.63154">
        <ele>104</ele>
        <time>2018-06-25T09:09:18.369Z</time>
      </trkpt>
      <trkpt lat="48.75046" lon="4.62803">
        <ele>117</ele>
        <time>2018-06-25T09:09:19.369Z</time>
      </trkpt>
      <trkpt lat="48.75035" lon="4.62745">
        <ele>116</ele>
        <time>2018-06-25T09:09:20.369Z</time>
      </trkpt>
      <trkpt lat="48.75001" lon="4.62696">
        <ele>114</ele>
        <time>2018-06-25T09:09:21.369Z</time>
      </trkpt>
      <trkpt lat="48.74851" lon="4.62606">
        <ele>104</ele>
        <time>2018-06-25T09:09:22.369Z</time>
      </trkpt>
      <trkpt lat="48.7482" lon="4.62559">
        <ele>102</ele>
        <time>2018-06-25T09:09:23.369Z</time>
      </trkpt>
      <trkpt lat="48.74848" lon="4.62469">
        <ele>105</ele>
        <time>2018-06-25T09:09:24.369Z</time>
      </trkpt>
      <trkpt lat="48.74856" lon="4.62321">
        <ele>109</ele>
        <time>2018-06-25T09:09:25.369Z</time>
      </trkpt>
      <trkpt lat="48.74875" lon="4.62213">
        <ele>110</ele>
        <time>2018-06-25T09:09:26.369Z</time>
      </trkpt>
      <trkpt lat="48.74918" lon="4.62094">
        <ele>107</ele>
        <time>2018-06-25T09:09:27.369Z</time>
      </trkpt>
      <trkpt lat="48.74922" lon="4.62011">
        <ele>107</ele>
        <time>2018-06-25T09:09:28.369Z</time>
      </trkpt>
      <trkpt lat="48.74978" lon="4.61707">
        <ele>113</ele>
        <time>2018-06-25T09:09:29.369Z</time>
      </trkpt>
      <trkpt lat="48.74976" lon="4.61508">
        <ele>126</ele>
        <time>2018-06-25T09:09:30.369Z</time>
      </trkpt>
      <trkpt lat="48.7496" lon="4.6142">
        <ele>134</ele>
        <time>2018-06-25T09:09:31.369Z</time>
      </trkpt>
      <trkpt lat="48.74973" lon="4.61145">
        <ele>145</ele>
        <time>2018-06-25T09:09:32.369Z</time>
      </trkpt>
      <trkpt lat="48.7482" lon="4.61104">
        <ele>146</ele>
        <time>2018-06-25T09:09:33.369Z</time>
      </trkpt>
      <trkpt lat="48.74677" lon="4.61085">
        <ele>145</ele>
        <time>2018-06-25T09:09:34.369Z</time>
      </trkpt>
      <trkpt lat="48.74669" lon="4.61071">
        <ele>145</ele>
        <time>2018-06-25T09:09:35.369Z</time>
      </trkpt>
      <trkpt lat="48.7468" lon="4.60574">
        <ele>145</ele>
        <time>2018-06-25T09:09:36.369Z</time>
      </trkpt>
      <trkpt lat="48.74632" lon="4.60559">
        <ele>137</ele>
        <time>2018-06-25T09:09:37.369Z</time>
      </trkpt>
      <trkpt lat="48.74618" lon="4.60361">
        <ele>136</ele>
        <time>2018-06-25T09:09:38.369Z</time>
      </trkpt>
      <trkpt lat="48.74599" lon="4.60277">
        <ele>128</ele>
        <time>2018-06-25T09:09:39.369Z</time>
      </trkpt>
      <trkpt lat="48.74627" lon="4.60237">
        <ele>132</ele>
        <time>2018-06-25T09:09:40.369Z</time>
      </trkpt>
      <trkpt lat="48.74634" lon="4.60193">
        <ele>133</ele>
        <time>2018-06-25T09:09:41.369Z</time>
      </trkpt>
      <trkpt lat="48.74598" lon="4.59977">
        <ele>125</ele>
        <time>2018-06-25T09:09:42.369Z</time>
      </trkpt>
      <trkpt lat="48.74549" lon="4.59811">
        <ele>116</ele>
        <time>2018-06-25T09:09:43.369Z</time>
      </trkpt>
      <trkpt lat="48.74545" lon="4.5975">
        <ele>115</ele>
        <time>2018-06-25T09:09:44.369Z</time>
      </trkpt>
      <trkpt lat="48.74517" lon="4.59637">
        <ele>109</ele>
        <time>2018-06-25T09:09:45.369Z</time>
      </trkpt>
      <trkpt lat="48.74502" lon="4.59501">
        <ele>103</ele>
        <time>2018-06-25T09:09:46.369Z</time>
      </trkpt>
      <trkpt lat="48.74474" lon="4.59473">
        <ele>101</ele>
        <time>2018-06-25T09:09:47.369Z</time>
      </trkpt>
      <trkpt lat="48.74457" lon="4.59424">
        <ele>100</ele>
        <time>2018-06-25T09:09:48.369Z</time>
      </trkpt>
      <trkpt lat="48.744" lon="4.59381">
        <ele>97</ele>
        <time>2018-06-25T09:09:49.369Z</time>
      </trkpt>
      <trkpt lat="48.74408" lon="4.5934">
        <ele>98</ele>
        <time>2018-06-25T09:09:50.369Z</time>
      </trkpt>
      <trkpt lat="48.74446" lon="4.59336">
        <ele>101</ele>
        <time>2018-06-25T09:09:51.369Z</time>
      </trkpt>
      <trkpt lat="48.74485" lon="4.5929">
        <ele>105</ele>
        <time>2018-06-25T09:09:52.369Z</time>
      </trkpt>
      <trkpt lat="48.74504" lon="4.59123">
        <ele>103</ele>
        <time>2018-06-25T09:09:53.369Z</time>
      </trkpt>
      <trkpt lat="48.74549" lon="4.58999">
        <ele>105</ele>
        <time>2018-06-25T09:09:54.369Z</time>
      </trkpt>
      <trkpt lat="48.74584" lon="4.58663">
        <ele>104</ele>
        <time>2018-06-25T09:09:55.369Z</time>
      </trkpt>
      <trkpt lat="48.74497" lon="4.58617">
        <ele>97</ele>
        <time>2018-06-25T09:09:56.369Z</time>
      </trkpt>
      <trkpt lat="48.74398" lon="4.58524">
        <ele>96</ele>
        <time>2018-06-25T09:09:57.369Z</time>
      </trkpt>
      <trkpt lat="48.74329" lon="4.58515">
        <ele>96</ele>
        <time>2018-06-25T09:09:58.369Z</time>
      </trkpt>
      <trkpt lat="48.74323" lon="4.5848">
        <ele>96</ele>
        <time>2018-06-25T09:09:59.369Z</time>
      </trkpt>
      <trkpt lat="48.73662" lon="4.58468">
        <ele>97</ele>
        <time>2018-06-25T09:10:00.369Z</time>
      </trkpt>
      <trkpt lat="48.73662" lon="4.58466">
        <ele>97</ele>
        <time>2018-06-25T09:10:01.369Z</time>
      </trkpt>
      <trkpt lat="48.73575" lon="4.58466">
        <ele>98</ele>
        <time>2018-06-25T09:10:02.369Z</time>
      </trkpt>
      <trkpt lat="48.73418" lon="4.58464">
        <ele>99</ele>
        <time>2018-06-25T09:10:03.369Z</time>
      </trkpt>
      <trkpt lat="48.73341" lon="4.58456">
        <ele>101</ele>
        <time>2018-06-25T09:10:04.369Z</time>
      </trkpt>
      <trkpt lat="48.73296" lon="4.58449">
        <ele>101</ele>
        <time>2018-06-25T09:10:05.369Z</time>
      </trkpt>
      <trkpt lat="48.73267" lon="4.58496">
        <ele>101</ele>
        <time>2018-06-25T09:10:06.369Z</time>
      </trkpt>
      <trkpt lat="48.73165" lon="4.58507">
        <ele>101</ele>
        <time>2018-06-25T09:10:07.369Z</time>
      </trkpt>
      <trkpt lat="48.73069" lon="4.58565">
        <ele>101</ele>
        <time>2018-06-25T09:10:08.369Z</time>
      </trkpt>
      <trkpt lat="48.73038" lon="4.58603">
        <ele>101</ele>
        <time>2018-06-25T09:10:09.369Z</time>
      </trkpt>
      <trkpt lat="48.72988" lon="4.58579">
        <ele>101</ele>
        <time>2018-06-25T09:10:10.369Z</time>
      </trkpt>
      <trkpt lat="48.72944" lon="4.58528">
        <ele>101</ele>
        <time>2018-06-25T09:10:11.369Z</time>
      </trkpt>
      <trkpt lat="48.72885" lon="4.58673">
        <ele>102</ele>
        <time>2018-06-25T09:10:12.369Z</time>
      </trkpt>
      <trkpt lat="48.72862" lon="4.5871">
        <ele>103</ele>
        <time>2018-06-25T09:10:13.369Z</time>
      </trkpt>
      <trkpt lat="48.72633" lon="4.58549">
        <ele>103</ele>
        <time>2018-06-25T09:10:14.369Z</time>
      </trkpt>
      <trkpt lat="48.72652" lon="4.58491">
        <ele>103</ele>
        <time>2018-06-25T09:10:15.369Z</time>
      </trkpt>
      <trkpt lat="48.72616" lon="4.58462">
        <ele>103</ele>
        <time>2018-06-25T09:10:16.369Z</time>
      </trkpt>
      <trkpt lat="48.7271" lon="4.58174">
        <ele>99</ele>
        <time>2018-06-25T09:10:17.369Z</time>
      </trkpt>
      <trkpt lat="48.72727" lon="4.58147">
        <ele>98</ele>
        <time>2018-06-25T09:10:18.369Z</time>
      </trkpt>
      <trkpt lat="48.72735" lon="4.58081">
        <ele>97</ele>
        <time>2018-06-25T09:10:19.369Z</time>
      </trkpt>
      <trkpt lat="48.72862" lon="4.57644">
        <ele>97</ele>
        <time>2018-06-25T09:10:20.369Z</time>
      </trkpt>
      <trkpt lat="48.72881" lon="4.57532">
        <ele>98</ele>
        <time>2018-06-25T09:10:21.369Z</time>
      </trkpt>
      <trkpt lat="48.72855" lon="4.5747">
        <ele>97</ele>
        <time>2018-06-25T09:10:22.369Z</time>
      </trkpt>
      <trkpt lat="48.72819" lon="4.57453">
        <ele>97</ele>
        <time>2018-06-25T09:10:23.369Z</time>
      </trkpt>
      <trkpt lat="48.72878" lon="4.57576">
        <ele>98</ele>
        <time>2018-06-25T08:56:23.303Z</time>
      </trkpt>
      <trkpt lat="48.72878" lon="4.57523">
        <ele>98</ele>
        <time>2018-06-25T08:56:24.303Z</time>
      </trkpt>
      <trkpt lat="48.72847" lon="4.5746">
        <ele>97</ele>
        <time>2018-06-25T08:56:25.303Z</time>
      </trkpt>
      <trkpt lat="48.72738" lon="4.57417">
        <ele>95</ele>
        <time>2018-06-25T08:56:26.303Z</time>
      </trkpt>
      <trkpt lat="48.72655" lon="4.57407">
        <ele>96</ele>
        <time>2018-06-25T08:56:27.303Z</time>
      </trkpt>
      <trkpt lat="48.7261" lon="4.57357">
        <ele>96</ele>
        <time>2018-06-25T08:56:28.303Z</time>
      </trkpt>
      <trkpt lat="48.72595" lon="4.57328">
        <ele>96</ele>
        <time>2018-06-25T08:56:29.303Z</time>
      </trkpt>
      <trkpt lat="48.725" lon="4.56987">
        <ele>96</ele>
        <time>2018-06-25T08:56:30.303Z</time>
      </trkpt>
      <trkpt lat="48.72478" lon="4.56845">
        <ele>97</ele>
        <time>2018-06-25T08:56:31.303Z</time>
      </trkpt>
      <trkpt lat="48.72433" lon="4.56722">
        <ele>96</ele>
        <time>2018-06-25T08:56:32.303Z</time>
      </trkpt>
      <trkpt lat="48.72436" lon="4.56705">
        <ele>96</ele>
        <time>2018-06-25T08:56:33.303Z</time>
      </trkpt>
      <trkpt lat="48.72603" lon="4.56604">
        <ele>96</ele>
        <time>2018-06-25T08:56:34.303Z</time>
      </trkpt>
      <trkpt lat="48.72643" lon="4.56568">
        <ele>96</ele>
        <time>2018-06-25T08:56:35.303Z</time>
      </trkpt>
      <trkpt lat="48.72724" lon="4.56445">
        <ele>96</ele>
        <time>2018-06-25T08:56:36.303Z</time>
      </trkpt>
      <trkpt lat="48.72693" lon="4.55912">
        <ele>95</ele>
        <time>2018-06-25T08:56:37.303Z</time>
      </trkpt>
      <trkpt lat="48.72676" lon="4.55818">
        <ele>96</ele>
        <time>2018-06-25T08:56:38.303Z</time>
      </trkpt>
      <trkpt lat="48.72573" lon="4.55468">
        <ele>98</ele>
        <time>2018-06-25T08:56:39.303Z</time>
      </trkpt>
      <trkpt lat="48.72576" lon="4.55311">
        <ele>101</ele>
        <time>2018-06-25T08:56:40.303Z</time>
      </trkpt>
      <trkpt lat="48.72475" lon="4.54908">
        <ele>108</ele>
        <time>2018-06-25T08:56:41.303Z</time>
      </trkpt>
      <trkpt lat="48.72451" lon="4.5484">
        <ele>108</ele>
        <time>2018-06-25T08:56:42.303Z</time>
      </trkpt>
      <trkpt lat="48.72435" lon="4.54824">
        <ele>107</ele>
        <time>2018-06-25T08:56:43.303Z</time>
      </trkpt>
      <trkpt lat="48.72366" lon="4.54853">
        <ele>106</ele>
        <time>2018-06-25T08:56:44.303Z</time>
      </trkpt>
      <trkpt lat="48.72222" lon="4.5494">
        <ele>115</ele>
        <time>2018-06-25T08:56:45.303Z</time>
      </trkpt>
      <trkpt lat="48.7219" lon="4.54946">
        <ele>116</ele>
        <time>2018-06-25T08:56:46.303Z</time>
      </trkpt>
      <trkpt lat="48.72029" lon="4.54885">
        <ele>116</ele>
        <time>2018-06-25T08:56:47.303Z</time>
      </trkpt>
      <trkpt lat="48.71913" lon="4.54882">
        <ele>117</ele>
        <time>2018-06-25T08:56:48.303Z</time>
      </trkpt>
      <trkpt lat="48.71868" lon="4.54855">
        <ele>119</ele>
        <time>2018-06-25T08:56:49.303Z</time>
      </trkpt>
      <trkpt lat="48.7179" lon="4.5477">
        <ele>121</ele>
        <time>2018-06-25T08:56:50.303Z</time>
      </trkpt>
      <trkpt lat="48.71695" lon="4.54707">
        <ele>124</ele>
        <time>2018-06-25T08:56:51.303Z</time>
      </trkpt>
      <trkpt lat="48.71573" lon="4.54596">
        <ele>123</ele>
        <time>2018-06-25T08:56:52.303Z</time>
      </trkpt>
      <trkpt lat="48.71459" lon="4.54521">
        <ele>122</ele>
        <time>2018-06-25T08:56:53.303Z</time>
      </trkpt>
      <trkpt lat="48.71417" lon="4.5451">
        <ele>122</ele>
        <time>2018-06-25T08:56:54.303Z</time>
      </trkpt>
      <trkpt lat="48.7118" lon="4.54551">
        <ele>117</ele>
        <time>2018-06-25T08:56:55.303Z</time>
      </trkpt>
      <trkpt lat="48.71079" lon="4.54545">
        <ele>114</ele>
        <time>2018-06-25T08:56:56.303Z</time>
      </trkpt>
      <trkpt lat="48.70735" lon="4.54486">
        <ele>105</ele>
        <time>2018-06-25T08:56:57.303Z</time>
      </trkpt>
      <trkpt lat="48.70706" lon="4.54665">
        <ele>104</ele>
        <time>2018-06-25T08:56:58.303Z</time>
      </trkpt>
      <trkpt lat="48.70651" lon="4.54825">
        <ele>101</ele>
        <time>2018-06-25T08:56:59.303Z</time>
      </trkpt>
      <trkpt lat="48.704" lon="4.54785">
        <ele>101</ele>
        <time>2018-06-25T08:57:00.303Z</time>
      </trkpt>
      <trkpt lat="48.70345" lon="4.54764">
        <ele>102</ele>
        <time>2018-06-25T08:57:01.303Z</time>
      </trkpt>
      <trkpt lat="48.70354" lon="4.54177">
        <ele>107</ele>
        <time>2018-06-25T08:57:02.303Z</time>
      </trkpt>
      <trkpt lat="48.70332" lon="4.5397">
        <ele>113</ele>
        <time>2018-06-25T08:57:03.303Z</time>
      </trkpt>
      <trkpt lat="48.70321" lon="4.53949">
        <ele>113</ele>
        <time>2018-06-25T08:57:04.303Z</time>
      </trkpt>
      <trkpt lat="48.70209" lon="4.53917">
        <ele>116</ele>
        <time>2018-06-25T08:57:05.303Z</time>
      </trkpt>
      <trkpt lat="48.70162" lon="4.53929">
        <ele>115</ele>
        <time>2018-06-25T08:57:06.303Z</time>
      </trkpt>
      <trkpt lat="48.70043" lon="4.54007">
        <ele>105</ele>
        <time>2018-06-25T08:57:07.303Z</time>
      </trkpt>
      <trkpt lat="48.69914" lon="4.54068">
        <ele>101</ele>
        <time>2018-06-25T08:57:08.303Z</time>
      </trkpt>
      <trkpt lat="48.69604" lon="4.54126">
        <ele>104</ele>
        <time>2018-06-25T08:57:09.303Z</time>
      </trkpt>
      <trkpt lat="48.69476" lon="4.54113">
        <ele>106</ele>
        <time>2018-06-25T08:57:10.303Z</time>
      </trkpt>
      <trkpt lat="48.69478" lon="4.54218">
        <ele>106</ele>
        <time>2018-06-25T08:57:11.303Z</time>
      </trkpt>
      <trkpt lat="48.6954" lon="4.54551">
        <ele>101</ele>
        <time>2018-06-25T08:57:12.303Z</time>
      </trkpt>
      <trkpt lat="48.69561" lon="4.54885">
        <ele>101</ele>
        <time>2018-06-25T08:57:13.303Z</time>
      </trkpt>
      <trkpt lat="48.6964" lon="4.55181">
        <ele>103</ele>
        <time>2018-06-25T08:57:14.303Z</time>
      </trkpt>
      <trkpt lat="48.69695" lon="4.55541">
        <ele>101</ele>
        <time>2018-06-25T08:57:15.303Z</time>
      </trkpt>
      <trkpt lat="48.69686" lon="4.55561">
        <ele>102</ele>
        <time>2018-06-25T08:57:16.303Z</time>
      </trkpt>
      <trkpt lat="48.69336" lon="4.55652">
        <ele>124</ele>
        <time>2018-06-25T08:57:17.303Z</time>
      </trkpt>
      <trkpt lat="48.69224" lon="4.55968">
        <ele>127</ele>
        <time>2018-06-25T08:57:18.303Z</time>
      </trkpt>
      <trkpt lat="48.6916" lon="4.56114">
        <ele>133</ele>
        <time>2018-06-25T08:57:19.303Z</time>
      </trkpt>
      <trkpt lat="48.69114" lon="4.56173">
        <ele>138</ele>
        <time>2018-06-25T08:57:20.303Z</time>
      </trkpt>
      <trkpt lat="48.69081" lon="4.5617">
        <ele>141</ele>
        <time>2018-06-25T08:57:21.303Z</time>
      </trkpt>
      <trkpt lat="48.68964" lon="4.56079">
        <ele>148</ele>
        <time>2018-06-25T08:57:22.303Z</time>
      </trkpt>
      <trkpt lat="48.68854" lon="4.56043">
        <ele>148</ele>
        <time>2018-06-25T08:57:23.303Z</time>
      </trkpt>
      <trkpt lat="48.68614" lon="4.56008">
        <ele>122</ele>
        <time>2018-06-25T08:57:24.303Z</time>
      </trkpt>
      <trkpt lat="48.68427" lon="4.5607">
        <ele>114</ele>
        <time>2018-06-25T08:57:25.303Z</time>
      </trkpt>
      <trkpt lat="48.68451" lon="4.56067">
        <ele>114</ele>
        <time>2018-06-25T08:57:26.303Z</time>
      </trkpt>
      <trkpt lat="48.68308" lon="4.56079">
        <ele>119</ele>
        <time>2018-06-25T08:57:27.303Z</time>
      </trkpt>
      <trkpt lat="48.67996" lon="4.56199">
        <ele>145</ele>
        <time>2018-06-25T08:57:28.303Z</time>
      </trkpt>
      <trkpt lat="48.67965" lon="4.56228">
        <ele>145</ele>
        <time>2018-06-25T08:57:29.303Z</time>
      </trkpt>
      <trkpt lat="48.67894" lon="4.56333">
        <ele>148</ele>
        <time>2018-06-25T08:57:30.303Z</time>
      </trkpt>
      <trkpt lat="48.6777" lon="4.56463">
        <ele>144</ele>
        <time>2018-06-25T08:57:31.303Z</time>
      </trkpt>
      <trkpt lat="48.67727" lon="4.56476">
        <ele>143</ele>
        <time>2018-06-25T08:57:32.303Z</time>
      </trkpt>
      <trkpt lat="48.67657" lon="4.56459">
        <ele>144</ele>
        <time>2018-06-25T08:57:33.303Z</time>
      </trkpt>
      <trkpt lat="48.67636" lon="4.56439">
        <ele>144</ele>
        <time>2018-06-25T08:57:34.303Z</time>
      </trkpt>
      <trkpt lat="48.67366" lon="4.56794">
        <ele>141</ele>
        <time>2018-06-25T08:57:35.303Z</time>
      </trkpt>
      <trkpt lat="48.67272" lon="4.5689">
        <ele>143</ele>
        <time>2018-06-25T08:57:36.303Z</time>
      </trkpt>
      <trkpt lat="48.6697" lon="4.57019">
        <ele>155</ele>
        <time>2018-06-25T08:57:37.303Z</time>
      </trkpt>
      <trkpt lat="48.6691" lon="4.57069">
        <ele>152</ele>
        <time>2018-06-25T08:57:38.303Z</time>
      </trkpt>
      <trkpt lat="48.66804" lon="4.57201">
        <ele>139</ele>
        <time>2018-06-25T08:57:39.303Z</time>
      </trkpt>
      <trkpt lat="48.67085" lon="4.58005">
        <ele>122</ele>
        <time>2018-06-25T08:57:40.303Z</time>
      </trkpt>
      <trkpt lat="48.67159" lon="4.58133">
        <ele>112</ele>
        <time>2018-06-25T08:57:41.303Z</time>
      </trkpt>
      <trkpt lat="48.67222" lon="4.58277">
        <ele>106</ele>
        <time>2018-06-25T08:57:42.303Z</time>
      </trkpt>
      <trkpt lat="48.67238" lon="4.58338">
        <ele>104</ele>
        <time>2018-06-25T08:57:43.303Z</time>
      </trkpt>
      <trkpt lat="48.67265" lon="4.58371">
        <ele>103</ele>
        <time>2018-06-25T08:57:44.303Z</time>
      </trkpt>
      <trkpt lat="48.67357" lon="4.58532">
        <ele>101</ele>
        <time>2018-06-25T08:57:45.303Z</time>
      </trkpt>
      <trkpt lat="48.67366" lon="4.58584">
        <ele>100</ele>
        <time>2018-06-25T08:57:46.303Z</time>
      </trkpt>
      <trkpt lat="48.67342" lon="4.58653">
        <ele>99</ele>
        <time>2018-06-25T08:57:47.303Z</time>
      </trkpt>
      <trkpt lat="48.6734" lon="4.58683">
        <ele>99</ele>
        <time>2018-06-25T08:57:48.303Z</time>
      </trkpt>
      <trkpt lat="48.67383" lon="4.58863">
        <ele>100</ele>
        <time>2018-06-25T08:57:49.303Z</time>
      </trkpt>
      <trkpt lat="48.67382" lon="4.58902">
        <ele>100</ele>
        <time>2018-06-25T08:57:50.303Z</time>
      </trkpt>
      <trkpt lat="48.67208" lon="4.59131">
        <ele>99</ele>
        <time>2018-06-25T08:57:51.303Z</time>
      </trkpt>
      <trkpt lat="48.6707" lon="4.59287">
        <ele>101</ele>
        <time>2018-06-25T08:57:52.303Z</time>
      </trkpt>
      <trkpt lat="48.66928" lon="4.59473">
        <ele>102</ele>
        <time>2018-06-25T08:57:53.303Z</time>
      </trkpt>
      <trkpt lat="48.66879" lon="4.59564">
        <ele>102</ele>
        <time>2018-06-25T08:57:54.303Z</time>
      </trkpt>
      <trkpt lat="48.6681" lon="4.59661">
        <ele>102</ele>
        <time>2018-06-25T08:57:55.303Z</time>
      </trkpt>
      <trkpt lat="48.66587" lon="4.59902">
        <ele>102</ele>
        <time>2018-06-25T08:57:56.303Z</time>
      </trkpt>
      <trkpt lat="48.66405" lon="4.60148">
        <ele>103</ele>
        <time>2018-06-25T08:57:57.303Z</time>
      </trkpt>
      <trkpt lat="48.66314" lon="4.60249">
        <ele>102</ele>
        <time>2018-06-25T08:57:58.303Z</time>
      </trkpt>
      <trkpt lat="48.66176" lon="4.60324">
        <ele>102</ele>
        <time>2018-06-25T08:57:59.303Z</time>
      </trkpt>
      <trkpt lat="48.66061" lon="4.60424">
        <ele>101</ele>
        <time>2018-06-25T08:58:00.303Z</time>
      </trkpt>
      <trkpt lat="48.66046" lon="4.60425">
        <ele>101</ele>
        <time>2018-06-25T08:58:01.303Z</time>
      </trkpt>
      <trkpt lat="48.66033" lon="4.60412">
        <ele>101</ele>
        <time>2018-06-25T08:58:02.303Z</time>
      </trkpt>
      <trkpt lat="48.65659" lon="4.60828">
        <ele>101</ele>
        <time>2018-06-25T08:58:03.303Z</time>
      </trkpt>
      <trkpt lat="48.65628" lon="4.60879">
        <ele>102</ele>
        <time>2018-06-25T08:58:04.303Z</time>
      </trkpt>
      <trkpt lat="48.65584" lon="4.61107">
        <ele>103</ele>
        <time>2018-06-25T08:58:05.303Z</time>
      </trkpt>
      <trkpt lat="48.65546" lon="4.61231">
        <ele>103</ele>
        <time>2018-06-25T08:58:06.303Z</time>
      </trkpt>
      <trkpt lat="48.65505" lon="4.61303">
        <ele>102</ele>
        <time>2018-06-25T08:58:07.303Z</time>
      </trkpt>
      <trkpt lat="48.65456" lon="4.61359">
        <ele>104</ele>
        <time>2018-06-25T08:58:08.303Z</time>
      </trkpt>
      <trkpt lat="48.65332" lon="4.61658">
        <ele>108</ele>
        <time>2018-06-25T08:58:09.303Z</time>
      </trkpt>
      <trkpt lat="48.6524" lon="4.61775">
        <ele>111</ele>
        <time>2018-06-25T08:58:10.303Z</time>
      </trkpt>
      <trkpt lat="48.65168" lon="4.61831">
        <ele>111</ele>
        <time>2018-06-25T08:58:11.303Z</time>
      </trkpt>
      <trkpt lat="48.65147" lon="4.61745">
        <ele>112</ele>
        <time>2018-06-25T08:58:12.303Z</time>
      </trkpt>
      <trkpt lat="48.65122" lon="4.61411">
        <ele>121</ele>
        <time>2018-06-25T08:58:13.303Z</time>
      </trkpt>
      <trkpt lat="48.6505" lon="4.61163">
        <ele>120</ele>
        <time>2018-06-25T08:58:14.303Z</time>
      </trkpt>
      <trkpt lat="48.65039" lon="4.61163">
        <ele>119</ele>
        <time>2018-06-25T08:58:15.303Z</time>
      </trkpt>
      <trkpt lat="48.64887" lon="4.61399">
        <ele>118</ele>
        <time>2018-06-25T08:58:16.303Z</time>
      </trkpt>
      <trkpt lat="48.64646" lon="4.61712">
        <ele>117</ele>
        <time>2018-06-25T08:58:17.303Z</time>
      </trkpt>
      <trkpt lat="48.64567" lon="4.61852">
        <ele>114</ele>
        <time>2018-06-25T08:58:18.303Z</time>
      </trkpt>
      <trkpt lat="48.64378" lon="4.62259">
        <ele>108</ele>
        <time>2018-06-25T08:58:19.303Z</time>
      </trkpt>
      <trkpt lat="48.6423" lon="4.62484">
        <ele>106</ele>
        <time>2018-06-25T08:58:20.303Z</time>
      </trkpt>
      <trkpt lat="48.6417" lon="4.62554">
        <ele>105</ele>
        <time>2018-06-25T08:58:21.303Z</time>
      </trkpt>
      <trkpt lat="48.64103" lon="4.62586">
        <ele>107</ele>
        <time>2018-06-25T08:58:22.303Z</time>
      </trkpt>
      <trkpt lat="48.64014" lon="4.62664">
        <ele>109</ele>
        <time>2018-06-25T08:58:23.303Z</time>
      </trkpt>
      <trkpt lat="48.63931" lon="4.62754">
        <ele>110</ele>
        <time>2018-06-25T08:58:24.303Z</time>
      </trkpt>
      <trkpt lat="48.63783" lon="4.62985">
        <ele>107</ele>
        <time>2018-06-25T08:58:25.303Z</time>
      </trkpt>
      <trkpt lat="48.63767" lon="4.63024">
        <ele>106</ele>
        <time>2018-06-25T08:58:26.303Z</time>
      </trkpt>
      <trkpt lat="48.63711" lon="4.63239">
        <ele>106</ele>
        <time>2018-06-25T08:58:27.303Z</time>
      </trkpt>
      <trkpt lat="48.63702" lon="4.63332">
        <ele>107</ele>
        <time>2018-06-25T08:58:28.303Z</time>
      </trkpt>
      <trkpt lat="48.63566" lon="4.63547">
        <ele>107</ele>
        <time>2018-06-25T08:58:29.303Z</time>
      </trkpt>
      <trkpt lat="48.63505" lon="4.63662">
        <ele>111</ele>
        <time>2018-06-25T08:58:30.303Z</time>
      </trkpt>
      <trkpt lat="48.63415" lon="4.63746">
        <ele>111</ele>
        <time>2018-06-25T08:58:31.303Z</time>
      </trkpt>
      <trkpt lat="48.63303" lon="4.63806">
        <ele>112</ele>
        <time>2018-06-25T08:58:32.303Z</time>
      </trkpt>
      <trkpt lat="48.63169" lon="4.63854">
        <ele>118</ele>
        <time>2018-06-25T08:58:33.303Z</time>
      </trkpt>
      <trkpt lat="48.63116" lon="4.63893">
        <ele>117</ele>
        <time>2018-06-25T08:58:34.303Z</time>
      </trkpt>
      <trkpt lat="48.63038" lon="4.63989">
        <ele>116</ele>
        <time>2018-06-25T08:58:35.303Z</time>
      </trkpt>
      <trkpt lat="48.6299" lon="4.64129">
        <ele>116</ele>
        <time>2018-06-25T08:58:36.303Z</time>
      </trkpt>
      <trkpt lat="48.62973" lon="4.64232">
        <ele>114</ele>
        <time>2018-06-25T08:58:37.303Z</time>
      </trkpt>
      <trkpt lat="48.62941" lon="4.64318">
        <ele>113</ele>
        <time>2018-06-25T08:58:38.303Z</time>
      </trkpt>
      <trkpt lat="48.62913" lon="4.64362">
        <ele>113</ele>
        <time>2018-06-25T08:58:39.303Z</time>
      </trkpt>
      <trkpt lat="48.62859" lon="4.64417">
        <ele>111</ele>
        <time>2018-06-25T08:58:40.303Z</time>
      </trkpt>
      <trkpt lat="48.62736" lon="4.64498">
        <ele>108</ele>
        <time>2018-06-25T08:58:41.303Z</time>
      </trkpt>
      <trkpt lat="48.62708" lon="4.64545">
        <ele>107</ele>
        <time>2018-06-25T08:58:42.303Z</time>
      </trkpt>
      <trkpt lat="48.62711" lon="4.64669">
        <ele>106</ele>
        <time>2018-06-25T08:58:43.303Z</time>
      </trkpt>
      <trkpt lat="48.62686" lon="4.6475">
        <ele>105</ele>
        <time>2018-06-25T08:58:44.303Z</time>
      </trkpt>
      <trkpt lat="48.62664" lon="4.64786">
        <ele>106</ele>
        <time>2018-06-25T08:58:45.303Z</time>
      </trkpt>
      <trkpt lat="48.62614" lon="4.64824">
        <ele>109</ele>
        <time>2018-06-25T08:58:46.303Z</time>
      </trkpt>
      <trkpt lat="48.62608" lon="4.6484">
        <ele>109</ele>
        <time>2018-06-25T08:58:47.303Z</time>
      </trkpt>
      <trkpt lat="48.62694" lon="4.651">
        <ele>110</ele>
        <time>2018-06-25T08:58:48.303Z</time>
      </trkpt>
      <trkpt lat="48.62699" lon="4.65136">
        <ele>110</ele>
        <time>2018-06-25T08:58:49.303Z</time>
      </trkpt>
      <trkpt lat="48.62695" lon="4.65192">
        <ele>111</ele>
        <time>2018-06-25T08:58:50.303Z</time>
      </trkpt>
      <trkpt lat="48.62626" lon="4.65386">
        <ele>109</ele>
        <time>2018-06-25T08:58:51.303Z</time>
      </trkpt>
      <trkpt lat="48.62497" lon="4.65594">
        <ele>108</ele>
        <time>2018-06-25T08:58:52.303Z</time>
      </trkpt>
      <trkpt lat="48.6249" lon="4.65634">
        <ele>108</ele>
        <time>2018-06-25T08:58:53.303Z</time>
      </trkpt>
      <trkpt lat="48.62474" lon="4.65628">
        <ele>109</ele>
        <time>2018-06-25T08:58:54.303Z</time>
      </trkpt>
      <trkpt lat="48.6222" lon="4.65974">
        <ele>110</ele>
        <time>2018-06-25T08:58:55.303Z</time>
      </trkpt>
      <trkpt lat="48.62146" lon="4.66089">
        <ele>110</ele>
        <time>2018-06-25T08:58:56.303Z</time>
      </trkpt>
      <trkpt lat="48.61817" lon="4.66694">
        <ele>112</ele>
        <time>2018-06-25T08:58:57.303Z</time>
      </trkpt>
      <trkpt lat="48.61552" lon="4.66973">
        <ele>116</ele>
        <time>2018-06-25T08:58:58.303Z</time>
      </trkpt>
      <trkpt lat="48.61523" lon="4.66988">
        <ele>116</ele>
        <time>2018-06-25T08:58:59.303Z</time>
      </trkpt>
      <trkpt lat="48.6147" lon="4.66993">
        <ele>117</ele>
        <time>2018-06-25T08:59:00.303Z</time>
      </trkpt>
      <trkpt lat="48.61324" lon="4.66972">
        <ele>120</ele>
        <time>2018-06-25T08:59:01.303Z</time>
      </trkpt>
      <trkpt lat="48.61156" lon="4.66923">
        <ele>119</ele>
        <time>2018-06-25T08:59:02.303Z</time>
      </trkpt>
      <trkpt lat="48.61108" lon="4.66898">
        <ele>120</ele>
        <time>2018-06-25T08:59:03.303Z</time>
      </trkpt>
      <trkpt lat="48.60606" lon="4.66429">
        <ele>119</ele>
        <time>2018-06-25T08:59:04.303Z</time>
      </trkpt>
      <trkpt lat="48.60574" lon="4.66417">
        <ele>121</ele>
        <time>2018-06-25T08:59:05.303Z</time>
      </trkpt>
      <trkpt lat="48.60555" lon="4.66424">
        <ele>124</ele>
        <time>2018-06-25T08:59:06.303Z</time>
      </trkpt>
      <trkpt lat="48.60521" lon="4.66463">
        <ele>126</ele>
        <time>2018-06-25T08:59:07.303Z</time>
      </trkpt>
      <trkpt lat="48.60373" lon="4.66724">
        <ele>116</ele>
        <time>2018-06-25T08:59:08.303Z</time>
      </trkpt>
      <trkpt lat="48.60342" lon="4.66758">
        <ele>116</ele>
        <time>2018-06-25T08:59:09.303Z</time>
      </trkpt>
      <trkpt lat="48.60034" lon="4.66854">
        <ele>121</ele>
        <time>2018-06-25T08:59:10.303Z</time>
      </trkpt>
      <trkpt lat="48.59795" lon="4.67029">
        <ele>126</ele>
        <time>2018-06-25T08:59:11.303Z</time>
      </trkpt>
      <trkpt lat="48.59761" lon="4.67044">
        <ele>126</ele>
        <time>2018-06-25T08:59:12.303Z</time>
      </trkpt>
      <trkpt lat="48.59549" lon="4.67067">
        <ele>126</ele>
        <time>2018-06-25T08:59:13.303Z</time>
      </trkpt>
      <trkpt lat="48.59459" lon="4.67057">
        <ele>124</ele>
        <time>2018-06-25T08:59:14.303Z</time>
      </trkpt>
      <trkpt lat="48.59236" lon="4.67004">
        <ele>126</ele>
        <time>2018-06-25T08:59:15.303Z</time>
      </trkpt>
      <trkpt lat="48.59072" lon="4.66989">
        <ele>125</ele>
        <time>2018-06-25T08:59:16.303Z</time>
      </trkpt>
      <trkpt lat="48.59026" lon="4.67001">
        <ele>124</ele>
        <time>2018-06-25T08:59:17.303Z</time>
      </trkpt>
      <trkpt lat="48.58995" lon="4.67025">
        <ele>123</ele>
        <time>2018-06-25T08:59:18.303Z</time>
      </trkpt>
      <trkpt lat="48.58637" lon="4.67445">
        <ele>118</ele>
        <time>2018-06-25T08:59:19.303Z</time>
      </trkpt>
      <trkpt lat="48.58621" lon="4.67452">
        <ele>119</ele>
        <time>2018-06-25T08:59:20.303Z</time>
      </trkpt>
      <trkpt lat="48.58576" lon="4.67416">
        <ele>121</ele>
        <time>2018-06-25T08:59:21.303Z</time>
      </trkpt>
      <trkpt lat="48.58509" lon="4.67391">
        <ele>125</ele>
        <time>2018-06-25T08:59:22.303Z</time>
      </trkpt>
      <trkpt lat="48.58415" lon="4.6731">
        <ele>130</ele>
        <time>2018-06-25T08:59:23.303Z</time>
      </trkpt>
      <trkpt lat="48.58393" lon="4.67187">
        <ele>129</ele>
        <time>2018-06-25T08:59:24.303Z</time>
      </trkpt>
      <trkpt lat="48.58363" lon="4.67087">
        <ele>129</ele>
        <time>2018-06-25T08:59:25.303Z</time>
      </trkpt>
      <trkpt lat="48.58297" lon="4.66772">
        <ele>131</ele>
        <time>2018-06-25T08:59:26.303Z</time>
      </trkpt>
      <trkpt lat="48.58157" lon="4.66464">
        <ele>135</ele>
        <time>2018-06-25T08:59:27.303Z</time>
      </trkpt>
      <trkpt lat="48.58123" lon="4.66419">
        <ele>135</ele>
        <time>2018-06-25T08:59:28.303Z</time>
      </trkpt>
      <trkpt lat="48.58069" lon="4.6638">
        <ele>134</ele>
        <time>2018-06-25T08:59:29.303Z</time>
      </trkpt>
      <trkpt lat="48.57945" lon="4.66341">
        <ele>135</ele>
        <time>2018-06-25T08:59:30.303Z</time>
      </trkpt>
      <trkpt lat="48.57904" lon="4.66307">
        <ele>138</ele>
        <time>2018-06-25T08:59:31.303Z</time>
      </trkpt>
      <trkpt lat="48.57705" lon="4.66036">
        <ele>137</ele>
        <time>2018-06-25T08:59:32.303Z</time>
      </trkpt>
      <trkpt lat="48.5753" lon="4.66044">
        <ele>134</ele>
        <time>2018-06-25T08:59:33.303Z</time>
      </trkpt>
      <trkpt lat="48.57503" lon="4.65993">
        <ele>136</ele>
        <time>2018-06-25T08:59:34.303Z</time>
      </trkpt>
      <trkpt lat="48.57415" lon="4.65999">
        <ele>135</ele>
        <time>2018-06-25T08:59:35.303Z</time>
      </trkpt>
      <trkpt lat="48.57408" lon="4.66008">
        <ele>134</ele>
        <time>2018-06-25T08:59:36.303Z</time>
      </trkpt>
      <trkpt lat="48.57397" lon="4.66137">
        <ele>130</ele>
        <time>2018-06-25T08:59:37.303Z</time>
      </trkpt>
      <trkpt lat="48.5733" lon="4.66476">
        <ele>132</ele>
        <time>2018-06-25T08:59:38.303Z</time>
      </trkpt>
      <trkpt lat="48.5715" lon="4.67171">
        <ele>129</ele>
        <time>2018-06-25T08:59:39.303Z</time>
      </trkpt>
      <trkpt lat="48.57073" lon="4.67263">
        <ele>131</ele>
        <time>2018-06-25T08:59:40.303Z</time>
      </trkpt>
      <trkpt lat="48.57046" lon="4.67279">
        <ele>131</ele>
        <time>2018-06-25T08:59:41.303Z</time>
      </trkpt>
      <trkpt lat="48.56644" lon="4.66893">
        <ele>128</ele>
        <time>2018-06-25T08:59:42.303Z</time>
      </trkpt>
      <trkpt lat="48.56598" lon="4.66832">
        <ele>129</ele>
        <time>2018-06-25T08:59:43.303Z</time>
      </trkpt>
      <trkpt lat="48.56443" lon="4.6657">
        <ele>134</ele>
        <time>2018-06-25T08:59:44.303Z</time>
      </trkpt>
      <trkpt lat="48.56326" lon="4.66538">
        <ele>133</ele>
        <time>2018-06-25T08:59:45.303Z</time>
      </trkpt>
      <trkpt lat="48.5623" lon="4.66498">
        <ele>130</ele>
        <time>2018-06-25T08:59:46.303Z</time>
      </trkpt>
      <trkpt lat="48.56142" lon="4.66429">
        <ele>129</ele>
        <time>2018-06-25T08:59:47.303Z</time>
      </trkpt>
      <trkpt lat="48.56022" lon="4.66287">
        <ele>129</ele>
        <time>2018-06-25T08:59:48.303Z</time>
      </trkpt>
      <trkpt lat="48.56017" lon="4.66265">
        <ele>129</ele>
        <time>2018-06-25T08:59:49.303Z</time>
      </trkpt>
      <trkpt lat="48.56099" lon="4.6599">
        <ele>130</ele>
        <time>2018-06-25T08:59:50.303Z</time>
      </trkpt>
      <trkpt lat="48.56103" lon="4.65959">
        <ele>130</ele>
        <time>2018-06-25T08:59:51.303Z</time>
      </trkpt>
      <trkpt lat="48.56074" lon="4.65923">
        <ele>129</ele>
        <time>2018-06-25T08:59:52.303Z</time>
      </trkpt>
      <trkpt lat="48.55821" lon="4.65812">
        <ele>122</ele>
        <time>2018-06-25T08:59:53.303Z</time>
      </trkpt>
      <trkpt lat="48.55723" lon="4.65655">
        <ele>124</ele>
        <time>2018-06-25T08:59:54.303Z</time>
      </trkpt>
      <trkpt lat="48.55649" lon="4.65405">
        <ele>128</ele>
        <time>2018-06-25T08:59:55.303Z</time>
      </trkpt>
      <trkpt lat="48.55581" lon="4.65258">
        <ele>131</ele>
        <time>2018-06-25T08:59:56.303Z</time>
      </trkpt>
      <trkpt lat="48.55473" lon="4.65174">
        <ele>132</ele>
        <time>2018-06-25T08:59:57.303Z</time>
      </trkpt>
      <trkpt lat="48.55428" lon="4.65097">
        <ele>132</ele>
        <time>2018-06-25T08:59:58.303Z</time>
      </trkpt>
      <trkpt lat="48.55419" lon="4.65099">
        <ele>132</ele>
        <time>2018-06-25T08:59:59.303Z</time>
      </trkpt>
      <trkpt lat="48.55297" lon="4.65289">
        <ele>131</ele>
        <time>2018-06-25T09:00:00.303Z</time>
      </trkpt>
      <trkpt lat="48.5525" lon="4.65341">
        <ele>131</ele>
        <time>2018-06-25T09:00:01.303Z</time>
      </trkpt>
      <trkpt lat="48.55126" lon="4.65516">
        <ele>127</ele>
        <time>2018-06-25T09:00:02.303Z</time>
      </trkpt>
      <trkpt lat="48.55095" lon="4.65576">
        <ele>126</ele>
        <time>2018-06-25T09:00:03.303Z</time>
      </trkpt>
      <trkpt lat="48.55066" lon="4.65663">
        <ele>129</ele>
        <time>2018-06-25T09:00:04.303Z</time>
      </trkpt>
      <trkpt lat="48.5499" lon="4.66041">
        <ele>124</ele>
        <time>2018-06-25T09:00:05.303Z</time>
      </trkpt>
      <trkpt lat="48.54974" lon="4.66076">
        <ele>125</ele>
        <time>2018-06-25T09:00:06.303Z</time>
      </trkpt>
      <trkpt lat="48.54888" lon="4.66135">
        <ele>127</ele>
        <time>2018-06-25T09:00:07.303Z</time>
      </trkpt>
      <trkpt lat="48.54859" lon="4.66167">
        <ele>127</ele>
        <time>2018-06-25T09:00:08.303Z</time>
      </trkpt>
      <trkpt lat="48.54604" lon="4.66596">
        <ele>132</ele>
        <time>2018-06-25T09:00:09.303Z</time>
      </trkpt>
      <trkpt lat="48.54231" lon="4.67085">
        <ele>132</ele>
        <time>2018-06-25T09:00:10.303Z</time>
      </trkpt>
      <trkpt lat="48.54034" lon="4.67497">
        <ele>128</ele>
        <time>2018-06-25T09:00:11.303Z</time>
      </trkpt>
      <trkpt lat="48.53769" lon="4.67355">
        <ele>119</ele>
        <time>2018-06-25T09:00:12.303Z</time>
      </trkpt>
      <trkpt lat="48.53806" lon="4.67201">
        <ele>119</ele>
        <time>2018-06-25T09:00:13.303Z</time>
      </trkpt>
      <trkpt lat="48.5379" lon="4.67041">
        <ele>121</ele>
        <time>2018-06-25T09:00:14.303Z</time>
      </trkpt>
      <trkpt lat="48.53185" lon="4.66927">
        <ele>125</ele>
        <time>2018-06-25T09:00:15.303Z</time>
      </trkpt>
      <trkpt lat="48.53169" lon="4.66911">
        <ele>125</ele>
        <time>2018-06-25T09:00:16.303Z</time>
      </trkpt>
      <trkpt lat="48.52892" lon="4.66373">
        <ele>123</ele>
        <time>2018-06-25T09:00:17.303Z</time>
      </trkpt>
      <trkpt lat="48.528" lon="4.66127">
        <ele>120</ele>
        <time>2018-06-25T09:00:18.303Z</time>
      </trkpt>
      <trkpt lat="48.52694" lon="4.65974">
        <ele>119</ele>
        <time>2018-06-25T09:00:19.303Z</time>
      </trkpt>
      <trkpt lat="48.52635" lon="4.65754">
        <ele>120</ele>
        <time>2018-06-25T09:00:20.303Z</time>
      </trkpt>
      <trkpt lat="48.52588" lon="4.65665">
        <ele>120</ele>
        <time>2018-06-25T09:00:21.303Z</time>
      </trkpt>
      <trkpt lat="48.52568" lon="4.65645">
        <ele>120</ele>
        <time>2018-06-25T09:00:22.303Z</time>
      </trkpt>
      <trkpt lat="48.52517" lon="4.65627">
        <ele>121</ele>
        <time>2018-06-25T09:00:23.303Z</time>
      </trkpt>
      <trkpt lat="48.52289" lon="4.65458">
        <ele>125</ele>
        <time>2018-06-25T09:00:24.303Z</time>
      </trkpt>
      <trkpt lat="48.52221" lon="4.65428">
        <ele>125</ele>
        <time>2018-06-25T09:00:25.303Z</time>
      </trkpt>
      <trkpt lat="48.51894" lon="4.65435">
        <ele>125</ele>
        <time>2018-06-25T09:00:26.303Z</time>
      </trkpt>
      <trkpt lat="48.51866" lon="4.65418">
        <ele>126</ele>
        <time>2018-06-25T09:00:27.303Z</time>
      </trkpt>
      <trkpt lat="48.51844" lon="4.65388">
        <ele>125</ele>
        <time>2018-06-25T09:00:28.303Z</time>
      </trkpt>
      <trkpt lat="48.51568" lon="4.64671">
        <ele>136</ele>
        <time>2018-06-25T09:00:29.303Z</time>
      </trkpt>
      <trkpt lat="48.51448" lon="4.64328">
        <ele>140</ele>
        <time>2018-06-25T09:00:30.303Z</time>
      </trkpt>
      <trkpt lat="48.51416" lon="4.64264">
        <ele>138</ele>
        <time>2018-06-25T09:00:31.303Z</time>
      </trkpt>
      <trkpt lat="48.51207" lon="4.63707">
        <ele>133</ele>
        <time>2018-06-25T09:00:32.303Z</time>
      </trkpt>
      <trkpt lat="48.51142" lon="4.6357">
        <ele>134</ele>
        <time>2018-06-25T09:00:33.303Z</time>
      </trkpt>
      <trkpt lat="48.50916" lon="4.63257">
        <ele>140</ele>
        <time>2018-06-25T09:00:34.303Z</time>
      </trkpt>
      <trkpt lat="48.50922" lon="4.63264">
        <ele>139</ele>
        <time>2018-06-25T09:00:35.303Z</time>
      </trkpt>
      <trkpt lat="48.50949" lon="4.63189">
        <ele>142</ele>
        <time>2018-06-25T09:00:36.303Z</time>
      </trkpt>
      <trkpt lat="48.50969" lon="4.63088">
        <ele>142</ele>
        <time>2018-06-25T09:00:37.303Z</time>
      </trkpt>
      <trkpt lat="48.50971" lon="4.62849">
        <ele>131</ele>
        <time>2018-06-25T09:00:38.303Z</time>
      </trkpt>
      <trkpt lat="48.51016" lon="4.62648">
        <ele>132</ele>
        <time>2018-06-25T09:00:39.303Z</time>
      </trkpt>
      <trkpt lat="48.5103" lon="4.62456">
        <ele>130</ele>
        <time>2018-06-25T09:00:40.303Z</time>
      </trkpt>
      <trkpt lat="48.51055" lon="4.62279">
        <ele>128</ele>
        <time>2018-06-25T09:00:41.303Z</time>
      </trkpt>
      <trkpt lat="48.51059" lon="4.62184">
        <ele>129</ele>
        <time>2018-06-25T09:00:42.303Z</time>
      </trkpt>
      <trkpt lat="48.51048" lon="4.6196">
        <ele>130</ele>
        <time>2018-06-25T09:00:43.303Z</time>
      </trkpt>
      <trkpt lat="48.51063" lon="4.61883">
        <ele>130</ele>
        <time>2018-06-25T09:00:44.303Z</time>
      </trkpt>
      <trkpt lat="48.51202" lon="4.61664">
        <ele>128</ele>
        <time>2018-06-25T09:00:45.303Z</time>
      </trkpt>
      <trkpt lat="48.51221" lon="4.61617">
        <ele>128</ele>
        <time>2018-06-25T09:00:46.303Z</time>
      </trkpt>
      <trkpt lat="48.51249" lon="4.61416">
        <ele>130</ele>
        <time>2018-06-25T09:00:47.303Z</time>
      </trkpt>
      <trkpt lat="48.51301" lon="4.61249">
        <ele>133</ele>
        <time>2018-06-25T09:00:48.303Z</time>
      </trkpt>
      <trkpt lat="48.51321" lon="4.61225">
        <ele>133</ele>
        <time>2018-06-25T09:00:49.303Z</time>
      </trkpt>
      <trkpt lat="48.5132" lon="4.61214">
        <ele>132</ele>
        <time>2018-06-25T09:00:50.303Z</time>
      </trkpt>
      <trkpt lat="48.51114" lon="4.60981">
        <ele>130</ele>
        <time>2018-06-25T09:00:51.303Z</time>
      </trkpt>
      <trkpt lat="48.50924" lon="4.60804">
        <ele>131</ele>
        <time>2018-06-25T09:00:52.303Z</time>
      </trkpt>
      <trkpt lat="48.50871" lon="4.60795">
        <ele>128</ele>
        <time>2018-06-25T09:00:53.303Z</time>
      </trkpt>
      <trkpt lat="48.5083" lon="4.60774">
        <ele>124</ele>
        <time>2018-06-25T09:00:54.303Z</time>
      </trkpt>
      <trkpt lat="48.50766" lon="4.60707">
        <ele>123</ele>
        <time>2018-06-25T09:00:55.303Z</time>
      </trkpt>
      <trkpt lat="48.50706" lon="4.6068">
        <ele>122</ele>
        <time>2018-06-25T09:00:56.303Z</time>
      </trkpt>
      <trkpt lat="48.50533" lon="4.60694">
        <ele>122</ele>
        <time>2018-06-25T09:00:57.303Z</time>
      </trkpt>
      <trkpt lat="48.50521" lon="4.60684">
        <ele>122</ele>
        <time>2018-06-25T09:00:58.303Z</time>
      </trkpt>
      <trkpt lat="48.50515" lon="4.60567">
        <ele>122</ele>
        <time>2018-06-25T09:00:59.303Z</time>
      </trkpt>
      <trkpt lat="48.50405" lon="4.60573">
        <ele>123</ele>
        <time>2018-06-25T09:01:00.303Z</time>
      </trkpt>
      <trkpt lat="48.50362" lon="4.6056">
        <ele>123</ele>
        <time>2018-06-25T09:01:01.303Z</time>
      </trkpt>
      <trkpt lat="48.50187" lon="4.60375">
        <ele>121</ele>
        <time>2018-06-25T09:01:02.303Z</time>
      </trkpt>
      <trkpt lat="48.50157" lon="4.60357">
        <ele>120</ele>
        <time>2018-06-25T09:01:03.303Z</time>
      </trkpt>
      <trkpt lat="48.50094" lon="4.60348">
        <ele>120</ele>
        <time>2018-06-25T09:01:04.303Z</time>
      </trkpt>
      <trkpt lat="48.5007" lon="4.60361">
        <ele>120</ele>
        <time>2018-06-25T09:01:05.303Z</time>
      </trkpt>
      <trkpt lat="48.50009" lon="4.60433">
        <ele>120</ele>
        <time>2018-06-25T09:01:06.303Z</time>
      </trkpt>
      <trkpt lat="48.49917" lon="4.60482">
        <ele>121</ele>
        <time>2018-06-25T09:01:07.303Z</time>
      </trkpt>
      <trkpt lat="48.49265" lon="4.6095">
        <ele>116</ele>
        <time>2018-06-25T09:01:08.303Z</time>
      </trkpt>
      <trkpt lat="48.49174" lon="4.61133">
        <ele>113</ele>
        <time>2018-06-25T09:01:09.303Z</time>
      </trkpt>
      <trkpt lat="48.49037" lon="4.61285">
        <ele>115</ele>
        <time>2018-06-25T09:01:10.303Z</time>
      </trkpt>
      <trkpt lat="48.48952" lon="4.61423">
        <ele>116</ele>
        <time>2018-06-25T09:01:11.303Z</time>
      </trkpt>
      <trkpt lat="48.4892" lon="4.61454">
        <ele>116</ele>
        <time>2018-06-25T09:01:12.303Z</time>
      </trkpt>
      <trkpt lat="48.48855" lon="4.61481">
        <ele>117</ele>
        <time>2018-06-25T09:01:13.303Z</time>
      </trkpt>
      <trkpt lat="48.4881" lon="4.61469">
        <ele>119</ele>
        <time>2018-06-25T09:01:14.303Z</time>
      </trkpt>
      <trkpt lat="48.48675" lon="4.61353">
        <ele>120</ele>
        <time>2018-06-25T09:01:15.303Z</time>
      </trkpt>
      <trkpt lat="48.48533" lon="4.61214">
        <ele>118</ele>
        <time>2018-06-25T09:01:16.303Z</time>
      </trkpt>
      <trkpt lat="48.48423" lon="4.61124">
        <ele>116</ele>
        <time>2018-06-25T09:01:17.303Z</time>
      </trkpt>
      <trkpt lat="48.48367" lon="4.61048">
        <ele>117</ele>
        <time>2018-06-25T09:01:18.303Z</time>
      </trkpt>
      <trkpt lat="48.48282" lon="4.60834">
        <ele>119</ele>
        <time>2018-06-25T09:01:19.303Z</time>
      </trkpt>
      <trkpt lat="48.48254" lon="4.60783">
        <ele>118</ele>
        <time>2018-06-25T09:01:20.303Z</time>
      </trkpt>
      <trkpt lat="48.48168" lon="4.6069">
        <ele>117</ele>
        <time>2018-06-25T09:01:21.303Z</time>
      </trkpt>
      <trkpt lat="48.4815" lon="4.60656">
        <ele>117</ele>
        <time>2018-06-25T09:01:22.303Z</time>
      </trkpt>
      <trkpt lat="48.48082" lon="4.60388">
        <ele>116</ele>
        <time>2018-06-25T09:01:23.303Z</time>
      </trkpt>
      <trkpt lat="48.47957" lon="4.59972">
        <ele>115</ele>
        <time>2018-06-25T09:01:24.303Z</time>
      </trkpt>
      <trkpt lat="48.47904" lon="4.59745">
        <ele>114</ele>
        <time>2018-06-25T09:01:25.303Z</time>
      </trkpt>
      <trkpt lat="48.47861" lon="4.59603">
        <ele>112</ele>
        <time>2018-06-25T09:01:26.303Z</time>
      </trkpt>
      <trkpt lat="48.47859" lon="4.59401">
        <ele>113</ele>
        <time>2018-06-25T09:01:27.303Z</time>
      </trkpt>
      <trkpt lat="48.47848" lon="4.59348">
        <ele>114</ele>
        <time>2018-06-25T09:01:28.303Z</time>
      </trkpt>
      <trkpt lat="48.47767" lon="4.59125">
        <ele>114</ele>
        <time>2018-06-25T09:01:29.303Z</time>
      </trkpt>
      <trkpt lat="48.47746" lon="4.58995">
        <ele>115</ele>
        <time>2018-06-25T09:01:30.303Z</time>
      </trkpt>
      <trkpt lat="48.47707" lon="4.58968">
        <ele>116</ele>
        <time>2018-06-25T09:01:31.303Z</time>
      </trkpt>
      <trkpt lat="48.47521" lon="4.58981">
        <ele>112</ele>
        <time>2018-06-25T09:01:32.303Z</time>
      </trkpt>
      <trkpt lat="48.47521" lon="4.58986">
        <ele>112</ele>
        <time>2018-06-25T09:01:33.303Z</time>
      </trkpt>
      <trkpt lat="48.47479" lon="4.5899">
        <ele>112</ele>
        <time>2018-06-25T09:01:34.303Z</time>
      </trkpt>
      <trkpt lat="48.47126" lon="4.59137">
        <ele>111</ele>
        <time>2018-06-25T09:01:35.303Z</time>
      </trkpt>
      <trkpt lat="48.47126" lon="4.59137">
        <ele>111</ele>
        <time>2018-06-25T09:01:36.303Z</time>
      </trkpt>
      <trkpt lat="48.4706" lon="4.59164">
        <ele>111</ele>
        <time>2018-06-25T09:01:37.303Z</time>
      </trkpt>
      <trkpt lat="48.4681" lon="4.59137">
        <ele>112</ele>
        <time>2018-06-25T09:01:38.303Z</time>
      </trkpt>
      <trkpt lat="48.46488" lon="4.58958">
        <ele>112</ele>
        <time>2018-06-25T09:01:39.303Z</time>
      </trkpt>
      <trkpt lat="48.46337" lon="4.5901">
        <ele>113</ele>
        <time>2018-06-25T09:01:40.303Z</time>
      </trkpt>
      <trkpt lat="48.46154" lon="4.59041">
        <ele>112</ele>
        <time>2018-06-25T09:01:41.303Z</time>
      </trkpt>
      <trkpt lat="48.46087" lon="4.59041">
        <ele>114</ele>
        <time>2018-06-25T09:01:42.303Z</time>
      </trkpt>
      <trkpt lat="48.46064" lon="4.5903">
        <ele>114</ele>
        <time>2018-06-25T09:01:43.303Z</time>
      </trkpt>
      <trkpt lat="48.46053" lon="4.59022">
        <ele>114</ele>
        <time>2018-06-25T09:01:44.303Z</time>
      </trkpt>
      <trkpt lat="48.46019" lon="4.58985">
        <ele>113</ele>
        <time>2018-06-25T09:01:45.303Z</time>
      </trkpt>
      <trkpt lat="48.46007" lon="4.58974">
        <ele>113</ele>
        <time>2018-06-25T09:01:46.303Z</time>
      </trkpt>
      <trkpt lat="48.4599" lon="4.58967">
        <ele>114</ele>
        <time>2018-06-25T09:01:47.303Z</time>
      </trkpt>
      <trkpt lat="48.45932" lon="4.58958">
        <ele>114</ele>
        <time>2018-06-25T09:01:48.303Z</time>
      </trkpt>
      <trkpt lat="48.45885" lon="4.58949">
        <ele>115</ele>
        <time>2018-06-25T09:01:49.303Z</time>
      </trkpt>
      <trkpt lat="48.45873" lon="4.58939">
        <ele>115</ele>
        <time>2018-06-25T09:01:50.303Z</time>
      </trkpt>
      <trkpt lat="48.45852" lon="4.58911">
        <ele>116</ele>
        <time>2018-06-25T09:01:51.303Z</time>
      </trkpt>
      <trkpt lat="48.45841" lon="4.58899">
        <ele>116</ele>
        <time>2018-06-25T09:01:52.303Z</time>
      </trkpt>
      <trkpt lat="48.45827" lon="4.58895">
        <ele>116</ele>
        <time>2018-06-25T09:01:53.303Z</time>
      </trkpt>
      <trkpt lat="48.45814" lon="4.58897">
        <ele>116</ele>
        <time>2018-06-25T09:01:54.303Z</time>
      </trkpt>
      <trkpt lat="48.45791" lon="4.58909">
        <ele>117</ele>
        <time>2018-06-25T09:01:55.303Z</time>
      </trkpt>
      <trkpt lat="48.4569" lon="4.5898">
        <ele>117</ele>
        <time>2018-06-25T09:01:56.303Z</time>
      </trkpt>
      <trkpt lat="48.45636" lon="4.59024">
        <ele>118</ele>
        <time>2018-06-25T09:01:57.303Z</time>
      </trkpt>
      <trkpt lat="48.45603" lon="4.58937">
        <ele>119</ele>
        <time>2018-06-25T09:01:58.303Z</time>
      </trkpt>
      <trkpt lat="48.45601" lon="4.58933">
        <ele>119</ele>
        <time>2018-06-25T09:01:59.303Z</time>
      </trkpt>
      <trkpt lat="48.45598" lon="4.58932">
        <ele>119</ele>
        <time>2018-06-25T09:02:00.303Z</time>
      </trkpt>
      <trkpt lat="48.45564" lon="4.58944">
        <ele>119</ele>
        <time>2018-06-25T09:02:01.303Z</time>
      </trkpt>
      <trkpt lat="48.45532" lon="4.5896">
        <ele>120</ele>
        <time>2018-06-25T09:02:02.303Z</time>
      </trkpt>
      <trkpt lat="48.45516" lon="4.58902">
        <ele>120</ele>
        <time>2018-06-25T09:02:03.303Z</time>
      </trkpt>
      <trkpt lat="48.4549" lon="4.58777">
        <ele>119</ele>
        <time>2018-06-25T09:02:04.303Z</time>
      </trkpt>
      <trkpt lat="48.45483" lon="4.58756">
        <ele>118</ele>
        <time>2018-06-25T09:02:05.303Z</time>
      </trkpt>
      <trkpt lat="48.45466" lon="4.5873">
        <ele>119</ele>
        <time>2018-06-25T09:02:06.303Z</time>
      </trkpt>
      <trkpt lat="48.4491" lon="4.58182">
        <ele>117</ele>
        <time>2018-06-25T09:02:07.303Z</time>
      </trkpt>
      <trkpt lat="48.44894" lon="4.5817">
        <ele>117</ele>
        <time>2018-06-25T09:02:08.303Z</time>
      </trkpt>
      <trkpt lat="48.44876" lon="4.58163">
        <ele>117</ele>
        <time>2018-06-25T09:02:09.303Z</time>
      </trkpt>
      <trkpt lat="48.4486" lon="4.58163">
        <ele>118</ele>
        <time>2018-06-25T09:02:10.303Z</time>
      </trkpt>
      <trkpt lat="48.44837" lon="4.58165">
        <ele>118</ele>
        <time>2018-06-25T09:02:11.303Z</time>
      </trkpt>
      <trkpt lat="48.44739" lon="4.58194">
        <ele>117</ele>
        <time>2018-06-25T09:02:12.303Z</time>
      </trkpt>
      <trkpt lat="48.44729" lon="4.58192">
        <ele>117</ele>
        <time>2018-06-25T09:02:13.303Z</time>
      </trkpt>
      <trkpt lat="48.44726" lon="4.5819">
        <ele>117</ele>
        <time>2018-06-25T09:02:14.303Z</time>
      </trkpt>
      <trkpt lat="48.44723" lon="4.58186">
        <ele>117</ele>
        <time>2018-06-25T09:02:15.303Z</time>
      </trkpt>
      <trkpt lat="48.44716" lon="4.58163">
        <ele>117</ele>
        <time>2018-06-25T09:02:16.303Z</time>
      </trkpt>
      <trkpt lat="48.44681" lon="4.5802">
        <ele>116</ele>
        <time>2018-06-25T09:02:17.303Z</time>
      </trkpt>
      <trkpt lat="48.44674" lon="4.58012">
        <ele>116</ele>
        <time>2018-06-25T09:02:18.303Z</time>
      </trkpt>
      <trkpt lat="48.44666" lon="4.58011">
        <ele>116</ele>
        <time>2018-06-25T09:02:19.303Z</time>
      </trkpt>
      <trkpt lat="48.44659" lon="4.58016">
        <ele>116</ele>
        <time>2018-06-25T09:02:20.303Z</time>
      </trkpt>
      <trkpt lat="48.4464" lon="4.58038">
        <ele>116</ele>
        <time>2018-06-25T09:02:21.303Z</time>
      </trkpt>
      <trkpt lat="48.44614" lon="4.58082">
        <ele>117</ele>
        <time>2018-06-25T09:02:22.303Z</time>
      </trkpt>
      <trkpt lat="48.44555" lon="4.58169">
        <ele>117</ele>
        <time>2018-06-25T09:02:23.303Z</time>
      </trkpt>
      <trkpt lat="48.44507" lon="4.58229">
        <ele>118</ele>
        <time>2018-06-25T09:02:24.303Z</time>
      </trkpt>
      <trkpt lat="48.44426" lon="4.58287">
        <ele>119</ele>
        <time>2018-06-25T09:02:25.303Z</time>
      </trkpt>
      <trkpt lat="48.44341" lon="4.58357">
        <ele>118</ele>
        <time>2018-06-25T09:02:26.303Z</time>
      </trkpt>
      <trkpt lat="48.44209" lon="4.58487">
        <ele>120</ele>
        <time>2018-06-25T09:02:27.303Z</time>
      </trkpt>
      <trkpt lat="48.44095" lon="4.58581">
        <ele>119</ele>
        <time>2018-06-25T09:02:28.303Z</time>
      </trkpt>
      <trkpt lat="48.4406" lon="4.58608">
        <ele>120</ele>
        <time>2018-06-25T09:02:29.303Z</time>
      </trkpt>
      <trkpt lat="48.43942" lon="4.5867">
        <ele>122</ele>
        <time>2018-06-25T09:02:30.303Z</time>
      </trkpt>
      <trkpt lat="48.43831" lon="4.58711">
        <ele>122</ele>
        <time>2018-06-25T09:02:31.303Z</time>
      </trkpt>
      <trkpt lat="48.4382" lon="4.58714">
        <ele>122</ele>
        <time>2018-06-25T09:02:32.303Z</time>
      </trkpt>
      <trkpt lat="48.4381" lon="4.58713">
        <ele>122</ele>
        <time>2018-06-25T09:02:33.303Z</time>
      </trkpt>
      <trkpt lat="48.43777" lon="4.58698">
        <ele>121</ele>
        <time>2018-06-25T09:02:34.303Z</time>
      </trkpt>
      <trkpt lat="48.4367" lon="4.58677">
        <ele>119</ele>
        <time>2018-06-25T09:02:35.303Z</time>
      </trkpt>
      <trkpt lat="48.43652" lon="4.5868">
        <ele>119</ele>
        <time>2018-06-25T09:02:36.303Z</time>
      </trkpt>
      <trkpt lat="48.43564" lon="4.5872">
        <ele>120</ele>
        <time>2018-06-25T09:02:37.303Z</time>
      </trkpt>
      <trkpt lat="48.43139" lon="4.57561">
        <ele>115</ele>
        <time>2018-06-25T09:02:38.303Z</time>
      </trkpt>
      <trkpt lat="48.43122" lon="4.57523">
        <ele>114</ele>
        <time>2018-06-25T09:02:39.303Z</time>
      </trkpt>
      <trkpt lat="48.43108" lon="4.57499">
        <ele>114</ele>
        <time>2018-06-25T09:02:40.303Z</time>
      </trkpt>
      <trkpt lat="48.42975" lon="4.57316">
        <ele>115</ele>
        <time>2018-06-25T09:02:41.303Z</time>
      </trkpt>
      <trkpt lat="48.42137" lon="4.56176">
        <ele>118</ele>
        <time>2018-06-25T09:02:42.303Z</time>
      </trkpt>
      <trkpt lat="48.42113" lon="4.56153">
        <ele>118</ele>
        <time>2018-06-25T09:02:43.303Z</time>
      </trkpt>
      <trkpt lat="48.42084" lon="4.56137">
        <ele>119</ele>
        <time>2018-06-25T09:02:44.303Z</time>
      </trkpt>
      <trkpt lat="48.41554" lon="4.55874">
        <ele>119</ele>
        <time>2018-06-25T09:02:45.303Z</time>
      </trkpt>
      <trkpt lat="48.4091" lon="4.5555">
        <ele>124</ele>
        <time>2018-06-25T09:02:46.303Z</time>
      </trkpt>
      <trkpt lat="48.40814" lon="4.55504">
        <ele>123</ele>
        <time>2018-06-25T09:02:47.303Z</time>
      </trkpt>
      <trkpt lat="48.40798" lon="4.55461">
        <ele>122</ele>
        <time>2018-06-25T09:02:48.303Z</time>
      </trkpt>
      <trkpt lat="48.40707" lon="4.55271">
        <ele>122</ele>
        <time>2018-06-25T09:02:49.303Z</time>
      </trkpt>
      <trkpt lat="48.40298" lon="4.54422">
        <ele>122</ele>
        <time>2018-06-25T09:02:50.303Z</time>
      </trkpt>
      <trkpt lat="48.39942" lon="4.53691">
        <ele>121</ele>
        <time>2018-06-25T09:02:51.303Z</time>
      </trkpt>
      <trkpt lat="48.3993" lon="4.5366">
        <ele>121</ele>
        <time>2018-06-25T09:02:52.303Z</time>
      </trkpt>
      <trkpt lat="48.39889" lon="4.53578">
        <ele>121</ele>
        <time>2018-06-25T09:02:53.303Z</time>
      </trkpt>
      <trkpt lat="48.39627" lon="4.53034">
        <ele>123</ele>
        <time>2018-06-25T09:02:54.303Z</time>
      </trkpt>
      <trkpt lat="48.39627" lon="4.53035">
        <ele>123</ele>
        <time>2018-06-25T09:02:55.303Z</time>
      </trkpt>
      <trkpt lat="48.39551" lon="4.52877">
        <ele>123</ele>
        <time>2018-06-25T09:02:56.303Z</time>
      </trkpt>
      <trkpt lat="48.39555" lon="4.52867">
        <ele>123</ele>
        <time>2018-06-25T09:02:57.303Z</time>
      </trkpt>
      <trkpt lat="48.39554" lon="4.52859">
        <ele>123</ele>
        <time>2018-06-25T09:02:58.303Z</time>
      </trkpt>
      <trkpt lat="48.3955" lon="4.52853">
        <ele>123</ele>
        <time>2018-06-25T09:02:59.303Z</time>
      </trkpt>
      <trkpt lat="48.39544" lon="4.52852">
        <ele>123</ele>
        <time>2018-06-25T09:03:00.303Z</time>
      </trkpt>
      <trkpt lat="48.39541" lon="4.52854">
        <ele>123</ele>
        <time>2018-06-25T09:03:01.303Z</time>
      </trkpt>
      <trkpt lat="48.39472" lon="4.52705">
        <ele>124</ele>
        <time>2018-06-25T09:03:02.303Z</time>
      </trkpt>
      <trkpt lat="48.39442" lon="4.52646">
        <ele>124</ele>
        <time>2018-06-25T09:03:03.303Z</time>
      </trkpt>
      <trkpt lat="48.39442" lon="4.52647">
        <ele>124</ele>
        <time>2018-06-25T09:03:04.303Z</time>
      </trkpt>
      <trkpt lat="48.39414" lon="4.52593">
        <ele>125</ele>
        <time>2018-06-25T09:03:05.303Z</time>
      </trkpt>
      <trkpt lat="48.39366" lon="4.52638">
        <ele>126</ele>
        <time>2018-06-25T09:03:06.303Z</time>
      </trkpt>
      <trkpt lat="48.39255" lon="4.52701">
        <ele>126</ele>
        <time>2018-06-25T09:03:07.303Z</time>
      </trkpt>
      <trkpt lat="48.39245" lon="4.52703">
        <ele>126</ele>
        <time>2018-06-25T09:03:08.303Z</time>
      </trkpt>
      <trkpt lat="48.39208" lon="4.52474">
        <ele>126</ele>
        <time>2018-06-25T09:03:09.303Z</time>
      </trkpt>
      <trkpt lat="48.39199" lon="4.52454">
        <ele>127</ele>
        <time>2018-06-25T09:03:10.303Z</time>
      </trkpt>
      <trkpt lat="48.39151" lon="4.5246">
        <ele>126</ele>
        <time>2018-06-25T09:03:11.303Z</time>
      </trkpt>
      <trkpt lat="48.38927" lon="4.52445">
        <ele>125</ele>
        <time>2018-06-25T09:03:12.303Z</time>
      </trkpt>
      <trkpt lat="48.38917" lon="4.52355">
        <ele>127</ele>
        <time>2018-06-25T09:03:13.303Z</time>
      </trkpt>
      <trkpt lat="48.38636" lon="4.52496">
        <ele>125</ele>
        <time>2018-06-25T09:03:14.303Z</time>
      </trkpt>
      <trkpt lat="48.3831" lon="4.52559">
        <ele>125</ele>
        <time>2018-06-25T09:03:15.303Z</time>
      </trkpt>
      <trkpt lat="48.38286" lon="4.52588">
        <ele>124</ele>
        <time>2018-06-25T09:03:16.303Z</time>
      </trkpt>
      <trkpt lat="48.38258" lon="4.52573">
        <ele>123</ele>
        <time>2018-06-25T09:03:17.303Z</time>
      </trkpt>
      <trkpt lat="48.38074" lon="4.52576">
        <ele>125</ele>
        <time>2018-06-25T09:03:18.303Z</time>
      </trkpt>
      <trkpt lat="48.37608" lon="4.52539">
        <ele>126</ele>
        <time>2018-06-25T09:03:19.303Z</time>
      </trkpt>
      <trkpt lat="48.37469" lon="4.52567">
        <ele>125</ele>
        <time>2018-06-25T09:03:20.303Z</time>
      </trkpt>
      <trkpt lat="48.37417" lon="4.52375">
        <ele>123</ele>
        <time>2018-06-25T09:03:21.303Z</time>
      </trkpt>
      <trkpt lat="48.37118" lon="4.51807">
        <ele>140</ele>
        <time>2018-06-25T09:03:22.303Z</time>
      </trkpt>
      <trkpt lat="48.37062" lon="4.51748">
        <ele>144</ele>
        <time>2018-06-25T09:03:23.303Z</time>
      </trkpt>
      <trkpt lat="48.3699" lon="4.51702">
        <ele>151</ele>
        <time>2018-06-25T09:03:24.303Z</time>
      </trkpt>
      <trkpt lat="48.36882" lon="4.51572">
        <ele>152</ele>
        <time>2018-06-25T09:03:25.303Z</time>
      </trkpt>
      <trkpt lat="48.36621" lon="4.51405">
        <ele>142</ele>
        <time>2018-06-25T09:03:26.303Z</time>
      </trkpt>
      <trkpt lat="48.36132" lon="4.51009">
        <ele>134</ele>
        <time>2018-06-25T09:03:27.303Z</time>
      </trkpt>
      <trkpt lat="48.36022" lon="4.50936">
        <ele>133</ele>
        <time>2018-06-25T09:03:28.303Z</time>
      </trkpt>
      <trkpt lat="48.36007" lon="4.50916">
        <ele>133</ele>
        <time>2018-06-25T09:03:29.303Z</time>
      </trkpt>
      <trkpt lat="48.35905" lon="4.50586">
        <ele>130</ele>
        <time>2018-06-25T09:03:30.303Z</time>
      </trkpt>
      <trkpt lat="48.35857" lon="4.50574">
        <ele>127</ele>
        <time>2018-06-25T09:03:31.303Z</time>
      </trkpt>
      <trkpt lat="48.35732" lon="4.50647">
        <ele>127</ele>
        <time>2018-06-25T09:03:32.303Z</time>
      </trkpt>
      <trkpt lat="48.35626" lon="4.50642">
        <ele>131</ele>
        <time>2018-06-25T09:03:33.303Z</time>
      </trkpt>
      <trkpt lat="48.35588" lon="4.50547">
        <ele>131</ele>
        <time>2018-06-25T09:03:34.303Z</time>
      </trkpt>
      <trkpt lat="48.35259" lon="4.49535">
        <ele>132</ele>
        <time>2018-06-25T09:03:35.303Z</time>
      </trkpt>
      <trkpt lat="48.35204" lon="4.49423">
        <ele>134</ele>
        <time>2018-06-25T09:03:36.303Z</time>
      </trkpt>
      <trkpt lat="48.34688" lon="4.48876">
        <ele>137</ele>
        <time>2018-06-25T09:03:37.303Z</time>
      </trkpt>
      <trkpt lat="48.34656" lon="4.48867">
        <ele>138</ele>
        <time>2018-06-25T09:03:38.303Z</time>
      </trkpt>
      <trkpt lat="48.34639" lon="4.48772">
        <ele>140</ele>
        <time>2018-06-25T09:03:39.303Z</time>
      </trkpt>
      <trkpt lat="48.34527" lon="4.48666">
        <ele>141</ele>
        <time>2018-06-25T09:03:40.303Z</time>
      </trkpt>
      <trkpt lat="48.34515" lon="4.48672">
        <ele>141</ele>
        <time>2018-06-25T09:03:41.303Z</time>
      </trkpt>
      <trkpt lat="48.34511" lon="4.48692">
        <ele>142</ele>
        <time>2018-06-25T09:03:42.303Z</time>
      </trkpt>
      <trkpt lat="48.34527" lon="4.48799">
        <ele>141</ele>
        <time>2018-06-25T09:03:43.303Z</time>
      </trkpt>
      <trkpt lat="48.34545" lon="4.4907">
        <ele>136</ele>
        <time>2018-06-25T09:03:44.303Z</time>
      </trkpt>
      <trkpt lat="48.34536" lon="4.49113">
        <ele>137</ele>
        <time>2018-06-25T09:03:45.303Z</time>
      </trkpt>
      <trkpt lat="48.3448" lon="4.49172">
        <ele>137</ele>
        <time>2018-06-25T09:03:46.303Z</time>
      </trkpt>
      <trkpt lat="48.34398" lon="4.49161">
        <ele>137</ele>
        <time>2018-06-25T09:03:47.303Z</time>
      </trkpt>
      <trkpt lat="48.34363" lon="4.49187">
        <ele>137</ele>
        <time>2018-06-25T09:03:48.303Z</time>
      </trkpt>
      <trkpt lat="48.34338" lon="4.4926">
        <ele>136</ele>
        <time>2018-06-25T09:03:49.303Z</time>
      </trkpt>
      <trkpt lat="48.34236" lon="4.49394">
        <ele>135</ele>
        <time>2018-06-25T09:03:50.303Z</time>
      </trkpt>
      <trkpt lat="48.3421" lon="4.49501">
        <ele>136</ele>
        <time>2018-06-25T09:03:51.303Z</time>
      </trkpt>
      <trkpt lat="48.34188" lon="4.4953">
        <ele>136</ele>
        <time>2018-06-25T09:03:52.303Z</time>
      </trkpt>
      <trkpt lat="48.34129" lon="4.49444">
        <ele>137</ele>
        <time>2018-06-25T09:03:53.303Z</time>
      </trkpt>
      <trkpt lat="48.34113" lon="4.49441">
        <ele>137</ele>
        <time>2018-06-25T09:03:54.303Z</time>
      </trkpt>
      <trkpt lat="48.34094" lon="4.49458">
        <ele>137</ele>
        <time>2018-06-25T09:03:55.303Z</time>
      </trkpt>
      <trkpt lat="48.33997" lon="4.49493">
        <ele>138</ele>
        <time>2018-06-25T09:03:56.303Z</time>
      </trkpt>
      <trkpt lat="48.33985" lon="4.49507">
        <ele>140</ele>
        <time>2018-06-25T09:03:57.303Z</time>
      </trkpt>
      <trkpt lat="48.33982" lon="4.49531">
        <ele>142</ele>
        <time>2018-06-25T09:03:58.303Z</time>
      </trkpt>
      <trkpt lat="48.34017" lon="4.49663">
        <ele>141</ele>
        <time>2018-06-25T09:03:59.303Z</time>
      </trkpt>
      <trkpt lat="48.34012" lon="4.49692">
        <ele>141</ele>
        <time>2018-06-25T09:04:00.303Z</time>
      </trkpt>
      <trkpt lat="48.33956" lon="4.49763">
        <ele>143</ele>
        <time>2018-06-25T09:04:01.303Z</time>
      </trkpt>
      <trkpt lat="48.33896" lon="4.498">
        <ele>146</ele>
        <time>2018-06-25T09:04:02.303Z</time>
      </trkpt>
      <trkpt lat="48.33871" lon="4.49836">
        <ele>147</ele>
        <time>2018-06-25T09:04:03.303Z</time>
      </trkpt>
      <trkpt lat="48.33848" lon="4.4991">
        <ele>147</ele>
        <time>2018-06-25T09:04:04.303Z</time>
      </trkpt>
      <trkpt lat="48.33775" lon="4.49967">
        <ele>147</ele>
        <time>2018-06-25T09:04:05.303Z</time>
      </trkpt>
      <trkpt lat="48.33715" lon="4.50071">
        <ele>143</ele>
        <time>2018-06-25T09:04:06.303Z</time>
      </trkpt>
      <trkpt lat="48.33677" lon="4.50119">
        <ele>142</ele>
        <time>2018-06-25T09:04:07.303Z</time>
      </trkpt>
      <trkpt lat="48.33676" lon="4.50144">
        <ele>142</ele>
        <time>2018-06-25T09:04:08.303Z</time>
      </trkpt>
      <trkpt lat="48.33709" lon="4.5021">
        <ele>140</ele>
        <time>2018-06-25T09:04:09.303Z</time>
      </trkpt>
      <trkpt lat="48.33711" lon="4.50241">
        <ele>141</ele>
        <time>2018-06-25T09:04:10.303Z</time>
      </trkpt>
      <trkpt lat="48.33692" lon="4.50329">
        <ele>142</ele>
        <time>2018-06-25T09:04:11.303Z</time>
      </trkpt>
      <trkpt lat="48.33655" lon="4.5042">
        <ele>139</ele>
        <time>2018-06-25T09:04:12.303Z</time>
      </trkpt>
      <trkpt lat="48.33643" lon="4.50432">
        <ele>140</ele>
        <time>2018-06-25T09:04:13.303Z</time>
      </trkpt>
      <trkpt lat="48.33607" lon="4.50415">
        <ele>144</ele>
        <time>2018-06-25T09:04:14.303Z</time>
      </trkpt>
      <trkpt lat="48.33572" lon="4.50508">
        <ele>142</ele>
        <time>2018-06-25T09:04:15.303Z</time>
      </trkpt>
      <trkpt lat="48.33554" lon="4.50526">
        <ele>142</ele>
        <time>2018-06-25T09:04:16.303Z</time>
      </trkpt>
      <trkpt lat="48.33469" lon="4.50533">
        <ele>144</ele>
        <time>2018-06-25T09:04:17.303Z</time>
      </trkpt>
      <trkpt lat="48.33329" lon="4.50592">
        <ele>144</ele>
        <time>2018-06-25T09:04:18.303Z</time>
      </trkpt>
      <trkpt lat="48.3329" lon="4.50661">
        <ele>140</ele>
        <time>2018-06-25T09:04:19.303Z</time>
      </trkpt>
      <trkpt lat="48.33242" lon="4.50619">
        <ele>145</ele>
        <time>2018-06-25T09:04:20.303Z</time>
      </trkpt>
      <trkpt lat="48.33141" lon="4.50745">
        <ele>144</ele>
        <time>2018-06-25T09:04:21.303Z</time>
      </trkpt>
      <trkpt lat="48.33037" lon="4.5091">
        <ele>139</ele>
        <time>2018-06-25T09:04:22.303Z</time>
      </trkpt>
      <trkpt lat="48.33027" lon="4.50915">
        <ele>139</ele>
        <time>2018-06-25T09:04:23.303Z</time>
      </trkpt>
      <trkpt lat="48.32987" lon="4.50877">
        <ele>144</ele>
        <time>2018-06-25T09:04:24.303Z</time>
      </trkpt>
      <trkpt lat="48.32908" lon="4.50907">
        <ele>144</ele>
        <time>2018-06-25T09:04:25.303Z</time>
      </trkpt>
      <trkpt lat="48.32826" lon="4.51031">
        <ele>147</ele>
        <time>2018-06-25T09:04:26.303Z</time>
      </trkpt>
      <trkpt lat="48.32574" lon="4.50789">
        <ele>159</ele>
        <time>2018-06-25T09:04:27.303Z</time>
      </trkpt>
      <trkpt lat="48.32568" lon="4.50779">
        <ele>159</ele>
        <time>2018-06-25T09:04:28.303Z</time>
      </trkpt>
      <trkpt lat="48.32418" lon="4.50522">
        <ele>161</ele>
        <time>2018-06-25T09:04:29.303Z</time>
      </trkpt>
      <trkpt lat="48.32398" lon="4.50517">
        <ele>160</ele>
        <time>2018-06-25T09:04:30.303Z</time>
      </trkpt>
      <trkpt lat="48.32185" lon="4.50625">
        <ele>146</ele>
        <time>2018-06-25T09:04:31.303Z</time>
      </trkpt>
      <trkpt lat="48.31941" lon="4.50865">
        <ele>143</ele>
        <time>2018-06-25T09:04:32.303Z</time>
      </trkpt>
      <trkpt lat="48.31788" lon="4.50962">
        <ele>153</ele>
        <time>2018-06-25T09:04:33.303Z</time>
      </trkpt>
      <trkpt lat="48.31728" lon="4.51133">
        <ele>153</ele>
        <time>2018-06-25T09:04:34.303Z</time>
      </trkpt>
      <trkpt lat="48.31608" lon="4.51574">
        <ele>142</ele>
        <time>2018-06-25T09:04:35.303Z</time>
      </trkpt>
      <trkpt lat="48.3153" lon="4.51828">
        <ele>157</ele>
        <time>2018-06-25T09:04:36.303Z</time>
      </trkpt>
      <trkpt lat="48.314" lon="4.52311">
        <ele>160</ele>
        <time>2018-06-25T09:04:37.303Z</time>
      </trkpt>
      <trkpt lat="48.31389" lon="4.52328">
        <ele>159</ele>
        <time>2018-06-25T09:04:38.303Z</time>
      </trkpt>
      <trkpt lat="48.31258" lon="4.52258">
        <ele>160</ele>
        <time>2018-06-25T09:04:39.303Z</time>
      </trkpt>
      <trkpt lat="48.31069" lon="4.52199">
        <ele>159</ele>
        <time>2018-06-25T09:04:40.303Z</time>
      </trkpt>
      <trkpt lat="48.31082" lon="4.51949">
        <ele>164</ele>
        <time>2018-06-25T09:04:41.303Z</time>
      </trkpt>
      <trkpt lat="48.31076" lon="4.51935">
        <ele>165</ele>
        <time>2018-06-25T09:04:42.303Z</time>
      </trkpt>
      <trkpt lat="48.30974" lon="4.51881">
        <ele>165</ele>
        <time>2018-06-25T09:04:43.303Z</time>
      </trkpt>
      <trkpt lat="48.30903" lon="4.51868">
        <ele>164</ele>
        <time>2018-06-25T09:04:44.303Z</time>
      </trkpt>
      <trkpt lat="48.3052" lon="4.51762">
        <ele>173</ele>
        <time>2018-06-25T09:04:45.303Z</time>
      </trkpt>
      <trkpt lat="48.30428" lon="4.51715">
        <ele>172</ele>
        <time>2018-06-25T09:04:46.303Z</time>
      </trkpt>
      <trkpt lat="48.30306" lon="4.51617">
        <ele>164</ele>
        <time>2018-06-25T09:04:47.303Z</time>
      </trkpt>
      <trkpt lat="48.30196" lon="4.51558">
        <ele>160</ele>
        <time>2018-06-25T09:04:48.303Z</time>
      </trkpt>
      <trkpt lat="48.3004" lon="4.51546">
        <ele>156</ele>
        <time>2018-06-25T09:04:49.303Z</time>
      </trkpt>
      <trkpt lat="48.2996" lon="4.51576">
        <ele>154</ele>
        <time>2018-06-25T09:04:50.303Z</time>
      </trkpt>
      <trkpt lat="48.29781" lon="4.5169">
        <ele>156</ele>
        <time>2018-06-25T09:04:51.303Z</time>
      </trkpt>
      <trkpt lat="48.29767" lon="4.51713">
        <ele>156</ele>
        <time>2018-06-25T09:04:52.303Z</time>
      </trkpt>
      <trkpt lat="48.2973" lon="4.51716">
        <ele>156</ele>
        <time>2018-06-25T09:04:53.303Z</time>
      </trkpt>
      <trkpt lat="48.29565" lon="4.5163">
        <ele>157</ele>
        <time>2018-06-25T09:04:54.303Z</time>
      </trkpt>
      <trkpt lat="48.29547" lon="4.51611">
        <ele>157</ele>
        <time>2018-06-25T09:04:55.303Z</time>
      </trkpt>
      <trkpt lat="48.29501" lon="4.51615">
        <ele>159</ele>
        <time>2018-06-25T09:04:56.303Z</time>
      </trkpt>
      <trkpt lat="48.29547" lon="4.51629">
        <ele>157</ele>
        <time>2018-06-25T09:04:57.303Z</time>
      </trkpt>
      <trkpt lat="48.29592" lon="4.5139">
        <ele>154</ele>
        <time>2018-06-25T09:04:58.303Z</time>
      </trkpt>
      <trkpt lat="48.29617" lon="4.51092">
        <ele>155</ele>
        <time>2018-06-25T09:04:59.303Z</time>
      </trkpt>
      <trkpt lat="48.2961" lon="4.50972">
        <ele>156</ele>
        <time>2018-06-25T09:05:00.303Z</time>
      </trkpt>
      <trkpt lat="48.29587" lon="4.50881">
        <ele>156</ele>
        <time>2018-06-25T09:05:01.303Z</time>
      </trkpt>
      <trkpt lat="48.29513" lon="4.50804">
        <ele>157</ele>
        <time>2018-06-25T09:05:02.303Z</time>
      </trkpt>
      <trkpt lat="48.295" lon="4.50768">
        <ele>157</ele>
        <time>2018-06-25T09:05:03.303Z</time>
      </trkpt>
      <trkpt lat="48.29494" lon="4.50525">
        <ele>163</ele>
        <time>2018-06-25T09:05:04.303Z</time>
      </trkpt>
      <trkpt lat="48.29466" lon="4.50432">
        <ele>170</ele>
        <time>2018-06-25T09:05:05.303Z</time>
      </trkpt>
      <trkpt lat="48.29463" lon="4.50393">
        <ele>173</ele>
        <time>2018-06-25T09:05:06.303Z</time>
      </trkpt>
      <trkpt lat="48.29552" lon="4.50062">
        <ele>183</ele>
        <time>2018-06-25T09:05:07.303Z</time>
      </trkpt>
      <trkpt lat="48.29553" lon="4.5001">
        <ele>183</ele>
        <time>2018-06-25T09:05:08.303Z</time>
      </trkpt>
      <trkpt lat="48.29536" lon="4.50001">
        <ele>183</ele>
        <time>2018-06-25T09:05:09.303Z</time>
      </trkpt>
      <trkpt lat="48.29552" lon="4.49986">
        <ele>183</ele>
        <time>2018-06-25T09:05:10.303Z</time>
      </trkpt>
      <trkpt lat="48.29515" lon="4.49501">
        <ele>183</ele>
        <time>2018-06-25T09:05:11.303Z</time>
      </trkpt>
      <trkpt lat="48.29519" lon="4.49451">
        <ele>182</ele>
        <time>2018-06-25T09:05:12.303Z</time>
      </trkpt>
      <trkpt lat="48.29531" lon="4.49405">
        <ele>180</ele>
        <time>2018-06-25T09:05:13.303Z</time>
      </trkpt>
      <trkpt lat="48.29677" lon="4.49073">
        <ele>171</ele>
        <time>2018-06-25T09:05:14.303Z</time>
      </trkpt>
      <trkpt lat="48.29735" lon="4.48965">
        <ele>164</ele>
        <time>2018-06-25T09:05:15.303Z</time>
      </trkpt>
      <trkpt lat="48.29756" lon="4.48889">
        <ele>160</ele>
        <time>2018-06-25T09:05:16.303Z</time>
      </trkpt>
      <trkpt lat="48.29773" lon="4.48764">
        <ele>161</ele>
        <time>2018-06-25T09:05:17.303Z</time>
      </trkpt>
      <trkpt lat="48.29795" lon="4.48471">
        <ele>175</ele>
        <time>2018-06-25T09:05:18.303Z</time>
      </trkpt>
      <trkpt lat="48.29782" lon="4.48395">
        <ele>178</ele>
        <time>2018-06-25T09:05:19.303Z</time>
      </trkpt>
      <trkpt lat="48.29719" lon="4.4831">
        <ele>178</ele>
        <time>2018-06-25T09:05:20.303Z</time>
      </trkpt>
      <trkpt lat="48.29715" lon="4.48289">
        <ele>178</ele>
        <time>2018-06-25T09:05:21.303Z</time>
      </trkpt>
      <trkpt lat="48.29813" lon="4.479">
        <ele>175</ele>
        <time>2018-06-25T09:05:22.303Z</time>
      </trkpt>
      <trkpt lat="48.29845" lon="4.47741">
        <ele>171</ele>
        <time>2018-06-25T09:05:23.303Z</time>
      </trkpt>
      <trkpt lat="48.29989" lon="4.47161">
        <ele>167</ele>
        <time>2018-06-25T09:05:24.303Z</time>
      </trkpt>
      <trkpt lat="48.30005" lon="4.47069">
        <ele>168</ele>
        <time>2018-06-25T09:05:25.303Z</time>
      </trkpt>
      <trkpt lat="48.30085" lon="4.46748">
        <ele>173</ele>
        <time>2018-06-25T09:05:26.303Z</time>
      </trkpt>
      <trkpt lat="48.30133" lon="4.46518">
        <ele>178</ele>
        <time>2018-06-25T09:05:27.303Z</time>
      </trkpt>
      <trkpt lat="48.30149" lon="4.46368">
        <ele>182</ele>
        <time>2018-06-25T09:05:28.303Z</time>
      </trkpt>
      <trkpt lat="48.30145" lon="4.46218">
        <ele>182</ele>
        <time>2018-06-25T09:05:29.303Z</time>
      </trkpt>
      <trkpt lat="48.30126" lon="4.46126">
        <ele>181</ele>
        <time>2018-06-25T09:05:30.303Z</time>
      </trkpt>
      <trkpt lat="48.30037" lon="4.45133">
        <ele>159</ele>
        <time>2018-06-25T09:05:31.303Z</time>
      </trkpt>
      <trkpt lat="48.29997" lon="4.44758">
        <ele>157</ele>
        <time>2018-06-25T09:05:32.303Z</time>
      </trkpt>
      <trkpt lat="48.29979" lon="4.44754">
        <ele>156</ele>
        <time>2018-06-25T09:05:33.303Z</time>
      </trkpt>
      <trkpt lat="48.29829" lon="4.44923">
        <ele>152</ele>
        <time>2018-06-25T09:05:34.303Z</time>
      </trkpt>
      <trkpt lat="48.29309" lon="4.44">
        <ele>160</ele>
        <time>2018-06-25T09:05:35.303Z</time>
      </trkpt>
      <trkpt lat="48.29552" lon="4.43669">
        <ele>151</ele>
        <time>2018-06-25T09:05:36.303Z</time>
      </trkpt>
      <trkpt lat="48.29555" lon="4.43653">
        <ele>151</ele>
        <time>2018-06-25T09:05:37.303Z</time>
      </trkpt>
      <trkpt lat="48.29432" lon="4.4345">
        <ele>154</ele>
        <time>2018-06-25T09:05:38.303Z</time>
      </trkpt>
      <trkpt lat="48.2922" lon="4.43148">
        <ele>163</ele>
        <time>2018-06-25T09:05:39.303Z</time>
      </trkpt>
      <trkpt lat="48.2921" lon="4.43144">
        <ele>164</ele>
        <time>2018-06-25T09:05:40.303Z</time>
      </trkpt>
      <trkpt lat="48.29214" lon="4.43126">
        <ele>163</ele>
        <time>2018-06-25T09:05:41.303Z</time>
      </trkpt>
      <trkpt lat="48.29208" lon="4.43111">
        <ele>162</ele>
        <time>2018-06-25T09:05:42.303Z</time>
      </trkpt>
      <trkpt lat="48.2919" lon="4.43105">
        <ele>163</ele>
        <time>2018-06-25T09:05:43.303Z</time>
      </trkpt>
      <trkpt lat="48.29076" lon="4.42957">
        <ele>168</ele>
        <time>2018-06-25T09:05:44.303Z</time>
      </trkpt>
      <trkpt lat="48.28549" lon="4.4221">
        <ele>160</ele>
        <time>2018-06-25T09:05:45.303Z</time>
      </trkpt>
      <trkpt lat="48.28518" lon="4.42188">
        <ele>161</ele>
        <time>2018-06-25T09:05:46.303Z</time>
      </trkpt>
      <trkpt lat="48.28331" lon="4.42182">
        <ele>167</ele>
        <time>2018-06-25T09:05:47.303Z</time>
      </trkpt>
      <trkpt lat="48.28211" lon="4.42119">
        <ele>170</ele>
        <time>2018-06-25T09:05:48.303Z</time>
      </trkpt>
      <trkpt lat="48.28105" lon="4.42195">
        <ele>173</ele>
        <time>2018-06-25T09:05:49.303Z</time>
      </trkpt>
      <trkpt lat="48.28023" lon="4.42208">
        <ele>173</ele>
        <time>2018-06-25T09:05:50.303Z</time>
      </trkpt>
      <trkpt lat="48.27956" lon="4.42199">
        <ele>174</ele>
        <time>2018-06-25T09:05:51.303Z</time>
      </trkpt>
      <trkpt lat="48.27828" lon="4.42146">
        <ele>171</ele>
        <time>2018-06-25T09:05:52.303Z</time>
      </trkpt>
      <trkpt lat="48.27807" lon="4.42278">
        <ele>172</ele>
        <time>2018-06-25T09:05:53.303Z</time>
      </trkpt>
      <trkpt lat="48.27775" lon="4.42378">
        <ele>173</ele>
        <time>2018-06-25T09:05:54.303Z</time>
      </trkpt>
      <trkpt lat="48.27767" lon="4.42372">
        <ele>173</ele>
        <time>2018-06-25T09:05:55.303Z</time>
      </trkpt>
      <trkpt lat="48.27745" lon="4.42288">
        <ele>168</ele>
        <time>2018-06-25T09:05:56.303Z</time>
      </trkpt>
      <trkpt lat="48.27467" lon="4.42289">
        <ele>167</ele>
        <time>2018-06-25T09:05:57.303Z</time>
      </trkpt>
      <trkpt lat="48.27418" lon="4.42279">
        <ele>165</ele>
        <time>2018-06-25T09:05:58.303Z</time>
      </trkpt>
      <trkpt lat="48.27287" lon="4.4222">
        <ele>168</ele>
        <time>2018-06-25T09:05:59.303Z</time>
      </trkpt>
      <trkpt lat="48.27167" lon="4.42111">
        <ele>167</ele>
        <time>2018-06-25T09:06:00.303Z</time>
      </trkpt>
      <trkpt lat="48.27122" lon="4.4203">
        <ele>165</ele>
        <time>2018-06-25T09:06:01.303Z</time>
      </trkpt>
      <trkpt lat="48.27004" lon="4.41866">
        <ele>162</ele>
        <time>2018-06-25T09:06:02.303Z</time>
      </trkpt>
      <trkpt lat="48.27008" lon="4.41851">
        <ele>161</ele>
        <time>2018-06-25T09:06:03.303Z</time>
      </trkpt>
      <trkpt lat="48.27128" lon="4.41703">
        <ele>159</ele>
        <time>2018-06-25T09:06:04.303Z</time>
      </trkpt>
      <trkpt lat="48.27199" lon="4.41512">
        <ele>155</ele>
        <time>2018-06-25T09:06:05.303Z</time>
      </trkpt>
      <trkpt lat="48.272" lon="4.41449">
        <ele>155</ele>
        <time>2018-06-25T09:06:06.303Z</time>
      </trkpt>
      <trkpt lat="48.27153" lon="4.41311">
        <ele>155</ele>
        <time>2018-06-25T09:06:07.303Z</time>
      </trkpt>
      <trkpt lat="48.27152" lon="4.41234">
        <ele>156</ele>
        <time>2018-06-25T09:06:08.303Z</time>
      </trkpt>
      <trkpt lat="48.27146" lon="4.41225">
        <ele>156</ele>
        <time>2018-06-25T09:06:09.303Z</time>
      </trkpt>
      <trkpt lat="48.27127" lon="4.41219">
        <ele>156</ele>
        <time>2018-06-25T09:06:10.303Z</time>
      </trkpt>
      <trkpt lat="48.2711" lon="4.41146">
        <ele>157</ele>
        <time>2018-06-25T09:06:11.303Z</time>
      </trkpt>
      <trkpt lat="48.27055" lon="4.41044">
        <ele>158</ele>
        <time>2018-06-25T09:06:12.303Z</time>
      </trkpt>
      <trkpt lat="48.27044" lon="4.41042">
        <ele>158</ele>
        <time>2018-06-25T09:06:13.303Z</time>
      </trkpt>
      <trkpt lat="48.26989" lon="4.41141">
        <ele>154</ele>
        <time>2018-06-25T09:06:14.303Z</time>
      </trkpt>
      <trkpt lat="48.26972" lon="4.41149">
        <ele>154</ele>
        <time>2018-06-25T09:06:15.303Z</time>
      </trkpt>
      <trkpt lat="48.26866" lon="4.41087">
        <ele>153</ele>
        <time>2018-06-25T09:06:16.303Z</time>
      </trkpt>
      <trkpt lat="48.26653" lon="4.40914">
        <ele>154</ele>
        <time>2018-06-25T09:06:17.303Z</time>
      </trkpt>
      <trkpt lat="48.26203" lon="4.40609">
        <ele>153</ele>
        <time>2018-06-25T09:06:18.303Z</time>
      </trkpt>
      <trkpt lat="48.26035" lon="4.40522">
        <ele>151</ele>
        <time>2018-06-25T09:06:19.303Z</time>
      </trkpt>
      <trkpt lat="48.25852" lon="4.40531">
        <ele>148</ele>
        <time>2018-06-25T09:06:20.303Z</time>
      </trkpt>
      <trkpt lat="48.25783" lon="4.40499">
        <ele>149</ele>
        <time>2018-06-25T09:06:21.303Z</time>
      </trkpt>
      <trkpt lat="48.25564" lon="4.40323">
        <ele>155</ele>
        <time>2018-06-25T09:06:22.303Z</time>
      </trkpt>
      <trkpt lat="48.25483" lon="4.40272">
        <ele>158</ele>
        <time>2018-06-25T09:06:23.303Z</time>
      </trkpt>
      <trkpt lat="48.25438" lon="4.40257">
        <ele>161</ele>
        <time>2018-06-25T09:06:24.303Z</time>
      </trkpt>
      <trkpt lat="48.25333" lon="4.40249">
        <ele>158</ele>
        <time>2018-06-25T09:06:25.303Z</time>
      </trkpt>
      <trkpt lat="48.25283" lon="4.40218">
        <ele>155</ele>
        <time>2018-06-25T09:06:26.303Z</time>
      </trkpt>
      <trkpt lat="48.25223" lon="4.40149">
        <ele>153</ele>
        <time>2018-06-25T09:06:27.303Z</time>
      </trkpt>
      <trkpt lat="48.2517" lon="4.40063">
        <ele>155</ele>
        <time>2018-06-25T09:06:28.303Z</time>
      </trkpt>
      <trkpt lat="48.25112" lon="4.39912">
        <ele>155</ele>
        <time>2018-06-25T09:06:29.303Z</time>
      </trkpt>
      <trkpt lat="48.25089" lon="4.39876">
        <ele>155</ele>
        <time>2018-06-25T09:06:30.303Z</time>
      </trkpt>
      <trkpt lat="48.24884" lon="4.39678">
        <ele>156</ele>
        <time>2018-06-25T09:06:31.303Z</time>
      </trkpt>
      <trkpt lat="48.24761" lon="4.39516">
        <ele>160</ele>
        <time>2018-06-25T09:06:32.303Z</time>
      </trkpt>
      <trkpt lat="48.24656" lon="4.3942">
        <ele>158</ele>
        <time>2018-06-25T09:06:33.303Z</time>
      </trkpt>
      <trkpt lat="48.24431" lon="4.39275">
        <ele>150</ele>
        <time>2018-06-25T09:06:34.303Z</time>
      </trkpt>
      <trkpt lat="48.24226" lon="4.39128">
        <ele>159</ele>
        <time>2018-06-25T09:06:35.303Z</time>
      </trkpt>
      <trkpt lat="48.24053" lon="4.38955">
        <ele>159</ele>
        <time>2018-06-25T09:06:36.303Z</time>
      </trkpt>
      <trkpt lat="48.24035" lon="4.3895">
        <ele>160</ele>
        <time>2018-06-25T09:06:37.303Z</time>
      </trkpt>
      <trkpt lat="48.23942" lon="4.39111">
        <ele>159</ele>
        <time>2018-06-25T09:06:38.303Z</time>
      </trkpt>
      <trkpt lat="48.239" lon="4.39295">
        <ele>156</ele>
        <time>2018-06-25T09:06:39.303Z</time>
      </trkpt>
      <trkpt lat="48.23776" lon="4.3962">
        <ele>152</ele>
        <time>2018-06-25T09:06:40.303Z</time>
      </trkpt>
      <trkpt lat="48.23766" lon="4.39615">
        <ele>152</ele>
        <time>2018-06-25T09:06:41.303Z</time>
      </trkpt>
      <trkpt lat="48.23729" lon="4.39494">
        <ele>151</ele>
        <time>2018-06-25T09:06:42.303Z</time>
      </trkpt>
      <trkpt lat="48.23587" lon="4.39456">
        <ele>145</ele>
        <time>2018-06-25T09:06:43.303Z</time>
      </trkpt>
      <trkpt lat="48.23529" lon="4.39425">
        <ele>143</ele>
        <time>2018-06-25T09:06:44.303Z</time>
      </trkpt>
      <trkpt lat="48.23455" lon="4.39423">
        <ele>141</ele>
        <time>2018-06-25T09:06:45.303Z</time>
      </trkpt>
      <trkpt lat="48.23407" lon="4.39397">
        <ele>141</ele>
        <time>2018-06-25T09:06:46.303Z</time>
      </trkpt>
      <trkpt lat="48.23213" lon="4.39413">
        <ele>140</ele>
        <time>2018-06-25T09:06:47.303Z</time>
      </trkpt>
      <trkpt lat="48.23068" lon="4.39366">
        <ele>140</ele>
        <time>2018-06-25T09:06:48.303Z</time>
      </trkpt>
      <trkpt lat="48.23016" lon="4.39441">
        <ele>139</ele>
        <time>2018-06-25T09:06:49.303Z</time>
      </trkpt>
      <trkpt lat="48.22992" lon="4.39455">
        <ele>138</ele>
        <time>2018-06-25T09:06:50.303Z</time>
      </trkpt>
      <trkpt lat="48.22976" lon="4.39448">
        <ele>138</ele>
        <time>2018-06-25T09:06:51.303Z</time>
      </trkpt>
      <trkpt lat="48.22956" lon="4.39259">
        <ele>139</ele>
        <time>2018-06-25T09:06:52.303Z</time>
      </trkpt>
      <trkpt lat="48.22829" lon="4.38426">
        <ele>145</ele>
        <time>2018-06-25T09:06:53.303Z</time>
      </trkpt>
      <trkpt lat="48.22747" lon="4.37988">
        <ele>153</ele>
        <time>2018-06-25T09:06:54.303Z</time>
      </trkpt>
      <trkpt lat="48.22715" lon="4.37746">
        <ele>149</ele>
        <time>2018-06-25T09:06:55.303Z</time>
      </trkpt>
      <trkpt lat="48.21377" lon="4.37127">
        <ele>147</ele>
        <time>2018-06-25T09:06:56.303Z</time>
      </trkpt>
      <trkpt lat="48.21347" lon="4.37078">
        <ele>150</ele>
        <time>2018-06-25T09:06:57.303Z</time>
      </trkpt>
      <trkpt lat="48.21283" lon="4.36841">
        <ele>152</ele>
        <time>2018-06-25T09:06:58.303Z</time>
      </trkpt>
      <trkpt lat="48.21272" lon="4.36836">
        <ele>153</ele>
        <time>2018-06-25T09:06:59.303Z</time>
      </trkpt>
      <trkpt lat="48.20968" lon="4.37073">
        <ele>165</ele>
        <time>2018-06-25T09:07:00.303Z</time>
      </trkpt>
      <trkpt lat="48.20379" lon="4.37502">
        <ele>180</ele>
        <time>2018-06-25T09:07:01.303Z</time>
      </trkpt>
      <trkpt lat="48.20337" lon="4.3757">
        <ele>182</ele>
        <time>2018-06-25T09:07:02.303Z</time>
      </trkpt>
      <trkpt lat="48.20312" lon="4.3764">
        <ele>181</ele>
        <time>2018-06-25T09:07:03.303Z</time>
      </trkpt>
      <trkpt lat="48.20303" lon="4.37639">
        <ele>180</ele>
        <time>2018-06-25T09:07:04.303Z</time>
      </trkpt>
      <trkpt lat="48.20198" lon="4.37395">
        <ele>189</ele>
        <time>2018-06-25T09:07:05.303Z</time>
      </trkpt>
      <trkpt lat="48.20156" lon="4.37336">
        <ele>187</ele>
        <time>2018-06-25T09:07:06.303Z</time>
      </trkpt>
      <trkpt lat="48.19959" lon="4.36921">
        <ele>186</ele>
        <time>2018-06-25T09:07:07.303Z</time>
      </trkpt>
      <trkpt lat="48.1993" lon="4.36876">
        <ele>186</ele>
        <time>2018-06-25T09:07:08.303Z</time>
      </trkpt>
      <trkpt lat="48.1985" lon="4.36702">
        <ele>189</ele>
        <time>2018-06-25T09:07:09.303Z</time>
      </trkpt>
      <trkpt lat="48.19814" lon="4.36602">
        <ele>194</ele>
        <time>2018-06-25T09:07:10.303Z</time>
      </trkpt>
      <trkpt lat="48.19663" lon="4.36386">
        <ele>189</ele>
        <time>2018-06-25T09:07:11.303Z</time>
      </trkpt>
      <trkpt lat="48.1958" lon="4.36219">
        <ele>195</ele>
        <time>2018-06-25T09:07:12.303Z</time>
      </trkpt>
      <trkpt lat="48.19407" lon="4.36026">
        <ele>192</ele>
        <time>2018-06-25T09:07:13.303Z</time>
      </trkpt>
      <trkpt lat="48.19376" lon="4.35976">
        <ele>193</ele>
        <time>2018-06-25T09:07:14.303Z</time>
      </trkpt>
      <trkpt lat="48.19302" lon="4.3592">
        <ele>192</ele>
        <time>2018-06-25T09:07:15.303Z</time>
      </trkpt>
      <trkpt lat="48.18922" lon="4.35495">
        <ele>186</ele>
        <time>2018-06-25T09:07:16.303Z</time>
      </trkpt>
      <trkpt lat="48.18899" lon="4.3546">
        <ele>184</ele>
        <time>2018-06-25T09:07:17.303Z</time>
      </trkpt>
      <trkpt lat="48.18816" lon="4.35374">
        <ele>181</ele>
        <time>2018-06-25T09:07:18.303Z</time>
      </trkpt>
      <trkpt lat="48.18832" lon="4.35335">
        <ele>181</ele>
        <time>2018-06-25T09:07:19.303Z</time>
      </trkpt>
      <trkpt lat="48.18558" lon="4.34985">
        <ele>180</ele>
        <time>2018-06-25T09:07:20.303Z</time>
      </trkpt>
      <trkpt lat="48.18535" lon="4.34951">
        <ele>180</ele>
        <time>2018-06-25T09:07:21.303Z</time>
      </trkpt>
      <trkpt lat="48.18519" lon="4.34929">
        <ele>181</ele>
        <time>2018-06-25T09:07:22.303Z</time>
      </trkpt>
      <trkpt lat="48.18485" lon="4.34831">
        <ele>182</ele>
        <time>2018-06-25T09:07:23.303Z</time>
      </trkpt>
      <trkpt lat="48.18491" lon="4.34802">
        <ele>183</ele>
        <time>2018-06-25T09:07:24.303Z</time>
      </trkpt>
      <trkpt lat="48.18512" lon="4.34761">
        <ele>185</ele>
        <time>2018-06-25T09:07:25.303Z</time>
      </trkpt>
      <trkpt lat="48.18494" lon="4.34738">
        <ele>184</ele>
        <time>2018-06-25T09:07:26.303Z</time>
      </trkpt>
      <trkpt lat="48.18454" lon="4.34622">
        <ele>177</ele>
        <time>2018-06-25T09:07:27.303Z</time>
      </trkpt>
      <trkpt lat="48.18425" lon="4.34614">
        <ele>175</ele>
        <time>2018-06-25T09:07:28.303Z</time>
      </trkpt>
      <trkpt lat="48.1839" lon="4.34619">
        <ele>173</ele>
        <time>2018-06-25T09:07:29.303Z</time>
      </trkpt>
      <trkpt lat="48.18357" lon="4.34637">
        <ele>173</ele>
        <time>2018-06-25T09:07:30.303Z</time>
      </trkpt>
      <trkpt lat="48.18298" lon="4.34703">
        <ele>169</ele>
        <time>2018-06-25T09:07:31.303Z</time>
      </trkpt>
      <trkpt lat="48.17923" lon="4.35074">
        <ele>147</ele>
        <time>2018-06-25T09:07:32.303Z</time>
      </trkpt>
      <trkpt lat="48.17789" lon="4.35238">
        <ele>153</ele>
        <time>2018-06-25T09:07:33.303Z</time>
      </trkpt>
      <trkpt lat="48.17756" lon="4.35309">
        <ele>155</ele>
        <time>2018-06-25T09:07:34.303Z</time>
      </trkpt>
      <trkpt lat="48.1759" lon="4.35778">
        <ele>161</ele>
        <time>2018-06-25T09:07:35.303Z</time>
      </trkpt>
      <trkpt lat="48.17485" lon="4.3636">
        <ele>164</ele>
        <time>2018-06-25T09:07:36.303Z</time>
      </trkpt>
      <trkpt lat="48.1745" lon="4.36438">
        <ele>164</ele>
        <time>2018-06-25T09:07:37.303Z</time>
      </trkpt>
      <trkpt lat="48.17403" lon="4.36503">
        <ele>163</ele>
        <time>2018-06-25T09:07:38.303Z</time>
      </trkpt>
      <trkpt lat="48.17356" lon="4.36553">
        <ele>164</ele>
        <time>2018-06-25T09:07:39.303Z</time>
      </trkpt>
      <trkpt lat="48.17316" lon="4.3657">
        <ele>166</ele>
        <time>2018-06-25T09:07:40.303Z</time>
      </trkpt>
      <trkpt lat="48.17134" lon="4.36618">
        <ele>174</ele>
        <time>2018-06-25T09:07:41.303Z</time>
      </trkpt>
      <trkpt lat="48.17091" lon="4.36639">
        <ele>177</ele>
        <time>2018-06-25T09:07:42.303Z</time>
      </trkpt>
      <trkpt lat="48.17046" lon="4.36681">
        <ele>179</ele>
        <time>2018-06-25T09:07:43.303Z</time>
      </trkpt>
      <trkpt lat="48.16945" lon="4.36807">
        <ele>184</ele>
        <time>2018-06-25T09:07:44.303Z</time>
      </trkpt>
      <trkpt lat="48.16903" lon="4.36854">
        <ele>185</ele>
        <time>2018-06-25T09:07:45.303Z</time>
      </trkpt>
      <trkpt lat="48.16768" lon="4.36983">
        <ele>192</ele>
        <time>2018-06-25T09:07:46.303Z</time>
      </trkpt>
      <trkpt lat="48.16768" lon="4.36983">
        <ele>192</ele>
        <time>2018-06-25T09:07:47.303Z</time>
      </trkpt>
      <trkpt lat="48.16722" lon="4.37026">
        <ele>197</ele>
        <time>2018-06-25T09:07:48.303Z</time>
      </trkpt>
      <trkpt lat="48.16634" lon="4.37123">
        <ele>206</ele>
        <time>2018-06-25T09:07:49.303Z</time>
      </trkpt>
      <trkpt lat="48.16594" lon="4.37287">
        <ele>209</ele>
        <time>2018-06-25T09:07:50.303Z</time>
      </trkpt>
      <trkpt lat="48.16573" lon="4.37341">
        <ele>212</ele>
        <time>2018-06-25T09:07:51.303Z</time>
      </trkpt>
      <trkpt lat="48.16554" lon="4.37377">
        <ele>213</ele>
        <time>2018-06-25T09:07:52.303Z</time>
      </trkpt>
      <trkpt lat="48.16509" lon="4.37417">
        <ele>217</ele>
        <time>2018-06-25T09:07:53.303Z</time>
      </trkpt>
      <trkpt lat="48.16454" lon="4.3744">
        <ele>221</ele>
        <time>2018-06-25T09:07:54.303Z</time>
      </trkpt>
      <trkpt lat="48.16448" lon="4.37414">
        <ele>222</ele>
        <time>2018-06-25T09:07:55.303Z</time>
      </trkpt>
      <trkpt lat="48.16442" lon="4.37308">
        <ele>222</ele>
        <time>2018-06-25T09:07:56.303Z</time>
      </trkpt>
      <trkpt lat="48.16435" lon="4.37247">
        <ele>222</ele>
        <time>2018-06-25T09:07:57.303Z</time>
      </trkpt>
      <trkpt lat="48.16424" lon="4.37203">
        <ele>224</ele>
        <time>2018-06-25T09:07:58.303Z</time>
      </trkpt>
      <trkpt lat="48.16407" lon="4.3716">
        <ele>225</ele>
        <time>2018-06-25T09:07:59.303Z</time>
      </trkpt>
      <trkpt lat="48.16243" lon="4.37182">
        <ele>220</ele>
        <time>2018-06-25T09:08:00.303Z</time>
      </trkpt>
      <trkpt lat="48.16204" lon="4.37181">
        <ele>218</ele>
        <time>2018-06-25T09:08:01.303Z</time>
      </trkpt>
      <trkpt lat="48.16086" lon="4.37188">
        <ele>211</ele>
        <time>2018-06-25T09:08:02.303Z</time>
      </trkpt>
      <trkpt lat="48.15971" lon="4.3716">
        <ele>200</ele>
        <time>2018-06-25T09:08:03.303Z</time>
      </trkpt>
      <trkpt lat="48.1594" lon="4.37139">
        <ele>199</ele>
        <time>2018-06-25T09:08:04.303Z</time>
      </trkpt>
      <trkpt lat="48.15887" lon="4.37085">
        <ele>195</ele>
        <time>2018-06-25T09:08:05.303Z</time>
      </trkpt>
      <trkpt lat="48.15868" lon="4.37078">
        <ele>195</ele>
        <time>2018-06-25T09:08:06.303Z</time>
      </trkpt>
      <trkpt lat="48.15844" lon="4.37081">
        <ele>194</ele>
        <time>2018-06-25T09:08:07.303Z</time>
      </trkpt>
      <trkpt lat="48.15807" lon="4.37099">
        <ele>196</ele>
        <time>2018-06-25T09:08:08.303Z</time>
      </trkpt>
      <trkpt lat="48.1576" lon="4.37114">
        <ele>197</ele>
        <time>2018-06-25T09:08:09.303Z</time>
      </trkpt>
      <trkpt lat="48.1565" lon="4.37184">
        <ele>190</ele>
        <time>2018-06-25T09:08:10.303Z</time>
      </trkpt>
      <trkpt lat="48.15594" lon="4.37216">
        <ele>186</ele>
        <time>2018-06-25T09:08:11.303Z</time>
      </trkpt>
      <trkpt lat="48.15502" lon="4.37302">
        <ele>176</ele>
        <time>2018-06-25T09:08:12.303Z</time>
      </trkpt>
      <trkpt lat="48.15452" lon="4.37304">
        <ele>175</ele>
        <time>2018-06-25T09:08:13.303Z</time>
      </trkpt>
      <trkpt lat="48.14998" lon="4.3726">
        <ele>198</ele>
        <time>2018-06-25T09:08:14.303Z</time>
      </trkpt>
      <trkpt lat="48.14805" lon="4.37221">
        <ele>204</ele>
        <time>2018-06-25T09:08:15.303Z</time>
      </trkpt>
      <trkpt lat="48.14743" lon="4.37163">
        <ele>203</ele>
        <time>2018-06-25T09:08:16.303Z</time>
      </trkpt>
      <trkpt lat="48.147" lon="4.37094">
        <ele>205</ele>
        <time>2018-06-25T09:08:17.303Z</time>
      </trkpt>
      <trkpt lat="48.14578" lon="4.36922">
        <ele>207</ele>
        <time>2018-06-25T09:08:18.303Z</time>
      </trkpt>
      <trkpt lat="48.14525" lon="4.36872">
        <ele>209</ele>
        <time>2018-06-25T09:08:19.303Z</time>
      </trkpt>
      <trkpt lat="48.14298" lon="4.36742">
        <ele>206</ele>
        <time>2018-06-25T09:08:20.303Z</time>
      </trkpt>
      <trkpt lat="48.14183" lon="4.36637">
        <ele>204</ele>
        <time>2018-06-25T09:08:21.303Z</time>
      </trkpt>
      <trkpt lat="48.14018" lon="4.36468">
        <ele>205</ele>
        <time>2018-06-25T09:08:22.303Z</time>
      </trkpt>
      <trkpt lat="48.13986" lon="4.36425">
        <ele>205</ele>
        <time>2018-06-25T09:08:23.303Z</time>
      </trkpt>
      <trkpt lat="48.13836" lon="4.36148">
        <ele>201</ele>
        <time>2018-06-25T09:08:24.303Z</time>
      </trkpt>
      <trkpt lat="48.13781" lon="4.3606">
        <ele>199</ele>
        <time>2018-06-25T09:08:25.303Z</time>
      </trkpt>
      <trkpt lat="48.13682" lon="4.35928">
        <ele>194</ele>
        <time>2018-06-25T09:08:26.303Z</time>
      </trkpt>
      <trkpt lat="48.13549" lon="4.35789">
        <ele>187</ele>
        <time>2018-06-25T09:08:27.303Z</time>
      </trkpt>
      <trkpt lat="48.13443" lon="4.35721">
        <ele>180</ele>
        <time>2018-06-25T09:08:28.303Z</time>
      </trkpt>
      <trkpt lat="48.13422" lon="4.35688">
        <ele>178</ele>
        <time>2018-06-25T09:08:29.303Z</time>
      </trkpt>
      <trkpt lat="48.13416" lon="4.35622">
        <ele>175</ele>
        <time>2018-06-25T09:08:30.303Z</time>
      </trkpt>
      <trkpt lat="48.13382" lon="4.35489">
        <ele>163</ele>
        <time>2018-06-25T09:08:31.303Z</time>
      </trkpt>
      <trkpt lat="48.13373" lon="4.35466">
        <ele>161</ele>
        <time>2018-06-25T09:08:32.303Z</time>
      </trkpt>
      <trkpt lat="48.13358" lon="4.35453">
        <ele>158</ele>
        <time>2018-06-25T09:08:33.303Z</time>
      </trkpt>
      <trkpt lat="48.13341" lon="4.35453">
        <ele>156</ele>
        <time>2018-06-25T09:08:34.303Z</time>
      </trkpt>
      <trkpt lat="48.13327" lon="4.35475">
        <ele>155</ele>
        <time>2018-06-25T09:08:35.303Z</time>
      </trkpt>
      <trkpt lat="48.13297" lon="4.35659">
        <ele>158</ele>
        <time>2018-06-25T09:08:36.303Z</time>
      </trkpt>
      <trkpt lat="48.13287" lon="4.35708">
        <ele>158</ele>
        <time>2018-06-25T09:08:37.303Z</time>
      </trkpt>
      <trkpt lat="48.13254" lon="4.35844">
        <ele>154</ele>
        <time>2018-06-25T09:08:38.303Z</time>
      </trkpt>
      <trkpt lat="48.13249" lon="4.35877">
        <ele>154</ele>
        <time>2018-06-25T09:08:39.303Z</time>
      </trkpt>
      <trkpt lat="48.13237" lon="4.35875">
        <ele>153</ele>
        <time>2018-06-25T09:08:40.303Z</time>
      </trkpt>
      <trkpt lat="48.13105" lon="4.35806">
        <ele>148</ele>
        <time>2018-06-25T09:08:41.303Z</time>
      </trkpt>
      <trkpt lat="48.13054" lon="4.35776">
        <ele>148</ele>
        <time>2018-06-25T09:08:42.303Z</time>
      </trkpt>
      <trkpt lat="48.13047" lon="4.35769">
        <ele>147</ele>
        <time>2018-06-25T09:08:43.303Z</time>
      </trkpt>
      <trkpt lat="48.13042" lon="4.35788">
        <ele>148</ele>
        <time>2018-06-25T09:08:44.303Z</time>
      </trkpt>
      <trkpt lat="48.13026" lon="4.35882">
        <ele>148</ele>
        <time>2018-06-25T09:08:45.303Z</time>
      </trkpt>
      <trkpt lat="48.1301" lon="4.35875">
        <ele>148</ele>
        <time>2018-06-25T09:08:46.303Z</time>
      </trkpt>
      <trkpt lat="48.12995" lon="4.35994">
        <ele>148</ele>
        <time>2018-06-25T09:08:47.303Z</time>
      </trkpt>
      <trkpt lat="48.12981" lon="4.3603">
        <ele>147</ele>
        <time>2018-06-25T09:08:48.303Z</time>
      </trkpt>
      <trkpt lat="48.12967" lon="4.36045">
        <ele>147</ele>
        <time>2018-06-25T09:08:49.303Z</time>
      </trkpt>
      <trkpt lat="48.12944" lon="4.36156">
        <ele>149</ele>
        <time>2018-06-25T09:08:50.303Z</time>
      </trkpt>
      <trkpt lat="48.12941" lon="4.36216">
        <ele>149</ele>
        <time>2018-06-25T09:08:51.303Z</time>
      </trkpt>
      <trkpt lat="48.12877" lon="4.36504">
        <ele>146</ele>
        <time>2018-06-25T09:08:52.303Z</time>
      </trkpt>
      <trkpt lat="48.1279" lon="4.36474">
        <ele>147</ele>
        <time>2018-06-25T09:08:53.303Z</time>
      </trkpt>
      <trkpt lat="48.12681" lon="4.36717">
        <ele>147</ele>
        <time>2018-06-25T09:08:54.303Z</time>
      </trkpt>
      <trkpt lat="48.12678" lon="4.37219">
        <ele>149</ele>
        <time>2018-06-25T09:08:55.303Z</time>
      </trkpt>
      <trkpt lat="48.12644" lon="4.37399">
        <ele>151</ele>
        <time>2018-06-25T09:08:56.303Z</time>
      </trkpt>
      <trkpt lat="48.12512" lon="4.37616">
        <ele>152</ele>
        <time>2018-06-25T09:08:57.303Z</time>
      </trkpt>
      <trkpt lat="48.12323" lon="4.37811">
        <ele>151</ele>
        <time>2018-06-25T09:08:58.303Z</time>
      </trkpt>
      <trkpt lat="48.12122" lon="4.37878">
        <ele>148</ele>
        <time>2018-06-25T09:08:59.303Z</time>
      </trkpt>
      <trkpt lat="48.12045" lon="4.37915">
        <ele>149</ele>
        <time>2018-06-25T09:09:00.303Z</time>
      </trkpt>
      <trkpt lat="48.11975" lon="4.37965">
        <ele>152</ele>
        <time>2018-06-25T09:09:01.303Z</time>
      </trkpt>
      <trkpt lat="48.11975" lon="4.37965">
        <ele>152</ele>
        <time>2018-06-25T09:09:02.303Z</time>
      </trkpt>
      <trkpt lat="48.11951" lon="4.37979">
        <ele>152</ele>
        <time>2018-06-25T09:09:03.303Z</time>
      </trkpt>
      <trkpt lat="48.11951" lon="4.3798">
        <ele>152</ele>
        <time>2018-06-25T09:09:04.303Z</time>
      </trkpt>
      <trkpt lat="48.1177" lon="4.38087">
        <ele>150</ele>
        <time>2018-06-25T09:09:05.303Z</time>
      </trkpt>
      <trkpt lat="48.11759" lon="4.38091">
        <ele>150</ele>
        <time>2018-06-25T09:09:06.303Z</time>
      </trkpt>
      <trkpt lat="48.11739" lon="4.38094">
        <ele>150</ele>
        <time>2018-06-25T09:09:07.303Z</time>
      </trkpt>
      <trkpt lat="48.11573" lon="4.38077">
        <ele>150</ele>
        <time>2018-06-25T09:09:08.303Z</time>
      </trkpt>
      <trkpt lat="48.11542" lon="4.37919">
        <ele>150</ele>
        <time>2018-06-25T09:09:09.303Z</time>
      </trkpt>
      <trkpt lat="48.11521" lon="4.37824">
        <ele>149</ele>
        <time>2018-06-25T09:09:10.303Z</time>
      </trkpt>
      <trkpt lat="48.11486" lon="4.37695">
        <ele>150</ele>
        <time>2018-06-25T08:56:36.146Z</time>
      </trkpt>
      <trkpt lat="48.11474" lon="4.3765">
        <ele>151</ele>
        <time>2018-06-25T08:56:37.146Z</time>
      </trkpt>
      <trkpt lat="48.11471" lon="4.37651">
        <ele>151</ele>
        <time>2018-06-25T08:56:38.146Z</time>
      </trkpt>
      <trkpt lat="48.11451" lon="4.37547">
        <ele>155</ele>
        <time>2018-06-25T08:56:39.146Z</time>
      </trkpt>
      <trkpt lat="48.11452" lon="4.37546">
        <ele>155</ele>
        <time>2018-06-25T08:56:40.146Z</time>
      </trkpt>
      <trkpt lat="48.11418" lon="4.37414">
        <ele>157</ele>
        <time>2018-06-25T08:56:41.146Z</time>
      </trkpt>
      <trkpt lat="48.11405" lon="4.37347">
        <ele>160</ele>
        <time>2018-06-25T08:56:42.146Z</time>
      </trkpt>
      <trkpt lat="48.11409" lon="4.37346">
        <ele>160</ele>
        <time>2018-06-25T08:56:43.146Z</time>
      </trkpt>
      <trkpt lat="48.11409" lon="4.37346">
        <ele>160</ele>
        <time>2018-06-25T08:56:44.146Z</time>
      </trkpt>
      <trkpt lat="48.11454" lon="4.37329">
        <ele>159</ele>
        <time>2018-06-25T08:56:45.146Z</time>
      </trkpt>
      <trkpt lat="48.11544" lon="4.3729">
        <ele>159</ele>
        <time>2018-06-25T08:56:46.146Z</time>
      </trkpt>
      <trkpt lat="48.11543" lon="4.37289">
        <ele>159</ele>
        <time>2018-06-25T08:56:47.146Z</time>
      </trkpt>
      <trkpt lat="48.11538" lon="4.37265">
        <ele>162</ele>
        <time>2018-06-25T08:56:48.146Z</time>
      </trkpt>
      <trkpt lat="48.11528" lon="4.37242">
        <ele>165</ele>
        <time>2018-06-25T08:56:49.146Z</time>
      </trkpt>
      <trkpt lat="48.11514" lon="4.37218">
        <ele>169</ele>
        <time>2018-06-25T08:56:50.146Z</time>
      </trkpt>
      <trkpt lat="48.11458" lon="4.37158">
        <ele>182</ele>
        <time>2018-06-25T08:56:51.146Z</time>
      </trkpt>
      <trkpt lat="48.1146" lon="4.37161">
        <ele>181</ele>
        <time>2018-06-25T08:56:52.146Z</time>
      </trkpt>
      <trkpt lat="48.11377" lon="4.37098">
        <ele>191</ele>
        <time>2018-06-25T08:56:53.146Z</time>
      </trkpt>
      <trkpt lat="48.11317" lon="4.3706">
        <ele>196</ele>
        <time>2018-06-25T08:56:54.146Z</time>
      </trkpt>
      <trkpt lat="48.11243" lon="4.37031">
        <ele>200</ele>
        <time>2018-06-25T08:56:55.146Z</time>
      </trkpt>
      <trkpt lat="48.11243" lon="4.3704">
        <ele>200</ele>
        <time>2018-06-25T08:56:56.146Z</time>
      </trkpt>
      <trkpt lat="48.11179" lon="4.37007">
        <ele>205</ele>
        <time>2018-06-25T08:56:57.146Z</time>
      </trkpt>
      <trkpt lat="48.11107" lon="4.36937">
        <ele>209</ele>
        <time>2018-06-25T08:56:58.146Z</time>
      </trkpt>
      <trkpt lat="48.11032" lon="4.36849">
        <ele>215</ele>
        <time>2018-06-25T08:56:59.146Z</time>
      </trkpt>
      <trkpt lat="48.10997" lon="4.36846">
        <ele>218</ele>
        <time>2018-06-25T08:57:00.146Z</time>
      </trkpt>
      <trkpt lat="48.10989" lon="4.36839">
        <ele>218</ele>
        <time>2018-06-25T08:57:01.146Z</time>
      </trkpt>
      <trkpt lat="48.10947" lon="4.36813">
        <ele>219</ele>
        <time>2018-06-25T08:57:02.146Z</time>
      </trkpt>
      <trkpt lat="48.10819" lon="4.36759">
        <ele>229</ele>
        <time>2018-06-25T08:57:03.146Z</time>
      </trkpt>
      <trkpt lat="48.10808" lon="4.36752">
        <ele>230</ele>
        <time>2018-06-25T08:57:04.146Z</time>
      </trkpt>
      <trkpt lat="48.10803" lon="4.36745">
        <ele>230</ele>
        <time>2018-06-25T08:57:05.146Z</time>
      </trkpt>
      <trkpt lat="48.10803" lon="4.36728">
        <ele>230</ele>
        <time>2018-06-25T08:57:06.146Z</time>
      </trkpt>
      <trkpt lat="48.10803" lon="4.36719">
        <ele>230</ele>
        <time>2018-06-25T08:57:07.146Z</time>
      </trkpt>
      <trkpt lat="48.10853" lon="4.36592">
        <ele>226</ele>
        <time>2018-06-25T08:57:08.146Z</time>
      </trkpt>
      <trkpt lat="48.10859" lon="4.36571">
        <ele>227</ele>
        <time>2018-06-25T08:57:09.146Z</time>
      </trkpt>
      <trkpt lat="48.10861" lon="4.36555">
        <ele>227</ele>
        <time>2018-06-25T08:57:10.146Z</time>
      </trkpt>
      <trkpt lat="48.10859" lon="4.36535">
        <ele>228</ele>
        <time>2018-06-25T08:57:11.146Z</time>
      </trkpt>
      <trkpt lat="48.10853" lon="4.36508">
        <ele>229</ele>
        <time>2018-06-25T08:57:12.146Z</time>
      </trkpt>
      <trkpt lat="48.10823" lon="4.36394">
        <ele>233</ele>
        <time>2018-06-25T08:57:13.146Z</time>
      </trkpt>
      <trkpt lat="48.10825" lon="4.36394">
        <ele>233</ele>
        <time>2018-06-25T08:57:14.146Z</time>
      </trkpt>
      <trkpt lat="48.10808" lon="4.36233">
        <ele>233</ele>
        <time>2018-06-25T08:57:15.146Z</time>
      </trkpt>
      <trkpt lat="48.10817" lon="4.36179">
        <ele>232</ele>
        <time>2018-06-25T08:57:16.146Z</time>
      </trkpt>
      <trkpt lat="48.10841" lon="4.36122">
        <ele>229</ele>
        <time>2018-06-25T08:57:17.146Z</time>
      </trkpt>
      <trkpt lat="48.10843" lon="4.36106">
        <ele>228</ele>
        <time>2018-06-25T08:57:18.146Z</time>
      </trkpt>
      <trkpt lat="48.10841" lon="4.36089">
        <ele>228</ele>
        <time>2018-06-25T08:57:19.146Z</time>
      </trkpt>
      <trkpt lat="48.10834" lon="4.36065">
        <ele>227</ele>
        <time>2018-06-25T08:57:20.146Z</time>
      </trkpt>
      <trkpt lat="48.10812" lon="4.36005">
        <ele>226</ele>
        <time>2018-06-25T08:57:21.146Z</time>
      </trkpt>
      <trkpt lat="48.10762" lon="4.35918">
        <ele>229</ele>
        <time>2018-06-25T08:57:22.146Z</time>
      </trkpt>
      <trkpt lat="48.10752" lon="4.35894">
        <ele>230</ele>
        <time>2018-06-25T08:57:23.146Z</time>
      </trkpt>
      <trkpt lat="48.10747" lon="4.3586">
        <ele>230</ele>
        <time>2018-06-25T08:57:24.146Z</time>
      </trkpt>
      <trkpt lat="48.10743" lon="4.35773">
        <ele>231</ele>
        <time>2018-06-25T08:57:25.146Z</time>
      </trkpt>
      <trkpt lat="48.10747" lon="4.35757">
        <ele>231</ele>
        <time>2018-06-25T08:57:26.146Z</time>
      </trkpt>
      <trkpt lat="48.10743" lon="4.35753">
        <ele>231</ele>
        <time>2018-06-25T08:57:27.146Z</time>
      </trkpt>
      <trkpt lat="48.10675" lon="4.35582">
        <ele>234</ele>
        <time>2018-06-25T08:57:28.146Z</time>
      </trkpt>
      <trkpt lat="48.10541" lon="4.35258">
        <ele>234</ele>
        <time>2018-06-25T08:57:29.146Z</time>
      </trkpt>
      <trkpt lat="48.10542" lon="4.35258">
        <ele>234</ele>
        <time>2018-06-25T08:57:30.146Z</time>
      </trkpt>
      <trkpt lat="48.10455" lon="4.3505">
        <ele>232</ele>
        <time>2018-06-25T08:57:31.146Z</time>
      </trkpt>
      <trkpt lat="48.10265" lon="4.34585">
        <ele>229</ele>
        <time>2018-06-25T08:57:32.146Z</time>
      </trkpt>
      <trkpt lat="48.10238" lon="4.34524">
        <ele>228</ele>
        <time>2018-06-25T08:57:33.146Z</time>
      </trkpt>
      <trkpt lat="48.10191" lon="4.3444">
        <ele>227</ele>
        <time>2018-06-25T08:57:34.146Z</time>
      </trkpt>
      <trkpt lat="48.10014" lon="4.34156">
        <ele>228</ele>
        <time>2018-06-25T08:57:35.146Z</time>
      </trkpt>
      <trkpt lat="48.10016" lon="4.34158">
        <ele>228</ele>
        <time>2018-06-25T08:57:36.146Z</time>
      </trkpt>
      <trkpt lat="48.09952" lon="4.34054">
        <ele>227</ele>
        <time>2018-06-25T08:57:37.146Z</time>
      </trkpt>
      <trkpt lat="48.09786" lon="4.33804">
        <ele>231</ele>
        <time>2018-06-25T08:57:38.146Z</time>
      </trkpt>
      <trkpt lat="48.09753" lon="4.33746">
        <ele>232</ele>
        <time>2018-06-25T08:57:39.146Z</time>
      </trkpt>
      <trkpt lat="48.09713" lon="4.33662">
        <ele>231</ele>
        <time>2018-06-25T08:57:40.146Z</time>
      </trkpt>
      <trkpt lat="48.09592" lon="4.33421">
        <ele>232</ele>
        <time>2018-06-25T08:57:41.146Z</time>
      </trkpt>
      <trkpt lat="48.09391" lon="4.33035">
        <ele>230</ele>
        <time>2018-06-25T08:57:42.146Z</time>
      </trkpt>
      <trkpt lat="48.09281" lon="4.3281">
        <ele>226</ele>
        <time>2018-06-25T08:57:43.146Z</time>
      </trkpt>
      <trkpt lat="48.09205" lon="4.32596">
        <ele>219</ele>
        <time>2018-06-25T08:57:44.146Z</time>
      </trkpt>
      <trkpt lat="48.09173" lon="4.32499">
        <ele>216</ele>
        <time>2018-06-25T08:57:45.146Z</time>
      </trkpt>
      <trkpt lat="48.09156" lon="4.32432">
        <ele>213</ele>
        <time>2018-06-25T08:57:46.146Z</time>
      </trkpt>
      <trkpt lat="48.09144" lon="4.32408">
        <ele>213</ele>
        <time>2018-06-25T08:57:47.146Z</time>
      </trkpt>
      <trkpt lat="48.09113" lon="4.32362">
        <ele>214</ele>
        <time>2018-06-25T08:57:48.146Z</time>
      </trkpt>
      <trkpt lat="48.0909" lon="4.32312">
        <ele>212</ele>
        <time>2018-06-25T08:57:49.146Z</time>
      </trkpt>
      <trkpt lat="48.0905" lon="4.32204">
        <ele>208</ele>
        <time>2018-06-25T08:57:50.146Z</time>
      </trkpt>
      <trkpt lat="48.09028" lon="4.32137">
        <ele>204</ele>
        <time>2018-06-25T08:57:51.146Z</time>
      </trkpt>
      <trkpt lat="48.09019" lon="4.32084">
        <ele>199</ele>
        <time>2018-06-25T08:57:52.146Z</time>
      </trkpt>
      <trkpt lat="48.09021" lon="4.32">
        <ele>195</ele>
        <time>2018-06-25T08:57:53.146Z</time>
      </trkpt>
      <trkpt lat="48.09025" lon="4.31925">
        <ele>192</ele>
        <time>2018-06-25T08:57:54.146Z</time>
      </trkpt>
      <trkpt lat="48.08922" lon="4.31159">
        <ele>194</ele>
        <time>2018-06-25T08:57:55.146Z</time>
      </trkpt>
      <trkpt lat="48.08833" lon="4.30571">
        <ele>189</ele>
        <time>2018-06-25T08:57:56.146Z</time>
      </trkpt>
      <trkpt lat="48.08828" lon="4.30518">
        <ele>187</ele>
        <time>2018-06-25T08:57:57.146Z</time>
      </trkpt>
      <trkpt lat="48.0883" lon="4.30485">
        <ele>185</ele>
        <time>2018-06-25T08:57:58.146Z</time>
      </trkpt>
      <trkpt lat="48.08835" lon="4.30441">
        <ele>183</ele>
        <time>2018-06-25T08:57:59.146Z</time>
      </trkpt>
      <trkpt lat="48.08871" lon="4.30226">
        <ele>172</ele>
        <time>2018-06-25T08:58:00.146Z</time>
      </trkpt>
      <trkpt lat="48.08875" lon="4.3017">
        <ele>169</ele>
        <time>2018-06-25T08:58:01.146Z</time>
      </trkpt>
      <trkpt lat="48.08871" lon="4.30149">
        <ele>168</ele>
        <time>2018-06-25T08:58:02.146Z</time>
      </trkpt>
      <trkpt lat="48.08861" lon="4.3013">
        <ele>168</ele>
        <time>2018-06-25T08:58:03.146Z</time>
      </trkpt>
      <trkpt lat="48.08851" lon="4.30122">
        <ele>168</ele>
        <time>2018-06-25T08:58:04.146Z</time>
      </trkpt>
      <trkpt lat="48.08837" lon="4.30116">
        <ele>168</ele>
        <time>2018-06-25T08:58:05.146Z</time>
      </trkpt>
      <trkpt lat="48.08821" lon="4.30123">
        <ele>168</ele>
        <time>2018-06-25T08:58:06.146Z</time>
      </trkpt>
      <trkpt lat="48.08805" lon="4.30136">
        <ele>168</ele>
        <time>2018-06-25T08:58:07.146Z</time>
      </trkpt>
      <trkpt lat="48.08783" lon="4.30162">
        <ele>168</ele>
        <time>2018-06-25T08:58:08.146Z</time>
      </trkpt>
      <trkpt lat="48.08769" lon="4.30176">
        <ele>168</ele>
        <time>2018-06-25T08:58:09.146Z</time>
      </trkpt>
      <trkpt lat="48.08754" lon="4.3018">
        <ele>167</ele>
        <time>2018-06-25T08:58:10.146Z</time>
      </trkpt>
      <trkpt lat="48.0873" lon="4.3018">
        <ele>168</ele>
        <time>2018-06-25T08:58:11.146Z</time>
      </trkpt>
      <trkpt lat="48.08689" lon="4.30176">
        <ele>169</ele>
        <time>2018-06-25T08:58:12.146Z</time>
      </trkpt>
      <trkpt lat="48.0851" lon="4.30133">
        <ele>169</ele>
        <time>2018-06-25T08:58:13.146Z</time>
      </trkpt>
      <trkpt lat="48.08492" lon="4.30123">
        <ele>169</ele>
        <time>2018-06-25T08:58:14.146Z</time>
      </trkpt>
      <trkpt lat="48.08463" lon="4.30136">
        <ele>170</ele>
        <time>2018-06-25T08:58:15.146Z</time>
      </trkpt>
      <trkpt lat="48.08443" lon="4.3014">
        <ele>171</ele>
        <time>2018-06-25T08:58:16.146Z</time>
      </trkpt>
      <trkpt lat="48.08389" lon="4.30133">
        <ele>171</ele>
        <time>2018-06-25T08:58:17.146Z</time>
      </trkpt>
      <trkpt lat="48.08287" lon="4.30102">
        <ele>168</ele>
        <time>2018-06-25T08:58:18.146Z</time>
      </trkpt>
      <trkpt lat="48.08228" lon="4.30086">
        <ele>168</ele>
        <time>2018-06-25T08:58:19.146Z</time>
      </trkpt>
      <trkpt lat="48.08211" lon="4.30085">
        <ele>168</ele>
        <time>2018-06-25T08:58:20.146Z</time>
      </trkpt>
      <trkpt lat="48.08199" lon="4.30089">
        <ele>168</ele>
        <time>2018-06-25T08:58:21.146Z</time>
      </trkpt>
      <trkpt lat="48.08164" lon="4.3012">
        <ele>173</ele>
        <time>2018-06-25T08:58:22.146Z</time>
      </trkpt>
      <trkpt lat="48.08099" lon="4.3017">
        <ele>179</ele>
        <time>2018-06-25T08:58:23.146Z</time>
      </trkpt>
      <trkpt lat="48.0803" lon="4.30213">
        <ele>183</ele>
        <time>2018-06-25T08:58:24.146Z</time>
      </trkpt>
      <trkpt lat="48.07985" lon="4.30237">
        <ele>186</ele>
        <time>2018-06-25T08:58:25.146Z</time>
      </trkpt>
      <trkpt lat="48.07955" lon="4.30237">
        <ele>187</ele>
        <time>2018-06-25T08:58:26.146Z</time>
      </trkpt>
      <trkpt lat="48.07913" lon="4.3023">
        <ele>188</ele>
        <time>2018-06-25T08:58:27.146Z</time>
      </trkpt>
      <trkpt lat="48.07873" lon="4.3023">
        <ele>187</ele>
        <time>2018-06-25T08:58:28.146Z</time>
      </trkpt>
      <trkpt lat="48.07792" lon="4.30264">
        <ele>190</ele>
        <time>2018-06-25T08:58:29.146Z</time>
      </trkpt>
      <trkpt lat="48.07756" lon="4.30264">
        <ele>189</ele>
        <time>2018-06-25T08:58:30.146Z</time>
      </trkpt>
      <trkpt lat="48.07718" lon="4.3026">
        <ele>190</ele>
        <time>2018-06-25T08:58:31.146Z</time>
      </trkpt>
      <trkpt lat="48.07646" lon="4.30286">
        <ele>194</ele>
        <time>2018-06-25T08:58:32.146Z</time>
      </trkpt>
      <trkpt lat="48.07606" lon="4.30307">
        <ele>197</ele>
        <time>2018-06-25T08:58:33.146Z</time>
      </trkpt>
      <trkpt lat="48.07577" lon="4.30334">
        <ele>199</ele>
        <time>2018-06-25T08:58:34.146Z</time>
      </trkpt>
      <trkpt lat="48.07516" lon="4.30401">
        <ele>205</ele>
        <time>2018-06-25T08:58:35.146Z</time>
      </trkpt>
      <trkpt lat="48.07445" lon="4.30494">
        <ele>209</ele>
        <time>2018-06-25T08:58:36.146Z</time>
      </trkpt>
      <trkpt lat="48.07413" lon="4.30545">
        <ele>211</ele>
        <time>2018-06-25T08:58:37.146Z</time>
      </trkpt>
      <trkpt lat="48.07389" lon="4.30601">
        <ele>214</ele>
        <time>2018-06-25T08:58:38.146Z</time>
      </trkpt>
      <trkpt lat="48.0737" lon="4.30669">
        <ele>216</ele>
        <time>2018-06-25T08:58:39.146Z</time>
      </trkpt>
      <trkpt lat="48.07351" lon="4.30716">
        <ele>217</ele>
        <time>2018-06-25T08:58:40.146Z</time>
      </trkpt>
      <trkpt lat="48.07332" lon="4.30749">
        <ele>218</ele>
        <time>2018-06-25T08:58:41.146Z</time>
      </trkpt>
      <trkpt lat="48.07148" lon="4.30924">
        <ele>226</ele>
        <time>2018-06-25T08:58:42.146Z</time>
      </trkpt>
      <trkpt lat="48.07085" lon="4.30981">
        <ele>228</ele>
        <time>2018-06-25T08:58:43.146Z</time>
      </trkpt>
      <trkpt lat="48.07054" lon="4.31021">
        <ele>230</ele>
        <time>2018-06-25T08:58:44.146Z</time>
      </trkpt>
      <trkpt lat="48.07036" lon="4.31048">
        <ele>231</ele>
        <time>2018-06-25T08:58:45.146Z</time>
      </trkpt>
      <trkpt lat="48.06985" lon="4.31199">
        <ele>234</ele>
        <time>2018-06-25T08:58:46.146Z</time>
      </trkpt>
      <trkpt lat="48.06909" lon="4.3146">
        <ele>241</ele>
        <time>2018-06-25T08:58:47.146Z</time>
      </trkpt>
      <trkpt lat="48.06876" lon="4.31591">
        <ele>238</ele>
        <time>2018-06-25T08:58:48.146Z</time>
      </trkpt>
      <trkpt lat="48.0685" lon="4.31624">
        <ele>238</ele>
        <time>2018-06-25T08:58:49.146Z</time>
      </trkpt>
      <trkpt lat="48.06822" lon="4.31634">
        <ele>239</ele>
        <time>2018-06-25T08:58:50.146Z</time>
      </trkpt>
      <trkpt lat="48.06811" lon="4.31631">
        <ele>239</ele>
        <time>2018-06-25T08:58:51.146Z</time>
      </trkpt>
      <trkpt lat="48.06653" lon="4.31735">
        <ele>246</ele>
        <time>2018-06-25T08:58:52.146Z</time>
      </trkpt>
      <trkpt lat="48.06485" lon="4.32047">
        <ele>259</ele>
        <time>2018-06-25T08:58:53.146Z</time>
      </trkpt>
      <trkpt lat="48.064" lon="4.32161">
        <ele>266</ele>
        <time>2018-06-25T08:58:54.146Z</time>
      </trkpt>
      <trkpt lat="48.06398" lon="4.32161">
        <ele>266</ele>
        <time>2018-06-25T08:58:55.146Z</time>
      </trkpt>
      <trkpt lat="48.06362" lon="4.322">
        <ele>266</ele>
        <time>2018-06-25T08:58:56.146Z</time>
      </trkpt>
      <trkpt lat="48.0631" lon="4.32271">
        <ele>266</ele>
        <time>2018-06-25T08:58:57.146Z</time>
      </trkpt>
      <trkpt lat="48.06005" lon="4.32844">
        <ele>273</ele>
        <time>2018-06-25T08:58:58.146Z</time>
      </trkpt>
      <trkpt lat="48.05992" lon="4.32811">
        <ele>273</ele>
        <time>2018-06-25T08:58:59.146Z</time>
      </trkpt>
      <trkpt lat="48.0601" lon="4.3262">
        <ele>278</ele>
        <time>2018-06-25T08:59:00.146Z</time>
      </trkpt>
      <trkpt lat="48.06019" lon="4.32506">
        <ele>277</ele>
        <time>2018-06-25T08:59:01.146Z</time>
      </trkpt>
      <trkpt lat="48.06059" lon="4.31936">
        <ele>266</ele>
        <time>2018-06-25T08:59:02.146Z</time>
      </trkpt>
      <trkpt lat="48.06063" lon="4.31859">
        <ele>266</ele>
        <time>2018-06-25T08:59:03.146Z</time>
      </trkpt>
      <trkpt lat="48.06063" lon="4.31789">
        <ele>267</ele>
        <time>2018-06-25T08:59:04.146Z</time>
      </trkpt>
      <trkpt lat="48.06058" lon="4.31584">
        <ele>271</ele>
        <time>2018-06-25T08:59:05.146Z</time>
      </trkpt>
      <trkpt lat="48.06039" lon="4.31446">
        <ele>274</ele>
        <time>2018-06-25T08:59:06.146Z</time>
      </trkpt>
      <trkpt lat="48.05988" lon="4.31259">
        <ele>275</ele>
        <time>2018-06-25T08:59:07.146Z</time>
      </trkpt>
      <trkpt lat="48.05987" lon="4.31259">
        <ele>275</ele>
        <time>2018-06-25T08:59:08.146Z</time>
      </trkpt>
      <trkpt lat="48.05961" lon="4.31168">
        <ele>278</ele>
        <time>2018-06-25T08:59:09.146Z</time>
      </trkpt>
      <trkpt lat="48.05928" lon="4.31035">
        <ele>278</ele>
        <time>2018-06-25T08:59:10.146Z</time>
      </trkpt>
      <trkpt lat="48.05907" lon="4.30974">
        <ele>277</ele>
        <time>2018-06-25T08:59:11.146Z</time>
      </trkpt>
      <trkpt lat="48.05893" lon="4.30913">
        <ele>274</ele>
        <time>2018-06-25T08:59:12.146Z</time>
      </trkpt>
      <trkpt lat="48.05893" lon="4.30903">
        <ele>274</ele>
        <time>2018-06-25T08:59:13.146Z</time>
      </trkpt>
      <trkpt lat="48.05736" lon="4.30829">
        <ele>264</ele>
        <time>2018-06-25T08:59:14.146Z</time>
      </trkpt>
      <trkpt lat="48.05637" lon="4.3074">
        <ele>257</ele>
        <time>2018-06-25T08:59:15.146Z</time>
      </trkpt>
      <trkpt lat="48.05539" lon="4.30693">
        <ele>251</ele>
        <time>2018-06-25T08:59:16.146Z</time>
      </trkpt>
      <trkpt lat="48.05492" lon="4.30699">
        <ele>249</ele>
        <time>2018-06-25T08:59:17.146Z</time>
      </trkpt>
      <trkpt lat="48.05391" lon="4.3075">
        <ele>232</ele>
        <time>2018-06-25T08:59:18.146Z</time>
      </trkpt>
      <trkpt lat="48.05364" lon="4.30749">
        <ele>229</ele>
        <time>2018-06-25T08:59:19.146Z</time>
      </trkpt>
      <trkpt lat="48.05359" lon="4.30756">
        <ele>228</ele>
        <time>2018-06-25T08:59:20.146Z</time>
      </trkpt>
      <trkpt lat="48.05283" lon="4.30612">
        <ele>228</ele>
        <time>2018-06-25T08:59:21.146Z</time>
      </trkpt>
      <trkpt lat="48.05196" lon="4.30485">
        <ele>224</ele>
        <time>2018-06-25T08:59:22.146Z</time>
      </trkpt>
      <trkpt lat="48.05178" lon="4.30384">
        <ele>226</ele>
        <time>2018-06-25T08:59:23.146Z</time>
      </trkpt>
      <trkpt lat="48.05135" lon="4.30277">
        <ele>227</ele>
        <time>2018-06-25T08:59:24.146Z</time>
      </trkpt>
      <trkpt lat="48.04924" lon="4.29996">
        <ele>221</ele>
        <time>2018-06-25T08:59:25.146Z</time>
      </trkpt>
      <trkpt lat="48.0483" lon="4.29828">
        <ele>216</ele>
        <time>2018-06-25T08:59:26.146Z</time>
      </trkpt>
      <trkpt lat="48.04749" lon="4.29701">
        <ele>213</ele>
        <time>2018-06-25T08:59:27.146Z</time>
      </trkpt>
      <trkpt lat="48.04696" lon="4.29443">
        <ele>212</ele>
        <time>2018-06-25T08:59:28.146Z</time>
      </trkpt>
      <trkpt lat="48.04656" lon="4.29386">
        <ele>211</ele>
        <time>2018-06-25T08:59:29.146Z</time>
      </trkpt>
      <trkpt lat="48.04566" lon="4.29305">
        <ele>210</ele>
        <time>2018-06-25T08:59:30.146Z</time>
      </trkpt>
      <trkpt lat="48.0453" lon="4.29265">
        <ele>208</ele>
        <time>2018-06-25T08:59:31.146Z</time>
      </trkpt>
      <trkpt lat="48.0449" lon="4.29228">
        <ele>207</ele>
        <time>2018-06-25T08:59:32.146Z</time>
      </trkpt>
      <trkpt lat="48.04465" lon="4.29164">
        <ele>208</ele>
        <time>2018-06-25T08:59:33.146Z</time>
      </trkpt>
      <trkpt lat="48.0442" lon="4.28957">
        <ele>202</ele>
        <time>2018-06-25T08:59:34.146Z</time>
      </trkpt>
      <trkpt lat="48.04329" lon="4.28735">
        <ele>199</ele>
        <time>2018-06-25T08:59:35.146Z</time>
      </trkpt>
      <trkpt lat="48.04295" lon="4.28638">
        <ele>200</ele>
        <time>2018-06-25T08:59:36.146Z</time>
      </trkpt>
      <trkpt lat="48.04278" lon="4.28528">
        <ele>196</ele>
        <time>2018-06-25T08:59:37.146Z</time>
      </trkpt>
      <trkpt lat="48.04242" lon="4.28376">
        <ele>187</ele>
        <time>2018-06-25T08:59:38.146Z</time>
      </trkpt>
      <trkpt lat="48.04243" lon="4.28349">
        <ele>186</ele>
        <time>2018-06-25T08:59:39.146Z</time>
      </trkpt>
      <trkpt lat="48.04088" lon="4.28517">
        <ele>186</ele>
        <time>2018-06-25T08:59:40.146Z</time>
      </trkpt>
      <trkpt lat="48.03904" lon="4.28775">
        <ele>189</ele>
        <time>2018-06-25T08:59:41.146Z</time>
      </trkpt>
      <trkpt lat="48.03723" lon="4.2905">
        <ele>188</ele>
        <time>2018-06-25T08:59:42.146Z</time>
      </trkpt>
      <trkpt lat="48.03678" lon="4.29138">
        <ele>189</ele>
        <time>2018-06-25T08:59:43.146Z</time>
      </trkpt>
      <trkpt lat="48.03646" lon="4.29248">
        <ele>189</ele>
        <time>2018-06-25T08:59:44.146Z</time>
      </trkpt>
      <trkpt lat="48.03606" lon="4.29328">
        <ele>191</ele>
        <time>2018-06-25T08:59:45.146Z</time>
      </trkpt>
      <trkpt lat="48.03528" lon="4.29419">
        <ele>190</ele>
        <time>2018-06-25T08:59:46.146Z</time>
      </trkpt>
      <trkpt lat="48.03423" lon="4.29503">
        <ele>189</ele>
        <time>2018-06-25T08:59:47.146Z</time>
      </trkpt>
      <trkpt lat="48.03336" lon="4.29607">
        <ele>192</ele>
        <time>2018-06-25T08:59:48.146Z</time>
      </trkpt>
      <trkpt lat="48.02905" lon="4.30046">
        <ele>195</ele>
        <time>2018-06-25T08:59:49.146Z</time>
      </trkpt>
      <trkpt lat="48.02728" lon="4.302">
        <ele>193</ele>
        <time>2018-06-25T08:59:50.146Z</time>
      </trkpt>
      <trkpt lat="48.02678" lon="4.30066">
        <ele>192</ele>
        <time>2018-06-25T08:59:51.146Z</time>
      </trkpt>
      <trkpt lat="48.02638" lon="4.30086">
        <ele>193</ele>
        <time>2018-06-25T08:59:52.146Z</time>
      </trkpt>
      <trkpt lat="48.02604" lon="4.30059">
        <ele>194</ele>
        <time>2018-06-25T08:59:53.146Z</time>
      </trkpt>
      <trkpt lat="48.02577" lon="4.30009">
        <ele>194</ele>
        <time>2018-06-25T08:59:54.146Z</time>
      </trkpt>
      <trkpt lat="48.02528" lon="4.29955">
        <ele>196</ele>
        <time>2018-06-25T08:59:55.146Z</time>
      </trkpt>
      <trkpt lat="48.02519" lon="4.29928">
        <ele>197</ele>
        <time>2018-06-25T08:59:56.146Z</time>
      </trkpt>
      <trkpt lat="48.02471" lon="4.29915">
        <ele>198</ele>
        <time>2018-06-25T08:59:57.146Z</time>
      </trkpt>
      <trkpt lat="48.02409" lon="4.29935">
        <ele>200</ele>
        <time>2018-06-25T08:59:58.146Z</time>
      </trkpt>
      <trkpt lat="48.02355" lon="4.29938">
        <ele>205</ele>
        <time>2018-06-25T08:59:59.146Z</time>
      </trkpt>
      <trkpt lat="48.02292" lon="4.29865">
        <ele>212</ele>
        <time>2018-06-25T09:00:00.146Z</time>
      </trkpt>
      <trkpt lat="48.02178" lon="4.29801">
        <ele>225</ele>
        <time>2018-06-25T09:00:01.146Z</time>
      </trkpt>
      <trkpt lat="48.02075" lon="4.29711">
        <ele>236</ele>
        <time>2018-06-25T09:00:02.146Z</time>
      </trkpt>
      <trkpt lat="48.01941" lon="4.29624">
        <ele>249</ele>
        <time>2018-06-25T09:00:03.146Z</time>
      </trkpt>
      <trkpt lat="48.01879" lon="4.29599">
        <ele>256</ele>
        <time>2018-06-25T09:00:04.146Z</time>
      </trkpt>
      <trkpt lat="48.01784" lon="4.29529">
        <ele>268</ele>
        <time>2018-06-25T09:00:05.146Z</time>
      </trkpt>
      <trkpt lat="48.0172" lon="4.29503">
        <ele>274</ele>
        <time>2018-06-25T09:00:06.146Z</time>
      </trkpt>
      <trkpt lat="48.01636" lon="4.29492">
        <ele>279</ele>
        <time>2018-06-25T09:00:07.146Z</time>
      </trkpt>
      <trkpt lat="48.01521" lon="4.29419">
        <ele>284</ele>
        <time>2018-06-25T09:00:08.146Z</time>
      </trkpt>
      <trkpt lat="48.01427" lon="4.29392">
        <ele>289</ele>
        <time>2018-06-25T09:00:09.146Z</time>
      </trkpt>
      <trkpt lat="48.01351" lon="4.29359">
        <ele>294</ele>
        <time>2018-06-25T09:00:10.146Z</time>
      </trkpt>
      <trkpt lat="48.01322" lon="4.29375">
        <ele>296</ele>
        <time>2018-06-25T09:00:11.146Z</time>
      </trkpt>
      <trkpt lat="48.01281" lon="4.29412">
        <ele>299</ele>
        <time>2018-06-25T09:00:12.146Z</time>
      </trkpt>
      <trkpt lat="48.01221" lon="4.29436">
        <ele>302</ele>
        <time>2018-06-25T09:00:13.146Z</time>
      </trkpt>
      <trkpt lat="48.01196" lon="4.29476">
        <ele>303</ele>
        <time>2018-06-25T09:00:14.146Z</time>
      </trkpt>
      <trkpt lat="48.01084" lon="4.29465">
        <ele>299</ele>
        <time>2018-06-25T09:00:15.146Z</time>
      </trkpt>
      <trkpt lat="48.0097" lon="4.29476">
        <ele>295</ele>
        <time>2018-06-25T09:00:16.146Z</time>
      </trkpt>
      <trkpt lat="48.00842" lon="4.2954">
        <ele>289</ele>
        <time>2018-06-25T09:00:17.146Z</time>
      </trkpt>
      <trkpt lat="48.00768" lon="4.296">
        <ele>288</ele>
        <time>2018-06-25T09:00:18.146Z</time>
      </trkpt>
      <trkpt lat="48.00545" lon="4.297">
        <ele>292</ele>
        <time>2018-06-25T09:00:19.146Z</time>
      </trkpt>
      <trkpt lat="48.00302" lon="4.29835">
        <ele>286</ele>
        <time>2018-06-25T09:00:20.146Z</time>
      </trkpt>
      <trkpt lat="48.00194" lon="4.29851">
        <ele>282</ele>
        <time>2018-06-25T09:00:21.146Z</time>
      </trkpt>
      <trkpt lat="48.0012" lon="4.29894">
        <ele>279</ele>
        <time>2018-06-25T09:00:22.146Z</time>
      </trkpt>
      <trkpt lat="47.99945" lon="4.29942">
        <ele>272</ele>
        <time>2018-06-25T09:00:23.146Z</time>
      </trkpt>
      <trkpt lat="47.99741" lon="4.30025">
        <ele>264</ele>
        <time>2018-06-25T09:00:24.146Z</time>
      </trkpt>
      <trkpt lat="47.99661" lon="4.30029">
        <ele>255</ele>
        <time>2018-06-25T09:00:25.146Z</time>
      </trkpt>
      <trkpt lat="47.99605" lon="4.30009">
        <ele>249</ele>
        <time>2018-06-25T09:00:26.146Z</time>
      </trkpt>
      <trkpt lat="47.99573" lon="4.29949">
        <ele>242</ele>
        <time>2018-06-25T09:00:27.146Z</time>
      </trkpt>
      <trkpt lat="47.9953" lon="4.29931">
        <ele>236</ele>
        <time>2018-06-25T09:00:28.146Z</time>
      </trkpt>
      <trkpt lat="47.99488" lon="4.29945">
        <ele>232</ele>
        <time>2018-06-25T09:00:29.146Z</time>
      </trkpt>
      <trkpt lat="47.99434" lon="4.29929">
        <ele>227</ele>
        <time>2018-06-25T09:00:30.146Z</time>
      </trkpt>
      <trkpt lat="47.99433" lon="4.29928">
        <ele>227</ele>
        <time>2018-06-25T09:00:31.146Z</time>
      </trkpt>
      <trkpt lat="47.99431" lon="4.29909">
        <ele>227</ele>
        <time>2018-06-25T09:00:32.146Z</time>
      </trkpt>
      <trkpt lat="47.99393" lon="4.29908">
        <ele>224</ele>
        <time>2018-06-25T09:00:33.146Z</time>
      </trkpt>
      <trkpt lat="47.99216" lon="4.29761">
        <ele>221</ele>
        <time>2018-06-25T09:00:34.146Z</time>
      </trkpt>
      <trkpt lat="47.99066" lon="4.29693">
        <ele>230</ele>
        <time>2018-06-25T09:00:35.146Z</time>
      </trkpt>
      <trkpt lat="47.99043" lon="4.2964">
        <ele>231</ele>
        <time>2018-06-25T09:00:36.146Z</time>
      </trkpt>
      <trkpt lat="47.9901" lon="4.29496">
        <ele>235</ele>
        <time>2018-06-25T09:00:37.146Z</time>
      </trkpt>
      <trkpt lat="47.98927" lon="4.29221">
        <ele>247</ele>
        <time>2018-06-25T09:00:38.146Z</time>
      </trkpt>
      <trkpt lat="47.98876" lon="4.29084">
        <ele>253</ele>
        <time>2018-06-25T09:00:39.146Z</time>
      </trkpt>
      <trkpt lat="47.98796" lon="4.2897">
        <ele>259</ele>
        <time>2018-06-25T09:00:40.146Z</time>
      </trkpt>
      <trkpt lat="47.98694" lon="4.28903">
        <ele>264</ele>
        <time>2018-06-25T09:00:41.146Z</time>
      </trkpt>
      <trkpt lat="47.9856" lon="4.28792">
        <ele>270</ele>
        <time>2018-06-25T09:00:42.146Z</time>
      </trkpt>
      <trkpt lat="47.98365" lon="4.28735">
        <ele>277</ele>
        <time>2018-06-25T09:00:43.146Z</time>
      </trkpt>
      <trkpt lat="47.9829" lon="4.28692">
        <ele>284</ele>
        <time>2018-06-25T09:00:44.146Z</time>
      </trkpt>
      <trkpt lat="47.98215" lon="4.28621">
        <ele>290</ele>
        <time>2018-06-25T09:00:45.146Z</time>
      </trkpt>
      <trkpt lat="47.98169" lon="4.28521">
        <ele>295</ele>
        <time>2018-06-25T09:00:46.146Z</time>
      </trkpt>
      <trkpt lat="47.98093" lon="4.28333">
        <ele>302</ele>
        <time>2018-06-25T09:00:47.146Z</time>
      </trkpt>
      <trkpt lat="47.98048" lon="4.28246">
        <ele>302</ele>
        <time>2018-06-25T09:00:48.146Z</time>
      </trkpt>
      <trkpt lat="47.97929" lon="4.28138">
        <ele>309</ele>
        <time>2018-06-25T09:00:49.146Z</time>
      </trkpt>
      <trkpt lat="47.97891" lon="4.28015">
        <ele>311</ele>
        <time>2018-06-25T09:00:50.146Z</time>
      </trkpt>
      <trkpt lat="47.97763" lon="4.27766">
        <ele>304</ele>
        <time>2018-06-25T09:00:51.146Z</time>
      </trkpt>
      <trkpt lat="47.97683" lon="4.27626">
        <ele>300</ele>
        <time>2018-06-25T09:00:52.146Z</time>
      </trkpt>
      <trkpt lat="47.97672" lon="4.27576">
        <ele>297</ele>
        <time>2018-06-25T09:00:53.146Z</time>
      </trkpt>
      <trkpt lat="47.97617" lon="4.27515">
        <ele>283</ele>
        <time>2018-06-25T09:00:54.146Z</time>
      </trkpt>
      <trkpt lat="47.97521" lon="4.27475">
        <ele>265</ele>
        <time>2018-06-25T09:00:55.146Z</time>
      </trkpt>
      <trkpt lat="47.97444" lon="4.27405">
        <ele>256</ele>
        <time>2018-06-25T09:00:56.146Z</time>
      </trkpt>
      <trkpt lat="47.97351" lon="4.27371">
        <ele>252</ele>
        <time>2018-06-25T09:00:57.146Z</time>
      </trkpt>
      <trkpt lat="47.97293" lon="4.27398">
        <ele>247</ele>
        <time>2018-06-25T09:00:58.146Z</time>
      </trkpt>
      <trkpt lat="47.97264" lon="4.27351">
        <ele>248</ele>
        <time>2018-06-25T09:00:59.146Z</time>
      </trkpt>
      <trkpt lat="47.97245" lon="4.27291">
        <ele>248</ele>
        <time>2018-06-25T09:01:00.146Z</time>
      </trkpt>
      <trkpt lat="47.97223" lon="4.27184">
        <ele>244</ele>
        <time>2018-06-25T09:01:01.146Z</time>
      </trkpt>
      <trkpt lat="47.97127" lon="4.26969">
        <ele>236</ele>
        <time>2018-06-25T09:01:02.146Z</time>
      </trkpt>
      <trkpt lat="47.97032" lon="4.26824">
        <ele>236</ele>
        <time>2018-06-25T09:01:03.146Z</time>
      </trkpt>
      <trkpt lat="47.9697" lon="4.26768">
        <ele>239</ele>
        <time>2018-06-25T09:01:04.146Z</time>
      </trkpt>
      <trkpt lat="47.96889" lon="4.26741">
        <ele>242</ele>
        <time>2018-06-25T09:01:05.146Z</time>
      </trkpt>
      <trkpt lat="47.96869" lon="4.26724">
        <ele>243</ele>
        <time>2018-06-25T09:01:06.146Z</time>
      </trkpt>
      <trkpt lat="47.96869" lon="4.26653">
        <ele>245</ele>
        <time>2018-06-25T09:01:07.146Z</time>
      </trkpt>
      <trkpt lat="47.96712" lon="4.26439">
        <ele>254</ele>
        <time>2018-06-25T09:01:08.146Z</time>
      </trkpt>
      <trkpt lat="47.96692" lon="4.26439">
        <ele>255</ele>
        <time>2018-06-25T09:01:09.146Z</time>
      </trkpt>
      <trkpt lat="47.9656" lon="4.26315">
        <ele>259</ele>
        <time>2018-06-25T09:01:10.146Z</time>
      </trkpt>
      <trkpt lat="47.9647" lon="4.26264">
        <ele>262</ele>
        <time>2018-06-25T09:01:11.146Z</time>
      </trkpt>
      <trkpt lat="47.96443" lon="4.26127">
        <ele>256</ele>
        <time>2018-06-25T09:01:12.146Z</time>
      </trkpt>
      <trkpt lat="47.96409" lon="4.2605">
        <ele>255</ele>
        <time>2018-06-25T09:01:13.146Z</time>
      </trkpt>
      <trkpt lat="47.96398" lon="4.25846">
        <ele>261</ele>
        <time>2018-06-25T09:01:14.146Z</time>
      </trkpt>
      <trkpt lat="47.96427" lon="4.25658">
        <ele>256</ele>
        <time>2018-06-25T09:01:15.146Z</time>
      </trkpt>
      <trkpt lat="47.96418" lon="4.25518">
        <ele>254</ele>
        <time>2018-06-25T09:01:16.146Z</time>
      </trkpt>
      <trkpt lat="47.96396" lon="4.25163">
        <ele>249</ele>
        <time>2018-06-25T09:01:17.146Z</time>
      </trkpt>
      <trkpt lat="47.96364" lon="4.25018">
        <ele>252</ele>
        <time>2018-06-25T09:01:18.146Z</time>
      </trkpt>
      <trkpt lat="47.96382" lon="4.24947">
        <ele>252</ele>
        <time>2018-06-25T09:01:19.146Z</time>
      </trkpt>
      <trkpt lat="47.9638" lon="4.24864">
        <ele>254</ele>
        <time>2018-06-25T09:01:20.146Z</time>
      </trkpt>
      <trkpt lat="47.96622" lon="4.24596">
        <ele>284</ele>
        <time>2018-06-25T09:01:21.146Z</time>
      </trkpt>
      <trkpt lat="47.96613" lon="4.24519">
        <ele>287</ele>
        <time>2018-06-25T09:01:22.146Z</time>
      </trkpt>
      <trkpt lat="47.96612" lon="4.24482">
        <ele>289</ele>
        <time>2018-06-25T09:01:23.146Z</time>
      </trkpt>
      <trkpt lat="47.96613" lon="4.24398">
        <ele>291</ele>
        <time>2018-06-25T09:01:24.146Z</time>
      </trkpt>
      <trkpt lat="47.96616" lon="4.24361">
        <ele>292</ele>
        <time>2018-06-25T09:01:25.146Z</time>
      </trkpt>
      <trkpt lat="47.96718" lon="4.23735">
        <ele>305</ele>
        <time>2018-06-25T09:01:26.146Z</time>
      </trkpt>
      <trkpt lat="47.96724" lon="4.23668">
        <ele>305</ele>
        <time>2018-06-25T09:01:27.146Z</time>
      </trkpt>
      <trkpt lat="47.96725" lon="4.23191">
        <ele>300</ele>
        <time>2018-06-25T09:01:28.146Z</time>
      </trkpt>
      <trkpt lat="47.96723" lon="4.23158">
        <ele>300</ele>
        <time>2018-06-25T09:01:29.146Z</time>
      </trkpt>
      <trkpt lat="47.96706" lon="4.23091">
        <ele>302</ele>
        <time>2018-06-25T09:01:30.146Z</time>
      </trkpt>
      <trkpt lat="47.96691" lon="4.23061">
        <ele>303</ele>
        <time>2018-06-25T09:01:31.146Z</time>
      </trkpt>
      <trkpt lat="47.96673" lon="4.23031">
        <ele>305</ele>
        <time>2018-06-25T09:01:32.146Z</time>
      </trkpt>
      <trkpt lat="47.96589" lon="4.22927">
        <ele>311</ele>
        <time>2018-06-25T09:01:33.146Z</time>
      </trkpt>
      <trkpt lat="47.96513" lon="4.2284">
        <ele>317</ele>
        <time>2018-06-25T09:01:34.146Z</time>
      </trkpt>
      <trkpt lat="47.96483" lon="4.22816">
        <ele>318</ele>
        <time>2018-06-25T09:01:35.146Z</time>
      </trkpt>
      <trkpt lat="47.96405" lon="4.22776">
        <ele>317</ele>
        <time>2018-06-25T09:01:36.146Z</time>
      </trkpt>
      <trkpt lat="47.96315" lon="4.22719">
        <ele>317</ele>
        <time>2018-06-25T09:01:37.146Z</time>
      </trkpt>
      <trkpt lat="47.96292" lon="4.22692">
        <ele>317</ele>
        <time>2018-06-25T09:01:38.146Z</time>
      </trkpt>
      <trkpt lat="47.96268" lon="4.22648">
        <ele>317</ele>
        <time>2018-06-25T09:01:39.146Z</time>
      </trkpt>
      <trkpt lat="47.9619" lon="4.22293">
        <ele>310</ele>
        <time>2018-06-25T09:01:40.146Z</time>
      </trkpt>
      <trkpt lat="47.96165" lon="4.22145">
        <ele>304</ele>
        <time>2018-06-25T09:01:41.146Z</time>
      </trkpt>
      <trkpt lat="47.96131" lon="4.21925">
        <ele>291</ele>
        <time>2018-06-25T09:01:42.146Z</time>
      </trkpt>
      <trkpt lat="47.96127" lon="4.21871">
        <ele>288</ele>
        <time>2018-06-25T09:01:43.146Z</time>
      </trkpt>
      <trkpt lat="47.96129" lon="4.2184">
        <ele>287</ele>
        <time>2018-06-25T09:01:44.146Z</time>
      </trkpt>
      <trkpt lat="47.9614" lon="4.21783">
        <ele>282</ele>
        <time>2018-06-25T09:01:45.146Z</time>
      </trkpt>
      <trkpt lat="47.96154" lon="4.21761">
        <ele>281</ele>
        <time>2018-06-25T09:01:46.146Z</time>
      </trkpt>
      <trkpt lat="47.96277" lon="4.21603">
        <ele>271</ele>
        <time>2018-06-25T09:01:47.146Z</time>
      </trkpt>
      <trkpt lat="47.96288" lon="4.21583">
        <ele>271</ele>
        <time>2018-06-25T09:01:48.146Z</time>
      </trkpt>
      <trkpt lat="47.96297" lon="4.21556">
        <ele>269</ele>
        <time>2018-06-25T09:01:49.146Z</time>
      </trkpt>
      <trkpt lat="47.96302" lon="4.21532">
        <ele>267</ele>
        <time>2018-06-25T09:01:50.146Z</time>
      </trkpt>
      <trkpt lat="47.96315" lon="4.21174">
        <ele>260</ele>
        <time>2018-06-25T09:01:51.146Z</time>
      </trkpt>
      <trkpt lat="47.96246" lon="4.20885">
        <ele>267</ele>
        <time>2018-06-25T09:01:52.146Z</time>
      </trkpt>
      <trkpt lat="47.96062" lon="4.20524">
        <ele>267</ele>
        <time>2018-06-25T09:01:53.146Z</time>
      </trkpt>
      <trkpt lat="47.96028" lon="4.20443">
        <ele>268</ele>
        <time>2018-06-25T09:01:54.146Z</time>
      </trkpt>
      <trkpt lat="47.95896" lon="4.19857">
        <ele>282</ele>
        <time>2018-06-25T09:01:55.146Z</time>
      </trkpt>
      <trkpt lat="47.95889" lon="4.19616">
        <ele>292</ele>
        <time>2018-06-25T09:01:56.146Z</time>
      </trkpt>
      <trkpt lat="47.95826" lon="4.19066">
        <ele>302</ele>
        <time>2018-06-25T09:01:57.146Z</time>
      </trkpt>
      <trkpt lat="47.95871" lon="4.18892">
        <ele>307</ele>
        <time>2018-06-25T09:01:58.146Z</time>
      </trkpt>
      <trkpt lat="47.95854" lon="4.18814">
        <ele>309</ele>
        <time>2018-06-25T09:01:59.146Z</time>
      </trkpt>
      <trkpt lat="47.95858" lon="4.18751">
        <ele>310</ele>
        <time>2018-06-25T09:02:00.146Z</time>
      </trkpt>
      <trkpt lat="47.9588" lon="4.18673">
        <ele>312</ele>
        <time>2018-06-25T09:02:01.146Z</time>
      </trkpt>
      <trkpt lat="47.95876" lon="4.1861">
        <ele>314</ele>
        <time>2018-06-25T09:02:02.146Z</time>
      </trkpt>
      <trkpt lat="47.95891" lon="4.18533">
        <ele>315</ele>
        <time>2018-06-25T09:02:03.146Z</time>
      </trkpt>
      <trkpt lat="47.95857" lon="4.18408">
        <ele>315</ele>
        <time>2018-06-25T09:02:04.146Z</time>
      </trkpt>
      <trkpt lat="47.95777" lon="4.18255">
        <ele>315</ele>
        <time>2018-06-25T09:02:05.146Z</time>
      </trkpt>
      <trkpt lat="47.95755" lon="4.18208">
        <ele>315</ele>
        <time>2018-06-25T09:02:06.146Z</time>
      </trkpt>
      <trkpt lat="47.9573" lon="4.1814">
        <ele>315</ele>
        <time>2018-06-25T09:02:07.146Z</time>
      </trkpt>
      <trkpt lat="47.95721" lon="4.18083">
        <ele>314</ele>
        <time>2018-06-25T09:02:08.146Z</time>
      </trkpt>
      <trkpt lat="47.95719" lon="4.18013">
        <ele>314</ele>
        <time>2018-06-25T09:02:09.146Z</time>
      </trkpt>
      <trkpt lat="47.95725" lon="4.17923">
        <ele>313</ele>
        <time>2018-06-25T09:02:10.146Z</time>
      </trkpt>
      <trkpt lat="47.95759" lon="4.17698">
        <ele>310</ele>
        <time>2018-06-25T09:02:11.146Z</time>
      </trkpt>
      <trkpt lat="47.9586" lon="4.17477">
        <ele>308</ele>
        <time>2018-06-25T09:02:12.146Z</time>
      </trkpt>
      <trkpt lat="47.95862" lon="4.17477">
        <ele>307</ele>
        <time>2018-06-25T09:02:13.146Z</time>
      </trkpt>
      <trkpt lat="47.9593" lon="4.17329">
        <ele>307</ele>
        <time>2018-06-25T09:02:14.146Z</time>
      </trkpt>
      <trkpt lat="47.95978" lon="4.17021">
        <ele>304</ele>
        <time>2018-06-25T09:02:15.146Z</time>
      </trkpt>
      <trkpt lat="47.96017" lon="4.1672">
        <ele>301</ele>
        <time>2018-06-25T09:02:16.146Z</time>
      </trkpt>
      <trkpt lat="47.95999" lon="4.16572">
        <ele>301</ele>
        <time>2018-06-25T09:02:17.146Z</time>
      </trkpt>
      <trkpt lat="47.96003" lon="4.16484">
        <ele>302</ele>
        <time>2018-06-25T09:02:18.146Z</time>
      </trkpt>
      <trkpt lat="47.96041" lon="4.1615">
        <ele>305</ele>
        <time>2018-06-25T09:02:19.146Z</time>
      </trkpt>
      <trkpt lat="47.96042" lon="4.15962">
        <ele>300</ele>
        <time>2018-06-25T09:02:20.146Z</time>
      </trkpt>
      <trkpt lat="47.96069" lon="4.15832">
        <ele>298</ele>
        <time>2018-06-25T09:02:21.146Z</time>
      </trkpt>
      <trkpt lat="47.96042" lon="4.15543">
        <ele>301</ele>
        <time>2018-06-25T09:02:22.146Z</time>
      </trkpt>
      <trkpt lat="47.96042" lon="4.15435">
        <ele>300</ele>
        <time>2018-06-25T09:02:23.146Z</time>
      </trkpt>
      <trkpt lat="47.96063" lon="4.15217">
        <ele>295</ele>
        <time>2018-06-25T09:02:24.146Z</time>
      </trkpt>
      <trkpt lat="47.96051" lon="4.14994">
        <ele>289</ele>
        <time>2018-06-25T09:02:25.146Z</time>
      </trkpt>
      <trkpt lat="47.95903" lon="4.14648">
        <ele>277</ele>
        <time>2018-06-25T09:02:26.146Z</time>
      </trkpt>
      <trkpt lat="47.95849" lon="4.14555">
        <ele>275</ele>
        <time>2018-06-25T09:02:27.146Z</time>
      </trkpt>
      <trkpt lat="47.9583" lon="4.14427">
        <ele>277</ele>
        <time>2018-06-25T09:02:28.146Z</time>
      </trkpt>
      <trkpt lat="47.95782" lon="4.14313">
        <ele>275</ele>
        <time>2018-06-25T09:02:29.146Z</time>
      </trkpt>
      <trkpt lat="47.95746" lon="4.14199">
        <ele>269</ele>
        <time>2018-06-25T09:02:30.146Z</time>
      </trkpt>
      <trkpt lat="47.95728" lon="4.14122">
        <ele>262</ele>
        <time>2018-06-25T09:02:31.146Z</time>
      </trkpt>
      <trkpt lat="47.95676" lon="4.13981">
        <ele>249</ele>
        <time>2018-06-25T09:02:32.146Z</time>
      </trkpt>
      <trkpt lat="47.9566" lon="4.13874">
        <ele>240</ele>
        <time>2018-06-25T09:02:33.146Z</time>
      </trkpt>
      <trkpt lat="47.95668" lon="4.13757">
        <ele>232</ele>
        <time>2018-06-25T09:02:34.146Z</time>
      </trkpt>
      <trkpt lat="47.95624" lon="4.13663">
        <ele>218</ele>
        <time>2018-06-25T09:02:35.146Z</time>
      </trkpt>
      <trkpt lat="47.95613" lon="4.13592">
        <ele>214</ele>
        <time>2018-06-25T09:02:36.146Z</time>
      </trkpt>
      <trkpt lat="47.95642" lon="4.13469">
        <ele>214</ele>
        <time>2018-06-25T09:02:37.146Z</time>
      </trkpt>
      <trkpt lat="47.95611" lon="4.13428">
        <ele>209</ele>
        <time>2018-06-25T09:02:38.146Z</time>
      </trkpt>
      <trkpt lat="47.95557" lon="4.13402">
        <ele>207</ele>
        <time>2018-06-25T09:02:39.146Z</time>
      </trkpt>
      <trkpt lat="47.95576" lon="4.13321">
        <ele>208</ele>
        <time>2018-06-25T09:02:40.146Z</time>
      </trkpt>
      <trkpt lat="47.95607" lon="4.13278">
        <ele>208</ele>
        <time>2018-06-25T09:02:41.146Z</time>
      </trkpt>
      <trkpt lat="47.95638" lon="4.13257">
        <ele>208</ele>
        <time>2018-06-25T09:02:42.146Z</time>
      </trkpt>
      <trkpt lat="47.95679" lon="4.13177">
        <ele>207</ele>
        <time>2018-06-25T09:02:43.146Z</time>
      </trkpt>
      <trkpt lat="47.95701" lon="4.1311">
        <ele>206</ele>
        <time>2018-06-25T09:02:44.146Z</time>
      </trkpt>
      <trkpt lat="47.95702" lon="4.1311">
        <ele>206</ele>
        <time>2018-06-25T09:02:45.146Z</time>
      </trkpt>
      <trkpt lat="47.95708" lon="4.13093">
        <ele>206</ele>
        <time>2018-06-25T09:02:46.146Z</time>
      </trkpt>
      <trkpt lat="47.95744" lon="4.13053">
        <ele>207</ele>
        <time>2018-06-25T09:02:47.146Z</time>
      </trkpt>
      <trkpt lat="47.95789" lon="4.12996">
        <ele>207</ele>
        <time>2018-06-25T09:02:48.146Z</time>
      </trkpt>
      <trkpt lat="47.95811" lon="4.12942">
        <ele>207</ele>
        <time>2018-06-25T09:02:49.146Z</time>
      </trkpt>
      <trkpt lat="47.95814" lon="4.12926">
        <ele>206</ele>
        <time>2018-06-25T09:02:50.146Z</time>
      </trkpt>
      <trkpt lat="47.95842" lon="4.12838">
        <ele>207</ele>
        <time>2018-06-25T09:02:51.146Z</time>
      </trkpt>
      <trkpt lat="47.95784" lon="4.12782">
        <ele>204</ele>
        <time>2018-06-25T09:02:52.146Z</time>
      </trkpt>
      <trkpt lat="47.95788" lon="4.12784">
        <ele>204</ele>
        <time>2018-06-25T09:02:53.146Z</time>
      </trkpt>
      <trkpt lat="47.95782" lon="4.12778">
        <ele>204</ele>
        <time>2018-06-25T09:02:54.146Z</time>
      </trkpt>
      <trkpt lat="47.95764" lon="4.12728">
        <ele>204</ele>
        <time>2018-06-25T09:02:55.146Z</time>
      </trkpt>
      <trkpt lat="47.95747" lon="4.12664">
        <ele>204</ele>
        <time>2018-06-25T09:02:56.146Z</time>
      </trkpt>
      <trkpt lat="47.95741" lon="4.12624">
        <ele>204</ele>
        <time>2018-06-25T09:02:57.146Z</time>
      </trkpt>
      <trkpt lat="47.95727" lon="4.12449">
        <ele>214</ele>
        <time>2018-06-25T09:02:58.146Z</time>
      </trkpt>
      <trkpt lat="47.95732" lon="4.12359">
        <ele>226</ele>
        <time>2018-06-25T09:02:59.146Z</time>
      </trkpt>
      <trkpt lat="47.95724" lon="4.12158">
        <ele>243</ele>
        <time>2018-06-25T09:03:00.146Z</time>
      </trkpt>
      <trkpt lat="47.95708" lon="4.12068">
        <ele>247</ele>
        <time>2018-06-25T09:03:01.146Z</time>
      </trkpt>
      <trkpt lat="47.9567" lon="4.12068">
        <ele>247</ele>
        <time>2018-06-25T09:03:02.146Z</time>
      </trkpt>
      <trkpt lat="47.95652" lon="4.1191">
        <ele>248</ele>
        <time>2018-06-25T09:03:03.146Z</time>
      </trkpt>
      <trkpt lat="47.95625" lon="4.11783">
        <ele>250</ele>
        <time>2018-06-25T09:03:04.146Z</time>
      </trkpt>
      <trkpt lat="47.95546" lon="4.11608">
        <ele>254</ele>
        <time>2018-06-25T09:03:05.146Z</time>
      </trkpt>
      <trkpt lat="47.95494" lon="4.11531">
        <ele>254</ele>
        <time>2018-06-25T09:03:06.146Z</time>
      </trkpt>
      <trkpt lat="47.95387" lon="4.11287">
        <ele>259</ele>
        <time>2018-06-25T09:03:07.146Z</time>
      </trkpt>
      <trkpt lat="47.95345" lon="4.11226">
        <ele>258</ele>
        <time>2018-06-25T09:03:08.146Z</time>
      </trkpt>
      <trkpt lat="47.95298" lon="4.11176">
        <ele>260</ele>
        <time>2018-06-25T09:03:09.146Z</time>
      </trkpt>
      <trkpt lat="47.95111" lon="4.10834">
        <ele>280</ele>
        <time>2018-06-25T09:03:10.146Z</time>
      </trkpt>
      <trkpt lat="47.9495" lon="4.11049">
        <ele>284</ele>
        <time>2018-06-25T09:03:11.146Z</time>
      </trkpt>
      <trkpt lat="47.94754" lon="4.10508">
        <ele>266</ele>
        <time>2018-06-25T09:03:12.146Z</time>
      </trkpt>
      <trkpt lat="47.94692" lon="4.10308">
        <ele>258</ele>
        <time>2018-06-25T09:03:13.146Z</time>
      </trkpt>
      <trkpt lat="47.94651" lon="4.10258">
        <ele>250</ele>
        <time>2018-06-25T09:03:14.146Z</time>
      </trkpt>
      <trkpt lat="47.94525" lon="4.1008">
        <ele>249</ele>
        <time>2018-06-25T09:03:15.146Z</time>
      </trkpt>
      <trkpt lat="47.94479" lon="4.10003">
        <ele>253</ele>
        <time>2018-06-25T09:03:16.146Z</time>
      </trkpt>
      <trkpt lat="47.94416" lon="4.09956">
        <ele>257</ele>
        <time>2018-06-25T09:03:17.146Z</time>
      </trkpt>
      <trkpt lat="47.94337" lon="4.09886">
        <ele>261</ele>
        <time>2018-06-25T09:03:18.146Z</time>
      </trkpt>
      <trkpt lat="47.94279" lon="4.09781">
        <ele>263</ele>
        <time>2018-06-25T09:03:19.146Z</time>
      </trkpt>
      <trkpt lat="47.94238" lon="4.09738">
        <ele>266</ele>
        <time>2018-06-25T09:03:20.146Z</time>
      </trkpt>
      <trkpt lat="47.94192" lon="4.09715">
        <ele>268</ele>
        <time>2018-06-25T09:03:21.146Z</time>
      </trkpt>
      <trkpt lat="47.93896" lon="4.0945">
        <ele>287</ele>
        <time>2018-06-25T09:03:22.146Z</time>
      </trkpt>
      <trkpt lat="47.93912" lon="4.09416">
        <ele>287</ele>
        <time>2018-06-25T09:03:23.146Z</time>
      </trkpt>
      <trkpt lat="47.93965" lon="4.09266">
        <ele>286</ele>
        <time>2018-06-25T09:03:24.146Z</time>
      </trkpt>
      <trkpt lat="47.94159" lon="4.09266">
        <ele>283</ele>
        <time>2018-06-25T09:03:25.146Z</time>
      </trkpt>
      <trkpt lat="47.9425" lon="4.08813">
        <ele>279</ele>
        <time>2018-06-25T09:03:26.146Z</time>
      </trkpt>
      <trkpt lat="47.93988" lon="4.08772">
        <ele>274</ele>
        <time>2018-06-25T09:03:27.146Z</time>
      </trkpt>
      <trkpt lat="47.92988" lon="4.08313">
        <ele>286</ele>
        <time>2018-06-25T09:03:28.146Z</time>
      </trkpt>
      <trkpt lat="47.92891" lon="4.08792">
        <ele>287</ele>
        <time>2018-06-25T09:03:29.146Z</time>
      </trkpt>
      <trkpt lat="47.9258" lon="4.08649">
        <ele>278</ele>
        <time>2018-06-25T09:03:30.146Z</time>
      </trkpt>
      <trkpt lat="47.9251" lon="4.08652">
        <ele>277</ele>
        <time>2018-06-25T09:03:31.146Z</time>
      </trkpt>
      <trkpt lat="47.9243" lon="4.08615">
        <ele>274</ele>
        <time>2018-06-25T09:03:32.146Z</time>
      </trkpt>
      <trkpt lat="47.92362" lon="4.08518">
        <ele>267</ele>
        <time>2018-06-25T09:03:33.146Z</time>
      </trkpt>
      <trkpt lat="47.92226" lon="4.08408">
        <ele>249</ele>
        <time>2018-06-25T09:03:34.146Z</time>
      </trkpt>
      <trkpt lat="47.92165" lon="4.08384">
        <ele>245</ele>
        <time>2018-06-25T09:03:35.146Z</time>
      </trkpt>
      <trkpt lat="47.92099" lon="4.08394">
        <ele>238</ele>
        <time>2018-06-25T09:03:36.146Z</time>
      </trkpt>
      <trkpt lat="47.92031" lon="4.08421">
        <ele>229</ele>
        <time>2018-06-25T09:03:37.146Z</time>
      </trkpt>
      <trkpt lat="47.91952" lon="4.08367">
        <ele>224</ele>
        <time>2018-06-25T09:03:38.146Z</time>
      </trkpt>
      <trkpt lat="47.91896" lon="4.08304">
        <ele>222</ele>
        <time>2018-06-25T09:03:39.146Z</time>
      </trkpt>
      <trkpt lat="47.91862" lon="4.08297">
        <ele>222</ele>
        <time>2018-06-25T09:03:40.146Z</time>
      </trkpt>
      <trkpt lat="47.91836" lon="4.08243">
        <ele>219</ele>
        <time>2018-06-25T09:03:41.146Z</time>
      </trkpt>
      <trkpt lat="47.91636" lon="4.08078">
        <ele>215</ele>
        <time>2018-06-25T09:03:42.146Z</time>
      </trkpt>
      <trkpt lat="47.91651" lon="4.07989">
        <ele>216</ele>
        <time>2018-06-25T09:03:43.146Z</time>
      </trkpt>
      <trkpt lat="47.91643" lon="4.07905">
        <ele>221</ele>
        <time>2018-06-25T09:03:44.146Z</time>
      </trkpt>
      <trkpt lat="47.91625" lon="4.07871">
        <ele>222</ele>
        <time>2018-06-25T09:03:45.146Z</time>
      </trkpt>
      <trkpt lat="47.91672" lon="4.07744">
        <ele>226</ele>
        <time>2018-06-25T09:03:46.146Z</time>
      </trkpt>
      <trkpt lat="47.9165" lon="4.07576">
        <ele>228</ele>
        <time>2018-06-25T09:03:47.146Z</time>
      </trkpt>
      <trkpt lat="47.9165" lon="4.07579">
        <ele>228</ele>
        <time>2018-06-25T09:03:48.146Z</time>
      </trkpt>
      <trkpt lat="47.91643" lon="4.07579">
        <ele>227</ele>
        <time>2018-06-25T09:03:49.146Z</time>
      </trkpt>
      <trkpt lat="47.91627" lon="4.07485">
        <ele>227</ele>
        <time>2018-06-25T09:03:50.146Z</time>
      </trkpt>
      <trkpt lat="47.91623" lon="4.07439">
        <ele>227</ele>
        <time>2018-06-25T09:03:51.146Z</time>
      </trkpt>
      <trkpt lat="47.91623" lon="4.07409">
        <ele>226</ele>
        <time>2018-06-25T09:03:52.146Z</time>
      </trkpt>
      <trkpt lat="47.91627" lon="4.07372">
        <ele>226</ele>
        <time>2018-06-25T09:03:53.146Z</time>
      </trkpt>
      <trkpt lat="47.91663" lon="4.07198">
        <ele>223</ele>
        <time>2018-06-25T09:03:54.146Z</time>
      </trkpt>
      <trkpt lat="47.91672" lon="4.07143">
        <ele>223</ele>
        <time>2018-06-25T09:03:55.146Z</time>
      </trkpt>
      <trkpt lat="47.91681" lon="4.0696">
        <ele>226</ele>
        <time>2018-06-25T09:03:56.146Z</time>
      </trkpt>
      <trkpt lat="47.917" lon="4.06792">
        <ele>227</ele>
        <time>2018-06-25T09:03:57.146Z</time>
      </trkpt>
      <trkpt lat="47.91706" lon="4.06661">
        <ele>228</ele>
        <time>2018-06-25T09:03:58.146Z</time>
      </trkpt>
      <trkpt lat="47.91679" lon="4.06611">
        <ele>227</ele>
        <time>2018-06-25T09:03:59.146Z</time>
      </trkpt>
      <trkpt lat="47.91636" lon="4.06607">
        <ele>229</ele>
        <time>2018-06-25T09:04:00.146Z</time>
      </trkpt>
      <trkpt lat="47.9163" lon="4.06554">
        <ele>230</ele>
        <time>2018-06-25T09:04:01.146Z</time>
      </trkpt>
      <trkpt lat="47.91605" lon="4.06524">
        <ele>233</ele>
        <time>2018-06-25T09:04:02.146Z</time>
      </trkpt>
      <trkpt lat="47.91656" lon="4.06387">
        <ele>231</ele>
        <time>2018-06-25T09:04:03.146Z</time>
      </trkpt>
      <trkpt lat="47.91656" lon="4.06312">
        <ele>232</ele>
        <time>2018-06-25T09:04:04.146Z</time>
      </trkpt>
      <trkpt lat="47.91636" lon="4.06179">
        <ele>235</ele>
        <time>2018-06-25T09:04:05.146Z</time>
      </trkpt>
      <trkpt lat="47.91627" lon="4.05998">
        <ele>240</ele>
        <time>2018-06-25T09:04:06.146Z</time>
      </trkpt>
      <trkpt lat="47.91639" lon="4.05854">
        <ele>239</ele>
        <time>2018-06-25T09:04:07.146Z</time>
      </trkpt>
      <trkpt lat="47.91587" lon="4.05733">
        <ele>235</ele>
        <time>2018-06-25T09:04:08.146Z</time>
      </trkpt>
      <trkpt lat="47.91504" lon="4.05626">
        <ele>246</ele>
        <time>2018-06-25T09:04:09.146Z</time>
      </trkpt>
      <trkpt lat="47.91215" lon="4.05498">
        <ele>253</ele>
        <time>2018-06-25T09:04:10.146Z</time>
      </trkpt>
      <trkpt lat="47.91181" lon="4.05494">
        <ele>253</ele>
        <time>2018-06-25T09:04:11.146Z</time>
      </trkpt>
      <trkpt lat="47.9111" lon="4.05428">
        <ele>256</ele>
        <time>2018-06-25T09:04:12.146Z</time>
      </trkpt>
      <trkpt lat="47.91049" lon="4.05297">
        <ele>256</ele>
        <time>2018-06-25T09:04:13.146Z</time>
      </trkpt>
      <trkpt lat="47.91006" lon="4.05193">
        <ele>260</ele>
        <time>2018-06-25T09:04:14.146Z</time>
      </trkpt>
      <trkpt lat="47.90984" lon="4.05173">
        <ele>262</ele>
        <time>2018-06-25T09:04:15.146Z</time>
      </trkpt>
      <trkpt lat="47.90954" lon="4.0516">
        <ele>263</ele>
        <time>2018-06-25T09:04:16.146Z</time>
      </trkpt>
      <trkpt lat="47.90907" lon="4.05103">
        <ele>270</ele>
        <time>2018-06-25T09:04:17.146Z</time>
      </trkpt>
      <trkpt lat="47.90836" lon="4.05075">
        <ele>278</ele>
        <time>2018-06-25T09:04:18.146Z</time>
      </trkpt>
      <trkpt lat="47.90799" lon="4.05035">
        <ele>279</ele>
        <time>2018-06-25T09:04:19.146Z</time>
      </trkpt>
      <trkpt lat="47.90773" lon="4.04972">
        <ele>281</ele>
        <time>2018-06-25T09:04:20.146Z</time>
      </trkpt>
      <trkpt lat="47.90558" lon="4.04201">
        <ele>303</ele>
        <time>2018-06-25T09:04:21.146Z</time>
      </trkpt>
      <trkpt lat="47.9045" lon="4.0391">
        <ele>309</ele>
        <time>2018-06-25T09:04:22.146Z</time>
      </trkpt>
      <trkpt lat="47.90168" lon="4.03605">
        <ele>310</ele>
        <time>2018-06-25T09:04:23.146Z</time>
      </trkpt>
      <trkpt lat="47.90109" lon="4.02884">
        <ele>303</ele>
        <time>2018-06-25T09:04:24.146Z</time>
      </trkpt>
      <trkpt lat="47.90098" lon="4.0288">
        <ele>303</ele>
        <time>2018-06-25T09:04:25.146Z</time>
      </trkpt>
      <trkpt lat="47.89957" lon="4.02341">
        <ele>297</ele>
        <time>2018-06-25T09:04:26.146Z</time>
      </trkpt>
      <trkpt lat="47.89829" lon="4.02063">
        <ele>299</ele>
        <time>2018-06-25T09:04:27.146Z</time>
      </trkpt>
      <trkpt lat="47.89818" lon="4.02023">
        <ele>300</ele>
        <time>2018-06-25T09:04:28.146Z</time>
      </trkpt>
      <trkpt lat="47.89767" lon="4.01939">
        <ele>299</ele>
        <time>2018-06-25T09:04:29.146Z</time>
      </trkpt>
      <trkpt lat="47.89651" lon="4.0168">
        <ele>298</ele>
        <time>2018-06-25T09:04:30.146Z</time>
      </trkpt>
      <trkpt lat="47.89638" lon="4.01621">
        <ele>300</ele>
        <time>2018-06-25T09:04:31.146Z</time>
      </trkpt>
      <trkpt lat="47.89578" lon="4.01567">
        <ele>298</ele>
        <time>2018-06-25T09:04:32.146Z</time>
      </trkpt>
      <trkpt lat="47.89412" lon="4.01503">
        <ele>303</ele>
        <time>2018-06-25T09:04:33.146Z</time>
      </trkpt>
      <trkpt lat="47.89304" lon="4.01433">
        <ele>303</ele>
        <time>2018-06-25T09:04:34.146Z</time>
      </trkpt>
      <trkpt lat="47.89239" lon="4.01369">
        <ele>306</ele>
        <time>2018-06-25T09:04:35.146Z</time>
      </trkpt>
      <trkpt lat="47.88984" lon="4.0095">
        <ele>294</ele>
        <time>2018-06-25T09:04:36.146Z</time>
      </trkpt>
      <trkpt lat="47.88866" lon="4.00702">
        <ele>292</ele>
        <time>2018-06-25T09:04:37.146Z</time>
      </trkpt>
      <trkpt lat="47.88866" lon="4.00675">
        <ele>292</ele>
        <time>2018-06-25T09:04:38.146Z</time>
      </trkpt>
      <trkpt lat="47.88798" lon="4.00612">
        <ele>287</ele>
        <time>2018-06-25T09:04:39.146Z</time>
      </trkpt>
      <trkpt lat="47.888" lon="4.00581">
        <ele>288</ele>
        <time>2018-06-25T09:04:40.146Z</time>
      </trkpt>
      <trkpt lat="47.88614" lon="4.00333">
        <ele>286</ele>
        <time>2018-06-25T09:04:41.146Z</time>
      </trkpt>
      <trkpt lat="47.88476" lon="4.00162">
        <ele>282</ele>
        <time>2018-06-25T09:04:42.146Z</time>
      </trkpt>
      <trkpt lat="47.88374" lon="4.00045">
        <ele>280</ele>
        <time>2018-06-25T09:04:43.146Z</time>
      </trkpt>
      <trkpt lat="47.88269" lon="3.99961">
        <ele>274</ele>
        <time>2018-06-25T09:04:44.146Z</time>
      </trkpt>
      <trkpt lat="47.88123" lon="3.99803">
        <ele>263</ele>
        <time>2018-06-25T09:04:45.146Z</time>
      </trkpt>
      <trkpt lat="47.88038" lon="3.99669">
        <ele>256</ele>
        <time>2018-06-25T09:04:46.146Z</time>
      </trkpt>
      <trkpt lat="47.87979" lon="3.99562">
        <ele>247</ele>
        <time>2018-06-25T09:04:47.146Z</time>
      </trkpt>
      <trkpt lat="47.87849" lon="3.99394">
        <ele>223</ele>
        <time>2018-06-25T09:04:48.146Z</time>
      </trkpt>
      <trkpt lat="47.87829" lon="3.99318">
        <ele>222</ele>
        <time>2018-06-25T09:04:49.146Z</time>
      </trkpt>
      <trkpt lat="47.87787" lon="3.99258">
        <ele>218</ele>
        <time>2018-06-25T09:04:50.146Z</time>
      </trkpt>
      <trkpt lat="47.87737" lon="3.99204">
        <ele>214</ele>
        <time>2018-06-25T09:04:51.146Z</time>
      </trkpt>
      <trkpt lat="47.87813" lon="3.99093">
        <ele>217</ele>
        <time>2018-06-25T09:04:52.146Z</time>
      </trkpt>
      <trkpt lat="47.87844" lon="3.99029">
        <ele>218</ele>
        <time>2018-06-25T09:04:53.146Z</time>
      </trkpt>
      <trkpt lat="47.87898" lon="3.98973">
        <ele>223</ele>
        <time>2018-06-25T09:04:54.146Z</time>
      </trkpt>
      <trkpt lat="47.87952" lon="3.98855">
        <ele>223</ele>
        <time>2018-06-25T09:04:55.146Z</time>
      </trkpt>
      <trkpt lat="47.87984" lon="3.98815">
        <ele>223</ele>
        <time>2018-06-25T09:04:56.146Z</time>
      </trkpt>
      <trkpt lat="47.88013" lon="3.98795">
        <ele>224</ele>
        <time>2018-06-25T09:04:57.146Z</time>
      </trkpt>
      <trkpt lat="47.87984" lon="3.98751">
        <ele>219</ele>
        <time>2018-06-25T09:04:58.146Z</time>
      </trkpt>
      <trkpt lat="47.87914" lon="3.98574">
        <ele>209</ele>
        <time>2018-06-25T09:04:59.146Z</time>
      </trkpt>
      <trkpt lat="47.87858" lon="3.98412">
        <ele>202</ele>
        <time>2018-06-25T09:05:00.146Z</time>
      </trkpt>
      <trkpt lat="47.87795" lon="3.98296">
        <ele>198</ele>
        <time>2018-06-25T09:05:01.146Z</time>
      </trkpt>
      <trkpt lat="47.87747" lon="3.98222">
        <ele>195</ele>
        <time>2018-06-25T09:05:02.146Z</time>
      </trkpt>
      <trkpt lat="47.87663" lon="3.98047">
        <ele>185</ele>
        <time>2018-06-25T09:05:03.146Z</time>
      </trkpt>
      <trkpt lat="47.87647" lon="3.97981">
        <ele>182</ele>
        <time>2018-06-25T09:05:04.146Z</time>
      </trkpt>
      <trkpt lat="47.87648" lon="3.97954">
        <ele>181</ele>
        <time>2018-06-25T09:05:05.146Z</time>
      </trkpt>
      <trkpt lat="47.87553" lon="3.97609">
        <ele>164</ele>
        <time>2018-06-25T09:05:06.146Z</time>
      </trkpt>
      <trkpt lat="47.87464" lon="3.97457">
        <ele>155</ele>
        <time>2018-06-25T09:05:07.146Z</time>
      </trkpt>
      <trkpt lat="47.87343" lon="3.97153">
        <ele>146</ele>
        <time>2018-06-25T09:05:08.146Z</time>
      </trkpt>
      <trkpt lat="47.87387" lon="3.97099">
        <ele>144</ele>
        <time>2018-06-25T09:05:09.146Z</time>
      </trkpt>
      <trkpt lat="47.87445" lon="3.96991">
        <ele>142</ele>
        <time>2018-06-25T09:05:10.146Z</time>
      </trkpt>
      <trkpt lat="47.87477" lon="3.96958">
        <ele>142</ele>
        <time>2018-06-25T09:05:11.146Z</time>
      </trkpt>
      <trkpt lat="47.87356" lon="3.96573">
        <ele>134</ele>
        <time>2018-06-25T09:05:12.146Z</time>
      </trkpt>
      <trkpt lat="47.87421" lon="3.96553">
        <ele>133</ele>
        <time>2018-06-25T09:05:13.146Z</time>
      </trkpt>
      <trkpt lat="47.8741" lon="3.96482">
        <ele>133</ele>
        <time>2018-06-25T09:05:14.146Z</time>
      </trkpt>
      <trkpt lat="47.87046" lon="3.96663">
        <ele>136</ele>
        <time>2018-06-25T09:05:15.146Z</time>
      </trkpt>
      <trkpt lat="47.86853" lon="3.96938">
        <ele>136</ele>
        <time>2018-06-25T09:05:16.146Z</time>
      </trkpt>
      <trkpt lat="47.86549" lon="3.97514">
        <ele>134</ele>
        <time>2018-06-25T09:05:17.146Z</time>
      </trkpt>
      <trkpt lat="47.86549" lon="3.97514">
        <ele>134</ele>
        <time>2018-06-25T09:05:18.146Z</time>
      </trkpt>
      <trkpt lat="47.86523" lon="3.97568">
        <ele>134</ele>
        <time>2018-06-25T09:05:19.146Z</time>
      </trkpt>
      <trkpt lat="47.86413" lon="3.9777">
        <ele>136</ele>
        <time>2018-06-25T09:05:20.146Z</time>
      </trkpt>
      <trkpt lat="47.86397" lon="3.97792">
        <ele>136</ele>
        <time>2018-06-25T09:05:21.146Z</time>
      </trkpt>
      <trkpt lat="47.86379" lon="3.97814">
        <ele>136</ele>
        <time>2018-06-25T09:05:22.146Z</time>
      </trkpt>
      <trkpt lat="47.86362" lon="3.97843">
        <ele>135</ele>
        <time>2018-06-25T09:05:23.146Z</time>
      </trkpt>
      <trkpt lat="47.86266" lon="3.98025">
        <ele>135</ele>
        <time>2018-06-25T09:05:24.146Z</time>
      </trkpt>
      <trkpt lat="47.86245" lon="3.98087">
        <ele>134</ele>
        <time>2018-06-25T09:05:25.146Z</time>
      </trkpt>
      <trkpt lat="47.86221" lon="3.98131">
        <ele>134</ele>
        <time>2018-06-25T09:05:26.146Z</time>
      </trkpt>
      <trkpt lat="47.86219" lon="3.98129">
        <ele>134</ele>
        <time>2018-06-25T09:05:27.146Z</time>
      </trkpt>
      <trkpt lat="47.86219" lon="3.98128">
        <ele>134</ele>
        <time>2018-06-25T09:05:28.146Z</time>
      </trkpt>
      <trkpt lat="47.86188" lon="3.98094">
        <ele>134</ele>
        <time>2018-06-25T09:05:29.146Z</time>
      </trkpt>
      <trkpt lat="47.86073" lon="3.97981">
        <ele>135</ele>
        <time>2018-06-25T09:05:30.146Z</time>
      </trkpt>
      <trkpt lat="47.86038" lon="3.9795">
        <ele>136</ele>
        <time>2018-06-25T09:05:31.146Z</time>
      </trkpt>
      <trkpt lat="47.85953" lon="3.97859">
        <ele>135</ele>
        <time>2018-06-25T09:05:32.146Z</time>
      </trkpt>
      <trkpt lat="47.8588" lon="3.97755">
        <ele>136</ele>
        <time>2018-06-25T09:05:33.146Z</time>
      </trkpt>
      <trkpt lat="47.85856" lon="3.97717">
        <ele>135</ele>
        <time>2018-06-25T09:05:34.146Z</time>
      </trkpt>
      <trkpt lat="47.85856" lon="3.97716">
        <ele>135</ele>
        <time>2018-06-25T09:05:35.146Z</time>
      </trkpt>
      <trkpt lat="47.85839" lon="3.97693">
        <ele>135</ele>
        <time>2018-06-25T09:05:36.146Z</time>
      </trkpt>
      <trkpt lat="47.85726" lon="3.9754">
        <ele>137</ele>
        <time>2018-06-25T09:05:37.146Z</time>
      </trkpt>
      <trkpt lat="47.85646" lon="3.97477">
        <ele>140</ele>
        <time>2018-06-25T09:05:38.146Z</time>
      </trkpt>
      <trkpt lat="47.85549" lon="3.97388">
        <ele>150</ele>
        <time>2018-06-25T09:05:39.146Z</time>
      </trkpt>
      <trkpt lat="47.85549" lon="3.97388">
        <ele>150</ele>
        <time>2018-06-25T09:05:40.146Z</time>
      </trkpt>
      <trkpt lat="47.85514" lon="3.97362">
        <ele>152</ele>
        <time>2018-06-25T09:05:41.146Z</time>
      </trkpt>
      <trkpt lat="47.85505" lon="3.97349">
        <ele>152</ele>
        <time>2018-06-25T09:05:42.146Z</time>
      </trkpt>
      <trkpt lat="47.85513" lon="3.97342">
        <ele>152</ele>
        <time>2018-06-25T09:05:43.146Z</time>
      </trkpt>
      <trkpt lat="47.85576" lon="3.97294">
        <ele>156</ele>
        <time>2018-06-25T09:05:44.146Z</time>
      </trkpt>
      <trkpt lat="47.85588" lon="3.9726">
        <ele>159</ele>
        <time>2018-06-25T09:05:45.146Z</time>
      </trkpt>
      <trkpt lat="47.85576" lon="3.97246">
        <ele>160</ele>
        <time>2018-06-25T09:05:46.146Z</time>
      </trkpt>
      <trkpt lat="47.8558" lon="3.9725">
        <ele>160</ele>
        <time>2018-06-25T09:05:47.146Z</time>
      </trkpt>
      <trkpt lat="47.85566" lon="3.9723">
        <ele>161</ele>
        <time>2018-06-25T09:05:48.146Z</time>
      </trkpt>
      <trkpt lat="47.85535" lon="3.97179">
        <ele>164</ele>
        <time>2018-06-25T09:05:49.146Z</time>
      </trkpt>
      <trkpt lat="47.85531" lon="3.9717">
        <ele>164</ele>
        <time>2018-06-25T09:05:50.146Z</time>
      </trkpt>
      <trkpt lat="47.8552" lon="3.97123">
        <ele>168</ele>
        <time>2018-06-25T09:05:51.146Z</time>
      </trkpt>
      <trkpt lat="47.85518" lon="3.97109">
        <ele>169</ele>
        <time>2018-06-25T09:05:52.146Z</time>
      </trkpt>
      <trkpt lat="47.85516" lon="3.97105">
        <ele>169</ele>
        <time>2018-06-25T09:05:53.146Z</time>
      </trkpt>
      <trkpt lat="47.85522" lon="3.97031">
        <ele>176</ele>
        <time>2018-06-25T09:05:54.146Z</time>
      </trkpt>
      <trkpt lat="47.85542" lon="3.96995">
        <ele>181</ele>
        <time>2018-06-25T09:05:55.146Z</time>
      </trkpt>
      <trkpt lat="47.85634" lon="3.96908">
        <ele>195</ele>
        <time>2018-06-25T09:05:56.146Z</time>
      </trkpt>
      <trkpt lat="47.85681" lon="3.96881">
        <ele>197</ele>
        <time>2018-06-25T09:05:57.146Z</time>
      </trkpt>
      <trkpt lat="47.85686" lon="3.9683">
        <ele>202</ele>
        <time>2018-06-25T09:05:58.146Z</time>
      </trkpt>
      <trkpt lat="47.85776" lon="3.9665">
        <ele>199</ele>
        <time>2018-06-25T09:05:59.146Z</time>
      </trkpt>
      <trkpt lat="47.85814" lon="3.96556">
        <ele>196</ele>
        <time>2018-06-25T09:06:00.146Z</time>
      </trkpt>
      <trkpt lat="47.85912" lon="3.96429">
        <ele>199</ele>
        <time>2018-06-25T09:06:01.146Z</time>
      </trkpt>
      <trkpt lat="47.85935" lon="3.96335">
        <ele>209</ele>
        <time>2018-06-25T09:06:02.146Z</time>
      </trkpt>
      <trkpt lat="47.85972" lon="3.96265">
        <ele>213</ele>
        <time>2018-06-25T09:06:03.146Z</time>
      </trkpt>
      <trkpt lat="47.86024" lon="3.96191">
        <ele>225</ele>
        <time>2018-06-25T09:06:04.146Z</time>
      </trkpt>
      <trkpt lat="47.86121" lon="3.96177">
        <ele>237</ele>
        <time>2018-06-25T09:06:05.146Z</time>
      </trkpt>
      <trkpt lat="47.86206" lon="3.96124">
        <ele>250</ele>
        <time>2018-06-25T09:06:06.146Z</time>
      </trkpt>
      <trkpt lat="47.86253" lon="3.95992">
        <ele>257</ele>
        <time>2018-06-25T09:06:07.146Z</time>
      </trkpt>
      <trkpt lat="47.86307" lon="3.95802">
        <ele>262</ele>
        <time>2018-06-25T09:06:08.146Z</time>
      </trkpt>
      <trkpt lat="47.86347" lon="3.95705">
        <ele>264</ele>
        <time>2018-06-25T09:06:09.146Z</time>
      </trkpt>
      <trkpt lat="47.8632" lon="3.95688">
        <ele>267</ele>
        <time>2018-06-25T09:06:10.146Z</time>
      </trkpt>
      <trkpt lat="47.86361" lon="3.95641">
        <ele>265</ele>
        <time>2018-06-25T09:06:11.146Z</time>
      </trkpt>
      <trkpt lat="47.86518" lon="3.95104">
        <ele>260</ele>
        <time>2018-06-25T09:06:12.146Z</time>
      </trkpt>
      <trkpt lat="47.86533" lon="3.94994">
        <ele>262</ele>
        <time>2018-06-25T09:06:13.146Z</time>
      </trkpt>
      <trkpt lat="47.86589" lon="3.94773">
        <ele>269</ele>
        <time>2018-06-25T09:06:14.146Z</time>
      </trkpt>
      <trkpt lat="47.86632" lon="3.94569">
        <ele>280</ele>
        <time>2018-06-25T09:06:15.146Z</time>
      </trkpt>
      <trkpt lat="47.86688" lon="3.94347">
        <ele>284</ele>
        <time>2018-06-25T09:06:16.146Z</time>
      </trkpt>
      <trkpt lat="47.86719" lon="3.94197">
        <ele>288</ele>
        <time>2018-06-25T09:06:17.146Z</time>
      </trkpt>
      <trkpt lat="47.86838" lon="3.93925">
        <ele>287</ele>
        <time>2018-06-25T09:06:18.146Z</time>
      </trkpt>
      <trkpt lat="47.86883" lon="3.93687">
        <ele>276</ele>
        <time>2018-06-25T09:06:19.146Z</time>
      </trkpt>
      <trkpt lat="47.86892" lon="3.9358">
        <ele>272</ele>
        <time>2018-06-25T09:06:20.146Z</time>
      </trkpt>
      <trkpt lat="47.86925" lon="3.93432">
        <ele>266</ele>
        <time>2018-06-25T09:06:21.146Z</time>
      </trkpt>
      <trkpt lat="47.86991" lon="3.93262">
        <ele>265</ele>
        <time>2018-06-25T09:06:22.146Z</time>
      </trkpt>
      <trkpt lat="47.87058" lon="3.93161">
        <ele>264</ele>
        <time>2018-06-25T09:06:23.146Z</time>
      </trkpt>
      <trkpt lat="47.87101" lon="3.93064">
        <ele>265</ele>
        <time>2018-06-25T09:06:24.146Z</time>
      </trkpt>
      <trkpt lat="47.87132" lon="3.9293">
        <ele>271</ele>
        <time>2018-06-25T09:06:25.146Z</time>
      </trkpt>
      <trkpt lat="47.87215" lon="3.92655">
        <ele>272</ele>
        <time>2018-06-25T09:06:26.146Z</time>
      </trkpt>
      <trkpt lat="47.87243" lon="3.92607">
        <ele>269</ele>
        <time>2018-06-25T09:06:27.146Z</time>
      </trkpt>
      <trkpt lat="47.873" lon="3.92367">
        <ele>258</ele>
        <time>2018-06-25T09:06:28.146Z</time>
      </trkpt>
      <trkpt lat="47.87334" lon="3.92142">
        <ele>255</ele>
        <time>2018-06-25T09:06:29.146Z</time>
      </trkpt>
      <trkpt lat="47.87296" lon="3.92098">
        <ele>256</ele>
        <time>2018-06-25T09:06:30.146Z</time>
      </trkpt>
      <trkpt lat="47.86839" lon="3.91797">
        <ele>244</ele>
        <time>2018-06-25T09:06:31.146Z</time>
      </trkpt>
      <trkpt lat="47.86792" lon="3.91793">
        <ele>244</ele>
        <time>2018-06-25T09:06:32.146Z</time>
      </trkpt>
      <trkpt lat="47.86747" lon="3.91817">
        <ele>238</ele>
        <time>2018-06-25T09:06:33.146Z</time>
      </trkpt>
      <trkpt lat="47.86668" lon="3.91907">
        <ele>227</ele>
        <time>2018-06-25T09:06:34.146Z</time>
      </trkpt>
      <trkpt lat="47.86585" lon="3.91924">
        <ele>223</ele>
        <time>2018-06-25T09:06:35.146Z</time>
      </trkpt>
      <trkpt lat="47.86533" lon="3.91923">
        <ele>224</ele>
        <time>2018-06-25T09:06:36.146Z</time>
      </trkpt>
      <trkpt lat="47.86482" lon="3.91904">
        <ele>227</ele>
        <time>2018-06-25T09:06:37.146Z</time>
      </trkpt>
      <trkpt lat="47.86422" lon="3.91911">
        <ele>224</ele>
        <time>2018-06-25T09:06:38.146Z</time>
      </trkpt>
      <trkpt lat="47.86291" lon="3.9185">
        <ele>222</ele>
        <time>2018-06-25T09:06:39.146Z</time>
      </trkpt>
      <trkpt lat="47.86208" lon="3.91766">
        <ele>226</ele>
        <time>2018-06-25T09:06:40.146Z</time>
      </trkpt>
      <trkpt lat="47.86121" lon="3.91783">
        <ele>220</ele>
        <time>2018-06-25T09:06:41.146Z</time>
      </trkpt>
      <trkpt lat="47.85993" lon="3.91767">
        <ele>218</ele>
        <time>2018-06-25T09:06:42.146Z</time>
      </trkpt>
      <trkpt lat="47.85876" lon="3.917">
        <ele>217</ele>
        <time>2018-06-25T09:06:43.146Z</time>
      </trkpt>
      <trkpt lat="47.85836" lon="3.91645">
        <ele>220</ele>
        <time>2018-06-25T09:06:44.146Z</time>
      </trkpt>
      <trkpt lat="47.85807" lon="3.91588">
        <ele>224</ele>
        <time>2018-06-25T09:06:45.146Z</time>
      </trkpt>
      <trkpt lat="47.85684" lon="3.91515">
        <ele>213</ele>
        <time>2018-06-25T09:06:46.146Z</time>
      </trkpt>
      <trkpt lat="47.85632" lon="3.91448">
        <ele>211</ele>
        <time>2018-06-25T09:06:47.146Z</time>
      </trkpt>
      <trkpt lat="47.85603" lon="3.91371">
        <ele>210</ele>
        <time>2018-06-25T09:06:48.146Z</time>
      </trkpt>
      <trkpt lat="47.85563" lon="3.91217">
        <ele>207</ele>
        <time>2018-06-25T09:06:49.146Z</time>
      </trkpt>
      <trkpt lat="47.85366" lon="3.91227">
        <ele>190</ele>
        <time>2018-06-25T09:06:50.146Z</time>
      </trkpt>
      <trkpt lat="47.85309" lon="3.91166">
        <ele>186</ele>
        <time>2018-06-25T09:06:51.146Z</time>
      </trkpt>
      <trkpt lat="47.85343" lon="3.90999">
        <ele>185</ele>
        <time>2018-06-25T09:06:52.146Z</time>
      </trkpt>
      <trkpt lat="47.85374" lon="3.90673">
        <ele>183</ele>
        <time>2018-06-25T09:06:53.146Z</time>
      </trkpt>
      <trkpt lat="47.85381" lon="3.90443">
        <ele>182</ele>
        <time>2018-06-25T09:06:54.146Z</time>
      </trkpt>
      <trkpt lat="47.85403" lon="3.90282">
        <ele>181</ele>
        <time>2018-06-25T09:06:55.146Z</time>
      </trkpt>
      <trkpt lat="47.85248" lon="3.90185">
        <ele>184</ele>
        <time>2018-06-25T09:06:56.146Z</time>
      </trkpt>
      <trkpt lat="47.85226" lon="3.90184">
        <ele>186</ele>
        <time>2018-06-25T09:06:57.146Z</time>
      </trkpt>
      <trkpt lat="47.85201" lon="3.90154">
        <ele>187</ele>
        <time>2018-06-25T09:06:58.146Z</time>
      </trkpt>
      <trkpt lat="47.85188" lon="3.90091">
        <ele>187</ele>
        <time>2018-06-25T09:06:59.146Z</time>
      </trkpt>
      <trkpt lat="47.85141" lon="3.90051">
        <ele>190</ele>
        <time>2018-06-25T09:07:00.146Z</time>
      </trkpt>
      <trkpt lat="47.85177" lon="3.89939">
        <ele>194</ele>
        <time>2018-06-25T09:07:01.146Z</time>
      </trkpt>
      <trkpt lat="47.85221" lon="3.89685">
        <ele>196</ele>
        <time>2018-06-25T09:07:02.146Z</time>
      </trkpt>
      <trkpt lat="47.85213" lon="3.89558">
        <ele>197</ele>
        <time>2018-06-25T09:07:03.146Z</time>
      </trkpt>
      <trkpt lat="47.85195" lon="3.89477">
        <ele>198</ele>
        <time>2018-06-25T09:07:04.146Z</time>
      </trkpt>
      <trkpt lat="47.85145" lon="3.89374">
        <ele>201</ele>
        <time>2018-06-25T09:07:05.146Z</time>
      </trkpt>
      <trkpt lat="47.85089" lon="3.89313">
        <ele>205</ele>
        <time>2018-06-25T09:07:06.146Z</time>
      </trkpt>
      <trkpt lat="47.85042" lon="3.89229">
        <ele>209</ele>
        <time>2018-06-25T09:07:07.146Z</time>
      </trkpt>
      <trkpt lat="47.84946" lon="3.89156">
        <ele>217</ele>
        <time>2018-06-25T09:07:08.146Z</time>
      </trkpt>
      <trkpt lat="47.84915" lon="3.89125">
        <ele>222</ele>
        <time>2018-06-25T09:07:09.146Z</time>
      </trkpt>
      <trkpt lat="47.84804" lon="3.89035">
        <ele>236</ele>
        <time>2018-06-25T09:07:10.146Z</time>
      </trkpt>
      <trkpt lat="47.84643" lon="3.88827">
        <ele>250</ele>
        <time>2018-06-25T09:07:11.146Z</time>
      </trkpt>
      <trkpt lat="47.84576" lon="3.88656">
        <ele>251</ele>
        <time>2018-06-25T09:07:12.146Z</time>
      </trkpt>
      <trkpt lat="47.84466" lon="3.88465">
        <ele>245</ele>
        <time>2018-06-25T09:07:13.146Z</time>
      </trkpt>
      <trkpt lat="47.84347" lon="3.88214">
        <ele>230</ele>
        <time>2018-06-25T09:07:14.146Z</time>
      </trkpt>
      <trkpt lat="47.84284" lon="3.88053">
        <ele>221</ele>
        <time>2018-06-25T09:07:15.146Z</time>
      </trkpt>
      <trkpt lat="47.84273" lon="3.87989">
        <ele>214</ele>
        <time>2018-06-25T09:07:16.146Z</time>
      </trkpt>
      <trkpt lat="47.84284" lon="3.87852">
        <ele>209</ele>
        <time>2018-06-25T09:07:17.146Z</time>
      </trkpt>
      <trkpt lat="47.84276" lon="3.87788">
        <ele>209</ele>
        <time>2018-06-25T09:07:18.146Z</time>
      </trkpt>
      <trkpt lat="47.84285" lon="3.87751">
        <ele>209</ele>
        <time>2018-06-25T09:07:19.146Z</time>
      </trkpt>
      <trkpt lat="47.8434" lon="3.87637">
        <ele>209</ele>
        <time>2018-06-25T09:07:20.146Z</time>
      </trkpt>
      <trkpt lat="47.84336" lon="3.8752">
        <ele>212</ele>
        <time>2018-06-25T09:07:21.146Z</time>
      </trkpt>
      <trkpt lat="47.84318" lon="3.87413">
        <ele>211</ele>
        <time>2018-06-25T09:07:22.146Z</time>
      </trkpt>
      <trkpt lat="47.84324" lon="3.87369">
        <ele>211</ele>
        <time>2018-06-25T09:07:23.146Z</time>
      </trkpt>
      <trkpt lat="47.84345" lon="3.87319">
        <ele>210</ele>
        <time>2018-06-25T09:07:24.146Z</time>
      </trkpt>
      <trkpt lat="47.84339" lon="3.87268">
        <ele>212</ele>
        <time>2018-06-25T09:07:25.146Z</time>
      </trkpt>
      <trkpt lat="47.84257" lon="3.87168">
        <ele>221</ele>
        <time>2018-06-25T09:07:26.146Z</time>
      </trkpt>
      <trkpt lat="47.84224" lon="3.87137">
        <ele>224</ele>
        <time>2018-06-25T09:07:27.146Z</time>
      </trkpt>
      <trkpt lat="47.8422" lon="3.87077">
        <ele>228</ele>
        <time>2018-06-25T09:07:28.146Z</time>
      </trkpt>
      <trkpt lat="47.84195" lon="3.87041">
        <ele>230</ele>
        <time>2018-06-25T09:07:29.146Z</time>
      </trkpt>
      <trkpt lat="47.84148" lon="3.87004">
        <ele>235</ele>
        <time>2018-06-25T09:07:30.146Z</time>
      </trkpt>
      <trkpt lat="47.84105" lon="3.86934">
        <ele>241</ele>
        <time>2018-06-25T09:07:31.146Z</time>
      </trkpt>
      <trkpt lat="47.8402" lon="3.86706">
        <ele>252</ele>
        <time>2018-06-25T09:07:32.146Z</time>
      </trkpt>
      <trkpt lat="47.83943" lon="3.86555">
        <ele>256</ele>
        <time>2018-06-25T09:07:33.146Z</time>
      </trkpt>
      <trkpt lat="47.83777" lon="3.85984">
        <ele>265</ele>
        <time>2018-06-25T09:07:34.146Z</time>
      </trkpt>
      <trkpt lat="47.83742" lon="3.8581">
        <ele>264</ele>
        <time>2018-06-25T09:07:35.146Z</time>
      </trkpt>
      <trkpt lat="47.83677" lon="3.85623">
        <ele>262</ele>
        <time>2018-06-25T09:07:36.146Z</time>
      </trkpt>
      <trkpt lat="47.83653" lon="3.85449">
        <ele>265</ele>
        <time>2018-06-25T09:07:37.146Z</time>
      </trkpt>
      <trkpt lat="47.83649" lon="3.8526">
        <ele>266</ele>
        <time>2018-06-25T09:07:38.146Z</time>
      </trkpt>
      <trkpt lat="47.83621" lon="3.85114">
        <ele>266</ele>
        <time>2018-06-25T09:07:39.146Z</time>
      </trkpt>
      <trkpt lat="47.83592" lon="3.85059">
        <ele>266</ele>
        <time>2018-06-25T09:07:40.146Z</time>
      </trkpt>
      <trkpt lat="47.83356" lon="3.84745">
        <ele>264</ele>
        <time>2018-06-25T09:07:41.146Z</time>
      </trkpt>
      <trkpt lat="47.83244" lon="3.84618">
        <ele>268</ele>
        <time>2018-06-25T09:07:42.146Z</time>
      </trkpt>
      <trkpt lat="47.83141" lon="3.84533">
        <ele>271</ele>
        <time>2018-06-25T09:07:43.146Z</time>
      </trkpt>
      <trkpt lat="47.8306" lon="3.8444">
        <ele>270</ele>
        <time>2018-06-25T09:07:44.146Z</time>
      </trkpt>
      <trkpt lat="47.82883" lon="3.84135">
        <ele>267</ele>
        <time>2018-06-25T09:07:45.146Z</time>
      </trkpt>
      <trkpt lat="47.82805" lon="3.83981">
        <ele>267</ele>
        <time>2018-06-25T09:07:46.146Z</time>
      </trkpt>
      <trkpt lat="47.82733" lon="3.83913">
        <ele>267</ele>
        <time>2018-06-25T09:07:47.146Z</time>
      </trkpt>
      <trkpt lat="47.82702" lon="3.83866">
        <ele>268</ele>
        <time>2018-06-25T09:07:48.146Z</time>
      </trkpt>
      <trkpt lat="47.82672" lon="3.83786">
        <ele>270</ele>
        <time>2018-06-25T09:07:49.146Z</time>
      </trkpt>
      <trkpt lat="47.82625" lon="3.83695">
        <ele>270</ele>
        <time>2018-06-25T09:07:50.146Z</time>
      </trkpt>
      <trkpt lat="47.82541" lon="3.83474">
        <ele>266</ele>
        <time>2018-06-25T09:07:51.146Z</time>
      </trkpt>
      <trkpt lat="47.82446" lon="3.83274">
        <ele>264</ele>
        <time>2018-06-25T09:07:52.146Z</time>
      </trkpt>
      <trkpt lat="47.82406" lon="3.832">
        <ele>264</ele>
        <time>2018-06-25T09:07:53.146Z</time>
      </trkpt>
      <trkpt lat="47.82222" lon="3.82942">
        <ele>255</ele>
        <time>2018-06-25T09:07:54.146Z</time>
      </trkpt>
      <trkpt lat="47.82139" lon="3.82841">
        <ele>254</ele>
        <time>2018-06-25T09:07:55.146Z</time>
      </trkpt>
      <trkpt lat="47.82051" lon="3.82714">
        <ele>250</ele>
        <time>2018-06-25T09:07:56.146Z</time>
      </trkpt>
      <trkpt lat="47.81975" lon="3.82616">
        <ele>244</ele>
        <time>2018-06-25T09:07:57.146Z</time>
      </trkpt>
      <trkpt lat="47.81886" lon="3.82513">
        <ele>237</ele>
        <time>2018-06-25T09:07:58.146Z</time>
      </trkpt>
      <trkpt lat="47.81809" lon="3.82436">
        <ele>229</ele>
        <time>2018-06-25T09:07:59.146Z</time>
      </trkpt>
      <trkpt lat="47.81716" lon="3.82211">
        <ele>206</ele>
        <time>2018-06-25T09:08:00.146Z</time>
      </trkpt>
      <trkpt lat="47.81655" lon="3.82039">
        <ele>192</ele>
        <time>2018-06-25T09:08:01.146Z</time>
      </trkpt>
      <trkpt lat="47.81626" lon="3.81853">
        <ele>178</ele>
        <time>2018-06-25T09:08:02.146Z</time>
      </trkpt>
      <trkpt lat="47.81603" lon="3.81658">
        <ele>164</ele>
        <time>2018-06-25T09:08:03.146Z</time>
      </trkpt>
      <trkpt lat="47.81558" lon="3.8148">
        <ele>152</ele>
        <time>2018-06-25T09:08:04.146Z</time>
      </trkpt>
      <trkpt lat="47.81554" lon="3.814">
        <ele>148</ele>
        <time>2018-06-25T09:08:05.146Z</time>
      </trkpt>
      <trkpt lat="47.81489" lon="3.81377">
        <ele>149</ele>
        <time>2018-06-25T09:08:06.146Z</time>
      </trkpt>
      <trkpt lat="47.81366" lon="3.81373">
        <ele>147</ele>
        <time>2018-06-25T09:08:07.146Z</time>
      </trkpt>
      <trkpt lat="47.81275" lon="3.81323">
        <ele>143</ele>
        <time>2018-06-25T09:08:08.146Z</time>
      </trkpt>
      <trkpt lat="47.81184" lon="3.81309">
        <ele>143</ele>
        <time>2018-06-25T09:08:09.146Z</time>
      </trkpt>
      <trkpt lat="47.81168" lon="3.81282">
        <ele>142</ele>
        <time>2018-06-25T09:08:10.146Z</time>
      </trkpt>
      <trkpt lat="47.81186" lon="3.81222">
        <ele>140</ele>
        <time>2018-06-25T09:08:11.146Z</time>
      </trkpt>
      <trkpt lat="47.81161" lon="3.81171">
        <ele>138</ele>
        <time>2018-06-25T09:08:12.146Z</time>
      </trkpt>
      <trkpt lat="47.81146" lon="3.81082">
        <ele>135</ele>
        <time>2018-06-25T09:08:13.146Z</time>
      </trkpt>
      <trkpt lat="47.81154" lon="3.81048">
        <ele>135</ele>
        <time>2018-06-25T09:08:14.146Z</time>
      </trkpt>
      <trkpt lat="47.81206" lon="3.81011">
        <ele>134</ele>
        <time>2018-06-25T09:08:15.146Z</time>
      </trkpt>
      <trkpt lat="47.81366" lon="3.80649">
        <ele>130</ele>
        <time>2018-06-25T09:08:16.146Z</time>
      </trkpt>
      <trkpt lat="47.81374" lon="3.80501">
        <ele>130</ele>
        <time>2018-06-25T09:08:17.146Z</time>
      </trkpt>
      <trkpt lat="47.81451" lon="3.80378">
        <ele>131</ele>
        <time>2018-06-25T09:08:18.146Z</time>
      </trkpt>
      <trkpt lat="47.81499" lon="3.80291">
        <ele>132</ele>
        <time>2018-06-25T09:08:19.146Z</time>
      </trkpt>
      <trkpt lat="47.81538" lon="3.80276">
        <ele>132</ele>
        <time>2018-06-25T09:08:20.146Z</time>
      </trkpt>
      <trkpt lat="47.81537" lon="3.80273">
        <ele>132</ele>
        <time>2018-06-25T09:08:21.146Z</time>
      </trkpt>
      <trkpt lat="47.81541" lon="3.80271">
        <ele>132</ele>
        <time>2018-06-25T09:08:22.146Z</time>
      </trkpt>
      <trkpt lat="47.81532" lon="3.8017">
        <ele>133</ele>
        <time>2018-06-25T09:08:23.146Z</time>
      </trkpt>
      <trkpt lat="47.81507" lon="3.80083">
        <ele>136</ele>
        <time>2018-06-25T09:08:24.146Z</time>
      </trkpt>
      <trkpt lat="47.81503" lon="3.80035">
        <ele>138</ele>
        <time>2018-06-25T09:08:25.146Z</time>
      </trkpt>
      <trkpt lat="47.81505" lon="3.80014">
        <ele>138</ele>
        <time>2018-06-25T09:08:26.146Z</time>
      </trkpt>
      <trkpt lat="47.81512" lon="3.79975">
        <ele>138</ele>
        <time>2018-06-25T09:08:27.146Z</time>
      </trkpt>
      <trkpt lat="47.81518" lon="3.79964">
        <ele>138</ele>
        <time>2018-06-25T09:08:28.146Z</time>
      </trkpt>
      <trkpt lat="47.81534" lon="3.79916">
        <ele>137</ele>
        <time>2018-06-25T09:08:29.146Z</time>
      </trkpt>
      <trkpt lat="47.81539" lon="3.79894">
        <ele>137</ele>
        <time>2018-06-25T09:08:30.146Z</time>
      </trkpt>
      <trkpt lat="47.81539" lon="3.79895">
        <ele>137</ele>
        <time>2018-06-25T09:08:31.146Z</time>
      </trkpt>
      <trkpt lat="47.81546" lon="3.79823">
        <ele>137</ele>
        <time>2018-06-25T09:08:32.146Z</time>
      </trkpt>
      <trkpt lat="47.81547" lon="3.79773">
        <ele>138</ele>
        <time>2018-06-25T09:08:33.146Z</time>
      </trkpt>
      <trkpt lat="47.81552" lon="3.7977">
        <ele>138</ele>
        <time>2018-06-25T09:08:34.146Z</time>
      </trkpt>
      <trkpt lat="47.81554" lon="3.79763">
        <ele>138</ele>
        <time>2018-06-25T09:08:35.146Z</time>
      </trkpt>
      <trkpt lat="47.81554" lon="3.79763">
        <ele>138</ele>
        <time>2018-06-25T09:08:36.146Z</time>
      </trkpt>
      <trkpt lat="47.81552" lon="3.79754">
        <ele>138</ele>
        <time>2018-06-25T09:08:37.146Z</time>
      </trkpt>
      <trkpt lat="47.81549" lon="3.79751">
        <ele>138</ele>
        <time>2018-06-25T09:08:38.146Z</time>
      </trkpt>
      <trkpt lat="47.81544" lon="3.7975">
        <ele>138</ele>
        <time>2018-06-25T09:08:39.146Z</time>
      </trkpt>
      <trkpt lat="47.81544" lon="3.79674">
        <ele>138</ele>
        <time>2018-06-25T09:08:40.146Z</time>
      </trkpt>
      <trkpt lat="47.81558" lon="3.79452">
        <ele>135</ele>
        <time>2018-06-25T09:08:41.146Z</time>
      </trkpt>
      <trkpt lat="47.81566" lon="3.79375">
        <ele>134</ele>
        <time>2018-06-25T09:08:42.146Z</time>
      </trkpt>
      <trkpt lat="47.8157" lon="3.79375">
        <ele>134</ele>
        <time>2018-06-25T09:08:43.146Z</time>
      </trkpt>
      <trkpt lat="47.81576" lon="3.79366">
        <ele>134</ele>
        <time>2018-06-25T09:08:44.146Z</time>
      </trkpt>
      <trkpt lat="47.81576" lon="3.79362">
        <ele>134</ele>
        <time>2018-06-25T09:08:45.146Z</time>
      </trkpt>
      <trkpt lat="47.81574" lon="3.79352">
        <ele>134</ele>
        <time>2018-06-25T09:08:46.146Z</time>
      </trkpt>
      <trkpt lat="47.8157" lon="3.79349">
        <ele>134</ele>
        <time>2018-06-25T09:08:47.146Z</time>
      </trkpt>
      <trkpt lat="47.81566" lon="3.79349">
        <ele>134</ele>
        <time>2018-06-25T09:08:48.146Z</time>
      </trkpt>
      <trkpt lat="47.8158" lon="3.79211">
        <ele>134</ele>
        <time>2018-06-25T09:08:49.146Z</time>
      </trkpt>
      <trkpt lat="47.81594" lon="3.791">
        <ele>134</ele>
        <time>2018-06-25T09:08:50.146Z</time>
      </trkpt>
      <trkpt lat="47.81607" lon="3.7902">
        <ele>132</ele>
        <time>2018-06-25T09:08:51.146Z</time>
      </trkpt>
      <trkpt lat="47.81602" lon="3.79017">
        <ele>132</ele>
        <time>2018-06-25T09:08:52.146Z</time>
      </trkpt>
      <trkpt lat="47.81603" lon="3.79018">
        <ele>132</ele>
        <time>2018-06-25T09:08:53.146Z</time>
      </trkpt>
      <trkpt lat="47.81391" lon="3.7892">
        <ele>134</ele>
        <time>2018-06-25T09:08:54.146Z</time>
      </trkpt>
      <trkpt lat="47.81388" lon="3.78903">
        <ele>134</ele>
        <time>2018-06-25T09:08:55.146Z</time>
      </trkpt>
      <trkpt lat="47.8136" lon="3.78682">
        <ele>135</ele>
        <time>2018-06-25T09:08:56.146Z</time>
      </trkpt>
      <trkpt lat="47.8136" lon="3.78524">
        <ele>136</ele>
        <time>2018-06-25T09:08:57.146Z</time>
      </trkpt>
      <trkpt lat="47.81334" lon="3.78219">
        <ele>136</ele>
        <time>2018-06-25T09:08:58.146Z</time>
      </trkpt>
      <trkpt lat="47.81325" lon="3.77873">
        <ele>144</ele>
        <time>2018-06-25T09:08:59.146Z</time>
      </trkpt>
      <trkpt lat="47.81309" lon="3.7777">
        <ele>148</ele>
        <time>2018-06-25T09:09:00.146Z</time>
      </trkpt>
      <trkpt lat="47.81368" lon="3.77693">
        <ele>150</ele>
        <time>2018-06-25T09:09:01.146Z</time>
      </trkpt>
      <trkpt lat="47.81366" lon="3.77693">
        <ele>150</ele>
        <time>2018-06-25T09:09:02.146Z</time>
      </trkpt>
      <trkpt lat="47.81303" lon="3.77776">
        <ele>149</ele>
        <time>2018-06-25T09:09:03.146Z</time>
      </trkpt>
      <trkpt lat="47.8135" lon="3.77717">
        <ele>149</ele>
        <time>2018-06-25T09:09:04.146Z</time>
      </trkpt>
      <trkpt lat="47.81393" lon="3.77652">
        <ele>151</ele>
        <time>2018-06-25T09:09:05.146Z</time>
      </trkpt>
      <trkpt lat="47.81455" lon="3.77529">
        <ele>153</ele>
        <time>2018-06-25T09:09:06.146Z</time>
      </trkpt>
      <trkpt lat="47.81446" lon="3.77525">
        <ele>154</ele>
        <time>2018-06-25T09:09:07.146Z</time>
      </trkpt>
      <trkpt lat="47.81359" lon="3.77414">
        <ele>159</ele>
        <time>2018-06-25T09:09:08.146Z</time>
      </trkpt>
      <trkpt lat="47.81357" lon="3.77401">
        <ele>159</ele>
        <time>2018-06-25T09:09:09.146Z</time>
      </trkpt>
      <trkpt lat="47.81336" lon="3.77434">
        <ele>159</ele>
        <time>2018-06-25T09:09:10.146Z</time>
      </trkpt>
      <trkpt lat="47.8131" lon="3.77472">
        <ele>159</ele>
        <time>2018-06-25T09:09:11.146Z</time>
      </trkpt>
      <trkpt lat="47.81283" lon="3.77502">
        <ele>160</ele>
        <time>2018-06-25T09:09:12.146Z</time>
      </trkpt>
      <trkpt lat="47.81258" lon="3.7752">
        <ele>161</ele>
        <time>2018-06-25T09:09:13.146Z</time>
      </trkpt>
      <trkpt lat="47.8124" lon="3.77529">
        <ele>163</ele>
        <time>2018-06-25T09:09:14.146Z</time>
      </trkpt>
      <trkpt lat="47.81222" lon="3.77515">
        <ele>164</ele>
        <time>2018-06-25T09:09:15.146Z</time>
      </trkpt>
      <trkpt lat="47.8115" lon="3.77432">
        <ele>171</ele>
        <time>2018-06-25T09:09:16.146Z</time>
      </trkpt>
      <trkpt lat="47.81106" lon="3.77368">
        <ele>176</ele>
        <time>2018-06-25T09:09:17.146Z</time>
      </trkpt>
      <trkpt lat="47.81034" lon="3.77234">
        <ele>181</ele>
        <time>2018-06-25T09:09:18.146Z</time>
      </trkpt>
      <trkpt lat="47.81011" lon="3.77267">
        <ele>184</ele>
        <time>2018-06-25T09:09:19.146Z</time>
      </trkpt>
      <trkpt lat="47.80957" lon="3.77234">
        <ele>193</ele>
        <time>2018-06-25T09:09:20.146Z</time>
      </trkpt>
      <trkpt lat="47.80955" lon="3.77237">
        <ele>193</ele>
        <time>2018-06-25T09:09:21.146Z</time>
      </trkpt>
      <trkpt lat="47.80903" lon="3.77217">
        <ele>202</ele>
        <time>2018-06-25T09:09:22.146Z</time>
      </trkpt>
      <trkpt lat="47.8087" lon="3.7721">
        <ele>207</ele>
        <time>2018-06-25T09:09:23.146Z</time>
      </trkpt>
      <trkpt lat="47.808" lon="3.7721">
        <ele>218</ele>
        <time>2018-06-25T09:09:24.146Z</time>
      </trkpt>
      <trkpt lat="47.80764" lon="3.77187">
        <ele>223</ele>
        <time>2018-06-25T09:09:25.146Z</time>
      </trkpt>
      <trkpt lat="47.80704" lon="3.77143">
        <ele>233</ele>
        <time>2018-06-25T09:09:26.146Z</time>
      </trkpt>
      <trkpt lat="47.80704" lon="3.77086">
        <ele>234</ele>
        <time>2018-06-25T09:09:27.146Z</time>
      </trkpt>
      <trkpt lat="47.80675" lon="3.76978">
        <ele>239</ele>
        <time>2018-06-25T09:09:28.146Z</time>
      </trkpt>
      <trkpt lat="47.80675" lon="3.76942">
        <ele>238</ele>
        <time>2018-06-25T09:09:29.146Z</time>
      </trkpt>
      <trkpt lat="47.80679" lon="3.76912">
        <ele>237</ele>
        <time>2018-06-25T09:09:30.146Z</time>
      </trkpt>
      <trkpt lat="47.80671" lon="3.76885">
        <ele>237</ele>
        <time>2018-06-25T09:09:31.146Z</time>
      </trkpt>
      <trkpt lat="47.80643" lon="3.76835">
        <ele>240</ele>
        <time>2018-06-25T09:09:32.146Z</time>
      </trkpt>
      <trkpt lat="47.80566" lon="3.76734">
        <ele>249</ele>
        <time>2018-06-25T09:09:33.146Z</time>
      </trkpt>
      <trkpt lat="47.80292" lon="3.76359">
        <ele>259</ele>
        <time>2018-06-25T09:09:34.146Z</time>
      </trkpt>
      <trkpt lat="47.8023" lon="3.76278">
        <ele>263</ele>
        <time>2018-06-25T09:09:35.146Z</time>
      </trkpt>
      <trkpt lat="47.8024" lon="3.76238">
        <ele>259</ele>
        <time>2018-06-25T09:09:36.146Z</time>
      </trkpt>
      <trkpt lat="47.8024" lon="3.76222">
        <ele>257</ele>
        <time>2018-06-25T09:09:37.146Z</time>
      </trkpt>
      <trkpt lat="47.80206" lon="3.76192">
        <ele>260</ele>
        <time>2018-06-25T09:09:38.146Z</time>
      </trkpt>
      <trkpt lat="47.80069" lon="3.76041">
        <ele>273</ele>
        <time>2018-06-25T09:09:39.146Z</time>
      </trkpt>
      <trkpt lat="47.79997" lon="3.75954">
        <ele>275</ele>
        <time>2018-06-25T09:09:40.146Z</time>
      </trkpt>
      <trkpt lat="47.79955" lon="3.75906">
        <ele>275</ele>
        <time>2018-06-25T09:09:41.146Z</time>
      </trkpt>
      <trkpt lat="47.79885" lon="3.75809">
        <ele>279</ele>
        <time>2018-06-25T09:09:42.146Z</time>
      </trkpt>
      <trkpt lat="47.79805" lon="3.75726">
        <ele>282</ele>
        <time>2018-06-25T09:09:43.146Z</time>
      </trkpt>
      <trkpt lat="47.79765" lon="3.75672">
        <ele>284</ele>
        <time>2018-06-25T09:09:44.146Z</time>
      </trkpt>
      <trkpt lat="47.79698" lon="3.75611">
        <ele>285</ele>
        <time>2018-06-25T09:09:45.146Z</time>
      </trkpt>
      <trkpt lat="47.79666" lon="3.75595">
        <ele>286</ele>
        <time>2018-06-25T09:09:46.146Z</time>
      </trkpt>
      <trkpt lat="47.79634" lon="3.75575">
        <ele>287</ele>
        <time>2018-06-25T09:09:47.146Z</time>
      </trkpt>
      <trkpt lat="47.79607" lon="3.75544">
        <ele>287</ele>
        <time>2018-06-25T09:09:48.146Z</time>
      </trkpt>
      <trkpt lat="47.79574" lon="3.75501">
        <ele>288</ele>
        <time>2018-06-25T09:09:49.146Z</time>
      </trkpt>
      <trkpt lat="47.79549" lon="3.75467">
        <ele>287</ele>
        <time>2018-06-25T09:09:50.146Z</time>
      </trkpt>
      <trkpt lat="47.79522" lon="3.75421">
        <ele>285</ele>
        <time>2018-06-25T09:09:51.146Z</time>
      </trkpt>
      <trkpt lat="47.79498" lon="3.75397">
        <ele>284</ele>
        <time>2018-06-25T09:09:52.146Z</time>
      </trkpt>
      <trkpt lat="47.7946" lon="3.7537">
        <ele>284</ele>
        <time>2018-06-25T09:09:53.146Z</time>
      </trkpt>
      <trkpt lat="47.79414" lon="3.7535">
        <ele>284</ele>
        <time>2018-06-25T09:09:54.146Z</time>
      </trkpt>
      <trkpt lat="47.79379" lon="3.7533">
        <ele>284</ele>
        <time>2018-06-25T09:09:55.146Z</time>
      </trkpt>
      <trkpt lat="47.79359" lon="3.75313">
        <ele>284</ele>
        <time>2018-06-25T09:09:56.146Z</time>
      </trkpt>
      <trkpt lat="47.7933" lon="3.75277">
        <ele>284</ele>
        <time>2018-06-25T09:09:57.146Z</time>
      </trkpt>
      <trkpt lat="47.79166" lon="3.75139">
        <ele>285</ele>
        <time>2018-06-25T09:09:58.146Z</time>
      </trkpt>
      <trkpt lat="47.79092" lon="3.75108">
        <ele>288</ele>
        <time>2018-06-25T09:09:59.146Z</time>
      </trkpt>
      <trkpt lat="47.79047" lon="3.75075">
        <ele>288</ele>
        <time>2018-06-25T09:10:00.146Z</time>
      </trkpt>
      <trkpt lat="47.78993" lon="3.75025">
        <ele>286</ele>
        <time>2018-06-25T09:10:01.146Z</time>
      </trkpt>
      <trkpt lat="47.78868" lon="3.74918">
        <ele>285</ele>
        <time>2018-06-25T09:10:02.146Z</time>
      </trkpt>
      <trkpt lat="47.78784" lon="3.74844">
        <ele>284</ele>
        <time>2018-06-25T09:10:03.146Z</time>
      </trkpt>
      <trkpt lat="47.7872" lon="3.74784">
        <ele>287</ele>
        <time>2018-06-25T09:10:04.146Z</time>
      </trkpt>
      <trkpt lat="47.78626" lon="3.74713">
        <ele>296</ele>
        <time>2018-06-25T09:10:05.146Z</time>
      </trkpt>
      <trkpt lat="47.7859" lon="3.7469">
        <ele>299</ele>
        <time>2018-06-25T09:10:06.146Z</time>
      </trkpt>
      <trkpt lat="47.78563" lon="3.7467">
        <ele>300</ele>
        <time>2018-06-25T09:10:07.146Z</time>
      </trkpt>
      <trkpt lat="47.78451" lon="3.74512">
        <ele>306</ele>
        <time>2018-06-25T09:10:08.146Z</time>
      </trkpt>
      <trkpt lat="47.78406" lon="3.74465">
        <ele>307</ele>
        <time>2018-06-25T09:10:09.146Z</time>
      </trkpt>
      <trkpt lat="47.78399" lon="3.74462">
        <ele>307</ele>
        <time>2018-06-25T09:10:10.146Z</time>
      </trkpt>
      <trkpt lat="47.78337" lon="3.74392">
        <ele>308</ele>
        <time>2018-06-25T09:10:11.146Z</time>
      </trkpt>
      <trkpt lat="47.78312" lon="3.74347">
        <ele>307</ele>
        <time>2018-06-25T09:10:12.146Z</time>
      </trkpt>
      <trkpt lat="47.78235" lon="3.74174">
        <ele>309</ele>
        <time>2018-06-25T09:10:13.146Z</time>
      </trkpt>
      <trkpt lat="47.78206" lon="3.7412">
        <ele>309</ele>
        <time>2018-06-25T09:10:14.146Z</time>
      </trkpt>
      <trkpt lat="47.78162" lon="3.74053">
        <ele>309</ele>
        <time>2018-06-25T09:10:15.146Z</time>
      </trkpt>
      <trkpt lat="47.78107" lon="3.73976">
        <ele>309</ele>
        <time>2018-06-25T09:10:16.146Z</time>
      </trkpt>
      <trkpt lat="47.78052" lon="3.73882">
        <ele>309</ele>
        <time>2018-06-25T09:10:17.146Z</time>
      </trkpt>
      <trkpt lat="47.78006" lon="3.73818">
        <ele>308</ele>
        <time>2018-06-25T09:10:18.146Z</time>
      </trkpt>
      <trkpt lat="47.77919" lon="3.73725">
        <ele>308</ele>
        <time>2018-06-25T09:10:19.146Z</time>
      </trkpt>
      <trkpt lat="47.77866" lon="3.73661">
        <ele>308</ele>
        <time>2018-06-25T09:10:20.146Z</time>
      </trkpt>
      <trkpt lat="47.77836" lon="3.73621">
        <ele>307</ele>
        <time>2018-06-25T09:10:21.146Z</time>
      </trkpt>
      <trkpt lat="47.77774" lon="3.73514">
        <ele>306</ele>
        <time>2018-06-25T09:10:22.146Z</time>
      </trkpt>
      <trkpt lat="47.77764" lon="3.73493">
        <ele>305</ele>
        <time>2018-06-25T09:10:23.146Z</time>
      </trkpt>
      <trkpt lat="47.77747" lon="3.7344">
        <ele>305</ele>
        <time>2018-06-25T09:10:24.146Z</time>
      </trkpt>
      <trkpt lat="47.77723" lon="3.7342">
        <ele>305</ele>
        <time>2018-06-25T09:10:25.146Z</time>
      </trkpt>
      <trkpt lat="47.77684" lon="3.73392">
        <ele>305</ele>
        <time>2018-06-25T09:10:26.146Z</time>
      </trkpt>
      <trkpt lat="47.7765" lon="3.73359">
        <ele>304</ele>
        <time>2018-06-25T09:10:27.146Z</time>
      </trkpt>
      <trkpt lat="47.77637" lon="3.73353">
        <ele>304</ele>
        <time>2018-06-25T09:10:28.146Z</time>
      </trkpt>
      <trkpt lat="47.77616" lon="3.73375">
        <ele>305</ele>
        <time>2018-06-25T09:10:29.146Z</time>
      </trkpt>
      <trkpt lat="47.77554" lon="3.73412">
        <ele>308</ele>
        <time>2018-06-25T09:10:30.146Z</time>
      </trkpt>
      <trkpt lat="47.7749" lon="3.7344">
        <ele>310</ele>
        <time>2018-06-25T09:10:31.146Z</time>
      </trkpt>
      <trkpt lat="47.77405" lon="3.73487">
        <ele>312</ele>
        <time>2018-06-25T09:10:32.146Z</time>
      </trkpt>
      <trkpt lat="47.77319" lon="3.73543">
        <ele>315</ele>
        <time>2018-06-25T09:10:33.146Z</time>
      </trkpt>
      <trkpt lat="47.77222" lon="3.73623">
        <ele>315</ele>
        <time>2018-06-25T09:10:34.146Z</time>
      </trkpt>
      <trkpt lat="47.76886" lon="3.73835">
        <ele>327</ele>
        <time>2018-06-25T09:10:35.146Z</time>
      </trkpt>
      <trkpt lat="47.76644" lon="3.73832">
        <ele>322</ele>
        <time>2018-06-25T09:10:36.146Z</time>
      </trkpt>
      <trkpt lat="47.76406" lon="3.73784">
        <ele>323</ele>
        <time>2018-06-25T09:10:37.146Z</time>
      </trkpt>
      <trkpt lat="47.76311" lon="3.73775">
        <ele>323</ele>
        <time>2018-06-25T09:10:38.146Z</time>
      </trkpt>
      <trkpt lat="47.76051" lon="3.73788">
        <ele>328</ele>
        <time>2018-06-25T09:10:39.146Z</time>
      </trkpt>
      <trkpt lat="47.75975" lon="3.73788">
        <ele>330</ele>
        <time>2018-06-25T09:10:40.146Z</time>
      </trkpt>
      <trkpt lat="47.7592" lon="3.73798">
        <ele>332</ele>
        <time>2018-06-25T09:10:41.146Z</time>
      </trkpt>
      <trkpt lat="47.75958" lon="3.73717">
        <ele>334</ele>
        <time>2018-06-25T09:10:42.146Z</time>
      </trkpt>
      <trkpt lat="47.75977" lon="3.73695">
        <ele>334</ele>
        <time>2018-06-25T09:10:43.146Z</time>
      </trkpt>
      <trkpt lat="47.75977" lon="3.73644">
        <ele>335</ele>
        <time>2018-06-25T09:10:44.146Z</time>
      </trkpt>
      <trkpt lat="47.75969" lon="3.73594">
        <ele>335</ele>
        <time>2018-06-25T09:10:45.146Z</time>
      </trkpt>
      <trkpt lat="47.75966" lon="3.73517">
        <ele>334</ele>
        <time>2018-06-25T09:10:46.146Z</time>
      </trkpt>
      <trkpt lat="47.75966" lon="3.7347">
        <ele>334</ele>
        <time>2018-06-25T09:10:47.146Z</time>
      </trkpt>
      <trkpt lat="47.75988" lon="3.73339">
        <ele>330</ele>
        <time>2018-06-25T09:10:48.146Z</time>
      </trkpt>
      <trkpt lat="47.75995" lon="3.73205">
        <ele>330</ele>
        <time>2018-06-25T09:10:49.146Z</time>
      </trkpt>
      <trkpt lat="47.76018" lon="3.73098">
        <ele>329</ele>
        <time>2018-06-25T09:10:50.146Z</time>
      </trkpt>
      <trkpt lat="47.76023" lon="3.7306">
        <ele>329</ele>
        <time>2018-06-25T09:10:51.146Z</time>
      </trkpt>
      <trkpt lat="47.76025" lon="3.72954">
        <ele>325</ele>
        <time>2018-06-25T09:10:52.146Z</time>
      </trkpt>
      <trkpt lat="47.75987" lon="3.72954">
        <ele>326</ele>
        <time>2018-06-25T09:10:53.146Z</time>
      </trkpt>
      <trkpt lat="47.75927" lon="3.7294">
        <ele>331</ele>
        <time>2018-06-25T09:10:54.146Z</time>
      </trkpt>
      <trkpt lat="47.75756" lon="3.72887">
        <ele>338</ele>
        <time>2018-06-25T09:10:55.146Z</time>
      </trkpt>
      <trkpt lat="47.75734" lon="3.72879">
        <ele>338</ele>
        <time>2018-06-25T09:10:56.146Z</time>
      </trkpt>
      <trkpt lat="47.75722" lon="3.72869">
        <ele>339</ele>
        <time>2018-06-25T09:10:57.146Z</time>
      </trkpt>
      <trkpt lat="47.75716" lon="3.72857">
        <ele>339</ele>
        <time>2018-06-25T09:10:58.146Z</time>
      </trkpt>
      <trkpt lat="47.75704" lon="3.72823">
        <ele>339</ele>
        <time>2018-06-25T09:10:59.146Z</time>
      </trkpt>
      <trkpt lat="47.7567" lon="3.72699">
        <ele>340</ele>
        <time>2018-06-25T09:11:00.146Z</time>
      </trkpt>
      <trkpt lat="47.75577" lon="3.7232">
        <ele>343</ele>
        <time>2018-06-25T09:11:01.146Z</time>
      </trkpt>
      <trkpt lat="47.75543" lon="3.72129">
        <ele>340</ele>
        <time>2018-06-25T09:11:02.146Z</time>
      </trkpt>
      <trkpt lat="47.75512" lon="3.72009">
        <ele>339</ele>
        <time>2018-06-25T09:11:03.146Z</time>
      </trkpt>
      <trkpt lat="47.75489" lon="3.71941">
        <ele>338</ele>
        <time>2018-06-25T09:11:04.146Z</time>
      </trkpt>
      <trkpt lat="47.75429" lon="3.71831">
        <ele>336</ele>
        <time>2018-06-25T09:11:05.146Z</time>
      </trkpt>
      <trkpt lat="47.75409" lon="3.71787">
        <ele>335</ele>
        <time>2018-06-25T09:11:06.146Z</time>
      </trkpt>
      <trkpt lat="47.75363" lon="3.71713">
        <ele>334</ele>
        <time>2018-06-25T09:11:07.146Z</time>
      </trkpt>
      <trkpt lat="47.75205" lon="3.71395">
        <ele>336</ele>
        <time>2018-06-25T09:11:08.146Z</time>
      </trkpt>
      <trkpt lat="47.75178" lon="3.71345">
        <ele>336</ele>
        <time>2018-06-25T09:11:09.146Z</time>
      </trkpt>
      <trkpt lat="47.75146" lon="3.71295">
        <ele>335</ele>
        <time>2018-06-25T09:11:10.146Z</time>
      </trkpt>
      <trkpt lat="47.75103" lon="3.71241">
        <ele>334</ele>
        <time>2018-06-25T09:11:11.146Z</time>
      </trkpt>
      <trkpt lat="47.75061" lon="3.71197">
        <ele>334</ele>
        <time>2018-06-25T09:11:12.146Z</time>
      </trkpt>
      <trkpt lat="47.75011" lon="3.7113">
        <ele>335</ele>
        <time>2018-06-25T09:11:13.146Z</time>
      </trkpt>
      <trkpt lat="47.74942" lon="3.70997">
        <ele>331</ele>
        <time>2018-06-25T09:11:14.146Z</time>
      </trkpt>
      <trkpt lat="47.7489" lon="3.70933">
        <ele>329</ele>
        <time>2018-06-25T09:11:15.146Z</time>
      </trkpt>
      <trkpt lat="47.74881" lon="3.70913">
        <ele>328</ele>
        <time>2018-06-25T09:11:16.146Z</time>
      </trkpt>
      <trkpt lat="47.74881" lon="3.70899">
        <ele>328</ele>
        <time>2018-06-25T09:11:17.146Z</time>
      </trkpt>
      <trkpt lat="47.74888" lon="3.70892">
        <ele>328</ele>
        <time>2018-06-25T09:11:18.146Z</time>
      </trkpt>
      <trkpt lat="47.74944" lon="3.70845">
        <ele>324</ele>
        <time>2018-06-25T09:11:19.146Z</time>
      </trkpt>
      <trkpt lat="47.74953" lon="3.70829">
        <ele>323</ele>
        <time>2018-06-25T09:11:20.146Z</time>
      </trkpt>
      <trkpt lat="47.74953" lon="3.70816">
        <ele>322</ele>
        <time>2018-06-25T09:11:21.146Z</time>
      </trkpt>
      <trkpt lat="47.74888" lon="3.70658">
        <ele>316</ele>
        <time>2018-06-25T09:11:22.146Z</time>
      </trkpt>
      <trkpt lat="47.74872" lon="3.70588">
        <ele>314</ele>
        <time>2018-06-25T09:11:23.146Z</time>
      </trkpt>
      <trkpt lat="47.74866" lon="3.7048">
        <ele>312</ele>
        <time>2018-06-25T09:11:24.146Z</time>
      </trkpt>
      <trkpt lat="47.74868" lon="3.7045">
        <ele>311</ele>
        <time>2018-06-25T09:11:25.146Z</time>
      </trkpt>
      <trkpt lat="47.74879" lon="3.70352">
        <ele>305</ele>
        <time>2018-06-25T09:11:26.146Z</time>
      </trkpt>
      <trkpt lat="47.74904" lon="3.70252">
        <ele>300</ele>
        <time>2018-06-25T09:11:27.146Z</time>
      </trkpt>
      <trkpt lat="47.74906" lon="3.70145">
        <ele>291</ele>
        <time>2018-06-25T09:11:28.146Z</time>
      </trkpt>
      <trkpt lat="47.74902" lon="3.70038">
        <ele>283</ele>
        <time>2018-06-25T09:11:29.146Z</time>
      </trkpt>
      <trkpt lat="47.74872" lon="3.69806">
        <ele>269</ele>
        <time>2018-06-25T09:11:30.146Z</time>
      </trkpt>
      <trkpt lat="47.74866" lon="3.69779">
        <ele>269</ele>
        <time>2018-06-25T09:11:31.146Z</time>
      </trkpt>
      <trkpt lat="47.74857" lon="3.69756">
        <ele>268</ele>
        <time>2018-06-25T09:11:32.146Z</time>
      </trkpt>
      <trkpt lat="47.74829" lon="3.69753">
        <ele>269</ele>
        <time>2018-06-25T09:11:33.146Z</time>
      </trkpt>
      <trkpt lat="47.74801" lon="3.69756">
        <ele>269</ele>
        <time>2018-06-25T09:11:34.146Z</time>
      </trkpt>
      <trkpt lat="47.74691" lon="3.69766">
        <ele>270</ele>
        <time>2018-06-25T09:11:35.146Z</time>
      </trkpt>
      <trkpt lat="47.7448" lon="3.69797">
        <ele>270</ele>
        <time>2018-06-25T09:11:36.146Z</time>
      </trkpt>
      <trkpt lat="47.74414" lon="3.69773">
        <ele>270</ele>
        <time>2018-06-25T09:11:37.146Z</time>
      </trkpt>
      <trkpt lat="47.74388" lon="3.69772">
        <ele>270</ele>
        <time>2018-06-25T09:11:38.146Z</time>
      </trkpt>
      <trkpt lat="47.74335" lon="3.69786">
        <ele>271</ele>
        <time>2018-06-25T09:11:39.146Z</time>
      </trkpt>
      <trkpt lat="47.74272" lon="3.6981">
        <ele>271</ele>
        <time>2018-06-25T09:11:40.146Z</time>
      </trkpt>
      <trkpt lat="47.74245" lon="3.69826">
        <ele>271</ele>
        <time>2018-06-25T09:11:41.146Z</time>
      </trkpt>
      <trkpt lat="47.74196" lon="3.69863">
        <ele>270</ele>
        <time>2018-06-25T09:11:42.146Z</time>
      </trkpt>
      <trkpt lat="47.74175" lon="3.6987">
        <ele>269</ele>
        <time>2018-06-25T09:11:43.146Z</time>
      </trkpt>
      <trkpt lat="47.74114" lon="3.69867">
        <ele>271</ele>
        <time>2018-06-25T09:11:44.146Z</time>
      </trkpt>
      <trkpt lat="47.74088" lon="3.69857">
        <ele>272</ele>
        <time>2018-06-25T09:11:45.146Z</time>
      </trkpt>
      <trkpt lat="47.74057" lon="3.6984">
        <ele>273</ele>
        <time>2018-06-25T09:11:46.146Z</time>
      </trkpt>
      <trkpt lat="47.74018" lon="3.698">
        <ele>274</ele>
        <time>2018-06-25T09:11:47.146Z</time>
      </trkpt>
      <trkpt lat="47.73994" lon="3.69766">
        <ele>276</ele>
        <time>2018-06-25T09:11:48.146Z</time>
      </trkpt>
      <trkpt lat="47.73976" lon="3.69746">
        <ele>277</ele>
        <time>2018-06-25T09:11:49.146Z</time>
      </trkpt>
      <trkpt lat="47.73904" lon="3.69683">
        <ele>277</ele>
        <time>2018-06-25T09:11:50.146Z</time>
      </trkpt>
      <trkpt lat="47.73855" lon="3.69646">
        <ele>278</ele>
        <time>2018-06-25T09:11:51.146Z</time>
      </trkpt>
      <trkpt lat="47.73827" lon="3.69629">
        <ele>278</ele>
        <time>2018-06-25T09:11:52.146Z</time>
      </trkpt>
      <trkpt lat="47.73682" lon="3.69572">
        <ele>273</ele>
        <time>2018-06-25T09:11:53.146Z</time>
      </trkpt>
      <trkpt lat="47.73548" lon="3.69514">
        <ele>263</ele>
        <time>2018-06-25T09:11:54.146Z</time>
      </trkpt>
      <trkpt lat="47.73509" lon="3.69502">
        <ele>260</ele>
        <time>2018-06-25T09:11:55.146Z</time>
      </trkpt>
      <trkpt lat="47.73473" lon="3.69495">
        <ele>257</ele>
        <time>2018-06-25T09:11:56.146Z</time>
      </trkpt>
      <trkpt lat="47.73321" lon="3.69438">
        <ele>246</ele>
        <time>2018-06-25T09:11:57.146Z</time>
      </trkpt>
      <trkpt lat="47.73301" lon="3.69431">
        <ele>245</ele>
        <time>2018-06-25T09:11:58.146Z</time>
      </trkpt>
      <trkpt lat="47.732" lon="3.69458">
        <ele>240</ele>
        <time>2018-06-25T09:11:59.146Z</time>
      </trkpt>
      <trkpt lat="47.73166" lon="3.69458">
        <ele>238</ele>
        <time>2018-06-25T09:12:00.146Z</time>
      </trkpt>
      <trkpt lat="47.73124" lon="3.69455">
        <ele>235</ele>
        <time>2018-06-25T09:12:01.146Z</time>
      </trkpt>
      <trkpt lat="47.73081" lon="3.69455">
        <ele>231</ele>
        <time>2018-06-25T09:12:02.146Z</time>
      </trkpt>
      <trkpt lat="47.73044" lon="3.69445">
        <ele>226</ele>
        <time>2018-06-25T09:12:03.146Z</time>
      </trkpt>
      <trkpt lat="47.73001" lon="3.69418">
        <ele>222</ele>
        <time>2018-06-25T09:12:04.146Z</time>
      </trkpt>
      <trkpt lat="47.7296" lon="3.69378">
        <ele>215</ele>
        <time>2018-06-25T09:12:05.146Z</time>
      </trkpt>
      <trkpt lat="47.72897" lon="3.69304">
        <ele>208</ele>
        <time>2018-06-25T09:12:06.146Z</time>
      </trkpt>
      <trkpt lat="47.72835" lon="3.69203">
        <ele>200</ele>
        <time>2018-06-25T09:12:07.146Z</time>
      </trkpt>
      <trkpt lat="47.72808" lon="3.69162">
        <ele>198</ele>
        <time>2018-06-25T09:12:08.146Z</time>
      </trkpt>
      <trkpt lat="47.72749" lon="3.69106">
        <ele>192</ele>
        <time>2018-06-25T09:12:09.146Z</time>
      </trkpt>
      <trkpt lat="47.72691" lon="3.69059">
        <ele>185</ele>
        <time>2018-06-25T09:12:10.146Z</time>
      </trkpt>
      <trkpt lat="47.72671" lon="3.69039">
        <ele>183</ele>
        <time>2018-06-25T09:12:11.146Z</time>
      </trkpt>
      <trkpt lat="47.72661" lon="3.69019">
        <ele>182</ele>
        <time>2018-06-25T09:12:12.146Z</time>
      </trkpt>
      <trkpt lat="47.72655" lon="3.68999">
        <ele>181</ele>
        <time>2018-06-25T09:12:13.146Z</time>
      </trkpt>
      <trkpt lat="47.72658" lon="3.68972">
        <ele>180</ele>
        <time>2018-06-25T09:12:14.146Z</time>
      </trkpt>
      <trkpt lat="47.72678" lon="3.68905">
        <ele>180</ele>
        <time>2018-06-25T09:12:15.146Z</time>
      </trkpt>
      <trkpt lat="47.72706" lon="3.68837">
        <ele>179</ele>
        <time>2018-06-25T09:12:16.146Z</time>
      </trkpt>
      <trkpt lat="47.72738" lon="3.68781">
        <ele>176</ele>
        <time>2018-06-25T09:12:17.146Z</time>
      </trkpt>
      <trkpt lat="47.728" lon="3.68694">
        <ele>173</ele>
        <time>2018-06-25T09:12:18.146Z</time>
      </trkpt>
      <trkpt lat="47.72806" lon="3.68683">
        <ele>172</ele>
        <time>2018-06-25T09:12:19.146Z</time>
      </trkpt>
      <trkpt lat="47.728" lon="3.68667">
        <ele>171</ele>
        <time>2018-06-25T09:12:20.146Z</time>
      </trkpt>
      <trkpt lat="47.72722" lon="3.6856">
        <ele>172</ele>
        <time>2018-06-25T09:12:21.146Z</time>
      </trkpt>
      <trkpt lat="47.72689" lon="3.68596">
        <ele>172</ele>
        <time>2018-06-25T09:12:22.146Z</time>
      </trkpt>
      <trkpt lat="47.72668" lon="3.68626">
        <ele>171</ele>
        <time>2018-06-25T09:12:23.146Z</time>
      </trkpt>
      <trkpt lat="47.72655" lon="3.68634">
        <ele>170</ele>
        <time>2018-06-25T09:12:24.146Z</time>
      </trkpt>
      <trkpt lat="47.72613" lon="3.68646">
        <ele>170</ele>
        <time>2018-06-25T09:12:25.146Z</time>
      </trkpt>
      <trkpt lat="47.72577" lon="3.6867">
        <ele>170</ele>
        <time>2018-06-25T09:12:26.146Z</time>
      </trkpt>
      <trkpt lat="47.72498" lon="3.68748">
        <ele>171</ele>
        <time>2018-06-25T09:12:27.146Z</time>
      </trkpt>
      <trkpt lat="47.7249" lon="3.68751">
        <ele>172</ele>
        <time>2018-06-25T09:12:28.146Z</time>
      </trkpt>
      <trkpt lat="47.7248" lon="3.68741">
        <ele>173</ele>
        <time>2018-06-25T09:12:29.146Z</time>
      </trkpt>
      <trkpt lat="47.72464" lon="3.68714">
        <ele>176</ele>
        <time>2018-06-25T09:12:30.146Z</time>
      </trkpt>
      <trkpt lat="47.72429" lon="3.68637">
        <ele>185</ele>
        <time>2018-06-25T09:12:31.146Z</time>
      </trkpt>
      <trkpt lat="47.72395" lon="3.6859">
        <ele>193</ele>
        <time>2018-06-25T09:12:32.146Z</time>
      </trkpt>
      <trkpt lat="47.72365" lon="3.68532">
        <ele>198</ele>
        <time>2018-06-25T09:12:33.146Z</time>
      </trkpt>
      <trkpt lat="47.72325" lon="3.68442">
        <ele>206</ele>
        <time>2018-06-25T09:12:34.146Z</time>
      </trkpt>
      <trkpt lat="47.72258" lon="3.68305">
        <ele>226</ele>
        <time>2018-06-25T09:12:35.146Z</time>
      </trkpt>
      <trkpt lat="47.72231" lon="3.68265">
        <ele>231</ele>
        <time>2018-06-25T09:12:36.146Z</time>
      </trkpt>
      <trkpt lat="47.72189" lon="3.68224">
        <ele>238</ele>
        <time>2018-06-25T09:12:37.146Z</time>
      </trkpt>
      <trkpt lat="47.72156" lon="3.68198">
        <ele>243</ele>
        <time>2018-06-25T09:12:38.146Z</time>
      </trkpt>
      <trkpt lat="47.72133" lon="3.68174">
        <ele>246</ele>
        <time>2018-06-25T09:12:39.146Z</time>
      </trkpt>
      <trkpt lat="47.721" lon="3.68094">
        <ele>252</ele>
        <time>2018-06-25T09:12:40.146Z</time>
      </trkpt>
      <trkpt lat="47.72101" lon="3.68093">
        <ele>252</ele>
        <time>2018-06-25T09:12:41.146Z</time>
      </trkpt>
      <trkpt lat="47.7209" lon="3.68067">
        <ele>254</ele>
        <time>2018-06-25T09:12:42.146Z</time>
      </trkpt>
      <trkpt lat="47.7207" lon="3.6805">
        <ele>256</ele>
        <time>2018-06-25T09:12:43.146Z</time>
      </trkpt>
      <trkpt lat="47.72047" lon="3.6802">
        <ele>258</ele>
        <time>2018-06-25T09:12:44.146Z</time>
      </trkpt>
      <trkpt lat="47.7202" lon="3.67997">
        <ele>260</ele>
        <time>2018-06-25T09:12:45.146Z</time>
      </trkpt>
      <trkpt lat="47.71971" lon="3.67987">
        <ele>261</ele>
        <time>2018-06-25T09:12:46.146Z</time>
      </trkpt>
      <trkpt lat="47.71958" lon="3.67987">
        <ele>261</ele>
        <time>2018-06-25T09:12:47.146Z</time>
      </trkpt>
      <trkpt lat="47.71913" lon="3.68033">
        <ele>264</ele>
        <time>2018-06-25T09:12:48.146Z</time>
      </trkpt>
      <trkpt lat="47.71906" lon="3.6802">
        <ele>263</ele>
        <time>2018-06-25T09:12:49.146Z</time>
      </trkpt>
      <trkpt lat="47.71953" lon="3.67913">
        <ele>259</ele>
        <time>2018-06-25T09:12:50.146Z</time>
      </trkpt>
      <trkpt lat="47.71969" lon="3.67867">
        <ele>257</ele>
        <time>2018-06-25T09:12:51.146Z</time>
      </trkpt>
      <trkpt lat="47.71996" lon="3.67803">
        <ele>256</ele>
        <time>2018-06-25T09:12:52.146Z</time>
      </trkpt>
      <trkpt lat="47.72002" lon="3.67756">
        <ele>255</ele>
        <time>2018-06-25T09:12:53.146Z</time>
      </trkpt>
      <trkpt lat="47.72005" lon="3.67691">
        <ele>255</ele>
        <time>2018-06-25T09:12:54.146Z</time>
      </trkpt>
      <trkpt lat="47.72003" lon="3.67595">
        <ele>255</ele>
        <time>2018-06-25T09:12:55.146Z</time>
      </trkpt>
      <trkpt lat="47.71998" lon="3.67531">
        <ele>255</ele>
        <time>2018-06-25T09:12:56.146Z</time>
      </trkpt>
      <trkpt lat="47.71975" lon="3.67441">
        <ele>250</ele>
        <time>2018-06-25T09:12:57.146Z</time>
      </trkpt>
      <trkpt lat="47.71942" lon="3.67363">
        <ele>246</ele>
        <time>2018-06-25T09:12:58.146Z</time>
      </trkpt>
      <trkpt lat="47.71882" lon="3.67277">
        <ele>241</ele>
        <time>2018-06-25T09:12:59.146Z</time>
      </trkpt>
      <trkpt lat="47.71819" lon="3.67205">
        <ele>234</ele>
        <time>2018-06-25T09:13:00.146Z</time>
      </trkpt>
      <trkpt lat="47.71752" lon="3.67105">
        <ele>228</ele>
        <time>2018-06-25T09:13:01.146Z</time>
      </trkpt>
      <trkpt lat="47.71688" lon="3.67021">
        <ele>221</ele>
        <time>2018-06-25T09:13:02.146Z</time>
      </trkpt>
      <trkpt lat="47.71684" lon="3.67014">
        <ele>221</ele>
        <time>2018-06-25T09:13:03.146Z</time>
      </trkpt>
      <trkpt lat="47.71685" lon="3.67015">
        <ele>221</ele>
        <time>2018-06-25T09:13:04.146Z</time>
      </trkpt>
      <trkpt lat="47.71644" lon="3.66922">
        <ele>217</ele>
        <time>2018-06-25T09:13:05.146Z</time>
      </trkpt>
      <trkpt lat="47.71633" lon="3.66826">
        <ele>215</ele>
        <time>2018-06-25T09:13:06.146Z</time>
      </trkpt>
      <trkpt lat="47.71635" lon="3.66773">
        <ele>214</ele>
        <time>2018-06-25T09:13:07.146Z</time>
      </trkpt>
      <trkpt lat="47.71664" lon="3.66673">
        <ele>215</ele>
        <time>2018-06-25T09:13:08.146Z</time>
      </trkpt>
      <trkpt lat="47.71701" lon="3.66602">
        <ele>214</ele>
        <time>2018-06-25T09:13:09.146Z</time>
      </trkpt>
      <trkpt lat="47.71738" lon="3.66568">
        <ele>213</ele>
        <time>2018-06-25T09:13:10.146Z</time>
      </trkpt>
      <trkpt lat="47.71761" lon="3.6655">
        <ele>212</ele>
        <time>2018-06-25T09:13:11.146Z</time>
      </trkpt>
      <trkpt lat="47.71783" lon="3.66549">
        <ele>212</ele>
        <time>2018-06-25T09:13:12.146Z</time>
      </trkpt>
      <trkpt lat="47.71747" lon="3.66495">
        <ele>206</ele>
        <time>2018-06-25T09:13:13.146Z</time>
      </trkpt>
      <trkpt lat="47.71676" lon="3.66382">
        <ele>191</ele>
        <time>2018-06-25T09:13:14.146Z</time>
      </trkpt>
      <trkpt lat="47.71657" lon="3.66364">
        <ele>186</ele>
        <time>2018-06-25T09:13:15.146Z</time>
      </trkpt>
      <trkpt lat="47.71617" lon="3.66355">
        <ele>179</ele>
        <time>2018-06-25T09:13:16.146Z</time>
      </trkpt>
      <trkpt lat="47.71584" lon="3.66379">
        <ele>175</ele>
        <time>2018-06-25T09:13:17.146Z</time>
      </trkpt>
      <trkpt lat="47.71534" lon="3.66489">
        <ele>172</ele>
        <time>2018-06-25T09:13:18.146Z</time>
      </trkpt>
      <trkpt lat="47.71514" lon="3.66505">
        <ele>168</ele>
        <time>2018-06-25T09:13:19.146Z</time>
      </trkpt>
      <trkpt lat="47.71502" lon="3.66509">
        <ele>165</ele>
        <time>2018-06-25T09:13:20.146Z</time>
      </trkpt>
      <trkpt lat="47.7148" lon="3.66508">
        <ele>166</ele>
        <time>2018-06-25T09:13:21.146Z</time>
      </trkpt>
      <trkpt lat="47.71491" lon="3.66509">
        <ele>165</ele>
        <time>2018-06-25T08:56:49.209Z</time>
      </trkpt>
      <trkpt lat="47.71468" lon="3.66559">
        <ele>168</ele>
        <time>2018-06-25T08:56:50.209Z</time>
      </trkpt>
      <trkpt lat="47.71456" lon="3.66569">
        <ele>169</ele>
        <time>2018-06-25T08:56:51.209Z</time>
      </trkpt>
      <trkpt lat="47.71451" lon="3.6662">
        <ele>171</ele>
        <time>2018-06-25T08:56:52.209Z</time>
      </trkpt>
      <trkpt lat="47.71426" lon="3.66616">
        <ele>171</ele>
        <time>2018-06-25T08:56:53.209Z</time>
      </trkpt>
      <trkpt lat="47.71386" lon="3.6662">
        <ele>173</ele>
        <time>2018-06-25T08:56:54.209Z</time>
      </trkpt>
      <trkpt lat="47.7131" lon="3.66649">
        <ele>178</ele>
        <time>2018-06-25T08:56:55.209Z</time>
      </trkpt>
      <trkpt lat="47.71281" lon="3.66572">
        <ele>177</ele>
        <time>2018-06-25T08:56:56.209Z</time>
      </trkpt>
      <trkpt lat="47.71245" lon="3.66499">
        <ele>174</ele>
        <time>2018-06-25T08:56:57.209Z</time>
      </trkpt>
      <trkpt lat="47.7116" lon="3.66552">
        <ele>183</ele>
        <time>2018-06-25T08:56:58.209Z</time>
      </trkpt>
      <trkpt lat="47.71065" lon="3.66626">
        <ele>191</ele>
        <time>2018-06-25T08:56:59.209Z</time>
      </trkpt>
      <trkpt lat="47.7099" lon="3.66649">
        <ele>199</ele>
        <time>2018-06-25T08:57:00.209Z</time>
      </trkpt>
      <trkpt lat="47.70943" lon="3.66646">
        <ele>205</ele>
        <time>2018-06-25T08:57:01.209Z</time>
      </trkpt>
      <trkpt lat="47.70904" lon="3.66656">
        <ele>209</ele>
        <time>2018-06-25T08:57:02.209Z</time>
      </trkpt>
      <trkpt lat="47.70777" lon="3.66753">
        <ele>220</ele>
        <time>2018-06-25T08:57:03.209Z</time>
      </trkpt>
      <trkpt lat="47.70703" lon="3.66797">
        <ele>229</ele>
        <time>2018-06-25T08:57:04.209Z</time>
      </trkpt>
      <trkpt lat="47.70682" lon="3.66824">
        <ele>233</ele>
        <time>2018-06-25T08:57:05.209Z</time>
      </trkpt>
      <trkpt lat="47.70666" lon="3.6683">
        <ele>235</ele>
        <time>2018-06-25T08:57:06.209Z</time>
      </trkpt>
      <trkpt lat="47.70545" lon="3.66713">
        <ele>235</ele>
        <time>2018-06-25T08:57:07.209Z</time>
      </trkpt>
      <trkpt lat="47.70462" lon="3.66649">
        <ele>235</ele>
        <time>2018-06-25T08:57:08.209Z</time>
      </trkpt>
      <trkpt lat="47.70415" lon="3.66626">
        <ele>236</ele>
        <time>2018-06-25T08:57:09.209Z</time>
      </trkpt>
      <trkpt lat="47.70386" lon="3.66619">
        <ele>235</ele>
        <time>2018-06-25T08:57:10.209Z</time>
      </trkpt>
      <trkpt lat="47.70357" lon="3.66625">
        <ele>234</ele>
        <time>2018-06-25T08:57:11.209Z</time>
      </trkpt>
      <trkpt lat="47.70281" lon="3.66676">
        <ele>235</ele>
        <time>2018-06-25T08:57:12.209Z</time>
      </trkpt>
      <trkpt lat="47.70189" lon="3.66723">
        <ele>233</ele>
        <time>2018-06-25T08:57:13.209Z</time>
      </trkpt>
      <trkpt lat="47.70128" lon="3.66729">
        <ele>229</ele>
        <time>2018-06-25T08:57:14.209Z</time>
      </trkpt>
      <trkpt lat="47.70112" lon="3.66737">
        <ele>229</ele>
        <time>2018-06-25T08:57:15.209Z</time>
      </trkpt>
      <trkpt lat="47.70093" lon="3.66763">
        <ele>228</ele>
        <time>2018-06-25T08:57:16.209Z</time>
      </trkpt>
      <trkpt lat="47.7009" lon="3.66797">
        <ele>228</ele>
        <time>2018-06-25T08:57:17.209Z</time>
      </trkpt>
      <trkpt lat="47.70115" lon="3.66891">
        <ele>232</ele>
        <time>2018-06-25T08:57:18.209Z</time>
      </trkpt>
      <trkpt lat="47.7016" lon="3.66981">
        <ele>236</ele>
        <time>2018-06-25T08:57:19.209Z</time>
      </trkpt>
      <trkpt lat="47.70276" lon="3.67316">
        <ele>236</ele>
        <time>2018-06-25T08:57:20.209Z</time>
      </trkpt>
      <trkpt lat="47.70292" lon="3.6739">
        <ele>234</ele>
        <time>2018-06-25T08:57:21.209Z</time>
      </trkpt>
      <trkpt lat="47.70301" lon="3.67588">
        <ele>226</ele>
        <time>2018-06-25T08:57:22.209Z</time>
      </trkpt>
      <trkpt lat="47.7027" lon="3.67718">
        <ele>224</ele>
        <time>2018-06-25T08:57:23.209Z</time>
      </trkpt>
      <trkpt lat="47.7009" lon="3.67839">
        <ele>220</ele>
        <time>2018-06-25T08:57:24.209Z</time>
      </trkpt>
      <trkpt lat="47.7003" lon="3.67863">
        <ele>221</ele>
        <time>2018-06-25T08:57:25.209Z</time>
      </trkpt>
      <trkpt lat="47.69931" lon="3.67876">
        <ele>220</ele>
        <time>2018-06-25T08:57:26.209Z</time>
      </trkpt>
      <trkpt lat="47.69773" lon="3.67929">
        <ele>213</ele>
        <time>2018-06-25T08:57:27.209Z</time>
      </trkpt>
      <trkpt lat="47.69601" lon="3.68023">
        <ele>201</ele>
        <time>2018-06-25T08:57:28.209Z</time>
      </trkpt>
      <trkpt lat="47.69505" lon="3.68128">
        <ele>190</ele>
        <time>2018-06-25T08:57:29.209Z</time>
      </trkpt>
      <trkpt lat="47.69443" lon="3.68187">
        <ele>183</ele>
        <time>2018-06-25T08:57:30.209Z</time>
      </trkpt>
      <trkpt lat="47.69344" lon="3.68304">
        <ele>176</ele>
        <time>2018-06-25T08:57:31.209Z</time>
      </trkpt>
      <trkpt lat="47.69227" lon="3.68412">
        <ele>172</ele>
        <time>2018-06-25T08:57:32.209Z</time>
      </trkpt>
      <trkpt lat="47.69081" lon="3.68506">
        <ele>167</ele>
        <time>2018-06-25T08:57:33.209Z</time>
      </trkpt>
      <trkpt lat="47.68942" lon="3.68624">
        <ele>163</ele>
        <time>2018-06-25T08:57:34.209Z</time>
      </trkpt>
      <trkpt lat="47.68788" lon="3.6871">
        <ele>152</ele>
        <time>2018-06-25T08:57:35.209Z</time>
      </trkpt>
      <trkpt lat="47.68711" lon="3.68771">
        <ele>147</ele>
        <time>2018-06-25T08:57:36.209Z</time>
      </trkpt>
      <trkpt lat="47.68613" lon="3.68878">
        <ele>139</ele>
        <time>2018-06-25T08:57:37.209Z</time>
      </trkpt>
      <trkpt lat="47.685" lon="3.68965">
        <ele>132</ele>
        <time>2018-06-25T08:57:38.209Z</time>
      </trkpt>
      <trkpt lat="47.68485" lon="3.68986">
        <ele>130</ele>
        <time>2018-06-25T08:57:39.209Z</time>
      </trkpt>
      <trkpt lat="47.68462" lon="3.69036">
        <ele>128</ele>
        <time>2018-06-25T08:57:40.209Z</time>
      </trkpt>
      <trkpt lat="47.68419" lon="3.69079">
        <ele>126</ele>
        <time>2018-06-25T08:57:41.209Z</time>
      </trkpt>
      <trkpt lat="47.68384" lon="3.69095">
        <ele>124</ele>
        <time>2018-06-25T08:57:42.209Z</time>
      </trkpt>
      <trkpt lat="47.68357" lon="3.69095">
        <ele>121</ele>
        <time>2018-06-25T08:57:43.209Z</time>
      </trkpt>
      <trkpt lat="47.68298" lon="3.69073">
        <ele>118</ele>
        <time>2018-06-25T08:57:44.209Z</time>
      </trkpt>
      <trkpt lat="47.683" lon="3.69113">
        <ele>118</ele>
        <time>2018-06-25T08:57:45.209Z</time>
      </trkpt>
      <trkpt lat="47.68332" lon="3.69213">
        <ele>120</ele>
        <time>2018-06-25T08:57:46.209Z</time>
      </trkpt>
      <trkpt lat="47.68344" lon="3.69224">
        <ele>120</ele>
        <time>2018-06-25T08:57:47.209Z</time>
      </trkpt>
      <trkpt lat="47.68353" lon="3.69264">
        <ele>120</ele>
        <time>2018-06-25T08:57:48.209Z</time>
      </trkpt>
      <trkpt lat="47.68366" lon="3.6929">
        <ele>120</ele>
        <time>2018-06-25T08:57:49.209Z</time>
      </trkpt>
      <trkpt lat="47.68395" lon="3.6931">
        <ele>121</ele>
        <time>2018-06-25T08:57:50.209Z</time>
      </trkpt>
      <trkpt lat="47.68416" lon="3.69314">
        <ele>121</ele>
        <time>2018-06-25T08:57:51.209Z</time>
      </trkpt>
      <trkpt lat="47.68442" lon="3.69397">
        <ele>120</ele>
        <time>2018-06-25T08:57:52.209Z</time>
      </trkpt>
      <trkpt lat="47.68453" lon="3.69458">
        <ele>120</ele>
        <time>2018-06-25T08:57:53.209Z</time>
      </trkpt>
      <trkpt lat="47.68527" lon="3.69659">
        <ele>121</ele>
        <time>2018-06-25T08:57:54.209Z</time>
      </trkpt>
      <trkpt lat="47.6857" lon="3.69746">
        <ele>122</ele>
        <time>2018-06-25T08:57:55.209Z</time>
      </trkpt>
      <trkpt lat="47.68602" lon="3.6984">
        <ele>124</ele>
        <time>2018-06-25T08:57:56.209Z</time>
      </trkpt>
      <trkpt lat="47.68606" lon="3.69887">
        <ele>124</ele>
        <time>2018-06-25T08:57:57.209Z</time>
      </trkpt>
      <trkpt lat="47.68597" lon="3.69933">
        <ele>123</ele>
        <time>2018-06-25T08:57:58.209Z</time>
      </trkpt>
      <trkpt lat="47.68547" lon="3.70101">
        <ele>124</ele>
        <time>2018-06-25T08:57:59.209Z</time>
      </trkpt>
      <trkpt lat="47.68545" lon="3.70138">
        <ele>125</ele>
        <time>2018-06-25T08:58:00.209Z</time>
      </trkpt>
      <trkpt lat="47.68517" lon="3.70222">
        <ele>127</ele>
        <time>2018-06-25T08:58:01.209Z</time>
      </trkpt>
      <trkpt lat="47.68469" lon="3.70222">
        <ele>131</ele>
        <time>2018-06-25T08:58:02.209Z</time>
      </trkpt>
      <trkpt lat="47.68337" lon="3.70289">
        <ele>145</ele>
        <time>2018-06-25T08:58:03.209Z</time>
      </trkpt>
      <trkpt lat="47.68287" lon="3.70352">
        <ele>152</ele>
        <time>2018-06-25T08:58:04.209Z</time>
      </trkpt>
      <trkpt lat="47.68235" lon="3.70386">
        <ele>160</ele>
        <time>2018-06-25T08:58:05.209Z</time>
      </trkpt>
      <trkpt lat="47.68203" lon="3.7046">
        <ele>168</ele>
        <time>2018-06-25T08:58:06.209Z</time>
      </trkpt>
      <trkpt lat="47.68183" lon="3.7048">
        <ele>172</ele>
        <time>2018-06-25T08:58:07.209Z</time>
      </trkpt>
      <trkpt lat="47.68073" lon="3.7052">
        <ele>185</ele>
        <time>2018-06-25T08:58:08.209Z</time>
      </trkpt>
      <trkpt lat="47.67945" lon="3.70544">
        <ele>195</ele>
        <time>2018-06-25T08:58:09.209Z</time>
      </trkpt>
      <trkpt lat="47.67483" lon="3.70678">
        <ele>205</ele>
        <time>2018-06-25T08:58:10.209Z</time>
      </trkpt>
      <trkpt lat="47.67218" lon="3.70769">
        <ele>177</ele>
        <time>2018-06-25T08:58:11.209Z</time>
      </trkpt>
      <trkpt lat="47.67126" lon="3.70715">
        <ele>164</ele>
        <time>2018-06-25T08:58:12.209Z</time>
      </trkpt>
      <trkpt lat="47.67037" lon="3.70725">
        <ele>151</ele>
        <time>2018-06-25T08:58:13.209Z</time>
      </trkpt>
      <trkpt lat="47.66747" lon="3.70902">
        <ele>128</ele>
        <time>2018-06-25T08:58:14.209Z</time>
      </trkpt>
      <trkpt lat="47.66622" lon="3.70919">
        <ele>122</ele>
        <time>2018-06-25T08:58:15.209Z</time>
      </trkpt>
      <trkpt lat="47.66582" lon="3.70913">
        <ele>121</ele>
        <time>2018-06-25T08:58:16.209Z</time>
      </trkpt>
      <trkpt lat="47.66586" lon="3.70989">
        <ele>119</ele>
        <time>2018-06-25T08:58:17.209Z</time>
      </trkpt>
      <trkpt lat="47.66216" lon="3.70906">
        <ele>111</ele>
        <time>2018-06-25T08:58:18.209Z</time>
      </trkpt>
      <trkpt lat="47.662" lon="3.71057">
        <ele>111</ele>
        <time>2018-06-25T08:58:19.209Z</time>
      </trkpt>
      <trkpt lat="47.66075" lon="3.71107">
        <ele>113</ele>
        <time>2018-06-25T08:58:20.209Z</time>
      </trkpt>
      <trkpt lat="47.66003" lon="3.71167">
        <ele>119</ele>
        <time>2018-06-25T08:58:21.209Z</time>
      </trkpt>
      <trkpt lat="47.65974" lon="3.71167">
        <ele>120</ele>
        <time>2018-06-25T08:58:22.209Z</time>
      </trkpt>
      <trkpt lat="47.65969" lon="3.71191">
        <ele>120</ele>
        <time>2018-06-25T08:58:23.209Z</time>
      </trkpt>
      <trkpt lat="47.65947" lon="3.71057">
        <ele>120</ele>
        <time>2018-06-25T08:58:24.209Z</time>
      </trkpt>
      <trkpt lat="47.65909" lon="3.71074">
        <ele>122</ele>
        <time>2018-06-25T08:58:25.209Z</time>
      </trkpt>
      <trkpt lat="47.65845" lon="3.71087">
        <ele>125</ele>
        <time>2018-06-25T08:58:26.209Z</time>
      </trkpt>
      <trkpt lat="47.65845" lon="3.71086">
        <ele>125</ele>
        <time>2018-06-25T08:58:27.209Z</time>
      </trkpt>
      <trkpt lat="47.65879" lon="3.71257">
        <ele>124</ele>
        <time>2018-06-25T08:58:28.209Z</time>
      </trkpt>
      <trkpt lat="47.65873" lon="3.71257">
        <ele>124</ele>
        <time>2018-06-25T08:58:29.209Z</time>
      </trkpt>
      <trkpt lat="47.65872" lon="3.71257">
        <ele>124</ele>
        <time>2018-06-25T08:58:30.209Z</time>
      </trkpt>
      <trkpt lat="47.65692" lon="3.7123">
        <ele>128</ele>
        <time>2018-06-25T08:58:31.209Z</time>
      </trkpt>
      <trkpt lat="47.65676" lon="3.71232">
        <ele>128</ele>
        <time>2018-06-25T08:58:32.209Z</time>
      </trkpt>
      <trkpt lat="47.65557" lon="3.71276">
        <ele>138</ele>
        <time>2018-06-25T08:58:33.209Z</time>
      </trkpt>
      <trkpt lat="47.65535" lon="3.71288">
        <ele>141</ele>
        <time>2018-06-25T08:58:34.209Z</time>
      </trkpt>
      <trkpt lat="47.65535" lon="3.71288">
        <ele>141</ele>
        <time>2018-06-25T08:58:35.209Z</time>
      </trkpt>
      <trkpt lat="47.65515" lon="3.71302">
        <ele>143</ele>
        <time>2018-06-25T08:58:36.209Z</time>
      </trkpt>
      <trkpt lat="47.65481" lon="3.71323">
        <ele>146</ele>
        <time>2018-06-25T08:58:37.209Z</time>
      </trkpt>
      <trkpt lat="47.65385" lon="3.71368">
        <ele>159</ele>
        <time>2018-06-25T08:58:38.209Z</time>
      </trkpt>
      <trkpt lat="47.6532" lon="3.71408">
        <ele>170</ele>
        <time>2018-06-25T08:58:39.209Z</time>
      </trkpt>
      <trkpt lat="47.65253" lon="3.71495">
        <ele>182</ele>
        <time>2018-06-25T08:58:40.209Z</time>
      </trkpt>
      <trkpt lat="47.65237" lon="3.71537">
        <ele>185</ele>
        <time>2018-06-25T08:58:41.209Z</time>
      </trkpt>
      <trkpt lat="47.65207" lon="3.71568">
        <ele>189</ele>
        <time>2018-06-25T08:58:42.209Z</time>
      </trkpt>
      <trkpt lat="47.65181" lon="3.71579">
        <ele>192</ele>
        <time>2018-06-25T08:58:43.209Z</time>
      </trkpt>
      <trkpt lat="47.65114" lon="3.71597">
        <ele>201</ele>
        <time>2018-06-25T08:58:44.209Z</time>
      </trkpt>
      <trkpt lat="47.65107" lon="3.71601">
        <ele>202</ele>
        <time>2018-06-25T08:58:45.209Z</time>
      </trkpt>
      <trkpt lat="47.65108" lon="3.71603">
        <ele>202</ele>
        <time>2018-06-25T08:58:46.209Z</time>
      </trkpt>
      <trkpt lat="47.64908" lon="3.71725">
        <ele>220</ele>
        <time>2018-06-25T08:58:47.209Z</time>
      </trkpt>
      <trkpt lat="47.64888" lon="3.71699">
        <ele>220</ele>
        <time>2018-06-25T08:58:48.209Z</time>
      </trkpt>
      <trkpt lat="47.64758" lon="3.7154">
        <ele>225</ele>
        <time>2018-06-25T08:58:49.209Z</time>
      </trkpt>
      <trkpt lat="47.64718" lon="3.71489">
        <ele>225</ele>
        <time>2018-06-25T08:58:50.209Z</time>
      </trkpt>
      <trkpt lat="47.64669" lon="3.714">
        <ele>224</ele>
        <time>2018-06-25T08:58:51.209Z</time>
      </trkpt>
      <trkpt lat="47.64666" lon="3.71395">
        <ele>224</ele>
        <time>2018-06-25T08:58:52.209Z</time>
      </trkpt>
      <trkpt lat="47.64666" lon="3.71394">
        <ele>224</ele>
        <time>2018-06-25T08:58:53.209Z</time>
      </trkpt>
      <trkpt lat="47.64586" lon="3.71295">
        <ele>224</ele>
        <time>2018-06-25T08:58:54.209Z</time>
      </trkpt>
      <trkpt lat="47.64505" lon="3.71199">
        <ele>222</ele>
        <time>2018-06-25T08:58:55.209Z</time>
      </trkpt>
      <trkpt lat="47.64455" lon="3.71157">
        <ele>221</ele>
        <time>2018-06-25T08:58:56.209Z</time>
      </trkpt>
      <trkpt lat="47.64394" lon="3.7111">
        <ele>218</ele>
        <time>2018-06-25T08:58:57.209Z</time>
      </trkpt>
      <trkpt lat="47.64394" lon="3.7111">
        <ele>218</ele>
        <time>2018-06-25T08:58:58.209Z</time>
      </trkpt>
      <trkpt lat="47.64331" lon="3.7106">
        <ele>215</ele>
        <time>2018-06-25T08:58:59.209Z</time>
      </trkpt>
      <trkpt lat="47.64323" lon="3.71057">
        <ele>214</ele>
        <time>2018-06-25T08:59:00.209Z</time>
      </trkpt>
      <trkpt lat="47.64193" lon="3.70954">
        <ele>208</ele>
        <time>2018-06-25T08:59:01.209Z</time>
      </trkpt>
      <trkpt lat="47.64157" lon="3.70932">
        <ele>206</ele>
        <time>2018-06-25T08:59:02.209Z</time>
      </trkpt>
      <trkpt lat="47.64133" lon="3.70932">
        <ele>206</ele>
        <time>2018-06-25T08:59:03.209Z</time>
      </trkpt>
      <trkpt lat="47.63981" lon="3.70855">
        <ele>204</ele>
        <time>2018-06-25T08:59:04.209Z</time>
      </trkpt>
      <trkpt lat="47.63945" lon="3.70815">
        <ele>205</ele>
        <time>2018-06-25T08:59:05.209Z</time>
      </trkpt>
      <trkpt lat="47.63837" lon="3.70748">
        <ele>209</ele>
        <time>2018-06-25T08:59:06.209Z</time>
      </trkpt>
      <trkpt lat="47.6369" lon="3.70567">
        <ele>213</ele>
        <time>2018-06-25T08:59:07.209Z</time>
      </trkpt>
      <trkpt lat="47.63654" lon="3.70537">
        <ele>210</ele>
        <time>2018-06-25T08:59:08.209Z</time>
      </trkpt>
      <trkpt lat="47.63635" lon="3.70541">
        <ele>209</ele>
        <time>2018-06-25T08:59:09.209Z</time>
      </trkpt>
      <trkpt lat="47.63434" lon="3.7036">
        <ele>202</ele>
        <time>2018-06-25T08:59:10.209Z</time>
      </trkpt>
      <trkpt lat="47.63353" lon="3.70268">
        <ele>200</ele>
        <time>2018-06-25T08:59:11.209Z</time>
      </trkpt>
      <trkpt lat="47.63254" lon="3.70132">
        <ele>197</ele>
        <time>2018-06-25T08:59:12.209Z</time>
      </trkpt>
      <trkpt lat="47.6325" lon="3.70114">
        <ele>196</ele>
        <time>2018-06-25T08:59:13.209Z</time>
      </trkpt>
      <trkpt lat="47.63173" lon="3.70028">
        <ele>196</ele>
        <time>2018-06-25T08:59:14.209Z</time>
      </trkpt>
      <trkpt lat="47.62958" lon="3.69823">
        <ele>202</ele>
        <time>2018-06-25T08:59:15.209Z</time>
      </trkpt>
      <trkpt lat="47.62927" lon="3.69769">
        <ele>203</ele>
        <time>2018-06-25T08:59:16.209Z</time>
      </trkpt>
      <trkpt lat="47.62839" lon="3.69559">
        <ele>200</ele>
        <time>2018-06-25T08:59:17.209Z</time>
      </trkpt>
      <trkpt lat="47.62784" lon="3.69467">
        <ele>200</ele>
        <time>2018-06-25T08:59:18.209Z</time>
      </trkpt>
      <trkpt lat="47.6271" lon="3.69297">
        <ele>196</ele>
        <time>2018-06-25T08:59:19.209Z</time>
      </trkpt>
      <trkpt lat="47.62693" lon="3.69226">
        <ele>195</ele>
        <time>2018-06-25T08:59:20.209Z</time>
      </trkpt>
      <trkpt lat="47.62675" lon="3.69105">
        <ele>193</ele>
        <time>2018-06-25T08:59:21.209Z</time>
      </trkpt>
      <trkpt lat="47.62602" lon="3.68841">
        <ele>189</ele>
        <time>2018-06-25T08:59:22.209Z</time>
      </trkpt>
      <trkpt lat="47.6258" lon="3.68784">
        <ele>188</ele>
        <time>2018-06-25T08:59:23.209Z</time>
      </trkpt>
      <trkpt lat="47.62412" lon="3.68516">
        <ele>185</ele>
        <time>2018-06-25T08:59:24.209Z</time>
      </trkpt>
      <trkpt lat="47.62385" lon="3.68503">
        <ele>184</ele>
        <time>2018-06-25T08:59:25.209Z</time>
      </trkpt>
      <trkpt lat="47.62398" lon="3.68486">
        <ele>184</ele>
        <time>2018-06-25T08:59:26.209Z</time>
      </trkpt>
      <trkpt lat="47.62385" lon="3.68503">
        <ele>184</ele>
        <time>2018-06-25T08:59:27.209Z</time>
      </trkpt>
      <trkpt lat="47.62286" lon="3.68493">
        <ele>177</ele>
        <time>2018-06-25T08:59:28.209Z</time>
      </trkpt>
      <trkpt lat="47.62236" lon="3.68446">
        <ele>171</ele>
        <time>2018-06-25T08:59:29.209Z</time>
      </trkpt>
      <trkpt lat="47.62111" lon="3.68389">
        <ele>156</ele>
        <time>2018-06-25T08:59:30.209Z</time>
      </trkpt>
      <trkpt lat="47.62061" lon="3.68358">
        <ele>149</ele>
        <time>2018-06-25T08:59:31.209Z</time>
      </trkpt>
      <trkpt lat="47.61936" lon="3.68332">
        <ele>135</ele>
        <time>2018-06-25T08:59:32.209Z</time>
      </trkpt>
      <trkpt lat="47.61911" lon="3.68335">
        <ele>134</ele>
        <time>2018-06-25T08:59:33.209Z</time>
      </trkpt>
      <trkpt lat="47.61828" lon="3.68379">
        <ele>127</ele>
        <time>2018-06-25T08:59:34.209Z</time>
      </trkpt>
      <trkpt lat="47.61793" lon="3.68382">
        <ele>125</ele>
        <time>2018-06-25T08:59:35.209Z</time>
      </trkpt>
      <trkpt lat="47.61644" lon="3.685">
        <ele>127</ele>
        <time>2018-06-25T08:59:36.209Z</time>
      </trkpt>
      <trkpt lat="47.61603" lon="3.68522">
        <ele>127</ele>
        <time>2018-06-25T08:59:37.209Z</time>
      </trkpt>
      <trkpt lat="47.61568" lon="3.68566">
        <ele>130</ele>
        <time>2018-06-25T08:59:38.209Z</time>
      </trkpt>
      <trkpt lat="47.61525" lon="3.6867">
        <ele>136</ele>
        <time>2018-06-25T08:59:39.209Z</time>
      </trkpt>
      <trkpt lat="47.61496" lon="3.68774">
        <ele>138</ele>
        <time>2018-06-25T08:59:40.209Z</time>
      </trkpt>
      <trkpt lat="47.61461" lon="3.68855">
        <ele>141</ele>
        <time>2018-06-25T08:59:41.209Z</time>
      </trkpt>
      <trkpt lat="47.61351" lon="3.69254">
        <ele>166</ele>
        <time>2018-06-25T08:59:42.209Z</time>
      </trkpt>
      <trkpt lat="47.61322" lon="3.69451">
        <ele>173</ele>
        <time>2018-06-25T08:59:43.209Z</time>
      </trkpt>
      <trkpt lat="47.61325" lon="3.69653">
        <ele>181</ele>
        <time>2018-06-25T08:59:44.209Z</time>
      </trkpt>
      <trkpt lat="47.61308" lon="3.6978">
        <ele>185</ele>
        <time>2018-06-25T08:59:45.209Z</time>
      </trkpt>
      <trkpt lat="47.61297" lon="3.69817">
        <ele>186</ele>
        <time>2018-06-25T08:59:46.209Z</time>
      </trkpt>
      <trkpt lat="47.61165" lon="3.70132">
        <ele>201</ele>
        <time>2018-06-25T08:59:47.209Z</time>
      </trkpt>
      <trkpt lat="47.61089" lon="3.70256">
        <ele>202</ele>
        <time>2018-06-25T08:59:48.209Z</time>
      </trkpt>
      <trkpt lat="47.60656" lon="3.71037">
        <ele>211</ele>
        <time>2018-06-25T08:59:49.209Z</time>
      </trkpt>
      <trkpt lat="47.60599" lon="3.7112">
        <ele>210</ele>
        <time>2018-06-25T08:59:50.209Z</time>
      </trkpt>
      <trkpt lat="47.60455" lon="3.71359">
        <ele>220</ele>
        <time>2018-06-25T08:59:51.209Z</time>
      </trkpt>
      <trkpt lat="47.60308" lon="3.71636">
        <ele>209</ele>
        <time>2018-06-25T08:59:52.209Z</time>
      </trkpt>
      <trkpt lat="47.60176" lon="3.71861">
        <ele>215</ele>
        <time>2018-06-25T08:59:53.209Z</time>
      </trkpt>
      <trkpt lat="47.59985" lon="3.7222">
        <ele>218</ele>
        <time>2018-06-25T08:59:54.209Z</time>
      </trkpt>
      <trkpt lat="47.59904" lon="3.72337">
        <ele>224</ele>
        <time>2018-06-25T08:59:55.209Z</time>
      </trkpt>
      <trkpt lat="47.5964" lon="3.72829">
        <ele>221</ele>
        <time>2018-06-25T08:59:56.209Z</time>
      </trkpt>
      <trkpt lat="47.59633" lon="3.72863">
        <ele>221</ele>
        <time>2018-06-25T08:59:57.209Z</time>
      </trkpt>
      <trkpt lat="47.59494" lon="3.73104">
        <ele>212</ele>
        <time>2018-06-25T08:59:58.209Z</time>
      </trkpt>
      <trkpt lat="47.5899" lon="3.74013">
        <ele>219</ele>
        <time>2018-06-25T08:59:59.209Z</time>
      </trkpt>
      <trkpt lat="47.58799" lon="3.74341">
        <ele>220</ele>
        <time>2018-06-25T09:00:00.209Z</time>
      </trkpt>
      <trkpt lat="47.58757" lon="3.74392">
        <ele>223</ele>
        <time>2018-06-25T09:00:01.209Z</time>
      </trkpt>
      <trkpt lat="47.58685" lon="3.74445">
        <ele>232</ele>
        <time>2018-06-25T09:00:02.209Z</time>
      </trkpt>
      <trkpt lat="47.58569" lon="3.74546">
        <ele>247</ele>
        <time>2018-06-25T09:00:03.209Z</time>
      </trkpt>
      <trkpt lat="47.58555" lon="3.74565">
        <ele>249</ele>
        <time>2018-06-25T09:00:04.209Z</time>
      </trkpt>
      <trkpt lat="47.58555" lon="3.74565">
        <ele>249</ele>
        <time>2018-06-25T09:00:05.209Z</time>
      </trkpt>
      <trkpt lat="47.5854" lon="3.74578">
        <ele>249</ele>
        <time>2018-06-25T09:00:06.209Z</time>
      </trkpt>
      <trkpt lat="47.58526" lon="3.74565">
        <ele>249</ele>
        <time>2018-06-25T09:00:07.209Z</time>
      </trkpt>
      <trkpt lat="47.58436" lon="3.74507">
        <ele>251</ele>
        <time>2018-06-25T09:00:08.209Z</time>
      </trkpt>
      <trkpt lat="47.58397" lon="3.74475">
        <ele>251</ele>
        <time>2018-06-25T09:00:09.209Z</time>
      </trkpt>
      <trkpt lat="47.58329" lon="3.74414">
        <ele>251</ele>
        <time>2018-06-25T09:00:10.209Z</time>
      </trkpt>
      <trkpt lat="47.58266" lon="3.74369">
        <ele>249</ele>
        <time>2018-06-25T09:00:11.209Z</time>
      </trkpt>
      <trkpt lat="47.58233" lon="3.74347">
        <ele>247</ele>
        <time>2018-06-25T09:00:12.209Z</time>
      </trkpt>
      <trkpt lat="47.5816" lon="3.74317">
        <ele>243</ele>
        <time>2018-06-25T09:00:13.209Z</time>
      </trkpt>
      <trkpt lat="47.5811" lon="3.74274">
        <ele>239</ele>
        <time>2018-06-25T09:00:14.209Z</time>
      </trkpt>
      <trkpt lat="47.58111" lon="3.74273">
        <ele>239</ele>
        <time>2018-06-25T09:00:15.209Z</time>
      </trkpt>
      <trkpt lat="47.58022" lon="3.74205">
        <ele>232</ele>
        <time>2018-06-25T09:00:16.209Z</time>
      </trkpt>
      <trkpt lat="47.5796" lon="3.74185">
        <ele>229</ele>
        <time>2018-06-25T09:00:17.209Z</time>
      </trkpt>
      <trkpt lat="47.57939" lon="3.74174">
        <ele>228</ele>
        <time>2018-06-25T09:00:18.209Z</time>
      </trkpt>
      <trkpt lat="47.57926" lon="3.7416">
        <ele>227</ele>
        <time>2018-06-25T09:00:19.209Z</time>
      </trkpt>
      <trkpt lat="47.57913" lon="3.7413">
        <ele>224</ele>
        <time>2018-06-25T09:00:20.209Z</time>
      </trkpt>
      <trkpt lat="47.57906" lon="3.74118">
        <ele>223</ele>
        <time>2018-06-25T09:00:21.209Z</time>
      </trkpt>
      <trkpt lat="47.57896" lon="3.74107">
        <ele>222</ele>
        <time>2018-06-25T09:00:22.209Z</time>
      </trkpt>
      <trkpt lat="47.57877" lon="3.74094">
        <ele>221</ele>
        <time>2018-06-25T09:00:23.209Z</time>
      </trkpt>
      <trkpt lat="47.57826" lon="3.7407">
        <ele>220</ele>
        <time>2018-06-25T09:00:24.209Z</time>
      </trkpt>
      <trkpt lat="47.57787" lon="3.74067">
        <ele>221</ele>
        <time>2018-06-25T09:00:25.209Z</time>
      </trkpt>
      <trkpt lat="47.57754" lon="3.74062">
        <ele>222</ele>
        <time>2018-06-25T09:00:26.209Z</time>
      </trkpt>
      <trkpt lat="47.57727" lon="3.74051">
        <ele>221</ele>
        <time>2018-06-25T09:00:27.209Z</time>
      </trkpt>
      <trkpt lat="47.57678" lon="3.74023">
        <ele>220</ele>
        <time>2018-06-25T09:00:28.209Z</time>
      </trkpt>
      <trkpt lat="47.57635" lon="3.73992">
        <ele>221</ele>
        <time>2018-06-25T09:00:29.209Z</time>
      </trkpt>
      <trkpt lat="47.57602" lon="3.73961">
        <ele>222</ele>
        <time>2018-06-25T09:00:30.209Z</time>
      </trkpt>
      <trkpt lat="47.57514" lon="3.73859">
        <ele>224</ele>
        <time>2018-06-25T09:00:31.209Z</time>
      </trkpt>
      <trkpt lat="47.57496" lon="3.73835">
        <ele>224</ele>
        <time>2018-06-25T09:00:32.209Z</time>
      </trkpt>
      <trkpt lat="47.57458" lon="3.73774">
        <ele>227</ele>
        <time>2018-06-25T09:00:33.209Z</time>
      </trkpt>
      <trkpt lat="47.57405" lon="3.73684">
        <ele>234</ele>
        <time>2018-06-25T09:00:34.209Z</time>
      </trkpt>
      <trkpt lat="47.57356" lon="3.73612">
        <ele>246</ele>
        <time>2018-06-25T09:00:35.209Z</time>
      </trkpt>
      <trkpt lat="47.5728" lon="3.73485">
        <ele>259</ele>
        <time>2018-06-25T09:00:36.209Z</time>
      </trkpt>
      <trkpt lat="47.57174" lon="3.73247">
        <ele>283</ele>
        <time>2018-06-25T09:00:37.209Z</time>
      </trkpt>
      <trkpt lat="47.57143" lon="3.73212">
        <ele>286</ele>
        <time>2018-06-25T09:00:38.209Z</time>
      </trkpt>
      <trkpt lat="47.57073" lon="3.73148">
        <ele>292</ele>
        <time>2018-06-25T09:00:39.209Z</time>
      </trkpt>
      <trkpt lat="47.57033" lon="3.73105">
        <ele>295</ele>
        <time>2018-06-25T09:00:40.209Z</time>
      </trkpt>
      <trkpt lat="47.57017" lon="3.73075">
        <ele>296</ele>
        <time>2018-06-25T09:00:41.209Z</time>
      </trkpt>
      <trkpt lat="47.56995" lon="3.73031">
        <ele>295</ele>
        <time>2018-06-25T09:00:42.209Z</time>
      </trkpt>
      <trkpt lat="47.5699" lon="3.73027">
        <ele>296</ele>
        <time>2018-06-25T09:00:43.209Z</time>
      </trkpt>
      <trkpt lat="47.56981" lon="3.73029">
        <ele>296</ele>
        <time>2018-06-25T09:00:44.209Z</time>
      </trkpt>
      <trkpt lat="47.5697" lon="3.7304">
        <ele>296</ele>
        <time>2018-06-25T09:00:45.209Z</time>
      </trkpt>
      <trkpt lat="47.56952" lon="3.73053">
        <ele>297</ele>
        <time>2018-06-25T09:00:46.209Z</time>
      </trkpt>
      <trkpt lat="47.56886" lon="3.73108">
        <ele>299</ele>
        <time>2018-06-25T09:00:47.209Z</time>
      </trkpt>
      <trkpt lat="47.56869" lon="3.73114">
        <ele>300</ele>
        <time>2018-06-25T09:00:48.209Z</time>
      </trkpt>
      <trkpt lat="47.5684" lon="3.73119">
        <ele>302</ele>
        <time>2018-06-25T09:00:49.209Z</time>
      </trkpt>
      <trkpt lat="47.56819" lon="3.73125">
        <ele>302</ele>
        <time>2018-06-25T09:00:50.209Z</time>
      </trkpt>
      <trkpt lat="47.56789" lon="3.73137">
        <ele>302</ele>
        <time>2018-06-25T09:00:51.209Z</time>
      </trkpt>
      <trkpt lat="47.5679" lon="3.73137">
        <ele>302</ele>
        <time>2018-06-25T09:00:52.209Z</time>
      </trkpt>
      <trkpt lat="47.56759" lon="3.73158">
        <ele>300</ele>
        <time>2018-06-25T09:00:53.209Z</time>
      </trkpt>
      <trkpt lat="47.56722" lon="3.73194">
        <ele>297</ele>
        <time>2018-06-25T09:00:54.209Z</time>
      </trkpt>
      <trkpt lat="47.5671" lon="3.73202">
        <ele>295</ele>
        <time>2018-06-25T09:00:55.209Z</time>
      </trkpt>
      <trkpt lat="47.5665" lon="3.73208">
        <ele>290</ele>
        <time>2018-06-25T09:00:56.209Z</time>
      </trkpt>
      <trkpt lat="47.56616" lon="3.73223">
        <ele>286</ele>
        <time>2018-06-25T09:00:57.209Z</time>
      </trkpt>
      <trkpt lat="47.56573" lon="3.73251">
        <ele>280</ele>
        <time>2018-06-25T09:00:58.209Z</time>
      </trkpt>
      <trkpt lat="47.56554" lon="3.73268">
        <ele>278</ele>
        <time>2018-06-25T09:00:59.209Z</time>
      </trkpt>
      <trkpt lat="47.56554" lon="3.73268">
        <ele>278</ele>
        <time>2018-06-25T09:01:00.209Z</time>
      </trkpt>
      <trkpt lat="47.56523" lon="3.7331">
        <ele>273</ele>
        <time>2018-06-25T09:01:01.209Z</time>
      </trkpt>
      <trkpt lat="47.56503" lon="3.73349">
        <ele>269</ele>
        <time>2018-06-25T09:01:02.209Z</time>
      </trkpt>
      <trkpt lat="47.56472" lon="3.73399">
        <ele>262</ele>
        <time>2018-06-25T09:01:03.209Z</time>
      </trkpt>
      <trkpt lat="47.56396" lon="3.73494">
        <ele>249</ele>
        <time>2018-06-25T09:01:04.209Z</time>
      </trkpt>
      <trkpt lat="47.56305" lon="3.73624">
        <ele>237</ele>
        <time>2018-06-25T09:01:05.209Z</time>
      </trkpt>
      <trkpt lat="47.56224" lon="3.73706">
        <ele>225</ele>
        <time>2018-06-25T09:01:06.209Z</time>
      </trkpt>
      <trkpt lat="47.56214" lon="3.73821">
        <ele>224</ele>
        <time>2018-06-25T09:01:07.209Z</time>
      </trkpt>
      <trkpt lat="47.56209" lon="3.73825">
        <ele>223</ele>
        <time>2018-06-25T09:01:08.209Z</time>
      </trkpt>
      <trkpt lat="47.56182" lon="3.73812">
        <ele>219</ele>
        <time>2018-06-25T09:01:09.209Z</time>
      </trkpt>
      <trkpt lat="47.56118" lon="3.738">
        <ele>218</ele>
        <time>2018-06-25T09:01:10.209Z</time>
      </trkpt>
      <trkpt lat="47.56079" lon="3.73776">
        <ele>220</ele>
        <time>2018-06-25T09:01:11.209Z</time>
      </trkpt>
      <trkpt lat="47.56028" lon="3.73734">
        <ele>223</ele>
        <time>2018-06-25T09:01:12.209Z</time>
      </trkpt>
      <trkpt lat="47.5598" lon="3.73711">
        <ele>226</ele>
        <time>2018-06-25T09:01:13.209Z</time>
      </trkpt>
      <trkpt lat="47.55936" lon="3.73697">
        <ele>228</ele>
        <time>2018-06-25T09:01:14.209Z</time>
      </trkpt>
      <trkpt lat="47.559" lon="3.73696">
        <ele>226</ele>
        <time>2018-06-25T09:01:15.209Z</time>
      </trkpt>
      <trkpt lat="47.5587" lon="3.73691">
        <ele>224</ele>
        <time>2018-06-25T09:01:16.209Z</time>
      </trkpt>
      <trkpt lat="47.55857" lon="3.73684">
        <ele>223</ele>
        <time>2018-06-25T09:01:17.209Z</time>
      </trkpt>
      <trkpt lat="47.55832" lon="3.73682">
        <ele>221</ele>
        <time>2018-06-25T09:01:18.209Z</time>
      </trkpt>
      <trkpt lat="47.55709" lon="3.73836">
        <ele>208</ele>
        <time>2018-06-25T09:01:19.209Z</time>
      </trkpt>
      <trkpt lat="47.55661" lon="3.73909">
        <ele>207</ele>
        <time>2018-06-25T09:01:20.209Z</time>
      </trkpt>
      <trkpt lat="47.55522" lon="3.73946">
        <ele>213</ele>
        <time>2018-06-25T09:01:21.209Z</time>
      </trkpt>
      <trkpt lat="47.55523" lon="3.73946">
        <ele>213</ele>
        <time>2018-06-25T09:01:22.209Z</time>
      </trkpt>
      <trkpt lat="47.55499" lon="3.73951">
        <ele>213</ele>
        <time>2018-06-25T09:01:23.209Z</time>
      </trkpt>
      <trkpt lat="47.55464" lon="3.73975">
        <ele>214</ele>
        <time>2018-06-25T09:01:24.209Z</time>
      </trkpt>
      <trkpt lat="47.5544" lon="3.74015">
        <ele>213</ele>
        <time>2018-06-25T09:01:25.209Z</time>
      </trkpt>
      <trkpt lat="47.5544" lon="3.74016">
        <ele>213</ele>
        <time>2018-06-25T09:01:26.209Z</time>
      </trkpt>
      <trkpt lat="47.55426" lon="3.74038">
        <ele>213</ele>
        <time>2018-06-25T09:01:27.209Z</time>
      </trkpt>
      <trkpt lat="47.55379" lon="3.7415">
        <ele>211</ele>
        <time>2018-06-25T09:01:28.209Z</time>
      </trkpt>
      <trkpt lat="47.55354" lon="3.74152">
        <ele>212</ele>
        <time>2018-06-25T09:01:29.209Z</time>
      </trkpt>
      <trkpt lat="47.55185" lon="3.74124">
        <ele>212</ele>
        <time>2018-06-25T09:01:30.209Z</time>
      </trkpt>
      <trkpt lat="47.5512" lon="3.7414">
        <ele>214</ele>
        <time>2018-06-25T09:01:31.209Z</time>
      </trkpt>
      <trkpt lat="47.55095" lon="3.74164">
        <ele>215</ele>
        <time>2018-06-25T09:01:32.209Z</time>
      </trkpt>
      <trkpt lat="47.55021" lon="3.74264">
        <ele>222</ele>
        <time>2018-06-25T09:01:33.209Z</time>
      </trkpt>
      <trkpt lat="47.54999" lon="3.7429">
        <ele>223</ele>
        <time>2018-06-25T09:01:34.209Z</time>
      </trkpt>
      <trkpt lat="47.54867" lon="3.74472">
        <ele>220</ele>
        <time>2018-06-25T09:01:35.209Z</time>
      </trkpt>
      <trkpt lat="47.54873" lon="3.74529">
        <ele>221</ele>
        <time>2018-06-25T09:01:36.209Z</time>
      </trkpt>
      <trkpt lat="47.54861" lon="3.74549">
        <ele>220</ele>
        <time>2018-06-25T09:01:37.209Z</time>
      </trkpt>
      <trkpt lat="47.546" lon="3.7478">
        <ele>207</ele>
        <time>2018-06-25T09:01:38.209Z</time>
      </trkpt>
      <trkpt lat="47.54425" lon="3.7489">
        <ele>210</ele>
        <time>2018-06-25T09:01:39.209Z</time>
      </trkpt>
      <trkpt lat="47.54223" lon="3.74938">
        <ele>218</ele>
        <time>2018-06-25T09:01:40.209Z</time>
      </trkpt>
      <trkpt lat="47.5421" lon="3.74948">
        <ele>219</ele>
        <time>2018-06-25T09:01:41.209Z</time>
      </trkpt>
      <trkpt lat="47.54254" lon="3.75118">
        <ele>215</ele>
        <time>2018-06-25T09:01:42.209Z</time>
      </trkpt>
      <trkpt lat="47.54271" lon="3.7521">
        <ele>212</ele>
        <time>2018-06-25T09:01:43.209Z</time>
      </trkpt>
      <trkpt lat="47.54266" lon="3.75334">
        <ele>212</ele>
        <time>2018-06-25T09:01:44.209Z</time>
      </trkpt>
      <trkpt lat="47.54234" lon="3.75454">
        <ele>211</ele>
        <time>2018-06-25T09:01:45.209Z</time>
      </trkpt>
      <trkpt lat="47.54098" lon="3.75843">
        <ele>210</ele>
        <time>2018-06-25T09:01:46.209Z</time>
      </trkpt>
      <trkpt lat="47.54053" lon="3.7592">
        <ele>209</ele>
        <time>2018-06-25T09:01:47.209Z</time>
      </trkpt>
      <trkpt lat="47.53997" lon="3.76037">
        <ele>209</ele>
        <time>2018-06-25T09:01:48.209Z</time>
      </trkpt>
      <trkpt lat="47.53979" lon="3.76208">
        <ele>211</ele>
        <time>2018-06-25T09:01:49.209Z</time>
      </trkpt>
      <trkpt lat="47.53957" lon="3.76319">
        <ele>213</ele>
        <time>2018-06-25T09:01:50.209Z</time>
      </trkpt>
      <trkpt lat="47.53918" lon="3.76439">
        <ele>216</ele>
        <time>2018-06-25T09:01:51.209Z</time>
      </trkpt>
      <trkpt lat="47.53786" lon="3.76748">
        <ele>211</ele>
        <time>2018-06-25T09:01:52.209Z</time>
      </trkpt>
      <trkpt lat="47.53688" lon="3.76929">
        <ele>213</ele>
        <time>2018-06-25T09:01:53.209Z</time>
      </trkpt>
      <trkpt lat="47.53631" lon="3.76999">
        <ele>213</ele>
        <time>2018-06-25T09:01:54.209Z</time>
      </trkpt>
      <trkpt lat="47.53592" lon="3.7713">
        <ele>219</ele>
        <time>2018-06-25T09:01:55.209Z</time>
      </trkpt>
      <trkpt lat="47.53538" lon="3.77398">
        <ele>218</ele>
        <time>2018-06-25T09:01:56.209Z</time>
      </trkpt>
      <trkpt lat="47.53548" lon="3.77452">
        <ele>219</ele>
        <time>2018-06-25T09:01:57.209Z</time>
      </trkpt>
      <trkpt lat="47.53569" lon="3.77512">
        <ele>220</ele>
        <time>2018-06-25T09:01:58.209Z</time>
      </trkpt>
      <trkpt lat="47.53578" lon="3.77559">
        <ele>220</ele>
        <time>2018-06-25T09:01:59.209Z</time>
      </trkpt>
      <trkpt lat="47.53586" lon="3.7768">
        <ele>216</ele>
        <time>2018-06-25T09:02:00.209Z</time>
      </trkpt>
      <trkpt lat="47.53577" lon="3.77844">
        <ele>211</ele>
        <time>2018-06-25T09:02:01.209Z</time>
      </trkpt>
      <trkpt lat="47.5358" lon="3.78022">
        <ele>206</ele>
        <time>2018-06-25T09:02:02.209Z</time>
      </trkpt>
      <trkpt lat="47.536" lon="3.78095">
        <ele>208</ele>
        <time>2018-06-25T09:02:03.209Z</time>
      </trkpt>
      <trkpt lat="47.5362" lon="3.78132">
        <ele>205</ele>
        <time>2018-06-25T09:02:04.209Z</time>
      </trkpt>
      <trkpt lat="47.53697" lon="3.78377">
        <ele>187</ele>
        <time>2018-06-25T09:02:05.209Z</time>
      </trkpt>
      <trkpt lat="47.5371" lon="3.78443">
        <ele>181</ele>
        <time>2018-06-25T09:02:06.209Z</time>
      </trkpt>
      <trkpt lat="47.53851" lon="3.78484">
        <ele>163</ele>
        <time>2018-06-25T09:02:07.209Z</time>
      </trkpt>
      <trkpt lat="47.54013" lon="3.78575">
        <ele>146</ele>
        <time>2018-06-25T09:02:08.209Z</time>
      </trkpt>
      <trkpt lat="47.54067" lon="3.78675">
        <ele>141</ele>
        <time>2018-06-25T09:02:09.209Z</time>
      </trkpt>
      <trkpt lat="47.54073" lon="3.78725">
        <ele>139</ele>
        <time>2018-06-25T09:02:10.209Z</time>
      </trkpt>
      <trkpt lat="47.54057" lon="3.78775">
        <ele>138</ele>
        <time>2018-06-25T09:02:11.209Z</time>
      </trkpt>
      <trkpt lat="47.54049" lon="3.78872">
        <ele>133</ele>
        <time>2018-06-25T09:02:12.209Z</time>
      </trkpt>
      <trkpt lat="47.54031" lon="3.78943">
        <ele>130</ele>
        <time>2018-06-25T09:02:13.209Z</time>
      </trkpt>
      <trkpt lat="47.53979" lon="3.79043">
        <ele>131</ele>
        <time>2018-06-25T09:02:14.209Z</time>
      </trkpt>
      <trkpt lat="47.53847" lon="3.7909">
        <ele>130</ele>
        <time>2018-06-25T09:02:15.209Z</time>
      </trkpt>
      <trkpt lat="47.53838" lon="3.7911">
        <ele>130</ele>
        <time>2018-06-25T09:02:16.209Z</time>
      </trkpt>
      <trkpt lat="47.53835" lon="3.79244">
        <ele>133</ele>
        <time>2018-06-25T09:02:17.209Z</time>
      </trkpt>
      <trkpt lat="47.53596" lon="3.79205">
        <ele>133</ele>
        <time>2018-06-25T09:02:18.209Z</time>
      </trkpt>
      <trkpt lat="47.5338" lon="3.79466">
        <ele>138</ele>
        <time>2018-06-25T09:02:19.209Z</time>
      </trkpt>
      <trkpt lat="47.53329" lon="3.79543">
        <ele>141</ele>
        <time>2018-06-25T09:02:20.209Z</time>
      </trkpt>
      <trkpt lat="47.53335" lon="3.79559">
        <ele>141</ele>
        <time>2018-06-25T09:02:21.209Z</time>
      </trkpt>
      <trkpt lat="47.53342" lon="3.79701">
        <ele>148</ele>
        <time>2018-06-25T09:02:22.209Z</time>
      </trkpt>
      <trkpt lat="47.53356" lon="3.79785">
        <ele>152</ele>
        <time>2018-06-25T09:02:23.209Z</time>
      </trkpt>
      <trkpt lat="47.53362" lon="3.79952">
        <ele>157</ele>
        <time>2018-06-25T09:02:24.209Z</time>
      </trkpt>
      <trkpt lat="47.53407" lon="3.80133">
        <ele>156</ele>
        <time>2018-06-25T09:02:25.209Z</time>
      </trkpt>
      <trkpt lat="47.53447" lon="3.80183">
        <ele>157</ele>
        <time>2018-06-25T09:02:26.209Z</time>
      </trkpt>
      <trkpt lat="47.5355" lon="3.80244">
        <ele>162</ele>
        <time>2018-06-25T09:02:27.209Z</time>
      </trkpt>
      <trkpt lat="47.53562" lon="3.80264">
        <ele>163</ele>
        <time>2018-06-25T09:02:28.209Z</time>
      </trkpt>
      <trkpt lat="47.5358" lon="3.80338">
        <ele>163</ele>
        <time>2018-06-25T09:02:29.209Z</time>
      </trkpt>
      <trkpt lat="47.53613" lon="3.80364">
        <ele>169</ele>
        <time>2018-06-25T09:02:30.209Z</time>
      </trkpt>
      <trkpt lat="47.53753" lon="3.8039">
        <ele>184</ele>
        <time>2018-06-25T09:02:31.209Z</time>
      </trkpt>
      <trkpt lat="47.53775" lon="3.80407">
        <ele>186</ele>
        <time>2018-06-25T09:02:32.209Z</time>
      </trkpt>
      <trkpt lat="47.53938" lon="3.80709">
        <ele>212</ele>
        <time>2018-06-25T09:02:33.209Z</time>
      </trkpt>
      <trkpt lat="47.53954" lon="3.80767">
        <ele>216</ele>
        <time>2018-06-25T09:02:34.209Z</time>
      </trkpt>
      <trkpt lat="47.53997" lon="3.80857">
        <ele>221</ele>
        <time>2018-06-25T09:02:35.209Z</time>
      </trkpt>
      <trkpt lat="47.54034" lon="3.80883">
        <ele>223</ele>
        <time>2018-06-25T09:02:36.209Z</time>
      </trkpt>
      <trkpt lat="47.53905" lon="3.81427">
        <ele>233</ele>
        <time>2018-06-25T09:02:37.209Z</time>
      </trkpt>
      <trkpt lat="47.53886" lon="3.81597">
        <ele>234</ele>
        <time>2018-06-25T09:02:38.209Z</time>
      </trkpt>
      <trkpt lat="47.53849" lon="3.81701">
        <ele>234</ele>
        <time>2018-06-25T09:02:39.209Z</time>
      </trkpt>
      <trkpt lat="47.53847" lon="3.81806">
        <ele>237</ele>
        <time>2018-06-25T09:02:40.209Z</time>
      </trkpt>
      <trkpt lat="47.53827" lon="3.82023">
        <ele>242</ele>
        <time>2018-06-25T09:02:41.209Z</time>
      </trkpt>
      <trkpt lat="47.53802" lon="3.82127">
        <ele>243</ele>
        <time>2018-06-25T09:02:42.209Z</time>
      </trkpt>
      <trkpt lat="47.53789" lon="3.82225">
        <ele>246</ele>
        <time>2018-06-25T09:02:43.209Z</time>
      </trkpt>
      <trkpt lat="47.53756" lon="3.82282">
        <ele>247</ele>
        <time>2018-06-25T09:02:44.209Z</time>
      </trkpt>
      <trkpt lat="47.53734" lon="3.82361">
        <ele>247</ele>
        <time>2018-06-25T09:02:45.209Z</time>
      </trkpt>
      <trkpt lat="47.53719" lon="3.8264">
        <ele>250</ele>
        <time>2018-06-25T09:02:46.209Z</time>
      </trkpt>
      <trkpt lat="47.5369" lon="3.82814">
        <ele>246</ele>
        <time>2018-06-25T09:02:47.209Z</time>
      </trkpt>
      <trkpt lat="47.53689" lon="3.82861">
        <ele>246</ele>
        <time>2018-06-25T09:02:48.209Z</time>
      </trkpt>
      <trkpt lat="47.53697" lon="3.82895">
        <ele>246</ele>
        <time>2018-06-25T09:02:49.209Z</time>
      </trkpt>
      <trkpt lat="47.53719" lon="3.82955">
        <ele>247</ele>
        <time>2018-06-25T09:02:50.209Z</time>
      </trkpt>
      <trkpt lat="47.53757" lon="3.83102">
        <ele>247</ele>
        <time>2018-06-25T09:02:51.209Z</time>
      </trkpt>
      <trkpt lat="47.53773" lon="3.83277">
        <ele>250</ele>
        <time>2018-06-25T09:02:52.209Z</time>
      </trkpt>
      <trkpt lat="47.53773" lon="3.83763">
        <ele>255</ele>
        <time>2018-06-25T09:02:53.209Z</time>
      </trkpt>
      <trkpt lat="47.53784" lon="3.83847">
        <ele>258</ele>
        <time>2018-06-25T09:02:54.209Z</time>
      </trkpt>
      <trkpt lat="47.53784" lon="3.83904">
        <ele>262</ele>
        <time>2018-06-25T09:02:55.209Z</time>
      </trkpt>
      <trkpt lat="47.53778" lon="3.83934">
        <ele>263</ele>
        <time>2018-06-25T09:02:56.209Z</time>
      </trkpt>
      <trkpt lat="47.53744" lon="3.8402">
        <ele>262</ele>
        <time>2018-06-25T09:02:57.209Z</time>
      </trkpt>
      <trkpt lat="47.53743" lon="3.84044">
        <ele>262</ele>
        <time>2018-06-25T09:02:58.209Z</time>
      </trkpt>
      <trkpt lat="47.53717" lon="3.84125">
        <ele>258</ele>
        <time>2018-06-25T09:02:59.209Z</time>
      </trkpt>
      <trkpt lat="47.53707" lon="3.84209">
        <ele>255</ele>
        <time>2018-06-25T09:03:00.209Z</time>
      </trkpt>
      <trkpt lat="47.53653" lon="3.84336">
        <ele>244</ele>
        <time>2018-06-25T09:03:01.209Z</time>
      </trkpt>
      <trkpt lat="47.5365" lon="3.84356">
        <ele>242</ele>
        <time>2018-06-25T09:03:02.209Z</time>
      </trkpt>
      <trkpt lat="47.53659" lon="3.8438">
        <ele>242</ele>
        <time>2018-06-25T09:03:03.209Z</time>
      </trkpt>
      <trkpt lat="47.53659" lon="3.84392">
        <ele>241</ele>
        <time>2018-06-25T09:03:04.209Z</time>
      </trkpt>
      <trkpt lat="47.53629" lon="3.84426">
        <ele>236</ele>
        <time>2018-06-25T09:03:05.209Z</time>
      </trkpt>
      <trkpt lat="47.53508" lon="3.84504">
        <ele>219</ele>
        <time>2018-06-25T09:03:06.209Z</time>
      </trkpt>
      <trkpt lat="47.53488" lon="3.84581">
        <ele>214</ele>
        <time>2018-06-25T09:03:07.209Z</time>
      </trkpt>
      <trkpt lat="47.53436" lon="3.84657">
        <ele>216</ele>
        <time>2018-06-25T09:03:08.209Z</time>
      </trkpt>
      <trkpt lat="47.53369" lon="3.84735">
        <ele>227</ele>
        <time>2018-06-25T09:03:09.209Z</time>
      </trkpt>
      <trkpt lat="47.53311" lon="3.84829">
        <ele>236</ele>
        <time>2018-06-25T09:03:10.209Z</time>
      </trkpt>
      <trkpt lat="47.53147" lon="3.84989">
        <ele>250</ele>
        <time>2018-06-25T09:03:11.209Z</time>
      </trkpt>
      <trkpt lat="47.53118" lon="3.85049">
        <ele>252</ele>
        <time>2018-06-25T09:03:12.209Z</time>
      </trkpt>
      <trkpt lat="47.53064" lon="3.8513">
        <ele>251</ele>
        <time>2018-06-25T09:03:13.209Z</time>
      </trkpt>
      <trkpt lat="47.52872" lon="3.85469">
        <ele>237</ele>
        <time>2018-06-25T09:03:14.209Z</time>
      </trkpt>
      <trkpt lat="47.52867" lon="3.85492">
        <ele>238</ele>
        <time>2018-06-25T09:03:15.209Z</time>
      </trkpt>
      <trkpt lat="47.52865" lon="3.85555">
        <ele>238</ele>
        <time>2018-06-25T09:03:16.209Z</time>
      </trkpt>
      <trkpt lat="47.52869" lon="3.85593">
        <ele>239</ele>
        <time>2018-06-25T09:03:17.209Z</time>
      </trkpt>
      <trkpt lat="47.5291" lon="3.8573">
        <ele>242</ele>
        <time>2018-06-25T09:03:18.209Z</time>
      </trkpt>
      <trkpt lat="47.52887" lon="3.85834">
        <ele>244</ele>
        <time>2018-06-25T09:03:19.209Z</time>
      </trkpt>
      <trkpt lat="47.52863" lon="3.8588">
        <ele>246</ele>
        <time>2018-06-25T09:03:20.209Z</time>
      </trkpt>
      <trkpt lat="47.52887" lon="3.85935">
        <ele>247</ele>
        <time>2018-06-25T09:03:21.209Z</time>
      </trkpt>
      <trkpt lat="47.52902" lon="3.86052">
        <ele>249</ele>
        <time>2018-06-25T09:03:22.209Z</time>
      </trkpt>
      <trkpt lat="47.52925" lon="3.86122">
        <ele>251</ele>
        <time>2018-06-25T09:03:23.209Z</time>
      </trkpt>
      <trkpt lat="47.5299" lon="3.86276">
        <ele>250</ele>
        <time>2018-06-25T09:03:24.209Z</time>
      </trkpt>
      <trkpt lat="47.52988" lon="3.86314">
        <ele>248</ele>
        <time>2018-06-25T09:03:25.209Z</time>
      </trkpt>
      <trkpt lat="47.5293" lon="3.86337">
        <ele>247</ele>
        <time>2018-06-25T09:03:26.209Z</time>
      </trkpt>
      <trkpt lat="47.5291" lon="3.8636">
        <ele>246</ele>
        <time>2018-06-25T09:03:27.209Z</time>
      </trkpt>
      <trkpt lat="47.52874" lon="3.8643">
        <ele>240</ele>
        <time>2018-06-25T09:03:28.209Z</time>
      </trkpt>
      <trkpt lat="47.52798" lon="3.86525">
        <ele>234</ele>
        <time>2018-06-25T09:03:29.209Z</time>
      </trkpt>
      <trkpt lat="47.52767" lon="3.86588">
        <ele>227</ele>
        <time>2018-06-25T09:03:30.209Z</time>
      </trkpt>
      <trkpt lat="47.52753" lon="3.86602">
        <ele>226</ele>
        <time>2018-06-25T09:03:31.209Z</time>
      </trkpt>
      <trkpt lat="47.5273" lon="3.86609">
        <ele>224</ele>
        <time>2018-06-25T09:03:32.209Z</time>
      </trkpt>
      <trkpt lat="47.52721" lon="3.86619">
        <ele>223</ele>
        <time>2018-06-25T09:03:33.209Z</time>
      </trkpt>
      <trkpt lat="47.52721" lon="3.86645">
        <ele>221</ele>
        <time>2018-06-25T09:03:34.209Z</time>
      </trkpt>
      <trkpt lat="47.52726" lon="3.86661">
        <ele>220</ele>
        <time>2018-06-25T09:03:35.209Z</time>
      </trkpt>
      <trkpt lat="47.52784" lon="3.86699">
        <ele>216</ele>
        <time>2018-06-25T09:03:36.209Z</time>
      </trkpt>
      <trkpt lat="47.52784" lon="3.86736">
        <ele>214</ele>
        <time>2018-06-25T09:03:37.209Z</time>
      </trkpt>
      <trkpt lat="47.52777" lon="3.86746">
        <ele>214</ele>
        <time>2018-06-25T09:03:38.209Z</time>
      </trkpt>
      <trkpt lat="47.52719" lon="3.86746">
        <ele>214</ele>
        <time>2018-06-25T09:03:39.209Z</time>
      </trkpt>
      <trkpt lat="47.52701" lon="3.86763">
        <ele>212</ele>
        <time>2018-06-25T09:03:40.209Z</time>
      </trkpt>
      <trkpt lat="47.52707" lon="3.86786">
        <ele>211</ele>
        <time>2018-06-25T09:03:41.209Z</time>
      </trkpt>
      <trkpt lat="47.52732" lon="3.86819">
        <ele>210</ele>
        <time>2018-06-25T09:03:42.209Z</time>
      </trkpt>
      <trkpt lat="47.52738" lon="3.86846">
        <ele>209</ele>
        <time>2018-06-25T09:03:43.209Z</time>
      </trkpt>
      <trkpt lat="47.52721" lon="3.86893">
        <ele>205</ele>
        <time>2018-06-25T09:03:44.209Z</time>
      </trkpt>
      <trkpt lat="47.52679" lon="3.86974">
        <ele>199</ele>
        <time>2018-06-25T09:03:45.209Z</time>
      </trkpt>
      <trkpt lat="47.52508" lon="3.87225">
        <ele>187</ele>
        <time>2018-06-25T09:03:46.209Z</time>
      </trkpt>
      <trkpt lat="47.52472" lon="3.87255">
        <ele>186</ele>
        <time>2018-06-25T09:03:47.209Z</time>
      </trkpt>
      <trkpt lat="47.52414" lon="3.87329">
        <ele>185</ele>
        <time>2018-06-25T09:03:48.209Z</time>
      </trkpt>
      <trkpt lat="47.52403" lon="3.87362">
        <ele>184</ele>
        <time>2018-06-25T09:03:49.209Z</time>
      </trkpt>
      <trkpt lat="47.524" lon="3.87467">
        <ele>183</ele>
        <time>2018-06-25T09:03:50.209Z</time>
      </trkpt>
      <trkpt lat="47.52385" lon="3.87574">
        <ele>183</ele>
        <time>2018-06-25T09:03:51.209Z</time>
      </trkpt>
      <trkpt lat="47.52384" lon="3.8769">
        <ele>179</ele>
        <time>2018-06-25T09:03:52.209Z</time>
      </trkpt>
      <trkpt lat="47.52391" lon="3.87731">
        <ele>177</ele>
        <time>2018-06-25T09:03:53.209Z</time>
      </trkpt>
      <trkpt lat="47.52363" lon="3.87768">
        <ele>174</ele>
        <time>2018-06-25T09:03:54.209Z</time>
      </trkpt>
      <trkpt lat="47.52358" lon="3.87788">
        <ele>173</ele>
        <time>2018-06-25T09:03:55.209Z</time>
      </trkpt>
      <trkpt lat="47.52383" lon="3.87845">
        <ele>172</ele>
        <time>2018-06-25T09:03:56.209Z</time>
      </trkpt>
      <trkpt lat="47.52385" lon="3.87868">
        <ele>171</ele>
        <time>2018-06-25T09:03:57.209Z</time>
      </trkpt>
      <trkpt lat="47.52378" lon="3.87895">
        <ele>169</ele>
        <time>2018-06-25T09:03:58.209Z</time>
      </trkpt>
      <trkpt lat="47.52347" lon="3.87932">
        <ele>168</ele>
        <time>2018-06-25T09:03:59.209Z</time>
      </trkpt>
      <trkpt lat="47.52199" lon="3.88003">
        <ele>166</ele>
        <time>2018-06-25T09:04:00.209Z</time>
      </trkpt>
      <trkpt lat="47.52166" lon="3.88053">
        <ele>168</ele>
        <time>2018-06-25T09:04:01.209Z</time>
      </trkpt>
      <trkpt lat="47.52151" lon="3.88063">
        <ele>169</ele>
        <time>2018-06-25T09:04:02.209Z</time>
      </trkpt>
      <trkpt lat="47.5212" lon="3.88056">
        <ele>170</ele>
        <time>2018-06-25T09:04:03.209Z</time>
      </trkpt>
      <trkpt lat="47.52102" lon="3.88063">
        <ele>171</ele>
        <time>2018-06-25T09:04:04.209Z</time>
      </trkpt>
      <trkpt lat="47.52102" lon="3.88123">
        <ele>172</ele>
        <time>2018-06-25T09:04:05.209Z</time>
      </trkpt>
      <trkpt lat="47.52069" lon="3.88123">
        <ele>173</ele>
        <time>2018-06-25T09:04:06.209Z</time>
      </trkpt>
      <trkpt lat="47.52051" lon="3.88093">
        <ele>173</ele>
        <time>2018-06-25T09:04:07.209Z</time>
      </trkpt>
      <trkpt lat="47.52004" lon="3.88157">
        <ele>175</ele>
        <time>2018-06-25T09:04:08.209Z</time>
      </trkpt>
      <trkpt lat="47.51986" lon="3.88163">
        <ele>175</ele>
        <time>2018-06-25T09:04:09.209Z</time>
      </trkpt>
      <trkpt lat="47.5198" lon="3.88157">
        <ele>176</ele>
        <time>2018-06-25T09:04:10.209Z</time>
      </trkpt>
      <trkpt lat="47.51972" lon="3.88166">
        <ele>176</ele>
        <time>2018-06-25T09:04:11.209Z</time>
      </trkpt>
      <trkpt lat="47.51977" lon="3.88177">
        <ele>176</ele>
        <time>2018-06-25T09:04:12.209Z</time>
      </trkpt>
      <trkpt lat="47.51971" lon="3.88194">
        <ele>177</ele>
        <time>2018-06-25T09:04:13.209Z</time>
      </trkpt>
      <trkpt lat="47.51948" lon="3.88214">
        <ele>179</ele>
        <time>2018-06-25T09:04:14.209Z</time>
      </trkpt>
      <trkpt lat="47.51869" lon="3.88261">
        <ele>183</ele>
        <time>2018-06-25T09:04:15.209Z</time>
      </trkpt>
      <trkpt lat="47.5175" lon="3.88388">
        <ele>191</ele>
        <time>2018-06-25T09:04:16.209Z</time>
      </trkpt>
      <trkpt lat="47.51605" lon="3.88495">
        <ele>197</ele>
        <time>2018-06-25T09:04:17.209Z</time>
      </trkpt>
      <trkpt lat="47.51451" lon="3.88592">
        <ele>201</ele>
        <time>2018-06-25T09:04:18.209Z</time>
      </trkpt>
      <trkpt lat="47.51376" lon="3.88653">
        <ele>203</ele>
        <time>2018-06-25T09:04:19.209Z</time>
      </trkpt>
      <trkpt lat="47.51339" lon="3.88693">
        <ele>205</ele>
        <time>2018-06-25T09:04:20.209Z</time>
      </trkpt>
      <trkpt lat="47.51103" lon="3.8891">
        <ele>214</ele>
        <time>2018-06-25T09:04:21.209Z</time>
      </trkpt>
      <trkpt lat="47.50973" lon="3.89062">
        <ele>218</ele>
        <time>2018-06-25T09:04:22.209Z</time>
      </trkpt>
      <trkpt lat="47.50903" lon="3.89105">
        <ele>219</ele>
        <time>2018-06-25T09:04:23.209Z</time>
      </trkpt>
      <trkpt lat="47.50719" lon="3.8925">
        <ele>220</ele>
        <time>2018-06-25T09:04:24.209Z</time>
      </trkpt>
      <trkpt lat="47.50524" lon="3.89417">
        <ele>227</ele>
        <time>2018-06-25T09:04:25.209Z</time>
      </trkpt>
      <trkpt lat="47.50403" lon="3.89504">
        <ele>230</ele>
        <time>2018-06-25T09:04:26.209Z</time>
      </trkpt>
      <trkpt lat="47.50318" lon="3.89528">
        <ele>230</ele>
        <time>2018-06-25T09:04:27.209Z</time>
      </trkpt>
      <trkpt lat="47.50242" lon="3.89595">
        <ele>229</ele>
        <time>2018-06-25T09:04:28.209Z</time>
      </trkpt>
      <trkpt lat="47.49988" lon="3.89896">
        <ele>238</ele>
        <time>2018-06-25T09:04:29.209Z</time>
      </trkpt>
      <trkpt lat="47.49828" lon="3.90027">
        <ele>243</ele>
        <time>2018-06-25T09:04:30.209Z</time>
      </trkpt>
      <trkpt lat="47.49802" lon="3.9003">
        <ele>244</ele>
        <time>2018-06-25T09:04:31.209Z</time>
      </trkpt>
      <trkpt lat="47.49793" lon="3.90037">
        <ele>244</ele>
        <time>2018-06-25T09:04:32.209Z</time>
      </trkpt>
      <trkpt lat="47.49793" lon="3.90014">
        <ele>243</ele>
        <time>2018-06-25T09:04:33.209Z</time>
      </trkpt>
      <trkpt lat="47.49762" lon="3.89923">
        <ele>241</ele>
        <time>2018-06-25T09:04:34.209Z</time>
      </trkpt>
      <trkpt lat="47.49699" lon="3.89832">
        <ele>241</ele>
        <time>2018-06-25T09:04:35.209Z</time>
      </trkpt>
      <trkpt lat="47.49697" lon="3.89806">
        <ele>240</ele>
        <time>2018-06-25T09:04:36.209Z</time>
      </trkpt>
      <trkpt lat="47.49682" lon="3.89793">
        <ele>240</ele>
        <time>2018-06-25T09:04:37.209Z</time>
      </trkpt>
      <trkpt lat="47.49671" lon="3.89795">
        <ele>240</ele>
        <time>2018-06-25T09:04:38.209Z</time>
      </trkpt>
      <trkpt lat="47.49657" lon="3.89815">
        <ele>241</ele>
        <time>2018-06-25T09:04:39.209Z</time>
      </trkpt>
      <trkpt lat="47.49661" lon="3.89843">
        <ele>241</ele>
        <time>2018-06-25T09:04:40.209Z</time>
      </trkpt>
      <trkpt lat="47.493" lon="3.90738">
        <ele>248</ele>
        <time>2018-06-25T09:04:41.209Z</time>
      </trkpt>
      <trkpt lat="47.49246" lon="3.90821">
        <ele>251</ele>
        <time>2018-06-25T09:04:42.209Z</time>
      </trkpt>
      <trkpt lat="47.4912" lon="3.9121">
        <ele>257</ele>
        <time>2018-06-25T09:04:43.209Z</time>
      </trkpt>
      <trkpt lat="47.49129" lon="3.91274">
        <ele>257</ele>
        <time>2018-06-25T09:04:44.209Z</time>
      </trkpt>
      <trkpt lat="47.4915" lon="3.91515">
        <ele>259</ele>
        <time>2018-06-25T09:04:45.209Z</time>
      </trkpt>
      <trkpt lat="47.49197" lon="3.91907">
        <ele>260</ele>
        <time>2018-06-25T09:04:46.209Z</time>
      </trkpt>
      <trkpt lat="47.49233" lon="3.92072">
        <ele>256</ele>
        <time>2018-06-25T09:04:47.209Z</time>
      </trkpt>
      <trkpt lat="47.49132" lon="3.92199">
        <ele>259</ele>
        <time>2018-06-25T09:04:48.209Z</time>
      </trkpt>
      <trkpt lat="47.49132" lon="3.92212">
        <ele>259</ele>
        <time>2018-06-25T09:04:49.209Z</time>
      </trkpt>
      <trkpt lat="47.49118" lon="3.92239">
        <ele>260</ele>
        <time>2018-06-25T09:04:50.209Z</time>
      </trkpt>
      <trkpt lat="47.49076" lon="3.92366">
        <ele>265</ele>
        <time>2018-06-25T09:04:51.209Z</time>
      </trkpt>
      <trkpt lat="47.488" lon="3.92916">
        <ele>289</ele>
        <time>2018-06-25T09:04:52.209Z</time>
      </trkpt>
      <trkpt lat="47.48775" lon="3.93177">
        <ele>293</ele>
        <time>2018-06-25T09:04:53.209Z</time>
      </trkpt>
      <trkpt lat="47.48766" lon="3.93218">
        <ele>293</ele>
        <time>2018-06-25T09:04:54.209Z</time>
      </trkpt>
      <trkpt lat="47.48654" lon="3.93532">
        <ele>277</ele>
        <time>2018-06-25T09:04:55.209Z</time>
      </trkpt>
      <trkpt lat="47.48614" lon="3.93613">
        <ele>272</ele>
        <time>2018-06-25T09:04:56.209Z</time>
      </trkpt>
      <trkpt lat="47.4858" lon="3.93634">
        <ele>272</ele>
        <time>2018-06-25T09:04:57.209Z</time>
      </trkpt>
      <trkpt lat="47.48534" lon="3.93637">
        <ele>273</ele>
        <time>2018-06-25T09:04:58.209Z</time>
      </trkpt>
      <trkpt lat="47.48479" lon="3.9366">
        <ele>273</ele>
        <time>2018-06-25T09:04:59.209Z</time>
      </trkpt>
      <trkpt lat="47.48452" lon="3.93684">
        <ele>272</ele>
        <time>2018-06-25T09:05:00.209Z</time>
      </trkpt>
      <trkpt lat="47.48434" lon="3.93714">
        <ele>269</ele>
        <time>2018-06-25T09:05:01.209Z</time>
      </trkpt>
      <trkpt lat="47.4841" lon="3.93828">
        <ele>254</ele>
        <time>2018-06-25T09:05:02.209Z</time>
      </trkpt>
      <trkpt lat="47.48378" lon="3.93841">
        <ele>253</ele>
        <time>2018-06-25T09:05:03.209Z</time>
      </trkpt>
      <trkpt lat="47.48237" lon="3.93858">
        <ele>245</ele>
        <time>2018-06-25T09:05:04.209Z</time>
      </trkpt>
      <trkpt lat="47.48224" lon="3.93865">
        <ele>243</ele>
        <time>2018-06-25T09:05:05.209Z</time>
      </trkpt>
      <trkpt lat="47.48167" lon="3.93939">
        <ele>229</ele>
        <time>2018-06-25T09:05:06.209Z</time>
      </trkpt>
      <trkpt lat="47.48154" lon="3.93945">
        <ele>227</ele>
        <time>2018-06-25T09:05:07.209Z</time>
      </trkpt>
      <trkpt lat="47.48085" lon="3.93942">
        <ele>212</ele>
        <time>2018-06-25T09:05:08.209Z</time>
      </trkpt>
      <trkpt lat="47.48083" lon="3.93992">
        <ele>210</ele>
        <time>2018-06-25T09:05:09.209Z</time>
      </trkpt>
      <trkpt lat="47.48096" lon="3.94069">
        <ele>216</ele>
        <time>2018-06-25T09:05:10.209Z</time>
      </trkpt>
      <trkpt lat="47.48072" lon="3.94126">
        <ele>212</ele>
        <time>2018-06-25T09:05:11.209Z</time>
      </trkpt>
      <trkpt lat="47.48038" lon="3.94337">
        <ele>224</ele>
        <time>2018-06-25T09:05:12.209Z</time>
      </trkpt>
      <trkpt lat="47.48027" lon="3.94378">
        <ele>227</ele>
        <time>2018-06-25T09:05:13.209Z</time>
      </trkpt>
      <trkpt lat="47.47975" lon="3.94435">
        <ele>221</ele>
        <time>2018-06-25T09:05:14.209Z</time>
      </trkpt>
      <trkpt lat="47.4789" lon="3.94652">
        <ele>221</ele>
        <time>2018-06-25T09:05:15.209Z</time>
      </trkpt>
      <trkpt lat="47.47869" lon="3.94726">
        <ele>221</ele>
        <time>2018-06-25T09:05:16.209Z</time>
      </trkpt>
      <trkpt lat="47.47851" lon="3.94753">
        <ele>217</ele>
        <time>2018-06-25T09:05:17.209Z</time>
      </trkpt>
      <trkpt lat="47.4778" lon="3.948">
        <ele>212</ele>
        <time>2018-06-25T09:05:18.209Z</time>
      </trkpt>
      <trkpt lat="47.47768" lon="3.94783">
        <ele>211</ele>
        <time>2018-06-25T09:05:19.209Z</time>
      </trkpt>
      <trkpt lat="47.4778" lon="3.94803">
        <ele>212</ele>
        <time>2018-06-25T09:05:20.209Z</time>
      </trkpt>
      <trkpt lat="47.47753" lon="3.9483">
        <ele>211</ele>
        <time>2018-06-25T09:05:21.209Z</time>
      </trkpt>
      <trkpt lat="47.47747" lon="3.94861">
        <ele>213</ele>
        <time>2018-06-25T09:05:22.209Z</time>
      </trkpt>
      <trkpt lat="47.47773" lon="3.95044">
        <ele>225</ele>
        <time>2018-06-25T09:05:23.209Z</time>
      </trkpt>
      <trkpt lat="47.47773" lon="3.95044">
        <ele>225</ele>
        <time>2018-06-25T09:05:24.209Z</time>
      </trkpt>
      <trkpt lat="47.47752" lon="3.95083">
        <ele>231</ele>
        <time>2018-06-25T09:05:25.209Z</time>
      </trkpt>
      <trkpt lat="47.47732" lon="3.95113">
        <ele>235</ele>
        <time>2018-06-25T09:05:26.209Z</time>
      </trkpt>
      <trkpt lat="47.47718" lon="3.95147">
        <ele>238</ele>
        <time>2018-06-25T09:05:27.209Z</time>
      </trkpt>
      <trkpt lat="47.47707" lon="3.95202">
        <ele>241</ele>
        <time>2018-06-25T09:05:28.209Z</time>
      </trkpt>
      <trkpt lat="47.47669" lon="3.95298">
        <ele>249</ele>
        <time>2018-06-25T09:05:29.209Z</time>
      </trkpt>
      <trkpt lat="47.47662" lon="3.95312">
        <ele>249</ele>
        <time>2018-06-25T09:05:30.209Z</time>
      </trkpt>
      <trkpt lat="47.47651" lon="3.95323">
        <ele>250</ele>
        <time>2018-06-25T09:05:31.209Z</time>
      </trkpt>
      <trkpt lat="47.47606" lon="3.9536">
        <ele>253</ele>
        <time>2018-06-25T09:05:32.209Z</time>
      </trkpt>
      <trkpt lat="47.4762" lon="3.95429">
        <ele>256</ele>
        <time>2018-06-25T09:05:33.209Z</time>
      </trkpt>
      <trkpt lat="47.47622" lon="3.95464">
        <ele>258</ele>
        <time>2018-06-25T09:05:34.209Z</time>
      </trkpt>
      <trkpt lat="47.4762" lon="3.95498">
        <ele>259</ele>
        <time>2018-06-25T09:05:35.209Z</time>
      </trkpt>
      <trkpt lat="47.47616" lon="3.95508">
        <ele>259</ele>
        <time>2018-06-25T09:05:36.209Z</time>
      </trkpt>
      <trkpt lat="47.47613" lon="3.95541">
        <ele>260</ele>
        <time>2018-06-25T09:05:37.209Z</time>
      </trkpt>
      <trkpt lat="47.47611" lon="3.95581">
        <ele>261</ele>
        <time>2018-06-25T09:05:38.209Z</time>
      </trkpt>
      <trkpt lat="47.4761" lon="3.95685">
        <ele>268</ele>
        <time>2018-06-25T09:05:39.209Z</time>
      </trkpt>
      <trkpt lat="47.47614" lon="3.95742">
        <ele>276</ele>
        <time>2018-06-25T09:05:40.209Z</time>
      </trkpt>
      <trkpt lat="47.47608" lon="3.95809">
        <ele>282</ele>
        <time>2018-06-25T09:05:41.209Z</time>
      </trkpt>
      <trkpt lat="47.47609" lon="3.95809">
        <ele>282</ele>
        <time>2018-06-25T09:05:42.209Z</time>
      </trkpt>
      <trkpt lat="47.47598" lon="3.9592">
        <ele>293</ele>
        <time>2018-06-25T09:05:43.209Z</time>
      </trkpt>
      <trkpt lat="47.47582" lon="3.95982">
        <ele>300</ele>
        <time>2018-06-25T09:05:44.209Z</time>
      </trkpt>
      <trkpt lat="47.47565" lon="3.96038">
        <ele>303</ele>
        <time>2018-06-25T09:05:45.209Z</time>
      </trkpt>
      <trkpt lat="47.47537" lon="3.96121">
        <ele>305</ele>
        <time>2018-06-25T09:05:46.209Z</time>
      </trkpt>
      <trkpt lat="47.47519" lon="3.96152">
        <ele>306</ele>
        <time>2018-06-25T09:05:47.209Z</time>
      </trkpt>
      <trkpt lat="47.47492" lon="3.96175">
        <ele>306</ele>
        <time>2018-06-25T09:05:48.209Z</time>
      </trkpt>
      <trkpt lat="47.47452" lon="3.96224">
        <ele>307</ele>
        <time>2018-06-25T09:05:49.209Z</time>
      </trkpt>
      <trkpt lat="47.4751" lon="3.9633">
        <ele>304</ele>
        <time>2018-06-25T09:05:50.209Z</time>
      </trkpt>
      <trkpt lat="47.47564" lon="3.96438">
        <ele>303</ele>
        <time>2018-06-25T09:05:51.209Z</time>
      </trkpt>
      <trkpt lat="47.4759" lon="3.96504">
        <ele>304</ele>
        <time>2018-06-25T09:05:52.209Z</time>
      </trkpt>
      <trkpt lat="47.47609" lon="3.96543">
        <ele>307</ele>
        <time>2018-06-25T09:05:53.209Z</time>
      </trkpt>
      <trkpt lat="47.47614" lon="3.96562">
        <ele>308</ele>
        <time>2018-06-25T09:05:54.209Z</time>
      </trkpt>
      <trkpt lat="47.47626" lon="3.96626">
        <ele>311</ele>
        <time>2018-06-25T09:05:55.209Z</time>
      </trkpt>
      <trkpt lat="47.47636" lon="3.9671">
        <ele>315</ele>
        <time>2018-06-25T09:05:56.209Z</time>
      </trkpt>
      <trkpt lat="47.47639" lon="3.96787">
        <ele>316</ele>
        <time>2018-06-25T09:05:57.209Z</time>
      </trkpt>
      <trkpt lat="47.47637" lon="3.96822">
        <ele>315</ele>
        <time>2018-06-25T09:05:58.209Z</time>
      </trkpt>
      <trkpt lat="47.47631" lon="3.96852">
        <ele>314</ele>
        <time>2018-06-25T09:05:59.209Z</time>
      </trkpt>
      <trkpt lat="47.47613" lon="3.96884">
        <ele>312</ele>
        <time>2018-06-25T09:06:00.209Z</time>
      </trkpt>
      <trkpt lat="47.47601" lon="3.96923">
        <ele>311</ele>
        <time>2018-06-25T09:06:01.209Z</time>
      </trkpt>
      <trkpt lat="47.47577" lon="3.96995">
        <ele>310</ele>
        <time>2018-06-25T09:06:02.209Z</time>
      </trkpt>
      <trkpt lat="47.47538" lon="3.97086">
        <ele>309</ele>
        <time>2018-06-25T09:06:03.209Z</time>
      </trkpt>
      <trkpt lat="47.47512" lon="3.97152">
        <ele>309</ele>
        <time>2018-06-25T09:06:04.209Z</time>
      </trkpt>
      <trkpt lat="47.47507" lon="3.97179">
        <ele>309</ele>
        <time>2018-06-25T09:06:05.209Z</time>
      </trkpt>
      <trkpt lat="47.47495" lon="3.97318">
        <ele>308</ele>
        <time>2018-06-25T09:06:06.209Z</time>
      </trkpt>
      <trkpt lat="47.47359" lon="3.9714">
        <ele>313</ele>
        <time>2018-06-25T09:06:07.209Z</time>
      </trkpt>
      <trkpt lat="47.47322" lon="3.97099">
        <ele>314</ele>
        <time>2018-06-25T09:06:08.209Z</time>
      </trkpt>
      <trkpt lat="47.47124" lon="3.96932">
        <ele>314</ele>
        <time>2018-06-25T09:06:09.209Z</time>
      </trkpt>
      <trkpt lat="47.46981" lon="3.9679">
        <ele>304</ele>
        <time>2018-06-25T09:06:10.209Z</time>
      </trkpt>
      <trkpt lat="47.46925" lon="3.96771">
        <ele>302</ele>
        <time>2018-06-25T09:06:11.209Z</time>
      </trkpt>
      <trkpt lat="47.46892" lon="3.96777">
        <ele>300</ele>
        <time>2018-06-25T09:06:12.209Z</time>
      </trkpt>
      <trkpt lat="47.46707" lon="3.96908">
        <ele>288</ele>
        <time>2018-06-25T09:06:13.209Z</time>
      </trkpt>
      <trkpt lat="47.46681" lon="3.96938">
        <ele>285</ele>
        <time>2018-06-25T09:06:14.209Z</time>
      </trkpt>
      <trkpt lat="47.46655" lon="3.97009">
        <ele>284</ele>
        <time>2018-06-25T09:06:15.209Z</time>
      </trkpt>
      <trkpt lat="47.46639" lon="3.97076">
        <ele>281</ele>
        <time>2018-06-25T09:06:16.209Z</time>
      </trkpt>
      <trkpt lat="47.46641" lon="3.97099">
        <ele>282</ele>
        <time>2018-06-25T09:06:17.209Z</time>
      </trkpt>
      <trkpt lat="47.46667" lon="3.9716">
        <ele>288</ele>
        <time>2018-06-25T09:06:18.209Z</time>
      </trkpt>
      <trkpt lat="47.46661" lon="3.97183">
        <ele>288</ele>
        <time>2018-06-25T09:06:19.209Z</time>
      </trkpt>
      <trkpt lat="47.46622" lon="3.97213">
        <ele>282</ele>
        <time>2018-06-25T09:06:20.209Z</time>
      </trkpt>
      <trkpt lat="47.46614" lon="3.97203">
        <ele>279</ele>
        <time>2018-06-25T09:06:21.209Z</time>
      </trkpt>
      <trkpt lat="47.46614" lon="3.97196">
        <ele>278</ele>
        <time>2018-06-25T09:06:22.209Z</time>
      </trkpt>
      <trkpt lat="47.46641" lon="3.9717">
        <ele>282</ele>
        <time>2018-06-25T09:06:23.209Z</time>
      </trkpt>
      <trkpt lat="47.46643" lon="3.97159">
        <ele>282</ele>
        <time>2018-06-25T09:06:24.209Z</time>
      </trkpt>
      <trkpt lat="47.46616" lon="3.97129">
        <ele>275</ele>
        <time>2018-06-25T09:06:25.209Z</time>
      </trkpt>
      <trkpt lat="47.4661" lon="3.97108">
        <ele>273</ele>
        <time>2018-06-25T09:06:26.209Z</time>
      </trkpt>
      <trkpt lat="47.4663" lon="3.96898">
        <ele>268</ele>
        <time>2018-06-25T09:06:27.209Z</time>
      </trkpt>
      <trkpt lat="47.46668" lon="3.96747">
        <ele>259</ele>
        <time>2018-06-25T09:06:28.209Z</time>
      </trkpt>
      <trkpt lat="47.4667" lon="3.96727">
        <ele>258</ele>
        <time>2018-06-25T09:06:29.209Z</time>
      </trkpt>
      <trkpt lat="47.46667" lon="3.9672">
        <ele>258</ele>
        <time>2018-06-25T09:06:30.209Z</time>
      </trkpt>
      <trkpt lat="47.46625" lon="3.9669">
        <ele>269</ele>
        <time>2018-06-25T09:06:31.209Z</time>
      </trkpt>
      <trkpt lat="47.46627" lon="3.96678">
        <ele>268</ele>
        <time>2018-06-25T09:06:32.209Z</time>
      </trkpt>
      <trkpt lat="47.46576" lon="3.96831">
        <ele>265</ele>
        <time>2018-06-25T09:06:33.209Z</time>
      </trkpt>
      <trkpt lat="47.46569" lon="3.96875">
        <ele>264</ele>
        <time>2018-06-25T09:06:34.209Z</time>
      </trkpt>
      <trkpt lat="47.46542" lon="3.96938">
        <ele>266</ele>
        <time>2018-06-25T09:06:35.209Z</time>
      </trkpt>
      <trkpt lat="47.46502" lon="3.97059">
        <ele>265</ele>
        <time>2018-06-25T09:06:36.209Z</time>
      </trkpt>
      <trkpt lat="47.46489" lon="3.97196">
        <ele>263</ele>
        <time>2018-06-25T09:06:37.209Z</time>
      </trkpt>
      <trkpt lat="47.46441" lon="3.97374">
        <ele>262</ele>
        <time>2018-06-25T09:06:38.209Z</time>
      </trkpt>
      <trkpt lat="47.46419" lon="3.97404">
        <ele>260</ele>
        <time>2018-06-25T09:06:39.209Z</time>
      </trkpt>
      <trkpt lat="47.46396" lon="3.97471">
        <ele>261</ele>
        <time>2018-06-25T09:06:40.209Z</time>
      </trkpt>
      <trkpt lat="47.46313" lon="3.97622">
        <ele>263</ele>
        <time>2018-06-25T09:06:41.209Z</time>
      </trkpt>
      <trkpt lat="47.46286" lon="3.97759">
        <ele>264</ele>
        <time>2018-06-25T09:06:42.209Z</time>
      </trkpt>
      <trkpt lat="47.46224" lon="3.97867">
        <ele>269</ele>
        <time>2018-06-25T09:06:43.209Z</time>
      </trkpt>
      <trkpt lat="47.462" lon="3.97944">
        <ele>268</ele>
        <time>2018-06-25T09:06:44.209Z</time>
      </trkpt>
      <trkpt lat="47.46154" lon="3.9803">
        <ele>266</ele>
        <time>2018-06-25T09:06:45.209Z</time>
      </trkpt>
      <trkpt lat="47.46112" lon="3.98142">
        <ele>270</ele>
        <time>2018-06-25T09:06:46.209Z</time>
      </trkpt>
      <trkpt lat="47.4608" lon="3.98208">
        <ele>268</ele>
        <time>2018-06-25T09:06:47.209Z</time>
      </trkpt>
      <trkpt lat="47.46042" lon="3.98242">
        <ele>271</ele>
        <time>2018-06-25T09:06:48.209Z</time>
      </trkpt>
      <trkpt lat="47.45995" lon="3.98262">
        <ele>278</ele>
        <time>2018-06-25T09:06:49.209Z</time>
      </trkpt>
      <trkpt lat="47.4593" lon="3.98276">
        <ele>285</ele>
        <time>2018-06-25T09:06:50.209Z</time>
      </trkpt>
      <trkpt lat="47.45888" lon="3.98309">
        <ele>286</ele>
        <time>2018-06-25T09:06:51.209Z</time>
      </trkpt>
      <trkpt lat="47.45843" lon="3.98375">
        <ele>287</ele>
        <time>2018-06-25T09:06:52.209Z</time>
      </trkpt>
      <trkpt lat="47.45759" lon="3.98457">
        <ele>293</ele>
        <time>2018-06-25T09:06:53.209Z</time>
      </trkpt>
      <trkpt lat="47.45652" lon="3.98479">
        <ele>298</ele>
        <time>2018-06-25T09:06:54.209Z</time>
      </trkpt>
      <trkpt lat="47.45601" lon="3.98433">
        <ele>302</ele>
        <time>2018-06-25T09:06:55.209Z</time>
      </trkpt>
      <trkpt lat="47.45545" lon="3.98432">
        <ele>307</ele>
        <time>2018-06-25T09:06:56.209Z</time>
      </trkpt>
      <trkpt lat="47.45493" lon="3.98477">
        <ele>313</ele>
        <time>2018-06-25T09:06:57.209Z</time>
      </trkpt>
      <trkpt lat="47.45415" lon="3.98527">
        <ele>317</ele>
        <time>2018-06-25T09:06:58.209Z</time>
      </trkpt>
      <trkpt lat="47.45385" lon="3.98597">
        <ele>315</ele>
        <time>2018-06-25T09:06:59.209Z</time>
      </trkpt>
      <trkpt lat="47.45362" lon="3.98614">
        <ele>315</ele>
        <time>2018-06-25T09:07:00.209Z</time>
      </trkpt>
      <trkpt lat="47.45129" lon="3.98684">
        <ele>319</ele>
        <time>2018-06-25T09:07:01.209Z</time>
      </trkpt>
      <trkpt lat="47.45052" lon="3.98691">
        <ele>321</ele>
        <time>2018-06-25T09:07:02.209Z</time>
      </trkpt>
      <trkpt lat="47.44996" lon="3.98721">
        <ele>324</ele>
        <time>2018-06-25T09:07:03.209Z</time>
      </trkpt>
      <trkpt lat="47.44825" lon="3.98784">
        <ele>333</ele>
        <time>2018-06-25T09:07:04.209Z</time>
      </trkpt>
      <trkpt lat="47.44801" lon="3.98798">
        <ele>334</ele>
        <time>2018-06-25T09:07:05.209Z</time>
      </trkpt>
      <trkpt lat="47.44663" lon="3.98956">
        <ele>343</ele>
        <time>2018-06-25T09:07:06.209Z</time>
      </trkpt>
      <trkpt lat="47.44569" lon="3.98849">
        <ele>344</ele>
        <time>2018-06-25T09:07:07.209Z</time>
      </trkpt>
      <trkpt lat="47.44529" lon="3.98761">
        <ele>346</ele>
        <time>2018-06-25T09:07:08.209Z</time>
      </trkpt>
      <trkpt lat="47.4448" lon="3.98694">
        <ele>347</ele>
        <time>2018-06-25T09:07:09.209Z</time>
      </trkpt>
      <trkpt lat="47.44479" lon="3.98681">
        <ele>347</ele>
        <time>2018-06-25T09:07:10.209Z</time>
      </trkpt>
      <trkpt lat="47.44457" lon="3.9865">
        <ele>348</ele>
        <time>2018-06-25T09:07:11.209Z</time>
      </trkpt>
      <trkpt lat="47.44442" lon="3.98644">
        <ele>348</ele>
        <time>2018-06-25T09:07:12.209Z</time>
      </trkpt>
      <trkpt lat="47.44417" lon="3.98647">
        <ele>348</ele>
        <time>2018-06-25T09:07:13.209Z</time>
      </trkpt>
      <trkpt lat="47.4431" lon="3.98623">
        <ele>351</ele>
        <time>2018-06-25T09:07:14.209Z</time>
      </trkpt>
      <trkpt lat="47.4422" lon="3.98567">
        <ele>353</ele>
        <time>2018-06-25T09:07:15.209Z</time>
      </trkpt>
      <trkpt lat="47.44203" lon="3.9852">
        <ele>353</ele>
        <time>2018-06-25T09:07:16.209Z</time>
      </trkpt>
      <trkpt lat="47.44232" lon="3.98403">
        <ele>350</ele>
        <time>2018-06-25T09:07:17.209Z</time>
      </trkpt>
      <trkpt lat="47.44287" lon="3.98306">
        <ele>344</ele>
        <time>2018-06-25T09:07:18.209Z</time>
      </trkpt>
      <trkpt lat="47.44329" lon="3.98111">
        <ele>333</ele>
        <time>2018-06-25T09:07:19.209Z</time>
      </trkpt>
      <trkpt lat="47.44335" lon="3.98058">
        <ele>332</ele>
        <time>2018-06-25T09:07:20.209Z</time>
      </trkpt>
      <trkpt lat="47.44327" lon="3.98003">
        <ele>333</ele>
        <time>2018-06-25T09:07:21.209Z</time>
      </trkpt>
      <trkpt lat="47.44248" lon="3.97793">
        <ele>341</ele>
        <time>2018-06-25T09:07:22.209Z</time>
      </trkpt>
      <trkpt lat="47.44235" lon="3.97621">
        <ele>343</ele>
        <time>2018-06-25T09:07:23.209Z</time>
      </trkpt>
      <trkpt lat="47.44244" lon="3.97507">
        <ele>336</ele>
        <time>2018-06-25T09:07:24.209Z</time>
      </trkpt>
      <trkpt lat="47.44231" lon="3.97504">
        <ele>336</ele>
        <time>2018-06-25T09:07:25.209Z</time>
      </trkpt>
      <trkpt lat="47.44155" lon="3.97364">
        <ele>332</ele>
        <time>2018-06-25T09:07:26.209Z</time>
      </trkpt>
      <trkpt lat="47.44103" lon="3.9729">
        <ele>329</ele>
        <time>2018-06-25T09:07:27.209Z</time>
      </trkpt>
      <trkpt lat="47.44059" lon="3.97247">
        <ele>327</ele>
        <time>2018-06-25T09:07:28.209Z</time>
      </trkpt>
      <trkpt lat="47.44004" lon="3.97203">
        <ele>325</ele>
        <time>2018-06-25T09:07:29.209Z</time>
      </trkpt>
      <trkpt lat="47.43883" lon="3.97088">
        <ele>318</ele>
        <time>2018-06-25T09:07:30.209Z</time>
      </trkpt>
      <trkpt lat="47.43852" lon="3.97045">
        <ele>315</ele>
        <time>2018-06-25T09:07:31.209Z</time>
      </trkpt>
      <trkpt lat="47.438" lon="3.9685">
        <ele>310</ele>
        <time>2018-06-25T09:07:32.209Z</time>
      </trkpt>
      <trkpt lat="47.43775" lon="3.96793">
        <ele>312</ele>
        <time>2018-06-25T09:07:33.209Z</time>
      </trkpt>
      <trkpt lat="47.43703" lon="3.96697">
        <ele>316</ele>
        <time>2018-06-25T09:07:34.209Z</time>
      </trkpt>
      <trkpt lat="47.43637" lon="3.9664">
        <ele>320</ele>
        <time>2018-06-25T09:07:35.209Z</time>
      </trkpt>
      <trkpt lat="47.43626" lon="3.96616">
        <ele>321</ele>
        <time>2018-06-25T09:07:36.209Z</time>
      </trkpt>
      <trkpt lat="47.43616" lon="3.96563">
        <ele>324</ele>
        <time>2018-06-25T09:07:37.209Z</time>
      </trkpt>
      <trkpt lat="47.43583" lon="3.96466">
        <ele>330</ele>
        <time>2018-06-25T09:07:38.209Z</time>
      </trkpt>
      <trkpt lat="47.43552" lon="3.96345">
        <ele>333</ele>
        <time>2018-06-25T09:07:39.209Z</time>
      </trkpt>
      <trkpt lat="47.43515" lon="3.96295">
        <ele>334</ele>
        <time>2018-06-25T09:07:40.209Z</time>
      </trkpt>
      <trkpt lat="47.43495" lon="3.96174">
        <ele>336</ele>
        <time>2018-06-25T09:07:41.209Z</time>
      </trkpt>
      <trkpt lat="47.43392" lon="3.96163">
        <ele>339</ele>
        <time>2018-06-25T09:07:42.209Z</time>
      </trkpt>
      <trkpt lat="47.43356" lon="3.9607">
        <ele>337</ele>
        <time>2018-06-25T09:07:43.209Z</time>
      </trkpt>
      <trkpt lat="47.43242" lon="3.95865">
        <ele>334</ele>
        <time>2018-06-25T09:07:44.209Z</time>
      </trkpt>
      <trkpt lat="47.43291" lon="3.95865">
        <ele>331</ele>
        <time>2018-06-25T09:07:45.209Z</time>
      </trkpt>
      <trkpt lat="47.43354" lon="3.95879">
        <ele>328</ele>
        <time>2018-06-25T09:07:46.209Z</time>
      </trkpt>
      <trkpt lat="47.43426" lon="3.95855">
        <ele>325</ele>
        <time>2018-06-25T09:07:47.209Z</time>
      </trkpt>
      <trkpt lat="47.43695" lon="3.95838">
        <ele>331</ele>
        <time>2018-06-25T09:07:48.209Z</time>
      </trkpt>
      <trkpt lat="47.43839" lon="3.95865">
        <ele>335</ele>
        <time>2018-06-25T09:07:49.209Z</time>
      </trkpt>
      <trkpt lat="47.43901" lon="3.95909">
        <ele>334</ele>
        <time>2018-06-25T09:07:50.209Z</time>
      </trkpt>
      <trkpt lat="47.43957" lon="3.95913">
        <ele>334</ele>
        <time>2018-06-25T09:07:51.209Z</time>
      </trkpt>
      <trkpt lat="47.44004" lon="3.95885">
        <ele>333</ele>
        <time>2018-06-25T09:07:52.209Z</time>
      </trkpt>
      <trkpt lat="47.44085" lon="3.95772">
        <ele>337</ele>
        <time>2018-06-25T09:07:53.209Z</time>
      </trkpt>
      <trkpt lat="47.4411" lon="3.95694">
        <ele>336</ele>
        <time>2018-06-25T09:07:54.209Z</time>
      </trkpt>
      <trkpt lat="47.44145" lon="3.95641">
        <ele>339</ele>
        <time>2018-06-25T09:07:55.209Z</time>
      </trkpt>
      <trkpt lat="47.44121" lon="3.95621">
        <ele>336</ele>
        <time>2018-06-25T09:07:56.209Z</time>
      </trkpt>
      <trkpt lat="47.43995" lon="3.95443">
        <ele>323</ele>
        <time>2018-06-25T09:07:57.209Z</time>
      </trkpt>
      <trkpt lat="47.43954" lon="3.95393">
        <ele>320</ele>
        <time>2018-06-25T09:07:58.209Z</time>
      </trkpt>
      <trkpt lat="47.43878" lon="3.95329">
        <ele>313</ele>
        <time>2018-06-25T09:07:59.209Z</time>
      </trkpt>
      <trkpt lat="47.43842" lon="3.95272">
        <ele>312</ele>
        <time>2018-06-25T09:08:00.209Z</time>
      </trkpt>
      <trkpt lat="47.43807" lon="3.95169">
        <ele>309</ele>
        <time>2018-06-25T09:08:01.209Z</time>
      </trkpt>
      <trkpt lat="47.43727" lon="3.9502">
        <ele>309</ele>
        <time>2018-06-25T09:08:02.209Z</time>
      </trkpt>
      <trkpt lat="47.43643" lon="3.94968">
        <ele>311</ele>
        <time>2018-06-25T09:08:03.209Z</time>
      </trkpt>
      <trkpt lat="47.43655" lon="3.94886">
        <ele>314</ele>
        <time>2018-06-25T09:08:04.209Z</time>
      </trkpt>
      <trkpt lat="47.43655" lon="3.94857">
        <ele>314</ele>
        <time>2018-06-25T09:08:05.209Z</time>
      </trkpt>
      <trkpt lat="47.43636" lon="3.9481">
        <ele>315</ele>
        <time>2018-06-25T09:08:06.209Z</time>
      </trkpt>
      <trkpt lat="47.43614" lon="3.94736">
        <ele>317</ele>
        <time>2018-06-25T09:08:07.209Z</time>
      </trkpt>
      <trkpt lat="47.43607" lon="3.94652">
        <ele>323</ele>
        <time>2018-06-25T09:08:08.209Z</time>
      </trkpt>
      <trkpt lat="47.43609" lon="3.94482">
        <ele>329</ele>
        <time>2018-06-25T09:08:09.209Z</time>
      </trkpt>
      <trkpt lat="47.43594" lon="3.94307">
        <ele>339</ele>
        <time>2018-06-25T09:08:10.209Z</time>
      </trkpt>
      <trkpt lat="47.43601" lon="3.9426">
        <ele>341</ele>
        <time>2018-06-25T09:08:11.209Z</time>
      </trkpt>
      <trkpt lat="47.43601" lon="3.9415">
        <ele>346</ele>
        <time>2018-06-25T09:08:12.209Z</time>
      </trkpt>
      <trkpt lat="47.43594" lon="3.94073">
        <ele>348</ele>
        <time>2018-06-25T09:08:13.209Z</time>
      </trkpt>
      <trkpt lat="47.43594" lon="3.94005">
        <ele>349</ele>
        <time>2018-06-25T09:08:14.209Z</time>
      </trkpt>
      <trkpt lat="47.43587" lon="3.93928">
        <ele>351</ele>
        <time>2018-06-25T09:08:15.209Z</time>
      </trkpt>
      <trkpt lat="47.43564" lon="3.93838">
        <ele>353</ele>
        <time>2018-06-25T09:08:16.209Z</time>
      </trkpt>
      <trkpt lat="47.43529" lon="3.93743">
        <ele>356</ele>
        <time>2018-06-25T09:08:17.209Z</time>
      </trkpt>
      <trkpt lat="47.43486" lon="3.9366">
        <ele>358</ele>
        <time>2018-06-25T09:08:18.209Z</time>
      </trkpt>
      <trkpt lat="47.43403" lon="3.93543">
        <ele>365</ele>
        <time>2018-06-25T09:08:19.209Z</time>
      </trkpt>
      <trkpt lat="47.43347" lon="3.93486">
        <ele>369</ele>
        <time>2018-06-25T09:08:20.209Z</time>
      </trkpt>
      <trkpt lat="47.43295" lon="3.93402">
        <ele>371</ele>
        <time>2018-06-25T09:08:21.209Z</time>
      </trkpt>
      <trkpt lat="47.43213" lon="3.93294">
        <ele>373</ele>
        <time>2018-06-25T09:08:22.209Z</time>
      </trkpt>
      <trkpt lat="47.43092" lon="3.93161">
        <ele>372</ele>
        <time>2018-06-25T09:08:23.209Z</time>
      </trkpt>
      <trkpt lat="47.43021" lon="3.93157">
        <ele>372</ele>
        <time>2018-06-25T09:08:24.209Z</time>
      </trkpt>
      <trkpt lat="47.42964" lon="3.93141">
        <ele>372</ele>
        <time>2018-06-25T09:08:25.209Z</time>
      </trkpt>
      <trkpt lat="47.4285" lon="3.93073">
        <ele>373</ele>
        <time>2018-06-25T09:08:26.209Z</time>
      </trkpt>
      <trkpt lat="47.42815" lon="3.93066">
        <ele>375</ele>
        <time>2018-06-25T09:08:27.209Z</time>
      </trkpt>
      <trkpt lat="47.42712" lon="3.93084">
        <ele>382</ele>
        <time>2018-06-25T09:08:28.209Z</time>
      </trkpt>
      <trkpt lat="47.42661" lon="3.93033">
        <ele>381</ele>
        <time>2018-06-25T09:08:29.209Z</time>
      </trkpt>
      <trkpt lat="47.42632" lon="3.92993">
        <ele>379</ele>
        <time>2018-06-25T09:08:30.209Z</time>
      </trkpt>
      <trkpt lat="47.42614" lon="3.92943">
        <ele>378</ele>
        <time>2018-06-25T09:08:31.209Z</time>
      </trkpt>
      <trkpt lat="47.42605" lon="3.92886">
        <ele>378</ele>
        <time>2018-06-25T09:08:32.209Z</time>
      </trkpt>
      <trkpt lat="47.42605" lon="3.92829">
        <ele>378</ele>
        <time>2018-06-25T09:08:33.209Z</time>
      </trkpt>
      <trkpt lat="47.42598" lon="3.92765">
        <ele>378</ele>
        <time>2018-06-25T09:08:34.209Z</time>
      </trkpt>
      <trkpt lat="47.42585" lon="3.92725">
        <ele>377</ele>
        <time>2018-06-25T09:08:35.209Z</time>
      </trkpt>
      <trkpt lat="47.42529" lon="3.92685">
        <ele>376</ele>
        <time>2018-06-25T09:08:36.209Z</time>
      </trkpt>
      <trkpt lat="47.42457" lon="3.92645">
        <ele>374</ele>
        <time>2018-06-25T09:08:37.209Z</time>
      </trkpt>
      <trkpt lat="47.42419" lon="3.92631">
        <ele>374</ele>
        <time>2018-06-25T09:08:38.209Z</time>
      </trkpt>
      <trkpt lat="47.42339" lon="3.92635">
        <ele>380</ele>
        <time>2018-06-25T09:08:39.209Z</time>
      </trkpt>
      <trkpt lat="47.42267" lon="3.92655">
        <ele>386</ele>
        <time>2018-06-25T09:08:40.209Z</time>
      </trkpt>
      <trkpt lat="47.4226" lon="3.92678">
        <ele>387</ele>
        <time>2018-06-25T09:08:41.209Z</time>
      </trkpt>
      <trkpt lat="47.4199" lon="3.92879">
        <ele>402</ele>
        <time>2018-06-25T09:08:42.209Z</time>
      </trkpt>
      <trkpt lat="47.41935" lon="3.92957">
        <ele>401</ele>
        <time>2018-06-25T09:08:43.209Z</time>
      </trkpt>
      <trkpt lat="47.41842" lon="3.93117">
        <ele>397</ele>
        <time>2018-06-25T09:08:44.209Z</time>
      </trkpt>
      <trkpt lat="47.41749" lon="3.93205">
        <ele>385</ele>
        <time>2018-06-25T09:08:45.209Z</time>
      </trkpt>
      <trkpt lat="47.41717" lon="3.93218">
        <ele>384</ele>
        <time>2018-06-25T09:08:46.209Z</time>
      </trkpt>
      <trkpt lat="47.41699" lon="3.93221">
        <ele>383</ele>
        <time>2018-06-25T09:08:47.209Z</time>
      </trkpt>
      <trkpt lat="47.41686" lon="3.93027">
        <ele>384</ele>
        <time>2018-06-25T09:08:48.209Z</time>
      </trkpt>
      <trkpt lat="47.4167" lon="3.9296">
        <ele>386</ele>
        <time>2018-06-25T09:08:49.209Z</time>
      </trkpt>
      <trkpt lat="47.41655" lon="3.92946">
        <ele>386</ele>
        <time>2018-06-25T09:08:50.209Z</time>
      </trkpt>
      <trkpt lat="47.41572" lon="3.92913">
        <ele>384</ele>
        <time>2018-06-25T09:08:51.209Z</time>
      </trkpt>
      <trkpt lat="47.41534" lon="3.92889">
        <ele>382</ele>
        <time>2018-06-25T09:08:52.209Z</time>
      </trkpt>
      <trkpt lat="47.41506" lon="3.92846">
        <ele>383</ele>
        <time>2018-06-25T09:08:53.209Z</time>
      </trkpt>
      <trkpt lat="47.41462" lon="3.92755">
        <ele>387</ele>
        <time>2018-06-25T09:08:54.209Z</time>
      </trkpt>
      <trkpt lat="47.41452" lon="3.92752">
        <ele>387</ele>
        <time>2018-06-25T09:08:55.209Z</time>
      </trkpt>
      <trkpt lat="47.41405" lon="3.92621">
        <ele>381</ele>
        <time>2018-06-25T09:08:56.209Z</time>
      </trkpt>
      <trkpt lat="47.41383" lon="3.92497">
        <ele>377</ele>
        <time>2018-06-25T09:08:57.209Z</time>
      </trkpt>
      <trkpt lat="47.41323" lon="3.92306">
        <ele>372</ele>
        <time>2018-06-25T09:08:58.209Z</time>
      </trkpt>
      <trkpt lat="47.41311" lon="3.92255">
        <ele>372</ele>
        <time>2018-06-25T09:08:59.209Z</time>
      </trkpt>
      <trkpt lat="47.41269" lon="3.92283">
        <ele>369</ele>
        <time>2018-06-25T09:09:00.209Z</time>
      </trkpt>
      <trkpt lat="47.41105" lon="3.92226">
        <ele>361</ele>
        <time>2018-06-25T09:09:01.209Z</time>
      </trkpt>
      <trkpt lat="47.41075" lon="3.92199">
        <ele>359</ele>
        <time>2018-06-25T09:09:02.209Z</time>
      </trkpt>
      <trkpt lat="47.41058" lon="3.92155">
        <ele>359</ele>
        <time>2018-06-25T09:09:03.209Z</time>
      </trkpt>
      <trkpt lat="47.41038" lon="3.92152">
        <ele>357</ele>
        <time>2018-06-25T09:09:04.209Z</time>
      </trkpt>
      <trkpt lat="47.41039" lon="3.92152">
        <ele>357</ele>
        <time>2018-06-25T09:09:05.209Z</time>
      </trkpt>
      <trkpt lat="47.41032" lon="3.92173">
        <ele>356</ele>
        <time>2018-06-25T09:09:06.209Z</time>
      </trkpt>
      <trkpt lat="47.40994" lon="3.92173">
        <ele>353</ele>
        <time>2018-06-25T09:09:07.209Z</time>
      </trkpt>
      <trkpt lat="47.40914" lon="3.92164">
        <ele>345</ele>
        <time>2018-06-25T09:09:08.209Z</time>
      </trkpt>
      <trkpt lat="47.40862" lon="3.92168">
        <ele>340</ele>
        <time>2018-06-25T09:09:09.209Z</time>
      </trkpt>
      <trkpt lat="47.40787" lon="3.92181">
        <ele>336</ele>
        <time>2018-06-25T09:09:10.209Z</time>
      </trkpt>
      <trkpt lat="47.40681" lon="3.9219">
        <ele>329</ele>
        <time>2018-06-25T09:09:11.209Z</time>
      </trkpt>
      <trkpt lat="47.40659" lon="3.9219">
        <ele>328</ele>
        <time>2018-06-25T09:09:12.209Z</time>
      </trkpt>
      <trkpt lat="47.40482" lon="3.92164">
        <ele>317</ele>
        <time>2018-06-25T09:09:13.209Z</time>
      </trkpt>
      <trkpt lat="47.40463" lon="3.92163">
        <ele>316</ele>
        <time>2018-06-25T09:09:14.209Z</time>
      </trkpt>
      <trkpt lat="47.40443" lon="3.92166">
        <ele>315</ele>
        <time>2018-06-25T09:09:15.209Z</time>
      </trkpt>
      <trkpt lat="47.40434" lon="3.92166">
        <ele>315</ele>
        <time>2018-06-25T09:09:16.209Z</time>
      </trkpt>
      <trkpt lat="47.40385" lon="3.9212">
        <ele>313</ele>
        <time>2018-06-25T09:09:17.209Z</time>
      </trkpt>
      <trkpt lat="47.40385" lon="3.92119">
        <ele>313</ele>
        <time>2018-06-25T09:09:18.209Z</time>
      </trkpt>
      <trkpt lat="47.40357" lon="3.92092">
        <ele>313</ele>
        <time>2018-06-25T09:09:19.209Z</time>
      </trkpt>
      <trkpt lat="47.40344" lon="3.92071">
        <ele>313</ele>
        <time>2018-06-25T09:09:20.209Z</time>
      </trkpt>
      <trkpt lat="47.40334" lon="3.92075">
        <ele>313</ele>
        <time>2018-06-25T09:09:21.209Z</time>
      </trkpt>
      <trkpt lat="47.40315" lon="3.92093">
        <ele>315</ele>
        <time>2018-06-25T09:09:22.209Z</time>
      </trkpt>
      <trkpt lat="47.40291" lon="3.92105">
        <ele>318</ele>
        <time>2018-06-25T09:09:23.209Z</time>
      </trkpt>
      <trkpt lat="47.40275" lon="3.92109">
        <ele>320</ele>
        <time>2018-06-25T09:09:24.209Z</time>
      </trkpt>
      <trkpt lat="47.40257" lon="3.92111">
        <ele>322</ele>
        <time>2018-06-25T09:09:25.209Z</time>
      </trkpt>
      <trkpt lat="47.40219" lon="3.92125">
        <ele>328</ele>
        <time>2018-06-25T09:09:26.209Z</time>
      </trkpt>
      <trkpt lat="47.40195" lon="3.9213">
        <ele>333</ele>
        <time>2018-06-25T09:09:27.209Z</time>
      </trkpt>
      <trkpt lat="47.40123" lon="3.92168">
        <ele>347</ele>
        <time>2018-06-25T09:09:28.209Z</time>
      </trkpt>
      <trkpt lat="47.40139" lon="3.92223">
        <ele>347</ele>
        <time>2018-06-25T09:09:29.209Z</time>
      </trkpt>
      <trkpt lat="47.40146" lon="3.92265">
        <ele>348</ele>
        <time>2018-06-25T09:09:30.209Z</time>
      </trkpt>
      <trkpt lat="47.40145" lon="3.92344">
        <ele>355</ele>
        <time>2018-06-25T09:09:31.209Z</time>
      </trkpt>
      <trkpt lat="47.40135" lon="3.92379">
        <ele>358</ele>
        <time>2018-06-25T09:09:32.209Z</time>
      </trkpt>
      <trkpt lat="47.40118" lon="3.92413">
        <ele>361</ele>
        <time>2018-06-25T09:09:33.209Z</time>
      </trkpt>
      <trkpt lat="47.40059" lon="3.9249">
        <ele>364</ele>
        <time>2018-06-25T09:09:34.209Z</time>
      </trkpt>
      <trkpt lat="47.40021" lon="3.92529">
        <ele>366</ele>
        <time>2018-06-25T09:09:35.209Z</time>
      </trkpt>
      <trkpt lat="47.39956" lon="3.92605">
        <ele>370</ele>
        <time>2018-06-25T09:09:36.209Z</time>
      </trkpt>
      <trkpt lat="47.39929" lon="3.92627">
        <ele>372</ele>
        <time>2018-06-25T09:09:37.209Z</time>
      </trkpt>
      <trkpt lat="47.39886" lon="3.92637">
        <ele>374</ele>
        <time>2018-06-25T09:09:38.209Z</time>
      </trkpt>
      <trkpt lat="47.39863" lon="3.9265">
        <ele>375</ele>
        <time>2018-06-25T09:09:39.209Z</time>
      </trkpt>
      <trkpt lat="47.39798" lon="3.92675">
        <ele>380</ele>
        <time>2018-06-25T09:09:40.209Z</time>
      </trkpt>
      <trkpt lat="47.39779" lon="3.92693">
        <ele>381</ele>
        <time>2018-06-25T09:09:41.209Z</time>
      </trkpt>
      <trkpt lat="47.3975" lon="3.9273">
        <ele>384</ele>
        <time>2018-06-25T09:09:42.209Z</time>
      </trkpt>
      <trkpt lat="47.39734" lon="3.92759">
        <ele>384</ele>
        <time>2018-06-25T09:09:43.209Z</time>
      </trkpt>
      <trkpt lat="47.39707" lon="3.92799">
        <ele>385</ele>
        <time>2018-06-25T09:09:44.209Z</time>
      </trkpt>
      <trkpt lat="47.39662" lon="3.92841">
        <ele>385</ele>
        <time>2018-06-25T09:09:45.209Z</time>
      </trkpt>
      <trkpt lat="47.3963" lon="3.92865">
        <ele>384</ele>
        <time>2018-06-25T09:09:46.209Z</time>
      </trkpt>
      <trkpt lat="47.39592" lon="3.92876">
        <ele>384</ele>
        <time>2018-06-25T09:09:47.209Z</time>
      </trkpt>
      <trkpt lat="47.39539" lon="3.92873">
        <ele>384</ele>
        <time>2018-06-25T09:09:48.209Z</time>
      </trkpt>
      <trkpt lat="47.39512" lon="3.92879">
        <ele>384</ele>
        <time>2018-06-25T09:09:49.209Z</time>
      </trkpt>
      <trkpt lat="47.39494" lon="3.92887">
        <ele>385</ele>
        <time>2018-06-25T09:09:50.209Z</time>
      </trkpt>
      <trkpt lat="47.39486" lon="3.92894">
        <ele>385</ele>
        <time>2018-06-25T09:09:51.209Z</time>
      </trkpt>
      <trkpt lat="47.39479" lon="3.92904">
        <ele>386</ele>
        <time>2018-06-25T09:09:52.209Z</time>
      </trkpt>
      <trkpt lat="47.39466" lon="3.92932">
        <ele>387</ele>
        <time>2018-06-25T09:09:53.209Z</time>
      </trkpt>
      <trkpt lat="47.39459" lon="3.92943">
        <ele>388</ele>
        <time>2018-06-25T09:09:54.209Z</time>
      </trkpt>
      <trkpt lat="47.3942" lon="3.9299">
        <ele>392</ele>
        <time>2018-06-25T09:09:55.209Z</time>
      </trkpt>
      <trkpt lat="47.39399" lon="3.93011">
        <ele>394</ele>
        <time>2018-06-25T09:09:56.209Z</time>
      </trkpt>
      <trkpt lat="47.39367" lon="3.93052">
        <ele>397</ele>
        <time>2018-06-25T09:09:57.209Z</time>
      </trkpt>
      <trkpt lat="47.39348" lon="3.93069">
        <ele>398</ele>
        <time>2018-06-25T09:09:58.209Z</time>
      </trkpt>
      <trkpt lat="47.39338" lon="3.93074">
        <ele>399</ele>
        <time>2018-06-25T09:09:59.209Z</time>
      </trkpt>
      <trkpt lat="47.39333" lon="3.93069">
        <ele>399</ele>
        <time>2018-06-25T09:10:00.209Z</time>
      </trkpt>
      <trkpt lat="47.39198" lon="3.9305">
        <ele>396</ele>
        <time>2018-06-25T09:10:01.209Z</time>
      </trkpt>
      <trkpt lat="47.39171" lon="3.93037">
        <ele>395</ele>
        <time>2018-06-25T09:10:02.209Z</time>
      </trkpt>
      <trkpt lat="47.3915" lon="3.93069">
        <ele>396</ele>
        <time>2018-06-25T09:10:03.209Z</time>
      </trkpt>
      <trkpt lat="47.39127" lon="3.93092">
        <ele>395</ele>
        <time>2018-06-25T09:10:04.209Z</time>
      </trkpt>
      <trkpt lat="47.39095" lon="3.93106">
        <ele>394</ele>
        <time>2018-06-25T09:10:05.209Z</time>
      </trkpt>
      <trkpt lat="47.39069" lon="3.93112">
        <ele>392</ele>
        <time>2018-06-25T09:10:06.209Z</time>
      </trkpt>
      <trkpt lat="47.39048" lon="3.93127">
        <ele>389</ele>
        <time>2018-06-25T09:10:07.209Z</time>
      </trkpt>
      <trkpt lat="47.39036" lon="3.93151">
        <ele>388</ele>
        <time>2018-06-25T09:10:08.209Z</time>
      </trkpt>
      <trkpt lat="47.39024" lon="3.93186">
        <ele>388</ele>
        <time>2018-06-25T09:10:09.209Z</time>
      </trkpt>
      <trkpt lat="47.39002" lon="3.93222">
        <ele>385</ele>
        <time>2018-06-25T09:10:10.209Z</time>
      </trkpt>
      <trkpt lat="47.38974" lon="3.9326">
        <ele>384</ele>
        <time>2018-06-25T09:10:11.209Z</time>
      </trkpt>
      <trkpt lat="47.38941" lon="3.9329">
        <ele>383</ele>
        <time>2018-06-25T09:10:12.209Z</time>
      </trkpt>
      <trkpt lat="47.38908" lon="3.93305">
        <ele>382</ele>
        <time>2018-06-25T09:10:13.209Z</time>
      </trkpt>
      <trkpt lat="47.38759" lon="3.93324">
        <ele>376</ele>
        <time>2018-06-25T09:10:14.209Z</time>
      </trkpt>
      <trkpt lat="47.38706" lon="3.93325">
        <ele>373</ele>
        <time>2018-06-25T09:10:15.209Z</time>
      </trkpt>
      <trkpt lat="47.3861" lon="3.9334">
        <ele>369</ele>
        <time>2018-06-25T09:10:16.209Z</time>
      </trkpt>
      <trkpt lat="47.38506" lon="3.93335">
        <ele>362</ele>
        <time>2018-06-25T09:10:17.209Z</time>
      </trkpt>
      <trkpt lat="47.3849" lon="3.93338">
        <ele>360</ele>
        <time>2018-06-25T09:10:18.209Z</time>
      </trkpt>
      <trkpt lat="47.38416" lon="3.93441">
        <ele>352</ele>
        <time>2018-06-25T09:10:19.209Z</time>
      </trkpt>
      <trkpt lat="47.38408" lon="3.93469">
        <ele>350</ele>
        <time>2018-06-25T09:10:20.209Z</time>
      </trkpt>
      <trkpt lat="47.38424" lon="3.93501">
        <ele>351</ele>
        <time>2018-06-25T09:10:21.209Z</time>
      </trkpt>
      <trkpt lat="47.38465" lon="3.93561">
        <ele>348</ele>
        <time>2018-06-25T09:10:22.209Z</time>
      </trkpt>
      <trkpt lat="47.38465" lon="3.93582">
        <ele>347</ele>
        <time>2018-06-25T09:10:23.209Z</time>
      </trkpt>
      <trkpt lat="47.38447" lon="3.93594">
        <ele>343</ele>
        <time>2018-06-25T09:10:24.209Z</time>
      </trkpt>
      <trkpt lat="47.38428" lon="3.93593">
        <ele>342</ele>
        <time>2018-06-25T09:10:25.209Z</time>
      </trkpt>
      <trkpt lat="47.38347" lon="3.93534">
        <ele>336</ele>
        <time>2018-06-25T09:10:26.209Z</time>
      </trkpt>
      <trkpt lat="47.3828" lon="3.93448">
        <ele>329</ele>
        <time>2018-06-25T09:10:27.209Z</time>
      </trkpt>
      <trkpt lat="47.38262" lon="3.93411">
        <ele>327</ele>
        <time>2018-06-25T09:10:28.209Z</time>
      </trkpt>
      <trkpt lat="47.38246" lon="3.93424">
        <ele>324</ele>
        <time>2018-06-25T09:10:29.209Z</time>
      </trkpt>
      <trkpt lat="47.38241" lon="3.93467">
        <ele>321</ele>
        <time>2018-06-25T09:10:30.209Z</time>
      </trkpt>
      <trkpt lat="47.38253" lon="3.93527">
        <ele>320</ele>
        <time>2018-06-25T09:10:31.209Z</time>
      </trkpt>
      <trkpt lat="47.38273" lon="3.93593">
        <ele>317</ele>
        <time>2018-06-25T09:10:32.209Z</time>
      </trkpt>
      <trkpt lat="47.38341" lon="3.93728">
        <ele>306</ele>
        <time>2018-06-25T09:10:33.209Z</time>
      </trkpt>
      <trkpt lat="47.38376" lon="3.93793">
        <ele>302</ele>
        <time>2018-06-25T09:10:34.209Z</time>
      </trkpt>
      <trkpt lat="47.38404" lon="3.93836">
        <ele>300</ele>
        <time>2018-06-25T09:10:35.209Z</time>
      </trkpt>
      <trkpt lat="47.38405" lon="3.93859">
        <ele>302</ele>
        <time>2018-06-25T09:10:36.209Z</time>
      </trkpt>
      <trkpt lat="47.38394" lon="3.93879">
        <ele>304</ele>
        <time>2018-06-25T09:10:37.209Z</time>
      </trkpt>
      <trkpt lat="47.38372" lon="3.93885">
        <ele>304</ele>
        <time>2018-06-25T09:10:38.209Z</time>
      </trkpt>
      <trkpt lat="47.38337" lon="3.93883">
        <ele>304</ele>
        <time>2018-06-25T09:10:39.209Z</time>
      </trkpt>
      <trkpt lat="47.38083" lon="3.93812">
        <ele>285</ele>
        <time>2018-06-25T09:10:40.209Z</time>
      </trkpt>
      <trkpt lat="47.38049" lon="3.93814">
        <ele>283</ele>
        <time>2018-06-25T09:10:41.209Z</time>
      </trkpt>
      <trkpt lat="47.38034" lon="3.93858">
        <ele>284</ele>
        <time>2018-06-25T09:10:42.209Z</time>
      </trkpt>
      <trkpt lat="47.38015" lon="3.93882">
        <ele>282</ele>
        <time>2018-06-25T09:10:43.209Z</time>
      </trkpt>
      <trkpt lat="47.37989" lon="3.93867">
        <ele>281</ele>
        <time>2018-06-25T09:10:44.209Z</time>
      </trkpt>
      <trkpt lat="47.37946" lon="3.93824">
        <ele>283</ele>
        <time>2018-06-25T09:10:45.209Z</time>
      </trkpt>
      <trkpt lat="47.37891" lon="3.93737">
        <ele>286</ele>
        <time>2018-06-25T09:10:46.209Z</time>
      </trkpt>
      <trkpt lat="47.37848" lon="3.93695">
        <ele>288</ele>
        <time>2018-06-25T09:10:47.209Z</time>
      </trkpt>
      <trkpt lat="47.37768" lon="3.93636">
        <ele>290</ele>
        <time>2018-06-25T09:10:48.209Z</time>
      </trkpt>
      <trkpt lat="47.37697" lon="3.93592">
        <ele>297</ele>
        <time>2018-06-25T09:10:49.209Z</time>
      </trkpt>
      <trkpt lat="47.3765" lon="3.93585">
        <ele>303</ele>
        <time>2018-06-25T09:10:50.209Z</time>
      </trkpt>
      <trkpt lat="47.37526" lon="3.93587">
        <ele>313</ele>
        <time>2018-06-25T09:10:51.209Z</time>
      </trkpt>
      <trkpt lat="47.37482" lon="3.93593">
        <ele>317</ele>
        <time>2018-06-25T09:10:52.209Z</time>
      </trkpt>
      <trkpt lat="47.37412" lon="3.9363">
        <ele>325</ele>
        <time>2018-06-25T09:10:53.209Z</time>
      </trkpt>
      <trkpt lat="47.37404" lon="3.93642">
        <ele>327</ele>
        <time>2018-06-25T09:10:54.209Z</time>
      </trkpt>
      <trkpt lat="47.37403" lon="3.93653">
        <ele>328</ele>
        <time>2018-06-25T09:10:55.209Z</time>
      </trkpt>
      <trkpt lat="47.37408" lon="3.93663">
        <ele>328</ele>
        <time>2018-06-25T09:10:56.209Z</time>
      </trkpt>
      <trkpt lat="47.37422" lon="3.93661">
        <ele>327</ele>
        <time>2018-06-25T09:10:57.209Z</time>
      </trkpt>
      <trkpt lat="47.37435" lon="3.9365">
        <ele>326</ele>
        <time>2018-06-25T09:10:58.209Z</time>
      </trkpt>
      <trkpt lat="47.37451" lon="3.93642">
        <ele>325</ele>
        <time>2018-06-25T09:10:59.209Z</time>
      </trkpt>
      <trkpt lat="47.37467" lon="3.93641">
        <ele>325</ele>
        <time>2018-06-25T09:11:00.209Z</time>
      </trkpt>
      <trkpt lat="47.37482" lon="3.93646">
        <ele>325</ele>
        <time>2018-06-25T09:11:01.209Z</time>
      </trkpt>
      <trkpt lat="47.37499" lon="3.9366">
        <ele>328</ele>
        <time>2018-06-25T09:11:02.209Z</time>
      </trkpt>
      <trkpt lat="47.37511" lon="3.93683">
        <ele>328</ele>
        <time>2018-06-25T09:11:03.209Z</time>
      </trkpt>
      <trkpt lat="47.37521" lon="3.93713">
        <ele>328</ele>
        <time>2018-06-25T09:11:04.209Z</time>
      </trkpt>
      <trkpt lat="47.37522" lon="3.93761">
        <ele>330</ele>
        <time>2018-06-25T09:11:05.209Z</time>
      </trkpt>
      <trkpt lat="47.37529" lon="3.93851">
        <ele>333</ele>
        <time>2018-06-25T09:11:06.209Z</time>
      </trkpt>
      <trkpt lat="47.37532" lon="3.93917">
        <ele>337</ele>
        <time>2018-06-25T09:11:07.209Z</time>
      </trkpt>
      <trkpt lat="47.37529" lon="3.93986">
        <ele>342</ele>
        <time>2018-06-25T09:11:08.209Z</time>
      </trkpt>
      <trkpt lat="47.37521" lon="3.94022">
        <ele>344</ele>
        <time>2018-06-25T09:11:09.209Z</time>
      </trkpt>
      <trkpt lat="47.37507" lon="3.94057">
        <ele>345</ele>
        <time>2018-06-25T09:11:10.209Z</time>
      </trkpt>
      <trkpt lat="47.3749" lon="3.94078">
        <ele>347</ele>
        <time>2018-06-25T09:11:11.209Z</time>
      </trkpt>
      <trkpt lat="47.37462" lon="3.94104">
        <ele>348</ele>
        <time>2018-06-25T09:11:12.209Z</time>
      </trkpt>
      <trkpt lat="47.3742" lon="3.94131">
        <ele>351</ele>
        <time>2018-06-25T09:11:13.209Z</time>
      </trkpt>
      <trkpt lat="47.37395" lon="3.94141">
        <ele>355</ele>
        <time>2018-06-25T09:11:14.209Z</time>
      </trkpt>
      <trkpt lat="47.37386" lon="3.94139">
        <ele>357</ele>
        <time>2018-06-25T09:11:15.209Z</time>
      </trkpt>
      <trkpt lat="47.37363" lon="3.94124">
        <ele>361</ele>
        <time>2018-06-25T09:11:16.209Z</time>
      </trkpt>
      <trkpt lat="47.37355" lon="3.94091">
        <ele>363</ele>
        <time>2018-06-25T09:11:17.209Z</time>
      </trkpt>
      <trkpt lat="47.37348" lon="3.94053">
        <ele>363</ele>
        <time>2018-06-25T09:11:18.209Z</time>
      </trkpt>
      <trkpt lat="47.37331" lon="3.94015">
        <ele>363</ele>
        <time>2018-06-25T09:11:19.209Z</time>
      </trkpt>
      <trkpt lat="47.37311" lon="3.9399">
        <ele>366</ele>
        <time>2018-06-25T09:11:20.209Z</time>
      </trkpt>
      <trkpt lat="47.37279" lon="3.93967">
        <ele>369</ele>
        <time>2018-06-25T09:11:21.209Z</time>
      </trkpt>
      <trkpt lat="47.37249" lon="3.93967">
        <ele>374</ele>
        <time>2018-06-25T09:11:22.209Z</time>
      </trkpt>
      <trkpt lat="47.37214" lon="3.93977">
        <ele>378</ele>
        <time>2018-06-25T09:11:23.209Z</time>
      </trkpt>
      <trkpt lat="47.3701" lon="3.94016">
        <ele>396</ele>
        <time>2018-06-25T09:11:24.209Z</time>
      </trkpt>
      <trkpt lat="47.36931" lon="3.94002">
        <ele>397</ele>
        <time>2018-06-25T09:11:25.209Z</time>
      </trkpt>
      <trkpt lat="47.36822" lon="3.93954">
        <ele>399</ele>
        <time>2018-06-25T09:11:26.209Z</time>
      </trkpt>
      <trkpt lat="47.36788" lon="3.93934">
        <ele>403</ele>
        <time>2018-06-25T09:11:27.209Z</time>
      </trkpt>
      <trkpt lat="47.36742" lon="3.9388">
        <ele>409</ele>
        <time>2018-06-25T09:11:28.209Z</time>
      </trkpt>
      <trkpt lat="47.36721" lon="3.93824">
        <ele>413</ele>
        <time>2018-06-25T09:11:29.209Z</time>
      </trkpt>
      <trkpt lat="47.36705" lon="3.93776">
        <ele>415</ele>
        <time>2018-06-25T09:11:30.209Z</time>
      </trkpt>
      <trkpt lat="47.36693" lon="3.93714">
        <ele>415</ele>
        <time>2018-06-25T09:11:31.209Z</time>
      </trkpt>
      <trkpt lat="47.36668" lon="3.93676">
        <ele>418</ele>
        <time>2018-06-25T09:11:32.209Z</time>
      </trkpt>
      <trkpt lat="47.36638" lon="3.9364">
        <ele>421</ele>
        <time>2018-06-25T09:11:33.209Z</time>
      </trkpt>
      <trkpt lat="47.36608" lon="3.93628">
        <ele>423</ele>
        <time>2018-06-25T09:11:34.209Z</time>
      </trkpt>
      <trkpt lat="47.36538" lon="3.93615">
        <ele>429</ele>
        <time>2018-06-25T09:11:35.209Z</time>
      </trkpt>
      <trkpt lat="47.36506" lon="3.93599">
        <ele>431</ele>
        <time>2018-06-25T09:11:36.209Z</time>
      </trkpt>
      <trkpt lat="47.36404" lon="3.93474">
        <ele>434</ele>
        <time>2018-06-25T09:11:37.209Z</time>
      </trkpt>
      <trkpt lat="47.36288" lon="3.93349">
        <ele>441</ele>
        <time>2018-06-25T09:11:38.209Z</time>
      </trkpt>
      <trkpt lat="47.3625" lon="3.93315">
        <ele>439</ele>
        <time>2018-06-25T09:11:39.209Z</time>
      </trkpt>
      <trkpt lat="47.36209" lon="3.93315">
        <ele>438</ele>
        <time>2018-06-25T09:11:40.209Z</time>
      </trkpt>
      <trkpt lat="47.36151" lon="3.93328">
        <ele>438</ele>
        <time>2018-06-25T09:11:41.209Z</time>
      </trkpt>
      <trkpt lat="47.36067" lon="3.93354">
        <ele>438</ele>
        <time>2018-06-25T09:11:42.209Z</time>
      </trkpt>
      <trkpt lat="47.35966" lon="3.93391">
        <ele>440</ele>
        <time>2018-06-25T09:11:43.209Z</time>
      </trkpt>
      <trkpt lat="47.35859" lon="3.93427">
        <ele>444</ele>
        <time>2018-06-25T09:11:44.209Z</time>
      </trkpt>
      <trkpt lat="47.35779" lon="3.93463">
        <ele>448</ele>
        <time>2018-06-25T09:11:45.209Z</time>
      </trkpt>
      <trkpt lat="47.35737" lon="3.93479">
        <ele>449</ele>
        <time>2018-06-25T09:11:46.209Z</time>
      </trkpt>
      <trkpt lat="47.35663" lon="3.93528">
        <ele>450</ele>
        <time>2018-06-25T09:11:47.209Z</time>
      </trkpt>
      <trkpt lat="47.35579" lon="3.93576">
        <ele>445</ele>
        <time>2018-06-25T09:11:48.209Z</time>
      </trkpt>
      <trkpt lat="47.35543" lon="3.93604">
        <ele>445</ele>
        <time>2018-06-25T09:11:49.209Z</time>
      </trkpt>
      <trkpt lat="47.35553" lon="3.93632">
        <ele>446</ele>
        <time>2018-06-25T09:11:50.209Z</time>
      </trkpt>
      <trkpt lat="47.35554" lon="3.93662">
        <ele>446</ele>
        <time>2018-06-25T09:11:51.209Z</time>
      </trkpt>
      <trkpt lat="47.35548" lon="3.93692">
        <ele>445</ele>
        <time>2018-06-25T09:11:52.209Z</time>
      </trkpt>
      <trkpt lat="47.35536" lon="3.93725">
        <ele>444</ele>
        <time>2018-06-25T09:11:53.209Z</time>
      </trkpt>
      <trkpt lat="47.35524" lon="3.93749">
        <ele>443</ele>
        <time>2018-06-25T09:11:54.209Z</time>
      </trkpt>
      <trkpt lat="47.35508" lon="3.93773">
        <ele>442</ele>
        <time>2018-06-25T09:11:55.209Z</time>
      </trkpt>
      <trkpt lat="47.35429" lon="3.9388">
        <ele>436</ele>
        <time>2018-06-25T09:11:56.209Z</time>
      </trkpt>
      <trkpt lat="47.35446" lon="3.9392">
        <ele>430</ele>
        <time>2018-06-25T09:11:57.209Z</time>
      </trkpt>
      <trkpt lat="47.35462" lon="3.93982">
        <ele>426</ele>
        <time>2018-06-25T09:11:58.209Z</time>
      </trkpt>
      <trkpt lat="47.35472" lon="3.94004">
        <ele>425</ele>
        <time>2018-06-25T09:11:59.209Z</time>
      </trkpt>
      <trkpt lat="47.35512" lon="3.94022">
        <ele>427</ele>
        <time>2018-06-25T09:12:00.209Z</time>
      </trkpt>
      <trkpt lat="47.35512" lon="3.94062">
        <ele>428</ele>
        <time>2018-06-25T09:12:01.209Z</time>
      </trkpt>
      <trkpt lat="47.35504" lon="3.94165">
        <ele>423</ele>
        <time>2018-06-25T09:12:02.209Z</time>
      </trkpt>
      <trkpt lat="47.35477" lon="3.94295">
        <ele>419</ele>
        <time>2018-06-25T09:12:03.209Z</time>
      </trkpt>
      <trkpt lat="47.3546" lon="3.94345">
        <ele>419</ele>
        <time>2018-06-25T09:12:04.209Z</time>
      </trkpt>
      <trkpt lat="47.35436" lon="3.94395">
        <ele>418</ele>
        <time>2018-06-25T09:12:05.209Z</time>
      </trkpt>
      <trkpt lat="47.35412" lon="3.94456">
        <ele>419</ele>
        <time>2018-06-25T09:12:06.209Z</time>
      </trkpt>
      <trkpt lat="47.35387" lon="3.94577">
        <ele>422</ele>
        <time>2018-06-25T09:12:07.209Z</time>
      </trkpt>
      <trkpt lat="47.35385" lon="3.94626">
        <ele>421</ele>
        <time>2018-06-25T09:12:08.209Z</time>
      </trkpt>
      <trkpt lat="47.35387" lon="3.94674">
        <ele>421</ele>
        <time>2018-06-25T09:12:09.209Z</time>
      </trkpt>
      <trkpt lat="47.35382" lon="3.94708">
        <ele>418</ele>
        <time>2018-06-25T09:12:10.209Z</time>
      </trkpt>
      <trkpt lat="47.35376" lon="3.94734">
        <ele>415</ele>
        <time>2018-06-25T09:12:11.209Z</time>
      </trkpt>
      <trkpt lat="47.35363" lon="3.94767">
        <ele>410</ele>
        <time>2018-06-25T09:12:12.209Z</time>
      </trkpt>
      <trkpt lat="47.35357" lon="3.94792">
        <ele>407</ele>
        <time>2018-06-25T09:12:13.209Z</time>
      </trkpt>
      <trkpt lat="47.35353" lon="3.94815">
        <ele>405</ele>
        <time>2018-06-25T09:12:14.209Z</time>
      </trkpt>
      <trkpt lat="47.35352" lon="3.94845">
        <ele>403</ele>
        <time>2018-06-25T09:12:15.209Z</time>
      </trkpt>
      <trkpt lat="47.35356" lon="3.94901">
        <ele>399</ele>
        <time>2018-06-25T09:12:16.209Z</time>
      </trkpt>
      <trkpt lat="47.35313" lon="3.95028">
        <ele>384</ele>
        <time>2018-06-25T09:12:17.209Z</time>
      </trkpt>
      <trkpt lat="47.35305" lon="3.9508">
        <ele>379</ele>
        <time>2018-06-25T09:12:18.209Z</time>
      </trkpt>
      <trkpt lat="47.35294" lon="3.95179">
        <ele>369</ele>
        <time>2018-06-25T09:12:19.209Z</time>
      </trkpt>
      <trkpt lat="47.3528" lon="3.95255">
        <ele>360</ele>
        <time>2018-06-25T09:12:20.209Z</time>
      </trkpt>
      <trkpt lat="47.35268" lon="3.95337">
        <ele>350</ele>
        <time>2018-06-25T09:12:21.209Z</time>
      </trkpt>
      <trkpt lat="47.3528" lon="3.95405">
        <ele>344</ele>
        <time>2018-06-25T09:12:22.209Z</time>
      </trkpt>
      <trkpt lat="47.35253" lon="3.9549">
        <ele>338</ele>
        <time>2018-06-25T09:12:23.209Z</time>
      </trkpt>
      <trkpt lat="47.35252" lon="3.95502">
        <ele>337</ele>
        <time>2018-06-25T09:12:24.209Z</time>
      </trkpt>
      <trkpt lat="47.35253" lon="3.95502">
        <ele>337</ele>
        <time>2018-06-25T09:12:25.209Z</time>
      </trkpt>
      <trkpt lat="47.3525" lon="3.95541">
        <ele>336</ele>
        <time>2018-06-25T09:12:26.209Z</time>
      </trkpt>
      <trkpt lat="47.35246" lon="3.9557">
        <ele>335</ele>
        <time>2018-06-25T09:12:27.209Z</time>
      </trkpt>
      <trkpt lat="47.35237" lon="3.95581">
        <ele>335</ele>
        <time>2018-06-25T09:12:28.209Z</time>
      </trkpt>
      <trkpt lat="47.35225" lon="3.95591">
        <ele>334</ele>
        <time>2018-06-25T09:12:29.209Z</time>
      </trkpt>
      <trkpt lat="47.35216" lon="3.95591">
        <ele>333</ele>
        <time>2018-06-25T09:12:30.209Z</time>
      </trkpt>
      <trkpt lat="47.35201" lon="3.95581">
        <ele>333</ele>
        <time>2018-06-25T09:12:31.209Z</time>
      </trkpt>
      <trkpt lat="47.35184" lon="3.95574">
        <ele>333</ele>
        <time>2018-06-25T09:12:32.209Z</time>
      </trkpt>
      <trkpt lat="47.35176" lon="3.95579">
        <ele>332</ele>
        <time>2018-06-25T09:12:33.209Z</time>
      </trkpt>
      <trkpt lat="47.35137" lon="3.95674">
        <ele>329</ele>
        <time>2018-06-25T09:12:34.209Z</time>
      </trkpt>
      <trkpt lat="47.35144" lon="3.95762">
        <ele>324</ele>
        <time>2018-06-25T09:12:35.209Z</time>
      </trkpt>
      <trkpt lat="47.35177" lon="3.95837">
        <ele>322</ele>
        <time>2018-06-25T09:12:36.209Z</time>
      </trkpt>
      <trkpt lat="47.35206" lon="3.95889">
        <ele>319</ele>
        <time>2018-06-25T09:12:37.209Z</time>
      </trkpt>
      <trkpt lat="47.35215" lon="3.95914">
        <ele>318</ele>
        <time>2018-06-25T09:12:38.209Z</time>
      </trkpt>
      <trkpt lat="47.35231" lon="3.95985">
        <ele>317</ele>
        <time>2018-06-25T09:12:39.209Z</time>
      </trkpt>
      <trkpt lat="47.35244" lon="3.96008">
        <ele>316</ele>
        <time>2018-06-25T09:12:40.209Z</time>
      </trkpt>
      <trkpt lat="47.35257" lon="3.96025">
        <ele>315</ele>
        <time>2018-06-25T09:12:41.209Z</time>
      </trkpt>
      <trkpt lat="47.35279" lon="3.96005">
        <ele>315</ele>
        <time>2018-06-25T09:12:42.209Z</time>
      </trkpt>
      <trkpt lat="47.35319" lon="3.95981">
        <ele>314</ele>
        <time>2018-06-25T09:12:43.209Z</time>
      </trkpt>
      <trkpt lat="47.35357" lon="3.95936">
        <ele>314</ele>
        <time>2018-06-25T09:12:44.209Z</time>
      </trkpt>
      <trkpt lat="47.35396" lon="3.95897">
        <ele>317</ele>
        <time>2018-06-25T09:12:45.209Z</time>
      </trkpt>
      <trkpt lat="47.35434" lon="3.95903">
        <ele>317</ele>
        <time>2018-06-25T09:12:46.209Z</time>
      </trkpt>
      <trkpt lat="47.3546" lon="3.95903">
        <ele>317</ele>
        <time>2018-06-25T09:12:47.209Z</time>
      </trkpt>
      <trkpt lat="47.3548" lon="3.9591">
        <ele>315</ele>
        <time>2018-06-25T09:12:48.209Z</time>
      </trkpt>
      <trkpt lat="47.35523" lon="3.95936">
        <ele>312</ele>
        <time>2018-06-25T09:12:49.209Z</time>
      </trkpt>
      <trkpt lat="47.35537" lon="3.95938">
        <ele>312</ele>
        <time>2018-06-25T09:12:50.209Z</time>
      </trkpt>
      <trkpt lat="47.3561" lon="3.9592">
        <ele>311</ele>
        <time>2018-06-25T09:12:51.209Z</time>
      </trkpt>
      <trkpt lat="47.35649" lon="3.95915">
        <ele>311</ele>
        <time>2018-06-25T09:12:52.209Z</time>
      </trkpt>
      <trkpt lat="47.35659" lon="3.95917">
        <ele>311</ele>
        <time>2018-06-25T09:12:53.209Z</time>
      </trkpt>
      <trkpt lat="47.35669" lon="3.95924">
        <ele>311</ele>
        <time>2018-06-25T09:12:54.209Z</time>
      </trkpt>
      <trkpt lat="47.35721" lon="3.95969">
        <ele>309</ele>
        <time>2018-06-25T09:12:55.209Z</time>
      </trkpt>
      <trkpt lat="47.35735" lon="3.95971">
        <ele>309</ele>
        <time>2018-06-25T09:12:56.209Z</time>
      </trkpt>
      <trkpt lat="47.35755" lon="3.95992">
        <ele>309</ele>
        <time>2018-06-25T09:12:57.209Z</time>
      </trkpt>
      <trkpt lat="47.35778" lon="3.96009">
        <ele>310</ele>
        <time>2018-06-25T09:12:58.209Z</time>
      </trkpt>
      <trkpt lat="47.35796" lon="3.96002">
        <ele>310</ele>
        <time>2018-06-25T09:12:59.209Z</time>
      </trkpt>
      <trkpt lat="47.3583" lon="3.95982">
        <ele>311</ele>
        <time>2018-06-25T09:13:00.209Z</time>
      </trkpt>
      <trkpt lat="47.3588" lon="3.95948">
        <ele>309</ele>
        <time>2018-06-25T09:13:01.209Z</time>
      </trkpt>
      <trkpt lat="47.35915" lon="3.95931">
        <ele>309</ele>
        <time>2018-06-25T09:13:02.209Z</time>
      </trkpt>
      <trkpt lat="47.35975" lon="3.95894">
        <ele>306</ele>
        <time>2018-06-25T09:13:03.209Z</time>
      </trkpt>
      <trkpt lat="47.36037" lon="3.95841">
        <ele>307</ele>
        <time>2018-06-25T09:13:04.209Z</time>
      </trkpt>
      <trkpt lat="47.36057" lon="3.95834">
        <ele>307</ele>
        <time>2018-06-25T09:13:05.209Z</time>
      </trkpt>
      <trkpt lat="47.36076" lon="3.95842">
        <ele>308</ele>
        <time>2018-06-25T09:13:06.209Z</time>
      </trkpt>
      <trkpt lat="47.36138" lon="3.95887">
        <ele>312</ele>
        <time>2018-06-25T09:13:07.209Z</time>
      </trkpt>
      <trkpt lat="47.36153" lon="3.95914">
        <ele>312</ele>
        <time>2018-06-25T09:13:08.209Z</time>
      </trkpt>
      <trkpt lat="47.36168" lon="3.95965">
        <ele>313</ele>
        <time>2018-06-25T09:13:09.209Z</time>
      </trkpt>
      <trkpt lat="47.36189" lon="3.96041">
        <ele>316</ele>
        <time>2018-06-25T09:13:10.209Z</time>
      </trkpt>
      <trkpt lat="47.36189" lon="3.96041">
        <ele>316</ele>
        <time>2018-06-25T09:13:11.209Z</time>
      </trkpt>
      <trkpt lat="47.36211" lon="3.96064">
        <ele>319</ele>
        <time>2018-06-25T09:13:12.209Z</time>
      </trkpt>
      <trkpt lat="47.3628" lon="3.96086">
        <ele>320</ele>
        <time>2018-06-25T09:13:13.209Z</time>
      </trkpt>
      <trkpt lat="47.36303" lon="3.96084">
        <ele>317</ele>
        <time>2018-06-25T09:13:14.209Z</time>
      </trkpt>
      <trkpt lat="47.36325" lon="3.96074">
        <ele>315</ele>
        <time>2018-06-25T09:13:15.209Z</time>
      </trkpt>
      <trkpt lat="47.36369" lon="3.96063">
        <ele>310</ele>
        <time>2018-06-25T09:13:16.209Z</time>
      </trkpt>
      <trkpt lat="47.36418" lon="3.96056">
        <ele>304</ele>
        <time>2018-06-25T09:13:17.209Z</time>
      </trkpt>
      <trkpt lat="47.36475" lon="3.96052">
        <ele>302</ele>
        <time>2018-06-25T09:13:18.209Z</time>
      </trkpt>
      <trkpt lat="47.36485" lon="3.96048">
        <ele>301</ele>
        <time>2018-06-25T09:13:19.209Z</time>
      </trkpt>
      <trkpt lat="47.36499" lon="3.96038">
        <ele>300</ele>
        <time>2018-06-25T09:13:20.209Z</time>
      </trkpt>
      <trkpt lat="47.36505" lon="3.96025">
        <ele>300</ele>
        <time>2018-06-25T09:13:21.209Z</time>
      </trkpt>
      <trkpt lat="47.36511" lon="3.95961">
        <ele>299</ele>
        <time>2018-06-25T09:13:22.209Z</time>
      </trkpt>
      <trkpt lat="47.36514" lon="3.95894">
        <ele>299</ele>
        <time>2018-06-25T09:13:23.209Z</time>
      </trkpt>
      <trkpt lat="47.36521" lon="3.95845">
        <ele>299</ele>
        <time>2018-06-25T09:13:24.209Z</time>
      </trkpt>
      <trkpt lat="47.36533" lon="3.95796">
        <ele>301</ele>
        <time>2018-06-25T09:13:25.209Z</time>
      </trkpt>
      <trkpt lat="47.36552" lon="3.95751">
        <ele>302</ele>
        <time>2018-06-25T09:13:26.209Z</time>
      </trkpt>
      <trkpt lat="47.36568" lon="3.95725">
        <ele>309</ele>
        <time>2018-06-25T09:13:27.209Z</time>
      </trkpt>
      <trkpt lat="47.36591" lon="3.95709">
        <ele>314</ele>
        <time>2018-06-25T09:13:28.209Z</time>
      </trkpt>
      <trkpt lat="47.36602" lon="3.95706">
        <ele>316</ele>
        <time>2018-06-25T09:13:29.209Z</time>
      </trkpt>
      <trkpt lat="47.36628" lon="3.95718">
        <ele>315</ele>
        <time>2018-06-25T09:13:30.209Z</time>
      </trkpt>
      <trkpt lat="47.3664" lon="3.95729">
        <ele>314</ele>
        <time>2018-06-25T09:13:31.209Z</time>
      </trkpt>
      <trkpt lat="47.36643" lon="3.9574">
        <ele>311</ele>
        <time>2018-06-25T09:13:32.209Z</time>
      </trkpt>
      <trkpt lat="47.3664" lon="3.95783">
        <ele>305</ele>
        <time>2018-06-25T09:13:33.209Z</time>
      </trkpt>
      <trkpt lat="47.36645" lon="3.95816">
        <ele>301</ele>
        <time>2018-06-25T09:13:34.209Z</time>
      </trkpt>
      <trkpt lat="47.36651" lon="3.95839">
        <ele>299</ele>
        <time>2018-06-25T09:13:35.209Z</time>
      </trkpt>
      <trkpt lat="47.36667" lon="3.95834">
        <ele>300</ele>
        <time>2018-06-25T09:13:36.209Z</time>
      </trkpt>
      <trkpt lat="47.3668" lon="3.95835">
        <ele>300</ele>
        <time>2018-06-25T09:13:37.209Z</time>
      </trkpt>
      <trkpt lat="47.36698" lon="3.95841">
        <ele>300</ele>
        <time>2018-06-25T09:13:38.209Z</time>
      </trkpt>
      <trkpt lat="47.36734" lon="3.95857">
        <ele>300</ele>
        <time>2018-06-25T09:13:39.209Z</time>
      </trkpt>
      <trkpt lat="47.36743" lon="3.95865">
        <ele>300</ele>
        <time>2018-06-25T09:13:40.209Z</time>
      </trkpt>
      <trkpt lat="47.36783" lon="3.95909">
        <ele>299</ele>
        <time>2018-06-25T09:13:41.209Z</time>
      </trkpt>
      <trkpt lat="47.36792" lon="3.95914">
        <ele>299</ele>
        <time>2018-06-25T09:13:42.209Z</time>
      </trkpt>
      <trkpt lat="47.36797" lon="3.9592">
        <ele>299</ele>
        <time>2018-06-25T09:13:43.209Z</time>
      </trkpt>
      <trkpt lat="47.36803" lon="3.95946">
        <ele>298</ele>
        <time>2018-06-25T09:13:44.209Z</time>
      </trkpt>
      <trkpt lat="47.36813" lon="3.95961">
        <ele>298</ele>
        <time>2018-06-25T09:13:45.209Z</time>
      </trkpt>
      <trkpt lat="47.3682" lon="3.95968">
        <ele>297</ele>
        <time>2018-06-25T09:13:46.209Z</time>
      </trkpt>
      <trkpt lat="47.36851" lon="3.95987">
        <ele>296</ele>
        <time>2018-06-25T09:13:47.209Z</time>
      </trkpt>
      <trkpt lat="47.36874" lon="3.96009">
        <ele>296</ele>
        <time>2018-06-25T09:13:48.209Z</time>
      </trkpt>
      <trkpt lat="47.36885" lon="3.96024">
        <ele>297</ele>
        <time>2018-06-25T09:13:49.209Z</time>
      </trkpt>
      <trkpt lat="47.36888" lon="3.96036">
        <ele>297</ele>
        <time>2018-06-25T09:13:50.209Z</time>
      </trkpt>
      <trkpt lat="47.36886" lon="3.96063">
        <ele>297</ele>
        <time>2018-06-25T09:13:51.209Z</time>
      </trkpt>
      <trkpt lat="47.36866" lon="3.96098">
        <ele>299</ele>
        <time>2018-06-25T09:13:52.209Z</time>
      </trkpt>
      <trkpt lat="47.36862" lon="3.96113">
        <ele>300</ele>
        <time>2018-06-25T09:13:53.209Z</time>
      </trkpt>
      <trkpt lat="47.36861" lon="3.96124">
        <ele>301</ele>
        <time>2018-06-25T09:13:54.209Z</time>
      </trkpt>
      <trkpt lat="47.36862" lon="3.96139">
        <ele>302</ele>
        <time>2018-06-25T09:13:55.209Z</time>
      </trkpt>
      <trkpt lat="47.36872" lon="3.962">
        <ele>305</ele>
        <time>2018-06-25T09:13:56.209Z</time>
      </trkpt>
      <trkpt lat="47.36906" lon="3.96228">
        <ele>303</ele>
        <time>2018-06-25T09:13:57.209Z</time>
      </trkpt>
      <trkpt lat="47.36911" lon="3.96302">
        <ele>307</ele>
        <time>2018-06-25T09:13:58.209Z</time>
      </trkpt>
      <trkpt lat="47.36914" lon="3.96308">
        <ele>308</ele>
        <time>2018-06-25T09:13:59.209Z</time>
      </trkpt>
      <trkpt lat="47.36926" lon="3.96309">
        <ele>308</ele>
        <time>2018-06-25T09:14:00.209Z</time>
      </trkpt>
      <trkpt lat="47.36962" lon="3.96294">
        <ele>308</ele>
        <time>2018-06-25T09:14:01.209Z</time>
      </trkpt>
      <trkpt lat="47.36967" lon="3.96295">
        <ele>308</ele>
        <time>2018-06-25T09:14:02.209Z</time>
      </trkpt>
      <trkpt lat="47.3697" lon="3.96299">
        <ele>308</ele>
        <time>2018-06-25T09:14:03.209Z</time>
      </trkpt>
      <trkpt lat="47.36971" lon="3.96304">
        <ele>309</ele>
        <time>2018-06-25T09:14:04.209Z</time>
      </trkpt>
      <trkpt lat="47.3697" lon="3.96314">
        <ele>310</ele>
        <time>2018-06-25T09:14:05.209Z</time>
      </trkpt>
      <trkpt lat="47.36955" lon="3.96355">
        <ele>312</ele>
        <time>2018-06-25T09:14:06.209Z</time>
      </trkpt>
      <trkpt lat="47.36951" lon="3.96374">
        <ele>313</ele>
        <time>2018-06-25T09:14:07.209Z</time>
      </trkpt>
      <trkpt lat="47.36952" lon="3.9639">
        <ele>314</ele>
        <time>2018-06-25T09:14:08.209Z</time>
      </trkpt>
      <trkpt lat="47.36958" lon="3.96419">
        <ele>316</ele>
        <time>2018-06-25T09:14:09.209Z</time>
      </trkpt>
      <trkpt lat="47.36962" lon="3.96451">
        <ele>316</ele>
        <time>2018-06-25T09:14:10.209Z</time>
      </trkpt>
      <trkpt lat="47.36964" lon="3.96494">
        <ele>317</ele>
        <time>2018-06-25T09:14:11.209Z</time>
      </trkpt>
      <trkpt lat="47.36967" lon="3.96517">
        <ele>318</ele>
        <time>2018-06-25T09:14:12.209Z</time>
      </trkpt>
      <trkpt lat="47.36986" lon="3.96594">
        <ele>323</ele>
        <time>2018-06-25T09:14:13.209Z</time>
      </trkpt>
      <trkpt lat="47.37037" lon="3.96736">
        <ele>334</ele>
        <time>2018-06-25T09:14:14.209Z</time>
      </trkpt>
      <trkpt lat="47.37037" lon="3.96736">
        <ele>334</ele>
        <time>2018-06-25T09:14:15.209Z</time>
      </trkpt>
      <trkpt lat="47.37054" lon="3.96769">
        <ele>338</ele>
        <time>2018-06-25T09:14:16.209Z</time>
      </trkpt>
      <trkpt lat="47.37065" lon="3.96807">
        <ele>342</ele>
        <time>2018-06-25T09:14:17.209Z</time>
      </trkpt>
      <trkpt lat="47.37114" lon="3.96923">
        <ele>356</ele>
        <time>2018-06-25T09:14:18.209Z</time>
      </trkpt>
      <trkpt lat="47.37119" lon="3.96955">
        <ele>359</ele>
        <time>2018-06-25T09:14:19.209Z</time>
      </trkpt>
      <trkpt lat="47.37124" lon="3.96976">
        <ele>362</ele>
        <time>2018-06-25T09:14:20.209Z</time>
      </trkpt>
      <trkpt lat="47.37168" lon="3.97083">
        <ele>375</ele>
        <time>2018-06-25T09:14:21.209Z</time>
      </trkpt>
      <trkpt lat="47.37182" lon="3.97136">
        <ele>378</ele>
        <time>2018-06-25T09:14:22.209Z</time>
      </trkpt>
      <trkpt lat="47.37201" lon="3.97218">
        <ele>384</ele>
        <time>2018-06-25T09:14:23.209Z</time>
      </trkpt>
      <trkpt lat="47.37209" lon="3.97243">
        <ele>386</ele>
        <time>2018-06-25T09:14:24.209Z</time>
      </trkpt>
      <trkpt lat="47.37281" lon="3.97329">
        <ele>392</ele>
        <time>2018-06-25T09:14:25.209Z</time>
      </trkpt>
      <trkpt lat="47.37293" lon="3.97357">
        <ele>393</ele>
        <time>2018-06-25T09:14:26.209Z</time>
      </trkpt>
      <trkpt lat="47.37311" lon="3.97414">
        <ele>397</ele>
        <time>2018-06-25T09:14:27.209Z</time>
      </trkpt>
      <trkpt lat="47.37317" lon="3.97421">
        <ele>398</ele>
        <time>2018-06-25T09:14:28.209Z</time>
      </trkpt>
      <trkpt lat="47.37334" lon="3.97419">
        <ele>397</ele>
        <time>2018-06-25T09:14:29.209Z</time>
      </trkpt>
      <trkpt lat="47.37361" lon="3.97428">
        <ele>400</ele>
        <time>2018-06-25T09:14:30.209Z</time>
      </trkpt>
      <trkpt lat="47.37438" lon="3.9747">
        <ele>404</ele>
        <time>2018-06-25T09:14:31.209Z</time>
      </trkpt>
      <trkpt lat="47.37451" lon="3.9748">
        <ele>404</ele>
        <time>2018-06-25T09:14:32.209Z</time>
      </trkpt>
      <trkpt lat="47.37465" lon="3.97506">
        <ele>403</ele>
        <time>2018-06-25T09:14:33.209Z</time>
      </trkpt>
      <trkpt lat="47.37476" lon="3.97544">
        <ele>402</ele>
        <time>2018-06-25T09:14:34.209Z</time>
      </trkpt>
      <trkpt lat="47.37471" lon="3.97542">
        <ele>402</ele>
        <time>2018-06-25T09:14:35.209Z</time>
      </trkpt>
      <trkpt lat="47.37467" lon="3.97543">
        <ele>403</ele>
        <time>2018-06-25T09:14:36.209Z</time>
      </trkpt>
      <trkpt lat="47.37459" lon="3.97549">
        <ele>403</ele>
        <time>2018-06-25T09:14:37.209Z</time>
      </trkpt>
      <trkpt lat="47.37447" lon="3.97566">
        <ele>404</ele>
        <time>2018-06-25T09:14:38.209Z</time>
      </trkpt>
      <trkpt lat="47.37439" lon="3.97586">
        <ele>406</ele>
        <time>2018-06-25T09:14:39.209Z</time>
      </trkpt>
      <trkpt lat="47.37428" lon="3.97633">
        <ele>411</ele>
        <time>2018-06-25T09:14:40.209Z</time>
      </trkpt>
      <trkpt lat="47.37428" lon="3.97633">
        <ele>411</ele>
        <time>2018-06-25T09:14:41.209Z</time>
      </trkpt>
      <trkpt lat="47.37404" lon="3.9772">
        <ele>416</ele>
        <time>2018-06-25T09:14:42.209Z</time>
      </trkpt>
      <trkpt lat="47.37367" lon="3.97804">
        <ele>417</ele>
        <time>2018-06-25T09:14:43.209Z</time>
      </trkpt>
      <trkpt lat="47.37315" lon="3.97911">
        <ele>417</ele>
        <time>2018-06-25T09:14:44.209Z</time>
      </trkpt>
      <trkpt lat="47.37275" lon="3.97999">
        <ele>416</ele>
        <time>2018-06-25T09:14:45.209Z</time>
      </trkpt>
      <trkpt lat="47.37249" lon="3.98097">
        <ele>420</ele>
        <time>2018-06-25T09:14:46.209Z</time>
      </trkpt>
      <trkpt lat="47.37216" lon="3.98203">
        <ele>423</ele>
        <time>2018-06-25T09:14:47.209Z</time>
      </trkpt>
      <trkpt lat="47.37184" lon="3.98286">
        <ele>424</ele>
        <time>2018-06-25T09:14:48.209Z</time>
      </trkpt>
      <trkpt lat="47.37182" lon="3.9831">
        <ele>425</ele>
        <time>2018-06-25T09:14:49.209Z</time>
      </trkpt>
      <trkpt lat="47.37189" lon="3.98464">
        <ele>429</ele>
        <time>2018-06-25T09:14:50.209Z</time>
      </trkpt>
      <trkpt lat="47.37185" lon="3.98567">
        <ele>429</ele>
        <time>2018-06-25T09:14:51.209Z</time>
      </trkpt>
      <trkpt lat="47.37175" lon="3.98691">
        <ele>428</ele>
        <time>2018-06-25T09:14:52.209Z</time>
      </trkpt>
      <trkpt lat="47.37152" lon="3.98854">
        <ele>432</ele>
        <time>2018-06-25T09:14:53.209Z</time>
      </trkpt>
      <trkpt lat="47.37112" lon="3.9899">
        <ele>436</ele>
        <time>2018-06-25T09:14:54.209Z</time>
      </trkpt>
      <trkpt lat="47.37113" lon="3.99015">
        <ele>436</ele>
        <time>2018-06-25T09:14:55.209Z</time>
      </trkpt>
      <trkpt lat="47.37203" lon="3.99187">
        <ele>435</ele>
        <time>2018-06-25T09:14:56.209Z</time>
      </trkpt>
      <trkpt lat="47.37244" lon="3.99235">
        <ele>434</ele>
        <time>2018-06-25T09:14:57.209Z</time>
      </trkpt>
      <trkpt lat="47.37256" lon="3.99267">
        <ele>433</ele>
        <time>2018-06-25T09:14:58.209Z</time>
      </trkpt>
      <trkpt lat="47.37238" lon="3.99288">
        <ele>433</ele>
        <time>2018-06-25T09:14:59.209Z</time>
      </trkpt>
      <trkpt lat="47.37197" lon="3.99346">
        <ele>432</ele>
        <time>2018-06-25T09:15:00.209Z</time>
      </trkpt>
      <trkpt lat="47.3718" lon="3.99379">
        <ele>432</ele>
        <time>2018-06-25T09:15:01.209Z</time>
      </trkpt>
      <trkpt lat="47.37169" lon="3.99391">
        <ele>432</ele>
        <time>2018-06-25T09:15:02.209Z</time>
      </trkpt>
      <trkpt lat="47.37132" lon="3.99413">
        <ele>432</ele>
        <time>2018-06-25T09:15:03.209Z</time>
      </trkpt>
      <trkpt lat="47.37037" lon="3.99479">
        <ele>437</ele>
        <time>2018-06-25T09:15:04.209Z</time>
      </trkpt>
      <trkpt lat="47.36982" lon="3.99537">
        <ele>444</ele>
        <time>2018-06-25T09:15:05.209Z</time>
      </trkpt>
      <trkpt lat="47.36952" lon="3.99578">
        <ele>449</ele>
        <time>2018-06-25T09:15:06.209Z</time>
      </trkpt>
      <trkpt lat="47.36941" lon="3.99602">
        <ele>451</ele>
        <time>2018-06-25T09:15:07.209Z</time>
      </trkpt>
      <trkpt lat="47.36917" lon="3.99579">
        <ele>452</ele>
        <time>2018-06-25T09:15:08.209Z</time>
      </trkpt>
      <trkpt lat="47.36907" lon="3.99577">
        <ele>452</ele>
        <time>2018-06-25T09:15:09.209Z</time>
      </trkpt>
      <trkpt lat="47.369" lon="3.9958">
        <ele>453</ele>
        <time>2018-06-25T09:15:10.209Z</time>
      </trkpt>
      <trkpt lat="47.36888" lon="3.99598">
        <ele>454</ele>
        <time>2018-06-25T09:15:11.209Z</time>
      </trkpt>
      <trkpt lat="47.36888" lon="3.99609">
        <ele>455</ele>
        <time>2018-06-25T09:15:12.209Z</time>
      </trkpt>
      <trkpt lat="47.36898" lon="3.99658">
        <ele>457</ele>
        <time>2018-06-25T09:15:13.209Z</time>
      </trkpt>
      <trkpt lat="47.36857" lon="3.9967">
        <ele>458</ele>
        <time>2018-06-25T09:15:14.209Z</time>
      </trkpt>
      <trkpt lat="47.36845" lon="3.9966">
        <ele>459</ele>
        <time>2018-06-25T09:15:15.209Z</time>
      </trkpt>
      <trkpt lat="47.36787" lon="3.99628">
        <ele>458</ele>
        <time>2018-06-25T09:15:16.209Z</time>
      </trkpt>
      <trkpt lat="47.36779" lon="3.99628">
        <ele>458</ele>
        <time>2018-06-25T09:15:17.209Z</time>
      </trkpt>
      <trkpt lat="47.36799" lon="3.99661">
        <ele>458</ele>
        <time>2018-06-25T09:15:18.209Z</time>
      </trkpt>
      <trkpt lat="47.36796" lon="3.99665">
        <ele>459</ele>
        <time>2018-06-25T08:57:00.121Z</time>
      </trkpt>
      <trkpt lat="47.36798" lon="3.99661">
        <ele>458</ele>
        <time>2018-06-25T08:57:01.121Z</time>
      </trkpt>
      <trkpt lat="47.36779" lon="3.99629">
        <ele>458</ele>
        <time>2018-06-25T08:57:02.121Z</time>
      </trkpt>
      <trkpt lat="47.36771" lon="3.99624">
        <ele>458</ele>
        <time>2018-06-25T08:57:03.121Z</time>
      </trkpt>
      <trkpt lat="47.36767" lon="3.99585">
        <ele>457</ele>
        <time>2018-06-25T08:57:04.121Z</time>
      </trkpt>
      <trkpt lat="47.36763" lon="3.99568">
        <ele>456</ele>
        <time>2018-06-25T08:57:05.121Z</time>
      </trkpt>
      <trkpt lat="47.36755" lon="3.99544">
        <ele>455</ele>
        <time>2018-06-25T08:57:06.121Z</time>
      </trkpt>
      <trkpt lat="47.36741" lon="3.99487">
        <ele>452</ele>
        <time>2018-06-25T08:57:07.121Z</time>
      </trkpt>
      <trkpt lat="47.36739" lon="3.99465">
        <ele>450</ele>
        <time>2018-06-25T08:57:08.121Z</time>
      </trkpt>
      <trkpt lat="47.36739" lon="3.99399">
        <ele>444</ele>
        <time>2018-06-25T08:57:09.121Z</time>
      </trkpt>
      <trkpt lat="47.36736" lon="3.99372">
        <ele>442</ele>
        <time>2018-06-25T08:57:10.121Z</time>
      </trkpt>
      <trkpt lat="47.36729" lon="3.99346">
        <ele>439</ele>
        <time>2018-06-25T08:57:11.121Z</time>
      </trkpt>
      <trkpt lat="47.36723" lon="3.99328">
        <ele>438</ele>
        <time>2018-06-25T08:57:12.121Z</time>
      </trkpt>
      <trkpt lat="47.3668" lon="3.99246">
        <ele>433</ele>
        <time>2018-06-25T08:57:13.121Z</time>
      </trkpt>
      <trkpt lat="47.36669" lon="3.99229">
        <ele>432</ele>
        <time>2018-06-25T08:57:14.121Z</time>
      </trkpt>
      <trkpt lat="47.36625" lon="3.99176">
        <ele>427</ele>
        <time>2018-06-25T08:57:15.121Z</time>
      </trkpt>
      <trkpt lat="47.36604" lon="3.99137">
        <ele>424</ele>
        <time>2018-06-25T08:57:16.121Z</time>
      </trkpt>
      <trkpt lat="47.36585" lon="3.9908">
        <ele>420</ele>
        <time>2018-06-25T08:57:17.121Z</time>
      </trkpt>
      <trkpt lat="47.36576" lon="3.99044">
        <ele>417</ele>
        <time>2018-06-25T08:57:18.121Z</time>
      </trkpt>
      <trkpt lat="47.36559" lon="3.98949">
        <ele>409</ele>
        <time>2018-06-25T08:57:19.121Z</time>
      </trkpt>
      <trkpt lat="47.36545" lon="3.98881">
        <ele>404</ele>
        <time>2018-06-25T08:57:20.121Z</time>
      </trkpt>
      <trkpt lat="47.36531" lon="3.98851">
        <ele>403</ele>
        <time>2018-06-25T08:57:21.121Z</time>
      </trkpt>
      <trkpt lat="47.36497" lon="3.98801">
        <ele>400</ele>
        <time>2018-06-25T08:57:22.121Z</time>
      </trkpt>
      <trkpt lat="47.36463" lon="3.98772">
        <ele>397</ele>
        <time>2018-06-25T08:57:23.121Z</time>
      </trkpt>
      <trkpt lat="47.36446" lon="3.98764">
        <ele>396</ele>
        <time>2018-06-25T08:57:24.121Z</time>
      </trkpt>
      <trkpt lat="47.36434" lon="3.98762">
        <ele>395</ele>
        <time>2018-06-25T08:57:25.121Z</time>
      </trkpt>
      <trkpt lat="47.36423" lon="3.98765">
        <ele>395</ele>
        <time>2018-06-25T08:57:26.121Z</time>
      </trkpt>
      <trkpt lat="47.36378" lon="3.98798">
        <ele>397</ele>
        <time>2018-06-25T08:57:27.121Z</time>
      </trkpt>
      <trkpt lat="47.36349" lon="3.9881">
        <ele>397</ele>
        <time>2018-06-25T08:57:28.121Z</time>
      </trkpt>
      <trkpt lat="47.36322" lon="3.98811">
        <ele>399</ele>
        <time>2018-06-25T08:57:29.121Z</time>
      </trkpt>
      <trkpt lat="47.36298" lon="3.98753">
        <ele>400</ele>
        <time>2018-06-25T08:57:30.121Z</time>
      </trkpt>
      <trkpt lat="47.36268" lon="3.98687">
        <ele>398</ele>
        <time>2018-06-25T08:57:31.121Z</time>
      </trkpt>
      <trkpt lat="47.36264" lon="3.9867">
        <ele>397</ele>
        <time>2018-06-25T08:57:32.121Z</time>
      </trkpt>
      <trkpt lat="47.36243" lon="3.9863">
        <ele>398</ele>
        <time>2018-06-25T08:57:33.121Z</time>
      </trkpt>
      <trkpt lat="47.36232" lon="3.98601">
        <ele>399</ele>
        <time>2018-06-25T08:57:34.121Z</time>
      </trkpt>
      <trkpt lat="47.36233" lon="3.986">
        <ele>399</ele>
        <time>2018-06-25T08:57:35.121Z</time>
      </trkpt>
      <trkpt lat="47.36192" lon="3.98437">
        <ele>413</ele>
        <time>2018-06-25T08:57:36.121Z</time>
      </trkpt>
      <trkpt lat="47.36184" lon="3.98415">
        <ele>415</ele>
        <time>2018-06-25T08:57:37.121Z</time>
      </trkpt>
      <trkpt lat="47.36118" lon="3.98336">
        <ele>428</ele>
        <time>2018-06-25T08:57:38.121Z</time>
      </trkpt>
      <trkpt lat="47.3611" lon="3.98319">
        <ele>429</ele>
        <time>2018-06-25T08:57:39.121Z</time>
      </trkpt>
      <trkpt lat="47.36092" lon="3.98332">
        <ele>432</ele>
        <time>2018-06-25T08:57:40.121Z</time>
      </trkpt>
      <trkpt lat="47.36078" lon="3.98348">
        <ele>435</ele>
        <time>2018-06-25T08:57:41.121Z</time>
      </trkpt>
      <trkpt lat="47.3607" lon="3.98365">
        <ele>436</ele>
        <time>2018-06-25T08:57:42.121Z</time>
      </trkpt>
      <trkpt lat="47.36022" lon="3.98415">
        <ele>439</ele>
        <time>2018-06-25T08:57:43.121Z</time>
      </trkpt>
      <trkpt lat="47.36006" lon="3.98447">
        <ele>442</ele>
        <time>2018-06-25T08:57:44.121Z</time>
      </trkpt>
      <trkpt lat="47.35989" lon="3.9847">
        <ele>445</ele>
        <time>2018-06-25T08:57:45.121Z</time>
      </trkpt>
      <trkpt lat="47.3598" lon="3.98478">
        <ele>446</ele>
        <time>2018-06-25T08:57:46.121Z</time>
      </trkpt>
      <trkpt lat="47.3596" lon="3.98486">
        <ele>448</ele>
        <time>2018-06-25T08:57:47.121Z</time>
      </trkpt>
      <trkpt lat="47.35944" lon="3.98488">
        <ele>449</ele>
        <time>2018-06-25T08:57:48.121Z</time>
      </trkpt>
      <trkpt lat="47.35876" lon="3.98481">
        <ele>452</ele>
        <time>2018-06-25T08:57:49.121Z</time>
      </trkpt>
      <trkpt lat="47.35836" lon="3.98469">
        <ele>453</ele>
        <time>2018-06-25T08:57:50.121Z</time>
      </trkpt>
      <trkpt lat="47.35808" lon="3.98475">
        <ele>456</ele>
        <time>2018-06-25T08:57:51.121Z</time>
      </trkpt>
      <trkpt lat="47.35803" lon="3.98478">
        <ele>456</ele>
        <time>2018-06-25T08:57:52.121Z</time>
      </trkpt>
      <trkpt lat="47.35803" lon="3.98478">
        <ele>456</ele>
        <time>2018-06-25T08:57:53.121Z</time>
      </trkpt>
      <trkpt lat="47.35791" lon="3.98484">
        <ele>458</ele>
        <time>2018-06-25T08:57:54.121Z</time>
      </trkpt>
      <trkpt lat="47.35769" lon="3.98504">
        <ele>463</ele>
        <time>2018-06-25T08:57:55.121Z</time>
      </trkpt>
      <trkpt lat="47.35735" lon="3.9855">
        <ele>466</ele>
        <time>2018-06-25T08:57:56.121Z</time>
      </trkpt>
      <trkpt lat="47.35709" lon="3.98594">
        <ele>467</ele>
        <time>2018-06-25T08:57:57.121Z</time>
      </trkpt>
      <trkpt lat="47.35669" lon="3.98667">
        <ele>468</ele>
        <time>2018-06-25T08:57:58.121Z</time>
      </trkpt>
      <trkpt lat="47.35696" lon="3.98789">
        <ele>478</ele>
        <time>2018-06-25T08:57:59.121Z</time>
      </trkpt>
      <trkpt lat="47.35689" lon="3.98803">
        <ele>479</ele>
        <time>2018-06-25T08:58:00.121Z</time>
      </trkpt>
      <trkpt lat="47.35682" lon="3.98814">
        <ele>480</ele>
        <time>2018-06-25T08:58:01.121Z</time>
      </trkpt>
      <trkpt lat="47.35622" lon="3.98842">
        <ele>486</ele>
        <time>2018-06-25T08:58:02.121Z</time>
      </trkpt>
      <trkpt lat="47.35619" lon="3.98867">
        <ele>490</ele>
        <time>2018-06-25T08:58:03.121Z</time>
      </trkpt>
      <trkpt lat="47.35613" lon="3.98943">
        <ele>500</ele>
        <time>2018-06-25T08:58:04.121Z</time>
      </trkpt>
      <trkpt lat="47.35606" lon="3.99006">
        <ele>506</ele>
        <time>2018-06-25T08:58:05.121Z</time>
      </trkpt>
      <trkpt lat="47.35581" lon="3.99091">
        <ele>510</ele>
        <time>2018-06-25T08:58:06.121Z</time>
      </trkpt>
      <trkpt lat="47.35577" lon="3.99143">
        <ele>508</ele>
        <time>2018-06-25T08:58:07.121Z</time>
      </trkpt>
      <trkpt lat="47.35634" lon="3.99288">
        <ele>507</ele>
        <time>2018-06-25T08:58:08.121Z</time>
      </trkpt>
      <trkpt lat="47.35665" lon="3.99329">
        <ele>509</ele>
        <time>2018-06-25T08:58:09.121Z</time>
      </trkpt>
      <trkpt lat="47.35681" lon="3.99354">
        <ele>506</ele>
        <time>2018-06-25T08:58:10.121Z</time>
      </trkpt>
      <trkpt lat="47.35705" lon="3.99376">
        <ele>502</ele>
        <time>2018-06-25T08:58:11.121Z</time>
      </trkpt>
      <trkpt lat="47.35767" lon="3.99458">
        <ele>500</ele>
        <time>2018-06-25T08:58:12.121Z</time>
      </trkpt>
      <trkpt lat="47.35806" lon="3.99527">
        <ele>498</ele>
        <time>2018-06-25T08:58:13.121Z</time>
      </trkpt>
      <trkpt lat="47.35844" lon="3.9963">
        <ele>497</ele>
        <time>2018-06-25T08:58:14.121Z</time>
      </trkpt>
      <trkpt lat="47.35862" lon="3.99658">
        <ele>495</ele>
        <time>2018-06-25T08:58:15.121Z</time>
      </trkpt>
      <trkpt lat="47.35875" lon="3.99698">
        <ele>494</ele>
        <time>2018-06-25T08:58:16.121Z</time>
      </trkpt>
      <trkpt lat="47.35879" lon="3.99734">
        <ele>494</ele>
        <time>2018-06-25T08:58:17.121Z</time>
      </trkpt>
      <trkpt lat="47.3587" lon="3.99749">
        <ele>496</ele>
        <time>2018-06-25T08:58:18.121Z</time>
      </trkpt>
      <trkpt lat="47.3587" lon="3.99749">
        <ele>496</ele>
        <time>2018-06-25T08:58:19.121Z</time>
      </trkpt>
      <trkpt lat="47.35859" lon="3.99761">
        <ele>497</ele>
        <time>2018-06-25T08:58:20.121Z</time>
      </trkpt>
      <trkpt lat="47.35843" lon="3.99794">
        <ele>498</ele>
        <time>2018-06-25T08:58:21.121Z</time>
      </trkpt>
      <trkpt lat="47.35805" lon="3.99836">
        <ele>498</ele>
        <time>2018-06-25T08:58:22.121Z</time>
      </trkpt>
      <trkpt lat="47.35789" lon="3.9986">
        <ele>497</ele>
        <time>2018-06-25T08:58:23.121Z</time>
      </trkpt>
      <trkpt lat="47.35783" lon="3.99896">
        <ele>496</ele>
        <time>2018-06-25T08:58:24.121Z</time>
      </trkpt>
      <trkpt lat="47.35762" lon="3.99933">
        <ele>495</ele>
        <time>2018-06-25T08:58:25.121Z</time>
      </trkpt>
      <trkpt lat="47.35707" lon="4.00012">
        <ele>491</ele>
        <time>2018-06-25T08:58:26.121Z</time>
      </trkpt>
      <trkpt lat="47.35665" lon="4.00078">
        <ele>491</ele>
        <time>2018-06-25T08:58:27.121Z</time>
      </trkpt>
      <trkpt lat="47.35656" lon="4.00101">
        <ele>492</ele>
        <time>2018-06-25T08:58:28.121Z</time>
      </trkpt>
      <trkpt lat="47.35677" lon="4.00139">
        <ele>493</ele>
        <time>2018-06-25T08:58:29.121Z</time>
      </trkpt>
      <trkpt lat="47.35692" lon="4.00158">
        <ele>493</ele>
        <time>2018-06-25T08:58:30.121Z</time>
      </trkpt>
      <trkpt lat="47.35706" lon="4.00171">
        <ele>493</ele>
        <time>2018-06-25T08:58:31.121Z</time>
      </trkpt>
      <trkpt lat="47.35722" lon="4.00181">
        <ele>493</ele>
        <time>2018-06-25T08:58:32.121Z</time>
      </trkpt>
      <trkpt lat="47.35735" lon="4.00187">
        <ele>492</ele>
        <time>2018-06-25T08:58:33.121Z</time>
      </trkpt>
      <trkpt lat="47.35761" lon="4.00193">
        <ele>490</ele>
        <time>2018-06-25T08:58:34.121Z</time>
      </trkpt>
      <trkpt lat="47.358" lon="4.00216">
        <ele>485</ele>
        <time>2018-06-25T08:58:35.121Z</time>
      </trkpt>
      <trkpt lat="47.35809" lon="4.00229">
        <ele>485</ele>
        <time>2018-06-25T08:58:36.121Z</time>
      </trkpt>
      <trkpt lat="47.35818" lon="4.00247">
        <ele>485</ele>
        <time>2018-06-25T08:58:37.121Z</time>
      </trkpt>
      <trkpt lat="47.35829" lon="4.00267">
        <ele>484</ele>
        <time>2018-06-25T08:58:38.121Z</time>
      </trkpt>
      <trkpt lat="47.3584" lon="4.00281">
        <ele>482</ele>
        <time>2018-06-25T08:58:39.121Z</time>
      </trkpt>
      <trkpt lat="47.35876" lon="4.00315">
        <ele>472</ele>
        <time>2018-06-25T08:58:40.121Z</time>
      </trkpt>
      <trkpt lat="47.35887" lon="4.00317">
        <ele>468</ele>
        <time>2018-06-25T08:58:41.121Z</time>
      </trkpt>
      <trkpt lat="47.35917" lon="4.00355">
        <ele>461</ele>
        <time>2018-06-25T08:58:42.121Z</time>
      </trkpt>
      <trkpt lat="47.35927" lon="4.00369">
        <ele>461</ele>
        <time>2018-06-25T08:58:43.121Z</time>
      </trkpt>
      <trkpt lat="47.35934" lon="4.00384">
        <ele>461</ele>
        <time>2018-06-25T08:58:44.121Z</time>
      </trkpt>
      <trkpt lat="47.35936" lon="4.00398">
        <ele>461</ele>
        <time>2018-06-25T08:58:45.121Z</time>
      </trkpt>
      <trkpt lat="47.35957" lon="4.00416">
        <ele>460</ele>
        <time>2018-06-25T08:58:46.121Z</time>
      </trkpt>
      <trkpt lat="47.35964" lon="4.00419">
        <ele>459</ele>
        <time>2018-06-25T08:58:47.121Z</time>
      </trkpt>
      <trkpt lat="47.3597" lon="4.00418">
        <ele>458</ele>
        <time>2018-06-25T08:58:48.121Z</time>
      </trkpt>
      <trkpt lat="47.35975" lon="4.00414">
        <ele>458</ele>
        <time>2018-06-25T08:58:49.121Z</time>
      </trkpt>
      <trkpt lat="47.36001" lon="4.0038">
        <ele>453</ele>
        <time>2018-06-25T08:58:50.121Z</time>
      </trkpt>
      <trkpt lat="47.3601" lon="4.0038">
        <ele>453</ele>
        <time>2018-06-25T08:58:51.121Z</time>
      </trkpt>
      <trkpt lat="47.3603" lon="4.00406">
        <ele>455</ele>
        <time>2018-06-25T08:58:52.121Z</time>
      </trkpt>
      <trkpt lat="47.3603" lon="4.00405">
        <ele>454</ele>
        <time>2018-06-25T08:58:53.121Z</time>
      </trkpt>
      <trkpt lat="47.36108" lon="4.00503">
        <ele>457</ele>
        <time>2018-06-25T08:58:54.121Z</time>
      </trkpt>
      <trkpt lat="47.36135" lon="4.00549">
        <ele>458</ele>
        <time>2018-06-25T08:58:55.121Z</time>
      </trkpt>
      <trkpt lat="47.36108" lon="4.00561">
        <ele>459</ele>
        <time>2018-06-25T08:58:56.121Z</time>
      </trkpt>
      <trkpt lat="47.36112" lon="4.00577">
        <ele>459</ele>
        <time>2018-06-25T08:58:57.121Z</time>
      </trkpt>
      <trkpt lat="47.36141" lon="4.00613">
        <ele>458</ele>
        <time>2018-06-25T08:58:58.121Z</time>
      </trkpt>
      <trkpt lat="47.36087" lon="4.00707">
        <ele>460</ele>
        <time>2018-06-25T08:58:59.121Z</time>
      </trkpt>
      <trkpt lat="47.36056" lon="4.00783">
        <ele>463</ele>
        <time>2018-06-25T08:59:00.121Z</time>
      </trkpt>
      <trkpt lat="47.3604" lon="4.0084">
        <ele>462</ele>
        <time>2018-06-25T08:59:01.121Z</time>
      </trkpt>
      <trkpt lat="47.36027" lon="4.00934">
        <ele>460</ele>
        <time>2018-06-25T08:59:02.121Z</time>
      </trkpt>
      <trkpt lat="47.36024" lon="4.0095">
        <ele>459</ele>
        <time>2018-06-25T08:59:03.121Z</time>
      </trkpt>
      <trkpt lat="47.36025" lon="4.0095">
        <ele>459</ele>
        <time>2018-06-25T08:59:04.121Z</time>
      </trkpt>
      <trkpt lat="47.36017" lon="4.00982">
        <ele>458</ele>
        <time>2018-06-25T08:59:05.121Z</time>
      </trkpt>
      <trkpt lat="47.3594" lon="4.0112">
        <ele>449</ele>
        <time>2018-06-25T08:59:06.121Z</time>
      </trkpt>
      <trkpt lat="47.35935" lon="4.01134">
        <ele>448</ele>
        <time>2018-06-25T08:59:07.121Z</time>
      </trkpt>
      <trkpt lat="47.35933" lon="4.01149">
        <ele>447</ele>
        <time>2018-06-25T08:59:08.121Z</time>
      </trkpt>
      <trkpt lat="47.35941" lon="4.01261">
        <ele>441</ele>
        <time>2018-06-25T08:59:09.121Z</time>
      </trkpt>
      <trkpt lat="47.35935" lon="4.013">
        <ele>440</ele>
        <time>2018-06-25T08:59:10.121Z</time>
      </trkpt>
      <trkpt lat="47.35923" lon="4.01338">
        <ele>439</ele>
        <time>2018-06-25T08:59:11.121Z</time>
      </trkpt>
      <trkpt lat="47.35935" lon="4.01361">
        <ele>438</ele>
        <time>2018-06-25T08:59:12.121Z</time>
      </trkpt>
      <trkpt lat="47.35966" lon="4.014">
        <ele>437</ele>
        <time>2018-06-25T08:59:13.121Z</time>
      </trkpt>
      <trkpt lat="47.35991" lon="4.01419">
        <ele>436</ele>
        <time>2018-06-25T08:59:14.121Z</time>
      </trkpt>
      <trkpt lat="47.36" lon="4.01428">
        <ele>436</ele>
        <time>2018-06-25T08:59:15.121Z</time>
      </trkpt>
      <trkpt lat="47.35998" lon="4.01443">
        <ele>435</ele>
        <time>2018-06-25T08:59:16.121Z</time>
      </trkpt>
      <trkpt lat="47.35993" lon="4.01458">
        <ele>435</ele>
        <time>2018-06-25T08:59:17.121Z</time>
      </trkpt>
      <trkpt lat="47.35986" lon="4.01469">
        <ele>434</ele>
        <time>2018-06-25T08:59:18.121Z</time>
      </trkpt>
      <trkpt lat="47.35973" lon="4.01471">
        <ele>434</ele>
        <time>2018-06-25T08:59:19.121Z</time>
      </trkpt>
      <trkpt lat="47.35959" lon="4.01466">
        <ele>435</ele>
        <time>2018-06-25T08:59:20.121Z</time>
      </trkpt>
      <trkpt lat="47.35953" lon="4.01473">
        <ele>435</ele>
        <time>2018-06-25T08:59:21.121Z</time>
      </trkpt>
      <trkpt lat="47.35953" lon="4.0148">
        <ele>434</ele>
        <time>2018-06-25T08:59:22.121Z</time>
      </trkpt>
      <trkpt lat="47.3603" lon="4.01638">
        <ele>431</ele>
        <time>2018-06-25T08:59:23.121Z</time>
      </trkpt>
      <trkpt lat="47.36042" lon="4.01644">
        <ele>432</ele>
        <time>2018-06-25T08:59:24.121Z</time>
      </trkpt>
      <trkpt lat="47.36052" lon="4.01641">
        <ele>433</ele>
        <time>2018-06-25T08:59:25.121Z</time>
      </trkpt>
      <trkpt lat="47.36067" lon="4.01634">
        <ele>434</ele>
        <time>2018-06-25T08:59:26.121Z</time>
      </trkpt>
      <trkpt lat="47.36085" lon="4.01621">
        <ele>434</ele>
        <time>2018-06-25T08:59:27.121Z</time>
      </trkpt>
      <trkpt lat="47.36099" lon="4.01613">
        <ele>435</ele>
        <time>2018-06-25T08:59:28.121Z</time>
      </trkpt>
      <trkpt lat="47.36113" lon="4.0161">
        <ele>437</ele>
        <time>2018-06-25T08:59:29.121Z</time>
      </trkpt>
      <trkpt lat="47.36132" lon="4.01626">
        <ele>440</ele>
        <time>2018-06-25T08:59:30.121Z</time>
      </trkpt>
      <trkpt lat="47.36181" lon="4.01661">
        <ele>446</ele>
        <time>2018-06-25T08:59:31.121Z</time>
      </trkpt>
      <trkpt lat="47.36189" lon="4.01659">
        <ele>446</ele>
        <time>2018-06-25T08:59:32.121Z</time>
      </trkpt>
      <trkpt lat="47.36219" lon="4.01666">
        <ele>448</ele>
        <time>2018-06-25T08:59:33.121Z</time>
      </trkpt>
      <trkpt lat="47.3624" lon="4.01663">
        <ele>449</ele>
        <time>2018-06-25T08:59:34.121Z</time>
      </trkpt>
      <trkpt lat="47.36249" lon="4.01656">
        <ele>450</ele>
        <time>2018-06-25T08:59:35.121Z</time>
      </trkpt>
      <trkpt lat="47.36261" lon="4.01643">
        <ele>450</ele>
        <time>2018-06-25T08:59:36.121Z</time>
      </trkpt>
      <trkpt lat="47.36275" lon="4.01635">
        <ele>449</ele>
        <time>2018-06-25T08:59:37.121Z</time>
      </trkpt>
      <trkpt lat="47.36293" lon="4.01629">
        <ele>449</ele>
        <time>2018-06-25T08:59:38.121Z</time>
      </trkpt>
      <trkpt lat="47.36301" lon="4.01629">
        <ele>449</ele>
        <time>2018-06-25T08:59:39.121Z</time>
      </trkpt>
      <trkpt lat="47.36357" lon="4.01649">
        <ele>445</ele>
        <time>2018-06-25T08:59:40.121Z</time>
      </trkpt>
      <trkpt lat="47.36378" lon="4.01654">
        <ele>441</ele>
        <time>2018-06-25T08:59:41.121Z</time>
      </trkpt>
      <trkpt lat="47.36397" lon="4.01656">
        <ele>437</ele>
        <time>2018-06-25T08:59:42.121Z</time>
      </trkpt>
      <trkpt lat="47.36406" lon="4.01652">
        <ele>435</ele>
        <time>2018-06-25T08:59:43.121Z</time>
      </trkpt>
      <trkpt lat="47.36471" lon="4.01695">
        <ele>424</ele>
        <time>2018-06-25T08:59:44.121Z</time>
      </trkpt>
      <trkpt lat="47.36553" lon="4.01745">
        <ele>414</ele>
        <time>2018-06-25T08:59:45.121Z</time>
      </trkpt>
      <trkpt lat="47.36585" lon="4.01789">
        <ele>410</ele>
        <time>2018-06-25T08:59:46.121Z</time>
      </trkpt>
      <trkpt lat="47.366" lon="4.01829">
        <ele>408</ele>
        <time>2018-06-25T08:59:47.121Z</time>
      </trkpt>
      <trkpt lat="47.36621" lon="4.01939">
        <ele>402</ele>
        <time>2018-06-25T08:59:48.121Z</time>
      </trkpt>
      <trkpt lat="47.36632" lon="4.02027">
        <ele>403</ele>
        <time>2018-06-25T08:59:49.121Z</time>
      </trkpt>
      <trkpt lat="47.3664" lon="4.02051">
        <ele>402</ele>
        <time>2018-06-25T08:59:50.121Z</time>
      </trkpt>
      <trkpt lat="47.36659" lon="4.02102">
        <ele>399</ele>
        <time>2018-06-25T08:59:51.121Z</time>
      </trkpt>
      <trkpt lat="47.36666" lon="4.02135">
        <ele>397</ele>
        <time>2018-06-25T08:59:52.121Z</time>
      </trkpt>
      <trkpt lat="47.36676" lon="4.0215">
        <ele>396</ele>
        <time>2018-06-25T08:59:53.121Z</time>
      </trkpt>
      <trkpt lat="47.36678" lon="4.02158">
        <ele>396</ele>
        <time>2018-06-25T08:59:54.121Z</time>
      </trkpt>
      <trkpt lat="47.36675" lon="4.02185">
        <ele>395</ele>
        <time>2018-06-25T08:59:55.121Z</time>
      </trkpt>
      <trkpt lat="47.3667" lon="4.022">
        <ele>395</ele>
        <time>2018-06-25T08:59:56.121Z</time>
      </trkpt>
      <trkpt lat="47.36656" lon="4.02223">
        <ele>396</ele>
        <time>2018-06-25T08:59:57.121Z</time>
      </trkpt>
      <trkpt lat="47.36641" lon="4.02262">
        <ele>397</ele>
        <time>2018-06-25T08:59:58.121Z</time>
      </trkpt>
      <trkpt lat="47.36631" lon="4.02284">
        <ele>398</ele>
        <time>2018-06-25T08:59:59.121Z</time>
      </trkpt>
      <trkpt lat="47.36626" lon="4.02307">
        <ele>399</ele>
        <time>2018-06-25T09:00:00.121Z</time>
      </trkpt>
      <trkpt lat="47.36616" lon="4.02337">
        <ele>400</ele>
        <time>2018-06-25T09:00:01.121Z</time>
      </trkpt>
      <trkpt lat="47.36615" lon="4.02368">
        <ele>400</ele>
        <time>2018-06-25T09:00:02.121Z</time>
      </trkpt>
      <trkpt lat="47.36624" lon="4.0244">
        <ele>400</ele>
        <time>2018-06-25T09:00:03.121Z</time>
      </trkpt>
      <trkpt lat="47.36617" lon="4.02474">
        <ele>399</ele>
        <time>2018-06-25T09:00:04.121Z</time>
      </trkpt>
      <trkpt lat="47.36584" lon="4.02526">
        <ele>394</ele>
        <time>2018-06-25T09:00:05.121Z</time>
      </trkpt>
      <trkpt lat="47.3655" lon="4.02559">
        <ele>391</ele>
        <time>2018-06-25T09:00:06.121Z</time>
      </trkpt>
      <trkpt lat="47.36489" lon="4.02597">
        <ele>387</ele>
        <time>2018-06-25T09:00:07.121Z</time>
      </trkpt>
      <trkpt lat="47.36489" lon="4.02597">
        <ele>387</ele>
        <time>2018-06-25T09:00:08.121Z</time>
      </trkpt>
      <trkpt lat="47.36419" lon="4.02677">
        <ele>377</ele>
        <time>2018-06-25T09:00:09.121Z</time>
      </trkpt>
      <trkpt lat="47.36393" lon="4.0271">
        <ele>379</ele>
        <time>2018-06-25T09:00:10.121Z</time>
      </trkpt>
      <trkpt lat="47.36371" lon="4.02781">
        <ele>382</ele>
        <time>2018-06-25T09:00:11.121Z</time>
      </trkpt>
      <trkpt lat="47.36378" lon="4.02879">
        <ele>381</ele>
        <time>2018-06-25T09:00:12.121Z</time>
      </trkpt>
      <trkpt lat="47.36379" lon="4.02939">
        <ele>378</ele>
        <time>2018-06-25T09:00:13.121Z</time>
      </trkpt>
      <trkpt lat="47.36373" lon="4.03021">
        <ele>372</ele>
        <time>2018-06-25T09:00:14.121Z</time>
      </trkpt>
      <trkpt lat="47.36256" lon="4.03043">
        <ele>376</ele>
        <time>2018-06-25T09:00:15.121Z</time>
      </trkpt>
      <trkpt lat="47.36228" lon="4.03041">
        <ele>376</ele>
        <time>2018-06-25T09:00:16.121Z</time>
      </trkpt>
      <trkpt lat="47.36203" lon="4.03034">
        <ele>376</ele>
        <time>2018-06-25T09:00:17.121Z</time>
      </trkpt>
      <trkpt lat="47.36144" lon="4.03009">
        <ele>375</ele>
        <time>2018-06-25T09:00:18.121Z</time>
      </trkpt>
      <trkpt lat="47.36136" lon="4.03008">
        <ele>374</ele>
        <time>2018-06-25T09:00:19.121Z</time>
      </trkpt>
      <trkpt lat="47.36126" lon="4.03011">
        <ele>374</ele>
        <time>2018-06-25T09:00:20.121Z</time>
      </trkpt>
      <trkpt lat="47.361" lon="4.03032">
        <ele>372</ele>
        <time>2018-06-25T09:00:21.121Z</time>
      </trkpt>
      <trkpt lat="47.36054" lon="4.03078">
        <ele>371</ele>
        <time>2018-06-25T09:00:22.121Z</time>
      </trkpt>
      <trkpt lat="47.36048" lon="4.03088">
        <ele>372</ele>
        <time>2018-06-25T09:00:23.121Z</time>
      </trkpt>
      <trkpt lat="47.36037" lon="4.0313">
        <ele>372</ele>
        <time>2018-06-25T09:00:24.121Z</time>
      </trkpt>
      <trkpt lat="47.36023" lon="4.03166">
        <ele>373</ele>
        <time>2018-06-25T09:00:25.121Z</time>
      </trkpt>
      <trkpt lat="47.36015" lon="4.0318">
        <ele>374</ele>
        <time>2018-06-25T09:00:26.121Z</time>
      </trkpt>
      <trkpt lat="47.36011" lon="4.03201">
        <ele>376</ele>
        <time>2018-06-25T09:00:27.121Z</time>
      </trkpt>
      <trkpt lat="47.35994" lon="4.03199">
        <ele>376</ele>
        <time>2018-06-25T09:00:28.121Z</time>
      </trkpt>
      <trkpt lat="47.35943" lon="4.03201">
        <ele>378</ele>
        <time>2018-06-25T09:00:29.121Z</time>
      </trkpt>
      <trkpt lat="47.35938" lon="4.03198">
        <ele>378</ele>
        <time>2018-06-25T09:00:30.121Z</time>
      </trkpt>
      <trkpt lat="47.35869" lon="4.03243">
        <ele>381</ele>
        <time>2018-06-25T09:00:31.121Z</time>
      </trkpt>
      <trkpt lat="47.35849" lon="4.03266">
        <ele>381</ele>
        <time>2018-06-25T09:00:32.121Z</time>
      </trkpt>
      <trkpt lat="47.35826" lon="4.03304">
        <ele>382</ele>
        <time>2018-06-25T09:00:33.121Z</time>
      </trkpt>
      <trkpt lat="47.35822" lon="4.03334">
        <ele>383</ele>
        <time>2018-06-25T09:00:34.121Z</time>
      </trkpt>
      <trkpt lat="47.35822" lon="4.0337">
        <ele>386</ele>
        <time>2018-06-25T09:00:35.121Z</time>
      </trkpt>
      <trkpt lat="47.3582" lon="4.03386">
        <ele>387</ele>
        <time>2018-06-25T09:00:36.121Z</time>
      </trkpt>
      <trkpt lat="47.35807" lon="4.03425">
        <ele>388</ele>
        <time>2018-06-25T09:00:37.121Z</time>
      </trkpt>
      <trkpt lat="47.35798" lon="4.03442">
        <ele>389</ele>
        <time>2018-06-25T09:00:38.121Z</time>
      </trkpt>
      <trkpt lat="47.3578" lon="4.03463">
        <ele>388</ele>
        <time>2018-06-25T09:00:39.121Z</time>
      </trkpt>
      <trkpt lat="47.35759" lon="4.0348">
        <ele>386</ele>
        <time>2018-06-25T09:00:40.121Z</time>
      </trkpt>
      <trkpt lat="47.35715" lon="4.03496">
        <ele>384</ele>
        <time>2018-06-25T09:00:41.121Z</time>
      </trkpt>
      <trkpt lat="47.35709" lon="4.03501">
        <ele>384</ele>
        <time>2018-06-25T09:00:42.121Z</time>
      </trkpt>
      <trkpt lat="47.35704" lon="4.03517">
        <ele>385</ele>
        <time>2018-06-25T09:00:43.121Z</time>
      </trkpt>
      <trkpt lat="47.35702" lon="4.03571">
        <ele>389</ele>
        <time>2018-06-25T09:00:44.121Z</time>
      </trkpt>
      <trkpt lat="47.35708" lon="4.0359">
        <ele>391</ele>
        <time>2018-06-25T09:00:45.121Z</time>
      </trkpt>
      <trkpt lat="47.35729" lon="4.03634">
        <ele>393</ele>
        <time>2018-06-25T09:00:46.121Z</time>
      </trkpt>
      <trkpt lat="47.35777" lon="4.03698">
        <ele>397</ele>
        <time>2018-06-25T09:00:47.121Z</time>
      </trkpt>
      <trkpt lat="47.35892" lon="4.03779">
        <ele>398</ele>
        <time>2018-06-25T09:00:48.121Z</time>
      </trkpt>
      <trkpt lat="47.35904" lon="4.03802">
        <ele>399</ele>
        <time>2018-06-25T09:00:49.121Z</time>
      </trkpt>
      <trkpt lat="47.35931" lon="4.03824">
        <ele>400</ele>
        <time>2018-06-25T09:00:50.121Z</time>
      </trkpt>
      <trkpt lat="47.35936" lon="4.0384">
        <ele>401</ele>
        <time>2018-06-25T09:00:51.121Z</time>
      </trkpt>
      <trkpt lat="47.35954" lon="4.03858">
        <ele>402</ele>
        <time>2018-06-25T09:00:52.121Z</time>
      </trkpt>
      <trkpt lat="47.35973" lon="4.03867">
        <ele>404</ele>
        <time>2018-06-25T09:00:53.121Z</time>
      </trkpt>
      <trkpt lat="47.36" lon="4.03942">
        <ele>401</ele>
        <time>2018-06-25T09:00:54.121Z</time>
      </trkpt>
      <trkpt lat="47.36027" lon="4.03969">
        <ele>405</ele>
        <time>2018-06-25T09:00:55.121Z</time>
      </trkpt>
      <trkpt lat="47.36045" lon="4.03999">
        <ele>407</ele>
        <time>2018-06-25T09:00:56.121Z</time>
      </trkpt>
      <trkpt lat="47.36106" lon="4.04085">
        <ele>410</ele>
        <time>2018-06-25T09:00:57.121Z</time>
      </trkpt>
      <trkpt lat="47.36159" lon="4.04173">
        <ele>416</ele>
        <time>2018-06-25T09:00:58.121Z</time>
      </trkpt>
      <trkpt lat="47.36172" lon="4.04236">
        <ele>415</ele>
        <time>2018-06-25T09:00:59.121Z</time>
      </trkpt>
      <trkpt lat="47.36162" lon="4.04348">
        <ele>413</ele>
        <time>2018-06-25T09:01:00.121Z</time>
      </trkpt>
      <trkpt lat="47.36175" lon="4.0443">
        <ele>418</ele>
        <time>2018-06-25T09:01:01.121Z</time>
      </trkpt>
      <trkpt lat="47.36173" lon="4.04456">
        <ele>418</ele>
        <time>2018-06-25T09:01:02.121Z</time>
      </trkpt>
      <trkpt lat="47.36166" lon="4.04476">
        <ele>417</ele>
        <time>2018-06-25T09:01:03.121Z</time>
      </trkpt>
      <trkpt lat="47.3615" lon="4.04502">
        <ele>419</ele>
        <time>2018-06-25T09:01:04.121Z</time>
      </trkpt>
      <trkpt lat="47.36144" lon="4.04559">
        <ele>420</ele>
        <time>2018-06-25T09:01:05.121Z</time>
      </trkpt>
      <trkpt lat="47.36156" lon="4.04636">
        <ele>421</ele>
        <time>2018-06-25T09:01:06.121Z</time>
      </trkpt>
      <trkpt lat="47.36154" lon="4.04655">
        <ele>422</ele>
        <time>2018-06-25T09:01:07.121Z</time>
      </trkpt>
      <trkpt lat="47.36165" lon="4.04684">
        <ele>421</ele>
        <time>2018-06-25T09:01:08.121Z</time>
      </trkpt>
      <trkpt lat="47.36214" lon="4.04839">
        <ele>429</ele>
        <time>2018-06-25T09:01:09.121Z</time>
      </trkpt>
      <trkpt lat="47.36193" lon="4.04881">
        <ele>423</ele>
        <time>2018-06-25T09:01:10.121Z</time>
      </trkpt>
      <trkpt lat="47.36181" lon="4.04896">
        <ele>420</ele>
        <time>2018-06-25T09:01:11.121Z</time>
      </trkpt>
      <trkpt lat="47.36175" lon="4.04926">
        <ele>419</ele>
        <time>2018-06-25T09:01:12.121Z</time>
      </trkpt>
      <trkpt lat="47.36147" lon="4.04927">
        <ele>419</ele>
        <time>2018-06-25T09:01:13.121Z</time>
      </trkpt>
      <trkpt lat="47.36128" lon="4.04918">
        <ele>421</ele>
        <time>2018-06-25T09:01:14.121Z</time>
      </trkpt>
      <trkpt lat="47.36098" lon="4.04971">
        <ele>421</ele>
        <time>2018-06-25T09:01:15.121Z</time>
      </trkpt>
      <trkpt lat="47.36073" lon="4.05005">
        <ele>421</ele>
        <time>2018-06-25T09:01:16.121Z</time>
      </trkpt>
      <trkpt lat="47.36069" lon="4.05025">
        <ele>423</ele>
        <time>2018-06-25T09:01:17.121Z</time>
      </trkpt>
      <trkpt lat="47.36058" lon="4.05045">
        <ele>424</ele>
        <time>2018-06-25T09:01:18.121Z</time>
      </trkpt>
      <trkpt lat="47.36046" lon="4.05055">
        <ele>425</ele>
        <time>2018-06-25T09:01:19.121Z</time>
      </trkpt>
      <trkpt lat="47.36037" lon="4.05053">
        <ele>425</ele>
        <time>2018-06-25T09:01:20.121Z</time>
      </trkpt>
      <trkpt lat="47.36026" lon="4.05061">
        <ele>425</ele>
        <time>2018-06-25T09:01:21.121Z</time>
      </trkpt>
      <trkpt lat="47.3602" lon="4.05091">
        <ele>425</ele>
        <time>2018-06-25T09:01:22.121Z</time>
      </trkpt>
      <trkpt lat="47.35999" lon="4.05122">
        <ele>428</ele>
        <time>2018-06-25T09:01:23.121Z</time>
      </trkpt>
      <trkpt lat="47.35971" lon="4.05149">
        <ele>429</ele>
        <time>2018-06-25T09:01:24.121Z</time>
      </trkpt>
      <trkpt lat="47.35932" lon="4.05209">
        <ele>433</ele>
        <time>2018-06-25T09:01:25.121Z</time>
      </trkpt>
      <trkpt lat="47.35912" lon="4.0523">
        <ele>434</ele>
        <time>2018-06-25T09:01:26.121Z</time>
      </trkpt>
      <trkpt lat="47.35885" lon="4.05246">
        <ele>435</ele>
        <time>2018-06-25T09:01:27.121Z</time>
      </trkpt>
      <trkpt lat="47.35812" lon="4.05266">
        <ele>439</ele>
        <time>2018-06-25T09:01:28.121Z</time>
      </trkpt>
      <trkpt lat="47.35767" lon="4.05315">
        <ele>444</ele>
        <time>2018-06-25T09:01:29.121Z</time>
      </trkpt>
      <trkpt lat="47.35759" lon="4.05345">
        <ele>442</ele>
        <time>2018-06-25T09:01:30.121Z</time>
      </trkpt>
      <trkpt lat="47.35756" lon="4.05378">
        <ele>442</ele>
        <time>2018-06-25T09:01:31.121Z</time>
      </trkpt>
      <trkpt lat="47.35743" lon="4.05417">
        <ele>442</ele>
        <time>2018-06-25T09:01:32.121Z</time>
      </trkpt>
      <trkpt lat="47.35748" lon="4.0568">
        <ele>447</ele>
        <time>2018-06-25T09:01:33.121Z</time>
      </trkpt>
      <trkpt lat="47.3578" lon="4.0572">
        <ele>451</ele>
        <time>2018-06-25T09:01:34.121Z</time>
      </trkpt>
      <trkpt lat="47.35826" lon="4.05757">
        <ele>455</ele>
        <time>2018-06-25T09:01:35.121Z</time>
      </trkpt>
      <trkpt lat="47.35928" lon="4.0582">
        <ele>464</ele>
        <time>2018-06-25T09:01:36.121Z</time>
      </trkpt>
      <trkpt lat="47.35956" lon="4.05848">
        <ele>464</ele>
        <time>2018-06-25T09:01:37.121Z</time>
      </trkpt>
      <trkpt lat="47.36006" lon="4.05914">
        <ele>461</ele>
        <time>2018-06-25T09:01:38.121Z</time>
      </trkpt>
      <trkpt lat="47.35967" lon="4.05967">
        <ele>463</ele>
        <time>2018-06-25T09:01:39.121Z</time>
      </trkpt>
      <trkpt lat="47.35947" lon="4.05988">
        <ele>465</ele>
        <time>2018-06-25T09:01:40.121Z</time>
      </trkpt>
      <trkpt lat="47.35908" lon="4.06015">
        <ele>470</ele>
        <time>2018-06-25T09:01:41.121Z</time>
      </trkpt>
      <trkpt lat="47.35884" lon="4.06003">
        <ele>471</ele>
        <time>2018-06-25T09:01:42.121Z</time>
      </trkpt>
      <trkpt lat="47.3583" lon="4.05989">
        <ele>473</ele>
        <time>2018-06-25T09:01:43.121Z</time>
      </trkpt>
      <trkpt lat="47.35823" lon="4.06014">
        <ele>473</ele>
        <time>2018-06-25T09:01:44.121Z</time>
      </trkpt>
      <trkpt lat="47.35817" lon="4.06058">
        <ele>472</ele>
        <time>2018-06-25T09:01:45.121Z</time>
      </trkpt>
      <trkpt lat="47.35848" lon="4.06087">
        <ele>474</ele>
        <time>2018-06-25T09:01:46.121Z</time>
      </trkpt>
      <trkpt lat="47.35895" lon="4.06121">
        <ele>476</ele>
        <time>2018-06-25T09:01:47.121Z</time>
      </trkpt>
      <trkpt lat="47.35901" lon="4.06134">
        <ele>477</ele>
        <time>2018-06-25T09:01:48.121Z</time>
      </trkpt>
      <trkpt lat="47.35905" lon="4.06137">
        <ele>478</ele>
        <time>2018-06-25T09:01:49.121Z</time>
      </trkpt>
      <trkpt lat="47.35872" lon="4.06211">
        <ele>478</ele>
        <time>2018-06-25T09:01:50.121Z</time>
      </trkpt>
      <trkpt lat="47.35862" lon="4.06239">
        <ele>478</ele>
        <time>2018-06-25T09:01:51.121Z</time>
      </trkpt>
      <trkpt lat="47.35846" lon="4.06338">
        <ele>481</ele>
        <time>2018-06-25T09:01:52.121Z</time>
      </trkpt>
      <trkpt lat="47.35773" lon="4.06478">
        <ele>489</ele>
        <time>2018-06-25T09:01:53.121Z</time>
      </trkpt>
      <trkpt lat="47.35741" lon="4.06554">
        <ele>493</ele>
        <time>2018-06-25T09:01:54.121Z</time>
      </trkpt>
      <trkpt lat="47.35728" lon="4.06591">
        <ele>497</ele>
        <time>2018-06-25T09:01:55.121Z</time>
      </trkpt>
      <trkpt lat="47.35726" lon="4.06663">
        <ele>507</ele>
        <time>2018-06-25T09:01:56.121Z</time>
      </trkpt>
      <trkpt lat="47.35709" lon="4.06708">
        <ele>512</ele>
        <time>2018-06-25T09:01:57.121Z</time>
      </trkpt>
      <trkpt lat="47.35709" lon="4.06708">
        <ele>512</ele>
        <time>2018-06-25T09:01:58.121Z</time>
      </trkpt>
      <trkpt lat="47.3568" lon="4.06759">
        <ele>517</ele>
        <time>2018-06-25T09:01:59.121Z</time>
      </trkpt>
      <trkpt lat="47.35674" lon="4.06756">
        <ele>516</ele>
        <time>2018-06-25T09:02:00.121Z</time>
      </trkpt>
      <trkpt lat="47.35665" lon="4.06757">
        <ele>516</ele>
        <time>2018-06-25T09:02:01.121Z</time>
      </trkpt>
      <trkpt lat="47.35641" lon="4.06771">
        <ele>514</ele>
        <time>2018-06-25T09:02:02.121Z</time>
      </trkpt>
      <trkpt lat="47.35613" lon="4.06794">
        <ele>510</ele>
        <time>2018-06-25T09:02:03.121Z</time>
      </trkpt>
      <trkpt lat="47.35588" lon="4.0683">
        <ele>507</ele>
        <time>2018-06-25T09:02:04.121Z</time>
      </trkpt>
      <trkpt lat="47.35546" lon="4.06916">
        <ele>504</ele>
        <time>2018-06-25T09:02:05.121Z</time>
      </trkpt>
      <trkpt lat="47.35529" lon="4.06948">
        <ele>505</ele>
        <time>2018-06-25T09:02:06.121Z</time>
      </trkpt>
      <trkpt lat="47.35519" lon="4.06954">
        <ele>504</ele>
        <time>2018-06-25T09:02:07.121Z</time>
      </trkpt>
      <trkpt lat="47.35446" lon="4.06959">
        <ele>500</ele>
        <time>2018-06-25T09:02:08.121Z</time>
      </trkpt>
      <trkpt lat="47.35376" lon="4.06981">
        <ele>502</ele>
        <time>2018-06-25T09:02:09.121Z</time>
      </trkpt>
      <trkpt lat="47.35211" lon="4.07058">
        <ele>503</ele>
        <time>2018-06-25T09:02:10.121Z</time>
      </trkpt>
      <trkpt lat="47.35194" lon="4.07083">
        <ele>504</ele>
        <time>2018-06-25T09:02:11.121Z</time>
      </trkpt>
      <trkpt lat="47.35185" lon="4.07112">
        <ele>505</ele>
        <time>2018-06-25T09:02:12.121Z</time>
      </trkpt>
      <trkpt lat="47.35154" lon="4.07189">
        <ele>506</ele>
        <time>2018-06-25T09:02:13.121Z</time>
      </trkpt>
      <trkpt lat="47.3514" lon="4.07233">
        <ele>507</ele>
        <time>2018-06-25T09:02:14.121Z</time>
      </trkpt>
      <trkpt lat="47.35138" lon="4.07253">
        <ele>508</ele>
        <time>2018-06-25T09:02:15.121Z</time>
      </trkpt>
      <trkpt lat="47.35091" lon="4.07383">
        <ele>503</ele>
        <time>2018-06-25T09:02:16.121Z</time>
      </trkpt>
      <trkpt lat="47.3507" lon="4.07468">
        <ele>502</ele>
        <time>2018-06-25T09:02:17.121Z</time>
      </trkpt>
      <trkpt lat="47.3505" lon="4.075">
        <ele>501</ele>
        <time>2018-06-25T09:02:18.121Z</time>
      </trkpt>
      <trkpt lat="47.35009" lon="4.07546">
        <ele>505</ele>
        <time>2018-06-25T09:02:19.121Z</time>
      </trkpt>
      <trkpt lat="47.34973" lon="4.07629">
        <ele>512</ele>
        <time>2018-06-25T09:02:20.121Z</time>
      </trkpt>
      <trkpt lat="47.34947" lon="4.07694">
        <ele>515</ele>
        <time>2018-06-25T09:02:21.121Z</time>
      </trkpt>
      <trkpt lat="47.34934" lon="4.07757">
        <ele>515</ele>
        <time>2018-06-25T09:02:22.121Z</time>
      </trkpt>
      <trkpt lat="47.34915" lon="4.07786">
        <ele>514</ele>
        <time>2018-06-25T09:02:23.121Z</time>
      </trkpt>
      <trkpt lat="47.34898" lon="4.07745">
        <ele>514</ele>
        <time>2018-06-25T09:02:24.121Z</time>
      </trkpt>
      <trkpt lat="47.34873" lon="4.07699">
        <ele>513</ele>
        <time>2018-06-25T09:02:25.121Z</time>
      </trkpt>
      <trkpt lat="47.34848" lon="4.07663">
        <ele>511</ele>
        <time>2018-06-25T09:02:26.121Z</time>
      </trkpt>
      <trkpt lat="47.34806" lon="4.07634">
        <ele>509</ele>
        <time>2018-06-25T09:02:27.121Z</time>
      </trkpt>
      <trkpt lat="47.34738" lon="4.07626">
        <ele>509</ele>
        <time>2018-06-25T09:02:28.121Z</time>
      </trkpt>
      <trkpt lat="47.34697" lon="4.07641">
        <ele>509</ele>
        <time>2018-06-25T09:02:29.121Z</time>
      </trkpt>
      <trkpt lat="47.34631" lon="4.07646">
        <ele>509</ele>
        <time>2018-06-25T09:02:30.121Z</time>
      </trkpt>
      <trkpt lat="47.34569" lon="4.07627">
        <ele>508</ele>
        <time>2018-06-25T09:02:31.121Z</time>
      </trkpt>
      <trkpt lat="47.34496" lon="4.07609">
        <ele>511</ele>
        <time>2018-06-25T09:02:32.121Z</time>
      </trkpt>
      <trkpt lat="47.34436" lon="4.07608">
        <ele>511</ele>
        <time>2018-06-25T09:02:33.121Z</time>
      </trkpt>
      <trkpt lat="47.344" lon="4.07628">
        <ele>513</ele>
        <time>2018-06-25T09:02:34.121Z</time>
      </trkpt>
      <trkpt lat="47.34375" lon="4.07647">
        <ele>513</ele>
        <time>2018-06-25T09:02:35.121Z</time>
      </trkpt>
      <trkpt lat="47.34346" lon="4.07674">
        <ele>515</ele>
        <time>2018-06-25T09:02:36.121Z</time>
      </trkpt>
      <trkpt lat="47.34308" lon="4.07689">
        <ele>515</ele>
        <time>2018-06-25T09:02:37.121Z</time>
      </trkpt>
      <trkpt lat="47.34308" lon="4.07689">
        <ele>515</ele>
        <time>2018-06-25T09:02:38.121Z</time>
      </trkpt>
      <trkpt lat="47.34234" lon="4.07715">
        <ele>516</ele>
        <time>2018-06-25T09:02:39.121Z</time>
      </trkpt>
      <trkpt lat="47.34207" lon="4.07733">
        <ele>515</ele>
        <time>2018-06-25T09:02:40.121Z</time>
      </trkpt>
      <trkpt lat="47.34154" lon="4.07778">
        <ele>516</ele>
        <time>2018-06-25T09:02:41.121Z</time>
      </trkpt>
      <trkpt lat="47.34082" lon="4.0783">
        <ele>519</ele>
        <time>2018-06-25T09:02:42.121Z</time>
      </trkpt>
      <trkpt lat="47.34035" lon="4.07858">
        <ele>520</ele>
        <time>2018-06-25T09:02:43.121Z</time>
      </trkpt>
      <trkpt lat="47.33945" lon="4.07886">
        <ele>520</ele>
        <time>2018-06-25T09:02:44.121Z</time>
      </trkpt>
      <trkpt lat="47.33755" lon="4.07872">
        <ele>522</ele>
        <time>2018-06-25T09:02:45.121Z</time>
      </trkpt>
      <trkpt lat="47.33714" lon="4.07851">
        <ele>521</ele>
        <time>2018-06-25T09:02:46.121Z</time>
      </trkpt>
      <trkpt lat="47.33674" lon="4.07839">
        <ele>522</ele>
        <time>2018-06-25T09:02:47.121Z</time>
      </trkpt>
      <trkpt lat="47.33656" lon="4.07841">
        <ele>524</ele>
        <time>2018-06-25T09:02:48.121Z</time>
      </trkpt>
      <trkpt lat="47.3364" lon="4.0783">
        <ele>523</ele>
        <time>2018-06-25T09:02:49.121Z</time>
      </trkpt>
      <trkpt lat="47.33634" lon="4.07841">
        <ele>525</ele>
        <time>2018-06-25T09:02:50.121Z</time>
      </trkpt>
      <trkpt lat="47.33607" lon="4.07839">
        <ele>526</ele>
        <time>2018-06-25T09:02:51.121Z</time>
      </trkpt>
      <trkpt lat="47.336" lon="4.07846">
        <ele>527</ele>
        <time>2018-06-25T09:02:52.121Z</time>
      </trkpt>
      <trkpt lat="47.336" lon="4.07862">
        <ele>528</ele>
        <time>2018-06-25T09:02:53.121Z</time>
      </trkpt>
      <trkpt lat="47.33572" lon="4.07952">
        <ele>530</ele>
        <time>2018-06-25T09:02:54.121Z</time>
      </trkpt>
      <trkpt lat="47.33552" lon="4.08031">
        <ele>533</ele>
        <time>2018-06-25T09:02:55.121Z</time>
      </trkpt>
      <trkpt lat="47.33522" lon="4.08074">
        <ele>534</ele>
        <time>2018-06-25T09:02:56.121Z</time>
      </trkpt>
      <trkpt lat="47.33499" lon="4.08088">
        <ele>532</ele>
        <time>2018-06-25T09:02:57.121Z</time>
      </trkpt>
      <trkpt lat="47.33484" lon="4.08085">
        <ele>529</ele>
        <time>2018-06-25T09:02:58.121Z</time>
      </trkpt>
      <trkpt lat="47.33431" lon="4.08125">
        <ele>525</ele>
        <time>2018-06-25T09:02:59.121Z</time>
      </trkpt>
      <trkpt lat="47.33397" lon="4.08315">
        <ele>529</ele>
        <time>2018-06-25T09:03:00.121Z</time>
      </trkpt>
      <trkpt lat="47.33375" lon="4.08357">
        <ele>530</ele>
        <time>2018-06-25T09:03:01.121Z</time>
      </trkpt>
      <trkpt lat="47.33335" lon="4.08447">
        <ele>530</ele>
        <time>2018-06-25T09:03:02.121Z</time>
      </trkpt>
      <trkpt lat="47.33319" lon="4.08517">
        <ele>528</ele>
        <time>2018-06-25T09:03:03.121Z</time>
      </trkpt>
      <trkpt lat="47.33326" lon="4.08566">
        <ele>527</ele>
        <time>2018-06-25T09:03:04.121Z</time>
      </trkpt>
      <trkpt lat="47.33351" lon="4.08672">
        <ele>529</ele>
        <time>2018-06-25T09:03:05.121Z</time>
      </trkpt>
      <trkpt lat="47.33382" lon="4.08732">
        <ele>529</ele>
        <time>2018-06-25T09:03:06.121Z</time>
      </trkpt>
      <trkpt lat="47.33416" lon="4.0877">
        <ele>529</ele>
        <time>2018-06-25T09:03:07.121Z</time>
      </trkpt>
      <trkpt lat="47.33431" lon="4.08813">
        <ele>528</ele>
        <time>2018-06-25T09:03:08.121Z</time>
      </trkpt>
      <trkpt lat="47.33462" lon="4.08848">
        <ele>529</ele>
        <time>2018-06-25T09:03:09.121Z</time>
      </trkpt>
      <trkpt lat="47.33466" lon="4.08892">
        <ele>528</ele>
        <time>2018-06-25T09:03:10.121Z</time>
      </trkpt>
      <trkpt lat="47.33455" lon="4.08989">
        <ele>527</ele>
        <time>2018-06-25T09:03:11.121Z</time>
      </trkpt>
      <trkpt lat="47.33458" lon="4.09034">
        <ele>528</ele>
        <time>2018-06-25T09:03:12.121Z</time>
      </trkpt>
      <trkpt lat="47.33458" lon="4.09036">
        <ele>528</ele>
        <time>2018-06-25T09:03:13.121Z</time>
      </trkpt>
      <trkpt lat="47.33467" lon="4.09118">
        <ele>530</ele>
        <time>2018-06-25T09:03:14.121Z</time>
      </trkpt>
      <trkpt lat="47.33459" lon="4.09152">
        <ele>531</ele>
        <time>2018-06-25T09:03:15.121Z</time>
      </trkpt>
      <trkpt lat="47.33456" lon="4.09197">
        <ele>532</ele>
        <time>2018-06-25T09:03:16.121Z</time>
      </trkpt>
      <trkpt lat="47.33448" lon="4.09222">
        <ele>532</ele>
        <time>2018-06-25T09:03:17.121Z</time>
      </trkpt>
      <trkpt lat="47.33436" lon="4.09292">
        <ele>534</ele>
        <time>2018-06-25T09:03:18.121Z</time>
      </trkpt>
      <trkpt lat="47.33403" lon="4.09315">
        <ele>534</ele>
        <time>2018-06-25T09:03:19.121Z</time>
      </trkpt>
      <trkpt lat="47.33377" lon="4.09332">
        <ele>534</ele>
        <time>2018-06-25T09:03:20.121Z</time>
      </trkpt>
      <trkpt lat="47.33349" lon="4.09362">
        <ele>533</ele>
        <time>2018-06-25T09:03:21.121Z</time>
      </trkpt>
      <trkpt lat="47.33342" lon="4.09372">
        <ele>533</ele>
        <time>2018-06-25T09:03:22.121Z</time>
      </trkpt>
      <trkpt lat="47.33342" lon="4.09372">
        <ele>533</ele>
        <time>2018-06-25T09:03:23.121Z</time>
      </trkpt>
      <trkpt lat="47.33331" lon="4.09389">
        <ele>533</ele>
        <time>2018-06-25T09:03:24.121Z</time>
      </trkpt>
      <trkpt lat="47.33313" lon="4.0943">
        <ele>533</ele>
        <time>2018-06-25T09:03:25.121Z</time>
      </trkpt>
      <trkpt lat="47.33294" lon="4.09439">
        <ele>532</ele>
        <time>2018-06-25T09:03:26.121Z</time>
      </trkpt>
      <trkpt lat="47.33258" lon="4.09453">
        <ele>530</ele>
        <time>2018-06-25T09:03:27.121Z</time>
      </trkpt>
      <trkpt lat="47.33242" lon="4.09481">
        <ele>530</ele>
        <time>2018-06-25T09:03:28.121Z</time>
      </trkpt>
      <trkpt lat="47.33205" lon="4.0958">
        <ele>534</ele>
        <time>2018-06-25T09:03:29.121Z</time>
      </trkpt>
      <trkpt lat="47.33179" lon="4.0961">
        <ele>535</ele>
        <time>2018-06-25T09:03:30.121Z</time>
      </trkpt>
      <trkpt lat="47.33156" lon="4.09634">
        <ele>536</ele>
        <time>2018-06-25T09:03:31.121Z</time>
      </trkpt>
      <trkpt lat="47.3302" lon="4.09716">
        <ele>531</ele>
        <time>2018-06-25T09:03:32.121Z</time>
      </trkpt>
      <trkpt lat="47.32978" lon="4.09756">
        <ele>532</ele>
        <time>2018-06-25T09:03:33.121Z</time>
      </trkpt>
      <trkpt lat="47.32953" lon="4.09777">
        <ele>535</ele>
        <time>2018-06-25T09:03:34.121Z</time>
      </trkpt>
      <trkpt lat="47.32919" lon="4.09762">
        <ele>535</ele>
        <time>2018-06-25T09:03:35.121Z</time>
      </trkpt>
      <trkpt lat="47.32893" lon="4.09737">
        <ele>532</ele>
        <time>2018-06-25T09:03:36.121Z</time>
      </trkpt>
      <trkpt lat="47.32868" lon="4.09729">
        <ele>531</ele>
        <time>2018-06-25T09:03:37.121Z</time>
      </trkpt>
      <trkpt lat="47.32851" lon="4.09735">
        <ele>531</ele>
        <time>2018-06-25T09:03:38.121Z</time>
      </trkpt>
      <trkpt lat="47.32802" lon="4.09767">
        <ele>530</ele>
        <time>2018-06-25T09:03:39.121Z</time>
      </trkpt>
      <trkpt lat="47.32782" lon="4.09787">
        <ele>530</ele>
        <time>2018-06-25T09:03:40.121Z</time>
      </trkpt>
      <trkpt lat="47.3272" lon="4.09878">
        <ele>533</ele>
        <time>2018-06-25T09:03:41.121Z</time>
      </trkpt>
      <trkpt lat="47.32709" lon="4.09906">
        <ele>535</ele>
        <time>2018-06-25T09:03:42.121Z</time>
      </trkpt>
      <trkpt lat="47.32699" lon="4.09938">
        <ele>536</ele>
        <time>2018-06-25T09:03:43.121Z</time>
      </trkpt>
      <trkpt lat="47.32668" lon="4.09992">
        <ele>532</ele>
        <time>2018-06-25T09:03:44.121Z</time>
      </trkpt>
      <trkpt lat="47.32654" lon="4.10032">
        <ele>532</ele>
        <time>2018-06-25T09:03:45.121Z</time>
      </trkpt>
      <trkpt lat="47.32644" lon="4.10108">
        <ele>533</ele>
        <time>2018-06-25T09:03:46.121Z</time>
      </trkpt>
      <trkpt lat="47.32633" lon="4.1015">
        <ele>532</ele>
        <time>2018-06-25T09:03:47.121Z</time>
      </trkpt>
      <trkpt lat="47.32571" lon="4.10283">
        <ele>527</ele>
        <time>2018-06-25T09:03:48.121Z</time>
      </trkpt>
      <trkpt lat="47.32557" lon="4.10334">
        <ele>527</ele>
        <time>2018-06-25T09:03:49.121Z</time>
      </trkpt>
      <trkpt lat="47.32546" lon="4.10365">
        <ele>528</ele>
        <time>2018-06-25T09:03:50.121Z</time>
      </trkpt>
      <trkpt lat="47.32508" lon="4.1043">
        <ele>528</ele>
        <time>2018-06-25T09:03:51.121Z</time>
      </trkpt>
      <trkpt lat="47.32494" lon="4.10472">
        <ele>529</ele>
        <time>2018-06-25T09:03:52.121Z</time>
      </trkpt>
      <trkpt lat="47.32468" lon="4.10574">
        <ele>530</ele>
        <time>2018-06-25T09:03:53.121Z</time>
      </trkpt>
      <trkpt lat="47.32453" lon="4.10624">
        <ele>528</ele>
        <time>2018-06-25T09:03:54.121Z</time>
      </trkpt>
      <trkpt lat="47.32449" lon="4.10649">
        <ele>527</ele>
        <time>2018-06-25T09:03:55.121Z</time>
      </trkpt>
      <trkpt lat="47.32438" lon="4.10778">
        <ele>525</ele>
        <time>2018-06-25T09:03:56.121Z</time>
      </trkpt>
      <trkpt lat="47.32431" lon="4.10779">
        <ele>524</ele>
        <time>2018-06-25T09:03:57.121Z</time>
      </trkpt>
      <trkpt lat="47.32409" lon="4.10786">
        <ele>523</ele>
        <time>2018-06-25T09:03:58.121Z</time>
      </trkpt>
      <trkpt lat="47.32394" lon="4.10787">
        <ele>523</ele>
        <time>2018-06-25T09:03:59.121Z</time>
      </trkpt>
      <trkpt lat="47.32388" lon="4.10785">
        <ele>523</ele>
        <time>2018-06-25T09:04:00.121Z</time>
      </trkpt>
      <trkpt lat="47.32287" lon="4.10734">
        <ele>535</ele>
        <time>2018-06-25T09:04:01.121Z</time>
      </trkpt>
      <trkpt lat="47.32281" lon="4.10726">
        <ele>536</ele>
        <time>2018-06-25T09:04:02.121Z</time>
      </trkpt>
      <trkpt lat="47.32273" lon="4.10712">
        <ele>538</ele>
        <time>2018-06-25T09:04:03.121Z</time>
      </trkpt>
      <trkpt lat="47.32264" lon="4.1064">
        <ele>537</ele>
        <time>2018-06-25T09:04:04.121Z</time>
      </trkpt>
      <trkpt lat="47.32247" lon="4.10586">
        <ele>535</ele>
        <time>2018-06-25T09:04:05.121Z</time>
      </trkpt>
      <trkpt lat="47.32241" lon="4.10576">
        <ele>536</ele>
        <time>2018-06-25T09:04:06.121Z</time>
      </trkpt>
      <trkpt lat="47.32144" lon="4.10471">
        <ele>542</ele>
        <time>2018-06-25T09:04:07.121Z</time>
      </trkpt>
      <trkpt lat="47.32091" lon="4.10418">
        <ele>541</ele>
        <time>2018-06-25T09:04:08.121Z</time>
      </trkpt>
      <trkpt lat="47.32023" lon="4.10344">
        <ele>535</ele>
        <time>2018-06-25T09:04:09.121Z</time>
      </trkpt>
      <trkpt lat="47.31825" lon="4.10143">
        <ele>529</ele>
        <time>2018-06-25T09:04:10.121Z</time>
      </trkpt>
      <trkpt lat="47.31816" lon="4.10133">
        <ele>529</ele>
        <time>2018-06-25T09:04:11.121Z</time>
      </trkpt>
      <trkpt lat="47.31811" lon="4.10124">
        <ele>529</ele>
        <time>2018-06-25T09:04:12.121Z</time>
      </trkpt>
      <trkpt lat="47.31806" lon="4.10104">
        <ele>527</ele>
        <time>2018-06-25T09:04:13.121Z</time>
      </trkpt>
      <trkpt lat="47.31835" lon="4.09959">
        <ele>518</ele>
        <time>2018-06-25T09:04:14.121Z</time>
      </trkpt>
      <trkpt lat="47.31839" lon="4.0992">
        <ele>518</ele>
        <time>2018-06-25T09:04:15.121Z</time>
      </trkpt>
      <trkpt lat="47.31838" lon="4.09896">
        <ele>519</ele>
        <time>2018-06-25T09:04:16.121Z</time>
      </trkpt>
      <trkpt lat="47.31835" lon="4.09871">
        <ele>520</ele>
        <time>2018-06-25T09:04:17.121Z</time>
      </trkpt>
      <trkpt lat="47.31825" lon="4.09832">
        <ele>521</ele>
        <time>2018-06-25T09:04:18.121Z</time>
      </trkpt>
      <trkpt lat="47.31814" lon="4.0981">
        <ele>522</ele>
        <time>2018-06-25T09:04:19.121Z</time>
      </trkpt>
      <trkpt lat="47.31786" lon="4.09764">
        <ele>523</ele>
        <time>2018-06-25T09:04:20.121Z</time>
      </trkpt>
      <trkpt lat="47.31776" lon="4.0974">
        <ele>524</ele>
        <time>2018-06-25T09:04:21.121Z</time>
      </trkpt>
      <trkpt lat="47.31767" lon="4.09711">
        <ele>525</ele>
        <time>2018-06-25T09:04:22.121Z</time>
      </trkpt>
      <trkpt lat="47.3176" lon="4.09668">
        <ele>527</ele>
        <time>2018-06-25T09:04:23.121Z</time>
      </trkpt>
      <trkpt lat="47.3176" lon="4.09654">
        <ele>529</ele>
        <time>2018-06-25T09:04:24.121Z</time>
      </trkpt>
      <trkpt lat="47.31763" lon="4.09629">
        <ele>532</ele>
        <time>2018-06-25T09:04:25.121Z</time>
      </trkpt>
      <trkpt lat="47.31771" lon="4.09601">
        <ele>534</ele>
        <time>2018-06-25T09:04:26.121Z</time>
      </trkpt>
      <trkpt lat="47.31796" lon="4.09536">
        <ele>535</ele>
        <time>2018-06-25T09:04:27.121Z</time>
      </trkpt>
      <trkpt lat="47.31803" lon="4.0951">
        <ele>536</ele>
        <time>2018-06-25T09:04:28.121Z</time>
      </trkpt>
      <trkpt lat="47.31802" lon="4.09499">
        <ele>537</ele>
        <time>2018-06-25T09:04:29.121Z</time>
      </trkpt>
      <trkpt lat="47.31792" lon="4.0948">
        <ele>539</ele>
        <time>2018-06-25T09:04:30.121Z</time>
      </trkpt>
      <trkpt lat="47.31785" lon="4.09473">
        <ele>540</ele>
        <time>2018-06-25T09:04:31.121Z</time>
      </trkpt>
      <trkpt lat="47.31743" lon="4.09441">
        <ele>543</ele>
        <time>2018-06-25T09:04:32.121Z</time>
      </trkpt>
      <trkpt lat="47.3165" lon="4.09392">
        <ele>555</ele>
        <time>2018-06-25T09:04:33.121Z</time>
      </trkpt>
      <trkpt lat="47.31596" lon="4.09374">
        <ele>560</ele>
        <time>2018-06-25T09:04:34.121Z</time>
      </trkpt>
      <trkpt lat="47.31556" lon="4.09372">
        <ele>562</ele>
        <time>2018-06-25T09:04:35.121Z</time>
      </trkpt>
      <trkpt lat="47.31508" lon="4.09375">
        <ele>564</ele>
        <time>2018-06-25T09:04:36.121Z</time>
      </trkpt>
      <trkpt lat="47.31473" lon="4.09362">
        <ele>566</ele>
        <time>2018-06-25T09:04:37.121Z</time>
      </trkpt>
      <trkpt lat="47.31432" lon="4.09344">
        <ele>569</ele>
        <time>2018-06-25T09:04:38.121Z</time>
      </trkpt>
      <trkpt lat="47.31398" lon="4.09307">
        <ele>572</ele>
        <time>2018-06-25T09:04:39.121Z</time>
      </trkpt>
      <trkpt lat="47.31305" lon="4.09187">
        <ele>580</ele>
        <time>2018-06-25T09:04:40.121Z</time>
      </trkpt>
      <trkpt lat="47.31283" lon="4.09146">
        <ele>581</ele>
        <time>2018-06-25T09:04:41.121Z</time>
      </trkpt>
      <trkpt lat="47.31256" lon="4.09057">
        <ele>580</ele>
        <time>2018-06-25T09:04:42.121Z</time>
      </trkpt>
      <trkpt lat="47.31256" lon="4.09035">
        <ele>579</ele>
        <time>2018-06-25T09:04:43.121Z</time>
      </trkpt>
      <trkpt lat="47.31272" lon="4.09006">
        <ele>579</ele>
        <time>2018-06-25T09:04:44.121Z</time>
      </trkpt>
      <trkpt lat="47.31274" lon="4.08988">
        <ele>579</ele>
        <time>2018-06-25T09:04:45.121Z</time>
      </trkpt>
      <trkpt lat="47.31258" lon="4.08939">
        <ele>577</ele>
        <time>2018-06-25T09:04:46.121Z</time>
      </trkpt>
      <trkpt lat="47.31254" lon="4.08924">
        <ele>577</ele>
        <time>2018-06-25T09:04:47.121Z</time>
      </trkpt>
      <trkpt lat="47.31254" lon="4.08902">
        <ele>576</ele>
        <time>2018-06-25T09:04:48.121Z</time>
      </trkpt>
      <trkpt lat="47.31258" lon="4.08873">
        <ele>576</ele>
        <time>2018-06-25T09:04:49.121Z</time>
      </trkpt>
      <trkpt lat="47.31279" lon="4.08853">
        <ele>580</ele>
        <time>2018-06-25T09:04:50.121Z</time>
      </trkpt>
      <trkpt lat="47.31296" lon="4.08815">
        <ele>584</ele>
        <time>2018-06-25T09:04:51.121Z</time>
      </trkpt>
      <trkpt lat="47.31303" lon="4.08785">
        <ele>586</ele>
        <time>2018-06-25T09:04:52.121Z</time>
      </trkpt>
      <trkpt lat="47.3131" lon="4.08766">
        <ele>588</ele>
        <time>2018-06-25T09:04:53.121Z</time>
      </trkpt>
      <trkpt lat="47.31319" lon="4.0872">
        <ele>592</ele>
        <time>2018-06-25T09:04:54.121Z</time>
      </trkpt>
      <trkpt lat="47.31313" lon="4.08696">
        <ele>593</ele>
        <time>2018-06-25T09:04:55.121Z</time>
      </trkpt>
      <trkpt lat="47.3131" lon="4.08673">
        <ele>595</ele>
        <time>2018-06-25T09:04:56.121Z</time>
      </trkpt>
      <trkpt lat="47.31311" lon="4.08646">
        <ele>597</ele>
        <time>2018-06-25T09:04:57.121Z</time>
      </trkpt>
      <trkpt lat="47.31309" lon="4.08602">
        <ele>599</ele>
        <time>2018-06-25T09:04:58.121Z</time>
      </trkpt>
      <trkpt lat="47.31301" lon="4.08551">
        <ele>599</ele>
        <time>2018-06-25T09:04:59.121Z</time>
      </trkpt>
      <trkpt lat="47.31303" lon="4.08523">
        <ele>601</ele>
        <time>2018-06-25T09:05:00.121Z</time>
      </trkpt>
      <trkpt lat="47.31313" lon="4.08478">
        <ele>606</ele>
        <time>2018-06-25T09:05:01.121Z</time>
      </trkpt>
      <trkpt lat="47.3132" lon="4.08452">
        <ele>609</ele>
        <time>2018-06-25T09:05:02.121Z</time>
      </trkpt>
      <trkpt lat="47.3132" lon="4.08427">
        <ele>612</ele>
        <time>2018-06-25T09:05:03.121Z</time>
      </trkpt>
      <trkpt lat="47.31331" lon="4.08392">
        <ele>617</ele>
        <time>2018-06-25T09:05:04.121Z</time>
      </trkpt>
      <trkpt lat="47.31345" lon="4.08358">
        <ele>621</ele>
        <time>2018-06-25T09:05:05.121Z</time>
      </trkpt>
      <trkpt lat="47.3135" lon="4.08336">
        <ele>624</ele>
        <time>2018-06-25T09:05:06.121Z</time>
      </trkpt>
      <trkpt lat="47.31347" lon="4.08278">
        <ele>626</ele>
        <time>2018-06-25T09:05:07.121Z</time>
      </trkpt>
      <trkpt lat="47.31347" lon="4.08231">
        <ele>627</ele>
        <time>2018-06-25T09:05:08.121Z</time>
      </trkpt>
      <trkpt lat="47.31343" lon="4.08192">
        <ele>627</ele>
        <time>2018-06-25T09:05:09.121Z</time>
      </trkpt>
      <trkpt lat="47.31341" lon="4.08128">
        <ele>627</ele>
        <time>2018-06-25T09:05:10.121Z</time>
      </trkpt>
      <trkpt lat="47.31338" lon="4.08078">
        <ele>627</ele>
        <time>2018-06-25T09:05:11.121Z</time>
      </trkpt>
      <trkpt lat="47.31335" lon="4.08058">
        <ele>627</ele>
        <time>2018-06-25T09:05:12.121Z</time>
      </trkpt>
      <trkpt lat="47.31327" lon="4.08033">
        <ele>627</ele>
        <time>2018-06-25T09:05:13.121Z</time>
      </trkpt>
      <trkpt lat="47.31313" lon="4.08014">
        <ele>628</ele>
        <time>2018-06-25T09:05:14.121Z</time>
      </trkpt>
      <trkpt lat="47.31217" lon="4.07903">
        <ele>624</ele>
        <time>2018-06-25T09:05:15.121Z</time>
      </trkpt>
      <trkpt lat="47.31208" lon="4.0789">
        <ele>623</ele>
        <time>2018-06-25T09:05:16.121Z</time>
      </trkpt>
      <trkpt lat="47.31183" lon="4.07865">
        <ele>621</ele>
        <time>2018-06-25T09:05:17.121Z</time>
      </trkpt>
      <trkpt lat="47.31153" lon="4.07866">
        <ele>623</ele>
        <time>2018-06-25T09:05:18.121Z</time>
      </trkpt>
      <trkpt lat="47.31079" lon="4.0783">
        <ele>626</ele>
        <time>2018-06-25T09:05:19.121Z</time>
      </trkpt>
      <trkpt lat="47.31029" lon="4.078">
        <ele>628</ele>
        <time>2018-06-25T09:05:20.121Z</time>
      </trkpt>
      <trkpt lat="47.31017" lon="4.07797">
        <ele>628</ele>
        <time>2018-06-25T09:05:21.121Z</time>
      </trkpt>
      <trkpt lat="47.31016" lon="4.07798">
        <ele>628</ele>
        <time>2018-06-25T09:05:22.121Z</time>
      </trkpt>
      <trkpt lat="47.31008" lon="4.07796">
        <ele>629</ele>
        <time>2018-06-25T09:05:23.121Z</time>
      </trkpt>
      <trkpt lat="47.30952" lon="4.07803">
        <ele>630</ele>
        <time>2018-06-25T09:05:24.121Z</time>
      </trkpt>
      <trkpt lat="47.30926" lon="4.07804">
        <ele>630</ele>
        <time>2018-06-25T09:05:25.121Z</time>
      </trkpt>
      <trkpt lat="47.30906" lon="4.07797">
        <ele>630</ele>
        <time>2018-06-25T09:05:26.121Z</time>
      </trkpt>
      <trkpt lat="47.30886" lon="4.07794">
        <ele>630</ele>
        <time>2018-06-25T09:05:27.121Z</time>
      </trkpt>
      <trkpt lat="47.30872" lon="4.07783">
        <ele>630</ele>
        <time>2018-06-25T09:05:28.121Z</time>
      </trkpt>
      <trkpt lat="47.30859" lon="4.07778">
        <ele>630</ele>
        <time>2018-06-25T09:05:29.121Z</time>
      </trkpt>
      <trkpt lat="47.30846" lon="4.07777">
        <ele>630</ele>
        <time>2018-06-25T09:05:30.121Z</time>
      </trkpt>
      <trkpt lat="47.30838" lon="4.07767">
        <ele>631</ele>
        <time>2018-06-25T09:05:31.121Z</time>
      </trkpt>
      <trkpt lat="47.30766" lon="4.07757">
        <ele>630</ele>
        <time>2018-06-25T09:05:32.121Z</time>
      </trkpt>
      <trkpt lat="47.30754" lon="4.07758">
        <ele>630</ele>
        <time>2018-06-25T09:05:33.121Z</time>
      </trkpt>
      <trkpt lat="47.30735" lon="4.07756">
        <ele>631</ele>
        <time>2018-06-25T09:05:34.121Z</time>
      </trkpt>
      <trkpt lat="47.30692" lon="4.07769">
        <ele>631</ele>
        <time>2018-06-25T09:05:35.121Z</time>
      </trkpt>
      <trkpt lat="47.30674" lon="4.07771">
        <ele>631</ele>
        <time>2018-06-25T09:05:36.121Z</time>
      </trkpt>
      <trkpt lat="47.30639" lon="4.07779">
        <ele>631</ele>
        <time>2018-06-25T09:05:37.121Z</time>
      </trkpt>
      <trkpt lat="47.30622" lon="4.0777">
        <ele>631</ele>
        <time>2018-06-25T09:05:38.121Z</time>
      </trkpt>
      <trkpt lat="47.30615" lon="4.07772">
        <ele>631</ele>
        <time>2018-06-25T09:05:39.121Z</time>
      </trkpt>
      <trkpt lat="47.30595" lon="4.07769">
        <ele>632</ele>
        <time>2018-06-25T09:05:40.121Z</time>
      </trkpt>
      <trkpt lat="47.30575" lon="4.07773">
        <ele>632</ele>
        <time>2018-06-25T09:05:41.121Z</time>
      </trkpt>
      <trkpt lat="47.30546" lon="4.07785">
        <ele>631</ele>
        <time>2018-06-25T09:05:42.121Z</time>
      </trkpt>
      <trkpt lat="47.30503" lon="4.07811">
        <ele>632</ele>
        <time>2018-06-25T09:05:43.121Z</time>
      </trkpt>
      <trkpt lat="47.30467" lon="4.07821">
        <ele>632</ele>
        <time>2018-06-25T09:05:44.121Z</time>
      </trkpt>
      <trkpt lat="47.30451" lon="4.07831">
        <ele>632</ele>
        <time>2018-06-25T09:05:45.121Z</time>
      </trkpt>
      <trkpt lat="47.30439" lon="4.07832">
        <ele>633</ele>
        <time>2018-06-25T09:05:46.121Z</time>
      </trkpt>
      <trkpt lat="47.30426" lon="4.07838">
        <ele>633</ele>
        <time>2018-06-25T09:05:47.121Z</time>
      </trkpt>
      <trkpt lat="47.30415" lon="4.07837">
        <ele>633</ele>
        <time>2018-06-25T09:05:48.121Z</time>
      </trkpt>
      <trkpt lat="47.30404" lon="4.07839">
        <ele>634</ele>
        <time>2018-06-25T09:05:49.121Z</time>
      </trkpt>
      <trkpt lat="47.30352" lon="4.07858">
        <ele>637</ele>
        <time>2018-06-25T09:05:50.121Z</time>
      </trkpt>
      <trkpt lat="47.30332" lon="4.07839">
        <ele>639</ele>
        <time>2018-06-25T09:05:51.121Z</time>
      </trkpt>
      <trkpt lat="47.30307" lon="4.07846">
        <ele>640</ele>
        <time>2018-06-25T09:05:52.121Z</time>
      </trkpt>
      <trkpt lat="47.30268" lon="4.0785">
        <ele>641</ele>
        <time>2018-06-25T09:05:53.121Z</time>
      </trkpt>
      <trkpt lat="47.3016" lon="4.07907">
        <ele>644</ele>
        <time>2018-06-25T09:05:54.121Z</time>
      </trkpt>
      <trkpt lat="47.30032" lon="4.07532">
        <ele>637</ele>
        <time>2018-06-25T09:05:55.121Z</time>
      </trkpt>
      <trkpt lat="47.29994" lon="4.07681">
        <ele>640</ele>
        <time>2018-06-25T09:05:56.121Z</time>
      </trkpt>
      <trkpt lat="47.29968" lon="4.07695">
        <ele>641</ele>
        <time>2018-06-25T09:05:57.121Z</time>
      </trkpt>
      <trkpt lat="47.2993" lon="4.07718">
        <ele>641</ele>
        <time>2018-06-25T09:05:58.121Z</time>
      </trkpt>
      <trkpt lat="47.29906" lon="4.07704">
        <ele>641</ele>
        <time>2018-06-25T09:05:59.121Z</time>
      </trkpt>
      <trkpt lat="47.2987" lon="4.07675">
        <ele>642</ele>
        <time>2018-06-25T09:06:00.121Z</time>
      </trkpt>
      <trkpt lat="47.29843" lon="4.0766">
        <ele>642</ele>
        <time>2018-06-25T09:06:01.121Z</time>
      </trkpt>
      <trkpt lat="47.29844" lon="4.07643">
        <ele>642</ele>
        <time>2018-06-25T09:06:02.121Z</time>
      </trkpt>
      <trkpt lat="47.29816" lon="4.07635">
        <ele>643</ele>
        <time>2018-06-25T09:06:03.121Z</time>
      </trkpt>
      <trkpt lat="47.29793" lon="4.07636">
        <ele>643</ele>
        <time>2018-06-25T09:06:04.121Z</time>
      </trkpt>
      <trkpt lat="47.29783" lon="4.0763">
        <ele>644</ele>
        <time>2018-06-25T09:06:05.121Z</time>
      </trkpt>
      <trkpt lat="47.29771" lon="4.07618">
        <ele>643</ele>
        <time>2018-06-25T09:06:06.121Z</time>
      </trkpt>
      <trkpt lat="47.29758" lon="4.07618">
        <ele>644</ele>
        <time>2018-06-25T09:06:07.121Z</time>
      </trkpt>
      <trkpt lat="47.29707" lon="4.07608">
        <ele>646</ele>
        <time>2018-06-25T09:06:08.121Z</time>
      </trkpt>
      <trkpt lat="47.29679" lon="4.07606">
        <ele>648</ele>
        <time>2018-06-25T09:06:09.121Z</time>
      </trkpt>
      <trkpt lat="47.29648" lon="4.07586">
        <ele>649</ele>
        <time>2018-06-25T09:06:10.121Z</time>
      </trkpt>
      <trkpt lat="47.29599" lon="4.07579">
        <ele>650</ele>
        <time>2018-06-25T09:06:11.121Z</time>
      </trkpt>
      <trkpt lat="47.29578" lon="4.07573">
        <ele>651</ele>
        <time>2018-06-25T09:06:12.121Z</time>
      </trkpt>
      <trkpt lat="47.29529" lon="4.07577">
        <ele>652</ele>
        <time>2018-06-25T09:06:13.121Z</time>
      </trkpt>
      <trkpt lat="47.29508" lon="4.07577">
        <ele>653</ele>
        <time>2018-06-25T09:06:14.121Z</time>
      </trkpt>
      <trkpt lat="47.29475" lon="4.07476">
        <ele>647</ele>
        <time>2018-06-25T09:06:15.121Z</time>
      </trkpt>
      <trkpt lat="47.29461" lon="4.07418">
        <ele>645</ele>
        <time>2018-06-25T09:06:16.121Z</time>
      </trkpt>
      <trkpt lat="47.29404" lon="4.07278">
        <ele>643</ele>
        <time>2018-06-25T09:06:17.121Z</time>
      </trkpt>
      <trkpt lat="47.29382" lon="4.07277">
        <ele>643</ele>
        <time>2018-06-25T09:06:18.121Z</time>
      </trkpt>
      <trkpt lat="47.2932" lon="4.07297">
        <ele>645</ele>
        <time>2018-06-25T09:06:19.121Z</time>
      </trkpt>
      <trkpt lat="47.2932" lon="4.07297">
        <ele>645</ele>
        <time>2018-06-25T09:06:20.121Z</time>
      </trkpt>
      <trkpt lat="47.2928" lon="4.07309">
        <ele>644</ele>
        <time>2018-06-25T09:06:21.121Z</time>
      </trkpt>
      <trkpt lat="47.2923" lon="4.07318">
        <ele>643</ele>
        <time>2018-06-25T09:06:22.121Z</time>
      </trkpt>
      <trkpt lat="47.2919" lon="4.07351">
        <ele>642</ele>
        <time>2018-06-25T09:06:23.121Z</time>
      </trkpt>
      <trkpt lat="47.29167" lon="4.07353">
        <ele>642</ele>
        <time>2018-06-25T09:06:24.121Z</time>
      </trkpt>
      <trkpt lat="47.291" lon="4.07339">
        <ele>643</ele>
        <time>2018-06-25T09:06:25.121Z</time>
      </trkpt>
      <trkpt lat="47.29061" lon="4.07312">
        <ele>644</ele>
        <time>2018-06-25T09:06:26.121Z</time>
      </trkpt>
      <trkpt lat="47.29036" lon="4.07305">
        <ele>644</ele>
        <time>2018-06-25T09:06:27.121Z</time>
      </trkpt>
      <trkpt lat="47.29001" lon="4.07288">
        <ele>645</ele>
        <time>2018-06-25T09:06:28.121Z</time>
      </trkpt>
      <trkpt lat="47.28983" lon="4.07246">
        <ele>646</ele>
        <time>2018-06-25T09:06:29.121Z</time>
      </trkpt>
      <trkpt lat="47.28969" lon="4.07241">
        <ele>646</ele>
        <time>2018-06-25T09:06:30.121Z</time>
      </trkpt>
      <trkpt lat="47.28998" lon="4.07396">
        <ele>642</ele>
        <time>2018-06-25T09:06:31.121Z</time>
      </trkpt>
      <trkpt lat="47.28999" lon="4.0763">
        <ele>625</ele>
        <time>2018-06-25T09:06:32.121Z</time>
      </trkpt>
      <trkpt lat="47.28972" lon="4.0767">
        <ele>621</ele>
        <time>2018-06-25T09:06:33.121Z</time>
      </trkpt>
      <trkpt lat="47.28941" lon="4.07689">
        <ele>617</ele>
        <time>2018-06-25T09:06:34.121Z</time>
      </trkpt>
      <trkpt lat="47.28923" lon="4.0776">
        <ele>616</ele>
        <time>2018-06-25T09:06:35.121Z</time>
      </trkpt>
      <trkpt lat="47.28933" lon="4.07773">
        <ele>617</ele>
        <time>2018-06-25T09:06:36.121Z</time>
      </trkpt>
      <trkpt lat="47.28901" lon="4.0786">
        <ele>618</ele>
        <time>2018-06-25T09:06:37.121Z</time>
      </trkpt>
      <trkpt lat="47.28892" lon="4.07866">
        <ele>618</ele>
        <time>2018-06-25T09:06:38.121Z</time>
      </trkpt>
      <trkpt lat="47.2889" lon="4.07882">
        <ele>618</ele>
        <time>2018-06-25T09:06:39.121Z</time>
      </trkpt>
      <trkpt lat="47.28868" lon="4.07906">
        <ele>620</ele>
        <time>2018-06-25T09:06:40.121Z</time>
      </trkpt>
      <trkpt lat="47.288" lon="4.0793">
        <ele>626</ele>
        <time>2018-06-25T09:06:41.121Z</time>
      </trkpt>
      <trkpt lat="47.28789" lon="4.07955">
        <ele>629</ele>
        <time>2018-06-25T09:06:42.121Z</time>
      </trkpt>
      <trkpt lat="47.28725" lon="4.08009">
        <ele>641</ele>
        <time>2018-06-25T09:06:43.121Z</time>
      </trkpt>
      <trkpt lat="47.28693" lon="4.08046">
        <ele>645</ele>
        <time>2018-06-25T09:06:44.121Z</time>
      </trkpt>
      <trkpt lat="47.28669" lon="4.08099">
        <ele>651</ele>
        <time>2018-06-25T09:06:45.121Z</time>
      </trkpt>
      <trkpt lat="47.28653" lon="4.08122">
        <ele>653</ele>
        <time>2018-06-25T09:06:46.121Z</time>
      </trkpt>
      <trkpt lat="47.28628" lon="4.08212">
        <ele>656</ele>
        <time>2018-06-25T09:06:47.121Z</time>
      </trkpt>
      <trkpt lat="47.28612" lon="4.08255">
        <ele>656</ele>
        <time>2018-06-25T09:06:48.121Z</time>
      </trkpt>
      <trkpt lat="47.28601" lon="4.08276">
        <ele>656</ele>
        <time>2018-06-25T09:06:49.121Z</time>
      </trkpt>
      <trkpt lat="47.28534" lon="4.08365">
        <ele>656</ele>
        <time>2018-06-25T09:06:50.121Z</time>
      </trkpt>
      <trkpt lat="47.28519" lon="4.08387">
        <ele>657</ele>
        <time>2018-06-25T09:06:51.121Z</time>
      </trkpt>
      <trkpt lat="47.285" lon="4.08434">
        <ele>656</ele>
        <time>2018-06-25T09:06:52.121Z</time>
      </trkpt>
      <trkpt lat="47.28422" lon="4.0858">
        <ele>657</ele>
        <time>2018-06-25T09:06:53.121Z</time>
      </trkpt>
      <trkpt lat="47.2841" lon="4.0862">
        <ele>655</ele>
        <time>2018-06-25T09:06:54.121Z</time>
      </trkpt>
      <trkpt lat="47.28398" lon="4.08677">
        <ele>652</ele>
        <time>2018-06-25T09:06:55.121Z</time>
      </trkpt>
      <trkpt lat="47.28385" lon="4.08705">
        <ele>650</ele>
        <time>2018-06-25T09:06:56.121Z</time>
      </trkpt>
      <trkpt lat="47.28353" lon="4.08751">
        <ele>646</ele>
        <time>2018-06-25T09:06:57.121Z</time>
      </trkpt>
      <trkpt lat="47.28341" lon="4.08775">
        <ele>645</ele>
        <time>2018-06-25T09:06:58.121Z</time>
      </trkpt>
      <trkpt lat="47.28328" lon="4.08807">
        <ele>644</ele>
        <time>2018-06-25T09:06:59.121Z</time>
      </trkpt>
      <trkpt lat="47.28319" lon="4.08823">
        <ele>643</ele>
        <time>2018-06-25T09:07:00.121Z</time>
      </trkpt>
      <trkpt lat="47.28308" lon="4.08836">
        <ele>642</ele>
        <time>2018-06-25T09:07:01.121Z</time>
      </trkpt>
      <trkpt lat="47.28292" lon="4.0885">
        <ele>641</ele>
        <time>2018-06-25T09:07:02.121Z</time>
      </trkpt>
      <trkpt lat="47.28208" lon="4.08864">
        <ele>635</ele>
        <time>2018-06-25T09:07:03.121Z</time>
      </trkpt>
      <trkpt lat="47.28187" lon="4.08872">
        <ele>634</ele>
        <time>2018-06-25T09:07:04.121Z</time>
      </trkpt>
      <trkpt lat="47.28129" lon="4.08906">
        <ele>631</ele>
        <time>2018-06-25T09:07:05.121Z</time>
      </trkpt>
      <trkpt lat="47.28122" lon="4.08913">
        <ele>630</ele>
        <time>2018-06-25T09:07:06.121Z</time>
      </trkpt>
      <trkpt lat="47.28096" lon="4.08951">
        <ele>627</ele>
        <time>2018-06-25T09:07:07.121Z</time>
      </trkpt>
      <trkpt lat="47.28065" lon="4.09018">
        <ele>622</ele>
        <time>2018-06-25T09:07:08.121Z</time>
      </trkpt>
      <trkpt lat="47.28053" lon="4.09067">
        <ele>619</ele>
        <time>2018-06-25T09:07:09.121Z</time>
      </trkpt>
      <trkpt lat="47.28025" lon="4.09201">
        <ele>614</ele>
        <time>2018-06-25T09:07:10.121Z</time>
      </trkpt>
      <trkpt lat="47.28015" lon="4.09225">
        <ele>612</ele>
        <time>2018-06-25T09:07:11.121Z</time>
      </trkpt>
      <trkpt lat="47.28002" lon="4.09239">
        <ele>611</ele>
        <time>2018-06-25T09:07:12.121Z</time>
      </trkpt>
      <trkpt lat="47.2792" lon="4.0927">
        <ele>611</ele>
        <time>2018-06-25T09:07:13.121Z</time>
      </trkpt>
      <trkpt lat="47.27644" lon="4.09568">
        <ele>622</ele>
        <time>2018-06-25T09:07:14.121Z</time>
      </trkpt>
      <trkpt lat="47.27623" lon="4.09601">
        <ele>623</ele>
        <time>2018-06-25T09:07:15.121Z</time>
      </trkpt>
      <trkpt lat="47.27617" lon="4.09613">
        <ele>623</ele>
        <time>2018-06-25T09:07:16.121Z</time>
      </trkpt>
      <trkpt lat="47.27604" lon="4.0965">
        <ele>623</ele>
        <time>2018-06-25T09:07:17.121Z</time>
      </trkpt>
      <trkpt lat="47.27608" lon="4.1">
        <ele>630</ele>
        <time>2018-06-25T09:07:18.121Z</time>
      </trkpt>
      <trkpt lat="47.2767" lon="4.10168">
        <ele>637</ele>
        <time>2018-06-25T09:07:19.121Z</time>
      </trkpt>
      <trkpt lat="47.27679" lon="4.10228">
        <ele>640</ele>
        <time>2018-06-25T09:07:20.121Z</time>
      </trkpt>
      <trkpt lat="47.27651" lon="4.10305">
        <ele>640</ele>
        <time>2018-06-25T09:07:21.121Z</time>
      </trkpt>
      <trkpt lat="47.27615" lon="4.10332">
        <ele>639</ele>
        <time>2018-06-25T09:07:22.121Z</time>
      </trkpt>
      <trkpt lat="47.27469" lon="4.10355">
        <ele>637</ele>
        <time>2018-06-25T09:07:23.121Z</time>
      </trkpt>
      <trkpt lat="47.27456" lon="4.10385">
        <ele>638</ele>
        <time>2018-06-25T09:07:24.121Z</time>
      </trkpt>
      <trkpt lat="47.27454" lon="4.10526">
        <ele>647</ele>
        <time>2018-06-25T09:07:25.121Z</time>
      </trkpt>
      <trkpt lat="47.27489" lon="4.11039">
        <ele>668</ele>
        <time>2018-06-25T09:07:26.121Z</time>
      </trkpt>
      <trkpt lat="47.27422" lon="4.1137">
        <ele>670</ele>
        <time>2018-06-25T09:07:27.121Z</time>
      </trkpt>
      <trkpt lat="47.27427" lon="4.11585">
        <ele>654</ele>
        <time>2018-06-25T09:07:28.121Z</time>
      </trkpt>
      <trkpt lat="47.27411" lon="4.11665">
        <ele>649</ele>
        <time>2018-06-25T09:07:29.121Z</time>
      </trkpt>
      <trkpt lat="47.27449" lon="4.11829">
        <ele>633</ele>
        <time>2018-06-25T09:07:30.121Z</time>
      </trkpt>
      <trkpt lat="47.27429" lon="4.1193">
        <ele>624</ele>
        <time>2018-06-25T09:07:31.121Z</time>
      </trkpt>
      <trkpt lat="47.27376" lon="4.12088">
        <ele>608</ele>
        <time>2018-06-25T09:07:32.121Z</time>
      </trkpt>
      <trkpt lat="47.27411" lon="4.12396">
        <ele>613</ele>
        <time>2018-06-25T09:07:33.121Z</time>
      </trkpt>
      <trkpt lat="47.27393" lon="4.12631">
        <ele>598</ele>
        <time>2018-06-25T09:07:34.121Z</time>
      </trkpt>
      <trkpt lat="47.27359" lon="4.12671">
        <ele>598</ele>
        <time>2018-06-25T09:07:35.121Z</time>
      </trkpt>
      <trkpt lat="47.27355" lon="4.12802">
        <ele>587</ele>
        <time>2018-06-25T09:07:36.121Z</time>
      </trkpt>
      <trkpt lat="47.27427" lon="4.12888">
        <ele>581</ele>
        <time>2018-06-25T09:07:37.121Z</time>
      </trkpt>
      <trkpt lat="47.27471" lon="4.12989">
        <ele>579</ele>
        <time>2018-06-25T09:07:38.121Z</time>
      </trkpt>
      <trkpt lat="47.27462" lon="4.13123">
        <ele>578</ele>
        <time>2018-06-25T09:07:39.121Z</time>
      </trkpt>
      <trkpt lat="47.27479" lon="4.13177">
        <ele>579</ele>
        <time>2018-06-25T09:07:40.121Z</time>
      </trkpt>
      <trkpt lat="47.2755" lon="4.13253">
        <ele>581</ele>
        <time>2018-06-25T09:07:41.121Z</time>
      </trkpt>
      <trkpt lat="47.27592" lon="4.13338">
        <ele>580</ele>
        <time>2018-06-25T09:07:42.121Z</time>
      </trkpt>
      <trkpt lat="47.27608" lon="4.13405">
        <ele>577</ele>
        <time>2018-06-25T09:07:43.121Z</time>
      </trkpt>
      <trkpt lat="47.27673" lon="4.13502">
        <ele>576</ele>
        <time>2018-06-25T09:07:44.121Z</time>
      </trkpt>
      <trkpt lat="47.27671" lon="4.13558">
        <ele>572</ele>
        <time>2018-06-25T09:07:45.121Z</time>
      </trkpt>
      <trkpt lat="47.27635" lon="4.13619">
        <ele>565</ele>
        <time>2018-06-25T09:07:46.121Z</time>
      </trkpt>
      <trkpt lat="47.27642" lon="4.13749">
        <ele>558</ele>
        <time>2018-06-25T09:07:47.121Z</time>
      </trkpt>
      <trkpt lat="47.27624" lon="4.13814">
        <ele>556</ele>
        <time>2018-06-25T09:07:48.121Z</time>
      </trkpt>
      <trkpt lat="47.27507" lon="4.13898">
        <ele>551</ele>
        <time>2018-06-25T09:07:49.121Z</time>
      </trkpt>
      <trkpt lat="47.27547" lon="4.14075">
        <ele>546</ele>
        <time>2018-06-25T09:07:50.121Z</time>
      </trkpt>
      <trkpt lat="47.27539" lon="4.14253">
        <ele>549</ele>
        <time>2018-06-25T09:07:51.121Z</time>
      </trkpt>
      <trkpt lat="47.2753" lon="4.14196">
        <ele>548</ele>
        <time>2018-06-25T09:07:52.121Z</time>
      </trkpt>
      <trkpt lat="47.27498" lon="4.14153">
        <ele>549</ele>
        <time>2018-06-25T09:07:53.121Z</time>
      </trkpt>
      <trkpt lat="47.27415" lon="4.14132">
        <ele>552</ele>
        <time>2018-06-25T09:07:54.121Z</time>
      </trkpt>
      <trkpt lat="47.27255" lon="4.14022">
        <ele>563</ele>
        <time>2018-06-25T09:07:55.121Z</time>
      </trkpt>
      <trkpt lat="47.27203" lon="4.13959">
        <ele>566</ele>
        <time>2018-06-25T09:07:56.121Z</time>
      </trkpt>
      <trkpt lat="47.27138" lon="4.13934">
        <ele>573</ele>
        <time>2018-06-25T09:07:57.121Z</time>
      </trkpt>
      <trkpt lat="47.2701" lon="4.14059">
        <ele>576</ele>
        <time>2018-06-25T09:07:58.121Z</time>
      </trkpt>
      <trkpt lat="47.26909" lon="4.14054">
        <ele>574</ele>
        <time>2018-06-25T09:07:59.121Z</time>
      </trkpt>
      <trkpt lat="47.26768" lon="4.14112">
        <ele>562</ele>
        <time>2018-06-25T09:08:00.121Z</time>
      </trkpt>
      <trkpt lat="47.26739" lon="4.14206">
        <ele>564</ele>
        <time>2018-06-25T09:08:01.121Z</time>
      </trkpt>
      <trkpt lat="47.26814" lon="4.14336">
        <ele>565</ele>
        <time>2018-06-25T09:08:02.121Z</time>
      </trkpt>
      <trkpt lat="47.26862" lon="4.14544">
        <ele>578</ele>
        <time>2018-06-25T09:08:03.121Z</time>
      </trkpt>
      <trkpt lat="47.26826" lon="4.14642">
        <ele>583</ele>
        <time>2018-06-25T09:08:04.121Z</time>
      </trkpt>
      <trkpt lat="47.26871" lon="4.14735">
        <ele>579</ele>
        <time>2018-06-25T09:08:05.121Z</time>
      </trkpt>
      <trkpt lat="47.26736" lon="4.14839">
        <ele>571</ele>
        <time>2018-06-25T09:08:06.121Z</time>
      </trkpt>
      <trkpt lat="47.26707" lon="4.1488">
        <ele>568</ele>
        <time>2018-06-25T09:08:07.121Z</time>
      </trkpt>
      <trkpt lat="47.26662" lon="4.15004">
        <ele>559</ele>
        <time>2018-06-25T09:08:08.121Z</time>
      </trkpt>
      <trkpt lat="47.26644" lon="4.15013">
        <ele>558</ele>
        <time>2018-06-25T09:08:09.121Z</time>
      </trkpt>
      <trkpt lat="47.26623" lon="4.15">
        <ele>558</ele>
        <time>2018-06-25T09:08:10.121Z</time>
      </trkpt>
      <trkpt lat="47.26611" lon="4.14944">
        <ele>561</ele>
        <time>2018-06-25T09:08:11.121Z</time>
      </trkpt>
      <trkpt lat="47.2646" lon="4.1501">
        <ele>562</ele>
        <time>2018-06-25T09:08:12.121Z</time>
      </trkpt>
      <trkpt lat="47.26354" lon="4.15087">
        <ele>568</ele>
        <time>2018-06-25T09:08:13.121Z</time>
      </trkpt>
      <trkpt lat="47.26299" lon="4.15161">
        <ele>573</ele>
        <time>2018-06-25T09:08:14.121Z</time>
      </trkpt>
      <trkpt lat="47.2622" lon="4.15198">
        <ele>581</ele>
        <time>2018-06-25T09:08:15.121Z</time>
      </trkpt>
      <trkpt lat="47.2616" lon="4.15195">
        <ele>590</ele>
        <time>2018-06-25T09:08:16.121Z</time>
      </trkpt>
      <trkpt lat="47.2614" lon="4.15178">
        <ele>591</ele>
        <time>2018-06-25T09:08:17.121Z</time>
      </trkpt>
      <trkpt lat="47.26117" lon="4.15091">
        <ele>590</ele>
        <time>2018-06-25T09:08:18.121Z</time>
      </trkpt>
      <trkpt lat="47.25978" lon="4.14849">
        <ele>590</ele>
        <time>2018-06-25T09:08:19.121Z</time>
      </trkpt>
      <trkpt lat="47.25898" lon="4.14797">
        <ele>590</ele>
        <time>2018-06-25T09:08:20.121Z</time>
      </trkpt>
      <trkpt lat="47.25795" lon="4.14779">
        <ele>588</ele>
        <time>2018-06-25T09:08:21.121Z</time>
      </trkpt>
      <trkpt lat="47.25701" lon="4.14815">
        <ele>586</ele>
        <time>2018-06-25T09:08:22.121Z</time>
      </trkpt>
      <trkpt lat="47.25639" lon="4.1481">
        <ele>585</ele>
        <time>2018-06-25T09:08:23.121Z</time>
      </trkpt>
      <trkpt lat="47.25562" lon="4.14766">
        <ele>585</ele>
        <time>2018-06-25T09:08:24.121Z</time>
      </trkpt>
      <trkpt lat="47.25481" lon="4.14755">
        <ele>588</ele>
        <time>2018-06-25T09:08:25.121Z</time>
      </trkpt>
      <trkpt lat="47.25454" lon="4.14638">
        <ele>587</ele>
        <time>2018-06-25T09:08:26.121Z</time>
      </trkpt>
      <trkpt lat="47.25454" lon="4.14544">
        <ele>584</ele>
        <time>2018-06-25T09:08:27.121Z</time>
      </trkpt>
      <trkpt lat="47.25435" lon="4.14487">
        <ele>583</ele>
        <time>2018-06-25T09:08:28.121Z</time>
      </trkpt>
      <trkpt lat="47.25452" lon="4.1442">
        <ele>577</ele>
        <time>2018-06-25T09:08:29.121Z</time>
      </trkpt>
      <trkpt lat="47.25427" lon="4.14276">
        <ele>575</ele>
        <time>2018-06-25T09:08:30.121Z</time>
      </trkpt>
      <trkpt lat="47.25452" lon="4.14179">
        <ele>575</ele>
        <time>2018-06-25T09:08:31.121Z</time>
      </trkpt>
      <trkpt lat="47.25456" lon="4.14106">
        <ele>573</ele>
        <time>2018-06-25T09:08:32.121Z</time>
      </trkpt>
      <trkpt lat="47.25303" lon="4.1428">
        <ele>575</ele>
        <time>2018-06-25T09:08:33.121Z</time>
      </trkpt>
      <trkpt lat="47.25265" lon="4.14303">
        <ele>579</ele>
        <time>2018-06-25T09:08:34.121Z</time>
      </trkpt>
      <trkpt lat="47.25242" lon="4.14337">
        <ele>584</ele>
        <time>2018-06-25T09:08:35.121Z</time>
      </trkpt>
      <trkpt lat="47.25158" lon="4.14366">
        <ele>592</ele>
        <time>2018-06-25T09:08:36.121Z</time>
      </trkpt>
      <trkpt lat="47.25091" lon="4.1433">
        <ele>587</ele>
        <time>2018-06-25T09:08:37.121Z</time>
      </trkpt>
      <trkpt lat="47.24931" lon="4.14397">
        <ele>602</ele>
        <time>2018-06-25T09:08:38.121Z</time>
      </trkpt>
      <trkpt lat="47.2488" lon="4.145">
        <ele>615</ele>
        <time>2018-06-25T09:08:39.121Z</time>
      </trkpt>
      <trkpt lat="47.24799" lon="4.14569">
        <ele>614</ele>
        <time>2018-06-25T09:08:40.121Z</time>
      </trkpt>
      <trkpt lat="47.24757" lon="4.14585">
        <ele>613</ele>
        <time>2018-06-25T09:08:41.121Z</time>
      </trkpt>
      <trkpt lat="47.24709" lon="4.14572">
        <ele>611</ele>
        <time>2018-06-25T09:08:42.121Z</time>
      </trkpt>
      <trkpt lat="47.24691" lon="4.14607">
        <ele>614</ele>
        <time>2018-06-25T09:08:43.121Z</time>
      </trkpt>
      <trkpt lat="47.24634" lon="4.14602">
        <ele>612</ele>
        <time>2018-06-25T09:08:44.121Z</time>
      </trkpt>
      <trkpt lat="47.24492" lon="4.14477">
        <ele>609</ele>
        <time>2018-06-25T09:08:45.121Z</time>
      </trkpt>
      <trkpt lat="47.24431" lon="4.1446">
        <ele>609</ele>
        <time>2018-06-25T09:08:46.121Z</time>
      </trkpt>
      <trkpt lat="47.24363" lon="4.14478">
        <ele>614</ele>
        <time>2018-06-25T09:08:47.121Z</time>
      </trkpt>
      <trkpt lat="47.24304" lon="4.14532">
        <ele>615</ele>
        <time>2018-06-25T09:08:48.121Z</time>
      </trkpt>
      <trkpt lat="47.24213" lon="4.145">
        <ele>615</ele>
        <time>2018-06-25T09:08:49.121Z</time>
      </trkpt>
      <trkpt lat="47.24178" lon="4.14501">
        <ele>613</ele>
        <time>2018-06-25T09:08:50.121Z</time>
      </trkpt>
      <trkpt lat="47.23967" lon="4.14367">
        <ele>607</ele>
        <time>2018-06-25T09:08:51.121Z</time>
      </trkpt>
      <trkpt lat="47.23943" lon="4.1439">
        <ele>605</ele>
        <time>2018-06-25T09:08:52.121Z</time>
      </trkpt>
      <trkpt lat="47.23914" lon="4.1447">
        <ele>605</ele>
        <time>2018-06-25T09:08:53.121Z</time>
      </trkpt>
      <trkpt lat="47.23891" lon="4.14806">
        <ele>615</ele>
        <time>2018-06-25T09:08:54.121Z</time>
      </trkpt>
      <trkpt lat="47.23853" lon="4.14907">
        <ele>621</ele>
        <time>2018-06-25T09:08:55.121Z</time>
      </trkpt>
      <trkpt lat="47.23904" lon="4.15148">
        <ele>622</ele>
        <time>2018-06-25T09:08:56.121Z</time>
      </trkpt>
      <trkpt lat="47.2403" lon="4.15594">
        <ele>597</ele>
        <time>2018-06-25T09:08:57.121Z</time>
      </trkpt>
      <trkpt lat="47.23853" lon="4.15827">
        <ele>608</ele>
        <time>2018-06-25T09:08:58.121Z</time>
      </trkpt>
      <trkpt lat="47.23799" lon="4.15854">
        <ele>602</ele>
        <time>2018-06-25T09:08:59.121Z</time>
      </trkpt>
      <trkpt lat="47.23786" lon="4.15918">
        <ele>597</ele>
        <time>2018-06-25T09:09:00.121Z</time>
      </trkpt>
      <trkpt lat="47.23789" lon="4.15986">
        <ele>591</ele>
        <time>2018-06-25T09:09:01.121Z</time>
      </trkpt>
      <trkpt lat="47.2375" lon="4.16093">
        <ele>578</ele>
        <time>2018-06-25T09:09:02.121Z</time>
      </trkpt>
      <trkpt lat="47.23732" lon="4.16112">
        <ele>579</ele>
        <time>2018-06-25T09:09:03.121Z</time>
      </trkpt>
      <trkpt lat="47.23745" lon="4.16189">
        <ele>573</ele>
        <time>2018-06-25T09:09:04.121Z</time>
      </trkpt>
      <trkpt lat="47.2378" lon="4.16234">
        <ele>571</ele>
        <time>2018-06-25T09:09:05.121Z</time>
      </trkpt>
      <trkpt lat="47.23786" lon="4.16288">
        <ele>570</ele>
        <time>2018-06-25T09:09:06.121Z</time>
      </trkpt>
      <trkpt lat="47.23813" lon="4.16354">
        <ele>571</ele>
        <time>2018-06-25T09:09:07.121Z</time>
      </trkpt>
      <trkpt lat="47.2374" lon="4.16435">
        <ele>571</ele>
        <time>2018-06-25T09:09:08.121Z</time>
      </trkpt>
      <trkpt lat="47.2372" lon="4.16475">
        <ele>572</ele>
        <time>2018-06-25T09:09:09.121Z</time>
      </trkpt>
      <trkpt lat="47.23689" lon="4.1661">
        <ele>574</ele>
        <time>2018-06-25T09:09:10.121Z</time>
      </trkpt>
      <trkpt lat="47.23712" lon="4.1669">
        <ele>573</ele>
        <time>2018-06-25T09:09:11.121Z</time>
      </trkpt>
      <trkpt lat="47.23685" lon="4.1672">
        <ele>568</ele>
        <time>2018-06-25T09:09:12.121Z</time>
      </trkpt>
      <trkpt lat="47.23678" lon="4.16753">
        <ele>564</ele>
        <time>2018-06-25T09:09:13.121Z</time>
      </trkpt>
      <trkpt lat="47.23689" lon="4.16766">
        <ele>564</ele>
        <time>2018-06-25T09:09:14.121Z</time>
      </trkpt>
      <trkpt lat="47.23655" lon="4.16944">
        <ele>542</ele>
        <time>2018-06-25T09:09:15.121Z</time>
      </trkpt>
      <trkpt lat="47.23594" lon="4.17047">
        <ele>535</ele>
        <time>2018-06-25T09:09:16.121Z</time>
      </trkpt>
      <trkpt lat="47.23606" lon="4.17091">
        <ele>530</ele>
        <time>2018-06-25T09:09:17.121Z</time>
      </trkpt>
      <trkpt lat="47.23602" lon="4.17146">
        <ele>524</ele>
        <time>2018-06-25T09:09:18.121Z</time>
      </trkpt>
      <trkpt lat="47.2357" lon="4.17198">
        <ele>519</ele>
        <time>2018-06-25T09:09:19.121Z</time>
      </trkpt>
      <trkpt lat="47.23517" lon="4.17216">
        <ele>513</ele>
        <time>2018-06-25T09:09:20.121Z</time>
      </trkpt>
      <trkpt lat="47.23508" lon="4.1724">
        <ele>510</ele>
        <time>2018-06-25T09:09:21.121Z</time>
      </trkpt>
      <trkpt lat="47.23515" lon="4.17279">
        <ele>508</ele>
        <time>2018-06-25T09:09:22.121Z</time>
      </trkpt>
      <trkpt lat="47.23501" lon="4.17306">
        <ele>506</ele>
        <time>2018-06-25T09:09:23.121Z</time>
      </trkpt>
      <trkpt lat="47.23432" lon="4.17175">
        <ele>502</ele>
        <time>2018-06-25T09:09:24.121Z</time>
      </trkpt>
      <trkpt lat="47.23432" lon="4.17061">
        <ele>510</ele>
        <time>2018-06-25T09:09:25.121Z</time>
      </trkpt>
      <trkpt lat="47.23425" lon="4.17047">
        <ele>511</ele>
        <time>2018-06-25T09:09:26.121Z</time>
      </trkpt>
      <trkpt lat="47.2336" lon="4.17038">
        <ele>510</ele>
        <time>2018-06-25T09:09:27.121Z</time>
      </trkpt>
      <trkpt lat="47.23234" lon="4.17068">
        <ele>501</ele>
        <time>2018-06-25T09:09:28.121Z</time>
      </trkpt>
      <trkpt lat="47.23218" lon="4.17175">
        <ele>493</ele>
        <time>2018-06-25T09:09:29.121Z</time>
      </trkpt>
      <trkpt lat="47.23198" lon="4.1719">
        <ele>491</ele>
        <time>2018-06-25T09:09:30.121Z</time>
      </trkpt>
      <trkpt lat="47.23149" lon="4.17152">
        <ele>490</ele>
        <time>2018-06-25T09:09:31.121Z</time>
      </trkpt>
      <trkpt lat="47.23104" lon="4.17259">
        <ele>482</ele>
        <time>2018-06-25T09:09:32.121Z</time>
      </trkpt>
      <trkpt lat="47.23088" lon="4.17253">
        <ele>481</ele>
        <time>2018-06-25T09:09:33.121Z</time>
      </trkpt>
      <trkpt lat="47.23052" lon="4.17188">
        <ele>489</ele>
        <time>2018-06-25T09:09:34.121Z</time>
      </trkpt>
      <trkpt lat="47.23018" lon="4.17209">
        <ele>490</ele>
        <time>2018-06-25T09:09:35.121Z</time>
      </trkpt>
      <trkpt lat="47.22976" lon="4.17297">
        <ele>483</ele>
        <time>2018-06-25T09:09:36.121Z</time>
      </trkpt>
      <trkpt lat="47.22974" lon="4.17352">
        <ele>480</ele>
        <time>2018-06-25T09:09:37.121Z</time>
      </trkpt>
      <trkpt lat="47.22985" lon="4.1739">
        <ele>478</ele>
        <time>2018-06-25T09:09:38.121Z</time>
      </trkpt>
      <trkpt lat="47.22978" lon="4.17413">
        <ele>477</ele>
        <time>2018-06-25T09:09:39.121Z</time>
      </trkpt>
      <trkpt lat="47.22951" lon="4.17427">
        <ele>477</ele>
        <time>2018-06-25T09:09:40.121Z</time>
      </trkpt>
      <trkpt lat="47.22808" lon="4.17366">
        <ele>472</ele>
        <time>2018-06-25T09:09:41.121Z</time>
      </trkpt>
      <trkpt lat="47.22797" lon="4.17391">
        <ele>469</ele>
        <time>2018-06-25T09:09:42.121Z</time>
      </trkpt>
      <trkpt lat="47.22698" lon="4.17397">
        <ele>476</ele>
        <time>2018-06-25T09:09:43.121Z</time>
      </trkpt>
      <trkpt lat="47.22649" lon="4.17466">
        <ele>474</ele>
        <time>2018-06-25T09:09:44.121Z</time>
      </trkpt>
      <trkpt lat="47.22602" lon="4.17504">
        <ele>470</ele>
        <time>2018-06-25T09:09:45.121Z</time>
      </trkpt>
      <trkpt lat="47.22399" lon="4.17594">
        <ele>473</ele>
        <time>2018-06-25T09:09:46.121Z</time>
      </trkpt>
      <trkpt lat="47.22308" lon="4.17661">
        <ele>470</ele>
        <time>2018-06-25T09:09:47.121Z</time>
      </trkpt>
      <trkpt lat="47.22272" lon="4.17651">
        <ele>470</ele>
        <time>2018-06-25T09:09:48.121Z</time>
      </trkpt>
      <trkpt lat="47.22243" lon="4.17681">
        <ele>466</ele>
        <time>2018-06-25T09:09:49.121Z</time>
      </trkpt>
      <trkpt lat="47.22237" lon="4.17664">
        <ele>466</ele>
        <time>2018-06-25T09:09:50.121Z</time>
      </trkpt>
      <trkpt lat="47.2201" lon="4.17575">
        <ele>461</ele>
        <time>2018-06-25T09:09:51.121Z</time>
      </trkpt>
      <trkpt lat="47.21915" lon="4.17594">
        <ele>462</ele>
        <time>2018-06-25T09:09:52.121Z</time>
      </trkpt>
      <trkpt lat="47.21804" lon="4.17672">
        <ele>461</ele>
        <time>2018-06-25T09:09:53.121Z</time>
      </trkpt>
      <trkpt lat="47.21759" lon="4.17685">
        <ele>460</ele>
        <time>2018-06-25T09:09:54.121Z</time>
      </trkpt>
      <trkpt lat="47.2166" lon="4.17668">
        <ele>458</ele>
        <time>2018-06-25T09:09:55.121Z</time>
      </trkpt>
      <trkpt lat="47.21364" lon="4.17725">
        <ele>461</ele>
        <time>2018-06-25T09:09:56.121Z</time>
      </trkpt>
      <trkpt lat="47.21185" lon="4.17803">
        <ele>460</ele>
        <time>2018-06-25T09:09:57.121Z</time>
      </trkpt>
      <trkpt lat="47.21122" lon="4.17796">
        <ele>460</ele>
        <time>2018-06-25T09:09:58.121Z</time>
      </trkpt>
      <trkpt lat="47.21079" lon="4.17771">
        <ele>460</ele>
        <time>2018-06-25T09:09:59.121Z</time>
      </trkpt>
      <trkpt lat="47.20777" lon="4.17491">
        <ele>457</ele>
        <time>2018-06-25T09:10:00.121Z</time>
      </trkpt>
      <trkpt lat="47.20602" lon="4.17457">
        <ele>459</ele>
        <time>2018-06-25T09:10:01.121Z</time>
      </trkpt>
      <trkpt lat="47.19956" lon="4.17712">
        <ele>455</ele>
        <time>2018-06-25T09:10:02.121Z</time>
      </trkpt>
      <trkpt lat="47.19895" lon="4.17692">
        <ele>456</ele>
        <time>2018-06-25T09:10:03.121Z</time>
      </trkpt>
      <trkpt lat="47.19811" lon="4.17698">
        <ele>459</ele>
        <time>2018-06-25T09:10:04.121Z</time>
      </trkpt>
      <trkpt lat="47.19737" lon="4.17668">
        <ele>465</ele>
        <time>2018-06-25T09:10:05.121Z</time>
      </trkpt>
      <trkpt lat="47.19553" lon="4.1745">
        <ele>482</ele>
        <time>2018-06-25T09:10:06.121Z</time>
      </trkpt>
      <trkpt lat="47.19394" lon="4.17286">
        <ele>477</ele>
        <time>2018-06-25T09:10:07.121Z</time>
      </trkpt>
      <trkpt lat="47.19266" lon="4.17179">
        <ele>465</ele>
        <time>2018-06-25T09:10:08.121Z</time>
      </trkpt>
      <trkpt lat="47.19185" lon="4.1724">
        <ele>468</ele>
        <time>2018-06-25T09:10:09.121Z</time>
      </trkpt>
      <trkpt lat="47.19113" lon="4.17269">
        <ele>466</ele>
        <time>2018-06-25T09:10:10.121Z</time>
      </trkpt>
      <trkpt lat="47.19054" lon="4.17327">
        <ele>466</ele>
        <time>2018-06-25T09:10:11.121Z</time>
      </trkpt>
      <trkpt lat="47.19004" lon="4.17319">
        <ele>465</ele>
        <time>2018-06-25T09:10:12.121Z</time>
      </trkpt>
      <trkpt lat="47.18999" lon="4.172">
        <ele>470</ele>
        <time>2018-06-25T09:10:13.121Z</time>
      </trkpt>
      <trkpt lat="47.1893" lon="4.17129">
        <ele>486</ele>
        <time>2018-06-25T09:10:14.121Z</time>
      </trkpt>
      <trkpt lat="47.1866" lon="4.17008">
        <ele>506</ele>
        <time>2018-06-25T09:10:15.121Z</time>
      </trkpt>
      <trkpt lat="47.18522" lon="4.16837">
        <ele>506</ele>
        <time>2018-06-25T09:10:16.121Z</time>
      </trkpt>
      <trkpt lat="47.18436" lon="4.16657">
        <ele>512</ele>
        <time>2018-06-25T09:10:17.121Z</time>
      </trkpt>
      <trkpt lat="47.18339" lon="4.16277">
        <ele>512</ele>
        <time>2018-06-25T09:10:18.121Z</time>
      </trkpt>
      <trkpt lat="47.18347" lon="4.1621">
        <ele>511</ele>
        <time>2018-06-25T09:10:19.121Z</time>
      </trkpt>
      <trkpt lat="47.18342" lon="4.16086">
        <ele>511</ele>
        <time>2018-06-25T09:10:20.121Z</time>
      </trkpt>
      <trkpt lat="47.18358" lon="4.15999">
        <ele>510</ele>
        <time>2018-06-25T09:10:21.121Z</time>
      </trkpt>
      <trkpt lat="47.1836" lon="4.15785">
        <ele>520</ele>
        <time>2018-06-25T09:10:22.121Z</time>
      </trkpt>
      <trkpt lat="47.18342" lon="4.15724">
        <ele>524</ele>
        <time>2018-06-25T09:10:23.121Z</time>
      </trkpt>
      <trkpt lat="47.18342" lon="4.15667">
        <ele>528</ele>
        <time>2018-06-25T09:10:24.121Z</time>
      </trkpt>
      <trkpt lat="47.18302" lon="4.15493">
        <ele>533</ele>
        <time>2018-06-25T09:10:25.121Z</time>
      </trkpt>
      <trkpt lat="47.18313" lon="4.15436">
        <ele>538</ele>
        <time>2018-06-25T09:10:26.121Z</time>
      </trkpt>
      <trkpt lat="47.18335" lon="4.15419">
        <ele>542</ele>
        <time>2018-06-25T09:10:27.121Z</time>
      </trkpt>
      <trkpt lat="47.18347" lon="4.15382">
        <ele>551</ele>
        <time>2018-06-25T09:10:28.121Z</time>
      </trkpt>
      <trkpt lat="47.1834" lon="4.15346">
        <ele>555</ele>
        <time>2018-06-25T09:10:29.121Z</time>
      </trkpt>
      <trkpt lat="47.1827" lon="4.15221">
        <ele>564</ele>
        <time>2018-06-25T09:10:30.121Z</time>
      </trkpt>
      <trkpt lat="47.18203" lon="4.1496">
        <ele>578</ele>
        <time>2018-06-25T09:10:31.121Z</time>
      </trkpt>
      <trkpt lat="47.18349" lon="4.14578">
        <ele>608</ele>
        <time>2018-06-25T09:10:32.121Z</time>
      </trkpt>
      <trkpt lat="47.18414" lon="4.14481">
        <ele>609</ele>
        <time>2018-06-25T09:10:33.121Z</time>
      </trkpt>
      <trkpt lat="47.18463" lon="4.14441">
        <ele>608</ele>
        <time>2018-06-25T09:10:34.121Z</time>
      </trkpt>
      <trkpt lat="47.18515" lon="4.1437">
        <ele>610</ele>
        <time>2018-06-25T09:10:35.121Z</time>
      </trkpt>
      <trkpt lat="47.18593" lon="4.14339">
        <ele>617</ele>
        <time>2018-06-25T09:10:36.121Z</time>
      </trkpt>
      <trkpt lat="47.18591" lon="4.14158">
        <ele>627</ele>
        <time>2018-06-25T09:10:37.121Z</time>
      </trkpt>
      <trkpt lat="47.18618" lon="4.14059">
        <ele>628</ele>
        <time>2018-06-25T09:10:38.121Z</time>
      </trkpt>
      <trkpt lat="47.18604" lon="4.13844">
        <ele>638</ele>
        <time>2018-06-25T09:10:39.121Z</time>
      </trkpt>
      <trkpt lat="47.18584" lon="4.13786">
        <ele>639</ele>
        <time>2018-06-25T09:10:40.121Z</time>
      </trkpt>
      <trkpt lat="47.18501" lon="4.13717">
        <ele>645</ele>
        <time>2018-06-25T09:10:41.121Z</time>
      </trkpt>
      <trkpt lat="47.18481" lon="4.1366">
        <ele>645</ele>
        <time>2018-06-25T09:10:42.121Z</time>
      </trkpt>
      <trkpt lat="47.1849" lon="4.13613">
        <ele>647</ele>
        <time>2018-06-25T09:10:43.121Z</time>
      </trkpt>
      <trkpt lat="47.18526" lon="4.13553">
        <ele>650</ele>
        <time>2018-06-25T09:10:44.121Z</time>
      </trkpt>
      <trkpt lat="47.18358" lon="4.13492">
        <ele>670</ele>
        <time>2018-06-25T09:10:45.121Z</time>
      </trkpt>
      <trkpt lat="47.18265" lon="4.13425">
        <ele>665</ele>
        <time>2018-06-25T09:10:46.121Z</time>
      </trkpt>
      <trkpt lat="47.18171" lon="4.13462">
        <ele>659</ele>
        <time>2018-06-25T09:10:47.121Z</time>
      </trkpt>
      <trkpt lat="47.18163" lon="4.13284">
        <ele>665</ele>
        <time>2018-06-25T09:10:48.121Z</time>
      </trkpt>
      <trkpt lat="47.18109" lon="4.13123">
        <ele>664</ele>
        <time>2018-06-25T09:10:49.121Z</time>
      </trkpt>
      <trkpt lat="47.18095" lon="4.12986">
        <ele>664</ele>
        <time>2018-06-25T09:10:50.121Z</time>
      </trkpt>
      <trkpt lat="47.17992" lon="4.12751">
        <ele>660</ele>
        <time>2018-06-25T09:10:51.121Z</time>
      </trkpt>
      <trkpt lat="47.17979" lon="4.12527">
        <ele>646</ele>
        <time>2018-06-25T09:10:52.121Z</time>
      </trkpt>
      <trkpt lat="47.17932" lon="4.12454">
        <ele>646</ele>
        <time>2018-06-25T09:10:53.121Z</time>
      </trkpt>
      <trkpt lat="47.17831" lon="4.12195">
        <ele>638</ele>
        <time>2018-06-25T09:10:54.121Z</time>
      </trkpt>
      <trkpt lat="47.17853" lon="4.12071">
        <ele>630</ele>
        <time>2018-06-25T09:10:55.121Z</time>
      </trkpt>
      <trkpt lat="47.17794" lon="4.11846">
        <ele>610</ele>
        <time>2018-06-25T09:10:56.121Z</time>
      </trkpt>
      <trkpt lat="47.17757" lon="4.11769">
        <ele>607</ele>
        <time>2018-06-25T09:10:57.121Z</time>
      </trkpt>
      <trkpt lat="47.17697" lon="4.11576">
        <ele>598</ele>
        <time>2018-06-25T09:10:58.121Z</time>
      </trkpt>
      <trkpt lat="47.17689" lon="4.11501">
        <ele>596</ele>
        <time>2018-06-25T09:10:59.121Z</time>
      </trkpt>
      <trkpt lat="47.17625" lon="4.11555">
        <ele>597</ele>
        <time>2018-06-25T09:11:00.121Z</time>
      </trkpt>
      <trkpt lat="47.17618" lon="4.11615">
        <ele>599</ele>
        <time>2018-06-25T09:11:01.121Z</time>
      </trkpt>
      <trkpt lat="47.17646" lon="4.11746">
        <ele>602</ele>
        <time>2018-06-25T09:11:02.121Z</time>
      </trkpt>
      <trkpt lat="47.17624" lon="4.11823">
        <ele>606</ele>
        <time>2018-06-25T09:11:03.121Z</time>
      </trkpt>
      <trkpt lat="47.17609" lon="4.11822">
        <ele>605</ele>
        <time>2018-06-25T09:11:04.121Z</time>
      </trkpt>
      <trkpt lat="47.17537" lon="4.11879">
        <ele>607</ele>
        <time>2018-06-25T09:11:05.121Z</time>
      </trkpt>
      <trkpt lat="47.1751" lon="4.11869">
        <ele>608</ele>
        <time>2018-06-25T09:11:06.121Z</time>
      </trkpt>
      <trkpt lat="47.17382" lon="4.11655">
        <ele>610</ele>
        <time>2018-06-25T09:11:07.121Z</time>
      </trkpt>
      <trkpt lat="47.17316" lon="4.11632">
        <ele>614</ele>
        <time>2018-06-25T09:11:08.121Z</time>
      </trkpt>
      <trkpt lat="47.16954" lon="4.1179">
        <ele>637</ele>
        <time>2018-06-25T09:11:09.121Z</time>
      </trkpt>
      <trkpt lat="47.16842" lon="4.11882">
        <ele>633</ele>
        <time>2018-06-25T09:11:10.121Z</time>
      </trkpt>
      <trkpt lat="47.16838" lon="4.11926">
        <ele>629</ele>
        <time>2018-06-25T09:11:11.121Z</time>
      </trkpt>
      <trkpt lat="47.1674" lon="4.11907">
        <ele>634</ele>
        <time>2018-06-25T09:11:12.121Z</time>
      </trkpt>
      <trkpt lat="47.16701" lon="4.11994">
        <ele>633</ele>
        <time>2018-06-25T09:11:13.121Z</time>
      </trkpt>
      <trkpt lat="47.16669" lon="4.1199">
        <ele>636</ele>
        <time>2018-06-25T09:11:14.121Z</time>
      </trkpt>
      <trkpt lat="47.16507" lon="4.12041">
        <ele>633</ele>
        <time>2018-06-25T09:11:15.121Z</time>
      </trkpt>
      <trkpt lat="47.16436" lon="4.12201">
        <ele>624</ele>
        <time>2018-06-25T09:11:16.121Z</time>
      </trkpt>
      <trkpt lat="47.16347" lon="4.12259">
        <ele>623</ele>
        <time>2018-06-25T09:11:17.121Z</time>
      </trkpt>
      <trkpt lat="47.16313" lon="4.12339">
        <ele>616</ele>
        <time>2018-06-25T09:11:18.121Z</time>
      </trkpt>
      <trkpt lat="47.16311" lon="4.12413">
        <ele>614</ele>
        <time>2018-06-25T09:11:19.121Z</time>
      </trkpt>
      <trkpt lat="47.16259" lon="4.12547">
        <ele>615</ele>
        <time>2018-06-25T09:11:20.121Z</time>
      </trkpt>
      <trkpt lat="47.16247" lon="4.12658">
        <ele>617</ele>
        <time>2018-06-25T09:11:21.121Z</time>
      </trkpt>
      <trkpt lat="47.16225" lon="4.12732">
        <ele>620</ele>
        <time>2018-06-25T09:11:22.121Z</time>
      </trkpt>
      <trkpt lat="47.16154" lon="4.12842">
        <ele>623</ele>
        <time>2018-06-25T09:11:23.121Z</time>
      </trkpt>
      <trkpt lat="47.16141" lon="4.12939">
        <ele>624</ele>
        <time>2018-06-25T09:11:24.121Z</time>
      </trkpt>
      <trkpt lat="47.15995" lon="4.12788">
        <ele>631</ele>
        <time>2018-06-25T09:11:25.121Z</time>
      </trkpt>
      <trkpt lat="47.15903" lon="4.12718">
        <ele>638</ele>
        <time>2018-06-25T09:11:26.121Z</time>
      </trkpt>
      <trkpt lat="47.15834" lon="4.12633">
        <ele>637</ele>
        <time>2018-06-25T09:11:27.121Z</time>
      </trkpt>
      <trkpt lat="47.15785" lon="4.12596">
        <ele>643</ele>
        <time>2018-06-25T09:11:28.121Z</time>
      </trkpt>
      <trkpt lat="47.15708" lon="4.12567">
        <ele>647</ele>
        <time>2018-06-25T09:11:29.121Z</time>
      </trkpt>
      <trkpt lat="47.15459" lon="4.12402">
        <ele>676</ele>
        <time>2018-06-25T09:11:30.121Z</time>
      </trkpt>
      <trkpt lat="47.15413" lon="4.12285">
        <ele>674</ele>
        <time>2018-06-25T09:11:31.121Z</time>
      </trkpt>
      <trkpt lat="47.1517" lon="4.1206">
        <ele>677</ele>
        <time>2018-06-25T09:11:32.121Z</time>
      </trkpt>
      <trkpt lat="47.15058" lon="4.11904">
        <ele>662</ele>
        <time>2018-06-25T09:11:33.121Z</time>
      </trkpt>
      <trkpt lat="47.14535" lon="4.11427">
        <ele>656</ele>
        <time>2018-06-25T09:11:34.121Z</time>
      </trkpt>
      <trkpt lat="47.14023" lon="4.10622">
        <ele>636</ele>
        <time>2018-06-25T09:11:35.121Z</time>
      </trkpt>
      <trkpt lat="47.13977" lon="4.10337">
        <ele>624</ele>
        <time>2018-06-25T09:11:36.121Z</time>
      </trkpt>
      <trkpt lat="47.13694" lon="4.0998">
        <ele>640</ele>
        <time>2018-06-25T09:11:37.121Z</time>
      </trkpt>
      <trkpt lat="47.13682" lon="4.09926">
        <ele>640</ele>
        <time>2018-06-25T09:11:38.121Z</time>
      </trkpt>
      <trkpt lat="47.13679" lon="4.09775">
        <ele>636</ele>
        <time>2018-06-25T09:11:39.121Z</time>
      </trkpt>
      <trkpt lat="47.13699" lon="4.09548">
        <ele>624</ele>
        <time>2018-06-25T09:11:40.121Z</time>
      </trkpt>
      <trkpt lat="47.13609" lon="4.09071">
        <ele>634</ele>
        <time>2018-06-25T09:11:41.121Z</time>
      </trkpt>
      <trkpt lat="47.13526" lon="4.08796">
        <ele>621</ele>
        <time>2018-06-25T09:11:42.121Z</time>
      </trkpt>
      <trkpt lat="47.13529" lon="4.08668">
        <ele>616</ele>
        <time>2018-06-25T09:11:43.121Z</time>
      </trkpt>
      <trkpt lat="47.13495" lon="4.08438">
        <ele>620</ele>
        <time>2018-06-25T09:11:44.121Z</time>
      </trkpt>
      <trkpt lat="47.13414" lon="4.08377">
        <ele>625</ele>
        <time>2018-06-25T09:11:45.121Z</time>
      </trkpt>
      <trkpt lat="47.13392" lon="4.08334">
        <ele>628</ele>
        <time>2018-06-25T09:11:46.121Z</time>
      </trkpt>
      <trkpt lat="47.1338" lon="4.0826">
        <ele>630</ele>
        <time>2018-06-25T09:11:47.121Z</time>
      </trkpt>
      <trkpt lat="47.13378" lon="4.08068">
        <ele>641</ele>
        <time>2018-06-25T09:11:48.121Z</time>
      </trkpt>
      <trkpt lat="47.13349" lon="4.07991">
        <ele>641</ele>
        <time>2018-06-25T09:11:49.121Z</time>
      </trkpt>
      <trkpt lat="47.13313" lon="4.07634">
        <ele>659</ele>
        <time>2018-06-25T09:11:50.121Z</time>
      </trkpt>
      <trkpt lat="47.13293" lon="4.07592">
        <ele>664</ele>
        <time>2018-06-25T09:11:51.121Z</time>
      </trkpt>
      <trkpt lat="47.13225" lon="4.07569">
        <ele>663</ele>
        <time>2018-06-25T09:11:52.121Z</time>
      </trkpt>
      <trkpt lat="47.13123" lon="4.07436">
        <ele>670</ele>
        <time>2018-06-25T09:11:53.121Z</time>
      </trkpt>
      <trkpt lat="47.13099" lon="4.07422">
        <ele>670</ele>
        <time>2018-06-25T09:11:54.121Z</time>
      </trkpt>
      <trkpt lat="47.13023" lon="4.0743">
        <ele>674</ele>
        <time>2018-06-25T09:11:55.121Z</time>
      </trkpt>
      <trkpt lat="47.12934" lon="4.07391">
        <ele>675</ele>
        <time>2018-06-25T09:11:56.121Z</time>
      </trkpt>
      <trkpt lat="47.12829" lon="4.07432">
        <ele>681</ele>
        <time>2018-06-25T09:11:57.121Z</time>
      </trkpt>
      <trkpt lat="47.12757" lon="4.07369">
        <ele>682</ele>
        <time>2018-06-25T09:11:58.121Z</time>
      </trkpt>
      <trkpt lat="47.12685" lon="4.07331">
        <ele>672</ele>
        <time>2018-06-25T09:11:59.121Z</time>
      </trkpt>
      <trkpt lat="47.127" lon="4.07224">
        <ele>663</ele>
        <time>2018-06-25T09:12:00.121Z</time>
      </trkpt>
      <trkpt lat="47.12647" lon="4.0719">
        <ele>657</ele>
        <time>2018-06-25T09:12:01.121Z</time>
      </trkpt>
      <trkpt lat="47.12594" lon="4.07121">
        <ele>652</ele>
        <time>2018-06-25T09:12:02.121Z</time>
      </trkpt>
      <trkpt lat="47.12576" lon="4.07043">
        <ele>655</ele>
        <time>2018-06-25T09:12:03.121Z</time>
      </trkpt>
      <trkpt lat="47.12643" lon="4.06809">
        <ele>665</ele>
        <time>2018-06-25T09:12:04.121Z</time>
      </trkpt>
      <trkpt lat="47.12703" lon="4.06754">
        <ele>668</ele>
        <time>2018-06-25T09:12:05.121Z</time>
      </trkpt>
      <trkpt lat="47.12705" lon="4.06715">
        <ele>671</ele>
        <time>2018-06-25T09:12:06.121Z</time>
      </trkpt>
      <trkpt lat="47.12673" lon="4.06661">
        <ele>675</ele>
        <time>2018-06-25T09:12:07.121Z</time>
      </trkpt>
      <trkpt lat="47.12665" lon="4.06617">
        <ele>677</ele>
        <time>2018-06-25T09:12:08.121Z</time>
      </trkpt>
      <trkpt lat="47.12674" lon="4.06577">
        <ele>678</ele>
        <time>2018-06-25T09:12:09.121Z</time>
      </trkpt>
      <trkpt lat="47.12584" lon="4.06504">
        <ele>681</ele>
        <time>2018-06-25T09:12:10.121Z</time>
      </trkpt>
      <trkpt lat="47.1244" lon="4.06483">
        <ele>688</ele>
        <time>2018-06-25T09:12:11.121Z</time>
      </trkpt>
      <trkpt lat="47.12372" lon="4.06534">
        <ele>685</ele>
        <time>2018-06-25T09:12:12.121Z</time>
      </trkpt>
      <trkpt lat="47.12322" lon="4.06655">
        <ele>685</ele>
        <time>2018-06-25T09:12:13.121Z</time>
      </trkpt>
      <trkpt lat="47.12228" lon="4.06674">
        <ele>686</ele>
        <time>2018-06-25T09:12:14.121Z</time>
      </trkpt>
      <trkpt lat="47.12226" lon="4.06742">
        <ele>687</ele>
        <time>2018-06-25T09:12:15.121Z</time>
      </trkpt>
      <trkpt lat="47.12105" lon="4.07174">
        <ele>688</ele>
        <time>2018-06-25T09:12:16.121Z</time>
      </trkpt>
      <trkpt lat="47.1208" lon="4.07352">
        <ele>692</ele>
        <time>2018-06-25T09:12:17.121Z</time>
      </trkpt>
      <trkpt lat="47.12042" lon="4.07479">
        <ele>695</ele>
        <time>2018-06-25T09:12:18.121Z</time>
      </trkpt>
      <trkpt lat="47.11977" lon="4.07607">
        <ele>700</ele>
        <time>2018-06-25T09:12:19.121Z</time>
      </trkpt>
      <trkpt lat="47.11911" lon="4.07631">
        <ele>703</ele>
        <time>2018-06-25T09:12:20.121Z</time>
      </trkpt>
      <trkpt lat="47.11596" lon="4.07849">
        <ele>727</ele>
        <time>2018-06-25T09:12:21.121Z</time>
      </trkpt>
      <trkpt lat="47.11443" lon="4.08023">
        <ele>724</ele>
        <time>2018-06-25T09:12:22.121Z</time>
      </trkpt>
      <trkpt lat="47.11347" lon="4.08082">
        <ele>727</ele>
        <time>2018-06-25T09:12:23.121Z</time>
      </trkpt>
      <trkpt lat="47.11253" lon="4.08115">
        <ele>727</ele>
        <time>2018-06-25T09:12:24.121Z</time>
      </trkpt>
      <trkpt lat="47.11174" lon="4.0818">
        <ele>731</ele>
        <time>2018-06-25T09:12:25.121Z</time>
      </trkpt>
      <trkpt lat="47.11118" lon="4.08196">
        <ele>734</ele>
        <time>2018-06-25T09:12:26.121Z</time>
      </trkpt>
      <trkpt lat="47.1104" lon="4.08187">
        <ele>736</ele>
        <time>2018-06-25T09:12:27.121Z</time>
      </trkpt>
      <trkpt lat="47.10961" lon="4.08143">
        <ele>737</ele>
        <time>2018-06-25T09:12:28.121Z</time>
      </trkpt>
      <trkpt lat="47.10762" lon="4.08099">
        <ele>742</ele>
        <time>2018-06-25T09:12:29.121Z</time>
      </trkpt>
      <trkpt lat="47.10686" lon="4.08113">
        <ele>745</ele>
        <time>2018-06-25T09:12:30.121Z</time>
      </trkpt>
      <trkpt lat="47.10614" lon="4.08152">
        <ele>749</ele>
        <time>2018-06-25T09:12:31.121Z</time>
      </trkpt>
      <trkpt lat="47.10633" lon="4.08217">
        <ele>742</ele>
        <time>2018-06-25T09:12:32.121Z</time>
      </trkpt>
      <trkpt lat="47.10601" lon="4.0837">
        <ele>738</ele>
        <time>2018-06-25T09:12:33.121Z</time>
      </trkpt>
      <trkpt lat="47.10549" lon="4.08482">
        <ele>732</ele>
        <time>2018-06-25T09:12:34.121Z</time>
      </trkpt>
      <trkpt lat="47.10519" lon="4.08615">
        <ele>729</ele>
        <time>2018-06-25T09:12:35.121Z</time>
      </trkpt>
      <trkpt lat="47.10515" lon="4.08839">
        <ele>731</ele>
        <time>2018-06-25T09:12:36.121Z</time>
      </trkpt>
      <trkpt lat="47.10544" lon="4.09122">
        <ele>728</ele>
        <time>2018-06-25T09:12:37.121Z</time>
      </trkpt>
      <trkpt lat="47.10537" lon="4.09202">
        <ele>726</ele>
        <time>2018-06-25T09:12:38.121Z</time>
      </trkpt>
      <trkpt lat="47.10508" lon="4.0931">
        <ele>722</ele>
        <time>2018-06-25T09:12:39.121Z</time>
      </trkpt>
      <trkpt lat="47.10558" lon="4.09497">
        <ele>720</ele>
        <time>2018-06-25T09:12:40.121Z</time>
      </trkpt>
      <trkpt lat="47.1051" lon="4.09548">
        <ele>723</ele>
        <time>2018-06-25T09:12:41.121Z</time>
      </trkpt>
      <trkpt lat="47.10396" lon="4.09581">
        <ele>720</ele>
        <time>2018-06-25T09:12:42.121Z</time>
      </trkpt>
      <trkpt lat="47.10338" lon="4.09564">
        <ele>715</ele>
        <time>2018-06-25T09:12:43.121Z</time>
      </trkpt>
      <trkpt lat="47.10225" lon="4.0963">
        <ele>715</ele>
        <time>2018-06-25T09:12:44.121Z</time>
      </trkpt>
      <trkpt lat="47.10035" lon="4.09966">
        <ele>686</ele>
        <time>2018-06-25T09:12:45.121Z</time>
      </trkpt>
      <trkpt lat="47.09988" lon="4.10121">
        <ele>676</ele>
        <time>2018-06-25T09:12:46.121Z</time>
      </trkpt>
      <trkpt lat="47.09971" lon="4.10361">
        <ele>668</ele>
        <time>2018-06-25T09:12:47.121Z</time>
      </trkpt>
      <trkpt lat="47.09959" lon="4.10396">
        <ele>668</ele>
        <time>2018-06-25T09:12:48.121Z</time>
      </trkpt>
      <trkpt lat="47.09908" lon="4.10461">
        <ele>664</ele>
        <time>2018-06-25T09:12:49.121Z</time>
      </trkpt>
      <trkpt lat="47.09847" lon="4.10486">
        <ele>655</ele>
        <time>2018-06-25T09:12:50.121Z</time>
      </trkpt>
      <trkpt lat="47.0978" lon="4.10546">
        <ele>652</ele>
        <time>2018-06-25T09:12:51.121Z</time>
      </trkpt>
      <trkpt lat="47.09692" lon="4.10757">
        <ele>654</ele>
        <time>2018-06-25T09:12:52.121Z</time>
      </trkpt>
      <trkpt lat="47.09641" lon="4.10844">
        <ele>652</ele>
        <time>2018-06-25T09:12:53.121Z</time>
      </trkpt>
      <trkpt lat="47.09612" lon="4.10951">
        <ele>647</ele>
        <time>2018-06-25T09:12:54.121Z</time>
      </trkpt>
      <trkpt lat="47.09589" lon="4.11102">
        <ele>639</ele>
        <time>2018-06-25T09:12:55.121Z</time>
      </trkpt>
      <trkpt lat="47.09562" lon="4.11159">
        <ele>630</ele>
        <time>2018-06-25T09:12:56.121Z</time>
      </trkpt>
      <trkpt lat="47.0949" lon="4.1124">
        <ele>618</ele>
        <time>2018-06-25T09:12:57.121Z</time>
      </trkpt>
      <trkpt lat="47.09258" lon="4.11414">
        <ele>611</ele>
        <time>2018-06-25T09:12:58.121Z</time>
      </trkpt>
      <trkpt lat="47.09177" lon="4.11502">
        <ele>603</ele>
        <time>2018-06-25T09:12:59.121Z</time>
      </trkpt>
      <trkpt lat="47.09033" lon="4.11843">
        <ele>572</ele>
        <time>2018-06-25T09:13:00.121Z</time>
      </trkpt>
      <trkpt lat="47.09029" lon="4.11877">
        <ele>569</ele>
        <time>2018-06-25T09:13:01.121Z</time>
      </trkpt>
      <trkpt lat="47.09086" lon="4.12054">
        <ele>557</ele>
        <time>2018-06-25T09:13:02.121Z</time>
      </trkpt>
      <trkpt lat="47.09051" lon="4.12125">
        <ele>553</ele>
        <time>2018-06-25T09:13:03.121Z</time>
      </trkpt>
      <trkpt lat="47.0902" lon="4.12013">
        <ele>554</ele>
        <time>2018-06-25T09:13:04.121Z</time>
      </trkpt>
      <trkpt lat="47.08907" lon="4.1183">
        <ele>560</ele>
        <time>2018-06-25T09:13:05.121Z</time>
      </trkpt>
      <trkpt lat="47.08833" lon="4.1176">
        <ele>560</ele>
        <time>2018-06-25T09:13:06.121Z</time>
      </trkpt>
      <trkpt lat="47.08789" lon="4.11672">
        <ele>562</ele>
        <time>2018-06-25T09:13:07.121Z</time>
      </trkpt>
      <trkpt lat="47.08775" lon="4.11672">
        <ele>562</ele>
        <time>2018-06-25T09:13:08.121Z</time>
      </trkpt>
      <trkpt lat="47.08676" lon="4.11561">
        <ele>567</ele>
        <time>2018-06-25T09:13:09.121Z</time>
      </trkpt>
      <trkpt lat="47.08585" lon="4.11521">
        <ele>574</ele>
        <time>2018-06-25T09:13:10.121Z</time>
      </trkpt>
      <trkpt lat="47.08515" lon="4.11511">
        <ele>582</ele>
        <time>2018-06-25T09:13:11.121Z</time>
      </trkpt>
      <trkpt lat="47.08365" lon="4.11414">
        <ele>584</ele>
        <time>2018-06-25T09:13:12.121Z</time>
      </trkpt>
      <trkpt lat="47.08244" lon="4.11367">
        <ele>580</ele>
        <time>2018-06-25T09:13:13.121Z</time>
      </trkpt>
      <trkpt lat="47.08114" lon="4.1126">
        <ele>578</ele>
        <time>2018-06-25T09:13:14.121Z</time>
      </trkpt>
      <trkpt lat="47.08015" lon="4.11207">
        <ele>580</ele>
        <time>2018-06-25T09:13:15.121Z</time>
      </trkpt>
      <trkpt lat="47.07917" lon="4.11128">
        <ele>582</ele>
        <time>2018-06-25T09:13:16.121Z</time>
      </trkpt>
      <trkpt lat="47.07809" lon="4.10998">
        <ele>566</ele>
        <time>2018-06-25T09:13:17.121Z</time>
      </trkpt>
      <trkpt lat="47.0754" lon="4.10603">
        <ele>508</ele>
        <time>2018-06-25T09:13:18.121Z</time>
      </trkpt>
      <trkpt lat="47.075" lon="4.10573">
        <ele>505</ele>
        <time>2018-06-25T09:13:19.121Z</time>
      </trkpt>
      <trkpt lat="47.07441" lon="4.10716">
        <ele>520</ele>
        <time>2018-06-25T09:13:20.121Z</time>
      </trkpt>
      <trkpt lat="47.07338" lon="4.10841">
        <ele>543</ele>
        <time>2018-06-25T09:13:21.121Z</time>
      </trkpt>
      <trkpt lat="47.07186" lon="4.10741">
        <ele>540</ele>
        <time>2018-06-25T09:13:22.121Z</time>
      </trkpt>
      <trkpt lat="47.07149" lon="4.10754">
        <ele>540</ele>
        <time>2018-06-25T09:13:23.121Z</time>
      </trkpt>
      <trkpt lat="47.06981" lon="4.10965">
        <ele>517</ele>
        <time>2018-06-25T09:13:24.121Z</time>
      </trkpt>
      <trkpt lat="47.06971" lon="4.11125">
        <ele>518</ele>
        <time>2018-06-25T09:13:25.121Z</time>
      </trkpt>
      <trkpt lat="47.0693" lon="4.11146">
        <ele>510</ele>
        <time>2018-06-25T09:13:26.121Z</time>
      </trkpt>
      <trkpt lat="47.06793" lon="4.11132">
        <ele>515</ele>
        <time>2018-06-25T09:13:27.121Z</time>
      </trkpt>
      <trkpt lat="47.06715" lon="4.11177">
        <ele>522</ele>
        <time>2018-06-25T09:13:28.121Z</time>
      </trkpt>
      <trkpt lat="47.06628" lon="4.11263">
        <ele>514</ele>
        <time>2018-06-25T09:13:29.121Z</time>
      </trkpt>
      <trkpt lat="47.06549" lon="4.11246">
        <ele>498</ele>
        <time>2018-06-25T09:13:30.121Z</time>
      </trkpt>
      <trkpt lat="47.06515" lon="4.11254">
        <ele>495</ele>
        <time>2018-06-25T09:13:31.121Z</time>
      </trkpt>
      <trkpt lat="47.06477" lon="4.11297">
        <ele>494</ele>
        <time>2018-06-25T09:13:32.121Z</time>
      </trkpt>
      <trkpt lat="47.06479" lon="4.11367">
        <ele>493</ele>
        <time>2018-06-25T09:13:33.121Z</time>
      </trkpt>
      <trkpt lat="47.06555" lon="4.11642">
        <ele>488</ele>
        <time>2018-06-25T09:13:34.121Z</time>
      </trkpt>
      <trkpt lat="47.06549" lon="4.11706">
        <ele>484</ele>
        <time>2018-06-25T09:13:35.121Z</time>
      </trkpt>
      <trkpt lat="47.06515" lon="4.1176">
        <ele>478</ele>
        <time>2018-06-25T09:13:36.121Z</time>
      </trkpt>
      <trkpt lat="47.06461" lon="4.11766">
        <ele>473</ele>
        <time>2018-06-25T09:13:37.121Z</time>
      </trkpt>
      <trkpt lat="47.0645" lon="4.11789">
        <ele>473</ele>
        <time>2018-06-25T09:13:38.121Z</time>
      </trkpt>
      <trkpt lat="47.06475" lon="4.1193">
        <ele>471</ele>
        <time>2018-06-25T09:13:39.121Z</time>
      </trkpt>
      <trkpt lat="47.0637" lon="4.11897">
        <ele>464</ele>
        <time>2018-06-25T09:13:40.121Z</time>
      </trkpt>
      <trkpt lat="47.06305" lon="4.11903">
        <ele>460</ele>
        <time>2018-06-25T09:13:41.121Z</time>
      </trkpt>
      <trkpt lat="47.06192" lon="4.11877">
        <ele>450</ele>
        <time>2018-06-25T09:13:42.121Z</time>
      </trkpt>
      <trkpt lat="47.06105" lon="4.11877">
        <ele>443</ele>
        <time>2018-06-25T09:13:43.121Z</time>
      </trkpt>
      <trkpt lat="47.06096" lon="4.11857">
        <ele>440</ele>
        <time>2018-06-25T09:13:44.121Z</time>
      </trkpt>
      <trkpt lat="47.06123" lon="4.11806">
        <ele>435</ele>
        <time>2018-06-25T09:13:45.121Z</time>
      </trkpt>
      <trkpt lat="47.06141" lon="4.11682">
        <ele>422</ele>
        <time>2018-06-25T09:13:46.121Z</time>
      </trkpt>
      <trkpt lat="47.06104" lon="4.11671">
        <ele>415</ele>
        <time>2018-06-25T09:13:47.121Z</time>
      </trkpt>
      <trkpt lat="47.06034" lon="4.11688">
        <ele>409</ele>
        <time>2018-06-25T09:13:48.121Z</time>
      </trkpt>
      <trkpt lat="47.05917" lon="4.11642">
        <ele>395</ele>
        <time>2018-06-25T09:13:49.121Z</time>
      </trkpt>
      <trkpt lat="47.05921" lon="4.11703">
        <ele>395</ele>
        <time>2018-06-25T09:13:50.121Z</time>
      </trkpt>
      <trkpt lat="47.05887" lon="4.11924">
        <ele>405</ele>
        <time>2018-06-25T09:13:51.121Z</time>
      </trkpt>
      <trkpt lat="47.05755" lon="4.12266">
        <ele>387</ele>
        <time>2018-06-25T09:13:52.121Z</time>
      </trkpt>
      <trkpt lat="47.0577" lon="4.12635">
        <ele>388</ele>
        <time>2018-06-25T09:13:53.121Z</time>
      </trkpt>
      <trkpt lat="47.05762" lon="4.12694">
        <ele>387</ele>
        <time>2018-06-25T09:13:54.121Z</time>
      </trkpt>
      <trkpt lat="47.05618" lon="4.13">
        <ele>381</ele>
        <time>2018-06-25T09:13:55.121Z</time>
      </trkpt>
      <trkpt lat="47.05612" lon="4.13062">
        <ele>383</ele>
        <time>2018-06-25T09:13:56.121Z</time>
      </trkpt>
      <trkpt lat="47.05518" lon="4.13281">
        <ele>386</ele>
        <time>2018-06-25T09:13:57.121Z</time>
      </trkpt>
      <trkpt lat="47.0545" lon="4.13371">
        <ele>389</ele>
        <time>2018-06-25T09:13:58.121Z</time>
      </trkpt>
      <trkpt lat="47.05356" lon="4.13565">
        <ele>386</ele>
        <time>2018-06-25T09:13:59.121Z</time>
      </trkpt>
      <trkpt lat="47.05338" lon="4.13629">
        <ele>381</ele>
        <time>2018-06-25T09:14:00.121Z</time>
      </trkpt>
      <trkpt lat="47.05343" lon="4.13737">
        <ele>379</ele>
        <time>2018-06-25T09:14:01.121Z</time>
      </trkpt>
      <trkpt lat="47.0536" lon="4.138">
        <ele>382</ele>
        <time>2018-06-25T09:14:02.121Z</time>
      </trkpt>
      <trkpt lat="47.0535" lon="4.13995">
        <ele>375</ele>
        <time>2018-06-25T09:14:03.121Z</time>
      </trkpt>
      <trkpt lat="47.05255" lon="4.14604">
        <ele>377</ele>
        <time>2018-06-25T09:14:04.121Z</time>
      </trkpt>
      <trkpt lat="47.05203" lon="4.14806">
        <ele>369</ele>
        <time>2018-06-25T09:14:05.121Z</time>
      </trkpt>
      <trkpt lat="47.05203" lon="4.14917">
        <ele>369</ele>
        <time>2018-06-25T09:14:06.121Z</time>
      </trkpt>
      <trkpt lat="47.05184" lon="4.15075">
        <ele>362</ele>
        <time>2018-06-25T09:14:07.121Z</time>
      </trkpt>
      <trkpt lat="47.05131" lon="4.15242">
        <ele>357</ele>
        <time>2018-06-25T09:14:08.121Z</time>
      </trkpt>
      <trkpt lat="47.05095" lon="4.15704">
        <ele>362</ele>
        <time>2018-06-25T09:14:09.121Z</time>
      </trkpt>
      <trkpt lat="47.04939" lon="4.15855">
        <ele>362</ele>
        <time>2018-06-25T09:14:10.121Z</time>
      </trkpt>
      <trkpt lat="47.04906" lon="4.15948">
        <ele>365</ele>
        <time>2018-06-25T09:14:11.121Z</time>
      </trkpt>
      <trkpt lat="47.04787" lon="4.16076">
        <ele>367</ele>
        <time>2018-06-25T09:14:12.121Z</time>
      </trkpt>
      <trkpt lat="47.04627" lon="4.16107">
        <ele>368</ele>
        <time>2018-06-25T09:14:13.121Z</time>
      </trkpt>
      <trkpt lat="47.04468" lon="4.1619">
        <ele>365</ele>
        <time>2018-06-25T09:14:14.121Z</time>
      </trkpt>
      <trkpt lat="47.04161" lon="4.16452">
        <ele>356</ele>
        <time>2018-06-25T09:14:15.121Z</time>
      </trkpt>
      <trkpt lat="47.03804" lon="4.16722">
        <ele>355</ele>
        <time>2018-06-25T09:14:16.121Z</time>
      </trkpt>
      <trkpt lat="47.0371" lon="4.1682">
        <ele>352</ele>
        <time>2018-06-25T09:14:17.121Z</time>
      </trkpt>
      <trkpt lat="47.03638" lon="4.16857">
        <ele>349</ele>
        <time>2018-06-25T09:14:18.121Z</time>
      </trkpt>
      <trkpt lat="47.0359" lon="4.16914">
        <ele>349</ele>
        <time>2018-06-25T09:14:19.121Z</time>
      </trkpt>
      <trkpt lat="47.03457" lon="4.17163">
        <ele>352</ele>
        <time>2018-06-25T09:14:20.121Z</time>
      </trkpt>
      <trkpt lat="47.03378" lon="4.172">
        <ele>349</ele>
        <time>2018-06-25T09:14:21.121Z</time>
      </trkpt>
      <trkpt lat="47.03226" lon="4.1733">
        <ele>354</ele>
        <time>2018-06-25T09:14:22.121Z</time>
      </trkpt>
      <trkpt lat="47.03164" lon="4.17361">
        <ele>352</ele>
        <time>2018-06-25T09:14:23.121Z</time>
      </trkpt>
      <trkpt lat="47.03013" lon="4.17389">
        <ele>349</ele>
        <time>2018-06-25T09:14:24.121Z</time>
      </trkpt>
      <trkpt lat="47.02932" lon="4.17427">
        <ele>352</ele>
        <time>2018-06-25T09:14:25.121Z</time>
      </trkpt>
      <trkpt lat="47.02814" lon="4.17436">
        <ele>349</ele>
        <time>2018-06-25T09:14:26.121Z</time>
      </trkpt>
      <trkpt lat="47.02767" lon="4.17454">
        <ele>348</ele>
        <time>2018-06-25T09:14:27.121Z</time>
      </trkpt>
      <trkpt lat="47.02684" lon="4.17534">
        <ele>348</ele>
        <time>2018-06-25T09:14:28.121Z</time>
      </trkpt>
      <trkpt lat="47.02574" lon="4.17735">
        <ele>345</ele>
        <time>2018-06-25T09:14:29.121Z</time>
      </trkpt>
      <trkpt lat="47.02495" lon="4.17743">
        <ele>338</ele>
        <time>2018-06-25T09:14:30.121Z</time>
      </trkpt>
      <trkpt lat="47.02415" lon="4.17685">
        <ele>339</ele>
        <time>2018-06-25T09:14:31.121Z</time>
      </trkpt>
      <trkpt lat="47.02343" lon="4.17691">
        <ele>341</ele>
        <time>2018-06-25T09:14:32.121Z</time>
      </trkpt>
      <trkpt lat="47.0222" lon="4.17745">
        <ele>339</ele>
        <time>2018-06-25T09:14:33.121Z</time>
      </trkpt>
      <trkpt lat="47.0211" lon="4.17849">
        <ele>340</ele>
        <time>2018-06-25T09:14:34.121Z</time>
      </trkpt>
      <trkpt lat="47.02046" lon="4.17883">
        <ele>340</ele>
        <time>2018-06-25T09:14:35.121Z</time>
      </trkpt>
      <trkpt lat="47.01782" lon="4.17964">
        <ele>340</ele>
        <time>2018-06-25T09:14:36.121Z</time>
      </trkpt>
      <trkpt lat="47.01643" lon="4.1805">
        <ele>339</ele>
        <time>2018-06-25T09:14:37.121Z</time>
      </trkpt>
      <trkpt lat="47.01527" lon="4.18148">
        <ele>340</ele>
        <time>2018-06-25T09:14:38.121Z</time>
      </trkpt>
      <trkpt lat="47.01589" lon="4.18332">
        <ele>337</ele>
        <time>2018-06-25T09:14:39.121Z</time>
      </trkpt>
      <trkpt lat="47.01665" lon="4.1863">
        <ele>330</ele>
        <time>2018-06-25T09:14:40.121Z</time>
      </trkpt>
      <trkpt lat="47.01726" lon="4.18738">
        <ele>329</ele>
        <time>2018-06-25T09:14:41.121Z</time>
      </trkpt>
      <trkpt lat="47.01746" lon="4.18868">
        <ele>331</ele>
        <time>2018-06-25T09:14:42.121Z</time>
      </trkpt>
      <trkpt lat="47.01805" lon="4.18985">
        <ele>334</ele>
        <time>2018-06-25T09:14:43.121Z</time>
      </trkpt>
      <trkpt lat="47.01831" lon="4.19385">
        <ele>342</ele>
        <time>2018-06-25T09:14:44.121Z</time>
      </trkpt>
      <trkpt lat="47.01814" lon="4.19425">
        <ele>342</ele>
        <time>2018-06-25T09:14:45.121Z</time>
      </trkpt>
      <trkpt lat="47.01764" lon="4.19465">
        <ele>344</ele>
        <time>2018-06-25T09:14:46.121Z</time>
      </trkpt>
      <trkpt lat="47.01778" lon="4.19653">
        <ele>353</ele>
        <time>2018-06-25T09:14:47.121Z</time>
      </trkpt>
      <trkpt lat="47.01742" lon="4.1969">
        <ele>354</ele>
        <time>2018-06-25T09:14:48.121Z</time>
      </trkpt>
      <trkpt lat="47.01724" lon="4.19904">
        <ele>363</ele>
        <time>2018-06-25T09:14:49.121Z</time>
      </trkpt>
      <trkpt lat="47.01763" lon="4.20269">
        <ele>368</ele>
        <time>2018-06-25T09:14:50.121Z</time>
      </trkpt>
      <trkpt lat="47.01875" lon="4.2041">
        <ele>365</ele>
        <time>2018-06-25T09:14:51.121Z</time>
      </trkpt>
      <trkpt lat="47.0191" lon="4.20433">
        <ele>366</ele>
        <time>2018-06-25T09:14:52.121Z</time>
      </trkpt>
      <trkpt lat="47.0188" lon="4.2063">
        <ele>350</ele>
        <time>2018-06-25T09:14:53.121Z</time>
      </trkpt>
      <trkpt lat="47.01849" lon="4.20728">
        <ele>344</ele>
        <time>2018-06-25T09:14:54.121Z</time>
      </trkpt>
      <trkpt lat="47.01858" lon="4.20848">
        <ele>340</ele>
        <time>2018-06-25T09:14:55.121Z</time>
      </trkpt>
      <trkpt lat="47.01876" lon="4.20919">
        <ele>338</ele>
        <time>2018-06-25T09:14:56.121Z</time>
      </trkpt>
      <trkpt lat="47.01857" lon="4.211">
        <ele>333</ele>
        <time>2018-06-25T09:14:57.121Z</time>
      </trkpt>
      <trkpt lat="47.01763" lon="4.21231">
        <ele>339</ele>
        <time>2018-06-25T09:14:58.121Z</time>
      </trkpt>
      <trkpt lat="47.01603" lon="4.21238">
        <ele>337</ele>
        <time>2018-06-25T09:14:59.121Z</time>
      </trkpt>
      <trkpt lat="47.01581" lon="4.21261">
        <ele>336</ele>
        <time>2018-06-25T09:15:00.121Z</time>
      </trkpt>
      <trkpt lat="47.01594" lon="4.21422">
        <ele>333</ele>
        <time>2018-06-25T09:15:01.121Z</time>
      </trkpt>
      <trkpt lat="47.01587" lon="4.21486">
        <ele>332</ele>
        <time>2018-06-25T09:15:02.121Z</time>
      </trkpt>
      <trkpt lat="47.01549" lon="4.21573">
        <ele>329</ele>
        <time>2018-06-25T09:15:03.121Z</time>
      </trkpt>
      <trkpt lat="47.01545" lon="4.21619">
        <ele>329</ele>
        <time>2018-06-25T09:15:04.121Z</time>
      </trkpt>
      <trkpt lat="47.01578" lon="4.2183">
        <ele>331</ele>
        <time>2018-06-25T09:15:05.121Z</time>
      </trkpt>
      <trkpt lat="47.01572" lon="4.21868">
        <ele>329</ele>
        <time>2018-06-25T09:15:06.121Z</time>
      </trkpt>
      <trkpt lat="47.01509" lon="4.22002">
        <ele>325</ele>
        <time>2018-06-25T09:15:07.121Z</time>
      </trkpt>
      <trkpt lat="47.01473" lon="4.22031">
        <ele>324</ele>
        <time>2018-06-25T09:15:08.121Z</time>
      </trkpt>
      <trkpt lat="47.01439" lon="4.22113">
        <ele>321</ele>
        <time>2018-06-25T09:15:09.121Z</time>
      </trkpt>
      <trkpt lat="47.01412" lon="4.22277">
        <ele>321</ele>
        <time>2018-06-25T09:15:10.121Z</time>
      </trkpt>
      <trkpt lat="47.01235" lon="4.22505">
        <ele>315</ele>
        <time>2018-06-25T09:15:11.121Z</time>
      </trkpt>
      <trkpt lat="47.00987" lon="4.22737">
        <ele>314</ele>
        <time>2018-06-25T09:15:12.121Z</time>
      </trkpt>
      <trkpt lat="47.00924" lon="4.22839">
        <ele>315</ele>
        <time>2018-06-25T09:15:13.121Z</time>
      </trkpt>
      <trkpt lat="47.01094" lon="4.22944">
        <ele>310</ele>
        <time>2018-06-25T09:15:14.121Z</time>
      </trkpt>
      <trkpt lat="47.01239" lon="4.23138">
        <ele>310</ele>
        <time>2018-06-25T09:15:15.121Z</time>
      </trkpt>
      <trkpt lat="47.01302" lon="4.23266">
        <ele>309</ele>
        <time>2018-06-25T09:15:16.121Z</time>
      </trkpt>
      <trkpt lat="47.01392" lon="4.23389">
        <ele>309</ele>
        <time>2018-06-25T09:15:17.121Z</time>
      </trkpt>
      <trkpt lat="47.01459" lon="4.23624">
        <ele>308</ele>
        <time>2018-06-25T09:15:18.121Z</time>
      </trkpt>
      <trkpt lat="47.01453" lon="4.23718">
        <ele>308</ele>
        <time>2018-06-25T09:15:19.121Z</time>
      </trkpt>
      <trkpt lat="47.01475" lon="4.24047">
        <ele>306</ele>
        <time>2018-06-25T09:15:20.121Z</time>
      </trkpt>
      <trkpt lat="47.0147" lon="4.24163">
        <ele>309</ele>
        <time>2018-06-25T09:15:21.121Z</time>
      </trkpt>
      <trkpt lat="47.01436" lon="4.24364">
        <ele>318</ele>
        <time>2018-06-25T09:15:22.121Z</time>
      </trkpt>
      <trkpt lat="47.01427" lon="4.2454">
        <ele>320</ele>
        <time>2018-06-25T09:15:23.121Z</time>
      </trkpt>
      <trkpt lat="47.01414" lon="4.24569">
        <ele>321</ele>
        <time>2018-06-25T09:15:24.121Z</time>
      </trkpt>
      <trkpt lat="47.01303" lon="4.24653">
        <ele>323</ele>
        <time>2018-06-25T09:15:25.121Z</time>
      </trkpt>
      <trkpt lat="47.01311" lon="4.24797">
        <ele>323</ele>
        <time>2018-06-25T09:15:26.121Z</time>
      </trkpt>
      <trkpt lat="47.01287" lon="4.25099">
        <ele>328</ele>
        <time>2018-06-25T09:15:27.121Z</time>
      </trkpt>
      <trkpt lat="47.01258" lon="4.25143">
        <ele>330</ele>
        <time>2018-06-25T09:15:28.121Z</time>
      </trkpt>
      <trkpt lat="47.01194" lon="4.25176">
        <ele>332</ele>
        <time>2018-06-25T09:15:29.121Z</time>
      </trkpt>
      <trkpt lat="47.01173" lon="4.25209">
        <ele>333</ele>
        <time>2018-06-25T09:15:30.121Z</time>
      </trkpt>
      <trkpt lat="47.01119" lon="4.25225">
        <ele>333</ele>
        <time>2018-06-25T09:15:31.121Z</time>
      </trkpt>
      <trkpt lat="47.01038" lon="4.25287">
        <ele>335</ele>
        <time>2018-06-25T09:15:32.121Z</time>
      </trkpt>
      <trkpt lat="47.01023" lon="4.25339">
        <ele>335</ele>
        <time>2018-06-25T09:15:33.121Z</time>
      </trkpt>
      <trkpt lat="47.00847" lon="4.25296">
        <ele>332</ele>
        <time>2018-06-25T09:15:34.121Z</time>
      </trkpt>
      <trkpt lat="47.00793" lon="4.2531">
        <ele>332</ele>
        <time>2018-06-25T09:15:35.121Z</time>
      </trkpt>
      <trkpt lat="47.00556" lon="4.25494">
        <ele>330</ele>
        <time>2018-06-25T09:15:36.121Z</time>
      </trkpt>
      <trkpt lat="47.00455" lon="4.25604">
        <ele>328</ele>
        <time>2018-06-25T09:15:37.121Z</time>
      </trkpt>
      <trkpt lat="47.00459" lon="4.25651">
        <ele>328</ele>
        <time>2018-06-25T09:15:38.121Z</time>
      </trkpt>
      <trkpt lat="47.00446" lon="4.25691">
        <ele>328</ele>
        <time>2018-06-25T09:15:39.121Z</time>
      </trkpt>
      <trkpt lat="47.00352" lon="4.25819">
        <ele>322</ele>
        <time>2018-06-25T09:15:40.121Z</time>
      </trkpt>
      <trkpt lat="47.00195" lon="4.26">
        <ele>315</ele>
        <time>2018-06-25T09:15:41.121Z</time>
      </trkpt>
      <trkpt lat="47.00083" lon="4.26181">
        <ele>313</ele>
        <time>2018-06-25T09:15:42.121Z</time>
      </trkpt>
      <trkpt lat="47.00002" lon="4.26356">
        <ele>315</ele>
        <time>2018-06-25T09:15:43.121Z</time>
      </trkpt>
      <trkpt lat="47.00007" lon="4.26473">
        <ele>313</ele>
        <time>2018-06-25T09:15:44.121Z</time>
      </trkpt>
      <trkpt lat="46.99942" lon="4.26918">
        <ele>311</ele>
        <time>2018-06-25T09:15:45.121Z</time>
      </trkpt>
      <trkpt lat="46.99855" lon="4.26943">
        <ele>311</ele>
        <time>2018-06-25T09:15:46.121Z</time>
      </trkpt>
      <trkpt lat="46.99673" lon="4.27264">
        <ele>313</ele>
        <time>2018-06-25T09:15:47.121Z</time>
      </trkpt>
      <trkpt lat="46.99602" lon="4.27344">
        <ele>311</ele>
        <time>2018-06-25T09:15:48.121Z</time>
      </trkpt>
      <trkpt lat="46.99218" lon="4.27619">
        <ele>310</ele>
        <time>2018-06-25T09:15:49.121Z</time>
      </trkpt>
      <trkpt lat="46.99049" lon="4.27855">
        <ele>310</ele>
        <time>2018-06-25T09:15:50.121Z</time>
      </trkpt>
      <trkpt lat="46.98939" lon="4.27931">
        <ele>312</ele>
        <time>2018-06-25T09:15:51.121Z</time>
      </trkpt>
      <trkpt lat="46.98836" lon="4.27948">
        <ele>313</ele>
        <time>2018-06-25T09:15:52.121Z</time>
      </trkpt>
      <trkpt lat="46.98704" lon="4.28038">
        <ele>311</ele>
        <time>2018-06-25T09:15:53.121Z</time>
      </trkpt>
      <trkpt lat="46.98581" lon="4.28088">
        <ele>309</ele>
        <time>2018-06-25T09:15:54.121Z</time>
      </trkpt>
      <trkpt lat="46.98477" lon="4.28159">
        <ele>303</ele>
        <time>2018-06-25T09:15:55.121Z</time>
      </trkpt>
      <trkpt lat="46.9836" lon="4.28213">
        <ele>303</ele>
        <time>2018-06-25T09:15:56.121Z</time>
      </trkpt>
      <trkpt lat="46.98119" lon="4.28464">
        <ele>301</ele>
        <time>2018-06-25T09:15:57.121Z</time>
      </trkpt>
      <trkpt lat="46.98078" lon="4.28487">
        <ele>301</ele>
        <time>2018-06-25T09:15:58.121Z</time>
      </trkpt>
      <trkpt lat="46.97509" lon="4.28635">
        <ele>294</ele>
        <time>2018-06-25T09:15:59.121Z</time>
      </trkpt>
      <trkpt lat="46.97354" lon="4.28882">
        <ele>291</ele>
        <time>2018-06-25T09:16:00.121Z</time>
      </trkpt>
      <trkpt lat="46.97202" lon="4.29053">
        <ele>289</ele>
        <time>2018-06-25T09:16:01.121Z</time>
      </trkpt>
      <trkpt lat="46.96971" lon="4.29241">
        <ele>288</ele>
        <time>2018-06-25T09:16:02.121Z</time>
      </trkpt>
      <trkpt lat="46.96863" lon="4.29422">
        <ele>288</ele>
        <time>2018-06-25T09:16:03.121Z</time>
      </trkpt>
      <trkpt lat="46.96472" lon="4.29402">
        <ele>287</ele>
        <time>2018-06-25T09:16:04.121Z</time>
      </trkpt>
      <trkpt lat="46.96101" lon="4.29443">
        <ele>287</ele>
        <time>2018-06-25T09:16:05.121Z</time>
      </trkpt>
      <trkpt lat="46.95979" lon="4.29537">
        <ele>298</ele>
        <time>2018-06-25T09:16:06.121Z</time>
      </trkpt>
      <trkpt lat="46.95577" lon="4.29912">
        <ele>313</ele>
        <time>2018-06-25T09:16:07.121Z</time>
      </trkpt>
      <trkpt lat="46.95617" lon="4.30016">
        <ele>311</ele>
        <time>2018-06-25T09:16:08.121Z</time>
      </trkpt>
      <trkpt lat="46.95581" lon="4.30073">
        <ele>311</ele>
        <time>2018-06-25T09:16:09.121Z</time>
      </trkpt>
      <trkpt lat="46.95581" lon="4.30073">
        <ele>311</ele>
        <time>2018-06-25T09:16:10.121Z</time>
      </trkpt>
      <trkpt lat="46.9552" lon="4.30115">
        <ele>313</ele>
        <time>2018-06-25T09:16:11.121Z</time>
      </trkpt>
      <trkpt lat="46.95404" lon="4.302">
        <ele>316</ele>
        <time>2018-06-25T09:16:12.121Z</time>
      </trkpt>
      <trkpt lat="46.9535" lon="4.30103">
        <ele>318</ele>
        <time>2018-06-25T09:16:13.121Z</time>
      </trkpt>
      <trkpt lat="46.95326" lon="4.30064">
        <ele>318</ele>
        <time>2018-06-25T09:16:14.121Z</time>
      </trkpt>
      <trkpt lat="46.95319" lon="4.30022">
        <ele>318</ele>
        <time>2018-06-25T09:16:15.121Z</time>
      </trkpt>
      <trkpt lat="46.95324" lon="4.2997">
        <ele>317</ele>
        <time>2018-06-25T09:16:16.121Z</time>
      </trkpt>
      <trkpt lat="46.95327" lon="4.2996">
        <ele>317</ele>
        <time>2018-06-25T09:16:17.121Z</time>
      </trkpt>
      <trkpt lat="46.95286" lon="4.29906">
        <ele>318</ele>
        <time>2018-06-25T09:16:18.121Z</time>
      </trkpt>
      <trkpt lat="46.9523" lon="4.29795">
        <ele>318</ele>
        <time>2018-06-25T09:16:19.121Z</time>
      </trkpt>
      <trkpt lat="46.95187" lon="4.29713">
        <ele>319</ele>
        <time>2018-06-25T09:16:20.121Z</time>
      </trkpt>
      <trkpt lat="46.95129" lon="4.29595">
        <ele>317</ele>
        <time>2018-06-25T09:16:21.121Z</time>
      </trkpt>
      <trkpt lat="46.95122" lon="4.29604">
        <ele>318</ele>
        <time>2018-06-25T09:16:22.121Z</time>
      </trkpt>
      <trkpt lat="46.95123" lon="4.29604">
        <ele>318</ele>
        <time>2018-06-25T09:16:23.121Z</time>
      </trkpt>
      <trkpt lat="46.95099" lon="4.29634">
        <ele>319</ele>
        <time>2018-06-25T09:16:24.121Z</time>
      </trkpt>
      <trkpt lat="46.95071" lon="4.29663">
        <ele>322</ele>
        <time>2018-06-25T09:16:25.121Z</time>
      </trkpt>
      <trkpt lat="46.95039" lon="4.29681">
        <ele>324</ele>
        <time>2018-06-25T09:16:26.121Z</time>
      </trkpt>
      <trkpt lat="46.95025" lon="4.29677">
        <ele>325</ele>
        <time>2018-06-25T09:16:27.121Z</time>
      </trkpt>
      <trkpt lat="46.9501" lon="4.29691">
        <ele>326</ele>
        <time>2018-06-25T09:16:28.121Z</time>
      </trkpt>
      <trkpt lat="46.94983" lon="4.2972">
        <ele>327</ele>
        <time>2018-06-25T09:16:29.121Z</time>
      </trkpt>
      <trkpt lat="46.94983" lon="4.29721">
        <ele>327</ele>
        <time>2018-06-25T09:16:30.121Z</time>
      </trkpt>
      <trkpt lat="46.94968" lon="4.29737">
        <ele>328</ele>
        <time>2018-06-25T09:16:31.121Z</time>
      </trkpt>
      <trkpt lat="46.94939" lon="4.2963">
        <ele>326</ele>
        <time>2018-06-25T09:16:32.121Z</time>
      </trkpt>
      <trkpt lat="46.94918" lon="4.29638">
        <ele>327</ele>
        <time>2018-06-25T09:16:33.121Z</time>
      </trkpt>
      <trkpt lat="46.9489" lon="4.29637">
        <ele>327</ele>
        <time>2018-06-25T09:16:34.121Z</time>
      </trkpt>
      <trkpt lat="46.9475" lon="4.29731">
        <ele>337</ele>
        <time>2018-06-25T09:16:35.121Z</time>
      </trkpt>
      <trkpt lat="46.94724" lon="4.29753">
        <ele>340</ele>
        <time>2018-06-25T09:16:36.121Z</time>
      </trkpt>
      <trkpt lat="46.94732" lon="4.29769">
        <ele>340</ele>
        <time>2018-06-25T09:16:37.121Z</time>
      </trkpt>
      <trkpt lat="46.94732" lon="4.2977">
        <ele>340</ele>
        <time>2018-06-25T09:16:38.121Z</time>
      </trkpt>
      <trkpt lat="46.94784" lon="4.29878">
        <ele>343</ele>
        <time>2018-06-25T09:16:39.121Z</time>
      </trkpt>
      <trkpt lat="46.94753" lon="4.29911">
        <ele>346</ele>
        <time>2018-06-25T09:16:40.121Z</time>
      </trkpt>
      <trkpt lat="46.94729" lon="4.29932">
        <ele>349</ele>
        <time>2018-06-25T09:16:41.121Z</time>
      </trkpt>
      <trkpt lat="46.94717" lon="4.29949">
        <ele>350</ele>
        <time>2018-06-25T09:16:42.121Z</time>
      </trkpt>
      <trkpt lat="46.94697" lon="4.29967">
        <ele>352</ele>
        <time>2018-06-25T09:16:43.121Z</time>
      </trkpt>
      <trkpt lat="46.94662" lon="4.29994">
        <ele>354</ele>
        <time>2018-06-25T09:16:44.121Z</time>
      </trkpt>
      <trkpt lat="46.94664" lon="4.30005">
        <ele>354</ele>
        <time>2018-06-25T09:16:45.121Z</time>
      </trkpt>
      <trkpt lat="46.94651" lon="4.3002">
        <ele>355</ele>
        <time>2018-06-25T09:16:46.121Z</time>
      </trkpt>
      <trkpt lat="46.94631" lon="4.30033">
        <ele>356</ele>
        <time>2018-06-25T09:16:47.121Z</time>
      </trkpt>
      <trkpt lat="46.94625" lon="4.30054">
        <ele>355</ele>
        <time>2018-06-25T09:16:48.121Z</time>
      </trkpt>
      <trkpt lat="46.94612" lon="4.30081">
        <ele>355</ele>
        <time>2018-06-25T09:16:49.121Z</time>
      </trkpt>
      <trkpt lat="46.9461" lon="4.30108">
        <ele>353</ele>
        <time>2018-06-25T09:16:50.121Z</time>
      </trkpt>
      <trkpt lat="46.94572" lon="4.30181">
        <ele>349</ele>
        <time>2018-06-25T09:16:51.121Z</time>
      </trkpt>
      <trkpt lat="46.94567" lon="4.30203">
        <ele>347</ele>
        <time>2018-06-25T09:16:52.121Z</time>
      </trkpt>
      <trkpt lat="46.94582" lon="4.30258">
        <ele>341</ele>
        <time>2018-06-25T09:16:53.121Z</time>
      </trkpt>
      <trkpt lat="46.94596" lon="4.30324">
        <ele>337</ele>
        <time>2018-06-25T09:16:54.121Z</time>
      </trkpt>
      <trkpt lat="46.94616" lon="4.30355">
        <ele>334</ele>
        <time>2018-06-25T09:16:55.121Z</time>
      </trkpt>
      <trkpt lat="46.94592" lon="4.30386">
        <ele>332</ele>
        <time>2018-06-25T09:16:56.121Z</time>
      </trkpt>
      <trkpt lat="46.9455" lon="4.30419">
        <ele>328</ele>
        <time>2018-06-25T09:16:57.121Z</time>
      </trkpt>
      <trkpt lat="46.94497" lon="4.30486">
        <ele>325</ele>
        <time>2018-06-25T09:16:58.121Z</time>
      </trkpt>
      <trkpt lat="46.94311" lon="4.30696">
        <ele>346</ele>
        <time>2018-06-25T09:16:59.121Z</time>
      </trkpt>
      <trkpt lat="46.94247" lon="4.30735">
        <ele>356</ele>
        <time>2018-06-25T09:17:00.121Z</time>
      </trkpt>
      <trkpt lat="46.94145" lon="4.30792">
        <ele>372</ele>
        <time>2018-06-25T09:17:01.121Z</time>
      </trkpt>
      <trkpt lat="46.94111" lon="4.30825">
        <ele>378</ele>
        <time>2018-06-25T09:17:02.121Z</time>
      </trkpt>
      <trkpt lat="46.941" lon="4.30839">
        <ele>381</ele>
        <time>2018-06-25T09:17:03.121Z</time>
      </trkpt>
      <trkpt lat="46.9409" lon="4.30855">
        <ele>383</ele>
        <time>2018-06-25T09:17:04.121Z</time>
      </trkpt>
      <trkpt lat="46.9408" lon="4.30877">
        <ele>384</ele>
        <time>2018-06-25T09:17:05.121Z</time>
      </trkpt>
      <trkpt lat="46.94072" lon="4.30902">
        <ele>386</ele>
        <time>2018-06-25T09:17:06.121Z</time>
      </trkpt>
      <trkpt lat="46.94064" lon="4.30962">
        <ele>389</ele>
        <time>2018-06-25T09:17:07.121Z</time>
      </trkpt>
      <trkpt lat="46.94052" lon="4.31093">
        <ele>400</ele>
        <time>2018-06-25T09:17:08.121Z</time>
      </trkpt>
      <trkpt lat="46.94052" lon="4.31128">
        <ele>404</ele>
        <time>2018-06-25T09:17:09.121Z</time>
      </trkpt>
      <trkpt lat="46.94058" lon="4.31253">
        <ele>412</ele>
        <time>2018-06-25T09:17:10.121Z</time>
      </trkpt>
      <trkpt lat="46.94063" lon="4.31322">
        <ele>414</ele>
        <time>2018-06-25T09:17:11.121Z</time>
      </trkpt>
      <trkpt lat="46.94063" lon="4.31348">
        <ele>415</ele>
        <time>2018-06-25T09:17:12.121Z</time>
      </trkpt>
      <trkpt lat="46.94061" lon="4.31372">
        <ele>416</ele>
        <time>2018-06-25T09:17:13.121Z</time>
      </trkpt>
      <trkpt lat="46.94057" lon="4.31395">
        <ele>417</ele>
        <time>2018-06-25T09:17:14.121Z</time>
      </trkpt>
      <trkpt lat="46.94047" lon="4.31435">
        <ele>420</ele>
        <time>2018-06-25T09:17:15.121Z</time>
      </trkpt>
      <trkpt lat="46.94038" lon="4.31496">
        <ele>423</ele>
        <time>2018-06-25T09:17:16.121Z</time>
      </trkpt>
      <trkpt lat="46.94034" lon="4.31508">
        <ele>424</ele>
        <time>2018-06-25T09:17:17.121Z</time>
      </trkpt>
      <trkpt lat="46.94027" lon="4.31508">
        <ele>426</ele>
        <time>2018-06-25T09:17:18.121Z</time>
      </trkpt>
      <trkpt lat="46.93977" lon="4.31657">
        <ele>431</ele>
        <time>2018-06-25T09:17:19.121Z</time>
      </trkpt>
      <trkpt lat="46.93937" lon="4.31689">
        <ele>437</ele>
        <time>2018-06-25T09:17:20.121Z</time>
      </trkpt>
      <trkpt lat="46.93895" lon="4.31708">
        <ele>441</ele>
        <time>2018-06-25T09:17:21.121Z</time>
      </trkpt>
      <trkpt lat="46.93885" lon="4.31708">
        <ele>443</ele>
        <time>2018-06-25T09:17:22.121Z</time>
      </trkpt>
      <trkpt lat="46.93874" lon="4.31704">
        <ele>445</ele>
        <time>2018-06-25T09:17:23.121Z</time>
      </trkpt>
      <trkpt lat="46.93814" lon="4.31668">
        <ele>459</ele>
        <time>2018-06-25T09:17:24.121Z</time>
      </trkpt>
      <trkpt lat="46.9378" lon="4.31651">
        <ele>465</ele>
        <time>2018-06-25T09:17:25.121Z</time>
      </trkpt>
      <trkpt lat="46.93687" lon="4.31608">
        <ele>472</ele>
        <time>2018-06-25T09:17:26.121Z</time>
      </trkpt>
      <trkpt lat="46.93666" lon="4.31596">
        <ele>472</ele>
        <time>2018-06-25T09:17:27.121Z</time>
      </trkpt>
      <trkpt lat="46.93657" lon="4.31573">
        <ele>479</ele>
        <time>2018-06-25T09:17:28.121Z</time>
      </trkpt>
      <trkpt lat="46.93658" lon="4.31574">
        <ele>478</ele>
        <time>2018-06-25T09:17:29.121Z</time>
      </trkpt>
      <trkpt lat="46.93638" lon="4.31523">
        <ele>491</ele>
        <time>2018-06-25T09:17:30.121Z</time>
      </trkpt>
      <trkpt lat="46.93629" lon="4.31504">
        <ele>495</ele>
        <time>2018-06-25T09:17:31.121Z</time>
      </trkpt>
      <trkpt lat="46.93623" lon="4.31502">
        <ele>495</ele>
        <time>2018-06-25T09:17:32.121Z</time>
      </trkpt>
      <trkpt lat="46.93618" lon="4.31504">
        <ele>495</ele>
        <time>2018-06-25T09:17:33.121Z</time>
      </trkpt>
      <trkpt lat="46.93614" lon="4.31506">
        <ele>495</ele>
        <time>2018-06-25T09:17:34.121Z</time>
      </trkpt>
      <trkpt lat="46.93606" lon="4.31535">
        <ele>490</ele>
        <time>2018-06-25T09:17:35.121Z</time>
      </trkpt>
      <trkpt lat="46.93602" lon="4.31572">
        <ele>485</ele>
        <time>2018-06-25T09:17:36.121Z</time>
      </trkpt>
      <trkpt lat="46.93599" lon="4.31581">
        <ele>484</ele>
        <time>2018-06-25T09:17:37.121Z</time>
      </trkpt>
      <trkpt lat="46.93596" lon="4.31584">
        <ele>484</ele>
        <time>2018-06-25T09:17:38.121Z</time>
      </trkpt>
      <trkpt lat="46.9356" lon="4.31581">
        <ele>490</ele>
        <time>2018-06-25T09:17:39.121Z</time>
      </trkpt>
      <trkpt lat="46.93539" lon="4.31577">
        <ele>493</ele>
        <time>2018-06-25T09:17:40.121Z</time>
      </trkpt>
      <trkpt lat="46.93528" lon="4.31567">
        <ele>496</ele>
        <time>2018-06-25T09:17:41.121Z</time>
      </trkpt>
      <trkpt lat="46.93516" lon="4.31551">
        <ele>500</ele>
        <time>2018-06-25T09:17:42.121Z</time>
      </trkpt>
      <trkpt lat="46.93504" lon="4.31544">
        <ele>502</ele>
        <time>2018-06-25T09:17:43.121Z</time>
      </trkpt>
      <trkpt lat="46.93495" lon="4.31544">
        <ele>503</ele>
        <time>2018-06-25T09:17:44.121Z</time>
      </trkpt>
      <trkpt lat="46.93487" lon="4.31554">
        <ele>503</ele>
        <time>2018-06-25T09:17:45.121Z</time>
      </trkpt>
      <trkpt lat="46.9348" lon="4.31578">
        <ele>501</ele>
        <time>2018-06-25T09:17:46.121Z</time>
      </trkpt>
      <trkpt lat="46.93478" lon="4.31631">
        <ele>499</ele>
        <time>2018-06-25T09:17:47.121Z</time>
      </trkpt>
      <trkpt lat="46.9347" lon="4.31639">
        <ele>500</ele>
        <time>2018-06-25T09:17:48.121Z</time>
      </trkpt>
      <trkpt lat="46.93459" lon="4.31636">
        <ele>501</ele>
        <time>2018-06-25T09:17:49.121Z</time>
      </trkpt>
      <trkpt lat="46.93425" lon="4.31611">
        <ele>507</ele>
        <time>2018-06-25T09:17:50.121Z</time>
      </trkpt>
      <trkpt lat="46.93412" lon="4.31611">
        <ele>508</ele>
        <time>2018-06-25T09:17:51.121Z</time>
      </trkpt>
      <trkpt lat="46.93398" lon="4.31625">
        <ele>507</ele>
        <time>2018-06-25T09:17:52.121Z</time>
      </trkpt>
      <trkpt lat="46.93375" lon="4.31664">
        <ele>506</ele>
        <time>2018-06-25T09:17:53.121Z</time>
      </trkpt>
      <trkpt lat="46.93361" lon="4.31683">
        <ele>507</ele>
        <time>2018-06-25T09:17:54.121Z</time>
      </trkpt>
      <trkpt lat="46.93347" lon="4.31696">
        <ele>509</ele>
        <time>2018-06-25T09:17:55.121Z</time>
      </trkpt>
      <trkpt lat="46.93309" lon="4.31715">
        <ele>512</ele>
        <time>2018-06-25T09:17:56.121Z</time>
      </trkpt>
      <trkpt lat="46.93284" lon="4.31734">
        <ele>515</ele>
        <time>2018-06-25T09:17:57.121Z</time>
      </trkpt>
      <trkpt lat="46.93268" lon="4.31746">
        <ele>516</ele>
        <time>2018-06-25T09:17:58.121Z</time>
      </trkpt>
      <trkpt lat="46.93256" lon="4.31762">
        <ele>517</ele>
        <time>2018-06-25T09:17:59.121Z</time>
      </trkpt>
      <trkpt lat="46.93226" lon="4.31783">
        <ele>518</ele>
        <time>2018-06-25T09:18:00.121Z</time>
      </trkpt>
      <trkpt lat="46.93099" lon="4.31858">
        <ele>517</ele>
        <time>2018-06-25T09:18:01.121Z</time>
      </trkpt>
      <trkpt lat="46.93082" lon="4.31871">
        <ele>517</ele>
        <time>2018-06-25T09:18:02.121Z</time>
      </trkpt>
      <trkpt lat="46.93068" lon="4.31911">
        <ele>517</ele>
        <time>2018-06-25T09:18:03.121Z</time>
      </trkpt>
      <trkpt lat="46.93042" lon="4.31989">
        <ele>516</ele>
        <time>2018-06-25T09:18:04.121Z</time>
      </trkpt>
      <trkpt lat="46.93027" lon="4.32015">
        <ele>515</ele>
        <time>2018-06-25T09:18:05.121Z</time>
      </trkpt>
      <trkpt lat="46.93019" lon="4.32025">
        <ele>515</ele>
        <time>2018-06-25T09:18:06.121Z</time>
      </trkpt>
      <trkpt lat="46.9301" lon="4.3203">
        <ele>515</ele>
        <time>2018-06-25T09:18:07.121Z</time>
      </trkpt>
      <trkpt lat="46.92992" lon="4.3203">
        <ele>516</ele>
        <time>2018-06-25T09:18:08.121Z</time>
      </trkpt>
      <trkpt lat="46.92981" lon="4.32034">
        <ele>516</ele>
        <time>2018-06-25T09:18:09.121Z</time>
      </trkpt>
      <trkpt lat="46.92971" lon="4.32058">
        <ele>515</ele>
        <time>2018-06-25T09:18:10.121Z</time>
      </trkpt>
      <trkpt lat="46.92847" lon="4.32277">
        <ele>528</ele>
        <time>2018-06-25T09:18:11.121Z</time>
      </trkpt>
      <trkpt lat="46.92765" lon="4.32556">
        <ele>540</ele>
        <time>2018-06-25T09:18:12.121Z</time>
      </trkpt>
      <trkpt lat="46.92673" lon="4.32646">
        <ele>549</ele>
        <time>2018-06-25T09:18:13.121Z</time>
      </trkpt>
      <trkpt lat="46.92637" lon="4.32661">
        <ele>549</ele>
        <time>2018-06-25T09:18:14.121Z</time>
      </trkpt>
      <trkpt lat="46.92572" lon="4.32646">
        <ele>551</ele>
        <time>2018-06-25T09:18:15.121Z</time>
      </trkpt>
      <trkpt lat="46.92537" lon="4.32596">
        <ele>554</ele>
        <time>2018-06-25T09:18:16.121Z</time>
      </trkpt>
      <trkpt lat="46.92424" lon="4.3256">
        <ele>551</ele>
        <time>2018-06-25T09:18:17.121Z</time>
      </trkpt>
      <trkpt lat="46.92388" lon="4.32594">
        <ele>547</ele>
        <time>2018-06-25T09:18:18.121Z</time>
      </trkpt>
      <trkpt lat="46.92303" lon="4.32436">
        <ele>557</ele>
        <time>2018-06-25T09:18:19.121Z</time>
      </trkpt>
      <trkpt lat="46.92294" lon="4.32299">
        <ele>561</ele>
        <time>2018-06-25T09:18:20.121Z</time>
      </trkpt>
      <trkpt lat="46.92126" lon="4.31899">
        <ele>558</ele>
        <time>2018-06-25T09:18:21.121Z</time>
      </trkpt>
      <trkpt lat="46.92113" lon="4.31783">
        <ele>558</ele>
        <time>2018-06-25T09:18:22.121Z</time>
      </trkpt>
      <trkpt lat="46.91984" lon="4.31319">
        <ele>570</ele>
        <time>2018-06-25T09:18:23.121Z</time>
      </trkpt>
      <trkpt lat="46.9194" lon="4.31226">
        <ele>570</ele>
        <time>2018-06-25T09:18:24.121Z</time>
      </trkpt>
      <trkpt lat="46.91875" lon="4.31144">
        <ele>571</ele>
        <time>2018-06-25T09:18:25.121Z</time>
      </trkpt>
      <trkpt lat="46.9168" lon="4.31285">
        <ele>581</ele>
        <time>2018-06-25T09:18:26.121Z</time>
      </trkpt>
      <trkpt lat="46.91529" lon="4.3134">
        <ele>589</ele>
        <time>2018-06-25T09:18:27.121Z</time>
      </trkpt>
      <trkpt lat="46.91487" lon="4.31383">
        <ele>589</ele>
        <time>2018-06-25T09:18:28.121Z</time>
      </trkpt>
      <trkpt lat="46.91191" lon="4.31541">
        <ele>585</ele>
        <time>2018-06-25T09:18:29.121Z</time>
      </trkpt>
      <trkpt lat="46.91192" lon="4.31541">
        <ele>585</ele>
        <time>2018-06-25T09:18:30.121Z</time>
      </trkpt>
      <trkpt lat="46.91099" lon="4.31604">
        <ele>584</ele>
        <time>2018-06-25T09:18:31.121Z</time>
      </trkpt>
      <trkpt lat="46.90895" lon="4.31731">
        <ele>582</ele>
        <time>2018-06-25T09:18:32.121Z</time>
      </trkpt>
      <trkpt lat="46.908" lon="4.31796">
        <ele>579</ele>
        <time>2018-06-25T09:18:33.121Z</time>
      </trkpt>
      <trkpt lat="46.90701" lon="4.31855">
        <ele>577</ele>
        <time>2018-06-25T09:18:34.121Z</time>
      </trkpt>
      <trkpt lat="46.90678" lon="4.3186">
        <ele>577</ele>
        <time>2018-06-25T09:18:35.121Z</time>
      </trkpt>
      <trkpt lat="46.90658" lon="4.31862">
        <ele>577</ele>
        <time>2018-06-25T09:18:36.121Z</time>
      </trkpt>
      <trkpt lat="46.90562" lon="4.31859">
        <ele>579</ele>
        <time>2018-06-25T09:18:37.121Z</time>
      </trkpt>
      <trkpt lat="46.90562" lon="4.31859">
        <ele>579</ele>
        <time>2018-06-25T09:18:38.121Z</time>
      </trkpt>
      <trkpt lat="46.90551" lon="4.3186">
        <ele>579</ele>
        <time>2018-06-25T09:18:39.121Z</time>
      </trkpt>
      <trkpt lat="46.90497" lon="4.31853">
        <ele>578</ele>
        <time>2018-06-25T09:18:40.121Z</time>
      </trkpt>
      <trkpt lat="46.90446" lon="4.31867">
        <ele>574</ele>
        <time>2018-06-25T09:18:41.121Z</time>
      </trkpt>
      <trkpt lat="46.9043" lon="4.31867">
        <ele>573</ele>
        <time>2018-06-25T09:18:42.121Z</time>
      </trkpt>
      <trkpt lat="46.90405" lon="4.31845">
        <ele>569</ele>
        <time>2018-06-25T09:18:43.121Z</time>
      </trkpt>
      <trkpt lat="46.9038" lon="4.31808">
        <ele>564</ele>
        <time>2018-06-25T09:18:44.121Z</time>
      </trkpt>
      <trkpt lat="46.90365" lon="4.31795">
        <ele>563</ele>
        <time>2018-06-25T09:18:45.121Z</time>
      </trkpt>
      <trkpt lat="46.90314" lon="4.31715">
        <ele>561</ele>
        <time>2018-06-25T09:18:46.121Z</time>
      </trkpt>
      <trkpt lat="46.90284" lon="4.31681">
        <ele>559</ele>
        <time>2018-06-25T09:18:47.121Z</time>
      </trkpt>
      <trkpt lat="46.90219" lon="4.31612">
        <ele>551</ele>
        <time>2018-06-25T09:18:48.121Z</time>
      </trkpt>
      <trkpt lat="46.90141" lon="4.31619">
        <ele>541</ele>
        <time>2018-06-25T09:18:49.121Z</time>
      </trkpt>
      <trkpt lat="46.90071" lon="4.3166">
        <ele>528</ele>
        <time>2018-06-25T09:18:50.121Z</time>
      </trkpt>
      <trkpt lat="46.90029" lon="4.31675">
        <ele>519</ele>
        <time>2018-06-25T09:18:51.121Z</time>
      </trkpt>
      <trkpt lat="46.9001" lon="4.31674">
        <ele>516</ele>
        <time>2018-06-25T09:18:52.121Z</time>
      </trkpt>
      <trkpt lat="46.89991" lon="4.31666">
        <ele>514</ele>
        <time>2018-06-25T09:18:53.121Z</time>
      </trkpt>
      <trkpt lat="46.89976" lon="4.31653">
        <ele>514</ele>
        <time>2018-06-25T09:18:54.121Z</time>
      </trkpt>
      <trkpt lat="46.89922" lon="4.31649">
        <ele>502</ele>
        <time>2018-06-25T09:18:55.121Z</time>
      </trkpt>
      <trkpt lat="46.89877" lon="4.31641">
        <ele>493</ele>
        <time>2018-06-25T09:18:56.121Z</time>
      </trkpt>
      <trkpt lat="46.89838" lon="4.31622">
        <ele>486</ele>
        <time>2018-06-25T09:18:57.121Z</time>
      </trkpt>
      <trkpt lat="46.89825" lon="4.31594">
        <ele>488</ele>
        <time>2018-06-25T09:18:58.121Z</time>
      </trkpt>
      <trkpt lat="46.89813" lon="4.3158">
        <ele>488</ele>
        <time>2018-06-25T09:18:59.121Z</time>
      </trkpt>
      <trkpt lat="46.89759" lon="4.31559">
        <ele>482</ele>
        <time>2018-06-25T09:19:00.121Z</time>
      </trkpt>
      <trkpt lat="46.89715" lon="4.31535">
        <ele>476</ele>
        <time>2018-06-25T09:19:01.121Z</time>
      </trkpt>
      <trkpt lat="46.89686" lon="4.31514">
        <ele>471</ele>
        <time>2018-06-25T09:19:02.121Z</time>
      </trkpt>
      <trkpt lat="46.89673" lon="4.31544">
        <ele>468</ele>
        <time>2018-06-25T09:19:03.121Z</time>
      </trkpt>
      <trkpt lat="46.89666" lon="4.31556">
        <ele>466</ele>
        <time>2018-06-25T09:19:04.121Z</time>
      </trkpt>
      <trkpt lat="46.89659" lon="4.31564">
        <ele>464</ele>
        <time>2018-06-25T09:19:05.121Z</time>
      </trkpt>
      <trkpt lat="46.89655" lon="4.31576">
        <ele>463</ele>
        <time>2018-06-25T09:19:06.121Z</time>
      </trkpt>
      <trkpt lat="46.89657" lon="4.3161">
        <ele>461</ele>
        <time>2018-06-25T09:19:07.121Z</time>
      </trkpt>
      <trkpt lat="46.89644" lon="4.31666">
        <ele>455</ele>
        <time>2018-06-25T09:19:08.121Z</time>
      </trkpt>
      <trkpt lat="46.8964" lon="4.31666">
        <ele>454</ele>
        <time>2018-06-25T09:19:09.121Z</time>
      </trkpt>
      <trkpt lat="46.89624" lon="4.31651">
        <ele>454</ele>
        <time>2018-06-25T09:19:10.121Z</time>
      </trkpt>
      <trkpt lat="46.89618" lon="4.31623">
        <ele>454</ele>
        <time>2018-06-25T09:19:11.121Z</time>
      </trkpt>
      <trkpt lat="46.89618" lon="4.31572">
        <ele>455</ele>
        <time>2018-06-25T09:19:12.121Z</time>
      </trkpt>
      <trkpt lat="46.89627" lon="4.3149">
        <ele>455</ele>
        <time>2018-06-25T09:19:13.121Z</time>
      </trkpt>
      <trkpt lat="46.89635" lon="4.31452">
        <ele>455</ele>
        <time>2018-06-25T09:19:14.121Z</time>
      </trkpt>
      <trkpt lat="46.89635" lon="4.31438">
        <ele>454</ele>
        <time>2018-06-25T09:19:15.121Z</time>
      </trkpt>
      <trkpt lat="46.89632" lon="4.31416">
        <ele>452</ele>
        <time>2018-06-25T09:19:16.121Z</time>
      </trkpt>
      <trkpt lat="46.89624" lon="4.31387">
        <ele>449</ele>
        <time>2018-06-25T09:19:17.121Z</time>
      </trkpt>
      <trkpt lat="46.89616" lon="4.31349">
        <ele>446</ele>
        <time>2018-06-25T09:19:18.121Z</time>
      </trkpt>
      <trkpt lat="46.89615" lon="4.3132">
        <ele>446</ele>
        <time>2018-06-25T09:19:19.121Z</time>
      </trkpt>
      <trkpt lat="46.89618" lon="4.31253">
        <ele>444</ele>
        <time>2018-06-25T09:19:20.121Z</time>
      </trkpt>
      <trkpt lat="46.89616" lon="4.31235">
        <ele>444</ele>
        <time>2018-06-25T09:19:21.121Z</time>
      </trkpt>
      <trkpt lat="46.8961" lon="4.31219">
        <ele>443</ele>
        <time>2018-06-25T09:19:22.121Z</time>
      </trkpt>
      <trkpt lat="46.896" lon="4.31207">
        <ele>442</ele>
        <time>2018-06-25T09:19:23.121Z</time>
      </trkpt>
      <trkpt lat="46.89588" lon="4.31199">
        <ele>440</ele>
        <time>2018-06-25T09:19:24.121Z</time>
      </trkpt>
      <trkpt lat="46.89565" lon="4.3118">
        <ele>437</ele>
        <time>2018-06-25T09:19:25.121Z</time>
      </trkpt>
      <trkpt lat="46.89555" lon="4.31159">
        <ele>436</ele>
        <time>2018-06-25T09:19:26.121Z</time>
      </trkpt>
      <trkpt lat="46.89549" lon="4.31125">
        <ele>433</ele>
        <time>2018-06-25T09:19:27.121Z</time>
      </trkpt>
      <trkpt lat="46.89549" lon="4.31095">
        <ele>431</ele>
        <time>2018-06-25T09:19:28.121Z</time>
      </trkpt>
      <trkpt lat="46.89553" lon="4.31073">
        <ele>431</ele>
        <time>2018-06-25T09:19:29.121Z</time>
      </trkpt>
      <trkpt lat="46.89563" lon="4.31035">
        <ele>429</ele>
        <time>2018-06-25T09:19:30.121Z</time>
      </trkpt>
      <trkpt lat="46.89577" lon="4.30997">
        <ele>427</ele>
        <time>2018-06-25T09:19:31.121Z</time>
      </trkpt>
      <trkpt lat="46.89597" lon="4.30966">
        <ele>425</ele>
        <time>2018-06-25T09:19:32.121Z</time>
      </trkpt>
      <trkpt lat="46.89618" lon="4.30945">
        <ele>423</ele>
        <time>2018-06-25T09:19:33.121Z</time>
      </trkpt>
      <trkpt lat="46.89642" lon="4.30932">
        <ele>423</ele>
        <time>2018-06-25T09:19:34.121Z</time>
      </trkpt>
      <trkpt lat="46.89673" lon="4.30922">
        <ele>425</ele>
        <time>2018-06-25T09:19:35.121Z</time>
      </trkpt>
      <trkpt lat="46.8969" lon="4.30912">
        <ele>426</ele>
        <time>2018-06-25T09:19:36.121Z</time>
      </trkpt>
      <trkpt lat="46.89712" lon="4.30887">
        <ele>426</ele>
        <time>2018-06-25T09:19:37.121Z</time>
      </trkpt>
      <trkpt lat="46.89739" lon="4.30842">
        <ele>424</ele>
        <time>2018-06-25T09:19:38.121Z</time>
      </trkpt>
      <trkpt lat="46.8975" lon="4.30817">
        <ele>424</ele>
        <time>2018-06-25T09:19:39.121Z</time>
      </trkpt>
      <trkpt lat="46.89753" lon="4.30797">
        <ele>424</ele>
        <time>2018-06-25T09:19:40.121Z</time>
      </trkpt>
      <trkpt lat="46.89752" lon="4.30778">
        <ele>424</ele>
        <time>2018-06-25T09:19:41.121Z</time>
      </trkpt>
      <trkpt lat="46.89756" lon="4.30771">
        <ele>425</ele>
        <time>2018-06-25T09:19:42.121Z</time>
      </trkpt>
      <trkpt lat="46.89758" lon="4.30759">
        <ele>425</ele>
        <time>2018-06-25T09:19:43.121Z</time>
      </trkpt>
      <trkpt lat="46.89758" lon="4.3075">
        <ele>425</ele>
        <time>2018-06-25T09:19:44.121Z</time>
      </trkpt>
      <trkpt lat="46.89751" lon="4.30726">
        <ele>428</ele>
        <time>2018-06-25T09:19:45.121Z</time>
      </trkpt>
      <trkpt lat="46.89743" lon="4.30702">
        <ele>431</ele>
        <time>2018-06-25T09:19:46.121Z</time>
      </trkpt>
      <trkpt lat="46.89731" lon="4.30691">
        <ele>430</ele>
        <time>2018-06-25T09:19:47.121Z</time>
      </trkpt>
      <trkpt lat="46.897" lon="4.30642">
        <ele>431</ele>
        <time>2018-06-25T09:19:48.121Z</time>
      </trkpt>
      <trkpt lat="46.89672" lon="4.30602">
        <ele>429</ele>
        <time>2018-06-25T09:19:49.121Z</time>
      </trkpt>
      <trkpt lat="46.89668" lon="4.30583">
        <ele>430</ele>
        <time>2018-06-25T09:19:50.121Z</time>
      </trkpt>
      <trkpt lat="46.89667" lon="4.3056">
        <ele>431</ele>
        <time>2018-06-25T09:19:51.121Z</time>
      </trkpt>
      <trkpt lat="46.89672" lon="4.30509">
        <ele>436</ele>
        <time>2018-06-25T09:19:52.121Z</time>
      </trkpt>
      <trkpt lat="46.89678" lon="4.30477">
        <ele>437</ele>
        <time>2018-06-25T09:19:53.121Z</time>
      </trkpt>
      <trkpt lat="46.89691" lon="4.30444">
        <ele>441</ele>
        <time>2018-06-25T09:19:54.121Z</time>
      </trkpt>
      <trkpt lat="46.89696" lon="4.30422">
        <ele>441</ele>
        <time>2018-06-25T09:19:55.121Z</time>
      </trkpt>
      <trkpt lat="46.89697" lon="4.30367">
        <ele>443</ele>
        <time>2018-06-25T09:19:56.121Z</time>
      </trkpt>
      <trkpt lat="46.89694" lon="4.30299">
        <ele>444</ele>
        <time>2018-06-25T09:19:57.121Z</time>
      </trkpt>
      <trkpt lat="46.89696" lon="4.30284">
        <ele>445</ele>
        <time>2018-06-25T09:19:58.121Z</time>
      </trkpt>
      <trkpt lat="46.89706" lon="4.30251">
        <ele>449</ele>
        <time>2018-06-25T09:19:59.121Z</time>
      </trkpt>
      <trkpt lat="46.89739" lon="4.30167">
        <ele>460</ele>
        <time>2018-06-25T09:20:00.121Z</time>
      </trkpt>
      <trkpt lat="46.89748" lon="4.30136">
        <ele>460</ele>
        <time>2018-06-25T09:20:01.121Z</time>
      </trkpt>
      <trkpt lat="46.8976" lon="4.30078">
        <ele>460</ele>
        <time>2018-06-25T09:20:02.121Z</time>
      </trkpt>
      <trkpt lat="46.89777" lon="4.30019">
        <ele>464</ele>
        <time>2018-06-25T09:20:03.121Z</time>
      </trkpt>
      <trkpt lat="46.8978" lon="4.29989">
        <ele>466</ele>
        <time>2018-06-25T09:20:04.121Z</time>
      </trkpt>
      <trkpt lat="46.89779" lon="4.2997">
        <ele>469</ele>
        <time>2018-06-25T09:20:05.121Z</time>
      </trkpt>
      <trkpt lat="46.89774" lon="4.29957">
        <ele>470</ele>
        <time>2018-06-25T09:20:06.121Z</time>
      </trkpt>
      <trkpt lat="46.89753" lon="4.29932">
        <ele>468</ele>
        <time>2018-06-25T09:20:07.121Z</time>
      </trkpt>
      <trkpt lat="46.89727" lon="4.29893">
        <ele>469</ele>
        <time>2018-06-25T09:20:08.121Z</time>
      </trkpt>
      <trkpt lat="46.89725" lon="4.29884">
        <ele>470</ele>
        <time>2018-06-25T09:20:09.121Z</time>
      </trkpt>
      <trkpt lat="46.89714" lon="4.29818">
        <ele>477</ele>
        <time>2018-06-25T09:20:10.121Z</time>
      </trkpt>
      <trkpt lat="46.89709" lon="4.29795">
        <ele>479</ele>
        <time>2018-06-25T09:20:11.121Z</time>
      </trkpt>
      <trkpt lat="46.89702" lon="4.29774">
        <ele>480</ele>
        <time>2018-06-25T09:20:12.121Z</time>
      </trkpt>
      <trkpt lat="46.89699" lon="4.29762">
        <ele>480</ele>
        <time>2018-06-25T09:20:13.121Z</time>
      </trkpt>
      <trkpt lat="46.89699" lon="4.29747">
        <ele>482</ele>
        <time>2018-06-25T09:20:14.121Z</time>
      </trkpt>
      <trkpt lat="46.89691" lon="4.2969">
        <ele>487</ele>
        <time>2018-06-25T09:20:15.121Z</time>
      </trkpt>
      <trkpt lat="46.89679" lon="4.29634">
        <ele>490</ele>
        <time>2018-06-25T09:20:16.121Z</time>
      </trkpt>
      <trkpt lat="46.89623" lon="4.29612">
        <ele>488</ele>
        <time>2018-06-25T09:20:17.121Z</time>
      </trkpt>
      <trkpt lat="46.89613" lon="4.29613">
        <ele>488</ele>
        <time>2018-06-25T09:20:18.121Z</time>
      </trkpt>
      <trkpt lat="46.89605" lon="4.29631">
        <ele>488</ele>
        <time>2018-06-25T09:20:19.121Z</time>
      </trkpt>
      <trkpt lat="46.89588" lon="4.29716">
        <ele>485</ele>
        <time>2018-06-25T09:20:20.121Z</time>
      </trkpt>
      <trkpt lat="46.89573" lon="4.29755">
        <ele>485</ele>
        <time>2018-06-25T09:20:21.121Z</time>
      </trkpt>
      <trkpt lat="46.8956" lon="4.29776">
        <ele>485</ele>
        <time>2018-06-25T09:20:22.121Z</time>
      </trkpt>
      <trkpt lat="46.89549" lon="4.2979">
        <ele>486</ele>
        <time>2018-06-25T09:20:23.121Z</time>
      </trkpt>
      <trkpt lat="46.8953" lon="4.29806">
        <ele>489</ele>
        <time>2018-06-25T09:20:24.121Z</time>
      </trkpt>
      <trkpt lat="46.89538" lon="4.29722">
        <ele>493</ele>
        <time>2018-06-25T09:20:25.121Z</time>
      </trkpt>
      <trkpt lat="46.89525" lon="4.29678">
        <ele>495</ele>
        <time>2018-06-25T09:20:26.121Z</time>
      </trkpt>
      <trkpt lat="46.89511" lon="4.29687">
        <ele>497</ele>
        <time>2018-06-25T09:20:27.121Z</time>
      </trkpt>
      <trkpt lat="46.89468" lon="4.2973">
        <ele>501</ele>
        <time>2018-06-25T09:20:28.121Z</time>
      </trkpt>
      <trkpt lat="46.89409" lon="4.29772">
        <ele>504</ele>
        <time>2018-06-25T09:20:29.121Z</time>
      </trkpt>
      <trkpt lat="46.89279" lon="4.29835">
        <ele>514</ele>
        <time>2018-06-25T09:20:30.121Z</time>
      </trkpt>
      <trkpt lat="46.89259" lon="4.29766">
        <ele>512</ele>
        <time>2018-06-25T09:20:31.121Z</time>
      </trkpt>
      <trkpt lat="46.89266" lon="4.29683">
        <ele>511</ele>
        <time>2018-06-25T09:20:32.121Z</time>
      </trkpt>
      <trkpt lat="46.89304" lon="4.29551">
        <ele>523</ele>
        <time>2018-06-25T09:20:33.121Z</time>
      </trkpt>
      <trkpt lat="46.89263" lon="4.29497">
        <ele>531</ele>
        <time>2018-06-25T09:20:34.121Z</time>
      </trkpt>
      <trkpt lat="46.89264" lon="4.29496">
        <ele>531</ele>
        <time>2018-06-25T09:20:35.121Z</time>
      </trkpt>
      <trkpt lat="46.89251" lon="4.29479">
        <ele>534</ele>
        <time>2018-06-25T09:20:36.121Z</time>
      </trkpt>
      <trkpt lat="46.89273" lon="4.29375">
        <ele>546</ele>
        <time>2018-06-25T09:20:37.121Z</time>
      </trkpt>
      <trkpt lat="46.89276" lon="4.29233">
        <ele>552</ele>
        <time>2018-06-25T09:20:38.121Z</time>
      </trkpt>
      <trkpt lat="46.89257" lon="4.29193">
        <ele>555</ele>
        <time>2018-06-25T09:20:39.121Z</time>
      </trkpt>
      <trkpt lat="46.89224" lon="4.29167">
        <ele>557</ele>
        <time>2018-06-25T09:20:40.121Z</time>
      </trkpt>
      <trkpt lat="46.89211" lon="4.29147">
        <ele>558</ele>
        <time>2018-06-25T09:20:41.121Z</time>
      </trkpt>
      <trkpt lat="46.89199" lon="4.29121">
        <ele>560</ele>
        <time>2018-06-25T09:20:42.121Z</time>
      </trkpt>
      <trkpt lat="46.89196" lon="4.29102">
        <ele>561</ele>
        <time>2018-06-25T09:20:43.121Z</time>
      </trkpt>
      <trkpt lat="46.89197" lon="4.29085">
        <ele>561</ele>
        <time>2018-06-25T09:20:44.121Z</time>
      </trkpt>
      <trkpt lat="46.89203" lon="4.29064">
        <ele>564</ele>
        <time>2018-06-25T09:20:45.121Z</time>
      </trkpt>
      <trkpt lat="46.89223" lon="4.2901">
        <ele>569</ele>
        <time>2018-06-25T09:20:46.121Z</time>
      </trkpt>
      <trkpt lat="46.89259" lon="4.2893">
        <ele>576</ele>
        <time>2018-06-25T09:20:47.121Z</time>
      </trkpt>
      <trkpt lat="46.89273" lon="4.28886">
        <ele>578</ele>
        <time>2018-06-25T09:20:48.121Z</time>
      </trkpt>
      <trkpt lat="46.89306" lon="4.28763">
        <ele>585</ele>
        <time>2018-06-25T09:20:49.121Z</time>
      </trkpt>
      <trkpt lat="46.89317" lon="4.28731">
        <ele>586</ele>
        <time>2018-06-25T09:20:50.121Z</time>
      </trkpt>
      <trkpt lat="46.89328" lon="4.28707">
        <ele>585</ele>
        <time>2018-06-25T09:20:51.121Z</time>
      </trkpt>
      <trkpt lat="46.89337" lon="4.28693">
        <ele>585</ele>
        <time>2018-06-25T09:20:52.121Z</time>
      </trkpt>
      <trkpt lat="46.89348" lon="4.28684">
        <ele>585</ele>
        <time>2018-06-25T09:20:53.121Z</time>
      </trkpt>
      <trkpt lat="46.89375" lon="4.28663">
        <ele>586</ele>
        <time>2018-06-25T09:20:54.121Z</time>
      </trkpt>
      <trkpt lat="46.89372" lon="4.28606">
        <ele>589</ele>
        <time>2018-06-25T09:20:55.121Z</time>
      </trkpt>
      <trkpt lat="46.8936" lon="4.28559">
        <ele>592</ele>
        <time>2018-06-25T09:20:56.121Z</time>
      </trkpt>
      <trkpt lat="46.89364" lon="4.28522">
        <ele>594</ele>
        <time>2018-06-25T09:20:57.121Z</time>
      </trkpt>
      <trkpt lat="46.89368" lon="4.28437">
        <ele>600</ele>
        <time>2018-06-25T09:20:58.121Z</time>
      </trkpt>
      <trkpt lat="46.89367" lon="4.28368">
        <ele>602</ele>
        <time>2018-06-25T09:20:59.121Z</time>
      </trkpt>
      <trkpt lat="46.89358" lon="4.28325">
        <ele>602</ele>
        <time>2018-06-25T09:21:00.121Z</time>
      </trkpt>
      <trkpt lat="46.89342" lon="4.28295">
        <ele>603</ele>
        <time>2018-06-25T09:21:01.121Z</time>
      </trkpt>
      <trkpt lat="46.89317" lon="4.28291">
        <ele>602</ele>
        <time>2018-06-25T09:21:02.121Z</time>
      </trkpt>
      <trkpt lat="46.89307" lon="4.28282">
        <ele>602</ele>
        <time>2018-06-25T09:21:03.121Z</time>
      </trkpt>
      <trkpt lat="46.89294" lon="4.28254">
        <ele>604</ele>
        <time>2018-06-25T09:21:04.121Z</time>
      </trkpt>
      <trkpt lat="46.89261" lon="4.28155">
        <ele>608</ele>
        <time>2018-06-25T09:21:05.121Z</time>
      </trkpt>
      <trkpt lat="46.89231" lon="4.28077">
        <ele>609</ele>
        <time>2018-06-25T09:21:06.121Z</time>
      </trkpt>
      <trkpt lat="46.8917" lon="4.28006">
        <ele>613</ele>
        <time>2018-06-25T09:21:07.121Z</time>
      </trkpt>
      <trkpt lat="46.89135" lon="4.27974">
        <ele>615</ele>
        <time>2018-06-25T09:21:08.121Z</time>
      </trkpt>
      <trkpt lat="46.89067" lon="4.27907">
        <ele>617</ele>
        <time>2018-06-25T09:21:09.121Z</time>
      </trkpt>
      <trkpt lat="46.89009" lon="4.2789">
        <ele>616</ele>
        <time>2018-06-25T09:21:10.121Z</time>
      </trkpt>
      <trkpt lat="46.88964" lon="4.27884">
        <ele>614</ele>
        <time>2018-06-25T09:21:11.121Z</time>
      </trkpt>
      <trkpt lat="46.8893" lon="4.27868">
        <ele>612</ele>
        <time>2018-06-25T09:21:12.121Z</time>
      </trkpt>
      <trkpt lat="46.88915" lon="4.27867">
        <ele>611</ele>
        <time>2018-06-25T09:21:13.121Z</time>
      </trkpt>
      <trkpt lat="46.88903" lon="4.27875">
        <ele>610</ele>
        <time>2018-06-25T09:21:14.121Z</time>
      </trkpt>
      <trkpt lat="46.88878" lon="4.27872">
        <ele>607</ele>
        <time>2018-06-25T09:21:15.121Z</time>
      </trkpt>
      <trkpt lat="46.88864" lon="4.27826">
        <ele>605</ele>
        <time>2018-06-25T09:21:16.121Z</time>
      </trkpt>
      <trkpt lat="46.88863" lon="4.27751">
        <ele>606</ele>
        <time>2018-06-25T09:21:17.121Z</time>
      </trkpt>
      <trkpt lat="46.88826" lon="4.27708">
        <ele>608</ele>
        <time>2018-06-25T09:21:18.121Z</time>
      </trkpt>
      <trkpt lat="46.88793" lon="4.27696">
        <ele>605</ele>
        <time>2018-06-25T09:21:19.121Z</time>
      </trkpt>
      <trkpt lat="46.88743" lon="4.2769">
        <ele>599</ele>
        <time>2018-06-25T09:21:20.121Z</time>
      </trkpt>
      <trkpt lat="46.88714" lon="4.27677">
        <ele>594</ele>
        <time>2018-06-25T09:21:21.121Z</time>
      </trkpt>
      <trkpt lat="46.88673" lon="4.27647">
        <ele>587</ele>
        <time>2018-06-25T09:21:22.121Z</time>
      </trkpt>
      <trkpt lat="46.88651" lon="4.27621">
        <ele>583</ele>
        <time>2018-06-25T09:21:23.121Z</time>
      </trkpt>
      <trkpt lat="46.88624" lon="4.27586">
        <ele>576</ele>
        <time>2018-06-25T09:21:24.121Z</time>
      </trkpt>
      <trkpt lat="46.88594" lon="4.27539">
        <ele>567</ele>
        <time>2018-06-25T09:21:25.121Z</time>
      </trkpt>
      <trkpt lat="46.88595" lon="4.27519">
        <ele>566</ele>
        <time>2018-06-25T09:21:26.121Z</time>
      </trkpt>
      <trkpt lat="46.886" lon="4.27491">
        <ele>566</ele>
        <time>2018-06-25T09:21:27.121Z</time>
      </trkpt>
      <trkpt lat="46.88568" lon="4.27452">
        <ele>562</ele>
        <time>2018-06-25T09:21:28.121Z</time>
      </trkpt>
      <trkpt lat="46.88562" lon="4.27434">
        <ele>561</ele>
        <time>2018-06-25T09:21:29.121Z</time>
      </trkpt>
      <trkpt lat="46.88549" lon="4.27417">
        <ele>561</ele>
        <time>2018-06-25T09:21:30.121Z</time>
      </trkpt>
      <trkpt lat="46.88532" lon="4.27405">
        <ele>560</ele>
        <time>2018-06-25T09:21:31.121Z</time>
      </trkpt>
      <trkpt lat="46.88471" lon="4.27355">
        <ele>560</ele>
        <time>2018-06-25T09:21:32.121Z</time>
      </trkpt>
      <trkpt lat="46.88443" lon="4.27327">
        <ele>559</ele>
        <time>2018-06-25T09:21:33.121Z</time>
      </trkpt>
      <trkpt lat="46.88426" lon="4.27299">
        <ele>556</ele>
        <time>2018-06-25T09:21:34.121Z</time>
      </trkpt>
      <trkpt lat="46.88407" lon="4.27262">
        <ele>555</ele>
        <time>2018-06-25T09:21:35.121Z</time>
      </trkpt>
      <trkpt lat="46.88399" lon="4.27241">
        <ele>554</ele>
        <time>2018-06-25T09:21:36.121Z</time>
      </trkpt>
      <trkpt lat="46.88385" lon="4.27226">
        <ele>553</ele>
        <time>2018-06-25T09:21:37.121Z</time>
      </trkpt>
      <trkpt lat="46.88324" lon="4.27172">
        <ele>547</ele>
        <time>2018-06-25T09:21:38.121Z</time>
      </trkpt>
      <trkpt lat="46.88319" lon="4.27161">
        <ele>545</ele>
        <time>2018-06-25T09:21:39.121Z</time>
      </trkpt>
      <trkpt lat="46.88281" lon="4.27154">
        <ele>542</ele>
        <time>2018-06-25T09:21:40.121Z</time>
      </trkpt>
      <trkpt lat="46.88255" lon="4.27144">
        <ele>539</ele>
        <time>2018-06-25T09:21:41.121Z</time>
      </trkpt>
      <trkpt lat="46.88256" lon="4.27144">
        <ele>539</ele>
        <time>2018-06-25T09:21:42.121Z</time>
      </trkpt>
      <trkpt lat="46.8824" lon="4.27137">
        <ele>537</ele>
        <time>2018-06-25T09:21:43.121Z</time>
      </trkpt>
      <trkpt lat="46.88229" lon="4.27128">
        <ele>535</ele>
        <time>2018-06-25T09:21:44.121Z</time>
      </trkpt>
      <trkpt lat="46.88222" lon="4.27117">
        <ele>533</ele>
        <time>2018-06-25T09:21:45.121Z</time>
      </trkpt>
      <trkpt lat="46.88209" lon="4.2711">
        <ele>531</ele>
        <time>2018-06-25T09:21:46.121Z</time>
      </trkpt>
      <trkpt lat="46.88197" lon="4.27105">
        <ele>529</ele>
        <time>2018-06-25T09:21:47.121Z</time>
      </trkpt>
      <trkpt lat="46.88171" lon="4.27084">
        <ele>523</ele>
        <time>2018-06-25T09:21:48.121Z</time>
      </trkpt>
      <trkpt lat="46.88153" lon="4.27082">
        <ele>519</ele>
        <time>2018-06-25T09:21:49.121Z</time>
      </trkpt>
      <trkpt lat="46.88148" lon="4.27079">
        <ele>518</ele>
        <time>2018-06-25T09:21:50.121Z</time>
      </trkpt>
      <trkpt lat="46.88128" lon="4.27058">
        <ele>511</ele>
        <time>2018-06-25T09:21:51.121Z</time>
      </trkpt>
      <trkpt lat="46.88107" lon="4.27051">
        <ele>507</ele>
        <time>2018-06-25T09:21:52.121Z</time>
      </trkpt>
      <trkpt lat="46.88079" lon="4.27035">
        <ele>501</ele>
        <time>2018-06-25T09:21:53.121Z</time>
      </trkpt>
      <trkpt lat="46.88063" lon="4.27023">
        <ele>498</ele>
        <time>2018-06-25T09:21:54.121Z</time>
      </trkpt>
      <trkpt lat="46.88042" lon="4.27002">
        <ele>494</ele>
        <time>2018-06-25T09:21:55.121Z</time>
      </trkpt>
      <trkpt lat="46.88036" lon="4.26988">
        <ele>492</ele>
        <time>2018-06-25T09:21:56.121Z</time>
      </trkpt>
      <trkpt lat="46.88023" lon="4.26974">
        <ele>489</ele>
        <time>2018-06-25T09:21:57.121Z</time>
      </trkpt>
      <trkpt lat="46.88019" lon="4.26965">
        <ele>487</ele>
        <time>2018-06-25T09:21:58.121Z</time>
      </trkpt>
      <trkpt lat="46.88072" lon="4.26903">
        <ele>483</ele>
        <time>2018-06-25T09:21:59.121Z</time>
      </trkpt>
      <trkpt lat="46.88129" lon="4.26833">
        <ele>473</ele>
        <time>2018-06-25T09:22:00.121Z</time>
      </trkpt>
      <trkpt lat="46.88182" lon="4.26725">
        <ele>457</ele>
        <time>2018-06-25T09:22:01.121Z</time>
      </trkpt>
      <trkpt lat="46.88227" lon="4.26678">
        <ele>454</ele>
        <time>2018-06-25T09:22:02.121Z</time>
      </trkpt>
      <trkpt lat="46.88253" lon="4.26658">
        <ele>454</ele>
        <time>2018-06-25T09:22:03.121Z</time>
      </trkpt>
      <trkpt lat="46.88282" lon="4.26644">
        <ele>455</ele>
        <time>2018-06-25T09:22:04.121Z</time>
      </trkpt>
      <trkpt lat="46.88308" lon="4.26623">
        <ele>454</ele>
        <time>2018-06-25T09:22:05.121Z</time>
      </trkpt>
      <trkpt lat="46.88345" lon="4.26573">
        <ele>447</ele>
        <time>2018-06-25T09:22:06.121Z</time>
      </trkpt>
      <trkpt lat="46.8836" lon="4.2656">
        <ele>445</ele>
        <time>2018-06-25T09:22:07.121Z</time>
      </trkpt>
      <trkpt lat="46.88377" lon="4.26549">
        <ele>444</ele>
        <time>2018-06-25T09:22:08.121Z</time>
      </trkpt>
      <trkpt lat="46.8838" lon="4.26544">
        <ele>443</ele>
        <time>2018-06-25T09:22:09.121Z</time>
      </trkpt>
      <trkpt lat="46.88379" lon="4.26539">
        <ele>441</ele>
        <time>2018-06-25T09:22:10.121Z</time>
      </trkpt>
      <trkpt lat="46.88364" lon="4.26521">
        <ele>437</ele>
        <time>2018-06-25T09:22:11.121Z</time>
      </trkpt>
      <trkpt lat="46.88347" lon="4.26509">
        <ele>433</ele>
        <time>2018-06-25T09:22:12.121Z</time>
      </trkpt>
      <trkpt lat="46.88346" lon="4.26501">
        <ele>432</ele>
        <time>2018-06-25T09:22:13.121Z</time>
      </trkpt>
      <trkpt lat="46.88367" lon="4.26405">
        <ele>412</ele>
        <time>2018-06-25T09:22:14.121Z</time>
      </trkpt>
      <trkpt lat="46.8841" lon="4.26426">
        <ele>416</ele>
        <time>2018-06-25T09:22:15.121Z</time>
      </trkpt>
      <trkpt lat="46.88479" lon="4.26471">
        <ele>426</ele>
        <time>2018-06-25T09:22:16.121Z</time>
      </trkpt>
      <trkpt lat="46.88485" lon="4.26472">
        <ele>426</ele>
        <time>2018-06-25T09:22:17.121Z</time>
      </trkpt>
      <trkpt lat="46.88491" lon="4.26463">
        <ele>425</ele>
        <time>2018-06-25T09:22:18.121Z</time>
      </trkpt>
      <trkpt lat="46.88492" lon="4.26452">
        <ele>424</ele>
        <time>2018-06-25T09:22:19.121Z</time>
      </trkpt>
      <trkpt lat="46.8849" lon="4.26441">
        <ele>423</ele>
        <time>2018-06-25T09:22:20.121Z</time>
      </trkpt>
      <trkpt lat="46.88476" lon="4.26395">
        <ele>418</ele>
        <time>2018-06-25T09:22:21.121Z</time>
      </trkpt>
      <trkpt lat="46.88458" lon="4.26356">
        <ele>412</ele>
        <time>2018-06-25T09:22:22.121Z</time>
      </trkpt>
      <trkpt lat="46.88445" lon="4.26311">
        <ele>405</ele>
        <time>2018-06-25T09:22:23.121Z</time>
      </trkpt>
      <trkpt lat="46.88446" lon="4.26298">
        <ele>404</ele>
        <time>2018-06-25T09:22:24.121Z</time>
      </trkpt>
      <trkpt lat="46.88453" lon="4.26281">
        <ele>406</ele>
        <time>2018-06-25T09:22:25.121Z</time>
      </trkpt>
      <trkpt lat="46.88485" lon="4.2626">
        <ele>415</ele>
        <time>2018-06-25T09:22:26.121Z</time>
      </trkpt>
      <trkpt lat="46.88524" lon="4.2624">
        <ele>419</ele>
        <time>2018-06-25T09:22:27.121Z</time>
      </trkpt>
      <trkpt lat="46.88554" lon="4.26232">
        <ele>418</ele>
        <time>2018-06-25T09:22:28.121Z</time>
      </trkpt>
      <trkpt lat="46.88576" lon="4.26229">
        <ele>419</ele>
        <time>2018-06-25T09:22:29.121Z</time>
      </trkpt>
      <trkpt lat="46.88587" lon="4.26222">
        <ele>418</ele>
        <time>2018-06-25T09:22:30.121Z</time>
      </trkpt>
      <trkpt lat="46.88617" lon="4.26193">
        <ele>414</ele>
        <time>2018-06-25T09:22:31.121Z</time>
      </trkpt>
      <trkpt lat="46.88634" lon="4.26185">
        <ele>412</ele>
        <time>2018-06-25T09:22:32.121Z</time>
      </trkpt>
      <trkpt lat="46.88708" lon="4.2616">
        <ele>405</ele>
        <time>2018-06-25T09:22:33.121Z</time>
      </trkpt>
      <trkpt lat="46.88728" lon="4.26156">
        <ele>404</ele>
        <time>2018-06-25T09:22:34.121Z</time>
      </trkpt>
      <trkpt lat="46.88776" lon="4.26161">
        <ele>405</ele>
        <time>2018-06-25T09:22:35.121Z</time>
      </trkpt>
      <trkpt lat="46.88789" lon="4.26155">
        <ele>404</ele>
        <time>2018-06-25T09:22:36.121Z</time>
      </trkpt>
      <trkpt lat="46.88795" lon="4.26152">
        <ele>404</ele>
        <time>2018-06-25T09:22:37.121Z</time>
      </trkpt>
      <trkpt lat="46.88796" lon="4.26145">
        <ele>404</ele>
        <time>2018-06-25T09:22:38.121Z</time>
      </trkpt>
      <trkpt lat="46.88795" lon="4.26127">
        <ele>402</ele>
        <time>2018-06-25T09:22:39.121Z</time>
      </trkpt>
      <trkpt lat="46.88771" lon="4.26061">
        <ele>391</ele>
        <time>2018-06-25T09:22:40.121Z</time>
      </trkpt>
      <trkpt lat="46.88769" lon="4.26041">
        <ele>387</ele>
        <time>2018-06-25T09:22:41.121Z</time>
      </trkpt>
      <trkpt lat="46.88789" lon="4.25998">
        <ele>385</ele>
        <time>2018-06-25T09:22:42.121Z</time>
      </trkpt>
      <trkpt lat="46.888" lon="4.25978">
        <ele>383</ele>
        <time>2018-06-25T09:22:43.121Z</time>
      </trkpt>
      <trkpt lat="46.88827" lon="4.25953">
        <ele>384</ele>
        <time>2018-06-25T09:22:44.121Z</time>
      </trkpt>
      <trkpt lat="46.88838" lon="4.2594">
        <ele>383</ele>
        <time>2018-06-25T09:22:45.121Z</time>
      </trkpt>
      <trkpt lat="46.88847" lon="4.25922">
        <ele>381</ele>
        <time>2018-06-25T09:22:46.121Z</time>
      </trkpt>
      <trkpt lat="46.88919" lon="4.25811">
        <ele>380</ele>
        <time>2018-06-25T09:22:47.121Z</time>
      </trkpt>
      <trkpt lat="46.8893" lon="4.2579">
        <ele>378</ele>
        <time>2018-06-25T09:22:48.121Z</time>
      </trkpt>
      <trkpt lat="46.88946" lon="4.25768">
        <ele>375</ele>
        <time>2018-06-25T09:22:49.121Z</time>
      </trkpt>
      <trkpt lat="46.88954" lon="4.25761">
        <ele>375</ele>
        <time>2018-06-25T09:22:50.121Z</time>
      </trkpt>
      <trkpt lat="46.88973" lon="4.25755">
        <ele>375</ele>
        <time>2018-06-25T09:22:51.121Z</time>
      </trkpt>
      <trkpt lat="46.8901" lon="4.25759">
        <ele>379</ele>
        <time>2018-06-25T09:22:52.121Z</time>
      </trkpt>
      <trkpt lat="46.89096" lon="4.25784">
        <ele>386</ele>
        <time>2018-06-25T09:22:53.121Z</time>
      </trkpt>
      <trkpt lat="46.89105" lon="4.25783">
        <ele>386</ele>
        <time>2018-06-25T09:22:54.121Z</time>
      </trkpt>
      <trkpt lat="46.89113" lon="4.25778">
        <ele>385</ele>
        <time>2018-06-25T09:22:55.121Z</time>
      </trkpt>
      <trkpt lat="46.89123" lon="4.25761">
        <ele>383</ele>
        <time>2018-06-25T09:22:56.121Z</time>
      </trkpt>
      <trkpt lat="46.89135" lon="4.25726">
        <ele>382</ele>
        <time>2018-06-25T09:22:57.121Z</time>
      </trkpt>
      <trkpt lat="46.89136" lon="4.25702">
        <ele>381</ele>
        <time>2018-06-25T09:22:58.121Z</time>
      </trkpt>
      <trkpt lat="46.89128" lon="4.25667">
        <ele>379</ele>
        <time>2018-06-25T09:22:59.121Z</time>
      </trkpt>
      <trkpt lat="46.89127" lon="4.25637">
        <ele>381</ele>
        <time>2018-06-25T09:23:00.121Z</time>
      </trkpt>
      <trkpt lat="46.89129" lon="4.25624">
        <ele>382</ele>
        <time>2018-06-25T09:23:01.121Z</time>
      </trkpt>
      <trkpt lat="46.89134" lon="4.25617">
        <ele>383</ele>
        <time>2018-06-25T09:23:02.121Z</time>
      </trkpt>
      <trkpt lat="46.89148" lon="4.25612">
        <ele>385</ele>
        <time>2018-06-25T09:23:03.121Z</time>
      </trkpt>
      <trkpt lat="46.89169" lon="4.25616">
        <ele>387</ele>
        <time>2018-06-25T09:23:04.121Z</time>
      </trkpt>
      <trkpt lat="46.8918" lon="4.25613">
        <ele>388</ele>
        <time>2018-06-25T09:23:05.121Z</time>
      </trkpt>
      <trkpt lat="46.89202" lon="4.256">
        <ele>391</ele>
        <time>2018-06-25T09:23:06.121Z</time>
      </trkpt>
      <trkpt lat="46.89258" lon="4.25584">
        <ele>397</ele>
        <time>2018-06-25T09:23:07.121Z</time>
      </trkpt>
      <trkpt lat="46.89275" lon="4.25574">
        <ele>398</ele>
        <time>2018-06-25T09:23:08.121Z</time>
      </trkpt>
      <trkpt lat="46.89294" lon="4.25556">
        <ele>400</ele>
        <time>2018-06-25T09:23:09.121Z</time>
      </trkpt>
      <trkpt lat="46.89326" lon="4.2552">
        <ele>404</ele>
        <time>2018-06-25T09:23:10.121Z</time>
      </trkpt>
      <trkpt lat="46.89353" lon="4.25495">
        <ele>407</ele>
        <time>2018-06-25T09:23:11.121Z</time>
      </trkpt>
      <trkpt lat="46.89373" lon="4.25484">
        <ele>407</ele>
        <time>2018-06-25T09:23:12.121Z</time>
      </trkpt>
      <trkpt lat="46.89317" lon="4.25427">
        <ele>403</ele>
        <time>2018-06-25T09:23:13.121Z</time>
      </trkpt>
      <trkpt lat="46.89172" lon="4.25271">
        <ele>397</ele>
        <time>2018-06-25T09:23:14.121Z</time>
      </trkpt>
      <trkpt lat="46.88974" lon="4.25073">
        <ele>399</ele>
        <time>2018-06-25T09:23:15.121Z</time>
      </trkpt>
      <trkpt lat="46.88931" lon="4.25023">
        <ele>400</ele>
        <time>2018-06-25T09:23:16.121Z</time>
      </trkpt>
      <trkpt lat="46.88914" lon="4.25009">
        <ele>401</ele>
        <time>2018-06-25T09:23:17.121Z</time>
      </trkpt>
      <trkpt lat="46.88763" lon="4.24851">
        <ele>399</ele>
        <time>2018-06-25T09:23:18.121Z</time>
      </trkpt>
      <trkpt lat="46.88669" lon="4.24755">
        <ele>395</ele>
        <time>2018-06-25T09:23:19.121Z</time>
      </trkpt>
      <trkpt lat="46.88646" lon="4.24734">
        <ele>394</ele>
        <time>2018-06-25T09:23:20.121Z</time>
      </trkpt>
      <trkpt lat="46.88606" lon="4.24721">
        <ele>393</ele>
        <time>2018-06-25T09:23:21.121Z</time>
      </trkpt>
      <trkpt lat="46.8854" lon="4.24696">
        <ele>390</ele>
        <time>2018-06-25T09:23:22.121Z</time>
      </trkpt>
      <trkpt lat="46.88404" lon="4.24642">
        <ele>387</ele>
        <time>2018-06-25T09:23:23.121Z</time>
      </trkpt>
      <trkpt lat="46.88376" lon="4.24629">
        <ele>386</ele>
        <time>2018-06-25T09:23:24.121Z</time>
      </trkpt>
      <trkpt lat="46.88361" lon="4.24641">
        <ele>386</ele>
        <time>2018-06-25T09:23:25.121Z</time>
      </trkpt>
      <trkpt lat="46.88333" lon="4.24659">
        <ele>386</ele>
        <time>2018-06-25T09:23:26.121Z</time>
      </trkpt>
      <trkpt lat="46.88316" lon="4.24663">
        <ele>386</ele>
        <time>2018-06-25T09:23:27.121Z</time>
      </trkpt>
      <trkpt lat="46.88254" lon="4.2466">
        <ele>387</ele>
        <time>2018-06-25T09:23:28.121Z</time>
      </trkpt>
      <trkpt lat="46.88228" lon="4.24656">
        <ele>389</ele>
        <time>2018-06-25T09:23:29.121Z</time>
      </trkpt>
      <trkpt lat="46.88203" lon="4.24649">
        <ele>391</ele>
        <time>2018-06-25T09:23:30.121Z</time>
      </trkpt>
      <trkpt lat="46.88187" lon="4.2465">
        <ele>393</ele>
        <time>2018-06-25T09:23:31.121Z</time>
      </trkpt>
      <trkpt lat="46.88144" lon="4.24659">
        <ele>395</ele>
        <time>2018-06-25T09:23:32.121Z</time>
      </trkpt>
      <trkpt lat="46.88118" lon="4.24667">
        <ele>396</ele>
        <time>2018-06-25T09:23:33.121Z</time>
      </trkpt>
      <trkpt lat="46.88031" lon="4.24711">
        <ele>396</ele>
        <time>2018-06-25T09:23:34.121Z</time>
      </trkpt>
      <trkpt lat="46.88008" lon="4.24735">
        <ele>397</ele>
        <time>2018-06-25T09:23:35.121Z</time>
      </trkpt>
      <trkpt lat="46.87989" lon="4.24759">
        <ele>397</ele>
        <time>2018-06-25T09:23:36.121Z</time>
      </trkpt>
      <trkpt lat="46.87957" lon="4.24804">
        <ele>397</ele>
        <time>2018-06-25T09:23:37.121Z</time>
      </trkpt>
      <trkpt lat="46.87944" lon="4.24811">
        <ele>396</ele>
        <time>2018-06-25T09:23:38.121Z</time>
      </trkpt>
      <trkpt lat="46.87885" lon="4.24817">
        <ele>389</ele>
        <time>2018-06-25T09:23:39.121Z</time>
      </trkpt>
      <trkpt lat="46.87857" lon="4.24821">
        <ele>387</ele>
        <time>2018-06-25T09:23:40.121Z</time>
      </trkpt>
      <trkpt lat="46.87844" lon="4.24826">
        <ele>386</ele>
        <time>2018-06-25T09:23:41.121Z</time>
      </trkpt>
      <trkpt lat="46.87828" lon="4.24838">
        <ele>385</ele>
        <time>2018-06-25T09:23:42.121Z</time>
      </trkpt>
      <trkpt lat="46.878" lon="4.24868">
        <ele>383</ele>
        <time>2018-06-25T09:23:43.121Z</time>
      </trkpt>
      <trkpt lat="46.87785" lon="4.2489">
        <ele>382</ele>
        <time>2018-06-25T09:23:44.121Z</time>
      </trkpt>
      <trkpt lat="46.8777" lon="4.24914">
        <ele>380</ele>
        <time>2018-06-25T09:23:45.121Z</time>
      </trkpt>
      <trkpt lat="46.87755" lon="4.24945">
        <ele>377</ele>
        <time>2018-06-25T09:23:46.121Z</time>
      </trkpt>
      <trkpt lat="46.8774" lon="4.24986">
        <ele>375</ele>
        <time>2018-06-25T09:23:47.121Z</time>
      </trkpt>
      <trkpt lat="46.87723" lon="4.25004">
        <ele>372</ele>
        <time>2018-06-25T09:23:48.121Z</time>
      </trkpt>
      <trkpt lat="46.87695" lon="4.2503">
        <ele>368</ele>
        <time>2018-06-25T09:23:49.121Z</time>
      </trkpt>
      <trkpt lat="46.87658" lon="4.25092">
        <ele>363</ele>
        <time>2018-06-25T09:23:50.121Z</time>
      </trkpt>
      <trkpt lat="46.87613" lon="4.25147">
        <ele>357</ele>
        <time>2018-06-25T09:23:51.121Z</time>
      </trkpt>
      <trkpt lat="46.87574" lon="4.25211">
        <ele>352</ele>
        <time>2018-06-25T09:23:52.121Z</time>
      </trkpt>
      <trkpt lat="46.87513" lon="4.25177">
        <ele>347</ele>
        <time>2018-06-25T09:23:53.121Z</time>
      </trkpt>
      <trkpt lat="46.87506" lon="4.25171">
        <ele>346</ele>
        <time>2018-06-25T09:23:54.121Z</time>
      </trkpt>
      <trkpt lat="46.87502" lon="4.25163">
        <ele>346</ele>
        <time>2018-06-25T09:23:55.121Z</time>
      </trkpt>
      <trkpt lat="46.875" lon="4.25153">
        <ele>345</ele>
        <time>2018-06-25T09:23:56.121Z</time>
      </trkpt>
      <trkpt lat="46.87501" lon="4.25146">
        <ele>345</ele>
        <time>2018-06-25T09:23:57.121Z</time>
      </trkpt>
      <trkpt lat="46.87495" lon="4.25155">
        <ele>345</ele>
        <time>2018-06-25T09:23:58.121Z</time>
      </trkpt>
      <trkpt lat="46.8749" lon="4.2516">
        <ele>345</ele>
        <time>2018-06-25T09:23:59.121Z</time>
      </trkpt>
      <trkpt lat="46.87446" lon="4.25169">
        <ele>341</ele>
        <time>2018-06-25T09:24:00.121Z</time>
      </trkpt>
      <trkpt lat="46.87429" lon="4.25177">
        <ele>339</ele>
        <time>2018-06-25T09:24:01.121Z</time>
      </trkpt>
      <trkpt lat="46.87404" lon="4.25198">
        <ele>337</ele>
        <time>2018-06-25T09:24:02.121Z</time>
      </trkpt>
      <trkpt lat="46.87377" lon="4.25227">
        <ele>335</ele>
        <time>2018-06-25T09:24:03.121Z</time>
      </trkpt>
      <trkpt lat="46.87352" lon="4.2527">
        <ele>334</ele>
        <time>2018-06-25T09:24:04.121Z</time>
      </trkpt>
      <trkpt lat="46.87343" lon="4.25291">
        <ele>333</ele>
        <time>2018-06-25T09:24:05.121Z</time>
      </trkpt>
      <trkpt lat="46.87327" lon="4.25316">
        <ele>334</ele>
        <time>2018-06-25T09:24:06.121Z</time>
      </trkpt>
      <trkpt lat="46.87315" lon="4.2533">
        <ele>335</ele>
        <time>2018-06-25T09:24:07.121Z</time>
      </trkpt>
      <trkpt lat="46.87278" lon="4.25414">
        <ele>331</ele>
        <time>2018-06-25T09:24:08.121Z</time>
      </trkpt>
      <trkpt lat="46.87278" lon="4.25415">
        <ele>330</ele>
        <time>2018-06-25T09:24:09.121Z</time>
      </trkpt>
      <trkpt lat="46.87225" lon="4.2554">
        <ele>320</ele>
        <time>2018-06-25T09:24:10.121Z</time>
      </trkpt>
      <trkpt lat="46.87207" lon="4.25591">
        <ele>317</ele>
        <time>2018-06-25T09:24:11.121Z</time>
      </trkpt>
      <trkpt lat="46.87184" lon="4.25634">
        <ele>315</ele>
        <time>2018-06-25T09:24:12.121Z</time>
      </trkpt>
      <trkpt lat="46.87162" lon="4.25671">
        <ele>313</ele>
        <time>2018-06-25T09:24:13.121Z</time>
      </trkpt>
      <trkpt lat="46.87081" lon="4.25755">
        <ele>307</ele>
        <time>2018-06-25T09:24:14.121Z</time>
      </trkpt>
      <trkpt lat="46.87007" lon="4.25829">
        <ele>306</ele>
        <time>2018-06-25T09:24:15.121Z</time>
      </trkpt>
      <trkpt lat="46.86958" lon="4.25862">
        <ele>304</ele>
        <time>2018-06-25T09:24:16.121Z</time>
      </trkpt>
      <trkpt lat="46.86881" lon="4.25907">
        <ele>299</ele>
        <time>2018-06-25T09:24:17.121Z</time>
      </trkpt>
      <trkpt lat="46.86826" lon="4.25962">
        <ele>295</ele>
        <time>2018-06-25T09:24:18.121Z</time>
      </trkpt>
      <trkpt lat="46.8681" lon="4.25973">
        <ele>294</ele>
        <time>2018-06-25T09:24:19.121Z</time>
      </trkpt>
      <trkpt lat="46.86796" lon="4.25979">
        <ele>294</ele>
        <time>2018-06-25T09:24:20.121Z</time>
      </trkpt>
      <trkpt lat="46.86786" lon="4.25977">
        <ele>293</ele>
        <time>2018-06-25T09:24:21.121Z</time>
      </trkpt>
      <trkpt lat="46.86772" lon="4.25967">
        <ele>293</ele>
        <time>2018-06-25T09:24:22.121Z</time>
      </trkpt>
      <trkpt lat="46.86764" lon="4.25972">
        <ele>292</ele>
        <time>2018-06-25T09:24:23.121Z</time>
      </trkpt>
      <trkpt lat="46.86763" lon="4.25945">
        <ele>292</ele>
        <time>2018-06-25T09:24:24.121Z</time>
      </trkpt>
      <trkpt lat="46.86759" lon="4.25911">
        <ele>292</ele>
        <time>2018-06-25T09:24:25.121Z</time>
      </trkpt>
      <trkpt lat="46.86748" lon="4.25856">
        <ele>293</ele>
        <time>2018-06-25T09:24:26.121Z</time>
      </trkpt>
      <trkpt lat="46.86694" lon="4.25614">
        <ele>292</ele>
        <time>2018-06-25T09:24:27.121Z</time>
      </trkpt>
      <trkpt lat="46.86679" lon="4.25565">
        <ele>291</ele>
        <time>2018-06-25T09:24:28.121Z</time>
      </trkpt>
      <trkpt lat="46.86633" lon="4.25443">
        <ele>290</ele>
        <time>2018-06-25T09:24:29.121Z</time>
      </trkpt>
      <trkpt lat="46.86588" lon="4.2529">
        <ele>291</ele>
        <time>2018-06-25T09:24:30.121Z</time>
      </trkpt>
      <trkpt lat="46.86573" lon="4.25244">
        <ele>289</ele>
        <time>2018-06-25T09:24:31.121Z</time>
      </trkpt>
      <trkpt lat="46.86528" lon="4.25139">
        <ele>288</ele>
        <time>2018-06-25T09:24:32.121Z</time>
      </trkpt>
      <trkpt lat="46.86421" lon="4.24873">
        <ele>287</ele>
        <time>2018-06-25T09:24:33.121Z</time>
      </trkpt>
      <trkpt lat="46.86389" lon="4.24798">
        <ele>288</ele>
        <time>2018-06-25T09:24:34.121Z</time>
      </trkpt>
      <trkpt lat="46.86346" lon="4.24708">
        <ele>288</ele>
        <time>2018-06-25T09:24:35.121Z</time>
      </trkpt>
      <trkpt lat="46.86305" lon="4.24627">
        <ele>287</ele>
        <time>2018-06-25T09:24:36.121Z</time>
      </trkpt>
      <trkpt lat="46.86271" lon="4.24572">
        <ele>287</ele>
        <time>2018-06-25T09:24:37.121Z</time>
      </trkpt>
      <trkpt lat="46.86238" lon="4.24515">
        <ele>287</ele>
        <time>2018-06-25T09:24:38.121Z</time>
      </trkpt>
      <trkpt lat="46.86208" lon="4.24472">
        <ele>286</ele>
        <time>2018-06-25T09:24:39.121Z</time>
      </trkpt>
      <trkpt lat="46.86145" lon="4.24402">
        <ele>285</ele>
        <time>2018-06-25T09:24:40.121Z</time>
      </trkpt>
      <trkpt lat="46.86137" lon="4.24387">
        <ele>285</ele>
        <time>2018-06-25T09:24:41.121Z</time>
      </trkpt>
      <trkpt lat="46.86133" lon="4.2437">
        <ele>284</ele>
        <time>2018-06-25T09:24:42.121Z</time>
      </trkpt>
      <trkpt lat="46.86135" lon="4.24308">
        <ele>284</ele>
        <time>2018-06-25T09:24:43.121Z</time>
      </trkpt>
      <trkpt lat="46.86124" lon="4.24297">
        <ele>283</ele>
        <time>2018-06-25T09:24:44.121Z</time>
      </trkpt>
      <trkpt lat="46.86135" lon="4.24157">
        <ele>282</ele>
        <time>2018-06-25T09:24:45.121Z</time>
      </trkpt>
      <trkpt lat="46.86092" lon="4.24154">
        <ele>281</ele>
        <time>2018-06-25T09:24:46.121Z</time>
      </trkpt>
      <trkpt lat="46.86048" lon="4.23993">
        <ele>279</ele>
        <time>2018-06-25T09:24:47.121Z</time>
      </trkpt>
      <trkpt lat="46.86017" lon="4.23953">
        <ele>279</ele>
        <time>2018-06-25T09:24:48.121Z</time>
      </trkpt>
      <trkpt lat="46.8596" lon="4.23949">
        <ele>279</ele>
        <time>2018-06-25T09:24:49.121Z</time>
      </trkpt>
      <trkpt lat="46.85851" lon="4.23993">
        <ele>277</ele>
        <time>2018-06-25T09:24:50.121Z</time>
      </trkpt>
      <trkpt lat="46.85729" lon="4.24076">
        <ele>278</ele>
        <time>2018-06-25T09:24:51.121Z</time>
      </trkpt>
      <trkpt lat="46.85685" lon="4.24207">
        <ele>279</ele>
        <time>2018-06-25T09:24:52.121Z</time>
      </trkpt>
      <trkpt lat="46.8564" lon="4.24225">
        <ele>281</ele>
        <time>2018-06-25T09:24:53.121Z</time>
      </trkpt>
      <trkpt lat="46.8562" lon="4.24254">
        <ele>282</ele>
        <time>2018-06-25T09:24:54.121Z</time>
      </trkpt>
      <trkpt lat="46.85523" lon="4.24603">
        <ele>284</ele>
        <time>2018-06-25T09:24:55.121Z</time>
      </trkpt>
      <trkpt lat="46.85506" lon="4.24861">
        <ele>286</ele>
        <time>2018-06-25T09:24:56.121Z</time>
      </trkpt>
      <trkpt lat="46.85437" lon="4.24998">
        <ele>289</ele>
        <time>2018-06-25T09:24:57.121Z</time>
      </trkpt>
      <trkpt lat="46.8538" lon="4.25062">
        <ele>285</ele>
        <time>2018-06-25T09:24:58.121Z</time>
      </trkpt>
      <trkpt lat="46.85304" lon="4.2511">
        <ele>285</ele>
        <time>2018-06-25T09:24:59.121Z</time>
      </trkpt>
      <trkpt lat="46.85178" lon="4.25291">
        <ele>294</ele>
        <time>2018-06-25T09:25:00.121Z</time>
      </trkpt>
      <trkpt lat="46.85043" lon="4.2537">
        <ele>297</ele>
        <time>2018-06-25T09:25:01.121Z</time>
      </trkpt>
      <trkpt lat="46.84854" lon="4.25604">
        <ele>310</ele>
        <time>2018-06-25T09:25:02.121Z</time>
      </trkpt>
      <trkpt lat="46.84768" lon="4.25766">
        <ele>326</ele>
        <time>2018-06-25T09:25:03.121Z</time>
      </trkpt>
      <trkpt lat="46.84712" lon="4.25906">
        <ele>337</ele>
        <time>2018-06-25T09:25:04.121Z</time>
      </trkpt>
      <trkpt lat="46.84666" lon="4.26095">
        <ele>350</ele>
        <time>2018-06-25T09:25:05.121Z</time>
      </trkpt>
      <trkpt lat="46.84609" lon="4.26209">
        <ele>364</ele>
        <time>2018-06-25T09:25:06.121Z</time>
      </trkpt>
      <trkpt lat="46.84594" lon="4.26208">
        <ele>365</ele>
        <time>2018-06-25T09:25:07.121Z</time>
      </trkpt>
      <trkpt lat="46.84568" lon="4.26165">
        <ele>362</ele>
        <time>2018-06-25T09:25:08.121Z</time>
      </trkpt>
      <trkpt lat="46.84576" lon="4.26266">
        <ele>373</ele>
        <time>2018-06-25T09:25:09.121Z</time>
      </trkpt>
      <trkpt lat="46.84557" lon="4.26339">
        <ele>378</ele>
        <time>2018-06-25T09:25:10.121Z</time>
      </trkpt>
      <trkpt lat="46.84516" lon="4.26405">
        <ele>381</ele>
        <time>2018-06-25T09:25:11.121Z</time>
      </trkpt>
      <trkpt lat="46.84503" lon="4.26447">
        <ele>387</ele>
        <time>2018-06-25T09:25:12.121Z</time>
      </trkpt>
      <trkpt lat="46.8429" lon="4.26752">
        <ele>431</ele>
        <time>2018-06-25T09:25:13.121Z</time>
      </trkpt>
      <trkpt lat="46.84243" lon="4.26765">
        <ele>428</ele>
        <time>2018-06-25T09:25:14.121Z</time>
      </trkpt>
      <trkpt lat="46.8418" lon="4.26825">
        <ele>432</ele>
        <time>2018-06-25T09:25:15.121Z</time>
      </trkpt>
      <trkpt lat="46.84113" lon="4.26838">
        <ele>434</ele>
        <time>2018-06-25T09:25:16.121Z</time>
      </trkpt>
      <trkpt lat="46.84092" lon="4.26822">
        <ele>434</ele>
        <time>2018-06-25T09:25:17.121Z</time>
      </trkpt>
      <trkpt lat="46.8407" lon="4.26765">
        <ele>436</ele>
        <time>2018-06-25T09:25:18.121Z</time>
      </trkpt>
      <trkpt lat="46.8406" lon="4.26601">
        <ele>431</ele>
        <time>2018-06-25T09:25:19.121Z</time>
      </trkpt>
      <trkpt lat="46.84021" lon="4.26537">
        <ele>434</ele>
        <time>2018-06-25T09:25:20.121Z</time>
      </trkpt>
      <trkpt lat="46.83871" lon="4.266">
        <ele>444</ele>
        <time>2018-06-25T09:25:21.121Z</time>
      </trkpt>
      <trkpt lat="46.83872" lon="4.26627">
        <ele>447</ele>
        <time>2018-06-25T09:25:22.121Z</time>
      </trkpt>
      <trkpt lat="46.83922" lon="4.26647">
        <ele>452</ele>
        <time>2018-06-25T09:25:23.121Z</time>
      </trkpt>
      <trkpt lat="46.83954" lon="4.26722">
        <ele>456</ele>
        <time>2018-06-25T09:25:24.121Z</time>
      </trkpt>
      <trkpt lat="46.83945" lon="4.26925">
        <ele>470</ele>
        <time>2018-06-25T09:25:25.121Z</time>
      </trkpt>
      <trkpt lat="46.83958" lon="4.27077">
        <ele>478</ele>
        <time>2018-06-25T09:25:26.121Z</time>
      </trkpt>
      <trkpt lat="46.83856" lon="4.2698">
        <ele>489</ele>
        <time>2018-06-25T09:25:27.121Z</time>
      </trkpt>
      <trkpt lat="46.83819" lon="4.27016">
        <ele>496</ele>
        <time>2018-06-25T09:25:28.121Z</time>
      </trkpt>
      <trkpt lat="46.83796" lon="4.27094">
        <ele>507</ele>
        <time>2018-06-25T09:25:29.121Z</time>
      </trkpt>
      <trkpt lat="46.83823" lon="4.27157">
        <ele>520</ele>
        <time>2018-06-25T09:25:30.121Z</time>
      </trkpt>
      <trkpt lat="46.83772" lon="4.27318">
        <ele>530</ele>
        <time>2018-06-25T09:25:31.121Z</time>
      </trkpt>
      <trkpt lat="46.83701" lon="4.27623">
        <ele>552</ele>
        <time>2018-06-25T09:25:32.121Z</time>
      </trkpt>
      <trkpt lat="46.83638" lon="4.27981">
        <ele>565</ele>
        <time>2018-06-25T09:25:33.121Z</time>
      </trkpt>
      <trkpt lat="46.83638" lon="4.28112">
        <ele>567</ele>
        <time>2018-06-25T09:25:34.121Z</time>
      </trkpt>
      <trkpt lat="46.8366" lon="4.28232">
        <ele>571</ele>
        <time>2018-06-25T09:25:35.121Z</time>
      </trkpt>
      <trkpt lat="46.83667" lon="4.28427">
        <ele>576</ele>
        <time>2018-06-25T09:25:36.121Z</time>
      </trkpt>
      <trkpt lat="46.83644" lon="4.28424">
        <ele>577</ele>
        <time>2018-06-25T09:25:37.121Z</time>
      </trkpt>
      <trkpt lat="46.83571" lon="4.2836">
        <ele>576</ele>
        <time>2018-06-25T09:25:38.121Z</time>
      </trkpt>
      <trkpt lat="46.83382" lon="4.28283">
        <ele>586</ele>
        <time>2018-06-25T09:25:39.121Z</time>
      </trkpt>
      <trkpt lat="46.83233" lon="4.28152">
        <ele>603</ele>
        <time>2018-06-25T09:25:40.121Z</time>
      </trkpt>
      <trkpt lat="46.83146" lon="4.28045">
        <ele>608</ele>
        <time>2018-06-25T09:25:41.121Z</time>
      </trkpt>
      <trkpt lat="46.83104" lon="4.28024">
        <ele>607</ele>
        <time>2018-06-25T09:25:42.121Z</time>
      </trkpt>
      <trkpt lat="46.83066" lon="4.28032">
        <ele>604</ele>
        <time>2018-06-25T09:25:43.121Z</time>
      </trkpt>
      <trkpt lat="46.82967" lon="4.28133">
        <ele>595</ele>
        <time>2018-06-25T09:25:44.121Z</time>
      </trkpt>
      <trkpt lat="46.82879" lon="4.28267">
        <ele>587</ele>
        <time>2018-06-25T09:25:45.121Z</time>
      </trkpt>
      <trkpt lat="46.82805" lon="4.2829">
        <ele>583</ele>
        <time>2018-06-25T09:25:46.121Z</time>
      </trkpt>
      <trkpt lat="46.82649" lon="4.28273">
        <ele>578</ele>
        <time>2018-06-25T09:25:47.121Z</time>
      </trkpt>
      <trkpt lat="46.8257" lon="4.28229">
        <ele>586</ele>
        <time>2018-06-25T09:25:48.121Z</time>
      </trkpt>
      <trkpt lat="46.82485" lon="4.28146">
        <ele>592</ele>
        <time>2018-06-25T09:25:49.121Z</time>
      </trkpt>
      <trkpt lat="46.82156" lon="4.28115">
        <ele>605</ele>
        <time>2018-06-25T09:25:50.121Z</time>
      </trkpt>
      <trkpt lat="46.82057" lon="4.28206">
        <ele>608</ele>
        <time>2018-06-25T09:25:51.121Z</time>
      </trkpt>
      <trkpt lat="46.81926" lon="4.28229">
        <ele>629</ele>
        <time>2018-06-25T09:25:52.121Z</time>
      </trkpt>
      <trkpt lat="46.8179" lon="4.2829">
        <ele>641</ele>
        <time>2018-06-25T09:25:53.121Z</time>
      </trkpt>
      <trkpt lat="46.81678" lon="4.28172">
        <ele>646</ele>
        <time>2018-06-25T09:25:54.121Z</time>
      </trkpt>
      <trkpt lat="46.81595" lon="4.27997">
        <ele>644</ele>
        <time>2018-06-25T09:25:55.121Z</time>
      </trkpt>
      <trkpt lat="46.81537" lon="4.27975">
        <ele>640</ele>
        <time>2018-06-25T09:25:56.121Z</time>
      </trkpt>
      <trkpt lat="46.81472" lon="4.27877">
        <ele>626</ele>
        <time>2018-06-25T09:25:57.121Z</time>
      </trkpt>
      <trkpt lat="46.81397" lon="4.27824">
        <ele>614</ele>
        <time>2018-06-25T09:25:58.121Z</time>
      </trkpt>
      <trkpt lat="46.81384" lon="4.27828">
        <ele>613</ele>
        <time>2018-06-25T09:25:59.121Z</time>
      </trkpt>
      <trkpt lat="46.81326" lon="4.27744">
        <ele>610</ele>
        <time>2018-06-25T09:26:00.121Z</time>
      </trkpt>
      <trkpt lat="46.81298" lon="4.27663">
        <ele>611</ele>
        <time>2018-06-25T09:26:01.121Z</time>
      </trkpt>
      <trkpt lat="46.8129" lon="4.27489">
        <ele>617</ele>
        <time>2018-06-25T09:26:02.121Z</time>
      </trkpt>
      <trkpt lat="46.81263" lon="4.27278">
        <ele>619</ele>
        <time>2018-06-25T09:26:03.121Z</time>
      </trkpt>
      <trkpt lat="46.81171" lon="4.27066">
        <ele>628</ele>
        <time>2018-06-25T09:26:04.121Z</time>
      </trkpt>
      <trkpt lat="46.81159" lon="4.26973">
        <ele>634</ele>
        <time>2018-06-25T09:26:05.121Z</time>
      </trkpt>
      <trkpt lat="46.81111" lon="4.26929">
        <ele>637</ele>
        <time>2018-06-25T09:26:06.121Z</time>
      </trkpt>
      <trkpt lat="46.81026" lon="4.26751">
        <ele>647</ele>
        <time>2018-06-25T09:26:07.121Z</time>
      </trkpt>
      <trkpt lat="46.80971" lon="4.26507">
        <ele>660</ele>
        <time>2018-06-25T09:26:08.121Z</time>
      </trkpt>
      <trkpt lat="46.80862" lon="4.26218">
        <ele>671</ele>
        <time>2018-06-25T09:26:09.121Z</time>
      </trkpt>
      <trkpt lat="46.80808" lon="4.26147">
        <ele>673</ele>
        <time>2018-06-25T09:26:10.121Z</time>
      </trkpt>
      <trkpt lat="46.80742" lon="4.26104">
        <ele>671</ele>
        <time>2018-06-25T09:26:11.121Z</time>
      </trkpt>
      <trkpt lat="46.80716" lon="4.26051">
        <ele>671</ele>
        <time>2018-06-25T09:26:12.121Z</time>
      </trkpt>
      <trkpt lat="46.80638" lon="4.26007">
        <ele>672</ele>
        <time>2018-06-25T09:26:13.121Z</time>
      </trkpt>
      <trkpt lat="46.80669" lon="4.25864">
        <ele>666</ele>
        <time>2018-06-25T09:26:14.121Z</time>
      </trkpt>
      <trkpt lat="46.8064" lon="4.25673">
        <ele>653</ele>
        <time>2018-06-25T09:26:15.121Z</time>
      </trkpt>
      <trkpt lat="46.80611" lon="4.25638">
        <ele>652</ele>
        <time>2018-06-25T09:26:16.121Z</time>
      </trkpt>
      <trkpt lat="46.80568" lon="4.25645">
        <ele>651</ele>
        <time>2018-06-25T09:26:17.121Z</time>
      </trkpt>
      <trkpt lat="46.80561" lon="4.25561">
        <ele>648</ele>
        <time>2018-06-25T09:26:18.121Z</time>
      </trkpt>
      <trkpt lat="46.80479" lon="4.2541">
        <ele>634</ele>
        <time>2018-06-25T09:26:19.121Z</time>
      </trkpt>
      <trkpt lat="46.80461" lon="4.25411">
        <ele>633</ele>
        <time>2018-06-25T09:26:20.121Z</time>
      </trkpt>
      <trkpt lat="46.80427" lon="4.25377">
        <ele>630</ele>
        <time>2018-06-25T09:26:21.121Z</time>
      </trkpt>
      <trkpt lat="46.80409" lon="4.25307">
        <ele>628</ele>
        <time>2018-06-25T09:26:22.121Z</time>
      </trkpt>
      <trkpt lat="46.80409" lon="4.25233">
        <ele>626</ele>
        <time>2018-06-25T09:26:23.121Z</time>
      </trkpt>
      <trkpt lat="46.80268" lon="4.2519">
        <ele>619</ele>
        <time>2018-06-25T09:26:24.121Z</time>
      </trkpt>
      <trkpt lat="46.80194" lon="4.25293">
        <ele>614</ele>
        <time>2018-06-25T09:26:25.121Z</time>
      </trkpt>
      <trkpt lat="46.80079" lon="4.25326">
        <ele>608</ele>
        <time>2018-06-25T09:26:26.121Z</time>
      </trkpt>
      <trkpt lat="46.80059" lon="4.2527">
        <ele>605</ele>
        <time>2018-06-25T09:26:27.121Z</time>
      </trkpt>
      <trkpt lat="46.80053" lon="4.25192">
        <ele>597</ele>
        <time>2018-06-25T09:26:28.121Z</time>
      </trkpt>
      <trkpt lat="46.80026" lon="4.25099">
        <ele>588</ele>
        <time>2018-06-25T09:26:29.121Z</time>
      </trkpt>
      <trkpt lat="46.79943" lon="4.25058">
        <ele>584</ele>
        <time>2018-06-25T09:26:30.121Z</time>
      </trkpt>
      <trkpt lat="46.79667" lon="4.25099">
        <ele>566</ele>
        <time>2018-06-25T09:26:31.121Z</time>
      </trkpt>
      <trkpt lat="46.79621" lon="4.25059">
        <ele>554</ele>
        <time>2018-06-25T09:26:32.121Z</time>
      </trkpt>
      <trkpt lat="46.79517" lon="4.25029">
        <ele>538</ele>
        <time>2018-06-25T09:26:33.121Z</time>
      </trkpt>
      <trkpt lat="46.79473" lon="4.24932">
        <ele>526</ele>
        <time>2018-06-25T09:26:34.121Z</time>
      </trkpt>
      <trkpt lat="46.79474" lon="4.24818">
        <ele>518</ele>
        <time>2018-06-25T09:26:35.121Z</time>
      </trkpt>
      <trkpt lat="46.79506" lon="4.24764">
        <ele>515</ele>
        <time>2018-06-25T09:26:36.121Z</time>
      </trkpt>
      <trkpt lat="46.79512" lon="4.24699">
        <ele>509</ele>
        <time>2018-06-25T09:26:37.121Z</time>
      </trkpt>
      <trkpt lat="46.79548" lon="4.24686">
        <ele>505</ele>
        <time>2018-06-25T09:26:38.121Z</time>
      </trkpt>
      <trkpt lat="46.79571" lon="4.24642">
        <ele>502</ele>
        <time>2018-06-25T09:26:39.121Z</time>
      </trkpt>
      <trkpt lat="46.79553" lon="4.24465">
        <ele>495</ele>
        <time>2018-06-25T09:26:40.121Z</time>
      </trkpt>
      <trkpt lat="46.79524" lon="4.24349">
        <ele>488</ele>
        <time>2018-06-25T09:26:41.121Z</time>
      </trkpt>
      <trkpt lat="46.79552" lon="4.2411">
        <ele>453</ele>
        <time>2018-06-25T09:26:42.121Z</time>
      </trkpt>
      <trkpt lat="46.79582" lon="4.241">
        <ele>453</ele>
        <time>2018-06-25T09:26:43.121Z</time>
      </trkpt>
      <trkpt lat="46.79582" lon="4.24043">
        <ele>443</ele>
        <time>2018-06-25T09:26:44.121Z</time>
      </trkpt>
      <trkpt lat="46.7953" lon="4.23792">
        <ele>408</ele>
        <time>2018-06-25T09:26:45.121Z</time>
      </trkpt>
      <trkpt lat="46.79464" lon="4.23748">
        <ele>401</ele>
        <time>2018-06-25T09:26:46.121Z</time>
      </trkpt>
      <trkpt lat="46.7932" lon="4.23558">
        <ele>393</ele>
        <time>2018-06-25T09:26:47.121Z</time>
      </trkpt>
      <trkpt lat="46.79224" lon="4.23326">
        <ele>383</ele>
        <time>2018-06-25T09:26:48.121Z</time>
      </trkpt>
      <trkpt lat="46.79128" lon="4.23182">
        <ele>374</ele>
        <time>2018-06-25T09:26:49.121Z</time>
      </trkpt>
      <trkpt lat="46.79087" lon="4.23092">
        <ele>369</ele>
        <time>2018-06-25T09:26:50.121Z</time>
      </trkpt>
      <trkpt lat="46.79074" lon="4.22873">
        <ele>359</ele>
        <time>2018-06-25T09:26:51.121Z</time>
      </trkpt>
      <trkpt lat="46.79111" lon="4.22678">
        <ele>348</ele>
        <time>2018-06-25T09:26:52.121Z</time>
      </trkpt>
      <trkpt lat="46.79138" lon="4.22598">
        <ele>343</ele>
        <time>2018-06-25T09:26:53.121Z</time>
      </trkpt>
      <trkpt lat="46.79152" lon="4.22398">
        <ele>344</ele>
        <time>2018-06-25T09:26:54.121Z</time>
      </trkpt>
      <trkpt lat="46.79113" lon="4.22281">
        <ele>338</ele>
        <time>2018-06-25T09:26:55.121Z</time>
      </trkpt>
      <trkpt lat="46.79093" lon="4.22123">
        <ele>335</ele>
        <time>2018-06-25T09:26:56.121Z</time>
      </trkpt>
      <trkpt lat="46.79046" lon="4.22042">
        <ele>328</ele>
        <time>2018-06-25T09:26:57.121Z</time>
      </trkpt>
      <trkpt lat="46.79017" lon="4.22029">
        <ele>324</ele>
        <time>2018-06-25T09:26:58.121Z</time>
      </trkpt>
      <trkpt lat="46.78999" lon="4.21998">
        <ele>321</ele>
        <time>2018-06-25T09:26:59.121Z</time>
      </trkpt>
      <trkpt lat="46.78998" lon="4.21945">
        <ele>320</ele>
        <time>2018-06-25T09:27:00.121Z</time>
      </trkpt>
      <trkpt lat="46.78968" lon="4.21881">
        <ele>318</ele>
        <time>2018-06-25T09:27:01.121Z</time>
      </trkpt>
      <trkpt lat="46.78959" lon="4.21767">
        <ele>316</ele>
        <time>2018-06-25T09:27:02.121Z</time>
      </trkpt>
      <trkpt lat="46.78937" lon="4.21738">
        <ele>316</ele>
        <time>2018-06-25T09:27:03.121Z</time>
      </trkpt>
      <trkpt lat="46.78877" lon="4.21751">
        <ele>318</ele>
        <time>2018-06-25T09:27:04.121Z</time>
      </trkpt>
      <trkpt lat="46.78824" lon="4.21664">
        <ele>328</ele>
        <time>2018-06-25T09:27:05.121Z</time>
      </trkpt>
      <trkpt lat="46.78833" lon="4.21639">
        <ele>327</ele>
        <time>2018-06-25T09:27:06.121Z</time>
      </trkpt>
      <trkpt lat="46.78669" lon="4.21448">
        <ele>340</ele>
        <time>2018-06-25T09:27:07.121Z</time>
      </trkpt>
      <trkpt lat="46.7855" lon="4.21425">
        <ele>349</ele>
        <time>2018-06-25T09:27:08.121Z</time>
      </trkpt>
      <trkpt lat="46.78499" lon="4.21368">
        <ele>353</ele>
        <time>2018-06-25T09:27:09.121Z</time>
      </trkpt>
      <trkpt lat="46.784" lon="4.21294">
        <ele>357</ele>
        <time>2018-06-25T09:27:10.121Z</time>
      </trkpt>
      <trkpt lat="46.78334" lon="4.21288">
        <ele>363</ele>
        <time>2018-06-25T09:27:11.121Z</time>
      </trkpt>
      <trkpt lat="46.78293" lon="4.21201">
        <ele>366</ele>
        <time>2018-06-25T09:27:12.121Z</time>
      </trkpt>
      <trkpt lat="46.7824" lon="4.21161">
        <ele>372</ele>
        <time>2018-06-25T09:27:13.121Z</time>
      </trkpt>
      <trkpt lat="46.78201" lon="4.21096">
        <ele>372</ele>
        <time>2018-06-25T09:27:14.121Z</time>
      </trkpt>
      <trkpt lat="46.78156" lon="4.21051">
        <ele>378</ele>
        <time>2018-06-25T09:27:15.121Z</time>
      </trkpt>
      <trkpt lat="46.78149" lon="4.20973">
        <ele>378</ele>
        <time>2018-06-25T09:27:16.121Z</time>
      </trkpt>
      <trkpt lat="46.78124" lon="4.20952">
        <ele>379</ele>
        <time>2018-06-25T09:27:17.121Z</time>
      </trkpt>
      <trkpt lat="46.77992" lon="4.20943">
        <ele>380</ele>
        <time>2018-06-25T09:27:18.121Z</time>
      </trkpt>
      <trkpt lat="46.77947" lon="4.20989">
        <ele>384</ele>
        <time>2018-06-25T09:27:19.121Z</time>
      </trkpt>
      <trkpt lat="46.77918" lon="4.20986">
        <ele>384</ele>
        <time>2018-06-25T09:27:20.121Z</time>
      </trkpt>
      <trkpt lat="46.77926" lon="4.20925">
        <ele>381</ele>
        <time>2018-06-25T09:27:21.121Z</time>
      </trkpt>
      <trkpt lat="46.77878" lon="4.20966">
        <ele>387</ele>
        <time>2018-06-25T09:27:22.121Z</time>
      </trkpt>
      <trkpt lat="46.7782" lon="4.20839">
        <ele>389</ele>
        <time>2018-06-25T09:27:23.121Z</time>
      </trkpt>
      <trkpt lat="46.77768" lon="4.20846">
        <ele>395</ele>
        <time>2018-06-25T09:27:24.121Z</time>
      </trkpt>
      <trkpt lat="46.77745" lon="4.20816">
        <ele>397</ele>
        <time>2018-06-25T09:27:25.121Z</time>
      </trkpt>
      <trkpt lat="46.77763" lon="4.20745">
        <ele>395</ele>
        <time>2018-06-25T09:27:26.121Z</time>
      </trkpt>
      <trkpt lat="46.77755" lon="4.20722">
        <ele>396</ele>
        <time>2018-06-25T09:27:27.121Z</time>
      </trkpt>
      <trkpt lat="46.7773" lon="4.20722">
        <ele>398</ele>
        <time>2018-06-25T09:27:28.121Z</time>
      </trkpt>
      <trkpt lat="46.77652" lon="4.20597">
        <ele>401</ele>
        <time>2018-06-25T09:27:29.121Z</time>
      </trkpt>
      <trkpt lat="46.7762" lon="4.20481">
        <ele>405</ele>
        <time>2018-06-25T09:27:30.121Z</time>
      </trkpt>
      <trkpt lat="46.77436" lon="4.20176">
        <ele>426</ele>
        <time>2018-06-25T09:27:31.121Z</time>
      </trkpt>
      <trkpt lat="46.77397" lon="4.20165">
        <ele>426</ele>
        <time>2018-06-25T09:27:32.121Z</time>
      </trkpt>
      <trkpt lat="46.77333" lon="4.20051">
        <ele>429</ele>
        <time>2018-06-25T09:27:33.121Z</time>
      </trkpt>
      <trkpt lat="46.77224" lon="4.19467">
        <ele>429</ele>
        <time>2018-06-25T09:27:34.121Z</time>
      </trkpt>
      <trkpt lat="46.77141" lon="4.19435">
        <ele>431</ele>
        <time>2018-06-25T09:27:35.121Z</time>
      </trkpt>
      <trkpt lat="46.77127" lon="4.19541">
        <ele>437</ele>
        <time>2018-06-25T09:27:36.121Z</time>
      </trkpt>
      <trkpt lat="46.77095" lon="4.19588">
        <ele>442</ele>
        <time>2018-06-25T09:27:37.121Z</time>
      </trkpt>
      <trkpt lat="46.77061" lon="4.19564">
        <ele>443</ele>
        <time>2018-06-25T09:27:38.121Z</time>
      </trkpt>
      <trkpt lat="46.76961" lon="4.19539">
        <ele>449</ele>
        <time>2018-06-25T09:27:39.121Z</time>
      </trkpt>
      <trkpt lat="46.76913" lon="4.19487">
        <ele>452</ele>
        <time>2018-06-25T09:27:40.121Z</time>
      </trkpt>
      <trkpt lat="46.7678" lon="4.19233">
        <ele>469</ele>
        <time>2018-06-25T09:27:41.121Z</time>
      </trkpt>
      <trkpt lat="46.76667" lon="4.1915">
        <ele>468</ele>
        <time>2018-06-25T09:27:42.121Z</time>
      </trkpt>
      <trkpt lat="46.76561" lon="4.1904">
        <ele>469</ele>
        <time>2018-06-25T09:27:43.121Z</time>
      </trkpt>
      <trkpt lat="46.76433" lon="4.18792">
        <ele>483</ele>
        <time>2018-06-25T09:27:44.121Z</time>
      </trkpt>
      <trkpt lat="46.7643" lon="4.18721">
        <ele>486</ele>
        <time>2018-06-25T09:27:45.121Z</time>
      </trkpt>
      <trkpt lat="46.76445" lon="4.18664">
        <ele>489</ele>
        <time>2018-06-25T09:27:46.121Z</time>
      </trkpt>
      <trkpt lat="46.7644" lon="4.18603">
        <ele>495</ele>
        <time>2018-06-25T09:27:47.121Z</time>
      </trkpt>
      <trkpt lat="46.76334" lon="4.18463">
        <ele>514</ele>
        <time>2018-06-25T09:27:48.121Z</time>
      </trkpt>
      <trkpt lat="46.76315" lon="4.18341">
        <ele>514</ele>
        <time>2018-06-25T09:27:49.121Z</time>
      </trkpt>
      <trkpt lat="46.7634" lon="4.18261">
        <ele>520</ele>
        <time>2018-06-25T09:27:50.121Z</time>
      </trkpt>
      <trkpt lat="46.76366" lon="4.18225">
        <ele>520</ele>
        <time>2018-06-25T09:27:51.121Z</time>
      </trkpt>
      <trkpt lat="46.76337" lon="4.18137">
        <ele>518</ele>
        <time>2018-06-25T09:27:52.121Z</time>
      </trkpt>
      <trkpt lat="46.76337" lon="4.17953">
        <ele>515</ele>
        <time>2018-06-25T09:27:53.121Z</time>
      </trkpt>
      <trkpt lat="46.76402" lon="4.1792">
        <ele>514</ele>
        <time>2018-06-25T09:27:54.121Z</time>
      </trkpt>
      <trkpt lat="46.76407" lon="4.17845">
        <ele>508</ele>
        <time>2018-06-25T09:27:55.121Z</time>
      </trkpt>
      <trkpt lat="46.76342" lon="4.17791">
        <ele>502</ele>
        <time>2018-06-25T09:27:56.121Z</time>
      </trkpt>
      <trkpt lat="46.76327" lon="4.17718">
        <ele>492</ele>
        <time>2018-06-25T09:27:57.121Z</time>
      </trkpt>
      <trkpt lat="46.76279" lon="4.17665">
        <ele>483</ele>
        <time>2018-06-25T09:27:58.121Z</time>
      </trkpt>
      <trkpt lat="46.76248" lon="4.17665">
        <ele>481</ele>
        <time>2018-06-25T09:27:59.121Z</time>
      </trkpt>
      <trkpt lat="46.76127" lon="4.17736">
        <ele>464</ele>
        <time>2018-06-25T09:28:00.121Z</time>
      </trkpt>
      <trkpt lat="46.7604" lon="4.17699">
        <ele>447</ele>
        <time>2018-06-25T09:28:01.121Z</time>
      </trkpt>
      <trkpt lat="46.76028" lon="4.17597">
        <ele>443</ele>
        <time>2018-06-25T09:28:02.121Z</time>
      </trkpt>
      <trkpt lat="46.75963" lon="4.17591">
        <ele>442</ele>
        <time>2018-06-25T09:28:03.121Z</time>
      </trkpt>
      <trkpt lat="46.75928" lon="4.17564">
        <ele>444</ele>
        <time>2018-06-25T09:28:04.121Z</time>
      </trkpt>
      <trkpt lat="46.75878" lon="4.17591">
        <ele>438</ele>
        <time>2018-06-25T09:28:05.121Z</time>
      </trkpt>
      <trkpt lat="46.75806" lon="4.17595">
        <ele>430</ele>
        <time>2018-06-25T09:28:06.121Z</time>
      </trkpt>
      <trkpt lat="46.75707" lon="4.17638">
        <ele>419</ele>
        <time>2018-06-25T09:28:07.121Z</time>
      </trkpt>
      <trkpt lat="46.75656" lon="4.17644">
        <ele>418</ele>
        <time>2018-06-25T09:28:08.121Z</time>
      </trkpt>
      <trkpt lat="46.75667" lon="4.17486">
        <ele>414</ele>
        <time>2018-06-25T09:28:09.121Z</time>
      </trkpt>
      <trkpt lat="46.75756" lon="4.17344">
        <ele>420</ele>
        <time>2018-06-25T09:28:10.121Z</time>
      </trkpt>
      <trkpt lat="46.75762" lon="4.17243">
        <ele>421</ele>
        <time>2018-06-25T09:28:11.121Z</time>
      </trkpt>
      <trkpt lat="46.7582" lon="4.16998">
        <ele>419</ele>
        <time>2018-06-25T09:28:12.121Z</time>
      </trkpt>
      <trkpt lat="46.75779" lon="4.16885">
        <ele>417</ele>
        <time>2018-06-25T09:28:13.121Z</time>
      </trkpt>
      <trkpt lat="46.75736" lon="4.16866">
        <ele>413</ele>
        <time>2018-06-25T09:28:14.121Z</time>
      </trkpt>
      <trkpt lat="46.75728" lon="4.16665">
        <ele>421</ele>
        <time>2018-06-25T09:28:15.121Z</time>
      </trkpt>
      <trkpt lat="46.7566" lon="4.16579">
        <ele>413</ele>
        <time>2018-06-25T09:28:16.121Z</time>
      </trkpt>
      <trkpt lat="46.75518" lon="4.16452">
        <ele>419</ele>
        <time>2018-06-25T09:28:17.121Z</time>
      </trkpt>
      <trkpt lat="46.75335" lon="4.16454">
        <ele>430</ele>
        <time>2018-06-25T09:28:18.121Z</time>
      </trkpt>
      <trkpt lat="46.7525" lon="4.16485">
        <ele>437</ele>
        <time>2018-06-25T09:28:19.121Z</time>
      </trkpt>
      <trkpt lat="46.75227" lon="4.16511">
        <ele>442</ele>
        <time>2018-06-25T09:28:20.121Z</time>
      </trkpt>
      <trkpt lat="46.75142" lon="4.16506">
        <ele>451</ele>
        <time>2018-06-25T09:28:21.121Z</time>
      </trkpt>
      <trkpt lat="46.75098" lon="4.16488">
        <ele>454</ele>
        <time>2018-06-25T09:28:22.121Z</time>
      </trkpt>
      <trkpt lat="46.75091" lon="4.16465">
        <ele>455</ele>
        <time>2018-06-25T09:28:23.121Z</time>
      </trkpt>
      <trkpt lat="46.75062" lon="4.16444">
        <ele>458</ele>
        <time>2018-06-25T09:28:24.121Z</time>
      </trkpt>
      <trkpt lat="46.75052" lon="4.16404">
        <ele>460</ele>
        <time>2018-06-25T09:28:25.121Z</time>
      </trkpt>
      <trkpt lat="46.75026" lon="4.16389">
        <ele>462</ele>
        <time>2018-06-25T09:28:26.121Z</time>
      </trkpt>
      <trkpt lat="46.74999" lon="4.16344">
        <ele>464</ele>
        <time>2018-06-25T09:28:27.121Z</time>
      </trkpt>
      <trkpt lat="46.74939" lon="4.16334">
        <ele>467</ele>
        <time>2018-06-25T09:28:28.121Z</time>
      </trkpt>
      <trkpt lat="46.74919" lon="4.16314">
        <ele>466</ele>
        <time>2018-06-25T09:28:29.121Z</time>
      </trkpt>
      <trkpt lat="46.74871" lon="4.1633">
        <ele>468</ele>
        <time>2018-06-25T09:28:30.121Z</time>
      </trkpt>
      <trkpt lat="46.74766" lon="4.16278">
        <ele>469</ele>
        <time>2018-06-25T09:28:31.121Z</time>
      </trkpt>
      <trkpt lat="46.74652" lon="4.1616">
        <ele>466</ele>
        <time>2018-06-25T09:28:32.121Z</time>
      </trkpt>
      <trkpt lat="46.74551" lon="4.16003">
        <ele>466</ele>
        <time>2018-06-25T09:28:33.121Z</time>
      </trkpt>
      <trkpt lat="46.74508" lon="4.15892">
        <ele>471</ele>
        <time>2018-06-25T09:28:34.121Z</time>
      </trkpt>
      <trkpt lat="46.74455" lon="4.15831">
        <ele>475</ele>
        <time>2018-06-25T09:28:35.121Z</time>
      </trkpt>
      <trkpt lat="46.74432" lon="4.15834">
        <ele>474</ele>
        <time>2018-06-25T09:28:36.121Z</time>
      </trkpt>
      <trkpt lat="46.74386" lon="4.15778">
        <ele>467</ele>
        <time>2018-06-25T09:28:37.121Z</time>
      </trkpt>
      <trkpt lat="46.74313" lon="4.1574">
        <ele>460</ele>
        <time>2018-06-25T09:28:38.121Z</time>
      </trkpt>
      <trkpt lat="46.7416" lon="4.15708">
        <ele>457</ele>
        <time>2018-06-25T09:28:39.121Z</time>
      </trkpt>
      <trkpt lat="46.74046" lon="4.1565">
        <ele>454</ele>
        <time>2018-06-25T09:28:40.121Z</time>
      </trkpt>
      <trkpt lat="46.73793" lon="4.15591">
        <ele>447</ele>
        <time>2018-06-25T09:28:41.121Z</time>
      </trkpt>
      <trkpt lat="46.73748" lon="4.15563">
        <ele>443</ele>
        <time>2018-06-25T09:28:42.121Z</time>
      </trkpt>
      <trkpt lat="46.73734" lon="4.1541">
        <ele>429</ele>
        <time>2018-06-25T09:28:43.121Z</time>
      </trkpt>
      <trkpt lat="46.73716" lon="4.15366">
        <ele>424</ele>
        <time>2018-06-25T09:28:44.121Z</time>
      </trkpt>
      <trkpt lat="46.73692" lon="4.15358">
        <ele>423</ele>
        <time>2018-06-25T09:28:45.121Z</time>
      </trkpt>
      <trkpt lat="46.73609" lon="4.15417">
        <ele>419</ele>
        <time>2018-06-25T09:28:46.121Z</time>
      </trkpt>
      <trkpt lat="46.73533" lon="4.15449">
        <ele>413</ele>
        <time>2018-06-25T09:28:47.121Z</time>
      </trkpt>
      <trkpt lat="46.73457" lon="4.1552">
        <ele>414</ele>
        <time>2018-06-25T09:28:48.121Z</time>
      </trkpt>
      <trkpt lat="46.73448" lon="4.15579">
        <ele>415</ele>
        <time>2018-06-25T09:28:49.121Z</time>
      </trkpt>
      <trkpt lat="46.73461" lon="4.15628">
        <ele>415</ele>
        <time>2018-06-25T09:28:50.121Z</time>
      </trkpt>
      <trkpt lat="46.73455" lon="4.157">
        <ele>412</ele>
        <time>2018-06-25T09:28:51.121Z</time>
      </trkpt>
      <trkpt lat="46.73419" lon="4.15648">
        <ele>409</ele>
        <time>2018-06-25T09:28:52.121Z</time>
      </trkpt>
      <trkpt lat="46.73316" lon="4.1556">
        <ele>398</ele>
        <time>2018-06-25T09:28:53.121Z</time>
      </trkpt>
      <trkpt lat="46.73273" lon="4.15483">
        <ele>391</ele>
        <time>2018-06-25T09:28:54.121Z</time>
      </trkpt>
      <trkpt lat="46.73326" lon="4.15319">
        <ele>382</ele>
        <time>2018-06-25T09:28:55.121Z</time>
      </trkpt>
      <trkpt lat="46.73448" lon="4.15179">
        <ele>371</ele>
        <time>2018-06-25T09:28:56.121Z</time>
      </trkpt>
      <trkpt lat="46.73537" lon="4.15122">
        <ele>372</ele>
        <time>2018-06-25T09:28:57.121Z</time>
      </trkpt>
      <trkpt lat="46.73551" lon="4.1506">
        <ele>367</ele>
        <time>2018-06-25T09:28:58.121Z</time>
      </trkpt>
      <trkpt lat="46.73539" lon="4.14983">
        <ele>360</ele>
        <time>2018-06-25T09:28:59.121Z</time>
      </trkpt>
      <trkpt lat="46.73542" lon="4.14916">
        <ele>357</ele>
        <time>2018-06-25T09:29:00.121Z</time>
      </trkpt>
      <trkpt lat="46.73611" lon="4.14768">
        <ele>350</ele>
        <time>2018-06-25T09:29:01.121Z</time>
      </trkpt>
      <trkpt lat="46.73533" lon="4.149">
        <ele>354</ele>
        <time>2018-06-25T09:29:02.121Z</time>
      </trkpt>
      <trkpt lat="46.73526" lon="4.14951">
        <ele>356</ele>
        <time>2018-06-25T09:29:03.121Z</time>
      </trkpt>
      <trkpt lat="46.73541" lon="4.15036">
        <ele>364</ele>
        <time>2018-06-25T09:29:04.121Z</time>
      </trkpt>
      <trkpt lat="46.73522" lon="4.15057">
        <ele>362</ele>
        <time>2018-06-25T09:29:05.121Z</time>
      </trkpt>
      <trkpt lat="46.73497" lon="4.15055">
        <ele>358</ele>
        <time>2018-06-25T09:29:06.121Z</time>
      </trkpt>
      <trkpt lat="46.7341" lon="4.15142">
        <ele>362</ele>
        <time>2018-06-25T09:29:07.121Z</time>
      </trkpt>
      <trkpt lat="46.73336" lon="4.15148">
        <ele>358</ele>
        <time>2018-06-25T09:29:08.121Z</time>
      </trkpt>
      <trkpt lat="46.73236" lon="4.15205">
        <ele>361</ele>
        <time>2018-06-25T09:29:09.121Z</time>
      </trkpt>
      <trkpt lat="46.7315" lon="4.15181">
        <ele>356</ele>
        <time>2018-06-25T09:29:10.121Z</time>
      </trkpt>
      <trkpt lat="46.73043" lon="4.15098">
        <ele>357</ele>
        <time>2018-06-25T09:29:11.121Z</time>
      </trkpt>
      <trkpt lat="46.72981" lon="4.15075">
        <ele>356</ele>
        <time>2018-06-25T09:29:12.121Z</time>
      </trkpt>
      <trkpt lat="46.72826" lon="4.14967">
        <ele>355</ele>
        <time>2018-06-25T09:29:13.121Z</time>
      </trkpt>
      <trkpt lat="46.72779" lon="4.14963">
        <ele>355</ele>
        <time>2018-06-25T09:29:14.121Z</time>
      </trkpt>
      <trkpt lat="46.72662" lon="4.15158">
        <ele>341</ele>
        <time>2018-06-25T09:29:15.121Z</time>
      </trkpt>
      <trkpt lat="46.72569" lon="4.15255">
        <ele>333</ele>
        <time>2018-06-25T09:29:16.121Z</time>
      </trkpt>
      <trkpt lat="46.72488" lon="4.15316">
        <ele>329</ele>
        <time>2018-06-25T09:29:17.121Z</time>
      </trkpt>
      <trkpt lat="46.72383" lon="4.15342">
        <ele>323</ele>
        <time>2018-06-25T09:29:18.121Z</time>
      </trkpt>
      <trkpt lat="46.72353" lon="4.15388">
        <ele>316</ele>
        <time>2018-06-25T09:29:19.121Z</time>
      </trkpt>
      <trkpt lat="46.72282" lon="4.15423">
        <ele>310</ele>
        <time>2018-06-25T09:29:20.121Z</time>
      </trkpt>
      <trkpt lat="46.72129" lon="4.15616">
        <ele>300</ele>
        <time>2018-06-25T09:29:21.121Z</time>
      </trkpt>
      <trkpt lat="46.71914" lon="4.15778">
        <ele>292</ele>
        <time>2018-06-25T09:29:22.121Z</time>
      </trkpt>
      <trkpt lat="46.71677" lon="4.15764">
        <ele>288</ele>
        <time>2018-06-25T09:29:23.121Z</time>
      </trkpt>
      <trkpt lat="46.71577" lon="4.15685">
        <ele>289</ele>
        <time>2018-06-25T09:29:24.121Z</time>
      </trkpt>
      <trkpt lat="46.71526" lon="4.15738">
        <ele>286</ele>
        <time>2018-06-25T09:29:25.121Z</time>
      </trkpt>
      <trkpt lat="46.71394" lon="4.15949">
        <ele>282</ele>
        <time>2018-06-25T09:29:26.121Z</time>
      </trkpt>
      <trkpt lat="46.71286" lon="4.16156">
        <ele>292</ele>
        <time>2018-06-25T09:29:27.121Z</time>
      </trkpt>
      <trkpt lat="46.71268" lon="4.16157">
        <ele>293</ele>
        <time>2018-06-25T09:29:28.121Z</time>
      </trkpt>
      <trkpt lat="46.71194" lon="4.16083">
        <ele>298</ele>
        <time>2018-06-25T09:29:29.121Z</time>
      </trkpt>
      <trkpt lat="46.71193" lon="4.16083">
        <ele>298</ele>
        <time>2018-06-25T09:29:30.121Z</time>
      </trkpt>
      <trkpt lat="46.71007" lon="4.15818">
        <ele>295</ele>
        <time>2018-06-25T09:29:31.121Z</time>
      </trkpt>
      <trkpt lat="46.70863" lon="4.15619">
        <ele>287</ele>
        <time>2018-06-25T09:29:32.121Z</time>
      </trkpt>
      <trkpt lat="46.70804" lon="4.15533">
        <ele>283</ele>
        <time>2018-06-25T09:29:33.121Z</time>
      </trkpt>
      <trkpt lat="46.70764" lon="4.15482">
        <ele>281</ele>
        <time>2018-06-25T09:29:34.121Z</time>
      </trkpt>
      <trkpt lat="46.70711" lon="4.15424">
        <ele>281</ele>
        <time>2018-06-25T09:29:35.121Z</time>
      </trkpt>
      <trkpt lat="46.70687" lon="4.15394">
        <ele>281</ele>
        <time>2018-06-25T09:29:36.121Z</time>
      </trkpt>
      <trkpt lat="46.70475" lon="4.15091">
        <ele>280</ele>
        <time>2018-06-25T09:29:37.121Z</time>
      </trkpt>
      <trkpt lat="46.70349" lon="4.14918">
        <ele>280</ele>
        <time>2018-06-25T08:57:16.546Z</time>
      </trkpt>
      <trkpt lat="46.70351" lon="4.14921">
        <ele>280</ele>
        <time>2018-06-25T08:57:17.546Z</time>
      </trkpt>
      <trkpt lat="46.70353" lon="4.14918">
        <ele>280</ele>
        <time>2018-06-25T08:57:18.546Z</time>
      </trkpt>
      <trkpt lat="46.70138" lon="4.14604">
        <ele>276</ele>
        <time>2018-06-25T08:57:19.546Z</time>
      </trkpt>
      <trkpt lat="46.69783" lon="4.14106">
        <ele>262</ele>
        <time>2018-06-25T08:57:20.546Z</time>
      </trkpt>
      <trkpt lat="46.69706" lon="4.14002">
        <ele>259</ele>
        <time>2018-06-25T08:57:21.546Z</time>
      </trkpt>
      <trkpt lat="46.69686" lon="4.13966">
        <ele>257</ele>
        <time>2018-06-25T08:57:22.546Z</time>
      </trkpt>
      <trkpt lat="46.69598" lon="4.1396">
        <ele>254</ele>
        <time>2018-06-25T08:57:23.546Z</time>
      </trkpt>
      <trkpt lat="46.69583" lon="4.13965">
        <ele>253</ele>
        <time>2018-06-25T08:57:24.546Z</time>
      </trkpt>
      <trkpt lat="46.69535" lon="4.13961">
        <ele>253</ele>
        <time>2018-06-25T08:57:25.546Z</time>
      </trkpt>
      <trkpt lat="46.69446" lon="4.13959">
        <ele>256</ele>
        <time>2018-06-25T08:57:26.546Z</time>
      </trkpt>
      <trkpt lat="46.69406" lon="4.13961">
        <ele>259</ele>
        <time>2018-06-25T08:57:27.546Z</time>
      </trkpt>
      <trkpt lat="46.69397" lon="4.13959">
        <ele>259</ele>
        <time>2018-06-25T08:57:28.546Z</time>
      </trkpt>
      <trkpt lat="46.69397" lon="4.13959">
        <ele>259</ele>
        <time>2018-06-25T08:57:29.546Z</time>
      </trkpt>
      <trkpt lat="46.6935" lon="4.13948">
        <ele>263</ele>
        <time>2018-06-25T08:57:30.546Z</time>
      </trkpt>
      <trkpt lat="46.69351" lon="4.13949">
        <ele>262</ele>
        <time>2018-06-25T08:57:31.546Z</time>
      </trkpt>
      <trkpt lat="46.69346" lon="4.13948">
        <ele>263</ele>
        <time>2018-06-25T08:57:32.546Z</time>
      </trkpt>
      <trkpt lat="46.69359" lon="4.13909">
        <ele>262</ele>
        <time>2018-06-25T08:57:33.546Z</time>
      </trkpt>
      <trkpt lat="46.69366" lon="4.13878">
        <ele>262</ele>
        <time>2018-06-25T08:57:34.546Z</time>
      </trkpt>
      <trkpt lat="46.69354" lon="4.13824">
        <ele>262</ele>
        <time>2018-06-25T08:57:35.546Z</time>
      </trkpt>
      <trkpt lat="46.69366" lon="4.13696">
        <ele>257</ele>
        <time>2018-06-25T08:57:36.546Z</time>
      </trkpt>
      <trkpt lat="46.69496" lon="4.13518">
        <ele>251</ele>
        <time>2018-06-25T08:57:37.546Z</time>
      </trkpt>
      <trkpt lat="46.69608" lon="4.13283">
        <ele>252</ele>
        <time>2018-06-25T08:57:38.546Z</time>
      </trkpt>
      <trkpt lat="46.6986" lon="4.1281">
        <ele>251</ele>
        <time>2018-06-25T08:57:39.546Z</time>
      </trkpt>
      <trkpt lat="46.6972" lon="4.12628">
        <ele>255</ele>
        <time>2018-06-25T08:57:40.546Z</time>
      </trkpt>
      <trkpt lat="46.69678" lon="4.12462">
        <ele>260</ele>
        <time>2018-06-25T08:57:41.546Z</time>
      </trkpt>
      <trkpt lat="46.69686" lon="4.12246">
        <ele>275</ele>
        <time>2018-06-25T08:57:42.546Z</time>
      </trkpt>
      <trkpt lat="46.69652" lon="4.12122">
        <ele>282</ele>
        <time>2018-06-25T08:57:43.546Z</time>
      </trkpt>
      <trkpt lat="46.69448" lon="4.11947">
        <ele>298</ele>
        <time>2018-06-25T08:57:44.546Z</time>
      </trkpt>
      <trkpt lat="46.69385" lon="4.11863">
        <ele>300</ele>
        <time>2018-06-25T08:57:45.546Z</time>
      </trkpt>
      <trkpt lat="46.69353" lon="4.11733">
        <ele>308</ele>
        <time>2018-06-25T08:57:46.546Z</time>
      </trkpt>
      <trkpt lat="46.69323" lon="4.1168">
        <ele>310</ele>
        <time>2018-06-25T08:57:47.546Z</time>
      </trkpt>
      <trkpt lat="46.69173" lon="4.11579">
        <ele>298</ele>
        <time>2018-06-25T08:57:48.546Z</time>
      </trkpt>
      <trkpt lat="46.69129" lon="4.11506">
        <ele>294</ele>
        <time>2018-06-25T08:57:49.546Z</time>
      </trkpt>
      <trkpt lat="46.69135" lon="4.11466">
        <ele>293</ele>
        <time>2018-06-25T08:57:50.546Z</time>
      </trkpt>
      <trkpt lat="46.69176" lon="4.11416">
        <ele>292</ele>
        <time>2018-06-25T08:57:51.546Z</time>
      </trkpt>
      <trkpt lat="46.69128" lon="4.11312">
        <ele>294</ele>
        <time>2018-06-25T08:57:52.546Z</time>
      </trkpt>
      <trkpt lat="46.69083" lon="4.11287">
        <ele>297</ele>
        <time>2018-06-25T08:57:53.546Z</time>
      </trkpt>
      <trkpt lat="46.69006" lon="4.11212">
        <ele>304</ele>
        <time>2018-06-25T08:57:54.546Z</time>
      </trkpt>
      <trkpt lat="46.68967" lon="4.11193">
        <ele>307</ele>
        <time>2018-06-25T08:57:55.546Z</time>
      </trkpt>
      <trkpt lat="46.68915" lon="4.11138">
        <ele>315</ele>
        <time>2018-06-25T08:57:56.546Z</time>
      </trkpt>
      <trkpt lat="46.6888" lon="4.11123">
        <ele>321</ele>
        <time>2018-06-25T08:57:57.546Z</time>
      </trkpt>
      <trkpt lat="46.68822" lon="4.11043">
        <ele>329</ele>
        <time>2018-06-25T08:57:58.546Z</time>
      </trkpt>
      <trkpt lat="46.68762" lon="4.10992">
        <ele>331</ele>
        <time>2018-06-25T08:57:59.546Z</time>
      </trkpt>
      <trkpt lat="46.68709" lon="4.10983">
        <ele>332</ele>
        <time>2018-06-25T08:58:00.546Z</time>
      </trkpt>
      <trkpt lat="46.6868" lon="4.10948">
        <ele>330</ele>
        <time>2018-06-25T08:58:01.546Z</time>
      </trkpt>
      <trkpt lat="46.68681" lon="4.10895">
        <ele>326</ele>
        <time>2018-06-25T08:58:02.546Z</time>
      </trkpt>
      <trkpt lat="46.68666" lon="4.10841">
        <ele>323</ele>
        <time>2018-06-25T08:58:03.546Z</time>
      </trkpt>
      <trkpt lat="46.68637" lon="4.10825">
        <ele>323</ele>
        <time>2018-06-25T08:58:04.546Z</time>
      </trkpt>
      <trkpt lat="46.6861" lon="4.10762">
        <ele>318</ele>
        <time>2018-06-25T08:58:05.546Z</time>
      </trkpt>
      <trkpt lat="46.68537" lon="4.10715">
        <ele>314</ele>
        <time>2018-06-25T08:58:06.546Z</time>
      </trkpt>
      <trkpt lat="46.68411" lon="4.10575">
        <ele>303</ele>
        <time>2018-06-25T08:58:07.546Z</time>
      </trkpt>
      <trkpt lat="46.68392" lon="4.10437">
        <ele>301</ele>
        <time>2018-06-25T08:58:08.546Z</time>
      </trkpt>
      <trkpt lat="46.68281" lon="4.1016">
        <ele>288</ele>
        <time>2018-06-25T08:58:09.546Z</time>
      </trkpt>
      <trkpt lat="46.68279" lon="4.10074">
        <ele>280</ele>
        <time>2018-06-25T08:58:10.546Z</time>
      </trkpt>
      <trkpt lat="46.68237" lon="4.09849">
        <ele>264</ele>
        <time>2018-06-25T08:58:11.546Z</time>
      </trkpt>
      <trkpt lat="46.68194" lon="4.09886">
        <ele>268</ele>
        <time>2018-06-25T08:58:12.546Z</time>
      </trkpt>
      <trkpt lat="46.68147" lon="4.09889">
        <ele>268</ele>
        <time>2018-06-25T08:58:13.546Z</time>
      </trkpt>
      <trkpt lat="46.68107" lon="4.10006">
        <ele>285</ele>
        <time>2018-06-25T08:58:14.546Z</time>
      </trkpt>
      <trkpt lat="46.68082" lon="4.10035">
        <ele>292</ele>
        <time>2018-06-25T08:58:15.546Z</time>
      </trkpt>
      <trkpt lat="46.67979" lon="4.10041">
        <ele>300</ele>
        <time>2018-06-25T08:58:16.546Z</time>
      </trkpt>
      <trkpt lat="46.67952" lon="4.10082">
        <ele>303</ele>
        <time>2018-06-25T08:58:17.546Z</time>
      </trkpt>
      <trkpt lat="46.67885" lon="4.10311">
        <ele>298</ele>
        <time>2018-06-25T08:58:18.546Z</time>
      </trkpt>
      <trkpt lat="46.67876" lon="4.10374">
        <ele>295</ele>
        <time>2018-06-25T08:58:19.546Z</time>
      </trkpt>
      <trkpt lat="46.67755" lon="4.10085">
        <ele>273</ele>
        <time>2018-06-25T08:58:20.546Z</time>
      </trkpt>
      <trkpt lat="46.67708" lon="4.09943">
        <ele>265</ele>
        <time>2018-06-25T08:58:21.546Z</time>
      </trkpt>
      <trkpt lat="46.67717" lon="4.09802">
        <ele>259</ele>
        <time>2018-06-25T08:58:22.546Z</time>
      </trkpt>
      <trkpt lat="46.67775" lon="4.09742">
        <ele>258</ele>
        <time>2018-06-25T08:58:23.546Z</time>
      </trkpt>
      <trkpt lat="46.67854" lon="4.09614">
        <ele>265</ele>
        <time>2018-06-25T08:58:24.546Z</time>
      </trkpt>
      <trkpt lat="46.67899" lon="4.09581">
        <ele>268</ele>
        <time>2018-06-25T08:58:25.546Z</time>
      </trkpt>
      <trkpt lat="46.67946" lon="4.09498">
        <ele>273</ele>
        <time>2018-06-25T08:58:26.546Z</time>
      </trkpt>
      <trkpt lat="46.67923" lon="4.09222">
        <ele>283</ele>
        <time>2018-06-25T08:58:27.546Z</time>
      </trkpt>
      <trkpt lat="46.67821" lon="4.09029">
        <ele>289</ele>
        <time>2018-06-25T08:58:28.546Z</time>
      </trkpt>
      <trkpt lat="46.67764" lon="4.08945">
        <ele>293</ele>
        <time>2018-06-25T08:58:29.546Z</time>
      </trkpt>
      <trkpt lat="46.67754" lon="4.08907">
        <ele>293</ele>
        <time>2018-06-25T08:58:30.546Z</time>
      </trkpt>
      <trkpt lat="46.67761" lon="4.08812">
        <ele>295</ele>
        <time>2018-06-25T08:58:31.546Z</time>
      </trkpt>
      <trkpt lat="46.67735" lon="4.08692">
        <ele>298</ele>
        <time>2018-06-25T08:58:32.546Z</time>
      </trkpt>
      <trkpt lat="46.67656" lon="4.08471">
        <ele>304</ele>
        <time>2018-06-25T08:58:33.546Z</time>
      </trkpt>
      <trkpt lat="46.67578" lon="4.08131">
        <ele>321</ele>
        <time>2018-06-25T08:58:34.546Z</time>
      </trkpt>
      <trkpt lat="46.67587" lon="4.07894">
        <ele>324</ele>
        <time>2018-06-25T08:58:35.546Z</time>
      </trkpt>
      <trkpt lat="46.67517" lon="4.07099">
        <ele>321</ele>
        <time>2018-06-25T08:58:36.546Z</time>
      </trkpt>
      <trkpt lat="46.67525" lon="4.0688">
        <ele>319</ele>
        <time>2018-06-25T08:58:37.546Z</time>
      </trkpt>
      <trkpt lat="46.67542" lon="4.0676">
        <ele>321</ele>
        <time>2018-06-25T08:58:38.546Z</time>
      </trkpt>
      <trkpt lat="46.67556" lon="4.0641">
        <ele>326</ele>
        <time>2018-06-25T08:58:39.546Z</time>
      </trkpt>
      <trkpt lat="46.67452" lon="4.06417">
        <ele>326</ele>
        <time>2018-06-25T08:58:40.546Z</time>
      </trkpt>
      <trkpt lat="46.67344" lon="4.06511">
        <ele>319</ele>
        <time>2018-06-25T08:58:41.546Z</time>
      </trkpt>
      <trkpt lat="46.67215" lon="4.06521">
        <ele>309</ele>
        <time>2018-06-25T08:58:42.546Z</time>
      </trkpt>
      <trkpt lat="46.67168" lon="4.0635">
        <ele>305</ele>
        <time>2018-06-25T08:58:43.546Z</time>
      </trkpt>
      <trkpt lat="46.67166" lon="4.06306">
        <ele>305</ele>
        <time>2018-06-25T08:58:44.546Z</time>
      </trkpt>
      <trkpt lat="46.67182" lon="4.06216">
        <ele>305</ele>
        <time>2018-06-25T08:58:45.546Z</time>
      </trkpt>
      <trkpt lat="46.67147" lon="4.06086">
        <ele>305</ele>
        <time>2018-06-25T08:58:46.546Z</time>
      </trkpt>
      <trkpt lat="46.67111" lon="4.06015">
        <ele>308</ele>
        <time>2018-06-25T08:58:47.546Z</time>
      </trkpt>
      <trkpt lat="46.67018" lon="4.05954">
        <ele>315</ele>
        <time>2018-06-25T08:58:48.546Z</time>
      </trkpt>
      <trkpt lat="46.66975" lon="4.05865">
        <ele>322</ele>
        <time>2018-06-25T08:58:49.546Z</time>
      </trkpt>
      <trkpt lat="46.66982" lon="4.05811">
        <ele>326</ele>
        <time>2018-06-25T08:58:50.546Z</time>
      </trkpt>
      <trkpt lat="46.66917" lon="4.0555">
        <ele>338</ele>
        <time>2018-06-25T08:58:51.546Z</time>
      </trkpt>
      <trkpt lat="46.66913" lon="4.05346">
        <ele>330</ele>
        <time>2018-06-25T08:58:52.546Z</time>
      </trkpt>
      <trkpt lat="46.66887" lon="4.05147">
        <ele>328</ele>
        <time>2018-06-25T08:58:53.546Z</time>
      </trkpt>
      <trkpt lat="46.66823" lon="4.0491">
        <ele>325</ele>
        <time>2018-06-25T08:58:54.546Z</time>
      </trkpt>
      <trkpt lat="46.66752" lon="4.04715">
        <ele>313</ele>
        <time>2018-06-25T08:58:55.546Z</time>
      </trkpt>
      <trkpt lat="46.66754" lon="4.04698">
        <ele>311</ele>
        <time>2018-06-25T08:58:56.546Z</time>
      </trkpt>
      <trkpt lat="46.66783" lon="4.0467">
        <ele>308</ele>
        <time>2018-06-25T08:58:57.546Z</time>
      </trkpt>
      <trkpt lat="46.66793" lon="4.04633">
        <ele>308</ele>
        <time>2018-06-25T08:58:58.546Z</time>
      </trkpt>
      <trkpt lat="46.66738" lon="4.04575">
        <ele>307</ele>
        <time>2018-06-25T08:58:59.546Z</time>
      </trkpt>
      <trkpt lat="46.66731" lon="4.04487">
        <ele>311</ele>
        <time>2018-06-25T08:59:00.546Z</time>
      </trkpt>
      <trkpt lat="46.6675" lon="4.04404">
        <ele>315</ele>
        <time>2018-06-25T08:59:01.546Z</time>
      </trkpt>
      <trkpt lat="46.66729" lon="4.04382">
        <ele>317</ele>
        <time>2018-06-25T08:59:02.546Z</time>
      </trkpt>
      <trkpt lat="46.66634" lon="4.04378">
        <ele>320</ele>
        <time>2018-06-25T08:59:03.546Z</time>
      </trkpt>
      <trkpt lat="46.66612" lon="4.04365">
        <ele>320</ele>
        <time>2018-06-25T08:59:04.546Z</time>
      </trkpt>
      <trkpt lat="46.66602" lon="4.04328">
        <ele>322</ele>
        <time>2018-06-25T08:59:05.546Z</time>
      </trkpt>
      <trkpt lat="46.6662" lon="4.04287">
        <ele>326</ele>
        <time>2018-06-25T08:59:06.546Z</time>
      </trkpt>
      <trkpt lat="46.66618" lon="4.04242">
        <ele>328</ele>
        <time>2018-06-25T08:59:07.546Z</time>
      </trkpt>
      <trkpt lat="46.66628" lon="4.0423">
        <ele>330</ele>
        <time>2018-06-25T08:59:08.546Z</time>
      </trkpt>
      <trkpt lat="46.66615" lon="4.03967">
        <ele>340</ele>
        <time>2018-06-25T08:59:09.546Z</time>
      </trkpt>
      <trkpt lat="46.66723" lon="4.03922">
        <ele>347</ele>
        <time>2018-06-25T08:59:10.546Z</time>
      </trkpt>
      <trkpt lat="46.66901" lon="4.03735">
        <ele>349</ele>
        <time>2018-06-25T08:59:11.546Z</time>
      </trkpt>
      <trkpt lat="46.66964" lon="4.0362">
        <ele>352</ele>
        <time>2018-06-25T08:59:12.546Z</time>
      </trkpt>
      <trkpt lat="46.67017" lon="4.03479">
        <ele>356</ele>
        <time>2018-06-25T08:59:13.546Z</time>
      </trkpt>
      <trkpt lat="46.67165" lon="4.03631">
        <ele>365</ele>
        <time>2018-06-25T08:59:14.546Z</time>
      </trkpt>
      <trkpt lat="46.67262" lon="4.03674">
        <ele>378</ele>
        <time>2018-06-25T08:59:15.546Z</time>
      </trkpt>
      <trkpt lat="46.67294" lon="4.03652">
        <ele>384</ele>
        <time>2018-06-25T08:59:16.546Z</time>
      </trkpt>
      <trkpt lat="46.67313" lon="4.03591">
        <ele>388</ele>
        <time>2018-06-25T08:59:17.546Z</time>
      </trkpt>
      <trkpt lat="46.67304" lon="4.0363">
        <ele>386</ele>
        <time>2018-06-25T08:59:18.546Z</time>
      </trkpt>
      <trkpt lat="46.67271" lon="4.03667">
        <ele>380</ele>
        <time>2018-06-25T08:59:19.546Z</time>
      </trkpt>
      <trkpt lat="46.67305" lon="4.03628">
        <ele>386</ele>
        <time>2018-06-25T08:59:20.546Z</time>
      </trkpt>
      <trkpt lat="46.67327" lon="4.03523">
        <ele>392</ele>
        <time>2018-06-25T08:59:21.546Z</time>
      </trkpt>
      <trkpt lat="46.67326" lon="4.03386">
        <ele>396</ele>
        <time>2018-06-25T08:59:22.546Z</time>
      </trkpt>
      <trkpt lat="46.67339" lon="4.0334">
        <ele>398</ele>
        <time>2018-06-25T08:59:23.546Z</time>
      </trkpt>
      <trkpt lat="46.67364" lon="4.03302">
        <ele>406</ele>
        <time>2018-06-25T08:59:24.546Z</time>
      </trkpt>
      <trkpt lat="46.67385" lon="4.03237">
        <ele>412</ele>
        <time>2018-06-25T08:59:25.546Z</time>
      </trkpt>
      <trkpt lat="46.67395" lon="4.03164">
        <ele>419</ele>
        <time>2018-06-25T08:59:26.546Z</time>
      </trkpt>
      <trkpt lat="46.6739" lon="4.03067">
        <ele>425</ele>
        <time>2018-06-25T08:59:27.546Z</time>
      </trkpt>
      <trkpt lat="46.6743" lon="4.02931">
        <ele>430</ele>
        <time>2018-06-25T08:59:28.546Z</time>
      </trkpt>
      <trkpt lat="46.67426" lon="4.02805">
        <ele>425</ele>
        <time>2018-06-25T08:59:29.546Z</time>
      </trkpt>
      <trkpt lat="46.67377" lon="4.02602">
        <ele>409</ele>
        <time>2018-06-25T08:59:30.546Z</time>
      </trkpt>
      <trkpt lat="46.67394" lon="4.02527">
        <ele>407</ele>
        <time>2018-06-25T08:59:31.546Z</time>
      </trkpt>
      <trkpt lat="46.67357" lon="4.02161">
        <ele>413</ele>
        <time>2018-06-25T08:59:32.546Z</time>
      </trkpt>
      <trkpt lat="46.67369" lon="4.02043">
        <ele>418</ele>
        <time>2018-06-25T08:59:33.546Z</time>
      </trkpt>
      <trkpt lat="46.67358" lon="4.0184">
        <ele>411</ele>
        <time>2018-06-25T08:59:34.546Z</time>
      </trkpt>
      <trkpt lat="46.67306" lon="4.01518">
        <ele>401</ele>
        <time>2018-06-25T08:59:35.546Z</time>
      </trkpt>
      <trkpt lat="46.6727" lon="4.01388">
        <ele>398</ele>
        <time>2018-06-25T08:59:36.546Z</time>
      </trkpt>
      <trkpt lat="46.67228" lon="4.01287">
        <ele>397</ele>
        <time>2018-06-25T08:59:37.546Z</time>
      </trkpt>
      <trkpt lat="46.67177" lon="4.01207">
        <ele>396</ele>
        <time>2018-06-25T08:59:38.546Z</time>
      </trkpt>
      <trkpt lat="46.67024" lon="4.01067">
        <ele>393</ele>
        <time>2018-06-25T08:59:39.546Z</time>
      </trkpt>
      <trkpt lat="46.6692" lon="4.00862">
        <ele>389</ele>
        <time>2018-06-25T08:59:40.546Z</time>
      </trkpt>
      <trkpt lat="46.66896" lon="4.00781">
        <ele>390</ele>
        <time>2018-06-25T08:59:41.546Z</time>
      </trkpt>
      <trkpt lat="46.66841" lon="4.00478">
        <ele>400</ele>
        <time>2018-06-25T08:59:42.546Z</time>
      </trkpt>
      <trkpt lat="46.6684" lon="4.00304">
        <ele>406</ele>
        <time>2018-06-25T08:59:43.546Z</time>
      </trkpt>
      <trkpt lat="46.66809" lon="4.00145">
        <ele>397</ele>
        <time>2018-06-25T08:59:44.546Z</time>
      </trkpt>
      <trkpt lat="46.66808" lon="4.00093">
        <ele>396</ele>
        <time>2018-06-25T08:59:45.546Z</time>
      </trkpt>
      <trkpt lat="46.66838" lon="3.99916">
        <ele>404</ele>
        <time>2018-06-25T08:59:46.546Z</time>
      </trkpt>
      <trkpt lat="46.66832" lon="3.99753">
        <ele>404</ele>
        <time>2018-06-25T08:59:47.546Z</time>
      </trkpt>
      <trkpt lat="46.6681" lon="3.99561">
        <ele>407</ele>
        <time>2018-06-25T08:59:48.546Z</time>
      </trkpt>
      <trkpt lat="46.66758" lon="3.99464">
        <ele>408</ele>
        <time>2018-06-25T08:59:49.546Z</time>
      </trkpt>
      <trkpt lat="46.6672" lon="3.99197">
        <ele>418</ele>
        <time>2018-06-25T08:59:50.546Z</time>
      </trkpt>
      <trkpt lat="46.66729" lon="3.99154">
        <ele>421</ele>
        <time>2018-06-25T08:59:51.546Z</time>
      </trkpt>
      <trkpt lat="46.66877" lon="3.98891">
        <ele>411</ele>
        <time>2018-06-25T08:59:52.546Z</time>
      </trkpt>
      <trkpt lat="46.66976" lon="3.98814">
        <ele>411</ele>
        <time>2018-06-25T08:59:53.546Z</time>
      </trkpt>
      <trkpt lat="46.67003" lon="3.98754">
        <ele>410</ele>
        <time>2018-06-25T08:59:54.546Z</time>
      </trkpt>
      <trkpt lat="46.66991" lon="3.98678">
        <ele>410</ele>
        <time>2018-06-25T08:59:55.546Z</time>
      </trkpt>
      <trkpt lat="46.66913" lon="3.98528">
        <ele>410</ele>
        <time>2018-06-25T08:59:56.546Z</time>
      </trkpt>
      <trkpt lat="46.66833" lon="3.98425">
        <ele>406</ele>
        <time>2018-06-25T08:59:57.546Z</time>
      </trkpt>
      <trkpt lat="46.66827" lon="3.98395">
        <ele>406</ele>
        <time>2018-06-25T08:59:58.546Z</time>
      </trkpt>
      <trkpt lat="46.66834" lon="3.98363">
        <ele>405</ele>
        <time>2018-06-25T08:59:59.546Z</time>
      </trkpt>
      <trkpt lat="46.66882" lon="3.98288">
        <ele>402</ele>
        <time>2018-06-25T09:00:00.546Z</time>
      </trkpt>
      <trkpt lat="46.66906" lon="3.98044">
        <ele>394</ele>
        <time>2018-06-25T09:00:01.546Z</time>
      </trkpt>
      <trkpt lat="46.66881" lon="3.9781">
        <ele>387</ele>
        <time>2018-06-25T09:00:02.546Z</time>
      </trkpt>
      <trkpt lat="46.6684" lon="3.97739">
        <ele>383</ele>
        <time>2018-06-25T09:00:03.546Z</time>
      </trkpt>
      <trkpt lat="46.66812" lon="3.97654">
        <ele>376</ele>
        <time>2018-06-25T09:00:04.546Z</time>
      </trkpt>
      <trkpt lat="46.66812" lon="3.97613">
        <ele>374</ele>
        <time>2018-06-25T09:00:05.546Z</time>
      </trkpt>
      <trkpt lat="46.6686" lon="3.97543">
        <ele>372</ele>
        <time>2018-06-25T09:00:06.546Z</time>
      </trkpt>
      <trkpt lat="46.66883" lon="3.97427">
        <ele>367</ele>
        <time>2018-06-25T09:00:07.546Z</time>
      </trkpt>
      <trkpt lat="46.66859" lon="3.97301">
        <ele>362</ele>
        <time>2018-06-25T09:00:08.546Z</time>
      </trkpt>
      <trkpt lat="46.66877" lon="3.97067">
        <ele>354</ele>
        <time>2018-06-25T09:00:09.546Z</time>
      </trkpt>
      <trkpt lat="46.66889" lon="3.97034">
        <ele>353</ele>
        <time>2018-06-25T09:00:10.546Z</time>
      </trkpt>
      <trkpt lat="46.66941" lon="3.96983">
        <ele>349</ele>
        <time>2018-06-25T09:00:11.546Z</time>
      </trkpt>
      <trkpt lat="46.67005" lon="3.96973">
        <ele>345</ele>
        <time>2018-06-25T09:00:12.546Z</time>
      </trkpt>
      <trkpt lat="46.67053" lon="3.96937">
        <ele>342</ele>
        <time>2018-06-25T09:00:13.546Z</time>
      </trkpt>
      <trkpt lat="46.67116" lon="3.9693">
        <ele>340</ele>
        <time>2018-06-25T09:00:14.546Z</time>
      </trkpt>
      <trkpt lat="46.67136" lon="3.96813">
        <ele>338</ele>
        <time>2018-06-25T09:00:15.546Z</time>
      </trkpt>
      <trkpt lat="46.67223" lon="3.9669">
        <ele>337</ele>
        <time>2018-06-25T09:00:16.546Z</time>
      </trkpt>
      <trkpt lat="46.67253" lon="3.96563">
        <ele>337</ele>
        <time>2018-06-25T09:00:17.546Z</time>
      </trkpt>
      <trkpt lat="46.67315" lon="3.9642">
        <ele>340</ele>
        <time>2018-06-25T09:00:18.546Z</time>
      </trkpt>
      <trkpt lat="46.6732" lon="3.9637">
        <ele>342</ele>
        <time>2018-06-25T09:00:19.546Z</time>
      </trkpt>
      <trkpt lat="46.67294" lon="3.96211">
        <ele>349</ele>
        <time>2018-06-25T09:00:20.546Z</time>
      </trkpt>
      <trkpt lat="46.67217" lon="3.96074">
        <ele>355</ele>
        <time>2018-06-25T09:00:21.546Z</time>
      </trkpt>
      <trkpt lat="46.67333" lon="3.95879">
        <ele>358</ele>
        <time>2018-06-25T09:00:22.546Z</time>
      </trkpt>
      <trkpt lat="46.67368" lon="3.95792">
        <ele>358</ele>
        <time>2018-06-25T09:00:23.546Z</time>
      </trkpt>
      <trkpt lat="46.67363" lon="3.95652">
        <ele>358</ele>
        <time>2018-06-25T09:00:24.546Z</time>
      </trkpt>
      <trkpt lat="46.6733" lon="3.95354">
        <ele>359</ele>
        <time>2018-06-25T09:00:25.546Z</time>
      </trkpt>
      <trkpt lat="46.67348" lon="3.95262">
        <ele>357</ele>
        <time>2018-06-25T09:00:26.546Z</time>
      </trkpt>
      <trkpt lat="46.67345" lon="3.95099">
        <ele>347</ele>
        <time>2018-06-25T09:00:27.546Z</time>
      </trkpt>
      <trkpt lat="46.67357" lon="3.94921">
        <ele>337</ele>
        <time>2018-06-25T09:00:28.546Z</time>
      </trkpt>
      <trkpt lat="46.67341" lon="3.94855">
        <ele>333</ele>
        <time>2018-06-25T09:00:29.546Z</time>
      </trkpt>
      <trkpt lat="46.67298" lon="3.94786">
        <ele>334</ele>
        <time>2018-06-25T09:00:30.546Z</time>
      </trkpt>
      <trkpt lat="46.6729" lon="3.947">
        <ele>331</ele>
        <time>2018-06-25T09:00:31.546Z</time>
      </trkpt>
      <trkpt lat="46.67334" lon="3.94657">
        <ele>329</ele>
        <time>2018-06-25T09:00:32.546Z</time>
      </trkpt>
      <trkpt lat="46.67422" lon="3.94602">
        <ele>334</ele>
        <time>2018-06-25T09:00:33.546Z</time>
      </trkpt>
      <trkpt lat="46.67431" lon="3.94515">
        <ele>335</ele>
        <time>2018-06-25T09:00:34.546Z</time>
      </trkpt>
      <trkpt lat="46.67423" lon="3.94365">
        <ele>335</ele>
        <time>2018-06-25T09:00:35.546Z</time>
      </trkpt>
      <trkpt lat="46.67434" lon="3.9432">
        <ele>336</ele>
        <time>2018-06-25T09:00:36.546Z</time>
      </trkpt>
      <trkpt lat="46.6747" lon="3.94261">
        <ele>340</ele>
        <time>2018-06-25T09:00:37.546Z</time>
      </trkpt>
      <trkpt lat="46.67526" lon="3.94094">
        <ele>347</ele>
        <time>2018-06-25T09:00:38.546Z</time>
      </trkpt>
      <trkpt lat="46.67522" lon="3.94018">
        <ele>348</ele>
        <time>2018-06-25T09:00:39.546Z</time>
      </trkpt>
      <trkpt lat="46.67485" lon="3.93921">
        <ele>349</ele>
        <time>2018-06-25T09:00:40.546Z</time>
      </trkpt>
      <trkpt lat="46.67571" lon="3.93702">
        <ele>334</ele>
        <time>2018-06-25T09:00:41.546Z</time>
      </trkpt>
      <trkpt lat="46.67573" lon="3.93548">
        <ele>332</ele>
        <time>2018-06-25T09:00:42.546Z</time>
      </trkpt>
      <trkpt lat="46.67594" lon="3.93434">
        <ele>335</ele>
        <time>2018-06-25T09:00:43.546Z</time>
      </trkpt>
      <trkpt lat="46.67597" lon="3.93199">
        <ele>335</ele>
        <time>2018-06-25T09:00:44.546Z</time>
      </trkpt>
      <trkpt lat="46.67625" lon="3.93031">
        <ele>326</ele>
        <time>2018-06-25T09:00:45.546Z</time>
      </trkpt>
      <trkpt lat="46.67633" lon="3.92903">
        <ele>317</ele>
        <time>2018-06-25T09:00:46.546Z</time>
      </trkpt>
      <trkpt lat="46.67593" lon="3.92383">
        <ele>319</ele>
        <time>2018-06-25T09:00:47.546Z</time>
      </trkpt>
      <trkpt lat="46.67576" lon="3.92269">
        <ele>319</ele>
        <time>2018-06-25T09:00:48.546Z</time>
      </trkpt>
      <trkpt lat="46.67483" lon="3.9211">
        <ele>315</ele>
        <time>2018-06-25T09:00:49.546Z</time>
      </trkpt>
      <trkpt lat="46.67464" lon="3.92037">
        <ele>313</ele>
        <time>2018-06-25T09:00:50.546Z</time>
      </trkpt>
      <trkpt lat="46.67476" lon="3.91867">
        <ele>310</ele>
        <time>2018-06-25T09:00:51.546Z</time>
      </trkpt>
      <trkpt lat="46.67435" lon="3.91659">
        <ele>300</ele>
        <time>2018-06-25T09:00:52.546Z</time>
      </trkpt>
      <trkpt lat="46.67459" lon="3.91571">
        <ele>295</ele>
        <time>2018-06-25T09:00:53.546Z</time>
      </trkpt>
      <trkpt lat="46.67505" lon="3.91492">
        <ele>287</ele>
        <time>2018-06-25T09:00:54.546Z</time>
      </trkpt>
      <trkpt lat="46.67503" lon="3.91412">
        <ele>283</ele>
        <time>2018-06-25T09:00:55.546Z</time>
      </trkpt>
      <trkpt lat="46.67516" lon="3.91359">
        <ele>288</ele>
        <time>2018-06-25T09:00:56.546Z</time>
      </trkpt>
      <trkpt lat="46.67506" lon="3.91329">
        <ele>290</ele>
        <time>2018-06-25T09:00:57.546Z</time>
      </trkpt>
      <trkpt lat="46.6752" lon="3.91261">
        <ele>297</ele>
        <time>2018-06-25T09:00:58.546Z</time>
      </trkpt>
      <trkpt lat="46.67267" lon="3.90999">
        <ele>289</ele>
        <time>2018-06-25T09:00:59.546Z</time>
      </trkpt>
      <trkpt lat="46.67228" lon="3.90937">
        <ele>286</ele>
        <time>2018-06-25T09:01:00.546Z</time>
      </trkpt>
      <trkpt lat="46.6713" lon="3.90723">
        <ele>278</ele>
        <time>2018-06-25T09:01:01.546Z</time>
      </trkpt>
      <trkpt lat="46.67105" lon="3.90644">
        <ele>280</ele>
        <time>2018-06-25T09:01:02.546Z</time>
      </trkpt>
      <trkpt lat="46.67093" lon="3.90531">
        <ele>282</ele>
        <time>2018-06-25T09:01:03.546Z</time>
      </trkpt>
      <trkpt lat="46.67074" lon="3.90498">
        <ele>281</ele>
        <time>2018-06-25T09:01:04.546Z</time>
      </trkpt>
      <trkpt lat="46.67039" lon="3.90484">
        <ele>280</ele>
        <time>2018-06-25T09:01:05.546Z</time>
      </trkpt>
      <trkpt lat="46.66925" lon="3.90515">
        <ele>278</ele>
        <time>2018-06-25T09:01:06.546Z</time>
      </trkpt>
      <trkpt lat="46.66871" lon="3.90477">
        <ele>282</ele>
        <time>2018-06-25T09:01:07.546Z</time>
      </trkpt>
      <trkpt lat="46.66841" lon="3.90432">
        <ele>283</ele>
        <time>2018-06-25T09:01:08.546Z</time>
      </trkpt>
      <trkpt lat="46.66782" lon="3.90392">
        <ele>283</ele>
        <time>2018-06-25T09:01:09.546Z</time>
      </trkpt>
      <trkpt lat="46.66609" lon="3.90368">
        <ele>293</ele>
        <time>2018-06-25T09:01:10.546Z</time>
      </trkpt>
      <trkpt lat="46.66588" lon="3.90339">
        <ele>293</ele>
        <time>2018-06-25T09:01:11.546Z</time>
      </trkpt>
      <trkpt lat="46.66595" lon="3.90287">
        <ele>295</ele>
        <time>2018-06-25T09:01:12.546Z</time>
      </trkpt>
      <trkpt lat="46.66668" lon="3.90221">
        <ele>289</ele>
        <time>2018-06-25T09:01:13.546Z</time>
      </trkpt>
      <trkpt lat="46.6668" lon="3.90166">
        <ele>290</ele>
        <time>2018-06-25T09:01:14.546Z</time>
      </trkpt>
      <trkpt lat="46.66646" lon="3.90051">
        <ele>296</ele>
        <time>2018-06-25T09:01:15.546Z</time>
      </trkpt>
      <trkpt lat="46.66537" lon="3.89888">
        <ele>296</ele>
        <time>2018-06-25T09:01:16.546Z</time>
      </trkpt>
      <trkpt lat="46.66497" lon="3.89881">
        <ele>299</ele>
        <time>2018-06-25T09:01:17.546Z</time>
      </trkpt>
      <trkpt lat="46.66406" lon="3.89961">
        <ele>303</ele>
        <time>2018-06-25T09:01:18.546Z</time>
      </trkpt>
      <trkpt lat="46.66322" lon="3.90074">
        <ele>304</ele>
        <time>2018-06-25T09:01:19.546Z</time>
      </trkpt>
      <trkpt lat="46.66293" lon="3.90092">
        <ele>305</ele>
        <time>2018-06-25T09:01:20.546Z</time>
      </trkpt>
      <trkpt lat="46.66172" lon="3.90076">
        <ele>307</ele>
        <time>2018-06-25T09:01:21.546Z</time>
      </trkpt>
      <trkpt lat="46.66011" lon="3.90167">
        <ele>310</ele>
        <time>2018-06-25T09:01:22.546Z</time>
      </trkpt>
      <trkpt lat="46.65937" lon="3.90169">
        <ele>316</ele>
        <time>2018-06-25T09:01:23.546Z</time>
      </trkpt>
      <trkpt lat="46.65911" lon="3.90136">
        <ele>317</ele>
        <time>2018-06-25T09:01:24.546Z</time>
      </trkpt>
      <trkpt lat="46.65912" lon="3.90113">
        <ele>316</ele>
        <time>2018-06-25T09:01:25.546Z</time>
      </trkpt>
      <trkpt lat="46.65971" lon="3.90028">
        <ele>315</ele>
        <time>2018-06-25T09:01:26.546Z</time>
      </trkpt>
      <trkpt lat="46.65977" lon="3.90001">
        <ele>317</ele>
        <time>2018-06-25T09:01:27.546Z</time>
      </trkpt>
      <trkpt lat="46.65949" lon="3.89876">
        <ele>316</ele>
        <time>2018-06-25T09:01:28.546Z</time>
      </trkpt>
      <trkpt lat="46.65876" lon="3.89708">
        <ele>310</ele>
        <time>2018-06-25T09:01:29.546Z</time>
      </trkpt>
      <trkpt lat="46.65854" lon="3.89689">
        <ele>310</ele>
        <time>2018-06-25T09:01:30.546Z</time>
      </trkpt>
      <trkpt lat="46.65796" lon="3.89689">
        <ele>309</ele>
        <time>2018-06-25T09:01:31.546Z</time>
      </trkpt>
      <trkpt lat="46.65712" lon="3.89632">
        <ele>307</ele>
        <time>2018-06-25T09:01:32.546Z</time>
      </trkpt>
      <trkpt lat="46.657" lon="3.89584">
        <ele>309</ele>
        <time>2018-06-25T09:01:33.546Z</time>
      </trkpt>
      <trkpt lat="46.65752" lon="3.89367">
        <ele>311</ele>
        <time>2018-06-25T09:01:34.546Z</time>
      </trkpt>
      <trkpt lat="46.65735" lon="3.89267">
        <ele>315</ele>
        <time>2018-06-25T09:01:35.546Z</time>
      </trkpt>
      <trkpt lat="46.65736" lon="3.89159">
        <ele>315</ele>
        <time>2018-06-25T09:01:36.546Z</time>
      </trkpt>
      <trkpt lat="46.65708" lon="3.89063">
        <ele>315</ele>
        <time>2018-06-25T09:01:37.546Z</time>
      </trkpt>
      <trkpt lat="46.65565" lon="3.88901">
        <ele>315</ele>
        <time>2018-06-25T09:01:38.546Z</time>
      </trkpt>
      <trkpt lat="46.65536" lon="3.88888">
        <ele>314</ele>
        <time>2018-06-25T09:01:39.546Z</time>
      </trkpt>
      <trkpt lat="46.65414" lon="3.88922">
        <ele>312</ele>
        <time>2018-06-25T09:01:40.546Z</time>
      </trkpt>
      <trkpt lat="46.65375" lon="3.88902">
        <ele>314</ele>
        <time>2018-06-25T09:01:41.546Z</time>
      </trkpt>
      <trkpt lat="46.65325" lon="3.88833">
        <ele>317</ele>
        <time>2018-06-25T09:01:42.546Z</time>
      </trkpt>
      <trkpt lat="46.65254" lon="3.88821">
        <ele>318</ele>
        <time>2018-06-25T09:01:43.546Z</time>
      </trkpt>
      <trkpt lat="46.65211" lon="3.88797">
        <ele>319</ele>
        <time>2018-06-25T09:01:44.546Z</time>
      </trkpt>
      <trkpt lat="46.65181" lon="3.88761">
        <ele>320</ele>
        <time>2018-06-25T09:01:45.546Z</time>
      </trkpt>
      <trkpt lat="46.65163" lon="3.88605">
        <ele>323</ele>
        <time>2018-06-25T09:01:46.546Z</time>
      </trkpt>
      <trkpt lat="46.6513" lon="3.88522">
        <ele>327</ele>
        <time>2018-06-25T09:01:47.546Z</time>
      </trkpt>
      <trkpt lat="46.65107" lon="3.88507">
        <ele>327</ele>
        <time>2018-06-25T09:01:48.546Z</time>
      </trkpt>
      <trkpt lat="46.65084" lon="3.88512">
        <ele>327</ele>
        <time>2018-06-25T09:01:49.546Z</time>
      </trkpt>
      <trkpt lat="46.65001" lon="3.88587">
        <ele>329</ele>
        <time>2018-06-25T09:01:50.546Z</time>
      </trkpt>
      <trkpt lat="46.64996" lon="3.88571">
        <ele>329</ele>
        <time>2018-06-25T09:01:51.546Z</time>
      </trkpt>
      <trkpt lat="46.65017" lon="3.88447">
        <ele>329</ele>
        <time>2018-06-25T09:01:52.546Z</time>
      </trkpt>
      <trkpt lat="46.65037" lon="3.88225">
        <ele>334</ele>
        <time>2018-06-25T09:01:53.546Z</time>
      </trkpt>
      <trkpt lat="46.65028" lon="3.88061">
        <ele>335</ele>
        <time>2018-06-25T09:01:54.546Z</time>
      </trkpt>
      <trkpt lat="46.64993" lon="3.87854">
        <ele>333</ele>
        <time>2018-06-25T09:01:55.546Z</time>
      </trkpt>
      <trkpt lat="46.64982" lon="3.87674">
        <ele>332</ele>
        <time>2018-06-25T09:01:56.546Z</time>
      </trkpt>
      <trkpt lat="46.64993" lon="3.87602">
        <ele>333</ele>
        <time>2018-06-25T09:01:57.546Z</time>
      </trkpt>
      <trkpt lat="46.65105" lon="3.87322">
        <ele>337</ele>
        <time>2018-06-25T09:01:58.546Z</time>
      </trkpt>
      <trkpt lat="46.65072" lon="3.87215">
        <ele>337</ele>
        <time>2018-06-25T09:01:59.546Z</time>
      </trkpt>
      <trkpt lat="46.64978" lon="3.86984">
        <ele>329</ele>
        <time>2018-06-25T09:02:00.546Z</time>
      </trkpt>
      <trkpt lat="46.64918" lon="3.86695">
        <ele>326</ele>
        <time>2018-06-25T09:02:01.546Z</time>
      </trkpt>
      <trkpt lat="46.64924" lon="3.86641">
        <ele>325</ele>
        <time>2018-06-25T09:02:02.546Z</time>
      </trkpt>
      <trkpt lat="46.64959" lon="3.86517">
        <ele>320</ele>
        <time>2018-06-25T09:02:03.546Z</time>
      </trkpt>
      <trkpt lat="46.64958" lon="3.86395">
        <ele>318</ele>
        <time>2018-06-25T09:02:04.546Z</time>
      </trkpt>
      <trkpt lat="46.64982" lon="3.86344">
        <ele>322</ele>
        <time>2018-06-25T09:02:05.546Z</time>
      </trkpt>
      <trkpt lat="46.64937" lon="3.8619">
        <ele>321</ele>
        <time>2018-06-25T09:02:06.546Z</time>
      </trkpt>
      <trkpt lat="46.64853" lon="3.86131">
        <ele>312</ele>
        <time>2018-06-25T09:02:07.546Z</time>
      </trkpt>
      <trkpt lat="46.64843" lon="3.86056">
        <ele>310</ele>
        <time>2018-06-25T09:02:08.546Z</time>
      </trkpt>
      <trkpt lat="46.64852" lon="3.85992">
        <ele>303</ele>
        <time>2018-06-25T09:02:09.546Z</time>
      </trkpt>
      <trkpt lat="46.64957" lon="3.85908">
        <ele>296</ele>
        <time>2018-06-25T09:02:10.546Z</time>
      </trkpt>
      <trkpt lat="46.6499" lon="3.85829">
        <ele>286</ele>
        <time>2018-06-25T09:02:11.546Z</time>
      </trkpt>
      <trkpt lat="46.64992" lon="3.85792">
        <ele>283</ele>
        <time>2018-06-25T09:02:12.546Z</time>
      </trkpt>
      <trkpt lat="46.64981" lon="3.85777">
        <ele>283</ele>
        <time>2018-06-25T09:02:13.546Z</time>
      </trkpt>
      <trkpt lat="46.64986" lon="3.85755">
        <ele>281</ele>
        <time>2018-06-25T09:02:14.546Z</time>
      </trkpt>
      <trkpt lat="46.64954" lon="3.85697">
        <ele>285</ele>
        <time>2018-06-25T09:02:15.546Z</time>
      </trkpt>
      <trkpt lat="46.64931" lon="3.856">
        <ele>292</ele>
        <time>2018-06-25T09:02:16.546Z</time>
      </trkpt>
      <trkpt lat="46.64937" lon="3.85542">
        <ele>296</ele>
        <time>2018-06-25T09:02:17.546Z</time>
      </trkpt>
      <trkpt lat="46.64954" lon="3.85569">
        <ele>294</ele>
        <time>2018-06-25T09:02:18.546Z</time>
      </trkpt>
      <trkpt lat="46.64992" lon="3.85554">
        <ele>295</ele>
        <time>2018-06-25T09:02:19.546Z</time>
      </trkpt>
      <trkpt lat="46.64977" lon="3.85376">
        <ele>310</ele>
        <time>2018-06-25T09:02:20.546Z</time>
      </trkpt>
      <trkpt lat="46.64935" lon="3.85273">
        <ele>318</ele>
        <time>2018-06-25T09:02:21.546Z</time>
      </trkpt>
      <trkpt lat="46.64934" lon="3.85214">
        <ele>324</ele>
        <time>2018-06-25T09:02:22.546Z</time>
      </trkpt>
      <trkpt lat="46.64953" lon="3.85158">
        <ele>331</ele>
        <time>2018-06-25T09:02:23.546Z</time>
      </trkpt>
      <trkpt lat="46.64994" lon="3.85112">
        <ele>340</ele>
        <time>2018-06-25T09:02:24.546Z</time>
      </trkpt>
      <trkpt lat="46.65052" lon="3.8509">
        <ele>340</ele>
        <time>2018-06-25T09:02:25.546Z</time>
      </trkpt>
      <trkpt lat="46.65204" lon="3.84935">
        <ele>348</ele>
        <time>2018-06-25T09:02:26.546Z</time>
      </trkpt>
      <trkpt lat="46.65342" lon="3.84863">
        <ele>340</ele>
        <time>2018-06-25T09:02:27.546Z</time>
      </trkpt>
      <trkpt lat="46.65358" lon="3.84824">
        <ele>343</ele>
        <time>2018-06-25T09:02:28.546Z</time>
      </trkpt>
      <trkpt lat="46.6534" lon="3.84764">
        <ele>351</ele>
        <time>2018-06-25T09:02:29.546Z</time>
      </trkpt>
      <trkpt lat="46.65267" lon="3.84686">
        <ele>363</ele>
        <time>2018-06-25T09:02:30.546Z</time>
      </trkpt>
      <trkpt lat="46.65261" lon="3.84678">
        <ele>364</ele>
        <time>2018-06-25T09:02:31.546Z</time>
      </trkpt>
      <trkpt lat="46.65226" lon="3.8461">
        <ele>369</ele>
        <time>2018-06-25T09:02:32.546Z</time>
      </trkpt>
      <trkpt lat="46.65219" lon="3.84532">
        <ele>373</ele>
        <time>2018-06-25T09:02:33.546Z</time>
      </trkpt>
      <trkpt lat="46.65231" lon="3.84346">
        <ele>383</ele>
        <time>2018-06-25T09:02:34.546Z</time>
      </trkpt>
      <trkpt lat="46.65206" lon="3.84123">
        <ele>391</ele>
        <time>2018-06-25T09:02:35.546Z</time>
      </trkpt>
      <trkpt lat="46.65175" lon="3.84125">
        <ele>394</ele>
        <time>2018-06-25T09:02:36.546Z</time>
      </trkpt>
      <trkpt lat="46.65146" lon="3.84147">
        <ele>398</ele>
        <time>2018-06-25T09:02:37.546Z</time>
      </trkpt>
      <trkpt lat="46.65037" lon="3.8432">
        <ele>411</ele>
        <time>2018-06-25T09:02:38.546Z</time>
      </trkpt>
      <trkpt lat="46.65" lon="3.84355">
        <ele>414</ele>
        <time>2018-06-25T09:02:39.546Z</time>
      </trkpt>
      <trkpt lat="46.64895" lon="3.84594">
        <ele>414</ele>
        <time>2018-06-25T09:02:40.546Z</time>
      </trkpt>
      <trkpt lat="46.64796" lon="3.84635">
        <ele>416</ele>
        <time>2018-06-25T09:02:41.546Z</time>
      </trkpt>
      <trkpt lat="46.64729" lon="3.84681">
        <ele>416</ele>
        <time>2018-06-25T09:02:42.546Z</time>
      </trkpt>
      <trkpt lat="46.6465" lon="3.84764">
        <ele>408</ele>
        <time>2018-06-25T09:02:43.546Z</time>
      </trkpt>
      <trkpt lat="46.6465" lon="3.84765">
        <ele>408</ele>
        <time>2018-06-25T09:02:44.546Z</time>
      </trkpt>
      <trkpt lat="46.64635" lon="3.84788">
        <ele>407</ele>
        <time>2018-06-25T09:02:45.546Z</time>
      </trkpt>
      <trkpt lat="46.64619" lon="3.84807">
        <ele>407</ele>
        <time>2018-06-25T09:02:46.546Z</time>
      </trkpt>
      <trkpt lat="46.64605" lon="3.8483">
        <ele>406</ele>
        <time>2018-06-25T09:02:47.546Z</time>
      </trkpt>
      <trkpt lat="46.64586" lon="3.84872">
        <ele>406</ele>
        <time>2018-06-25T09:02:48.546Z</time>
      </trkpt>
      <trkpt lat="46.64566" lon="3.84907">
        <ele>407</ele>
        <time>2018-06-25T09:02:49.546Z</time>
      </trkpt>
      <trkpt lat="46.64567" lon="3.84907">
        <ele>406</ele>
        <time>2018-06-25T09:02:50.546Z</time>
      </trkpt>
      <trkpt lat="46.64563" lon="3.84923">
        <ele>406</ele>
        <time>2018-06-25T09:02:51.546Z</time>
      </trkpt>
      <trkpt lat="46.6437" lon="3.84868">
        <ele>440</ele>
        <time>2018-06-25T09:02:52.546Z</time>
      </trkpt>
      <trkpt lat="46.64341" lon="3.84832">
        <ele>444</ele>
        <time>2018-06-25T09:02:53.546Z</time>
      </trkpt>
      <trkpt lat="46.64333" lon="3.84716">
        <ele>448</ele>
        <time>2018-06-25T09:02:54.546Z</time>
      </trkpt>
      <trkpt lat="46.64313" lon="3.84633">
        <ele>442</ele>
        <time>2018-06-25T09:02:55.546Z</time>
      </trkpt>
      <trkpt lat="46.64319" lon="3.84475">
        <ele>432</ele>
        <time>2018-06-25T09:02:56.546Z</time>
      </trkpt>
      <trkpt lat="46.64231" lon="3.84248">
        <ele>415</ele>
        <time>2018-06-25T09:02:57.546Z</time>
      </trkpt>
      <trkpt lat="46.64166" lon="3.84183">
        <ele>412</ele>
        <time>2018-06-25T09:02:58.546Z</time>
      </trkpt>
      <trkpt lat="46.64122" lon="3.84097">
        <ele>415</ele>
        <time>2018-06-25T09:02:59.546Z</time>
      </trkpt>
      <trkpt lat="46.64053" lon="3.84011">
        <ele>413</ele>
        <time>2018-06-25T09:03:00.546Z</time>
      </trkpt>
      <trkpt lat="46.63952" lon="3.83809">
        <ele>413</ele>
        <time>2018-06-25T09:03:01.546Z</time>
      </trkpt>
      <trkpt lat="46.63915" lon="3.83598">
        <ele>402</ele>
        <time>2018-06-25T09:03:02.546Z</time>
      </trkpt>
      <trkpt lat="46.63921" lon="3.83553">
        <ele>400</ele>
        <time>2018-06-25T09:03:03.546Z</time>
      </trkpt>
      <trkpt lat="46.63958" lon="3.83488">
        <ele>400</ele>
        <time>2018-06-25T09:03:04.546Z</time>
      </trkpt>
      <trkpt lat="46.63955" lon="3.83498">
        <ele>401</ele>
        <time>2018-06-25T09:03:05.546Z</time>
      </trkpt>
      <trkpt lat="46.63954" lon="3.83472">
        <ele>399</ele>
        <time>2018-06-25T09:03:06.546Z</time>
      </trkpt>
      <trkpt lat="46.63915" lon="3.8338">
        <ele>388</ele>
        <time>2018-06-25T09:03:07.546Z</time>
      </trkpt>
      <trkpt lat="46.63884" lon="3.83104">
        <ele>365</ele>
        <time>2018-06-25T09:03:08.546Z</time>
      </trkpt>
      <trkpt lat="46.63887" lon="3.83015">
        <ele>358</ele>
        <time>2018-06-25T09:03:09.546Z</time>
      </trkpt>
      <trkpt lat="46.63815" lon="3.82819">
        <ele>351</ele>
        <time>2018-06-25T09:03:10.546Z</time>
      </trkpt>
      <trkpt lat="46.63776" lon="3.8255">
        <ele>341</ele>
        <time>2018-06-25T09:03:11.546Z</time>
      </trkpt>
      <trkpt lat="46.63743" lon="3.82143">
        <ele>338</ele>
        <time>2018-06-25T09:03:12.546Z</time>
      </trkpt>
      <trkpt lat="46.63701" lon="3.81972">
        <ele>338</ele>
        <time>2018-06-25T09:03:13.546Z</time>
      </trkpt>
      <trkpt lat="46.6369" lon="3.81872">
        <ele>336</ele>
        <time>2018-06-25T09:03:14.546Z</time>
      </trkpt>
      <trkpt lat="46.63608" lon="3.81498">
        <ele>328</ele>
        <time>2018-06-25T09:03:15.546Z</time>
      </trkpt>
      <trkpt lat="46.63543" lon="3.80991">
        <ele>316</ele>
        <time>2018-06-25T09:03:16.546Z</time>
      </trkpt>
      <trkpt lat="46.63514" lon="3.80539">
        <ele>318</ele>
        <time>2018-06-25T09:03:17.546Z</time>
      </trkpt>
      <trkpt lat="46.63415" lon="3.80264">
        <ele>311</ele>
        <time>2018-06-25T09:03:18.546Z</time>
      </trkpt>
      <trkpt lat="46.63296" lon="3.80005">
        <ele>300</ele>
        <time>2018-06-25T09:03:19.546Z</time>
      </trkpt>
      <trkpt lat="46.63011" lon="3.79494">
        <ele>288</ele>
        <time>2018-06-25T09:03:20.546Z</time>
      </trkpt>
      <trkpt lat="46.62792" lon="3.79017">
        <ele>276</ele>
        <time>2018-06-25T09:03:21.546Z</time>
      </trkpt>
      <trkpt lat="46.62874" lon="3.7886">
        <ele>288</ele>
        <time>2018-06-25T09:03:22.546Z</time>
      </trkpt>
      <trkpt lat="46.62879" lon="3.78804">
        <ele>290</ele>
        <time>2018-06-25T09:03:23.546Z</time>
      </trkpt>
      <trkpt lat="46.62949" lon="3.78704">
        <ele>293</ele>
        <time>2018-06-25T09:03:24.546Z</time>
      </trkpt>
      <trkpt lat="46.62871" lon="3.78543">
        <ele>289</ele>
        <time>2018-06-25T09:03:25.546Z</time>
      </trkpt>
      <trkpt lat="46.6281" lon="3.78286">
        <ele>280</ele>
        <time>2018-06-25T09:03:26.546Z</time>
      </trkpt>
      <trkpt lat="46.62782" lon="3.78067">
        <ele>279</ele>
        <time>2018-06-25T09:03:27.546Z</time>
      </trkpt>
      <trkpt lat="46.62741" lon="3.77928">
        <ele>282</ele>
        <time>2018-06-25T09:03:28.546Z</time>
      </trkpt>
      <trkpt lat="46.62708" lon="3.77756">
        <ele>286</ele>
        <time>2018-06-25T09:03:29.546Z</time>
      </trkpt>
      <trkpt lat="46.62681" lon="3.77697">
        <ele>287</ele>
        <time>2018-06-25T09:03:30.546Z</time>
      </trkpt>
      <trkpt lat="46.62668" lon="3.77619">
        <ele>285</ele>
        <time>2018-06-25T09:03:31.546Z</time>
      </trkpt>
      <trkpt lat="46.62625" lon="3.77529">
        <ele>280</ele>
        <time>2018-06-25T09:03:32.546Z</time>
      </trkpt>
      <trkpt lat="46.62581" lon="3.77396">
        <ele>274</ele>
        <time>2018-06-25T09:03:33.546Z</time>
      </trkpt>
      <trkpt lat="46.62506" lon="3.77374">
        <ele>276</ele>
        <time>2018-06-25T09:03:34.546Z</time>
      </trkpt>
      <trkpt lat="46.62402" lon="3.77365">
        <ele>278</ele>
        <time>2018-06-25T09:03:35.546Z</time>
      </trkpt>
      <trkpt lat="46.62186" lon="3.77305">
        <ele>277</ele>
        <time>2018-06-25T09:03:36.546Z</time>
      </trkpt>
      <trkpt lat="46.62036" lon="3.77213">
        <ele>275</ele>
        <time>2018-06-25T09:03:37.546Z</time>
      </trkpt>
      <trkpt lat="46.62033" lon="3.77209">
        <ele>275</ele>
        <time>2018-06-25T09:03:38.546Z</time>
      </trkpt>
      <trkpt lat="46.6203" lon="3.77215">
        <ele>275</ele>
        <time>2018-06-25T09:03:39.546Z</time>
      </trkpt>
      <trkpt lat="46.61985" lon="3.77224">
        <ele>275</ele>
        <time>2018-06-25T09:03:40.546Z</time>
      </trkpt>
      <trkpt lat="46.61944" lon="3.77234">
        <ele>274</ele>
        <time>2018-06-25T09:03:41.546Z</time>
      </trkpt>
      <trkpt lat="46.61917" lon="3.77245">
        <ele>274</ele>
        <time>2018-06-25T09:03:42.546Z</time>
      </trkpt>
      <trkpt lat="46.61913" lon="3.77248">
        <ele>274</ele>
        <time>2018-06-25T09:03:43.546Z</time>
      </trkpt>
      <trkpt lat="46.61914" lon="3.77248">
        <ele>274</ele>
        <time>2018-06-25T09:03:44.546Z</time>
      </trkpt>
      <trkpt lat="46.61917" lon="3.77244">
        <ele>274</ele>
        <time>2018-06-25T09:03:45.546Z</time>
      </trkpt>
      <trkpt lat="46.6192" lon="3.77215">
        <ele>273</ele>
        <time>2018-06-25T09:03:46.546Z</time>
      </trkpt>
      <trkpt lat="46.61931" lon="3.7716">
        <ele>271</ele>
        <time>2018-06-25T09:03:47.546Z</time>
      </trkpt>
      <trkpt lat="46.61991" lon="3.77013">
        <ele>263</ele>
        <time>2018-06-25T09:03:48.546Z</time>
      </trkpt>
      <trkpt lat="46.62075" lon="3.76883">
        <ele>258</ele>
        <time>2018-06-25T09:03:49.546Z</time>
      </trkpt>
      <trkpt lat="46.62102" lon="3.76858">
        <ele>256</ele>
        <time>2018-06-25T09:03:50.546Z</time>
      </trkpt>
      <trkpt lat="46.6211" lon="3.76832">
        <ele>254</ele>
        <time>2018-06-25T09:03:51.546Z</time>
      </trkpt>
      <trkpt lat="46.62122" lon="3.76809">
        <ele>252</ele>
        <time>2018-06-25T09:03:52.546Z</time>
      </trkpt>
      <trkpt lat="46.62139" lon="3.76703">
        <ele>246</ele>
        <time>2018-06-25T09:03:53.546Z</time>
      </trkpt>
      <trkpt lat="46.62134" lon="3.76663">
        <ele>244</ele>
        <time>2018-06-25T09:03:54.546Z</time>
      </trkpt>
      <trkpt lat="46.62101" lon="3.76621">
        <ele>238</ele>
        <time>2018-06-25T09:03:55.546Z</time>
      </trkpt>
      <trkpt lat="46.62107" lon="3.76588">
        <ele>236</ele>
        <time>2018-06-25T09:03:56.546Z</time>
      </trkpt>
      <trkpt lat="46.621" lon="3.76553">
        <ele>234</ele>
        <time>2018-06-25T09:03:57.546Z</time>
      </trkpt>
      <trkpt lat="46.62049" lon="3.76483">
        <ele>230</ele>
        <time>2018-06-25T09:03:58.546Z</time>
      </trkpt>
      <trkpt lat="46.62092" lon="3.76425">
        <ele>230</ele>
        <time>2018-06-25T09:03:59.546Z</time>
      </trkpt>
      <trkpt lat="46.62089" lon="3.76375">
        <ele>229</ele>
        <time>2018-06-25T09:04:00.546Z</time>
      </trkpt>
      <trkpt lat="46.62118" lon="3.76346">
        <ele>230</ele>
        <time>2018-06-25T09:04:01.546Z</time>
      </trkpt>
      <trkpt lat="46.62144" lon="3.7629">
        <ele>230</ele>
        <time>2018-06-25T09:04:02.546Z</time>
      </trkpt>
      <trkpt lat="46.62155" lon="3.76227">
        <ele>228</ele>
        <time>2018-06-25T09:04:03.546Z</time>
      </trkpt>
      <trkpt lat="46.62197" lon="3.76224">
        <ele>230</ele>
        <time>2018-06-25T09:04:04.546Z</time>
      </trkpt>
      <trkpt lat="46.62239" lon="3.76034">
        <ele>227</ele>
        <time>2018-06-25T09:04:05.546Z</time>
      </trkpt>
      <trkpt lat="46.62263" lon="3.75801">
        <ele>227</ele>
        <time>2018-06-25T09:04:06.546Z</time>
      </trkpt>
      <trkpt lat="46.62284" lon="3.75778">
        <ele>228</ele>
        <time>2018-06-25T09:04:07.546Z</time>
      </trkpt>
      <trkpt lat="46.62276" lon="3.75726">
        <ele>228</ele>
        <time>2018-06-25T09:04:08.546Z</time>
      </trkpt>
      <trkpt lat="46.62288" lon="3.75597">
        <ele>226</ele>
        <time>2018-06-25T09:04:09.546Z</time>
      </trkpt>
      <trkpt lat="46.62267" lon="3.75417">
        <ele>227</ele>
        <time>2018-06-25T09:04:10.546Z</time>
      </trkpt>
      <trkpt lat="46.62212" lon="3.75307">
        <ele>228</ele>
        <time>2018-06-25T09:04:11.546Z</time>
      </trkpt>
      <trkpt lat="46.62185" lon="3.75215">
        <ele>225</ele>
        <time>2018-06-25T09:04:12.546Z</time>
      </trkpt>
      <trkpt lat="46.62155" lon="3.75209">
        <ele>223</ele>
        <time>2018-06-25T09:04:13.546Z</time>
      </trkpt>
      <trkpt lat="46.62151" lon="3.75176">
        <ele>223</ele>
        <time>2018-06-25T09:04:14.546Z</time>
      </trkpt>
      <trkpt lat="46.62231" lon="3.7501">
        <ele>225</ele>
        <time>2018-06-25T09:04:15.546Z</time>
      </trkpt>
      <trkpt lat="46.62287" lon="3.74978">
        <ele>228</ele>
        <time>2018-06-25T09:04:16.546Z</time>
      </trkpt>
      <trkpt lat="46.62611" lon="3.74958">
        <ele>241</ele>
        <time>2018-06-25T09:04:17.546Z</time>
      </trkpt>
      <trkpt lat="46.62775" lon="3.74257">
        <ele>235</ele>
        <time>2018-06-25T09:04:18.546Z</time>
      </trkpt>
      <trkpt lat="46.6276" lon="3.74076">
        <ele>235</ele>
        <time>2018-06-25T09:04:19.546Z</time>
      </trkpt>
      <trkpt lat="46.62657" lon="3.73384">
        <ele>222</ele>
        <time>2018-06-25T09:04:20.546Z</time>
      </trkpt>
      <trkpt lat="46.62662" lon="3.73326">
        <ele>222</ele>
        <time>2018-06-25T09:04:21.546Z</time>
      </trkpt>
      <trkpt lat="46.6268" lon="3.7327">
        <ele>221</ele>
        <time>2018-06-25T09:04:22.546Z</time>
      </trkpt>
      <trkpt lat="46.62726" lon="3.73201">
        <ele>221</ele>
        <time>2018-06-25T09:04:23.546Z</time>
      </trkpt>
      <trkpt lat="46.62712" lon="3.73194">
        <ele>220</ele>
        <time>2018-06-25T09:04:24.546Z</time>
      </trkpt>
      <trkpt lat="46.62791" lon="3.73109">
        <ele>220</ele>
        <time>2018-06-25T09:04:25.546Z</time>
      </trkpt>
      <trkpt lat="46.62999" lon="3.7298">
        <ele>221</ele>
        <time>2018-06-25T09:04:26.546Z</time>
      </trkpt>
      <trkpt lat="46.63126" lon="3.7206">
        <ele>212</ele>
        <time>2018-06-25T09:04:27.546Z</time>
      </trkpt>
      <trkpt lat="46.63132" lon="3.71883">
        <ele>210</ele>
        <time>2018-06-25T09:04:28.546Z</time>
      </trkpt>
      <trkpt lat="46.63123" lon="3.71864">
        <ele>209</ele>
        <time>2018-06-25T09:04:29.546Z</time>
      </trkpt>
      <trkpt lat="46.62899" lon="3.71678">
        <ele>206</ele>
        <time>2018-06-25T09:04:30.546Z</time>
      </trkpt>
      <trkpt lat="46.62885" lon="3.71632">
        <ele>207</ele>
        <time>2018-06-25T09:04:31.546Z</time>
      </trkpt>
      <trkpt lat="46.6288" lon="3.71631">
        <ele>207</ele>
        <time>2018-06-25T09:04:32.546Z</time>
      </trkpt>
      <trkpt lat="46.62881" lon="3.7162">
        <ele>207</ele>
        <time>2018-06-25T09:04:33.546Z</time>
      </trkpt>
      <trkpt lat="46.62897" lon="3.71565">
        <ele>208</ele>
        <time>2018-06-25T09:04:34.546Z</time>
      </trkpt>
      <trkpt lat="46.62918" lon="3.715">
        <ele>208</ele>
        <time>2018-06-25T09:04:35.546Z</time>
      </trkpt>
      <trkpt lat="46.62922" lon="3.71477">
        <ele>208</ele>
        <time>2018-06-25T09:04:36.546Z</time>
      </trkpt>
      <trkpt lat="46.62922" lon="3.71477">
        <ele>208</ele>
        <time>2018-06-25T09:04:37.546Z</time>
      </trkpt>
      <trkpt lat="46.62925" lon="3.71457">
        <ele>207</ele>
        <time>2018-06-25T09:04:38.546Z</time>
      </trkpt>
      <trkpt lat="46.62974" lon="3.7016">
        <ele>206</ele>
        <time>2018-06-25T09:04:39.546Z</time>
      </trkpt>
      <trkpt lat="46.62997" lon="3.69417">
        <ele>205</ele>
        <time>2018-06-25T09:04:40.546Z</time>
      </trkpt>
      <trkpt lat="46.63059" lon="3.69387">
        <ele>205</ele>
        <time>2018-06-25T09:04:41.546Z</time>
      </trkpt>
      <trkpt lat="46.63215" lon="3.69412">
        <ele>204</ele>
        <time>2018-06-25T09:04:42.546Z</time>
      </trkpt>
      <trkpt lat="46.63813" lon="3.69424">
        <ele>203</ele>
        <time>2018-06-25T09:04:43.546Z</time>
      </trkpt>
      <trkpt lat="46.63871" lon="3.69398">
        <ele>203</ele>
        <time>2018-06-25T09:04:44.546Z</time>
      </trkpt>
      <trkpt lat="46.63971" lon="3.69247">
        <ele>204</ele>
        <time>2018-06-25T09:04:45.546Z</time>
      </trkpt>
      <trkpt lat="46.64028" lon="3.69183">
        <ele>204</ele>
        <time>2018-06-25T09:04:46.546Z</time>
      </trkpt>
      <trkpt lat="46.64098" lon="3.69139">
        <ele>205</ele>
        <time>2018-06-25T09:04:47.546Z</time>
      </trkpt>
      <trkpt lat="46.64174" lon="3.69132">
        <ele>204</ele>
        <time>2018-06-25T09:04:48.546Z</time>
      </trkpt>
      <trkpt lat="46.64236" lon="3.69151">
        <ele>203</ele>
        <time>2018-06-25T09:04:49.546Z</time>
      </trkpt>
      <trkpt lat="46.64327" lon="3.6921">
        <ele>203</ele>
        <time>2018-06-25T09:04:50.546Z</time>
      </trkpt>
      <trkpt lat="46.64376" lon="3.69209">
        <ele>203</ele>
        <time>2018-06-25T09:04:51.546Z</time>
      </trkpt>
      <trkpt lat="46.64424" lon="3.69179">
        <ele>204</ele>
        <time>2018-06-25T09:04:52.546Z</time>
      </trkpt>
      <trkpt lat="46.64505" lon="3.69096">
        <ele>205</ele>
        <time>2018-06-25T09:04:53.546Z</time>
      </trkpt>
      <trkpt lat="46.64629" lon="3.69039">
        <ele>204</ele>
        <time>2018-06-25T09:04:54.546Z</time>
      </trkpt>
      <trkpt lat="46.64728" lon="3.69026">
        <ele>204</ele>
        <time>2018-06-25T09:04:55.546Z</time>
      </trkpt>
      <trkpt lat="46.64914" lon="3.68875">
        <ele>203</ele>
        <time>2018-06-25T09:04:56.546Z</time>
      </trkpt>
      <trkpt lat="46.64991" lon="3.68772">
        <ele>203</ele>
        <time>2018-06-25T09:04:57.546Z</time>
      </trkpt>
      <trkpt lat="46.65037" lon="3.68755">
        <ele>203</ele>
        <time>2018-06-25T09:04:58.546Z</time>
      </trkpt>
      <trkpt lat="46.65051" lon="3.68737">
        <ele>203</ele>
        <time>2018-06-25T09:04:59.546Z</time>
      </trkpt>
      <trkpt lat="46.6503" lon="3.68612">
        <ele>204</ele>
        <time>2018-06-25T09:05:00.546Z</time>
      </trkpt>
      <trkpt lat="46.65031" lon="3.68512">
        <ele>204</ele>
        <time>2018-06-25T09:05:01.546Z</time>
      </trkpt>
      <trkpt lat="46.65042" lon="3.68452">
        <ele>203</ele>
        <time>2018-06-25T09:05:02.546Z</time>
      </trkpt>
      <trkpt lat="46.6503" lon="3.68379">
        <ele>203</ele>
        <time>2018-06-25T09:05:03.546Z</time>
      </trkpt>
      <trkpt lat="46.64996" lon="3.68309">
        <ele>203</ele>
        <time>2018-06-25T09:05:04.546Z</time>
      </trkpt>
      <trkpt lat="46.64932" lon="3.6832">
        <ele>203</ele>
        <time>2018-06-25T09:05:05.546Z</time>
      </trkpt>
      <trkpt lat="46.64879" lon="3.68298">
        <ele>204</ele>
        <time>2018-06-25T09:05:06.546Z</time>
      </trkpt>
      <trkpt lat="46.64871" lon="3.68278">
        <ele>204</ele>
        <time>2018-06-25T09:05:07.546Z</time>
      </trkpt>
      <trkpt lat="46.64866" lon="3.6813">
        <ele>203</ele>
        <time>2018-06-25T09:05:08.546Z</time>
      </trkpt>
      <trkpt lat="46.64875" lon="3.6807">
        <ele>203</ele>
        <time>2018-06-25T09:05:09.546Z</time>
      </trkpt>
      <trkpt lat="46.64866" lon="3.68044">
        <ele>203</ele>
        <time>2018-06-25T09:05:10.546Z</time>
      </trkpt>
      <trkpt lat="46.6482" lon="3.6801">
        <ele>203</ele>
        <time>2018-06-25T09:05:11.546Z</time>
      </trkpt>
      <trkpt lat="46.64765" lon="3.67909">
        <ele>203</ele>
        <time>2018-06-25T09:05:12.546Z</time>
      </trkpt>
      <trkpt lat="46.64788" lon="3.67831">
        <ele>204</ele>
        <time>2018-06-25T09:05:13.546Z</time>
      </trkpt>
      <trkpt lat="46.6478" lon="3.67654">
        <ele>204</ele>
        <time>2018-06-25T09:05:14.546Z</time>
      </trkpt>
      <trkpt lat="46.64738" lon="3.67315">
        <ele>204</ele>
        <time>2018-06-25T09:05:15.546Z</time>
      </trkpt>
      <trkpt lat="46.64739" lon="3.67184">
        <ele>203</ele>
        <time>2018-06-25T09:05:16.546Z</time>
      </trkpt>
      <trkpt lat="46.64561" lon="3.66785">
        <ele>204</ele>
        <time>2018-06-25T09:05:17.546Z</time>
      </trkpt>
      <trkpt lat="46.64547" lon="3.66554">
        <ele>205</ele>
        <time>2018-06-25T09:05:18.546Z</time>
      </trkpt>
      <trkpt lat="46.64559" lon="3.66428">
        <ele>203</ele>
        <time>2018-06-25T09:05:19.546Z</time>
      </trkpt>
      <trkpt lat="46.6452" lon="3.65796">
        <ele>202</ele>
        <time>2018-06-25T09:05:20.546Z</time>
      </trkpt>
      <trkpt lat="46.64574" lon="3.65615">
        <ele>203</ele>
        <time>2018-06-25T09:05:21.546Z</time>
      </trkpt>
      <trkpt lat="46.64636" lon="3.65321">
        <ele>202</ele>
        <time>2018-06-25T09:05:22.546Z</time>
      </trkpt>
      <trkpt lat="46.64651" lon="3.65172">
        <ele>204</ele>
        <time>2018-06-25T09:05:23.546Z</time>
      </trkpt>
      <trkpt lat="46.64621" lon="3.65084">
        <ele>205</ele>
        <time>2018-06-25T09:05:24.546Z</time>
      </trkpt>
      <trkpt lat="46.64586" lon="3.65031">
        <ele>206</ele>
        <time>2018-06-25T09:05:25.546Z</time>
      </trkpt>
      <trkpt lat="46.64726" lon="3.64921">
        <ele>207</ele>
        <time>2018-06-25T09:05:26.546Z</time>
      </trkpt>
      <trkpt lat="46.6469" lon="3.64802">
        <ele>209</ele>
        <time>2018-06-25T09:05:27.546Z</time>
      </trkpt>
      <trkpt lat="46.64605" lon="3.64742">
        <ele>210</ele>
        <time>2018-06-25T09:05:28.546Z</time>
      </trkpt>
      <trkpt lat="46.64556" lon="3.6459">
        <ele>220</ele>
        <time>2018-06-25T09:05:29.546Z</time>
      </trkpt>
      <trkpt lat="46.64554" lon="3.64551">
        <ele>222</ele>
        <time>2018-06-25T09:05:30.546Z</time>
      </trkpt>
      <trkpt lat="46.64736" lon="3.63813">
        <ele>228</ele>
        <time>2018-06-25T09:05:31.546Z</time>
      </trkpt>
      <trkpt lat="46.64826" lon="3.63379">
        <ele>231</ele>
        <time>2018-06-25T09:05:32.546Z</time>
      </trkpt>
      <trkpt lat="46.64869" lon="3.63261">
        <ele>229</ele>
        <time>2018-06-25T09:05:33.546Z</time>
      </trkpt>
      <trkpt lat="46.64947" lon="3.63125">
        <ele>227</ele>
        <time>2018-06-25T09:05:34.546Z</time>
      </trkpt>
      <trkpt lat="46.65061" lon="3.62868">
        <ele>228</ele>
        <time>2018-06-25T09:05:35.546Z</time>
      </trkpt>
      <trkpt lat="46.651" lon="3.62699">
        <ele>228</ele>
        <time>2018-06-25T09:05:36.546Z</time>
      </trkpt>
      <trkpt lat="46.65137" lon="3.62405">
        <ele>227</ele>
        <time>2018-06-25T09:05:37.546Z</time>
      </trkpt>
      <trkpt lat="46.65191" lon="3.62081">
        <ele>228</ele>
        <time>2018-06-25T09:05:38.546Z</time>
      </trkpt>
      <trkpt lat="46.6521" lon="3.62095">
        <ele>228</ele>
        <time>2018-06-25T09:05:39.546Z</time>
      </trkpt>
      <trkpt lat="46.65252" lon="3.62064">
        <ele>229</ele>
        <time>2018-06-25T09:05:40.546Z</time>
      </trkpt>
      <trkpt lat="46.65319" lon="3.6198">
        <ele>229</ele>
        <time>2018-06-25T09:05:41.546Z</time>
      </trkpt>
      <trkpt lat="46.65582" lon="3.61754">
        <ele>224</ele>
        <time>2018-06-25T09:05:42.546Z</time>
      </trkpt>
      <trkpt lat="46.65561" lon="3.61595">
        <ele>226</ele>
        <time>2018-06-25T09:05:43.546Z</time>
      </trkpt>
      <trkpt lat="46.65473" lon="3.61308">
        <ele>228</ele>
        <time>2018-06-25T09:05:44.546Z</time>
      </trkpt>
      <trkpt lat="46.65478" lon="3.61275">
        <ele>228</ele>
        <time>2018-06-25T09:05:45.546Z</time>
      </trkpt>
      <trkpt lat="46.65581" lon="3.61206">
        <ele>229</ele>
        <time>2018-06-25T09:05:46.546Z</time>
      </trkpt>
      <trkpt lat="46.65582" lon="3.61136">
        <ele>226</ele>
        <time>2018-06-25T09:05:47.546Z</time>
      </trkpt>
      <trkpt lat="46.65942" lon="3.60925">
        <ele>218</ele>
        <time>2018-06-25T09:05:48.546Z</time>
      </trkpt>
      <trkpt lat="46.65982" lon="3.60873">
        <ele>222</ele>
        <time>2018-06-25T09:05:49.546Z</time>
      </trkpt>
      <trkpt lat="46.66231" lon="3.60097">
        <ele>227</ele>
        <time>2018-06-25T09:05:50.546Z</time>
      </trkpt>
      <trkpt lat="46.66602" lon="3.59347">
        <ele>226</ele>
        <time>2018-06-25T09:05:51.546Z</time>
      </trkpt>
      <trkpt lat="46.66679" lon="3.59148">
        <ele>231</ele>
        <time>2018-06-25T09:05:52.546Z</time>
      </trkpt>
      <trkpt lat="46.66806" lon="3.5847">
        <ele>229</ele>
        <time>2018-06-25T09:05:53.546Z</time>
      </trkpt>
      <trkpt lat="46.67009" lon="3.5696">
        <ele>241</ele>
        <time>2018-06-25T09:05:54.546Z</time>
      </trkpt>
      <trkpt lat="46.66999" lon="3.56727">
        <ele>241</ele>
        <time>2018-06-25T09:05:55.546Z</time>
      </trkpt>
      <trkpt lat="46.66888" lon="3.56056">
        <ele>233</ele>
        <time>2018-06-25T09:05:56.546Z</time>
      </trkpt>
      <trkpt lat="46.66729" lon="3.55832">
        <ele>229</ele>
        <time>2018-06-25T09:05:57.546Z</time>
      </trkpt>
      <trkpt lat="46.66714" lon="3.55828">
        <ele>229</ele>
        <time>2018-06-25T09:05:58.546Z</time>
      </trkpt>
      <trkpt lat="46.66562" lon="3.55906">
        <ele>228</ele>
        <time>2018-06-25T09:05:59.546Z</time>
      </trkpt>
      <trkpt lat="46.66543" lon="3.55894">
        <ele>229</ele>
        <time>2018-06-25T09:06:00.546Z</time>
      </trkpt>
      <trkpt lat="46.66444" lon="3.55734">
        <ele>227</ele>
        <time>2018-06-25T09:06:01.546Z</time>
      </trkpt>
      <trkpt lat="46.66289" lon="3.55548">
        <ele>224</ele>
        <time>2018-06-25T09:06:02.546Z</time>
      </trkpt>
      <trkpt lat="46.66213" lon="3.55364">
        <ele>222</ele>
        <time>2018-06-25T09:06:03.546Z</time>
      </trkpt>
      <trkpt lat="46.66203" lon="3.55289">
        <ele>220</ele>
        <time>2018-06-25T09:06:04.546Z</time>
      </trkpt>
      <trkpt lat="46.66234" lon="3.55142">
        <ele>217</ele>
        <time>2018-06-25T09:06:05.546Z</time>
      </trkpt>
      <trkpt lat="46.66263" lon="3.55104">
        <ele>216</ele>
        <time>2018-06-25T09:06:06.546Z</time>
      </trkpt>
      <trkpt lat="46.6645" lon="3.54981">
        <ele>215</ele>
        <time>2018-06-25T09:06:07.546Z</time>
      </trkpt>
      <trkpt lat="46.66527" lon="3.54948">
        <ele>216</ele>
        <time>2018-06-25T09:06:08.546Z</time>
      </trkpt>
      <trkpt lat="46.66634" lon="3.54849">
        <ele>219</ele>
        <time>2018-06-25T09:06:09.546Z</time>
      </trkpt>
      <trkpt lat="46.66706" lon="3.54747">
        <ele>222</ele>
        <time>2018-06-25T09:06:10.546Z</time>
      </trkpt>
      <trkpt lat="46.66701" lon="3.54737">
        <ele>221</ele>
        <time>2018-06-25T09:06:11.546Z</time>
      </trkpt>
      <trkpt lat="46.66576" lon="3.54749">
        <ele>219</ele>
        <time>2018-06-25T09:06:12.546Z</time>
      </trkpt>
      <trkpt lat="46.66315" lon="3.54502">
        <ele>211</ele>
        <time>2018-06-25T09:06:13.546Z</time>
      </trkpt>
      <trkpt lat="46.6611" lon="3.5423">
        <ele>216</ele>
        <time>2018-06-25T09:06:14.546Z</time>
      </trkpt>
      <trkpt lat="46.66248" lon="3.54045">
        <ele>215</ele>
        <time>2018-06-25T09:06:15.546Z</time>
      </trkpt>
      <trkpt lat="46.66322" lon="3.53998">
        <ele>216</ele>
        <time>2018-06-25T09:06:16.546Z</time>
      </trkpt>
      <trkpt lat="46.66379" lon="3.5393">
        <ele>216</ele>
        <time>2018-06-25T09:06:17.546Z</time>
      </trkpt>
      <trkpt lat="46.66452" lon="3.53874">
        <ele>216</ele>
        <time>2018-06-25T09:06:18.546Z</time>
      </trkpt>
      <trkpt lat="46.66719" lon="3.53732">
        <ele>217</ele>
        <time>2018-06-25T09:06:19.546Z</time>
      </trkpt>
      <trkpt lat="46.66764" lon="3.53695">
        <ele>216</ele>
        <time>2018-06-25T09:06:20.546Z</time>
      </trkpt>
      <trkpt lat="46.66887" lon="3.53484">
        <ele>215</ele>
        <time>2018-06-25T09:06:21.546Z</time>
      </trkpt>
      <trkpt lat="46.67044" lon="3.53322">
        <ele>220</ele>
        <time>2018-06-25T09:06:22.546Z</time>
      </trkpt>
      <trkpt lat="46.6704" lon="3.53263">
        <ele>222</ele>
        <time>2018-06-25T09:06:23.546Z</time>
      </trkpt>
      <trkpt lat="46.67058" lon="3.53183">
        <ele>224</ele>
        <time>2018-06-25T09:06:24.546Z</time>
      </trkpt>
      <trkpt lat="46.67055" lon="3.5295">
        <ele>225</ele>
        <time>2018-06-25T09:06:25.546Z</time>
      </trkpt>
      <trkpt lat="46.66491" lon="3.51802">
        <ele>236</ele>
        <time>2018-06-25T09:06:26.546Z</time>
      </trkpt>
      <trkpt lat="46.66281" lon="3.51499">
        <ele>235</ele>
        <time>2018-06-25T09:06:27.546Z</time>
      </trkpt>
      <trkpt lat="46.66177" lon="3.51415">
        <ele>236</ele>
        <time>2018-06-25T09:06:28.546Z</time>
      </trkpt>
      <trkpt lat="46.66289" lon="3.51239">
        <ele>234</ele>
        <time>2018-06-25T09:06:29.546Z</time>
      </trkpt>
      <trkpt lat="46.6643" lon="3.51169">
        <ele>231</ele>
        <time>2018-06-25T09:06:30.546Z</time>
      </trkpt>
      <trkpt lat="46.66491" lon="3.50787">
        <ele>223</ele>
        <time>2018-06-25T09:06:31.546Z</time>
      </trkpt>
      <trkpt lat="46.66438" lon="3.50661">
        <ele>225</ele>
        <time>2018-06-25T09:06:32.546Z</time>
      </trkpt>
      <trkpt lat="46.66384" lon="3.50589">
        <ele>228</ele>
        <time>2018-06-25T09:06:33.546Z</time>
      </trkpt>
      <trkpt lat="46.66322" lon="3.50446">
        <ele>234</ele>
        <time>2018-06-25T09:06:34.546Z</time>
      </trkpt>
      <trkpt lat="46.66287" lon="3.50074">
        <ele>239</ele>
        <time>2018-06-25T09:06:35.546Z</time>
      </trkpt>
      <trkpt lat="46.66265" lon="3.49496">
        <ele>244</ele>
        <time>2018-06-25T09:06:36.546Z</time>
      </trkpt>
      <trkpt lat="46.66251" lon="3.49396">
        <ele>240</ele>
        <time>2018-06-25T09:06:37.546Z</time>
      </trkpt>
      <trkpt lat="46.66185" lon="3.49162">
        <ele>241</ele>
        <time>2018-06-25T09:06:38.546Z</time>
      </trkpt>
      <trkpt lat="46.66137" lon="3.48929">
        <ele>239</ele>
        <time>2018-06-25T09:06:39.546Z</time>
      </trkpt>
      <trkpt lat="46.66124" lon="3.48809">
        <ele>235</ele>
        <time>2018-06-25T09:06:40.546Z</time>
      </trkpt>
      <trkpt lat="46.66028" lon="3.48263">
        <ele>226</ele>
        <time>2018-06-25T09:06:41.546Z</time>
      </trkpt>
      <trkpt lat="46.66039" lon="3.48017">
        <ele>222</ele>
        <time>2018-06-25T09:06:42.546Z</time>
      </trkpt>
      <trkpt lat="46.66116" lon="3.47983">
        <ele>221</ele>
        <time>2018-06-25T09:06:43.546Z</time>
      </trkpt>
      <trkpt lat="46.66132" lon="3.47962">
        <ele>221</ele>
        <time>2018-06-25T09:06:44.546Z</time>
      </trkpt>
      <trkpt lat="46.66137" lon="3.4793">
        <ele>220</ele>
        <time>2018-06-25T09:06:45.546Z</time>
      </trkpt>
      <trkpt lat="46.66119" lon="3.47835">
        <ele>217</ele>
        <time>2018-06-25T09:06:46.546Z</time>
      </trkpt>
      <trkpt lat="46.66071" lon="3.47735">
        <ele>216</ele>
        <time>2018-06-25T09:06:47.546Z</time>
      </trkpt>
      <trkpt lat="46.66054" lon="3.4758">
        <ele>219</ele>
        <time>2018-06-25T09:06:48.546Z</time>
      </trkpt>
      <trkpt lat="46.66009" lon="3.47404">
        <ele>218</ele>
        <time>2018-06-25T09:06:49.546Z</time>
      </trkpt>
      <trkpt lat="46.65882" lon="3.47437">
        <ele>223</ele>
        <time>2018-06-25T09:06:50.546Z</time>
      </trkpt>
      <trkpt lat="46.64879" lon="3.47005">
        <ele>222</ele>
        <time>2018-06-25T09:06:51.546Z</time>
      </trkpt>
      <trkpt lat="46.64858" lon="3.46967">
        <ele>224</ele>
        <time>2018-06-25T09:06:52.546Z</time>
      </trkpt>
      <trkpt lat="46.64857" lon="3.46969">
        <ele>224</ele>
        <time>2018-06-25T09:06:53.546Z</time>
      </trkpt>
      <trkpt lat="46.64839" lon="3.46921">
        <ele>225</ele>
        <time>2018-06-25T09:06:54.546Z</time>
      </trkpt>
      <trkpt lat="46.64839" lon="3.46921">
        <ele>225</ele>
        <time>2018-06-25T09:06:55.546Z</time>
      </trkpt>
      <trkpt lat="46.64817" lon="3.46857">
        <ele>224</ele>
        <time>2018-06-25T09:06:56.546Z</time>
      </trkpt>
      <trkpt lat="46.64789" lon="3.46791">
        <ele>225</ele>
        <time>2018-06-25T09:06:57.546Z</time>
      </trkpt>
      <trkpt lat="46.64741" lon="3.46742">
        <ele>227</ele>
        <time>2018-06-25T09:06:58.546Z</time>
      </trkpt>
      <trkpt lat="46.64643" lon="3.46558">
        <ele>234</ele>
        <time>2018-06-25T09:06:59.546Z</time>
      </trkpt>
      <trkpt lat="46.64634" lon="3.46356">
        <ele>237</ele>
        <time>2018-06-25T09:07:00.546Z</time>
      </trkpt>
      <trkpt lat="46.64614" lon="3.46238">
        <ele>237</ele>
        <time>2018-06-25T09:07:01.546Z</time>
      </trkpt>
      <trkpt lat="46.64656" lon="3.46108">
        <ele>238</ele>
        <time>2018-06-25T09:07:02.546Z</time>
      </trkpt>
      <trkpt lat="46.64751" lon="3.45941">
        <ele>236</ele>
        <time>2018-06-25T09:07:03.546Z</time>
      </trkpt>
      <trkpt lat="46.64803" lon="3.4587">
        <ele>237</ele>
        <time>2018-06-25T09:07:04.546Z</time>
      </trkpt>
      <trkpt lat="46.65115" lon="3.45586">
        <ele>234</ele>
        <time>2018-06-25T09:07:05.546Z</time>
      </trkpt>
      <trkpt lat="46.65233" lon="3.45535">
        <ele>234</ele>
        <time>2018-06-25T09:07:06.546Z</time>
      </trkpt>
      <trkpt lat="46.65152" lon="3.45359">
        <ele>231</ele>
        <time>2018-06-25T09:07:07.546Z</time>
      </trkpt>
      <trkpt lat="46.65055" lon="3.45182">
        <ele>230</ele>
        <time>2018-06-25T09:07:08.546Z</time>
      </trkpt>
      <trkpt lat="46.65071" lon="3.45089">
        <ele>229</ele>
        <time>2018-06-25T09:07:09.546Z</time>
      </trkpt>
      <trkpt lat="46.65134" lon="3.44853">
        <ele>235</ele>
        <time>2018-06-25T09:07:10.546Z</time>
      </trkpt>
      <trkpt lat="46.65149" lon="3.44743">
        <ele>235</ele>
        <time>2018-06-25T09:07:11.546Z</time>
      </trkpt>
      <trkpt lat="46.65144" lon="3.44682">
        <ele>234</ele>
        <time>2018-06-25T09:07:12.546Z</time>
      </trkpt>
      <trkpt lat="46.64394" lon="3.43101">
        <ele>257</ele>
        <time>2018-06-25T09:07:13.546Z</time>
      </trkpt>
      <trkpt lat="46.6423" lon="3.4297">
        <ele>262</ele>
        <time>2018-06-25T09:07:14.546Z</time>
      </trkpt>
      <trkpt lat="46.64159" lon="3.42871">
        <ele>262</ele>
        <time>2018-06-25T09:07:15.546Z</time>
      </trkpt>
      <trkpt lat="46.64112" lon="3.42708">
        <ele>258</ele>
        <time>2018-06-25T09:07:16.546Z</time>
      </trkpt>
      <trkpt lat="46.63842" lon="3.4242">
        <ele>255</ele>
        <time>2018-06-25T09:07:17.546Z</time>
      </trkpt>
      <trkpt lat="46.63791" lon="3.42328">
        <ele>252</ele>
        <time>2018-06-25T09:07:18.546Z</time>
      </trkpt>
      <trkpt lat="46.63703" lon="3.41972">
        <ele>257</ele>
        <time>2018-06-25T09:07:19.546Z</time>
      </trkpt>
      <trkpt lat="46.63583" lon="3.41725">
        <ele>245</ele>
        <time>2018-06-25T09:07:20.546Z</time>
      </trkpt>
      <trkpt lat="46.63636" lon="3.41522">
        <ele>241</ele>
        <time>2018-06-25T09:07:21.546Z</time>
      </trkpt>
      <trkpt lat="46.63666" lon="3.41476">
        <ele>240</ele>
        <time>2018-06-25T09:07:22.546Z</time>
      </trkpt>
      <trkpt lat="46.63658" lon="3.41334">
        <ele>242</ele>
        <time>2018-06-25T09:07:23.546Z</time>
      </trkpt>
      <trkpt lat="46.637" lon="3.41027">
        <ele>244</ele>
        <time>2018-06-25T09:07:24.546Z</time>
      </trkpt>
      <trkpt lat="46.63865" lon="3.40984">
        <ele>238</ele>
        <time>2018-06-25T09:07:25.546Z</time>
      </trkpt>
      <trkpt lat="46.63889" lon="3.40937">
        <ele>237</ele>
        <time>2018-06-25T09:07:26.546Z</time>
      </trkpt>
      <trkpt lat="46.63934" lon="3.40788">
        <ele>233</ele>
        <time>2018-06-25T09:07:27.546Z</time>
      </trkpt>
      <trkpt lat="46.63972" lon="3.40716">
        <ele>230</ele>
        <time>2018-06-25T09:07:28.546Z</time>
      </trkpt>
      <trkpt lat="46.64041" lon="3.40634">
        <ele>230</ele>
        <time>2018-06-25T09:07:29.546Z</time>
      </trkpt>
      <trkpt lat="46.64123" lon="3.40596">
        <ele>231</ele>
        <time>2018-06-25T09:07:30.546Z</time>
      </trkpt>
      <trkpt lat="46.64474" lon="3.40279">
        <ele>235</ele>
        <time>2018-06-25T09:07:31.546Z</time>
      </trkpt>
      <trkpt lat="46.64643" lon="3.39993">
        <ele>240</ele>
        <time>2018-06-25T09:07:32.546Z</time>
      </trkpt>
      <trkpt lat="46.64833" lon="3.39704">
        <ele>241</ele>
        <time>2018-06-25T09:07:33.546Z</time>
      </trkpt>
      <trkpt lat="46.64832" lon="3.39703">
        <ele>241</ele>
        <time>2018-06-25T09:07:34.546Z</time>
      </trkpt>
      <trkpt lat="46.6528" lon="3.3876">
        <ele>240</ele>
        <time>2018-06-25T09:07:35.546Z</time>
      </trkpt>
      <trkpt lat="46.65318" lon="3.38685">
        <ele>241</ele>
        <time>2018-06-25T09:07:36.546Z</time>
      </trkpt>
      <trkpt lat="46.65456" lon="3.38517">
        <ele>246</ele>
        <time>2018-06-25T09:07:37.546Z</time>
      </trkpt>
      <trkpt lat="46.65524" lon="3.38425">
        <ele>250</ele>
        <time>2018-06-25T09:07:38.546Z</time>
      </trkpt>
      <trkpt lat="46.65876" lon="3.38006">
        <ele>258</ele>
        <time>2018-06-25T09:07:39.546Z</time>
      </trkpt>
      <trkpt lat="46.65868" lon="3.37853">
        <ele>259</ele>
        <time>2018-06-25T09:07:40.546Z</time>
      </trkpt>
      <trkpt lat="46.65832" lon="3.37749">
        <ele>259</ele>
        <time>2018-06-25T09:07:41.546Z</time>
      </trkpt>
      <trkpt lat="46.65755" lon="3.377">
        <ele>257</ele>
        <time>2018-06-25T09:07:42.546Z</time>
      </trkpt>
      <trkpt lat="46.65548" lon="3.37632">
        <ele>257</ele>
        <time>2018-06-25T09:07:43.546Z</time>
      </trkpt>
      <trkpt lat="46.65462" lon="3.37637">
        <ele>252</ele>
        <time>2018-06-25T09:07:44.546Z</time>
      </trkpt>
      <trkpt lat="46.65262" lon="3.37558">
        <ele>249</ele>
        <time>2018-06-25T09:07:45.546Z</time>
      </trkpt>
      <trkpt lat="46.64947" lon="3.37406">
        <ele>250</ele>
        <time>2018-06-25T09:07:46.546Z</time>
      </trkpt>
      <trkpt lat="46.64706" lon="3.37353">
        <ele>250</ele>
        <time>2018-06-25T09:07:47.546Z</time>
      </trkpt>
      <trkpt lat="46.6446" lon="3.37269">
        <ele>257</ele>
        <time>2018-06-25T09:07:48.546Z</time>
      </trkpt>
      <trkpt lat="46.64112" lon="3.36979">
        <ele>260</ele>
        <time>2018-06-25T09:07:49.546Z</time>
      </trkpt>
      <trkpt lat="46.63952" lon="3.36794">
        <ele>263</ele>
        <time>2018-06-25T09:07:50.546Z</time>
      </trkpt>
      <trkpt lat="46.6388" lon="3.36682">
        <ele>264</ele>
        <time>2018-06-25T09:07:51.546Z</time>
      </trkpt>
      <trkpt lat="46.63722" lon="3.36275">
        <ele>269</ele>
        <time>2018-06-25T09:07:52.546Z</time>
      </trkpt>
      <trkpt lat="46.63387" lon="3.35489">
        <ele>253</ele>
        <time>2018-06-25T09:07:53.546Z</time>
      </trkpt>
      <trkpt lat="46.6336" lon="3.35167">
        <ele>254</ele>
        <time>2018-06-25T09:07:54.546Z</time>
      </trkpt>
      <trkpt lat="46.63299" lon="3.3479">
        <ele>255</ele>
        <time>2018-06-25T09:07:55.546Z</time>
      </trkpt>
      <trkpt lat="46.63239" lon="3.34578">
        <ele>251</ele>
        <time>2018-06-25T09:07:56.546Z</time>
      </trkpt>
      <trkpt lat="46.63246" lon="3.34139">
        <ele>245</ele>
        <time>2018-06-25T09:07:57.546Z</time>
      </trkpt>
      <trkpt lat="46.63241" lon="3.33768">
        <ele>244</ele>
        <time>2018-06-25T09:07:58.546Z</time>
      </trkpt>
      <trkpt lat="46.62864" lon="3.32986">
        <ele>236</ele>
        <time>2018-06-25T09:07:59.546Z</time>
      </trkpt>
      <trkpt lat="46.6277" lon="3.3269">
        <ele>236</ele>
        <time>2018-06-25T09:08:00.546Z</time>
      </trkpt>
      <trkpt lat="46.62745" lon="3.32567">
        <ele>236</ele>
        <time>2018-06-25T09:08:01.546Z</time>
      </trkpt>
      <trkpt lat="46.62728" lon="3.32406">
        <ele>234</ele>
        <time>2018-06-25T09:08:02.546Z</time>
      </trkpt>
      <trkpt lat="46.6265" lon="3.32387">
        <ele>238</ele>
        <time>2018-06-25T09:08:03.546Z</time>
      </trkpt>
      <trkpt lat="46.6266" lon="3.32019">
        <ele>233</ele>
        <time>2018-06-25T09:08:04.546Z</time>
      </trkpt>
      <trkpt lat="46.62682" lon="3.3186">
        <ele>231</ele>
        <time>2018-06-25T09:08:05.546Z</time>
      </trkpt>
      <trkpt lat="46.62677" lon="3.31831">
        <ele>232</ele>
        <time>2018-06-25T09:08:06.546Z</time>
      </trkpt>
      <trkpt lat="46.62666" lon="3.31823">
        <ele>232</ele>
        <time>2018-06-25T09:08:07.546Z</time>
      </trkpt>
      <trkpt lat="46.62333" lon="3.32002">
        <ele>233</ele>
        <time>2018-06-25T09:08:08.546Z</time>
      </trkpt>
      <trkpt lat="46.62274" lon="3.32104">
        <ele>230</ele>
        <time>2018-06-25T09:08:09.546Z</time>
      </trkpt>
      <trkpt lat="46.62253" lon="3.32166">
        <ele>231</ele>
        <time>2018-06-25T09:08:10.546Z</time>
      </trkpt>
      <trkpt lat="46.62233" lon="3.32191">
        <ele>231</ele>
        <time>2018-06-25T09:08:11.546Z</time>
      </trkpt>
      <trkpt lat="46.62166" lon="3.32231">
        <ele>231</ele>
        <time>2018-06-25T09:08:12.546Z</time>
      </trkpt>
      <trkpt lat="46.62133" lon="3.32235">
        <ele>230</ele>
        <time>2018-06-25T09:08:13.546Z</time>
      </trkpt>
      <trkpt lat="46.62075" lon="3.32194">
        <ele>229</ele>
        <time>2018-06-25T09:08:14.546Z</time>
      </trkpt>
      <trkpt lat="46.62029" lon="3.32137">
        <ele>228</ele>
        <time>2018-06-25T09:08:15.546Z</time>
      </trkpt>
      <trkpt lat="46.61979" lon="3.3212">
        <ele>227</ele>
        <time>2018-06-25T09:08:16.546Z</time>
      </trkpt>
      <trkpt lat="46.61896" lon="3.32214">
        <ele>223</ele>
        <time>2018-06-25T09:08:17.546Z</time>
      </trkpt>
      <trkpt lat="46.61538" lon="3.32227">
        <ele>235</ele>
        <time>2018-06-25T09:08:18.546Z</time>
      </trkpt>
      <trkpt lat="46.61203" lon="3.32291">
        <ele>240</ele>
        <time>2018-06-25T09:08:19.546Z</time>
      </trkpt>
      <trkpt lat="46.60969" lon="3.32359">
        <ele>240</ele>
        <time>2018-06-25T09:08:20.546Z</time>
      </trkpt>
      <trkpt lat="46.60825" lon="3.3242">
        <ele>237</ele>
        <time>2018-06-25T09:08:21.546Z</time>
      </trkpt>
      <trkpt lat="46.60584" lon="3.3248">
        <ele>231</ele>
        <time>2018-06-25T09:08:22.546Z</time>
      </trkpt>
      <trkpt lat="46.6041" lon="3.32602">
        <ele>228</ele>
        <time>2018-06-25T09:08:23.546Z</time>
      </trkpt>
      <trkpt lat="46.60261" lon="3.32782">
        <ele>228</ele>
        <time>2018-06-25T09:08:24.546Z</time>
      </trkpt>
      <trkpt lat="46.60165" lon="3.32854">
        <ele>229</ele>
        <time>2018-06-25T09:08:25.546Z</time>
      </trkpt>
      <trkpt lat="46.60131" lon="3.32809">
        <ele>228</ele>
        <time>2018-06-25T09:08:26.546Z</time>
      </trkpt>
      <trkpt lat="46.60049" lon="3.32644">
        <ele>225</ele>
        <time>2018-06-25T09:08:27.546Z</time>
      </trkpt>
      <trkpt lat="46.59941" lon="3.32372">
        <ele>223</ele>
        <time>2018-06-25T09:08:28.546Z</time>
      </trkpt>
      <trkpt lat="46.59518" lon="3.31562">
        <ele>221</ele>
        <time>2018-06-25T09:08:29.546Z</time>
      </trkpt>
      <trkpt lat="46.59304" lon="3.31294">
        <ele>217</ele>
        <time>2018-06-25T09:08:30.546Z</time>
      </trkpt>
      <trkpt lat="46.58838" lon="3.31907">
        <ele>220</ele>
        <time>2018-06-25T09:08:31.546Z</time>
      </trkpt>
      <trkpt lat="46.58835" lon="3.31939">
        <ele>220</ele>
        <time>2018-06-25T09:08:32.546Z</time>
      </trkpt>
      <trkpt lat="46.58851" lon="3.31993">
        <ele>220</ele>
        <time>2018-06-25T09:08:33.546Z</time>
      </trkpt>
      <trkpt lat="46.58786" lon="3.3188">
        <ele>220</ele>
        <time>2018-06-25T09:08:34.546Z</time>
      </trkpt>
      <trkpt lat="46.58728" lon="3.31618">
        <ele>217</ele>
        <time>2018-06-25T09:08:35.546Z</time>
      </trkpt>
      <trkpt lat="46.58732" lon="3.31583">
        <ele>216</ele>
        <time>2018-06-25T09:08:36.546Z</time>
      </trkpt>
      <trkpt lat="46.58723" lon="3.31571">
        <ele>216</ele>
        <time>2018-06-25T09:08:37.546Z</time>
      </trkpt>
      <trkpt lat="46.58253" lon="3.31934">
        <ele>215</ele>
        <time>2018-06-25T09:08:38.546Z</time>
      </trkpt>
      <trkpt lat="46.58121" lon="3.32047">
        <ele>219</ele>
        <time>2018-06-25T09:08:39.546Z</time>
      </trkpt>
      <trkpt lat="46.5793" lon="3.32321">
        <ele>216</ele>
        <time>2018-06-25T09:08:40.546Z</time>
      </trkpt>
      <trkpt lat="46.57807" lon="3.32374">
        <ele>213</ele>
        <time>2018-06-25T09:08:41.546Z</time>
      </trkpt>
      <trkpt lat="46.57598" lon="3.32022">
        <ele>208</ele>
        <time>2018-06-25T09:08:42.546Z</time>
      </trkpt>
      <trkpt lat="46.57508" lon="3.31787">
        <ele>212</ele>
        <time>2018-06-25T09:08:43.546Z</time>
      </trkpt>
      <trkpt lat="46.56868" lon="3.32219">
        <ele>209</ele>
        <time>2018-06-25T09:08:44.546Z</time>
      </trkpt>
      <trkpt lat="46.56775" lon="3.32265">
        <ele>210</ele>
        <time>2018-06-25T09:08:45.546Z</time>
      </trkpt>
      <trkpt lat="46.56401" lon="3.32391">
        <ele>208</ele>
        <time>2018-06-25T09:08:46.546Z</time>
      </trkpt>
      <trkpt lat="46.56258" lon="3.32499">
        <ele>207</ele>
        <time>2018-06-25T09:08:47.546Z</time>
      </trkpt>
      <trkpt lat="46.56248" lon="3.32493">
        <ele>206</ele>
        <time>2018-06-25T09:08:48.546Z</time>
      </trkpt>
      <trkpt lat="46.56101" lon="3.32059">
        <ele>209</ele>
        <time>2018-06-25T09:08:49.546Z</time>
      </trkpt>
      <trkpt lat="46.56" lon="3.32126">
        <ele>212</ele>
        <time>2018-06-25T09:08:50.546Z</time>
      </trkpt>
      <trkpt lat="46.56001" lon="3.32192">
        <ele>212</ele>
        <time>2018-06-25T09:08:51.546Z</time>
      </trkpt>
      <trkpt lat="46.55565" lon="3.32532">
        <ele>209</ele>
        <time>2018-06-25T09:08:52.546Z</time>
      </trkpt>
      <trkpt lat="46.55466" lon="3.32627">
        <ele>211</ele>
        <time>2018-06-25T09:08:53.546Z</time>
      </trkpt>
      <trkpt lat="46.554" lon="3.3264">
        <ele>212</ele>
        <time>2018-06-25T09:08:54.546Z</time>
      </trkpt>
      <trkpt lat="46.55319" lon="3.32632">
        <ele>211</ele>
        <time>2018-06-25T09:08:55.546Z</time>
      </trkpt>
      <trkpt lat="46.55188" lon="3.32558">
        <ele>205</ele>
        <time>2018-06-25T09:08:56.546Z</time>
      </trkpt>
      <trkpt lat="46.55158" lon="3.3251">
        <ele>203</ele>
        <time>2018-06-25T09:08:57.546Z</time>
      </trkpt>
      <trkpt lat="46.55063" lon="3.32422">
        <ele>206</ele>
        <time>2018-06-25T09:08:58.546Z</time>
      </trkpt>
      <trkpt lat="46.54981" lon="3.32378">
        <ele>205</ele>
        <time>2018-06-25T09:08:59.546Z</time>
      </trkpt>
      <trkpt lat="46.5489" lon="3.32307">
        <ele>207</ele>
        <time>2018-06-25T09:09:00.546Z</time>
      </trkpt>
      <trkpt lat="46.54757" lon="3.32282">
        <ele>208</ele>
        <time>2018-06-25T09:09:01.546Z</time>
      </trkpt>
      <trkpt lat="46.54651" lon="3.32297">
        <ele>207</ele>
        <time>2018-06-25T09:09:02.546Z</time>
      </trkpt>
      <trkpt lat="46.54497" lon="3.32365">
        <ele>206</ele>
        <time>2018-06-25T09:09:03.546Z</time>
      </trkpt>
      <trkpt lat="46.54463" lon="3.32357">
        <ele>207</ele>
        <time>2018-06-25T09:09:04.546Z</time>
      </trkpt>
      <trkpt lat="46.54364" lon="3.32392">
        <ele>210</ele>
        <time>2018-06-25T09:09:05.546Z</time>
      </trkpt>
      <trkpt lat="46.54323" lon="3.32468">
        <ele>210</ele>
        <time>2018-06-25T09:09:06.546Z</time>
      </trkpt>
      <trkpt lat="46.54252" lon="3.32533">
        <ele>207</ele>
        <time>2018-06-25T09:09:07.546Z</time>
      </trkpt>
      <trkpt lat="46.54215" lon="3.3252">
        <ele>209</ele>
        <time>2018-06-25T09:09:08.546Z</time>
      </trkpt>
      <trkpt lat="46.54164" lon="3.32597">
        <ele>209</ele>
        <time>2018-06-25T09:09:09.546Z</time>
      </trkpt>
      <trkpt lat="46.54141" lon="3.32612">
        <ele>209</ele>
        <time>2018-06-25T09:09:10.546Z</time>
      </trkpt>
      <trkpt lat="46.54007" lon="3.3279">
        <ele>209</ele>
        <time>2018-06-25T09:09:11.546Z</time>
      </trkpt>
      <trkpt lat="46.53957" lon="3.32823">
        <ele>210</ele>
        <time>2018-06-25T09:09:12.546Z</time>
      </trkpt>
      <trkpt lat="46.53924" lon="3.32801">
        <ele>212</ele>
        <time>2018-06-25T09:09:13.546Z</time>
      </trkpt>
      <trkpt lat="46.53901" lon="3.32803">
        <ele>212</ele>
        <time>2018-06-25T09:09:14.546Z</time>
      </trkpt>
      <trkpt lat="46.53799" lon="3.32939">
        <ele>211</ele>
        <time>2018-06-25T09:09:15.546Z</time>
      </trkpt>
      <trkpt lat="46.53749" lon="3.32979">
        <ele>210</ele>
        <time>2018-06-25T09:09:16.546Z</time>
      </trkpt>
      <trkpt lat="46.53733" lon="3.32923">
        <ele>210</ele>
        <time>2018-06-25T09:09:17.546Z</time>
      </trkpt>
      <trkpt lat="46.53728" lon="3.32831">
        <ele>209</ele>
        <time>2018-06-25T09:09:18.546Z</time>
      </trkpt>
      <trkpt lat="46.53709" lon="3.32815">
        <ele>209</ele>
        <time>2018-06-25T09:09:19.546Z</time>
      </trkpt>
      <trkpt lat="46.53654" lon="3.32711">
        <ele>209</ele>
        <time>2018-06-25T09:09:20.546Z</time>
      </trkpt>
      <trkpt lat="46.53636" lon="3.32603">
        <ele>212</ele>
        <time>2018-06-25T09:09:21.546Z</time>
      </trkpt>
      <trkpt lat="46.53601" lon="3.32521">
        <ele>211</ele>
        <time>2018-06-25T09:09:22.546Z</time>
      </trkpt>
      <trkpt lat="46.53523" lon="3.32567">
        <ele>213</ele>
        <time>2018-06-25T09:09:23.546Z</time>
      </trkpt>
      <trkpt lat="46.53461" lon="3.32581">
        <ele>213</ele>
        <time>2018-06-25T09:09:24.546Z</time>
      </trkpt>
      <trkpt lat="46.5334" lon="3.32574">
        <ele>213</ele>
        <time>2018-06-25T09:09:25.546Z</time>
      </trkpt>
      <trkpt lat="46.53283" lon="3.32501">
        <ele>211</ele>
        <time>2018-06-25T09:09:26.546Z</time>
      </trkpt>
      <trkpt lat="46.53224" lon="3.3252">
        <ele>211</ele>
        <time>2018-06-25T09:09:27.546Z</time>
      </trkpt>
      <trkpt lat="46.53161" lon="3.32446">
        <ele>211</ele>
        <time>2018-06-25T09:09:28.546Z</time>
      </trkpt>
      <trkpt lat="46.53112" lon="3.32449">
        <ele>211</ele>
        <time>2018-06-25T09:09:29.546Z</time>
      </trkpt>
      <trkpt lat="46.53068" lon="3.3248">
        <ele>210</ele>
        <time>2018-06-25T09:09:30.546Z</time>
      </trkpt>
      <trkpt lat="46.52996" lon="3.32587">
        <ele>211</ele>
        <time>2018-06-25T09:09:31.546Z</time>
      </trkpt>
      <trkpt lat="46.52983" lon="3.3263">
        <ele>212</ele>
        <time>2018-06-25T09:09:32.546Z</time>
      </trkpt>
      <trkpt lat="46.5296" lon="3.32646">
        <ele>212</ele>
        <time>2018-06-25T09:09:33.546Z</time>
      </trkpt>
      <trkpt lat="46.52955" lon="3.32719">
        <ele>212</ele>
        <time>2018-06-25T09:09:34.546Z</time>
      </trkpt>
      <trkpt lat="46.52871" lon="3.3271">
        <ele>210</ele>
        <time>2018-06-25T09:09:35.546Z</time>
      </trkpt>
      <trkpt lat="46.52814" lon="3.32615">
        <ele>208</ele>
        <time>2018-06-25T09:09:36.546Z</time>
      </trkpt>
      <trkpt lat="46.52724" lon="3.32543">
        <ele>208</ele>
        <time>2018-06-25T09:09:37.546Z</time>
      </trkpt>
      <trkpt lat="46.52685" lon="3.32492">
        <ele>208</ele>
        <time>2018-06-25T09:09:38.546Z</time>
      </trkpt>
      <trkpt lat="46.52623" lon="3.32444">
        <ele>208</ele>
        <time>2018-06-25T09:09:39.546Z</time>
      </trkpt>
      <trkpt lat="46.52562" lon="3.32424">
        <ele>208</ele>
        <time>2018-06-25T09:09:40.546Z</time>
      </trkpt>
      <trkpt lat="46.52471" lon="3.32445">
        <ele>209</ele>
        <time>2018-06-25T09:09:41.546Z</time>
      </trkpt>
      <trkpt lat="46.52327" lon="3.32511">
        <ele>209</ele>
        <time>2018-06-25T09:09:42.546Z</time>
      </trkpt>
      <trkpt lat="46.52242" lon="3.32507">
        <ele>211</ele>
        <time>2018-06-25T09:09:43.546Z</time>
      </trkpt>
      <trkpt lat="46.52206" lon="3.32519">
        <ele>212</ele>
        <time>2018-06-25T09:09:44.546Z</time>
      </trkpt>
      <trkpt lat="46.52204" lon="3.32607">
        <ele>213</ele>
        <time>2018-06-25T09:09:45.546Z</time>
      </trkpt>
      <trkpt lat="46.52182" lon="3.32657">
        <ele>211</ele>
        <time>2018-06-25T09:09:46.546Z</time>
      </trkpt>
      <trkpt lat="46.52185" lon="3.32699">
        <ele>210</ele>
        <time>2018-06-25T09:09:47.546Z</time>
      </trkpt>
      <trkpt lat="46.5214" lon="3.32761">
        <ele>209</ele>
        <time>2018-06-25T09:09:48.546Z</time>
      </trkpt>
      <trkpt lat="46.52085" lon="3.32784">
        <ele>210</ele>
        <time>2018-06-25T09:09:49.546Z</time>
      </trkpt>
      <trkpt lat="46.5205" lon="3.32778">
        <ele>211</ele>
        <time>2018-06-25T09:09:50.546Z</time>
      </trkpt>
      <trkpt lat="46.51987" lon="3.32742">
        <ele>212</ele>
        <time>2018-06-25T09:09:51.546Z</time>
      </trkpt>
      <trkpt lat="46.51907" lon="3.32768">
        <ele>213</ele>
        <time>2018-06-25T09:09:52.546Z</time>
      </trkpt>
      <trkpt lat="46.51856" lon="3.32803">
        <ele>212</ele>
        <time>2018-06-25T09:09:53.546Z</time>
      </trkpt>
      <trkpt lat="46.51819" lon="3.32811">
        <ele>212</ele>
        <time>2018-06-25T09:09:54.546Z</time>
      </trkpt>
      <trkpt lat="46.51733" lon="3.32717">
        <ele>211</ele>
        <time>2018-06-25T09:09:55.546Z</time>
      </trkpt>
      <trkpt lat="46.51628" lon="3.32679">
        <ele>209</ele>
        <time>2018-06-25T09:09:56.546Z</time>
      </trkpt>
      <trkpt lat="46.51549" lon="3.32579">
        <ele>211</ele>
        <time>2018-06-25T09:09:57.546Z</time>
      </trkpt>
      <trkpt lat="46.51499" lon="3.32558">
        <ele>212</ele>
        <time>2018-06-25T09:09:58.546Z</time>
      </trkpt>
      <trkpt lat="46.51433" lon="3.32551">
        <ele>212</ele>
        <time>2018-06-25T09:09:59.546Z</time>
      </trkpt>
      <trkpt lat="46.51301" lon="3.32581">
        <ele>210</ele>
        <time>2018-06-25T09:10:00.546Z</time>
      </trkpt>
      <trkpt lat="46.51282" lon="3.32545">
        <ele>210</ele>
        <time>2018-06-25T09:10:01.546Z</time>
      </trkpt>
      <trkpt lat="46.51098" lon="3.3269">
        <ele>212</ele>
        <time>2018-06-25T09:10:02.546Z</time>
      </trkpt>
      <trkpt lat="46.5088" lon="3.32751">
        <ele>217</ele>
        <time>2018-06-25T09:10:03.546Z</time>
      </trkpt>
      <trkpt lat="46.5081" lon="3.32607">
        <ele>221</ele>
        <time>2018-06-25T09:10:04.546Z</time>
      </trkpt>
      <trkpt lat="46.50812" lon="3.32378">
        <ele>218</ele>
        <time>2018-06-25T09:10:05.546Z</time>
      </trkpt>
      <trkpt lat="46.5079" lon="3.32208">
        <ele>217</ele>
        <time>2018-06-25T09:10:06.546Z</time>
      </trkpt>
      <trkpt lat="46.5075" lon="3.3206">
        <ele>217</ele>
        <time>2018-06-25T09:10:07.546Z</time>
      </trkpt>
      <trkpt lat="46.50721" lon="3.32046">
        <ele>217</ele>
        <time>2018-06-25T09:10:08.546Z</time>
      </trkpt>
      <trkpt lat="46.50395" lon="3.32084">
        <ele>219</ele>
        <time>2018-06-25T09:10:09.546Z</time>
      </trkpt>
      <trkpt lat="46.50335" lon="3.31959">
        <ele>219</ele>
        <time>2018-06-25T09:10:10.546Z</time>
      </trkpt>
      <trkpt lat="46.50322" lon="3.31907">
        <ele>220</ele>
        <time>2018-06-25T09:10:11.546Z</time>
      </trkpt>
      <trkpt lat="46.50322" lon="3.3181">
        <ele>221</ele>
        <time>2018-06-25T09:10:12.546Z</time>
      </trkpt>
      <trkpt lat="46.50371" lon="3.31629">
        <ele>230</ele>
        <time>2018-06-25T09:10:13.546Z</time>
      </trkpt>
      <trkpt lat="46.50381" lon="3.31525">
        <ele>233</ele>
        <time>2018-06-25T09:10:14.546Z</time>
      </trkpt>
      <trkpt lat="46.50358" lon="3.31362">
        <ele>235</ele>
        <time>2018-06-25T09:10:15.546Z</time>
      </trkpt>
      <trkpt lat="46.50366" lon="3.31205">
        <ele>239</ele>
        <time>2018-06-25T09:10:16.546Z</time>
      </trkpt>
      <trkpt lat="46.50352" lon="3.31073">
        <ele>242</ele>
        <time>2018-06-25T09:10:17.546Z</time>
      </trkpt>
      <trkpt lat="46.50352" lon="3.309">
        <ele>244</ele>
        <time>2018-06-25T09:10:18.546Z</time>
      </trkpt>
      <trkpt lat="46.50365" lon="3.30688">
        <ele>249</ele>
        <time>2018-06-25T09:10:19.546Z</time>
      </trkpt>
      <trkpt lat="46.50085" lon="3.30651">
        <ele>254</ele>
        <time>2018-06-25T09:10:20.546Z</time>
      </trkpt>
      <trkpt lat="46.49842" lon="3.30684">
        <ele>254</ele>
        <time>2018-06-25T09:10:21.546Z</time>
      </trkpt>
      <trkpt lat="46.49777" lon="3.30678">
        <ele>255</ele>
        <time>2018-06-25T09:10:22.546Z</time>
      </trkpt>
      <trkpt lat="46.49634" lon="3.30572">
        <ele>258</ele>
        <time>2018-06-25T09:10:23.546Z</time>
      </trkpt>
      <trkpt lat="46.4942" lon="3.30362">
        <ele>259</ele>
        <time>2018-06-25T09:10:24.546Z</time>
      </trkpt>
      <trkpt lat="46.49261" lon="3.30234">
        <ele>261</ele>
        <time>2018-06-25T09:10:25.546Z</time>
      </trkpt>
      <trkpt lat="46.49076" lon="3.30034">
        <ele>257</ele>
        <time>2018-06-25T09:10:26.546Z</time>
      </trkpt>
      <trkpt lat="46.48996" lon="3.29987">
        <ele>254</ele>
        <time>2018-06-25T09:10:27.546Z</time>
      </trkpt>
      <trkpt lat="46.489" lon="3.29988">
        <ele>257</ele>
        <time>2018-06-25T09:10:28.546Z</time>
      </trkpt>
      <trkpt lat="46.48707" lon="3.3002">
        <ele>260</ele>
        <time>2018-06-25T09:10:29.546Z</time>
      </trkpt>
      <trkpt lat="46.48628" lon="3.30046">
        <ele>260</ele>
        <time>2018-06-25T09:10:30.546Z</time>
      </trkpt>
      <trkpt lat="46.48545" lon="3.30044">
        <ele>259</ele>
        <time>2018-06-25T09:10:31.546Z</time>
      </trkpt>
      <trkpt lat="46.48369" lon="3.30094">
        <ele>254</ele>
        <time>2018-06-25T09:10:32.546Z</time>
      </trkpt>
      <trkpt lat="46.48251" lon="3.3017">
        <ele>253</ele>
        <time>2018-06-25T09:10:33.546Z</time>
      </trkpt>
      <trkpt lat="46.48196" lon="3.3024">
        <ele>254</ele>
        <time>2018-06-25T09:10:34.546Z</time>
      </trkpt>
      <trkpt lat="46.48156" lon="3.30382">
        <ele>257</ele>
        <time>2018-06-25T09:10:35.546Z</time>
      </trkpt>
      <trkpt lat="46.48142" lon="3.30386">
        <ele>257</ele>
        <time>2018-06-25T09:10:36.546Z</time>
      </trkpt>
      <trkpt lat="46.48076" lon="3.3035">
        <ele>253</ele>
        <time>2018-06-25T09:10:37.546Z</time>
      </trkpt>
      <trkpt lat="46.47906" lon="3.30353">
        <ele>246</ele>
        <time>2018-06-25T09:10:38.546Z</time>
      </trkpt>
      <trkpt lat="46.47851" lon="3.30369">
        <ele>242</ele>
        <time>2018-06-25T09:10:39.546Z</time>
      </trkpt>
      <trkpt lat="46.47776" lon="3.30433">
        <ele>237</ele>
        <time>2018-06-25T09:10:40.546Z</time>
      </trkpt>
      <trkpt lat="46.47543" lon="3.30471">
        <ele>223</ele>
        <time>2018-06-25T09:10:41.546Z</time>
      </trkpt>
      <trkpt lat="46.47466" lon="3.30527">
        <ele>227</ele>
        <time>2018-06-25T09:10:42.546Z</time>
      </trkpt>
      <trkpt lat="46.47343" lon="3.30644">
        <ele>240</ele>
        <time>2018-06-25T09:10:43.546Z</time>
      </trkpt>
      <trkpt lat="46.47281" lon="3.30681">
        <ele>244</ele>
        <time>2018-06-25T09:10:44.546Z</time>
      </trkpt>
      <trkpt lat="46.47197" lon="3.30693">
        <ele>244</ele>
        <time>2018-06-25T09:10:45.546Z</time>
      </trkpt>
      <trkpt lat="46.47104" lon="3.3074">
        <ele>244</ele>
        <time>2018-06-25T09:10:46.546Z</time>
      </trkpt>
      <trkpt lat="46.46983" lon="3.3084">
        <ele>242</ele>
        <time>2018-06-25T09:10:47.546Z</time>
      </trkpt>
      <trkpt lat="46.4663" lon="3.3092">
        <ele>266</ele>
        <time>2018-06-25T09:10:48.546Z</time>
      </trkpt>
      <trkpt lat="46.46521" lon="3.30897">
        <ele>268</ele>
        <time>2018-06-25T09:10:49.546Z</time>
      </trkpt>
      <trkpt lat="46.46374" lon="3.30937">
        <ele>270</ele>
        <time>2018-06-25T09:10:50.546Z</time>
      </trkpt>
      <trkpt lat="46.46219" lon="3.31003">
        <ele>270</ele>
        <time>2018-06-25T09:10:51.546Z</time>
      </trkpt>
      <trkpt lat="46.45939" lon="3.31015">
        <ele>271</ele>
        <time>2018-06-25T09:10:52.546Z</time>
      </trkpt>
      <trkpt lat="46.45579" lon="3.31111">
        <ele>271</ele>
        <time>2018-06-25T09:10:53.546Z</time>
      </trkpt>
      <trkpt lat="46.45447" lon="3.31111">
        <ele>270</ele>
        <time>2018-06-25T09:10:54.546Z</time>
      </trkpt>
      <trkpt lat="46.45273" lon="3.31068">
        <ele>273</ele>
        <time>2018-06-25T09:10:55.546Z</time>
      </trkpt>
      <trkpt lat="46.45136" lon="3.30958">
        <ele>273</ele>
        <time>2018-06-25T09:10:56.546Z</time>
      </trkpt>
      <trkpt lat="46.45067" lon="3.30929">
        <ele>272</ele>
        <time>2018-06-25T09:10:57.546Z</time>
      </trkpt>
      <trkpt lat="46.45007" lon="3.30936">
        <ele>273</ele>
        <time>2018-06-25T09:10:58.546Z</time>
      </trkpt>
      <trkpt lat="46.44902" lon="3.30904">
        <ele>277</ele>
        <time>2018-06-25T09:10:59.546Z</time>
      </trkpt>
      <trkpt lat="46.44877" lon="3.30964">
        <ele>275</ele>
        <time>2018-06-25T09:11:00.546Z</time>
      </trkpt>
      <trkpt lat="46.44752" lon="3.30898">
        <ele>274</ele>
        <time>2018-06-25T09:11:01.546Z</time>
      </trkpt>
      <trkpt lat="46.44681" lon="3.30813">
        <ele>273</ele>
        <time>2018-06-25T09:11:02.546Z</time>
      </trkpt>
      <trkpt lat="46.44653" lon="3.30759">
        <ele>272</ele>
        <time>2018-06-25T09:11:03.546Z</time>
      </trkpt>
      <trkpt lat="46.4457" lon="3.30683">
        <ele>272</ele>
        <time>2018-06-25T09:11:04.546Z</time>
      </trkpt>
      <trkpt lat="46.4444" lon="3.30602">
        <ele>272</ele>
        <time>2018-06-25T09:11:05.546Z</time>
      </trkpt>
      <trkpt lat="46.44288" lon="3.30574">
        <ele>274</ele>
        <time>2018-06-25T09:11:06.546Z</time>
      </trkpt>
      <trkpt lat="46.44171" lon="3.30488">
        <ele>277</ele>
        <time>2018-06-25T09:11:07.546Z</time>
      </trkpt>
      <trkpt lat="46.44069" lon="3.30354">
        <ele>278</ele>
        <time>2018-06-25T09:11:08.546Z</time>
      </trkpt>
      <trkpt lat="46.43927" lon="3.30255">
        <ele>284</ele>
        <time>2018-06-25T09:11:09.546Z</time>
      </trkpt>
      <trkpt lat="46.43721" lon="3.30208">
        <ele>280</ele>
        <time>2018-06-25T09:11:10.546Z</time>
      </trkpt>
      <trkpt lat="46.43539" lon="3.30218">
        <ele>278</ele>
        <time>2018-06-25T09:11:11.546Z</time>
      </trkpt>
      <trkpt lat="46.43415" lon="3.30332">
        <ele>269</ele>
        <time>2018-06-25T09:11:12.546Z</time>
      </trkpt>
      <trkpt lat="46.43283" lon="3.30415">
        <ele>269</ele>
        <time>2018-06-25T09:11:13.546Z</time>
      </trkpt>
      <trkpt lat="46.42987" lon="3.30542">
        <ele>264</ele>
        <time>2018-06-25T09:11:14.546Z</time>
      </trkpt>
      <trkpt lat="46.42938" lon="3.30632">
        <ele>261</ele>
        <time>2018-06-25T09:11:15.546Z</time>
      </trkpt>
      <trkpt lat="46.42743" lon="3.30753">
        <ele>247</ele>
        <time>2018-06-25T09:11:16.546Z</time>
      </trkpt>
      <trkpt lat="46.42599" lon="3.30972">
        <ele>232</ele>
        <time>2018-06-25T09:11:17.546Z</time>
      </trkpt>
      <trkpt lat="46.42599" lon="3.30869">
        <ele>238</ele>
        <time>2018-06-25T09:11:18.546Z</time>
      </trkpt>
      <trkpt lat="46.42586" lon="3.30862">
        <ele>238</ele>
        <time>2018-06-25T09:11:19.546Z</time>
      </trkpt>
      <trkpt lat="46.42437" lon="3.30944">
        <ele>233</ele>
        <time>2018-06-25T09:11:20.546Z</time>
      </trkpt>
      <trkpt lat="46.42394" lon="3.30933">
        <ele>232</ele>
        <time>2018-06-25T09:11:21.546Z</time>
      </trkpt>
      <trkpt lat="46.42352" lon="3.30874">
        <ele>236</ele>
        <time>2018-06-25T09:11:22.546Z</time>
      </trkpt>
      <trkpt lat="46.42264" lon="3.30689">
        <ele>243</ele>
        <time>2018-06-25T09:11:23.546Z</time>
      </trkpt>
      <trkpt lat="46.42258" lon="3.30602">
        <ele>244</ele>
        <time>2018-06-25T09:11:24.546Z</time>
      </trkpt>
      <trkpt lat="46.42369" lon="3.30194">
        <ele>247</ele>
        <time>2018-06-25T09:11:25.546Z</time>
      </trkpt>
      <trkpt lat="46.42447" lon="3.29962">
        <ele>240</ele>
        <time>2018-06-25T09:11:26.546Z</time>
      </trkpt>
      <trkpt lat="46.4251" lon="3.29584">
        <ele>233</ele>
        <time>2018-06-25T09:11:27.546Z</time>
      </trkpt>
      <trkpt lat="46.42502" lon="3.29378">
        <ele>231</ele>
        <time>2018-06-25T09:11:28.546Z</time>
      </trkpt>
      <trkpt lat="46.42494" lon="3.29364">
        <ele>231</ele>
        <time>2018-06-25T09:11:29.546Z</time>
      </trkpt>
      <trkpt lat="46.42449" lon="3.29416">
        <ele>230</ele>
        <time>2018-06-25T09:11:30.546Z</time>
      </trkpt>
      <trkpt lat="46.42296" lon="3.2949">
        <ele>234</ele>
        <time>2018-06-25T09:11:31.546Z</time>
      </trkpt>
      <trkpt lat="46.4206" lon="3.29809">
        <ele>248</ele>
        <time>2018-06-25T09:11:32.546Z</time>
      </trkpt>
      <trkpt lat="46.4187" lon="3.29991">
        <ele>248</ele>
        <time>2018-06-25T09:11:33.546Z</time>
      </trkpt>
      <trkpt lat="46.41815" lon="3.30023">
        <ele>245</ele>
        <time>2018-06-25T09:11:34.546Z</time>
      </trkpt>
      <trkpt lat="46.41653" lon="3.30021">
        <ele>254</ele>
        <time>2018-06-25T09:11:35.546Z</time>
      </trkpt>
      <trkpt lat="46.4155" lon="3.3006">
        <ele>263</ele>
        <time>2018-06-25T09:11:36.546Z</time>
      </trkpt>
      <trkpt lat="46.41543" lon="3.30483">
        <ele>268</ele>
        <time>2018-06-25T09:11:37.546Z</time>
      </trkpt>
      <trkpt lat="46.41495" lon="3.30804">
        <ele>267</ele>
        <time>2018-06-25T09:11:38.546Z</time>
      </trkpt>
      <trkpt lat="46.41474" lon="3.30838">
        <ele>265</ele>
        <time>2018-06-25T09:11:39.546Z</time>
      </trkpt>
      <trkpt lat="46.41373" lon="3.30873">
        <ele>255</ele>
        <time>2018-06-25T09:11:40.546Z</time>
      </trkpt>
      <trkpt lat="46.41297" lon="3.30846">
        <ele>241</ele>
        <time>2018-06-25T09:11:41.546Z</time>
      </trkpt>
      <trkpt lat="46.41267" lon="3.30802">
        <ele>237</ele>
        <time>2018-06-25T09:11:42.546Z</time>
      </trkpt>
      <trkpt lat="46.41191" lon="3.31108">
        <ele>229</ele>
        <time>2018-06-25T09:11:43.546Z</time>
      </trkpt>
      <trkpt lat="46.41171" lon="3.31121">
        <ele>227</ele>
        <time>2018-06-25T09:11:44.546Z</time>
      </trkpt>
      <trkpt lat="46.41013" lon="3.31148">
        <ele>223</ele>
        <time>2018-06-25T09:11:45.546Z</time>
      </trkpt>
      <trkpt lat="46.40991" lon="3.31186">
        <ele>223</ele>
        <time>2018-06-25T09:11:46.546Z</time>
      </trkpt>
      <trkpt lat="46.40871" lon="3.31144">
        <ele>229</ele>
        <time>2018-06-25T09:11:47.546Z</time>
      </trkpt>
      <trkpt lat="46.40643" lon="3.30978">
        <ele>235</ele>
        <time>2018-06-25T09:11:48.546Z</time>
      </trkpt>
      <trkpt lat="46.40632" lon="3.30983">
        <ele>236</ele>
        <time>2018-06-25T09:11:49.546Z</time>
      </trkpt>
      <trkpt lat="46.40607" lon="3.31039">
        <ele>241</ele>
        <time>2018-06-25T09:11:50.546Z</time>
      </trkpt>
      <trkpt lat="46.40622" lon="3.3109">
        <ele>242</ele>
        <time>2018-06-25T09:11:51.546Z</time>
      </trkpt>
      <trkpt lat="46.40622" lon="3.31248">
        <ele>247</ele>
        <time>2018-06-25T09:11:52.546Z</time>
      </trkpt>
      <trkpt lat="46.40609" lon="3.31297">
        <ele>245</ele>
        <time>2018-06-25T09:11:53.546Z</time>
      </trkpt>
      <trkpt lat="46.40592" lon="3.3131">
        <ele>244</ele>
        <time>2018-06-25T09:11:54.546Z</time>
      </trkpt>
      <trkpt lat="46.40346" lon="3.31344">
        <ele>237</ele>
        <time>2018-06-25T09:11:55.546Z</time>
      </trkpt>
      <trkpt lat="46.40291" lon="3.31379">
        <ele>231</ele>
        <time>2018-06-25T09:11:56.546Z</time>
      </trkpt>
      <trkpt lat="46.4029" lon="3.31378">
        <ele>231</ele>
        <time>2018-06-25T09:11:57.546Z</time>
      </trkpt>
      <trkpt lat="46.40274" lon="3.31399">
        <ele>228</ele>
        <time>2018-06-25T09:11:58.546Z</time>
      </trkpt>
      <trkpt lat="46.40266" lon="3.31417">
        <ele>226</ele>
        <time>2018-06-25T09:11:59.546Z</time>
      </trkpt>
      <trkpt lat="46.40312" lon="3.31353">
        <ele>235</ele>
        <time>2018-06-25T08:58:10.512Z</time>
      </trkpt>
      <trkpt lat="46.40313" lon="3.31358">
        <ele>234</ele>
        <time>2018-06-25T08:58:11.512Z</time>
      </trkpt>
      <trkpt lat="46.40287" lon="3.31381">
        <ele>231</ele>
        <time>2018-06-25T08:58:12.512Z</time>
      </trkpt>
      <trkpt lat="46.40274" lon="3.31399">
        <ele>228</ele>
        <time>2018-06-25T08:58:13.512Z</time>
      </trkpt>
      <trkpt lat="46.40264" lon="3.31422">
        <ele>226</ele>
        <time>2018-06-25T08:58:14.512Z</time>
      </trkpt>
      <trkpt lat="46.40257" lon="3.31449">
        <ele>225</ele>
        <time>2018-06-25T08:58:15.512Z</time>
      </trkpt>
      <trkpt lat="46.40253" lon="3.31471">
        <ele>223</ele>
        <time>2018-06-25T08:58:16.512Z</time>
      </trkpt>
      <trkpt lat="46.4024" lon="3.31474">
        <ele>223</ele>
        <time>2018-06-25T08:58:17.512Z</time>
      </trkpt>
      <trkpt lat="46.40097" lon="3.31436">
        <ele>222</ele>
        <time>2018-06-25T08:58:18.512Z</time>
      </trkpt>
      <trkpt lat="46.39909" lon="3.31331">
        <ele>223</ele>
        <time>2018-06-25T08:58:19.512Z</time>
      </trkpt>
      <trkpt lat="46.3974" lon="3.31218">
        <ele>227</ele>
        <time>2018-06-25T08:58:20.512Z</time>
      </trkpt>
      <trkpt lat="46.39726" lon="3.31224">
        <ele>226</ele>
        <time>2018-06-25T08:58:21.512Z</time>
      </trkpt>
      <trkpt lat="46.39494" lon="3.31115">
        <ele>224</ele>
        <time>2018-06-25T08:58:22.512Z</time>
      </trkpt>
      <trkpt lat="46.39454" lon="3.31108">
        <ele>223</ele>
        <time>2018-06-25T08:58:23.512Z</time>
      </trkpt>
      <trkpt lat="46.39295" lon="3.31034">
        <ele>229</ele>
        <time>2018-06-25T08:58:24.512Z</time>
      </trkpt>
      <trkpt lat="46.39197" lon="3.31009">
        <ele>228</ele>
        <time>2018-06-25T08:58:25.512Z</time>
      </trkpt>
      <trkpt lat="46.39141" lon="3.30977">
        <ele>233</ele>
        <time>2018-06-25T08:58:26.512Z</time>
      </trkpt>
      <trkpt lat="46.39063" lon="3.30907">
        <ele>239</ele>
        <time>2018-06-25T08:58:27.512Z</time>
      </trkpt>
      <trkpt lat="46.38987" lon="3.30864">
        <ele>238</ele>
        <time>2018-06-25T08:58:28.512Z</time>
      </trkpt>
      <trkpt lat="46.38976" lon="3.30881">
        <ele>234</ele>
        <time>2018-06-25T08:58:29.512Z</time>
      </trkpt>
      <trkpt lat="46.38931" lon="3.30877">
        <ele>229</ele>
        <time>2018-06-25T08:58:30.512Z</time>
      </trkpt>
      <trkpt lat="46.38862" lon="3.30837">
        <ele>227</ele>
        <time>2018-06-25T08:58:31.512Z</time>
      </trkpt>
      <trkpt lat="46.38781" lon="3.30824">
        <ele>224</ele>
        <time>2018-06-25T08:58:32.512Z</time>
      </trkpt>
      <trkpt lat="46.38722" lon="3.3079">
        <ele>225</ele>
        <time>2018-06-25T08:58:33.512Z</time>
      </trkpt>
      <trkpt lat="46.38666" lon="3.30797">
        <ele>222</ele>
        <time>2018-06-25T08:58:34.512Z</time>
      </trkpt>
      <trkpt lat="46.38588" lon="3.30828">
        <ele>221</ele>
        <time>2018-06-25T08:58:35.512Z</time>
      </trkpt>
      <trkpt lat="46.38528" lon="3.3079">
        <ele>222</ele>
        <time>2018-06-25T08:58:36.512Z</time>
      </trkpt>
      <trkpt lat="46.3849" lon="3.30747">
        <ele>222</ele>
        <time>2018-06-25T08:58:37.512Z</time>
      </trkpt>
      <trkpt lat="46.3838" lon="3.30713">
        <ele>226</ele>
        <time>2018-06-25T08:58:38.512Z</time>
      </trkpt>
      <trkpt lat="46.38233" lon="3.30712">
        <ele>229</ele>
        <time>2018-06-25T08:58:39.512Z</time>
      </trkpt>
      <trkpt lat="46.38139" lon="3.30689">
        <ele>237</ele>
        <time>2018-06-25T08:58:40.512Z</time>
      </trkpt>
      <trkpt lat="46.3806" lon="3.30681">
        <ele>240</ele>
        <time>2018-06-25T08:58:41.512Z</time>
      </trkpt>
      <trkpt lat="46.37859" lon="3.30703">
        <ele>236</ele>
        <time>2018-06-25T08:58:42.512Z</time>
      </trkpt>
      <trkpt lat="46.37715" lon="3.30687">
        <ele>231</ele>
        <time>2018-06-25T08:58:43.512Z</time>
      </trkpt>
      <trkpt lat="46.3769" lon="3.30676">
        <ele>230</ele>
        <time>2018-06-25T08:58:44.512Z</time>
      </trkpt>
      <trkpt lat="46.37667" lon="3.30576">
        <ele>238</ele>
        <time>2018-06-25T08:58:45.512Z</time>
      </trkpt>
      <trkpt lat="46.37604" lon="3.30483">
        <ele>239</ele>
        <time>2018-06-25T08:58:46.512Z</time>
      </trkpt>
      <trkpt lat="46.3756" lon="3.30513">
        <ele>239</ele>
        <time>2018-06-25T08:58:47.512Z</time>
      </trkpt>
      <trkpt lat="46.37538" lon="3.30465">
        <ele>243</ele>
        <time>2018-06-25T08:58:48.512Z</time>
      </trkpt>
      <trkpt lat="46.37512" lon="3.30348">
        <ele>250</ele>
        <time>2018-06-25T08:58:49.512Z</time>
      </trkpt>
      <trkpt lat="46.37487" lon="3.30312">
        <ele>254</ele>
        <time>2018-06-25T08:58:50.512Z</time>
      </trkpt>
      <trkpt lat="46.37418" lon="3.30119">
        <ele>268</ele>
        <time>2018-06-25T08:58:51.512Z</time>
      </trkpt>
      <trkpt lat="46.37403" lon="3.30096">
        <ele>270</ele>
        <time>2018-06-25T08:58:52.512Z</time>
      </trkpt>
      <trkpt lat="46.37321" lon="3.30152">
        <ele>279</ele>
        <time>2018-06-25T08:58:53.512Z</time>
      </trkpt>
      <trkpt lat="46.37284" lon="3.30163">
        <ele>280</ele>
        <time>2018-06-25T08:58:54.512Z</time>
      </trkpt>
      <trkpt lat="46.37039" lon="3.30153">
        <ele>282</ele>
        <time>2018-06-25T08:58:55.512Z</time>
      </trkpt>
      <trkpt lat="46.36989" lon="3.30161">
        <ele>281</ele>
        <time>2018-06-25T08:58:56.512Z</time>
      </trkpt>
      <trkpt lat="46.36975" lon="3.30149">
        <ele>282</ele>
        <time>2018-06-25T08:58:57.512Z</time>
      </trkpt>
      <trkpt lat="46.36965" lon="3.30126">
        <ele>283</ele>
        <time>2018-06-25T08:58:58.512Z</time>
      </trkpt>
      <trkpt lat="46.36705" lon="3.29979">
        <ele>279</ele>
        <time>2018-06-25T08:58:59.512Z</time>
      </trkpt>
      <trkpt lat="46.36709" lon="3.2991">
        <ele>285</ele>
        <time>2018-06-25T08:59:00.512Z</time>
      </trkpt>
      <trkpt lat="46.36781" lon="3.29762">
        <ele>292</ele>
        <time>2018-06-25T08:59:01.512Z</time>
      </trkpt>
      <trkpt lat="46.36779" lon="3.29717">
        <ele>291</ele>
        <time>2018-06-25T08:59:02.512Z</time>
      </trkpt>
      <trkpt lat="46.36788" lon="3.29672">
        <ele>291</ele>
        <time>2018-06-25T08:59:03.512Z</time>
      </trkpt>
      <trkpt lat="46.36721" lon="3.29634">
        <ele>287</ele>
        <time>2018-06-25T08:59:04.512Z</time>
      </trkpt>
      <trkpt lat="46.36622" lon="3.29554">
        <ele>290</ele>
        <time>2018-06-25T08:59:05.512Z</time>
      </trkpt>
      <trkpt lat="46.36567" lon="3.29544">
        <ele>290</ele>
        <time>2018-06-25T08:59:06.512Z</time>
      </trkpt>
      <trkpt lat="46.36564" lon="3.29446">
        <ele>292</ele>
        <time>2018-06-25T08:59:07.512Z</time>
      </trkpt>
      <trkpt lat="46.36618" lon="3.29226">
        <ele>298</ele>
        <time>2018-06-25T08:59:08.512Z</time>
      </trkpt>
      <trkpt lat="46.36452" lon="3.29002">
        <ele>295</ele>
        <time>2018-06-25T08:59:09.512Z</time>
      </trkpt>
      <trkpt lat="46.36425" lon="3.28992">
        <ele>294</ele>
        <time>2018-06-25T08:59:10.512Z</time>
      </trkpt>
      <trkpt lat="46.3637" lon="3.28993">
        <ele>295</ele>
        <time>2018-06-25T08:59:11.512Z</time>
      </trkpt>
      <trkpt lat="46.36207" lon="3.2892">
        <ele>300</ele>
        <time>2018-06-25T08:59:12.512Z</time>
      </trkpt>
      <trkpt lat="46.36068" lon="3.2884">
        <ele>302</ele>
        <time>2018-06-25T08:59:13.512Z</time>
      </trkpt>
      <trkpt lat="46.36043" lon="3.28816">
        <ele>301</ele>
        <time>2018-06-25T08:59:14.512Z</time>
      </trkpt>
      <trkpt lat="46.36008" lon="3.28758">
        <ele>301</ele>
        <time>2018-06-25T08:59:15.512Z</time>
      </trkpt>
      <trkpt lat="46.36054" lon="3.28556">
        <ele>305</ele>
        <time>2018-06-25T08:59:16.512Z</time>
      </trkpt>
      <trkpt lat="46.36073" lon="3.28504">
        <ele>305</ele>
        <time>2018-06-25T08:59:17.512Z</time>
      </trkpt>
      <trkpt lat="46.36099" lon="3.28369">
        <ele>305</ele>
        <time>2018-06-25T08:59:18.512Z</time>
      </trkpt>
      <trkpt lat="46.36084" lon="3.2824">
        <ele>305</ele>
        <time>2018-06-25T08:59:19.512Z</time>
      </trkpt>
      <trkpt lat="46.36084" lon="3.28069">
        <ele>297</ele>
        <time>2018-06-25T08:59:20.512Z</time>
      </trkpt>
      <trkpt lat="46.36015" lon="3.27743">
        <ele>296</ele>
        <time>2018-06-25T08:59:21.512Z</time>
      </trkpt>
      <trkpt lat="46.3601" lon="3.27636">
        <ele>289</ele>
        <time>2018-06-25T08:59:22.512Z</time>
      </trkpt>
      <trkpt lat="46.35996" lon="3.27583">
        <ele>285</ele>
        <time>2018-06-25T08:59:23.512Z</time>
      </trkpt>
      <trkpt lat="46.35941" lon="3.27458">
        <ele>283</ele>
        <time>2018-06-25T08:59:24.512Z</time>
      </trkpt>
      <trkpt lat="46.35916" lon="3.27342">
        <ele>279</ele>
        <time>2018-06-25T08:59:25.512Z</time>
      </trkpt>
      <trkpt lat="46.3586" lon="3.27198">
        <ele>273</ele>
        <time>2018-06-25T08:59:26.512Z</time>
      </trkpt>
      <trkpt lat="46.35854" lon="3.27164">
        <ele>269</ele>
        <time>2018-06-25T08:59:27.512Z</time>
      </trkpt>
      <trkpt lat="46.35853" lon="3.26919">
        <ele>267</ele>
        <time>2018-06-25T08:59:28.512Z</time>
      </trkpt>
      <trkpt lat="46.35829" lon="3.26825">
        <ele>267</ele>
        <time>2018-06-25T08:59:29.512Z</time>
      </trkpt>
      <trkpt lat="46.35759" lon="3.26654">
        <ele>258</ele>
        <time>2018-06-25T08:59:30.512Z</time>
      </trkpt>
      <trkpt lat="46.35434" lon="3.26314">
        <ele>260</ele>
        <time>2018-06-25T08:59:31.512Z</time>
      </trkpt>
      <trkpt lat="46.35245" lon="3.26173">
        <ele>252</ele>
        <time>2018-06-25T08:59:32.512Z</time>
      </trkpt>
      <trkpt lat="46.35196" lon="3.26124">
        <ele>250</ele>
        <time>2018-06-25T08:59:33.512Z</time>
      </trkpt>
      <trkpt lat="46.34904" lon="3.25752">
        <ele>245</ele>
        <time>2018-06-25T08:59:34.512Z</time>
      </trkpt>
      <trkpt lat="46.34882" lon="3.2571">
        <ele>245</ele>
        <time>2018-06-25T08:59:35.512Z</time>
      </trkpt>
      <trkpt lat="46.34867" lon="3.25652">
        <ele>246</ele>
        <time>2018-06-25T08:59:36.512Z</time>
      </trkpt>
      <trkpt lat="46.349" lon="3.25485">
        <ele>248</ele>
        <time>2018-06-25T08:59:37.512Z</time>
      </trkpt>
      <trkpt lat="46.34897" lon="3.25441">
        <ele>248</ele>
        <time>2018-06-25T08:59:38.512Z</time>
      </trkpt>
      <trkpt lat="46.34869" lon="3.254">
        <ele>249</ele>
        <time>2018-06-25T08:59:39.512Z</time>
      </trkpt>
      <trkpt lat="46.34838" lon="3.25334">
        <ele>249</ele>
        <time>2018-06-25T08:59:40.512Z</time>
      </trkpt>
      <trkpt lat="46.34777" lon="3.25299">
        <ele>252</ele>
        <time>2018-06-25T08:59:41.512Z</time>
      </trkpt>
      <trkpt lat="46.34736" lon="3.25315">
        <ele>254</ele>
        <time>2018-06-25T08:59:42.512Z</time>
      </trkpt>
      <trkpt lat="46.3467" lon="3.2531">
        <ele>261</ele>
        <time>2018-06-25T08:59:43.512Z</time>
      </trkpt>
      <trkpt lat="46.34587" lon="3.25191">
        <ele>272</ele>
        <time>2018-06-25T08:59:44.512Z</time>
      </trkpt>
      <trkpt lat="46.34605" lon="3.25161">
        <ele>272</ele>
        <time>2018-06-25T08:59:45.512Z</time>
      </trkpt>
      <trkpt lat="46.34593" lon="3.25147">
        <ele>273</ele>
        <time>2018-06-25T08:59:46.512Z</time>
      </trkpt>
      <trkpt lat="46.34564" lon="3.25241">
        <ele>272</ele>
        <time>2018-06-25T08:59:47.512Z</time>
      </trkpt>
      <trkpt lat="46.34579" lon="3.25407">
        <ele>268</ele>
        <time>2018-06-25T08:59:48.512Z</time>
      </trkpt>
      <trkpt lat="46.34559" lon="3.25548">
        <ele>268</ele>
        <time>2018-06-25T08:59:49.512Z</time>
      </trkpt>
      <trkpt lat="46.34468" lon="3.25692">
        <ele>268</ele>
        <time>2018-06-25T08:59:50.512Z</time>
      </trkpt>
      <trkpt lat="46.34403" lon="3.25753">
        <ele>269</ele>
        <time>2018-06-25T08:59:51.512Z</time>
      </trkpt>
      <trkpt lat="46.34396" lon="3.25775">
        <ele>268</ele>
        <time>2018-06-25T08:59:52.512Z</time>
      </trkpt>
      <trkpt lat="46.34416" lon="3.26058">
        <ele>264</ele>
        <time>2018-06-25T08:59:53.512Z</time>
      </trkpt>
      <trkpt lat="46.34352" lon="3.26172">
        <ele>257</ele>
        <time>2018-06-25T08:59:54.512Z</time>
      </trkpt>
      <trkpt lat="46.34305" lon="3.2628">
        <ele>252</ele>
        <time>2018-06-25T08:59:55.512Z</time>
      </trkpt>
      <trkpt lat="46.3432" lon="3.26375">
        <ele>249</ele>
        <time>2018-06-25T08:59:56.512Z</time>
      </trkpt>
      <trkpt lat="46.34285" lon="3.26415">
        <ele>248</ele>
        <time>2018-06-25T08:59:57.512Z</time>
      </trkpt>
      <trkpt lat="46.34248" lon="3.26481">
        <ele>250</ele>
        <time>2018-06-25T08:59:58.512Z</time>
      </trkpt>
      <trkpt lat="46.3421" lon="3.26501">
        <ele>254</ele>
        <time>2018-06-25T08:59:59.512Z</time>
      </trkpt>
      <trkpt lat="46.3422" lon="3.2663">
        <ele>257</ele>
        <time>2018-06-25T09:00:00.512Z</time>
      </trkpt>
      <trkpt lat="46.34215" lon="3.26728">
        <ele>261</ele>
        <time>2018-06-25T09:00:01.512Z</time>
      </trkpt>
      <trkpt lat="46.34173" lon="3.26916">
        <ele>273</ele>
        <time>2018-06-25T09:00:02.512Z</time>
      </trkpt>
      <trkpt lat="46.34107" lon="3.27014">
        <ele>284</ele>
        <time>2018-06-25T09:00:03.512Z</time>
      </trkpt>
      <trkpt lat="46.3403" lon="3.26827">
        <ele>290</ele>
        <time>2018-06-25T09:00:04.512Z</time>
      </trkpt>
      <trkpt lat="46.33984" lon="3.26785">
        <ele>294</ele>
        <time>2018-06-25T09:00:05.512Z</time>
      </trkpt>
      <trkpt lat="46.33887" lon="3.26805">
        <ele>295</ele>
        <time>2018-06-25T09:00:06.512Z</time>
      </trkpt>
      <trkpt lat="46.33642" lon="3.26757">
        <ele>291</ele>
        <time>2018-06-25T09:00:07.512Z</time>
      </trkpt>
      <trkpt lat="46.33616" lon="3.26792">
        <ele>289</ele>
        <time>2018-06-25T09:00:08.512Z</time>
      </trkpt>
      <trkpt lat="46.33597" lon="3.26797">
        <ele>288</ele>
        <time>2018-06-25T09:00:09.512Z</time>
      </trkpt>
      <trkpt lat="46.33522" lon="3.26785">
        <ele>285</ele>
        <time>2018-06-25T09:00:10.512Z</time>
      </trkpt>
      <trkpt lat="46.33499" lon="3.26718">
        <ele>286</ele>
        <time>2018-06-25T09:00:11.512Z</time>
      </trkpt>
      <trkpt lat="46.33428" lon="3.26675">
        <ele>287</ele>
        <time>2018-06-25T09:00:12.512Z</time>
      </trkpt>
      <trkpt lat="46.33309" lon="3.26641">
        <ele>285</ele>
        <time>2018-06-25T09:00:13.512Z</time>
      </trkpt>
      <trkpt lat="46.33148" lon="3.26569">
        <ele>282</ele>
        <time>2018-06-25T09:00:14.512Z</time>
      </trkpt>
      <trkpt lat="46.33071" lon="3.26521">
        <ele>282</ele>
        <time>2018-06-25T09:00:15.512Z</time>
      </trkpt>
      <trkpt lat="46.3302" lon="3.26529">
        <ele>281</ele>
        <time>2018-06-25T09:00:16.512Z</time>
      </trkpt>
      <trkpt lat="46.32957" lon="3.2656">
        <ele>278</ele>
        <time>2018-06-25T09:00:17.512Z</time>
      </trkpt>
      <trkpt lat="46.32839" lon="3.26535">
        <ele>275</ele>
        <time>2018-06-25T09:00:18.512Z</time>
      </trkpt>
      <trkpt lat="46.32835" lon="3.26518">
        <ele>276</ele>
        <time>2018-06-25T09:00:19.512Z</time>
      </trkpt>
      <trkpt lat="46.32847" lon="3.26409">
        <ele>281</ele>
        <time>2018-06-25T09:00:20.512Z</time>
      </trkpt>
      <trkpt lat="46.32846" lon="3.26347">
        <ele>283</ele>
        <time>2018-06-25T09:00:21.512Z</time>
      </trkpt>
      <trkpt lat="46.32776" lon="3.26336">
        <ele>279</ele>
        <time>2018-06-25T09:00:22.512Z</time>
      </trkpt>
      <trkpt lat="46.32683" lon="3.26348">
        <ele>272</ele>
        <time>2018-06-25T09:00:23.512Z</time>
      </trkpt>
      <trkpt lat="46.32581" lon="3.26383">
        <ele>266</ele>
        <time>2018-06-25T09:00:24.512Z</time>
      </trkpt>
      <trkpt lat="46.32544" lon="3.26284">
        <ele>268</ele>
        <time>2018-06-25T09:00:25.512Z</time>
      </trkpt>
      <trkpt lat="46.32523" lon="3.26253">
        <ele>269</ele>
        <time>2018-06-25T09:00:26.512Z</time>
      </trkpt>
      <trkpt lat="46.32499" lon="3.26191">
        <ele>272</ele>
        <time>2018-06-25T09:00:27.512Z</time>
      </trkpt>
      <trkpt lat="46.32466" lon="3.26182">
        <ele>272</ele>
        <time>2018-06-25T09:00:28.512Z</time>
      </trkpt>
      <trkpt lat="46.32465" lon="3.26187">
        <ele>272</ele>
        <time>2018-06-25T09:00:29.512Z</time>
      </trkpt>
      <trkpt lat="46.32334" lon="3.26113">
        <ele>275</ele>
        <time>2018-06-25T09:00:30.512Z</time>
      </trkpt>
      <trkpt lat="46.32293" lon="3.26099">
        <ele>275</ele>
        <time>2018-06-25T09:00:31.512Z</time>
      </trkpt>
      <trkpt lat="46.32281" lon="3.26099">
        <ele>274</ele>
        <time>2018-06-25T09:00:32.512Z</time>
      </trkpt>
      <trkpt lat="46.32262" lon="3.26124">
        <ele>273</ele>
        <time>2018-06-25T09:00:33.512Z</time>
      </trkpt>
      <trkpt lat="46.32188" lon="3.2611">
        <ele>268</ele>
        <time>2018-06-25T09:00:34.512Z</time>
      </trkpt>
      <trkpt lat="46.32144" lon="3.26079">
        <ele>265</ele>
        <time>2018-06-25T09:00:35.512Z</time>
      </trkpt>
      <trkpt lat="46.32083" lon="3.25986">
        <ele>264</ele>
        <time>2018-06-25T09:00:36.512Z</time>
      </trkpt>
      <trkpt lat="46.32055" lon="3.25975">
        <ele>262</ele>
        <time>2018-06-25T09:00:37.512Z</time>
      </trkpt>
      <trkpt lat="46.32014" lon="3.26006">
        <ele>256</ele>
        <time>2018-06-25T09:00:38.512Z</time>
      </trkpt>
      <trkpt lat="46.31927" lon="3.26107">
        <ele>250</ele>
        <time>2018-06-25T09:00:39.512Z</time>
      </trkpt>
      <trkpt lat="46.31862" lon="3.26086">
        <ele>249</ele>
        <time>2018-06-25T09:00:40.512Z</time>
      </trkpt>
      <trkpt lat="46.3182" lon="3.26088">
        <ele>249</ele>
        <time>2018-06-25T09:00:41.512Z</time>
      </trkpt>
      <trkpt lat="46.31778" lon="3.26117">
        <ele>248</ele>
        <time>2018-06-25T09:00:42.512Z</time>
      </trkpt>
      <trkpt lat="46.31724" lon="3.26116">
        <ele>249</ele>
        <time>2018-06-25T09:00:43.512Z</time>
      </trkpt>
      <trkpt lat="46.31607" lon="3.26046">
        <ele>249</ele>
        <time>2018-06-25T09:00:44.512Z</time>
      </trkpt>
      <trkpt lat="46.31605" lon="3.26022">
        <ele>249</ele>
        <time>2018-06-25T09:00:45.512Z</time>
      </trkpt>
      <trkpt lat="46.31576" lon="3.25983">
        <ele>249</ele>
        <time>2018-06-25T09:00:46.512Z</time>
      </trkpt>
      <trkpt lat="46.31536" lon="3.25953">
        <ele>249</ele>
        <time>2018-06-25T09:00:47.512Z</time>
      </trkpt>
      <trkpt lat="46.31514" lon="3.25949">
        <ele>248</ele>
        <time>2018-06-25T09:00:48.512Z</time>
      </trkpt>
      <trkpt lat="46.31279" lon="3.25793">
        <ele>247</ele>
        <time>2018-06-25T09:00:49.512Z</time>
      </trkpt>
      <trkpt lat="46.31239" lon="3.25792">
        <ele>247</ele>
        <time>2018-06-25T09:00:50.512Z</time>
      </trkpt>
      <trkpt lat="46.31044" lon="3.25722">
        <ele>246</ele>
        <time>2018-06-25T09:00:51.512Z</time>
      </trkpt>
      <trkpt lat="46.3101" lon="3.25702">
        <ele>247</ele>
        <time>2018-06-25T09:00:52.512Z</time>
      </trkpt>
      <trkpt lat="46.30962" lon="3.25653">
        <ele>246</ele>
        <time>2018-06-25T09:00:53.512Z</time>
      </trkpt>
      <trkpt lat="46.30924" lon="3.2558">
        <ele>245</ele>
        <time>2018-06-25T09:00:54.512Z</time>
      </trkpt>
      <trkpt lat="46.30902" lon="3.25514">
        <ele>247</ele>
        <time>2018-06-25T09:00:55.512Z</time>
      </trkpt>
      <trkpt lat="46.30822" lon="3.25434">
        <ele>246</ele>
        <time>2018-06-25T09:00:56.512Z</time>
      </trkpt>
      <trkpt lat="46.30753" lon="3.25318">
        <ele>250</ele>
        <time>2018-06-25T09:00:57.512Z</time>
      </trkpt>
      <trkpt lat="46.30756" lon="3.25253">
        <ele>252</ele>
        <time>2018-06-25T09:00:58.512Z</time>
      </trkpt>
      <trkpt lat="46.3071" lon="3.25097">
        <ele>257</ele>
        <time>2018-06-25T09:00:59.512Z</time>
      </trkpt>
      <trkpt lat="46.30684" lon="3.24971">
        <ele>260</ele>
        <time>2018-06-25T09:01:00.512Z</time>
      </trkpt>
      <trkpt lat="46.30649" lon="3.24909">
        <ele>259</ele>
        <time>2018-06-25T09:01:01.512Z</time>
      </trkpt>
      <trkpt lat="46.30646" lon="3.24834">
        <ele>261</ele>
        <time>2018-06-25T09:01:02.512Z</time>
      </trkpt>
      <trkpt lat="46.30666" lon="3.24744">
        <ele>266</ele>
        <time>2018-06-25T09:01:03.512Z</time>
      </trkpt>
      <trkpt lat="46.30665" lon="3.24656">
        <ele>268</ele>
        <time>2018-06-25T09:01:04.512Z</time>
      </trkpt>
      <trkpt lat="46.30694" lon="3.24567">
        <ele>272</ele>
        <time>2018-06-25T09:01:05.512Z</time>
      </trkpt>
      <trkpt lat="46.30693" lon="3.24538">
        <ele>273</ele>
        <time>2018-06-25T09:01:06.512Z</time>
      </trkpt>
      <trkpt lat="46.30673" lon="3.24519">
        <ele>272</ele>
        <time>2018-06-25T09:01:07.512Z</time>
      </trkpt>
      <trkpt lat="46.30618" lon="3.24521">
        <ele>272</ele>
        <time>2018-06-25T09:01:08.512Z</time>
      </trkpt>
      <trkpt lat="46.30588" lon="3.24536">
        <ele>270</ele>
        <time>2018-06-25T09:01:09.512Z</time>
      </trkpt>
      <trkpt lat="46.3057" lon="3.24532">
        <ele>270</ele>
        <time>2018-06-25T09:01:10.512Z</time>
      </trkpt>
      <trkpt lat="46.30512" lon="3.24472">
        <ele>270</ele>
        <time>2018-06-25T09:01:11.512Z</time>
      </trkpt>
      <trkpt lat="46.30402" lon="3.24419">
        <ele>270</ele>
        <time>2018-06-25T09:01:12.512Z</time>
      </trkpt>
      <trkpt lat="46.30375" lon="3.24393">
        <ele>270</ele>
        <time>2018-06-25T09:01:13.512Z</time>
      </trkpt>
      <trkpt lat="46.30322" lon="3.24314">
        <ele>272</ele>
        <time>2018-06-25T09:01:14.512Z</time>
      </trkpt>
      <trkpt lat="46.30112" lon="3.24203">
        <ele>273</ele>
        <time>2018-06-25T09:01:15.512Z</time>
      </trkpt>
      <trkpt lat="46.30107" lon="3.24189">
        <ele>273</ele>
        <time>2018-06-25T09:01:16.512Z</time>
      </trkpt>
      <trkpt lat="46.30144" lon="3.24048">
        <ele>280</ele>
        <time>2018-06-25T09:01:17.512Z</time>
      </trkpt>
      <trkpt lat="46.30095" lon="3.23995">
        <ele>281</ele>
        <time>2018-06-25T09:01:18.512Z</time>
      </trkpt>
      <trkpt lat="46.301" lon="3.23968">
        <ele>282</ele>
        <time>2018-06-25T09:01:19.512Z</time>
      </trkpt>
      <trkpt lat="46.30077" lon="3.23917">
        <ele>282</ele>
        <time>2018-06-25T09:01:20.512Z</time>
      </trkpt>
      <trkpt lat="46.3004" lon="3.23873">
        <ele>282</ele>
        <time>2018-06-25T09:01:21.512Z</time>
      </trkpt>
      <trkpt lat="46.29988" lon="3.2378">
        <ele>283</ele>
        <time>2018-06-25T09:01:22.512Z</time>
      </trkpt>
      <trkpt lat="46.29932" lon="3.23725">
        <ele>283</ele>
        <time>2018-06-25T09:01:23.512Z</time>
      </trkpt>
      <trkpt lat="46.30058" lon="3.23437">
        <ele>292</ele>
        <time>2018-06-25T09:01:24.512Z</time>
      </trkpt>
      <trkpt lat="46.30065" lon="3.23289">
        <ele>295</ele>
        <time>2018-06-25T09:01:25.512Z</time>
      </trkpt>
      <trkpt lat="46.30054" lon="3.23122">
        <ele>304</ele>
        <time>2018-06-25T09:01:26.512Z</time>
      </trkpt>
      <trkpt lat="46.30074" lon="3.22921">
        <ele>317</ele>
        <time>2018-06-25T09:01:27.512Z</time>
      </trkpt>
      <trkpt lat="46.30078" lon="3.22702">
        <ele>326</ele>
        <time>2018-06-25T09:01:28.512Z</time>
      </trkpt>
      <trkpt lat="46.30133" lon="3.22372">
        <ele>335</ele>
        <time>2018-06-25T09:01:29.512Z</time>
      </trkpt>
      <trkpt lat="46.3018" lon="3.22199">
        <ele>336</ele>
        <time>2018-06-25T09:01:30.512Z</time>
      </trkpt>
      <trkpt lat="46.30208" lon="3.21969">
        <ele>339</ele>
        <time>2018-06-25T09:01:31.512Z</time>
      </trkpt>
      <trkpt lat="46.29873" lon="3.21837">
        <ele>328</ele>
        <time>2018-06-25T09:01:32.512Z</time>
      </trkpt>
      <trkpt lat="46.29766" lon="3.21771">
        <ele>319</ele>
        <time>2018-06-25T09:01:33.512Z</time>
      </trkpt>
      <trkpt lat="46.29621" lon="3.21769">
        <ele>312</ele>
        <time>2018-06-25T09:01:34.512Z</time>
      </trkpt>
      <trkpt lat="46.29498" lon="3.21805">
        <ele>307</ele>
        <time>2018-06-25T09:01:35.512Z</time>
      </trkpt>
      <trkpt lat="46.2935" lon="3.21751">
        <ele>302</ele>
        <time>2018-06-25T09:01:36.512Z</time>
      </trkpt>
      <trkpt lat="46.29192" lon="3.21657">
        <ele>297</ele>
        <time>2018-06-25T09:01:37.512Z</time>
      </trkpt>
      <trkpt lat="46.28953" lon="3.21545">
        <ele>292</ele>
        <time>2018-06-25T09:01:38.512Z</time>
      </trkpt>
      <trkpt lat="46.28814" lon="3.21444">
        <ele>289</ele>
        <time>2018-06-25T09:01:39.512Z</time>
      </trkpt>
      <trkpt lat="46.28762" lon="3.21422">
        <ele>288</ele>
        <time>2018-06-25T09:01:40.512Z</time>
      </trkpt>
      <trkpt lat="46.28493" lon="3.2125">
        <ele>283</ele>
        <time>2018-06-25T09:01:41.512Z</time>
      </trkpt>
      <trkpt lat="46.28353" lon="3.21193">
        <ele>282</ele>
        <time>2018-06-25T09:01:42.512Z</time>
      </trkpt>
      <trkpt lat="46.28278" lon="3.21179">
        <ele>280</ele>
        <time>2018-06-25T09:01:43.512Z</time>
      </trkpt>
      <trkpt lat="46.27981" lon="3.20999">
        <ele>270</ele>
        <time>2018-06-25T09:01:44.512Z</time>
      </trkpt>
      <trkpt lat="46.27979" lon="3.20971">
        <ele>270</ele>
        <time>2018-06-25T09:01:45.512Z</time>
      </trkpt>
      <trkpt lat="46.28006" lon="3.20846">
        <ele>271</ele>
        <time>2018-06-25T09:01:46.512Z</time>
      </trkpt>
      <trkpt lat="46.27949" lon="3.20574">
        <ele>282</ele>
        <time>2018-06-25T09:01:47.512Z</time>
      </trkpt>
      <trkpt lat="46.27955" lon="3.20531">
        <ele>283</ele>
        <time>2018-06-25T09:01:48.512Z</time>
      </trkpt>
      <trkpt lat="46.28023" lon="3.20303">
        <ele>287</ele>
        <time>2018-06-25T09:01:49.512Z</time>
      </trkpt>
      <trkpt lat="46.28061" lon="3.20021">
        <ele>297</ele>
        <time>2018-06-25T09:01:50.512Z</time>
      </trkpt>
      <trkpt lat="46.28059" lon="3.1961">
        <ele>305</ele>
        <time>2018-06-25T09:01:51.512Z</time>
      </trkpt>
      <trkpt lat="46.28088" lon="3.19167">
        <ele>319</ele>
        <time>2018-06-25T09:01:52.512Z</time>
      </trkpt>
      <trkpt lat="46.28086" lon="3.18769">
        <ele>331</ele>
        <time>2018-06-25T09:01:53.512Z</time>
      </trkpt>
      <trkpt lat="46.28047" lon="3.18631">
        <ele>336</ele>
        <time>2018-06-25T09:01:54.512Z</time>
      </trkpt>
      <trkpt lat="46.28088" lon="3.18399">
        <ele>346</ele>
        <time>2018-06-25T09:01:55.512Z</time>
      </trkpt>
      <trkpt lat="46.28158" lon="3.18185">
        <ele>356</ele>
        <time>2018-06-25T09:01:56.512Z</time>
      </trkpt>
      <trkpt lat="46.28192" lon="3.18043">
        <ele>362</ele>
        <time>2018-06-25T09:01:57.512Z</time>
      </trkpt>
      <trkpt lat="46.28185" lon="3.17846">
        <ele>367</ele>
        <time>2018-06-25T09:01:58.512Z</time>
      </trkpt>
      <trkpt lat="46.28146" lon="3.17739">
        <ele>367</ele>
        <time>2018-06-25T09:01:59.512Z</time>
      </trkpt>
      <trkpt lat="46.28165" lon="3.17715">
        <ele>368</ele>
        <time>2018-06-25T09:02:00.512Z</time>
      </trkpt>
      <trkpt lat="46.28199" lon="3.17702">
        <ele>368</ele>
        <time>2018-06-25T09:02:01.512Z</time>
      </trkpt>
      <trkpt lat="46.28166" lon="3.17561">
        <ele>369</ele>
        <time>2018-06-25T09:02:02.512Z</time>
      </trkpt>
      <trkpt lat="46.28131" lon="3.17538">
        <ele>369</ele>
        <time>2018-06-25T09:02:03.512Z</time>
      </trkpt>
      <trkpt lat="46.28102" lon="3.17549">
        <ele>368</ele>
        <time>2018-06-25T09:02:04.512Z</time>
      </trkpt>
      <trkpt lat="46.27983" lon="3.17549">
        <ele>360</ele>
        <time>2018-06-25T09:02:05.512Z</time>
      </trkpt>
      <trkpt lat="46.27793" lon="3.17514">
        <ele>347</ele>
        <time>2018-06-25T09:02:06.512Z</time>
      </trkpt>
      <trkpt lat="46.27683" lon="3.17509">
        <ele>340</ele>
        <time>2018-06-25T09:02:07.512Z</time>
      </trkpt>
      <trkpt lat="46.27602" lon="3.17575">
        <ele>333</ele>
        <time>2018-06-25T09:02:08.512Z</time>
      </trkpt>
      <trkpt lat="46.27596" lon="3.17598">
        <ele>333</ele>
        <time>2018-06-25T09:02:09.512Z</time>
      </trkpt>
      <trkpt lat="46.27613" lon="3.17793">
        <ele>328</ele>
        <time>2018-06-25T09:02:10.512Z</time>
      </trkpt>
      <trkpt lat="46.276" lon="3.178">
        <ele>327</ele>
        <time>2018-06-25T09:02:11.512Z</time>
      </trkpt>
      <trkpt lat="46.27064" lon="3.17799">
        <ele>301</ele>
        <time>2018-06-25T09:02:12.512Z</time>
      </trkpt>
      <trkpt lat="46.27032" lon="3.17776">
        <ele>297</ele>
        <time>2018-06-25T09:02:13.512Z</time>
      </trkpt>
      <trkpt lat="46.26961" lon="3.17637">
        <ele>291</ele>
        <time>2018-06-25T09:02:14.512Z</time>
      </trkpt>
      <trkpt lat="46.26955" lon="3.17612">
        <ele>291</ele>
        <time>2018-06-25T09:02:15.512Z</time>
      </trkpt>
      <trkpt lat="46.26964" lon="3.17562">
        <ele>292</ele>
        <time>2018-06-25T09:02:16.512Z</time>
      </trkpt>
      <trkpt lat="46.26925" lon="3.17394">
        <ele>292</ele>
        <time>2018-06-25T09:02:17.512Z</time>
      </trkpt>
      <trkpt lat="46.26911" lon="3.17379">
        <ele>292</ele>
        <time>2018-06-25T09:02:18.512Z</time>
      </trkpt>
      <trkpt lat="46.26897" lon="3.17377">
        <ele>293</ele>
        <time>2018-06-25T09:02:19.512Z</time>
      </trkpt>
      <trkpt lat="46.26798" lon="3.17508">
        <ele>301</ele>
        <time>2018-06-25T09:02:20.512Z</time>
      </trkpt>
      <trkpt lat="46.26759" lon="3.17548">
        <ele>303</ele>
        <time>2018-06-25T09:02:21.512Z</time>
      </trkpt>
      <trkpt lat="46.26747" lon="3.1755">
        <ele>304</ele>
        <time>2018-06-25T09:02:22.512Z</time>
      </trkpt>
      <trkpt lat="46.26685" lon="3.1737">
        <ele>310</ele>
        <time>2018-06-25T09:02:23.512Z</time>
      </trkpt>
      <trkpt lat="46.26641" lon="3.17293">
        <ele>310</ele>
        <time>2018-06-25T09:02:24.512Z</time>
      </trkpt>
      <trkpt lat="46.26566" lon="3.17285">
        <ele>312</ele>
        <time>2018-06-25T09:02:25.512Z</time>
      </trkpt>
      <trkpt lat="46.2632" lon="3.1722">
        <ele>311</ele>
        <time>2018-06-25T09:02:26.512Z</time>
      </trkpt>
      <trkpt lat="46.26211" lon="3.17159">
        <ele>308</ele>
        <time>2018-06-25T09:02:27.512Z</time>
      </trkpt>
      <trkpt lat="46.26078" lon="3.17023">
        <ele>309</ele>
        <time>2018-06-25T09:02:28.512Z</time>
      </trkpt>
      <trkpt lat="46.26035" lon="3.16999">
        <ele>309</ele>
        <time>2018-06-25T09:02:29.512Z</time>
      </trkpt>
      <trkpt lat="46.25841" lon="3.16833">
        <ele>314</ele>
        <time>2018-06-25T09:02:30.512Z</time>
      </trkpt>
      <trkpt lat="46.25652" lon="3.16714">
        <ele>317</ele>
        <time>2018-06-25T09:02:31.512Z</time>
      </trkpt>
      <trkpt lat="46.25495" lon="3.16562">
        <ele>319</ele>
        <time>2018-06-25T09:02:32.512Z</time>
      </trkpt>
      <trkpt lat="46.25488" lon="3.16545">
        <ele>319</ele>
        <time>2018-06-25T09:02:33.512Z</time>
      </trkpt>
      <trkpt lat="46.25442" lon="3.16503">
        <ele>320</ele>
        <time>2018-06-25T09:02:34.512Z</time>
      </trkpt>
      <trkpt lat="46.25424" lon="3.16468">
        <ele>320</ele>
        <time>2018-06-25T09:02:35.512Z</time>
      </trkpt>
      <trkpt lat="46.25383" lon="3.16349">
        <ele>321</ele>
        <time>2018-06-25T09:02:36.512Z</time>
      </trkpt>
      <trkpt lat="46.25334" lon="3.16234">
        <ele>323</ele>
        <time>2018-06-25T09:02:37.512Z</time>
      </trkpt>
      <trkpt lat="46.25239" lon="3.16052">
        <ele>324</ele>
        <time>2018-06-25T09:02:38.512Z</time>
      </trkpt>
      <trkpt lat="46.25189" lon="3.15985">
        <ele>322</ele>
        <time>2018-06-25T09:02:39.512Z</time>
      </trkpt>
      <trkpt lat="46.25082" lon="3.15878">
        <ele>317</ele>
        <time>2018-06-25T09:02:40.512Z</time>
      </trkpt>
      <trkpt lat="46.25039" lon="3.15819">
        <ele>319</ele>
        <time>2018-06-25T09:02:41.512Z</time>
      </trkpt>
      <trkpt lat="46.24969" lon="3.15791">
        <ele>321</ele>
        <time>2018-06-25T09:02:42.512Z</time>
      </trkpt>
      <trkpt lat="46.24858" lon="3.15695">
        <ele>325</ele>
        <time>2018-06-25T09:02:43.512Z</time>
      </trkpt>
      <trkpt lat="46.24778" lon="3.15604">
        <ele>327</ele>
        <time>2018-06-25T09:02:44.512Z</time>
      </trkpt>
      <trkpt lat="46.24703" lon="3.1548">
        <ele>328</ele>
        <time>2018-06-25T09:02:45.512Z</time>
      </trkpt>
      <trkpt lat="46.24666" lon="3.15438">
        <ele>329</ele>
        <time>2018-06-25T09:02:46.512Z</time>
      </trkpt>
      <trkpt lat="46.24623" lon="3.15411">
        <ele>327</ele>
        <time>2018-06-25T09:02:47.512Z</time>
      </trkpt>
      <trkpt lat="46.24603" lon="3.15365">
        <ele>325</ele>
        <time>2018-06-25T09:02:48.512Z</time>
      </trkpt>
      <trkpt lat="46.24595" lon="3.15327">
        <ele>324</ele>
        <time>2018-06-25T09:02:49.512Z</time>
      </trkpt>
      <trkpt lat="46.24522" lon="3.15251">
        <ele>316</ele>
        <time>2018-06-25T09:02:50.512Z</time>
      </trkpt>
      <trkpt lat="46.24438" lon="3.152">
        <ele>297</ele>
        <time>2018-06-25T09:02:51.512Z</time>
      </trkpt>
      <trkpt lat="46.24397" lon="3.15199">
        <ele>290</ele>
        <time>2018-06-25T09:02:52.512Z</time>
      </trkpt>
      <trkpt lat="46.24352" lon="3.1522">
        <ele>285</ele>
        <time>2018-06-25T09:02:53.512Z</time>
      </trkpt>
      <trkpt lat="46.24295" lon="3.15193">
        <ele>289</ele>
        <time>2018-06-25T09:02:54.512Z</time>
      </trkpt>
      <trkpt lat="46.24258" lon="3.15128">
        <ele>293</ele>
        <time>2018-06-25T09:02:55.512Z</time>
      </trkpt>
      <trkpt lat="46.2424" lon="3.15109">
        <ele>292</ele>
        <time>2018-06-25T09:02:56.512Z</time>
      </trkpt>
      <trkpt lat="46.24227" lon="3.15108">
        <ele>293</ele>
        <time>2018-06-25T09:02:57.512Z</time>
      </trkpt>
      <trkpt lat="46.24239" lon="3.15155">
        <ele>299</ele>
        <time>2018-06-25T09:02:58.512Z</time>
      </trkpt>
      <trkpt lat="46.24236" lon="3.15173">
        <ele>301</ele>
        <time>2018-06-25T09:02:59.512Z</time>
      </trkpt>
      <trkpt lat="46.24235" lon="3.15149">
        <ele>299</ele>
        <time>2018-06-25T09:03:00.512Z</time>
      </trkpt>
      <trkpt lat="46.24196" lon="3.15121">
        <ele>299</ele>
        <time>2018-06-25T09:03:01.512Z</time>
      </trkpt>
      <trkpt lat="46.24079" lon="3.15191">
        <ele>309</ele>
        <time>2018-06-25T09:03:02.512Z</time>
      </trkpt>
      <trkpt lat="46.23981" lon="3.15238">
        <ele>325</ele>
        <time>2018-06-25T09:03:03.512Z</time>
      </trkpt>
      <trkpt lat="46.23911" lon="3.15239">
        <ele>329</ele>
        <time>2018-06-25T09:03:04.512Z</time>
      </trkpt>
      <trkpt lat="46.23958" lon="3.15244">
        <ele>327</ele>
        <time>2018-06-25T09:03:05.512Z</time>
      </trkpt>
      <trkpt lat="46.23957" lon="3.15247">
        <ele>328</ele>
        <time>2018-06-25T09:03:06.512Z</time>
      </trkpt>
      <trkpt lat="46.23952" lon="3.15243">
        <ele>327</ele>
        <time>2018-06-25T09:03:07.512Z</time>
      </trkpt>
      <trkpt lat="46.23941" lon="3.15239">
        <ele>327</ele>
        <time>2018-06-25T09:03:08.512Z</time>
      </trkpt>
      <trkpt lat="46.23916" lon="3.15242">
        <ele>329</ele>
        <time>2018-06-25T09:03:09.512Z</time>
      </trkpt>
      <trkpt lat="46.23903" lon="3.15239">
        <ele>329</ele>
        <time>2018-06-25T09:03:10.512Z</time>
      </trkpt>
      <trkpt lat="46.23851" lon="3.15187">
        <ele>328</ele>
        <time>2018-06-25T09:03:11.512Z</time>
      </trkpt>
      <trkpt lat="46.23757" lon="3.1512">
        <ele>324</ele>
        <time>2018-06-25T09:03:12.512Z</time>
      </trkpt>
      <trkpt lat="46.23735" lon="3.15101">
        <ele>323</ele>
        <time>2018-06-25T09:03:13.512Z</time>
      </trkpt>
      <trkpt lat="46.2373" lon="3.15114">
        <ele>325</ele>
        <time>2018-06-25T09:03:14.512Z</time>
      </trkpt>
      <trkpt lat="46.23715" lon="3.15245">
        <ele>332</ele>
        <time>2018-06-25T09:03:15.512Z</time>
      </trkpt>
      <trkpt lat="46.23715" lon="3.15261">
        <ele>333</ele>
        <time>2018-06-25T09:03:16.512Z</time>
      </trkpt>
      <trkpt lat="46.23688" lon="3.15259">
        <ele>333</ele>
        <time>2018-06-25T09:03:17.512Z</time>
      </trkpt>
      <trkpt lat="46.23629" lon="3.15245">
        <ele>332</ele>
        <time>2018-06-25T09:03:18.512Z</time>
      </trkpt>
      <trkpt lat="46.23618" lon="3.15245">
        <ele>332</ele>
        <time>2018-06-25T09:03:19.512Z</time>
      </trkpt>
      <trkpt lat="46.23591" lon="3.15236">
        <ele>332</ele>
        <time>2018-06-25T09:03:20.512Z</time>
      </trkpt>
      <trkpt lat="46.2326" lon="3.15107">
        <ele>326</ele>
        <time>2018-06-25T09:03:21.512Z</time>
      </trkpt>
      <trkpt lat="46.23104" lon="3.15078">
        <ele>321</ele>
        <time>2018-06-25T09:03:22.512Z</time>
      </trkpt>
      <trkpt lat="46.22811" lon="3.14991">
        <ele>313</ele>
        <time>2018-06-25T09:03:23.512Z</time>
      </trkpt>
      <trkpt lat="46.22651" lon="3.14977">
        <ele>310</ele>
        <time>2018-06-25T09:03:24.512Z</time>
      </trkpt>
      <trkpt lat="46.22509" lon="3.14945">
        <ele>304</ele>
        <time>2018-06-25T09:03:25.512Z</time>
      </trkpt>
      <trkpt lat="46.22388" lon="3.14935">
        <ele>300</ele>
        <time>2018-06-25T09:03:26.512Z</time>
      </trkpt>
      <trkpt lat="46.22285" lon="3.14916">
        <ele>298</ele>
        <time>2018-06-25T09:03:27.512Z</time>
      </trkpt>
      <trkpt lat="46.22183" lon="3.14924">
        <ele>299</ele>
        <time>2018-06-25T09:03:28.512Z</time>
      </trkpt>
      <trkpt lat="46.22116" lon="3.1488">
        <ele>301</ele>
        <time>2018-06-25T09:03:29.512Z</time>
      </trkpt>
      <trkpt lat="46.22005" lon="3.14853">
        <ele>305</ele>
        <time>2018-06-25T09:03:30.512Z</time>
      </trkpt>
      <trkpt lat="46.21935" lon="3.1498">
        <ele>306</ele>
        <time>2018-06-25T09:03:31.512Z</time>
      </trkpt>
      <trkpt lat="46.21863" lon="3.15171">
        <ele>303</ele>
        <time>2018-06-25T09:03:32.512Z</time>
      </trkpt>
      <trkpt lat="46.2181" lon="3.15283">
        <ele>301</ele>
        <time>2018-06-25T09:03:33.512Z</time>
      </trkpt>
      <trkpt lat="46.21745" lon="3.15384">
        <ele>299</ele>
        <time>2018-06-25T09:03:34.512Z</time>
      </trkpt>
      <trkpt lat="46.21739" lon="3.15383">
        <ele>299</ele>
        <time>2018-06-25T09:03:35.512Z</time>
      </trkpt>
      <trkpt lat="46.21674" lon="3.15233">
        <ele>294</ele>
        <time>2018-06-25T09:03:36.512Z</time>
      </trkpt>
      <trkpt lat="46.21564" lon="3.1508">
        <ele>287</ele>
        <time>2018-06-25T09:03:37.512Z</time>
      </trkpt>
      <trkpt lat="46.215" lon="3.15102">
        <ele>282</ele>
        <time>2018-06-25T09:03:38.512Z</time>
      </trkpt>
      <trkpt lat="46.21218" lon="3.15105">
        <ele>281</ele>
        <time>2018-06-25T09:03:39.512Z</time>
      </trkpt>
      <trkpt lat="46.20917" lon="3.15321">
        <ele>275</ele>
        <time>2018-06-25T09:03:40.512Z</time>
      </trkpt>
      <trkpt lat="46.20711" lon="3.15516">
        <ele>278</ele>
        <time>2018-06-25T09:03:41.512Z</time>
      </trkpt>
      <trkpt lat="46.20601" lon="3.15515">
        <ele>283</ele>
        <time>2018-06-25T09:03:42.512Z</time>
      </trkpt>
      <trkpt lat="46.20531" lon="3.15534">
        <ele>288</ele>
        <time>2018-06-25T09:03:43.512Z</time>
      </trkpt>
      <trkpt lat="46.20512" lon="3.15518">
        <ele>289</ele>
        <time>2018-06-25T09:03:44.512Z</time>
      </trkpt>
      <trkpt lat="46.20441" lon="3.15501">
        <ele>293</ele>
        <time>2018-06-25T09:03:45.512Z</time>
      </trkpt>
      <trkpt lat="46.20027" lon="3.1535">
        <ele>341</ele>
        <time>2018-06-25T09:03:46.512Z</time>
      </trkpt>
      <trkpt lat="46.2" lon="3.15193">
        <ele>340</ele>
        <time>2018-06-25T09:03:47.512Z</time>
      </trkpt>
      <trkpt lat="46.19993" lon="3.15092">
        <ele>338</ele>
        <time>2018-06-25T09:03:48.512Z</time>
      </trkpt>
      <trkpt lat="46.19999" lon="3.1491">
        <ele>326</ele>
        <time>2018-06-25T09:03:49.512Z</time>
      </trkpt>
      <trkpt lat="46.20026" lon="3.14866">
        <ele>321</ele>
        <time>2018-06-25T09:03:50.512Z</time>
      </trkpt>
      <trkpt lat="46.20009" lon="3.1474">
        <ele>316</ele>
        <time>2018-06-25T09:03:51.512Z</time>
      </trkpt>
      <trkpt lat="46.20003" lon="3.1473">
        <ele>316</ele>
        <time>2018-06-25T09:03:52.512Z</time>
      </trkpt>
      <trkpt lat="46.19961" lon="3.14781">
        <ele>322</ele>
        <time>2018-06-25T09:03:53.512Z</time>
      </trkpt>
      <trkpt lat="46.19777" lon="3.14724">
        <ele>329</ele>
        <time>2018-06-25T09:03:54.512Z</time>
      </trkpt>
      <trkpt lat="46.19584" lon="3.1471">
        <ele>337</ele>
        <time>2018-06-25T09:03:55.512Z</time>
      </trkpt>
      <trkpt lat="46.1951" lon="3.14923">
        <ele>364</ele>
        <time>2018-06-25T09:03:56.512Z</time>
      </trkpt>
      <trkpt lat="46.19453" lon="3.14994">
        <ele>375</ele>
        <time>2018-06-25T09:03:57.512Z</time>
      </trkpt>
      <trkpt lat="46.19353" lon="3.15086">
        <ele>390</ele>
        <time>2018-06-25T09:03:58.512Z</time>
      </trkpt>
      <trkpt lat="46.19323" lon="3.15139">
        <ele>391</ele>
        <time>2018-06-25T09:03:59.512Z</time>
      </trkpt>
      <trkpt lat="46.19286" lon="3.15165">
        <ele>392</ele>
        <time>2018-06-25T09:04:00.512Z</time>
      </trkpt>
      <trkpt lat="46.19235" lon="3.15279">
        <ele>392</ele>
        <time>2018-06-25T09:04:01.512Z</time>
      </trkpt>
      <trkpt lat="46.19164" lon="3.15349">
        <ele>391</ele>
        <time>2018-06-25T09:04:02.512Z</time>
      </trkpt>
      <trkpt lat="46.19112" lon="3.15432">
        <ele>387</ele>
        <time>2018-06-25T09:04:03.512Z</time>
      </trkpt>
      <trkpt lat="46.19059" lon="3.15482">
        <ele>381</ele>
        <time>2018-06-25T09:04:04.512Z</time>
      </trkpt>
      <trkpt lat="46.19023" lon="3.15568">
        <ele>371</ele>
        <time>2018-06-25T09:04:05.512Z</time>
      </trkpt>
      <trkpt lat="46.18961" lon="3.15672">
        <ele>361</ele>
        <time>2018-06-25T09:04:06.512Z</time>
      </trkpt>
      <trkpt lat="46.18841" lon="3.15773">
        <ele>369</ele>
        <time>2018-06-25T09:04:07.512Z</time>
      </trkpt>
      <trkpt lat="46.18814" lon="3.15816">
        <ele>375</ele>
        <time>2018-06-25T09:04:08.512Z</time>
      </trkpt>
      <trkpt lat="46.18781" lon="3.15819">
        <ele>379</ele>
        <time>2018-06-25T09:04:09.512Z</time>
      </trkpt>
      <trkpt lat="46.18767" lon="3.15834">
        <ele>382</ele>
        <time>2018-06-25T09:04:10.512Z</time>
      </trkpt>
      <trkpt lat="46.1875" lon="3.15881">
        <ele>386</ele>
        <time>2018-06-25T09:04:11.512Z</time>
      </trkpt>
      <trkpt lat="46.18743" lon="3.15926">
        <ele>390</ele>
        <time>2018-06-25T09:04:12.512Z</time>
      </trkpt>
      <trkpt lat="46.18758" lon="3.1609">
        <ele>397</ele>
        <time>2018-06-25T09:04:13.512Z</time>
      </trkpt>
      <trkpt lat="46.18754" lon="3.16121">
        <ele>399</ele>
        <time>2018-06-25T09:04:14.512Z</time>
      </trkpt>
      <trkpt lat="46.18648" lon="3.16177">
        <ele>406</ele>
        <time>2018-06-25T09:04:15.512Z</time>
      </trkpt>
      <trkpt lat="46.1865" lon="3.16185">
        <ele>406</ele>
        <time>2018-06-25T09:04:16.512Z</time>
      </trkpt>
      <trkpt lat="46.18618" lon="3.16126">
        <ele>406</ele>
        <time>2018-06-25T09:04:17.512Z</time>
      </trkpt>
      <trkpt lat="46.18591" lon="3.16159">
        <ele>408</ele>
        <time>2018-06-25T09:04:18.512Z</time>
      </trkpt>
      <trkpt lat="46.18527" lon="3.16204">
        <ele>407</ele>
        <time>2018-06-25T09:04:19.512Z</time>
      </trkpt>
      <trkpt lat="46.18483" lon="3.1609">
        <ele>409</ele>
        <time>2018-06-25T09:04:20.512Z</time>
      </trkpt>
      <trkpt lat="46.18459" lon="3.1606">
        <ele>409</ele>
        <time>2018-06-25T09:04:21.512Z</time>
      </trkpt>
      <trkpt lat="46.18391" lon="3.15928">
        <ele>411</ele>
        <time>2018-06-25T09:04:22.512Z</time>
      </trkpt>
      <trkpt lat="46.18281" lon="3.16043">
        <ele>408</ele>
        <time>2018-06-25T09:04:23.512Z</time>
      </trkpt>
      <trkpt lat="46.18251" lon="3.16095">
        <ele>406</ele>
        <time>2018-06-25T09:04:24.512Z</time>
      </trkpt>
      <trkpt lat="46.18243" lon="3.16089">
        <ele>406</ele>
        <time>2018-06-25T09:04:25.512Z</time>
      </trkpt>
      <trkpt lat="46.18226" lon="3.16035">
        <ele>406</ele>
        <time>2018-06-25T09:04:26.512Z</time>
      </trkpt>
      <trkpt lat="46.18175" lon="3.15935">
        <ele>408</ele>
        <time>2018-06-25T09:04:27.512Z</time>
      </trkpt>
      <trkpt lat="46.1812" lon="3.15988">
        <ele>400</ele>
        <time>2018-06-25T09:04:28.512Z</time>
      </trkpt>
      <trkpt lat="46.18125" lon="3.15986">
        <ele>401</ele>
        <time>2018-06-25T09:04:29.512Z</time>
      </trkpt>
      <trkpt lat="46.18014" lon="3.15812">
        <ele>395</ele>
        <time>2018-06-25T09:04:30.512Z</time>
      </trkpt>
      <trkpt lat="46.17952" lon="3.1574">
        <ele>390</ele>
        <time>2018-06-25T09:04:31.512Z</time>
      </trkpt>
      <trkpt lat="46.17857" lon="3.15665">
        <ele>380</ele>
        <time>2018-06-25T09:04:32.512Z</time>
      </trkpt>
      <trkpt lat="46.17797" lon="3.15598">
        <ele>373</ele>
        <time>2018-06-25T09:04:33.512Z</time>
      </trkpt>
      <trkpt lat="46.17619" lon="3.15474">
        <ele>359</ele>
        <time>2018-06-25T09:04:34.512Z</time>
      </trkpt>
      <trkpt lat="46.17529" lon="3.15396">
        <ele>354</ele>
        <time>2018-06-25T09:04:35.512Z</time>
      </trkpt>
      <trkpt lat="46.17334" lon="3.15454">
        <ele>336</ele>
        <time>2018-06-25T09:04:36.512Z</time>
      </trkpt>
      <trkpt lat="46.17257" lon="3.15487">
        <ele>330</ele>
        <time>2018-06-25T09:04:37.512Z</time>
      </trkpt>
      <trkpt lat="46.17198" lon="3.15487">
        <ele>326</ele>
        <time>2018-06-25T09:04:38.512Z</time>
      </trkpt>
      <trkpt lat="46.17181" lon="3.15499">
        <ele>326</ele>
        <time>2018-06-25T09:04:39.512Z</time>
      </trkpt>
      <trkpt lat="46.16987" lon="3.15535">
        <ele>322</ele>
        <time>2018-06-25T09:04:40.512Z</time>
      </trkpt>
      <trkpt lat="46.16863" lon="3.15953">
        <ele>331</ele>
        <time>2018-06-25T09:04:41.512Z</time>
      </trkpt>
      <trkpt lat="46.16852" lon="3.1602">
        <ele>336</ele>
        <time>2018-06-25T09:04:42.512Z</time>
      </trkpt>
      <trkpt lat="46.16769" lon="3.16132">
        <ele>347</ele>
        <time>2018-06-25T09:04:43.512Z</time>
      </trkpt>
      <trkpt lat="46.16437" lon="3.15776">
        <ele>327</ele>
        <time>2018-06-25T09:04:44.512Z</time>
      </trkpt>
      <trkpt lat="46.1635" lon="3.15843">
        <ele>327</ele>
        <time>2018-06-25T09:04:45.512Z</time>
      </trkpt>
      <trkpt lat="46.16307" lon="3.15847">
        <ele>322</ele>
        <time>2018-06-25T09:04:46.512Z</time>
      </trkpt>
      <trkpt lat="46.16258" lon="3.15829">
        <ele>312</ele>
        <time>2018-06-25T09:04:47.512Z</time>
      </trkpt>
      <trkpt lat="46.1624" lon="3.15684">
        <ele>309</ele>
        <time>2018-06-25T09:04:48.512Z</time>
      </trkpt>
      <trkpt lat="46.16219" lon="3.156">
        <ele>309</ele>
        <time>2018-06-25T09:04:49.512Z</time>
      </trkpt>
      <trkpt lat="46.16206" lon="3.15589">
        <ele>309</ele>
        <time>2018-06-25T09:04:50.512Z</time>
      </trkpt>
      <trkpt lat="46.16099" lon="3.15564">
        <ele>316</ele>
        <time>2018-06-25T09:04:51.512Z</time>
      </trkpt>
      <trkpt lat="46.16029" lon="3.15596">
        <ele>322</ele>
        <time>2018-06-25T09:04:52.512Z</time>
      </trkpt>
      <trkpt lat="46.15935" lon="3.15605">
        <ele>328</ele>
        <time>2018-06-25T09:04:53.512Z</time>
      </trkpt>
      <trkpt lat="46.15583" lon="3.15581">
        <ele>347</ele>
        <time>2018-06-25T09:04:54.512Z</time>
      </trkpt>
      <trkpt lat="46.15509" lon="3.15587">
        <ele>352</ele>
        <time>2018-06-25T09:04:55.512Z</time>
      </trkpt>
      <trkpt lat="46.15466" lon="3.15566">
        <ele>354</ele>
        <time>2018-06-25T09:04:56.512Z</time>
      </trkpt>
      <trkpt lat="46.15429" lon="3.1553">
        <ele>357</ele>
        <time>2018-06-25T09:04:57.512Z</time>
      </trkpt>
      <trkpt lat="46.15433" lon="3.15542">
        <ele>356</ele>
        <time>2018-06-25T09:04:58.512Z</time>
      </trkpt>
      <trkpt lat="46.15436" lon="3.15537">
        <ele>356</ele>
        <time>2018-06-25T09:04:59.512Z</time>
      </trkpt>
      <trkpt lat="46.15406" lon="3.15498">
        <ele>357</ele>
        <time>2018-06-25T09:05:00.512Z</time>
      </trkpt>
      <trkpt lat="46.1536" lon="3.1562">
        <ele>362</ele>
        <time>2018-06-25T09:05:01.512Z</time>
      </trkpt>
      <trkpt lat="46.15288" lon="3.15648">
        <ele>366</ele>
        <time>2018-06-25T09:05:02.512Z</time>
      </trkpt>
      <trkpt lat="46.15195" lon="3.15651">
        <ele>372</ele>
        <time>2018-06-25T09:05:03.512Z</time>
      </trkpt>
      <trkpt lat="46.15047" lon="3.15603">
        <ele>379</ele>
        <time>2018-06-25T09:05:04.512Z</time>
      </trkpt>
      <trkpt lat="46.14917" lon="3.15539">
        <ele>382</ele>
        <time>2018-06-25T09:05:05.512Z</time>
      </trkpt>
      <trkpt lat="46.14686" lon="3.15326">
        <ele>377</ele>
        <time>2018-06-25T09:05:06.512Z</time>
      </trkpt>
      <trkpt lat="46.14465" lon="3.15039">
        <ele>371</ele>
        <time>2018-06-25T09:05:07.512Z</time>
      </trkpt>
      <trkpt lat="46.14395" lon="3.14923">
        <ele>368</ele>
        <time>2018-06-25T09:05:08.512Z</time>
      </trkpt>
      <trkpt lat="46.14375" lon="3.14862">
        <ele>367</ele>
        <time>2018-06-25T09:05:09.512Z</time>
      </trkpt>
      <trkpt lat="46.14335" lon="3.14786">
        <ele>364</ele>
        <time>2018-06-25T09:05:10.512Z</time>
      </trkpt>
      <trkpt lat="46.14223" lon="3.14484">
        <ele>352</ele>
        <time>2018-06-25T09:05:11.512Z</time>
      </trkpt>
      <trkpt lat="46.14288" lon="3.14376">
        <ele>350</ele>
        <time>2018-06-25T09:05:12.512Z</time>
      </trkpt>
      <trkpt lat="46.14327" lon="3.14334">
        <ele>347</ele>
        <time>2018-06-25T09:05:13.512Z</time>
      </trkpt>
      <trkpt lat="46.14447" lon="3.14241">
        <ele>340</ele>
        <time>2018-06-25T09:05:14.512Z</time>
      </trkpt>
      <trkpt lat="46.14448" lon="3.1422">
        <ele>340</ele>
        <time>2018-06-25T09:05:15.512Z</time>
      </trkpt>
      <trkpt lat="46.14441" lon="3.14213">
        <ele>340</ele>
        <time>2018-06-25T09:05:16.512Z</time>
      </trkpt>
      <trkpt lat="46.14401" lon="3.14222">
        <ele>342</ele>
        <time>2018-06-25T09:05:17.512Z</time>
      </trkpt>
      <trkpt lat="46.14371" lon="3.14253">
        <ele>344</ele>
        <time>2018-06-25T09:05:18.512Z</time>
      </trkpt>
      <trkpt lat="46.14315" lon="3.14287">
        <ele>347</ele>
        <time>2018-06-25T09:05:19.512Z</time>
      </trkpt>
      <trkpt lat="46.14266" lon="3.1433">
        <ele>349</ele>
        <time>2018-06-25T09:05:20.512Z</time>
      </trkpt>
      <trkpt lat="46.14194" lon="3.1444">
        <ele>352</ele>
        <time>2018-06-25T09:05:21.512Z</time>
      </trkpt>
      <trkpt lat="46.14185" lon="3.14438">
        <ele>353</ele>
        <time>2018-06-25T09:05:22.512Z</time>
      </trkpt>
      <trkpt lat="46.13997" lon="3.14115">
        <ele>353</ele>
        <time>2018-06-25T09:05:23.512Z</time>
      </trkpt>
      <trkpt lat="46.13921" lon="3.13914">
        <ele>351</ele>
        <time>2018-06-25T09:05:24.512Z</time>
      </trkpt>
      <trkpt lat="46.13919" lon="3.13809">
        <ele>345</ele>
        <time>2018-06-25T09:05:25.512Z</time>
      </trkpt>
      <trkpt lat="46.13913" lon="3.13783">
        <ele>344</ele>
        <time>2018-06-25T09:05:26.512Z</time>
      </trkpt>
      <trkpt lat="46.13887" lon="3.13747">
        <ele>342</ele>
        <time>2018-06-25T09:05:27.512Z</time>
      </trkpt>
      <trkpt lat="46.13829" lon="3.1361">
        <ele>337</ele>
        <time>2018-06-25T09:05:28.512Z</time>
      </trkpt>
      <trkpt lat="46.13769" lon="3.13539">
        <ele>336</ele>
        <time>2018-06-25T09:05:29.512Z</time>
      </trkpt>
      <trkpt lat="46.13787" lon="3.13485">
        <ele>331</ele>
        <time>2018-06-25T09:05:30.512Z</time>
      </trkpt>
      <trkpt lat="46.13752" lon="3.13329">
        <ele>325</ele>
        <time>2018-06-25T09:05:31.512Z</time>
      </trkpt>
      <trkpt lat="46.13724" lon="3.13286">
        <ele>325</ele>
        <time>2018-06-25T09:05:32.512Z</time>
      </trkpt>
      <trkpt lat="46.13712" lon="3.13205">
        <ele>324</ele>
        <time>2018-06-25T09:05:33.512Z</time>
      </trkpt>
      <trkpt lat="46.13753" lon="3.13188">
        <ele>325</ele>
        <time>2018-06-25T09:05:34.512Z</time>
      </trkpt>
      <trkpt lat="46.13606" lon="3.13053">
        <ele>331</ele>
        <time>2018-06-25T09:05:35.512Z</time>
      </trkpt>
      <trkpt lat="46.13598" lon="3.13024">
        <ele>333</ele>
        <time>2018-06-25T09:05:36.512Z</time>
      </trkpt>
      <trkpt lat="46.1365" lon="3.12922">
        <ele>336</ele>
        <time>2018-06-25T09:05:37.512Z</time>
      </trkpt>
      <trkpt lat="46.13665" lon="3.1287">
        <ele>337</ele>
        <time>2018-06-25T09:05:38.512Z</time>
      </trkpt>
      <trkpt lat="46.13572" lon="3.12708">
        <ele>334</ele>
        <time>2018-06-25T09:05:39.512Z</time>
      </trkpt>
      <trkpt lat="46.13564" lon="3.12681">
        <ele>335</ele>
        <time>2018-06-25T09:05:40.512Z</time>
      </trkpt>
      <trkpt lat="46.13562" lon="3.12635">
        <ele>337</ele>
        <time>2018-06-25T09:05:41.512Z</time>
      </trkpt>
      <trkpt lat="46.13552" lon="3.12625">
        <ele>336</ele>
        <time>2018-06-25T09:05:42.512Z</time>
      </trkpt>
      <trkpt lat="46.13539" lon="3.12629">
        <ele>335</ele>
        <time>2018-06-25T09:05:43.512Z</time>
      </trkpt>
      <trkpt lat="46.13537" lon="3.12645">
        <ele>335</ele>
        <time>2018-06-25T09:05:44.512Z</time>
      </trkpt>
      <trkpt lat="46.13577" lon="3.12792">
        <ele>328</ele>
        <time>2018-06-25T09:05:45.512Z</time>
      </trkpt>
      <trkpt lat="46.13582" lon="3.12842">
        <ele>326</ele>
        <time>2018-06-25T09:05:46.512Z</time>
      </trkpt>
      <trkpt lat="46.1357" lon="3.12881">
        <ele>326</ele>
        <time>2018-06-25T09:05:47.512Z</time>
      </trkpt>
      <trkpt lat="46.13547" lon="3.12897">
        <ele>325</ele>
        <time>2018-06-25T09:05:48.512Z</time>
      </trkpt>
      <trkpt lat="46.13536" lon="3.12877">
        <ele>325</ele>
        <time>2018-06-25T09:05:49.512Z</time>
      </trkpt>
      <trkpt lat="46.13533" lon="3.12848">
        <ele>325</ele>
        <time>2018-06-25T09:05:50.512Z</time>
      </trkpt>
      <trkpt lat="46.13494" lon="3.12772">
        <ele>329</ele>
        <time>2018-06-25T09:05:51.512Z</time>
      </trkpt>
      <trkpt lat="46.13477" lon="3.1276">
        <ele>330</ele>
        <time>2018-06-25T09:05:52.512Z</time>
      </trkpt>
      <trkpt lat="46.13425" lon="3.12684">
        <ele>334</ele>
        <time>2018-06-25T09:05:53.512Z</time>
      </trkpt>
      <trkpt lat="46.13357" lon="3.12618">
        <ele>338</ele>
        <time>2018-06-25T09:05:54.512Z</time>
      </trkpt>
      <trkpt lat="46.13318" lon="3.12535">
        <ele>341</ele>
        <time>2018-06-25T09:05:55.512Z</time>
      </trkpt>
      <trkpt lat="46.13289" lon="3.12548">
        <ele>340</ele>
        <time>2018-06-25T09:05:56.512Z</time>
      </trkpt>
      <trkpt lat="46.13235" lon="3.12607">
        <ele>333</ele>
        <time>2018-06-25T09:05:57.512Z</time>
      </trkpt>
      <trkpt lat="46.132" lon="3.12694">
        <ele>320</ele>
        <time>2018-06-25T09:05:58.512Z</time>
      </trkpt>
      <trkpt lat="46.13168" lon="3.12708">
        <ele>313</ele>
        <time>2018-06-25T09:05:59.512Z</time>
      </trkpt>
      <trkpt lat="46.12922" lon="3.1266">
        <ele>310</ele>
        <time>2018-06-25T09:06:00.512Z</time>
      </trkpt>
      <trkpt lat="46.12821" lon="3.12594">
        <ele>310</ele>
        <time>2018-06-25T09:06:01.512Z</time>
      </trkpt>
      <trkpt lat="46.12752" lon="3.12453">
        <ele>325</ele>
        <time>2018-06-25T09:06:02.512Z</time>
      </trkpt>
      <trkpt lat="46.12755" lon="3.12282">
        <ele>338</ele>
        <time>2018-06-25T09:06:03.512Z</time>
      </trkpt>
      <trkpt lat="46.12836" lon="3.12115">
        <ele>340</ele>
        <time>2018-06-25T09:06:04.512Z</time>
      </trkpt>
      <trkpt lat="46.12671" lon="3.12034">
        <ele>318</ele>
        <time>2018-06-25T09:06:05.512Z</time>
      </trkpt>
      <trkpt lat="46.12604" lon="3.11925">
        <ele>309</ele>
        <time>2018-06-25T09:06:06.512Z</time>
      </trkpt>
      <trkpt lat="46.12538" lon="3.11849">
        <ele>310</ele>
        <time>2018-06-25T09:06:07.512Z</time>
      </trkpt>
      <trkpt lat="46.12487" lon="3.11815">
        <ele>309</ele>
        <time>2018-06-25T09:06:08.512Z</time>
      </trkpt>
      <trkpt lat="46.1242" lon="3.11718">
        <ele>307</ele>
        <time>2018-06-25T09:06:09.512Z</time>
      </trkpt>
      <trkpt lat="46.1243" lon="3.1168">
        <ele>309</ele>
        <time>2018-06-25T09:06:10.512Z</time>
      </trkpt>
      <trkpt lat="46.12476" lon="3.11627">
        <ele>315</ele>
        <time>2018-06-25T09:06:11.512Z</time>
      </trkpt>
      <trkpt lat="46.1252" lon="3.11528">
        <ele>324</ele>
        <time>2018-06-25T09:06:12.512Z</time>
      </trkpt>
      <trkpt lat="46.12478" lon="3.11451">
        <ele>318</ele>
        <time>2018-06-25T09:06:13.512Z</time>
      </trkpt>
      <trkpt lat="46.12403" lon="3.11377">
        <ele>308</ele>
        <time>2018-06-25T09:06:14.512Z</time>
      </trkpt>
      <trkpt lat="46.12346" lon="3.11283">
        <ele>304</ele>
        <time>2018-06-25T09:06:15.512Z</time>
      </trkpt>
      <trkpt lat="46.12346" lon="3.11256">
        <ele>304</ele>
        <time>2018-06-25T09:06:16.512Z</time>
      </trkpt>
      <trkpt lat="46.12406" lon="3.11151">
        <ele>308</ele>
        <time>2018-06-25T09:06:17.512Z</time>
      </trkpt>
      <trkpt lat="46.12461" lon="3.11078">
        <ele>306</ele>
        <time>2018-06-25T09:06:18.512Z</time>
      </trkpt>
      <trkpt lat="46.1249" lon="3.1102">
        <ele>304</ele>
        <time>2018-06-25T09:06:19.512Z</time>
      </trkpt>
      <trkpt lat="46.1252" lon="3.11002">
        <ele>305</ele>
        <time>2018-06-25T09:06:20.512Z</time>
      </trkpt>
      <trkpt lat="46.1263" lon="3.10994">
        <ele>308</ele>
        <time>2018-06-25T09:06:21.512Z</time>
      </trkpt>
      <trkpt lat="46.12773" lon="3.10969">
        <ele>318</ele>
        <time>2018-06-25T09:06:22.512Z</time>
      </trkpt>
      <trkpt lat="46.12796" lon="3.10979">
        <ele>321</ele>
        <time>2018-06-25T09:06:23.512Z</time>
      </trkpt>
      <trkpt lat="46.12807" lon="3.10973">
        <ele>322</ele>
        <time>2018-06-25T09:06:24.512Z</time>
      </trkpt>
      <trkpt lat="46.12833" lon="3.10928">
        <ele>323</ele>
        <time>2018-06-25T09:06:25.512Z</time>
      </trkpt>
      <trkpt lat="46.1286" lon="3.10901">
        <ele>325</ele>
        <time>2018-06-25T09:06:26.512Z</time>
      </trkpt>
      <trkpt lat="46.12899" lon="3.10888">
        <ele>328</ele>
        <time>2018-06-25T09:06:27.512Z</time>
      </trkpt>
      <trkpt lat="46.1298" lon="3.10921">
        <ele>338</ele>
        <time>2018-06-25T09:06:28.512Z</time>
      </trkpt>
      <trkpt lat="46.13003" lon="3.10894">
        <ele>340</ele>
        <time>2018-06-25T09:06:29.512Z</time>
      </trkpt>
      <trkpt lat="46.13029" lon="3.10839">
        <ele>340</ele>
        <time>2018-06-25T09:06:30.512Z</time>
      </trkpt>
      <trkpt lat="46.13041" lon="3.10789">
        <ele>340</ele>
        <time>2018-06-25T09:06:31.512Z</time>
      </trkpt>
      <trkpt lat="46.13082" lon="3.1072">
        <ele>344</ele>
        <time>2018-06-25T09:06:32.512Z</time>
      </trkpt>
      <trkpt lat="46.13088" lon="3.10685">
        <ele>343</ele>
        <time>2018-06-25T09:06:33.512Z</time>
      </trkpt>
      <trkpt lat="46.13085" lon="3.10625">
        <ele>343</ele>
        <time>2018-06-25T09:06:34.512Z</time>
      </trkpt>
      <trkpt lat="46.13041" lon="3.10447">
        <ele>332</ele>
        <time>2018-06-25T09:06:35.512Z</time>
      </trkpt>
      <trkpt lat="46.12988" lon="3.10179">
        <ele>310</ele>
        <time>2018-06-25T09:06:36.512Z</time>
      </trkpt>
      <trkpt lat="46.12961" lon="3.09919">
        <ele>309</ele>
        <time>2018-06-25T09:06:37.512Z</time>
      </trkpt>
      <trkpt lat="46.12947" lon="3.09906">
        <ele>309</ele>
        <time>2018-06-25T09:06:38.512Z</time>
      </trkpt>
      <trkpt lat="46.12917" lon="3.099">
        <ele>310</ele>
        <time>2018-06-25T09:06:39.512Z</time>
      </trkpt>
      <trkpt lat="46.12913" lon="3.09854">
        <ele>311</ele>
        <time>2018-06-25T09:06:40.512Z</time>
      </trkpt>
      <trkpt lat="46.12868" lon="3.09895">
        <ele>310</ele>
        <time>2018-06-25T09:06:41.512Z</time>
      </trkpt>
      <trkpt lat="46.12778" lon="3.09913">
        <ele>309</ele>
        <time>2018-06-25T09:06:42.512Z</time>
      </trkpt>
      <trkpt lat="46.12736" lon="3.09866">
        <ele>307</ele>
        <time>2018-06-25T09:06:43.512Z</time>
      </trkpt>
      <trkpt lat="46.12013" lon="3.09429">
        <ele>304</ele>
        <time>2018-06-25T09:06:44.512Z</time>
      </trkpt>
      <trkpt lat="46.11863" lon="3.0928">
        <ele>305</ele>
        <time>2018-06-25T09:06:45.512Z</time>
      </trkpt>
      <trkpt lat="46.11814" lon="3.09185">
        <ele>306</ele>
        <time>2018-06-25T09:06:46.512Z</time>
      </trkpt>
      <trkpt lat="46.11741" lon="3.08834">
        <ele>308</ele>
        <time>2018-06-25T09:06:47.512Z</time>
      </trkpt>
      <trkpt lat="46.11731" lon="3.08823">
        <ele>308</ele>
        <time>2018-06-25T09:06:48.512Z</time>
      </trkpt>
      <trkpt lat="46.1161" lon="3.08811">
        <ele>310</ele>
        <time>2018-06-25T09:06:49.512Z</time>
      </trkpt>
      <trkpt lat="46.11438" lon="3.09107">
        <ele>307</ele>
        <time>2018-06-25T09:06:50.512Z</time>
      </trkpt>
      <trkpt lat="46.11423" lon="3.09093">
        <ele>307</ele>
        <time>2018-06-25T09:06:51.512Z</time>
      </trkpt>
      <trkpt lat="46.11406" lon="3.09036">
        <ele>307</ele>
        <time>2018-06-25T09:06:52.512Z</time>
      </trkpt>
      <trkpt lat="46.11378" lon="3.08979">
        <ele>307</ele>
        <time>2018-06-25T09:06:53.512Z</time>
      </trkpt>
      <trkpt lat="46.11314" lon="3.08795">
        <ele>308</ele>
        <time>2018-06-25T09:06:54.512Z</time>
      </trkpt>
      <trkpt lat="46.11305" lon="3.08789">
        <ele>308</ele>
        <time>2018-06-25T09:06:55.512Z</time>
      </trkpt>
      <trkpt lat="46.11268" lon="3.08813">
        <ele>308</ele>
        <time>2018-06-25T09:06:56.512Z</time>
      </trkpt>
      <trkpt lat="46.11161" lon="3.08618">
        <ele>306</ele>
        <time>2018-06-25T09:06:57.512Z</time>
      </trkpt>
      <trkpt lat="46.11142" lon="3.08601">
        <ele>306</ele>
        <time>2018-06-25T09:06:58.512Z</time>
      </trkpt>
      <trkpt lat="46.1107" lon="3.08649">
        <ele>306</ele>
        <time>2018-06-25T09:06:59.512Z</time>
      </trkpt>
      <trkpt lat="46.10874" lon="3.08745">
        <ele>311</ele>
        <time>2018-06-25T09:07:00.512Z</time>
      </trkpt>
      <trkpt lat="46.10735" lon="3.08685">
        <ele>314</ele>
        <time>2018-06-25T09:07:01.512Z</time>
      </trkpt>
      <trkpt lat="46.10445" lon="3.08504">
        <ele>318</ele>
        <time>2018-06-25T09:07:02.512Z</time>
      </trkpt>
      <trkpt lat="46.10243" lon="3.08446">
        <ele>323</ele>
        <time>2018-06-25T09:07:03.512Z</time>
      </trkpt>
      <trkpt lat="46.10133" lon="3.08492">
        <ele>328</ele>
        <time>2018-06-25T09:07:04.512Z</time>
      </trkpt>
      <trkpt lat="46.09928" lon="3.07756">
        <ele>335</ele>
        <time>2018-06-25T09:07:05.512Z</time>
      </trkpt>
      <trkpt lat="46.09672" lon="3.07986">
        <ele>354</ele>
        <time>2018-06-25T09:07:06.512Z</time>
      </trkpt>
      <trkpt lat="46.09642" lon="3.08043">
        <ele>357</ele>
        <time>2018-06-25T09:07:07.512Z</time>
      </trkpt>
      <trkpt lat="46.09424" lon="3.08291">
        <ele>360</ele>
        <time>2018-06-25T09:07:08.512Z</time>
      </trkpt>
      <trkpt lat="46.09422" lon="3.08304">
        <ele>360</ele>
        <time>2018-06-25T09:07:09.512Z</time>
      </trkpt>
      <trkpt lat="46.09031" lon="3.07964">
        <ele>375</ele>
        <time>2018-06-25T09:07:10.512Z</time>
      </trkpt>
      <trkpt lat="46.0894" lon="3.07913">
        <ele>379</ele>
        <time>2018-06-25T09:07:11.512Z</time>
      </trkpt>
      <trkpt lat="46.08806" lon="3.0787">
        <ele>382</ele>
        <time>2018-06-25T09:07:12.512Z</time>
      </trkpt>
      <trkpt lat="46.08648" lon="3.07774">
        <ele>376</ele>
        <time>2018-06-25T09:07:13.512Z</time>
      </trkpt>
      <trkpt lat="46.08583" lon="3.0778">
        <ele>373</ele>
        <time>2018-06-25T09:07:14.512Z</time>
      </trkpt>
      <trkpt lat="46.08537" lon="3.07808">
        <ele>376</ele>
        <time>2018-06-25T09:07:15.512Z</time>
      </trkpt>
      <trkpt lat="46.08486" lon="3.07789">
        <ele>381</ele>
        <time>2018-06-25T09:07:16.512Z</time>
      </trkpt>
      <trkpt lat="46.08352" lon="3.07714">
        <ele>400</ele>
        <time>2018-06-25T09:07:17.512Z</time>
      </trkpt>
      <trkpt lat="46.08285" lon="3.07645">
        <ele>406</ele>
        <time>2018-06-25T09:07:18.512Z</time>
      </trkpt>
      <trkpt lat="46.08102" lon="3.07654">
        <ele>418</ele>
        <time>2018-06-25T09:07:19.512Z</time>
      </trkpt>
      <trkpt lat="46.0803" lon="3.07622">
        <ele>419</ele>
        <time>2018-06-25T09:07:20.512Z</time>
      </trkpt>
      <trkpt lat="46.07912" lon="3.07648">
        <ele>425</ele>
        <time>2018-06-25T09:07:21.512Z</time>
      </trkpt>
      <trkpt lat="46.07819" lon="3.07724">
        <ele>426</ele>
        <time>2018-06-25T09:07:22.512Z</time>
      </trkpt>
      <trkpt lat="46.07795" lon="3.07755">
        <ele>424</ele>
        <time>2018-06-25T09:07:23.512Z</time>
      </trkpt>
      <trkpt lat="46.07783" lon="3.07792">
        <ele>420</ele>
        <time>2018-06-25T09:07:24.512Z</time>
      </trkpt>
      <trkpt lat="46.07755" lon="3.07811">
        <ele>417</ele>
        <time>2018-06-25T09:07:25.512Z</time>
      </trkpt>
      <trkpt lat="46.07714" lon="3.07821">
        <ele>417</ele>
        <time>2018-06-25T09:07:26.512Z</time>
      </trkpt>
      <trkpt lat="46.07662" lon="3.07848">
        <ele>412</ele>
        <time>2018-06-25T09:07:27.512Z</time>
      </trkpt>
      <trkpt lat="46.07607" lon="3.07845">
        <ele>407</ele>
        <time>2018-06-25T09:07:28.512Z</time>
      </trkpt>
      <trkpt lat="46.07558" lon="3.07809">
        <ele>409</ele>
        <time>2018-06-25T09:07:29.512Z</time>
      </trkpt>
      <trkpt lat="46.07508" lon="3.07786">
        <ele>406</ele>
        <time>2018-06-25T09:07:30.512Z</time>
      </trkpt>
      <trkpt lat="46.07437" lon="3.07727">
        <ele>402</ele>
        <time>2018-06-25T09:07:31.512Z</time>
      </trkpt>
      <trkpt lat="46.07405" lon="3.07726">
        <ele>399</ele>
        <time>2018-06-25T09:07:32.512Z</time>
      </trkpt>
      <trkpt lat="46.07393" lon="3.07744">
        <ele>399</ele>
        <time>2018-06-25T09:07:33.512Z</time>
      </trkpt>
      <trkpt lat="46.07359" lon="3.07757">
        <ele>402</ele>
        <time>2018-06-25T09:07:34.512Z</time>
      </trkpt>
      <trkpt lat="46.07343" lon="3.07752">
        <ele>403</ele>
        <time>2018-06-25T09:07:35.512Z</time>
      </trkpt>
      <trkpt lat="46.07317" lon="3.0777">
        <ele>408</ele>
        <time>2018-06-25T09:07:36.512Z</time>
      </trkpt>
      <trkpt lat="46.07252" lon="3.07843">
        <ele>415</ele>
        <time>2018-06-25T09:07:37.512Z</time>
      </trkpt>
      <trkpt lat="46.07199" lon="3.07926">
        <ele>425</ele>
        <time>2018-06-25T09:07:38.512Z</time>
      </trkpt>
      <trkpt lat="46.07179" lon="3.0799">
        <ele>426</ele>
        <time>2018-06-25T09:07:39.512Z</time>
      </trkpt>
      <trkpt lat="46.07129" lon="3.08061">
        <ele>426</ele>
        <time>2018-06-25T09:07:40.512Z</time>
      </trkpt>
      <trkpt lat="46.07065" lon="3.08119">
        <ele>433</ele>
        <time>2018-06-25T09:07:41.512Z</time>
      </trkpt>
      <trkpt lat="46.06998" lon="3.08134">
        <ele>444</ele>
        <time>2018-06-25T09:07:42.512Z</time>
      </trkpt>
      <trkpt lat="46.06968" lon="3.08126">
        <ele>447</ele>
        <time>2018-06-25T09:07:43.512Z</time>
      </trkpt>
      <trkpt lat="46.0688" lon="3.08153">
        <ele>453</ele>
        <time>2018-06-25T09:07:44.512Z</time>
      </trkpt>
      <trkpt lat="46.06869" lon="3.08117">
        <ele>454</ele>
        <time>2018-06-25T09:07:45.512Z</time>
      </trkpt>
      <trkpt lat="46.06888" lon="3.08018">
        <ele>455</ele>
        <time>2018-06-25T09:07:46.512Z</time>
      </trkpt>
      <trkpt lat="46.06865" lon="3.07907">
        <ele>453</ele>
        <time>2018-06-25T09:07:47.512Z</time>
      </trkpt>
      <trkpt lat="46.06812" lon="3.07768">
        <ele>446</ele>
        <time>2018-06-25T09:07:48.512Z</time>
      </trkpt>
      <trkpt lat="46.06783" lon="3.07763">
        <ele>451</ele>
        <time>2018-06-25T09:07:49.512Z</time>
      </trkpt>
      <trkpt lat="46.06728" lon="3.07733">
        <ele>461</ele>
        <time>2018-06-25T09:07:50.512Z</time>
      </trkpt>
      <trkpt lat="46.06711" lon="3.07706">
        <ele>465</ele>
        <time>2018-06-25T09:07:51.512Z</time>
      </trkpt>
      <trkpt lat="46.06705" lon="3.07662">
        <ele>464</ele>
        <time>2018-06-25T09:07:52.512Z</time>
      </trkpt>
      <trkpt lat="46.06716" lon="3.07593">
        <ele>463</ele>
        <time>2018-06-25T09:07:53.512Z</time>
      </trkpt>
      <trkpt lat="46.06703" lon="3.07543">
        <ele>464</ele>
        <time>2018-06-25T09:07:54.512Z</time>
      </trkpt>
      <trkpt lat="46.06583" lon="3.07279">
        <ele>469</ele>
        <time>2018-06-25T09:07:55.512Z</time>
      </trkpt>
      <trkpt lat="46.06557" lon="3.07202">
        <ele>472</ele>
        <time>2018-06-25T09:07:56.512Z</time>
      </trkpt>
      <trkpt lat="46.06582" lon="3.07168">
        <ele>469</ele>
        <time>2018-06-25T09:07:57.512Z</time>
      </trkpt>
      <trkpt lat="46.06599" lon="3.07099">
        <ele>465</ele>
        <time>2018-06-25T09:07:58.512Z</time>
      </trkpt>
      <trkpt lat="46.06596" lon="3.07075">
        <ele>463</ele>
        <time>2018-06-25T09:07:59.512Z</time>
      </trkpt>
      <trkpt lat="46.06566" lon="3.06999">
        <ele>454</ele>
        <time>2018-06-25T09:08:00.512Z</time>
      </trkpt>
      <trkpt lat="46.06548" lon="3.06918">
        <ele>444</ele>
        <time>2018-06-25T09:08:01.512Z</time>
      </trkpt>
      <trkpt lat="46.06531" lon="3.06883">
        <ele>442</ele>
        <time>2018-06-25T09:08:02.512Z</time>
      </trkpt>
      <trkpt lat="46.06544" lon="3.06867">
        <ele>441</ele>
        <time>2018-06-25T09:08:03.512Z</time>
      </trkpt>
      <trkpt lat="46.06447" lon="3.06644">
        <ele>454</ele>
        <time>2018-06-25T09:08:04.512Z</time>
      </trkpt>
      <trkpt lat="46.06443" lon="3.06616">
        <ele>454</ele>
        <time>2018-06-25T09:08:05.512Z</time>
      </trkpt>
      <trkpt lat="46.06424" lon="3.06586">
        <ele>453</ele>
        <time>2018-06-25T09:08:06.512Z</time>
      </trkpt>
      <trkpt lat="46.0633" lon="3.0655">
        <ele>465</ele>
        <time>2018-06-25T09:08:07.512Z</time>
      </trkpt>
      <trkpt lat="46.06258" lon="3.06501">
        <ele>467</ele>
        <time>2018-06-25T09:08:08.512Z</time>
      </trkpt>
      <trkpt lat="46.06244" lon="3.06439">
        <ele>468</ele>
        <time>2018-06-25T09:08:09.512Z</time>
      </trkpt>
      <trkpt lat="46.06173" lon="3.06286">
        <ele>480</ele>
        <time>2018-06-25T09:08:10.512Z</time>
      </trkpt>
      <trkpt lat="46.06119" lon="3.06228">
        <ele>485</ele>
        <time>2018-06-25T09:08:11.512Z</time>
      </trkpt>
      <trkpt lat="46.0583" lon="3.061">
        <ele>496</ele>
        <time>2018-06-25T09:08:12.512Z</time>
      </trkpt>
      <trkpt lat="46.05834" lon="3.06068">
        <ele>494</ele>
        <time>2018-06-25T09:08:13.512Z</time>
      </trkpt>
      <trkpt lat="46.05829" lon="3.06037">
        <ele>490</ele>
        <time>2018-06-25T09:08:14.512Z</time>
      </trkpt>
      <trkpt lat="46.05782" lon="3.05963">
        <ele>488</ele>
        <time>2018-06-25T09:08:15.512Z</time>
      </trkpt>
      <trkpt lat="46.05764" lon="3.0592">
        <ele>486</ele>
        <time>2018-06-25T09:08:16.512Z</time>
      </trkpt>
      <trkpt lat="46.05768" lon="3.05871">
        <ele>483</ele>
        <time>2018-06-25T09:08:17.512Z</time>
      </trkpt>
      <trkpt lat="46.0576" lon="3.05817">
        <ele>482</ele>
        <time>2018-06-25T09:08:18.512Z</time>
      </trkpt>
      <trkpt lat="46.05783" lon="3.05762">
        <ele>485</ele>
        <time>2018-06-25T09:08:19.512Z</time>
      </trkpt>
      <trkpt lat="46.05767" lon="3.05728">
        <ele>487</ele>
        <time>2018-06-25T09:08:20.512Z</time>
      </trkpt>
      <trkpt lat="46.05804" lon="3.0558">
        <ele>500</ele>
        <time>2018-06-25T09:08:21.512Z</time>
      </trkpt>
      <trkpt lat="46.05816" lon="3.0556">
        <ele>504</ele>
        <time>2018-06-25T09:08:22.512Z</time>
      </trkpt>
      <trkpt lat="46.05867" lon="3.0555">
        <ele>509</ele>
        <time>2018-06-25T09:08:23.512Z</time>
      </trkpt>
      <trkpt lat="46.05889" lon="3.05523">
        <ele>513</ele>
        <time>2018-06-25T09:08:24.512Z</time>
      </trkpt>
      <trkpt lat="46.05905" lon="3.05485">
        <ele>519</ele>
        <time>2018-06-25T09:08:25.512Z</time>
      </trkpt>
      <trkpt lat="46.0592" lon="3.05392">
        <ele>530</ele>
        <time>2018-06-25T09:08:26.512Z</time>
      </trkpt>
      <trkpt lat="46.05952" lon="3.05271">
        <ele>538</ele>
        <time>2018-06-25T09:08:27.512Z</time>
      </trkpt>
      <trkpt lat="46.0582" lon="3.05185">
        <ele>538</ele>
        <time>2018-06-25T09:08:28.512Z</time>
      </trkpt>
      <trkpt lat="46.05779" lon="3.05114">
        <ele>538</ele>
        <time>2018-06-25T09:08:29.512Z</time>
      </trkpt>
      <trkpt lat="46.05719" lon="3.05065">
        <ele>538</ele>
        <time>2018-06-25T09:08:30.512Z</time>
      </trkpt>
      <trkpt lat="46.05578" lon="3.04926">
        <ele>539</ele>
        <time>2018-06-25T09:08:31.512Z</time>
      </trkpt>
      <trkpt lat="46.0551" lon="3.04795">
        <ele>543</ele>
        <time>2018-06-25T09:08:32.512Z</time>
      </trkpt>
      <trkpt lat="46.05461" lon="3.04737">
        <ele>544</ele>
        <time>2018-06-25T09:08:33.512Z</time>
      </trkpt>
      <trkpt lat="46.05418" lon="3.04701">
        <ele>546</ele>
        <time>2018-06-25T09:08:34.512Z</time>
      </trkpt>
      <trkpt lat="46.05382" lon="3.04694">
        <ele>548</ele>
        <time>2018-06-25T09:08:35.512Z</time>
      </trkpt>
      <trkpt lat="46.05289" lon="3.04653">
        <ele>557</ele>
        <time>2018-06-25T09:08:36.512Z</time>
      </trkpt>
      <trkpt lat="46.05238" lon="3.04617">
        <ele>562</ele>
        <time>2018-06-25T09:08:37.512Z</time>
      </trkpt>
      <trkpt lat="46.05203" lon="3.04564">
        <ele>566</ele>
        <time>2018-06-25T09:08:38.512Z</time>
      </trkpt>
      <trkpt lat="46.05168" lon="3.04539">
        <ele>570</ele>
        <time>2018-06-25T09:08:39.512Z</time>
      </trkpt>
      <trkpt lat="46.05071" lon="3.04497">
        <ele>571</ele>
        <time>2018-06-25T09:08:40.512Z</time>
      </trkpt>
      <trkpt lat="46.05085" lon="3.04398">
        <ele>571</ele>
        <time>2018-06-25T09:08:41.512Z</time>
      </trkpt>
      <trkpt lat="46.05067" lon="3.04315">
        <ele>571</ele>
        <time>2018-06-25T09:08:42.512Z</time>
      </trkpt>
      <trkpt lat="46.05061" lon="3.04413">
        <ele>569</ele>
        <time>2018-06-25T09:08:43.512Z</time>
      </trkpt>
      <trkpt lat="46.05046" lon="3.04485">
        <ele>569</ele>
        <time>2018-06-25T09:08:44.512Z</time>
      </trkpt>
      <trkpt lat="46.0503" lon="3.04518">
        <ele>570</ele>
        <time>2018-06-25T09:08:45.512Z</time>
      </trkpt>
      <trkpt lat="46.05017" lon="3.04527">
        <ele>570</ele>
        <time>2018-06-25T09:08:46.512Z</time>
      </trkpt>
      <trkpt lat="46.04728" lon="3.04497">
        <ele>560</ele>
        <time>2018-06-25T09:08:47.512Z</time>
      </trkpt>
      <trkpt lat="46.04664" lon="3.0448">
        <ele>553</ele>
        <time>2018-06-25T09:08:48.512Z</time>
      </trkpt>
      <trkpt lat="46.04725" lon="3.04288">
        <ele>551</ele>
        <time>2018-06-25T09:08:49.512Z</time>
      </trkpt>
      <trkpt lat="46.04726" lon="3.04169">
        <ele>552</ele>
        <time>2018-06-25T09:08:50.512Z</time>
      </trkpt>
      <trkpt lat="46.04716" lon="3.04136">
        <ele>552</ele>
        <time>2018-06-25T09:08:51.512Z</time>
      </trkpt>
      <trkpt lat="46.04537" lon="3.0389">
        <ele>552</ele>
        <time>2018-06-25T09:08:52.512Z</time>
      </trkpt>
      <trkpt lat="46.04304" lon="3.03645">
        <ele>552</ele>
        <time>2018-06-25T09:08:53.512Z</time>
      </trkpt>
      <trkpt lat="46.04148" lon="3.03392">
        <ele>556</ele>
        <time>2018-06-25T09:08:54.512Z</time>
      </trkpt>
      <trkpt lat="46.0401" lon="3.03236">
        <ele>563</ele>
        <time>2018-06-25T09:08:55.512Z</time>
      </trkpt>
      <trkpt lat="46.04004" lon="3.03181">
        <ele>565</ele>
        <time>2018-06-25T09:08:56.512Z</time>
      </trkpt>
      <trkpt lat="46.03964" lon="3.03026">
        <ele>570</ele>
        <time>2018-06-25T09:08:57.512Z</time>
      </trkpt>
      <trkpt lat="46.03938" lon="3.02963">
        <ele>573</ele>
        <time>2018-06-25T09:08:58.512Z</time>
      </trkpt>
      <trkpt lat="46.03881" lon="3.02881">
        <ele>574</ele>
        <time>2018-06-25T09:08:59.512Z</time>
      </trkpt>
      <trkpt lat="46.03826" lon="3.02742">
        <ele>579</ele>
        <time>2018-06-25T09:09:00.512Z</time>
      </trkpt>
      <trkpt lat="46.03793" lon="3.02587">
        <ele>578</ele>
        <time>2018-06-25T09:09:01.512Z</time>
      </trkpt>
      <trkpt lat="46.03762" lon="3.02509">
        <ele>568</ele>
        <time>2018-06-25T09:09:02.512Z</time>
      </trkpt>
      <trkpt lat="46.03759" lon="3.02459">
        <ele>564</ele>
        <time>2018-06-25T09:09:03.512Z</time>
      </trkpt>
      <trkpt lat="46.03714" lon="3.02364">
        <ele>561</ele>
        <time>2018-06-25T09:09:04.512Z</time>
      </trkpt>
      <trkpt lat="46.03651" lon="3.0227">
        <ele>547</ele>
        <time>2018-06-25T09:09:05.512Z</time>
      </trkpt>
      <trkpt lat="46.03631" lon="3.02198">
        <ele>541</ele>
        <time>2018-06-25T09:09:06.512Z</time>
      </trkpt>
      <trkpt lat="46.03574" lon="3.02121">
        <ele>532</ele>
        <time>2018-06-25T09:09:07.512Z</time>
      </trkpt>
      <trkpt lat="46.03514" lon="3.02077">
        <ele>522</ele>
        <time>2018-06-25T09:09:08.512Z</time>
      </trkpt>
      <trkpt lat="46.03491" lon="3.0208">
        <ele>517</ele>
        <time>2018-06-25T09:09:09.512Z</time>
      </trkpt>
      <trkpt lat="46.03454" lon="3.02106">
        <ele>516</ele>
        <time>2018-06-25T09:09:10.512Z</time>
      </trkpt>
      <trkpt lat="46.03407" lon="3.02115">
        <ele>515</ele>
        <time>2018-06-25T09:09:11.512Z</time>
      </trkpt>
      <trkpt lat="46.03295" lon="3.0211">
        <ele>507</ele>
        <time>2018-06-25T09:09:12.512Z</time>
      </trkpt>
      <trkpt lat="46.03272" lon="3.02118">
        <ele>506</ele>
        <time>2018-06-25T09:09:13.512Z</time>
      </trkpt>
      <trkpt lat="46.03207" lon="3.02175">
        <ele>506</ele>
        <time>2018-06-25T09:09:14.512Z</time>
      </trkpt>
      <trkpt lat="46.03195" lon="3.02195">
        <ele>505</ele>
        <time>2018-06-25T09:09:15.512Z</time>
      </trkpt>
      <trkpt lat="46.03206" lon="3.0225">
        <ele>513</ele>
        <time>2018-06-25T09:09:16.512Z</time>
      </trkpt>
      <trkpt lat="46.03202" lon="3.0227">
        <ele>515</ele>
        <time>2018-06-25T09:09:17.512Z</time>
      </trkpt>
      <trkpt lat="46.03076" lon="3.02316">
        <ele>507</ele>
        <time>2018-06-25T09:09:18.512Z</time>
      </trkpt>
      <trkpt lat="46.03054" lon="3.02346">
        <ele>504</ele>
        <time>2018-06-25T09:09:19.512Z</time>
      </trkpt>
      <trkpt lat="46.02967" lon="3.02385">
        <ele>503</ele>
        <time>2018-06-25T09:09:20.512Z</time>
      </trkpt>
      <trkpt lat="46.0294" lon="3.02406">
        <ele>514</ele>
        <time>2018-06-25T09:09:21.512Z</time>
      </trkpt>
      <trkpt lat="46.02969" lon="3.02486">
        <ele>497</ele>
        <time>2018-06-25T09:09:22.512Z</time>
      </trkpt>
      <trkpt lat="46.02977" lon="3.02544">
        <ele>489</ele>
        <time>2018-06-25T09:09:23.512Z</time>
      </trkpt>
      <trkpt lat="46.02975" lon="3.026">
        <ele>486</ele>
        <time>2018-06-25T09:09:24.512Z</time>
      </trkpt>
      <trkpt lat="46.0299" lon="3.02647">
        <ele>475</ele>
        <time>2018-06-25T09:09:25.512Z</time>
      </trkpt>
      <trkpt lat="46.0302" lon="3.02674">
        <ele>472</ele>
        <time>2018-06-25T09:09:26.512Z</time>
      </trkpt>
      <trkpt lat="46.03018" lon="3.02673">
        <ele>472</ele>
        <time>2018-06-25T09:09:27.512Z</time>
      </trkpt>
      <trkpt lat="46.03016" lon="3.0269">
        <ele>471</ele>
        <time>2018-06-25T09:09:28.512Z</time>
      </trkpt>
      <trkpt lat="46.03016" lon="3.02692">
        <ele>471</ele>
        <time>2018-06-25T09:09:29.512Z</time>
      </trkpt>
      <trkpt lat="46.03008" lon="3.02698">
        <ele>469</ele>
        <time>2018-06-25T09:09:30.512Z</time>
      </trkpt>
      <trkpt lat="46.02999" lon="3.02711">
        <ele>468</ele>
        <time>2018-06-25T09:09:31.512Z</time>
      </trkpt>
      <trkpt lat="46.02993" lon="3.02724">
        <ele>468</ele>
        <time>2018-06-25T09:09:32.512Z</time>
      </trkpt>
      <trkpt lat="46.02987" lon="3.02757">
        <ele>467</ele>
        <time>2018-06-25T09:09:33.512Z</time>
      </trkpt>
      <trkpt lat="46.02984" lon="3.0276">
        <ele>468</ele>
        <time>2018-06-25T09:09:34.512Z</time>
      </trkpt>
      <trkpt lat="46.02975" lon="3.02776">
        <ele>468</ele>
        <time>2018-06-25T09:09:35.512Z</time>
      </trkpt>
      <trkpt lat="46.02916" lon="3.02796">
        <ele>468</ele>
        <time>2018-06-25T09:09:36.512Z</time>
      </trkpt>
      <trkpt lat="46.02864" lon="3.02837">
        <ele>469</ele>
        <time>2018-06-25T09:09:37.512Z</time>
      </trkpt>
      <trkpt lat="46.02863" lon="3.02835">
        <ele>469</ele>
        <time>2018-06-25T09:09:38.512Z</time>
      </trkpt>
      <trkpt lat="46.02857" lon="3.02839">
        <ele>470</ele>
        <time>2018-06-25T09:09:39.512Z</time>
      </trkpt>
      <trkpt lat="46.02847" lon="3.0286">
        <ele>469</ele>
        <time>2018-06-25T09:09:40.512Z</time>
      </trkpt>
      <trkpt lat="46.02805" lon="3.02975">
        <ele>472</ele>
        <time>2018-06-25T09:09:41.512Z</time>
      </trkpt>
      <trkpt lat="46.028" lon="3.02993">
        <ele>472</ele>
        <time>2018-06-25T09:09:42.512Z</time>
      </trkpt>
      <trkpt lat="46.0279" lon="3.03118">
        <ele>474</ele>
        <time>2018-06-25T09:09:43.512Z</time>
      </trkpt>
      <trkpt lat="46.02822" lon="3.03305">
        <ele>457</ele>
        <time>2018-06-25T09:09:44.512Z</time>
      </trkpt>
      <trkpt lat="46.02817" lon="3.0332">
        <ele>456</ele>
        <time>2018-06-25T09:09:45.512Z</time>
      </trkpt>
      <trkpt lat="46.02745" lon="3.03332">
        <ele>456</ele>
        <time>2018-06-25T09:09:46.512Z</time>
      </trkpt>
      <trkpt lat="46.02687" lon="3.03375">
        <ele>461</ele>
        <time>2018-06-25T09:09:47.512Z</time>
      </trkpt>
      <trkpt lat="46.02658" lon="3.03408">
        <ele>463</ele>
        <time>2018-06-25T09:09:48.512Z</time>
      </trkpt>
      <trkpt lat="46.02556" lon="3.03416">
        <ele>478</ele>
        <time>2018-06-25T09:09:49.512Z</time>
      </trkpt>
      <trkpt lat="46.02562" lon="3.03402">
        <ele>475</ele>
        <time>2018-06-25T09:09:50.512Z</time>
      </trkpt>
      <trkpt lat="46.02564" lon="3.03385">
        <ele>473</ele>
        <time>2018-06-25T09:09:51.512Z</time>
      </trkpt>
      <trkpt lat="46.02556" lon="3.03371">
        <ele>475</ele>
        <time>2018-06-25T09:09:52.512Z</time>
      </trkpt>
      <trkpt lat="46.02551" lon="3.03356">
        <ele>475</ele>
        <time>2018-06-25T09:09:53.512Z</time>
      </trkpt>
      <trkpt lat="46.02551" lon="3.03346">
        <ele>475</ele>
        <time>2018-06-25T09:09:54.512Z</time>
      </trkpt>
      <trkpt lat="46.02544" lon="3.03299">
        <ele>476</ele>
        <time>2018-06-25T09:09:55.512Z</time>
      </trkpt>
      <trkpt lat="46.02538" lon="3.03282">
        <ele>478</ele>
        <time>2018-06-25T09:09:56.512Z</time>
      </trkpt>
      <trkpt lat="46.02539" lon="3.03272">
        <ele>478</ele>
        <time>2018-06-25T09:09:57.512Z</time>
      </trkpt>
      <trkpt lat="46.02535" lon="3.03252">
        <ele>479</ele>
        <time>2018-06-25T09:09:58.512Z</time>
      </trkpt>
      <trkpt lat="46.02529" lon="3.03241">
        <ele>480</ele>
        <time>2018-06-25T09:09:59.512Z</time>
      </trkpt>
      <trkpt lat="46.02499" lon="3.03177">
        <ele>484</ele>
        <time>2018-06-25T09:10:00.512Z</time>
      </trkpt>
      <trkpt lat="46.02399" lon="3.03147">
        <ele>503</ele>
        <time>2018-06-25T09:10:01.512Z</time>
      </trkpt>
      <trkpt lat="46.02418" lon="3.03239">
        <ele>510</ele>
        <time>2018-06-25T09:10:02.512Z</time>
      </trkpt>
      <trkpt lat="46.02342" lon="3.03218">
        <ele>525</ele>
        <time>2018-06-25T09:10:03.512Z</time>
      </trkpt>
      <trkpt lat="46.02369" lon="3.03317">
        <ele>533</ele>
        <time>2018-06-25T09:10:04.512Z</time>
      </trkpt>
      <trkpt lat="46.0236" lon="3.03375">
        <ele>539</ele>
        <time>2018-06-25T09:10:05.512Z</time>
      </trkpt>
      <trkpt lat="46.02262" lon="3.03403">
        <ele>556</ele>
        <time>2018-06-25T09:10:06.512Z</time>
      </trkpt>
      <trkpt lat="46.02194" lon="3.0344">
        <ele>562</ele>
        <time>2018-06-25T09:10:07.512Z</time>
      </trkpt>
      <trkpt lat="46.02115" lon="3.03511">
        <ele>567</ele>
        <time>2018-06-25T09:10:08.512Z</time>
      </trkpt>
      <trkpt lat="46.02034" lon="3.0355">
        <ele>572</ele>
        <time>2018-06-25T09:10:09.512Z</time>
      </trkpt>
      <trkpt lat="46.01941" lon="3.03578">
        <ele>578</ele>
        <time>2018-06-25T09:10:10.512Z</time>
      </trkpt>
      <trkpt lat="46.01852" lon="3.03638">
        <ele>583</ele>
        <time>2018-06-25T09:10:11.512Z</time>
      </trkpt>
      <trkpt lat="46.01792" lon="3.03702">
        <ele>583</ele>
        <time>2018-06-25T09:10:12.512Z</time>
      </trkpt>
      <trkpt lat="46.01723" lon="3.03713">
        <ele>584</ele>
        <time>2018-06-25T09:10:13.512Z</time>
      </trkpt>
      <trkpt lat="46.01523" lon="3.03679">
        <ele>593</ele>
        <time>2018-06-25T09:10:14.512Z</time>
      </trkpt>
      <trkpt lat="46.01348" lon="3.03795">
        <ele>597</ele>
        <time>2018-06-25T09:10:15.512Z</time>
      </trkpt>
      <trkpt lat="46.01269" lon="3.0392">
        <ele>599</ele>
        <time>2018-06-25T09:10:16.512Z</time>
      </trkpt>
      <trkpt lat="46.01207" lon="3.03993">
        <ele>599</ele>
        <time>2018-06-25T09:10:17.512Z</time>
      </trkpt>
      <trkpt lat="46.0116" lon="3.04032">
        <ele>601</ele>
        <time>2018-06-25T09:10:18.512Z</time>
      </trkpt>
      <trkpt lat="46.01151" lon="3.04029">
        <ele>601</ele>
        <time>2018-06-25T09:10:19.512Z</time>
      </trkpt>
      <trkpt lat="46.01158" lon="3.03913">
        <ele>600</ele>
        <time>2018-06-25T09:10:20.512Z</time>
      </trkpt>
      <trkpt lat="46.01138" lon="3.03785">
        <ele>596</ele>
        <time>2018-06-25T09:10:21.512Z</time>
      </trkpt>
      <trkpt lat="46.01094" lon="3.0362">
        <ele>596</ele>
        <time>2018-06-25T09:10:22.512Z</time>
      </trkpt>
      <trkpt lat="46.01091" lon="3.03622">
        <ele>595</ele>
        <time>2018-06-25T09:10:23.512Z</time>
      </trkpt>
      <trkpt lat="46.01027" lon="3.03507">
        <ele>595</ele>
        <time>2018-06-25T09:10:24.512Z</time>
      </trkpt>
      <trkpt lat="46.00977" lon="3.03403">
        <ele>597</ele>
        <time>2018-06-25T09:10:25.512Z</time>
      </trkpt>
      <trkpt lat="46.00963" lon="3.03297">
        <ele>595</ele>
        <time>2018-06-25T09:10:26.512Z</time>
      </trkpt>
      <trkpt lat="46.00963" lon="3.03167">
        <ele>592</ele>
        <time>2018-06-25T09:10:27.512Z</time>
      </trkpt>
      <trkpt lat="46.00954" lon="3.03127">
        <ele>593</ele>
        <time>2018-06-25T09:10:28.512Z</time>
      </trkpt>
      <trkpt lat="46.00904" lon="3.03043">
        <ele>595</ele>
        <time>2018-06-25T09:10:29.512Z</time>
      </trkpt>
      <trkpt lat="46.00676" lon="3.02802">
        <ele>598</ele>
        <time>2018-06-25T09:10:30.512Z</time>
      </trkpt>
      <trkpt lat="46.00655" lon="3.02804">
        <ele>597</ele>
        <time>2018-06-25T09:10:31.512Z</time>
      </trkpt>
      <trkpt lat="46.00612" lon="3.0285">
        <ele>594</ele>
        <time>2018-06-25T09:10:32.512Z</time>
      </trkpt>
      <trkpt lat="46.00498" lon="3.02878">
        <ele>589</ele>
        <time>2018-06-25T09:10:33.512Z</time>
      </trkpt>
      <trkpt lat="46.00402" lon="3.02917">
        <ele>582</ele>
        <time>2018-06-25T09:10:34.512Z</time>
      </trkpt>
      <trkpt lat="46.00382" lon="3.02938">
        <ele>581</ele>
        <time>2018-06-25T09:10:35.512Z</time>
      </trkpt>
      <trkpt lat="46.00356" lon="3.03007">
        <ele>579</ele>
        <time>2018-06-25T09:10:36.512Z</time>
      </trkpt>
      <trkpt lat="46.00353" lon="3.03036">
        <ele>577</ele>
        <time>2018-06-25T09:10:37.512Z</time>
      </trkpt>
      <trkpt lat="46.00272" lon="3.03225">
        <ele>568</ele>
        <time>2018-06-25T09:10:38.512Z</time>
      </trkpt>
      <trkpt lat="46.00243" lon="3.03225">
        <ele>568</ele>
        <time>2018-06-25T09:10:39.512Z</time>
      </trkpt>
      <trkpt lat="46.00188" lon="3.03275">
        <ele>574</ele>
        <time>2018-06-25T09:10:40.512Z</time>
      </trkpt>
      <trkpt lat="46.0018" lon="3.03295">
        <ele>575</ele>
        <time>2018-06-25T09:10:41.512Z</time>
      </trkpt>
      <trkpt lat="46.00174" lon="3.03364">
        <ele>578</ele>
        <time>2018-06-25T09:10:42.512Z</time>
      </trkpt>
      <trkpt lat="46.00166" lon="3.03388">
        <ele>580</ele>
        <time>2018-06-25T09:10:43.512Z</time>
      </trkpt>
      <trkpt lat="46.00137" lon="3.03425">
        <ele>583</ele>
        <time>2018-06-25T09:10:44.512Z</time>
      </trkpt>
      <trkpt lat="46.00127" lon="3.0346">
        <ele>584</ele>
        <time>2018-06-25T09:10:45.512Z</time>
      </trkpt>
      <trkpt lat="46.00147" lon="3.03539">
        <ele>582</ele>
        <time>2018-06-25T09:10:46.512Z</time>
      </trkpt>
      <trkpt lat="46.00151" lon="3.03604">
        <ele>582</ele>
        <time>2018-06-25T09:10:47.512Z</time>
      </trkpt>
      <trkpt lat="46.00146" lon="3.03638">
        <ele>583</ele>
        <time>2018-06-25T09:10:48.512Z</time>
      </trkpt>
      <trkpt lat="46.00126" lon="3.03672">
        <ele>586</ele>
        <time>2018-06-25T09:10:49.512Z</time>
      </trkpt>
      <trkpt lat="46.00101" lon="3.03677">
        <ele>588</ele>
        <time>2018-06-25T09:10:50.512Z</time>
      </trkpt>
      <trkpt lat="46.00073" lon="3.03667">
        <ele>591</ele>
        <time>2018-06-25T09:10:51.512Z</time>
      </trkpt>
      <trkpt lat="45.99875" lon="3.03512">
        <ele>597</ele>
        <time>2018-06-25T09:10:52.512Z</time>
      </trkpt>
      <trkpt lat="45.9983" lon="3.03495">
        <ele>596</ele>
        <time>2018-06-25T09:10:53.512Z</time>
      </trkpt>
      <trkpt lat="45.99751" lon="3.03436">
        <ele>595</ele>
        <time>2018-06-25T09:10:54.512Z</time>
      </trkpt>
      <trkpt lat="45.99648" lon="3.03323">
        <ele>598</ele>
        <time>2018-06-25T09:10:55.512Z</time>
      </trkpt>
      <trkpt lat="45.99569" lon="3.03204">
        <ele>603</ele>
        <time>2018-06-25T09:10:56.512Z</time>
      </trkpt>
      <trkpt lat="45.99499" lon="3.03169">
        <ele>605</ele>
        <time>2018-06-25T09:10:57.512Z</time>
      </trkpt>
      <trkpt lat="45.99382" lon="3.03175">
        <ele>610</ele>
        <time>2018-06-25T09:10:58.512Z</time>
      </trkpt>
      <trkpt lat="45.9932" lon="3.03206">
        <ele>613</ele>
        <time>2018-06-25T09:10:59.512Z</time>
      </trkpt>
      <trkpt lat="45.99236" lon="3.0328">
        <ele>618</ele>
        <time>2018-06-25T09:11:00.512Z</time>
      </trkpt>
      <trkpt lat="45.99203" lon="3.0334">
        <ele>622</ele>
        <time>2018-06-25T09:11:01.512Z</time>
      </trkpt>
      <trkpt lat="45.9913" lon="3.03567">
        <ele>618</ele>
        <time>2018-06-25T09:11:02.512Z</time>
      </trkpt>
      <trkpt lat="45.99082" lon="3.03771">
        <ele>616</ele>
        <time>2018-06-25T09:11:03.512Z</time>
      </trkpt>
      <trkpt lat="45.99037" lon="3.03918">
        <ele>619</ele>
        <time>2018-06-25T09:11:04.512Z</time>
      </trkpt>
      <trkpt lat="45.99027" lon="3.04033">
        <ele>617</ele>
        <time>2018-06-25T09:11:05.512Z</time>
      </trkpt>
      <trkpt lat="45.99017" lon="3.04066">
        <ele>616</ele>
        <time>2018-06-25T09:11:06.512Z</time>
      </trkpt>
      <trkpt lat="45.98964" lon="3.04135">
        <ele>613</ele>
        <time>2018-06-25T09:11:07.512Z</time>
      </trkpt>
      <trkpt lat="45.98871" lon="3.0415">
        <ele>615</ele>
        <time>2018-06-25T09:11:08.512Z</time>
      </trkpt>
      <trkpt lat="45.98854" lon="3.04186">
        <ele>614</ele>
        <time>2018-06-25T09:11:09.512Z</time>
      </trkpt>
      <trkpt lat="45.98833" lon="3.04196">
        <ele>616</ele>
        <time>2018-06-25T09:11:10.512Z</time>
      </trkpt>
      <trkpt lat="45.98657" lon="3.04131">
        <ele>623</ele>
        <time>2018-06-25T09:11:11.512Z</time>
      </trkpt>
      <trkpt lat="45.98371" lon="3.04202">
        <ele>630</ele>
        <time>2018-06-25T09:11:12.512Z</time>
      </trkpt>
      <trkpt lat="45.98409" lon="3.04087">
        <ele>628</ele>
        <time>2018-06-25T09:11:13.512Z</time>
      </trkpt>
      <trkpt lat="45.98433" lon="3.03984">
        <ele>630</ele>
        <time>2018-06-25T09:11:14.512Z</time>
      </trkpt>
      <trkpt lat="45.98432" lon="3.03954">
        <ele>630</ele>
        <time>2018-06-25T09:11:15.512Z</time>
      </trkpt>
      <trkpt lat="45.98403" lon="3.03878">
        <ele>631</ele>
        <time>2018-06-25T09:11:16.512Z</time>
      </trkpt>
      <trkpt lat="45.9841" lon="3.03804">
        <ele>632</ele>
        <time>2018-06-25T09:11:17.512Z</time>
      </trkpt>
      <trkpt lat="45.98404" lon="3.03681">
        <ele>635</ele>
        <time>2018-06-25T09:11:18.512Z</time>
      </trkpt>
      <trkpt lat="45.98334" lon="3.03359">
        <ele>647</ele>
        <time>2018-06-25T09:11:19.512Z</time>
      </trkpt>
      <trkpt lat="45.98313" lon="3.03155">
        <ele>655</ele>
        <time>2018-06-25T09:11:20.512Z</time>
      </trkpt>
      <trkpt lat="45.98297" lon="3.0312">
        <ele>657</ele>
        <time>2018-06-25T09:11:21.512Z</time>
      </trkpt>
      <trkpt lat="45.98214" lon="3.03022">
        <ele>663</ele>
        <time>2018-06-25T09:11:22.512Z</time>
      </trkpt>
      <trkpt lat="45.98195" lon="3.03011">
        <ele>663</ele>
        <time>2018-06-25T09:11:23.512Z</time>
      </trkpt>
      <trkpt lat="45.9812" lon="3.03007">
        <ele>663</ele>
        <time>2018-06-25T09:11:24.512Z</time>
      </trkpt>
      <trkpt lat="45.9801" lon="3.02985">
        <ele>661</ele>
        <time>2018-06-25T09:11:25.512Z</time>
      </trkpt>
      <trkpt lat="45.97796" lon="3.02962">
        <ele>659</ele>
        <time>2018-06-25T09:11:26.512Z</time>
      </trkpt>
      <trkpt lat="45.97732" lon="3.02908">
        <ele>657</ele>
        <time>2018-06-25T09:11:27.512Z</time>
      </trkpt>
      <trkpt lat="45.97685" lon="3.02852">
        <ele>656</ele>
        <time>2018-06-25T09:11:28.512Z</time>
      </trkpt>
      <trkpt lat="45.97586" lon="3.02816">
        <ele>653</ele>
        <time>2018-06-25T09:11:29.512Z</time>
      </trkpt>
      <trkpt lat="45.97549" lon="3.02794">
        <ele>654</ele>
        <time>2018-06-25T09:11:30.512Z</time>
      </trkpt>
      <trkpt lat="45.97403" lon="3.02644">
        <ele>652</ele>
        <time>2018-06-25T09:11:31.512Z</time>
      </trkpt>
      <trkpt lat="45.97352" lon="3.02543">
        <ele>653</ele>
        <time>2018-06-25T09:11:32.512Z</time>
      </trkpt>
      <trkpt lat="45.97304" lon="3.02481">
        <ele>655</ele>
        <time>2018-06-25T09:11:33.512Z</time>
      </trkpt>
      <trkpt lat="45.97235" lon="3.02447">
        <ele>656</ele>
        <time>2018-06-25T09:11:34.512Z</time>
      </trkpt>
      <trkpt lat="45.97209" lon="3.0242">
        <ele>658</ele>
        <time>2018-06-25T09:11:35.512Z</time>
      </trkpt>
      <trkpt lat="45.97171" lon="3.02348">
        <ele>666</ele>
        <time>2018-06-25T09:11:36.512Z</time>
      </trkpt>
      <trkpt lat="45.97091" lon="3.02322">
        <ele>669</ele>
        <time>2018-06-25T09:11:37.512Z</time>
      </trkpt>
      <trkpt lat="45.97035" lon="3.02264">
        <ele>669</ele>
        <time>2018-06-25T09:11:38.512Z</time>
      </trkpt>
      <trkpt lat="45.97006" lon="3.0219">
        <ele>672</ele>
        <time>2018-06-25T09:11:39.512Z</time>
      </trkpt>
      <trkpt lat="45.96977" lon="3.02147">
        <ele>675</ele>
        <time>2018-06-25T09:11:40.512Z</time>
      </trkpt>
      <trkpt lat="45.96954" lon="3.02133">
        <ele>675</ele>
        <time>2018-06-25T09:11:41.512Z</time>
      </trkpt>
      <trkpt lat="45.96898" lon="3.02118">
        <ele>671</ele>
        <time>2018-06-25T09:11:42.512Z</time>
      </trkpt>
      <trkpt lat="45.96754" lon="3.02019">
        <ele>669</ele>
        <time>2018-06-25T09:11:43.512Z</time>
      </trkpt>
      <trkpt lat="45.96604" lon="3.01972">
        <ele>672</ele>
        <time>2018-06-25T09:11:44.512Z</time>
      </trkpt>
      <trkpt lat="45.96543" lon="3.01933">
        <ele>673</ele>
        <time>2018-06-25T09:11:45.512Z</time>
      </trkpt>
      <trkpt lat="45.96515" lon="3.01933">
        <ele>673</ele>
        <time>2018-06-25T09:11:46.512Z</time>
      </trkpt>
      <trkpt lat="45.96498" lon="3.01949">
        <ele>673</ele>
        <time>2018-06-25T09:11:47.512Z</time>
      </trkpt>
      <trkpt lat="45.96457" lon="3.02029">
        <ele>670</ele>
        <time>2018-06-25T09:11:48.512Z</time>
      </trkpt>
      <trkpt lat="45.96437" lon="3.02041">
        <ele>669</ele>
        <time>2018-06-25T09:11:49.512Z</time>
      </trkpt>
      <trkpt lat="45.9626" lon="3.02036">
        <ele>673</ele>
        <time>2018-06-25T09:11:50.512Z</time>
      </trkpt>
      <trkpt lat="45.96179" lon="3.02061">
        <ele>676</ele>
        <time>2018-06-25T09:11:51.512Z</time>
      </trkpt>
      <trkpt lat="45.96092" lon="3.0212">
        <ele>678</ele>
        <time>2018-06-25T09:11:52.512Z</time>
      </trkpt>
      <trkpt lat="45.96049" lon="3.02161">
        <ele>678</ele>
        <time>2018-06-25T09:11:53.512Z</time>
      </trkpt>
      <trkpt lat="45.96006" lon="3.02218">
        <ele>679</ele>
        <time>2018-06-25T09:11:54.512Z</time>
      </trkpt>
      <trkpt lat="45.95936" lon="3.02339">
        <ele>676</ele>
        <time>2018-06-25T09:11:55.512Z</time>
      </trkpt>
      <trkpt lat="45.95876" lon="3.02374">
        <ele>676</ele>
        <time>2018-06-25T09:11:56.512Z</time>
      </trkpt>
      <trkpt lat="45.95776" lon="3.02397">
        <ele>675</ele>
        <time>2018-06-25T09:11:57.512Z</time>
      </trkpt>
      <trkpt lat="45.95745" lon="3.02372">
        <ele>675</ele>
        <time>2018-06-25T09:11:58.512Z</time>
      </trkpt>
      <trkpt lat="45.95596" lon="3.02101">
        <ele>678</ele>
        <time>2018-06-25T09:11:59.512Z</time>
      </trkpt>
      <trkpt lat="45.95547" lon="3.01964">
        <ele>675</ele>
        <time>2018-06-25T09:12:00.512Z</time>
      </trkpt>
      <trkpt lat="45.95529" lon="3.01943">
        <ele>674</ele>
        <time>2018-06-25T09:12:01.512Z</time>
      </trkpt>
      <trkpt lat="45.95472" lon="3.01906">
        <ele>671</ele>
        <time>2018-06-25T09:12:02.512Z</time>
      </trkpt>
      <trkpt lat="45.95425" lon="3.01855">
        <ele>671</ele>
        <time>2018-06-25T09:12:03.512Z</time>
      </trkpt>
      <trkpt lat="45.9537" lon="3.01762">
        <ele>676</ele>
        <time>2018-06-25T09:12:04.512Z</time>
      </trkpt>
      <trkpt lat="45.95331" lon="3.01723">
        <ele>678</ele>
        <time>2018-06-25T09:12:05.512Z</time>
      </trkpt>
      <trkpt lat="45.95255" lon="3.01687">
        <ele>684</ele>
        <time>2018-06-25T09:12:06.512Z</time>
      </trkpt>
      <trkpt lat="45.95097" lon="3.01686">
        <ele>695</ele>
        <time>2018-06-25T09:12:07.512Z</time>
      </trkpt>
      <trkpt lat="45.9491" lon="3.01583">
        <ele>703</ele>
        <time>2018-06-25T09:12:08.512Z</time>
      </trkpt>
      <trkpt lat="45.94868" lon="3.01568">
        <ele>703</ele>
        <time>2018-06-25T09:12:09.512Z</time>
      </trkpt>
      <trkpt lat="45.94748" lon="3.0155">
        <ele>703</ele>
        <time>2018-06-25T09:12:10.512Z</time>
      </trkpt>
      <trkpt lat="45.94707" lon="3.01523">
        <ele>704</ele>
        <time>2018-06-25T09:12:11.512Z</time>
      </trkpt>
      <trkpt lat="45.94487" lon="3.01185">
        <ele>698</ele>
        <time>2018-06-25T09:12:12.512Z</time>
      </trkpt>
      <trkpt lat="45.94315" lon="3.01021">
        <ele>687</ele>
        <time>2018-06-25T09:12:13.512Z</time>
      </trkpt>
      <trkpt lat="45.94214" lon="3.00868">
        <ele>681</ele>
        <time>2018-06-25T09:12:14.512Z</time>
      </trkpt>
      <trkpt lat="45.94187" lon="3.00846">
        <ele>679</ele>
        <time>2018-06-25T09:12:15.512Z</time>
      </trkpt>
      <trkpt lat="45.94118" lon="3.00846">
        <ele>678</ele>
        <time>2018-06-25T09:12:16.512Z</time>
      </trkpt>
      <trkpt lat="45.94111" lon="3.00838">
        <ele>677</ele>
        <time>2018-06-25T09:12:17.512Z</time>
      </trkpt>
      <trkpt lat="45.94134" lon="3.0079">
        <ele>674</ele>
        <time>2018-06-25T09:12:18.512Z</time>
      </trkpt>
      <trkpt lat="45.94185" lon="3.00735">
        <ele>673</ele>
        <time>2018-06-25T09:12:19.512Z</time>
      </trkpt>
      <trkpt lat="45.94207" lon="3.00653">
        <ele>674</ele>
        <time>2018-06-25T09:12:20.512Z</time>
      </trkpt>
      <trkpt lat="45.94161" lon="3.0056">
        <ele>676</ele>
        <time>2018-06-25T09:12:21.512Z</time>
      </trkpt>
      <trkpt lat="45.94117" lon="3.00554">
        <ele>678</ele>
        <time>2018-06-25T09:12:22.512Z</time>
      </trkpt>
      <trkpt lat="45.94074" lon="3.00527">
        <ele>681</ele>
        <time>2018-06-25T09:12:23.512Z</time>
      </trkpt>
      <trkpt lat="45.93986" lon="3.00418">
        <ele>686</ele>
        <time>2018-06-25T09:12:24.512Z</time>
      </trkpt>
      <trkpt lat="45.93875" lon="3.00201">
        <ele>696</ele>
        <time>2018-06-25T09:12:25.512Z</time>
      </trkpt>
      <trkpt lat="45.93803" lon="3.00108">
        <ele>702</ele>
        <time>2018-06-25T09:12:26.512Z</time>
      </trkpt>
      <trkpt lat="45.93756" lon="3.00079">
        <ele>709</ele>
        <time>2018-06-25T09:12:27.512Z</time>
      </trkpt>
      <trkpt lat="45.93643" lon="3.00049">
        <ele>722</ele>
        <time>2018-06-25T09:12:28.512Z</time>
      </trkpt>
      <trkpt lat="45.93555" lon="3.00011">
        <ele>730</ele>
        <time>2018-06-25T09:12:29.512Z</time>
      </trkpt>
      <trkpt lat="45.93502" lon="3.00008">
        <ele>735</ele>
        <time>2018-06-25T09:12:30.512Z</time>
      </trkpt>
      <trkpt lat="45.93472" lon="2.99995">
        <ele>736</ele>
        <time>2018-06-25T09:12:31.512Z</time>
      </trkpt>
      <trkpt lat="45.93368" lon="2.99884">
        <ele>735</ele>
        <time>2018-06-25T09:12:32.512Z</time>
      </trkpt>
      <trkpt lat="45.93283" lon="2.99726">
        <ele>728</ele>
        <time>2018-06-25T09:12:33.512Z</time>
      </trkpt>
      <trkpt lat="45.93207" lon="2.99621">
        <ele>723</ele>
        <time>2018-06-25T09:12:34.512Z</time>
      </trkpt>
      <trkpt lat="45.93076" lon="2.99363">
        <ele>707</ele>
        <time>2018-06-25T09:12:35.512Z</time>
      </trkpt>
      <trkpt lat="45.93033" lon="2.99294">
        <ele>703</ele>
        <time>2018-06-25T09:12:36.512Z</time>
      </trkpt>
      <trkpt lat="45.93022" lon="2.99246">
        <ele>702</ele>
        <time>2018-06-25T09:12:37.512Z</time>
      </trkpt>
      <trkpt lat="45.93023" lon="2.99197">
        <ele>703</ele>
        <time>2018-06-25T09:12:38.512Z</time>
      </trkpt>
      <trkpt lat="45.93047" lon="2.99119">
        <ele>703</ele>
        <time>2018-06-25T09:12:39.512Z</time>
      </trkpt>
      <trkpt lat="45.93097" lon="2.99011">
        <ele>703</ele>
        <time>2018-06-25T09:12:40.512Z</time>
      </trkpt>
      <trkpt lat="45.93113" lon="2.98957">
        <ele>705</ele>
        <time>2018-06-25T09:12:41.512Z</time>
      </trkpt>
      <trkpt lat="45.93115" lon="2.98903">
        <ele>707</ele>
        <time>2018-06-25T09:12:42.512Z</time>
      </trkpt>
      <trkpt lat="45.93093" lon="2.98818">
        <ele>710</ele>
        <time>2018-06-25T09:12:43.512Z</time>
      </trkpt>
      <trkpt lat="45.93041" lon="2.98792">
        <ele>711</ele>
        <time>2018-06-25T09:12:44.512Z</time>
      </trkpt>
      <trkpt lat="45.92984" lon="2.98789">
        <ele>710</ele>
        <time>2018-06-25T09:12:45.512Z</time>
      </trkpt>
      <trkpt lat="45.9296" lon="2.98823">
        <ele>710</ele>
        <time>2018-06-25T09:12:46.512Z</time>
      </trkpt>
      <trkpt lat="45.92918" lon="2.98832">
        <ele>711</ele>
        <time>2018-06-25T09:12:47.512Z</time>
      </trkpt>
      <trkpt lat="45.92864" lon="2.98861">
        <ele>713</ele>
        <time>2018-06-25T09:12:48.512Z</time>
      </trkpt>
      <trkpt lat="45.92836" lon="2.98889">
        <ele>714</ele>
        <time>2018-06-25T09:12:49.512Z</time>
      </trkpt>
      <trkpt lat="45.92705" lon="2.98909">
        <ele>721</ele>
        <time>2018-06-25T09:12:50.512Z</time>
      </trkpt>
      <trkpt lat="45.92655" lon="2.98888">
        <ele>724</ele>
        <time>2018-06-25T09:12:51.512Z</time>
      </trkpt>
      <trkpt lat="45.92489" lon="2.98883">
        <ele>731</ele>
        <time>2018-06-25T09:12:52.512Z</time>
      </trkpt>
      <trkpt lat="45.92383" lon="2.98829">
        <ele>729</ele>
        <time>2018-06-25T09:12:53.512Z</time>
      </trkpt>
      <trkpt lat="45.92318" lon="2.98769">
        <ele>728</ele>
        <time>2018-06-25T09:12:54.512Z</time>
      </trkpt>
      <trkpt lat="45.92249" lon="2.98651">
        <ele>729</ele>
        <time>2018-06-25T09:12:55.512Z</time>
      </trkpt>
      <trkpt lat="45.92142" lon="2.98541">
        <ele>727</ele>
        <time>2018-06-25T09:12:56.512Z</time>
      </trkpt>
      <trkpt lat="45.92093" lon="2.98477">
        <ele>725</ele>
        <time>2018-06-25T09:12:57.512Z</time>
      </trkpt>
      <trkpt lat="45.92069" lon="2.98425">
        <ele>724</ele>
        <time>2018-06-25T09:12:58.512Z</time>
      </trkpt>
      <trkpt lat="45.92019" lon="2.98349">
        <ele>720</ele>
        <time>2018-06-25T09:12:59.512Z</time>
      </trkpt>
      <trkpt lat="45.91999" lon="2.98295">
        <ele>721</ele>
        <time>2018-06-25T09:13:00.512Z</time>
      </trkpt>
      <trkpt lat="45.91993" lon="2.98229">
        <ele>723</ele>
        <time>2018-06-25T09:13:01.512Z</time>
      </trkpt>
      <trkpt lat="45.91974" lon="2.98209">
        <ele>723</ele>
        <time>2018-06-25T09:13:02.512Z</time>
      </trkpt>
      <trkpt lat="45.91953" lon="2.98235">
        <ele>721</ele>
        <time>2018-06-25T09:13:03.512Z</time>
      </trkpt>
      <trkpt lat="45.91892" lon="2.9827">
        <ele>718</ele>
        <time>2018-06-25T09:13:04.512Z</time>
      </trkpt>
      <trkpt lat="45.91837" lon="2.98264">
        <ele>719</ele>
        <time>2018-06-25T09:13:05.512Z</time>
      </trkpt>
      <trkpt lat="45.91823" lon="2.9828">
        <ele>720</ele>
        <time>2018-06-25T09:13:06.512Z</time>
      </trkpt>
      <trkpt lat="45.91811" lon="2.98366">
        <ele>721</ele>
        <time>2018-06-25T09:13:07.512Z</time>
      </trkpt>
      <trkpt lat="45.91767" lon="2.98503">
        <ele>727</ele>
        <time>2018-06-25T09:13:08.512Z</time>
      </trkpt>
      <trkpt lat="45.91748" lon="2.98542">
        <ele>731</ele>
        <time>2018-06-25T09:13:09.512Z</time>
      </trkpt>
      <trkpt lat="45.91673" lon="2.98623">
        <ele>740</ele>
        <time>2018-06-25T09:13:10.512Z</time>
      </trkpt>
      <trkpt lat="45.91653" lon="2.98678">
        <ele>743</ele>
        <time>2018-06-25T09:13:11.512Z</time>
      </trkpt>
      <trkpt lat="45.91652" lon="2.98718">
        <ele>743</ele>
        <time>2018-06-25T09:13:12.512Z</time>
      </trkpt>
      <trkpt lat="45.91613" lon="2.98827">
        <ele>746</ele>
        <time>2018-06-25T09:13:13.512Z</time>
      </trkpt>
      <trkpt lat="45.91562" lon="2.98799">
        <ele>750</ele>
        <time>2018-06-25T09:13:14.512Z</time>
      </trkpt>
      <trkpt lat="45.91547" lon="2.98674">
        <ele>755</ele>
        <time>2018-06-25T09:13:15.512Z</time>
      </trkpt>
      <trkpt lat="45.91546" lon="2.98605">
        <ele>757</ele>
        <time>2018-06-25T09:13:16.512Z</time>
      </trkpt>
      <trkpt lat="45.91537" lon="2.98557">
        <ele>758</ele>
        <time>2018-06-25T09:13:17.512Z</time>
      </trkpt>
      <trkpt lat="45.91465" lon="2.98414">
        <ele>768</ele>
        <time>2018-06-25T09:13:18.512Z</time>
      </trkpt>
      <trkpt lat="45.91395" lon="2.98379">
        <ele>773</ele>
        <time>2018-06-25T09:13:19.512Z</time>
      </trkpt>
      <trkpt lat="45.91293" lon="2.98275">
        <ele>770</ele>
        <time>2018-06-25T09:13:20.512Z</time>
      </trkpt>
      <trkpt lat="45.91117" lon="2.98224">
        <ele>769</ele>
        <time>2018-06-25T09:13:21.512Z</time>
      </trkpt>
      <trkpt lat="45.91063" lon="2.98197">
        <ele>770</ele>
        <time>2018-06-25T09:13:22.512Z</time>
      </trkpt>
      <trkpt lat="45.91001" lon="2.98195">
        <ele>769</ele>
        <time>2018-06-25T09:13:23.512Z</time>
      </trkpt>
      <trkpt lat="45.90949" lon="2.98158">
        <ele>770</ele>
        <time>2018-06-25T09:13:24.512Z</time>
      </trkpt>
      <trkpt lat="45.90815" lon="2.98102">
        <ele>775</ele>
        <time>2018-06-25T09:13:25.512Z</time>
      </trkpt>
      <trkpt lat="45.9075" lon="2.98126">
        <ele>777</ele>
        <time>2018-06-25T09:13:26.512Z</time>
      </trkpt>
      <trkpt lat="45.90529" lon="2.98144">
        <ele>786</ele>
        <time>2018-06-25T09:13:27.512Z</time>
      </trkpt>
      <trkpt lat="45.90474" lon="2.98138">
        <ele>786</ele>
        <time>2018-06-25T09:13:28.512Z</time>
      </trkpt>
      <trkpt lat="45.904" lon="2.98101">
        <ele>787</ele>
        <time>2018-06-25T09:13:29.512Z</time>
      </trkpt>
      <trkpt lat="45.90351" lon="2.98052">
        <ele>786</ele>
        <time>2018-06-25T09:13:30.512Z</time>
      </trkpt>
      <trkpt lat="45.90143" lon="2.97745">
        <ele>789</ele>
        <time>2018-06-25T09:13:31.512Z</time>
      </trkpt>
      <trkpt lat="45.90134" lon="2.97749">
        <ele>787</ele>
        <time>2018-06-25T09:13:32.512Z</time>
      </trkpt>
      <trkpt lat="45.90072" lon="2.98039">
        <ele>778</ele>
        <time>2018-06-25T09:13:33.512Z</time>
      </trkpt>
      <trkpt lat="45.90023" lon="2.98118">
        <ele>784</ele>
        <time>2018-06-25T09:13:34.512Z</time>
      </trkpt>
      <trkpt lat="45.90005" lon="2.98183">
        <ele>785</ele>
        <time>2018-06-25T09:13:35.512Z</time>
      </trkpt>
      <trkpt lat="45.89933" lon="2.9824">
        <ele>787</ele>
        <time>2018-06-25T09:13:36.512Z</time>
      </trkpt>
      <trkpt lat="45.8988" lon="2.98263">
        <ele>788</ele>
        <time>2018-06-25T09:13:37.512Z</time>
      </trkpt>
      <trkpt lat="45.89772" lon="2.98388">
        <ele>788</ele>
        <time>2018-06-25T09:13:38.512Z</time>
      </trkpt>
      <trkpt lat="45.89709" lon="2.9845">
        <ele>785</ele>
        <time>2018-06-25T09:13:39.512Z</time>
      </trkpt>
      <trkpt lat="45.89681" lon="2.98521">
        <ele>786</ele>
        <time>2018-06-25T09:13:40.512Z</time>
      </trkpt>
      <trkpt lat="45.89555" lon="2.98672">
        <ele>788</ele>
        <time>2018-06-25T09:13:41.512Z</time>
      </trkpt>
      <trkpt lat="45.89546" lon="2.98665">
        <ele>788</ele>
        <time>2018-06-25T09:13:42.512Z</time>
      </trkpt>
      <trkpt lat="45.89492" lon="2.98617">
        <ele>787</ele>
        <time>2018-06-25T09:13:43.512Z</time>
      </trkpt>
      <trkpt lat="45.89462" lon="2.98607">
        <ele>786</ele>
        <time>2018-06-25T09:13:44.512Z</time>
      </trkpt>
      <trkpt lat="45.89139" lon="2.98625">
        <ele>779</ele>
        <time>2018-06-25T09:13:45.512Z</time>
      </trkpt>
      <trkpt lat="45.89005" lon="2.98572">
        <ele>776</ele>
        <time>2018-06-25T09:13:46.512Z</time>
      </trkpt>
      <trkpt lat="45.88876" lon="2.98483">
        <ele>772</ele>
        <time>2018-06-25T09:13:47.512Z</time>
      </trkpt>
      <trkpt lat="45.88727" lon="2.98436">
        <ele>772</ele>
        <time>2018-06-25T09:13:48.512Z</time>
      </trkpt>
      <trkpt lat="45.88628" lon="2.98362">
        <ele>778</ele>
        <time>2018-06-25T09:13:49.512Z</time>
      </trkpt>
      <trkpt lat="45.88627" lon="2.98361">
        <ele>778</ele>
        <time>2018-06-25T09:13:50.512Z</time>
      </trkpt>
      <trkpt lat="45.88626" lon="2.98364">
        <ele>778</ele>
        <time>2018-06-25T09:13:51.512Z</time>
      </trkpt>
      <trkpt lat="45.88616" lon="2.9836">
        <ele>778</ele>
        <time>2018-06-25T09:13:52.512Z</time>
      </trkpt>
      <trkpt lat="45.88597" lon="2.98354">
        <ele>779</ele>
        <time>2018-06-25T09:13:53.512Z</time>
      </trkpt>
      <trkpt lat="45.88576" lon="2.98353">
        <ele>779</ele>
        <time>2018-06-25T09:13:54.512Z</time>
      </trkpt>
      <trkpt lat="45.88575" lon="2.98342">
        <ele>779</ele>
        <time>2018-06-25T09:13:55.512Z</time>
      </trkpt>
      <trkpt lat="45.8857" lon="2.98338">
        <ele>779</ele>
        <time>2018-06-25T09:13:56.512Z</time>
      </trkpt>
      <trkpt lat="45.88436" lon="2.98271">
        <ele>783</ele>
        <time>2018-06-25T09:13:57.512Z</time>
      </trkpt>
      <trkpt lat="45.88405" lon="2.98252">
        <ele>783</ele>
        <time>2018-06-25T09:13:58.512Z</time>
      </trkpt>
      <trkpt lat="45.88397" lon="2.98261">
        <ele>783</ele>
        <time>2018-06-25T09:13:59.512Z</time>
      </trkpt>
      <trkpt lat="45.88398" lon="2.98261">
        <ele>783</ele>
        <time>2018-06-25T09:14:00.512Z</time>
      </trkpt>
      <trkpt lat="45.88392" lon="2.98267">
        <ele>783</ele>
        <time>2018-06-25T09:14:01.512Z</time>
      </trkpt>
      <trkpt lat="45.88381" lon="2.98261">
        <ele>783</ele>
        <time>2018-06-25T09:14:02.512Z</time>
      </trkpt>
      <trkpt lat="45.88362" lon="2.98254">
        <ele>783</ele>
        <time>2018-06-25T09:14:03.512Z</time>
      </trkpt>
      <trkpt lat="45.88337" lon="2.98256">
        <ele>783</ele>
        <time>2018-06-25T09:14:04.512Z</time>
      </trkpt>
      <trkpt lat="45.8827" lon="2.98279">
        <ele>784</ele>
        <time>2018-06-25T09:14:05.512Z</time>
      </trkpt>
      <trkpt lat="45.88252" lon="2.9828">
        <ele>784</ele>
        <time>2018-06-25T09:14:06.512Z</time>
      </trkpt>
      <trkpt lat="45.8816" lon="2.98271">
        <ele>784</ele>
        <time>2018-06-25T09:14:07.512Z</time>
      </trkpt>
      <trkpt lat="45.88064" lon="2.98257">
        <ele>784</ele>
        <time>2018-06-25T09:14:08.512Z</time>
      </trkpt>
      <trkpt lat="45.88006" lon="2.98253">
        <ele>787</ele>
        <time>2018-06-25T09:14:09.512Z</time>
      </trkpt>
      <trkpt lat="45.87936" lon="2.98236">
        <ele>794</ele>
        <time>2018-06-25T09:14:10.512Z</time>
      </trkpt>
      <trkpt lat="45.87903" lon="2.98218">
        <ele>797</ele>
        <time>2018-06-25T09:14:11.512Z</time>
      </trkpt>
      <trkpt lat="45.87883" lon="2.98205">
        <ele>798</ele>
        <time>2018-06-25T09:14:12.512Z</time>
      </trkpt>
      <trkpt lat="45.87756" lon="2.98091">
        <ele>798</ele>
        <time>2018-06-25T09:14:13.512Z</time>
      </trkpt>
      <trkpt lat="45.87742" lon="2.98082">
        <ele>797</ele>
        <time>2018-06-25T09:14:14.512Z</time>
      </trkpt>
      <trkpt lat="45.87741" lon="2.98082">
        <ele>797</ele>
        <time>2018-06-25T09:14:15.512Z</time>
      </trkpt>
      <trkpt lat="45.87728" lon="2.98077">
        <ele>797</ele>
        <time>2018-06-25T09:14:16.512Z</time>
      </trkpt>
      <trkpt lat="45.87719" lon="2.98077">
        <ele>797</ele>
        <time>2018-06-25T09:14:17.512Z</time>
      </trkpt>
      <trkpt lat="45.87672" lon="2.98093">
        <ele>795</ele>
        <time>2018-06-25T09:14:18.512Z</time>
      </trkpt>
      <trkpt lat="45.87616" lon="2.98092">
        <ele>799</ele>
        <time>2018-06-25T09:14:19.512Z</time>
      </trkpt>
      <trkpt lat="45.87598" lon="2.98095">
        <ele>801</ele>
        <time>2018-06-25T09:14:20.512Z</time>
      </trkpt>
      <trkpt lat="45.87583" lon="2.98092">
        <ele>802</ele>
        <time>2018-06-25T09:14:21.512Z</time>
      </trkpt>
      <trkpt lat="45.87574" lon="2.98087">
        <ele>803</ele>
        <time>2018-06-25T09:14:22.512Z</time>
      </trkpt>
      <trkpt lat="45.8757" lon="2.98081">
        <ele>803</ele>
        <time>2018-06-25T09:14:23.512Z</time>
      </trkpt>
      <trkpt lat="45.87533" lon="2.98087">
        <ele>807</ele>
        <time>2018-06-25T09:14:24.512Z</time>
      </trkpt>
      <trkpt lat="45.87476" lon="2.9809">
        <ele>812</ele>
        <time>2018-06-25T09:14:25.512Z</time>
      </trkpt>
      <trkpt lat="45.87386" lon="2.98071">
        <ele>814</ele>
        <time>2018-06-25T09:14:26.512Z</time>
      </trkpt>
      <trkpt lat="45.87284" lon="2.98035">
        <ele>813</ele>
        <time>2018-06-25T09:14:27.512Z</time>
      </trkpt>
      <trkpt lat="45.87143" lon="2.97986">
        <ele>814</ele>
        <time>2018-06-25T09:14:28.512Z</time>
      </trkpt>
      <trkpt lat="45.8713" lon="2.97987">
        <ele>815</ele>
        <time>2018-06-25T09:14:29.512Z</time>
      </trkpt>
      <trkpt lat="45.8712" lon="2.97994">
        <ele>815</ele>
        <time>2018-06-25T09:14:30.512Z</time>
      </trkpt>
      <trkpt lat="45.87111" lon="2.98004">
        <ele>815</ele>
        <time>2018-06-25T09:14:31.512Z</time>
      </trkpt>
      <trkpt lat="45.8709" lon="2.97992">
        <ele>817</ele>
        <time>2018-06-25T09:14:32.512Z</time>
      </trkpt>
      <trkpt lat="45.8707" lon="2.97983">
        <ele>818</ele>
        <time>2018-06-25T09:14:33.512Z</time>
      </trkpt>
      <trkpt lat="45.87053" lon="2.9798">
        <ele>818</ele>
        <time>2018-06-25T09:14:34.512Z</time>
      </trkpt>
      <trkpt lat="45.8702" lon="2.97987">
        <ele>819</ele>
        <time>2018-06-25T09:14:35.512Z</time>
      </trkpt>
      <trkpt lat="45.86986" lon="2.98009">
        <ele>821</ele>
        <time>2018-06-25T09:14:36.512Z</time>
      </trkpt>
      <trkpt lat="45.86951" lon="2.98035">
        <ele>823</ele>
        <time>2018-06-25T09:14:37.512Z</time>
      </trkpt>
      <trkpt lat="45.86945" lon="2.98036">
        <ele>824</ele>
        <time>2018-06-25T09:14:38.512Z</time>
      </trkpt>
      <trkpt lat="45.86929" lon="2.98039">
        <ele>825</ele>
        <time>2018-06-25T09:14:39.512Z</time>
      </trkpt>
      <trkpt lat="45.86897" lon="2.98033">
        <ele>826</ele>
        <time>2018-06-25T09:14:40.512Z</time>
      </trkpt>
      <trkpt lat="45.86815" lon="2.97997">
        <ele>828</ele>
        <time>2018-06-25T09:14:41.512Z</time>
      </trkpt>
      <trkpt lat="45.86765" lon="2.97987">
        <ele>826</ele>
        <time>2018-06-25T09:14:42.512Z</time>
      </trkpt>
      <trkpt lat="45.86703" lon="2.97982">
        <ele>829</ele>
        <time>2018-06-25T09:14:43.512Z</time>
      </trkpt>
      <trkpt lat="45.86646" lon="2.9799">
        <ele>833</ele>
        <time>2018-06-25T09:14:44.512Z</time>
      </trkpt>
      <trkpt lat="45.86616" lon="2.97974">
        <ele>835</ele>
        <time>2018-06-25T09:14:45.512Z</time>
      </trkpt>
      <trkpt lat="45.86594" lon="2.97956">
        <ele>837</ele>
        <time>2018-06-25T09:14:46.512Z</time>
      </trkpt>
      <trkpt lat="45.86573" lon="2.97948">
        <ele>839</ele>
        <time>2018-06-25T09:14:47.512Z</time>
      </trkpt>
      <trkpt lat="45.86549" lon="2.97933">
        <ele>841</ele>
        <time>2018-06-25T09:14:48.512Z</time>
      </trkpt>
      <trkpt lat="45.86529" lon="2.97911">
        <ele>842</ele>
        <time>2018-06-25T09:14:49.512Z</time>
      </trkpt>
      <trkpt lat="45.86511" lon="2.97899">
        <ele>844</ele>
        <time>2018-06-25T09:14:50.512Z</time>
      </trkpt>
      <trkpt lat="45.86478" lon="2.97847">
        <ele>846</ele>
        <time>2018-06-25T09:14:51.512Z</time>
      </trkpt>
      <trkpt lat="45.86442" lon="2.97813">
        <ele>847</ele>
        <time>2018-06-25T09:14:52.512Z</time>
      </trkpt>
      <trkpt lat="45.86409" lon="2.97788">
        <ele>849</ele>
        <time>2018-06-25T09:14:53.512Z</time>
      </trkpt>
      <trkpt lat="45.86391" lon="2.9777">
        <ele>850</ele>
        <time>2018-06-25T09:14:54.512Z</time>
      </trkpt>
      <trkpt lat="45.86355" lon="2.97758">
        <ele>852</ele>
        <time>2018-06-25T09:14:55.512Z</time>
      </trkpt>
      <trkpt lat="45.86337" lon="2.97744">
        <ele>853</ele>
        <time>2018-06-25T09:14:56.512Z</time>
      </trkpt>
      <trkpt lat="45.8632" lon="2.97736">
        <ele>854</ele>
        <time>2018-06-25T09:14:57.512Z</time>
      </trkpt>
      <trkpt lat="45.86268" lon="2.97716">
        <ele>857</ele>
        <time>2018-06-25T09:14:58.512Z</time>
      </trkpt>
      <trkpt lat="45.86249" lon="2.97692">
        <ele>858</ele>
        <time>2018-06-25T09:14:59.512Z</time>
      </trkpt>
      <trkpt lat="45.86218" lon="2.97638">
        <ele>857</ele>
        <time>2018-06-25T09:15:00.512Z</time>
      </trkpt>
      <trkpt lat="45.86197" lon="2.97584">
        <ele>856</ele>
        <time>2018-06-25T09:15:01.512Z</time>
      </trkpt>
      <trkpt lat="45.86168" lon="2.97553">
        <ele>856</ele>
        <time>2018-06-25T09:15:02.512Z</time>
      </trkpt>
      <trkpt lat="45.86097" lon="2.97532">
        <ele>863</ele>
        <time>2018-06-25T09:15:03.512Z</time>
      </trkpt>
      <trkpt lat="45.86058" lon="2.97509">
        <ele>865</ele>
        <time>2018-06-25T09:15:04.512Z</time>
      </trkpt>
      <trkpt lat="45.86007" lon="2.97492">
        <ele>864</ele>
        <time>2018-06-25T09:15:05.512Z</time>
      </trkpt>
      <trkpt lat="45.85992" lon="2.97463">
        <ele>864</ele>
        <time>2018-06-25T09:15:06.512Z</time>
      </trkpt>
      <trkpt lat="45.85974" lon="2.97443">
        <ele>865</ele>
        <time>2018-06-25T09:15:07.512Z</time>
      </trkpt>
      <trkpt lat="45.85957" lon="2.9741">
        <ele>866</ele>
        <time>2018-06-25T09:15:08.512Z</time>
      </trkpt>
      <trkpt lat="45.8593" lon="2.97369">
        <ele>867</ele>
        <time>2018-06-25T09:15:09.512Z</time>
      </trkpt>
      <trkpt lat="45.85923" lon="2.97387">
        <ele>867</ele>
        <time>2018-06-25T09:15:10.512Z</time>
      </trkpt>
      <trkpt lat="45.85917" lon="2.97416">
        <ele>867</ele>
        <time>2018-06-25T09:15:11.512Z</time>
      </trkpt>
      <trkpt lat="45.85893" lon="2.97472">
        <ele>869</ele>
        <time>2018-06-25T09:15:12.512Z</time>
      </trkpt>
      <trkpt lat="45.85874" lon="2.9755">
        <ele>872</ele>
        <time>2018-06-25T09:15:13.512Z</time>
      </trkpt>
      <trkpt lat="45.85867" lon="2.97589">
        <ele>873</ele>
        <time>2018-06-25T09:15:14.512Z</time>
      </trkpt>
      <trkpt lat="45.85863" lon="2.97594">
        <ele>874</ele>
        <time>2018-06-25T09:15:15.512Z</time>
      </trkpt>
      <trkpt lat="45.85864" lon="2.97594">
        <ele>874</ele>
        <time>2018-06-25T09:15:16.512Z</time>
      </trkpt>
      <trkpt lat="45.85855" lon="2.97612">
        <ele>874</ele>
        <time>2018-06-25T09:15:17.512Z</time>
      </trkpt>
      <trkpt lat="45.85827" lon="2.97643">
        <ele>877</ele>
        <time>2018-06-25T09:15:18.512Z</time>
      </trkpt>
      <trkpt lat="45.85802" lon="2.97699">
        <ele>882</ele>
        <time>2018-06-25T09:15:19.512Z</time>
      </trkpt>
      <trkpt lat="45.85794" lon="2.97727">
        <ele>883</ele>
        <time>2018-06-25T09:15:20.512Z</time>
      </trkpt>
      <trkpt lat="45.85794" lon="2.97727">
        <ele>883</ele>
        <time>2018-06-25T09:15:21.512Z</time>
      </trkpt>
      <trkpt lat="45.85792" lon="2.97743">
        <ele>884</ele>
        <time>2018-06-25T09:15:22.512Z</time>
      </trkpt>
      <trkpt lat="45.85803" lon="2.97797">
        <ele>885</ele>
        <time>2018-06-25T09:15:23.512Z</time>
      </trkpt>
      <trkpt lat="45.85799" lon="2.97856">
        <ele>886</ele>
        <time>2018-06-25T09:15:24.512Z</time>
      </trkpt>
      <trkpt lat="45.85776" lon="2.97925">
        <ele>887</ele>
        <time>2018-06-25T09:15:25.512Z</time>
      </trkpt>
      <trkpt lat="45.85776" lon="2.97948">
        <ele>889</ele>
        <time>2018-06-25T09:15:26.512Z</time>
      </trkpt>
      <trkpt lat="45.85763" lon="2.97974">
        <ele>891</ele>
        <time>2018-06-25T09:15:27.512Z</time>
      </trkpt>
      <trkpt lat="45.85736" lon="2.98015">
        <ele>893</ele>
        <time>2018-06-25T09:15:28.512Z</time>
      </trkpt>
      <trkpt lat="45.85721" lon="2.98028">
        <ele>892</ele>
        <time>2018-06-25T09:15:29.512Z</time>
      </trkpt>
      <trkpt lat="45.85714" lon="2.98043">
        <ele>893</ele>
        <time>2018-06-25T09:15:30.512Z</time>
      </trkpt>
      <trkpt lat="45.85701" lon="2.98062">
        <ele>892</ele>
        <time>2018-06-25T09:15:31.512Z</time>
      </trkpt>
      <trkpt lat="45.85677" lon="2.98058">
        <ele>889</ele>
        <time>2018-06-25T09:15:32.512Z</time>
      </trkpt>
      <trkpt lat="45.85664" lon="2.98054">
        <ele>888</ele>
        <time>2018-06-25T09:15:33.512Z</time>
      </trkpt>
      <trkpt lat="45.85634" lon="2.9797">
        <ele>892</ele>
        <time>2018-06-25T09:15:34.512Z</time>
      </trkpt>
      <trkpt lat="45.85548" lon="2.97888">
        <ele>905</ele>
        <time>2018-06-25T09:15:35.512Z</time>
      </trkpt>
      <trkpt lat="45.85431" lon="2.97812">
        <ele>917</ele>
        <time>2018-06-25T09:15:36.512Z</time>
      </trkpt>
      <trkpt lat="45.85382" lon="2.97804">
        <ele>919</ele>
        <time>2018-06-25T09:15:37.512Z</time>
      </trkpt>
      <trkpt lat="45.85345" lon="2.97728">
        <ele>927</ele>
        <time>2018-06-25T09:15:38.512Z</time>
      </trkpt>
      <trkpt lat="45.8525" lon="2.97596">
        <ele>940</ele>
        <time>2018-06-25T09:15:39.512Z</time>
      </trkpt>
      <trkpt lat="45.85192" lon="2.9749">
        <ele>960</ele>
        <time>2018-06-25T09:15:40.512Z</time>
      </trkpt>
      <trkpt lat="45.85158" lon="2.97435">
        <ele>971</ele>
        <time>2018-06-25T09:15:41.512Z</time>
      </trkpt>
      <trkpt lat="45.85128" lon="2.97381">
        <ele>982</ele>
        <time>2018-06-25T09:15:42.512Z</time>
      </trkpt>
      <trkpt lat="45.85129" lon="2.97381">
        <ele>982</ele>
        <time>2018-06-25T09:15:43.512Z</time>
      </trkpt>
      <trkpt lat="45.85093" lon="2.97353">
        <ele>987</ele>
        <time>2018-06-25T09:15:44.512Z</time>
      </trkpt>
      <trkpt lat="45.85085" lon="2.97338">
        <ele>990</ele>
        <time>2018-06-25T09:15:45.512Z</time>
      </trkpt>
      <trkpt lat="45.8519" lon="2.9718">
        <ele>1004</ele>
        <time>2018-06-25T09:15:46.512Z</time>
      </trkpt>
      <trkpt lat="45.85242" lon="2.97023">
        <ele>1009</ele>
        <time>2018-06-25T09:15:47.512Z</time>
      </trkpt>
      <trkpt lat="45.85247" lon="2.96908">
        <ele>1016</ele>
        <time>2018-06-25T09:15:48.512Z</time>
      </trkpt>
      <trkpt lat="45.8524" lon="2.96829">
        <ele>1019</ele>
        <time>2018-06-25T09:15:49.512Z</time>
      </trkpt>
      <trkpt lat="45.85294" lon="2.96658">
        <ele>1017</ele>
        <time>2018-06-25T09:15:50.512Z</time>
      </trkpt>
      <trkpt lat="45.85265" lon="2.96603">
        <ele>1022</ele>
        <time>2018-06-25T09:15:51.512Z</time>
      </trkpt>
      <trkpt lat="45.85216" lon="2.96475">
        <ele>1035</ele>
        <time>2018-06-25T09:15:52.512Z</time>
      </trkpt>
      <trkpt lat="45.85165" lon="2.96397">
        <ele>1037</ele>
        <time>2018-06-25T09:15:53.512Z</time>
      </trkpt>
      <trkpt lat="45.85147" lon="2.96385">
        <ele>1039</ele>
        <time>2018-06-25T09:15:54.512Z</time>
      </trkpt>
      <trkpt lat="45.85095" lon="2.96317">
        <ele>1036</ele>
        <time>2018-06-25T09:15:55.512Z</time>
      </trkpt>
      <trkpt lat="45.85042" lon="2.96205">
        <ele>1024</ele>
        <time>2018-06-25T09:15:56.512Z</time>
      </trkpt>
      <trkpt lat="45.85024" lon="2.96179">
        <ele>1019</ele>
        <time>2018-06-25T09:15:57.512Z</time>
      </trkpt>
      <trkpt lat="45.84998" lon="2.96163">
        <ele>1014</ele>
        <time>2018-06-25T09:15:58.512Z</time>
      </trkpt>
      <trkpt lat="45.84913" lon="2.96068">
        <ele>1005</ele>
        <time>2018-06-25T09:15:59.512Z</time>
      </trkpt>
      <trkpt lat="45.84903" lon="2.96067">
        <ele>1006</ele>
        <time>2018-06-25T09:16:00.512Z</time>
      </trkpt>
      <trkpt lat="45.84849" lon="2.96013">
        <ele>1003</ele>
        <time>2018-06-25T09:16:01.512Z</time>
      </trkpt>
      <trkpt lat="45.84824" lon="2.95958">
        <ele>1000</ele>
        <time>2018-06-25T09:16:02.512Z</time>
      </trkpt>
      <trkpt lat="45.84804" lon="2.95926">
        <ele>998</ele>
        <time>2018-06-25T09:16:03.512Z</time>
      </trkpt>
      <trkpt lat="45.84735" lon="2.95859">
        <ele>997</ele>
        <time>2018-06-25T09:16:04.512Z</time>
      </trkpt>
      <trkpt lat="45.84711" lon="2.95844">
        <ele>999</ele>
        <time>2018-06-25T09:16:05.512Z</time>
      </trkpt>
      <trkpt lat="45.846" lon="2.9582">
        <ele>1006</ele>
        <time>2018-06-25T09:16:06.512Z</time>
      </trkpt>
      <trkpt lat="45.84539" lon="2.95795">
        <ele>1007</ele>
        <time>2018-06-25T09:16:07.512Z</time>
      </trkpt>
      <trkpt lat="45.84478" lon="2.95779">
        <ele>1007</ele>
        <time>2018-06-25T09:16:08.512Z</time>
      </trkpt>
      <trkpt lat="45.84427" lon="2.95753">
        <ele>1006</ele>
        <time>2018-06-25T09:16:09.512Z</time>
      </trkpt>
      <trkpt lat="45.84324" lon="2.95724">
        <ele>1005</ele>
        <time>2018-06-25T09:16:10.512Z</time>
      </trkpt>
      <trkpt lat="45.84215" lon="2.95729">
        <ele>1005</ele>
        <time>2018-06-25T09:16:11.512Z</time>
      </trkpt>
      <trkpt lat="45.84106" lon="2.95696">
        <ele>1002</ele>
        <time>2018-06-25T09:16:12.512Z</time>
      </trkpt>
      <trkpt lat="45.84019" lon="2.95689">
        <ele>1001</ele>
        <time>2018-06-25T09:16:13.512Z</time>
      </trkpt>
      <trkpt lat="45.83951" lon="2.95778">
        <ele>1007</ele>
        <time>2018-06-25T09:16:14.512Z</time>
      </trkpt>
      <trkpt lat="45.83871" lon="2.95813">
        <ele>1012</ele>
        <time>2018-06-25T09:16:15.512Z</time>
      </trkpt>
      <trkpt lat="45.83768" lon="2.95878">
        <ele>1022</ele>
        <time>2018-06-25T09:16:16.512Z</time>
      </trkpt>
      <trkpt lat="45.83725" lon="2.95887">
        <ele>1025</ele>
        <time>2018-06-25T09:16:17.512Z</time>
      </trkpt>
      <trkpt lat="45.83703" lon="2.95902">
        <ele>1026</ele>
        <time>2018-06-25T09:16:18.512Z</time>
      </trkpt>
      <trkpt lat="45.83689" lon="2.95907">
        <ele>1027</ele>
        <time>2018-06-25T09:16:19.512Z</time>
      </trkpt>
      <trkpt lat="45.83678" lon="2.95899">
        <ele>1027</ele>
        <time>2018-06-25T09:16:20.512Z</time>
      </trkpt>
      <trkpt lat="45.83664" lon="2.95897">
        <ele>1028</ele>
        <time>2018-06-25T09:16:21.512Z</time>
      </trkpt>
      <trkpt lat="45.83652" lon="2.95906">
        <ele>1029</ele>
        <time>2018-06-25T09:16:22.512Z</time>
      </trkpt>
      <trkpt lat="45.83627" lon="2.95917">
        <ele>1031</ele>
        <time>2018-06-25T09:16:23.512Z</time>
      </trkpt>
      <trkpt lat="45.83578" lon="2.95891">
        <ele>1037</ele>
        <time>2018-06-25T09:16:24.512Z</time>
      </trkpt>
      <trkpt lat="45.83553" lon="2.95873">
        <ele>1041</ele>
        <time>2018-06-25T09:16:25.512Z</time>
      </trkpt>
      <trkpt lat="45.8366" lon="2.95636">
        <ele>1036</ele>
        <time>2018-06-25T09:16:26.512Z</time>
      </trkpt>
      <trkpt lat="45.83671" lon="2.95619">
        <ele>1035</ele>
        <time>2018-06-25T09:16:27.512Z</time>
      </trkpt>
      <trkpt lat="45.83672" lon="2.95619">
        <ele>1034</ele>
        <time>2018-06-25T09:16:28.512Z</time>
      </trkpt>
      <trkpt lat="45.83684" lon="2.956">
        <ele>1034</ele>
        <time>2018-06-25T09:16:29.512Z</time>
      </trkpt>
      <trkpt lat="45.83658" lon="2.95554">
        <ele>1035</ele>
        <time>2018-06-25T09:16:30.512Z</time>
      </trkpt>
      <trkpt lat="45.8349" lon="2.95456">
        <ele>1035</ele>
        <time>2018-06-25T09:16:31.512Z</time>
      </trkpt>
      <trkpt lat="45.83429" lon="2.95429">
        <ele>1033</ele>
        <time>2018-06-25T09:16:32.512Z</time>
      </trkpt>
      <trkpt lat="45.83413" lon="2.95397">
        <ele>1028</ele>
        <time>2018-06-25T09:16:33.512Z</time>
      </trkpt>
      <trkpt lat="45.83298" lon="2.95411">
        <ele>1024</ele>
        <time>2018-06-25T09:16:34.512Z</time>
      </trkpt>
      <trkpt lat="45.83194" lon="2.95427">
        <ele>1026</ele>
        <time>2018-06-25T09:16:35.512Z</time>
      </trkpt>
      <trkpt lat="45.83171" lon="2.9543">
        <ele>1026</ele>
        <time>2018-06-25T09:16:36.512Z</time>
      </trkpt>
      <trkpt lat="45.83112" lon="2.95523">
        <ele>1036</ele>
        <time>2018-06-25T09:16:37.512Z</time>
      </trkpt>
      <trkpt lat="45.83117" lon="2.95587">
        <ele>1036</ele>
        <time>2018-06-25T09:16:38.512Z</time>
      </trkpt>
      <trkpt lat="45.83116" lon="2.95664">
        <ele>1031</ele>
        <time>2018-06-25T09:16:39.512Z</time>
      </trkpt>
      <trkpt lat="45.83105" lon="2.95737">
        <ele>1026</ele>
        <time>2018-06-25T09:16:40.512Z</time>
      </trkpt>
      <trkpt lat="45.83079" lon="2.95793">
        <ele>1024</ele>
        <time>2018-06-25T09:16:41.512Z</time>
      </trkpt>
      <trkpt lat="45.8306" lon="2.95819">
        <ele>1024</ele>
        <time>2018-06-25T09:16:42.512Z</time>
      </trkpt>
      <trkpt lat="45.83018" lon="2.95852">
        <ele>1022</ele>
        <time>2018-06-25T09:16:43.512Z</time>
      </trkpt>
      <trkpt lat="45.83004" lon="2.95903">
        <ele>1019</ele>
        <time>2018-06-25T09:16:44.512Z</time>
      </trkpt>
      <trkpt lat="45.82995" lon="2.95921">
        <ele>1018</ele>
        <time>2018-06-25T09:16:45.512Z</time>
      </trkpt>
      <trkpt lat="45.82981" lon="2.9594">
        <ele>1015</ele>
        <time>2018-06-25T09:16:46.512Z</time>
      </trkpt>
      <trkpt lat="45.82982" lon="2.95941">
        <ele>1015</ele>
        <time>2018-06-25T09:16:47.512Z</time>
      </trkpt>
      <trkpt lat="45.82949" lon="2.95975">
        <ele>1010</ele>
        <time>2018-06-25T09:16:48.512Z</time>
      </trkpt>
      <trkpt lat="45.82924" lon="2.96025">
        <ele>1003</ele>
        <time>2018-06-25T09:16:49.512Z</time>
      </trkpt>
      <trkpt lat="45.82901" lon="2.96049">
        <ele>1001</ele>
        <time>2018-06-25T09:16:50.512Z</time>
      </trkpt>
      <trkpt lat="45.82819" lon="2.96105">
        <ele>995</ele>
        <time>2018-06-25T09:16:51.512Z</time>
      </trkpt>
      <trkpt lat="45.82719" lon="2.96171">
        <ele>990</ele>
        <time>2018-06-25T09:16:52.512Z</time>
      </trkpt>
      <trkpt lat="45.82687" lon="2.96176">
        <ele>990</ele>
        <time>2018-06-25T09:16:53.512Z</time>
      </trkpt>
      <trkpt lat="45.82637" lon="2.96172">
        <ele>989</ele>
        <time>2018-06-25T09:16:54.512Z</time>
      </trkpt>
      <trkpt lat="45.82619" lon="2.96178">
        <ele>988</ele>
        <time>2018-06-25T09:16:55.512Z</time>
      </trkpt>
      <trkpt lat="45.82608" lon="2.96184">
        <ele>987</ele>
        <time>2018-06-25T09:16:56.512Z</time>
      </trkpt>
      <trkpt lat="45.82513" lon="2.96253">
        <ele>976</ele>
        <time>2018-06-25T09:16:57.512Z</time>
      </trkpt>
      <trkpt lat="45.82495" lon="2.96271">
        <ele>977</ele>
        <time>2018-06-25T09:16:58.512Z</time>
      </trkpt>
      <trkpt lat="45.82496" lon="2.96272">
        <ele>977</ele>
        <time>2018-06-25T09:16:59.512Z</time>
      </trkpt>
      <trkpt lat="45.82472" lon="2.96295">
        <ele>978</ele>
        <time>2018-06-25T09:17:00.512Z</time>
      </trkpt>
      <trkpt lat="45.82457" lon="2.96317">
        <ele>979</ele>
        <time>2018-06-25T09:17:01.512Z</time>
      </trkpt>
      <trkpt lat="45.82296" lon="2.96319">
        <ele>977</ele>
        <time>2018-06-25T09:17:02.512Z</time>
      </trkpt>
      <trkpt lat="45.82275" lon="2.96304">
        <ele>976</ele>
        <time>2018-06-25T09:17:03.512Z</time>
      </trkpt>
      <trkpt lat="45.8224" lon="2.96291">
        <ele>975</ele>
        <time>2018-06-25T09:17:04.512Z</time>
      </trkpt>
      <trkpt lat="45.82038" lon="2.9625">
        <ele>966</ele>
        <time>2018-06-25T09:17:05.512Z</time>
      </trkpt>
      <trkpt lat="45.81975" lon="2.96204">
        <ele>964</ele>
        <time>2018-06-25T09:17:06.512Z</time>
      </trkpt>
      <trkpt lat="45.81763" lon="2.9603">
        <ele>957</ele>
        <time>2018-06-25T09:17:07.512Z</time>
      </trkpt>
      <trkpt lat="45.81459" lon="2.95837">
        <ele>957</ele>
        <time>2018-06-25T09:17:08.512Z</time>
      </trkpt>
      <trkpt lat="45.81458" lon="2.95837">
        <ele>957</ele>
        <time>2018-06-25T09:17:09.512Z</time>
      </trkpt>
      <trkpt lat="45.81396" lon="2.95797">
        <ele>960</ele>
        <time>2018-06-25T09:17:10.512Z</time>
      </trkpt>
      <trkpt lat="45.81355" lon="2.95461">
        <ele>962</ele>
        <time>2018-06-25T09:17:11.512Z</time>
      </trkpt>
      <trkpt lat="45.81359" lon="2.95438">
        <ele>962</ele>
        <time>2018-06-25T09:17:12.512Z</time>
      </trkpt>
      <trkpt lat="45.81368" lon="2.95422">
        <ele>961</ele>
        <time>2018-06-25T09:17:13.512Z</time>
      </trkpt>
      <trkpt lat="45.8139" lon="2.95406">
        <ele>958</ele>
        <time>2018-06-25T09:17:14.512Z</time>
      </trkpt>
      <trkpt lat="45.814" lon="2.95396">
        <ele>957</ele>
        <time>2018-06-25T09:17:15.512Z</time>
      </trkpt>
      <trkpt lat="45.81404" lon="2.9538">
        <ele>957</ele>
        <time>2018-06-25T09:17:16.512Z</time>
      </trkpt>
      <trkpt lat="45.81403" lon="2.95362">
        <ele>958</ele>
        <time>2018-06-25T09:17:17.512Z</time>
      </trkpt>
      <trkpt lat="45.81391" lon="2.95332">
        <ele>960</ele>
        <time>2018-06-25T09:17:18.512Z</time>
      </trkpt>
      <trkpt lat="45.81397" lon="2.95317">
        <ele>960</ele>
        <time>2018-06-25T09:17:19.512Z</time>
      </trkpt>
      <trkpt lat="45.81399" lon="2.95308">
        <ele>960</ele>
        <time>2018-06-25T09:17:20.512Z</time>
      </trkpt>
      <trkpt lat="45.814" lon="2.95297">
        <ele>960</ele>
        <time>2018-06-25T09:17:21.512Z</time>
      </trkpt>
      <trkpt lat="45.81397" lon="2.95278">
        <ele>960</ele>
        <time>2018-06-25T09:17:22.512Z</time>
      </trkpt>
      <trkpt lat="45.81393" lon="2.95268">
        <ele>960</ele>
        <time>2018-06-25T09:17:23.512Z</time>
      </trkpt>
      <trkpt lat="45.81387" lon="2.95258">
        <ele>961</ele>
        <time>2018-06-25T09:17:24.512Z</time>
      </trkpt>
      <trkpt lat="45.81379" lon="2.95251">
        <ele>961</ele>
        <time>2018-06-25T09:17:25.512Z</time>
      </trkpt>
      <trkpt lat="45.81371" lon="2.95247">
        <ele>961</ele>
        <time>2018-06-25T09:17:26.512Z</time>
      </trkpt>
      <trkpt lat="45.81361" lon="2.95246">
        <ele>961</ele>
        <time>2018-06-25T09:17:27.512Z</time>
      </trkpt>
      <trkpt lat="45.81347" lon="2.95251">
        <ele>962</ele>
        <time>2018-06-25T09:17:28.512Z</time>
      </trkpt>
      <trkpt lat="45.81331" lon="2.95241">
        <ele>961</ele>
        <time>2018-06-25T09:17:29.512Z</time>
      </trkpt>
      <trkpt lat="45.81322" lon="2.95228">
        <ele>961</ele>
        <time>2018-06-25T09:17:30.512Z</time>
      </trkpt>
      <trkpt lat="45.81305" lon="2.95171">
        <ele>958</ele>
        <time>2018-06-25T09:17:31.512Z</time>
      </trkpt>
      <trkpt lat="45.81286" lon="2.95095">
        <ele>957</ele>
        <time>2018-06-25T09:17:32.512Z</time>
      </trkpt>
      <trkpt lat="45.81273" lon="2.9505">
        <ele>956</ele>
        <time>2018-06-25T09:17:33.512Z</time>
      </trkpt>
      <trkpt lat="45.81272" lon="2.95032">
        <ele>955</ele>
        <time>2018-06-25T09:17:34.512Z</time>
      </trkpt>
      <trkpt lat="45.81274" lon="2.95017">
        <ele>955</ele>
        <time>2018-06-25T09:17:35.512Z</time>
      </trkpt>
      <trkpt lat="45.81274" lon="2.95009">
        <ele>954</ele>
        <time>2018-06-25T09:17:36.512Z</time>
      </trkpt>
      <trkpt lat="45.81275" lon="2.95009">
        <ele>954</ele>
        <time>2018-06-25T09:17:37.512Z</time>
      </trkpt>
      <trkpt lat="45.81274" lon="2.95003">
        <ele>954</ele>
        <time>2018-06-25T09:17:38.512Z</time>
      </trkpt>
      <trkpt lat="45.8127" lon="2.94999">
        <ele>954</ele>
        <time>2018-06-25T09:17:39.512Z</time>
      </trkpt>
      <trkpt lat="45.81263" lon="2.94995">
        <ele>954</ele>
        <time>2018-06-25T09:17:40.512Z</time>
      </trkpt>
      <trkpt lat="45.81258" lon="2.94996">
        <ele>954</ele>
        <time>2018-06-25T09:17:41.512Z</time>
      </trkpt>
      <trkpt lat="45.81249" lon="2.95006">
        <ele>954</ele>
        <time>2018-06-25T09:17:42.512Z</time>
      </trkpt>
      <trkpt lat="45.81247" lon="2.95013">
        <ele>955</ele>
        <time>2018-06-25T09:17:43.512Z</time>
      </trkpt>
      <trkpt lat="45.81248" lon="2.95021">
        <ele>955</ele>
        <time>2018-06-25T09:17:44.512Z</time>
      </trkpt>
      <trkpt lat="45.81258" lon="2.95065">
        <ele>957</ele>
        <time>2018-06-25T09:17:45.512Z</time>
      </trkpt>
      <trkpt lat="45.8129" lon="2.95178">
        <ele>960</ele>
        <time>2018-06-25T09:17:46.512Z</time>
      </trkpt>
      <trkpt lat="45.81234" lon="2.95117">
        <ele>962</ele>
        <time>2018-06-25T09:17:47.512Z</time>
      </trkpt>
      <trkpt lat="45.81205" lon="2.95093">
        <ele>963</ele>
        <time>2018-06-25T09:17:48.512Z</time>
      </trkpt>
      <trkpt lat="45.81166" lon="2.95078">
        <ele>966</ele>
        <time>2018-06-25T09:17:49.512Z</time>
      </trkpt>
      <trkpt lat="45.81112" lon="2.95076">
        <ele>963</ele>
        <time>2018-06-25T09:17:50.512Z</time>
      </trkpt>
      <trkpt lat="45.8109" lon="2.95077">
        <ele>962</ele>
        <time>2018-06-25T09:17:51.512Z</time>
      </trkpt>
      <trkpt lat="45.8105" lon="2.95084">
        <ele>962</ele>
        <time>2018-06-25T09:17:52.512Z</time>
      </trkpt>
      <trkpt lat="45.81012" lon="2.95097">
        <ele>963</ele>
        <time>2018-06-25T09:17:53.512Z</time>
      </trkpt>
      <trkpt lat="45.80983" lon="2.95103">
        <ele>964</ele>
        <time>2018-06-25T09:17:54.512Z</time>
      </trkpt>
      <trkpt lat="45.80956" lon="2.95106">
        <ele>965</ele>
        <time>2018-06-25T09:17:55.512Z</time>
      </trkpt>
      <trkpt lat="45.80919" lon="2.95103">
        <ele>967</ele>
        <time>2018-06-25T09:17:56.512Z</time>
      </trkpt>
      <trkpt lat="45.80861" lon="2.95088">
        <ele>966</ele>
        <time>2018-06-25T09:17:57.512Z</time>
      </trkpt>
      <trkpt lat="45.80824" lon="2.95075">
        <ele>965</ele>
        <time>2018-06-25T09:17:58.512Z</time>
      </trkpt>
      <trkpt lat="45.807" lon="2.95046">
        <ele>959</ele>
        <time>2018-06-25T09:17:59.512Z</time>
      </trkpt>
      <trkpt lat="45.80678" lon="2.95038">
        <ele>957</ele>
        <time>2018-06-25T09:18:00.512Z</time>
      </trkpt>
      <trkpt lat="45.80644" lon="2.94982">
        <ele>955</ele>
        <time>2018-06-25T09:18:01.512Z</time>
      </trkpt>
      <trkpt lat="45.80611" lon="2.94924">
        <ele>952</ele>
        <time>2018-06-25T09:18:02.512Z</time>
      </trkpt>
      <trkpt lat="45.80527" lon="2.94751">
        <ele>950</ele>
        <time>2018-06-25T09:18:03.512Z</time>
      </trkpt>
      <trkpt lat="45.80521" lon="2.94707">
        <ele>949</ele>
        <time>2018-06-25T09:18:04.512Z</time>
      </trkpt>
      <trkpt lat="45.80531" lon="2.94683">
        <ele>948</ele>
        <time>2018-06-25T09:18:05.512Z</time>
      </trkpt>
      <trkpt lat="45.80576" lon="2.94605">
        <ele>943</ele>
        <time>2018-06-25T09:18:06.512Z</time>
      </trkpt>
      <trkpt lat="45.80687" lon="2.94447">
        <ele>938</ele>
        <time>2018-06-25T09:18:07.512Z</time>
      </trkpt>
      <trkpt lat="45.80687" lon="2.94448">
        <ele>938</ele>
        <time>2018-06-25T09:18:08.512Z</time>
      </trkpt>
      <trkpt lat="45.80709" lon="2.94417">
        <ele>937</ele>
        <time>2018-06-25T09:18:09.512Z</time>
      </trkpt>
      <trkpt lat="45.8072" lon="2.94406">
        <ele>936</ele>
        <time>2018-06-25T09:18:10.512Z</time>
      </trkpt>
      <trkpt lat="45.80674" lon="2.94341">
        <ele>932</ele>
        <time>2018-06-25T09:18:11.512Z</time>
      </trkpt>
      <trkpt lat="45.80661" lon="2.94325">
        <ele>931</ele>
        <time>2018-06-25T09:18:12.512Z</time>
      </trkpt>
      <trkpt lat="45.80589" lon="2.94225">
        <ele>930</ele>
        <time>2018-06-25T09:18:13.512Z</time>
      </trkpt>
      <trkpt lat="45.80567" lon="2.94186">
        <ele>930</ele>
        <time>2018-06-25T09:18:14.512Z</time>
      </trkpt>
      <trkpt lat="45.80558" lon="2.94167">
        <ele>929</ele>
        <time>2018-06-25T09:18:15.512Z</time>
      </trkpt>
      <trkpt lat="45.80551" lon="2.94147">
        <ele>929</ele>
        <time>2018-06-25T09:18:16.512Z</time>
      </trkpt>
      <trkpt lat="45.80535" lon="2.9412">
        <ele>929</ele>
        <time>2018-06-25T09:18:17.512Z</time>
      </trkpt>
      <trkpt lat="45.80516" lon="2.94083">
        <ele>929</ele>
        <time>2018-06-25T09:18:18.512Z</time>
      </trkpt>
      <trkpt lat="45.80504" lon="2.94051">
        <ele>930</ele>
        <time>2018-06-25T09:18:19.512Z</time>
      </trkpt>
      <trkpt lat="45.80499" lon="2.9402">
        <ele>931</ele>
        <time>2018-06-25T09:18:20.512Z</time>
      </trkpt>
      <trkpt lat="45.80489" lon="2.93927">
        <ele>933</ele>
        <time>2018-06-25T09:18:21.512Z</time>
      </trkpt>
      <trkpt lat="45.80493" lon="2.93911">
        <ele>933</ele>
        <time>2018-06-25T09:18:22.512Z</time>
      </trkpt>
      <trkpt lat="45.80497" lon="2.93896">
        <ele>933</ele>
        <time>2018-06-25T09:18:23.512Z</time>
      </trkpt>
      <trkpt lat="45.80511" lon="2.93869">
        <ele>932</ele>
        <time>2018-06-25T09:18:24.512Z</time>
      </trkpt>
      <trkpt lat="45.80523" lon="2.93854">
        <ele>932</ele>
        <time>2018-06-25T09:18:25.512Z</time>
      </trkpt>
      <trkpt lat="45.80562" lon="2.93816">
        <ele>932</ele>
        <time>2018-06-25T09:18:26.512Z</time>
      </trkpt>
      <trkpt lat="45.80591" lon="2.93796">
        <ele>932</ele>
        <time>2018-06-25T09:18:27.512Z</time>
      </trkpt>
      <trkpt lat="45.80654" lon="2.93777">
        <ele>931</ele>
        <time>2018-06-25T09:18:28.512Z</time>
      </trkpt>
      <trkpt lat="45.80666" lon="2.93769">
        <ele>930</ele>
        <time>2018-06-25T09:18:29.512Z</time>
      </trkpt>
      <trkpt lat="45.80666" lon="2.9377">
        <ele>930</ele>
        <time>2018-06-25T09:18:30.512Z</time>
      </trkpt>
      <trkpt lat="45.80745" lon="2.9371">
        <ele>934</ele>
        <time>2018-06-25T09:18:31.512Z</time>
      </trkpt>
      <trkpt lat="45.80748" lon="2.93702">
        <ele>934</ele>
        <time>2018-06-25T09:18:32.512Z</time>
      </trkpt>
      <trkpt lat="45.80698" lon="2.93698">
        <ele>935</ele>
        <time>2018-06-25T09:18:33.512Z</time>
      </trkpt>
      <trkpt lat="45.8068" lon="2.93695">
        <ele>936</ele>
        <time>2018-06-25T09:18:34.512Z</time>
      </trkpt>
      <trkpt lat="45.80665" lon="2.93689">
        <ele>937</ele>
        <time>2018-06-25T09:18:35.512Z</time>
      </trkpt>
      <trkpt lat="45.80652" lon="2.93677">
        <ele>938</ele>
        <time>2018-06-25T09:18:36.512Z</time>
      </trkpt>
      <trkpt lat="45.80646" lon="2.93669">
        <ele>939</ele>
        <time>2018-06-25T09:18:37.512Z</time>
      </trkpt>
      <trkpt lat="45.80632" lon="2.93642">
        <ele>940</ele>
        <time>2018-06-25T09:18:38.512Z</time>
      </trkpt>
      <trkpt lat="45.80605" lon="2.93565">
        <ele>939</ele>
        <time>2018-06-25T09:18:39.512Z</time>
      </trkpt>
      <trkpt lat="45.806" lon="2.93546">
        <ele>938</ele>
        <time>2018-06-25T09:18:40.512Z</time>
      </trkpt>
      <trkpt lat="45.80572" lon="2.9348">
        <ele>938</ele>
        <time>2018-06-25T09:18:41.512Z</time>
      </trkpt>
      <trkpt lat="45.80563" lon="2.93467">
        <ele>939</ele>
        <time>2018-06-25T09:18:42.512Z</time>
      </trkpt>
      <trkpt lat="45.80539" lon="2.93444">
        <ele>942</ele>
        <time>2018-06-25T09:18:43.512Z</time>
      </trkpt>
      <trkpt lat="45.8051" lon="2.93429">
        <ele>946</ele>
        <time>2018-06-25T09:18:44.512Z</time>
      </trkpt>
      <trkpt lat="45.80491" lon="2.9343">
        <ele>948</ele>
        <time>2018-06-25T09:18:45.512Z</time>
      </trkpt>
      <trkpt lat="45.80484" lon="2.93433">
        <ele>948</ele>
        <time>2018-06-25T09:18:46.512Z</time>
      </trkpt>
      <trkpt lat="45.8048" lon="2.93438">
        <ele>949</ele>
        <time>2018-06-25T09:18:47.512Z</time>
      </trkpt>
      <trkpt lat="45.80476" lon="2.93447">
        <ele>949</ele>
        <time>2018-06-25T09:18:48.512Z</time>
      </trkpt>
      <trkpt lat="45.8045" lon="2.93515">
        <ele>950</ele>
        <time>2018-06-25T09:18:49.512Z</time>
      </trkpt>
      <trkpt lat="45.80437" lon="2.93537">
        <ele>950</ele>
        <time>2018-06-25T09:18:50.512Z</time>
      </trkpt>
      <trkpt lat="45.80419" lon="2.93548">
        <ele>950</ele>
        <time>2018-06-25T09:18:51.512Z</time>
      </trkpt>
      <trkpt lat="45.80405" lon="2.93546">
        <ele>951</ele>
        <time>2018-06-25T09:18:52.512Z</time>
      </trkpt>
      <trkpt lat="45.80395" lon="2.93538">
        <ele>952</ele>
        <time>2018-06-25T09:18:53.512Z</time>
      </trkpt>
      <trkpt lat="45.80394" lon="2.93539">
        <ele>952</ele>
        <time>2018-06-25T09:18:54.512Z</time>
      </trkpt>
      <trkpt lat="45.80325" lon="2.93469">
        <ele>957</ele>
        <time>2018-06-25T09:18:55.512Z</time>
      </trkpt>
      <trkpt lat="45.80264" lon="2.93432">
        <ele>962</ele>
        <time>2018-06-25T09:18:56.512Z</time>
      </trkpt>
      <trkpt lat="45.80229" lon="2.93415">
        <ele>963</ele>
        <time>2018-06-25T09:18:57.512Z</time>
      </trkpt>
      <trkpt lat="45.80184" lon="2.93383">
        <ele>964</ele>
        <time>2018-06-25T09:18:58.512Z</time>
      </trkpt>
      <trkpt lat="45.80133" lon="2.93327">
        <ele>964</ele>
        <time>2018-06-25T09:18:59.512Z</time>
      </trkpt>
      <trkpt lat="45.80094" lon="2.93279">
        <ele>963</ele>
        <time>2018-06-25T09:19:00.512Z</time>
      </trkpt>
      <trkpt lat="45.80061" lon="2.93223">
        <ele>964</ele>
        <time>2018-06-25T09:19:01.512Z</time>
      </trkpt>
      <trkpt lat="45.79968" lon="2.93085">
        <ele>972</ele>
        <time>2018-06-25T09:19:02.512Z</time>
      </trkpt>
      <trkpt lat="45.79938" lon="2.93045">
        <ele>973</ele>
        <time>2018-06-25T09:19:03.512Z</time>
      </trkpt>
      <trkpt lat="45.79901" lon="2.93005">
        <ele>973</ele>
        <time>2018-06-25T09:19:04.512Z</time>
      </trkpt>
      <trkpt lat="45.7989" lon="2.92991">
        <ele>972</ele>
        <time>2018-06-25T09:19:05.512Z</time>
      </trkpt>
      <trkpt lat="45.79869" lon="2.92968">
        <ele>971</ele>
        <time>2018-06-25T09:19:06.512Z</time>
      </trkpt>
      <trkpt lat="45.79846" lon="2.92951">
        <ele>970</ele>
        <time>2018-06-25T09:19:07.512Z</time>
      </trkpt>
      <trkpt lat="45.79826" lon="2.92935">
        <ele>969</ele>
        <time>2018-06-25T09:19:08.512Z</time>
      </trkpt>
      <trkpt lat="45.7981" lon="2.92914">
        <ele>968</ele>
        <time>2018-06-25T09:19:09.512Z</time>
      </trkpt>
      <trkpt lat="45.79761" lon="2.92884">
        <ele>964</ele>
        <time>2018-06-25T09:19:10.512Z</time>
      </trkpt>
      <trkpt lat="45.79747" lon="2.92873">
        <ele>963</ele>
        <time>2018-06-25T09:19:11.512Z</time>
      </trkpt>
      <trkpt lat="45.79703" lon="2.92812">
        <ele>960</ele>
        <time>2018-06-25T09:19:12.512Z</time>
      </trkpt>
      <trkpt lat="45.79656" lon="2.92782">
        <ele>958</ele>
        <time>2018-06-25T09:19:13.512Z</time>
      </trkpt>
      <trkpt lat="45.79642" lon="2.92771">
        <ele>957</ele>
        <time>2018-06-25T09:19:14.512Z</time>
      </trkpt>
      <trkpt lat="45.79629" lon="2.92754">
        <ele>956</ele>
        <time>2018-06-25T09:19:15.512Z</time>
      </trkpt>
      <trkpt lat="45.79618" lon="2.92744">
        <ele>955</ele>
        <time>2018-06-25T09:19:16.512Z</time>
      </trkpt>
      <trkpt lat="45.79597" lon="2.92727">
        <ele>952</ele>
        <time>2018-06-25T09:19:17.512Z</time>
      </trkpt>
      <trkpt lat="45.79584" lon="2.92722">
        <ele>952</ele>
        <time>2018-06-25T09:19:18.512Z</time>
      </trkpt>
      <trkpt lat="45.79557" lon="2.92719">
        <ele>952</ele>
        <time>2018-06-25T09:19:19.512Z</time>
      </trkpt>
      <trkpt lat="45.79542" lon="2.92715">
        <ele>951</ele>
        <time>2018-06-25T09:19:20.512Z</time>
      </trkpt>
      <trkpt lat="45.79506" lon="2.92697">
        <ele>950</ele>
        <time>2018-06-25T09:19:21.512Z</time>
      </trkpt>
      <trkpt lat="45.79462" lon="2.92661">
        <ele>945</ele>
        <time>2018-06-25T09:19:22.512Z</time>
      </trkpt>
      <trkpt lat="45.79439" lon="2.92637">
        <ele>942</ele>
        <time>2018-06-25T09:19:23.512Z</time>
      </trkpt>
      <trkpt lat="45.79435" lon="2.92626">
        <ele>941</ele>
        <time>2018-06-25T09:19:24.512Z</time>
      </trkpt>
      <trkpt lat="45.79327" lon="2.92552">
        <ele>935</ele>
        <time>2018-06-25T09:19:25.512Z</time>
      </trkpt>
      <trkpt lat="45.79277" lon="2.92449">
        <ele>934</ele>
        <time>2018-06-25T09:19:26.512Z</time>
      </trkpt>
      <trkpt lat="45.79208" lon="2.92383">
        <ele>934</ele>
        <time>2018-06-25T09:19:27.512Z</time>
      </trkpt>
      <trkpt lat="45.79152" lon="2.92266">
        <ele>928</ele>
        <time>2018-06-25T09:19:28.512Z</time>
      </trkpt>
      <trkpt lat="45.79112" lon="2.92219">
        <ele>924</ele>
        <time>2018-06-25T09:19:29.512Z</time>
      </trkpt>
      <trkpt lat="45.79172" lon="2.92068">
        <ele>913</ele>
        <time>2018-06-25T09:19:30.512Z</time>
      </trkpt>
      <trkpt lat="45.79194" lon="2.91966">
        <ele>904</ele>
        <time>2018-06-25T09:19:31.512Z</time>
      </trkpt>
      <trkpt lat="45.79194" lon="2.91966">
        <ele>904</ele>
        <time>2018-06-25T09:19:32.512Z</time>
      </trkpt>
      <trkpt lat="45.78908" lon="2.91499">
        <ele>867</ele>
        <time>2018-06-25T09:19:33.512Z</time>
      </trkpt>
      <trkpt lat="45.7886" lon="2.91508">
        <ele>864</ele>
        <time>2018-06-25T09:19:34.512Z</time>
      </trkpt>
      <trkpt lat="45.78816" lon="2.91544">
        <ele>864</ele>
        <time>2018-06-25T09:19:35.512Z</time>
      </trkpt>
      <trkpt lat="45.78725" lon="2.9153">
        <ele>864</ele>
        <time>2018-06-25T09:19:36.512Z</time>
      </trkpt>
      <trkpt lat="45.7868" lon="2.91489">
        <ele>863</ele>
        <time>2018-06-25T09:19:37.512Z</time>
      </trkpt>
      <trkpt lat="45.7868" lon="2.9127">
        <ele>866</ele>
        <time>2018-06-25T09:19:38.512Z</time>
      </trkpt>
      <trkpt lat="45.78682" lon="2.91169">
        <ele>870</ele>
        <time>2018-06-25T09:19:39.512Z</time>
      </trkpt>
      <trkpt lat="45.78662" lon="2.91111">
        <ele>873</ele>
        <time>2018-06-25T09:19:40.512Z</time>
      </trkpt>
      <trkpt lat="45.77956" lon="2.89268">
        <ele>841</ele>
        <time>2018-06-25T09:19:41.512Z</time>
      </trkpt>
      <trkpt lat="45.77785" lon="2.89378">
        <ele>840</ele>
        <time>2018-06-25T09:19:42.512Z</time>
      </trkpt>
      <trkpt lat="45.77551" lon="2.89584">
        <ele>851</ele>
        <time>2018-06-25T09:19:43.512Z</time>
      </trkpt>
      <trkpt lat="45.77397" lon="2.89654">
        <ele>847</ele>
        <time>2018-06-25T09:19:44.512Z</time>
      </trkpt>
      <trkpt lat="45.77322" lon="2.8968">
        <ele>842</ele>
        <time>2018-06-25T09:19:45.512Z</time>
      </trkpt>
      <trkpt lat="45.77292" lon="2.89711">
        <ele>841</ele>
        <time>2018-06-25T09:19:46.512Z</time>
      </trkpt>
      <trkpt lat="45.77239" lon="2.89739">
        <ele>838</ele>
        <time>2018-06-25T09:19:47.512Z</time>
      </trkpt>
      <trkpt lat="45.77156" lon="2.89776">
        <ele>832</ele>
        <time>2018-06-25T09:19:48.512Z</time>
      </trkpt>
      <trkpt lat="45.77136" lon="2.89822">
        <ele>830</ele>
        <time>2018-06-25T09:19:49.512Z</time>
      </trkpt>
      <trkpt lat="45.77123" lon="2.89847">
        <ele>828</ele>
        <time>2018-06-25T09:19:50.512Z</time>
      </trkpt>
      <trkpt lat="45.77118" lon="2.8988">
        <ele>827</ele>
        <time>2018-06-25T09:19:51.512Z</time>
      </trkpt>
      <trkpt lat="45.77118" lon="2.89879">
        <ele>827</ele>
        <time>2018-06-25T09:19:52.512Z</time>
      </trkpt>
      <trkpt lat="45.77097" lon="2.89856">
        <ele>826</ele>
        <time>2018-06-25T09:19:53.512Z</time>
      </trkpt>
      <trkpt lat="45.77026" lon="2.89785">
        <ele>822</ele>
        <time>2018-06-25T09:19:54.512Z</time>
      </trkpt>
      <trkpt lat="45.76943" lon="2.89722">
        <ele>819</ele>
        <time>2018-06-25T09:19:55.512Z</time>
      </trkpt>
      <trkpt lat="45.76914" lon="2.89706">
        <ele>818</ele>
        <time>2018-06-25T09:19:56.512Z</time>
      </trkpt>
      <trkpt lat="45.76834" lon="2.89646">
        <ele>815</ele>
        <time>2018-06-25T09:19:57.512Z</time>
      </trkpt>
      <trkpt lat="45.76773" lon="2.89612">
        <ele>813</ele>
        <time>2018-06-25T09:19:58.512Z</time>
      </trkpt>
      <trkpt lat="45.76762" lon="2.89608">
        <ele>813</ele>
        <time>2018-06-25T09:19:59.512Z</time>
      </trkpt>
      <trkpt lat="45.76737" lon="2.89612">
        <ele>812</ele>
        <time>2018-06-25T09:20:00.512Z</time>
      </trkpt>
      <trkpt lat="45.76737" lon="2.89595">
        <ele>811</ele>
        <time>2018-06-25T09:20:01.512Z</time>
      </trkpt>
      <trkpt lat="45.76723" lon="2.89571">
        <ele>810</ele>
        <time>2018-06-25T09:20:02.512Z</time>
      </trkpt>
      <trkpt lat="45.7671" lon="2.89563">
        <ele>809</ele>
        <time>2018-06-25T09:20:03.512Z</time>
      </trkpt>
      <trkpt lat="45.76701" lon="2.89559">
        <ele>808</ele>
        <time>2018-06-25T09:20:04.512Z</time>
      </trkpt>
      <trkpt lat="45.76691" lon="2.8956">
        <ele>808</ele>
        <time>2018-06-25T09:20:05.512Z</time>
      </trkpt>
      <trkpt lat="45.76667" lon="2.89562">
        <ele>807</ele>
        <time>2018-06-25T09:20:06.512Z</time>
      </trkpt>
      <trkpt lat="45.76655" lon="2.89571">
        <ele>806</ele>
        <time>2018-06-25T09:20:07.512Z</time>
      </trkpt>
      <trkpt lat="45.76632" lon="2.89595">
        <ele>806</ele>
        <time>2018-06-25T09:20:08.512Z</time>
      </trkpt>
      <trkpt lat="45.76618" lon="2.89615">
        <ele>806</ele>
        <time>2018-06-25T09:20:09.512Z</time>
      </trkpt>
      <trkpt lat="45.76564" lon="2.89637">
        <ele>804</ele>
        <time>2018-06-25T09:20:10.512Z</time>
      </trkpt>
      <trkpt lat="45.76497" lon="2.89648">
        <ele>797</ele>
        <time>2018-06-25T09:20:11.512Z</time>
      </trkpt>
      <trkpt lat="45.76456" lon="2.8965">
        <ele>795</ele>
        <time>2018-06-25T09:20:12.512Z</time>
      </trkpt>
      <trkpt lat="45.76457" lon="2.89649">
        <ele>795</ele>
        <time>2018-06-25T09:20:13.512Z</time>
      </trkpt>
      <trkpt lat="45.76426" lon="2.89645">
        <ele>793</ele>
        <time>2018-06-25T09:20:14.512Z</time>
      </trkpt>
      <trkpt lat="45.76381" lon="2.89595">
        <ele>788</ele>
        <time>2018-06-25T09:20:15.512Z</time>
      </trkpt>
      <trkpt lat="45.76326" lon="2.89501">
        <ele>784</ele>
        <time>2018-06-25T09:20:16.512Z</time>
      </trkpt>
      <trkpt lat="45.76264" lon="2.8942">
        <ele>783</ele>
        <time>2018-06-25T09:20:17.512Z</time>
      </trkpt>
      <trkpt lat="45.76228" lon="2.89407">
        <ele>782</ele>
        <time>2018-06-25T09:20:18.512Z</time>
      </trkpt>
      <trkpt lat="45.76196" lon="2.89404">
        <ele>782</ele>
        <time>2018-06-25T09:20:19.512Z</time>
      </trkpt>
      <trkpt lat="45.76157" lon="2.89406">
        <ele>782</ele>
        <time>2018-06-25T09:20:20.512Z</time>
      </trkpt>
      <trkpt lat="45.76143" lon="2.89391">
        <ele>782</ele>
        <time>2018-06-25T09:20:21.512Z</time>
      </trkpt>
      <trkpt lat="45.76134" lon="2.89374">
        <ele>783</ele>
        <time>2018-06-25T09:20:22.512Z</time>
      </trkpt>
      <trkpt lat="45.76125" lon="2.89326">
        <ele>783</ele>
        <time>2018-06-25T09:20:23.512Z</time>
      </trkpt>
      <trkpt lat="45.76119" lon="2.89312">
        <ele>783</ele>
        <time>2018-06-25T09:20:24.512Z</time>
      </trkpt>
      <trkpt lat="45.76105" lon="2.89292">
        <ele>783</ele>
        <time>2018-06-25T09:20:25.512Z</time>
      </trkpt>
      <trkpt lat="45.76078" lon="2.89261">
        <ele>785</ele>
        <time>2018-06-25T09:20:26.512Z</time>
      </trkpt>
      <trkpt lat="45.75985" lon="2.89176">
        <ele>791</ele>
        <time>2018-06-25T09:20:27.512Z</time>
      </trkpt>
      <trkpt lat="45.75951" lon="2.89129">
        <ele>792</ele>
        <time>2018-06-25T09:20:28.512Z</time>
      </trkpt>
      <trkpt lat="45.75863" lon="2.89027">
        <ele>799</ele>
        <time>2018-06-25T09:20:29.512Z</time>
      </trkpt>
      <trkpt lat="45.75832" lon="2.88986">
        <ele>801</ele>
        <time>2018-06-25T09:20:30.512Z</time>
      </trkpt>
      <trkpt lat="45.75758" lon="2.88878">
        <ele>806</ele>
        <time>2018-06-25T09:20:31.512Z</time>
      </trkpt>
      <trkpt lat="45.75738" lon="2.88854">
        <ele>806</ele>
        <time>2018-06-25T09:20:32.512Z</time>
      </trkpt>
      <trkpt lat="45.7571" lon="2.88826">
        <ele>806</ele>
        <time>2018-06-25T09:20:33.512Z</time>
      </trkpt>
      <trkpt lat="45.75639" lon="2.88773">
        <ele>807</ele>
        <time>2018-06-25T09:20:34.512Z</time>
      </trkpt>
      <trkpt lat="45.75575" lon="2.88749">
        <ele>809</ele>
        <time>2018-06-25T09:20:35.512Z</time>
      </trkpt>
      <trkpt lat="45.75537" lon="2.8873">
        <ele>810</ele>
        <time>2018-06-25T09:20:36.512Z</time>
      </trkpt>
      <trkpt lat="45.75458" lon="2.88663">
        <ele>811</ele>
        <time>2018-06-25T09:20:37.512Z</time>
      </trkpt>
      <trkpt lat="45.75368" lon="2.886">
        <ele>812</ele>
        <time>2018-06-25T09:20:38.512Z</time>
      </trkpt>
      <trkpt lat="45.75207" lon="2.88538">
        <ele>817</ele>
        <time>2018-06-25T09:20:39.512Z</time>
      </trkpt>
      <trkpt lat="45.75182" lon="2.88532">
        <ele>819</ele>
        <time>2018-06-25T09:20:40.512Z</time>
      </trkpt>
      <trkpt lat="45.75154" lon="2.88531">
        <ele>821</ele>
        <time>2018-06-25T09:20:41.512Z</time>
      </trkpt>
      <trkpt lat="45.75018" lon="2.8854">
        <ele>820</ele>
        <time>2018-06-25T09:20:42.512Z</time>
      </trkpt>
      <trkpt lat="45.74924" lon="2.88554">
        <ele>820</ele>
        <time>2018-06-25T09:20:43.512Z</time>
      </trkpt>
      <trkpt lat="45.74866" lon="2.88572">
        <ele>820</ele>
        <time>2018-06-25T09:20:44.512Z</time>
      </trkpt>
      <trkpt lat="45.74855" lon="2.88573">
        <ele>820</ele>
        <time>2018-06-25T09:20:45.512Z</time>
      </trkpt>
      <trkpt lat="45.7479" lon="2.88366">
        <ele>814</ele>
        <time>2018-06-25T09:20:46.512Z</time>
      </trkpt>
      <trkpt lat="45.7478" lon="2.8834">
        <ele>812</ele>
        <time>2018-06-25T09:20:47.512Z</time>
      </trkpt>
      <trkpt lat="45.74714" lon="2.88211">
        <ele>812</ele>
        <time>2018-06-25T09:20:48.512Z</time>
      </trkpt>
      <trkpt lat="45.7471" lon="2.88205">
        <ele>812</ele>
        <time>2018-06-25T09:20:49.512Z</time>
      </trkpt>
      <trkpt lat="45.74704" lon="2.88201">
        <ele>812</ele>
        <time>2018-06-25T09:20:50.512Z</time>
      </trkpt>
      <trkpt lat="45.7461" lon="2.88158">
        <ele>812</ele>
        <time>2018-06-25T09:20:51.512Z</time>
      </trkpt>
      <trkpt lat="45.74576" lon="2.87959">
        <ele>804</ele>
        <time>2018-06-25T09:20:52.512Z</time>
      </trkpt>
      <trkpt lat="45.74573" lon="2.87853">
        <ele>800</ele>
        <time>2018-06-25T09:20:53.512Z</time>
      </trkpt>
      <trkpt lat="45.74573" lon="2.87751">
        <ele>792</ele>
        <time>2018-06-25T09:20:54.512Z</time>
      </trkpt>
      <trkpt lat="45.74396" lon="2.87729">
        <ele>793</ele>
        <time>2018-06-25T09:20:55.512Z</time>
      </trkpt>
      <trkpt lat="45.74391" lon="2.87606">
        <ele>787</ele>
        <time>2018-06-25T09:20:56.512Z</time>
      </trkpt>
      <trkpt lat="45.74292" lon="2.87253">
        <ele>764</ele>
        <time>2018-06-25T09:20:57.512Z</time>
      </trkpt>
      <trkpt lat="45.74261" lon="2.87169">
        <ele>764</ele>
        <time>2018-06-25T09:20:58.512Z</time>
      </trkpt>
      <trkpt lat="45.74262" lon="2.87168">
        <ele>764</ele>
        <time>2018-06-25T09:20:59.512Z</time>
      </trkpt>
      <trkpt lat="45.74238" lon="2.87061">
        <ele>764</ele>
        <time>2018-06-25T09:21:00.512Z</time>
      </trkpt>
      <trkpt lat="45.7424" lon="2.87053">
        <ele>764</ele>
        <time>2018-06-25T09:21:01.512Z</time>
      </trkpt>
      <trkpt lat="45.74234" lon="2.8687">
        <ele>764</ele>
        <time>2018-06-25T09:21:02.512Z</time>
      </trkpt>
      <trkpt lat="45.74222" lon="2.86807">
        <ele>762</ele>
        <time>2018-06-25T09:21:03.512Z</time>
      </trkpt>
      <trkpt lat="45.74397" lon="2.86646">
        <ele>759</ele>
        <time>2018-06-25T09:21:04.512Z</time>
      </trkpt>
      <trkpt lat="45.74225" lon="2.86811">
        <ele>763</ele>
        <time>2018-06-25T08:58:22.187Z</time>
      </trkpt>
      <trkpt lat="45.74231" lon="2.86797">
        <ele>762</ele>
        <time>2018-06-25T08:58:23.187Z</time>
      </trkpt>
      <trkpt lat="45.74404" lon="2.86636">
        <ele>758</ele>
        <time>2018-06-25T08:58:24.187Z</time>
      </trkpt>
      <trkpt lat="45.74342" lon="2.86651">
        <ele>755</ele>
        <time>2018-06-25T08:58:25.187Z</time>
      </trkpt>
      <trkpt lat="45.74295" lon="2.86633">
        <ele>751</ele>
        <time>2018-06-25T08:58:26.187Z</time>
      </trkpt>
      <trkpt lat="45.74255" lon="2.86605">
        <ele>746</ele>
        <time>2018-06-25T08:58:27.187Z</time>
      </trkpt>
      <trkpt lat="45.74151" lon="2.86549">
        <ele>745</ele>
        <time>2018-06-25T08:58:28.187Z</time>
      </trkpt>
      <trkpt lat="45.74067" lon="2.86479">
        <ele>745</ele>
        <time>2018-06-25T08:58:29.187Z</time>
      </trkpt>
      <trkpt lat="45.74023" lon="2.86418">
        <ele>743</ele>
        <time>2018-06-25T08:58:30.187Z</time>
      </trkpt>
      <trkpt lat="45.73948" lon="2.86351">
        <ele>741</ele>
        <time>2018-06-25T08:58:31.187Z</time>
      </trkpt>
      <trkpt lat="45.73924" lon="2.86264">
        <ele>742</ele>
        <time>2018-06-25T08:58:32.187Z</time>
      </trkpt>
      <trkpt lat="45.73892" lon="2.86246">
        <ele>744</ele>
        <time>2018-06-25T08:58:33.187Z</time>
      </trkpt>
      <trkpt lat="45.73879" lon="2.8622">
        <ele>746</ele>
        <time>2018-06-25T08:58:34.187Z</time>
      </trkpt>
      <trkpt lat="45.73877" lon="2.86123">
        <ele>751</ele>
        <time>2018-06-25T08:58:35.187Z</time>
      </trkpt>
      <trkpt lat="45.7387" lon="2.86092">
        <ele>753</ele>
        <time>2018-06-25T08:58:36.187Z</time>
      </trkpt>
      <trkpt lat="45.7382" lon="2.86025">
        <ele>760</ele>
        <time>2018-06-25T08:58:37.187Z</time>
      </trkpt>
      <trkpt lat="45.73806" lon="2.86022">
        <ele>761</ele>
        <time>2018-06-25T08:58:38.187Z</time>
      </trkpt>
      <trkpt lat="45.73731" lon="2.85958">
        <ele>765</ele>
        <time>2018-06-25T08:58:39.187Z</time>
      </trkpt>
      <trkpt lat="45.73675" lon="2.8577">
        <ele>774</ele>
        <time>2018-06-25T08:58:40.187Z</time>
      </trkpt>
      <trkpt lat="45.73567" lon="2.85727">
        <ele>779</ele>
        <time>2018-06-25T08:58:41.187Z</time>
      </trkpt>
      <trkpt lat="45.7351" lon="2.85554">
        <ele>780</ele>
        <time>2018-06-25T08:58:42.187Z</time>
      </trkpt>
      <trkpt lat="45.735" lon="2.85553">
        <ele>781</ele>
        <time>2018-06-25T08:58:43.187Z</time>
      </trkpt>
      <trkpt lat="45.73415" lon="2.85687">
        <ele>785</ele>
        <time>2018-06-25T08:58:44.187Z</time>
      </trkpt>
      <trkpt lat="45.73395" lon="2.85697">
        <ele>785</ele>
        <time>2018-06-25T08:58:45.187Z</time>
      </trkpt>
      <trkpt lat="45.73328" lon="2.85657">
        <ele>786</ele>
        <time>2018-06-25T08:58:46.187Z</time>
      </trkpt>
      <trkpt lat="45.73155" lon="2.85527">
        <ele>790</ele>
        <time>2018-06-25T08:58:47.187Z</time>
      </trkpt>
      <trkpt lat="45.7309" lon="2.85465">
        <ele>788</ele>
        <time>2018-06-25T08:58:48.187Z</time>
      </trkpt>
      <trkpt lat="45.7291" lon="2.85375">
        <ele>792</ele>
        <time>2018-06-25T08:58:49.187Z</time>
      </trkpt>
      <trkpt lat="45.72857" lon="2.85288">
        <ele>792</ele>
        <time>2018-06-25T08:58:50.187Z</time>
      </trkpt>
      <trkpt lat="45.72767" lon="2.85238">
        <ele>802</ele>
        <time>2018-06-25T08:58:51.187Z</time>
      </trkpt>
      <trkpt lat="45.72673" lon="2.85237">
        <ele>812</ele>
        <time>2018-06-25T08:58:52.187Z</time>
      </trkpt>
      <trkpt lat="45.72583" lon="2.8517">
        <ele>816</ele>
        <time>2018-06-25T08:58:53.187Z</time>
      </trkpt>
      <trkpt lat="45.72539" lon="2.8512">
        <ele>814</ele>
        <time>2018-06-25T08:58:54.187Z</time>
      </trkpt>
      <trkpt lat="45.72509" lon="2.85103">
        <ele>813</ele>
        <time>2018-06-25T08:58:55.187Z</time>
      </trkpt>
      <trkpt lat="45.72428" lon="2.85078">
        <ele>816</ele>
        <time>2018-06-25T08:58:56.187Z</time>
      </trkpt>
      <trkpt lat="45.72382" lon="2.8505">
        <ele>812</ele>
        <time>2018-06-25T08:58:57.187Z</time>
      </trkpt>
      <trkpt lat="45.72314" lon="2.85037">
        <ele>808</ele>
        <time>2018-06-25T08:58:58.187Z</time>
      </trkpt>
      <trkpt lat="45.72267" lon="2.85048">
        <ele>810</ele>
        <time>2018-06-25T08:58:59.187Z</time>
      </trkpt>
      <trkpt lat="45.72168" lon="2.85094">
        <ele>808</ele>
        <time>2018-06-25T08:59:00.187Z</time>
      </trkpt>
      <trkpt lat="45.72076" lon="2.85088">
        <ele>795</ele>
        <time>2018-06-25T08:59:01.187Z</time>
      </trkpt>
      <trkpt lat="45.72072" lon="2.85111">
        <ele>798</ele>
        <time>2018-06-25T08:59:02.187Z</time>
      </trkpt>
      <trkpt lat="45.72036" lon="2.85168">
        <ele>802</ele>
        <time>2018-06-25T08:59:03.187Z</time>
      </trkpt>
      <trkpt lat="45.72025" lon="2.85171">
        <ele>802</ele>
        <time>2018-06-25T08:59:04.187Z</time>
      </trkpt>
      <trkpt lat="45.71953" lon="2.8514">
        <ele>795</ele>
        <time>2018-06-25T08:59:05.187Z</time>
      </trkpt>
      <trkpt lat="45.71857" lon="2.85145">
        <ele>792</ele>
        <time>2018-06-25T08:59:06.187Z</time>
      </trkpt>
      <trkpt lat="45.71775" lon="2.85174">
        <ele>792</ele>
        <time>2018-06-25T08:59:07.187Z</time>
      </trkpt>
      <trkpt lat="45.71769" lon="2.85182">
        <ele>792</ele>
        <time>2018-06-25T08:59:08.187Z</time>
      </trkpt>
      <trkpt lat="45.71749" lon="2.85318">
        <ele>804</ele>
        <time>2018-06-25T08:59:09.187Z</time>
      </trkpt>
      <trkpt lat="45.71754" lon="2.85344">
        <ele>808</ele>
        <time>2018-06-25T08:59:10.187Z</time>
      </trkpt>
      <trkpt lat="45.71725" lon="2.85463">
        <ele>818</ele>
        <time>2018-06-25T08:59:11.187Z</time>
      </trkpt>
      <trkpt lat="45.71633" lon="2.85563">
        <ele>820</ele>
        <time>2018-06-25T08:59:12.187Z</time>
      </trkpt>
      <trkpt lat="45.71547" lon="2.856">
        <ele>828</ele>
        <time>2018-06-25T08:59:13.187Z</time>
      </trkpt>
      <trkpt lat="45.71496" lon="2.856">
        <ele>834</ele>
        <time>2018-06-25T08:59:14.187Z</time>
      </trkpt>
      <trkpt lat="45.71465" lon="2.8556">
        <ele>837</ele>
        <time>2018-06-25T08:59:15.187Z</time>
      </trkpt>
      <trkpt lat="45.71395" lon="2.8566">
        <ele>855</ele>
        <time>2018-06-25T08:59:16.187Z</time>
      </trkpt>
      <trkpt lat="45.71292" lon="2.85737">
        <ele>858</ele>
        <time>2018-06-25T08:59:17.187Z</time>
      </trkpt>
      <trkpt lat="45.71234" lon="2.85792">
        <ele>850</ele>
        <time>2018-06-25T08:59:18.187Z</time>
      </trkpt>
      <trkpt lat="45.71184" lon="2.85818">
        <ele>843</ele>
        <time>2018-06-25T08:59:19.187Z</time>
      </trkpt>
      <trkpt lat="45.7111" lon="2.85774">
        <ele>844</ele>
        <time>2018-06-25T08:59:20.187Z</time>
      </trkpt>
      <trkpt lat="45.70946" lon="2.85743">
        <ele>854</ele>
        <time>2018-06-25T08:59:21.187Z</time>
      </trkpt>
      <trkpt lat="45.70922" lon="2.85727">
        <ele>857</ele>
        <time>2018-06-25T08:59:22.187Z</time>
      </trkpt>
      <trkpt lat="45.70859" lon="2.85643">
        <ele>863</ele>
        <time>2018-06-25T08:59:23.187Z</time>
      </trkpt>
      <trkpt lat="45.70835" lon="2.85562">
        <ele>865</ele>
        <time>2018-06-25T08:59:24.187Z</time>
      </trkpt>
      <trkpt lat="45.70751" lon="2.85623">
        <ele>873</ele>
        <time>2018-06-25T08:59:25.187Z</time>
      </trkpt>
      <trkpt lat="45.70633" lon="2.8565">
        <ele>888</ele>
        <time>2018-06-25T08:59:26.187Z</time>
      </trkpt>
      <trkpt lat="45.70592" lon="2.85637">
        <ele>889</ele>
        <time>2018-06-25T08:59:27.187Z</time>
      </trkpt>
      <trkpt lat="45.70521" lon="2.85566">
        <ele>894</ele>
        <time>2018-06-25T08:59:28.187Z</time>
      </trkpt>
      <trkpt lat="45.70485" lon="2.85479">
        <ele>901</ele>
        <time>2018-06-25T08:59:29.187Z</time>
      </trkpt>
      <trkpt lat="45.70388" lon="2.85369">
        <ele>911</ele>
        <time>2018-06-25T08:59:30.187Z</time>
      </trkpt>
      <trkpt lat="45.69664" lon="2.85081">
        <ele>942</ele>
        <time>2018-06-25T08:59:31.187Z</time>
      </trkpt>
      <trkpt lat="45.69605" lon="2.8505">
        <ele>944</ele>
        <time>2018-06-25T08:59:32.187Z</time>
      </trkpt>
      <trkpt lat="45.69524" lon="2.84984">
        <ele>944</ele>
        <time>2018-06-25T08:59:33.187Z</time>
      </trkpt>
      <trkpt lat="45.69373" lon="2.84923">
        <ele>949</ele>
        <time>2018-06-25T08:59:34.187Z</time>
      </trkpt>
      <trkpt lat="45.69202" lon="2.848">
        <ele>941</ele>
        <time>2018-06-25T08:59:35.187Z</time>
      </trkpt>
      <trkpt lat="45.69139" lon="2.84718">
        <ele>943</ele>
        <time>2018-06-25T08:59:36.187Z</time>
      </trkpt>
      <trkpt lat="45.69076" lon="2.84688">
        <ele>945</ele>
        <time>2018-06-25T08:59:37.187Z</time>
      </trkpt>
      <trkpt lat="45.69007" lon="2.84746">
        <ele>950</ele>
        <time>2018-06-25T08:59:38.187Z</time>
      </trkpt>
      <trkpt lat="45.68983" lon="2.84782">
        <ele>952</ele>
        <time>2018-06-25T08:59:39.187Z</time>
      </trkpt>
      <trkpt lat="45.6892" lon="2.84835">
        <ele>955</ele>
        <time>2018-06-25T08:59:40.187Z</time>
      </trkpt>
      <trkpt lat="45.68902" lon="2.84842">
        <ele>956</ele>
        <time>2018-06-25T08:59:41.187Z</time>
      </trkpt>
      <trkpt lat="45.6881" lon="2.84845">
        <ele>968</ele>
        <time>2018-06-25T08:59:42.187Z</time>
      </trkpt>
      <trkpt lat="45.68794" lon="2.84791">
        <ele>973</ele>
        <time>2018-06-25T08:59:43.187Z</time>
      </trkpt>
      <trkpt lat="45.68763" lon="2.84735">
        <ele>979</ele>
        <time>2018-06-25T08:59:44.187Z</time>
      </trkpt>
      <trkpt lat="45.68744" lon="2.84712">
        <ele>980</ele>
        <time>2018-06-25T08:59:45.187Z</time>
      </trkpt>
      <trkpt lat="45.68706" lon="2.84691">
        <ele>984</ele>
        <time>2018-06-25T08:59:46.187Z</time>
      </trkpt>
      <trkpt lat="45.6866" lon="2.84692">
        <ele>994</ele>
        <time>2018-06-25T08:59:47.187Z</time>
      </trkpt>
      <trkpt lat="45.68594" lon="2.84749">
        <ele>1015</ele>
        <time>2018-06-25T08:59:48.187Z</time>
      </trkpt>
      <trkpt lat="45.68534" lon="2.84776">
        <ele>1013</ele>
        <time>2018-06-25T08:59:49.187Z</time>
      </trkpt>
      <trkpt lat="45.68501" lon="2.84812">
        <ele>1019</ele>
        <time>2018-06-25T08:59:50.187Z</time>
      </trkpt>
      <trkpt lat="45.68475" lon="2.84855">
        <ele>1025</ele>
        <time>2018-06-25T08:59:51.187Z</time>
      </trkpt>
      <trkpt lat="45.68444" lon="2.84877">
        <ele>1025</ele>
        <time>2018-06-25T08:59:52.187Z</time>
      </trkpt>
      <trkpt lat="45.68413" lon="2.8493">
        <ele>1034</ele>
        <time>2018-06-25T08:59:53.187Z</time>
      </trkpt>
      <trkpt lat="45.68386" lon="2.85">
        <ele>1046</ele>
        <time>2018-06-25T08:59:54.187Z</time>
      </trkpt>
      <trkpt lat="45.6838" lon="2.85044">
        <ele>1047</ele>
        <time>2018-06-25T08:59:55.187Z</time>
      </trkpt>
      <trkpt lat="45.68345" lon="2.85073">
        <ele>1049</ele>
        <time>2018-06-25T08:59:56.187Z</time>
      </trkpt>
      <trkpt lat="45.68282" lon="2.85077">
        <ele>1047</ele>
        <time>2018-06-25T08:59:57.187Z</time>
      </trkpt>
      <trkpt lat="45.68116" lon="2.85023">
        <ele>1048</ele>
        <time>2018-06-25T08:59:58.187Z</time>
      </trkpt>
      <trkpt lat="45.67982" lon="2.85014">
        <ele>1057</ele>
        <time>2018-06-25T08:59:59.187Z</time>
      </trkpt>
      <trkpt lat="45.6794" lon="2.85021">
        <ele>1061</ele>
        <time>2018-06-25T09:00:00.187Z</time>
      </trkpt>
      <trkpt lat="45.6783" lon="2.85066">
        <ele>1064</ele>
        <time>2018-06-25T09:00:01.187Z</time>
      </trkpt>
      <trkpt lat="45.67709" lon="2.85091">
        <ele>1068</ele>
        <time>2018-06-25T09:00:02.187Z</time>
      </trkpt>
      <trkpt lat="45.67602" lon="2.85067">
        <ele>1067</ele>
        <time>2018-06-25T09:00:03.187Z</time>
      </trkpt>
      <trkpt lat="45.6757" lon="2.85103">
        <ele>1067</ele>
        <time>2018-06-25T09:00:04.187Z</time>
      </trkpt>
      <trkpt lat="45.67466" lon="2.85104">
        <ele>1053</ele>
        <time>2018-06-25T09:00:05.187Z</time>
      </trkpt>
      <trkpt lat="45.67353" lon="2.85091">
        <ele>1042</ele>
        <time>2018-06-25T09:00:06.187Z</time>
      </trkpt>
      <trkpt lat="45.67271" lon="2.85121">
        <ele>1036</ele>
        <time>2018-06-25T09:00:07.187Z</time>
      </trkpt>
      <trkpt lat="45.67185" lon="2.85121">
        <ele>1032</ele>
        <time>2018-06-25T09:00:08.187Z</time>
      </trkpt>
      <trkpt lat="45.66944" lon="2.85037">
        <ele>1044</ele>
        <time>2018-06-25T09:00:09.187Z</time>
      </trkpt>
      <trkpt lat="45.66657" lon="2.84916">
        <ele>1072</ele>
        <time>2018-06-25T09:00:10.187Z</time>
      </trkpt>
      <trkpt lat="45.66601" lon="2.84903">
        <ele>1075</ele>
        <time>2018-06-25T09:00:11.187Z</time>
      </trkpt>
      <trkpt lat="45.66498" lon="2.84849">
        <ele>1082</ele>
        <time>2018-06-25T09:00:12.187Z</time>
      </trkpt>
      <trkpt lat="45.66317" lon="2.84722">
        <ele>1087</ele>
        <time>2018-06-25T09:00:13.187Z</time>
      </trkpt>
      <trkpt lat="45.66303" lon="2.84725">
        <ele>1086</ele>
        <time>2018-06-25T09:00:14.187Z</time>
      </trkpt>
      <trkpt lat="45.66261" lon="2.84761">
        <ele>1087</ele>
        <time>2018-06-25T09:00:15.187Z</time>
      </trkpt>
      <trkpt lat="45.66211" lon="2.84775">
        <ele>1091</ele>
        <time>2018-06-25T09:00:16.187Z</time>
      </trkpt>
      <trkpt lat="45.66203" lon="2.84786">
        <ele>1092</ele>
        <time>2018-06-25T09:00:17.187Z</time>
      </trkpt>
      <trkpt lat="45.662" lon="2.84866">
        <ele>1095</ele>
        <time>2018-06-25T09:00:18.187Z</time>
      </trkpt>
      <trkpt lat="45.66193" lon="2.84886">
        <ele>1096</ele>
        <time>2018-06-25T09:00:19.187Z</time>
      </trkpt>
      <trkpt lat="45.6616" lon="2.84913">
        <ele>1101</ele>
        <time>2018-06-25T09:00:20.187Z</time>
      </trkpt>
      <trkpt lat="45.65838" lon="2.85038">
        <ele>1130</ele>
        <time>2018-06-25T09:00:21.187Z</time>
      </trkpt>
      <trkpt lat="45.6576" lon="2.85084">
        <ele>1139</ele>
        <time>2018-06-25T09:00:22.187Z</time>
      </trkpt>
      <trkpt lat="45.65704" lon="2.85137">
        <ele>1146</ele>
        <time>2018-06-25T09:00:23.187Z</time>
      </trkpt>
      <trkpt lat="45.65647" lon="2.85227">
        <ele>1147</ele>
        <time>2018-06-25T09:00:24.187Z</time>
      </trkpt>
      <trkpt lat="45.65626" lon="2.85242">
        <ele>1150</ele>
        <time>2018-06-25T09:00:25.187Z</time>
      </trkpt>
      <trkpt lat="45.65608" lon="2.85276">
        <ele>1150</ele>
        <time>2018-06-25T09:00:26.187Z</time>
      </trkpt>
      <trkpt lat="45.6557" lon="2.85319">
        <ele>1155</ele>
        <time>2018-06-25T09:00:27.187Z</time>
      </trkpt>
      <trkpt lat="45.65534" lon="2.85382">
        <ele>1159</ele>
        <time>2018-06-25T09:00:28.187Z</time>
      </trkpt>
      <trkpt lat="45.65454" lon="2.85416">
        <ele>1168</ele>
        <time>2018-06-25T09:00:29.187Z</time>
      </trkpt>
      <trkpt lat="45.65417" lon="2.85392">
        <ele>1175</ele>
        <time>2018-06-25T09:00:30.187Z</time>
      </trkpt>
      <trkpt lat="45.65317" lon="2.85383">
        <ele>1179</ele>
        <time>2018-06-25T09:00:31.187Z</time>
      </trkpt>
      <trkpt lat="45.65319" lon="2.85432">
        <ele>1179</ele>
        <time>2018-06-25T09:00:32.187Z</time>
      </trkpt>
      <trkpt lat="45.65296" lon="2.85426">
        <ele>1182</ele>
        <time>2018-06-25T09:00:33.187Z</time>
      </trkpt>
      <trkpt lat="45.65224" lon="2.85462">
        <ele>1191</ele>
        <time>2018-06-25T09:00:34.187Z</time>
      </trkpt>
      <trkpt lat="45.6514" lon="2.85442">
        <ele>1196</ele>
        <time>2018-06-25T09:00:35.187Z</time>
      </trkpt>
      <trkpt lat="45.65115" lon="2.85472">
        <ele>1200</ele>
        <time>2018-06-25T09:00:36.187Z</time>
      </trkpt>
      <trkpt lat="45.6492" lon="2.85845">
        <ele>1224</ele>
        <time>2018-06-25T09:00:37.187Z</time>
      </trkpt>
      <trkpt lat="45.64913" lon="2.85845">
        <ele>1223</ele>
        <time>2018-06-25T09:00:38.187Z</time>
      </trkpt>
      <trkpt lat="45.64843" lon="2.85765">
        <ele>1218</ele>
        <time>2018-06-25T09:00:39.187Z</time>
      </trkpt>
      <trkpt lat="45.6483" lon="2.8576">
        <ele>1217</ele>
        <time>2018-06-25T09:00:40.187Z</time>
      </trkpt>
      <trkpt lat="45.64819" lon="2.8574">
        <ele>1216</ele>
        <time>2018-06-25T09:00:41.187Z</time>
      </trkpt>
      <trkpt lat="45.64779" lon="2.85707">
        <ele>1212</ele>
        <time>2018-06-25T09:00:42.187Z</time>
      </trkpt>
      <trkpt lat="45.64745" lon="2.8555">
        <ele>1213</ele>
        <time>2018-06-25T09:00:43.187Z</time>
      </trkpt>
      <trkpt lat="45.64739" lon="2.85544">
        <ele>1213</ele>
        <time>2018-06-25T09:00:44.187Z</time>
      </trkpt>
      <trkpt lat="45.64732" lon="2.85584">
        <ele>1211</ele>
        <time>2018-06-25T09:00:45.187Z</time>
      </trkpt>
      <trkpt lat="45.6462" lon="2.85499">
        <ele>1219</ele>
        <time>2018-06-25T09:00:46.187Z</time>
      </trkpt>
      <trkpt lat="45.6452" lon="2.85436">
        <ele>1227</ele>
        <time>2018-06-25T09:00:47.187Z</time>
      </trkpt>
      <trkpt lat="45.64514" lon="2.85419">
        <ele>1228</ele>
        <time>2018-06-25T09:00:48.187Z</time>
      </trkpt>
      <trkpt lat="45.64464" lon="2.85388">
        <ele>1231</ele>
        <time>2018-06-25T09:00:49.187Z</time>
      </trkpt>
      <trkpt lat="45.64393" lon="2.85276">
        <ele>1232</ele>
        <time>2018-06-25T09:00:50.187Z</time>
      </trkpt>
      <trkpt lat="45.64352" lon="2.85239">
        <ele>1234</ele>
        <time>2018-06-25T09:00:51.187Z</time>
      </trkpt>
      <trkpt lat="45.64292" lon="2.85201">
        <ele>1234</ele>
        <time>2018-06-25T09:00:52.187Z</time>
      </trkpt>
      <trkpt lat="45.64259" lon="2.85198">
        <ele>1236</ele>
        <time>2018-06-25T09:00:53.187Z</time>
      </trkpt>
      <trkpt lat="45.64229" lon="2.85182">
        <ele>1235</ele>
        <time>2018-06-25T09:00:54.187Z</time>
      </trkpt>
      <trkpt lat="45.64173" lon="2.85134">
        <ele>1233</ele>
        <time>2018-06-25T09:00:55.187Z</time>
      </trkpt>
      <trkpt lat="45.64115" lon="2.85061">
        <ele>1236</ele>
        <time>2018-06-25T09:00:56.187Z</time>
      </trkpt>
      <trkpt lat="45.64095" lon="2.85009">
        <ele>1233</ele>
        <time>2018-06-25T09:00:57.187Z</time>
      </trkpt>
      <trkpt lat="45.64043" lon="2.8493">
        <ele>1230</ele>
        <time>2018-06-25T09:00:58.187Z</time>
      </trkpt>
      <trkpt lat="45.64001" lon="2.84912">
        <ele>1231</ele>
        <time>2018-06-25T09:00:59.187Z</time>
      </trkpt>
      <trkpt lat="45.63878" lon="2.84906">
        <ele>1239</ele>
        <time>2018-06-25T09:01:00.187Z</time>
      </trkpt>
      <trkpt lat="45.63835" lon="2.84886">
        <ele>1238</ele>
        <time>2018-06-25T09:01:01.187Z</time>
      </trkpt>
      <trkpt lat="45.63725" lon="2.84859">
        <ele>1241</ele>
        <time>2018-06-25T09:01:02.187Z</time>
      </trkpt>
      <trkpt lat="45.63637" lon="2.84866">
        <ele>1246</ele>
        <time>2018-06-25T09:01:03.187Z</time>
      </trkpt>
      <trkpt lat="45.63575" lon="2.84859">
        <ele>1248</ele>
        <time>2018-06-25T09:01:04.187Z</time>
      </trkpt>
      <trkpt lat="45.63525" lon="2.84838">
        <ele>1251</ele>
        <time>2018-06-25T09:01:05.187Z</time>
      </trkpt>
      <trkpt lat="45.63503" lon="2.84809">
        <ele>1251</ele>
        <time>2018-06-25T09:01:06.187Z</time>
      </trkpt>
      <trkpt lat="45.63489" lon="2.84775">
        <ele>1251</ele>
        <time>2018-06-25T09:01:07.187Z</time>
      </trkpt>
      <trkpt lat="45.63454" lon="2.84712">
        <ele>1251</ele>
        <time>2018-06-25T09:01:08.187Z</time>
      </trkpt>
      <trkpt lat="45.63399" lon="2.84657">
        <ele>1253</ele>
        <time>2018-06-25T09:01:09.187Z</time>
      </trkpt>
      <trkpt lat="45.63353" lon="2.84638">
        <ele>1252</ele>
        <time>2018-06-25T09:01:10.187Z</time>
      </trkpt>
      <trkpt lat="45.6331" lon="2.84659">
        <ele>1255</ele>
        <time>2018-06-25T09:01:11.187Z</time>
      </trkpt>
      <trkpt lat="45.63301" lon="2.84672">
        <ele>1255</ele>
        <time>2018-06-25T09:01:12.187Z</time>
      </trkpt>
      <trkpt lat="45.63296" lon="2.84722">
        <ele>1262</ele>
        <time>2018-06-25T09:01:13.187Z</time>
      </trkpt>
      <trkpt lat="45.6326" lon="2.84724">
        <ele>1259</ele>
        <time>2018-06-25T09:01:14.187Z</time>
      </trkpt>
      <trkpt lat="45.63211" lon="2.84752">
        <ele>1262</ele>
        <time>2018-06-25T09:01:15.187Z</time>
      </trkpt>
      <trkpt lat="45.63133" lon="2.84781">
        <ele>1270</ele>
        <time>2018-06-25T09:01:16.187Z</time>
      </trkpt>
      <trkpt lat="45.63117" lon="2.84778">
        <ele>1270</ele>
        <time>2018-06-25T09:01:17.187Z</time>
      </trkpt>
      <trkpt lat="45.63111" lon="2.84765">
        <ele>1270</ele>
        <time>2018-06-25T09:01:18.187Z</time>
      </trkpt>
      <trkpt lat="45.63113" lon="2.84742">
        <ele>1268</ele>
        <time>2018-06-25T09:01:19.187Z</time>
      </trkpt>
      <trkpt lat="45.63147" lon="2.84695">
        <ele>1261</ele>
        <time>2018-06-25T09:01:20.187Z</time>
      </trkpt>
      <trkpt lat="45.63162" lon="2.84625">
        <ele>1256</ele>
        <time>2018-06-25T09:01:21.187Z</time>
      </trkpt>
      <trkpt lat="45.63154" lon="2.84597">
        <ele>1259</ele>
        <time>2018-06-25T09:01:22.187Z</time>
      </trkpt>
      <trkpt lat="45.63125" lon="2.84548">
        <ele>1270</ele>
        <time>2018-06-25T09:01:23.187Z</time>
      </trkpt>
      <trkpt lat="45.63122" lon="2.8452">
        <ele>1272</ele>
        <time>2018-06-25T09:01:24.187Z</time>
      </trkpt>
      <trkpt lat="45.63158" lon="2.8446">
        <ele>1261</ele>
        <time>2018-06-25T09:01:25.187Z</time>
      </trkpt>
      <trkpt lat="45.63164" lon="2.84406">
        <ele>1260</ele>
        <time>2018-06-25T09:01:26.187Z</time>
      </trkpt>
      <trkpt lat="45.63088" lon="2.84313">
        <ele>1274</ele>
        <time>2018-06-25T09:01:27.187Z</time>
      </trkpt>
      <trkpt lat="45.63032" lon="2.84286">
        <ele>1281</ele>
        <time>2018-06-25T09:01:28.187Z</time>
      </trkpt>
      <trkpt lat="45.62978" lon="2.84245">
        <ele>1284</ele>
        <time>2018-06-25T09:01:29.187Z</time>
      </trkpt>
      <trkpt lat="45.62932" lon="2.84159">
        <ele>1285</ele>
        <time>2018-06-25T09:01:30.187Z</time>
      </trkpt>
      <trkpt lat="45.62928" lon="2.84115">
        <ele>1289</ele>
        <time>2018-06-25T09:01:31.187Z</time>
      </trkpt>
      <trkpt lat="45.6294" lon="2.84096">
        <ele>1290</ele>
        <time>2018-06-25T09:01:32.187Z</time>
      </trkpt>
      <trkpt lat="45.62956" lon="2.84089">
        <ele>1291</ele>
        <time>2018-06-25T09:01:33.187Z</time>
      </trkpt>
      <trkpt lat="45.6299" lon="2.84096">
        <ele>1290</ele>
        <time>2018-06-25T09:01:34.187Z</time>
      </trkpt>
      <trkpt lat="45.63041" lon="2.84088">
        <ele>1293</ele>
        <time>2018-06-25T09:01:35.187Z</time>
      </trkpt>
      <trkpt lat="45.63282" lon="2.84159">
        <ele>1286</ele>
        <time>2018-06-25T09:01:36.187Z</time>
      </trkpt>
      <trkpt lat="45.63386" lon="2.84159">
        <ele>1286</ele>
        <time>2018-06-25T09:01:37.187Z</time>
      </trkpt>
      <trkpt lat="45.63525" lon="2.84198">
        <ele>1279</ele>
        <time>2018-06-25T09:01:38.187Z</time>
      </trkpt>
      <trkpt lat="45.6359" lon="2.84165">
        <ele>1284</ele>
        <time>2018-06-25T09:01:39.187Z</time>
      </trkpt>
      <trkpt lat="45.63659" lon="2.84179">
        <ele>1281</ele>
        <time>2018-06-25T09:01:40.187Z</time>
      </trkpt>
      <trkpt lat="45.63719" lon="2.84206">
        <ele>1276</ele>
        <time>2018-06-25T09:01:41.187Z</time>
      </trkpt>
      <trkpt lat="45.63749" lon="2.84193">
        <ele>1278</ele>
        <time>2018-06-25T09:01:42.187Z</time>
      </trkpt>
      <trkpt lat="45.63772" lon="2.84171">
        <ele>1278</ele>
        <time>2018-06-25T09:01:43.187Z</time>
      </trkpt>
      <trkpt lat="45.63794" lon="2.84116">
        <ele>1279</ele>
        <time>2018-06-25T09:01:44.187Z</time>
      </trkpt>
      <trkpt lat="45.63826" lon="2.84088">
        <ele>1277</ele>
        <time>2018-06-25T09:01:45.187Z</time>
      </trkpt>
      <trkpt lat="45.6379" lon="2.83927">
        <ele>1291</ele>
        <time>2018-06-25T09:01:46.187Z</time>
      </trkpt>
      <trkpt lat="45.63785" lon="2.8392">
        <ele>1292</ele>
        <time>2018-06-25T09:01:47.187Z</time>
      </trkpt>
      <trkpt lat="45.63713" lon="2.84001">
        <ele>1296</ele>
        <time>2018-06-25T09:01:48.187Z</time>
      </trkpt>
      <trkpt lat="45.63667" lon="2.84011">
        <ele>1302</ele>
        <time>2018-06-25T09:01:49.187Z</time>
      </trkpt>
      <trkpt lat="45.63624" lon="2.84005">
        <ele>1308</ele>
        <time>2018-06-25T09:01:50.187Z</time>
      </trkpt>
      <trkpt lat="45.63633" lon="2.83935">
        <ele>1312</ele>
        <time>2018-06-25T09:01:51.187Z</time>
      </trkpt>
      <trkpt lat="45.63626" lon="2.83857">
        <ele>1316</ele>
        <time>2018-06-25T09:01:52.187Z</time>
      </trkpt>
      <trkpt lat="45.63631" lon="2.83827">
        <ele>1317</ele>
        <time>2018-06-25T09:01:53.187Z</time>
      </trkpt>
      <trkpt lat="45.63619" lon="2.83712">
        <ele>1322</ele>
        <time>2018-06-25T09:01:54.187Z</time>
      </trkpt>
      <trkpt lat="45.63602" lon="2.83656">
        <ele>1327</ele>
        <time>2018-06-25T09:01:55.187Z</time>
      </trkpt>
      <trkpt lat="45.63575" lon="2.83629">
        <ele>1331</ele>
        <time>2018-06-25T09:01:56.187Z</time>
      </trkpt>
      <trkpt lat="45.63559" lon="2.8359">
        <ele>1333</ele>
        <time>2018-06-25T09:01:57.187Z</time>
      </trkpt>
      <trkpt lat="45.63534" lon="2.8363">
        <ele>1336</ele>
        <time>2018-06-25T09:01:58.187Z</time>
      </trkpt>
      <trkpt lat="45.63502" lon="2.83666">
        <ele>1339</ele>
        <time>2018-06-25T09:01:59.187Z</time>
      </trkpt>
      <trkpt lat="45.63431" lon="2.83703">
        <ele>1348</ele>
        <time>2018-06-25T09:02:00.187Z</time>
      </trkpt>
      <trkpt lat="45.63412" lon="2.83704">
        <ele>1350</ele>
        <time>2018-06-25T09:02:01.187Z</time>
      </trkpt>
      <trkpt lat="45.63408" lon="2.83689">
        <ele>1352</ele>
        <time>2018-06-25T09:02:02.187Z</time>
      </trkpt>
      <trkpt lat="45.6343" lon="2.83629">
        <ele>1352</ele>
        <time>2018-06-25T09:02:03.187Z</time>
      </trkpt>
      <trkpt lat="45.63348" lon="2.83523">
        <ele>1358</ele>
        <time>2018-06-25T09:02:04.187Z</time>
      </trkpt>
      <trkpt lat="45.63337" lon="2.83519">
        <ele>1359</ele>
        <time>2018-06-25T09:02:05.187Z</time>
      </trkpt>
      <trkpt lat="45.63327" lon="2.83528">
        <ele>1361</ele>
        <time>2018-06-25T09:02:06.187Z</time>
      </trkpt>
      <trkpt lat="45.63292" lon="2.83615">
        <ele>1366</ele>
        <time>2018-06-25T09:02:07.187Z</time>
      </trkpt>
      <trkpt lat="45.63278" lon="2.83623">
        <ele>1367</ele>
        <time>2018-06-25T09:02:08.187Z</time>
      </trkpt>
      <trkpt lat="45.6325" lon="2.83622">
        <ele>1368</ele>
        <time>2018-06-25T09:02:09.187Z</time>
      </trkpt>
      <trkpt lat="45.63191" lon="2.83582">
        <ele>1373</ele>
        <time>2018-06-25T09:02:10.187Z</time>
      </trkpt>
      <trkpt lat="45.63148" lon="2.83586">
        <ele>1375</ele>
        <time>2018-06-25T09:02:11.187Z</time>
      </trkpt>
      <trkpt lat="45.63052" lon="2.83575">
        <ele>1380</ele>
        <time>2018-06-25T09:02:12.187Z</time>
      </trkpt>
      <trkpt lat="45.62985" lon="2.83528">
        <ele>1386</ele>
        <time>2018-06-25T09:02:13.187Z</time>
      </trkpt>
      <trkpt lat="45.62956" lon="2.83523">
        <ele>1388</ele>
        <time>2018-06-25T09:02:14.187Z</time>
      </trkpt>
      <trkpt lat="45.62826" lon="2.83475">
        <ele>1403</ele>
        <time>2018-06-25T09:02:15.187Z</time>
      </trkpt>
      <trkpt lat="45.62629" lon="2.83324">
        <ele>1429</ele>
        <time>2018-06-25T09:02:16.187Z</time>
      </trkpt>
      <trkpt lat="45.62562" lon="2.83253">
        <ele>1407</ele>
        <time>2018-06-25T09:02:17.187Z</time>
      </trkpt>
      <trkpt lat="45.62479" lon="2.8324">
        <ele>1411</ele>
        <time>2018-06-25T09:02:18.187Z</time>
      </trkpt>
      <trkpt lat="45.62438" lon="2.83214">
        <ele>1408</ele>
        <time>2018-06-25T09:02:19.187Z</time>
      </trkpt>
      <trkpt lat="45.62405" lon="2.83153">
        <ele>1398</ele>
        <time>2018-06-25T09:02:20.187Z</time>
      </trkpt>
      <trkpt lat="45.62366" lon="2.83132">
        <ele>1402</ele>
        <time>2018-06-25T09:02:21.187Z</time>
      </trkpt>
      <trkpt lat="45.62341" lon="2.83093">
        <ele>1401</ele>
        <time>2018-06-25T09:02:22.187Z</time>
      </trkpt>
      <trkpt lat="45.62315" lon="2.83075">
        <ele>1400</ele>
        <time>2018-06-25T09:02:23.187Z</time>
      </trkpt>
      <trkpt lat="45.62285" lon="2.83072">
        <ele>1399</ele>
        <time>2018-06-25T09:02:24.187Z</time>
      </trkpt>
      <trkpt lat="45.62224" lon="2.83096">
        <ele>1398</ele>
        <time>2018-06-25T09:02:25.187Z</time>
      </trkpt>
      <trkpt lat="45.62153" lon="2.83147">
        <ele>1395</ele>
        <time>2018-06-25T09:02:26.187Z</time>
      </trkpt>
      <trkpt lat="45.62146" lon="2.83147">
        <ele>1394</ele>
        <time>2018-06-25T09:02:27.187Z</time>
      </trkpt>
      <trkpt lat="45.62045" lon="2.82905">
        <ele>1357</ele>
        <time>2018-06-25T09:02:28.187Z</time>
      </trkpt>
      <trkpt lat="45.62022" lon="2.82912">
        <ele>1355</ele>
        <time>2018-06-25T09:02:29.187Z</time>
      </trkpt>
      <trkpt lat="45.6201" lon="2.82882">
        <ele>1352</ele>
        <time>2018-06-25T09:02:30.187Z</time>
      </trkpt>
      <trkpt lat="45.6201" lon="2.82854">
        <ele>1351</ele>
        <time>2018-06-25T09:02:31.187Z</time>
      </trkpt>
      <trkpt lat="45.62001" lon="2.82841">
        <ele>1349</ele>
        <time>2018-06-25T09:02:32.187Z</time>
      </trkpt>
      <trkpt lat="45.61999" lon="2.82808">
        <ele>1348</ele>
        <time>2018-06-25T09:02:33.187Z</time>
      </trkpt>
      <trkpt lat="45.62016" lon="2.82758">
        <ele>1349</ele>
        <time>2018-06-25T09:02:34.187Z</time>
      </trkpt>
      <trkpt lat="45.62084" lon="2.82646">
        <ele>1339</ele>
        <time>2018-06-25T09:02:35.187Z</time>
      </trkpt>
      <trkpt lat="45.62124" lon="2.82465">
        <ele>1312</ele>
        <time>2018-06-25T09:02:36.187Z</time>
      </trkpt>
      <trkpt lat="45.62182" lon="2.82311">
        <ele>1297</ele>
        <time>2018-06-25T09:02:37.187Z</time>
      </trkpt>
      <trkpt lat="45.62187" lon="2.82261">
        <ele>1289</ele>
        <time>2018-06-25T09:02:38.187Z</time>
      </trkpt>
      <trkpt lat="45.62178" lon="2.82222">
        <ele>1284</ele>
        <time>2018-06-25T09:02:39.187Z</time>
      </trkpt>
      <trkpt lat="45.62151" lon="2.82165">
        <ele>1276</ele>
        <time>2018-06-25T09:02:40.187Z</time>
      </trkpt>
      <trkpt lat="45.62126" lon="2.82135">
        <ele>1272</ele>
        <time>2018-06-25T09:02:41.187Z</time>
      </trkpt>
      <trkpt lat="45.62099" lon="2.82071">
        <ele>1267</ele>
        <time>2018-06-25T09:02:42.187Z</time>
      </trkpt>
      <trkpt lat="45.62066" lon="2.82063">
        <ele>1266</ele>
        <time>2018-06-25T09:02:43.187Z</time>
      </trkpt>
      <trkpt lat="45.61956" lon="2.81987">
        <ele>1268</ele>
        <time>2018-06-25T09:02:44.187Z</time>
      </trkpt>
      <trkpt lat="45.61945" lon="2.81927">
        <ele>1272</ele>
        <time>2018-06-25T09:02:45.187Z</time>
      </trkpt>
      <trkpt lat="45.61983" lon="2.81741">
        <ele>1283</ele>
        <time>2018-06-25T09:02:46.187Z</time>
      </trkpt>
      <trkpt lat="45.61982" lon="2.81709">
        <ele>1286</ele>
        <time>2018-06-25T09:02:47.187Z</time>
      </trkpt>
      <trkpt lat="45.61937" lon="2.81636">
        <ele>1291</ele>
        <time>2018-06-25T09:02:48.187Z</time>
      </trkpt>
      <trkpt lat="45.61904" lon="2.81608">
        <ele>1293</ele>
        <time>2018-06-25T09:02:49.187Z</time>
      </trkpt>
      <trkpt lat="45.61884" lon="2.81572">
        <ele>1298</ele>
        <time>2018-06-25T09:02:50.187Z</time>
      </trkpt>
      <trkpt lat="45.61867" lon="2.81502">
        <ele>1306</ele>
        <time>2018-06-25T09:02:51.187Z</time>
      </trkpt>
      <trkpt lat="45.61892" lon="2.81426">
        <ele>1313</ele>
        <time>2018-06-25T09:02:52.187Z</time>
      </trkpt>
      <trkpt lat="45.6181" lon="2.81213">
        <ele>1324</ele>
        <time>2018-06-25T09:02:53.187Z</time>
      </trkpt>
      <trkpt lat="45.61808" lon="2.81189">
        <ele>1325</ele>
        <time>2018-06-25T09:02:54.187Z</time>
      </trkpt>
      <trkpt lat="45.61842" lon="2.81073">
        <ele>1331</ele>
        <time>2018-06-25T09:02:55.187Z</time>
      </trkpt>
      <trkpt lat="45.61848" lon="2.80971">
        <ele>1334</ele>
        <time>2018-06-25T09:02:56.187Z</time>
      </trkpt>
      <trkpt lat="45.61821" lon="2.80858">
        <ele>1342</ele>
        <time>2018-06-25T09:02:57.187Z</time>
      </trkpt>
      <trkpt lat="45.61777" lon="2.80791">
        <ele>1346</ele>
        <time>2018-06-25T09:02:58.187Z</time>
      </trkpt>
      <trkpt lat="45.61774" lon="2.8074">
        <ele>1348</ele>
        <time>2018-06-25T09:02:59.187Z</time>
      </trkpt>
      <trkpt lat="45.61792" lon="2.80471">
        <ele>1350</ele>
        <time>2018-06-25T09:03:00.187Z</time>
      </trkpt>
      <trkpt lat="45.61785" lon="2.801">
        <ele>1355</ele>
        <time>2018-06-25T09:03:01.187Z</time>
      </trkpt>
      <trkpt lat="45.61771" lon="2.79962">
        <ele>1357</ele>
        <time>2018-06-25T09:03:02.187Z</time>
      </trkpt>
      <trkpt lat="45.6175" lon="2.79573">
        <ele>1367</ele>
        <time>2018-06-25T09:03:03.187Z</time>
      </trkpt>
      <trkpt lat="45.61752" lon="2.79272">
        <ele>1381</ele>
        <time>2018-06-25T09:03:04.187Z</time>
      </trkpt>
      <trkpt lat="45.61721" lon="2.79155">
        <ele>1386</ele>
        <time>2018-06-25T09:03:05.187Z</time>
      </trkpt>
      <trkpt lat="45.61689" lon="2.78967">
        <ele>1394</ele>
        <time>2018-06-25T09:03:06.187Z</time>
      </trkpt>
      <trkpt lat="45.61579" lon="2.78783">
        <ele>1398</ele>
        <time>2018-06-25T09:03:07.187Z</time>
      </trkpt>
      <trkpt lat="45.61548" lon="2.78662">
        <ele>1407</ele>
        <time>2018-06-25T09:03:08.187Z</time>
      </trkpt>
      <trkpt lat="45.6153" lon="2.78635">
        <ele>1409</ele>
        <time>2018-06-25T09:03:09.187Z</time>
      </trkpt>
      <trkpt lat="45.61444" lon="2.78578">
        <ele>1412</ele>
        <time>2018-06-25T09:03:10.187Z</time>
      </trkpt>
      <trkpt lat="45.61411" lon="2.78569">
        <ele>1412</ele>
        <time>2018-06-25T09:03:11.187Z</time>
      </trkpt>
      <trkpt lat="45.61323" lon="2.78495">
        <ele>1416</ele>
        <time>2018-06-25T09:03:12.187Z</time>
      </trkpt>
      <trkpt lat="45.61241" lon="2.78367">
        <ele>1422</ele>
        <time>2018-06-25T09:03:13.187Z</time>
      </trkpt>
      <trkpt lat="45.61201" lon="2.78261">
        <ele>1429</ele>
        <time>2018-06-25T09:03:14.187Z</time>
      </trkpt>
      <trkpt lat="45.61158" lon="2.78095">
        <ele>1435</ele>
        <time>2018-06-25T09:03:15.187Z</time>
      </trkpt>
      <trkpt lat="45.6116" lon="2.78069">
        <ele>1436</ele>
        <time>2018-06-25T09:03:16.187Z</time>
      </trkpt>
      <trkpt lat="45.61193" lon="2.77954">
        <ele>1441</ele>
        <time>2018-06-25T09:03:17.187Z</time>
      </trkpt>
      <trkpt lat="45.61278" lon="2.77747">
        <ele>1444</ele>
        <time>2018-06-25T09:03:18.187Z</time>
      </trkpt>
      <trkpt lat="45.61299" lon="2.7772">
        <ele>1445</ele>
        <time>2018-06-25T09:03:19.187Z</time>
      </trkpt>
      <trkpt lat="45.61438" lon="2.77659">
        <ele>1431</ele>
        <time>2018-06-25T09:03:20.187Z</time>
      </trkpt>
      <trkpt lat="45.61498" lon="2.77617">
        <ele>1418</ele>
        <time>2018-06-25T09:03:21.187Z</time>
      </trkpt>
      <trkpt lat="45.61503" lon="2.77606">
        <ele>1415</ele>
        <time>2018-06-25T09:03:22.187Z</time>
      </trkpt>
      <trkpt lat="45.61465" lon="2.77452">
        <ele>1404</ele>
        <time>2018-06-25T09:03:23.187Z</time>
      </trkpt>
      <trkpt lat="45.61602" lon="2.771">
        <ele>1360</ele>
        <time>2018-06-25T09:03:24.187Z</time>
      </trkpt>
      <trkpt lat="45.61746" lon="2.76949">
        <ele>1332</ele>
        <time>2018-06-25T09:03:25.187Z</time>
      </trkpt>
      <trkpt lat="45.61759" lon="2.76923">
        <ele>1330</ele>
        <time>2018-06-25T09:03:26.187Z</time>
      </trkpt>
      <trkpt lat="45.61762" lon="2.76769">
        <ele>1320</ele>
        <time>2018-06-25T09:03:27.187Z</time>
      </trkpt>
      <trkpt lat="45.61543" lon="2.76469">
        <ele>1325</ele>
        <time>2018-06-25T09:03:28.187Z</time>
      </trkpt>
      <trkpt lat="45.6131" lon="2.76048">
        <ele>1316</ele>
        <time>2018-06-25T09:03:29.187Z</time>
      </trkpt>
      <trkpt lat="45.61247" lon="2.75958">
        <ele>1311</ele>
        <time>2018-06-25T09:03:30.187Z</time>
      </trkpt>
      <trkpt lat="45.61203" lon="2.75923">
        <ele>1311</ele>
        <time>2018-06-25T09:03:31.187Z</time>
      </trkpt>
      <trkpt lat="45.60817" lon="2.75679">
        <ele>1309</ele>
        <time>2018-06-25T09:03:32.187Z</time>
      </trkpt>
      <trkpt lat="45.60779" lon="2.75682">
        <ele>1310</ele>
        <time>2018-06-25T09:03:33.187Z</time>
      </trkpt>
      <trkpt lat="45.60763" lon="2.75693">
        <ele>1311</ele>
        <time>2018-06-25T09:03:34.187Z</time>
      </trkpt>
      <trkpt lat="45.60747" lon="2.75719">
        <ele>1311</ele>
        <time>2018-06-25T09:03:35.187Z</time>
      </trkpt>
      <trkpt lat="45.60741" lon="2.75746">
        <ele>1311</ele>
        <time>2018-06-25T09:03:36.187Z</time>
      </trkpt>
      <trkpt lat="45.60725" lon="2.76028">
        <ele>1310</ele>
        <time>2018-06-25T09:03:37.187Z</time>
      </trkpt>
      <trkpt lat="45.60713" lon="2.76105">
        <ele>1304</ele>
        <time>2018-06-25T09:03:38.187Z</time>
      </trkpt>
      <trkpt lat="45.60676" lon="2.76211">
        <ele>1288</ele>
        <time>2018-06-25T09:03:39.187Z</time>
      </trkpt>
      <trkpt lat="45.60632" lon="2.7642">
        <ele>1273</ele>
        <time>2018-06-25T09:03:40.187Z</time>
      </trkpt>
      <trkpt lat="45.60615" lon="2.76456">
        <ele>1268</ele>
        <time>2018-06-25T09:03:41.187Z</time>
      </trkpt>
      <trkpt lat="45.60569" lon="2.76517">
        <ele>1260</ele>
        <time>2018-06-25T09:03:42.187Z</time>
      </trkpt>
      <trkpt lat="45.60546" lon="2.76527">
        <ele>1256</ele>
        <time>2018-06-25T09:03:43.187Z</time>
      </trkpt>
      <trkpt lat="45.60526" lon="2.76526">
        <ele>1252</ele>
        <time>2018-06-25T09:03:44.187Z</time>
      </trkpt>
      <trkpt lat="45.60467" lon="2.76497">
        <ele>1245</ele>
        <time>2018-06-25T09:03:45.187Z</time>
      </trkpt>
      <trkpt lat="45.60454" lon="2.76473">
        <ele>1241</ele>
        <time>2018-06-25T09:03:46.187Z</time>
      </trkpt>
      <trkpt lat="45.60458" lon="2.7645">
        <ele>1240</ele>
        <time>2018-06-25T09:03:47.187Z</time>
      </trkpt>
      <trkpt lat="45.60476" lon="2.76426">
        <ele>1242</ele>
        <time>2018-06-25T09:03:48.187Z</time>
      </trkpt>
      <trkpt lat="45.60523" lon="2.76393">
        <ele>1247</ele>
        <time>2018-06-25T09:03:49.187Z</time>
      </trkpt>
      <trkpt lat="45.60526" lon="2.76362">
        <ele>1245</ele>
        <time>2018-06-25T09:03:50.187Z</time>
      </trkpt>
      <trkpt lat="45.60539" lon="2.76283">
        <ele>1241</ele>
        <time>2018-06-25T09:03:51.187Z</time>
      </trkpt>
      <trkpt lat="45.60532" lon="2.76102">
        <ele>1234</ele>
        <time>2018-06-25T09:03:52.187Z</time>
      </trkpt>
      <trkpt lat="45.60487" lon="2.76248">
        <ele>1218</ele>
        <time>2018-06-25T09:03:53.187Z</time>
      </trkpt>
      <trkpt lat="45.60445" lon="2.76269">
        <ele>1211</ele>
        <time>2018-06-25T09:03:54.187Z</time>
      </trkpt>
      <trkpt lat="45.60408" lon="2.76283">
        <ele>1205</ele>
        <time>2018-06-25T09:03:55.187Z</time>
      </trkpt>
      <trkpt lat="45.6036" lon="2.76295">
        <ele>1195</ele>
        <time>2018-06-25T09:03:56.187Z</time>
      </trkpt>
      <trkpt lat="45.6043" lon="2.76208">
        <ele>1197</ele>
        <time>2018-06-25T09:03:57.187Z</time>
      </trkpt>
      <trkpt lat="45.60436" lon="2.76145">
        <ele>1195</ele>
        <time>2018-06-25T09:03:58.187Z</time>
      </trkpt>
      <trkpt lat="45.60409" lon="2.76192">
        <ele>1189</ele>
        <time>2018-06-25T09:03:59.187Z</time>
      </trkpt>
      <trkpt lat="45.60351" lon="2.76221">
        <ele>1180</ele>
        <time>2018-06-25T09:04:00.187Z</time>
      </trkpt>
      <trkpt lat="45.60306" lon="2.76239">
        <ele>1172</ele>
        <time>2018-06-25T09:04:01.187Z</time>
      </trkpt>
      <trkpt lat="45.60292" lon="2.76258">
        <ele>1172</ele>
        <time>2018-06-25T09:04:02.187Z</time>
      </trkpt>
      <trkpt lat="45.60263" lon="2.76319">
        <ele>1172</ele>
        <time>2018-06-25T09:04:03.187Z</time>
      </trkpt>
      <trkpt lat="45.60203" lon="2.76567">
        <ele>1177</ele>
        <time>2018-06-25T09:04:04.187Z</time>
      </trkpt>
      <trkpt lat="45.60205" lon="2.76607">
        <ele>1174</ele>
        <time>2018-06-25T09:04:05.187Z</time>
      </trkpt>
      <trkpt lat="45.60236" lon="2.76651">
        <ele>1173</ele>
        <time>2018-06-25T09:04:06.187Z</time>
      </trkpt>
      <trkpt lat="45.60279" lon="2.76674">
        <ele>1173</ele>
        <time>2018-06-25T09:04:07.187Z</time>
      </trkpt>
      <trkpt lat="45.60351" lon="2.76684">
        <ele>1179</ele>
        <time>2018-06-25T09:04:08.187Z</time>
      </trkpt>
      <trkpt lat="45.60257" lon="2.76691">
        <ele>1164</ele>
        <time>2018-06-25T09:04:09.187Z</time>
      </trkpt>
      <trkpt lat="45.60198" lon="2.76688">
        <ele>1154</ele>
        <time>2018-06-25T09:04:10.187Z</time>
      </trkpt>
      <trkpt lat="45.60169" lon="2.76671">
        <ele>1155</ele>
        <time>2018-06-25T09:04:11.187Z</time>
      </trkpt>
      <trkpt lat="45.60054" lon="2.76648">
        <ele>1135</ele>
        <time>2018-06-25T09:04:12.187Z</time>
      </trkpt>
      <trkpt lat="45.59994" lon="2.76587">
        <ele>1128</ele>
        <time>2018-06-25T09:04:13.187Z</time>
      </trkpt>
      <trkpt lat="45.59985" lon="2.76534">
        <ele>1121</ele>
        <time>2018-06-25T09:04:14.187Z</time>
      </trkpt>
      <trkpt lat="45.59989" lon="2.76413">
        <ele>1108</ele>
        <time>2018-06-25T09:04:15.187Z</time>
      </trkpt>
      <trkpt lat="45.60006" lon="2.76313">
        <ele>1095</ele>
        <time>2018-06-25T09:04:16.187Z</time>
      </trkpt>
      <trkpt lat="45.59998" lon="2.76278">
        <ele>1087</ele>
        <time>2018-06-25T09:04:17.187Z</time>
      </trkpt>
      <trkpt lat="45.60055" lon="2.76239">
        <ele>1096</ele>
        <time>2018-06-25T09:04:18.187Z</time>
      </trkpt>
      <trkpt lat="45.60064" lon="2.76219">
        <ele>1098</ele>
        <time>2018-06-25T09:04:19.187Z</time>
      </trkpt>
      <trkpt lat="45.60055" lon="2.76193">
        <ele>1093</ele>
        <time>2018-06-25T09:04:20.187Z</time>
      </trkpt>
      <trkpt lat="45.59991" lon="2.76142">
        <ele>1075</ele>
        <time>2018-06-25T09:04:21.187Z</time>
      </trkpt>
      <trkpt lat="45.59916" lon="2.76044">
        <ele>1050</ele>
        <time>2018-06-25T09:04:22.187Z</time>
      </trkpt>
      <trkpt lat="45.59876" lon="2.75743">
        <ele>1025</ele>
        <time>2018-06-25T09:04:23.187Z</time>
      </trkpt>
      <trkpt lat="45.59889" lon="2.75662">
        <ele>1025</ele>
        <time>2018-06-25T09:04:24.187Z</time>
      </trkpt>
      <trkpt lat="45.59871" lon="2.75652">
        <ele>1021</ele>
        <time>2018-06-25T09:04:25.187Z</time>
      </trkpt>
      <trkpt lat="45.59819" lon="2.75648">
        <ele>1008</ele>
        <time>2018-06-25T09:04:26.187Z</time>
      </trkpt>
      <trkpt lat="45.59799" lon="2.75632">
        <ele>1004</ele>
        <time>2018-06-25T09:04:27.187Z</time>
      </trkpt>
      <trkpt lat="45.59759" lon="2.75578">
        <ele>995</ele>
        <time>2018-06-25T09:04:28.187Z</time>
      </trkpt>
      <trkpt lat="45.59749" lon="2.75517">
        <ele>992</ele>
        <time>2018-06-25T09:04:29.187Z</time>
      </trkpt>
      <trkpt lat="45.59761" lon="2.75454">
        <ele>994</ele>
        <time>2018-06-25T09:04:30.187Z</time>
      </trkpt>
      <trkpt lat="45.59729" lon="2.75398">
        <ele>984</ele>
        <time>2018-06-25T09:04:31.187Z</time>
      </trkpt>
      <trkpt lat="45.59734" lon="2.75317">
        <ele>986</ele>
        <time>2018-06-25T09:04:32.187Z</time>
      </trkpt>
      <trkpt lat="45.59707" lon="2.75274">
        <ele>984</ele>
        <time>2018-06-25T09:04:33.187Z</time>
      </trkpt>
      <trkpt lat="45.59677" lon="2.75167">
        <ele>989</ele>
        <time>2018-06-25T09:04:34.187Z</time>
      </trkpt>
      <trkpt lat="45.59642" lon="2.74908">
        <ele>983</ele>
        <time>2018-06-25T09:04:35.187Z</time>
      </trkpt>
      <trkpt lat="45.59645" lon="2.74827">
        <ele>984</ele>
        <time>2018-06-25T09:04:36.187Z</time>
      </trkpt>
      <trkpt lat="45.59631" lon="2.74734">
        <ele>982</ele>
        <time>2018-06-25T09:04:37.187Z</time>
      </trkpt>
      <trkpt lat="45.59616" lon="2.74717">
        <ele>978</ele>
        <time>2018-06-25T09:04:38.187Z</time>
      </trkpt>
      <trkpt lat="45.59609" lon="2.74724">
        <ele>977</ele>
        <time>2018-06-25T09:04:39.187Z</time>
      </trkpt>
      <trkpt lat="45.59592" lon="2.74841">
        <ele>975</ele>
        <time>2018-06-25T09:04:40.187Z</time>
      </trkpt>
      <trkpt lat="45.5958" lon="2.74854">
        <ele>973</ele>
        <time>2018-06-25T09:04:41.187Z</time>
      </trkpt>
      <trkpt lat="45.59568" lon="2.74852">
        <ele>971</ele>
        <time>2018-06-25T09:04:42.187Z</time>
      </trkpt>
      <trkpt lat="45.59393" lon="2.7471">
        <ele>954</ele>
        <time>2018-06-25T09:04:43.187Z</time>
      </trkpt>
      <trkpt lat="45.5935" lon="2.74694">
        <ele>950</ele>
        <time>2018-06-25T09:04:44.187Z</time>
      </trkpt>
      <trkpt lat="45.59309" lon="2.74698">
        <ele>942</ele>
        <time>2018-06-25T09:04:45.187Z</time>
      </trkpt>
      <trkpt lat="45.59286" lon="2.74717">
        <ele>937</ele>
        <time>2018-06-25T09:04:46.187Z</time>
      </trkpt>
      <trkpt lat="45.59274" lon="2.74764">
        <ele>932</ele>
        <time>2018-06-25T09:04:47.187Z</time>
      </trkpt>
      <trkpt lat="45.59261" lon="2.74784">
        <ele>928</ele>
        <time>2018-06-25T09:04:48.187Z</time>
      </trkpt>
      <trkpt lat="45.59247" lon="2.74783">
        <ele>926</ele>
        <time>2018-06-25T09:04:49.187Z</time>
      </trkpt>
      <trkpt lat="45.5922" lon="2.74744">
        <ele>922</ele>
        <time>2018-06-25T09:04:50.187Z</time>
      </trkpt>
      <trkpt lat="45.59207" lon="2.74741">
        <ele>919</ele>
        <time>2018-06-25T09:04:51.187Z</time>
      </trkpt>
      <trkpt lat="45.59198" lon="2.74748">
        <ele>916</ele>
        <time>2018-06-25T09:04:52.187Z</time>
      </trkpt>
      <trkpt lat="45.59198" lon="2.7478">
        <ele>913</ele>
        <time>2018-06-25T09:04:53.187Z</time>
      </trkpt>
      <trkpt lat="45.59183" lon="2.74791">
        <ele>909</ele>
        <time>2018-06-25T09:04:54.187Z</time>
      </trkpt>
      <trkpt lat="45.59163" lon="2.74778">
        <ele>904</ele>
        <time>2018-06-25T09:04:55.187Z</time>
      </trkpt>
      <trkpt lat="45.59102" lon="2.7464">
        <ele>884</ele>
        <time>2018-06-25T09:04:56.187Z</time>
      </trkpt>
      <trkpt lat="45.5907" lon="2.74523">
        <ele>875</ele>
        <time>2018-06-25T09:04:57.187Z</time>
      </trkpt>
      <trkpt lat="45.59068" lon="2.74486">
        <ele>874</ele>
        <time>2018-06-25T09:04:58.187Z</time>
      </trkpt>
      <trkpt lat="45.59104" lon="2.74406">
        <ele>877</ele>
        <time>2018-06-25T09:04:59.187Z</time>
      </trkpt>
      <trkpt lat="45.59106" lon="2.74368">
        <ele>877</ele>
        <time>2018-06-25T09:05:00.187Z</time>
      </trkpt>
      <trkpt lat="45.59094" lon="2.74315">
        <ele>874</ele>
        <time>2018-06-25T09:05:01.187Z</time>
      </trkpt>
      <trkpt lat="45.59074" lon="2.74312">
        <ele>871</ele>
        <time>2018-06-25T09:05:02.187Z</time>
      </trkpt>
      <trkpt lat="45.59066" lon="2.74322">
        <ele>869</ele>
        <time>2018-06-25T09:05:03.187Z</time>
      </trkpt>
      <trkpt lat="45.59055" lon="2.74413">
        <ele>868</ele>
        <time>2018-06-25T09:05:04.187Z</time>
      </trkpt>
      <trkpt lat="45.59044" lon="2.74422">
        <ele>867</ele>
        <time>2018-06-25T09:05:05.187Z</time>
      </trkpt>
      <trkpt lat="45.59024" lon="2.74419">
        <ele>863</ele>
        <time>2018-06-25T09:05:06.187Z</time>
      </trkpt>
      <trkpt lat="45.59014" lon="2.74328">
        <ele>862</ele>
        <time>2018-06-25T09:05:07.187Z</time>
      </trkpt>
      <trkpt lat="45.59001" lon="2.74288">
        <ele>863</ele>
        <time>2018-06-25T09:05:08.187Z</time>
      </trkpt>
      <trkpt lat="45.58988" lon="2.74284">
        <ele>862</ele>
        <time>2018-06-25T09:05:09.187Z</time>
      </trkpt>
      <trkpt lat="45.58938" lon="2.74298">
        <ele>858</ele>
        <time>2018-06-25T09:05:10.187Z</time>
      </trkpt>
      <trkpt lat="45.58938" lon="2.74304">
        <ele>858</ele>
        <time>2018-06-25T09:05:11.187Z</time>
      </trkpt>
      <trkpt lat="45.58934" lon="2.74305">
        <ele>858</ele>
        <time>2018-06-25T09:05:12.187Z</time>
      </trkpt>
      <trkpt lat="45.58929" lon="2.74299">
        <ele>858</ele>
        <time>2018-06-25T09:05:13.187Z</time>
      </trkpt>
      <trkpt lat="45.58925" lon="2.74265">
        <ele>857</ele>
        <time>2018-06-25T09:05:14.187Z</time>
      </trkpt>
      <trkpt lat="45.58915" lon="2.74222">
        <ele>856</ele>
        <time>2018-06-25T09:05:15.187Z</time>
      </trkpt>
      <trkpt lat="45.58909" lon="2.7421">
        <ele>856</ele>
        <time>2018-06-25T09:05:16.187Z</time>
      </trkpt>
      <trkpt lat="45.58896" lon="2.74111">
        <ele>856</ele>
        <time>2018-06-25T09:05:17.187Z</time>
      </trkpt>
      <trkpt lat="45.58875" lon="2.73937">
        <ele>856</ele>
        <time>2018-06-25T09:05:18.187Z</time>
      </trkpt>
      <trkpt lat="45.58851" lon="2.73809">
        <ele>853</ele>
        <time>2018-06-25T09:05:19.187Z</time>
      </trkpt>
      <trkpt lat="45.58852" lon="2.73808">
        <ele>853</ele>
        <time>2018-06-25T09:05:20.187Z</time>
      </trkpt>
      <trkpt lat="45.58846" lon="2.73781">
        <ele>852</ele>
        <time>2018-06-25T09:05:21.187Z</time>
      </trkpt>
      <trkpt lat="45.58804" lon="2.73684">
        <ele>851</ele>
        <time>2018-06-25T09:05:22.187Z</time>
      </trkpt>
      <trkpt lat="45.58783" lon="2.73637">
        <ele>853</ele>
        <time>2018-06-25T09:05:23.187Z</time>
      </trkpt>
      <trkpt lat="45.58779" lon="2.73623">
        <ele>854</ele>
        <time>2018-06-25T09:05:24.187Z</time>
      </trkpt>
      <trkpt lat="45.58777" lon="2.73607">
        <ele>854</ele>
        <time>2018-06-25T09:05:25.187Z</time>
      </trkpt>
      <trkpt lat="45.58772" lon="2.73597">
        <ele>855</ele>
        <time>2018-06-25T09:05:26.187Z</time>
      </trkpt>
      <trkpt lat="45.58774" lon="2.73557">
        <ele>857</ele>
        <time>2018-06-25T09:05:27.187Z</time>
      </trkpt>
      <trkpt lat="45.58774" lon="2.73489">
        <ele>860</ele>
        <time>2018-06-25T09:05:28.187Z</time>
      </trkpt>
      <trkpt lat="45.58779" lon="2.73467">
        <ele>861</ele>
        <time>2018-06-25T09:05:29.187Z</time>
      </trkpt>
      <trkpt lat="45.58804" lon="2.73383">
        <ele>864</ele>
        <time>2018-06-25T09:05:30.187Z</time>
      </trkpt>
      <trkpt lat="45.58808" lon="2.73365">
        <ele>864</ele>
        <time>2018-06-25T09:05:31.187Z</time>
      </trkpt>
      <trkpt lat="45.58809" lon="2.73346">
        <ele>864</ele>
        <time>2018-06-25T09:05:32.187Z</time>
      </trkpt>
      <trkpt lat="45.58805" lon="2.73332">
        <ele>863</ele>
        <time>2018-06-25T09:05:33.187Z</time>
      </trkpt>
      <trkpt lat="45.58787" lon="2.73291">
        <ele>861</ele>
        <time>2018-06-25T09:05:34.187Z</time>
      </trkpt>
      <trkpt lat="45.5878" lon="2.73271">
        <ele>860</ele>
        <time>2018-06-25T09:05:35.187Z</time>
      </trkpt>
      <trkpt lat="45.58779" lon="2.73263">
        <ele>860</ele>
        <time>2018-06-25T09:05:36.187Z</time>
      </trkpt>
      <trkpt lat="45.58775" lon="2.73236">
        <ele>861</ele>
        <time>2018-06-25T09:05:37.187Z</time>
      </trkpt>
      <trkpt lat="45.5877" lon="2.73232">
        <ele>860</ele>
        <time>2018-06-25T09:05:38.187Z</time>
      </trkpt>
      <trkpt lat="45.58739" lon="2.73183">
        <ele>863</ele>
        <time>2018-06-25T09:05:39.187Z</time>
      </trkpt>
      <trkpt lat="45.58727" lon="2.73158">
        <ele>867</ele>
        <time>2018-06-25T09:05:40.187Z</time>
      </trkpt>
      <trkpt lat="45.5872" lon="2.73111">
        <ele>872</ele>
        <time>2018-06-25T09:05:41.187Z</time>
      </trkpt>
      <trkpt lat="45.58721" lon="2.7311">
        <ele>872</ele>
        <time>2018-06-25T09:05:42.187Z</time>
      </trkpt>
      <trkpt lat="45.5871" lon="2.73044">
        <ele>883</ele>
        <time>2018-06-25T09:05:43.187Z</time>
      </trkpt>
      <trkpt lat="45.58712" lon="2.73023">
        <ele>885</ele>
        <time>2018-06-25T09:05:44.187Z</time>
      </trkpt>
      <trkpt lat="45.58721" lon="2.72998">
        <ele>886</ele>
        <time>2018-06-25T09:05:45.187Z</time>
      </trkpt>
      <trkpt lat="45.58757" lon="2.72928">
        <ele>886</ele>
        <time>2018-06-25T09:05:46.187Z</time>
      </trkpt>
      <trkpt lat="45.58785" lon="2.72904">
        <ele>882</ele>
        <time>2018-06-25T09:05:47.187Z</time>
      </trkpt>
      <trkpt lat="45.58791" lon="2.72884">
        <ele>882</ele>
        <time>2018-06-25T09:05:48.187Z</time>
      </trkpt>
      <trkpt lat="45.58788" lon="2.72864">
        <ele>885</ele>
        <time>2018-06-25T09:05:49.187Z</time>
      </trkpt>
      <trkpt lat="45.58773" lon="2.72837">
        <ele>890</ele>
        <time>2018-06-25T09:05:50.187Z</time>
      </trkpt>
      <trkpt lat="45.58768" lon="2.72838">
        <ele>892</ele>
        <time>2018-06-25T09:05:51.187Z</time>
      </trkpt>
      <trkpt lat="45.58748" lon="2.72807">
        <ele>898</ele>
        <time>2018-06-25T09:05:52.187Z</time>
      </trkpt>
      <trkpt lat="45.58707" lon="2.7276">
        <ele>908</ele>
        <time>2018-06-25T09:05:53.187Z</time>
      </trkpt>
      <trkpt lat="45.58695" lon="2.72755">
        <ele>910</ele>
        <time>2018-06-25T09:05:54.187Z</time>
      </trkpt>
      <trkpt lat="45.58675" lon="2.72757">
        <ele>913</ele>
        <time>2018-06-25T09:05:55.187Z</time>
      </trkpt>
      <trkpt lat="45.58634" lon="2.72732">
        <ele>920</ele>
        <time>2018-06-25T09:05:56.187Z</time>
      </trkpt>
      <trkpt lat="45.58617" lon="2.72733">
        <ele>922</ele>
        <time>2018-06-25T09:05:57.187Z</time>
      </trkpt>
      <trkpt lat="45.58599" lon="2.72746">
        <ele>923</ele>
        <time>2018-06-25T09:05:58.187Z</time>
      </trkpt>
      <trkpt lat="45.58586" lon="2.7275">
        <ele>924</ele>
        <time>2018-06-25T09:05:59.187Z</time>
      </trkpt>
      <trkpt lat="45.58524" lon="2.72739">
        <ele>928</ele>
        <time>2018-06-25T09:06:00.187Z</time>
      </trkpt>
      <trkpt lat="45.58509" lon="2.72731">
        <ele>930</ele>
        <time>2018-06-25T09:06:01.187Z</time>
      </trkpt>
      <trkpt lat="45.58497" lon="2.72714">
        <ele>932</ele>
        <time>2018-06-25T09:06:02.187Z</time>
      </trkpt>
      <trkpt lat="45.5849" lon="2.72693">
        <ele>935</ele>
        <time>2018-06-25T09:06:03.187Z</time>
      </trkpt>
      <trkpt lat="45.58455" lon="2.72607">
        <ele>948</ele>
        <time>2018-06-25T09:06:04.187Z</time>
      </trkpt>
      <trkpt lat="45.58444" lon="2.72587">
        <ele>949</ele>
        <time>2018-06-25T09:06:05.187Z</time>
      </trkpt>
      <trkpt lat="45.58363" lon="2.72514">
        <ele>960</ele>
        <time>2018-06-25T09:06:06.187Z</time>
      </trkpt>
      <trkpt lat="45.58343" lon="2.72513">
        <ele>958</ele>
        <time>2018-06-25T09:06:07.187Z</time>
      </trkpt>
      <trkpt lat="45.58328" lon="2.72508">
        <ele>957</ele>
        <time>2018-06-25T09:06:08.187Z</time>
      </trkpt>
      <trkpt lat="45.58311" lon="2.72485">
        <ele>960</ele>
        <time>2018-06-25T09:06:09.187Z</time>
      </trkpt>
      <trkpt lat="45.58292" lon="2.72468">
        <ele>962</ele>
        <time>2018-06-25T09:06:10.187Z</time>
      </trkpt>
      <trkpt lat="45.58253" lon="2.72457">
        <ele>963</ele>
        <time>2018-06-25T09:06:11.187Z</time>
      </trkpt>
      <trkpt lat="45.5821" lon="2.72421">
        <ele>969</ele>
        <time>2018-06-25T09:06:12.187Z</time>
      </trkpt>
      <trkpt lat="45.58179" lon="2.72407">
        <ele>970</ele>
        <time>2018-06-25T09:06:13.187Z</time>
      </trkpt>
      <trkpt lat="45.58167" lon="2.72395">
        <ele>972</ele>
        <time>2018-06-25T09:06:14.187Z</time>
      </trkpt>
      <trkpt lat="45.58145" lon="2.72361">
        <ele>978</ele>
        <time>2018-06-25T09:06:15.187Z</time>
      </trkpt>
      <trkpt lat="45.58125" lon="2.72344">
        <ele>982</ele>
        <time>2018-06-25T09:06:16.187Z</time>
      </trkpt>
      <trkpt lat="45.58106" lon="2.72341">
        <ele>983</ele>
        <time>2018-06-25T09:06:17.187Z</time>
      </trkpt>
      <trkpt lat="45.58079" lon="2.72354">
        <ele>983</ele>
        <time>2018-06-25T09:06:18.187Z</time>
      </trkpt>
      <trkpt lat="45.58053" lon="2.72373">
        <ele>985</ele>
        <time>2018-06-25T09:06:19.187Z</time>
      </trkpt>
      <trkpt lat="45.58029" lon="2.72397">
        <ele>985</ele>
        <time>2018-06-25T09:06:20.187Z</time>
      </trkpt>
      <trkpt lat="45.58023" lon="2.72398">
        <ele>985</ele>
        <time>2018-06-25T09:06:21.187Z</time>
      </trkpt>
      <trkpt lat="45.5802" lon="2.72393">
        <ele>987</ele>
        <time>2018-06-25T09:06:22.187Z</time>
      </trkpt>
      <trkpt lat="45.58021" lon="2.72386">
        <ele>988</ele>
        <time>2018-06-25T09:06:23.187Z</time>
      </trkpt>
      <trkpt lat="45.58028" lon="2.72366">
        <ele>990</ele>
        <time>2018-06-25T09:06:24.187Z</time>
      </trkpt>
      <trkpt lat="45.58058" lon="2.72317">
        <ele>994</ele>
        <time>2018-06-25T09:06:25.187Z</time>
      </trkpt>
      <trkpt lat="45.58071" lon="2.72302">
        <ele>995</ele>
        <time>2018-06-25T09:06:26.187Z</time>
      </trkpt>
      <trkpt lat="45.5812" lon="2.72282">
        <ele>996</ele>
        <time>2018-06-25T09:06:27.187Z</time>
      </trkpt>
      <trkpt lat="45.58131" lon="2.72281">
        <ele>995</ele>
        <time>2018-06-25T09:06:28.187Z</time>
      </trkpt>
      <trkpt lat="45.58166" lon="2.72291">
        <ele>991</ele>
        <time>2018-06-25T09:06:29.187Z</time>
      </trkpt>
      <trkpt lat="45.58175" lon="2.7229">
        <ele>991</ele>
        <time>2018-06-25T09:06:30.187Z</time>
      </trkpt>
      <trkpt lat="45.58182" lon="2.72281">
        <ele>992</ele>
        <time>2018-06-25T09:06:31.187Z</time>
      </trkpt>
      <trkpt lat="45.58187" lon="2.72268">
        <ele>995</ele>
        <time>2018-06-25T09:06:32.187Z</time>
      </trkpt>
      <trkpt lat="45.58189" lon="2.72255">
        <ele>997</ele>
        <time>2018-06-25T09:06:33.187Z</time>
      </trkpt>
      <trkpt lat="45.5819" lon="2.72255">
        <ele>997</ele>
        <time>2018-06-25T09:06:34.187Z</time>
      </trkpt>
      <trkpt lat="45.58193" lon="2.72238">
        <ele>999</ele>
        <time>2018-06-25T09:06:35.187Z</time>
      </trkpt>
      <trkpt lat="45.5819" lon="2.72202">
        <ele>1004</ele>
        <time>2018-06-25T09:06:36.187Z</time>
      </trkpt>
      <trkpt lat="45.5819" lon="2.72167">
        <ele>1008</ele>
        <time>2018-06-25T09:06:37.187Z</time>
      </trkpt>
      <trkpt lat="45.58188" lon="2.72142">
        <ele>1009</ele>
        <time>2018-06-25T09:06:38.187Z</time>
      </trkpt>
      <trkpt lat="45.58184" lon="2.72123">
        <ele>1011</ele>
        <time>2018-06-25T09:06:39.187Z</time>
      </trkpt>
      <trkpt lat="45.58178" lon="2.72111">
        <ele>1012</ele>
        <time>2018-06-25T09:06:40.187Z</time>
      </trkpt>
      <trkpt lat="45.58163" lon="2.72095">
        <ele>1013</ele>
        <time>2018-06-25T09:06:41.187Z</time>
      </trkpt>
      <trkpt lat="45.58151" lon="2.72078">
        <ele>1016</ele>
        <time>2018-06-25T09:06:42.187Z</time>
      </trkpt>
      <trkpt lat="45.58144" lon="2.72074">
        <ele>1018</ele>
        <time>2018-06-25T09:06:43.187Z</time>
      </trkpt>
      <trkpt lat="45.58137" lon="2.72076">
        <ele>1019</ele>
        <time>2018-06-25T09:06:44.187Z</time>
      </trkpt>
      <trkpt lat="45.58119" lon="2.72107">
        <ele>1021</ele>
        <time>2018-06-25T09:06:45.187Z</time>
      </trkpt>
      <trkpt lat="45.58098" lon="2.72129">
        <ele>1024</ele>
        <time>2018-06-25T09:06:46.187Z</time>
      </trkpt>
      <trkpt lat="45.58085" lon="2.72147">
        <ele>1026</ele>
        <time>2018-06-25T09:06:47.187Z</time>
      </trkpt>
      <trkpt lat="45.58071" lon="2.72176">
        <ele>1026</ele>
        <time>2018-06-25T09:06:48.187Z</time>
      </trkpt>
      <trkpt lat="45.5806" lon="2.72183">
        <ele>1028</ele>
        <time>2018-06-25T09:06:49.187Z</time>
      </trkpt>
      <trkpt lat="45.58023" lon="2.7218">
        <ele>1039</ele>
        <time>2018-06-25T09:06:50.187Z</time>
      </trkpt>
      <trkpt lat="45.57993" lon="2.72201">
        <ele>1042</ele>
        <time>2018-06-25T09:06:51.187Z</time>
      </trkpt>
      <trkpt lat="45.57966" lon="2.72237">
        <ele>1041</ele>
        <time>2018-06-25T09:06:52.187Z</time>
      </trkpt>
      <trkpt lat="45.57922" lon="2.72265">
        <ele>1047</ele>
        <time>2018-06-25T09:06:53.187Z</time>
      </trkpt>
      <trkpt lat="45.5789" lon="2.72275">
        <ele>1051</ele>
        <time>2018-06-25T09:06:54.187Z</time>
      </trkpt>
      <trkpt lat="45.57865" lon="2.72278">
        <ele>1054</ele>
        <time>2018-06-25T09:06:55.187Z</time>
      </trkpt>
      <trkpt lat="45.57758" lon="2.72319">
        <ele>1066</ele>
        <time>2018-06-25T09:06:56.187Z</time>
      </trkpt>
      <trkpt lat="45.57653" lon="2.72445">
        <ele>1083</ele>
        <time>2018-06-25T09:06:57.187Z</time>
      </trkpt>
      <trkpt lat="45.57624" lon="2.72508">
        <ele>1096</ele>
        <time>2018-06-25T09:06:58.187Z</time>
      </trkpt>
      <trkpt lat="45.57642" lon="2.72548">
        <ele>1089</ele>
        <time>2018-06-25T09:06:59.187Z</time>
      </trkpt>
      <trkpt lat="45.57644" lon="2.72641">
        <ele>1096</ele>
        <time>2018-06-25T09:07:00.187Z</time>
      </trkpt>
      <trkpt lat="45.57641" lon="2.72718">
        <ele>1105</ele>
        <time>2018-06-25T09:07:01.187Z</time>
      </trkpt>
      <trkpt lat="45.57621" lon="2.72881">
        <ele>1125</ele>
        <time>2018-06-25T09:07:02.187Z</time>
      </trkpt>
      <trkpt lat="45.57629" lon="2.72952">
        <ele>1125</ele>
        <time>2018-06-25T09:07:03.187Z</time>
      </trkpt>
      <trkpt lat="45.57623" lon="2.73027">
        <ele>1139</ele>
        <time>2018-06-25T09:07:04.187Z</time>
      </trkpt>
      <trkpt lat="45.57645" lon="2.73074">
        <ele>1136</ele>
        <time>2018-06-25T09:07:05.187Z</time>
      </trkpt>
      <trkpt lat="45.57699" lon="2.73166">
        <ele>1138</ele>
        <time>2018-06-25T09:07:06.187Z</time>
      </trkpt>
      <trkpt lat="45.57726" lon="2.73265">
        <ele>1150</ele>
        <time>2018-06-25T09:07:07.187Z</time>
      </trkpt>
      <trkpt lat="45.57755" lon="2.73332">
        <ele>1154</ele>
        <time>2018-06-25T09:07:08.187Z</time>
      </trkpt>
      <trkpt lat="45.57752" lon="2.73337">
        <ele>1155</ele>
        <time>2018-06-25T09:07:09.187Z</time>
      </trkpt>
      <trkpt lat="45.57722" lon="2.73306">
        <ele>1157</ele>
        <time>2018-06-25T09:07:10.187Z</time>
      </trkpt>
      <trkpt lat="45.57684" lon="2.73264">
        <ele>1160</ele>
        <time>2018-06-25T09:07:11.187Z</time>
      </trkpt>
      <trkpt lat="45.57671" lon="2.73238">
        <ele>1160</ele>
        <time>2018-06-25T09:07:12.187Z</time>
      </trkpt>
      <trkpt lat="45.57662" lon="2.73225">
        <ele>1161</ele>
        <time>2018-06-25T09:07:13.187Z</time>
      </trkpt>
      <trkpt lat="45.57663" lon="2.73225">
        <ele>1161</ele>
        <time>2018-06-25T09:07:14.187Z</time>
      </trkpt>
      <trkpt lat="45.57652" lon="2.73208">
        <ele>1162</ele>
        <time>2018-06-25T09:07:15.187Z</time>
      </trkpt>
      <trkpt lat="45.57623" lon="2.73173">
        <ele>1168</ele>
        <time>2018-06-25T09:07:16.187Z</time>
      </trkpt>
      <trkpt lat="45.5759" lon="2.73122">
        <ele>1172</ele>
        <time>2018-06-25T09:07:17.187Z</time>
      </trkpt>
      <trkpt lat="45.57568" lon="2.73096">
        <ele>1176</ele>
        <time>2018-06-25T09:07:18.187Z</time>
      </trkpt>
      <trkpt lat="45.57563" lon="2.7308">
        <ele>1176</ele>
        <time>2018-06-25T09:07:19.187Z</time>
      </trkpt>
      <trkpt lat="45.57555" lon="2.73022">
        <ele>1173</ele>
        <time>2018-06-25T09:07:20.187Z</time>
      </trkpt>
      <trkpt lat="45.57551" lon="2.72905">
        <ele>1170</ele>
        <time>2018-06-25T09:07:21.187Z</time>
      </trkpt>
      <trkpt lat="45.57532" lon="2.72864">
        <ele>1173</ele>
        <time>2018-06-25T09:07:22.187Z</time>
      </trkpt>
      <trkpt lat="45.57512" lon="2.72835">
        <ele>1177</ele>
        <time>2018-06-25T09:07:23.187Z</time>
      </trkpt>
      <trkpt lat="45.57496" lon="2.7282">
        <ele>1180</ele>
        <time>2018-06-25T09:07:24.187Z</time>
      </trkpt>
      <trkpt lat="45.5748" lon="2.7281">
        <ele>1181</ele>
        <time>2018-06-25T09:07:25.187Z</time>
      </trkpt>
      <trkpt lat="45.57465" lon="2.72806">
        <ele>1183</ele>
        <time>2018-06-25T09:07:26.187Z</time>
      </trkpt>
      <trkpt lat="45.57464" lon="2.72795">
        <ele>1182</ele>
        <time>2018-06-25T09:07:27.187Z</time>
      </trkpt>
      <trkpt lat="45.57443" lon="2.728">
        <ele>1185</ele>
        <time>2018-06-25T09:07:28.187Z</time>
      </trkpt>
      <trkpt lat="45.57434" lon="2.72792">
        <ele>1186</ele>
        <time>2018-06-25T09:07:29.187Z</time>
      </trkpt>
      <trkpt lat="45.57427" lon="2.72761">
        <ele>1185</ele>
        <time>2018-06-25T09:07:30.187Z</time>
      </trkpt>
      <trkpt lat="45.57422" lon="2.72745">
        <ele>1185</ele>
        <time>2018-06-25T09:07:31.187Z</time>
      </trkpt>
      <trkpt lat="45.57414" lon="2.72733">
        <ele>1185</ele>
        <time>2018-06-25T09:07:32.187Z</time>
      </trkpt>
      <trkpt lat="45.57403" lon="2.72726">
        <ele>1186</ele>
        <time>2018-06-25T09:07:33.187Z</time>
      </trkpt>
      <trkpt lat="45.57391" lon="2.72724">
        <ele>1186</ele>
        <time>2018-06-25T09:07:34.187Z</time>
      </trkpt>
      <trkpt lat="45.57378" lon="2.72727">
        <ele>1187</ele>
        <time>2018-06-25T09:07:35.187Z</time>
      </trkpt>
      <trkpt lat="45.57295" lon="2.72784">
        <ele>1197</ele>
        <time>2018-06-25T09:07:36.187Z</time>
      </trkpt>
      <trkpt lat="45.57284" lon="2.72785">
        <ele>1197</ele>
        <time>2018-06-25T09:07:37.187Z</time>
      </trkpt>
      <trkpt lat="45.57264" lon="2.72774">
        <ele>1197</ele>
        <time>2018-06-25T09:07:38.187Z</time>
      </trkpt>
      <trkpt lat="45.57247" lon="2.72771">
        <ele>1197</ele>
        <time>2018-06-25T09:07:39.187Z</time>
      </trkpt>
      <trkpt lat="45.57227" lon="2.72777">
        <ele>1199</ele>
        <time>2018-06-25T09:07:40.187Z</time>
      </trkpt>
      <trkpt lat="45.57199" lon="2.72794">
        <ele>1202</ele>
        <time>2018-06-25T09:07:41.187Z</time>
      </trkpt>
      <trkpt lat="45.57165" lon="2.72799">
        <ele>1204</ele>
        <time>2018-06-25T09:07:42.187Z</time>
      </trkpt>
      <trkpt lat="45.57142" lon="2.72798">
        <ele>1203</ele>
        <time>2018-06-25T09:07:43.187Z</time>
      </trkpt>
      <trkpt lat="45.57055" lon="2.72811">
        <ele>1201</ele>
        <time>2018-06-25T09:07:44.187Z</time>
      </trkpt>
      <trkpt lat="45.57033" lon="2.7283">
        <ele>1203</ele>
        <time>2018-06-25T09:07:45.187Z</time>
      </trkpt>
      <trkpt lat="45.56974" lon="2.72872">
        <ele>1208</ele>
        <time>2018-06-25T09:07:46.187Z</time>
      </trkpt>
      <trkpt lat="45.56964" lon="2.72868">
        <ele>1208</ele>
        <time>2018-06-25T09:07:47.187Z</time>
      </trkpt>
      <trkpt lat="45.56959" lon="2.72856">
        <ele>1207</ele>
        <time>2018-06-25T09:07:48.187Z</time>
      </trkpt>
      <trkpt lat="45.56948" lon="2.72825">
        <ele>1204</ele>
        <time>2018-06-25T09:07:49.187Z</time>
      </trkpt>
      <trkpt lat="45.56936" lon="2.72806">
        <ele>1202</ele>
        <time>2018-06-25T09:07:50.187Z</time>
      </trkpt>
      <trkpt lat="45.56937" lon="2.72806">
        <ele>1202</ele>
        <time>2018-06-25T09:07:51.187Z</time>
      </trkpt>
      <trkpt lat="45.5692" lon="2.72785">
        <ele>1199</ele>
        <time>2018-06-25T09:07:52.187Z</time>
      </trkpt>
      <trkpt lat="45.5691" lon="2.72777">
        <ele>1199</ele>
        <time>2018-06-25T09:07:53.187Z</time>
      </trkpt>
      <trkpt lat="45.56781" lon="2.72726">
        <ele>1201</ele>
        <time>2018-06-25T09:07:54.187Z</time>
      </trkpt>
      <trkpt lat="45.56738" lon="2.72722">
        <ele>1202</ele>
        <time>2018-06-25T09:07:55.187Z</time>
      </trkpt>
      <trkpt lat="45.56689" lon="2.72695">
        <ele>1198</ele>
        <time>2018-06-25T09:07:56.187Z</time>
      </trkpt>
      <trkpt lat="45.56673" lon="2.72696">
        <ele>1198</ele>
        <time>2018-06-25T09:07:57.187Z</time>
      </trkpt>
      <trkpt lat="45.5666" lon="2.72702">
        <ele>1198</ele>
        <time>2018-06-25T09:07:58.187Z</time>
      </trkpt>
      <trkpt lat="45.56638" lon="2.72723">
        <ele>1197</ele>
        <time>2018-06-25T09:07:59.187Z</time>
      </trkpt>
      <trkpt lat="45.56617" lon="2.72749">
        <ele>1197</ele>
        <time>2018-06-25T09:08:00.187Z</time>
      </trkpt>
      <trkpt lat="45.56595" lon="2.72774">
        <ele>1196</ele>
        <time>2018-06-25T09:08:01.187Z</time>
      </trkpt>
      <trkpt lat="45.56582" lon="2.72784">
        <ele>1195</ele>
        <time>2018-06-25T09:08:02.187Z</time>
      </trkpt>
      <trkpt lat="45.5655" lon="2.72789">
        <ele>1194</ele>
        <time>2018-06-25T09:08:03.187Z</time>
      </trkpt>
      <trkpt lat="45.56528" lon="2.72798">
        <ele>1194</ele>
        <time>2018-06-25T09:08:04.187Z</time>
      </trkpt>
      <trkpt lat="45.56514" lon="2.728">
        <ele>1194</ele>
        <time>2018-06-25T09:08:05.187Z</time>
      </trkpt>
      <trkpt lat="45.56498" lon="2.728">
        <ele>1194</ele>
        <time>2018-06-25T09:08:06.187Z</time>
      </trkpt>
      <trkpt lat="45.56474" lon="2.72797">
        <ele>1193</ele>
        <time>2018-06-25T09:08:07.187Z</time>
      </trkpt>
      <trkpt lat="45.56452" lon="2.7279">
        <ele>1191</ele>
        <time>2018-06-25T09:08:08.187Z</time>
      </trkpt>
      <trkpt lat="45.5645" lon="2.72774">
        <ele>1191</ele>
        <time>2018-06-25T09:08:09.187Z</time>
      </trkpt>
      <trkpt lat="45.56444" lon="2.72752">
        <ele>1189</ele>
        <time>2018-06-25T09:08:10.187Z</time>
      </trkpt>
      <trkpt lat="45.56405" lon="2.72718">
        <ele>1188</ele>
        <time>2018-06-25T09:08:11.187Z</time>
      </trkpt>
      <trkpt lat="45.56338" lon="2.72716">
        <ele>1195</ele>
        <time>2018-06-25T09:08:12.187Z</time>
      </trkpt>
      <trkpt lat="45.56318" lon="2.72712">
        <ele>1197</ele>
        <time>2018-06-25T09:08:13.187Z</time>
      </trkpt>
      <trkpt lat="45.56313" lon="2.72701">
        <ele>1197</ele>
        <time>2018-06-25T09:08:14.187Z</time>
      </trkpt>
      <trkpt lat="45.56307" lon="2.72599">
        <ele>1192</ele>
        <time>2018-06-25T09:08:15.187Z</time>
      </trkpt>
      <trkpt lat="45.56298" lon="2.72579">
        <ele>1193</ele>
        <time>2018-06-25T09:08:16.187Z</time>
      </trkpt>
      <trkpt lat="45.56269" lon="2.7255">
        <ele>1196</ele>
        <time>2018-06-25T09:08:17.187Z</time>
      </trkpt>
      <trkpt lat="45.56251" lon="2.72522">
        <ele>1196</ele>
        <time>2018-06-25T09:08:18.187Z</time>
      </trkpt>
      <trkpt lat="45.56235" lon="2.72484">
        <ele>1196</ele>
        <time>2018-06-25T09:08:19.187Z</time>
      </trkpt>
      <trkpt lat="45.5623" lon="2.72477">
        <ele>1196</ele>
        <time>2018-06-25T09:08:20.187Z</time>
      </trkpt>
      <trkpt lat="45.56218" lon="2.72482">
        <ele>1199</ele>
        <time>2018-06-25T09:08:21.187Z</time>
      </trkpt>
      <trkpt lat="45.56205" lon="2.72503">
        <ele>1203</ele>
        <time>2018-06-25T09:08:22.187Z</time>
      </trkpt>
      <trkpt lat="45.56202" lon="2.72508">
        <ele>1204</ele>
        <time>2018-06-25T09:08:23.187Z</time>
      </trkpt>
      <trkpt lat="45.56185" lon="2.72455">
        <ele>1202</ele>
        <time>2018-06-25T09:08:24.187Z</time>
      </trkpt>
      <trkpt lat="45.56176" lon="2.72451">
        <ele>1203</ele>
        <time>2018-06-25T09:08:25.187Z</time>
      </trkpt>
      <trkpt lat="45.56131" lon="2.72448">
        <ele>1210</ele>
        <time>2018-06-25T09:08:26.187Z</time>
      </trkpt>
      <trkpt lat="45.56114" lon="2.7244">
        <ele>1212</ele>
        <time>2018-06-25T09:08:27.187Z</time>
      </trkpt>
      <trkpt lat="45.56087" lon="2.72417">
        <ele>1213</ele>
        <time>2018-06-25T09:08:28.187Z</time>
      </trkpt>
      <trkpt lat="45.56068" lon="2.72395">
        <ele>1214</ele>
        <time>2018-06-25T09:08:29.187Z</time>
      </trkpt>
      <trkpt lat="45.56048" lon="2.72381">
        <ele>1214</ele>
        <time>2018-06-25T09:08:30.187Z</time>
      </trkpt>
      <trkpt lat="45.5603" lon="2.72374">
        <ele>1216</ele>
        <time>2018-06-25T09:08:31.187Z</time>
      </trkpt>
      <trkpt lat="45.56007" lon="2.72382">
        <ele>1220</ele>
        <time>2018-06-25T09:08:32.187Z</time>
      </trkpt>
      <trkpt lat="45.55976" lon="2.72403">
        <ele>1226</ele>
        <time>2018-06-25T09:08:33.187Z</time>
      </trkpt>
      <trkpt lat="45.55949" lon="2.72431">
        <ele>1230</ele>
        <time>2018-06-25T09:08:34.187Z</time>
      </trkpt>
      <trkpt lat="45.55923" lon="2.72466">
        <ele>1233</ele>
        <time>2018-06-25T09:08:35.187Z</time>
      </trkpt>
      <trkpt lat="45.55869" lon="2.72493">
        <ele>1235</ele>
        <time>2018-06-25T09:08:36.187Z</time>
      </trkpt>
      <trkpt lat="45.55842" lon="2.72523">
        <ele>1236</ele>
        <time>2018-06-25T09:08:37.187Z</time>
      </trkpt>
      <trkpt lat="45.5582" lon="2.72531">
        <ele>1236</ele>
        <time>2018-06-25T09:08:38.187Z</time>
      </trkpt>
      <trkpt lat="45.55808" lon="2.72527">
        <ele>1236</ele>
        <time>2018-06-25T09:08:39.187Z</time>
      </trkpt>
      <trkpt lat="45.5571" lon="2.72569">
        <ele>1238</ele>
        <time>2018-06-25T09:08:40.187Z</time>
      </trkpt>
      <trkpt lat="45.557" lon="2.72569">
        <ele>1238</ele>
        <time>2018-06-25T09:08:41.187Z</time>
      </trkpt>
      <trkpt lat="45.55737" lon="2.72435">
        <ele>1233</ele>
        <time>2018-06-25T09:08:42.187Z</time>
      </trkpt>
      <trkpt lat="45.55742" lon="2.72399">
        <ele>1231</ele>
        <time>2018-06-25T09:08:43.187Z</time>
      </trkpt>
      <trkpt lat="45.55741" lon="2.72372">
        <ele>1230</ele>
        <time>2018-06-25T09:08:44.187Z</time>
      </trkpt>
      <trkpt lat="45.55732" lon="2.72331">
        <ele>1228</ele>
        <time>2018-06-25T09:08:45.187Z</time>
      </trkpt>
      <trkpt lat="45.55663" lon="2.72157">
        <ele>1220</ele>
        <time>2018-06-25T09:08:46.187Z</time>
      </trkpt>
      <trkpt lat="45.55648" lon="2.72135">
        <ele>1219</ele>
        <time>2018-06-25T09:08:47.187Z</time>
      </trkpt>
      <trkpt lat="45.55589" lon="2.72088">
        <ele>1217</ele>
        <time>2018-06-25T09:08:48.187Z</time>
      </trkpt>
      <trkpt lat="45.55565" lon="2.72065">
        <ele>1214</ele>
        <time>2018-06-25T09:08:49.187Z</time>
      </trkpt>
      <trkpt lat="45.55551" lon="2.72066">
        <ele>1213</ele>
        <time>2018-06-25T09:08:50.187Z</time>
      </trkpt>
      <trkpt lat="45.55529" lon="2.72079">
        <ele>1213</ele>
        <time>2018-06-25T09:08:51.187Z</time>
      </trkpt>
      <trkpt lat="45.55502" lon="2.72099">
        <ele>1212</ele>
        <time>2018-06-25T09:08:52.187Z</time>
      </trkpt>
      <trkpt lat="45.55465" lon="2.72133">
        <ele>1213</ele>
        <time>2018-06-25T09:08:53.187Z</time>
      </trkpt>
      <trkpt lat="45.55472" lon="2.72093">
        <ele>1211</ele>
        <time>2018-06-25T09:08:54.187Z</time>
      </trkpt>
      <trkpt lat="45.55473" lon="2.72069">
        <ele>1209</ele>
        <time>2018-06-25T09:08:55.187Z</time>
      </trkpt>
      <trkpt lat="45.55481" lon="2.72025">
        <ele>1207</ele>
        <time>2018-06-25T09:08:56.187Z</time>
      </trkpt>
      <trkpt lat="45.55489" lon="2.72002">
        <ele>1206</ele>
        <time>2018-06-25T09:08:57.187Z</time>
      </trkpt>
      <trkpt lat="45.555" lon="2.71977">
        <ele>1205</ele>
        <time>2018-06-25T09:08:58.187Z</time>
      </trkpt>
      <trkpt lat="45.55501" lon="2.71956">
        <ele>1203</ele>
        <time>2018-06-25T09:08:59.187Z</time>
      </trkpt>
      <trkpt lat="45.55521" lon="2.71909">
        <ele>1200</ele>
        <time>2018-06-25T09:09:00.187Z</time>
      </trkpt>
      <trkpt lat="45.55522" lon="2.7189">
        <ele>1199</ele>
        <time>2018-06-25T09:09:01.187Z</time>
      </trkpt>
      <trkpt lat="45.55462" lon="2.71751">
        <ele>1192</ele>
        <time>2018-06-25T09:09:02.187Z</time>
      </trkpt>
      <trkpt lat="45.55357" lon="2.71764">
        <ele>1191</ele>
        <time>2018-06-25T09:09:03.187Z</time>
      </trkpt>
      <trkpt lat="45.55244" lon="2.71766">
        <ele>1186</ele>
        <time>2018-06-25T09:09:04.187Z</time>
      </trkpt>
      <trkpt lat="45.55059" lon="2.71754">
        <ele>1183</ele>
        <time>2018-06-25T09:09:05.187Z</time>
      </trkpt>
      <trkpt lat="45.54983" lon="2.71614">
        <ele>1177</ele>
        <time>2018-06-25T09:09:06.187Z</time>
      </trkpt>
      <trkpt lat="45.54996" lon="2.71576">
        <ele>1175</ele>
        <time>2018-06-25T09:09:07.187Z</time>
      </trkpt>
      <trkpt lat="45.55008" lon="2.71543">
        <ele>1173</ele>
        <time>2018-06-25T09:09:08.187Z</time>
      </trkpt>
      <trkpt lat="45.55009" lon="2.71513">
        <ele>1172</ele>
        <time>2018-06-25T09:09:09.187Z</time>
      </trkpt>
      <trkpt lat="45.55005" lon="2.71439">
        <ele>1169</ele>
        <time>2018-06-25T09:09:10.187Z</time>
      </trkpt>
      <trkpt lat="45.54996" lon="2.71398">
        <ele>1168</ele>
        <time>2018-06-25T09:09:11.187Z</time>
      </trkpt>
      <trkpt lat="45.54963" lon="2.71283">
        <ele>1163</ele>
        <time>2018-06-25T09:09:12.187Z</time>
      </trkpt>
      <trkpt lat="45.54952" lon="2.71252">
        <ele>1161</ele>
        <time>2018-06-25T09:09:13.187Z</time>
      </trkpt>
      <trkpt lat="45.54942" lon="2.71227">
        <ele>1160</ele>
        <time>2018-06-25T09:09:14.187Z</time>
      </trkpt>
      <trkpt lat="45.54936" lon="2.71186">
        <ele>1158</ele>
        <time>2018-06-25T09:09:15.187Z</time>
      </trkpt>
      <trkpt lat="45.54918" lon="2.71118">
        <ele>1154</ele>
        <time>2018-06-25T09:09:16.187Z</time>
      </trkpt>
      <trkpt lat="45.54914" lon="2.71092">
        <ele>1153</ele>
        <time>2018-06-25T09:09:17.187Z</time>
      </trkpt>
      <trkpt lat="45.54913" lon="2.71073">
        <ele>1152</ele>
        <time>2018-06-25T09:09:18.187Z</time>
      </trkpt>
      <trkpt lat="45.54908" lon="2.71051">
        <ele>1151</ele>
        <time>2018-06-25T09:09:19.187Z</time>
      </trkpt>
      <trkpt lat="45.54902" lon="2.70985">
        <ele>1147</ele>
        <time>2018-06-25T09:09:20.187Z</time>
      </trkpt>
      <trkpt lat="45.54895" lon="2.70953">
        <ele>1144</ele>
        <time>2018-06-25T09:09:21.187Z</time>
      </trkpt>
      <trkpt lat="45.5487" lon="2.70871">
        <ele>1133</ele>
        <time>2018-06-25T09:09:22.187Z</time>
      </trkpt>
      <trkpt lat="45.5484" lon="2.70808">
        <ele>1121</ele>
        <time>2018-06-25T09:09:23.187Z</time>
      </trkpt>
      <trkpt lat="45.54829" lon="2.70804">
        <ele>1120</ele>
        <time>2018-06-25T09:09:24.187Z</time>
      </trkpt>
      <trkpt lat="45.54811" lon="2.70804">
        <ele>1118</ele>
        <time>2018-06-25T09:09:25.187Z</time>
      </trkpt>
      <trkpt lat="45.54758" lon="2.70788">
        <ele>1111</ele>
        <time>2018-06-25T09:09:26.187Z</time>
      </trkpt>
      <trkpt lat="45.54743" lon="2.70794">
        <ele>1110</ele>
        <time>2018-06-25T09:09:27.187Z</time>
      </trkpt>
      <trkpt lat="45.54724" lon="2.70807">
        <ele>1109</ele>
        <time>2018-06-25T09:09:28.187Z</time>
      </trkpt>
      <trkpt lat="45.5471" lon="2.70822">
        <ele>1109</ele>
        <time>2018-06-25T09:09:29.187Z</time>
      </trkpt>
      <trkpt lat="45.54701" lon="2.7083">
        <ele>1108</ele>
        <time>2018-06-25T09:09:30.187Z</time>
      </trkpt>
      <trkpt lat="45.54691" lon="2.70828">
        <ele>1107</ele>
        <time>2018-06-25T09:09:31.187Z</time>
      </trkpt>
      <trkpt lat="45.54671" lon="2.7082">
        <ele>1103</ele>
        <time>2018-06-25T09:09:32.187Z</time>
      </trkpt>
      <trkpt lat="45.54653" lon="2.70798">
        <ele>1099</ele>
        <time>2018-06-25T09:09:33.187Z</time>
      </trkpt>
      <trkpt lat="45.54647" lon="2.70773">
        <ele>1097</ele>
        <time>2018-06-25T09:09:34.187Z</time>
      </trkpt>
      <trkpt lat="45.54649" lon="2.70739">
        <ele>1094</ele>
        <time>2018-06-25T09:09:35.187Z</time>
      </trkpt>
      <trkpt lat="45.54654" lon="2.70706">
        <ele>1091</ele>
        <time>2018-06-25T09:09:36.187Z</time>
      </trkpt>
      <trkpt lat="45.54658" lon="2.70656">
        <ele>1087</ele>
        <time>2018-06-25T09:09:37.187Z</time>
      </trkpt>
      <trkpt lat="45.54654" lon="2.70643">
        <ele>1086</ele>
        <time>2018-06-25T09:09:38.187Z</time>
      </trkpt>
      <trkpt lat="45.54656" lon="2.7063">
        <ele>1085</ele>
        <time>2018-06-25T09:09:39.187Z</time>
      </trkpt>
      <trkpt lat="45.54654" lon="2.70601">
        <ele>1082</ele>
        <time>2018-06-25T09:09:40.187Z</time>
      </trkpt>
      <trkpt lat="45.54655" lon="2.70578">
        <ele>1080</ele>
        <time>2018-06-25T09:09:41.187Z</time>
      </trkpt>
      <trkpt lat="45.54683" lon="2.70524">
        <ele>1076</ele>
        <time>2018-06-25T09:09:42.187Z</time>
      </trkpt>
      <trkpt lat="45.54686" lon="2.70499">
        <ele>1075</ele>
        <time>2018-06-25T09:09:43.187Z</time>
      </trkpt>
      <trkpt lat="45.5468" lon="2.70416">
        <ele>1070</ele>
        <time>2018-06-25T09:09:44.187Z</time>
      </trkpt>
      <trkpt lat="45.54675" lon="2.70266">
        <ele>1066</ele>
        <time>2018-06-25T09:09:45.187Z</time>
      </trkpt>
      <trkpt lat="45.54675" lon="2.70221">
        <ele>1065</ele>
        <time>2018-06-25T09:09:46.187Z</time>
      </trkpt>
      <trkpt lat="45.54622" lon="2.70257">
        <ele>1062</ele>
        <time>2018-06-25T09:09:47.187Z</time>
      </trkpt>
      <trkpt lat="45.54593" lon="2.70274">
        <ele>1060</ele>
        <time>2018-06-25T09:09:48.187Z</time>
      </trkpt>
      <trkpt lat="45.54567" lon="2.70277">
        <ele>1062</ele>
        <time>2018-06-25T09:09:49.187Z</time>
      </trkpt>
      <trkpt lat="45.54542" lon="2.70265">
        <ele>1063</ele>
        <time>2018-06-25T09:09:50.187Z</time>
      </trkpt>
      <trkpt lat="45.54517" lon="2.70238">
        <ele>1063</ele>
        <time>2018-06-25T09:09:51.187Z</time>
      </trkpt>
      <trkpt lat="45.54458" lon="2.7015">
        <ele>1062</ele>
        <time>2018-06-25T09:09:52.187Z</time>
      </trkpt>
      <trkpt lat="45.54422" lon="2.70103">
        <ele>1063</ele>
        <time>2018-06-25T09:09:53.187Z</time>
      </trkpt>
      <trkpt lat="45.54384" lon="2.70067">
        <ele>1061</ele>
        <time>2018-06-25T09:09:54.187Z</time>
      </trkpt>
      <trkpt lat="45.54337" lon="2.70034">
        <ele>1059</ele>
        <time>2018-06-25T09:09:55.187Z</time>
      </trkpt>
      <trkpt lat="45.54312" lon="2.70009">
        <ele>1059</ele>
        <time>2018-06-25T09:09:56.187Z</time>
      </trkpt>
      <trkpt lat="45.54179" lon="2.69832">
        <ele>1048</ele>
        <time>2018-06-25T09:09:57.187Z</time>
      </trkpt>
      <trkpt lat="45.54146" lon="2.69801">
        <ele>1046</ele>
        <time>2018-06-25T09:09:58.187Z</time>
      </trkpt>
      <trkpt lat="45.54053" lon="2.69728">
        <ele>1037</ele>
        <time>2018-06-25T09:09:59.187Z</time>
      </trkpt>
      <trkpt lat="45.54025" lon="2.69712">
        <ele>1035</ele>
        <time>2018-06-25T09:10:00.187Z</time>
      </trkpt>
      <trkpt lat="45.53991" lon="2.69699">
        <ele>1033</ele>
        <time>2018-06-25T09:10:01.187Z</time>
      </trkpt>
      <trkpt lat="45.53963" lon="2.69694">
        <ele>1032</ele>
        <time>2018-06-25T09:10:02.187Z</time>
      </trkpt>
      <trkpt lat="45.53902" lon="2.69689">
        <ele>1029</ele>
        <time>2018-06-25T09:10:03.187Z</time>
      </trkpt>
      <trkpt lat="45.53876" lon="2.69695">
        <ele>1027</ele>
        <time>2018-06-25T09:10:04.187Z</time>
      </trkpt>
      <trkpt lat="45.53856" lon="2.69709">
        <ele>1026</ele>
        <time>2018-06-25T09:10:05.187Z</time>
      </trkpt>
      <trkpt lat="45.53836" lon="2.69734">
        <ele>1025</ele>
        <time>2018-06-25T09:10:06.187Z</time>
      </trkpt>
      <trkpt lat="45.53795" lon="2.69806">
        <ele>1024</ele>
        <time>2018-06-25T09:10:07.187Z</time>
      </trkpt>
      <trkpt lat="45.53781" lon="2.69825">
        <ele>1023</ele>
        <time>2018-06-25T09:10:08.187Z</time>
      </trkpt>
      <trkpt lat="45.53764" lon="2.69841">
        <ele>1023</ele>
        <time>2018-06-25T09:10:09.187Z</time>
      </trkpt>
      <trkpt lat="45.53679" lon="2.69891">
        <ele>1016</ele>
        <time>2018-06-25T09:10:10.187Z</time>
      </trkpt>
      <trkpt lat="45.53652" lon="2.69869">
        <ele>1013</ele>
        <time>2018-06-25T09:10:11.187Z</time>
      </trkpt>
      <trkpt lat="45.53573" lon="2.69828">
        <ele>1008</ele>
        <time>2018-06-25T09:10:12.187Z</time>
      </trkpt>
      <trkpt lat="45.53561" lon="2.69811">
        <ele>1007</ele>
        <time>2018-06-25T09:10:13.187Z</time>
      </trkpt>
      <trkpt lat="45.53552" lon="2.69789">
        <ele>1005</ele>
        <time>2018-06-25T09:10:14.187Z</time>
      </trkpt>
      <trkpt lat="45.53547" lon="2.69762">
        <ele>1004</ele>
        <time>2018-06-25T09:10:15.187Z</time>
      </trkpt>
      <trkpt lat="45.53533" lon="2.69653">
        <ele>1001</ele>
        <time>2018-06-25T09:10:16.187Z</time>
      </trkpt>
      <trkpt lat="45.53527" lon="2.69612">
        <ele>999</ele>
        <time>2018-06-25T09:10:17.187Z</time>
      </trkpt>
      <trkpt lat="45.53493" lon="2.69472">
        <ele>994</ele>
        <time>2018-06-25T09:10:18.187Z</time>
      </trkpt>
      <trkpt lat="45.53461" lon="2.69346">
        <ele>987</ele>
        <time>2018-06-25T09:10:19.187Z</time>
      </trkpt>
      <trkpt lat="45.53442" lon="2.69295">
        <ele>986</ele>
        <time>2018-06-25T09:10:20.187Z</time>
      </trkpt>
      <trkpt lat="45.53375" lon="2.69153">
        <ele>986</ele>
        <time>2018-06-25T09:10:21.187Z</time>
      </trkpt>
      <trkpt lat="45.53367" lon="2.6914">
        <ele>986</ele>
        <time>2018-06-25T09:10:22.187Z</time>
      </trkpt>
      <trkpt lat="45.53357" lon="2.69131">
        <ele>986</ele>
        <time>2018-06-25T09:10:23.187Z</time>
      </trkpt>
      <trkpt lat="45.53337" lon="2.69118">
        <ele>987</ele>
        <time>2018-06-25T09:10:24.187Z</time>
      </trkpt>
      <trkpt lat="45.53329" lon="2.69108">
        <ele>986</ele>
        <time>2018-06-25T09:10:25.187Z</time>
      </trkpt>
      <trkpt lat="45.53319" lon="2.69098">
        <ele>985</ele>
        <time>2018-06-25T09:10:26.187Z</time>
      </trkpt>
      <trkpt lat="45.53301" lon="2.69088">
        <ele>984</ele>
        <time>2018-06-25T09:10:27.187Z</time>
      </trkpt>
      <trkpt lat="45.53284" lon="2.69069">
        <ele>983</ele>
        <time>2018-06-25T09:10:28.187Z</time>
      </trkpt>
      <trkpt lat="45.5328" lon="2.69062">
        <ele>983</ele>
        <time>2018-06-25T09:10:29.187Z</time>
      </trkpt>
      <trkpt lat="45.53276" lon="2.6905">
        <ele>982</ele>
        <time>2018-06-25T09:10:30.187Z</time>
      </trkpt>
      <trkpt lat="45.53272" lon="2.68986">
        <ele>977</ele>
        <time>2018-06-25T09:10:31.187Z</time>
      </trkpt>
      <trkpt lat="45.53271" lon="2.68946">
        <ele>974</ele>
        <time>2018-06-25T09:10:32.187Z</time>
      </trkpt>
      <trkpt lat="45.53271" lon="2.68934">
        <ele>972</ele>
        <time>2018-06-25T09:10:33.187Z</time>
      </trkpt>
      <trkpt lat="45.53267" lon="2.68917">
        <ele>971</ele>
        <time>2018-06-25T09:10:34.187Z</time>
      </trkpt>
      <trkpt lat="45.53263" lon="2.68907">
        <ele>970</ele>
        <time>2018-06-25T09:10:35.187Z</time>
      </trkpt>
      <trkpt lat="45.53255" lon="2.68896">
        <ele>969</ele>
        <time>2018-06-25T09:10:36.187Z</time>
      </trkpt>
      <trkpt lat="45.53238" lon="2.68887">
        <ele>965</ele>
        <time>2018-06-25T09:10:37.187Z</time>
      </trkpt>
      <trkpt lat="45.53229" lon="2.68887">
        <ele>963</ele>
        <time>2018-06-25T09:10:38.187Z</time>
      </trkpt>
      <trkpt lat="45.53219" lon="2.68891">
        <ele>961</ele>
        <time>2018-06-25T09:10:39.187Z</time>
      </trkpt>
      <trkpt lat="45.53212" lon="2.68899">
        <ele>960</ele>
        <time>2018-06-25T09:10:40.187Z</time>
      </trkpt>
      <trkpt lat="45.53204" lon="2.68926">
        <ele>962</ele>
        <time>2018-06-25T09:10:41.187Z</time>
      </trkpt>
      <trkpt lat="45.53197" lon="2.68958">
        <ele>963</ele>
        <time>2018-06-25T09:10:42.187Z</time>
      </trkpt>
      <trkpt lat="45.53193" lon="2.69005">
        <ele>965</ele>
        <time>2018-06-25T09:10:43.187Z</time>
      </trkpt>
      <trkpt lat="45.53191" lon="2.6915">
        <ele>962</ele>
        <time>2018-06-25T09:10:44.187Z</time>
      </trkpt>
      <trkpt lat="45.53196" lon="2.69229">
        <ele>961</ele>
        <time>2018-06-25T09:10:45.187Z</time>
      </trkpt>
      <trkpt lat="45.53206" lon="2.693">
        <ele>960</ele>
        <time>2018-06-25T09:10:46.187Z</time>
      </trkpt>
      <trkpt lat="45.53216" lon="2.69356">
        <ele>960</ele>
        <time>2018-06-25T09:10:47.187Z</time>
      </trkpt>
      <trkpt lat="45.53219" lon="2.69392">
        <ele>958</ele>
        <time>2018-06-25T09:10:48.187Z</time>
      </trkpt>
      <trkpt lat="45.53217" lon="2.69431">
        <ele>956</ele>
        <time>2018-06-25T09:10:49.187Z</time>
      </trkpt>
      <trkpt lat="45.53205" lon="2.69487">
        <ele>953</ele>
        <time>2018-06-25T09:10:50.187Z</time>
      </trkpt>
      <trkpt lat="45.53197" lon="2.69549">
        <ele>953</ele>
        <time>2018-06-25T09:10:51.187Z</time>
      </trkpt>
      <trkpt lat="45.53157" lon="2.69649">
        <ele>947</ele>
        <time>2018-06-25T09:10:52.187Z</time>
      </trkpt>
      <trkpt lat="45.53149" lon="2.69678">
        <ele>946</ele>
        <time>2018-06-25T09:10:53.187Z</time>
      </trkpt>
      <trkpt lat="45.53151" lon="2.69731">
        <ele>948</ele>
        <time>2018-06-25T09:10:54.187Z</time>
      </trkpt>
      <trkpt lat="45.53139" lon="2.69759">
        <ele>946</ele>
        <time>2018-06-25T09:10:55.187Z</time>
      </trkpt>
      <trkpt lat="45.53124" lon="2.69774">
        <ele>944</ele>
        <time>2018-06-25T09:10:56.187Z</time>
      </trkpt>
      <trkpt lat="45.53107" lon="2.69779">
        <ele>940</ele>
        <time>2018-06-25T09:10:57.187Z</time>
      </trkpt>
      <trkpt lat="45.53099" lon="2.69779">
        <ele>939</ele>
        <time>2018-06-25T09:10:58.187Z</time>
      </trkpt>
      <trkpt lat="45.53079" lon="2.69826">
        <ele>940</ele>
        <time>2018-06-25T09:10:59.187Z</time>
      </trkpt>
      <trkpt lat="45.53054" lon="2.69865">
        <ele>940</ele>
        <time>2018-06-25T09:11:00.187Z</time>
      </trkpt>
      <trkpt lat="45.53028" lon="2.69894">
        <ele>938</ele>
        <time>2018-06-25T09:11:01.187Z</time>
      </trkpt>
      <trkpt lat="45.53006" lon="2.6991">
        <ele>937</ele>
        <time>2018-06-25T09:11:02.187Z</time>
      </trkpt>
      <trkpt lat="45.52906" lon="2.69955">
        <ele>929</ele>
        <time>2018-06-25T09:11:03.187Z</time>
      </trkpt>
      <trkpt lat="45.52868" lon="2.69964">
        <ele>927</ele>
        <time>2018-06-25T09:11:04.187Z</time>
      </trkpt>
      <trkpt lat="45.52835" lon="2.69968">
        <ele>925</ele>
        <time>2018-06-25T09:11:05.187Z</time>
      </trkpt>
      <trkpt lat="45.52777" lon="2.69983">
        <ele>930</ele>
        <time>2018-06-25T09:11:06.187Z</time>
      </trkpt>
      <trkpt lat="45.52775" lon="2.69953">
        <ele>931</ele>
        <time>2018-06-25T09:11:07.187Z</time>
      </trkpt>
      <trkpt lat="45.52783" lon="2.69885">
        <ele>931</ele>
        <time>2018-06-25T09:11:08.187Z</time>
      </trkpt>
      <trkpt lat="45.52779" lon="2.69855">
        <ele>931</ele>
        <time>2018-06-25T09:11:09.187Z</time>
      </trkpt>
      <trkpt lat="45.52769" lon="2.6983">
        <ele>931</ele>
        <time>2018-06-25T09:11:10.187Z</time>
      </trkpt>
      <trkpt lat="45.52747" lon="2.69812">
        <ele>931</ele>
        <time>2018-06-25T09:11:11.187Z</time>
      </trkpt>
      <trkpt lat="45.52725" lon="2.69806">
        <ele>931</ele>
        <time>2018-06-25T09:11:12.187Z</time>
      </trkpt>
      <trkpt lat="45.52707" lon="2.69811">
        <ele>933</ele>
        <time>2018-06-25T09:11:13.187Z</time>
      </trkpt>
      <trkpt lat="45.52685" lon="2.69835">
        <ele>936</ele>
        <time>2018-06-25T09:11:14.187Z</time>
      </trkpt>
      <trkpt lat="45.5263" lon="2.69887">
        <ele>941</ele>
        <time>2018-06-25T09:11:15.187Z</time>
      </trkpt>
      <trkpt lat="45.52541" lon="2.69935">
        <ele>945</ele>
        <time>2018-06-25T09:11:16.187Z</time>
      </trkpt>
      <trkpt lat="45.52488" lon="2.69999">
        <ele>950</ele>
        <time>2018-06-25T09:11:17.187Z</time>
      </trkpt>
      <trkpt lat="45.52475" lon="2.70006">
        <ele>951</ele>
        <time>2018-06-25T09:11:18.187Z</time>
      </trkpt>
      <trkpt lat="45.52462" lon="2.70003">
        <ele>952</ele>
        <time>2018-06-25T09:11:19.187Z</time>
      </trkpt>
      <trkpt lat="45.52452" lon="2.69994">
        <ele>952</ele>
        <time>2018-06-25T09:11:20.187Z</time>
      </trkpt>
      <trkpt lat="45.52431" lon="2.6994">
        <ele>954</ele>
        <time>2018-06-25T09:11:21.187Z</time>
      </trkpt>
      <trkpt lat="45.52418" lon="2.69925">
        <ele>955</ele>
        <time>2018-06-25T09:11:22.187Z</time>
      </trkpt>
      <trkpt lat="45.52362" lon="2.69906">
        <ele>958</ele>
        <time>2018-06-25T09:11:23.187Z</time>
      </trkpt>
      <trkpt lat="45.52305" lon="2.69884">
        <ele>965</ele>
        <time>2018-06-25T09:11:24.187Z</time>
      </trkpt>
      <trkpt lat="45.52252" lon="2.69855">
        <ele>973</ele>
        <time>2018-06-25T09:11:25.187Z</time>
      </trkpt>
      <trkpt lat="45.52207" lon="2.69846">
        <ele>974</ele>
        <time>2018-06-25T09:11:26.187Z</time>
      </trkpt>
      <trkpt lat="45.52195" lon="2.69841">
        <ele>974</ele>
        <time>2018-06-25T09:11:27.187Z</time>
      </trkpt>
      <trkpt lat="45.52184" lon="2.69831">
        <ele>974</ele>
        <time>2018-06-25T09:11:28.187Z</time>
      </trkpt>
      <trkpt lat="45.52172" lon="2.69789">
        <ele>973</ele>
        <time>2018-06-25T09:11:29.187Z</time>
      </trkpt>
      <trkpt lat="45.52121" lon="2.69715">
        <ele>970</ele>
        <time>2018-06-25T09:11:30.187Z</time>
      </trkpt>
      <trkpt lat="45.52111" lon="2.69704">
        <ele>970</ele>
        <time>2018-06-25T09:11:31.187Z</time>
      </trkpt>
      <trkpt lat="45.52102" lon="2.697">
        <ele>969</ele>
        <time>2018-06-25T09:11:32.187Z</time>
      </trkpt>
      <trkpt lat="45.52092" lon="2.69703">
        <ele>969</ele>
        <time>2018-06-25T09:11:33.187Z</time>
      </trkpt>
      <trkpt lat="45.52083" lon="2.69708">
        <ele>969</ele>
        <time>2018-06-25T09:11:34.187Z</time>
      </trkpt>
      <trkpt lat="45.52076" lon="2.69724">
        <ele>968</ele>
        <time>2018-06-25T09:11:35.187Z</time>
      </trkpt>
      <trkpt lat="45.52072" lon="2.6974">
        <ele>968</ele>
        <time>2018-06-25T09:11:36.187Z</time>
      </trkpt>
      <trkpt lat="45.5207" lon="2.69772">
        <ele>968</ele>
        <time>2018-06-25T09:11:37.187Z</time>
      </trkpt>
      <trkpt lat="45.52055" lon="2.69873">
        <ele>964</ele>
        <time>2018-06-25T09:11:38.187Z</time>
      </trkpt>
      <trkpt lat="45.52052" lon="2.69934">
        <ele>966</ele>
        <time>2018-06-25T09:11:39.187Z</time>
      </trkpt>
      <trkpt lat="45.52044" lon="2.69955">
        <ele>967</ele>
        <time>2018-06-25T09:11:40.187Z</time>
      </trkpt>
      <trkpt lat="45.52033" lon="2.6997">
        <ele>966</ele>
        <time>2018-06-25T09:11:41.187Z</time>
      </trkpt>
      <trkpt lat="45.5202" lon="2.69974">
        <ele>965</ele>
        <time>2018-06-25T09:11:42.187Z</time>
      </trkpt>
      <trkpt lat="45.52009" lon="2.69968">
        <ele>963</ele>
        <time>2018-06-25T09:11:43.187Z</time>
      </trkpt>
      <trkpt lat="45.51999" lon="2.69958">
        <ele>959</ele>
        <time>2018-06-25T09:11:44.187Z</time>
      </trkpt>
      <trkpt lat="45.51986" lon="2.69951">
        <ele>956</ele>
        <time>2018-06-25T09:11:45.187Z</time>
      </trkpt>
      <trkpt lat="45.51945" lon="2.6995">
        <ele>950</ele>
        <time>2018-06-25T09:11:46.187Z</time>
      </trkpt>
      <trkpt lat="45.51936" lon="2.69957">
        <ele>950</ele>
        <time>2018-06-25T09:11:47.187Z</time>
      </trkpt>
      <trkpt lat="45.51905" lon="2.70008">
        <ele>953</ele>
        <time>2018-06-25T09:11:48.187Z</time>
      </trkpt>
      <trkpt lat="45.51878" lon="2.70047">
        <ele>949</ele>
        <time>2018-06-25T09:11:49.187Z</time>
      </trkpt>
      <trkpt lat="45.51845" lon="2.70107">
        <ele>947</ele>
        <time>2018-06-25T09:11:50.187Z</time>
      </trkpt>
      <trkpt lat="45.51821" lon="2.70126">
        <ele>945</ele>
        <time>2018-06-25T09:11:51.187Z</time>
      </trkpt>
      <trkpt lat="45.51792" lon="2.7017">
        <ele>945</ele>
        <time>2018-06-25T09:11:52.187Z</time>
      </trkpt>
      <trkpt lat="45.51759" lon="2.70205">
        <ele>943</ele>
        <time>2018-06-25T09:11:53.187Z</time>
      </trkpt>
      <trkpt lat="45.51749" lon="2.70213">
        <ele>943</ele>
        <time>2018-06-25T09:11:54.187Z</time>
      </trkpt>
      <trkpt lat="45.51735" lon="2.70211">
        <ele>945</ele>
        <time>2018-06-25T09:11:55.187Z</time>
      </trkpt>
      <trkpt lat="45.51726" lon="2.70207">
        <ele>946</ele>
        <time>2018-06-25T09:11:56.187Z</time>
      </trkpt>
      <trkpt lat="45.51719" lon="2.70198">
        <ele>947</ele>
        <time>2018-06-25T09:11:57.187Z</time>
      </trkpt>
      <trkpt lat="45.51714" lon="2.70186">
        <ele>947</ele>
        <time>2018-06-25T09:11:58.187Z</time>
      </trkpt>
      <trkpt lat="45.51714" lon="2.7017">
        <ele>947</ele>
        <time>2018-06-25T09:11:59.187Z</time>
      </trkpt>
      <trkpt lat="45.51736" lon="2.70085">
        <ele>940</ele>
        <time>2018-06-25T09:12:00.187Z</time>
      </trkpt>
      <trkpt lat="45.51737" lon="2.70065">
        <ele>938</ele>
        <time>2018-06-25T09:12:01.187Z</time>
      </trkpt>
      <trkpt lat="45.51737" lon="2.70041">
        <ele>936</ele>
        <time>2018-06-25T09:12:02.187Z</time>
      </trkpt>
      <trkpt lat="45.51734" lon="2.70019">
        <ele>935</ele>
        <time>2018-06-25T09:12:03.187Z</time>
      </trkpt>
      <trkpt lat="45.51722" lon="2.69998">
        <ele>936</ele>
        <time>2018-06-25T09:12:04.187Z</time>
      </trkpt>
      <trkpt lat="45.51706" lon="2.69982">
        <ele>937</ele>
        <time>2018-06-25T09:12:05.187Z</time>
      </trkpt>
      <trkpt lat="45.51668" lon="2.69961">
        <ele>940</ele>
        <time>2018-06-25T09:12:06.187Z</time>
      </trkpt>
      <trkpt lat="45.51655" lon="2.6995">
        <ele>940</ele>
        <time>2018-06-25T09:12:07.187Z</time>
      </trkpt>
      <trkpt lat="45.51649" lon="2.69927">
        <ele>938</ele>
        <time>2018-06-25T09:12:08.187Z</time>
      </trkpt>
      <trkpt lat="45.51647" lon="2.69909">
        <ele>937</ele>
        <time>2018-06-25T09:12:09.187Z</time>
      </trkpt>
      <trkpt lat="45.51656" lon="2.69874">
        <ele>934</ele>
        <time>2018-06-25T09:12:10.187Z</time>
      </trkpt>
      <trkpt lat="45.51685" lon="2.69831">
        <ele>931</ele>
        <time>2018-06-25T09:12:11.187Z</time>
      </trkpt>
      <trkpt lat="45.51689" lon="2.69814">
        <ele>930</ele>
        <time>2018-06-25T09:12:12.187Z</time>
      </trkpt>
      <trkpt lat="45.51687" lon="2.698">
        <ele>929</ele>
        <time>2018-06-25T09:12:13.187Z</time>
      </trkpt>
      <trkpt lat="45.5168" lon="2.69788">
        <ele>929</ele>
        <time>2018-06-25T09:12:14.187Z</time>
      </trkpt>
      <trkpt lat="45.51669" lon="2.69779">
        <ele>929</ele>
        <time>2018-06-25T09:12:15.187Z</time>
      </trkpt>
      <trkpt lat="45.51642" lon="2.69775">
        <ele>930</ele>
        <time>2018-06-25T09:12:16.187Z</time>
      </trkpt>
      <trkpt lat="45.51632" lon="2.69767">
        <ele>930</ele>
        <time>2018-06-25T09:12:17.187Z</time>
      </trkpt>
      <trkpt lat="45.51627" lon="2.69751">
        <ele>929</ele>
        <time>2018-06-25T09:12:18.187Z</time>
      </trkpt>
      <trkpt lat="45.51626" lon="2.69737">
        <ele>928</ele>
        <time>2018-06-25T09:12:19.187Z</time>
      </trkpt>
      <trkpt lat="45.51634" lon="2.69711">
        <ele>927</ele>
        <time>2018-06-25T09:12:20.187Z</time>
      </trkpt>
      <trkpt lat="45.51636" lon="2.69699">
        <ele>927</ele>
        <time>2018-06-25T09:12:21.187Z</time>
      </trkpt>
      <trkpt lat="45.51634" lon="2.69682">
        <ele>926</ele>
        <time>2018-06-25T09:12:22.187Z</time>
      </trkpt>
      <trkpt lat="45.51627" lon="2.69663">
        <ele>926</ele>
        <time>2018-06-25T09:12:23.187Z</time>
      </trkpt>
      <trkpt lat="45.51609" lon="2.69641">
        <ele>926</ele>
        <time>2018-06-25T09:12:24.187Z</time>
      </trkpt>
      <trkpt lat="45.51594" lon="2.69626">
        <ele>927</ele>
        <time>2018-06-25T09:12:25.187Z</time>
      </trkpt>
      <trkpt lat="45.51578" lon="2.6962">
        <ele>928</ele>
        <time>2018-06-25T09:12:26.187Z</time>
      </trkpt>
      <trkpt lat="45.51567" lon="2.69622">
        <ele>929</ele>
        <time>2018-06-25T09:12:27.187Z</time>
      </trkpt>
      <trkpt lat="45.51506" lon="2.69652">
        <ele>931</ele>
        <time>2018-06-25T09:12:28.187Z</time>
      </trkpt>
      <trkpt lat="45.51482" lon="2.69659">
        <ele>932</ele>
        <time>2018-06-25T09:12:29.187Z</time>
      </trkpt>
      <trkpt lat="45.51475" lon="2.69659">
        <ele>933</ele>
        <time>2018-06-25T09:12:30.187Z</time>
      </trkpt>
      <trkpt lat="45.51476" lon="2.6966">
        <ele>933</ele>
        <time>2018-06-25T09:12:31.187Z</time>
      </trkpt>
      <trkpt lat="45.51468" lon="2.6966">
        <ele>934</ele>
        <time>2018-06-25T09:12:32.187Z</time>
      </trkpt>
      <trkpt lat="45.51444" lon="2.69647">
        <ele>938</ele>
        <time>2018-06-25T09:12:33.187Z</time>
      </trkpt>
      <trkpt lat="45.51429" lon="2.69644">
        <ele>940</ele>
        <time>2018-06-25T09:12:34.187Z</time>
      </trkpt>
      <trkpt lat="45.51413" lon="2.69647">
        <ele>942</ele>
        <time>2018-06-25T09:12:35.187Z</time>
      </trkpt>
      <trkpt lat="45.51382" lon="2.69659">
        <ele>945</ele>
        <time>2018-06-25T09:12:36.187Z</time>
      </trkpt>
      <trkpt lat="45.51354" lon="2.69664">
        <ele>949</ele>
        <time>2018-06-25T09:12:37.187Z</time>
      </trkpt>
      <trkpt lat="45.51339" lon="2.69674">
        <ele>950</ele>
        <time>2018-06-25T09:12:38.187Z</time>
      </trkpt>
      <trkpt lat="45.51302" lon="2.6973">
        <ele>949</ele>
        <time>2018-06-25T09:12:39.187Z</time>
      </trkpt>
      <trkpt lat="45.51289" lon="2.69742">
        <ele>949</ele>
        <time>2018-06-25T09:12:40.187Z</time>
      </trkpt>
      <trkpt lat="45.51278" lon="2.69746">
        <ele>950</ele>
        <time>2018-06-25T09:12:41.187Z</time>
      </trkpt>
      <trkpt lat="45.51264" lon="2.69745">
        <ele>952</ele>
        <time>2018-06-25T09:12:42.187Z</time>
      </trkpt>
      <trkpt lat="45.51253" lon="2.69734">
        <ele>954</ele>
        <time>2018-06-25T09:12:43.187Z</time>
      </trkpt>
      <trkpt lat="45.51232" lon="2.6969">
        <ele>956</ele>
        <time>2018-06-25T09:12:44.187Z</time>
      </trkpt>
      <trkpt lat="45.51224" lon="2.69679">
        <ele>956</ele>
        <time>2018-06-25T09:12:45.187Z</time>
      </trkpt>
      <trkpt lat="45.51214" lon="2.69676">
        <ele>955</ele>
        <time>2018-06-25T09:12:46.187Z</time>
      </trkpt>
      <trkpt lat="45.51187" lon="2.69677">
        <ele>954</ele>
        <time>2018-06-25T09:12:47.187Z</time>
      </trkpt>
      <trkpt lat="45.5118" lon="2.69669">
        <ele>954</ele>
        <time>2018-06-25T09:12:48.187Z</time>
      </trkpt>
      <trkpt lat="45.51175" lon="2.69653">
        <ele>954</ele>
        <time>2018-06-25T09:12:49.187Z</time>
      </trkpt>
      <trkpt lat="45.51177" lon="2.69634">
        <ele>954</ele>
        <time>2018-06-25T09:12:50.187Z</time>
      </trkpt>
      <trkpt lat="45.51184" lon="2.69616">
        <ele>955</ele>
        <time>2018-06-25T09:12:51.187Z</time>
      </trkpt>
      <trkpt lat="45.51231" lon="2.69571">
        <ele>961</ele>
        <time>2018-06-25T09:12:52.187Z</time>
      </trkpt>
      <trkpt lat="45.5124" lon="2.69559">
        <ele>962</ele>
        <time>2018-06-25T09:12:53.187Z</time>
      </trkpt>
      <trkpt lat="45.51245" lon="2.69543">
        <ele>964</ele>
        <time>2018-06-25T09:12:54.187Z</time>
      </trkpt>
      <trkpt lat="45.51244" lon="2.69524">
        <ele>965</ele>
        <time>2018-06-25T09:12:55.187Z</time>
      </trkpt>
      <trkpt lat="45.51234" lon="2.69505">
        <ele>965</ele>
        <time>2018-06-25T09:12:56.187Z</time>
      </trkpt>
      <trkpt lat="45.51131" lon="2.694">
        <ele>971</ele>
        <time>2018-06-25T09:12:57.187Z</time>
      </trkpt>
      <trkpt lat="45.51119" lon="2.69385">
        <ele>972</ele>
        <time>2018-06-25T09:12:58.187Z</time>
      </trkpt>
      <trkpt lat="45.51096" lon="2.69331">
        <ele>976</ele>
        <time>2018-06-25T09:12:59.187Z</time>
      </trkpt>
      <trkpt lat="45.51085" lon="2.6932">
        <ele>976</ele>
        <time>2018-06-25T09:13:00.187Z</time>
      </trkpt>
      <trkpt lat="45.51061" lon="2.6931">
        <ele>979</ele>
        <time>2018-06-25T09:13:01.187Z</time>
      </trkpt>
      <trkpt lat="45.51043" lon="2.69291">
        <ele>982</ele>
        <time>2018-06-25T09:13:02.187Z</time>
      </trkpt>
      <trkpt lat="45.51027" lon="2.69284">
        <ele>984</ele>
        <time>2018-06-25T09:13:03.187Z</time>
      </trkpt>
      <trkpt lat="45.51012" lon="2.69287">
        <ele>986</ele>
        <time>2018-06-25T09:13:04.187Z</time>
      </trkpt>
      <trkpt lat="45.5099" lon="2.6931">
        <ele>988</ele>
        <time>2018-06-25T09:13:05.187Z</time>
      </trkpt>
      <trkpt lat="45.50978" lon="2.69314">
        <ele>988</ele>
        <time>2018-06-25T09:13:06.187Z</time>
      </trkpt>
      <trkpt lat="45.50941" lon="2.69298">
        <ele>989</ele>
        <time>2018-06-25T09:13:07.187Z</time>
      </trkpt>
      <trkpt lat="45.50926" lon="2.69294">
        <ele>989</ele>
        <time>2018-06-25T09:13:08.187Z</time>
      </trkpt>
      <trkpt lat="45.5091" lon="2.69298">
        <ele>990</ele>
        <time>2018-06-25T09:13:09.187Z</time>
      </trkpt>
      <trkpt lat="45.50884" lon="2.6931">
        <ele>991</ele>
        <time>2018-06-25T09:13:10.187Z</time>
      </trkpt>
      <trkpt lat="45.50864" lon="2.69326">
        <ele>993</ele>
        <time>2018-06-25T09:13:11.187Z</time>
      </trkpt>
      <trkpt lat="45.50838" lon="2.69357">
        <ele>995</ele>
        <time>2018-06-25T09:13:12.187Z</time>
      </trkpt>
      <trkpt lat="45.5082" lon="2.69387">
        <ele>996</ele>
        <time>2018-06-25T09:13:13.187Z</time>
      </trkpt>
      <trkpt lat="45.50806" lon="2.69444">
        <ele>998</ele>
        <time>2018-06-25T09:13:14.187Z</time>
      </trkpt>
      <trkpt lat="45.50784" lon="2.69493">
        <ele>998</ele>
        <time>2018-06-25T09:13:15.187Z</time>
      </trkpt>
      <trkpt lat="45.50774" lon="2.69508">
        <ele>998</ele>
        <time>2018-06-25T09:13:16.187Z</time>
      </trkpt>
      <trkpt lat="45.50762" lon="2.69513">
        <ele>998</ele>
        <time>2018-06-25T09:13:17.187Z</time>
      </trkpt>
      <trkpt lat="45.50747" lon="2.69508">
        <ele>998</ele>
        <time>2018-06-25T09:13:18.187Z</time>
      </trkpt>
      <trkpt lat="45.50714" lon="2.69484">
        <ele>1000</ele>
        <time>2018-06-25T09:13:19.187Z</time>
      </trkpt>
      <trkpt lat="45.50699" lon="2.69482">
        <ele>1001</ele>
        <time>2018-06-25T09:13:20.187Z</time>
      </trkpt>
      <trkpt lat="45.50679" lon="2.69462">
        <ele>1001</ele>
        <time>2018-06-25T09:13:21.187Z</time>
      </trkpt>
      <trkpt lat="45.50665" lon="2.69447">
        <ele>1001</ele>
        <time>2018-06-25T09:13:22.187Z</time>
      </trkpt>
      <trkpt lat="45.50616" lon="2.69364">
        <ele>1002</ele>
        <time>2018-06-25T09:13:23.187Z</time>
      </trkpt>
      <trkpt lat="45.50604" lon="2.69348">
        <ele>1003</ele>
        <time>2018-06-25T09:13:24.187Z</time>
      </trkpt>
      <trkpt lat="45.5059" lon="2.69344">
        <ele>1004</ele>
        <time>2018-06-25T09:13:25.187Z</time>
      </trkpt>
      <trkpt lat="45.50578" lon="2.69346">
        <ele>1004</ele>
        <time>2018-06-25T09:13:26.187Z</time>
      </trkpt>
      <trkpt lat="45.50568" lon="2.69357">
        <ele>1004</ele>
        <time>2018-06-25T09:13:27.187Z</time>
      </trkpt>
      <trkpt lat="45.50522" lon="2.6942">
        <ele>1004</ele>
        <time>2018-06-25T09:13:28.187Z</time>
      </trkpt>
      <trkpt lat="45.50506" lon="2.69437">
        <ele>1004</ele>
        <time>2018-06-25T09:13:29.187Z</time>
      </trkpt>
      <trkpt lat="45.50492" lon="2.69443">
        <ele>1004</ele>
        <time>2018-06-25T09:13:30.187Z</time>
      </trkpt>
      <trkpt lat="45.50483" lon="2.69441">
        <ele>1003</ele>
        <time>2018-06-25T09:13:31.187Z</time>
      </trkpt>
      <trkpt lat="45.50475" lon="2.6943">
        <ele>1002</ele>
        <time>2018-06-25T09:13:32.187Z</time>
      </trkpt>
      <trkpt lat="45.5047" lon="2.69413">
        <ele>1001</ele>
        <time>2018-06-25T09:13:33.187Z</time>
      </trkpt>
      <trkpt lat="45.50466" lon="2.69375">
        <ele>1000</ele>
        <time>2018-06-25T09:13:34.187Z</time>
      </trkpt>
      <trkpt lat="45.50465" lon="2.69327">
        <ele>999</ele>
        <time>2018-06-25T09:13:35.187Z</time>
      </trkpt>
      <trkpt lat="45.50459" lon="2.69274">
        <ele>996</ele>
        <time>2018-06-25T09:13:36.187Z</time>
      </trkpt>
      <trkpt lat="45.50444" lon="2.69203">
        <ele>989</ele>
        <time>2018-06-25T09:13:37.187Z</time>
      </trkpt>
      <trkpt lat="45.50416" lon="2.69122">
        <ele>983</ele>
        <time>2018-06-25T09:13:38.187Z</time>
      </trkpt>
      <trkpt lat="45.50325" lon="2.68955">
        <ele>978</ele>
        <time>2018-06-25T09:13:39.187Z</time>
      </trkpt>
      <trkpt lat="45.50311" lon="2.68942">
        <ele>980</ele>
        <time>2018-06-25T09:13:40.187Z</time>
      </trkpt>
      <trkpt lat="45.50281" lon="2.68938">
        <ele>983</ele>
        <time>2018-06-25T09:13:41.187Z</time>
      </trkpt>
      <trkpt lat="45.50264" lon="2.6894">
        <ele>985</ele>
        <time>2018-06-25T09:13:42.187Z</time>
      </trkpt>
      <trkpt lat="45.50253" lon="2.68948">
        <ele>985</ele>
        <time>2018-06-25T09:13:43.187Z</time>
      </trkpt>
      <trkpt lat="45.50244" lon="2.6896">
        <ele>986</ele>
        <time>2018-06-25T09:13:44.187Z</time>
      </trkpt>
      <trkpt lat="45.50224" lon="2.69009">
        <ele>985</ele>
        <time>2018-06-25T09:13:45.187Z</time>
      </trkpt>
      <trkpt lat="45.50214" lon="2.69026">
        <ele>986</ele>
        <time>2018-06-25T09:13:46.187Z</time>
      </trkpt>
      <trkpt lat="45.50184" lon="2.6905">
        <ele>988</ele>
        <time>2018-06-25T09:13:47.187Z</time>
      </trkpt>
      <trkpt lat="45.50112" lon="2.69142">
        <ele>993</ele>
        <time>2018-06-25T09:13:48.187Z</time>
      </trkpt>
      <trkpt lat="45.50093" lon="2.6915">
        <ele>995</ele>
        <time>2018-06-25T09:13:49.187Z</time>
      </trkpt>
      <trkpt lat="45.50079" lon="2.69159">
        <ele>996</ele>
        <time>2018-06-25T09:13:50.187Z</time>
      </trkpt>
      <trkpt lat="45.49947" lon="2.693">
        <ele>1006</ele>
        <time>2018-06-25T09:13:51.187Z</time>
      </trkpt>
      <trkpt lat="45.49933" lon="2.69305">
        <ele>1006</ele>
        <time>2018-06-25T09:13:52.187Z</time>
      </trkpt>
      <trkpt lat="45.49921" lon="2.69304">
        <ele>1006</ele>
        <time>2018-06-25T09:13:53.187Z</time>
      </trkpt>
      <trkpt lat="45.49912" lon="2.69298">
        <ele>1007</ele>
        <time>2018-06-25T09:13:54.187Z</time>
      </trkpt>
      <trkpt lat="45.49901" lon="2.69284">
        <ele>1008</ele>
        <time>2018-06-25T09:13:55.187Z</time>
      </trkpt>
      <trkpt lat="45.49885" lon="2.69245">
        <ele>1008</ele>
        <time>2018-06-25T09:13:56.187Z</time>
      </trkpt>
      <trkpt lat="45.49874" lon="2.69233">
        <ele>1008</ele>
        <time>2018-06-25T09:13:57.187Z</time>
      </trkpt>
      <trkpt lat="45.49786" lon="2.69213">
        <ele>1014</ele>
        <time>2018-06-25T09:13:58.187Z</time>
      </trkpt>
      <trkpt lat="45.49775" lon="2.69214">
        <ele>1014</ele>
        <time>2018-06-25T09:13:59.187Z</time>
      </trkpt>
      <trkpt lat="45.49766" lon="2.69222">
        <ele>1015</ele>
        <time>2018-06-25T09:14:00.187Z</time>
      </trkpt>
      <trkpt lat="45.49759" lon="2.69234">
        <ele>1016</ele>
        <time>2018-06-25T09:14:01.187Z</time>
      </trkpt>
      <trkpt lat="45.49746" lon="2.69271">
        <ele>1019</ele>
        <time>2018-06-25T09:14:02.187Z</time>
      </trkpt>
      <trkpt lat="45.49739" lon="2.69288">
        <ele>1020</ele>
        <time>2018-06-25T09:14:03.187Z</time>
      </trkpt>
      <trkpt lat="45.49728" lon="2.69297">
        <ele>1021</ele>
        <time>2018-06-25T09:14:04.187Z</time>
      </trkpt>
      <trkpt lat="45.49715" lon="2.69303">
        <ele>1022</ele>
        <time>2018-06-25T09:14:05.187Z</time>
      </trkpt>
      <trkpt lat="45.49603" lon="2.69316">
        <ele>1029</ele>
        <time>2018-06-25T09:14:06.187Z</time>
      </trkpt>
      <trkpt lat="45.49582" lon="2.6932">
        <ele>1031</ele>
        <time>2018-06-25T09:14:07.187Z</time>
      </trkpt>
      <trkpt lat="45.49568" lon="2.69327">
        <ele>1033</ele>
        <time>2018-06-25T09:14:08.187Z</time>
      </trkpt>
      <trkpt lat="45.49554" lon="2.69337">
        <ele>1035</ele>
        <time>2018-06-25T09:14:09.187Z</time>
      </trkpt>
      <trkpt lat="45.49543" lon="2.6935">
        <ele>1038</ele>
        <time>2018-06-25T09:14:10.187Z</time>
      </trkpt>
      <trkpt lat="45.49536" lon="2.69363">
        <ele>1039</ele>
        <time>2018-06-25T09:14:11.187Z</time>
      </trkpt>
      <trkpt lat="45.4953" lon="2.69382">
        <ele>1041</ele>
        <time>2018-06-25T09:14:12.187Z</time>
      </trkpt>
      <trkpt lat="45.49525" lon="2.69448">
        <ele>1044</ele>
        <time>2018-06-25T09:14:13.187Z</time>
      </trkpt>
      <trkpt lat="45.49527" lon="2.69514">
        <ele>1046</ele>
        <time>2018-06-25T09:14:14.187Z</time>
      </trkpt>
      <trkpt lat="45.49525" lon="2.69527">
        <ele>1046</ele>
        <time>2018-06-25T09:14:15.187Z</time>
      </trkpt>
      <trkpt lat="45.49519" lon="2.69537">
        <ele>1045</ele>
        <time>2018-06-25T09:14:16.187Z</time>
      </trkpt>
      <trkpt lat="45.4948" lon="2.69568">
        <ele>1045</ele>
        <time>2018-06-25T09:14:17.187Z</time>
      </trkpt>
      <trkpt lat="45.49465" lon="2.69575">
        <ele>1045</ele>
        <time>2018-06-25T09:14:18.187Z</time>
      </trkpt>
      <trkpt lat="45.49449" lon="2.69577">
        <ele>1044</ele>
        <time>2018-06-25T09:14:19.187Z</time>
      </trkpt>
      <trkpt lat="45.49349" lon="2.69556">
        <ele>1046</ele>
        <time>2018-06-25T09:14:20.187Z</time>
      </trkpt>
      <trkpt lat="45.49339" lon="2.69547">
        <ele>1047</ele>
        <time>2018-06-25T09:14:21.187Z</time>
      </trkpt>
      <trkpt lat="45.49252" lon="2.69413">
        <ele>1048</ele>
        <time>2018-06-25T09:14:22.187Z</time>
      </trkpt>
      <trkpt lat="45.49245" lon="2.69394">
        <ele>1048</ele>
        <time>2018-06-25T09:14:23.187Z</time>
      </trkpt>
      <trkpt lat="45.49243" lon="2.69378">
        <ele>1048</ele>
        <time>2018-06-25T09:14:24.187Z</time>
      </trkpt>
      <trkpt lat="45.49247" lon="2.693">
        <ele>1046</ele>
        <time>2018-06-25T09:14:25.187Z</time>
      </trkpt>
      <trkpt lat="45.49243" lon="2.69285">
        <ele>1046</ele>
        <time>2018-06-25T09:14:26.187Z</time>
      </trkpt>
      <trkpt lat="45.49235" lon="2.6927">
        <ele>1045</ele>
        <time>2018-06-25T09:14:27.187Z</time>
      </trkpt>
      <trkpt lat="45.49223" lon="2.69252">
        <ele>1044</ele>
        <time>2018-06-25T09:14:28.187Z</time>
      </trkpt>
      <trkpt lat="45.49209" lon="2.6924">
        <ele>1044</ele>
        <time>2018-06-25T09:14:29.187Z</time>
      </trkpt>
      <trkpt lat="45.49193" lon="2.69235">
        <ele>1043</ele>
        <time>2018-06-25T09:14:30.187Z</time>
      </trkpt>
      <trkpt lat="45.49103" lon="2.69235">
        <ele>1045</ele>
        <time>2018-06-25T09:14:31.187Z</time>
      </trkpt>
      <trkpt lat="45.49088" lon="2.69231">
        <ele>1045</ele>
        <time>2018-06-25T09:14:32.187Z</time>
      </trkpt>
      <trkpt lat="45.49031" lon="2.69164">
        <ele>1045</ele>
        <time>2018-06-25T09:14:33.187Z</time>
      </trkpt>
      <trkpt lat="45.48993" lon="2.69147">
        <ele>1046</ele>
        <time>2018-06-25T09:14:34.187Z</time>
      </trkpt>
      <trkpt lat="45.48935" lon="2.69081">
        <ele>1045</ele>
        <time>2018-06-25T09:14:35.187Z</time>
      </trkpt>
      <trkpt lat="45.48898" lon="2.69062">
        <ele>1045</ele>
        <time>2018-06-25T09:14:36.187Z</time>
      </trkpt>
      <trkpt lat="45.48886" lon="2.69059">
        <ele>1044</ele>
        <time>2018-06-25T09:14:37.187Z</time>
      </trkpt>
      <trkpt lat="45.48871" lon="2.69061">
        <ele>1044</ele>
        <time>2018-06-25T09:14:38.187Z</time>
      </trkpt>
      <trkpt lat="45.48855" lon="2.69071">
        <ele>1045</ele>
        <time>2018-06-25T09:14:39.187Z</time>
      </trkpt>
      <trkpt lat="45.48846" lon="2.69074">
        <ele>1045</ele>
        <time>2018-06-25T09:14:40.187Z</time>
      </trkpt>
      <trkpt lat="45.48823" lon="2.69066">
        <ele>1044</ele>
        <time>2018-06-25T09:14:41.187Z</time>
      </trkpt>
      <trkpt lat="45.48785" lon="2.69049">
        <ele>1040</ele>
        <time>2018-06-25T09:14:42.187Z</time>
      </trkpt>
      <trkpt lat="45.48755" lon="2.69044">
        <ele>1038</ele>
        <time>2018-06-25T09:14:43.187Z</time>
      </trkpt>
      <trkpt lat="45.48715" lon="2.69069">
        <ele>1038</ele>
        <time>2018-06-25T09:14:44.187Z</time>
      </trkpt>
      <trkpt lat="45.48674" lon="2.69083">
        <ele>1037</ele>
        <time>2018-06-25T09:14:45.187Z</time>
      </trkpt>
      <trkpt lat="45.48637" lon="2.69116">
        <ele>1039</ele>
        <time>2018-06-25T09:14:46.187Z</time>
      </trkpt>
      <trkpt lat="45.48628" lon="2.69118">
        <ele>1039</ele>
        <time>2018-06-25T09:14:47.187Z</time>
      </trkpt>
      <trkpt lat="45.48602" lon="2.69103">
        <ele>1035</ele>
        <time>2018-06-25T09:14:48.187Z</time>
      </trkpt>
      <trkpt lat="45.48542" lon="2.69097">
        <ele>1035</ele>
        <time>2018-06-25T09:14:49.187Z</time>
      </trkpt>
      <trkpt lat="45.48479" lon="2.69102">
        <ele>1037</ele>
        <time>2018-06-25T09:14:50.187Z</time>
      </trkpt>
      <trkpt lat="45.48456" lon="2.69071">
        <ele>1035</ele>
        <time>2018-06-25T09:14:51.187Z</time>
      </trkpt>
      <trkpt lat="45.48447" lon="2.69052">
        <ele>1034</ele>
        <time>2018-06-25T09:14:52.187Z</time>
      </trkpt>
      <trkpt lat="45.48429" lon="2.69029">
        <ele>1033</ele>
        <time>2018-06-25T09:14:53.187Z</time>
      </trkpt>
      <trkpt lat="45.48422" lon="2.69007">
        <ele>1032</ele>
        <time>2018-06-25T09:14:54.187Z</time>
      </trkpt>
      <trkpt lat="45.48411" lon="2.68957">
        <ele>1028</ele>
        <time>2018-06-25T09:14:55.187Z</time>
      </trkpt>
      <trkpt lat="45.48401" lon="2.68932">
        <ele>1025</ele>
        <time>2018-06-25T09:14:56.187Z</time>
      </trkpt>
      <trkpt lat="45.48375" lon="2.68919">
        <ele>1025</ele>
        <time>2018-06-25T09:14:57.187Z</time>
      </trkpt>
      <trkpt lat="45.48349" lon="2.68912">
        <ele>1026</ele>
        <time>2018-06-25T09:14:58.187Z</time>
      </trkpt>
      <trkpt lat="45.48338" lon="2.68902">
        <ele>1026</ele>
        <time>2018-06-25T09:14:59.187Z</time>
      </trkpt>
      <trkpt lat="45.48324" lon="2.68858">
        <ele>1023</ele>
        <time>2018-06-25T09:15:00.187Z</time>
      </trkpt>
      <trkpt lat="45.48307" lon="2.68822">
        <ele>1022</ele>
        <time>2018-06-25T09:15:01.187Z</time>
      </trkpt>
      <trkpt lat="45.48273" lon="2.68766">
        <ele>1022</ele>
        <time>2018-06-25T09:15:02.187Z</time>
      </trkpt>
      <trkpt lat="45.48263" lon="2.68743">
        <ele>1021</ele>
        <time>2018-06-25T09:15:03.187Z</time>
      </trkpt>
      <trkpt lat="45.48259" lon="2.68722">
        <ele>1021</ele>
        <time>2018-06-25T09:15:04.187Z</time>
      </trkpt>
      <trkpt lat="45.48259" lon="2.68697">
        <ele>1021</ele>
        <time>2018-06-25T09:15:05.187Z</time>
      </trkpt>
      <trkpt lat="45.48256" lon="2.68663">
        <ele>1020</ele>
        <time>2018-06-25T09:15:06.187Z</time>
      </trkpt>
      <trkpt lat="45.48232" lon="2.68566">
        <ele>1018</ele>
        <time>2018-06-25T09:15:07.187Z</time>
      </trkpt>
      <trkpt lat="45.4822" lon="2.68528">
        <ele>1017</ele>
        <time>2018-06-25T09:15:08.187Z</time>
      </trkpt>
      <trkpt lat="45.48212" lon="2.6851">
        <ele>1017</ele>
        <time>2018-06-25T09:15:09.187Z</time>
      </trkpt>
      <trkpt lat="45.48202" lon="2.68499">
        <ele>1016</ele>
        <time>2018-06-25T09:15:10.187Z</time>
      </trkpt>
      <trkpt lat="45.48187" lon="2.68495">
        <ele>1016</ele>
        <time>2018-06-25T09:15:11.187Z</time>
      </trkpt>
      <trkpt lat="45.48158" lon="2.68493">
        <ele>1015</ele>
        <time>2018-06-25T09:15:12.187Z</time>
      </trkpt>
      <trkpt lat="45.48132" lon="2.68485">
        <ele>1013</ele>
        <time>2018-06-25T09:15:13.187Z</time>
      </trkpt>
      <trkpt lat="45.48107" lon="2.68481">
        <ele>1012</ele>
        <time>2018-06-25T09:15:14.187Z</time>
      </trkpt>
      <trkpt lat="45.48026" lon="2.68457">
        <ele>1008</ele>
        <time>2018-06-25T09:15:15.187Z</time>
      </trkpt>
      <trkpt lat="45.48009" lon="2.68446">
        <ele>1008</ele>
        <time>2018-06-25T09:15:16.187Z</time>
      </trkpt>
      <trkpt lat="45.47989" lon="2.68426">
        <ele>1008</ele>
        <time>2018-06-25T09:15:17.187Z</time>
      </trkpt>
      <trkpt lat="45.47978" lon="2.68411">
        <ele>1007</ele>
        <time>2018-06-25T09:15:18.187Z</time>
      </trkpt>
      <trkpt lat="45.47964" lon="2.68398">
        <ele>1006</ele>
        <time>2018-06-25T09:15:19.187Z</time>
      </trkpt>
      <trkpt lat="45.47946" lon="2.68392">
        <ele>1004</ele>
        <time>2018-06-25T09:15:20.187Z</time>
      </trkpt>
      <trkpt lat="45.47928" lon="2.6839">
        <ele>1003</ele>
        <time>2018-06-25T09:15:21.187Z</time>
      </trkpt>
      <trkpt lat="45.4789" lon="2.68414">
        <ele>1001</ele>
        <time>2018-06-25T09:15:22.187Z</time>
      </trkpt>
      <trkpt lat="45.47865" lon="2.68423">
        <ele>1000</ele>
        <time>2018-06-25T09:15:23.187Z</time>
      </trkpt>
      <trkpt lat="45.47825" lon="2.68433">
        <ele>999</ele>
        <time>2018-06-25T09:15:24.187Z</time>
      </trkpt>
      <trkpt lat="45.47792" lon="2.68436">
        <ele>998</ele>
        <time>2018-06-25T09:15:25.187Z</time>
      </trkpt>
      <trkpt lat="45.4774" lon="2.68426">
        <ele>997</ele>
        <time>2018-06-25T09:15:26.187Z</time>
      </trkpt>
      <trkpt lat="45.4772" lon="2.68425">
        <ele>997</ele>
        <time>2018-06-25T09:15:27.187Z</time>
      </trkpt>
      <trkpt lat="45.47672" lon="2.6846">
        <ele>995</ele>
        <time>2018-06-25T09:15:28.187Z</time>
      </trkpt>
      <trkpt lat="45.47654" lon="2.68479">
        <ele>995</ele>
        <time>2018-06-25T09:15:29.187Z</time>
      </trkpt>
      <trkpt lat="45.47639" lon="2.68506">
        <ele>995</ele>
        <time>2018-06-25T09:15:30.187Z</time>
      </trkpt>
      <trkpt lat="45.47606" lon="2.68527">
        <ele>995</ele>
        <time>2018-06-25T09:15:31.187Z</time>
      </trkpt>
      <trkpt lat="45.47578" lon="2.68556">
        <ele>993</ele>
        <time>2018-06-25T09:15:32.187Z</time>
      </trkpt>
      <trkpt lat="45.47568" lon="2.6858">
        <ele>992</ele>
        <time>2018-06-25T09:15:33.187Z</time>
      </trkpt>
      <trkpt lat="45.47545" lon="2.68653">
        <ele>990</ele>
        <time>2018-06-25T09:15:34.187Z</time>
      </trkpt>
      <trkpt lat="45.47532" lon="2.68705">
        <ele>989</ele>
        <time>2018-06-25T09:15:35.187Z</time>
      </trkpt>
      <trkpt lat="45.47518" lon="2.68741">
        <ele>987</ele>
        <time>2018-06-25T09:15:36.187Z</time>
      </trkpt>
      <trkpt lat="45.47491" lon="2.68803">
        <ele>985</ele>
        <time>2018-06-25T09:15:37.187Z</time>
      </trkpt>
      <trkpt lat="45.47462" lon="2.6886">
        <ele>982</ele>
        <time>2018-06-25T09:15:38.187Z</time>
      </trkpt>
      <trkpt lat="45.47443" lon="2.68886">
        <ele>981</ele>
        <time>2018-06-25T09:15:39.187Z</time>
      </trkpt>
      <trkpt lat="45.47393" lon="2.68916">
        <ele>977</ele>
        <time>2018-06-25T09:15:40.187Z</time>
      </trkpt>
      <trkpt lat="45.47371" lon="2.6892">
        <ele>977</ele>
        <time>2018-06-25T09:15:41.187Z</time>
      </trkpt>
      <trkpt lat="45.47346" lon="2.68918">
        <ele>976</ele>
        <time>2018-06-25T09:15:42.187Z</time>
      </trkpt>
      <trkpt lat="45.47334" lon="2.68913">
        <ele>976</ele>
        <time>2018-06-25T09:15:43.187Z</time>
      </trkpt>
      <trkpt lat="45.47327" lon="2.68893">
        <ele>977</ele>
        <time>2018-06-25T09:15:44.187Z</time>
      </trkpt>
      <trkpt lat="45.47309" lon="2.68858">
        <ele>979</ele>
        <time>2018-06-25T09:15:45.187Z</time>
      </trkpt>
      <trkpt lat="45.47289" lon="2.68833">
        <ele>980</ele>
        <time>2018-06-25T09:15:46.187Z</time>
      </trkpt>
      <trkpt lat="45.47253" lon="2.68802">
        <ele>980</ele>
        <time>2018-06-25T09:15:47.187Z</time>
      </trkpt>
      <trkpt lat="45.47217" lon="2.68763">
        <ele>983</ele>
        <time>2018-06-25T09:15:48.187Z</time>
      </trkpt>
      <trkpt lat="45.47202" lon="2.68732">
        <ele>981</ele>
        <time>2018-06-25T09:15:49.187Z</time>
      </trkpt>
      <trkpt lat="45.47179" lon="2.68697">
        <ele>978</ele>
        <time>2018-06-25T09:15:50.187Z</time>
      </trkpt>
      <trkpt lat="45.47157" lon="2.68674">
        <ele>972</ele>
        <time>2018-06-25T09:15:51.187Z</time>
      </trkpt>
      <trkpt lat="45.4712" lon="2.68676">
        <ele>970</ele>
        <time>2018-06-25T09:15:52.187Z</time>
      </trkpt>
      <trkpt lat="45.4705" lon="2.68696">
        <ele>971</ele>
        <time>2018-06-25T09:15:53.187Z</time>
      </trkpt>
      <trkpt lat="45.47009" lon="2.68717">
        <ele>970</ele>
        <time>2018-06-25T09:15:54.187Z</time>
      </trkpt>
      <trkpt lat="45.46994" lon="2.68743">
        <ele>969</ele>
        <time>2018-06-25T09:15:55.187Z</time>
      </trkpt>
      <trkpt lat="45.46986" lon="2.68761">
        <ele>968</ele>
        <time>2018-06-25T09:15:56.187Z</time>
      </trkpt>
      <trkpt lat="45.46973" lon="2.68777">
        <ele>966</ele>
        <time>2018-06-25T09:15:57.187Z</time>
      </trkpt>
      <trkpt lat="45.4696" lon="2.68785">
        <ele>964</ele>
        <time>2018-06-25T09:15:58.187Z</time>
      </trkpt>
      <trkpt lat="45.46947" lon="2.68785">
        <ele>962</ele>
        <time>2018-06-25T09:15:59.187Z</time>
      </trkpt>
      <trkpt lat="45.46935" lon="2.68774">
        <ele>960</ele>
        <time>2018-06-25T09:16:00.187Z</time>
      </trkpt>
      <trkpt lat="45.46928" lon="2.68748">
        <ele>958</ele>
        <time>2018-06-25T09:16:01.187Z</time>
      </trkpt>
      <trkpt lat="45.46923" lon="2.68716">
        <ele>956</ele>
        <time>2018-06-25T09:16:02.187Z</time>
      </trkpt>
      <trkpt lat="45.46915" lon="2.68694">
        <ele>955</ele>
        <time>2018-06-25T09:16:03.187Z</time>
      </trkpt>
      <trkpt lat="45.46899" lon="2.68676">
        <ele>953</ele>
        <time>2018-06-25T09:16:04.187Z</time>
      </trkpt>
      <trkpt lat="45.46796" lon="2.68607">
        <ele>950</ele>
        <time>2018-06-25T09:16:05.187Z</time>
      </trkpt>
      <trkpt lat="45.46711" lon="2.68545">
        <ele>948</ele>
        <time>2018-06-25T09:16:06.187Z</time>
      </trkpt>
      <trkpt lat="45.46686" lon="2.68533">
        <ele>947</ele>
        <time>2018-06-25T09:16:07.187Z</time>
      </trkpt>
      <trkpt lat="45.46664" lon="2.68577">
        <ele>948</ele>
        <time>2018-06-25T09:16:08.187Z</time>
      </trkpt>
      <trkpt lat="45.46509" lon="2.68737">
        <ele>946</ele>
        <time>2018-06-25T09:16:09.187Z</time>
      </trkpt>
      <trkpt lat="45.46494" lon="2.68765">
        <ele>947</ele>
        <time>2018-06-25T09:16:10.187Z</time>
      </trkpt>
      <trkpt lat="45.46486" lon="2.68807">
        <ele>948</ele>
        <time>2018-06-25T09:16:11.187Z</time>
      </trkpt>
      <trkpt lat="45.46466" lon="2.68978">
        <ele>958</ele>
        <time>2018-06-25T09:16:12.187Z</time>
      </trkpt>
      <trkpt lat="45.46434" lon="2.69033">
        <ele>955</ele>
        <time>2018-06-25T09:16:13.187Z</time>
      </trkpt>
      <trkpt lat="45.46416" lon="2.69117">
        <ele>955</ele>
        <time>2018-06-25T09:16:14.187Z</time>
      </trkpt>
      <trkpt lat="45.46402" lon="2.6914">
        <ele>955</ele>
        <time>2018-06-25T09:16:15.187Z</time>
      </trkpt>
      <trkpt lat="45.46363" lon="2.69174">
        <ele>955</ele>
        <time>2018-06-25T09:16:16.187Z</time>
      </trkpt>
      <trkpt lat="45.46339" lon="2.6921">
        <ele>956</ele>
        <time>2018-06-25T09:16:17.187Z</time>
      </trkpt>
      <trkpt lat="45.46313" lon="2.69255">
        <ele>956</ele>
        <time>2018-06-25T09:16:18.187Z</time>
      </trkpt>
      <trkpt lat="45.46308" lon="2.6928">
        <ele>957</ele>
        <time>2018-06-25T09:16:19.187Z</time>
      </trkpt>
      <trkpt lat="45.46308" lon="2.69303">
        <ele>958</ele>
        <time>2018-06-25T09:16:20.187Z</time>
      </trkpt>
      <trkpt lat="45.46311" lon="2.69325">
        <ele>960</ele>
        <time>2018-06-25T09:16:21.187Z</time>
      </trkpt>
      <trkpt lat="45.4632" lon="2.69345">
        <ele>961</ele>
        <time>2018-06-25T09:16:22.187Z</time>
      </trkpt>
      <trkpt lat="45.46328" lon="2.69381">
        <ele>963</ele>
        <time>2018-06-25T09:16:23.187Z</time>
      </trkpt>
      <trkpt lat="45.46332" lon="2.69432">
        <ele>966</ele>
        <time>2018-06-25T09:16:24.187Z</time>
      </trkpt>
      <trkpt lat="45.4633" lon="2.69484">
        <ele>968</ele>
        <time>2018-06-25T09:16:25.187Z</time>
      </trkpt>
      <trkpt lat="45.46324" lon="2.69509">
        <ele>969</ele>
        <time>2018-06-25T09:16:26.187Z</time>
      </trkpt>
      <trkpt lat="45.46302" lon="2.69531">
        <ele>969</ele>
        <time>2018-06-25T09:16:27.187Z</time>
      </trkpt>
      <trkpt lat="45.46293" lon="2.69546">
        <ele>969</ele>
        <time>2018-06-25T09:16:28.187Z</time>
      </trkpt>
      <trkpt lat="45.46288" lon="2.69564">
        <ele>970</ele>
        <time>2018-06-25T09:16:29.187Z</time>
      </trkpt>
      <trkpt lat="45.46292" lon="2.69584">
        <ele>971</ele>
        <time>2018-06-25T09:16:30.187Z</time>
      </trkpt>
      <trkpt lat="45.46318" lon="2.69683">
        <ele>971</ele>
        <time>2018-06-25T09:16:31.187Z</time>
      </trkpt>
      <trkpt lat="45.4632" lon="2.69711">
        <ele>972</ele>
        <time>2018-06-25T09:16:32.187Z</time>
      </trkpt>
      <trkpt lat="45.46312" lon="2.69746">
        <ele>973</ele>
        <time>2018-06-25T09:16:33.187Z</time>
      </trkpt>
      <trkpt lat="45.46314" lon="2.69764">
        <ele>973</ele>
        <time>2018-06-25T09:16:34.187Z</time>
      </trkpt>
      <trkpt lat="45.46324" lon="2.69797">
        <ele>973</ele>
        <time>2018-06-25T09:16:35.187Z</time>
      </trkpt>
      <trkpt lat="45.46327" lon="2.69819">
        <ele>973</ele>
        <time>2018-06-25T09:16:36.187Z</time>
      </trkpt>
      <trkpt lat="45.46326" lon="2.69843">
        <ele>974</ele>
        <time>2018-06-25T09:16:37.187Z</time>
      </trkpt>
      <trkpt lat="45.46276" lon="2.69946">
        <ele>977</ele>
        <time>2018-06-25T09:16:38.187Z</time>
      </trkpt>
      <trkpt lat="45.46272" lon="2.69971">
        <ele>976</ele>
        <time>2018-06-25T09:16:39.187Z</time>
      </trkpt>
      <trkpt lat="45.46275" lon="2.7">
        <ele>975</ele>
        <time>2018-06-25T09:16:40.187Z</time>
      </trkpt>
      <trkpt lat="45.46312" lon="2.70059">
        <ele>972</ele>
        <time>2018-06-25T09:16:41.187Z</time>
      </trkpt>
      <trkpt lat="45.46342" lon="2.70073">
        <ele>970</ele>
        <time>2018-06-25T09:16:42.187Z</time>
      </trkpt>
      <trkpt lat="45.46351" lon="2.70088">
        <ele>969</ele>
        <time>2018-06-25T09:16:43.187Z</time>
      </trkpt>
      <trkpt lat="45.46355" lon="2.70108">
        <ele>969</ele>
        <time>2018-06-25T09:16:44.187Z</time>
      </trkpt>
      <trkpt lat="45.46349" lon="2.70129">
        <ele>969</ele>
        <time>2018-06-25T09:16:45.187Z</time>
      </trkpt>
      <trkpt lat="45.46337" lon="2.70153">
        <ele>969</ele>
        <time>2018-06-25T09:16:46.187Z</time>
      </trkpt>
      <trkpt lat="45.46314" lon="2.70192">
        <ele>970</ele>
        <time>2018-06-25T09:16:47.187Z</time>
      </trkpt>
      <trkpt lat="45.46299" lon="2.7023">
        <ele>970</ele>
        <time>2018-06-25T09:16:48.187Z</time>
      </trkpt>
      <trkpt lat="45.46291" lon="2.70261">
        <ele>970</ele>
        <time>2018-06-25T09:16:49.187Z</time>
      </trkpt>
      <trkpt lat="45.46294" lon="2.70282">
        <ele>970</ele>
        <time>2018-06-25T09:16:50.187Z</time>
      </trkpt>
      <trkpt lat="45.463" lon="2.70306">
        <ele>971</ele>
        <time>2018-06-25T09:16:51.187Z</time>
      </trkpt>
      <trkpt lat="45.46326" lon="2.7034">
        <ele>974</ele>
        <time>2018-06-25T09:16:52.187Z</time>
      </trkpt>
      <trkpt lat="45.46333" lon="2.70357">
        <ele>974</ele>
        <time>2018-06-25T09:16:53.187Z</time>
      </trkpt>
      <trkpt lat="45.46353" lon="2.70453">
        <ele>973</ele>
        <time>2018-06-25T09:16:54.187Z</time>
      </trkpt>
      <trkpt lat="45.46359" lon="2.70469">
        <ele>973</ele>
        <time>2018-06-25T09:16:55.187Z</time>
      </trkpt>
      <trkpt lat="45.46376" lon="2.70487">
        <ele>975</ele>
        <time>2018-06-25T09:16:56.187Z</time>
      </trkpt>
      <trkpt lat="45.46385" lon="2.70501">
        <ele>976</ele>
        <time>2018-06-25T09:16:57.187Z</time>
      </trkpt>
      <trkpt lat="45.46416" lon="2.70619">
        <ele>976</ele>
        <time>2018-06-25T09:16:58.187Z</time>
      </trkpt>
      <trkpt lat="45.46425" lon="2.70629">
        <ele>976</ele>
        <time>2018-06-25T09:16:59.187Z</time>
      </trkpt>
      <trkpt lat="45.46451" lon="2.70644">
        <ele>978</ele>
        <time>2018-06-25T09:17:00.187Z</time>
      </trkpt>
      <trkpt lat="45.4646" lon="2.7066">
        <ele>978</ele>
        <time>2018-06-25T09:17:01.187Z</time>
      </trkpt>
      <trkpt lat="45.46518" lon="2.7087">
        <ele>977</ele>
        <time>2018-06-25T09:17:02.187Z</time>
      </trkpt>
      <trkpt lat="45.46521" lon="2.70888">
        <ele>977</ele>
        <time>2018-06-25T09:17:03.187Z</time>
      </trkpt>
      <trkpt lat="45.4652" lon="2.70905">
        <ele>977</ele>
        <time>2018-06-25T09:17:04.187Z</time>
      </trkpt>
      <trkpt lat="45.46509" lon="2.70939">
        <ele>976</ele>
        <time>2018-06-25T09:17:05.187Z</time>
      </trkpt>
      <trkpt lat="45.46502" lon="2.70997">
        <ele>974</ele>
        <time>2018-06-25T09:17:06.187Z</time>
      </trkpt>
      <trkpt lat="45.46495" lon="2.71029">
        <ele>975</ele>
        <time>2018-06-25T09:17:07.187Z</time>
      </trkpt>
      <trkpt lat="45.46469" lon="2.71104">
        <ele>977</ele>
        <time>2018-06-25T09:17:08.187Z</time>
      </trkpt>
      <trkpt lat="45.4646" lon="2.71158">
        <ele>980</ele>
        <time>2018-06-25T09:17:09.187Z</time>
      </trkpt>
      <trkpt lat="45.46456" lon="2.71209">
        <ele>983</ele>
        <time>2018-06-25T09:17:10.187Z</time>
      </trkpt>
      <trkpt lat="45.46456" lon="2.71248">
        <ele>985</ele>
        <time>2018-06-25T09:17:11.187Z</time>
      </trkpt>
      <trkpt lat="45.46461" lon="2.71292">
        <ele>988</ele>
        <time>2018-06-25T09:17:12.187Z</time>
      </trkpt>
      <trkpt lat="45.46462" lon="2.71324">
        <ele>990</ele>
        <time>2018-06-25T09:17:13.187Z</time>
      </trkpt>
      <trkpt lat="45.46453" lon="2.71353">
        <ele>992</ele>
        <time>2018-06-25T09:17:14.187Z</time>
      </trkpt>
      <trkpt lat="45.46413" lon="2.7143">
        <ele>996</ele>
        <time>2018-06-25T09:17:15.187Z</time>
      </trkpt>
      <trkpt lat="45.46399" lon="2.71436">
        <ele>997</ele>
        <time>2018-06-25T09:17:16.187Z</time>
      </trkpt>
      <trkpt lat="45.46372" lon="2.71432">
        <ele>997</ele>
        <time>2018-06-25T09:17:17.187Z</time>
      </trkpt>
      <trkpt lat="45.46358" lon="2.71406">
        <ele>996</ele>
        <time>2018-06-25T09:17:18.187Z</time>
      </trkpt>
      <trkpt lat="45.46345" lon="2.71391">
        <ele>996</ele>
        <time>2018-06-25T09:17:19.187Z</time>
      </trkpt>
      <trkpt lat="45.4633" lon="2.71388">
        <ele>996</ele>
        <time>2018-06-25T09:17:20.187Z</time>
      </trkpt>
      <trkpt lat="45.46321" lon="2.71393">
        <ele>997</ele>
        <time>2018-06-25T09:17:21.187Z</time>
      </trkpt>
      <trkpt lat="45.46312" lon="2.71411">
        <ele>998</ele>
        <time>2018-06-25T09:17:22.187Z</time>
      </trkpt>
      <trkpt lat="45.46314" lon="2.71424">
        <ele>999</ele>
        <time>2018-06-25T09:17:23.187Z</time>
      </trkpt>
      <trkpt lat="45.4632" lon="2.71433">
        <ele>999</ele>
        <time>2018-06-25T09:17:24.187Z</time>
      </trkpt>
      <trkpt lat="45.46337" lon="2.71447">
        <ele>1000</ele>
        <time>2018-06-25T09:17:25.187Z</time>
      </trkpt>
      <trkpt lat="45.46346" lon="2.71458">
        <ele>1000</ele>
        <time>2018-06-25T09:17:26.187Z</time>
      </trkpt>
      <trkpt lat="45.46353" lon="2.71489">
        <ele>1002</ele>
        <time>2018-06-25T09:17:27.187Z</time>
      </trkpt>
      <trkpt lat="45.46361" lon="2.71502">
        <ele>1003</ele>
        <time>2018-06-25T09:17:28.187Z</time>
      </trkpt>
      <trkpt lat="45.46375" lon="2.71518">
        <ele>1004</ele>
        <time>2018-06-25T09:17:29.187Z</time>
      </trkpt>
      <trkpt lat="45.46381" lon="2.71537">
        <ele>1006</ele>
        <time>2018-06-25T09:17:30.187Z</time>
      </trkpt>
      <trkpt lat="45.4638" lon="2.71561">
        <ele>1008</ele>
        <time>2018-06-25T09:17:31.187Z</time>
      </trkpt>
      <trkpt lat="45.46359" lon="2.71561">
        <ele>1007</ele>
        <time>2018-06-25T09:17:32.187Z</time>
      </trkpt>
      <trkpt lat="45.46338" lon="2.71567">
        <ele>1006</ele>
        <time>2018-06-25T09:17:33.187Z</time>
      </trkpt>
      <trkpt lat="45.46317" lon="2.71579">
        <ele>1007</ele>
        <time>2018-06-25T09:17:34.187Z</time>
      </trkpt>
      <trkpt lat="45.4626" lon="2.71602">
        <ele>1008</ele>
        <time>2018-06-25T09:17:35.187Z</time>
      </trkpt>
      <trkpt lat="45.46243" lon="2.71597">
        <ele>1008</ele>
        <time>2018-06-25T09:17:36.187Z</time>
      </trkpt>
      <trkpt lat="45.46114" lon="2.71455">
        <ele>1001</ele>
        <time>2018-06-25T09:17:37.187Z</time>
      </trkpt>
      <trkpt lat="45.46082" lon="2.71433">
        <ele>999</ele>
        <time>2018-06-25T09:17:38.187Z</time>
      </trkpt>
      <trkpt lat="45.45999" lon="2.71422">
        <ele>993</ele>
        <time>2018-06-25T09:17:39.187Z</time>
      </trkpt>
      <trkpt lat="45.45982" lon="2.71409">
        <ele>991</ele>
        <time>2018-06-25T09:17:40.187Z</time>
      </trkpt>
      <trkpt lat="45.4596" lon="2.71376">
        <ele>989</ele>
        <time>2018-06-25T09:17:41.187Z</time>
      </trkpt>
      <trkpt lat="45.45949" lon="2.71353">
        <ele>988</ele>
        <time>2018-06-25T09:17:42.187Z</time>
      </trkpt>
      <trkpt lat="45.45925" lon="2.71258">
        <ele>990</ele>
        <time>2018-06-25T09:17:43.187Z</time>
      </trkpt>
      <trkpt lat="45.45914" lon="2.71238">
        <ele>990</ele>
        <time>2018-06-25T09:17:44.187Z</time>
      </trkpt>
      <trkpt lat="45.45863" lon="2.71241">
        <ele>983</ele>
        <time>2018-06-25T09:17:45.187Z</time>
      </trkpt>
      <trkpt lat="45.45781" lon="2.71257">
        <ele>975</ele>
        <time>2018-06-25T09:17:46.187Z</time>
      </trkpt>
      <trkpt lat="45.4569" lon="2.71315">
        <ele>973</ele>
        <time>2018-06-25T09:17:47.187Z</time>
      </trkpt>
      <trkpt lat="45.45623" lon="2.71378">
        <ele>967</ele>
        <time>2018-06-25T09:17:48.187Z</time>
      </trkpt>
      <trkpt lat="45.45607" lon="2.7138">
        <ele>966</ele>
        <time>2018-06-25T09:17:49.187Z</time>
      </trkpt>
      <trkpt lat="45.45594" lon="2.71369">
        <ele>966</ele>
        <time>2018-06-25T09:17:50.187Z</time>
      </trkpt>
      <trkpt lat="45.45569" lon="2.7134">
        <ele>965</ele>
        <time>2018-06-25T09:17:51.187Z</time>
      </trkpt>
      <trkpt lat="45.45516" lon="2.71305">
        <ele>958</ele>
        <time>2018-06-25T09:17:52.187Z</time>
      </trkpt>
      <trkpt lat="45.45497" lon="2.71287">
        <ele>956</ele>
        <time>2018-06-25T09:17:53.187Z</time>
      </trkpt>
      <trkpt lat="45.45473" lon="2.71253">
        <ele>956</ele>
        <time>2018-06-25T09:17:54.187Z</time>
      </trkpt>
      <trkpt lat="45.45428" lon="2.71221">
        <ele>952</ele>
        <time>2018-06-25T09:17:55.187Z</time>
      </trkpt>
      <trkpt lat="45.45406" lon="2.71201">
        <ele>951</ele>
        <time>2018-06-25T09:17:56.187Z</time>
      </trkpt>
      <trkpt lat="45.45379" lon="2.71169">
        <ele>949</ele>
        <time>2018-06-25T09:17:57.187Z</time>
      </trkpt>
      <trkpt lat="45.45364" lon="2.71155">
        <ele>948</ele>
        <time>2018-06-25T09:17:58.187Z</time>
      </trkpt>
      <trkpt lat="45.45291" lon="2.71093">
        <ele>941</ele>
        <time>2018-06-25T09:17:59.187Z</time>
      </trkpt>
      <trkpt lat="45.45278" lon="2.71087">
        <ele>939</ele>
        <time>2018-06-25T09:18:00.187Z</time>
      </trkpt>
      <trkpt lat="45.45266" lon="2.71085">
        <ele>937</ele>
        <time>2018-06-25T09:18:01.187Z</time>
      </trkpt>
      <trkpt lat="45.45247" lon="2.71093">
        <ele>935</ele>
        <time>2018-06-25T09:18:02.187Z</time>
      </trkpt>
      <trkpt lat="45.45163" lon="2.71171">
        <ele>931</ele>
        <time>2018-06-25T09:18:03.187Z</time>
      </trkpt>
      <trkpt lat="45.45143" lon="2.7118">
        <ele>934</ele>
        <time>2018-06-25T09:18:04.187Z</time>
      </trkpt>
      <trkpt lat="45.45132" lon="2.71174">
        <ele>936</ele>
        <time>2018-06-25T09:18:05.187Z</time>
      </trkpt>
      <trkpt lat="45.45112" lon="2.71145">
        <ele>938</ele>
        <time>2018-06-25T09:18:06.187Z</time>
      </trkpt>
      <trkpt lat="45.45043" lon="2.71033">
        <ele>941</ele>
        <time>2018-06-25T09:18:07.187Z</time>
      </trkpt>
      <trkpt lat="45.4502" lon="2.71019">
        <ele>942</ele>
        <time>2018-06-25T09:18:08.187Z</time>
      </trkpt>
      <trkpt lat="45.44998" lon="2.7103">
        <ele>945</ele>
        <time>2018-06-25T09:18:09.187Z</time>
      </trkpt>
      <trkpt lat="45.44993" lon="2.71049">
        <ele>946</ele>
        <time>2018-06-25T09:18:10.187Z</time>
      </trkpt>
      <trkpt lat="45.44992" lon="2.71066">
        <ele>948</ele>
        <time>2018-06-25T09:18:11.187Z</time>
      </trkpt>
      <trkpt lat="45.44999" lon="2.71129">
        <ele>952</ele>
        <time>2018-06-25T09:18:12.187Z</time>
      </trkpt>
      <trkpt lat="45.44997" lon="2.71152">
        <ele>954</ele>
        <time>2018-06-25T09:18:13.187Z</time>
      </trkpt>
      <trkpt lat="45.44977" lon="2.71193">
        <ele>956</ele>
        <time>2018-06-25T09:18:14.187Z</time>
      </trkpt>
      <trkpt lat="45.4496" lon="2.71275">
        <ele>957</ele>
        <time>2018-06-25T09:18:15.187Z</time>
      </trkpt>
      <trkpt lat="45.44942" lon="2.713">
        <ele>957</ele>
        <time>2018-06-25T09:18:16.187Z</time>
      </trkpt>
      <trkpt lat="45.44894" lon="2.71326">
        <ele>958</ele>
        <time>2018-06-25T09:18:17.187Z</time>
      </trkpt>
      <trkpt lat="45.4487" lon="2.71356">
        <ele>962</ele>
        <time>2018-06-25T09:18:18.187Z</time>
      </trkpt>
      <trkpt lat="45.44863" lon="2.71379">
        <ele>964</ele>
        <time>2018-06-25T09:18:19.187Z</time>
      </trkpt>
      <trkpt lat="45.44855" lon="2.71415">
        <ele>969</ele>
        <time>2018-06-25T09:18:20.187Z</time>
      </trkpt>
      <trkpt lat="45.44855" lon="2.71446">
        <ele>968</ele>
        <time>2018-06-25T09:18:21.187Z</time>
      </trkpt>
      <trkpt lat="45.44848" lon="2.71462">
        <ele>968</ele>
        <time>2018-06-25T09:18:22.187Z</time>
      </trkpt>
      <trkpt lat="45.44836" lon="2.71471">
        <ele>968</ele>
        <time>2018-06-25T09:18:23.187Z</time>
      </trkpt>
      <trkpt lat="45.44824" lon="2.71468">
        <ele>970</ele>
        <time>2018-06-25T09:18:24.187Z</time>
      </trkpt>
      <trkpt lat="45.44814" lon="2.71457">
        <ele>972</ele>
        <time>2018-06-25T09:18:25.187Z</time>
      </trkpt>
      <trkpt lat="45.44799" lon="2.71401">
        <ele>972</ele>
        <time>2018-06-25T09:18:26.187Z</time>
      </trkpt>
      <trkpt lat="45.4479" lon="2.71382">
        <ele>971</ele>
        <time>2018-06-25T09:18:27.187Z</time>
      </trkpt>
      <trkpt lat="45.44771" lon="2.71368">
        <ele>972</ele>
        <time>2018-06-25T09:18:28.187Z</time>
      </trkpt>
      <trkpt lat="45.44752" lon="2.71365">
        <ele>974</ele>
        <time>2018-06-25T09:18:29.187Z</time>
      </trkpt>
      <trkpt lat="45.44734" lon="2.71371">
        <ele>977</ele>
        <time>2018-06-25T09:18:30.187Z</time>
      </trkpt>
      <trkpt lat="45.44713" lon="2.71388">
        <ele>983</ele>
        <time>2018-06-25T09:18:31.187Z</time>
      </trkpt>
      <trkpt lat="45.44698" lon="2.71396">
        <ele>986</ele>
        <time>2018-06-25T09:18:32.187Z</time>
      </trkpt>
      <trkpt lat="45.44681" lon="2.7139">
        <ele>988</ele>
        <time>2018-06-25T09:18:33.187Z</time>
      </trkpt>
      <trkpt lat="45.44657" lon="2.71369">
        <ele>986</ele>
        <time>2018-06-25T09:18:34.187Z</time>
      </trkpt>
      <trkpt lat="45.44549" lon="2.71378">
        <ele>993</ele>
        <time>2018-06-25T09:18:35.187Z</time>
      </trkpt>
      <trkpt lat="45.445" lon="2.71373">
        <ele>994</ele>
        <time>2018-06-25T09:18:36.187Z</time>
      </trkpt>
      <trkpt lat="45.44471" lon="2.7139">
        <ele>993</ele>
        <time>2018-06-25T09:18:37.187Z</time>
      </trkpt>
      <trkpt lat="45.44341" lon="2.71516">
        <ele>990</ele>
        <time>2018-06-25T09:18:38.187Z</time>
      </trkpt>
      <trkpt lat="45.44323" lon="2.71516">
        <ele>989</ele>
        <time>2018-06-25T09:18:39.187Z</time>
      </trkpt>
      <trkpt lat="45.44284" lon="2.7149">
        <ele>989</ele>
        <time>2018-06-25T09:18:40.187Z</time>
      </trkpt>
      <trkpt lat="45.44258" lon="2.71493">
        <ele>990</ele>
        <time>2018-06-25T09:18:41.187Z</time>
      </trkpt>
      <trkpt lat="45.44197" lon="2.71535">
        <ele>991</ele>
        <time>2018-06-25T09:18:42.187Z</time>
      </trkpt>
      <trkpt lat="45.44184" lon="2.71546">
        <ele>990</ele>
        <time>2018-06-25T09:18:43.187Z</time>
      </trkpt>
      <trkpt lat="45.44172" lon="2.71566">
        <ele>990</ele>
        <time>2018-06-25T09:18:44.187Z</time>
      </trkpt>
      <trkpt lat="45.44164" lon="2.71594">
        <ele>990</ele>
        <time>2018-06-25T09:18:45.187Z</time>
      </trkpt>
      <trkpt lat="45.44161" lon="2.71621">
        <ele>989</ele>
        <time>2018-06-25T09:18:46.187Z</time>
      </trkpt>
      <trkpt lat="45.44162" lon="2.71651">
        <ele>989</ele>
        <time>2018-06-25T09:18:47.187Z</time>
      </trkpt>
      <trkpt lat="45.4417" lon="2.71684">
        <ele>990</ele>
        <time>2018-06-25T09:18:48.187Z</time>
      </trkpt>
      <trkpt lat="45.44171" lon="2.71703">
        <ele>991</ele>
        <time>2018-06-25T09:18:49.187Z</time>
      </trkpt>
      <trkpt lat="45.44162" lon="2.71718">
        <ele>990</ele>
        <time>2018-06-25T09:18:50.187Z</time>
      </trkpt>
      <trkpt lat="45.44144" lon="2.71726">
        <ele>989</ele>
        <time>2018-06-25T09:18:51.187Z</time>
      </trkpt>
      <trkpt lat="45.44126" lon="2.71737">
        <ele>987</ele>
        <time>2018-06-25T09:18:52.187Z</time>
      </trkpt>
      <trkpt lat="45.44102" lon="2.71765">
        <ele>987</ele>
        <time>2018-06-25T09:18:53.187Z</time>
      </trkpt>
      <trkpt lat="45.4409" lon="2.71768">
        <ele>986</ele>
        <time>2018-06-25T09:18:54.187Z</time>
      </trkpt>
      <trkpt lat="45.44072" lon="2.71767">
        <ele>984</ele>
        <time>2018-06-25T09:18:55.187Z</time>
      </trkpt>
      <trkpt lat="45.44059" lon="2.71775">
        <ele>983</ele>
        <time>2018-06-25T09:18:56.187Z</time>
      </trkpt>
      <trkpt lat="45.44049" lon="2.71792">
        <ele>984</ele>
        <time>2018-06-25T09:18:57.187Z</time>
      </trkpt>
      <trkpt lat="45.44044" lon="2.7192">
        <ele>992</ele>
        <time>2018-06-25T09:18:58.187Z</time>
      </trkpt>
      <trkpt lat="45.44032" lon="2.71944">
        <ele>992</ele>
        <time>2018-06-25T09:18:59.187Z</time>
      </trkpt>
      <trkpt lat="45.44016" lon="2.71962">
        <ele>990</ele>
        <time>2018-06-25T09:19:00.187Z</time>
      </trkpt>
      <trkpt lat="45.44004" lon="2.71981">
        <ele>990</ele>
        <time>2018-06-25T09:19:01.187Z</time>
      </trkpt>
      <trkpt lat="45.43992" lon="2.7202">
        <ele>990</ele>
        <time>2018-06-25T09:19:02.187Z</time>
      </trkpt>
      <trkpt lat="45.43986" lon="2.72068">
        <ele>992</ele>
        <time>2018-06-25T09:19:03.187Z</time>
      </trkpt>
      <trkpt lat="45.43969" lon="2.72096">
        <ele>990</ele>
        <time>2018-06-25T09:19:04.187Z</time>
      </trkpt>
      <trkpt lat="45.43943" lon="2.72118">
        <ele>987</ele>
        <time>2018-06-25T09:19:05.187Z</time>
      </trkpt>
      <trkpt lat="45.43921" lon="2.72159">
        <ele>986</ele>
        <time>2018-06-25T09:19:06.187Z</time>
      </trkpt>
      <trkpt lat="45.43902" lon="2.7218">
        <ele>987</ele>
        <time>2018-06-25T09:19:07.187Z</time>
      </trkpt>
      <trkpt lat="45.43803" lon="2.72221">
        <ele>978</ele>
        <time>2018-06-25T09:19:08.187Z</time>
      </trkpt>
      <trkpt lat="45.43783" lon="2.72236">
        <ele>976</ele>
        <time>2018-06-25T09:19:09.187Z</time>
      </trkpt>
      <trkpt lat="45.43756" lon="2.7229">
        <ele>977</ele>
        <time>2018-06-25T09:19:10.187Z</time>
      </trkpt>
      <trkpt lat="45.4373" lon="2.7231">
        <ele>975</ele>
        <time>2018-06-25T09:19:11.187Z</time>
      </trkpt>
      <trkpt lat="45.43694" lon="2.72343">
        <ele>971</ele>
        <time>2018-06-25T09:19:12.187Z</time>
      </trkpt>
      <trkpt lat="45.43674" lon="2.72375">
        <ele>970</ele>
        <time>2018-06-25T09:19:13.187Z</time>
      </trkpt>
      <trkpt lat="45.43624" lon="2.72417">
        <ele>971</ele>
        <time>2018-06-25T09:19:14.187Z</time>
      </trkpt>
      <trkpt lat="45.43605" lon="2.72464">
        <ele>969</ele>
        <time>2018-06-25T09:19:15.187Z</time>
      </trkpt>
      <trkpt lat="45.43601" lon="2.72557">
        <ele>966</ele>
        <time>2018-06-25T09:19:16.187Z</time>
      </trkpt>
      <trkpt lat="45.43597" lon="2.72587">
        <ele>965</ele>
        <time>2018-06-25T09:19:17.187Z</time>
      </trkpt>
      <trkpt lat="45.43585" lon="2.7261">
        <ele>967</ele>
        <time>2018-06-25T09:19:18.187Z</time>
      </trkpt>
      <trkpt lat="45.43575" lon="2.72619">
        <ele>970</ele>
        <time>2018-06-25T09:19:19.187Z</time>
      </trkpt>
      <trkpt lat="45.43555" lon="2.72612">
        <ele>975</ele>
        <time>2018-06-25T09:19:20.187Z</time>
      </trkpt>
      <trkpt lat="45.43539" lon="2.72595">
        <ele>979</ele>
        <time>2018-06-25T09:19:21.187Z</time>
      </trkpt>
      <trkpt lat="45.43526" lon="2.7257">
        <ele>984</ele>
        <time>2018-06-25T09:19:22.187Z</time>
      </trkpt>
      <trkpt lat="45.43521" lon="2.72546">
        <ele>987</ele>
        <time>2018-06-25T09:19:23.187Z</time>
      </trkpt>
      <trkpt lat="45.43519" lon="2.72496">
        <ele>990</ele>
        <time>2018-06-25T09:19:24.187Z</time>
      </trkpt>
      <trkpt lat="45.43523" lon="2.72435">
        <ele>991</ele>
        <time>2018-06-25T09:19:25.187Z</time>
      </trkpt>
      <trkpt lat="45.43534" lon="2.72371">
        <ele>987</ele>
        <time>2018-06-25T09:19:26.187Z</time>
      </trkpt>
      <trkpt lat="45.43535" lon="2.72336">
        <ele>987</ele>
        <time>2018-06-25T09:19:27.187Z</time>
      </trkpt>
      <trkpt lat="45.43528" lon="2.72319">
        <ele>989</ele>
        <time>2018-06-25T09:19:28.187Z</time>
      </trkpt>
      <trkpt lat="45.4349" lon="2.72297">
        <ele>996</ele>
        <time>2018-06-25T09:19:29.187Z</time>
      </trkpt>
      <trkpt lat="45.43444" lon="2.72286">
        <ele>998</ele>
        <time>2018-06-25T09:19:30.187Z</time>
      </trkpt>
      <trkpt lat="45.43423" lon="2.72291">
        <ele>999</ele>
        <time>2018-06-25T09:19:31.187Z</time>
      </trkpt>
      <trkpt lat="45.43385" lon="2.72316">
        <ele>997</ele>
        <time>2018-06-25T09:19:32.187Z</time>
      </trkpt>
      <trkpt lat="45.43368" lon="2.72353">
        <ele>998</ele>
        <time>2018-06-25T09:19:33.187Z</time>
      </trkpt>
      <trkpt lat="45.43355" lon="2.72369">
        <ele>998</ele>
        <time>2018-06-25T09:19:34.187Z</time>
      </trkpt>
      <trkpt lat="45.43325" lon="2.72386">
        <ele>998</ele>
        <time>2018-06-25T09:19:35.187Z</time>
      </trkpt>
      <trkpt lat="45.43294" lon="2.72399">
        <ele>999</ele>
        <time>2018-06-25T09:19:36.187Z</time>
      </trkpt>
      <trkpt lat="45.43244" lon="2.72396">
        <ele>998</ele>
        <time>2018-06-25T09:19:37.187Z</time>
      </trkpt>
      <trkpt lat="45.43229" lon="2.72398">
        <ele>998</ele>
        <time>2018-06-25T09:19:38.187Z</time>
      </trkpt>
      <trkpt lat="45.43208" lon="2.72417">
        <ele>999</ele>
        <time>2018-06-25T09:19:39.187Z</time>
      </trkpt>
      <trkpt lat="45.43187" lon="2.72447">
        <ele>1000</ele>
        <time>2018-06-25T09:19:40.187Z</time>
      </trkpt>
      <trkpt lat="45.43148" lon="2.72487">
        <ele>999</ele>
        <time>2018-06-25T09:19:41.187Z</time>
      </trkpt>
      <trkpt lat="45.43104" lon="2.72527">
        <ele>1000</ele>
        <time>2018-06-25T09:19:42.187Z</time>
      </trkpt>
      <trkpt lat="45.43094" lon="2.72527">
        <ele>1000</ele>
        <time>2018-06-25T09:19:43.187Z</time>
      </trkpt>
      <trkpt lat="45.43065" lon="2.72518">
        <ele>1000</ele>
        <time>2018-06-25T09:19:44.187Z</time>
      </trkpt>
      <trkpt lat="45.43054" lon="2.72521">
        <ele>1001</ele>
        <time>2018-06-25T09:19:45.187Z</time>
      </trkpt>
      <trkpt lat="45.43041" lon="2.72533">
        <ele>1003</ele>
        <time>2018-06-25T09:19:46.187Z</time>
      </trkpt>
      <trkpt lat="45.43025" lon="2.72573">
        <ele>1007</ele>
        <time>2018-06-25T09:19:47.187Z</time>
      </trkpt>
      <trkpt lat="45.43015" lon="2.72586">
        <ele>1007</ele>
        <time>2018-06-25T09:19:48.187Z</time>
      </trkpt>
      <trkpt lat="45.42991" lon="2.72601">
        <ele>1007</ele>
        <time>2018-06-25T09:19:49.187Z</time>
      </trkpt>
      <trkpt lat="45.42977" lon="2.72613">
        <ele>1008</ele>
        <time>2018-06-25T09:19:50.187Z</time>
      </trkpt>
      <trkpt lat="45.42948" lon="2.72671">
        <ele>1006</ele>
        <time>2018-06-25T09:19:51.187Z</time>
      </trkpt>
      <trkpt lat="45.42921" lon="2.72709">
        <ele>1006</ele>
        <time>2018-06-25T09:19:52.187Z</time>
      </trkpt>
      <trkpt lat="45.42901" lon="2.72724">
        <ele>1007</ele>
        <time>2018-06-25T09:19:53.187Z</time>
      </trkpt>
      <trkpt lat="45.42883" lon="2.72732">
        <ele>1008</ele>
        <time>2018-06-25T09:19:54.187Z</time>
      </trkpt>
      <trkpt lat="45.42862" lon="2.72738">
        <ele>1009</ele>
        <time>2018-06-25T09:19:55.187Z</time>
      </trkpt>
      <trkpt lat="45.4284" lon="2.72739">
        <ele>1010</ele>
        <time>2018-06-25T09:19:56.187Z</time>
      </trkpt>
      <trkpt lat="45.42823" lon="2.72715">
        <ele>1012</ele>
        <time>2018-06-25T09:19:57.187Z</time>
      </trkpt>
      <trkpt lat="45.42788" lon="2.7264">
        <ele>1017</ele>
        <time>2018-06-25T09:19:58.187Z</time>
      </trkpt>
      <trkpt lat="45.42769" lon="2.72614">
        <ele>1018</ele>
        <time>2018-06-25T09:19:59.187Z</time>
      </trkpt>
      <trkpt lat="45.42754" lon="2.72607">
        <ele>1019</ele>
        <time>2018-06-25T09:20:00.187Z</time>
      </trkpt>
      <trkpt lat="45.42734" lon="2.72612">
        <ele>1019</ele>
        <time>2018-06-25T09:20:01.187Z</time>
      </trkpt>
      <trkpt lat="45.42717" lon="2.72611">
        <ele>1019</ele>
        <time>2018-06-25T09:20:02.187Z</time>
      </trkpt>
      <trkpt lat="45.42707" lon="2.72601">
        <ele>1020</ele>
        <time>2018-06-25T09:20:03.187Z</time>
      </trkpt>
      <trkpt lat="45.42633" lon="2.72388">
        <ele>1028</ele>
        <time>2018-06-25T09:20:04.187Z</time>
      </trkpt>
      <trkpt lat="45.42583" lon="2.7225">
        <ele>1032</ele>
        <time>2018-06-25T09:20:05.187Z</time>
      </trkpt>
      <trkpt lat="45.42567" lon="2.7222">
        <ele>1032</ele>
        <time>2018-06-25T09:20:06.187Z</time>
      </trkpt>
      <trkpt lat="45.42534" lon="2.72213">
        <ele>1032</ele>
        <time>2018-06-25T09:20:07.187Z</time>
      </trkpt>
      <trkpt lat="45.42469" lon="2.72204">
        <ele>1030</ele>
        <time>2018-06-25T09:20:08.187Z</time>
      </trkpt>
      <trkpt lat="45.42444" lon="2.72227">
        <ele>1029</ele>
        <time>2018-06-25T09:20:09.187Z</time>
      </trkpt>
      <trkpt lat="45.42402" lon="2.72227">
        <ele>1028</ele>
        <time>2018-06-25T09:20:10.187Z</time>
      </trkpt>
      <trkpt lat="45.42351" lon="2.72254">
        <ele>1029</ele>
        <time>2018-06-25T09:20:11.187Z</time>
      </trkpt>
      <trkpt lat="45.4231" lon="2.72241">
        <ele>1024</ele>
        <time>2018-06-25T09:20:12.187Z</time>
      </trkpt>
      <trkpt lat="45.42271" lon="2.72253">
        <ele>1019</ele>
        <time>2018-06-25T09:20:13.187Z</time>
      </trkpt>
      <trkpt lat="45.42247" lon="2.72275">
        <ele>1018</ele>
        <time>2018-06-25T09:20:14.187Z</time>
      </trkpt>
      <trkpt lat="45.42209" lon="2.72358">
        <ele>1019</ele>
        <time>2018-06-25T09:20:15.187Z</time>
      </trkpt>
      <trkpt lat="45.42144" lon="2.72394">
        <ele>1015</ele>
        <time>2018-06-25T09:20:16.187Z</time>
      </trkpt>
      <trkpt lat="45.42067" lon="2.7243">
        <ele>1013</ele>
        <time>2018-06-25T09:20:17.187Z</time>
      </trkpt>
      <trkpt lat="45.42042" lon="2.72437">
        <ele>1013</ele>
        <time>2018-06-25T09:20:18.187Z</time>
      </trkpt>
      <trkpt lat="45.42001" lon="2.72434">
        <ele>1013</ele>
        <time>2018-06-25T09:20:19.187Z</time>
      </trkpt>
      <trkpt lat="45.41974" lon="2.72423">
        <ele>1014</ele>
        <time>2018-06-25T09:20:20.187Z</time>
      </trkpt>
      <trkpt lat="45.41956" lon="2.72411">
        <ele>1015</ele>
        <time>2018-06-25T09:20:21.187Z</time>
      </trkpt>
      <trkpt lat="45.41941" lon="2.72393">
        <ele>1015</ele>
        <time>2018-06-25T09:20:22.187Z</time>
      </trkpt>
      <trkpt lat="45.41935" lon="2.72332">
        <ele>1012</ele>
        <time>2018-06-25T09:20:23.187Z</time>
      </trkpt>
      <trkpt lat="45.41922" lon="2.72295">
        <ele>1011</ele>
        <time>2018-06-25T09:20:24.187Z</time>
      </trkpt>
      <trkpt lat="45.41902" lon="2.72243">
        <ele>1009</ele>
        <time>2018-06-25T09:20:25.187Z</time>
      </trkpt>
      <trkpt lat="45.41904" lon="2.72226">
        <ele>1008</ele>
        <time>2018-06-25T09:20:26.187Z</time>
      </trkpt>
      <trkpt lat="45.41915" lon="2.72187">
        <ele>1005</ele>
        <time>2018-06-25T09:20:27.187Z</time>
      </trkpt>
      <trkpt lat="45.41913" lon="2.72172">
        <ele>1004</ele>
        <time>2018-06-25T09:20:28.187Z</time>
      </trkpt>
      <trkpt lat="45.41916" lon="2.72149">
        <ele>1002</ele>
        <time>2018-06-25T09:20:29.187Z</time>
      </trkpt>
      <trkpt lat="45.41915" lon="2.72134">
        <ele>1002</ele>
        <time>2018-06-25T09:20:30.187Z</time>
      </trkpt>
      <trkpt lat="45.41882" lon="2.72093">
        <ele>1003</ele>
        <time>2018-06-25T09:20:31.187Z</time>
      </trkpt>
      <trkpt lat="45.41869" lon="2.72066">
        <ele>1003</ele>
        <time>2018-06-25T09:20:32.187Z</time>
      </trkpt>
      <trkpt lat="45.41859" lon="2.72025">
        <ele>1003</ele>
        <time>2018-06-25T09:20:33.187Z</time>
      </trkpt>
      <trkpt lat="45.4185" lon="2.71953">
        <ele>1001</ele>
        <time>2018-06-25T09:20:34.187Z</time>
      </trkpt>
      <trkpt lat="45.4183" lon="2.71926">
        <ele>1002</ele>
        <time>2018-06-25T09:20:35.187Z</time>
      </trkpt>
      <trkpt lat="45.41822" lon="2.71879">
        <ele>1000</ele>
        <time>2018-06-25T09:20:36.187Z</time>
      </trkpt>
      <trkpt lat="45.41813" lon="2.71859">
        <ele>999</ele>
        <time>2018-06-25T09:20:37.187Z</time>
      </trkpt>
      <trkpt lat="45.41801" lon="2.71842">
        <ele>999</ele>
        <time>2018-06-25T09:20:38.187Z</time>
      </trkpt>
      <trkpt lat="45.41762" lon="2.71802">
        <ele>999</ele>
        <time>2018-06-25T09:20:39.187Z</time>
      </trkpt>
      <trkpt lat="45.41743" lon="2.71775">
        <ele>998</ele>
        <time>2018-06-25T09:20:40.187Z</time>
      </trkpt>
      <trkpt lat="45.41624" lon="2.71568">
        <ele>994</ele>
        <time>2018-06-25T09:20:41.187Z</time>
      </trkpt>
      <trkpt lat="45.41621" lon="2.71552">
        <ele>993</ele>
        <time>2018-06-25T09:20:42.187Z</time>
      </trkpt>
      <trkpt lat="45.41621" lon="2.71534">
        <ele>993</ele>
        <time>2018-06-25T09:20:43.187Z</time>
      </trkpt>
      <trkpt lat="45.41629" lon="2.71512">
        <ele>992</ele>
        <time>2018-06-25T09:20:44.187Z</time>
      </trkpt>
      <trkpt lat="45.41682" lon="2.71436">
        <ele>992</ele>
        <time>2018-06-25T09:20:45.187Z</time>
      </trkpt>
      <trkpt lat="45.41699" lon="2.71407">
        <ele>992</ele>
        <time>2018-06-25T09:20:46.187Z</time>
      </trkpt>
      <trkpt lat="45.41705" lon="2.71389">
        <ele>992</ele>
        <time>2018-06-25T09:20:47.187Z</time>
      </trkpt>
      <trkpt lat="45.41709" lon="2.71364">
        <ele>992</ele>
        <time>2018-06-25T09:20:48.187Z</time>
      </trkpt>
      <trkpt lat="45.41705" lon="2.7134">
        <ele>993</ele>
        <time>2018-06-25T09:20:49.187Z</time>
      </trkpt>
      <trkpt lat="45.41682" lon="2.71283">
        <ele>991</ele>
        <time>2018-06-25T09:20:50.187Z</time>
      </trkpt>
      <trkpt lat="45.41683" lon="2.71282">
        <ele>991</ele>
        <time>2018-06-25T09:20:51.187Z</time>
      </trkpt>
      <trkpt lat="45.41659" lon="2.71225">
        <ele>988</ele>
        <time>2018-06-25T09:20:52.187Z</time>
      </trkpt>
      <trkpt lat="45.41652" lon="2.71196">
        <ele>985</ele>
        <time>2018-06-25T09:20:53.187Z</time>
      </trkpt>
      <trkpt lat="45.41652" lon="2.71165">
        <ele>982</ele>
        <time>2018-06-25T09:20:54.187Z</time>
      </trkpt>
      <trkpt lat="45.41681" lon="2.70973">
        <ele>981</ele>
        <time>2018-06-25T09:20:55.187Z</time>
      </trkpt>
      <trkpt lat="45.41683" lon="2.70946">
        <ele>981</ele>
        <time>2018-06-25T09:20:56.187Z</time>
      </trkpt>
      <trkpt lat="45.41677" lon="2.70897">
        <ele>982</ele>
        <time>2018-06-25T09:20:57.187Z</time>
      </trkpt>
      <trkpt lat="45.41663" lon="2.70841">
        <ele>983</ele>
        <time>2018-06-25T09:20:58.187Z</time>
      </trkpt>
      <trkpt lat="45.41659" lon="2.70808">
        <ele>981</ele>
        <time>2018-06-25T09:20:59.187Z</time>
      </trkpt>
      <trkpt lat="45.41663" lon="2.70762">
        <ele>978</ele>
        <time>2018-06-25T09:21:00.187Z</time>
      </trkpt>
      <trkpt lat="45.41678" lon="2.70724">
        <ele>977</ele>
        <time>2018-06-25T09:21:01.187Z</time>
      </trkpt>
      <trkpt lat="45.41732" lon="2.70647">
        <ele>977</ele>
        <time>2018-06-25T09:21:02.187Z</time>
      </trkpt>
      <trkpt lat="45.41741" lon="2.70628">
        <ele>976</ele>
        <time>2018-06-25T09:21:03.187Z</time>
      </trkpt>
      <trkpt lat="45.41743" lon="2.70595">
        <ele>973</ele>
        <time>2018-06-25T09:21:04.187Z</time>
      </trkpt>
      <trkpt lat="45.41734" lon="2.70575">
        <ele>971</ele>
        <time>2018-06-25T09:21:05.187Z</time>
      </trkpt>
      <trkpt lat="45.41695" lon="2.70538">
        <ele>967</ele>
        <time>2018-06-25T09:21:06.187Z</time>
      </trkpt>
      <trkpt lat="45.41688" lon="2.70521">
        <ele>966</ele>
        <time>2018-06-25T09:21:07.187Z</time>
      </trkpt>
      <trkpt lat="45.41689" lon="2.705">
        <ele>964</ele>
        <time>2018-06-25T09:21:08.187Z</time>
      </trkpt>
      <trkpt lat="45.41705" lon="2.70462">
        <ele>962</ele>
        <time>2018-06-25T09:21:09.187Z</time>
      </trkpt>
      <trkpt lat="45.4171" lon="2.70439">
        <ele>961</ele>
        <time>2018-06-25T09:21:10.187Z</time>
      </trkpt>
      <trkpt lat="45.41708" lon="2.70413">
        <ele>960</ele>
        <time>2018-06-25T09:21:11.187Z</time>
      </trkpt>
      <trkpt lat="45.41692" lon="2.70351">
        <ele>956</ele>
        <time>2018-06-25T09:21:12.187Z</time>
      </trkpt>
      <trkpt lat="45.41676" lon="2.70319">
        <ele>954</ele>
        <time>2018-06-25T09:21:13.187Z</time>
      </trkpt>
      <trkpt lat="45.41643" lon="2.70279">
        <ele>951</ele>
        <time>2018-06-25T09:21:14.187Z</time>
      </trkpt>
      <trkpt lat="45.41625" lon="2.70272">
        <ele>951</ele>
        <time>2018-06-25T09:21:15.187Z</time>
      </trkpt>
      <trkpt lat="45.41595" lon="2.70269">
        <ele>952</ele>
        <time>2018-06-25T09:21:16.187Z</time>
      </trkpt>
      <trkpt lat="45.41584" lon="2.70259">
        <ele>952</ele>
        <time>2018-06-25T09:21:17.187Z</time>
      </trkpt>
      <trkpt lat="45.41581" lon="2.70248">
        <ele>951</ele>
        <time>2018-06-25T09:21:18.187Z</time>
      </trkpt>
      <trkpt lat="45.41581" lon="2.7023">
        <ele>950</ele>
        <time>2018-06-25T09:21:19.187Z</time>
      </trkpt>
      <trkpt lat="45.4159" lon="2.70216">
        <ele>949</ele>
        <time>2018-06-25T09:21:20.187Z</time>
      </trkpt>
      <trkpt lat="45.41634" lon="2.70172">
        <ele>945</ele>
        <time>2018-06-25T09:21:21.187Z</time>
      </trkpt>
      <trkpt lat="45.41644" lon="2.70154">
        <ele>945</ele>
        <time>2018-06-25T09:21:22.187Z</time>
      </trkpt>
      <trkpt lat="45.41647" lon="2.70138">
        <ele>945</ele>
        <time>2018-06-25T09:21:23.187Z</time>
      </trkpt>
      <trkpt lat="45.41647" lon="2.70121">
        <ele>946</ele>
        <time>2018-06-25T09:21:24.187Z</time>
      </trkpt>
      <trkpt lat="45.41644" lon="2.70101">
        <ele>947</ele>
        <time>2018-06-25T09:21:25.187Z</time>
      </trkpt>
      <trkpt lat="45.41637" lon="2.70079">
        <ele>947</ele>
        <time>2018-06-25T09:21:26.187Z</time>
      </trkpt>
      <trkpt lat="45.4158" lon="2.69965">
        <ele>949</ele>
        <time>2018-06-25T09:21:27.187Z</time>
      </trkpt>
      <trkpt lat="45.41567" lon="2.69948">
        <ele>949</ele>
        <time>2018-06-25T09:21:28.187Z</time>
      </trkpt>
      <trkpt lat="45.41522" lon="2.69907">
        <ele>950</ele>
        <time>2018-06-25T09:21:29.187Z</time>
      </trkpt>
      <trkpt lat="45.41505" lon="2.69887">
        <ele>950</ele>
        <time>2018-06-25T09:21:30.187Z</time>
      </trkpt>
      <trkpt lat="45.41469" lon="2.69827">
        <ele>951</ele>
        <time>2018-06-25T09:21:31.187Z</time>
      </trkpt>
      <trkpt lat="45.41462" lon="2.6981">
        <ele>951</ele>
        <time>2018-06-25T09:21:32.187Z</time>
      </trkpt>
      <trkpt lat="45.41461" lon="2.69793">
        <ele>952</ele>
        <time>2018-06-25T09:21:33.187Z</time>
      </trkpt>
      <trkpt lat="45.41466" lon="2.69781">
        <ele>953</ele>
        <time>2018-06-25T09:21:34.187Z</time>
      </trkpt>
      <trkpt lat="45.41482" lon="2.69754">
        <ele>954</ele>
        <time>2018-06-25T09:21:35.187Z</time>
      </trkpt>
      <trkpt lat="45.41486" lon="2.69732">
        <ele>953</ele>
        <time>2018-06-25T09:21:36.187Z</time>
      </trkpt>
      <trkpt lat="45.41481" lon="2.69712">
        <ele>954</ele>
        <time>2018-06-25T09:21:37.187Z</time>
      </trkpt>
      <trkpt lat="45.41474" lon="2.69701">
        <ele>954</ele>
        <time>2018-06-25T09:21:38.187Z</time>
      </trkpt>
      <trkpt lat="45.4146" lon="2.69689">
        <ele>955</ele>
        <time>2018-06-25T09:21:39.187Z</time>
      </trkpt>
      <trkpt lat="45.41423" lon="2.69676">
        <ele>957</ele>
        <time>2018-06-25T09:21:40.187Z</time>
      </trkpt>
      <trkpt lat="45.41395" lon="2.69659">
        <ele>959</ele>
        <time>2018-06-25T09:21:41.187Z</time>
      </trkpt>
      <trkpt lat="45.41385" lon="2.69642">
        <ele>960</ele>
        <time>2018-06-25T09:21:42.187Z</time>
      </trkpt>
      <trkpt lat="45.41382" lon="2.69625">
        <ele>960</ele>
        <time>2018-06-25T09:21:43.187Z</time>
      </trkpt>
      <trkpt lat="45.41385" lon="2.69603">
        <ele>961</ele>
        <time>2018-06-25T09:21:44.187Z</time>
      </trkpt>
      <trkpt lat="45.41393" lon="2.69591">
        <ele>961</ele>
        <time>2018-06-25T09:21:45.187Z</time>
      </trkpt>
      <trkpt lat="45.41404" lon="2.69582">
        <ele>960</ele>
        <time>2018-06-25T09:21:46.187Z</time>
      </trkpt>
      <trkpt lat="45.41456" lon="2.69561">
        <ele>956</ele>
        <time>2018-06-25T09:21:47.187Z</time>
      </trkpt>
      <trkpt lat="45.41529" lon="2.6954">
        <ele>950</ele>
        <time>2018-06-25T09:21:48.187Z</time>
      </trkpt>
      <trkpt lat="45.4156" lon="2.69543">
        <ele>948</ele>
        <time>2018-06-25T09:21:49.187Z</time>
      </trkpt>
      <trkpt lat="45.41577" lon="2.69539">
        <ele>947</ele>
        <time>2018-06-25T09:21:50.187Z</time>
      </trkpt>
      <trkpt lat="45.41608" lon="2.6952">
        <ele>947</ele>
        <time>2018-06-25T09:21:51.187Z</time>
      </trkpt>
      <trkpt lat="45.41624" lon="2.69502">
        <ele>946</ele>
        <time>2018-06-25T09:21:52.187Z</time>
      </trkpt>
      <trkpt lat="45.41628" lon="2.6949">
        <ele>946</ele>
        <time>2018-06-25T09:21:53.187Z</time>
      </trkpt>
      <trkpt lat="45.41628" lon="2.69479">
        <ele>946</ele>
        <time>2018-06-25T09:21:54.187Z</time>
      </trkpt>
      <trkpt lat="45.41625" lon="2.69467">
        <ele>946</ele>
        <time>2018-06-25T09:21:55.187Z</time>
      </trkpt>
      <trkpt lat="45.4159" lon="2.69392">
        <ele>948</ele>
        <time>2018-06-25T09:21:56.187Z</time>
      </trkpt>
      <trkpt lat="45.41458" lon="2.69256">
        <ele>955</ele>
        <time>2018-06-25T09:21:57.187Z</time>
      </trkpt>
      <trkpt lat="45.41405" lon="2.69215">
        <ele>955</ele>
        <time>2018-06-25T09:21:58.187Z</time>
      </trkpt>
      <trkpt lat="45.41366" lon="2.69192">
        <ele>954</ele>
        <time>2018-06-25T09:21:59.187Z</time>
      </trkpt>
      <trkpt lat="45.41351" lon="2.69178">
        <ele>952</ele>
        <time>2018-06-25T09:22:00.187Z</time>
      </trkpt>
      <trkpt lat="45.4134" lon="2.69165">
        <ele>951</ele>
        <time>2018-06-25T09:22:01.187Z</time>
      </trkpt>
      <trkpt lat="45.41329" lon="2.69143">
        <ele>950</ele>
        <time>2018-06-25T09:22:02.187Z</time>
      </trkpt>
      <trkpt lat="45.4131" lon="2.69092">
        <ele>949</ele>
        <time>2018-06-25T09:22:03.187Z</time>
      </trkpt>
      <trkpt lat="45.41288" lon="2.69046">
        <ele>949</ele>
        <time>2018-06-25T09:22:04.187Z</time>
      </trkpt>
      <trkpt lat="45.41263" lon="2.6901">
        <ele>947</ele>
        <time>2018-06-25T09:22:05.187Z</time>
      </trkpt>
      <trkpt lat="45.41185" lon="2.6896">
        <ele>940</ele>
        <time>2018-06-25T09:22:06.187Z</time>
      </trkpt>
      <trkpt lat="45.41156" lon="2.6895">
        <ele>937</ele>
        <time>2018-06-25T09:22:07.187Z</time>
      </trkpt>
      <trkpt lat="45.41138" lon="2.6893">
        <ele>936</ele>
        <time>2018-06-25T09:22:08.187Z</time>
      </trkpt>
      <trkpt lat="45.41104" lon="2.68882">
        <ele>935</ele>
        <time>2018-06-25T09:22:09.187Z</time>
      </trkpt>
      <trkpt lat="45.41082" lon="2.6886">
        <ele>934</ele>
        <time>2018-06-25T09:22:10.187Z</time>
      </trkpt>
      <trkpt lat="45.41033" lon="2.68825">
        <ele>927</ele>
        <time>2018-06-25T09:22:11.187Z</time>
      </trkpt>
      <trkpt lat="45.41002" lon="2.68787">
        <ele>923</ele>
        <time>2018-06-25T09:22:12.187Z</time>
      </trkpt>
      <trkpt lat="45.40955" lon="2.68711">
        <ele>918</ele>
        <time>2018-06-25T09:22:13.187Z</time>
      </trkpt>
      <trkpt lat="45.40943" lon="2.687">
        <ele>916</ele>
        <time>2018-06-25T09:22:14.187Z</time>
      </trkpt>
      <trkpt lat="45.4092" lon="2.68686">
        <ele>913</ele>
        <time>2018-06-25T09:22:15.187Z</time>
      </trkpt>
      <trkpt lat="45.40907" lon="2.68675">
        <ele>912</ele>
        <time>2018-06-25T09:22:16.187Z</time>
      </trkpt>
      <trkpt lat="45.40888" lon="2.68648">
        <ele>911</ele>
        <time>2018-06-25T09:22:17.187Z</time>
      </trkpt>
      <trkpt lat="45.40874" lon="2.68621">
        <ele>910</ele>
        <time>2018-06-25T09:22:18.187Z</time>
      </trkpt>
      <trkpt lat="45.40827" lon="2.68596">
        <ele>906</ele>
        <time>2018-06-25T09:22:19.187Z</time>
      </trkpt>
      <trkpt lat="45.40795" lon="2.68591">
        <ele>903</ele>
        <time>2018-06-25T09:22:20.187Z</time>
      </trkpt>
      <trkpt lat="45.40781" lon="2.68581">
        <ele>902</ele>
        <time>2018-06-25T09:22:21.187Z</time>
      </trkpt>
      <trkpt lat="45.40712" lon="2.68481">
        <ele>894</ele>
        <time>2018-06-25T09:22:22.187Z</time>
      </trkpt>
      <trkpt lat="45.40703" lon="2.68459">
        <ele>892</ele>
        <time>2018-06-25T09:22:23.187Z</time>
      </trkpt>
      <trkpt lat="45.40698" lon="2.68416">
        <ele>891</ele>
        <time>2018-06-25T09:22:24.187Z</time>
      </trkpt>
      <trkpt lat="45.40692" lon="2.68396">
        <ele>890</ele>
        <time>2018-06-25T09:22:25.187Z</time>
      </trkpt>
      <trkpt lat="45.40676" lon="2.68361">
        <ele>887</ele>
        <time>2018-06-25T09:22:26.187Z</time>
      </trkpt>
      <trkpt lat="45.40655" lon="2.68307">
        <ele>884</ele>
        <time>2018-06-25T09:22:27.187Z</time>
      </trkpt>
      <trkpt lat="45.40645" lon="2.68292">
        <ele>882</ele>
        <time>2018-06-25T09:22:28.187Z</time>
      </trkpt>
      <trkpt lat="45.40635" lon="2.68283">
        <ele>881</ele>
        <time>2018-06-25T09:22:29.187Z</time>
      </trkpt>
      <trkpt lat="45.4053" lon="2.68212">
        <ele>867</ele>
        <time>2018-06-25T09:22:30.187Z</time>
      </trkpt>
      <trkpt lat="45.40512" lon="2.68179">
        <ele>866</ele>
        <time>2018-06-25T09:22:31.187Z</time>
      </trkpt>
      <trkpt lat="45.40496" lon="2.68144">
        <ele>865</ele>
        <time>2018-06-25T09:22:32.187Z</time>
      </trkpt>
      <trkpt lat="45.40477" lon="2.68125">
        <ele>865</ele>
        <time>2018-06-25T09:22:33.187Z</time>
      </trkpt>
      <trkpt lat="45.40425" lon="2.68105">
        <ele>865</ele>
        <time>2018-06-25T09:22:34.187Z</time>
      </trkpt>
      <trkpt lat="45.40411" lon="2.68089">
        <ele>865</ele>
        <time>2018-06-25T09:22:35.187Z</time>
      </trkpt>
      <trkpt lat="45.40407" lon="2.68062">
        <ele>865</ele>
        <time>2018-06-25T09:22:36.187Z</time>
      </trkpt>
      <trkpt lat="45.40415" lon="2.68018">
        <ele>867</ele>
        <time>2018-06-25T09:22:37.187Z</time>
      </trkpt>
      <trkpt lat="45.40417" lon="2.67987">
        <ele>868</ele>
        <time>2018-06-25T09:22:38.187Z</time>
      </trkpt>
      <trkpt lat="45.40417" lon="2.6796">
        <ele>868</ele>
        <time>2018-06-25T09:22:39.187Z</time>
      </trkpt>
      <trkpt lat="45.40413" lon="2.67939">
        <ele>868</ele>
        <time>2018-06-25T09:22:40.187Z</time>
      </trkpt>
      <trkpt lat="45.40404" lon="2.67922">
        <ele>867</ele>
        <time>2018-06-25T09:22:41.187Z</time>
      </trkpt>
      <trkpt lat="45.40389" lon="2.679">
        <ele>867</ele>
        <time>2018-06-25T09:22:42.187Z</time>
      </trkpt>
      <trkpt lat="45.40294" lon="2.67807">
        <ele>867</ele>
        <time>2018-06-25T09:22:43.187Z</time>
      </trkpt>
      <trkpt lat="45.4028" lon="2.67802">
        <ele>866</ele>
        <time>2018-06-25T09:22:44.187Z</time>
      </trkpt>
      <trkpt lat="45.40267" lon="2.67806">
        <ele>866</ele>
        <time>2018-06-25T09:22:45.187Z</time>
      </trkpt>
      <trkpt lat="45.40239" lon="2.67828">
        <ele>864</ele>
        <time>2018-06-25T09:22:46.187Z</time>
      </trkpt>
      <trkpt lat="45.40224" lon="2.67831">
        <ele>864</ele>
        <time>2018-06-25T09:22:47.187Z</time>
      </trkpt>
      <trkpt lat="45.40192" lon="2.67826">
        <ele>864</ele>
        <time>2018-06-25T09:22:48.187Z</time>
      </trkpt>
      <trkpt lat="45.40174" lon="2.67816">
        <ele>865</ele>
        <time>2018-06-25T09:22:49.187Z</time>
      </trkpt>
      <trkpt lat="45.40163" lon="2.67799">
        <ele>866</ele>
        <time>2018-06-25T09:22:50.187Z</time>
      </trkpt>
      <trkpt lat="45.40138" lon="2.67739">
        <ele>869</ele>
        <time>2018-06-25T09:22:51.187Z</time>
      </trkpt>
      <trkpt lat="45.4012" lon="2.67686">
        <ele>870</ele>
        <time>2018-06-25T09:22:52.187Z</time>
      </trkpt>
      <trkpt lat="45.40119" lon="2.67628">
        <ele>870</ele>
        <time>2018-06-25T09:22:53.187Z</time>
      </trkpt>
      <trkpt lat="45.40121" lon="2.67604">
        <ele>869</ele>
        <time>2018-06-25T09:22:54.187Z</time>
      </trkpt>
      <trkpt lat="45.40104" lon="2.67556">
        <ele>868</ele>
        <time>2018-06-25T09:22:55.187Z</time>
      </trkpt>
      <trkpt lat="45.401" lon="2.67538">
        <ele>866</ele>
        <time>2018-06-25T09:22:56.187Z</time>
      </trkpt>
      <trkpt lat="45.40099" lon="2.67522">
        <ele>865</ele>
        <time>2018-06-25T09:22:57.187Z</time>
      </trkpt>
      <trkpt lat="45.40104" lon="2.67499">
        <ele>864</ele>
        <time>2018-06-25T09:22:58.187Z</time>
      </trkpt>
      <trkpt lat="45.40118" lon="2.67469">
        <ele>863</ele>
        <time>2018-06-25T09:22:59.187Z</time>
      </trkpt>
      <trkpt lat="45.40139" lon="2.67446">
        <ele>864</ele>
        <time>2018-06-25T09:23:00.187Z</time>
      </trkpt>
      <trkpt lat="45.4014" lon="2.67446">
        <ele>864</ele>
        <time>2018-06-25T09:23:01.187Z</time>
      </trkpt>
      <trkpt lat="45.40264" lon="2.67334">
        <ele>864</ele>
        <time>2018-06-25T09:23:02.187Z</time>
      </trkpt>
      <trkpt lat="45.40296" lon="2.6732">
        <ele>864</ele>
        <time>2018-06-25T09:23:03.187Z</time>
      </trkpt>
      <trkpt lat="45.4033" lon="2.67324">
        <ele>865</ele>
        <time>2018-06-25T09:23:04.187Z</time>
      </trkpt>
      <trkpt lat="45.40358" lon="2.67317">
        <ele>866</ele>
        <time>2018-06-25T09:23:05.187Z</time>
      </trkpt>
      <trkpt lat="45.4038" lon="2.67281">
        <ele>865</ele>
        <time>2018-06-25T09:23:06.187Z</time>
      </trkpt>
      <trkpt lat="45.40438" lon="2.67129">
        <ele>860</ele>
        <time>2018-06-25T09:23:07.187Z</time>
      </trkpt>
      <trkpt lat="45.4045" lon="2.6708">
        <ele>860</ele>
        <time>2018-06-25T09:23:08.187Z</time>
      </trkpt>
      <trkpt lat="45.40448" lon="2.66962">
        <ele>868</ele>
        <time>2018-06-25T09:23:09.187Z</time>
      </trkpt>
      <trkpt lat="45.40433" lon="2.6686">
        <ele>878</ele>
        <time>2018-06-25T09:23:10.187Z</time>
      </trkpt>
      <trkpt lat="45.40416" lon="2.66774">
        <ele>887</ele>
        <time>2018-06-25T09:23:11.187Z</time>
      </trkpt>
      <trkpt lat="45.40412" lon="2.66714">
        <ele>889</ele>
        <time>2018-06-25T09:23:12.187Z</time>
      </trkpt>
      <trkpt lat="45.40418" lon="2.6666">
        <ele>888</ele>
        <time>2018-06-25T09:23:13.187Z</time>
      </trkpt>
      <trkpt lat="45.40462" lon="2.66518">
        <ele>886</ele>
        <time>2018-06-25T09:23:14.187Z</time>
      </trkpt>
      <trkpt lat="45.40467" lon="2.6647">
        <ele>883</ele>
        <time>2018-06-25T09:23:15.187Z</time>
      </trkpt>
      <trkpt lat="45.40451" lon="2.66277">
        <ele>869</ele>
        <time>2018-06-25T09:23:16.187Z</time>
      </trkpt>
      <trkpt lat="45.40451" lon="2.66222">
        <ele>868</ele>
        <time>2018-06-25T09:23:17.187Z</time>
      </trkpt>
      <trkpt lat="45.40459" lon="2.66171">
        <ele>870</ele>
        <time>2018-06-25T09:23:18.187Z</time>
      </trkpt>
      <trkpt lat="45.40454" lon="2.66102">
        <ele>870</ele>
        <time>2018-06-25T09:23:19.187Z</time>
      </trkpt>
      <trkpt lat="45.40454" lon="2.66061">
        <ele>869</ele>
        <time>2018-06-25T09:23:20.187Z</time>
      </trkpt>
      <trkpt lat="45.40461" lon="2.66015">
        <ele>868</ele>
        <time>2018-06-25T09:23:21.187Z</time>
      </trkpt>
      <trkpt lat="45.4047" lon="2.65983">
        <ele>867</ele>
        <time>2018-06-25T09:23:22.187Z</time>
      </trkpt>
      <trkpt lat="45.40494" lon="2.65939">
        <ele>866</ele>
        <time>2018-06-25T09:23:23.187Z</time>
      </trkpt>
      <trkpt lat="45.40503" lon="2.65915">
        <ele>864</ele>
        <time>2018-06-25T09:23:24.187Z</time>
      </trkpt>
      <trkpt lat="45.40506" lon="2.65888">
        <ele>862</ele>
        <time>2018-06-25T09:23:25.187Z</time>
      </trkpt>
      <trkpt lat="45.40484" lon="2.65794">
        <ele>854</ele>
        <time>2018-06-25T09:23:26.187Z</time>
      </trkpt>
      <trkpt lat="45.40488" lon="2.65704">
        <ele>851</ele>
        <time>2018-06-25T09:23:27.187Z</time>
      </trkpt>
      <trkpt lat="45.40488" lon="2.65659">
        <ele>850</ele>
        <time>2018-06-25T09:23:28.187Z</time>
      </trkpt>
      <trkpt lat="45.40456" lon="2.65505">
        <ele>853</ele>
        <time>2018-06-25T09:23:29.187Z</time>
      </trkpt>
      <trkpt lat="45.40451" lon="2.65489">
        <ele>852</ele>
        <time>2018-06-25T09:23:30.187Z</time>
      </trkpt>
      <trkpt lat="45.40443" lon="2.65476">
        <ele>852</ele>
        <time>2018-06-25T09:23:31.187Z</time>
      </trkpt>
      <trkpt lat="45.40432" lon="2.65466">
        <ele>852</ele>
        <time>2018-06-25T09:23:32.187Z</time>
      </trkpt>
      <trkpt lat="45.40368" lon="2.65455">
        <ele>855</ele>
        <time>2018-06-25T09:23:33.187Z</time>
      </trkpt>
      <trkpt lat="45.40349" lon="2.65449">
        <ele>856</ele>
        <time>2018-06-25T09:23:34.187Z</time>
      </trkpt>
      <trkpt lat="45.40248" lon="2.65382">
        <ele>857</ele>
        <time>2018-06-25T09:23:35.187Z</time>
      </trkpt>
      <trkpt lat="45.40167" lon="2.65333">
        <ele>863</ele>
        <time>2018-06-25T09:23:36.187Z</time>
      </trkpt>
      <trkpt lat="45.40152" lon="2.65318">
        <ele>863</ele>
        <time>2018-06-25T09:23:37.187Z</time>
      </trkpt>
      <trkpt lat="45.40133" lon="2.65288">
        <ele>862</ele>
        <time>2018-06-25T09:23:38.187Z</time>
      </trkpt>
      <trkpt lat="45.40117" lon="2.65247">
        <ele>860</ele>
        <time>2018-06-25T09:23:39.187Z</time>
      </trkpt>
      <trkpt lat="45.40112" lon="2.65225">
        <ele>860</ele>
        <time>2018-06-25T09:23:40.187Z</time>
      </trkpt>
      <trkpt lat="45.40112" lon="2.65155">
        <ele>858</ele>
        <time>2018-06-25T09:23:41.187Z</time>
      </trkpt>
      <trkpt lat="45.40108" lon="2.65133">
        <ele>855</ele>
        <time>2018-06-25T09:23:42.187Z</time>
      </trkpt>
      <trkpt lat="45.40098" lon="2.65101">
        <ele>851</ele>
        <time>2018-06-25T09:23:43.187Z</time>
      </trkpt>
      <trkpt lat="45.40083" lon="2.65072">
        <ele>849</ele>
        <time>2018-06-25T09:23:44.187Z</time>
      </trkpt>
      <trkpt lat="45.40058" lon="2.6504">
        <ele>848</ele>
        <time>2018-06-25T09:23:45.187Z</time>
      </trkpt>
      <trkpt lat="45.39953" lon="2.64965">
        <ele>852</ele>
        <time>2018-06-25T09:23:46.187Z</time>
      </trkpt>
      <trkpt lat="45.39946" lon="2.64948">
        <ele>852</ele>
        <time>2018-06-25T09:23:47.187Z</time>
      </trkpt>
      <trkpt lat="45.39911" lon="2.64818">
        <ele>851</ele>
        <time>2018-06-25T09:23:48.187Z</time>
      </trkpt>
      <trkpt lat="45.3985" lon="2.64749">
        <ele>850</ele>
        <time>2018-06-25T09:23:49.187Z</time>
      </trkpt>
      <trkpt lat="45.39834" lon="2.64717">
        <ele>850</ele>
        <time>2018-06-25T09:23:50.187Z</time>
      </trkpt>
      <trkpt lat="45.3983" lon="2.64675">
        <ele>850</ele>
        <time>2018-06-25T09:23:51.187Z</time>
      </trkpt>
      <trkpt lat="45.39834" lon="2.64594">
        <ele>850</ele>
        <time>2018-06-25T09:23:52.187Z</time>
      </trkpt>
      <trkpt lat="45.39785" lon="2.64307">
        <ele>846</ele>
        <time>2018-06-25T09:23:53.187Z</time>
      </trkpt>
      <trkpt lat="45.39771" lon="2.64266">
        <ele>848</ele>
        <time>2018-06-25T09:23:54.187Z</time>
      </trkpt>
      <trkpt lat="45.39751" lon="2.64245">
        <ele>848</ele>
        <time>2018-06-25T09:23:55.187Z</time>
      </trkpt>
      <trkpt lat="45.39656" lon="2.64184">
        <ele>842</ele>
        <time>2018-06-25T09:23:56.187Z</time>
      </trkpt>
      <trkpt lat="45.39637" lon="2.64154">
        <ele>841</ele>
        <time>2018-06-25T09:23:57.187Z</time>
      </trkpt>
      <trkpt lat="45.39583" lon="2.63941">
        <ele>833</ele>
        <time>2018-06-25T09:23:58.187Z</time>
      </trkpt>
      <trkpt lat="45.39583" lon="2.63907">
        <ele>833</ele>
        <time>2018-06-25T09:23:59.187Z</time>
      </trkpt>
      <trkpt lat="45.39588" lon="2.63875">
        <ele>835</ele>
        <time>2018-06-25T09:24:00.187Z</time>
      </trkpt>
      <trkpt lat="45.39636" lon="2.6379">
        <ele>832</ele>
        <time>2018-06-25T09:24:01.187Z</time>
      </trkpt>
      <trkpt lat="45.39645" lon="2.63741">
        <ele>832</ele>
        <time>2018-06-25T09:24:02.187Z</time>
      </trkpt>
      <trkpt lat="45.39639" lon="2.63684">
        <ele>835</ele>
        <time>2018-06-25T09:24:03.187Z</time>
      </trkpt>
      <trkpt lat="45.39639" lon="2.63626">
        <ele>835</ele>
        <time>2018-06-25T09:24:04.187Z</time>
      </trkpt>
      <trkpt lat="45.39649" lon="2.63555">
        <ele>835</ele>
        <time>2018-06-25T09:24:05.187Z</time>
      </trkpt>
      <trkpt lat="45.39648" lon="2.63487">
        <ele>835</ele>
        <time>2018-06-25T09:24:06.187Z</time>
      </trkpt>
      <trkpt lat="45.39631" lon="2.63444">
        <ele>834</ele>
        <time>2018-06-25T09:24:07.187Z</time>
      </trkpt>
      <trkpt lat="45.39606" lon="2.63411">
        <ele>830</ele>
        <time>2018-06-25T09:24:08.187Z</time>
      </trkpt>
      <trkpt lat="45.39494" lon="2.63359">
        <ele>825</ele>
        <time>2018-06-25T09:24:09.187Z</time>
      </trkpt>
      <trkpt lat="45.39417" lon="2.63282">
        <ele>820</ele>
        <time>2018-06-25T09:24:10.187Z</time>
      </trkpt>
      <trkpt lat="45.39394" lon="2.63239">
        <ele>818</ele>
        <time>2018-06-25T09:24:11.187Z</time>
      </trkpt>
      <trkpt lat="45.39393" lon="2.63178">
        <ele>817</ele>
        <time>2018-06-25T09:24:12.187Z</time>
      </trkpt>
      <trkpt lat="45.3942" lon="2.63126">
        <ele>818</ele>
        <time>2018-06-25T09:24:13.187Z</time>
      </trkpt>
      <trkpt lat="45.3945" lon="2.63085">
        <ele>816</ele>
        <time>2018-06-25T09:24:14.187Z</time>
      </trkpt>
      <trkpt lat="45.39474" lon="2.63064">
        <ele>813</ele>
        <time>2018-06-25T09:24:15.187Z</time>
      </trkpt>
      <trkpt lat="45.39513" lon="2.6301">
        <ele>808</ele>
        <time>2018-06-25T09:24:16.187Z</time>
      </trkpt>
      <trkpt lat="45.39523" lon="2.62947">
        <ele>805</ele>
        <time>2018-06-25T09:24:17.187Z</time>
      </trkpt>
      <trkpt lat="45.3952" lon="2.62893">
        <ele>803</ele>
        <time>2018-06-25T09:24:18.187Z</time>
      </trkpt>
      <trkpt lat="45.3951" lon="2.62837">
        <ele>803</ele>
        <time>2018-06-25T09:24:19.187Z</time>
      </trkpt>
      <trkpt lat="45.39488" lon="2.62735">
        <ele>798</ele>
        <time>2018-06-25T09:24:20.187Z</time>
      </trkpt>
      <trkpt lat="45.39518" lon="2.62548">
        <ele>788</ele>
        <time>2018-06-25T09:24:21.187Z</time>
      </trkpt>
      <trkpt lat="45.39573" lon="2.62325">
        <ele>783</ele>
        <time>2018-06-25T09:24:22.187Z</time>
      </trkpt>
      <trkpt lat="45.39758" lon="2.61638">
        <ele>782</ele>
        <time>2018-06-25T09:24:23.187Z</time>
      </trkpt>
      <trkpt lat="45.39769" lon="2.61477">
        <ele>775</ele>
        <time>2018-06-25T09:24:24.187Z</time>
      </trkpt>
      <trkpt lat="45.39852" lon="2.61327">
        <ele>769</ele>
        <time>2018-06-25T09:24:25.187Z</time>
      </trkpt>
      <trkpt lat="45.39886" lon="2.6122">
        <ele>760</ele>
        <time>2018-06-25T09:24:26.187Z</time>
      </trkpt>
      <trkpt lat="45.39967" lon="2.60883">
        <ele>752</ele>
        <time>2018-06-25T09:24:27.187Z</time>
      </trkpt>
      <trkpt lat="45.40006" lon="2.6079">
        <ele>755</ele>
        <time>2018-06-25T09:24:28.187Z</time>
      </trkpt>
      <trkpt lat="45.40014" lon="2.60731">
        <ele>757</ele>
        <time>2018-06-25T09:24:29.187Z</time>
      </trkpt>
      <trkpt lat="45.40014" lon="2.60687">
        <ele>758</ele>
        <time>2018-06-25T09:24:30.187Z</time>
      </trkpt>
      <trkpt lat="45.39938" lon="2.60491">
        <ele>765</ele>
        <time>2018-06-25T09:24:31.187Z</time>
      </trkpt>
      <trkpt lat="45.39927" lon="2.6045">
        <ele>765</ele>
        <time>2018-06-25T09:24:32.187Z</time>
      </trkpt>
      <trkpt lat="45.39929" lon="2.60293">
        <ele>764</ele>
        <time>2018-06-25T09:24:33.187Z</time>
      </trkpt>
      <trkpt lat="45.39887" lon="2.59996">
        <ele>766</ele>
        <time>2018-06-25T09:24:34.187Z</time>
      </trkpt>
      <trkpt lat="45.39844" lon="2.59844">
        <ele>767</ele>
        <time>2018-06-25T09:24:35.187Z</time>
      </trkpt>
      <trkpt lat="45.39832" lon="2.59791">
        <ele>765</ele>
        <time>2018-06-25T09:24:36.187Z</time>
      </trkpt>
      <trkpt lat="45.39838" lon="2.59637">
        <ele>760</ele>
        <time>2018-06-25T09:24:37.187Z</time>
      </trkpt>
      <trkpt lat="45.39825" lon="2.59591">
        <ele>758</ele>
        <time>2018-06-25T09:24:38.187Z</time>
      </trkpt>
      <trkpt lat="45.39789" lon="2.59541">
        <ele>751</ele>
        <time>2018-06-25T09:24:39.187Z</time>
      </trkpt>
      <trkpt lat="45.397" lon="2.59488">
        <ele>737</ele>
        <time>2018-06-25T09:24:40.187Z</time>
      </trkpt>
      <trkpt lat="45.39677" lon="2.5945">
        <ele>737</ele>
        <time>2018-06-25T09:24:41.187Z</time>
      </trkpt>
      <trkpt lat="45.39624" lon="2.59311">
        <ele>735</ele>
        <time>2018-06-25T09:24:42.187Z</time>
      </trkpt>
      <trkpt lat="45.39606" lon="2.59276">
        <ele>730</ele>
        <time>2018-06-25T09:24:43.187Z</time>
      </trkpt>
      <trkpt lat="45.39578" lon="2.59239">
        <ele>724</ele>
        <time>2018-06-25T09:24:44.187Z</time>
      </trkpt>
      <trkpt lat="45.3955" lon="2.59212">
        <ele>723</ele>
        <time>2018-06-25T09:24:45.187Z</time>
      </trkpt>
      <trkpt lat="45.39474" lon="2.59164">
        <ele>726</ele>
        <time>2018-06-25T09:24:46.187Z</time>
      </trkpt>
      <trkpt lat="45.39445" lon="2.5909">
        <ele>723</ele>
        <time>2018-06-25T09:24:47.187Z</time>
      </trkpt>
      <trkpt lat="45.39438" lon="2.59022">
        <ele>719</ele>
        <time>2018-06-25T09:24:48.187Z</time>
      </trkpt>
      <trkpt lat="45.39472" lon="2.58908">
        <ele>700</ele>
        <time>2018-06-25T09:24:49.187Z</time>
      </trkpt>
      <trkpt lat="45.39461" lon="2.58857">
        <ele>697</ele>
        <time>2018-06-25T09:24:50.187Z</time>
      </trkpt>
      <trkpt lat="45.39447" lon="2.58841">
        <ele>699</ele>
        <time>2018-06-25T09:24:51.187Z</time>
      </trkpt>
      <trkpt lat="45.39355" lon="2.58781">
        <ele>705</ele>
        <time>2018-06-25T09:24:52.187Z</time>
      </trkpt>
      <trkpt lat="45.39349" lon="2.58764">
        <ele>704</ele>
        <time>2018-06-25T09:24:53.187Z</time>
      </trkpt>
      <trkpt lat="45.3936" lon="2.58749">
        <ele>699</ele>
        <time>2018-06-25T09:24:54.187Z</time>
      </trkpt>
      <trkpt lat="45.39418" lon="2.58774">
        <ele>691</ele>
        <time>2018-06-25T09:24:55.187Z</time>
      </trkpt>
      <trkpt lat="45.39489" lon="2.58821">
        <ele>686</ele>
        <time>2018-06-25T09:24:56.187Z</time>
      </trkpt>
      <trkpt lat="45.39532" lon="2.58878">
        <ele>680</ele>
        <time>2018-06-25T09:24:57.187Z</time>
      </trkpt>
      <trkpt lat="45.39543" lon="2.58913">
        <ele>679</ele>
        <time>2018-06-25T09:24:58.187Z</time>
      </trkpt>
      <trkpt lat="45.39546" lon="2.59028">
        <ele>680</ele>
        <time>2018-06-25T09:24:59.187Z</time>
      </trkpt>
      <trkpt lat="45.39565" lon="2.59065">
        <ele>681</ele>
        <time>2018-06-25T09:25:00.187Z</time>
      </trkpt>
      <trkpt lat="45.39582" lon="2.5907">
        <ele>678</ele>
        <time>2018-06-25T09:25:01.187Z</time>
      </trkpt>
      <trkpt lat="45.39599" lon="2.59061">
        <ele>681</ele>
        <time>2018-06-25T09:25:02.187Z</time>
      </trkpt>
      <trkpt lat="45.3961" lon="2.59028">
        <ele>679</ele>
        <time>2018-06-25T09:25:03.187Z</time>
      </trkpt>
      <trkpt lat="45.39611" lon="2.589">
        <ele>671</ele>
        <time>2018-06-25T09:25:04.187Z</time>
      </trkpt>
      <trkpt lat="45.3963" lon="2.5881">
        <ele>665</ele>
        <time>2018-06-25T09:25:05.187Z</time>
      </trkpt>
      <trkpt lat="45.39635" lon="2.58678">
        <ele>653</ele>
        <time>2018-06-25T09:25:06.187Z</time>
      </trkpt>
      <trkpt lat="45.39618" lon="2.58625">
        <ele>650</ele>
        <time>2018-06-25T09:25:07.187Z</time>
      </trkpt>
      <trkpt lat="45.3955" lon="2.58517">
        <ele>645</ele>
        <time>2018-06-25T09:25:08.187Z</time>
      </trkpt>
      <trkpt lat="45.39533" lon="2.5847">
        <ele>644</ele>
        <time>2018-06-25T09:25:09.187Z</time>
      </trkpt>
      <trkpt lat="45.39524" lon="2.58422">
        <ele>644</ele>
        <time>2018-06-25T09:25:10.187Z</time>
      </trkpt>
      <trkpt lat="45.39479" lon="2.58297">
        <ele>631</ele>
        <time>2018-06-25T09:25:11.187Z</time>
      </trkpt>
      <trkpt lat="45.39478" lon="2.58226">
        <ele>620</ele>
        <time>2018-06-25T09:25:12.187Z</time>
      </trkpt>
      <trkpt lat="45.39536" lon="2.58132">
        <ele>632</ele>
        <time>2018-06-25T09:25:13.187Z</time>
      </trkpt>
      <trkpt lat="45.39476" lon="2.58032">
        <ele>610</ele>
        <time>2018-06-25T09:25:14.187Z</time>
      </trkpt>
      <trkpt lat="45.39481" lon="2.57947">
        <ele>610</ele>
        <time>2018-06-25T09:25:15.187Z</time>
      </trkpt>
      <trkpt lat="45.39493" lon="2.57894">
        <ele>607</ele>
        <time>2018-06-25T09:25:16.187Z</time>
      </trkpt>
      <trkpt lat="45.39514" lon="2.57822">
        <ele>601</ele>
        <time>2018-06-25T09:25:17.187Z</time>
      </trkpt>
      <trkpt lat="45.39558" lon="2.5774">
        <ele>597</ele>
        <time>2018-06-25T09:25:18.187Z</time>
      </trkpt>
      <trkpt lat="45.39643" lon="2.57618">
        <ele>594</ele>
        <time>2018-06-25T09:25:19.187Z</time>
      </trkpt>
      <trkpt lat="45.39666" lon="2.5756">
        <ele>584</ele>
        <time>2018-06-25T09:25:20.187Z</time>
      </trkpt>
      <trkpt lat="45.39721" lon="2.57501">
        <ele>592</ele>
        <time>2018-06-25T09:25:21.187Z</time>
      </trkpt>
      <trkpt lat="45.39728" lon="2.57469">
        <ele>592</ele>
        <time>2018-06-25T09:25:22.187Z</time>
      </trkpt>
      <trkpt lat="45.39713" lon="2.57399">
        <ele>577</ele>
        <time>2018-06-25T09:25:23.187Z</time>
      </trkpt>
      <trkpt lat="45.39716" lon="2.57356">
        <ele>574</ele>
        <time>2018-06-25T09:25:24.187Z</time>
      </trkpt>
      <trkpt lat="45.39734" lon="2.57292">
        <ele>575</ele>
        <time>2018-06-25T09:25:25.187Z</time>
      </trkpt>
      <trkpt lat="45.39742" lon="2.57241">
        <ele>571</ele>
        <time>2018-06-25T09:25:26.187Z</time>
      </trkpt>
      <trkpt lat="45.39746" lon="2.57141">
        <ele>559</ele>
        <time>2018-06-25T09:25:27.187Z</time>
      </trkpt>
      <trkpt lat="45.39799" lon="2.56992">
        <ele>555</ele>
        <time>2018-06-25T09:25:28.187Z</time>
      </trkpt>
      <trkpt lat="45.39996" lon="2.56691">
        <ele>543</ele>
        <time>2018-06-25T09:25:29.187Z</time>
      </trkpt>
      <trkpt lat="45.40016" lon="2.56607">
        <ele>541</ele>
        <time>2018-06-25T09:25:30.187Z</time>
      </trkpt>
      <trkpt lat="45.40015" lon="2.56499">
        <ele>535</ele>
        <time>2018-06-25T09:25:31.187Z</time>
      </trkpt>
      <trkpt lat="45.40002" lon="2.5639">
        <ele>530</ele>
        <time>2018-06-25T09:25:32.187Z</time>
      </trkpt>
      <trkpt lat="45.39973" lon="2.56304">
        <ele>522</ele>
        <time>2018-06-25T09:25:33.187Z</time>
      </trkpt>
      <trkpt lat="45.39954" lon="2.56252">
        <ele>517</ele>
        <time>2018-06-25T09:25:34.187Z</time>
      </trkpt>
      <trkpt lat="45.39936" lon="2.56213">
        <ele>512</ele>
        <time>2018-06-25T09:25:35.187Z</time>
      </trkpt>
      <trkpt lat="45.3992" lon="2.56199">
        <ele>508</ele>
        <time>2018-06-25T09:25:36.187Z</time>
      </trkpt>
      <trkpt lat="45.39812" lon="2.56166">
        <ele>501</ele>
        <time>2018-06-25T09:25:37.187Z</time>
      </trkpt>
      <trkpt lat="45.39787" lon="2.56134">
        <ele>500</ele>
        <time>2018-06-25T09:25:38.187Z</time>
      </trkpt>
      <trkpt lat="45.3977" lon="2.56106">
        <ele>500</ele>
        <time>2018-06-25T09:25:39.187Z</time>
      </trkpt>
      <trkpt lat="45.39751" lon="2.56098">
        <ele>499</ele>
        <time>2018-06-25T09:25:40.187Z</time>
      </trkpt>
      <trkpt lat="45.39728" lon="2.56108">
        <ele>498</ele>
        <time>2018-06-25T09:25:41.187Z</time>
      </trkpt>
      <trkpt lat="45.39703" lon="2.56115">
        <ele>498</ele>
        <time>2018-06-25T09:25:42.187Z</time>
      </trkpt>
      <trkpt lat="45.39675" lon="2.56108">
        <ele>497</ele>
        <time>2018-06-25T09:25:43.187Z</time>
      </trkpt>
      <trkpt lat="45.39661" lon="2.56111">
        <ele>497</ele>
        <time>2018-06-25T09:25:44.187Z</time>
      </trkpt>
      <trkpt lat="45.39622" lon="2.56139">
        <ele>497</ele>
        <time>2018-06-25T09:25:45.187Z</time>
      </trkpt>
      <trkpt lat="45.39602" lon="2.56145">
        <ele>498</ele>
        <time>2018-06-25T09:25:46.187Z</time>
      </trkpt>
      <trkpt lat="45.39575" lon="2.56146">
        <ele>498</ele>
        <time>2018-06-25T09:25:47.187Z</time>
      </trkpt>
      <trkpt lat="45.3956" lon="2.56144">
        <ele>498</ele>
        <time>2018-06-25T09:25:48.187Z</time>
      </trkpt>
      <trkpt lat="45.39523" lon="2.56068">
        <ele>497</ele>
        <time>2018-06-25T09:25:49.187Z</time>
      </trkpt>
      <trkpt lat="45.39513" lon="2.56055">
        <ele>497</ele>
        <time>2018-06-25T09:25:50.187Z</time>
      </trkpt>
      <trkpt lat="45.39503" lon="2.56049">
        <ele>497</ele>
        <time>2018-06-25T09:25:51.187Z</time>
      </trkpt>
      <trkpt lat="45.39484" lon="2.56044">
        <ele>496</ele>
        <time>2018-06-25T09:25:52.187Z</time>
      </trkpt>
      <trkpt lat="45.39472" lon="2.56036">
        <ele>496</ele>
        <time>2018-06-25T09:25:53.187Z</time>
      </trkpt>
      <trkpt lat="45.39463" lon="2.56027">
        <ele>496</ele>
        <time>2018-06-25T09:25:54.187Z</time>
      </trkpt>
      <trkpt lat="45.39458" lon="2.56014">
        <ele>496</ele>
        <time>2018-06-25T09:25:55.187Z</time>
      </trkpt>
      <trkpt lat="45.39452" lon="2.55979">
        <ele>496</ele>
        <time>2018-06-25T09:25:56.187Z</time>
      </trkpt>
      <trkpt lat="45.39412" lon="2.5557">
        <ele>492</ele>
        <time>2018-06-25T09:25:57.187Z</time>
      </trkpt>
      <trkpt lat="45.39344" lon="2.55565">
        <ele>490</ele>
        <time>2018-06-25T09:25:58.187Z</time>
      </trkpt>
      <trkpt lat="45.39291" lon="2.55552">
        <ele>491</ele>
        <time>2018-06-25T09:25:59.187Z</time>
      </trkpt>
      <trkpt lat="45.39231" lon="2.55528">
        <ele>505</ele>
        <time>2018-06-25T09:26:00.187Z</time>
      </trkpt>
      <trkpt lat="45.39214" lon="2.55477">
        <ele>513</ele>
        <time>2018-06-25T09:26:01.187Z</time>
      </trkpt>
      <trkpt lat="45.39206" lon="2.55408">
        <ele>512</ele>
        <time>2018-06-25T09:26:02.187Z</time>
      </trkpt>
      <trkpt lat="45.39206" lon="2.55287">
        <ele>502</ele>
        <time>2018-06-25T09:26:03.187Z</time>
      </trkpt>
      <trkpt lat="45.39188" lon="2.55236">
        <ele>502</ele>
        <time>2018-06-25T09:26:04.187Z</time>
      </trkpt>
      <trkpt lat="45.39137" lon="2.55152">
        <ele>505</ele>
        <time>2018-06-25T09:26:05.187Z</time>
      </trkpt>
      <trkpt lat="45.39104" lon="2.55075">
        <ele>503</ele>
        <time>2018-06-25T09:26:06.187Z</time>
      </trkpt>
      <trkpt lat="45.39076" lon="2.54981">
        <ele>493</ele>
        <time>2018-06-25T09:26:07.187Z</time>
      </trkpt>
      <trkpt lat="45.3902" lon="2.54902">
        <ele>503</ele>
        <time>2018-06-25T09:26:08.187Z</time>
      </trkpt>
      <trkpt lat="45.39008" lon="2.54804">
        <ele>494</ele>
        <time>2018-06-25T09:26:09.187Z</time>
      </trkpt>
      <trkpt lat="45.38995" lon="2.54757">
        <ele>490</ele>
        <time>2018-06-25T09:26:10.187Z</time>
      </trkpt>
      <trkpt lat="45.38967" lon="2.54718">
        <ele>494</ele>
        <time>2018-06-25T09:26:11.187Z</time>
      </trkpt>
      <trkpt lat="45.38938" lon="2.54672">
        <ele>492</ele>
        <time>2018-06-25T09:26:12.187Z</time>
      </trkpt>
      <trkpt lat="45.38898" lon="2.54646">
        <ele>491</ele>
        <time>2018-06-25T09:26:13.187Z</time>
      </trkpt>
      <trkpt lat="45.3872" lon="2.5458">
        <ele>489</ele>
        <time>2018-06-25T09:26:14.187Z</time>
      </trkpt>
      <trkpt lat="45.3859" lon="2.54388">
        <ele>493</ele>
        <time>2018-06-25T09:26:15.187Z</time>
      </trkpt>
      <trkpt lat="45.38571" lon="2.54282">
        <ele>490</ele>
        <time>2018-06-25T09:26:16.187Z</time>
      </trkpt>
      <trkpt lat="45.38567" lon="2.5422">
        <ele>489</ele>
        <time>2018-06-25T09:26:17.187Z</time>
      </trkpt>
      <trkpt lat="45.38553" lon="2.54169">
        <ele>489</ele>
        <time>2018-06-25T09:26:18.187Z</time>
      </trkpt>
      <trkpt lat="45.38518" lon="2.54114">
        <ele>488</ele>
        <time>2018-06-25T09:26:19.187Z</time>
      </trkpt>
      <trkpt lat="45.38473" lon="2.54083">
        <ele>484</ele>
        <time>2018-06-25T09:26:20.187Z</time>
      </trkpt>
      <trkpt lat="45.38404" lon="2.54052">
        <ele>483</ele>
        <time>2018-06-25T09:26:21.187Z</time>
      </trkpt>
      <trkpt lat="45.38334" lon="2.54036">
        <ele>482</ele>
        <time>2018-06-25T09:26:22.187Z</time>
      </trkpt>
      <trkpt lat="45.3826" lon="2.54051">
        <ele>479</ele>
        <time>2018-06-25T09:26:23.187Z</time>
      </trkpt>
      <trkpt lat="45.37936" lon="2.54193">
        <ele>476</ele>
        <time>2018-06-25T09:26:24.187Z</time>
      </trkpt>
      <trkpt lat="45.37901" lon="2.54219">
        <ele>475</ele>
        <time>2018-06-25T09:26:25.187Z</time>
      </trkpt>
      <trkpt lat="45.37888" lon="2.54235">
        <ele>475</ele>
        <time>2018-06-25T09:26:26.187Z</time>
      </trkpt>
      <trkpt lat="45.37874" lon="2.5426">
        <ele>475</ele>
        <time>2018-06-25T09:26:27.187Z</time>
      </trkpt>
      <trkpt lat="45.37856" lon="2.54268">
        <ele>473</ele>
        <time>2018-06-25T09:26:28.187Z</time>
      </trkpt>
      <trkpt lat="45.37815" lon="2.54268">
        <ele>476</ele>
        <time>2018-06-25T09:26:29.187Z</time>
      </trkpt>
      <trkpt lat="45.37788" lon="2.54248">
        <ele>480</ele>
        <time>2018-06-25T09:26:30.187Z</time>
      </trkpt>
      <trkpt lat="45.37766" lon="2.54202">
        <ele>479</ele>
        <time>2018-06-25T09:26:31.187Z</time>
      </trkpt>
      <trkpt lat="45.37757" lon="2.5412">
        <ele>471</ele>
        <time>2018-06-25T09:26:32.187Z</time>
      </trkpt>
      <trkpt lat="45.37741" lon="2.54076">
        <ele>468</ele>
        <time>2018-06-25T09:26:33.187Z</time>
      </trkpt>
      <trkpt lat="45.37717" lon="2.54039">
        <ele>469</ele>
        <time>2018-06-25T09:26:34.187Z</time>
      </trkpt>
      <trkpt lat="45.37631" lon="2.53953">
        <ele>478</ele>
        <time>2018-06-25T09:26:35.187Z</time>
      </trkpt>
      <trkpt lat="45.37615" lon="2.53927">
        <ele>480</ele>
        <time>2018-06-25T09:26:36.187Z</time>
      </trkpt>
      <trkpt lat="45.37619" lon="2.53865">
        <ele>485</ele>
        <time>2018-06-25T09:26:37.187Z</time>
      </trkpt>
      <trkpt lat="45.37637" lon="2.53793">
        <ele>481</ele>
        <time>2018-06-25T09:26:38.187Z</time>
      </trkpt>
      <trkpt lat="45.37624" lon="2.53698">
        <ele>480</ele>
        <time>2018-06-25T09:26:39.187Z</time>
      </trkpt>
      <trkpt lat="45.3761" lon="2.53655">
        <ele>481</ele>
        <time>2018-06-25T09:26:40.187Z</time>
      </trkpt>
      <trkpt lat="45.37525" lon="2.53531">
        <ele>494</ele>
        <time>2018-06-25T09:26:41.187Z</time>
      </trkpt>
      <trkpt lat="45.37413" lon="2.53391">
        <ele>508</ele>
        <time>2018-06-25T09:26:42.187Z</time>
      </trkpt>
      <trkpt lat="45.37394" lon="2.53356">
        <ele>514</ele>
        <time>2018-06-25T09:26:43.187Z</time>
      </trkpt>
      <trkpt lat="45.37388" lon="2.53265">
        <ele>512</ele>
        <time>2018-06-25T09:26:44.187Z</time>
      </trkpt>
      <trkpt lat="45.37394" lon="2.53198">
        <ele>510</ele>
        <time>2018-06-25T09:26:45.187Z</time>
      </trkpt>
      <trkpt lat="45.37387" lon="2.53117">
        <ele>516</ele>
        <time>2018-06-25T09:26:46.187Z</time>
      </trkpt>
      <trkpt lat="45.37396" lon="2.53089">
        <ele>516</ele>
        <time>2018-06-25T09:26:47.187Z</time>
      </trkpt>
      <trkpt lat="45.37396" lon="2.53061">
        <ele>520</ele>
        <time>2018-06-25T09:26:48.187Z</time>
      </trkpt>
      <trkpt lat="45.37378" lon="2.53041">
        <ele>526</ele>
        <time>2018-06-25T09:26:49.187Z</time>
      </trkpt>
      <trkpt lat="45.37363" lon="2.5304">
        <ele>528</ele>
        <time>2018-06-25T09:26:50.187Z</time>
      </trkpt>
      <trkpt lat="45.37334" lon="2.53055">
        <ele>530</ele>
        <time>2018-06-25T09:26:51.187Z</time>
      </trkpt>
      <trkpt lat="45.37314" lon="2.53073">
        <ele>529</ele>
        <time>2018-06-25T09:26:52.187Z</time>
      </trkpt>
      <trkpt lat="45.37294" lon="2.53087">
        <ele>529</ele>
        <time>2018-06-25T09:26:53.187Z</time>
      </trkpt>
      <trkpt lat="45.37269" lon="2.53084">
        <ele>530</ele>
        <time>2018-06-25T09:26:54.187Z</time>
      </trkpt>
      <trkpt lat="45.37222" lon="2.53037">
        <ele>532</ele>
        <time>2018-06-25T09:26:55.187Z</time>
      </trkpt>
      <trkpt lat="45.37171" lon="2.52951">
        <ele>528</ele>
        <time>2018-06-25T09:26:56.187Z</time>
      </trkpt>
      <trkpt lat="45.37155" lon="2.52867">
        <ele>525</ele>
        <time>2018-06-25T09:26:57.187Z</time>
      </trkpt>
      <trkpt lat="45.37136" lon="2.52732">
        <ele>523</ele>
        <time>2018-06-25T09:26:58.187Z</time>
      </trkpt>
      <trkpt lat="45.3709" lon="2.52599">
        <ele>515</ele>
        <time>2018-06-25T09:26:59.187Z</time>
      </trkpt>
      <trkpt lat="45.37047" lon="2.52509">
        <ele>510</ele>
        <time>2018-06-25T09:27:00.187Z</time>
      </trkpt>
      <trkpt lat="45.36963" lon="2.52384">
        <ele>508</ele>
        <time>2018-06-25T09:27:01.187Z</time>
      </trkpt>
      <trkpt lat="45.3691" lon="2.52279">
        <ele>503</ele>
        <time>2018-06-25T09:27:02.187Z</time>
      </trkpt>
      <trkpt lat="45.36864" lon="2.52203">
        <ele>495</ele>
        <time>2018-06-25T09:27:03.187Z</time>
      </trkpt>
      <trkpt lat="45.36814" lon="2.52093">
        <ele>488</ele>
        <time>2018-06-25T09:27:04.187Z</time>
      </trkpt>
      <trkpt lat="45.36779" lon="2.51967">
        <ele>481</ele>
        <time>2018-06-25T09:27:05.187Z</time>
      </trkpt>
      <trkpt lat="45.36781" lon="2.51869">
        <ele>479</ele>
        <time>2018-06-25T09:27:06.187Z</time>
      </trkpt>
      <trkpt lat="45.36792" lon="2.51777">
        <ele>483</ele>
        <time>2018-06-25T09:27:07.187Z</time>
      </trkpt>
      <trkpt lat="45.36801" lon="2.51677">
        <ele>485</ele>
        <time>2018-06-25T09:27:08.187Z</time>
      </trkpt>
      <trkpt lat="45.3678" lon="2.5149">
        <ele>476</ele>
        <time>2018-06-25T09:27:09.187Z</time>
      </trkpt>
      <trkpt lat="45.36774" lon="2.5146">
        <ele>474</ele>
        <time>2018-06-25T09:27:10.187Z</time>
      </trkpt>
      <trkpt lat="45.36731" lon="2.51372">
        <ele>471</ele>
        <time>2018-06-25T09:27:11.187Z</time>
      </trkpt>
      <trkpt lat="45.36661" lon="2.51297">
        <ele>470</ele>
        <time>2018-06-25T09:27:12.187Z</time>
      </trkpt>
      <trkpt lat="45.36582" lon="2.51277">
        <ele>471</ele>
        <time>2018-06-25T09:27:13.187Z</time>
      </trkpt>
      <trkpt lat="45.36547" lon="2.51245">
        <ele>469</ele>
        <time>2018-06-25T09:27:14.187Z</time>
      </trkpt>
      <trkpt lat="45.36548" lon="2.51236">
        <ele>469</ele>
        <time>2018-06-25T09:27:15.187Z</time>
      </trkpt>
      <trkpt lat="45.36566" lon="2.5123">
        <ele>469</ele>
        <time>2018-06-25T09:27:16.187Z</time>
      </trkpt>
      <trkpt lat="45.36579" lon="2.51241">
        <ele>469</ele>
        <time>2018-06-25T09:27:17.187Z</time>
      </trkpt>
      <trkpt lat="45.36633" lon="2.5123">
        <ele>468</ele>
        <time>2018-06-25T09:27:18.187Z</time>
      </trkpt>
      <trkpt lat="45.36655" lon="2.5121">
        <ele>468</ele>
        <time>2018-06-25T09:27:19.187Z</time>
      </trkpt>
      <trkpt lat="45.36734" lon="2.51173">
        <ele>470</ele>
        <time>2018-06-25T09:27:20.187Z</time>
      </trkpt>
      <trkpt lat="45.36747" lon="2.51152">
        <ele>471</ele>
        <time>2018-06-25T09:27:21.187Z</time>
      </trkpt>
      <trkpt lat="45.36732" lon="2.51056">
        <ele>467</ele>
        <time>2018-06-25T09:27:22.187Z</time>
      </trkpt>
      <trkpt lat="45.3673" lon="2.51026">
        <ele>466</ele>
        <time>2018-06-25T09:27:23.187Z</time>
      </trkpt>
      <trkpt lat="45.36745" lon="2.50936">
        <ele>468</ele>
        <time>2018-06-25T09:27:24.187Z</time>
      </trkpt>
      <trkpt lat="45.36803" lon="2.50899">
        <ele>465</ele>
        <time>2018-06-25T09:27:25.187Z</time>
      </trkpt>
      <trkpt lat="45.36853" lon="2.50831">
        <ele>463</ele>
        <time>2018-06-25T09:27:26.187Z</time>
      </trkpt>
      <trkpt lat="45.36871" lon="2.50809">
        <ele>463</ele>
        <time>2018-06-25T09:27:27.187Z</time>
      </trkpt>
      <trkpt lat="45.36863" lon="2.50791">
        <ele>464</ele>
        <time>2018-06-25T09:27:28.187Z</time>
      </trkpt>
      <trkpt lat="45.36836" lon="2.50733">
        <ele>464</ele>
        <time>2018-06-25T09:27:29.187Z</time>
      </trkpt>
      <trkpt lat="45.36737" lon="2.5054">
        <ele>476</ele>
        <time>2018-06-25T09:27:30.187Z</time>
      </trkpt>
      <trkpt lat="45.3669" lon="2.50468">
        <ele>480</ele>
        <time>2018-06-25T09:27:31.187Z</time>
      </trkpt>
      <trkpt lat="45.36661" lon="2.50438">
        <ele>478</ele>
        <time>2018-06-25T09:27:32.187Z</time>
      </trkpt>
      <trkpt lat="45.36607" lon="2.50404">
        <ele>476</ele>
        <time>2018-06-25T09:27:33.187Z</time>
      </trkpt>
      <trkpt lat="45.36398" lon="2.50363">
        <ele>478</ele>
        <time>2018-06-25T09:27:34.187Z</time>
      </trkpt>
      <trkpt lat="45.36338" lon="2.50329">
        <ele>476</ele>
        <time>2018-06-25T09:27:35.187Z</time>
      </trkpt>
      <trkpt lat="45.36297" lon="2.50292">
        <ele>476</ele>
        <time>2018-06-25T09:27:36.187Z</time>
      </trkpt>
      <trkpt lat="45.36262" lon="2.50244">
        <ele>476</ele>
        <time>2018-06-25T09:27:37.187Z</time>
      </trkpt>
      <trkpt lat="45.36141" lon="2.50045">
        <ele>477</ele>
        <time>2018-06-25T09:27:38.187Z</time>
      </trkpt>
      <trkpt lat="45.35991" lon="2.49812">
        <ele>478</ele>
        <time>2018-06-25T09:27:39.187Z</time>
      </trkpt>
      <trkpt lat="45.35745" lon="2.49419">
        <ele>470</ele>
        <time>2018-06-25T09:27:40.187Z</time>
      </trkpt>
      <trkpt lat="45.35738" lon="2.49412">
        <ele>470</ele>
        <time>2018-06-25T09:27:41.187Z</time>
      </trkpt>
      <trkpt lat="45.35731" lon="2.49413">
        <ele>470</ele>
        <time>2018-06-25T09:27:42.187Z</time>
      </trkpt>
      <trkpt lat="45.35729" lon="2.49398">
        <ele>469</ele>
        <time>2018-06-25T09:27:43.187Z</time>
      </trkpt>
      <trkpt lat="45.35699" lon="2.49352">
        <ele>469</ele>
        <time>2018-06-25T09:27:44.187Z</time>
      </trkpt>
      <trkpt lat="45.35636" lon="2.49278">
        <ele>468</ele>
        <time>2018-06-25T09:27:45.187Z</time>
      </trkpt>
      <trkpt lat="45.35309" lon="2.48855">
        <ele>467</ele>
        <time>2018-06-25T09:27:46.187Z</time>
      </trkpt>
      <trkpt lat="45.35235" lon="2.48767">
        <ele>466</ele>
        <time>2018-06-25T09:27:47.187Z</time>
      </trkpt>
      <trkpt lat="45.35187" lon="2.48684">
        <ele>464</ele>
        <time>2018-06-25T09:27:48.187Z</time>
      </trkpt>
      <trkpt lat="45.35153" lon="2.48611">
        <ele>463</ele>
        <time>2018-06-25T09:27:49.187Z</time>
      </trkpt>
      <trkpt lat="45.35114" lon="2.48513">
        <ele>463</ele>
        <time>2018-06-25T09:27:50.187Z</time>
      </trkpt>
      <trkpt lat="45.35034" lon="2.48294">
        <ele>458</ele>
        <time>2018-06-25T09:27:51.187Z</time>
      </trkpt>
      <trkpt lat="45.35013" lon="2.48231">
        <ele>457</ele>
        <time>2018-06-25T09:27:52.187Z</time>
      </trkpt>
      <trkpt lat="45.34989" lon="2.48136">
        <ele>458</ele>
        <time>2018-06-25T09:27:53.187Z</time>
      </trkpt>
      <trkpt lat="45.34963" lon="2.48007">
        <ele>454</ele>
        <time>2018-06-25T09:27:54.187Z</time>
      </trkpt>
      <trkpt lat="45.34939" lon="2.47813">
        <ele>450</ele>
        <time>2018-06-25T09:27:55.187Z</time>
      </trkpt>
      <trkpt lat="45.34915" lon="2.47663">
        <ele>453</ele>
        <time>2018-06-25T09:27:56.187Z</time>
      </trkpt>
      <trkpt lat="45.3491" lon="2.47611">
        <ele>452</ele>
        <time>2018-06-25T09:27:57.187Z</time>
      </trkpt>
      <trkpt lat="45.34901" lon="2.4759">
        <ele>450</ele>
        <time>2018-06-25T09:27:58.187Z</time>
      </trkpt>
      <trkpt lat="45.3488" lon="2.47571">
        <ele>448</ele>
        <time>2018-06-25T09:27:59.187Z</time>
      </trkpt>
      <trkpt lat="45.34876" lon="2.47559">
        <ele>447</ele>
        <time>2018-06-25T09:28:00.187Z</time>
      </trkpt>
      <trkpt lat="45.34877" lon="2.47543">
        <ele>447</ele>
        <time>2018-06-25T09:28:01.187Z</time>
      </trkpt>
      <trkpt lat="45.34888" lon="2.4754">
        <ele>449</ele>
        <time>2018-06-25T09:28:02.187Z</time>
      </trkpt>
      <trkpt lat="45.34893" lon="2.47536">
        <ele>449</ele>
        <time>2018-06-25T09:28:03.187Z</time>
      </trkpt>
      <trkpt lat="45.34903" lon="2.47502">
        <ele>450</ele>
        <time>2018-06-25T09:28:04.187Z</time>
      </trkpt>
      <trkpt lat="45.34911" lon="2.47467">
        <ele>449</ele>
        <time>2018-06-25T09:28:05.187Z</time>
      </trkpt>
      <trkpt lat="45.34979" lon="2.47007">
        <ele>445</ele>
        <time>2018-06-25T09:28:06.187Z</time>
      </trkpt>
      <trkpt lat="45.35037" lon="2.46596">
        <ele>447</ele>
        <time>2018-06-25T09:28:07.187Z</time>
      </trkpt>
      <trkpt lat="45.35075" lon="2.46367">
        <ele>446</ele>
        <time>2018-06-25T09:28:08.187Z</time>
      </trkpt>
      <trkpt lat="45.35078" lon="2.46308">
        <ele>446</ele>
        <time>2018-06-25T09:28:09.187Z</time>
      </trkpt>
      <trkpt lat="45.35078" lon="2.46265">
        <ele>447</ele>
        <time>2018-06-25T09:28:10.187Z</time>
      </trkpt>
      <trkpt lat="45.35075" lon="2.46226">
        <ele>448</ele>
        <time>2018-06-25T09:28:11.187Z</time>
      </trkpt>
      <trkpt lat="45.35068" lon="2.46167">
        <ele>450</ele>
        <time>2018-06-25T09:28:12.187Z</time>
      </trkpt>
      <trkpt lat="45.35042" lon="2.46044">
        <ele>448</ele>
        <time>2018-06-25T09:28:13.187Z</time>
      </trkpt>
      <trkpt lat="45.34986" lon="2.45746">
        <ele>444</ele>
        <time>2018-06-25T09:28:14.187Z</time>
      </trkpt>
      <trkpt lat="45.34961" lon="2.45639">
        <ele>444</ele>
        <time>2018-06-25T09:28:15.187Z</time>
      </trkpt>
      <trkpt lat="45.34948" lon="2.45572">
        <ele>445</ele>
        <time>2018-06-25T09:28:16.187Z</time>
      </trkpt>
      <trkpt lat="45.34949" lon="2.45491">
        <ele>444</ele>
        <time>2018-06-25T09:28:17.187Z</time>
      </trkpt>
      <trkpt lat="45.34953" lon="2.4543">
        <ele>444</ele>
        <time>2018-06-25T09:28:18.187Z</time>
      </trkpt>
      <trkpt lat="45.34967" lon="2.45358">
        <ele>444</ele>
        <time>2018-06-25T09:28:19.187Z</time>
      </trkpt>
      <trkpt lat="45.34978" lon="2.45313">
        <ele>443</ele>
        <time>2018-06-25T09:28:20.187Z</time>
      </trkpt>
      <trkpt lat="45.34992" lon="2.45264">
        <ele>443</ele>
        <time>2018-06-25T09:28:21.187Z</time>
      </trkpt>
      <trkpt lat="45.35015" lon="2.45214">
        <ele>445</ele>
        <time>2018-06-25T09:28:22.187Z</time>
      </trkpt>
      <trkpt lat="45.35095" lon="2.45098">
        <ele>446</ele>
        <time>2018-06-25T09:28:23.187Z</time>
      </trkpt>
      <trkpt lat="45.35299" lon="2.44811">
        <ele>450</ele>
        <time>2018-06-25T09:28:24.187Z</time>
      </trkpt>
      <trkpt lat="45.35425" lon="2.44643">
        <ele>449</ele>
        <time>2018-06-25T09:28:25.187Z</time>
      </trkpt>
      <trkpt lat="45.35451" lon="2.44594">
        <ele>449</ele>
        <time>2018-06-25T09:28:26.187Z</time>
      </trkpt>
      <trkpt lat="45.35472" lon="2.44535">
        <ele>450</ele>
        <time>2018-06-25T09:28:27.187Z</time>
      </trkpt>
      <trkpt lat="45.35488" lon="2.44441">
        <ele>451</ele>
        <time>2018-06-25T09:28:28.187Z</time>
      </trkpt>
      <trkpt lat="45.35493" lon="2.44361">
        <ele>453</ele>
        <time>2018-06-25T09:28:29.187Z</time>
      </trkpt>
      <trkpt lat="45.35488" lon="2.44307">
        <ele>454</ele>
        <time>2018-06-25T09:28:30.187Z</time>
      </trkpt>
      <trkpt lat="45.35467" lon="2.44226">
        <ele>453</ele>
        <time>2018-06-25T09:28:31.187Z</time>
      </trkpt>
      <trkpt lat="45.35429" lon="2.44137">
        <ele>450</ele>
        <time>2018-06-25T09:28:32.187Z</time>
      </trkpt>
      <trkpt lat="45.35394" lon="2.44092">
        <ele>448</ele>
        <time>2018-06-25T09:28:33.187Z</time>
      </trkpt>
      <trkpt lat="45.35322" lon="2.44011">
        <ele>448</ele>
        <time>2018-06-25T09:28:34.187Z</time>
      </trkpt>
      <trkpt lat="45.35208" lon="2.4391">
        <ele>449</ele>
        <time>2018-06-25T09:28:35.187Z</time>
      </trkpt>
      <trkpt lat="45.35107" lon="2.43832">
        <ele>453</ele>
        <time>2018-06-25T09:28:36.187Z</time>
      </trkpt>
      <trkpt lat="45.34996" lon="2.43754">
        <ele>444</ele>
        <time>2018-06-25T09:28:37.187Z</time>
      </trkpt>
      <trkpt lat="45.34944" lon="2.43715">
        <ele>443</ele>
        <time>2018-06-25T09:28:38.187Z</time>
      </trkpt>
      <trkpt lat="45.34943" lon="2.43715">
        <ele>443</ele>
        <time>2018-06-25T09:28:39.187Z</time>
      </trkpt>
      <trkpt lat="45.34872" lon="2.43663">
        <ele>441</ele>
        <time>2018-06-25T09:28:40.187Z</time>
      </trkpt>
      <trkpt lat="45.34775" lon="2.43597">
        <ele>440</ele>
        <time>2018-06-25T09:28:41.187Z</time>
      </trkpt>
      <trkpt lat="45.34677" lon="2.4352">
        <ele>439</ele>
        <time>2018-06-25T09:28:42.187Z</time>
      </trkpt>
      <trkpt lat="45.3441" lon="2.43254">
        <ele>439</ele>
        <time>2018-06-25T09:28:43.187Z</time>
      </trkpt>
      <trkpt lat="45.34409" lon="2.43254">
        <ele>439</ele>
        <time>2018-06-25T09:28:44.187Z</time>
      </trkpt>
      <trkpt lat="45.34393" lon="2.43237">
        <ele>439</ele>
        <time>2018-06-25T09:28:45.187Z</time>
      </trkpt>
      <trkpt lat="45.34399" lon="2.43221">
        <ele>442</ele>
        <time>2018-06-25T09:28:46.187Z</time>
      </trkpt>
      <trkpt lat="45.34395" lon="2.43211">
        <ele>443</ele>
        <time>2018-06-25T09:28:47.187Z</time>
      </trkpt>
      <trkpt lat="45.34362" lon="2.43183">
        <ele>442</ele>
        <time>2018-06-25T09:28:48.187Z</time>
      </trkpt>
      <trkpt lat="45.34345" lon="2.43162">
        <ele>442</ele>
        <time>2018-06-25T09:28:49.187Z</time>
      </trkpt>
      <trkpt lat="45.34318" lon="2.43108">
        <ele>448</ele>
        <time>2018-06-25T09:28:50.187Z</time>
      </trkpt>
      <trkpt lat="45.34317" lon="2.43097">
        <ele>449</ele>
        <time>2018-06-25T09:28:51.187Z</time>
      </trkpt>
      <trkpt lat="45.34463" lon="2.43304">
        <ele>440</ele>
        <time>2018-06-25T08:58:32.473Z</time>
      </trkpt>
      <trkpt lat="45.34462" lon="2.43306">
        <ele>439</ele>
        <time>2018-06-25T08:58:33.473Z</time>
      </trkpt>
      <trkpt lat="45.34393" lon="2.43237">
        <ele>439</ele>
        <time>2018-06-25T08:58:34.473Z</time>
      </trkpt>
      <trkpt lat="45.34399" lon="2.43221">
        <ele>442</ele>
        <time>2018-06-25T08:58:35.473Z</time>
      </trkpt>
      <trkpt lat="45.34395" lon="2.43211">
        <ele>443</ele>
        <time>2018-06-25T08:58:36.473Z</time>
      </trkpt>
      <trkpt lat="45.34362" lon="2.43183">
        <ele>442</ele>
        <time>2018-06-25T08:58:37.473Z</time>
      </trkpt>
      <trkpt lat="45.34345" lon="2.43162">
        <ele>442</ele>
        <time>2018-06-25T08:58:38.473Z</time>
      </trkpt>
      <trkpt lat="45.34318" lon="2.43108">
        <ele>448</ele>
        <time>2018-06-25T08:58:39.473Z</time>
      </trkpt>
      <trkpt lat="45.34317" lon="2.43089">
        <ele>451</ele>
        <time>2018-06-25T08:58:40.473Z</time>
      </trkpt>
      <trkpt lat="45.34327" lon="2.43075">
        <ele>455</ele>
        <time>2018-06-25T08:58:41.473Z</time>
      </trkpt>
      <trkpt lat="45.34375" lon="2.43111">
        <ele>454</ele>
        <time>2018-06-25T08:58:42.473Z</time>
      </trkpt>
      <trkpt lat="45.34468" lon="2.43161">
        <ele>460</ele>
        <time>2018-06-25T08:58:43.473Z</time>
      </trkpt>
      <trkpt lat="45.34471" lon="2.43165">
        <ele>460</ele>
        <time>2018-06-25T08:58:44.473Z</time>
      </trkpt>
      <trkpt lat="45.34471" lon="2.43165">
        <ele>460</ele>
        <time>2018-06-25T08:58:45.473Z</time>
      </trkpt>
      <trkpt lat="45.34496" lon="2.43191">
        <ele>459</ele>
        <time>2018-06-25T08:58:46.473Z</time>
      </trkpt>
      <trkpt lat="45.34547" lon="2.43249">
        <ele>456</ele>
        <time>2018-06-25T08:58:47.473Z</time>
      </trkpt>
      <trkpt lat="45.34559" lon="2.43253">
        <ele>457</ele>
        <time>2018-06-25T08:58:48.473Z</time>
      </trkpt>
      <trkpt lat="45.34609" lon="2.4325">
        <ele>461</ele>
        <time>2018-06-25T08:58:49.473Z</time>
      </trkpt>
      <trkpt lat="45.34692" lon="2.43257">
        <ele>462</ele>
        <time>2018-06-25T08:58:50.473Z</time>
      </trkpt>
      <trkpt lat="45.34715" lon="2.43262">
        <ele>463</ele>
        <time>2018-06-25T08:58:51.473Z</time>
      </trkpt>
      <trkpt lat="45.34717" lon="2.43266">
        <ele>462</ele>
        <time>2018-06-25T08:58:52.473Z</time>
      </trkpt>
      <trkpt lat="45.34724" lon="2.43225">
        <ele>476</ele>
        <time>2018-06-25T08:58:53.473Z</time>
      </trkpt>
      <trkpt lat="45.34836" lon="2.43232">
        <ele>477</ele>
        <time>2018-06-25T08:58:54.473Z</time>
      </trkpt>
      <trkpt lat="45.34933" lon="2.43084">
        <ele>509</ele>
        <time>2018-06-25T08:58:55.473Z</time>
      </trkpt>
      <trkpt lat="45.35022" lon="2.43098">
        <ele>511</ele>
        <time>2018-06-25T08:58:56.473Z</time>
      </trkpt>
      <trkpt lat="45.35042" lon="2.43084">
        <ele>511</ele>
        <time>2018-06-25T08:58:57.473Z</time>
      </trkpt>
      <trkpt lat="45.35067" lon="2.42986">
        <ele>514</ele>
        <time>2018-06-25T08:58:58.473Z</time>
      </trkpt>
      <trkpt lat="45.35065" lon="2.429">
        <ele>518</ele>
        <time>2018-06-25T08:58:59.473Z</time>
      </trkpt>
      <trkpt lat="45.35095" lon="2.42877">
        <ele>516</ele>
        <time>2018-06-25T08:59:00.473Z</time>
      </trkpt>
      <trkpt lat="45.35092" lon="2.42759">
        <ele>512</ele>
        <time>2018-06-25T08:59:01.473Z</time>
      </trkpt>
      <trkpt lat="45.35063" lon="2.42651">
        <ele>506</ele>
        <time>2018-06-25T08:59:02.473Z</time>
      </trkpt>
      <trkpt lat="45.35074" lon="2.42544">
        <ele>502</ele>
        <time>2018-06-25T08:59:03.473Z</time>
      </trkpt>
      <trkpt lat="45.35103" lon="2.42457">
        <ele>502</ele>
        <time>2018-06-25T08:59:04.473Z</time>
      </trkpt>
      <trkpt lat="45.35195" lon="2.42356">
        <ele>506</ele>
        <time>2018-06-25T08:59:05.473Z</time>
      </trkpt>
      <trkpt lat="45.35151" lon="2.4233">
        <ele>508</ele>
        <time>2018-06-25T08:59:06.473Z</time>
      </trkpt>
      <trkpt lat="45.35074" lon="2.42128">
        <ele>522</ele>
        <time>2018-06-25T08:59:07.473Z</time>
      </trkpt>
      <trkpt lat="45.35096" lon="2.4213">
        <ele>524</ele>
        <time>2018-06-25T08:59:08.473Z</time>
      </trkpt>
      <trkpt lat="45.35184" lon="2.42015">
        <ele>537</ele>
        <time>2018-06-25T08:59:09.473Z</time>
      </trkpt>
      <trkpt lat="45.35163" lon="2.41995">
        <ele>538</ele>
        <time>2018-06-25T08:59:10.473Z</time>
      </trkpt>
      <trkpt lat="45.35164" lon="2.41992">
        <ele>539</ele>
        <time>2018-06-25T08:59:11.473Z</time>
      </trkpt>
      <trkpt lat="45.35118" lon="2.41965">
        <ele>540</ele>
        <time>2018-06-25T08:59:12.473Z</time>
      </trkpt>
      <trkpt lat="45.35084" lon="2.41939">
        <ele>542</ele>
        <time>2018-06-25T08:59:13.473Z</time>
      </trkpt>
      <trkpt lat="45.35084" lon="2.41939">
        <ele>542</ele>
        <time>2018-06-25T08:59:14.473Z</time>
      </trkpt>
      <trkpt lat="45.35051" lon="2.41913">
        <ele>543</ele>
        <time>2018-06-25T08:59:15.473Z</time>
      </trkpt>
      <trkpt lat="45.35024" lon="2.41811">
        <ele>552</ele>
        <time>2018-06-25T08:59:16.473Z</time>
      </trkpt>
      <trkpt lat="45.3502" lon="2.41781">
        <ele>555</ele>
        <time>2018-06-25T08:59:17.473Z</time>
      </trkpt>
      <trkpt lat="45.35003" lon="2.41724">
        <ele>560</ele>
        <time>2018-06-25T08:59:18.473Z</time>
      </trkpt>
      <trkpt lat="45.35012" lon="2.41652">
        <ele>569</ele>
        <time>2018-06-25T08:59:19.473Z</time>
      </trkpt>
      <trkpt lat="45.35036" lon="2.41626">
        <ele>574</ele>
        <time>2018-06-25T08:59:20.473Z</time>
      </trkpt>
      <trkpt lat="45.35106" lon="2.41613">
        <ele>582</ele>
        <time>2018-06-25T08:59:21.473Z</time>
      </trkpt>
      <trkpt lat="45.3518" lon="2.4167">
        <ele>585</ele>
        <time>2018-06-25T08:59:22.473Z</time>
      </trkpt>
      <trkpt lat="45.35224" lon="2.41673">
        <ele>588</ele>
        <time>2018-06-25T08:59:23.473Z</time>
      </trkpt>
      <trkpt lat="45.35318" lon="2.41523">
        <ele>605</ele>
        <time>2018-06-25T08:59:24.473Z</time>
      </trkpt>
      <trkpt lat="45.35329" lon="2.41244">
        <ele>633</ele>
        <time>2018-06-25T08:59:25.473Z</time>
      </trkpt>
      <trkpt lat="45.35428" lon="2.41063">
        <ele>639</ele>
        <time>2018-06-25T08:59:26.473Z</time>
      </trkpt>
      <trkpt lat="45.35599" lon="2.4096">
        <ele>640</ele>
        <time>2018-06-25T08:59:27.473Z</time>
      </trkpt>
      <trkpt lat="45.35693" lon="2.40434">
        <ele>633</ele>
        <time>2018-06-25T08:59:28.473Z</time>
      </trkpt>
      <trkpt lat="45.35675" lon="2.40114">
        <ele>626</ele>
        <time>2018-06-25T08:59:29.473Z</time>
      </trkpt>
      <trkpt lat="45.35701" lon="2.39863">
        <ele>621</ele>
        <time>2018-06-25T08:59:30.473Z</time>
      </trkpt>
      <trkpt lat="45.35714" lon="2.39853">
        <ele>621</ele>
        <time>2018-06-25T08:59:31.473Z</time>
      </trkpt>
      <trkpt lat="45.35899" lon="2.3999">
        <ele>621</ele>
        <time>2018-06-25T08:59:32.473Z</time>
      </trkpt>
      <trkpt lat="45.35999" lon="2.39983">
        <ele>622</ele>
        <time>2018-06-25T08:59:33.473Z</time>
      </trkpt>
      <trkpt lat="45.36186" lon="2.39904">
        <ele>628</ele>
        <time>2018-06-25T08:59:34.473Z</time>
      </trkpt>
      <trkpt lat="45.36175" lon="2.39897">
        <ele>627</ele>
        <time>2018-06-25T08:59:35.473Z</time>
      </trkpt>
      <trkpt lat="45.36242" lon="2.39776">
        <ele>625</ele>
        <time>2018-06-25T08:59:36.473Z</time>
      </trkpt>
      <trkpt lat="45.36318" lon="2.39678">
        <ele>625</ele>
        <time>2018-06-25T08:59:37.473Z</time>
      </trkpt>
      <trkpt lat="45.36339" lon="2.39619">
        <ele>623</ele>
        <time>2018-06-25T08:59:38.473Z</time>
      </trkpt>
      <trkpt lat="45.36357" lon="2.39388">
        <ele>617</ele>
        <time>2018-06-25T08:59:39.473Z</time>
      </trkpt>
      <trkpt lat="45.36496" lon="2.39069">
        <ele>612</ele>
        <time>2018-06-25T08:59:40.473Z</time>
      </trkpt>
      <trkpt lat="45.36388" lon="2.39022">
        <ele>608</ele>
        <time>2018-06-25T08:59:41.473Z</time>
      </trkpt>
      <trkpt lat="45.36287" lon="2.38942">
        <ele>610</ele>
        <time>2018-06-25T08:59:42.473Z</time>
      </trkpt>
      <trkpt lat="45.36222" lon="2.38928">
        <ele>614</ele>
        <time>2018-06-25T08:59:43.473Z</time>
      </trkpt>
      <trkpt lat="45.36078" lon="2.3882">
        <ele>617</ele>
        <time>2018-06-25T08:59:44.473Z</time>
      </trkpt>
      <trkpt lat="45.36072" lon="2.38788">
        <ele>617</ele>
        <time>2018-06-25T08:59:45.473Z</time>
      </trkpt>
      <trkpt lat="45.36231" lon="2.38704">
        <ele>614</ele>
        <time>2018-06-25T08:59:46.473Z</time>
      </trkpt>
      <trkpt lat="45.36285" lon="2.38607">
        <ele>610</ele>
        <time>2018-06-25T08:59:47.473Z</time>
      </trkpt>
      <trkpt lat="45.36284" lon="2.38516">
        <ele>609</ele>
        <time>2018-06-25T08:59:48.473Z</time>
      </trkpt>
      <trkpt lat="45.36258" lon="2.38458">
        <ele>609</ele>
        <time>2018-06-25T08:59:49.473Z</time>
      </trkpt>
      <trkpt lat="45.36184" lon="2.38416">
        <ele>609</ele>
        <time>2018-06-25T08:59:50.473Z</time>
      </trkpt>
      <trkpt lat="45.36127" lon="2.38218">
        <ele>598</ele>
        <time>2018-06-25T08:59:51.473Z</time>
      </trkpt>
      <trkpt lat="45.36043" lon="2.3804">
        <ele>594</ele>
        <time>2018-06-25T08:59:52.473Z</time>
      </trkpt>
      <trkpt lat="45.35997" lon="2.37893">
        <ele>587</ele>
        <time>2018-06-25T08:59:53.473Z</time>
      </trkpt>
      <trkpt lat="45.35969" lon="2.37735">
        <ele>572</ele>
        <time>2018-06-25T08:59:54.473Z</time>
      </trkpt>
      <trkpt lat="45.36029" lon="2.3755">
        <ele>558</ele>
        <time>2018-06-25T08:59:55.473Z</time>
      </trkpt>
      <trkpt lat="45.36013" lon="2.37367">
        <ele>552</ele>
        <time>2018-06-25T08:59:56.473Z</time>
      </trkpt>
      <trkpt lat="45.3598" lon="2.37262">
        <ele>544</ele>
        <time>2018-06-25T08:59:57.473Z</time>
      </trkpt>
      <trkpt lat="45.3596" lon="2.37102">
        <ele>527</ele>
        <time>2018-06-25T08:59:58.473Z</time>
      </trkpt>
      <trkpt lat="45.35794" lon="2.3684">
        <ele>479</ele>
        <time>2018-06-25T08:59:59.473Z</time>
      </trkpt>
      <trkpt lat="45.35762" lon="2.36837">
        <ele>477</ele>
        <time>2018-06-25T09:00:00.473Z</time>
      </trkpt>
      <trkpt lat="45.3574" lon="2.368">
        <ele>465</ele>
        <time>2018-06-25T09:00:01.473Z</time>
      </trkpt>
      <trkpt lat="45.35762" lon="2.36763">
        <ele>451</ele>
        <time>2018-06-25T09:00:02.473Z</time>
      </trkpt>
      <trkpt lat="45.36103" lon="2.36629">
        <ele>412</ele>
        <time>2018-06-25T09:00:03.473Z</time>
      </trkpt>
      <trkpt lat="45.36161" lon="2.3664">
        <ele>410</ele>
        <time>2018-06-25T09:00:04.473Z</time>
      </trkpt>
      <trkpt lat="45.36206" lon="2.3669">
        <ele>406</ele>
        <time>2018-06-25T09:00:05.473Z</time>
      </trkpt>
      <trkpt lat="45.36226" lon="2.36847">
        <ele>416</ele>
        <time>2018-06-25T09:00:06.473Z</time>
      </trkpt>
      <trkpt lat="45.36264" lon="2.36904">
        <ele>411</ele>
        <time>2018-06-25T09:00:07.473Z</time>
      </trkpt>
      <trkpt lat="45.36377" lon="2.36992">
        <ele>395</ele>
        <time>2018-06-25T09:00:08.473Z</time>
      </trkpt>
      <trkpt lat="45.36396" lon="2.37149">
        <ele>411</ele>
        <time>2018-06-25T09:00:09.473Z</time>
      </trkpt>
      <trkpt lat="45.36476" lon="2.36937">
        <ele>366</ele>
        <time>2018-06-25T09:00:10.473Z</time>
      </trkpt>
      <trkpt lat="45.36556" lon="2.36884">
        <ele>362</ele>
        <time>2018-06-25T09:00:11.473Z</time>
      </trkpt>
      <trkpt lat="45.36578" lon="2.36831">
        <ele>352</ele>
        <time>2018-06-25T09:00:12.473Z</time>
      </trkpt>
      <trkpt lat="45.36592" lon="2.36716">
        <ele>354</ele>
        <time>2018-06-25T09:00:13.473Z</time>
      </trkpt>
      <trkpt lat="45.36513" lon="2.3664">
        <ele>357</ele>
        <time>2018-06-25T09:00:14.473Z</time>
      </trkpt>
      <trkpt lat="45.36489" lon="2.36542">
        <ele>372</ele>
        <time>2018-06-25T09:00:15.473Z</time>
      </trkpt>
      <trkpt lat="45.36408" lon="2.36367">
        <ele>396</ele>
        <time>2018-06-25T09:00:16.473Z</time>
      </trkpt>
      <trkpt lat="45.36308" lon="2.36321">
        <ele>387</ele>
        <time>2018-06-25T09:00:17.473Z</time>
      </trkpt>
      <trkpt lat="45.36287" lon="2.36268">
        <ele>409</ele>
        <time>2018-06-25T09:00:18.473Z</time>
      </trkpt>
      <trkpt lat="45.36148" lon="2.36244">
        <ele>408</ele>
        <time>2018-06-25T09:00:19.473Z</time>
      </trkpt>
      <trkpt lat="45.36043" lon="2.36273">
        <ele>405</ele>
        <time>2018-06-25T09:00:20.473Z</time>
      </trkpt>
      <trkpt lat="45.35973" lon="2.36268">
        <ele>417</ele>
        <time>2018-06-25T09:00:21.473Z</time>
      </trkpt>
      <trkpt lat="45.35844" lon="2.36305">
        <ele>416</ele>
        <time>2018-06-25T09:00:22.473Z</time>
      </trkpt>
      <trkpt lat="45.35777" lon="2.36267">
        <ele>438</ele>
        <time>2018-06-25T09:00:23.473Z</time>
      </trkpt>
      <trkpt lat="45.35647" lon="2.36294">
        <ele>428</ele>
        <time>2018-06-25T09:00:24.473Z</time>
      </trkpt>
      <trkpt lat="45.35603" lon="2.36266">
        <ele>428</ele>
        <time>2018-06-25T09:00:25.473Z</time>
      </trkpt>
      <trkpt lat="45.35589" lon="2.36221">
        <ele>427</ele>
        <time>2018-06-25T09:00:26.473Z</time>
      </trkpt>
      <trkpt lat="45.35607" lon="2.3618">
        <ele>434</ele>
        <time>2018-06-25T09:00:27.473Z</time>
      </trkpt>
      <trkpt lat="45.35643" lon="2.3616">
        <ele>450</ele>
        <time>2018-06-25T09:00:28.473Z</time>
      </trkpt>
      <trkpt lat="45.35693" lon="2.36079">
        <ele>460</ele>
        <time>2018-06-25T09:00:29.473Z</time>
      </trkpt>
      <trkpt lat="45.35714" lon="2.35906">
        <ele>467</ele>
        <time>2018-06-25T09:00:30.473Z</time>
      </trkpt>
      <trkpt lat="45.35715" lon="2.3571">
        <ele>472</ele>
        <time>2018-06-25T09:00:31.473Z</time>
      </trkpt>
      <trkpt lat="45.35747" lon="2.3567">
        <ele>489</ele>
        <time>2018-06-25T09:00:32.473Z</time>
      </trkpt>
      <trkpt lat="45.35756" lon="2.35628">
        <ele>495</ele>
        <time>2018-06-25T09:00:33.473Z</time>
      </trkpt>
      <trkpt lat="45.35719" lon="2.35429">
        <ele>507</ele>
        <time>2018-06-25T09:00:34.473Z</time>
      </trkpt>
      <trkpt lat="45.35768" lon="2.35199">
        <ele>535</ele>
        <time>2018-06-25T09:00:35.473Z</time>
      </trkpt>
      <trkpt lat="45.35827" lon="2.35094">
        <ele>540</ele>
        <time>2018-06-25T09:00:36.473Z</time>
      </trkpt>
      <trkpt lat="45.35845" lon="2.35023">
        <ele>543</ele>
        <time>2018-06-25T09:00:37.473Z</time>
      </trkpt>
      <trkpt lat="45.35814" lon="2.34845">
        <ele>547</ele>
        <time>2018-06-25T09:00:38.473Z</time>
      </trkpt>
      <trkpt lat="45.35839" lon="2.34816">
        <ele>546</ele>
        <time>2018-06-25T09:00:39.473Z</time>
      </trkpt>
      <trkpt lat="45.35893" lon="2.34949">
        <ele>554</ele>
        <time>2018-06-25T09:00:40.473Z</time>
      </trkpt>
      <trkpt lat="45.35916" lon="2.35094">
        <ele>556</ele>
        <time>2018-06-25T09:00:41.473Z</time>
      </trkpt>
      <trkpt lat="45.3591" lon="2.35219">
        <ele>556</ele>
        <time>2018-06-25T09:00:42.473Z</time>
      </trkpt>
      <trkpt lat="45.35933" lon="2.35299">
        <ele>558</ele>
        <time>2018-06-25T09:00:43.473Z</time>
      </trkpt>
      <trkpt lat="45.3597" lon="2.35319">
        <ele>557</ele>
        <time>2018-06-25T09:00:44.473Z</time>
      </trkpt>
      <trkpt lat="45.36092" lon="2.35285">
        <ele>567</ele>
        <time>2018-06-25T09:00:45.473Z</time>
      </trkpt>
      <trkpt lat="45.36124" lon="2.35256">
        <ele>572</ele>
        <time>2018-06-25T09:00:46.473Z</time>
      </trkpt>
      <trkpt lat="45.36208" lon="2.35386">
        <ele>573</ele>
        <time>2018-06-25T09:00:47.473Z</time>
      </trkpt>
      <trkpt lat="45.36264" lon="2.35351">
        <ele>576</ele>
        <time>2018-06-25T09:00:48.473Z</time>
      </trkpt>
      <trkpt lat="45.36428" lon="2.35396">
        <ele>576</ele>
        <time>2018-06-25T09:00:49.473Z</time>
      </trkpt>
      <trkpt lat="45.3652" lon="2.35375">
        <ele>573</ele>
        <time>2018-06-25T09:00:50.473Z</time>
      </trkpt>
      <trkpt lat="45.36559" lon="2.35392">
        <ele>572</ele>
        <time>2018-06-25T09:00:51.473Z</time>
      </trkpt>
      <trkpt lat="45.36592" lon="2.35446">
        <ele>571</ele>
        <time>2018-06-25T09:00:52.473Z</time>
      </trkpt>
      <trkpt lat="45.36608" lon="2.35546">
        <ele>562</ele>
        <time>2018-06-25T09:00:53.473Z</time>
      </trkpt>
      <trkpt lat="45.36675" lon="2.3567">
        <ele>549</ele>
        <time>2018-06-25T09:00:54.473Z</time>
      </trkpt>
      <trkpt lat="45.36765" lon="2.35747">
        <ele>545</ele>
        <time>2018-06-25T09:00:55.473Z</time>
      </trkpt>
      <trkpt lat="45.36901" lon="2.35774">
        <ele>551</ele>
        <time>2018-06-25T09:00:56.473Z</time>
      </trkpt>
      <trkpt lat="45.3698" lon="2.35865">
        <ele>559</ele>
        <time>2018-06-25T09:00:57.473Z</time>
      </trkpt>
      <trkpt lat="45.37034" lon="2.35892">
        <ele>560</ele>
        <time>2018-06-25T09:00:58.473Z</time>
      </trkpt>
      <trkpt lat="45.37067" lon="2.35872">
        <ele>560</ele>
        <time>2018-06-25T09:00:59.473Z</time>
      </trkpt>
      <trkpt lat="45.37167" lon="2.35891">
        <ele>568</ele>
        <time>2018-06-25T09:01:00.473Z</time>
      </trkpt>
      <trkpt lat="45.37195" lon="2.35874">
        <ele>568</ele>
        <time>2018-06-25T09:01:01.473Z</time>
      </trkpt>
      <trkpt lat="45.37206" lon="2.35765">
        <ele>568</ele>
        <time>2018-06-25T09:01:02.473Z</time>
      </trkpt>
      <trkpt lat="45.37181" lon="2.3567">
        <ele>570</ele>
        <time>2018-06-25T09:01:03.473Z</time>
      </trkpt>
      <trkpt lat="45.3713" lon="2.35599">
        <ele>572</ele>
        <time>2018-06-25T09:01:04.473Z</time>
      </trkpt>
      <trkpt lat="45.37092" lon="2.35473">
        <ele>582</ele>
        <time>2018-06-25T09:01:05.473Z</time>
      </trkpt>
      <trkpt lat="45.37108" lon="2.35408">
        <ele>587</ele>
        <time>2018-06-25T09:01:06.473Z</time>
      </trkpt>
      <trkpt lat="45.37184" lon="2.35362">
        <ele>597</ele>
        <time>2018-06-25T09:01:07.473Z</time>
      </trkpt>
      <trkpt lat="45.37213" lon="2.35288">
        <ele>602</ele>
        <time>2018-06-25T09:01:08.473Z</time>
      </trkpt>
      <trkpt lat="45.37181" lon="2.35081">
        <ele>610</ele>
        <time>2018-06-25T09:01:09.473Z</time>
      </trkpt>
      <trkpt lat="45.37338" lon="2.34739">
        <ele>637</ele>
        <time>2018-06-25T09:01:10.473Z</time>
      </trkpt>
      <trkpt lat="45.37379" lon="2.34589">
        <ele>642</ele>
        <time>2018-06-25T09:01:11.473Z</time>
      </trkpt>
      <trkpt lat="45.3746" lon="2.34484">
        <ele>643</ele>
        <time>2018-06-25T09:01:12.473Z</time>
      </trkpt>
      <trkpt lat="45.37475" lon="2.34286">
        <ele>647</ele>
        <time>2018-06-25T09:01:13.473Z</time>
      </trkpt>
      <trkpt lat="45.37437" lon="2.33911">
        <ele>652</ele>
        <time>2018-06-25T09:01:14.473Z</time>
      </trkpt>
      <trkpt lat="45.37396" lon="2.33763">
        <ele>647</ele>
        <time>2018-06-25T09:01:15.473Z</time>
      </trkpt>
      <trkpt lat="45.37392" lon="2.3365">
        <ele>646</ele>
        <time>2018-06-25T09:01:16.473Z</time>
      </trkpt>
      <trkpt lat="45.3746" lon="2.33511">
        <ele>654</ele>
        <time>2018-06-25T09:01:17.473Z</time>
      </trkpt>
      <trkpt lat="45.37487" lon="2.33241">
        <ele>657</ele>
        <time>2018-06-25T09:01:18.473Z</time>
      </trkpt>
      <trkpt lat="45.37572" lon="2.32836">
        <ele>655</ele>
        <time>2018-06-25T09:01:19.473Z</time>
      </trkpt>
      <trkpt lat="45.37603" lon="2.32446">
        <ele>652</ele>
        <time>2018-06-25T09:01:20.473Z</time>
      </trkpt>
      <trkpt lat="45.37547" lon="2.32084">
        <ele>655</ele>
        <time>2018-06-25T09:01:21.473Z</time>
      </trkpt>
      <trkpt lat="45.3737" lon="2.31795">
        <ele>654</ele>
        <time>2018-06-25T09:01:22.473Z</time>
      </trkpt>
      <trkpt lat="45.37409" lon="2.31394">
        <ele>642</ele>
        <time>2018-06-25T09:01:23.473Z</time>
      </trkpt>
      <trkpt lat="45.37436" lon="2.31354">
        <ele>642</ele>
        <time>2018-06-25T09:01:24.473Z</time>
      </trkpt>
      <trkpt lat="45.37675" lon="2.31243">
        <ele>645</ele>
        <time>2018-06-25T09:01:25.473Z</time>
      </trkpt>
      <trkpt lat="45.37697" lon="2.31209">
        <ele>645</ele>
        <time>2018-06-25T09:01:26.473Z</time>
      </trkpt>
      <trkpt lat="45.37699" lon="2.31166">
        <ele>646</ele>
        <time>2018-06-25T09:01:27.473Z</time>
      </trkpt>
      <trkpt lat="45.37647" lon="2.30975">
        <ele>657</ele>
        <time>2018-06-25T09:01:28.473Z</time>
      </trkpt>
      <trkpt lat="45.37655" lon="2.30925">
        <ele>661</ele>
        <time>2018-06-25T09:01:29.473Z</time>
      </trkpt>
      <trkpt lat="45.37708" lon="2.30847">
        <ele>661</ele>
        <time>2018-06-25T09:01:30.473Z</time>
      </trkpt>
      <trkpt lat="45.3772" lon="2.307">
        <ele>656</ele>
        <time>2018-06-25T09:01:31.473Z</time>
      </trkpt>
      <trkpt lat="45.37576" lon="2.30449">
        <ele>641</ele>
        <time>2018-06-25T09:01:32.473Z</time>
      </trkpt>
      <trkpt lat="45.37587" lon="2.30404">
        <ele>637</ele>
        <time>2018-06-25T09:01:33.473Z</time>
      </trkpt>
      <trkpt lat="45.37717" lon="2.30194">
        <ele>625</ele>
        <time>2018-06-25T09:01:34.473Z</time>
      </trkpt>
      <trkpt lat="45.37713" lon="2.3014">
        <ele>624</ele>
        <time>2018-06-25T09:01:35.473Z</time>
      </trkpt>
      <trkpt lat="45.37668" lon="2.30084">
        <ele>620</ele>
        <time>2018-06-25T09:01:36.473Z</time>
      </trkpt>
      <trkpt lat="45.37653" lon="2.2999">
        <ele>615</ele>
        <time>2018-06-25T09:01:37.473Z</time>
      </trkpt>
      <trkpt lat="45.37695" lon="2.29875">
        <ele>601</ele>
        <time>2018-06-25T09:01:38.473Z</time>
      </trkpt>
      <trkpt lat="45.37681" lon="2.29737">
        <ele>599</ele>
        <time>2018-06-25T09:01:39.473Z</time>
      </trkpt>
      <trkpt lat="45.37695" lon="2.29664">
        <ele>608</ele>
        <time>2018-06-25T09:01:40.473Z</time>
      </trkpt>
      <trkpt lat="45.37657" lon="2.29433">
        <ele>605</ele>
        <time>2018-06-25T09:01:41.473Z</time>
      </trkpt>
      <trkpt lat="45.37665" lon="2.29404">
        <ele>604</ele>
        <time>2018-06-25T09:01:42.473Z</time>
      </trkpt>
      <trkpt lat="45.37701" lon="2.29387">
        <ele>608</ele>
        <time>2018-06-25T09:01:43.473Z</time>
      </trkpt>
      <trkpt lat="45.37785" lon="2.29461">
        <ele>607</ele>
        <time>2018-06-25T09:01:44.473Z</time>
      </trkpt>
      <trkpt lat="45.37944" lon="2.2946">
        <ele>609</ele>
        <time>2018-06-25T09:01:45.473Z</time>
      </trkpt>
      <trkpt lat="45.37955" lon="2.29426">
        <ele>612</ele>
        <time>2018-06-25T09:01:46.473Z</time>
      </trkpt>
      <trkpt lat="45.37895" lon="2.29202">
        <ele>619</ele>
        <time>2018-06-25T09:01:47.473Z</time>
      </trkpt>
      <trkpt lat="45.37843" lon="2.29074">
        <ele>621</ele>
        <time>2018-06-25T09:01:48.473Z</time>
      </trkpt>
      <trkpt lat="45.37765" lon="2.28994">
        <ele>624</ele>
        <time>2018-06-25T09:01:49.473Z</time>
      </trkpt>
      <trkpt lat="45.37655" lon="2.28806">
        <ele>629</ele>
        <time>2018-06-25T09:01:50.473Z</time>
      </trkpt>
      <trkpt lat="45.37672" lon="2.28665">
        <ele>624</ele>
        <time>2018-06-25T09:01:51.473Z</time>
      </trkpt>
      <trkpt lat="45.37608" lon="2.28478">
        <ele>607</ele>
        <time>2018-06-25T09:01:52.473Z</time>
      </trkpt>
      <trkpt lat="45.37598" lon="2.28373">
        <ele>600</ele>
        <time>2018-06-25T09:01:53.473Z</time>
      </trkpt>
      <trkpt lat="45.3761" lon="2.28153">
        <ele>600</ele>
        <time>2018-06-25T09:01:54.473Z</time>
      </trkpt>
      <trkpt lat="45.37656" lon="2.28062">
        <ele>600</ele>
        <time>2018-06-25T09:01:55.473Z</time>
      </trkpt>
      <trkpt lat="45.37695" lon="2.27854">
        <ele>611</ele>
        <time>2018-06-25T09:01:56.473Z</time>
      </trkpt>
      <trkpt lat="45.37633" lon="2.27557">
        <ele>613</ele>
        <time>2018-06-25T09:01:57.473Z</time>
      </trkpt>
      <trkpt lat="45.37635" lon="2.27391">
        <ele>617</ele>
        <time>2018-06-25T09:01:58.473Z</time>
      </trkpt>
      <trkpt lat="45.37701" lon="2.27325">
        <ele>621</ele>
        <time>2018-06-25T09:01:59.473Z</time>
      </trkpt>
      <trkpt lat="45.37798" lon="2.27338">
        <ele>620</ele>
        <time>2018-06-25T09:02:00.473Z</time>
      </trkpt>
      <trkpt lat="45.3798" lon="2.27268">
        <ele>618</ele>
        <time>2018-06-25T09:02:01.473Z</time>
      </trkpt>
      <trkpt lat="45.38083" lon="2.27181">
        <ele>625</ele>
        <time>2018-06-25T09:02:02.473Z</time>
      </trkpt>
      <trkpt lat="45.38007" lon="2.27244">
        <ele>619</ele>
        <time>2018-06-25T09:02:03.473Z</time>
      </trkpt>
      <trkpt lat="45.3808" lon="2.27183">
        <ele>625</ele>
        <time>2018-06-25T09:02:04.473Z</time>
      </trkpt>
      <trkpt lat="45.38088" lon="2.27086">
        <ele>627</ele>
        <time>2018-06-25T09:02:05.473Z</time>
      </trkpt>
      <trkpt lat="45.3814" lon="2.27127">
        <ele>629</ele>
        <time>2018-06-25T09:02:06.473Z</time>
      </trkpt>
      <trkpt lat="45.38194" lon="2.2708">
        <ele>631</ele>
        <time>2018-06-25T09:02:07.473Z</time>
      </trkpt>
      <trkpt lat="45.3824" lon="2.26933">
        <ele>629</ele>
        <time>2018-06-25T09:02:08.473Z</time>
      </trkpt>
      <trkpt lat="45.38332" lon="2.26876">
        <ele>626</ele>
        <time>2018-06-25T09:02:09.473Z</time>
      </trkpt>
      <trkpt lat="45.38427" lon="2.26531">
        <ele>623</ele>
        <time>2018-06-25T09:02:10.473Z</time>
      </trkpt>
      <trkpt lat="45.38455" lon="2.26474">
        <ele>626</ele>
        <time>2018-06-25T09:02:11.473Z</time>
      </trkpt>
      <trkpt lat="45.38517" lon="2.26242">
        <ele>640</ele>
        <time>2018-06-25T09:02:12.473Z</time>
      </trkpt>
      <trkpt lat="45.38495" lon="2.26189">
        <ele>644</ele>
        <time>2018-06-25T09:02:13.473Z</time>
      </trkpt>
      <trkpt lat="45.38464" lon="2.25981">
        <ele>651</ele>
        <time>2018-06-25T09:02:14.473Z</time>
      </trkpt>
      <trkpt lat="45.38372" lon="2.25874">
        <ele>652</ele>
        <time>2018-06-25T09:02:15.473Z</time>
      </trkpt>
      <trkpt lat="45.38327" lon="2.2588">
        <ele>650</ele>
        <time>2018-06-25T09:02:16.473Z</time>
      </trkpt>
      <trkpt lat="45.38316" lon="2.25743">
        <ele>651</ele>
        <time>2018-06-25T09:02:17.473Z</time>
      </trkpt>
      <trkpt lat="45.38335" lon="2.25515">
        <ele>655</ele>
        <time>2018-06-25T09:02:18.473Z</time>
      </trkpt>
      <trkpt lat="45.38318" lon="2.25407">
        <ele>660</ele>
        <time>2018-06-25T09:02:19.473Z</time>
      </trkpt>
      <trkpt lat="45.38267" lon="2.25308">
        <ele>660</ele>
        <time>2018-06-25T09:02:20.473Z</time>
      </trkpt>
      <trkpt lat="45.38206" lon="2.25253">
        <ele>662</ele>
        <time>2018-06-25T09:02:21.473Z</time>
      </trkpt>
      <trkpt lat="45.38105" lon="2.25209">
        <ele>670</ele>
        <time>2018-06-25T09:02:22.473Z</time>
      </trkpt>
      <trkpt lat="45.38094" lon="2.25049">
        <ele>671</ele>
        <time>2018-06-25T09:02:23.473Z</time>
      </trkpt>
      <trkpt lat="45.38146" lon="2.24794">
        <ele>650</ele>
        <time>2018-06-25T09:02:24.473Z</time>
      </trkpt>
      <trkpt lat="45.38215" lon="2.24767">
        <ele>644</ele>
        <time>2018-06-25T09:02:25.473Z</time>
      </trkpt>
      <trkpt lat="45.3824" lon="2.24723">
        <ele>641</ele>
        <time>2018-06-25T09:02:26.473Z</time>
      </trkpt>
      <trkpt lat="45.38333" lon="2.24694">
        <ele>634</ele>
        <time>2018-06-25T09:02:27.473Z</time>
      </trkpt>
      <trkpt lat="45.38374" lon="2.246">
        <ele>635</ele>
        <time>2018-06-25T09:02:28.473Z</time>
      </trkpt>
      <trkpt lat="45.38394" lon="2.24621">
        <ele>634</ele>
        <time>2018-06-25T09:02:29.473Z</time>
      </trkpt>
      <trkpt lat="45.38435" lon="2.24604">
        <ele>633</ele>
        <time>2018-06-25T09:02:30.473Z</time>
      </trkpt>
      <trkpt lat="45.38571" lon="2.24653">
        <ele>631</ele>
        <time>2018-06-25T09:02:31.473Z</time>
      </trkpt>
      <trkpt lat="45.38661" lon="2.24473">
        <ele>634</ele>
        <time>2018-06-25T09:02:32.473Z</time>
      </trkpt>
      <trkpt lat="45.38642" lon="2.24288">
        <ele>618</ele>
        <time>2018-06-25T09:02:33.473Z</time>
      </trkpt>
      <trkpt lat="45.38567" lon="2.24097">
        <ele>618</ele>
        <time>2018-06-25T09:02:34.473Z</time>
      </trkpt>
      <trkpt lat="45.38507" lon="2.23869">
        <ele>614</ele>
        <time>2018-06-25T09:02:35.473Z</time>
      </trkpt>
      <trkpt lat="45.38478" lon="2.23822">
        <ele>612</ele>
        <time>2018-06-25T09:02:36.473Z</time>
      </trkpt>
      <trkpt lat="45.38399" lon="2.23436">
        <ele>586</ele>
        <time>2018-06-25T09:02:37.473Z</time>
      </trkpt>
      <trkpt lat="45.3832" lon="2.23393">
        <ele>595</ele>
        <time>2018-06-25T09:02:38.473Z</time>
      </trkpt>
      <trkpt lat="45.38279" lon="2.2334">
        <ele>601</ele>
        <time>2018-06-25T09:02:39.473Z</time>
      </trkpt>
      <trkpt lat="45.38251" lon="2.23119">
        <ele>625</ele>
        <time>2018-06-25T09:02:40.473Z</time>
      </trkpt>
      <trkpt lat="45.38221" lon="2.23148">
        <ele>627</ele>
        <time>2018-06-25T09:02:41.473Z</time>
      </trkpt>
      <trkpt lat="45.38092" lon="2.23038">
        <ele>638</ele>
        <time>2018-06-25T09:02:42.473Z</time>
      </trkpt>
      <trkpt lat="45.38088" lon="2.22928">
        <ele>634</ele>
        <time>2018-06-25T09:02:43.473Z</time>
      </trkpt>
      <trkpt lat="45.37962" lon="2.22729">
        <ele>627</ele>
        <time>2018-06-25T09:02:44.473Z</time>
      </trkpt>
      <trkpt lat="45.37939" lon="2.22659">
        <ele>628</ele>
        <time>2018-06-25T09:02:45.473Z</time>
      </trkpt>
      <trkpt lat="45.37863" lon="2.22579">
        <ele>625</ele>
        <time>2018-06-25T09:02:46.473Z</time>
      </trkpt>
      <trkpt lat="45.37777" lon="2.22408">
        <ele>611</ele>
        <time>2018-06-25T09:02:47.473Z</time>
      </trkpt>
      <trkpt lat="45.37701" lon="2.22321">
        <ele>607</ele>
        <time>2018-06-25T09:02:48.473Z</time>
      </trkpt>
      <trkpt lat="45.37635" lon="2.22284">
        <ele>605</ele>
        <time>2018-06-25T09:02:49.473Z</time>
      </trkpt>
      <trkpt lat="45.3753" lon="2.21952">
        <ele>597</ele>
        <time>2018-06-25T09:02:50.473Z</time>
      </trkpt>
      <trkpt lat="45.37294" lon="2.21613">
        <ele>566</ele>
        <time>2018-06-25T09:02:51.473Z</time>
      </trkpt>
      <trkpt lat="45.37266" lon="2.21606">
        <ele>564</ele>
        <time>2018-06-25T09:02:52.473Z</time>
      </trkpt>
      <trkpt lat="45.37195" lon="2.217">
        <ele>561</ele>
        <time>2018-06-25T09:02:53.473Z</time>
      </trkpt>
      <trkpt lat="45.37149" lon="2.21687">
        <ele>561</ele>
        <time>2018-06-25T09:02:54.473Z</time>
      </trkpt>
      <trkpt lat="45.37096" lon="2.21543">
        <ele>563</ele>
        <time>2018-06-25T09:02:55.473Z</time>
      </trkpt>
      <trkpt lat="45.37127" lon="2.21416">
        <ele>555</ele>
        <time>2018-06-25T09:02:56.473Z</time>
      </trkpt>
      <trkpt lat="45.37089" lon="2.21295">
        <ele>549</ele>
        <time>2018-06-25T09:02:57.473Z</time>
      </trkpt>
      <trkpt lat="45.37004" lon="2.21208">
        <ele>538</ele>
        <time>2018-06-25T09:02:58.473Z</time>
      </trkpt>
      <trkpt lat="45.3694" lon="2.21242">
        <ele>539</ele>
        <time>2018-06-25T09:02:59.473Z</time>
      </trkpt>
      <trkpt lat="45.3689" lon="2.21215">
        <ele>541</ele>
        <time>2018-06-25T09:03:00.473Z</time>
      </trkpt>
      <trkpt lat="45.36858" lon="2.21155">
        <ele>545</ele>
        <time>2018-06-25T09:03:01.473Z</time>
      </trkpt>
      <trkpt lat="45.36554" lon="2.2098">
        <ele>553</ele>
        <time>2018-06-25T09:03:02.473Z</time>
      </trkpt>
      <trkpt lat="45.36412" lon="2.2094">
        <ele>556</ele>
        <time>2018-06-25T09:03:03.473Z</time>
      </trkpt>
      <trkpt lat="45.36215" lon="2.20852">
        <ele>557</ele>
        <time>2018-06-25T09:03:04.473Z</time>
      </trkpt>
      <trkpt lat="45.36164" lon="2.2079">
        <ele>556</ele>
        <time>2018-06-25T09:03:05.473Z</time>
      </trkpt>
      <trkpt lat="45.36119" lon="2.2092">
        <ele>560</ele>
        <time>2018-06-25T09:03:06.473Z</time>
      </trkpt>
      <trkpt lat="45.36065" lon="2.20987">
        <ele>571</ele>
        <time>2018-06-25T09:03:07.473Z</time>
      </trkpt>
      <trkpt lat="45.35926" lon="2.20907">
        <ele>576</ele>
        <time>2018-06-25T09:03:08.473Z</time>
      </trkpt>
      <trkpt lat="45.35903" lon="2.2092">
        <ele>579</ele>
        <time>2018-06-25T09:03:09.473Z</time>
      </trkpt>
      <trkpt lat="45.35845" lon="2.21021">
        <ele>585</ele>
        <time>2018-06-25T09:03:10.473Z</time>
      </trkpt>
      <trkpt lat="45.35854" lon="2.21091">
        <ele>590</ele>
        <time>2018-06-25T09:03:11.473Z</time>
      </trkpt>
      <trkpt lat="45.35841" lon="2.21125">
        <ele>593</ele>
        <time>2018-06-25T09:03:12.473Z</time>
      </trkpt>
      <trkpt lat="45.35794" lon="2.21134">
        <ele>596</ele>
        <time>2018-06-25T09:03:13.473Z</time>
      </trkpt>
      <trkpt lat="45.35752" lon="2.21208">
        <ele>606</ele>
        <time>2018-06-25T09:03:14.473Z</time>
      </trkpt>
      <trkpt lat="45.35706" lon="2.21236">
        <ele>611</ele>
        <time>2018-06-25T09:03:15.473Z</time>
      </trkpt>
      <trkpt lat="45.35617" lon="2.21346">
        <ele>626</ele>
        <time>2018-06-25T09:03:16.473Z</time>
      </trkpt>
      <trkpt lat="45.35617" lon="2.21493">
        <ele>631</ele>
        <time>2018-06-25T09:03:17.473Z</time>
      </trkpt>
      <trkpt lat="45.35675" lon="2.21804">
        <ele>637</ele>
        <time>2018-06-25T09:03:18.473Z</time>
      </trkpt>
      <trkpt lat="45.35639" lon="2.21872">
        <ele>637</ele>
        <time>2018-06-25T09:03:19.473Z</time>
      </trkpt>
      <trkpt lat="45.3554" lon="2.21932">
        <ele>635</ele>
        <time>2018-06-25T09:03:20.473Z</time>
      </trkpt>
      <trkpt lat="45.35449" lon="2.21908">
        <ele>634</ele>
        <time>2018-06-25T09:03:21.473Z</time>
      </trkpt>
      <trkpt lat="45.35267" lon="2.21807">
        <ele>639</ele>
        <time>2018-06-25T09:03:22.473Z</time>
      </trkpt>
      <trkpt lat="45.35034" lon="2.21611">
        <ele>634</ele>
        <time>2018-06-25T09:03:23.473Z</time>
      </trkpt>
      <trkpt lat="45.34837" lon="2.21313">
        <ele>637</ele>
        <time>2018-06-25T09:03:24.473Z</time>
      </trkpt>
      <trkpt lat="45.34724" lon="2.21279">
        <ele>635</ele>
        <time>2018-06-25T09:03:25.473Z</time>
      </trkpt>
      <trkpt lat="45.34675" lon="2.21218">
        <ele>632</ele>
        <time>2018-06-25T09:03:26.473Z</time>
      </trkpt>
      <trkpt lat="45.34441" lon="2.21057">
        <ele>614</ele>
        <time>2018-06-25T09:03:27.473Z</time>
      </trkpt>
      <trkpt lat="45.34284" lon="2.20893">
        <ele>610</ele>
        <time>2018-06-25T09:03:28.473Z</time>
      </trkpt>
      <trkpt lat="45.34244" lon="2.20886">
        <ele>609</ele>
        <time>2018-06-25T09:03:29.473Z</time>
      </trkpt>
      <trkpt lat="45.33987" lon="2.2096">
        <ele>614</ele>
        <time>2018-06-25T09:03:30.473Z</time>
      </trkpt>
      <trkpt lat="45.33852" lon="2.21033">
        <ele>608</ele>
        <time>2018-06-25T09:03:31.473Z</time>
      </trkpt>
      <trkpt lat="45.33693" lon="2.20966">
        <ele>600</ele>
        <time>2018-06-25T09:03:32.473Z</time>
      </trkpt>
      <trkpt lat="45.33578" lon="2.21031">
        <ele>591</ele>
        <time>2018-06-25T09:03:33.473Z</time>
      </trkpt>
      <trkpt lat="45.33397" lon="2.21057">
        <ele>596</ele>
        <time>2018-06-25T09:03:34.473Z</time>
      </trkpt>
      <trkpt lat="45.33311" lon="2.21018">
        <ele>603</ele>
        <time>2018-06-25T09:03:35.473Z</time>
      </trkpt>
      <trkpt lat="45.33276" lon="2.20933">
        <ele>605</ele>
        <time>2018-06-25T09:03:36.473Z</time>
      </trkpt>
      <trkpt lat="45.33106" lon="2.20758">
        <ele>612</ele>
        <time>2018-06-25T09:03:37.473Z</time>
      </trkpt>
      <trkpt lat="45.33025" lon="2.20709">
        <ele>612</ele>
        <time>2018-06-25T09:03:38.473Z</time>
      </trkpt>
      <trkpt lat="45.32866" lon="2.20669">
        <ele>605</ele>
        <time>2018-06-25T09:03:39.473Z</time>
      </trkpt>
      <trkpt lat="45.32652" lon="2.20561">
        <ele>599</ele>
        <time>2018-06-25T09:03:40.473Z</time>
      </trkpt>
      <trkpt lat="45.32397" lon="2.20484">
        <ele>604</ele>
        <time>2018-06-25T09:03:41.473Z</time>
      </trkpt>
      <trkpt lat="45.32317" lon="2.2048">
        <ele>604</ele>
        <time>2018-06-25T09:03:42.473Z</time>
      </trkpt>
      <trkpt lat="45.31982" lon="2.20371">
        <ele>589</ele>
        <time>2018-06-25T09:03:43.473Z</time>
      </trkpt>
      <trkpt lat="45.31756" lon="2.20425">
        <ele>583</ele>
        <time>2018-06-25T09:03:44.473Z</time>
      </trkpt>
      <trkpt lat="45.31635" lon="2.20393">
        <ele>585</ele>
        <time>2018-06-25T09:03:45.473Z</time>
      </trkpt>
      <trkpt lat="45.31485" lon="2.20256">
        <ele>579</ele>
        <time>2018-06-25T09:03:46.473Z</time>
      </trkpt>
      <trkpt lat="45.31408" lon="2.20024">
        <ele>570</ele>
        <time>2018-06-25T09:03:47.473Z</time>
      </trkpt>
      <trkpt lat="45.31399" lon="2.19951">
        <ele>565</ele>
        <time>2018-06-25T09:03:48.473Z</time>
      </trkpt>
      <trkpt lat="45.31191" lon="2.19767">
        <ele>556</ele>
        <time>2018-06-25T09:03:49.473Z</time>
      </trkpt>
      <trkpt lat="45.31175" lon="2.19699">
        <ele>552</ele>
        <time>2018-06-25T09:03:50.473Z</time>
      </trkpt>
      <trkpt lat="45.31202" lon="2.1964">
        <ele>549</ele>
        <time>2018-06-25T09:03:51.473Z</time>
      </trkpt>
      <trkpt lat="45.31317" lon="2.19526">
        <ele>537</ele>
        <time>2018-06-25T09:03:52.473Z</time>
      </trkpt>
      <trkpt lat="45.3132" lon="2.19462">
        <ele>533</ele>
        <time>2018-06-25T09:03:53.473Z</time>
      </trkpt>
      <trkpt lat="45.31191" lon="2.19317">
        <ele>524</ele>
        <time>2018-06-25T09:03:54.473Z</time>
      </trkpt>
      <trkpt lat="45.31077" lon="2.19233">
        <ele>518</ele>
        <time>2018-06-25T09:03:55.473Z</time>
      </trkpt>
      <trkpt lat="45.3107" lon="2.19157">
        <ele>514</ele>
        <time>2018-06-25T09:03:56.473Z</time>
      </trkpt>
      <trkpt lat="45.31027" lon="2.19082">
        <ele>516</ele>
        <time>2018-06-25T09:03:57.473Z</time>
      </trkpt>
      <trkpt lat="45.31016" lon="2.19023">
        <ele>512</ele>
        <time>2018-06-25T09:03:58.473Z</time>
      </trkpt>
      <trkpt lat="45.31024" lon="2.18816">
        <ele>495</ele>
        <time>2018-06-25T09:03:59.473Z</time>
      </trkpt>
      <trkpt lat="45.31002" lon="2.18524">
        <ele>472</ele>
        <time>2018-06-25T09:04:00.473Z</time>
      </trkpt>
      <trkpt lat="45.31029" lon="2.18427">
        <ele>464</ele>
        <time>2018-06-25T09:04:01.473Z</time>
      </trkpt>
      <trkpt lat="45.30912" lon="2.18222">
        <ele>441</ele>
        <time>2018-06-25T09:04:02.473Z</time>
      </trkpt>
      <trkpt lat="45.30886" lon="2.18224">
        <ele>437</ele>
        <time>2018-06-25T09:04:03.473Z</time>
      </trkpt>
      <trkpt lat="45.30776" lon="2.18332">
        <ele>428</ele>
        <time>2018-06-25T09:04:04.473Z</time>
      </trkpt>
      <trkpt lat="45.30743" lon="2.18524">
        <ele>430</ele>
        <time>2018-06-25T09:04:05.473Z</time>
      </trkpt>
      <trkpt lat="45.30696" lon="2.18527">
        <ele>419</ele>
        <time>2018-06-25T09:04:06.473Z</time>
      </trkpt>
      <trkpt lat="45.30601" lon="2.18587">
        <ele>407</ele>
        <time>2018-06-25T09:04:07.473Z</time>
      </trkpt>
      <trkpt lat="45.3058" lon="2.18661">
        <ele>408</ele>
        <time>2018-06-25T09:04:08.473Z</time>
      </trkpt>
      <trkpt lat="45.30554" lon="2.18687">
        <ele>411</ele>
        <time>2018-06-25T09:04:09.473Z</time>
      </trkpt>
      <trkpt lat="45.30473" lon="2.18638">
        <ele>410</ele>
        <time>2018-06-25T09:04:10.473Z</time>
      </trkpt>
      <trkpt lat="45.30446" lon="2.18597">
        <ele>411</ele>
        <time>2018-06-25T09:04:11.473Z</time>
      </trkpt>
      <trkpt lat="45.3042" lon="2.18462">
        <ele>381</ele>
        <time>2018-06-25T09:04:12.473Z</time>
      </trkpt>
      <trkpt lat="45.30366" lon="2.1836">
        <ele>362</ele>
        <time>2018-06-25T09:04:13.473Z</time>
      </trkpt>
      <trkpt lat="45.30324" lon="2.18191">
        <ele>342</ele>
        <time>2018-06-25T09:04:14.473Z</time>
      </trkpt>
      <trkpt lat="45.30321" lon="2.18245">
        <ele>347</ele>
        <time>2018-06-25T09:04:15.473Z</time>
      </trkpt>
      <trkpt lat="45.30296" lon="2.18167">
        <ele>342</ele>
        <time>2018-06-25T09:04:16.473Z</time>
      </trkpt>
      <trkpt lat="45.30303" lon="2.18142">
        <ele>342</ele>
        <time>2018-06-25T09:04:17.473Z</time>
      </trkpt>
      <trkpt lat="45.30346" lon="2.18188">
        <ele>342</ele>
        <time>2018-06-25T09:04:18.473Z</time>
      </trkpt>
      <trkpt lat="45.30379" lon="2.18282">
        <ele>347</ele>
        <time>2018-06-25T09:04:19.473Z</time>
      </trkpt>
      <trkpt lat="45.30433" lon="2.18261">
        <ele>340</ele>
        <time>2018-06-25T09:04:20.473Z</time>
      </trkpt>
      <trkpt lat="45.30437" lon="2.1829">
        <ele>342</ele>
        <time>2018-06-25T09:04:21.473Z</time>
      </trkpt>
      <trkpt lat="45.3048" lon="2.18296">
        <ele>341</ele>
        <time>2018-06-25T09:04:22.473Z</time>
      </trkpt>
      <trkpt lat="45.30442" lon="2.18196">
        <ele>348</ele>
        <time>2018-06-25T09:04:23.473Z</time>
      </trkpt>
      <trkpt lat="45.30444" lon="2.18109">
        <ele>361</ele>
        <time>2018-06-25T09:04:24.473Z</time>
      </trkpt>
      <trkpt lat="45.30399" lon="2.17966">
        <ele>366</ele>
        <time>2018-06-25T09:04:25.473Z</time>
      </trkpt>
      <trkpt lat="45.30402" lon="2.17991">
        <ele>364</ele>
        <time>2018-06-25T09:04:26.473Z</time>
      </trkpt>
      <trkpt lat="45.30384" lon="2.17856">
        <ele>374</ele>
        <time>2018-06-25T09:04:27.473Z</time>
      </trkpt>
      <trkpt lat="45.3036" lon="2.17842">
        <ele>377</ele>
        <time>2018-06-25T09:04:28.473Z</time>
      </trkpt>
      <trkpt lat="45.3033" lon="2.17867">
        <ele>374</ele>
        <time>2018-06-25T09:04:29.473Z</time>
      </trkpt>
      <trkpt lat="45.30307" lon="2.17957">
        <ele>361</ele>
        <time>2018-06-25T09:04:30.473Z</time>
      </trkpt>
      <trkpt lat="45.30294" lon="2.17956">
        <ele>364</ele>
        <time>2018-06-25T09:04:31.473Z</time>
      </trkpt>
      <trkpt lat="45.3031" lon="2.17867">
        <ele>380</ele>
        <time>2018-06-25T09:04:32.473Z</time>
      </trkpt>
      <trkpt lat="45.30381" lon="2.17733">
        <ele>389</ele>
        <time>2018-06-25T09:04:33.473Z</time>
      </trkpt>
      <trkpt lat="45.30305" lon="2.17511">
        <ele>420</ele>
        <time>2018-06-25T09:04:34.473Z</time>
      </trkpt>
      <trkpt lat="45.30333" lon="2.17729">
        <ele>399</ele>
        <time>2018-06-25T09:04:35.473Z</time>
      </trkpt>
      <trkpt lat="45.30227" lon="2.17785">
        <ele>426</ele>
        <time>2018-06-25T09:04:36.473Z</time>
      </trkpt>
      <trkpt lat="45.30165" lon="2.17786">
        <ele>442</ele>
        <time>2018-06-25T09:04:37.473Z</time>
      </trkpt>
      <trkpt lat="45.30155" lon="2.1784">
        <ele>433</ele>
        <time>2018-06-25T09:04:38.473Z</time>
      </trkpt>
      <trkpt lat="45.30095" lon="2.17886">
        <ele>453</ele>
        <time>2018-06-25T09:04:39.473Z</time>
      </trkpt>
      <trkpt lat="45.30081" lon="2.17937">
        <ele>453</ele>
        <time>2018-06-25T09:04:40.473Z</time>
      </trkpt>
      <trkpt lat="45.301" lon="2.18001">
        <ele>441</ele>
        <time>2018-06-25T09:04:41.473Z</time>
      </trkpt>
      <trkpt lat="45.30079" lon="2.18224">
        <ele>449</ele>
        <time>2018-06-25T09:04:42.473Z</time>
      </trkpt>
      <trkpt lat="45.30003" lon="2.18268">
        <ele>462</ele>
        <time>2018-06-25T09:04:43.473Z</time>
      </trkpt>
      <trkpt lat="45.29926" lon="2.18175">
        <ele>472</ele>
        <time>2018-06-25T09:04:44.473Z</time>
      </trkpt>
      <trkpt lat="45.29857" lon="2.18018">
        <ele>496</ele>
        <time>2018-06-25T09:04:45.473Z</time>
      </trkpt>
      <trkpt lat="45.29747" lon="2.17967">
        <ele>486</ele>
        <time>2018-06-25T09:04:46.473Z</time>
      </trkpt>
      <trkpt lat="45.29727" lon="2.1789">
        <ele>501</ele>
        <time>2018-06-25T09:04:47.473Z</time>
      </trkpt>
      <trkpt lat="45.29691" lon="2.17887">
        <ele>494</ele>
        <time>2018-06-25T09:04:48.473Z</time>
      </trkpt>
      <trkpt lat="45.29635" lon="2.17786">
        <ele>505</ele>
        <time>2018-06-25T09:04:49.473Z</time>
      </trkpt>
      <trkpt lat="45.29599" lon="2.17763">
        <ele>504</ele>
        <time>2018-06-25T09:04:50.473Z</time>
      </trkpt>
      <trkpt lat="45.29571" lon="2.1771">
        <ele>513</ele>
        <time>2018-06-25T09:04:51.473Z</time>
      </trkpt>
      <trkpt lat="45.29501" lon="2.17652">
        <ele>518</ele>
        <time>2018-06-25T09:04:52.473Z</time>
      </trkpt>
      <trkpt lat="45.2942" lon="2.17672">
        <ele>520</ele>
        <time>2018-06-25T09:04:53.473Z</time>
      </trkpt>
      <trkpt lat="45.29406" lon="2.17705">
        <ele>512</ele>
        <time>2018-06-25T09:04:54.473Z</time>
      </trkpt>
      <trkpt lat="45.29386" lon="2.17708">
        <ele>510</ele>
        <time>2018-06-25T09:04:55.473Z</time>
      </trkpt>
      <trkpt lat="45.29368" lon="2.1768">
        <ele>515</ele>
        <time>2018-06-25T09:04:56.473Z</time>
      </trkpt>
      <trkpt lat="45.29371" lon="2.17656">
        <ele>518</ele>
        <time>2018-06-25T09:04:57.473Z</time>
      </trkpt>
      <trkpt lat="45.2945" lon="2.17611">
        <ele>524</ele>
        <time>2018-06-25T09:04:58.473Z</time>
      </trkpt>
      <trkpt lat="45.2955" lon="2.17481">
        <ele>535</ele>
        <time>2018-06-25T09:04:59.473Z</time>
      </trkpt>
      <trkpt lat="45.29607" lon="2.17246">
        <ele>534</ele>
        <time>2018-06-25T09:05:00.473Z</time>
      </trkpt>
      <trkpt lat="45.29599" lon="2.17086">
        <ele>534</ele>
        <time>2018-06-25T09:05:01.473Z</time>
      </trkpt>
      <trkpt lat="45.29559" lon="2.16998">
        <ele>534</ele>
        <time>2018-06-25T09:05:02.473Z</time>
      </trkpt>
      <trkpt lat="45.29422" lon="2.16835">
        <ele>532</ele>
        <time>2018-06-25T09:05:03.473Z</time>
      </trkpt>
      <trkpt lat="45.2935" lon="2.16783">
        <ele>533</ele>
        <time>2018-06-25T09:05:04.473Z</time>
      </trkpt>
      <trkpt lat="45.29371" lon="2.16663">
        <ele>530</ele>
        <time>2018-06-25T09:05:05.473Z</time>
      </trkpt>
      <trkpt lat="45.29345" lon="2.16667">
        <ele>530</ele>
        <time>2018-06-25T09:05:06.473Z</time>
      </trkpt>
      <trkpt lat="45.29507" lon="2.16113">
        <ele>527</ele>
        <time>2018-06-25T09:05:07.473Z</time>
      </trkpt>
      <trkpt lat="45.29519" lon="2.15902">
        <ele>523</ele>
        <time>2018-06-25T09:05:08.473Z</time>
      </trkpt>
      <trkpt lat="45.2959" lon="2.15739">
        <ele>520</ele>
        <time>2018-06-25T09:05:09.473Z</time>
      </trkpt>
      <trkpt lat="45.29625" lon="2.15439">
        <ele>520</ele>
        <time>2018-06-25T09:05:10.473Z</time>
      </trkpt>
      <trkpt lat="45.29684" lon="2.15288">
        <ele>521</ele>
        <time>2018-06-25T09:05:11.473Z</time>
      </trkpt>
      <trkpt lat="45.29653" lon="2.15219">
        <ele>520</ele>
        <time>2018-06-25T09:05:12.473Z</time>
      </trkpt>
      <trkpt lat="45.29718" lon="2.14898">
        <ele>523</ele>
        <time>2018-06-25T09:05:13.473Z</time>
      </trkpt>
      <trkpt lat="45.29779" lon="2.14823">
        <ele>522</ele>
        <time>2018-06-25T09:05:14.473Z</time>
      </trkpt>
      <trkpt lat="45.29813" lon="2.14706">
        <ele>524</ele>
        <time>2018-06-25T09:05:15.473Z</time>
      </trkpt>
      <trkpt lat="45.29767" lon="2.14596">
        <ele>523</ele>
        <time>2018-06-25T09:05:16.473Z</time>
      </trkpt>
      <trkpt lat="45.29758" lon="2.14494">
        <ele>523</ele>
        <time>2018-06-25T09:05:17.473Z</time>
      </trkpt>
      <trkpt lat="45.29782" lon="2.14465">
        <ele>523</ele>
        <time>2018-06-25T09:05:18.473Z</time>
      </trkpt>
      <trkpt lat="45.29745" lon="2.14468">
        <ele>522</ele>
        <time>2018-06-25T09:05:19.473Z</time>
      </trkpt>
      <trkpt lat="45.29761" lon="2.14371">
        <ele>517</ele>
        <time>2018-06-25T09:05:20.473Z</time>
      </trkpt>
      <trkpt lat="45.2972" lon="2.14143">
        <ele>510</ele>
        <time>2018-06-25T09:05:21.473Z</time>
      </trkpt>
      <trkpt lat="45.29823" lon="2.14036">
        <ele>516</ele>
        <time>2018-06-25T09:05:22.473Z</time>
      </trkpt>
      <trkpt lat="45.29831" lon="2.13945">
        <ele>525</ele>
        <time>2018-06-25T09:05:23.473Z</time>
      </trkpt>
      <trkpt lat="45.29816" lon="2.13898">
        <ele>531</ele>
        <time>2018-06-25T09:05:24.473Z</time>
      </trkpt>
      <trkpt lat="45.29822" lon="2.13828">
        <ele>532</ele>
        <time>2018-06-25T09:05:25.473Z</time>
      </trkpt>
      <trkpt lat="45.29791" lon="2.13647">
        <ele>539</ele>
        <time>2018-06-25T09:05:26.473Z</time>
      </trkpt>
      <trkpt lat="45.29913" lon="2.13483">
        <ele>551</ele>
        <time>2018-06-25T09:05:27.473Z</time>
      </trkpt>
      <trkpt lat="45.29915" lon="2.13318">
        <ele>557</ele>
        <time>2018-06-25T09:05:28.473Z</time>
      </trkpt>
      <trkpt lat="45.29958" lon="2.13124">
        <ele>570</ele>
        <time>2018-06-25T09:05:29.473Z</time>
      </trkpt>
      <trkpt lat="45.30061" lon="2.13027">
        <ele>570</ele>
        <time>2018-06-25T09:05:30.473Z</time>
      </trkpt>
      <trkpt lat="45.30148" lon="2.12815">
        <ele>574</ele>
        <time>2018-06-25T09:05:31.473Z</time>
      </trkpt>
      <trkpt lat="45.30157" lon="2.12755">
        <ele>575</ele>
        <time>2018-06-25T09:05:32.473Z</time>
      </trkpt>
      <trkpt lat="45.30141" lon="2.12628">
        <ele>580</ele>
        <time>2018-06-25T09:05:33.473Z</time>
      </trkpt>
      <trkpt lat="45.30154" lon="2.12473">
        <ele>578</ele>
        <time>2018-06-25T09:05:34.473Z</time>
      </trkpt>
      <trkpt lat="45.30173" lon="2.12424">
        <ele>578</ele>
        <time>2018-06-25T09:05:35.473Z</time>
      </trkpt>
      <trkpt lat="45.30186" lon="2.12279">
        <ele>568</ele>
        <time>2018-06-25T09:05:36.473Z</time>
      </trkpt>
      <trkpt lat="45.30251" lon="2.12115">
        <ele>558</ele>
        <time>2018-06-25T09:05:37.473Z</time>
      </trkpt>
      <trkpt lat="45.30236" lon="2.12071">
        <ele>559</ele>
        <time>2018-06-25T09:05:38.473Z</time>
      </trkpt>
      <trkpt lat="45.30198" lon="2.12028">
        <ele>564</ele>
        <time>2018-06-25T09:05:39.473Z</time>
      </trkpt>
      <trkpt lat="45.30177" lon="2.11948">
        <ele>568</ele>
        <time>2018-06-25T09:05:40.473Z</time>
      </trkpt>
      <trkpt lat="45.302" lon="2.11844">
        <ele>568</ele>
        <time>2018-06-25T09:05:41.473Z</time>
      </trkpt>
      <trkpt lat="45.30214" lon="2.11559">
        <ele>578</ele>
        <time>2018-06-25T09:05:42.473Z</time>
      </trkpt>
      <trkpt lat="45.3016" lon="2.1131">
        <ele>589</ele>
        <time>2018-06-25T09:05:43.473Z</time>
      </trkpt>
      <trkpt lat="45.30173" lon="2.11189">
        <ele>594</ele>
        <time>2018-06-25T09:05:44.473Z</time>
      </trkpt>
      <trkpt lat="45.30144" lon="2.11075">
        <ele>590</ele>
        <time>2018-06-25T09:05:45.473Z</time>
      </trkpt>
      <trkpt lat="45.30092" lon="2.11006">
        <ele>585</ele>
        <time>2018-06-25T09:05:46.473Z</time>
      </trkpt>
      <trkpt lat="45.30077" lon="2.10912">
        <ele>581</ele>
        <time>2018-06-25T09:05:47.473Z</time>
      </trkpt>
      <trkpt lat="45.30086" lon="2.10798">
        <ele>583</ele>
        <time>2018-06-25T09:05:48.473Z</time>
      </trkpt>
      <trkpt lat="45.30369" lon="2.10225">
        <ele>612</ele>
        <time>2018-06-25T09:05:49.473Z</time>
      </trkpt>
      <trkpt lat="45.30477" lon="2.1007">
        <ele>622</ele>
        <time>2018-06-25T09:05:50.473Z</time>
      </trkpt>
      <trkpt lat="45.30536" lon="2.0992">
        <ele>619</ele>
        <time>2018-06-25T09:05:51.473Z</time>
      </trkpt>
      <trkpt lat="45.30567" lon="2.09665">
        <ele>622</ele>
        <time>2018-06-25T09:05:52.473Z</time>
      </trkpt>
      <trkpt lat="45.30554" lon="2.09612">
        <ele>623</ele>
        <time>2018-06-25T09:05:53.473Z</time>
      </trkpt>
      <trkpt lat="45.30613" lon="2.09461">
        <ele>628</ele>
        <time>2018-06-25T09:05:54.473Z</time>
      </trkpt>
      <trkpt lat="45.30603" lon="2.09296">
        <ele>639</ele>
        <time>2018-06-25T09:05:55.473Z</time>
      </trkpt>
      <trkpt lat="45.30661" lon="2.09119">
        <ele>640</ele>
        <time>2018-06-25T09:05:56.473Z</time>
      </trkpt>
      <trkpt lat="45.3057" lon="2.08971">
        <ele>641</ele>
        <time>2018-06-25T09:05:57.473Z</time>
      </trkpt>
      <trkpt lat="45.30547" lon="2.08881">
        <ele>639</ele>
        <time>2018-06-25T09:05:58.473Z</time>
      </trkpt>
      <trkpt lat="45.30507" lon="2.08807">
        <ele>637</ele>
        <time>2018-06-25T09:05:59.473Z</time>
      </trkpt>
      <trkpt lat="45.3052" lon="2.08726">
        <ele>634</ele>
        <time>2018-06-25T09:06:00.473Z</time>
      </trkpt>
      <trkpt lat="45.30509" lon="2.08664">
        <ele>630</ele>
        <time>2018-06-25T09:06:01.473Z</time>
      </trkpt>
      <trkpt lat="45.30462" lon="2.08596">
        <ele>628</ele>
        <time>2018-06-25T09:06:02.473Z</time>
      </trkpt>
      <trkpt lat="45.30451" lon="2.08549">
        <ele>629</ele>
        <time>2018-06-25T09:06:03.473Z</time>
      </trkpt>
      <trkpt lat="45.305" lon="2.08368">
        <ele>624</ele>
        <time>2018-06-25T09:06:04.473Z</time>
      </trkpt>
      <trkpt lat="45.30483" lon="2.08281">
        <ele>624</ele>
        <time>2018-06-25T09:06:05.473Z</time>
      </trkpt>
      <trkpt lat="45.30442" lon="2.08194">
        <ele>625</ele>
        <time>2018-06-25T09:06:06.473Z</time>
      </trkpt>
      <trkpt lat="45.30357" lon="2.08089">
        <ele>618</ele>
        <time>2018-06-25T09:06:07.473Z</time>
      </trkpt>
      <trkpt lat="45.30231" lon="2.07761">
        <ele>601</ele>
        <time>2018-06-25T09:06:08.473Z</time>
      </trkpt>
      <trkpt lat="45.30136" lon="2.07633">
        <ele>608</ele>
        <time>2018-06-25T09:06:09.473Z</time>
      </trkpt>
      <trkpt lat="45.30088" lon="2.07617">
        <ele>609</ele>
        <time>2018-06-25T09:06:10.473Z</time>
      </trkpt>
      <trkpt lat="45.29984" lon="2.07657">
        <ele>605</ele>
        <time>2018-06-25T09:06:11.473Z</time>
      </trkpt>
      <trkpt lat="45.29911" lon="2.07564">
        <ele>603</ele>
        <time>2018-06-25T09:06:12.473Z</time>
      </trkpt>
      <trkpt lat="45.29895" lon="2.07517">
        <ele>602</ele>
        <time>2018-06-25T09:06:13.473Z</time>
      </trkpt>
      <trkpt lat="45.29895" lon="2.07386">
        <ele>599</ele>
        <time>2018-06-25T09:06:14.473Z</time>
      </trkpt>
      <trkpt lat="45.29855" lon="2.07312">
        <ele>602</ele>
        <time>2018-06-25T09:06:15.473Z</time>
      </trkpt>
      <trkpt lat="45.29796" lon="2.07269">
        <ele>607</ele>
        <time>2018-06-25T09:06:16.473Z</time>
      </trkpt>
      <trkpt lat="45.2959" lon="2.07238">
        <ele>609</ele>
        <time>2018-06-25T09:06:17.473Z</time>
      </trkpt>
      <trkpt lat="45.29562" lon="2.07196">
        <ele>611</ele>
        <time>2018-06-25T09:06:18.473Z</time>
      </trkpt>
      <trkpt lat="45.29592" lon="2.07115">
        <ele>614</ele>
        <time>2018-06-25T09:06:19.473Z</time>
      </trkpt>
      <trkpt lat="45.29514" lon="2.06893">
        <ele>624</ele>
        <time>2018-06-25T09:06:20.473Z</time>
      </trkpt>
      <trkpt lat="45.29522" lon="2.06772">
        <ele>629</ele>
        <time>2018-06-25T09:06:21.473Z</time>
      </trkpt>
      <trkpt lat="45.29568" lon="2.06686">
        <ele>632</ele>
        <time>2018-06-25T09:06:22.473Z</time>
      </trkpt>
      <trkpt lat="45.29652" lon="2.06602">
        <ele>636</ele>
        <time>2018-06-25T09:06:23.473Z</time>
      </trkpt>
      <trkpt lat="45.2976" lon="2.06195">
        <ele>641</ele>
        <time>2018-06-25T09:06:24.473Z</time>
      </trkpt>
      <trkpt lat="45.29771" lon="2.06092">
        <ele>644</ele>
        <time>2018-06-25T09:06:25.473Z</time>
      </trkpt>
      <trkpt lat="45.2967" lon="2.06005">
        <ele>645</ele>
        <time>2018-06-25T09:06:26.473Z</time>
      </trkpt>
      <trkpt lat="45.29605" lon="2.05865">
        <ele>637</ele>
        <time>2018-06-25T09:06:27.473Z</time>
      </trkpt>
      <trkpt lat="45.29624" lon="2.0577">
        <ele>636</ele>
        <time>2018-06-25T09:06:28.473Z</time>
      </trkpt>
      <trkpt lat="45.29455" lon="2.05516">
        <ele>621</ele>
        <time>2018-06-25T09:06:29.473Z</time>
      </trkpt>
      <trkpt lat="45.29254" lon="2.05318">
        <ele>606</ele>
        <time>2018-06-25T09:06:30.473Z</time>
      </trkpt>
      <trkpt lat="45.29177" lon="2.05324">
        <ele>601</ele>
        <time>2018-06-25T09:06:31.473Z</time>
      </trkpt>
      <trkpt lat="45.29092" lon="2.05412">
        <ele>602</ele>
        <time>2018-06-25T09:06:32.473Z</time>
      </trkpt>
      <trkpt lat="45.28976" lon="2.05405">
        <ele>606</ele>
        <time>2018-06-25T09:06:33.473Z</time>
      </trkpt>
      <trkpt lat="45.28886" lon="2.05439">
        <ele>609</ele>
        <time>2018-06-25T09:06:34.473Z</time>
      </trkpt>
      <trkpt lat="45.28778" lon="2.05546">
        <ele>617</ele>
        <time>2018-06-25T09:06:35.473Z</time>
      </trkpt>
      <trkpt lat="45.28693" lon="2.057">
        <ele>630</ele>
        <time>2018-06-25T09:06:36.473Z</time>
      </trkpt>
      <trkpt lat="45.2868" lon="2.05771">
        <ele>633</ele>
        <time>2018-06-25T09:06:37.473Z</time>
      </trkpt>
      <trkpt lat="45.28621" lon="2.05917">
        <ele>636</ele>
        <time>2018-06-25T09:06:38.473Z</time>
      </trkpt>
      <trkpt lat="45.28605" lon="2.06002">
        <ele>642</ele>
        <time>2018-06-25T09:06:39.473Z</time>
      </trkpt>
      <trkpt lat="45.28487" lon="2.05887">
        <ele>642</ele>
        <time>2018-06-25T09:06:40.473Z</time>
      </trkpt>
      <trkpt lat="45.28469" lon="2.05756">
        <ele>634</ele>
        <time>2018-06-25T09:06:41.473Z</time>
      </trkpt>
      <trkpt lat="45.28393" lon="2.0562">
        <ele>633</ele>
        <time>2018-06-25T09:06:42.473Z</time>
      </trkpt>
      <trkpt lat="45.28415" lon="2.05518">
        <ele>634</ele>
        <time>2018-06-25T09:06:43.473Z</time>
      </trkpt>
      <trkpt lat="45.28465" lon="2.05425">
        <ele>632</ele>
        <time>2018-06-25T09:06:44.473Z</time>
      </trkpt>
      <trkpt lat="45.2855" lon="2.05083">
        <ele>629</ele>
        <time>2018-06-25T09:06:45.473Z</time>
      </trkpt>
      <trkpt lat="45.2858" lon="2.04614">
        <ele>616</ele>
        <time>2018-06-25T09:06:46.473Z</time>
      </trkpt>
      <trkpt lat="45.28568" lon="2.04514">
        <ele>611</ele>
        <time>2018-06-25T09:06:47.473Z</time>
      </trkpt>
      <trkpt lat="45.28397" lon="2.04117">
        <ele>601</ele>
        <time>2018-06-25T09:06:48.473Z</time>
      </trkpt>
      <trkpt lat="45.28339" lon="2.03911">
        <ele>598</ele>
        <time>2018-06-25T09:06:49.473Z</time>
      </trkpt>
      <trkpt lat="45.28254" lon="2.03725">
        <ele>603</ele>
        <time>2018-06-25T09:06:50.473Z</time>
      </trkpt>
      <trkpt lat="45.28167" lon="2.03397">
        <ele>597</ele>
        <time>2018-06-25T09:06:51.473Z</time>
      </trkpt>
      <trkpt lat="45.28088" lon="2.02848">
        <ele>573</ele>
        <time>2018-06-25T09:06:52.473Z</time>
      </trkpt>
      <trkpt lat="45.27984" lon="2.02666">
        <ele>559</ele>
        <time>2018-06-25T09:06:53.473Z</time>
      </trkpt>
      <trkpt lat="45.27978" lon="2.02614">
        <ele>557</ele>
        <time>2018-06-25T09:06:54.473Z</time>
      </trkpt>
      <trkpt lat="45.27931" lon="2.02562">
        <ele>549</ele>
        <time>2018-06-25T09:06:55.473Z</time>
      </trkpt>
      <trkpt lat="45.2787" lon="2.02691">
        <ele>544</ele>
        <time>2018-06-25T09:06:56.473Z</time>
      </trkpt>
      <trkpt lat="45.27809" lon="2.02899">
        <ele>548</ele>
        <time>2018-06-25T09:06:57.473Z</time>
      </trkpt>
      <trkpt lat="45.27702" lon="2.02962">
        <ele>549</ele>
        <time>2018-06-25T09:06:58.473Z</time>
      </trkpt>
      <trkpt lat="45.27686" lon="2.03002">
        <ele>554</ele>
        <time>2018-06-25T09:06:59.473Z</time>
      </trkpt>
      <trkpt lat="45.27621" lon="2.02995">
        <ele>554</ele>
        <time>2018-06-25T09:07:00.473Z</time>
      </trkpt>
      <trkpt lat="45.27516" lon="2.0304">
        <ele>559</ele>
        <time>2018-06-25T09:07:01.473Z</time>
      </trkpt>
      <trkpt lat="45.27459" lon="2.03025">
        <ele>558</ele>
        <time>2018-06-25T09:07:02.473Z</time>
      </trkpt>
      <trkpt lat="45.27292" lon="2.03187">
        <ele>565</ele>
        <time>2018-06-25T09:07:03.473Z</time>
      </trkpt>
      <trkpt lat="45.27123" lon="2.02747">
        <ele>548</ele>
        <time>2018-06-25T09:07:04.473Z</time>
      </trkpt>
      <trkpt lat="45.26958" lon="2.02459">
        <ele>541</ele>
        <time>2018-06-25T09:07:05.473Z</time>
      </trkpt>
      <trkpt lat="45.26924" lon="2.02362">
        <ele>541</ele>
        <time>2018-06-25T09:07:06.473Z</time>
      </trkpt>
      <trkpt lat="45.26833" lon="2.01906">
        <ele>542</ele>
        <time>2018-06-25T09:07:07.473Z</time>
      </trkpt>
      <trkpt lat="45.26734" lon="2.01598">
        <ele>537</ele>
        <time>2018-06-25T09:07:08.473Z</time>
      </trkpt>
      <trkpt lat="45.26781" lon="2.01191">
        <ele>516</ele>
        <time>2018-06-25T09:07:09.473Z</time>
      </trkpt>
      <trkpt lat="45.26848" lon="2.0094">
        <ele>501</ele>
        <time>2018-06-25T09:07:10.473Z</time>
      </trkpt>
      <trkpt lat="45.269" lon="2.0089">
        <ele>498</ele>
        <time>2018-06-25T09:07:11.473Z</time>
      </trkpt>
      <trkpt lat="45.26821" lon="2.0077">
        <ele>491</ele>
        <time>2018-06-25T09:07:12.473Z</time>
      </trkpt>
      <trkpt lat="45.26689" lon="2.00737">
        <ele>504</ele>
        <time>2018-06-25T09:07:13.473Z</time>
      </trkpt>
      <trkpt lat="45.26643" lon="2.00669">
        <ele>501</ele>
        <time>2018-06-25T09:07:14.473Z</time>
      </trkpt>
      <trkpt lat="45.26628" lon="2.00586">
        <ele>499</ele>
        <time>2018-06-25T09:07:15.473Z</time>
      </trkpt>
      <trkpt lat="45.26643" lon="2.00469">
        <ele>494</ele>
        <time>2018-06-25T09:07:16.473Z</time>
      </trkpt>
      <trkpt lat="45.26608" lon="1.99915">
        <ele>490</ele>
        <time>2018-06-25T09:07:17.473Z</time>
      </trkpt>
      <trkpt lat="45.26534" lon="1.99812">
        <ele>497</ele>
        <time>2018-06-25T09:07:18.473Z</time>
      </trkpt>
      <trkpt lat="45.26546" lon="1.99718">
        <ele>502</ele>
        <time>2018-06-25T09:07:19.473Z</time>
      </trkpt>
      <trkpt lat="45.26534" lon="1.99648">
        <ele>509</ele>
        <time>2018-06-25T09:07:20.473Z</time>
      </trkpt>
      <trkpt lat="45.26505" lon="1.99614">
        <ele>516</ele>
        <time>2018-06-25T09:07:21.473Z</time>
      </trkpt>
      <trkpt lat="45.2646" lon="1.99607">
        <ele>523</ele>
        <time>2018-06-25T09:07:22.473Z</time>
      </trkpt>
      <trkpt lat="45.26334" lon="1.99667">
        <ele>530</ele>
        <time>2018-06-25T09:07:23.473Z</time>
      </trkpt>
      <trkpt lat="45.26317" lon="1.99654">
        <ele>531</ele>
        <time>2018-06-25T09:07:24.473Z</time>
      </trkpt>
      <trkpt lat="45.26285" lon="1.99513">
        <ele>535</ele>
        <time>2018-06-25T09:07:25.473Z</time>
      </trkpt>
      <trkpt lat="45.26236" lon="1.99428">
        <ele>540</ele>
        <time>2018-06-25T09:07:26.473Z</time>
      </trkpt>
      <trkpt lat="45.26186" lon="1.99258">
        <ele>542</ele>
        <time>2018-06-25T09:07:27.473Z</time>
      </trkpt>
      <trkpt lat="45.26128" lon="1.99158">
        <ele>545</ele>
        <time>2018-06-25T09:07:28.473Z</time>
      </trkpt>
      <trkpt lat="45.26042" lon="1.99101">
        <ele>545</ele>
        <time>2018-06-25T09:07:29.473Z</time>
      </trkpt>
      <trkpt lat="45.25769" lon="1.99104">
        <ele>538</ele>
        <time>2018-06-25T09:07:30.473Z</time>
      </trkpt>
      <trkpt lat="45.25684" lon="1.98913">
        <ele>530</ele>
        <time>2018-06-25T09:07:31.473Z</time>
      </trkpt>
      <trkpt lat="45.25617" lon="1.98932">
        <ele>532</ele>
        <time>2018-06-25T09:07:32.473Z</time>
      </trkpt>
      <trkpt lat="45.25599" lon="1.989">
        <ele>529</ele>
        <time>2018-06-25T09:07:33.473Z</time>
      </trkpt>
      <trkpt lat="45.2561" lon="1.98812">
        <ele>519</ele>
        <time>2018-06-25T09:07:34.473Z</time>
      </trkpt>
      <trkpt lat="45.25576" lon="1.98739">
        <ele>509</ele>
        <time>2018-06-25T09:07:35.473Z</time>
      </trkpt>
      <trkpt lat="45.25507" lon="1.98694">
        <ele>506</ele>
        <time>2018-06-25T09:07:36.473Z</time>
      </trkpt>
      <trkpt lat="45.25458" lon="1.98458">
        <ele>508</ele>
        <time>2018-06-25T09:07:37.473Z</time>
      </trkpt>
      <trkpt lat="45.25411" lon="1.9842">
        <ele>510</ele>
        <time>2018-06-25T09:07:38.473Z</time>
      </trkpt>
      <trkpt lat="45.25226" lon="1.98447">
        <ele>502</ele>
        <time>2018-06-25T09:07:39.473Z</time>
      </trkpt>
      <trkpt lat="45.25114" lon="1.98377">
        <ele>509</ele>
        <time>2018-06-25T09:07:40.473Z</time>
      </trkpt>
      <trkpt lat="45.24949" lon="1.98396">
        <ele>509</ele>
        <time>2018-06-25T09:07:41.473Z</time>
      </trkpt>
      <trkpt lat="45.24896" lon="1.98423">
        <ele>506</ele>
        <time>2018-06-25T09:07:42.473Z</time>
      </trkpt>
      <trkpt lat="45.24827" lon="1.9841">
        <ele>506</ele>
        <time>2018-06-25T09:07:43.473Z</time>
      </trkpt>
      <trkpt lat="45.2479" lon="1.9829">
        <ele>504</ele>
        <time>2018-06-25T09:07:44.473Z</time>
      </trkpt>
      <trkpt lat="45.24815" lon="1.98263">
        <ele>509</ele>
        <time>2018-06-25T09:07:45.473Z</time>
      </trkpt>
      <trkpt lat="45.24814" lon="1.98213">
        <ele>511</ele>
        <time>2018-06-25T09:07:46.473Z</time>
      </trkpt>
      <trkpt lat="45.24767" lon="1.98135">
        <ele>515</ele>
        <time>2018-06-25T09:07:47.473Z</time>
      </trkpt>
      <trkpt lat="45.24669" lon="1.98155">
        <ele>511</ele>
        <time>2018-06-25T09:07:48.473Z</time>
      </trkpt>
      <trkpt lat="45.24707" lon="1.98074">
        <ele>521</ele>
        <time>2018-06-25T09:07:49.473Z</time>
      </trkpt>
      <trkpt lat="45.24709" lon="1.98008">
        <ele>522</ele>
        <time>2018-06-25T09:07:50.473Z</time>
      </trkpt>
      <trkpt lat="45.24599" lon="1.98108">
        <ele>517</ele>
        <time>2018-06-25T09:07:51.473Z</time>
      </trkpt>
      <trkpt lat="45.24501" lon="1.98266">
        <ele>509</ele>
        <time>2018-06-25T09:07:52.473Z</time>
      </trkpt>
      <trkpt lat="45.24455" lon="1.98302">
        <ele>504</ele>
        <time>2018-06-25T09:07:53.473Z</time>
      </trkpt>
      <trkpt lat="45.2451" lon="1.97914">
        <ele>502</ele>
        <time>2018-06-25T09:07:54.473Z</time>
      </trkpt>
      <trkpt lat="45.24447" lon="1.97858">
        <ele>496</ele>
        <time>2018-06-25T09:07:55.473Z</time>
      </trkpt>
      <trkpt lat="45.24436" lon="1.9768">
        <ele>493</ele>
        <time>2018-06-25T09:07:56.473Z</time>
      </trkpt>
      <trkpt lat="45.24415" lon="1.97676">
        <ele>491</ele>
        <time>2018-06-25T09:07:57.473Z</time>
      </trkpt>
      <trkpt lat="45.24373" lon="1.97814">
        <ele>495</ele>
        <time>2018-06-25T09:07:58.473Z</time>
      </trkpt>
      <trkpt lat="45.24308" lon="1.97883">
        <ele>499</ele>
        <time>2018-06-25T09:07:59.473Z</time>
      </trkpt>
      <trkpt lat="45.2428" lon="1.97954">
        <ele>499</ele>
        <time>2018-06-25T09:08:00.473Z</time>
      </trkpt>
      <trkpt lat="45.24214" lon="1.97975">
        <ele>502</ele>
        <time>2018-06-25T09:08:01.473Z</time>
      </trkpt>
      <trkpt lat="45.24046" lon="1.97818">
        <ele>512</ele>
        <time>2018-06-25T09:08:02.473Z</time>
      </trkpt>
      <trkpt lat="45.24003" lon="1.97747">
        <ele>518</ele>
        <time>2018-06-25T09:08:03.473Z</time>
      </trkpt>
      <trkpt lat="45.23906" lon="1.9773">
        <ele>523</ele>
        <time>2018-06-25T09:08:04.473Z</time>
      </trkpt>
      <trkpt lat="45.23662" lon="1.9775">
        <ele>520</ele>
        <time>2018-06-25T09:08:05.473Z</time>
      </trkpt>
      <trkpt lat="45.235" lon="1.97874">
        <ele>520</ele>
        <time>2018-06-25T09:08:06.473Z</time>
      </trkpt>
      <trkpt lat="45.23357" lon="1.97941">
        <ele>508</ele>
        <time>2018-06-25T09:08:07.473Z</time>
      </trkpt>
      <trkpt lat="45.23263" lon="1.97941">
        <ele>502</ele>
        <time>2018-06-25T09:08:08.473Z</time>
      </trkpt>
      <trkpt lat="45.23147" lon="1.97863">
        <ele>496</ele>
        <time>2018-06-25T09:08:09.473Z</time>
      </trkpt>
      <trkpt lat="45.23097" lon="1.97854">
        <ele>496</ele>
        <time>2018-06-25T09:08:10.473Z</time>
      </trkpt>
      <trkpt lat="45.22927" lon="1.97955">
        <ele>496</ele>
        <time>2018-06-25T09:08:11.473Z</time>
      </trkpt>
      <trkpt lat="45.22734" lon="1.97948">
        <ele>496</ele>
        <time>2018-06-25T09:08:12.473Z</time>
      </trkpt>
      <trkpt lat="45.22671" lon="1.979">
        <ele>497</ele>
        <time>2018-06-25T09:08:13.473Z</time>
      </trkpt>
      <trkpt lat="45.22509" lon="1.97885">
        <ele>499</ele>
        <time>2018-06-25T09:08:14.473Z</time>
      </trkpt>
      <trkpt lat="45.2238" lon="1.97771">
        <ele>496</ele>
        <time>2018-06-25T09:08:15.473Z</time>
      </trkpt>
      <trkpt lat="45.22277" lon="1.97796">
        <ele>494</ele>
        <time>2018-06-25T09:08:16.473Z</time>
      </trkpt>
      <trkpt lat="45.22115" lon="1.97918">
        <ele>485</ele>
        <time>2018-06-25T09:08:17.473Z</time>
      </trkpt>
      <trkpt lat="45.2205" lon="1.97891">
        <ele>479</ele>
        <time>2018-06-25T09:08:18.473Z</time>
      </trkpt>
      <trkpt lat="45.22023" lon="1.97851">
        <ele>478</ele>
        <time>2018-06-25T09:08:19.473Z</time>
      </trkpt>
      <trkpt lat="45.2202" lon="1.97793">
        <ele>477</ele>
        <time>2018-06-25T09:08:20.473Z</time>
      </trkpt>
      <trkpt lat="45.22097" lon="1.97662">
        <ele>472</ele>
        <time>2018-06-25T09:08:21.473Z</time>
      </trkpt>
      <trkpt lat="45.22106" lon="1.97609">
        <ele>470</ele>
        <time>2018-06-25T09:08:22.473Z</time>
      </trkpt>
      <trkpt lat="45.22084" lon="1.97563">
        <ele>466</ele>
        <time>2018-06-25T09:08:23.473Z</time>
      </trkpt>
      <trkpt lat="45.22003" lon="1.97519">
        <ele>459</ele>
        <time>2018-06-25T09:08:24.473Z</time>
      </trkpt>
      <trkpt lat="45.22002" lon="1.97464">
        <ele>455</ele>
        <time>2018-06-25T09:08:25.473Z</time>
      </trkpt>
      <trkpt lat="45.22048" lon="1.97391">
        <ele>458</ele>
        <time>2018-06-25T09:08:26.473Z</time>
      </trkpt>
      <trkpt lat="45.22029" lon="1.97334">
        <ele>458</ele>
        <time>2018-06-25T09:08:27.473Z</time>
      </trkpt>
      <trkpt lat="45.22034" lon="1.97243">
        <ele>462</ele>
        <time>2018-06-25T09:08:28.473Z</time>
      </trkpt>
      <trkpt lat="45.21998" lon="1.97103">
        <ele>468</ele>
        <time>2018-06-25T09:08:29.473Z</time>
      </trkpt>
      <trkpt lat="45.21951" lon="1.97087">
        <ele>472</ele>
        <time>2018-06-25T09:08:30.473Z</time>
      </trkpt>
      <trkpt lat="45.21853" lon="1.97116">
        <ele>478</ele>
        <time>2018-06-25T09:08:31.473Z</time>
      </trkpt>
      <trkpt lat="45.21709" lon="1.97006">
        <ele>488</ele>
        <time>2018-06-25T09:08:32.473Z</time>
      </trkpt>
      <trkpt lat="45.21568" lon="1.96993">
        <ele>490</ele>
        <time>2018-06-25T09:08:33.473Z</time>
      </trkpt>
      <trkpt lat="45.21496" lon="1.96959">
        <ele>491</ele>
        <time>2018-06-25T09:08:34.473Z</time>
      </trkpt>
      <trkpt lat="45.21401" lon="1.96845">
        <ele>490</ele>
        <time>2018-06-25T09:08:35.473Z</time>
      </trkpt>
      <trkpt lat="45.21234" lon="1.96772">
        <ele>485</ele>
        <time>2018-06-25T09:08:36.473Z</time>
      </trkpt>
      <trkpt lat="45.21144" lon="1.9669">
        <ele>485</ele>
        <time>2018-06-25T09:08:37.473Z</time>
      </trkpt>
      <trkpt lat="45.20999" lon="1.96631">
        <ele>476</ele>
        <time>2018-06-25T09:08:38.473Z</time>
      </trkpt>
      <trkpt lat="45.2057" lon="1.96614">
        <ele>467</ele>
        <time>2018-06-25T09:08:39.473Z</time>
      </trkpt>
      <trkpt lat="45.20533" lon="1.96596">
        <ele>466</ele>
        <time>2018-06-25T09:08:40.473Z</time>
      </trkpt>
      <trkpt lat="45.20503" lon="1.96531">
        <ele>466</ele>
        <time>2018-06-25T09:08:41.473Z</time>
      </trkpt>
      <trkpt lat="45.20487" lon="1.96289">
        <ele>473</ele>
        <time>2018-06-25T09:08:42.473Z</time>
      </trkpt>
      <trkpt lat="45.205" lon="1.96149">
        <ele>471</ele>
        <time>2018-06-25T09:08:43.473Z</time>
      </trkpt>
      <trkpt lat="45.20472" lon="1.9612">
        <ele>473</ele>
        <time>2018-06-25T09:08:44.473Z</time>
      </trkpt>
      <trkpt lat="45.20355" lon="1.9612">
        <ele>473</ele>
        <time>2018-06-25T09:08:45.473Z</time>
      </trkpt>
      <trkpt lat="45.20297" lon="1.96208">
        <ele>471</ele>
        <time>2018-06-25T09:08:46.473Z</time>
      </trkpt>
      <trkpt lat="45.20262" lon="1.96332">
        <ele>469</ele>
        <time>2018-06-25T09:08:47.473Z</time>
      </trkpt>
      <trkpt lat="45.20189" lon="1.9637">
        <ele>465</ele>
        <time>2018-06-25T09:08:48.473Z</time>
      </trkpt>
      <trkpt lat="45.20101" lon="1.96359">
        <ele>460</ele>
        <time>2018-06-25T09:08:49.473Z</time>
      </trkpt>
      <trkpt lat="45.20056" lon="1.96309">
        <ele>466</ele>
        <time>2018-06-25T09:08:50.473Z</time>
      </trkpt>
      <trkpt lat="45.19983" lon="1.9636">
        <ele>461</ele>
        <time>2018-06-25T09:08:51.473Z</time>
      </trkpt>
      <trkpt lat="45.19945" lon="1.96526">
        <ele>455</ele>
        <time>2018-06-25T09:08:52.473Z</time>
      </trkpt>
      <trkpt lat="45.19875" lon="1.96588">
        <ele>449</ele>
        <time>2018-06-25T09:08:53.473Z</time>
      </trkpt>
      <trkpt lat="45.19823" lon="1.96701">
        <ele>439</ele>
        <time>2018-06-25T09:08:54.473Z</time>
      </trkpt>
      <trkpt lat="45.19761" lon="1.96714">
        <ele>442</ele>
        <time>2018-06-25T09:08:55.473Z</time>
      </trkpt>
      <trkpt lat="45.19747" lon="1.96744">
        <ele>442</ele>
        <time>2018-06-25T09:08:56.473Z</time>
      </trkpt>
      <trkpt lat="45.19761" lon="1.96841">
        <ele>435</ele>
        <time>2018-06-25T09:08:57.473Z</time>
      </trkpt>
      <trkpt lat="45.19743" lon="1.96891">
        <ele>432</ele>
        <time>2018-06-25T09:08:58.473Z</time>
      </trkpt>
      <trkpt lat="45.19633" lon="1.96929">
        <ele>433</ele>
        <time>2018-06-25T09:08:59.473Z</time>
      </trkpt>
      <trkpt lat="45.19552" lon="1.96929">
        <ele>433</ele>
        <time>2018-06-25T09:09:00.473Z</time>
      </trkpt>
      <trkpt lat="45.196" lon="1.96781">
        <ele>447</ele>
        <time>2018-06-25T09:09:01.473Z</time>
      </trkpt>
      <trkpt lat="45.19563" lon="1.96711">
        <ele>452</ele>
        <time>2018-06-25T09:09:02.473Z</time>
      </trkpt>
      <trkpt lat="45.19568" lon="1.96606">
        <ele>459</ele>
        <time>2018-06-25T09:09:03.473Z</time>
      </trkpt>
      <trkpt lat="45.19665" lon="1.96399">
        <ele>468</ele>
        <time>2018-06-25T09:09:04.473Z</time>
      </trkpt>
      <trkpt lat="45.19664" lon="1.96268">
        <ele>466</ele>
        <time>2018-06-25T09:09:05.473Z</time>
      </trkpt>
      <trkpt lat="45.1963" lon="1.96104">
        <ele>460</ele>
        <time>2018-06-25T09:09:06.473Z</time>
      </trkpt>
      <trkpt lat="45.19649" lon="1.9589">
        <ele>457</ele>
        <time>2018-06-25T09:09:07.473Z</time>
      </trkpt>
      <trkpt lat="45.19612" lon="1.95762">
        <ele>463</ele>
        <time>2018-06-25T09:09:08.473Z</time>
      </trkpt>
      <trkpt lat="45.19479" lon="1.95671">
        <ele>462</ele>
        <time>2018-06-25T09:09:09.473Z</time>
      </trkpt>
      <trkpt lat="45.19339" lon="1.95739">
        <ele>474</ele>
        <time>2018-06-25T09:09:10.473Z</time>
      </trkpt>
      <trkpt lat="45.19247" lon="1.9572">
        <ele>484</ele>
        <time>2018-06-25T09:09:11.473Z</time>
      </trkpt>
      <trkpt lat="45.19153" lon="1.95753">
        <ele>492</ele>
        <time>2018-06-25T09:09:12.473Z</time>
      </trkpt>
      <trkpt lat="45.19065" lon="1.95712">
        <ele>496</ele>
        <time>2018-06-25T09:09:13.473Z</time>
      </trkpt>
      <trkpt lat="45.18913" lon="1.95554">
        <ele>485</ele>
        <time>2018-06-25T09:09:14.473Z</time>
      </trkpt>
      <trkpt lat="45.18904" lon="1.95433">
        <ele>482</ele>
        <time>2018-06-25T09:09:15.473Z</time>
      </trkpt>
      <trkpt lat="45.18571" lon="1.95177">
        <ele>463</ele>
        <time>2018-06-25T09:09:16.473Z</time>
      </trkpt>
      <trkpt lat="45.18582" lon="1.95025">
        <ele>457</ele>
        <time>2018-06-25T09:09:17.473Z</time>
      </trkpt>
      <trkpt lat="45.18588" lon="1.95053">
        <ele>458</ele>
        <time>2018-06-25T09:09:18.473Z</time>
      </trkpt>
      <trkpt lat="45.18644" lon="1.94965">
        <ele>449</ele>
        <time>2018-06-25T09:09:19.473Z</time>
      </trkpt>
      <trkpt lat="45.18653" lon="1.94855">
        <ele>441</ele>
        <time>2018-06-25T09:09:20.473Z</time>
      </trkpt>
      <trkpt lat="45.18672" lon="1.94831">
        <ele>437</ele>
        <time>2018-06-25T09:09:21.473Z</time>
      </trkpt>
      <trkpt lat="45.18683" lon="1.94733">
        <ele>432</ele>
        <time>2018-06-25T09:09:22.473Z</time>
      </trkpt>
      <trkpt lat="45.18639" lon="1.94654">
        <ele>430</ele>
        <time>2018-06-25T09:09:23.473Z</time>
      </trkpt>
      <trkpt lat="45.18541" lon="1.9461">
        <ele>437</ele>
        <time>2018-06-25T09:09:24.473Z</time>
      </trkpt>
      <trkpt lat="45.18485" lon="1.94607">
        <ele>439</ele>
        <time>2018-06-25T09:09:25.473Z</time>
      </trkpt>
      <trkpt lat="45.18505" lon="1.94567">
        <ele>446</ele>
        <time>2018-06-25T09:09:26.473Z</time>
      </trkpt>
      <trkpt lat="45.18497" lon="1.94453">
        <ele>462</ele>
        <time>2018-06-25T09:09:27.473Z</time>
      </trkpt>
      <trkpt lat="45.18526" lon="1.94328">
        <ele>474</ele>
        <time>2018-06-25T09:09:28.473Z</time>
      </trkpt>
      <trkpt lat="45.1847" lon="1.94147">
        <ele>483</ele>
        <time>2018-06-25T09:09:29.473Z</time>
      </trkpt>
      <trkpt lat="45.18467" lon="1.94073">
        <ele>489</ele>
        <time>2018-06-25T09:09:30.473Z</time>
      </trkpt>
      <trkpt lat="45.18391" lon="1.93875">
        <ele>494</ele>
        <time>2018-06-25T09:09:31.473Z</time>
      </trkpt>
      <trkpt lat="45.18355" lon="1.93818">
        <ele>494</ele>
        <time>2018-06-25T09:09:32.473Z</time>
      </trkpt>
      <trkpt lat="45.18546" lon="1.93758">
        <ele>506</ele>
        <time>2018-06-25T09:09:33.473Z</time>
      </trkpt>
      <trkpt lat="45.18667" lon="1.93655">
        <ele>509</ele>
        <time>2018-06-25T09:09:34.473Z</time>
      </trkpt>
      <trkpt lat="45.18716" lon="1.93557">
        <ele>498</ele>
        <time>2018-06-25T09:09:35.473Z</time>
      </trkpt>
      <trkpt lat="45.18806" lon="1.9346">
        <ele>503</ele>
        <time>2018-06-25T09:09:36.473Z</time>
      </trkpt>
      <trkpt lat="45.18863" lon="1.93349">
        <ele>511</ele>
        <time>2018-06-25T09:09:37.473Z</time>
      </trkpt>
      <trkpt lat="45.18889" lon="1.93135">
        <ele>519</ele>
        <time>2018-06-25T09:09:38.473Z</time>
      </trkpt>
      <trkpt lat="45.18884" lon="1.92997">
        <ele>514</ele>
        <time>2018-06-25T09:09:39.473Z</time>
      </trkpt>
      <trkpt lat="45.18808" lon="1.92759">
        <ele>501</ele>
        <time>2018-06-25T09:09:40.473Z</time>
      </trkpt>
      <trkpt lat="45.18804" lon="1.92683">
        <ele>497</ele>
        <time>2018-06-25T09:09:41.473Z</time>
      </trkpt>
      <trkpt lat="45.1876" lon="1.92649">
        <ele>490</ele>
        <time>2018-06-25T09:09:42.473Z</time>
      </trkpt>
      <trkpt lat="45.18722" lon="1.92504">
        <ele>496</ele>
        <time>2018-06-25T09:09:43.473Z</time>
      </trkpt>
      <trkpt lat="45.18636" lon="1.92361">
        <ele>504</ele>
        <time>2018-06-25T09:09:44.473Z</time>
      </trkpt>
      <trkpt lat="45.18576" lon="1.92314">
        <ele>509</ele>
        <time>2018-06-25T09:09:45.473Z</time>
      </trkpt>
      <trkpt lat="45.18362" lon="1.9231">
        <ele>509</ele>
        <time>2018-06-25T09:09:46.473Z</time>
      </trkpt>
      <trkpt lat="45.18289" lon="1.92271">
        <ele>510</ele>
        <time>2018-06-25T09:09:47.473Z</time>
      </trkpt>
      <trkpt lat="45.1824" lon="1.92184">
        <ele>512</ele>
        <time>2018-06-25T09:09:48.473Z</time>
      </trkpt>
      <trkpt lat="45.18185" lon="1.92018">
        <ele>514</ele>
        <time>2018-06-25T09:09:49.473Z</time>
      </trkpt>
      <trkpt lat="45.18129" lon="1.91964">
        <ele>509</ele>
        <time>2018-06-25T09:09:50.473Z</time>
      </trkpt>
      <trkpt lat="45.1799" lon="1.91936">
        <ele>500</ele>
        <time>2018-06-25T09:09:51.473Z</time>
      </trkpt>
      <trkpt lat="45.17961" lon="1.91908">
        <ele>496</ele>
        <time>2018-06-25T09:09:52.473Z</time>
      </trkpt>
      <trkpt lat="45.17932" lon="1.91767">
        <ele>494</ele>
        <time>2018-06-25T09:09:53.473Z</time>
      </trkpt>
      <trkpt lat="45.17799" lon="1.9157">
        <ele>470</ele>
        <time>2018-06-25T09:09:54.473Z</time>
      </trkpt>
      <trkpt lat="45.17826" lon="1.9149">
        <ele>471</ele>
        <time>2018-06-25T09:09:55.473Z</time>
      </trkpt>
      <trkpt lat="45.17826" lon="1.91375">
        <ele>468</ele>
        <time>2018-06-25T09:09:56.473Z</time>
      </trkpt>
      <trkpt lat="45.17926" lon="1.91281">
        <ele>472</ele>
        <time>2018-06-25T09:09:57.473Z</time>
      </trkpt>
      <trkpt lat="45.17936" lon="1.91231">
        <ele>475</ele>
        <time>2018-06-25T09:09:58.473Z</time>
      </trkpt>
      <trkpt lat="45.17905" lon="1.911">
        <ele>489</ele>
        <time>2018-06-25T09:09:59.473Z</time>
      </trkpt>
      <trkpt lat="45.17914" lon="1.91003">
        <ele>493</ele>
        <time>2018-06-25T09:10:00.473Z</time>
      </trkpt>
      <trkpt lat="45.17896" lon="1.90956">
        <ele>492</ele>
        <time>2018-06-25T09:10:01.473Z</time>
      </trkpt>
      <trkpt lat="45.17839" lon="1.90907">
        <ele>497</ele>
        <time>2018-06-25T09:10:02.473Z</time>
      </trkpt>
      <trkpt lat="45.1779" lon="1.90909">
        <ele>499</ele>
        <time>2018-06-25T09:10:03.473Z</time>
      </trkpt>
      <trkpt lat="45.17689" lon="1.90858">
        <ele>503</ele>
        <time>2018-06-25T09:10:04.473Z</time>
      </trkpt>
      <trkpt lat="45.17633" lon="1.90942">
        <ele>505</ele>
        <time>2018-06-25T09:10:05.473Z</time>
      </trkpt>
      <trkpt lat="45.1753" lon="1.91023">
        <ele>512</ele>
        <time>2018-06-25T09:10:06.473Z</time>
      </trkpt>
      <trkpt lat="45.17392" lon="1.90912">
        <ele>523</ele>
        <time>2018-06-25T09:10:07.473Z</time>
      </trkpt>
      <trkpt lat="45.17281" lon="1.90939">
        <ele>528</ele>
        <time>2018-06-25T09:10:08.473Z</time>
      </trkpt>
      <trkpt lat="45.17093" lon="1.90785">
        <ele>549</ele>
        <time>2018-06-25T09:10:09.473Z</time>
      </trkpt>
      <trkpt lat="45.16945" lon="1.90776">
        <ele>549</ele>
        <time>2018-06-25T09:10:10.473Z</time>
      </trkpt>
      <trkpt lat="45.16858" lon="1.90681">
        <ele>545</ele>
        <time>2018-06-25T09:10:11.473Z</time>
      </trkpt>
      <trkpt lat="45.16823" lon="1.90675">
        <ele>542</ele>
        <time>2018-06-25T09:10:12.473Z</time>
      </trkpt>
      <trkpt lat="45.16669" lon="1.90775">
        <ele>537</ele>
        <time>2018-06-25T09:10:13.473Z</time>
      </trkpt>
      <trkpt lat="45.16647" lon="1.90771">
        <ele>539</ele>
        <time>2018-06-25T09:10:14.473Z</time>
      </trkpt>
      <trkpt lat="45.16515" lon="1.90526">
        <ele>536</ele>
        <time>2018-06-25T09:10:15.473Z</time>
      </trkpt>
      <trkpt lat="45.16313" lon="1.90407">
        <ele>526</ele>
        <time>2018-06-25T09:10:16.473Z</time>
      </trkpt>
      <trkpt lat="45.16223" lon="1.90417">
        <ele>523</ele>
        <time>2018-06-25T09:10:17.473Z</time>
      </trkpt>
      <trkpt lat="45.16167" lon="1.90289">
        <ele>521</ele>
        <time>2018-06-25T09:10:18.473Z</time>
      </trkpt>
      <trkpt lat="45.16216" lon="1.90287">
        <ele>519</ele>
        <time>2018-06-25T09:10:19.473Z</time>
      </trkpt>
      <trkpt lat="45.16241" lon="1.90228">
        <ele>514</ele>
        <time>2018-06-25T09:10:20.473Z</time>
      </trkpt>
      <trkpt lat="45.16274" lon="1.90209">
        <ele>506</ele>
        <time>2018-06-25T09:10:21.473Z</time>
      </trkpt>
      <trkpt lat="45.16338" lon="1.90278">
        <ele>512</ele>
        <time>2018-06-25T09:10:22.473Z</time>
      </trkpt>
      <trkpt lat="45.16486" lon="1.90169">
        <ele>482</ele>
        <time>2018-06-25T09:10:23.473Z</time>
      </trkpt>
      <trkpt lat="45.16373" lon="1.90236">
        <ele>500</ele>
        <time>2018-06-25T09:10:24.473Z</time>
      </trkpt>
      <trkpt lat="45.16333" lon="1.90208">
        <ele>496</ele>
        <time>2018-06-25T09:10:25.473Z</time>
      </trkpt>
      <trkpt lat="45.16318" lon="1.89973">
        <ele>462</ele>
        <time>2018-06-25T09:10:26.473Z</time>
      </trkpt>
      <trkpt lat="45.16295" lon="1.89925">
        <ele>460</ele>
        <time>2018-06-25T09:10:27.473Z</time>
      </trkpt>
      <trkpt lat="45.1625" lon="1.89937">
        <ele>472</ele>
        <time>2018-06-25T09:10:28.473Z</time>
      </trkpt>
      <trkpt lat="45.16292" lon="1.89876">
        <ele>452</ele>
        <time>2018-06-25T09:10:29.473Z</time>
      </trkpt>
      <trkpt lat="45.16328" lon="1.89933">
        <ele>455</ele>
        <time>2018-06-25T09:10:30.473Z</time>
      </trkpt>
      <trkpt lat="45.16339" lon="1.89924">
        <ele>449</ele>
        <time>2018-06-25T09:10:31.473Z</time>
      </trkpt>
      <trkpt lat="45.1625" lon="1.89639">
        <ele>423</ele>
        <time>2018-06-25T09:10:32.473Z</time>
      </trkpt>
      <trkpt lat="45.16115" lon="1.89297">
        <ele>393</ele>
        <time>2018-06-25T09:10:33.473Z</time>
      </trkpt>
      <trkpt lat="45.16105" lon="1.89099">
        <ele>372</ele>
        <time>2018-06-25T09:10:34.473Z</time>
      </trkpt>
      <trkpt lat="45.15929" lon="1.89036">
        <ele>366</ele>
        <time>2018-06-25T09:10:35.473Z</time>
      </trkpt>
      <trkpt lat="45.15927" lon="1.88944">
        <ele>355</ele>
        <time>2018-06-25T09:10:36.473Z</time>
      </trkpt>
      <trkpt lat="45.15849" lon="1.88693">
        <ele>376</ele>
        <time>2018-06-25T09:10:37.473Z</time>
      </trkpt>
      <trkpt lat="45.15828" lon="1.88744">
        <ele>369</ele>
        <time>2018-06-25T09:10:38.473Z</time>
      </trkpt>
      <trkpt lat="45.15678" lon="1.88703">
        <ele>375</ele>
        <time>2018-06-25T09:10:39.473Z</time>
      </trkpt>
      <trkpt lat="45.15668" lon="1.88637">
        <ele>380</ele>
        <time>2018-06-25T09:10:40.473Z</time>
      </trkpt>
      <trkpt lat="45.15696" lon="1.88557">
        <ele>388</ele>
        <time>2018-06-25T09:10:41.473Z</time>
      </trkpt>
      <trkpt lat="45.15673" lon="1.8851">
        <ele>388</ele>
        <time>2018-06-25T09:10:42.473Z</time>
      </trkpt>
      <trkpt lat="45.15577" lon="1.88426">
        <ele>378</ele>
        <time>2018-06-25T09:10:43.473Z</time>
      </trkpt>
      <trkpt lat="45.15465" lon="1.88288">
        <ele>371</ele>
        <time>2018-06-25T09:10:44.473Z</time>
      </trkpt>
      <trkpt lat="45.1534" lon="1.88234">
        <ele>366</ele>
        <time>2018-06-25T09:10:45.473Z</time>
      </trkpt>
      <trkpt lat="45.15227" lon="1.88131">
        <ele>349</ele>
        <time>2018-06-25T09:10:46.473Z</time>
      </trkpt>
      <trkpt lat="45.15138" lon="1.88201">
        <ele>340</ele>
        <time>2018-06-25T09:10:47.473Z</time>
      </trkpt>
      <trkpt lat="45.15051" lon="1.88158">
        <ele>341</ele>
        <time>2018-06-25T09:10:48.473Z</time>
      </trkpt>
      <trkpt lat="45.15043" lon="1.8806">
        <ele>341</ele>
        <time>2018-06-25T09:10:49.473Z</time>
      </trkpt>
      <trkpt lat="45.15088" lon="1.87956">
        <ele>334</ele>
        <time>2018-06-25T09:10:50.473Z</time>
      </trkpt>
      <trkpt lat="45.15091" lon="1.87886">
        <ele>334</ele>
        <time>2018-06-25T09:10:51.473Z</time>
      </trkpt>
      <trkpt lat="45.15126" lon="1.87833">
        <ele>323</ele>
        <time>2018-06-25T09:10:52.473Z</time>
      </trkpt>
      <trkpt lat="45.15176" lon="1.87802">
        <ele>309</ele>
        <time>2018-06-25T09:10:53.473Z</time>
      </trkpt>
      <trkpt lat="45.15196" lon="1.87816">
        <ele>306</ele>
        <time>2018-06-25T09:10:54.473Z</time>
      </trkpt>
      <trkpt lat="45.15146" lon="1.87886">
        <ele>316</ele>
        <time>2018-06-25T09:10:55.473Z</time>
      </trkpt>
      <trkpt lat="45.1514" lon="1.87986">
        <ele>317</ele>
        <time>2018-06-25T09:10:56.473Z</time>
      </trkpt>
      <trkpt lat="45.15219" lon="1.87895">
        <ele>300</ele>
        <time>2018-06-25T09:10:57.473Z</time>
      </trkpt>
      <trkpt lat="45.1534" lon="1.87808">
        <ele>288</ele>
        <time>2018-06-25T09:10:58.473Z</time>
      </trkpt>
      <trkpt lat="45.15357" lon="1.87755">
        <ele>286</ele>
        <time>2018-06-25T09:10:59.473Z</time>
      </trkpt>
      <trkpt lat="45.15409" lon="1.87689">
        <ele>278</ele>
        <time>2018-06-25T09:11:00.473Z</time>
      </trkpt>
      <trkpt lat="45.15496" lon="1.87514">
        <ele>257</ele>
        <time>2018-06-25T09:11:01.473Z</time>
      </trkpt>
      <trkpt lat="45.15494" lon="1.87346">
        <ele>251</ele>
        <time>2018-06-25T09:11:02.473Z</time>
      </trkpt>
      <trkpt lat="45.15515" lon="1.87105">
        <ele>228</ele>
        <time>2018-06-25T09:11:03.473Z</time>
      </trkpt>
      <trkpt lat="45.15512" lon="1.87111">
        <ele>229</ele>
        <time>2018-06-25T08:58:42.191Z</time>
      </trkpt>
      <trkpt lat="45.15586" lon="1.86992">
        <ele>228</ele>
        <time>2018-06-25T08:58:43.191Z</time>
      </trkpt>
      <trkpt lat="45.15612" lon="1.86914">
        <ele>223</ele>
        <time>2018-06-25T08:58:44.191Z</time>
      </trkpt>
      <trkpt lat="45.15597" lon="1.86739">
        <ele>224</ele>
        <time>2018-06-25T08:58:45.191Z</time>
      </trkpt>
      <trkpt lat="45.15485" lon="1.8679">
        <ele>225</ele>
        <time>2018-06-25T08:58:46.191Z</time>
      </trkpt>
      <trkpt lat="45.1545" lon="1.8678">
        <ele>229</ele>
        <time>2018-06-25T08:58:47.191Z</time>
      </trkpt>
      <trkpt lat="45.15396" lon="1.8683">
        <ele>228</ele>
        <time>2018-06-25T08:58:48.191Z</time>
      </trkpt>
      <trkpt lat="45.15252" lon="1.86837">
        <ele>234</ele>
        <time>2018-06-25T08:58:49.191Z</time>
      </trkpt>
      <trkpt lat="45.15149" lon="1.86891">
        <ele>228</ele>
        <time>2018-06-25T08:58:50.191Z</time>
      </trkpt>
      <trkpt lat="45.1508" lon="1.86857">
        <ele>230</ele>
        <time>2018-06-25T08:58:51.191Z</time>
      </trkpt>
      <trkpt lat="45.15048" lon="1.86924">
        <ele>230</ele>
        <time>2018-06-25T08:58:52.191Z</time>
      </trkpt>
      <trkpt lat="45.149" lon="1.86928">
        <ele>238</ele>
        <time>2018-06-25T08:58:53.191Z</time>
      </trkpt>
      <trkpt lat="45.14874" lon="1.86847">
        <ele>244</ele>
        <time>2018-06-25T08:58:54.191Z</time>
      </trkpt>
      <trkpt lat="45.14817" lon="1.86797">
        <ele>249</ele>
        <time>2018-06-25T08:58:55.191Z</time>
      </trkpt>
      <trkpt lat="45.14886" lon="1.86619">
        <ele>265</ele>
        <time>2018-06-25T08:58:56.191Z</time>
      </trkpt>
      <trkpt lat="45.14943" lon="1.86555">
        <ele>271</ele>
        <time>2018-06-25T08:58:57.191Z</time>
      </trkpt>
      <trkpt lat="45.15037" lon="1.86382">
        <ele>281</ele>
        <time>2018-06-25T08:58:58.191Z</time>
      </trkpt>
      <trkpt lat="45.1504" lon="1.86294">
        <ele>293</ele>
        <time>2018-06-25T08:58:59.191Z</time>
      </trkpt>
      <trkpt lat="45.14939" lon="1.86103">
        <ele>314</ele>
        <time>2018-06-25T08:59:00.191Z</time>
      </trkpt>
      <trkpt lat="45.14949" lon="1.86073">
        <ele>316</ele>
        <time>2018-06-25T08:59:01.191Z</time>
      </trkpt>
      <trkpt lat="45.15005" lon="1.86059">
        <ele>318</ele>
        <time>2018-06-25T08:59:02.191Z</time>
      </trkpt>
      <trkpt lat="45.15155" lon="1.86228">
        <ele>314</ele>
        <time>2018-06-25T08:59:03.191Z</time>
      </trkpt>
      <trkpt lat="45.15218" lon="1.86226">
        <ele>316</ele>
        <time>2018-06-25T08:59:04.191Z</time>
      </trkpt>
      <trkpt lat="45.15252" lon="1.86174">
        <ele>327</ele>
        <time>2018-06-25T08:59:05.191Z</time>
      </trkpt>
      <trkpt lat="45.15261" lon="1.86106">
        <ele>335</ele>
        <time>2018-06-25T08:59:06.191Z</time>
      </trkpt>
      <trkpt lat="45.15342" lon="1.85966">
        <ele>336</ele>
        <time>2018-06-25T08:59:07.191Z</time>
      </trkpt>
      <trkpt lat="45.15326" lon="1.85748">
        <ele>355</ele>
        <time>2018-06-25T08:59:08.191Z</time>
      </trkpt>
      <trkpt lat="45.15388" lon="1.85704">
        <ele>349</ele>
        <time>2018-06-25T08:59:09.191Z</time>
      </trkpt>
      <trkpt lat="45.15456" lon="1.85493">
        <ele>361</ele>
        <time>2018-06-25T08:59:10.191Z</time>
      </trkpt>
      <trkpt lat="45.15436" lon="1.85312">
        <ele>372</ele>
        <time>2018-06-25T08:59:11.191Z</time>
      </trkpt>
      <trkpt lat="45.15373" lon="1.85262">
        <ele>376</ele>
        <time>2018-06-25T08:59:12.191Z</time>
      </trkpt>
      <trkpt lat="45.15267" lon="1.85272">
        <ele>383</ele>
        <time>2018-06-25T08:59:13.191Z</time>
      </trkpt>
      <trkpt lat="45.15152" lon="1.85162">
        <ele>394</ele>
        <time>2018-06-25T08:59:14.191Z</time>
      </trkpt>
      <trkpt lat="45.15091" lon="1.85077">
        <ele>397</ele>
        <time>2018-06-25T08:59:15.191Z</time>
      </trkpt>
      <trkpt lat="45.1508" lon="1.84997">
        <ele>401</ele>
        <time>2018-06-25T08:59:16.191Z</time>
      </trkpt>
      <trkpt lat="45.1503" lon="1.84951">
        <ele>410</ele>
        <time>2018-06-25T08:59:17.191Z</time>
      </trkpt>
      <trkpt lat="45.15001" lon="1.84833">
        <ele>419</ele>
        <time>2018-06-25T08:59:18.191Z</time>
      </trkpt>
      <trkpt lat="45.14862" lon="1.84612">
        <ele>419</ele>
        <time>2018-06-25T08:59:19.191Z</time>
      </trkpt>
      <trkpt lat="45.14819" lon="1.84514">
        <ele>413</ele>
        <time>2018-06-25T08:59:20.191Z</time>
      </trkpt>
      <trkpt lat="45.14797" lon="1.84317">
        <ele>409</ele>
        <time>2018-06-25T08:59:21.191Z</time>
      </trkpt>
      <trkpt lat="45.14781" lon="1.8428">
        <ele>411</ele>
        <time>2018-06-25T08:59:22.191Z</time>
      </trkpt>
      <trkpt lat="45.14662" lon="1.84242">
        <ele>411</ele>
        <time>2018-06-25T08:59:23.191Z</time>
      </trkpt>
      <trkpt lat="45.14633" lon="1.84197">
        <ele>413</ele>
        <time>2018-06-25T08:59:24.191Z</time>
      </trkpt>
      <trkpt lat="45.14638" lon="1.8416">
        <ele>414</ele>
        <time>2018-06-25T08:59:25.191Z</time>
      </trkpt>
      <trkpt lat="45.14562" lon="1.8413">
        <ele>412</ele>
        <time>2018-06-25T08:59:26.191Z</time>
      </trkpt>
      <trkpt lat="45.14277" lon="1.83847">
        <ele>370</ele>
        <time>2018-06-25T08:59:27.191Z</time>
      </trkpt>
      <trkpt lat="45.14258" lon="1.83871">
        <ele>369</ele>
        <time>2018-06-25T08:59:28.191Z</time>
      </trkpt>
      <trkpt lat="45.14252" lon="1.83828">
        <ele>366</ele>
        <time>2018-06-25T08:59:29.191Z</time>
      </trkpt>
      <trkpt lat="45.14192" lon="1.8374">
        <ele>360</ele>
        <time>2018-06-25T08:59:30.191Z</time>
      </trkpt>
      <trkpt lat="45.14212" lon="1.83696">
        <ele>360</ele>
        <time>2018-06-25T08:59:31.191Z</time>
      </trkpt>
      <trkpt lat="45.14236" lon="1.83686">
        <ele>360</ele>
        <time>2018-06-25T08:59:32.191Z</time>
      </trkpt>
      <trkpt lat="45.14255" lon="1.8364">
        <ele>360</ele>
        <time>2018-06-25T08:59:33.191Z</time>
      </trkpt>
      <trkpt lat="45.14268" lon="1.83471">
        <ele>375</ele>
        <time>2018-06-25T08:59:34.191Z</time>
      </trkpt>
      <trkpt lat="45.14239" lon="1.83465">
        <ele>381</ele>
        <time>2018-06-25T08:59:35.191Z</time>
      </trkpt>
      <trkpt lat="45.14297" lon="1.83331">
        <ele>383</ele>
        <time>2018-06-25T08:59:36.191Z</time>
      </trkpt>
      <trkpt lat="45.14306" lon="1.83271">
        <ele>381</ele>
        <time>2018-06-25T08:59:37.191Z</time>
      </trkpt>
      <trkpt lat="45.14238" lon="1.83046">
        <ele>374</ele>
        <time>2018-06-25T08:59:38.191Z</time>
      </trkpt>
      <trkpt lat="45.14243" lon="1.82999">
        <ele>371</ele>
        <time>2018-06-25T08:59:39.191Z</time>
      </trkpt>
      <trkpt lat="45.14297" lon="1.82946">
        <ele>366</ele>
        <time>2018-06-25T08:59:40.191Z</time>
      </trkpt>
      <trkpt lat="45.14306" lon="1.82912">
        <ele>365</ele>
        <time>2018-06-25T08:59:41.191Z</time>
      </trkpt>
      <trkpt lat="45.14218" lon="1.82808">
        <ele>367</ele>
        <time>2018-06-25T08:59:42.191Z</time>
      </trkpt>
      <trkpt lat="45.14164" lon="1.82786">
        <ele>369</ele>
        <time>2018-06-25T08:59:43.191Z</time>
      </trkpt>
      <trkpt lat="45.14129" lon="1.82708">
        <ele>371</ele>
        <time>2018-06-25T08:59:44.191Z</time>
      </trkpt>
      <trkpt lat="45.142" lon="1.82524">
        <ele>377</ele>
        <time>2018-06-25T08:59:45.191Z</time>
      </trkpt>
      <trkpt lat="45.1421" lon="1.82389">
        <ele>377</ele>
        <time>2018-06-25T08:59:46.191Z</time>
      </trkpt>
      <trkpt lat="45.1423" lon="1.82338">
        <ele>375</ele>
        <time>2018-06-25T08:59:47.191Z</time>
      </trkpt>
      <trkpt lat="45.14334" lon="1.82241">
        <ele>378</ele>
        <time>2018-06-25T08:59:48.191Z</time>
      </trkpt>
      <trkpt lat="45.14327" lon="1.82004">
        <ele>389</ele>
        <time>2018-06-25T08:59:49.191Z</time>
      </trkpt>
      <trkpt lat="45.14281" lon="1.81946">
        <ele>391</ele>
        <time>2018-06-25T08:59:50.191Z</time>
      </trkpt>
      <trkpt lat="45.14215" lon="1.81767">
        <ele>385</ele>
        <time>2018-06-25T08:59:51.191Z</time>
      </trkpt>
      <trkpt lat="45.14227" lon="1.81649">
        <ele>386</ele>
        <time>2018-06-25T08:59:52.191Z</time>
      </trkpt>
      <trkpt lat="45.14208" lon="1.81562">
        <ele>387</ele>
        <time>2018-06-25T08:59:53.191Z</time>
      </trkpt>
      <trkpt lat="45.14182" lon="1.81522">
        <ele>389</ele>
        <time>2018-06-25T08:59:54.191Z</time>
      </trkpt>
      <trkpt lat="45.14142" lon="1.81317">
        <ele>402</ele>
        <time>2018-06-25T08:59:55.191Z</time>
      </trkpt>
      <trkpt lat="45.14117" lon="1.8129">
        <ele>406</ele>
        <time>2018-06-25T08:59:56.191Z</time>
      </trkpt>
      <trkpt lat="45.13965" lon="1.81242">
        <ele>414</ele>
        <time>2018-06-25T08:59:57.191Z</time>
      </trkpt>
      <trkpt lat="45.13918" lon="1.81159">
        <ele>419</ele>
        <time>2018-06-25T08:59:58.191Z</time>
      </trkpt>
      <trkpt lat="45.13909" lon="1.81102">
        <ele>425</ele>
        <time>2018-06-25T08:59:59.191Z</time>
      </trkpt>
      <trkpt lat="45.13802" lon="1.81039">
        <ele>437</ele>
        <time>2018-06-25T09:00:00.191Z</time>
      </trkpt>
      <trkpt lat="45.13772" lon="1.80914">
        <ele>447</ele>
        <time>2018-06-25T09:00:01.191Z</time>
      </trkpt>
      <trkpt lat="45.13874" lon="1.80751">
        <ele>456</ele>
        <time>2018-06-25T09:00:02.191Z</time>
      </trkpt>
      <trkpt lat="45.1386" lon="1.80677">
        <ele>463</ele>
        <time>2018-06-25T09:00:03.191Z</time>
      </trkpt>
      <trkpt lat="45.13815" lon="1.8061">
        <ele>471</ele>
        <time>2018-06-25T09:00:04.191Z</time>
      </trkpt>
      <trkpt lat="45.13817" lon="1.80379">
        <ele>470</ele>
        <time>2018-06-25T09:00:05.191Z</time>
      </trkpt>
      <trkpt lat="45.13777" lon="1.8025">
        <ele>469</ele>
        <time>2018-06-25T09:00:06.191Z</time>
      </trkpt>
      <trkpt lat="45.13578" lon="1.79959">
        <ele>482</ele>
        <time>2018-06-25T09:00:07.191Z</time>
      </trkpt>
      <trkpt lat="45.13537" lon="1.79936">
        <ele>483</ele>
        <time>2018-06-25T09:00:08.191Z</time>
      </trkpt>
      <trkpt lat="45.13484" lon="1.79853">
        <ele>489</ele>
        <time>2018-06-25T09:00:09.191Z</time>
      </trkpt>
      <trkpt lat="45.13281" lon="1.79631">
        <ele>509</ele>
        <time>2018-06-25T09:00:10.191Z</time>
      </trkpt>
      <trkpt lat="45.13227" lon="1.7949">
        <ele>518</ele>
        <time>2018-06-25T09:00:11.191Z</time>
      </trkpt>
      <trkpt lat="45.13232" lon="1.79427">
        <ele>523</ele>
        <time>2018-06-25T09:00:12.191Z</time>
      </trkpt>
      <trkpt lat="45.1317" lon="1.79327">
        <ele>520</ele>
        <time>2018-06-25T09:00:13.191Z</time>
      </trkpt>
      <trkpt lat="45.13127" lon="1.79322">
        <ele>519</ele>
        <time>2018-06-25T09:00:14.191Z</time>
      </trkpt>
      <trkpt lat="45.1308" lon="1.79156">
        <ele>530</ele>
        <time>2018-06-25T09:00:15.191Z</time>
      </trkpt>
      <trkpt lat="45.1288" lon="1.79393">
        <ele>518</ele>
        <time>2018-06-25T09:00:16.191Z</time>
      </trkpt>
      <trkpt lat="45.12865" lon="1.79419">
        <ele>519</ele>
        <time>2018-06-25T09:00:17.191Z</time>
      </trkpt>
      <trkpt lat="45.12847" lon="1.79413">
        <ele>521</ele>
        <time>2018-06-25T09:00:18.191Z</time>
      </trkpt>
      <trkpt lat="45.12822" lon="1.79427">
        <ele>522</ele>
        <time>2018-06-25T09:00:19.191Z</time>
      </trkpt>
      <trkpt lat="45.12814" lon="1.79422">
        <ele>523</ele>
        <time>2018-06-25T09:00:20.191Z</time>
      </trkpt>
      <trkpt lat="45.12816" lon="1.79384">
        <ele>524</ele>
        <time>2018-06-25T09:00:21.191Z</time>
      </trkpt>
      <trkpt lat="45.12813" lon="1.79335">
        <ele>526</ele>
        <time>2018-06-25T09:00:22.191Z</time>
      </trkpt>
      <trkpt lat="45.12805" lon="1.79315">
        <ele>526</ele>
        <time>2018-06-25T09:00:23.191Z</time>
      </trkpt>
      <trkpt lat="45.12754" lon="1.79269">
        <ele>532</ele>
        <time>2018-06-25T09:00:24.191Z</time>
      </trkpt>
      <trkpt lat="45.12732" lon="1.79233">
        <ele>535</ele>
        <time>2018-06-25T09:00:25.191Z</time>
      </trkpt>
      <trkpt lat="45.12725" lon="1.79209">
        <ele>537</ele>
        <time>2018-06-25T09:00:26.191Z</time>
      </trkpt>
      <trkpt lat="45.12719" lon="1.79166">
        <ele>541</ele>
        <time>2018-06-25T09:00:27.191Z</time>
      </trkpt>
      <trkpt lat="45.12707" lon="1.79134">
        <ele>544</ele>
        <time>2018-06-25T09:00:28.191Z</time>
      </trkpt>
      <trkpt lat="45.12696" lon="1.79121">
        <ele>547</ele>
        <time>2018-06-25T09:00:29.191Z</time>
      </trkpt>
      <trkpt lat="45.12662" lon="1.79114">
        <ele>553</ele>
        <time>2018-06-25T09:00:30.191Z</time>
      </trkpt>
      <trkpt lat="45.12607" lon="1.79125">
        <ele>559</ele>
        <time>2018-06-25T09:00:31.191Z</time>
      </trkpt>
      <trkpt lat="45.12535" lon="1.79196">
        <ele>561</ele>
        <time>2018-06-25T09:00:32.191Z</time>
      </trkpt>
      <trkpt lat="45.12484" lon="1.79259">
        <ele>567</ele>
        <time>2018-06-25T09:00:33.191Z</time>
      </trkpt>
      <trkpt lat="45.12451" lon="1.79306">
        <ele>573</ele>
        <time>2018-06-25T09:00:34.191Z</time>
      </trkpt>
      <trkpt lat="45.12424" lon="1.79326">
        <ele>576</ele>
        <time>2018-06-25T09:00:35.191Z</time>
      </trkpt>
      <trkpt lat="45.124" lon="1.79326">
        <ele>578</ele>
        <time>2018-06-25T09:00:36.191Z</time>
      </trkpt>
      <trkpt lat="45.12347" lon="1.79315">
        <ele>581</ele>
        <time>2018-06-25T09:00:37.191Z</time>
      </trkpt>
      <trkpt lat="45.12297" lon="1.79295">
        <ele>584</ele>
        <time>2018-06-25T09:00:38.191Z</time>
      </trkpt>
      <trkpt lat="45.12271" lon="1.79299">
        <ele>584</ele>
        <time>2018-06-25T09:00:39.191Z</time>
      </trkpt>
      <trkpt lat="45.1221" lon="1.79303">
        <ele>585</ele>
        <time>2018-06-25T09:00:40.191Z</time>
      </trkpt>
      <trkpt lat="45.12182" lon="1.79293">
        <ele>586</ele>
        <time>2018-06-25T09:00:41.191Z</time>
      </trkpt>
      <trkpt lat="45.12228" lon="1.79212">
        <ele>589</ele>
        <time>2018-06-25T09:00:42.191Z</time>
      </trkpt>
      <trkpt lat="45.12248" lon="1.79158">
        <ele>592</ele>
        <time>2018-06-25T09:00:43.191Z</time>
      </trkpt>
      <trkpt lat="45.12263" lon="1.79089">
        <ele>596</ele>
        <time>2018-06-25T09:00:44.191Z</time>
      </trkpt>
      <trkpt lat="45.12264" lon="1.79028">
        <ele>597</ele>
        <time>2018-06-25T09:00:45.191Z</time>
      </trkpt>
      <trkpt lat="45.12291" lon="1.78963">
        <ele>597</ele>
        <time>2018-06-25T09:00:46.191Z</time>
      </trkpt>
      <trkpt lat="45.12329" lon="1.78806">
        <ele>586</ele>
        <time>2018-06-25T09:00:47.191Z</time>
      </trkpt>
      <trkpt lat="45.12331" lon="1.78786">
        <ele>584</ele>
        <time>2018-06-25T09:00:48.191Z</time>
      </trkpt>
      <trkpt lat="45.123" lon="1.78793">
        <ele>585</ele>
        <time>2018-06-25T09:00:49.191Z</time>
      </trkpt>
      <trkpt lat="45.12286" lon="1.78783">
        <ele>585</ele>
        <time>2018-06-25T09:00:50.191Z</time>
      </trkpt>
      <trkpt lat="45.12197" lon="1.78686">
        <ele>583</ele>
        <time>2018-06-25T09:00:51.191Z</time>
      </trkpt>
      <trkpt lat="45.12008" lon="1.78539">
        <ele>575</ele>
        <time>2018-06-25T09:00:52.191Z</time>
      </trkpt>
      <trkpt lat="45.11752" lon="1.78505">
        <ele>573</ele>
        <time>2018-06-25T09:00:53.191Z</time>
      </trkpt>
      <trkpt lat="45.11602" lon="1.78562">
        <ele>566</ele>
        <time>2018-06-25T09:00:54.191Z</time>
      </trkpt>
      <trkpt lat="45.11481" lon="1.78492">
        <ele>568</ele>
        <time>2018-06-25T09:00:55.191Z</time>
      </trkpt>
      <trkpt lat="45.1131" lon="1.78605">
        <ele>574</ele>
        <time>2018-06-25T09:00:56.191Z</time>
      </trkpt>
      <trkpt lat="45.11152" lon="1.78783">
        <ele>568</ele>
        <time>2018-06-25T09:00:57.191Z</time>
      </trkpt>
      <trkpt lat="45.1086" lon="1.78871">
        <ele>553</ele>
        <time>2018-06-25T09:00:58.191Z</time>
      </trkpt>
      <trkpt lat="45.10653" lon="1.79014">
        <ele>544</ele>
        <time>2018-06-25T09:00:59.191Z</time>
      </trkpt>
      <trkpt lat="45.1056" lon="1.79108">
        <ele>527</ele>
        <time>2018-06-25T09:01:00.191Z</time>
      </trkpt>
      <trkpt lat="45.10486" lon="1.79135">
        <ele>520</ele>
        <time>2018-06-25T09:01:01.191Z</time>
      </trkpt>
      <trkpt lat="45.10425" lon="1.79089">
        <ele>516</ele>
        <time>2018-06-25T09:01:02.191Z</time>
      </trkpt>
      <trkpt lat="45.10396" lon="1.79095">
        <ele>513</ele>
        <time>2018-06-25T09:01:03.191Z</time>
      </trkpt>
      <trkpt lat="45.10339" lon="1.79152">
        <ele>510</ele>
        <time>2018-06-25T09:01:04.191Z</time>
      </trkpt>
      <trkpt lat="45.10232" lon="1.79158">
        <ele>502</ele>
        <time>2018-06-25T09:01:05.191Z</time>
      </trkpt>
      <trkpt lat="45.10147" lon="1.79202">
        <ele>499</ele>
        <time>2018-06-25T09:01:06.191Z</time>
      </trkpt>
      <trkpt lat="45.10078" lon="1.79326">
        <ele>492</ele>
        <time>2018-06-25T09:01:07.191Z</time>
      </trkpt>
      <trkpt lat="45.09977" lon="1.79449">
        <ele>492</ele>
        <time>2018-06-25T09:01:08.191Z</time>
      </trkpt>
      <trkpt lat="45.09941" lon="1.79784">
        <ele>485</ele>
        <time>2018-06-25T09:01:09.191Z</time>
      </trkpt>
      <trkpt lat="45.0981" lon="1.79788">
        <ele>486</ele>
        <time>2018-06-25T09:01:10.191Z</time>
      </trkpt>
      <trkpt lat="45.09723" lon="1.79866">
        <ele>485</ele>
        <time>2018-06-25T09:01:11.191Z</time>
      </trkpt>
      <trkpt lat="45.09708" lon="1.79919">
        <ele>488</ele>
        <time>2018-06-25T09:01:12.191Z</time>
      </trkpt>
      <trkpt lat="45.0975" lon="1.80158">
        <ele>491</ele>
        <time>2018-06-25T09:01:13.191Z</time>
      </trkpt>
      <trkpt lat="45.09735" lon="1.80201">
        <ele>491</ele>
        <time>2018-06-25T09:01:14.191Z</time>
      </trkpt>
      <trkpt lat="45.09634" lon="1.80261">
        <ele>495</ele>
        <time>2018-06-25T09:01:15.191Z</time>
      </trkpt>
      <trkpt lat="45.09586" lon="1.80378">
        <ele>502</ele>
        <time>2018-06-25T09:01:16.191Z</time>
      </trkpt>
      <trkpt lat="45.09578" lon="1.80459">
        <ele>504</ele>
        <time>2018-06-25T09:01:17.191Z</time>
      </trkpt>
      <trkpt lat="45.096" lon="1.80707">
        <ele>508</ele>
        <time>2018-06-25T09:01:18.191Z</time>
      </trkpt>
      <trkpt lat="45.09463" lon="1.80848">
        <ele>517</ele>
        <time>2018-06-25T09:01:19.191Z</time>
      </trkpt>
      <trkpt lat="45.09382" lon="1.80965">
        <ele>520</ele>
        <time>2018-06-25T09:01:20.191Z</time>
      </trkpt>
      <trkpt lat="45.09169" lon="1.81112">
        <ele>512</ele>
        <time>2018-06-25T09:01:21.191Z</time>
      </trkpt>
      <trkpt lat="45.09138" lon="1.81115">
        <ele>513</ele>
        <time>2018-06-25T09:01:22.191Z</time>
      </trkpt>
      <trkpt lat="45.08979" lon="1.81026">
        <ele>509</ele>
        <time>2018-06-25T09:01:23.191Z</time>
      </trkpt>
      <trkpt lat="45.08957" lon="1.80995">
        <ele>511</ele>
        <time>2018-06-25T09:01:24.191Z</time>
      </trkpt>
      <trkpt lat="45.08942" lon="1.80908">
        <ele>513</ele>
        <time>2018-06-25T09:01:25.191Z</time>
      </trkpt>
      <trkpt lat="45.08948" lon="1.80747">
        <ele>509</ele>
        <time>2018-06-25T09:01:26.191Z</time>
      </trkpt>
      <trkpt lat="45.08914" lon="1.80667">
        <ele>512</ele>
        <time>2018-06-25T09:01:27.191Z</time>
      </trkpt>
      <trkpt lat="45.0895" lon="1.80519">
        <ele>498</ele>
        <time>2018-06-25T09:01:28.191Z</time>
      </trkpt>
      <trkpt lat="45.0894" lon="1.80466">
        <ele>496</ele>
        <time>2018-06-25T09:01:29.191Z</time>
      </trkpt>
      <trkpt lat="45.089" lon="1.80443">
        <ele>497</ele>
        <time>2018-06-25T09:01:30.191Z</time>
      </trkpt>
      <trkpt lat="45.08739" lon="1.80453">
        <ele>497</ele>
        <time>2018-06-25T09:01:31.191Z</time>
      </trkpt>
      <trkpt lat="45.0858" lon="1.8057">
        <ele>493</ele>
        <time>2018-06-25T09:01:32.191Z</time>
      </trkpt>
      <trkpt lat="45.08503" lon="1.80566">
        <ele>490</ele>
        <time>2018-06-25T09:01:33.191Z</time>
      </trkpt>
      <trkpt lat="45.08351" lon="1.80489">
        <ele>484</ele>
        <time>2018-06-25T09:01:34.191Z</time>
      </trkpt>
      <trkpt lat="45.08284" lon="1.80482">
        <ele>481</ele>
        <time>2018-06-25T09:01:35.191Z</time>
      </trkpt>
      <trkpt lat="45.08107" lon="1.80516">
        <ele>472</ele>
        <time>2018-06-25T09:01:36.191Z</time>
      </trkpt>
      <trkpt lat="45.07968" lon="1.80516">
        <ele>473</ele>
        <time>2018-06-25T09:01:37.191Z</time>
      </trkpt>
      <trkpt lat="45.07852" lon="1.80583">
        <ele>472</ele>
        <time>2018-06-25T09:01:38.191Z</time>
      </trkpt>
      <trkpt lat="45.07692" lon="1.80619">
        <ele>476</ele>
        <time>2018-06-25T09:01:39.191Z</time>
      </trkpt>
      <trkpt lat="45.07631" lon="1.80612">
        <ele>476</ele>
        <time>2018-06-25T09:01:40.191Z</time>
      </trkpt>
      <trkpt lat="45.0747" lon="1.80532">
        <ele>473</ele>
        <time>2018-06-25T09:01:41.191Z</time>
      </trkpt>
      <trkpt lat="45.07255" lon="1.8064">
        <ele>475</ele>
        <time>2018-06-25T09:01:42.191Z</time>
      </trkpt>
      <trkpt lat="45.07132" lon="1.80757">
        <ele>478</ele>
        <time>2018-06-25T09:01:43.191Z</time>
      </trkpt>
      <trkpt lat="45.06696" lon="1.80938">
        <ele>479</ele>
        <time>2018-06-25T09:01:44.191Z</time>
      </trkpt>
      <trkpt lat="45.06598" lon="1.81073">
        <ele>481</ele>
        <time>2018-06-25T09:01:45.191Z</time>
      </trkpt>
      <trkpt lat="45.06444" lon="1.81155">
        <ele>474</ele>
        <time>2018-06-25T09:01:46.191Z</time>
      </trkpt>
      <trkpt lat="45.06402" lon="1.81137">
        <ele>471</ele>
        <time>2018-06-25T09:01:47.191Z</time>
      </trkpt>
      <trkpt lat="45.06293" lon="1.81276">
        <ele>479</ele>
        <time>2018-06-25T09:01:48.191Z</time>
      </trkpt>
      <trkpt lat="45.06199" lon="1.81598">
        <ele>489</ele>
        <time>2018-06-25T09:01:49.191Z</time>
      </trkpt>
      <trkpt lat="45.06073" lon="1.81806">
        <ele>482</ele>
        <time>2018-06-25T09:01:50.191Z</time>
      </trkpt>
      <trkpt lat="45.06004" lon="1.8186">
        <ele>479</ele>
        <time>2018-06-25T09:01:51.191Z</time>
      </trkpt>
      <trkpt lat="45.05934" lon="1.81974">
        <ele>470</ele>
        <time>2018-06-25T09:01:52.191Z</time>
      </trkpt>
      <trkpt lat="45.05845" lon="1.81997">
        <ele>475</ele>
        <time>2018-06-25T09:01:53.191Z</time>
      </trkpt>
      <trkpt lat="45.05751" lon="1.82074">
        <ele>479</ele>
        <time>2018-06-25T09:01:54.191Z</time>
      </trkpt>
      <trkpt lat="45.05721" lon="1.82124">
        <ele>474</ele>
        <time>2018-06-25T09:01:55.191Z</time>
      </trkpt>
      <trkpt lat="45.05531" lon="1.82024">
        <ele>485</ele>
        <time>2018-06-25T09:01:56.191Z</time>
      </trkpt>
      <trkpt lat="45.05443" lon="1.82068">
        <ele>485</ele>
        <time>2018-06-25T09:01:57.191Z</time>
      </trkpt>
      <trkpt lat="45.05075" lon="1.82137">
        <ele>478</ele>
        <time>2018-06-25T09:01:58.191Z</time>
      </trkpt>
      <trkpt lat="45.0495" lon="1.82201">
        <ele>465</ele>
        <time>2018-06-25T09:01:59.191Z</time>
      </trkpt>
      <trkpt lat="45.04809" lon="1.82238">
        <ele>447</ele>
        <time>2018-06-25T09:02:00.191Z</time>
      </trkpt>
      <trkpt lat="45.04616" lon="1.82363">
        <ele>424</ele>
        <time>2018-06-25T09:02:01.191Z</time>
      </trkpt>
      <trkpt lat="45.04497" lon="1.82352">
        <ele>423</ele>
        <time>2018-06-25T09:02:02.191Z</time>
      </trkpt>
      <trkpt lat="45.04417" lon="1.82308">
        <ele>424</ele>
        <time>2018-06-25T09:02:03.191Z</time>
      </trkpt>
      <trkpt lat="45.04358" lon="1.82336">
        <ele>434</ele>
        <time>2018-06-25T09:02:04.191Z</time>
      </trkpt>
      <trkpt lat="45.04148" lon="1.82302">
        <ele>445</ele>
        <time>2018-06-25T09:02:05.191Z</time>
      </trkpt>
      <trkpt lat="45.03957" lon="1.82319">
        <ele>446</ele>
        <time>2018-06-25T09:02:06.191Z</time>
      </trkpt>
      <trkpt lat="45.03832" lon="1.82386">
        <ele>436</ele>
        <time>2018-06-25T09:02:07.191Z</time>
      </trkpt>
      <trkpt lat="45.03506" lon="1.82634">
        <ele>414</ele>
        <time>2018-06-25T09:02:08.191Z</time>
      </trkpt>
      <trkpt lat="45.03335" lon="1.82627">
        <ele>424</ele>
        <time>2018-06-25T09:02:09.191Z</time>
      </trkpt>
      <trkpt lat="45.0329" lon="1.8265">
        <ele>422</ele>
        <time>2018-06-25T09:02:10.191Z</time>
      </trkpt>
      <trkpt lat="45.03242" lon="1.82725">
        <ele>423</ele>
        <time>2018-06-25T09:02:11.191Z</time>
      </trkpt>
      <trkpt lat="45.03181" lon="1.82775">
        <ele>419</ele>
        <time>2018-06-25T09:02:12.191Z</time>
      </trkpt>
      <trkpt lat="45.03094" lon="1.82799">
        <ele>414</ele>
        <time>2018-06-25T09:02:13.191Z</time>
      </trkpt>
      <trkpt lat="45.02924" lon="1.82718">
        <ele>412</ele>
        <time>2018-06-25T09:02:14.191Z</time>
      </trkpt>
      <trkpt lat="45.02732" lon="1.82728">
        <ele>401</ele>
        <time>2018-06-25T09:02:15.191Z</time>
      </trkpt>
      <trkpt lat="45.02663" lon="1.82697">
        <ele>398</ele>
        <time>2018-06-25T09:02:16.191Z</time>
      </trkpt>
      <trkpt lat="45.02511" lon="1.82674">
        <ele>397</ele>
        <time>2018-06-25T09:02:17.191Z</time>
      </trkpt>
      <trkpt lat="45.02439" lon="1.82614">
        <ele>390</ele>
        <time>2018-06-25T09:02:18.191Z</time>
      </trkpt>
      <trkpt lat="45.02372" lon="1.82621">
        <ele>384</ele>
        <time>2018-06-25T09:02:19.191Z</time>
      </trkpt>
      <trkpt lat="45.02323" lon="1.82653">
        <ele>382</ele>
        <time>2018-06-25T09:02:20.191Z</time>
      </trkpt>
      <trkpt lat="45.02204" lon="1.82661">
        <ele>369</ele>
        <time>2018-06-25T09:02:21.191Z</time>
      </trkpt>
      <trkpt lat="45.01856" lon="1.82826">
        <ele>338</ele>
        <time>2018-06-25T09:02:22.191Z</time>
      </trkpt>
      <trkpt lat="45.01764" lon="1.82899">
        <ele>337</ele>
        <time>2018-06-25T09:02:23.191Z</time>
      </trkpt>
      <trkpt lat="45.01507" lon="1.83012">
        <ele>309</ele>
        <time>2018-06-25T09:02:24.191Z</time>
      </trkpt>
      <trkpt lat="45.01372" lon="1.83056">
        <ele>294</ele>
        <time>2018-06-25T09:02:25.191Z</time>
      </trkpt>
      <trkpt lat="45.01372" lon="1.83061">
        <ele>294</ele>
        <time>2018-06-25T09:02:26.191Z</time>
      </trkpt>
      <trkpt lat="45.01361" lon="1.83062">
        <ele>293</ele>
        <time>2018-06-25T09:02:27.191Z</time>
      </trkpt>
      <trkpt lat="45.01305" lon="1.83181">
        <ele>304</ele>
        <time>2018-06-25T09:02:28.191Z</time>
      </trkpt>
      <trkpt lat="45.01302" lon="1.83204">
        <ele>306</ele>
        <time>2018-06-25T09:02:29.191Z</time>
      </trkpt>
      <trkpt lat="45.01314" lon="1.8321">
        <ele>308</ele>
        <time>2018-06-25T09:02:30.191Z</time>
      </trkpt>
      <trkpt lat="45.01347" lon="1.83208">
        <ele>312</ele>
        <time>2018-06-25T09:02:31.191Z</time>
      </trkpt>
      <trkpt lat="45.01372" lon="1.83193">
        <ele>315</ele>
        <time>2018-06-25T09:02:32.191Z</time>
      </trkpt>
      <trkpt lat="45.01416" lon="1.83156">
        <ele>318</ele>
        <time>2018-06-25T09:02:33.191Z</time>
      </trkpt>
      <trkpt lat="45.01425" lon="1.83149">
        <ele>319</ele>
        <time>2018-06-25T09:02:34.191Z</time>
      </trkpt>
      <trkpt lat="45.01428" lon="1.83158">
        <ele>321</ele>
        <time>2018-06-25T09:02:35.191Z</time>
      </trkpt>
      <trkpt lat="45.01421" lon="1.8318">
        <ele>322</ele>
        <time>2018-06-25T09:02:36.191Z</time>
      </trkpt>
      <trkpt lat="45.01413" lon="1.83209">
        <ele>323</ele>
        <time>2018-06-25T09:02:37.191Z</time>
      </trkpt>
      <trkpt lat="45.01408" lon="1.83247">
        <ele>326</ele>
        <time>2018-06-25T09:02:38.191Z</time>
      </trkpt>
      <trkpt lat="45.0142" lon="1.83429">
        <ele>330</ele>
        <time>2018-06-25T09:02:39.191Z</time>
      </trkpt>
      <trkpt lat="45.01427" lon="1.83462">
        <ele>330</ele>
        <time>2018-06-25T09:02:40.191Z</time>
      </trkpt>
      <trkpt lat="45.01436" lon="1.83482">
        <ele>330</ele>
        <time>2018-06-25T09:02:41.191Z</time>
      </trkpt>
      <trkpt lat="45.01447" lon="1.83489">
        <ele>331</ele>
        <time>2018-06-25T09:02:42.191Z</time>
      </trkpt>
      <trkpt lat="45.01484" lon="1.8349">
        <ele>333</ele>
        <time>2018-06-25T09:02:43.191Z</time>
      </trkpt>
      <trkpt lat="45.01548" lon="1.83496">
        <ele>321</ele>
        <time>2018-06-25T09:02:44.191Z</time>
      </trkpt>
      <trkpt lat="45.01573" lon="1.83478">
        <ele>318</ele>
        <time>2018-06-25T09:02:45.191Z</time>
      </trkpt>
      <trkpt lat="45.01598" lon="1.8339">
        <ele>327</ele>
        <time>2018-06-25T09:02:46.191Z</time>
      </trkpt>
      <trkpt lat="45.01613" lon="1.83365">
        <ele>329</ele>
        <time>2018-06-25T09:02:47.191Z</time>
      </trkpt>
      <trkpt lat="45.01631" lon="1.83351">
        <ele>328</ele>
        <time>2018-06-25T09:02:48.191Z</time>
      </trkpt>
      <trkpt lat="45.01682" lon="1.83374">
        <ele>313</ele>
        <time>2018-06-25T09:02:49.191Z</time>
      </trkpt>
      <trkpt lat="45.01714" lon="1.83391">
        <ele>303</ele>
        <time>2018-06-25T09:02:50.191Z</time>
      </trkpt>
      <trkpt lat="45.0174" lon="1.83396">
        <ele>298</ele>
        <time>2018-06-25T09:02:51.191Z</time>
      </trkpt>
      <trkpt lat="45.01768" lon="1.83385">
        <ele>292</ele>
        <time>2018-06-25T09:02:52.191Z</time>
      </trkpt>
      <trkpt lat="45.01781" lon="1.83371">
        <ele>290</ele>
        <time>2018-06-25T09:02:53.191Z</time>
      </trkpt>
      <trkpt lat="45.01803" lon="1.8331">
        <ele>297</ele>
        <time>2018-06-25T09:02:54.191Z</time>
      </trkpt>
      <trkpt lat="45.01812" lon="1.83276">
        <ele>300</ele>
        <time>2018-06-25T09:02:55.191Z</time>
      </trkpt>
      <trkpt lat="45.01833" lon="1.83252">
        <ele>297</ele>
        <time>2018-06-25T09:02:56.191Z</time>
      </trkpt>
      <trkpt lat="45.01858" lon="1.83243">
        <ele>296</ele>
        <time>2018-06-25T09:02:57.191Z</time>
      </trkpt>
      <trkpt lat="45.01888" lon="1.83253">
        <ele>289</ele>
        <time>2018-06-25T09:02:58.191Z</time>
      </trkpt>
      <trkpt lat="45.01902" lon="1.83261">
        <ele>285</ele>
        <time>2018-06-25T09:02:59.191Z</time>
      </trkpt>
      <trkpt lat="45.01925" lon="1.83284">
        <ele>274</ele>
        <time>2018-06-25T09:03:00.191Z</time>
      </trkpt>
      <trkpt lat="45.01945" lon="1.83292">
        <ele>270</ele>
        <time>2018-06-25T09:03:01.191Z</time>
      </trkpt>
      <trkpt lat="45.01964" lon="1.83283">
        <ele>272</ele>
        <time>2018-06-25T09:03:02.191Z</time>
      </trkpt>
      <trkpt lat="45.01985" lon="1.83261">
        <ele>278</ele>
        <time>2018-06-25T09:03:03.191Z</time>
      </trkpt>
      <trkpt lat="45.02002" lon="1.8326">
        <ele>277</ele>
        <time>2018-06-25T09:03:04.191Z</time>
      </trkpt>
      <trkpt lat="45.02051" lon="1.83293">
        <ele>274</ele>
        <time>2018-06-25T09:03:05.191Z</time>
      </trkpt>
      <trkpt lat="45.02064" lon="1.83315">
        <ele>268</ele>
        <time>2018-06-25T09:03:06.191Z</time>
      </trkpt>
      <trkpt lat="45.02072" lon="1.83352">
        <ele>256</ele>
        <time>2018-06-25T09:03:07.191Z</time>
      </trkpt>
      <trkpt lat="45.02077" lon="1.83364">
        <ele>252</ele>
        <time>2018-06-25T09:03:08.191Z</time>
      </trkpt>
      <trkpt lat="45.02112" lon="1.83384">
        <ele>247</ele>
        <time>2018-06-25T09:03:09.191Z</time>
      </trkpt>
      <trkpt lat="45.02163" lon="1.83387">
        <ele>250</ele>
        <time>2018-06-25T09:03:10.191Z</time>
      </trkpt>
      <trkpt lat="45.02245" lon="1.83388">
        <ele>243</ele>
        <time>2018-06-25T09:03:11.191Z</time>
      </trkpt>
      <trkpt lat="45.0229" lon="1.83391">
        <ele>238</ele>
        <time>2018-06-25T09:03:12.191Z</time>
      </trkpt>
      <trkpt lat="45.02311" lon="1.83385">
        <ele>238</ele>
        <time>2018-06-25T09:03:13.191Z</time>
      </trkpt>
      <trkpt lat="45.02332" lon="1.83357">
        <ele>243</ele>
        <time>2018-06-25T09:03:14.191Z</time>
      </trkpt>
      <trkpt lat="45.02341" lon="1.83352">
        <ele>244</ele>
        <time>2018-06-25T09:03:15.191Z</time>
      </trkpt>
      <trkpt lat="45.02356" lon="1.83356">
        <ele>241</ele>
        <time>2018-06-25T09:03:16.191Z</time>
      </trkpt>
      <trkpt lat="45.02378" lon="1.83378">
        <ele>232</ele>
        <time>2018-06-25T09:03:17.191Z</time>
      </trkpt>
      <trkpt lat="45.02398" lon="1.83385">
        <ele>227</ele>
        <time>2018-06-25T09:03:18.191Z</time>
      </trkpt>
      <trkpt lat="45.02417" lon="1.83384">
        <ele>225</ele>
        <time>2018-06-25T09:03:19.191Z</time>
      </trkpt>
      <trkpt lat="45.02432" lon="1.83369">
        <ele>228</ele>
        <time>2018-06-25T09:03:20.191Z</time>
      </trkpt>
      <trkpt lat="45.02439" lon="1.83366">
        <ele>228</ele>
        <time>2018-06-25T09:03:21.191Z</time>
      </trkpt>
      <trkpt lat="45.02466" lon="1.83339">
        <ele>232</ele>
        <time>2018-06-25T09:03:22.191Z</time>
      </trkpt>
      <trkpt lat="45.02478" lon="1.83344">
        <ele>229</ele>
        <time>2018-06-25T09:03:23.191Z</time>
      </trkpt>
      <trkpt lat="45.02489" lon="1.83378">
        <ele>218</ele>
        <time>2018-06-25T09:03:24.191Z</time>
      </trkpt>
      <trkpt lat="45.02498" lon="1.8339">
        <ele>213</ele>
        <time>2018-06-25T09:03:25.191Z</time>
      </trkpt>
      <trkpt lat="45.02518" lon="1.83385">
        <ele>215</ele>
        <time>2018-06-25T09:03:26.191Z</time>
      </trkpt>
      <trkpt lat="45.0254" lon="1.83387">
        <ele>216</ele>
        <time>2018-06-25T09:03:27.191Z</time>
      </trkpt>
      <trkpt lat="45.02551" lon="1.83424">
        <ele>207</ele>
        <time>2018-06-25T09:03:28.191Z</time>
      </trkpt>
      <trkpt lat="45.02576" lon="1.8344">
        <ele>204</ele>
        <time>2018-06-25T09:03:29.191Z</time>
      </trkpt>
      <trkpt lat="45.02632" lon="1.83454">
        <ele>207</ele>
        <time>2018-06-25T09:03:30.191Z</time>
      </trkpt>
      <trkpt lat="45.02654" lon="1.83446">
        <ele>210</ele>
        <time>2018-06-25T09:03:31.191Z</time>
      </trkpt>
      <trkpt lat="45.02661" lon="1.83453">
        <ele>210</ele>
        <time>2018-06-25T09:03:32.191Z</time>
      </trkpt>
      <trkpt lat="45.02659" lon="1.83466">
        <ele>207</ele>
        <time>2018-06-25T09:03:33.191Z</time>
      </trkpt>
      <trkpt lat="45.02643" lon="1.83485">
        <ele>202</ele>
        <time>2018-06-25T09:03:34.191Z</time>
      </trkpt>
      <trkpt lat="45.02627" lon="1.8352">
        <ele>197</ele>
        <time>2018-06-25T09:03:35.191Z</time>
      </trkpt>
      <trkpt lat="45.02619" lon="1.83545">
        <ele>194</ele>
        <time>2018-06-25T09:03:36.191Z</time>
      </trkpt>
      <trkpt lat="45.02579" lon="1.83607">
        <ele>178</ele>
        <time>2018-06-25T09:03:37.191Z</time>
      </trkpt>
      <trkpt lat="45.02568" lon="1.83649">
        <ele>176</ele>
        <time>2018-06-25T09:03:38.191Z</time>
      </trkpt>
      <trkpt lat="45.02569" lon="1.83713">
        <ele>173</ele>
        <time>2018-06-25T09:03:39.191Z</time>
      </trkpt>
      <trkpt lat="45.02577" lon="1.83756">
        <ele>172</ele>
        <time>2018-06-25T09:03:40.191Z</time>
      </trkpt>
      <trkpt lat="45.02579" lon="1.83794">
        <ele>169</ele>
        <time>2018-06-25T09:03:41.191Z</time>
      </trkpt>
      <trkpt lat="45.0257" lon="1.83824">
        <ele>166</ele>
        <time>2018-06-25T09:03:42.191Z</time>
      </trkpt>
      <trkpt lat="45.02551" lon="1.8386">
        <ele>164</ele>
        <time>2018-06-25T09:03:43.191Z</time>
      </trkpt>
      <trkpt lat="45.02554" lon="1.83872">
        <ele>165</ele>
        <time>2018-06-25T09:03:44.191Z</time>
      </trkpt>
      <trkpt lat="45.02555" lon="1.83872">
        <ele>165</ele>
        <time>2018-06-25T09:03:45.191Z</time>
      </trkpt>
      <trkpt lat="45.02572" lon="1.83937">
        <ele>168</ele>
        <time>2018-06-25T09:03:46.191Z</time>
      </trkpt>
      <trkpt lat="45.02575" lon="1.83999">
        <ele>169</ele>
        <time>2018-06-25T09:03:47.191Z</time>
      </trkpt>
      <trkpt lat="45.02572" lon="1.84042">
        <ele>167</ele>
        <time>2018-06-25T09:03:48.191Z</time>
      </trkpt>
      <trkpt lat="45.02564" lon="1.84264">
        <ele>169</ele>
        <time>2018-06-25T09:03:49.191Z</time>
      </trkpt>
      <trkpt lat="45.02563" lon="1.84319">
        <ele>168</ele>
        <time>2018-06-25T09:03:50.191Z</time>
      </trkpt>
      <trkpt lat="45.02565" lon="1.84353">
        <ele>168</ele>
        <time>2018-06-25T09:03:51.191Z</time>
      </trkpt>
      <trkpt lat="45.02444" lon="1.84391">
        <ele>154</ele>
        <time>2018-06-25T09:03:52.191Z</time>
      </trkpt>
      <trkpt lat="45.0233" lon="1.84424">
        <ele>181</ele>
        <time>2018-06-25T09:03:53.191Z</time>
      </trkpt>
      <trkpt lat="45.02297" lon="1.84213">
        <ele>171</ele>
        <time>2018-06-25T09:03:54.191Z</time>
      </trkpt>
      <trkpt lat="45.02267" lon="1.8413">
        <ele>166</ele>
        <time>2018-06-25T09:03:55.191Z</time>
      </trkpt>
      <trkpt lat="45.02245" lon="1.84106">
        <ele>165</ele>
        <time>2018-06-25T09:03:56.191Z</time>
      </trkpt>
      <trkpt lat="45.022" lon="1.8408">
        <ele>166</ele>
        <time>2018-06-25T09:03:57.191Z</time>
      </trkpt>
      <trkpt lat="45.02145" lon="1.84058">
        <ele>166</ele>
        <time>2018-06-25T09:03:58.191Z</time>
      </trkpt>
      <trkpt lat="45.02122" lon="1.8406">
        <ele>167</ele>
        <time>2018-06-25T09:03:59.191Z</time>
      </trkpt>
      <trkpt lat="45.02109" lon="1.84074">
        <ele>168</ele>
        <time>2018-06-25T09:04:00.191Z</time>
      </trkpt>
      <trkpt lat="45.02102" lon="1.84095">
        <ele>169</ele>
        <time>2018-06-25T09:04:01.191Z</time>
      </trkpt>
      <trkpt lat="45.02103" lon="1.84138">
        <ele>171</ele>
        <time>2018-06-25T09:04:02.191Z</time>
      </trkpt>
      <trkpt lat="45.02038" lon="1.84195">
        <ele>169</ele>
        <time>2018-06-25T09:04:03.191Z</time>
      </trkpt>
      <trkpt lat="45.01964" lon="1.84333">
        <ele>163</ele>
        <time>2018-06-25T09:04:04.191Z</time>
      </trkpt>
      <trkpt lat="45.01949" lon="1.84385">
        <ele>163</ele>
        <time>2018-06-25T09:04:05.191Z</time>
      </trkpt>
      <trkpt lat="45.01946" lon="1.84482">
        <ele>166</ele>
        <time>2018-06-25T09:04:06.191Z</time>
      </trkpt>
      <trkpt lat="45.01928" lon="1.84545">
        <ele>166</ele>
        <time>2018-06-25T09:04:07.191Z</time>
      </trkpt>
      <trkpt lat="45.01878" lon="1.84664">
        <ele>168</ele>
        <time>2018-06-25T09:04:08.191Z</time>
      </trkpt>
      <trkpt lat="45.01853" lon="1.84728">
        <ele>169</ele>
        <time>2018-06-25T09:04:09.191Z</time>
      </trkpt>
      <trkpt lat="45.01807" lon="1.848">
        <ele>174</ele>
        <time>2018-06-25T09:04:10.191Z</time>
      </trkpt>
      <trkpt lat="45.01725" lon="1.84871">
        <ele>173</ele>
        <time>2018-06-25T09:04:11.191Z</time>
      </trkpt>
      <trkpt lat="45.01634" lon="1.84925">
        <ele>169</ele>
        <time>2018-06-25T09:04:12.191Z</time>
      </trkpt>
      <trkpt lat="45.01586" lon="1.84972">
        <ele>172</ele>
        <time>2018-06-25T09:04:13.191Z</time>
      </trkpt>
      <trkpt lat="45.01494" lon="1.85085">
        <ele>167</ele>
        <time>2018-06-25T09:04:14.191Z</time>
      </trkpt>
      <trkpt lat="45.01447" lon="1.85187">
        <ele>176</ele>
        <time>2018-06-25T09:04:15.191Z</time>
      </trkpt>
      <trkpt lat="45.01367" lon="1.85259">
        <ele>171</ele>
        <time>2018-06-25T09:04:16.191Z</time>
      </trkpt>
      <trkpt lat="45.01344" lon="1.8527">
        <ele>167</ele>
        <time>2018-06-25T09:04:17.191Z</time>
      </trkpt>
      <trkpt lat="45.01317" lon="1.8531">
        <ele>171</ele>
        <time>2018-06-25T09:04:18.191Z</time>
      </trkpt>
      <trkpt lat="45.01304" lon="1.85353">
        <ele>177</ele>
        <time>2018-06-25T09:04:19.191Z</time>
      </trkpt>
      <trkpt lat="45.01284" lon="1.85381">
        <ele>178</ele>
        <time>2018-06-25T09:04:20.191Z</time>
      </trkpt>
      <trkpt lat="45.0125" lon="1.85412">
        <ele>174</ele>
        <time>2018-06-25T09:04:21.191Z</time>
      </trkpt>
      <trkpt lat="45.01226" lon="1.85418">
        <ele>176</ele>
        <time>2018-06-25T09:04:22.191Z</time>
      </trkpt>
      <trkpt lat="45.01159" lon="1.85394">
        <ele>171</ele>
        <time>2018-06-25T09:04:23.191Z</time>
      </trkpt>
      <trkpt lat="45.01076" lon="1.8538">
        <ele>169</ele>
        <time>2018-06-25T09:04:24.191Z</time>
      </trkpt>
      <trkpt lat="45.01037" lon="1.85382">
        <ele>168</ele>
        <time>2018-06-25T09:04:25.191Z</time>
      </trkpt>
      <trkpt lat="45.00948" lon="1.85412">
        <ele>171</ele>
        <time>2018-06-25T09:04:26.191Z</time>
      </trkpt>
      <trkpt lat="45.00769" lon="1.85404">
        <ele>169</ele>
        <time>2018-06-25T09:04:27.191Z</time>
      </trkpt>
      <trkpt lat="45.00722" lon="1.85408">
        <ele>169</ele>
        <time>2018-06-25T09:04:28.191Z</time>
      </trkpt>
      <trkpt lat="45.00561" lon="1.85379">
        <ele>168</ele>
        <time>2018-06-25T09:04:29.191Z</time>
      </trkpt>
      <trkpt lat="45.00525" lon="1.85366">
        <ele>172</ele>
        <time>2018-06-25T09:04:30.191Z</time>
      </trkpt>
      <trkpt lat="45.00491" lon="1.85324">
        <ele>174</ele>
        <time>2018-06-25T09:04:31.191Z</time>
      </trkpt>
      <trkpt lat="45.00469" lon="1.85274">
        <ele>169</ele>
        <time>2018-06-25T09:04:32.191Z</time>
      </trkpt>
      <trkpt lat="45.00351" lon="1.85133">
        <ele>168</ele>
        <time>2018-06-25T09:04:33.191Z</time>
      </trkpt>
      <trkpt lat="45.00336" lon="1.85061">
        <ele>162</ele>
        <time>2018-06-25T09:04:34.191Z</time>
      </trkpt>
      <trkpt lat="45.00304" lon="1.85024">
        <ele>173</ele>
        <time>2018-06-25T09:04:35.191Z</time>
      </trkpt>
      <trkpt lat="45.00253" lon="1.8493">
        <ele>169</ele>
        <time>2018-06-25T09:04:36.191Z</time>
      </trkpt>
      <trkpt lat="45.00231" lon="1.84907">
        <ele>168</ele>
        <time>2018-06-25T09:04:37.191Z</time>
      </trkpt>
      <trkpt lat="45.0013" lon="1.84845">
        <ele>175</ele>
        <time>2018-06-25T09:04:38.191Z</time>
      </trkpt>
      <trkpt lat="45.00122" lon="1.84825">
        <ele>174</ele>
        <time>2018-06-25T09:04:39.191Z</time>
      </trkpt>
      <trkpt lat="45.00113" lon="1.84676">
        <ele>177</ele>
        <time>2018-06-25T09:04:40.191Z</time>
      </trkpt>
      <trkpt lat="45.00107" lon="1.84635">
        <ele>178</ele>
        <time>2018-06-25T09:04:41.191Z</time>
      </trkpt>
      <trkpt lat="45.00109" lon="1.84597">
        <ele>174</ele>
        <time>2018-06-25T09:04:42.191Z</time>
      </trkpt>
      <trkpt lat="45.00099" lon="1.84556">
        <ele>172</ele>
        <time>2018-06-25T09:04:43.191Z</time>
      </trkpt>
      <trkpt lat="45.00077" lon="1.84522">
        <ele>174</ele>
        <time>2018-06-25T09:04:44.191Z</time>
      </trkpt>
      <trkpt lat="45.00005" lon="1.84346">
        <ele>169</ele>
        <time>2018-06-25T09:04:45.191Z</time>
      </trkpt>
      <trkpt lat="44.99937" lon="1.84201">
        <ele>172</ele>
        <time>2018-06-25T09:04:46.191Z</time>
      </trkpt>
      <trkpt lat="44.99864" lon="1.8403">
        <ele>157</ele>
        <time>2018-06-25T09:04:47.191Z</time>
      </trkpt>
      <trkpt lat="44.99836" lon="1.83981">
        <ele>153</ele>
        <time>2018-06-25T09:04:48.191Z</time>
      </trkpt>
      <trkpt lat="44.99808" lon="1.83939">
        <ele>152</ele>
        <time>2018-06-25T09:04:49.191Z</time>
      </trkpt>
      <trkpt lat="44.99809" lon="1.83941">
        <ele>152</ele>
        <time>2018-06-25T09:04:50.191Z</time>
      </trkpt>
      <trkpt lat="44.99753" lon="1.83897">
        <ele>151</ele>
        <time>2018-06-25T09:04:51.191Z</time>
      </trkpt>
      <trkpt lat="44.99601" lon="1.83794">
        <ele>156</ele>
        <time>2018-06-25T09:04:52.191Z</time>
      </trkpt>
      <trkpt lat="44.99384" lon="1.83595">
        <ele>154</ele>
        <time>2018-06-25T09:04:53.191Z</time>
      </trkpt>
      <trkpt lat="44.99339" lon="1.83567">
        <ele>154</ele>
        <time>2018-06-25T09:04:54.191Z</time>
      </trkpt>
      <trkpt lat="44.99279" lon="1.83549">
        <ele>154</ele>
        <time>2018-06-25T09:04:55.191Z</time>
      </trkpt>
      <trkpt lat="44.99227" lon="1.83561">
        <ele>155</ele>
        <time>2018-06-25T09:04:56.191Z</time>
      </trkpt>
      <trkpt lat="44.99062" lon="1.83633">
        <ele>157</ele>
        <time>2018-06-25T09:04:57.191Z</time>
      </trkpt>
      <trkpt lat="44.99055" lon="1.83638">
        <ele>157</ele>
        <time>2018-06-25T09:04:58.191Z</time>
      </trkpt>
      <trkpt lat="44.99055" lon="1.83639">
        <ele>157</ele>
        <time>2018-06-25T09:04:59.191Z</time>
      </trkpt>
      <trkpt lat="44.99029" lon="1.83657">
        <ele>157</ele>
        <time>2018-06-25T09:05:00.191Z</time>
      </trkpt>
      <trkpt lat="44.98953" lon="1.83745">
        <ele>160</ele>
        <time>2018-06-25T09:05:01.191Z</time>
      </trkpt>
      <trkpt lat="44.98793" lon="1.83569">
        <ele>149</ele>
        <time>2018-06-25T09:05:02.191Z</time>
      </trkpt>
      <trkpt lat="44.986" lon="1.83866">
        <ele>147</ele>
        <time>2018-06-25T09:05:03.191Z</time>
      </trkpt>
      <trkpt lat="44.98592" lon="1.83882">
        <ele>147</ele>
        <time>2018-06-25T09:05:04.191Z</time>
      </trkpt>
      <trkpt lat="44.98585" lon="1.83891">
        <ele>147</ele>
        <time>2018-06-25T09:05:05.191Z</time>
      </trkpt>
      <trkpt lat="44.98581" lon="1.83909">
        <ele>147</ele>
        <time>2018-06-25T09:05:06.191Z</time>
      </trkpt>
      <trkpt lat="44.98583" lon="1.8397">
        <ele>146</ele>
        <time>2018-06-25T09:05:07.191Z</time>
      </trkpt>
      <trkpt lat="44.98587" lon="1.84019">
        <ele>146</ele>
        <time>2018-06-25T09:05:08.191Z</time>
      </trkpt>
      <trkpt lat="44.98585" lon="1.84099">
        <ele>146</ele>
        <time>2018-06-25T09:05:09.191Z</time>
      </trkpt>
      <trkpt lat="44.98582" lon="1.84117">
        <ele>146</ele>
        <time>2018-06-25T09:05:10.191Z</time>
      </trkpt>
      <trkpt lat="44.98575" lon="1.84133">
        <ele>146</ele>
        <time>2018-06-25T09:05:11.191Z</time>
      </trkpt>
      <trkpt lat="44.98564" lon="1.84137">
        <ele>146</ele>
        <time>2018-06-25T09:05:12.191Z</time>
      </trkpt>
      <trkpt lat="44.98531" lon="1.84141">
        <ele>145</ele>
        <time>2018-06-25T09:05:13.191Z</time>
      </trkpt>
      <trkpt lat="44.98493" lon="1.84157">
        <ele>144</ele>
        <time>2018-06-25T09:05:14.191Z</time>
      </trkpt>
      <trkpt lat="44.98452" lon="1.84189">
        <ele>143</ele>
        <time>2018-06-25T09:05:15.191Z</time>
      </trkpt>
      <trkpt lat="44.98428" lon="1.84239">
        <ele>143</ele>
        <time>2018-06-25T09:05:16.191Z</time>
      </trkpt>
      <trkpt lat="44.98416" lon="1.84252">
        <ele>143</ele>
        <time>2018-06-25T09:05:17.191Z</time>
      </trkpt>
      <trkpt lat="44.98409" lon="1.84317">
        <ele>143</ele>
        <time>2018-06-25T09:05:18.191Z</time>
      </trkpt>
      <trkpt lat="44.98386" lon="1.84408">
        <ele>143</ele>
        <time>2018-06-25T09:05:19.191Z</time>
      </trkpt>
      <trkpt lat="44.98365" lon="1.8446">
        <ele>143</ele>
        <time>2018-06-25T09:05:20.191Z</time>
      </trkpt>
      <trkpt lat="44.9834" lon="1.84509">
        <ele>143</ele>
        <time>2018-06-25T09:05:21.191Z</time>
      </trkpt>
      <trkpt lat="44.9833" lon="1.84526">
        <ele>143</ele>
        <time>2018-06-25T09:05:22.191Z</time>
      </trkpt>
      <trkpt lat="44.98306" lon="1.8455">
        <ele>143</ele>
        <time>2018-06-25T09:05:23.191Z</time>
      </trkpt>
      <trkpt lat="44.98297" lon="1.84564">
        <ele>143</ele>
        <time>2018-06-25T09:05:24.191Z</time>
      </trkpt>
      <trkpt lat="44.98284" lon="1.84596">
        <ele>143</ele>
        <time>2018-06-25T09:05:25.191Z</time>
      </trkpt>
      <trkpt lat="44.98265" lon="1.84678">
        <ele>141</ele>
        <time>2018-06-25T09:05:26.191Z</time>
      </trkpt>
      <trkpt lat="44.98255" lon="1.84707">
        <ele>141</ele>
        <time>2018-06-25T09:05:27.191Z</time>
      </trkpt>
      <trkpt lat="44.98225" lon="1.84775">
        <ele>142</ele>
        <time>2018-06-25T09:05:28.191Z</time>
      </trkpt>
      <trkpt lat="44.98208" lon="1.84824">
        <ele>143</ele>
        <time>2018-06-25T09:05:29.191Z</time>
      </trkpt>
      <trkpt lat="44.98187" lon="1.84905">
        <ele>148</ele>
        <time>2018-06-25T09:05:30.191Z</time>
      </trkpt>
      <trkpt lat="44.98185" lon="1.84918">
        <ele>148</ele>
        <time>2018-06-25T09:05:31.191Z</time>
      </trkpt>
      <trkpt lat="44.98053" lon="1.84848">
        <ele>147</ele>
        <time>2018-06-25T09:05:32.191Z</time>
      </trkpt>
      <trkpt lat="44.97966" lon="1.84788">
        <ele>150</ele>
        <time>2018-06-25T09:05:33.191Z</time>
      </trkpt>
      <trkpt lat="44.97943" lon="1.84752">
        <ele>153</ele>
        <time>2018-06-25T09:05:34.191Z</time>
      </trkpt>
      <trkpt lat="44.97918" lon="1.84703">
        <ele>156</ele>
        <time>2018-06-25T09:05:35.191Z</time>
      </trkpt>
      <trkpt lat="44.97917" lon="1.8465">
        <ele>155</ele>
        <time>2018-06-25T09:05:36.191Z</time>
      </trkpt>
      <trkpt lat="44.97909" lon="1.84632">
        <ele>158</ele>
        <time>2018-06-25T09:05:37.191Z</time>
      </trkpt>
      <trkpt lat="44.97897" lon="1.84621">
        <ele>163</ele>
        <time>2018-06-25T09:05:38.191Z</time>
      </trkpt>
      <trkpt lat="44.97891" lon="1.84529">
        <ele>159</ele>
        <time>2018-06-25T09:05:39.191Z</time>
      </trkpt>
      <trkpt lat="44.97877" lon="1.84484">
        <ele>157</ele>
        <time>2018-06-25T09:05:40.191Z</time>
      </trkpt>
      <trkpt lat="44.97853" lon="1.84455">
        <ele>156</ele>
        <time>2018-06-25T09:05:41.191Z</time>
      </trkpt>
      <trkpt lat="44.97824" lon="1.84437">
        <ele>153</ele>
        <time>2018-06-25T09:05:42.191Z</time>
      </trkpt>
      <trkpt lat="44.97787" lon="1.84436">
        <ele>152</ele>
        <time>2018-06-25T09:05:43.191Z</time>
      </trkpt>
      <trkpt lat="44.97745" lon="1.84442">
        <ele>151</ele>
        <time>2018-06-25T09:05:44.191Z</time>
      </trkpt>
      <trkpt lat="44.97723" lon="1.8444">
        <ele>149</ele>
        <time>2018-06-25T09:05:45.191Z</time>
      </trkpt>
      <trkpt lat="44.97757" lon="1.84062">
        <ele>147</ele>
        <time>2018-06-25T09:05:46.191Z</time>
      </trkpt>
      <trkpt lat="44.97763" lon="1.8406">
        <ele>147</ele>
        <time>2018-06-25T09:05:47.191Z</time>
      </trkpt>
      <trkpt lat="44.97778" lon="1.84064">
        <ele>147</ele>
        <time>2018-06-25T09:05:48.191Z</time>
      </trkpt>
      <trkpt lat="44.97783" lon="1.84053">
        <ele>147</ele>
        <time>2018-06-25T09:05:49.191Z</time>
      </trkpt>
      <trkpt lat="44.97807" lon="1.84011">
        <ele>148</ele>
        <time>2018-06-25T09:05:50.191Z</time>
      </trkpt>
      <trkpt lat="44.97809" lon="1.83996">
        <ele>149</ele>
        <time>2018-06-25T09:05:51.191Z</time>
      </trkpt>
      <trkpt lat="44.97803" lon="1.83975">
        <ele>149</ele>
        <time>2018-06-25T09:05:52.191Z</time>
      </trkpt>
      <trkpt lat="44.97817" lon="1.83961">
        <ele>149</ele>
        <time>2018-06-25T09:05:53.191Z</time>
      </trkpt>
      <trkpt lat="44.97839" lon="1.83946">
        <ele>150</ele>
        <time>2018-06-25T09:05:54.191Z</time>
      </trkpt>
      <trkpt lat="44.97878" lon="1.83908">
        <ele>151</ele>
        <time>2018-06-25T09:05:55.191Z</time>
      </trkpt>
      <trkpt lat="44.97856" lon="1.83861">
        <ele>151</ele>
        <time>2018-06-25T09:05:56.191Z</time>
      </trkpt>
      <trkpt lat="44.97849" lon="1.83828">
        <ele>152</ele>
        <time>2018-06-25T09:05:57.191Z</time>
      </trkpt>
      <trkpt lat="44.97845" lon="1.8382">
        <ele>152</ele>
        <time>2018-06-25T09:05:58.191Z</time>
      </trkpt>
      <trkpt lat="44.97842" lon="1.83817">
        <ele>152</ele>
        <time>2018-06-25T09:05:59.191Z</time>
      </trkpt>
      <trkpt lat="44.97893" lon="1.83711">
        <ele>154</ele>
        <time>2018-06-25T09:06:00.191Z</time>
      </trkpt>
      <trkpt lat="44.97894" lon="1.83712">
        <ele>154</ele>
        <time>2018-06-25T09:06:01.191Z</time>
      </trkpt>
      <trkpt lat="44.97896" lon="1.83707">
        <ele>154</ele>
        <time>2018-06-25T09:06:02.191Z</time>
      </trkpt>
      <trkpt lat="44.97908" lon="1.83698">
        <ele>154</ele>
        <time>2018-06-25T09:06:03.191Z</time>
      </trkpt>
      <trkpt lat="44.97925" lon="1.83694">
        <ele>154</ele>
        <time>2018-06-25T09:06:04.191Z</time>
      </trkpt>
      <trkpt lat="44.97915" lon="1.8368">
        <ele>154</ele>
        <time>2018-06-25T09:06:05.191Z</time>
      </trkpt>
      <trkpt lat="44.97891" lon="1.83626">
        <ele>156</ele>
        <time>2018-06-25T09:06:06.191Z</time>
      </trkpt>
      <trkpt lat="44.97845" lon="1.83536">
        <ele>158</ele>
        <time>2018-06-25T09:06:07.191Z</time>
      </trkpt>
      <trkpt lat="44.9783" lon="1.83545">
        <ele>156</ele>
        <time>2018-06-25T09:06:08.191Z</time>
      </trkpt>
      <trkpt lat="44.97825" lon="1.83528">
        <ele>158</ele>
        <time>2018-06-25T09:06:09.191Z</time>
      </trkpt>
      <trkpt lat="44.97825" lon="1.83511">
        <ele>159</ele>
        <time>2018-06-25T09:06:10.191Z</time>
      </trkpt>
      <trkpt lat="44.97831" lon="1.83424">
        <ele>161</ele>
        <time>2018-06-25T09:06:11.191Z</time>
      </trkpt>
      <trkpt lat="44.97848" lon="1.83344">
        <ele>164</ele>
        <time>2018-06-25T09:06:12.191Z</time>
      </trkpt>
      <trkpt lat="44.97873" lon="1.83254">
        <ele>171</ele>
        <time>2018-06-25T09:06:13.191Z</time>
      </trkpt>
      <trkpt lat="44.97879" lon="1.83236">
        <ele>173</ele>
        <time>2018-06-25T09:06:14.191Z</time>
      </trkpt>
      <trkpt lat="44.97886" lon="1.83223">
        <ele>174</ele>
        <time>2018-06-25T09:06:15.191Z</time>
      </trkpt>
      <trkpt lat="44.97955" lon="1.83144">
        <ele>185</ele>
        <time>2018-06-25T09:06:16.191Z</time>
      </trkpt>
      <trkpt lat="44.97974" lon="1.83119">
        <ele>188</ele>
        <time>2018-06-25T09:06:17.191Z</time>
      </trkpt>
      <trkpt lat="44.97983" lon="1.83102">
        <ele>188</ele>
        <time>2018-06-25T09:06:18.191Z</time>
      </trkpt>
      <trkpt lat="44.98011" lon="1.83038">
        <ele>191</ele>
        <time>2018-06-25T09:06:19.191Z</time>
      </trkpt>
      <trkpt lat="44.98042" lon="1.82992">
        <ele>197</ele>
        <time>2018-06-25T09:06:20.191Z</time>
      </trkpt>
      <trkpt lat="44.98064" lon="1.82969">
        <ele>202</ele>
        <time>2018-06-25T09:06:21.191Z</time>
      </trkpt>
      <trkpt lat="44.98071" lon="1.82957">
        <ele>204</ele>
        <time>2018-06-25T09:06:22.191Z</time>
      </trkpt>
      <trkpt lat="44.98075" lon="1.82944">
        <ele>204</ele>
        <time>2018-06-25T09:06:23.191Z</time>
      </trkpt>
      <trkpt lat="44.98076" lon="1.82932">
        <ele>204</ele>
        <time>2018-06-25T09:06:24.191Z</time>
      </trkpt>
      <trkpt lat="44.98071" lon="1.82924">
        <ele>204</ele>
        <time>2018-06-25T09:06:25.191Z</time>
      </trkpt>
      <trkpt lat="44.98065" lon="1.82919">
        <ele>203</ele>
        <time>2018-06-25T09:06:26.191Z</time>
      </trkpt>
      <trkpt lat="44.98043" lon="1.82915">
        <ele>201</ele>
        <time>2018-06-25T09:06:27.191Z</time>
      </trkpt>
      <trkpt lat="44.98" lon="1.82878">
        <ele>207</ele>
        <time>2018-06-25T09:06:28.191Z</time>
      </trkpt>
      <trkpt lat="44.97992" lon="1.82875">
        <ele>210</ele>
        <time>2018-06-25T09:06:29.191Z</time>
      </trkpt>
      <trkpt lat="44.97985" lon="1.82877">
        <ele>211</ele>
        <time>2018-06-25T09:06:30.191Z</time>
      </trkpt>
      <trkpt lat="44.97977" lon="1.82881">
        <ele>212</ele>
        <time>2018-06-25T09:06:31.191Z</time>
      </trkpt>
      <trkpt lat="44.97957" lon="1.82909">
        <ele>210</ele>
        <time>2018-06-25T09:06:32.191Z</time>
      </trkpt>
      <trkpt lat="44.97934" lon="1.82935">
        <ele>211</ele>
        <time>2018-06-25T09:06:33.191Z</time>
      </trkpt>
      <trkpt lat="44.97927" lon="1.82939">
        <ele>212</ele>
        <time>2018-06-25T09:06:34.191Z</time>
      </trkpt>
      <trkpt lat="44.97918" lon="1.82941">
        <ele>213</ele>
        <time>2018-06-25T09:06:35.191Z</time>
      </trkpt>
      <trkpt lat="44.97894" lon="1.82943">
        <ele>218</ele>
        <time>2018-06-25T09:06:36.191Z</time>
      </trkpt>
      <trkpt lat="44.97867" lon="1.82954">
        <ele>222</ele>
        <time>2018-06-25T09:06:37.191Z</time>
      </trkpt>
      <trkpt lat="44.97853" lon="1.82969">
        <ele>221</ele>
        <time>2018-06-25T09:06:38.191Z</time>
      </trkpt>
      <trkpt lat="44.97822" lon="1.8301">
        <ele>213</ele>
        <time>2018-06-25T09:06:39.191Z</time>
      </trkpt>
      <trkpt lat="44.97814" lon="1.83011">
        <ele>212</ele>
        <time>2018-06-25T09:06:40.191Z</time>
      </trkpt>
      <trkpt lat="44.97805" lon="1.83009">
        <ele>212</ele>
        <time>2018-06-25T09:06:41.191Z</time>
      </trkpt>
      <trkpt lat="44.97792" lon="1.83002">
        <ele>212</ele>
        <time>2018-06-25T09:06:42.191Z</time>
      </trkpt>
      <trkpt lat="44.97779" lon="1.82976">
        <ele>216</ele>
        <time>2018-06-25T09:06:43.191Z</time>
      </trkpt>
      <trkpt lat="44.9776" lon="1.82926">
        <ele>223</ele>
        <time>2018-06-25T09:06:44.191Z</time>
      </trkpt>
      <trkpt lat="44.97753" lon="1.82903">
        <ele>225</ele>
        <time>2018-06-25T09:06:45.191Z</time>
      </trkpt>
      <trkpt lat="44.97753" lon="1.82884">
        <ele>227</ele>
        <time>2018-06-25T09:06:46.191Z</time>
      </trkpt>
      <trkpt lat="44.97765" lon="1.82823">
        <ele>235</ele>
        <time>2018-06-25T09:06:47.191Z</time>
      </trkpt>
      <trkpt lat="44.97767" lon="1.82799">
        <ele>236</ele>
        <time>2018-06-25T09:06:48.191Z</time>
      </trkpt>
      <trkpt lat="44.97765" lon="1.82775">
        <ele>236</ele>
        <time>2018-06-25T09:06:49.191Z</time>
      </trkpt>
      <trkpt lat="44.97761" lon="1.82755">
        <ele>236</ele>
        <time>2018-06-25T09:06:50.191Z</time>
      </trkpt>
      <trkpt lat="44.9776" lon="1.82737">
        <ele>235</ele>
        <time>2018-06-25T09:06:51.191Z</time>
      </trkpt>
      <trkpt lat="44.97763" lon="1.82721">
        <ele>234</ele>
        <time>2018-06-25T09:06:52.191Z</time>
      </trkpt>
      <trkpt lat="44.9777" lon="1.82709">
        <ele>235</ele>
        <time>2018-06-25T09:06:53.191Z</time>
      </trkpt>
      <trkpt lat="44.97779" lon="1.82705">
        <ele>237</ele>
        <time>2018-06-25T09:06:54.191Z</time>
      </trkpt>
      <trkpt lat="44.97817" lon="1.82708">
        <ele>245</ele>
        <time>2018-06-25T09:06:55.191Z</time>
      </trkpt>
      <trkpt lat="44.9783" lon="1.82706">
        <ele>248</ele>
        <time>2018-06-25T09:06:56.191Z</time>
      </trkpt>
      <trkpt lat="44.97846" lon="1.82695">
        <ele>249</ele>
        <time>2018-06-25T09:06:57.191Z</time>
      </trkpt>
      <trkpt lat="44.97859" lon="1.82676">
        <ele>250</ele>
        <time>2018-06-25T09:06:58.191Z</time>
      </trkpt>
      <trkpt lat="44.97869" lon="1.82653">
        <ele>252</ele>
        <time>2018-06-25T09:06:59.191Z</time>
      </trkpt>
      <trkpt lat="44.97871" lon="1.82635">
        <ele>254</ele>
        <time>2018-06-25T09:07:00.191Z</time>
      </trkpt>
      <trkpt lat="44.97871" lon="1.82622">
        <ele>255</ele>
        <time>2018-06-25T09:07:01.191Z</time>
      </trkpt>
      <trkpt lat="44.97868" lon="1.82611">
        <ele>255</ele>
        <time>2018-06-25T09:07:02.191Z</time>
      </trkpt>
      <trkpt lat="44.97858" lon="1.82586">
        <ele>254</ele>
        <time>2018-06-25T09:07:03.191Z</time>
      </trkpt>
      <trkpt lat="44.97855" lon="1.82573">
        <ele>254</ele>
        <time>2018-06-25T09:07:04.191Z</time>
      </trkpt>
      <trkpt lat="44.97856" lon="1.82558">
        <ele>253</ele>
        <time>2018-06-25T09:07:05.191Z</time>
      </trkpt>
      <trkpt lat="44.97861" lon="1.8254">
        <ele>254</ele>
        <time>2018-06-25T09:07:06.191Z</time>
      </trkpt>
      <trkpt lat="44.97872" lon="1.82524">
        <ele>256</ele>
        <time>2018-06-25T09:07:07.191Z</time>
      </trkpt>
      <trkpt lat="44.97969" lon="1.82466">
        <ele>276</ele>
        <time>2018-06-25T09:07:08.191Z</time>
      </trkpt>
      <trkpt lat="44.97977" lon="1.82457">
        <ele>278</ele>
        <time>2018-06-25T09:07:09.191Z</time>
      </trkpt>
      <trkpt lat="44.97982" lon="1.82445">
        <ele>279</ele>
        <time>2018-06-25T09:07:10.191Z</time>
      </trkpt>
      <trkpt lat="44.97984" lon="1.82435">
        <ele>279</ele>
        <time>2018-06-25T09:07:11.191Z</time>
      </trkpt>
      <trkpt lat="44.97984" lon="1.82423">
        <ele>279</ele>
        <time>2018-06-25T09:07:12.191Z</time>
      </trkpt>
      <trkpt lat="44.9798" lon="1.82411">
        <ele>279</ele>
        <time>2018-06-25T09:07:13.191Z</time>
      </trkpt>
      <trkpt lat="44.97937" lon="1.82341">
        <ele>280</ele>
        <time>2018-06-25T09:07:14.191Z</time>
      </trkpt>
      <trkpt lat="44.97915" lon="1.82283">
        <ele>283</ele>
        <time>2018-06-25T09:07:15.191Z</time>
      </trkpt>
      <trkpt lat="44.97908" lon="1.8226">
        <ele>286</ele>
        <time>2018-06-25T09:07:16.191Z</time>
      </trkpt>
      <trkpt lat="44.97907" lon="1.82237">
        <ele>288</ele>
        <time>2018-06-25T09:07:17.191Z</time>
      </trkpt>
      <trkpt lat="44.97908" lon="1.82211">
        <ele>289</ele>
        <time>2018-06-25T09:07:18.191Z</time>
      </trkpt>
      <trkpt lat="44.97912" lon="1.8218">
        <ele>291</ele>
        <time>2018-06-25T09:07:19.191Z</time>
      </trkpt>
      <trkpt lat="44.97919" lon="1.82158">
        <ele>293</ele>
        <time>2018-06-25T09:07:20.191Z</time>
      </trkpt>
      <trkpt lat="44.97935" lon="1.82129">
        <ele>296</ele>
        <time>2018-06-25T09:07:21.191Z</time>
      </trkpt>
      <trkpt lat="44.97958" lon="1.82103">
        <ele>300</ele>
        <time>2018-06-25T09:07:22.191Z</time>
      </trkpt>
      <trkpt lat="44.98013" lon="1.82048">
        <ele>307</ele>
        <time>2018-06-25T09:07:23.191Z</time>
      </trkpt>
      <trkpt lat="44.98019" lon="1.82035">
        <ele>309</ele>
        <time>2018-06-25T09:07:24.191Z</time>
      </trkpt>
      <trkpt lat="44.98021" lon="1.82023">
        <ele>309</ele>
        <time>2018-06-25T09:07:25.191Z</time>
      </trkpt>
      <trkpt lat="44.98019" lon="1.82009">
        <ele>308</ele>
        <time>2018-06-25T09:07:26.191Z</time>
      </trkpt>
      <trkpt lat="44.97992" lon="1.81933">
        <ele>315</ele>
        <time>2018-06-25T09:07:27.191Z</time>
      </trkpt>
      <trkpt lat="44.97983" lon="1.81919">
        <ele>317</ele>
        <time>2018-06-25T09:07:28.191Z</time>
      </trkpt>
      <trkpt lat="44.97959" lon="1.81894">
        <ele>321</ele>
        <time>2018-06-25T09:07:29.191Z</time>
      </trkpt>
      <trkpt lat="44.9795" lon="1.81889">
        <ele>322</ele>
        <time>2018-06-25T09:07:30.191Z</time>
      </trkpt>
      <trkpt lat="44.97942" lon="1.8189">
        <ele>322</ele>
        <time>2018-06-25T09:07:31.191Z</time>
      </trkpt>
      <trkpt lat="44.97932" lon="1.81896">
        <ele>321</ele>
        <time>2018-06-25T09:07:32.191Z</time>
      </trkpt>
      <trkpt lat="44.97911" lon="1.81925">
        <ele>318</ele>
        <time>2018-06-25T09:07:33.191Z</time>
      </trkpt>
      <trkpt lat="44.97896" lon="1.81932">
        <ele>316</ele>
        <time>2018-06-25T09:07:34.191Z</time>
      </trkpt>
      <trkpt lat="44.9788" lon="1.81936">
        <ele>316</ele>
        <time>2018-06-25T09:07:35.191Z</time>
      </trkpt>
      <trkpt lat="44.97871" lon="1.81934">
        <ele>316</ele>
        <time>2018-06-25T09:07:36.191Z</time>
      </trkpt>
      <trkpt lat="44.97864" lon="1.81929">
        <ele>316</ele>
        <time>2018-06-25T09:07:37.191Z</time>
      </trkpt>
      <trkpt lat="44.9786" lon="1.81921">
        <ele>317</ele>
        <time>2018-06-25T09:07:38.191Z</time>
      </trkpt>
      <trkpt lat="44.97858" lon="1.81908">
        <ele>319</ele>
        <time>2018-06-25T09:07:39.191Z</time>
      </trkpt>
      <trkpt lat="44.97857" lon="1.8182">
        <ele>330</ele>
        <time>2018-06-25T09:07:40.191Z</time>
      </trkpt>
      <trkpt lat="44.97853" lon="1.81805">
        <ele>332</ele>
        <time>2018-06-25T09:07:41.191Z</time>
      </trkpt>
      <trkpt lat="44.97846" lon="1.81792">
        <ele>333</ele>
        <time>2018-06-25T09:07:42.191Z</time>
      </trkpt>
      <trkpt lat="44.97834" lon="1.81776">
        <ele>335</ele>
        <time>2018-06-25T09:07:43.191Z</time>
      </trkpt>
      <trkpt lat="44.97824" lon="1.81769">
        <ele>336</ele>
        <time>2018-06-25T09:07:44.191Z</time>
      </trkpt>
      <trkpt lat="44.97801" lon="1.81761">
        <ele>336</ele>
        <time>2018-06-25T09:07:45.191Z</time>
      </trkpt>
      <trkpt lat="44.97777" lon="1.8176">
        <ele>336</ele>
        <time>2018-06-25T09:07:46.191Z</time>
      </trkpt>
      <trkpt lat="44.97771" lon="1.81758">
        <ele>336</ele>
        <time>2018-06-25T09:07:47.191Z</time>
      </trkpt>
      <trkpt lat="44.97766" lon="1.81753">
        <ele>336</ele>
        <time>2018-06-25T09:07:48.191Z</time>
      </trkpt>
      <trkpt lat="44.97758" lon="1.81751">
        <ele>336</ele>
        <time>2018-06-25T09:07:49.191Z</time>
      </trkpt>
      <trkpt lat="44.97681" lon="1.81755">
        <ele>333</ele>
        <time>2018-06-25T09:07:50.191Z</time>
      </trkpt>
      <trkpt lat="44.97671" lon="1.81754">
        <ele>333</ele>
        <time>2018-06-25T09:07:51.191Z</time>
      </trkpt>
      <trkpt lat="44.97658" lon="1.8175">
        <ele>332</ele>
        <time>2018-06-25T09:07:52.191Z</time>
      </trkpt>
      <trkpt lat="44.9766" lon="1.8175">
        <ele>332</ele>
        <time>2018-06-25T09:07:53.191Z</time>
      </trkpt>
      <trkpt lat="44.97607" lon="1.81721">
        <ele>327</ele>
        <time>2018-06-25T09:07:54.191Z</time>
      </trkpt>
      <trkpt lat="44.97595" lon="1.81715">
        <ele>325</ele>
        <time>2018-06-25T09:07:55.191Z</time>
      </trkpt>
      <trkpt lat="44.97569" lon="1.81714">
        <ele>323</ele>
        <time>2018-06-25T09:07:56.191Z</time>
      </trkpt>
      <trkpt lat="44.97564" lon="1.81711">
        <ele>323</ele>
        <time>2018-06-25T09:07:57.191Z</time>
      </trkpt>
      <trkpt lat="44.97559" lon="1.81704">
        <ele>322</ele>
        <time>2018-06-25T09:07:58.191Z</time>
      </trkpt>
      <trkpt lat="44.97535" lon="1.81652">
        <ele>321</ele>
        <time>2018-06-25T09:07:59.191Z</time>
      </trkpt>
      <trkpt lat="44.97531" lon="1.81636">
        <ele>321</ele>
        <time>2018-06-25T09:08:00.191Z</time>
      </trkpt>
      <trkpt lat="44.9753" lon="1.81623">
        <ele>322</ele>
        <time>2018-06-25T09:08:01.191Z</time>
      </trkpt>
      <trkpt lat="44.97539" lon="1.81528">
        <ele>322</ele>
        <time>2018-06-25T09:08:02.191Z</time>
      </trkpt>
      <trkpt lat="44.97541" lon="1.81501">
        <ele>322</ele>
        <time>2018-06-25T09:08:03.191Z</time>
      </trkpt>
      <trkpt lat="44.97537" lon="1.81479">
        <ele>322</ele>
        <time>2018-06-25T09:08:04.191Z</time>
      </trkpt>
      <trkpt lat="44.97513" lon="1.81412">
        <ele>325</ele>
        <time>2018-06-25T09:08:05.191Z</time>
      </trkpt>
      <trkpt lat="44.97501" lon="1.81389">
        <ele>326</ele>
        <time>2018-06-25T09:08:06.191Z</time>
      </trkpt>
      <trkpt lat="44.97486" lon="1.81368">
        <ele>326</ele>
        <time>2018-06-25T09:08:07.191Z</time>
      </trkpt>
      <trkpt lat="44.97428" lon="1.813">
        <ele>327</ele>
        <time>2018-06-25T09:08:08.191Z</time>
      </trkpt>
      <trkpt lat="44.97271" lon="1.81104">
        <ele>317</ele>
        <time>2018-06-25T09:08:09.191Z</time>
      </trkpt>
      <trkpt lat="44.97237" lon="1.81065">
        <ele>313</ele>
        <time>2018-06-25T09:08:10.191Z</time>
      </trkpt>
      <trkpt lat="44.97177" lon="1.81012">
        <ele>311</ele>
        <time>2018-06-25T09:08:11.191Z</time>
      </trkpt>
      <trkpt lat="44.9717" lon="1.81009">
        <ele>311</ele>
        <time>2018-06-25T09:08:12.191Z</time>
      </trkpt>
      <trkpt lat="44.97162" lon="1.81011">
        <ele>311</ele>
        <time>2018-06-25T09:08:13.191Z</time>
      </trkpt>
      <trkpt lat="44.9716" lon="1.81002">
        <ele>311</ele>
        <time>2018-06-25T09:08:14.191Z</time>
      </trkpt>
      <trkpt lat="44.97097" lon="1.80937">
        <ele>310</ele>
        <time>2018-06-25T09:08:15.191Z</time>
      </trkpt>
      <trkpt lat="44.97086" lon="1.80918">
        <ele>310</ele>
        <time>2018-06-25T09:08:16.191Z</time>
      </trkpt>
      <trkpt lat="44.97101" lon="1.80847">
        <ele>305</ele>
        <time>2018-06-25T09:08:17.191Z</time>
      </trkpt>
      <trkpt lat="44.97098" lon="1.80788">
        <ele>304</ele>
        <time>2018-06-25T09:08:18.191Z</time>
      </trkpt>
      <trkpt lat="44.97195" lon="1.8054">
        <ele>294</ele>
        <time>2018-06-25T09:08:19.191Z</time>
      </trkpt>
      <trkpt lat="44.972" lon="1.80434">
        <ele>293</ele>
        <time>2018-06-25T09:08:20.191Z</time>
      </trkpt>
      <trkpt lat="44.97187" lon="1.80373">
        <ele>292</ele>
        <time>2018-06-25T09:08:21.191Z</time>
      </trkpt>
      <trkpt lat="44.97182" lon="1.80285">
        <ele>284</ele>
        <time>2018-06-25T09:08:22.191Z</time>
      </trkpt>
      <trkpt lat="44.97152" lon="1.80171">
        <ele>275</ele>
        <time>2018-06-25T09:08:23.191Z</time>
      </trkpt>
      <trkpt lat="44.97159" lon="1.80119">
        <ele>274</ele>
        <time>2018-06-25T09:08:24.191Z</time>
      </trkpt>
      <trkpt lat="44.97183" lon="1.80075">
        <ele>272</ele>
        <time>2018-06-25T09:08:25.191Z</time>
      </trkpt>
      <trkpt lat="44.9721" lon="1.80055">
        <ele>270</ele>
        <time>2018-06-25T09:08:26.191Z</time>
      </trkpt>
      <trkpt lat="44.97322" lon="1.80057">
        <ele>260</ele>
        <time>2018-06-25T09:08:27.191Z</time>
      </trkpt>
      <trkpt lat="44.97374" lon="1.80078">
        <ele>257</ele>
        <time>2018-06-25T09:08:28.191Z</time>
      </trkpt>
      <trkpt lat="44.97434" lon="1.8006">
        <ele>253</ele>
        <time>2018-06-25T09:08:29.191Z</time>
      </trkpt>
      <trkpt lat="44.97459" lon="1.80037">
        <ele>249</ele>
        <time>2018-06-25T09:08:30.191Z</time>
      </trkpt>
      <trkpt lat="44.97474" lon="1.80005">
        <ele>246</ele>
        <time>2018-06-25T09:08:31.191Z</time>
      </trkpt>
      <trkpt lat="44.97472" lon="1.79987">
        <ele>245</ele>
        <time>2018-06-25T09:08:32.191Z</time>
      </trkpt>
      <trkpt lat="44.97426" lon="1.79905">
        <ele>239</ele>
        <time>2018-06-25T09:08:33.191Z</time>
      </trkpt>
      <trkpt lat="44.97354" lon="1.79867">
        <ele>240</ele>
        <time>2018-06-25T09:08:34.191Z</time>
      </trkpt>
      <trkpt lat="44.9735" lon="1.79857">
        <ele>239</ele>
        <time>2018-06-25T09:08:35.191Z</time>
      </trkpt>
      <trkpt lat="44.97358" lon="1.79779">
        <ele>231</ele>
        <time>2018-06-25T09:08:36.191Z</time>
      </trkpt>
      <trkpt lat="44.97354" lon="1.79759">
        <ele>229</ele>
        <time>2018-06-25T09:08:37.191Z</time>
      </trkpt>
      <trkpt lat="44.97333" lon="1.79736">
        <ele>229</ele>
        <time>2018-06-25T09:08:38.191Z</time>
      </trkpt>
      <trkpt lat="44.97309" lon="1.79711">
        <ele>229</ele>
        <time>2018-06-25T09:08:39.191Z</time>
      </trkpt>
      <trkpt lat="44.97291" lon="1.79667">
        <ele>225</ele>
        <time>2018-06-25T09:08:40.191Z</time>
      </trkpt>
      <trkpt lat="44.97262" lon="1.79624">
        <ele>222</ele>
        <time>2018-06-25T09:08:41.191Z</time>
      </trkpt>
      <trkpt lat="44.97264" lon="1.79544">
        <ele>215</ele>
        <time>2018-06-25T09:08:42.191Z</time>
      </trkpt>
      <trkpt lat="44.97255" lon="1.79491">
        <ele>210</ele>
        <time>2018-06-25T09:08:43.191Z</time>
      </trkpt>
      <trkpt lat="44.97254" lon="1.79491">
        <ele>210</ele>
        <time>2018-06-25T09:08:44.191Z</time>
      </trkpt>
      <trkpt lat="44.97239" lon="1.79403">
        <ele>206</ele>
        <time>2018-06-25T09:08:45.191Z</time>
      </trkpt>
      <trkpt lat="44.97237" lon="1.79305">
        <ele>201</ele>
        <time>2018-06-25T09:08:46.191Z</time>
      </trkpt>
      <trkpt lat="44.97221" lon="1.79237">
        <ele>202</ele>
        <time>2018-06-25T09:08:47.191Z</time>
      </trkpt>
      <trkpt lat="44.97215" lon="1.7923">
        <ele>204</ele>
        <time>2018-06-25T09:08:48.191Z</time>
      </trkpt>
      <trkpt lat="44.97144" lon="1.79205">
        <ele>212</ele>
        <time>2018-06-25T09:08:49.191Z</time>
      </trkpt>
      <trkpt lat="44.97036" lon="1.79246">
        <ele>200</ele>
        <time>2018-06-25T09:08:50.191Z</time>
      </trkpt>
      <trkpt lat="44.96856" lon="1.79169">
        <ele>193</ele>
        <time>2018-06-25T09:08:51.191Z</time>
      </trkpt>
      <trkpt lat="44.96787" lon="1.79202">
        <ele>198</ele>
        <time>2018-06-25T09:08:52.191Z</time>
      </trkpt>
      <trkpt lat="44.96697" lon="1.79209">
        <ele>197</ele>
        <time>2018-06-25T09:08:53.191Z</time>
      </trkpt>
      <trkpt lat="44.96569" lon="1.79259">
        <ele>199</ele>
        <time>2018-06-25T09:08:54.191Z</time>
      </trkpt>
      <trkpt lat="44.96547" lon="1.79239">
        <ele>195</ele>
        <time>2018-06-25T09:08:55.191Z</time>
      </trkpt>
      <trkpt lat="44.96121" lon="1.79256">
        <ele>184</ele>
        <time>2018-06-25T09:08:56.191Z</time>
      </trkpt>
      <trkpt lat="44.95986" lon="1.79306">
        <ele>189</ele>
        <time>2018-06-25T09:08:57.191Z</time>
      </trkpt>
      <trkpt lat="44.95905" lon="1.79256">
        <ele>184</ele>
        <time>2018-06-25T09:08:58.191Z</time>
      </trkpt>
      <trkpt lat="44.95779" lon="1.79222">
        <ele>185</ele>
        <time>2018-06-25T09:08:59.191Z</time>
      </trkpt>
      <trkpt lat="44.95765" lon="1.79166">
        <ele>179</ele>
        <time>2018-06-25T09:09:00.191Z</time>
      </trkpt>
      <trkpt lat="44.95633" lon="1.79115">
        <ele>184</ele>
        <time>2018-06-25T09:09:01.191Z</time>
      </trkpt>
      <trkpt lat="44.95535" lon="1.79152">
        <ele>186</ele>
        <time>2018-06-25T09:09:02.191Z</time>
      </trkpt>
      <trkpt lat="44.95408" lon="1.79085">
        <ele>183</ele>
        <time>2018-06-25T09:09:03.191Z</time>
      </trkpt>
      <trkpt lat="44.9534" lon="1.79192">
        <ele>192</ele>
        <time>2018-06-25T09:09:04.191Z</time>
      </trkpt>
      <trkpt lat="44.95157" lon="1.79333">
        <ele>226</ele>
        <time>2018-06-25T09:09:05.191Z</time>
      </trkpt>
      <trkpt lat="44.95052" lon="1.79269">
        <ele>229</ele>
        <time>2018-06-25T09:09:06.191Z</time>
      </trkpt>
      <trkpt lat="44.95009" lon="1.79275">
        <ele>233</ele>
        <time>2018-06-25T09:09:07.191Z</time>
      </trkpt>
      <trkpt lat="44.94948" lon="1.7938">
        <ele>243</ele>
        <time>2018-06-25T09:09:08.191Z</time>
      </trkpt>
      <trkpt lat="44.94855" lon="1.79286">
        <ele>238</ele>
        <time>2018-06-25T09:09:09.191Z</time>
      </trkpt>
      <trkpt lat="44.94641" lon="1.79245">
        <ele>222</ele>
        <time>2018-06-25T09:09:10.191Z</time>
      </trkpt>
      <trkpt lat="44.94587" lon="1.79144">
        <ele>225</ele>
        <time>2018-06-25T09:09:11.191Z</time>
      </trkpt>
      <trkpt lat="44.94574" lon="1.79047">
        <ele>232</ele>
        <time>2018-06-25T09:09:12.191Z</time>
      </trkpt>
      <trkpt lat="44.94583" lon="1.78697">
        <ele>235</ele>
        <time>2018-06-25T09:09:13.191Z</time>
      </trkpt>
      <trkpt lat="44.94572" lon="1.78598">
        <ele>234</ele>
        <time>2018-06-25T09:09:14.191Z</time>
      </trkpt>
      <trkpt lat="44.94645" lon="1.78294">
        <ele>234</ele>
        <time>2018-06-25T09:09:15.191Z</time>
      </trkpt>
      <trkpt lat="44.9466" lon="1.78112">
        <ele>232</ele>
        <time>2018-06-25T09:09:16.191Z</time>
      </trkpt>
      <trkpt lat="44.9459" lon="1.78026">
        <ele>234</ele>
        <time>2018-06-25T09:09:17.191Z</time>
      </trkpt>
      <trkpt lat="44.94533" lon="1.77857">
        <ele>228</ele>
        <time>2018-06-25T09:09:18.191Z</time>
      </trkpt>
      <trkpt lat="44.94494" lon="1.77808">
        <ele>222</ele>
        <time>2018-06-25T09:09:19.191Z</time>
      </trkpt>
      <trkpt lat="44.94448" lon="1.77693">
        <ele>213</ele>
        <time>2018-06-25T09:09:20.191Z</time>
      </trkpt>
      <trkpt lat="44.94377" lon="1.7758">
        <ele>202</ele>
        <time>2018-06-25T09:09:21.191Z</time>
      </trkpt>
      <trkpt lat="44.94392" lon="1.77479">
        <ele>200</ele>
        <time>2018-06-25T09:09:22.191Z</time>
      </trkpt>
      <trkpt lat="44.94368" lon="1.77419">
        <ele>193</ele>
        <time>2018-06-25T09:09:23.191Z</time>
      </trkpt>
      <trkpt lat="44.94399" lon="1.77362">
        <ele>196</ele>
        <time>2018-06-25T09:09:24.191Z</time>
      </trkpt>
      <trkpt lat="44.94332" lon="1.77305">
        <ele>188</ele>
        <time>2018-06-25T09:09:25.191Z</time>
      </trkpt>
      <trkpt lat="44.94287" lon="1.77198">
        <ele>188</ele>
        <time>2018-06-25T09:09:26.191Z</time>
      </trkpt>
      <trkpt lat="44.94183" lon="1.77117">
        <ele>177</ele>
        <time>2018-06-25T09:09:27.191Z</time>
      </trkpt>
      <trkpt lat="44.94083" lon="1.76933">
        <ele>165</ele>
        <time>2018-06-25T09:09:28.191Z</time>
      </trkpt>
      <trkpt lat="44.93966" lon="1.76825">
        <ele>165</ele>
        <time>2018-06-25T09:09:29.191Z</time>
      </trkpt>
      <trkpt lat="44.93816" lon="1.76746">
        <ele>165</ele>
        <time>2018-06-25T09:09:30.191Z</time>
      </trkpt>
      <trkpt lat="44.93744" lon="1.7659">
        <ele>167</ele>
        <time>2018-06-25T09:09:31.191Z</time>
      </trkpt>
      <trkpt lat="44.93623" lon="1.76126">
        <ele>156</ele>
        <time>2018-06-25T09:09:32.191Z</time>
      </trkpt>
      <trkpt lat="44.93568" lon="1.75988">
        <ele>154</ele>
        <time>2018-06-25T09:09:33.191Z</time>
      </trkpt>
      <trkpt lat="44.93486" lon="1.75893">
        <ele>148</ele>
        <time>2018-06-25T09:09:34.191Z</time>
      </trkpt>
      <trkpt lat="44.93464" lon="1.75779">
        <ele>145</ele>
        <time>2018-06-25T09:09:35.191Z</time>
      </trkpt>
      <trkpt lat="44.93395" lon="1.7569">
        <ele>139</ele>
        <time>2018-06-25T09:09:36.191Z</time>
      </trkpt>
      <trkpt lat="44.93326" lon="1.75656">
        <ele>136</ele>
        <time>2018-06-25T09:09:37.191Z</time>
      </trkpt>
      <trkpt lat="44.93296" lon="1.75542">
        <ele>138</ele>
        <time>2018-06-25T09:09:38.191Z</time>
      </trkpt>
      <trkpt lat="44.93237" lon="1.75455">
        <ele>141</ele>
        <time>2018-06-25T09:09:39.191Z</time>
      </trkpt>
      <trkpt lat="44.93186" lon="1.7524">
        <ele>141</ele>
        <time>2018-06-25T09:09:40.191Z</time>
      </trkpt>
      <trkpt lat="44.9313" lon="1.75133">
        <ele>131</ele>
        <time>2018-06-25T09:09:41.191Z</time>
      </trkpt>
      <trkpt lat="44.93011" lon="1.74972">
        <ele>124</ele>
        <time>2018-06-25T09:09:42.191Z</time>
      </trkpt>
      <trkpt lat="44.92826" lon="1.74536">
        <ele>122</ele>
        <time>2018-06-25T09:09:43.191Z</time>
      </trkpt>
      <trkpt lat="44.9265" lon="1.74396">
        <ele>124</ele>
        <time>2018-06-25T09:09:44.191Z</time>
      </trkpt>
      <trkpt lat="44.92569" lon="1.74168">
        <ele>123</ele>
        <time>2018-06-25T09:09:45.191Z</time>
      </trkpt>
      <trkpt lat="44.91603" lon="1.74564">
        <ele>124</ele>
        <time>2018-06-25T09:09:46.191Z</time>
      </trkpt>
      <trkpt lat="44.91548" lon="1.74512">
        <ele>123</ele>
        <time>2018-06-25T09:09:47.191Z</time>
      </trkpt>
      <trkpt lat="44.91381" lon="1.73899">
        <ele>122</ele>
        <time>2018-06-25T09:09:48.191Z</time>
      </trkpt>
      <trkpt lat="44.91336" lon="1.73833">
        <ele>125</ele>
        <time>2018-06-25T09:09:49.191Z</time>
      </trkpt>
      <trkpt lat="44.91471" lon="1.73776">
        <ele>134</ele>
        <time>2018-06-25T09:09:50.191Z</time>
      </trkpt>
      <trkpt lat="44.91619" lon="1.73672">
        <ele>135</ele>
        <time>2018-06-25T09:09:51.191Z</time>
      </trkpt>
      <trkpt lat="44.91704" lon="1.73554">
        <ele>135</ele>
        <time>2018-06-25T09:09:52.191Z</time>
      </trkpt>
      <trkpt lat="44.91715" lon="1.73454">
        <ele>139</ele>
        <time>2018-06-25T09:09:53.191Z</time>
      </trkpt>
      <trkpt lat="44.9178" lon="1.73363">
        <ele>135</ele>
        <time>2018-06-25T09:09:54.191Z</time>
      </trkpt>
      <trkpt lat="44.91832" lon="1.73337">
        <ele>136</ele>
        <time>2018-06-25T09:09:55.191Z</time>
      </trkpt>
      <trkpt lat="44.91899" lon="1.73243">
        <ele>135</ele>
        <time>2018-06-25T09:09:56.191Z</time>
      </trkpt>
      <trkpt lat="44.91895" lon="1.73198">
        <ele>135</ele>
        <time>2018-06-25T09:09:57.191Z</time>
      </trkpt>
      <trkpt lat="44.91892" lon="1.73205">
        <ele>135</ele>
        <time>2018-06-25T09:09:58.191Z</time>
      </trkpt>
      <trkpt lat="44.91908" lon="1.73205">
        <ele>134</ele>
        <time>2018-06-25T09:09:59.191Z</time>
      </trkpt>
      <trkpt lat="44.91906" lon="1.73186">
        <ele>134</ele>
        <time>2018-06-25T09:10:00.191Z</time>
      </trkpt>
      <trkpt lat="44.91932" lon="1.73122">
        <ele>134</ele>
        <time>2018-06-25T09:10:01.191Z</time>
      </trkpt>
      <trkpt lat="44.91933" lon="1.73105">
        <ele>135</ele>
        <time>2018-06-25T09:10:02.191Z</time>
      </trkpt>
      <trkpt lat="44.9195" lon="1.73068">
        <ele>136</ele>
        <time>2018-06-25T09:10:03.191Z</time>
      </trkpt>
      <trkpt lat="44.91966" lon="1.73041">
        <ele>138</ele>
        <time>2018-06-25T09:10:04.191Z</time>
      </trkpt>
      <trkpt lat="44.91998" lon="1.72962">
        <ele>142</ele>
        <time>2018-06-25T09:10:05.191Z</time>
      </trkpt>
      <trkpt lat="44.92011" lon="1.72941">
        <ele>141</ele>
        <time>2018-06-25T09:10:06.191Z</time>
      </trkpt>
      <trkpt lat="44.92022" lon="1.72911">
        <ele>141</ele>
        <time>2018-06-25T09:10:07.191Z</time>
      </trkpt>
      <trkpt lat="44.92047" lon="1.72827">
        <ele>144</ele>
        <time>2018-06-25T09:10:08.191Z</time>
      </trkpt>
      <trkpt lat="44.92096" lon="1.7275">
        <ele>140</ele>
        <time>2018-06-25T09:10:09.191Z</time>
      </trkpt>
      <trkpt lat="44.92101" lon="1.72662">
        <ele>143</ele>
        <time>2018-06-25T09:10:10.191Z</time>
      </trkpt>
      <trkpt lat="44.92107" lon="1.72645">
        <ele>142</ele>
        <time>2018-06-25T09:10:11.191Z</time>
      </trkpt>
      <trkpt lat="44.92137" lon="1.72599">
        <ele>141</ele>
        <time>2018-06-25T09:10:12.191Z</time>
      </trkpt>
      <trkpt lat="44.92164" lon="1.72599">
        <ele>139</ele>
        <time>2018-06-25T09:10:13.191Z</time>
      </trkpt>
      <trkpt lat="44.92173" lon="1.72593">
        <ele>138</ele>
        <time>2018-06-25T09:10:14.191Z</time>
      </trkpt>
      <trkpt lat="44.92193" lon="1.72619">
        <ele>134</ele>
        <time>2018-06-25T09:10:15.191Z</time>
      </trkpt>
      <trkpt lat="44.92438" lon="1.72324">
        <ele>134</ele>
        <time>2018-06-25T09:10:16.191Z</time>
      </trkpt>
      <trkpt lat="44.92525" lon="1.7218">
        <ele>137</ele>
        <time>2018-06-25T09:10:17.191Z</time>
      </trkpt>
      <trkpt lat="44.92648" lon="1.71731">
        <ele>130</ele>
        <time>2018-06-25T09:10:18.191Z</time>
      </trkpt>
      <trkpt lat="44.92704" lon="1.71624">
        <ele>135</ele>
        <time>2018-06-25T09:10:19.191Z</time>
      </trkpt>
      <trkpt lat="44.92932" lon="1.71338">
        <ele>131</ele>
        <time>2018-06-25T09:10:20.191Z</time>
      </trkpt>
      <trkpt lat="44.93076" lon="1.71188">
        <ele>129</ele>
        <time>2018-06-25T09:10:21.191Z</time>
      </trkpt>
      <trkpt lat="44.93161" lon="1.71047">
        <ele>135</ele>
        <time>2018-06-25T09:10:22.191Z</time>
      </trkpt>
      <trkpt lat="44.93226" lon="1.70977">
        <ele>128</ele>
        <time>2018-06-25T09:10:23.191Z</time>
      </trkpt>
      <trkpt lat="44.9328" lon="1.70701">
        <ele>139</ele>
        <time>2018-06-25T09:10:24.191Z</time>
      </trkpt>
      <trkpt lat="44.9333" lon="1.70568">
        <ele>133</ele>
        <time>2018-06-25T09:10:25.191Z</time>
      </trkpt>
      <trkpt lat="44.93359" lon="1.7036">
        <ele>137</ele>
        <time>2018-06-25T09:10:26.191Z</time>
      </trkpt>
      <trkpt lat="44.93364" lon="1.70217">
        <ele>134</ele>
        <time>2018-06-25T09:10:27.191Z</time>
      </trkpt>
      <trkpt lat="44.93332" lon="1.69909">
        <ele>129</ele>
        <time>2018-06-25T09:10:28.191Z</time>
      </trkpt>
      <trkpt lat="44.93341" lon="1.69626">
        <ele>127</ele>
        <time>2018-06-25T09:10:29.191Z</time>
      </trkpt>
      <trkpt lat="44.93314" lon="1.69469">
        <ele>126</ele>
        <time>2018-06-25T09:10:30.191Z</time>
      </trkpt>
      <trkpt lat="44.93094" lon="1.68869">
        <ele>137</ele>
        <time>2018-06-25T09:10:31.191Z</time>
      </trkpt>
      <trkpt lat="44.92879" lon="1.68426">
        <ele>140</ele>
        <time>2018-06-25T09:10:32.191Z</time>
      </trkpt>
      <trkpt lat="44.92805" lon="1.68099">
        <ele>152</ele>
        <time>2018-06-25T09:10:33.191Z</time>
      </trkpt>
      <trkpt lat="44.92806" lon="1.68007">
        <ele>138</ele>
        <time>2018-06-25T09:10:34.191Z</time>
      </trkpt>
      <trkpt lat="44.92667" lon="1.67631">
        <ele>123</ele>
        <time>2018-06-25T09:10:35.191Z</time>
      </trkpt>
      <trkpt lat="44.92655" lon="1.67568">
        <ele>127</ele>
        <time>2018-06-25T09:10:36.191Z</time>
      </trkpt>
      <trkpt lat="44.92671" lon="1.67481">
        <ele>125</ele>
        <time>2018-06-25T09:10:37.191Z</time>
      </trkpt>
      <trkpt lat="44.92655" lon="1.6738">
        <ele>132</ele>
        <time>2018-06-25T09:10:38.191Z</time>
      </trkpt>
      <trkpt lat="44.92672" lon="1.67139">
        <ele>128</ele>
        <time>2018-06-25T09:10:39.191Z</time>
      </trkpt>
      <trkpt lat="44.92609" lon="1.66992">
        <ele>130</ele>
        <time>2018-06-25T09:10:40.191Z</time>
      </trkpt>
      <trkpt lat="44.92515" lon="1.66901">
        <ele>132</ele>
        <time>2018-06-25T09:10:41.191Z</time>
      </trkpt>
      <trkpt lat="44.92365" lon="1.66613">
        <ele>147</ele>
        <time>2018-06-25T09:10:42.191Z</time>
      </trkpt>
      <trkpt lat="44.92322" lon="1.66489">
        <ele>135</ele>
        <time>2018-06-25T09:10:43.191Z</time>
      </trkpt>
      <trkpt lat="44.92117" lon="1.66191">
        <ele>130</ele>
        <time>2018-06-25T09:10:44.191Z</time>
      </trkpt>
      <trkpt lat="44.92027" lon="1.66137">
        <ele>126</ele>
        <time>2018-06-25T09:10:45.191Z</time>
      </trkpt>
      <trkpt lat="44.91989" lon="1.6601">
        <ele>126</ele>
        <time>2018-06-25T09:10:46.191Z</time>
      </trkpt>
      <trkpt lat="44.91915" lon="1.65886">
        <ele>132</ele>
        <time>2018-06-25T09:10:47.191Z</time>
      </trkpt>
      <trkpt lat="44.9185" lon="1.65725">
        <ele>133</ele>
        <time>2018-06-25T09:10:48.191Z</time>
      </trkpt>
      <trkpt lat="44.91704" lon="1.65557">
        <ele>135</ele>
        <time>2018-06-25T09:10:49.191Z</time>
      </trkpt>
      <trkpt lat="44.91532" lon="1.65484">
        <ele>140</ele>
        <time>2018-06-25T09:10:50.191Z</time>
      </trkpt>
      <trkpt lat="44.91494" lon="1.65507">
        <ele>142</ele>
        <time>2018-06-25T09:10:51.191Z</time>
      </trkpt>
      <trkpt lat="44.9146" lon="1.65563">
        <ele>141</ele>
        <time>2018-06-25T09:10:52.191Z</time>
      </trkpt>
      <trkpt lat="44.91345" lon="1.65614">
        <ele>139</ele>
        <time>2018-06-25T09:10:53.191Z</time>
      </trkpt>
      <trkpt lat="44.91065" lon="1.65645">
        <ele>138</ele>
        <time>2018-06-25T09:10:54.191Z</time>
      </trkpt>
      <trkpt lat="44.90962" lon="1.65695">
        <ele>142</ele>
        <time>2018-06-25T09:10:55.191Z</time>
      </trkpt>
      <trkpt lat="44.90819" lon="1.65715">
        <ele>139</ele>
        <time>2018-06-25T09:10:56.191Z</time>
      </trkpt>
      <trkpt lat="44.90819" lon="1.6571">
        <ele>139</ele>
        <time>2018-06-25T09:10:57.191Z</time>
      </trkpt>
      <trkpt lat="44.90784" lon="1.65702">
        <ele>142</ele>
        <time>2018-06-25T09:10:58.191Z</time>
      </trkpt>
      <trkpt lat="44.90721" lon="1.65727">
        <ele>156</ele>
        <time>2018-06-25T09:10:59.191Z</time>
      </trkpt>
      <trkpt lat="44.90643" lon="1.6575">
        <ele>176</ele>
        <time>2018-06-25T09:11:00.191Z</time>
      </trkpt>
      <trkpt lat="44.90582" lon="1.65763">
        <ele>190</ele>
        <time>2018-06-25T09:11:01.191Z</time>
      </trkpt>
      <trkpt lat="44.90539" lon="1.65756">
        <ele>194</ele>
        <time>2018-06-25T09:11:02.191Z</time>
      </trkpt>
      <trkpt lat="44.90519" lon="1.65763">
        <ele>200</ele>
        <time>2018-06-25T09:11:03.191Z</time>
      </trkpt>
      <trkpt lat="44.90535" lon="1.65774">
        <ele>201</ele>
        <time>2018-06-25T09:11:04.191Z</time>
      </trkpt>
      <trkpt lat="44.90542" lon="1.65787">
        <ele>204</ele>
        <time>2018-06-25T09:11:05.191Z</time>
      </trkpt>
      <trkpt lat="44.9053" lon="1.65783">
        <ele>205</ele>
        <time>2018-06-25T09:11:06.191Z</time>
      </trkpt>
      <trkpt lat="44.90497" lon="1.65784">
        <ele>211</ele>
        <time>2018-06-25T09:11:07.191Z</time>
      </trkpt>
      <trkpt lat="44.90452" lon="1.65794">
        <ele>221</ele>
        <time>2018-06-25T09:11:08.191Z</time>
      </trkpt>
      <trkpt lat="44.90406" lon="1.65795">
        <ele>229</ele>
        <time>2018-06-25T09:11:09.191Z</time>
      </trkpt>
      <trkpt lat="44.90391" lon="1.65801">
        <ele>235</ele>
        <time>2018-06-25T09:11:10.191Z</time>
      </trkpt>
      <trkpt lat="44.90372" lon="1.65795">
        <ele>236</ele>
        <time>2018-06-25T09:11:11.191Z</time>
      </trkpt>
      <trkpt lat="44.90359" lon="1.65786">
        <ele>235</ele>
        <time>2018-06-25T09:11:12.191Z</time>
      </trkpt>
      <trkpt lat="44.90346" lon="1.65773">
        <ele>232</ele>
        <time>2018-06-25T09:11:13.191Z</time>
      </trkpt>
      <trkpt lat="44.90321" lon="1.65768">
        <ele>235</ele>
        <time>2018-06-25T09:11:14.191Z</time>
      </trkpt>
      <trkpt lat="44.90294" lon="1.6577">
        <ele>239</ele>
        <time>2018-06-25T09:11:15.191Z</time>
      </trkpt>
      <trkpt lat="44.90249" lon="1.65781">
        <ele>247</ele>
        <time>2018-06-25T09:11:16.191Z</time>
      </trkpt>
      <trkpt lat="44.90209" lon="1.65777">
        <ele>246</ele>
        <time>2018-06-25T09:11:17.191Z</time>
      </trkpt>
      <trkpt lat="44.90197" lon="1.65783">
        <ele>247</ele>
        <time>2018-06-25T09:11:18.191Z</time>
      </trkpt>
      <trkpt lat="44.90189" lon="1.65804">
        <ele>252</ele>
        <time>2018-06-25T09:11:19.191Z</time>
      </trkpt>
      <trkpt lat="44.90181" lon="1.65839">
        <ele>259</ele>
        <time>2018-06-25T09:11:20.191Z</time>
      </trkpt>
      <trkpt lat="44.90151" lon="1.6592">
        <ele>269</ele>
        <time>2018-06-25T09:11:21.191Z</time>
      </trkpt>
      <trkpt lat="44.90137" lon="1.65951">
        <ele>272</ele>
        <time>2018-06-25T09:11:22.191Z</time>
      </trkpt>
      <trkpt lat="44.90115" lon="1.65961">
        <ele>273</ele>
        <time>2018-06-25T09:11:23.191Z</time>
      </trkpt>
      <trkpt lat="44.901" lon="1.65959">
        <ele>273</ele>
        <time>2018-06-25T09:11:24.191Z</time>
      </trkpt>
      <trkpt lat="44.90088" lon="1.65939">
        <ele>272</ele>
        <time>2018-06-25T09:11:25.191Z</time>
      </trkpt>
      <trkpt lat="44.90077" lon="1.65917">
        <ele>270</ele>
        <time>2018-06-25T09:11:26.191Z</time>
      </trkpt>
      <trkpt lat="44.90026" lon="1.65872">
        <ele>271</ele>
        <time>2018-06-25T09:11:27.191Z</time>
      </trkpt>
      <trkpt lat="44.89965" lon="1.65823">
        <ele>270</ele>
        <time>2018-06-25T09:11:28.191Z</time>
      </trkpt>
      <trkpt lat="44.89907" lon="1.65764">
        <ele>268</ele>
        <time>2018-06-25T09:11:29.191Z</time>
      </trkpt>
      <trkpt lat="44.89882" lon="1.65752">
        <ele>268</ele>
        <time>2018-06-25T09:11:30.191Z</time>
      </trkpt>
      <trkpt lat="44.89866" lon="1.65751">
        <ele>268</ele>
        <time>2018-06-25T09:11:31.191Z</time>
      </trkpt>
      <trkpt lat="44.89828" lon="1.65755">
        <ele>268</ele>
        <time>2018-06-25T09:11:32.191Z</time>
      </trkpt>
      <trkpt lat="44.8981" lon="1.65753">
        <ele>267</ele>
        <time>2018-06-25T09:11:33.191Z</time>
      </trkpt>
      <trkpt lat="44.89787" lon="1.65736">
        <ele>266</ele>
        <time>2018-06-25T09:11:34.191Z</time>
      </trkpt>
      <trkpt lat="44.89765" lon="1.65714">
        <ele>265</ele>
        <time>2018-06-25T09:11:35.191Z</time>
      </trkpt>
      <trkpt lat="44.89748" lon="1.65706">
        <ele>264</ele>
        <time>2018-06-25T09:11:36.191Z</time>
      </trkpt>
      <trkpt lat="44.89748" lon="1.65707">
        <ele>264</ele>
        <time>2018-06-25T09:11:37.191Z</time>
      </trkpt>
      <trkpt lat="44.89715" lon="1.65681">
        <ele>263</ele>
        <time>2018-06-25T09:11:38.191Z</time>
      </trkpt>
      <trkpt lat="44.8968" lon="1.65642">
        <ele>262</ele>
        <time>2018-06-25T09:11:39.191Z</time>
      </trkpt>
      <trkpt lat="44.89654" lon="1.6563">
        <ele>262</ele>
        <time>2018-06-25T09:11:40.191Z</time>
      </trkpt>
      <trkpt lat="44.89622" lon="1.65624">
        <ele>263</ele>
        <time>2018-06-25T09:11:41.191Z</time>
      </trkpt>
      <trkpt lat="44.89581" lon="1.65623">
        <ele>264</ele>
        <time>2018-06-25T09:11:42.191Z</time>
      </trkpt>
      <trkpt lat="44.89483" lon="1.65636">
        <ele>261</ele>
        <time>2018-06-25T09:11:43.191Z</time>
      </trkpt>
      <trkpt lat="44.89431" lon="1.65653">
        <ele>258</ele>
        <time>2018-06-25T09:11:44.191Z</time>
      </trkpt>
      <trkpt lat="44.89379" lon="1.65679">
        <ele>259</ele>
        <time>2018-06-25T09:11:45.191Z</time>
      </trkpt>
      <trkpt lat="44.8935" lon="1.65684">
        <ele>260</ele>
        <time>2018-06-25T09:11:46.191Z</time>
      </trkpt>
      <trkpt lat="44.89319" lon="1.65677">
        <ele>261</ele>
        <time>2018-06-25T09:11:47.191Z</time>
      </trkpt>
      <trkpt lat="44.89313" lon="1.65652">
        <ele>259</ele>
        <time>2018-06-25T09:11:48.191Z</time>
      </trkpt>
      <trkpt lat="44.89311" lon="1.65613">
        <ele>256</ele>
        <time>2018-06-25T09:11:49.191Z</time>
      </trkpt>
      <trkpt lat="44.89303" lon="1.65569">
        <ele>253</ele>
        <time>2018-06-25T09:11:50.191Z</time>
      </trkpt>
      <trkpt lat="44.89303" lon="1.65531">
        <ele>251</ele>
        <time>2018-06-25T09:11:51.191Z</time>
      </trkpt>
      <trkpt lat="44.89285" lon="1.65512">
        <ele>252</ele>
        <time>2018-06-25T09:11:52.191Z</time>
      </trkpt>
      <trkpt lat="44.89227" lon="1.65466">
        <ele>252</ele>
        <time>2018-06-25T09:11:53.191Z</time>
      </trkpt>
      <trkpt lat="44.8917" lon="1.65409">
        <ele>251</ele>
        <time>2018-06-25T09:11:54.191Z</time>
      </trkpt>
      <trkpt lat="44.89153" lon="1.65364">
        <ele>248</ele>
        <time>2018-06-25T09:11:55.191Z</time>
      </trkpt>
      <trkpt lat="44.89101" lon="1.65098">
        <ele>234</ele>
        <time>2018-06-25T09:11:56.191Z</time>
      </trkpt>
      <trkpt lat="44.89088" lon="1.65016">
        <ele>229</ele>
        <time>2018-06-25T09:11:57.191Z</time>
      </trkpt>
      <trkpt lat="44.89056" lon="1.64938">
        <ele>226</ele>
        <time>2018-06-25T09:11:58.191Z</time>
      </trkpt>
      <trkpt lat="44.89031" lon="1.64857">
        <ele>225</ele>
        <time>2018-06-25T09:11:59.191Z</time>
      </trkpt>
      <trkpt lat="44.8901" lon="1.64813">
        <ele>224</ele>
        <time>2018-06-25T09:12:00.191Z</time>
      </trkpt>
      <trkpt lat="44.88993" lon="1.64794">
        <ele>224</ele>
        <time>2018-06-25T09:12:01.191Z</time>
      </trkpt>
      <trkpt lat="44.88992" lon="1.64794">
        <ele>224</ele>
        <time>2018-06-25T09:12:02.191Z</time>
      </trkpt>
      <trkpt lat="44.8897" lon="1.64778">
        <ele>224</ele>
        <time>2018-06-25T09:12:03.191Z</time>
      </trkpt>
      <trkpt lat="44.88945" lon="1.64752">
        <ele>223</ele>
        <time>2018-06-25T09:12:04.191Z</time>
      </trkpt>
      <trkpt lat="44.88925" lon="1.64722">
        <ele>223</ele>
        <time>2018-06-25T09:12:05.191Z</time>
      </trkpt>
      <trkpt lat="44.8891" lon="1.64672">
        <ele>224</ele>
        <time>2018-06-25T09:12:06.191Z</time>
      </trkpt>
      <trkpt lat="44.88898" lon="1.64618">
        <ele>223</ele>
        <time>2018-06-25T09:12:07.191Z</time>
      </trkpt>
      <trkpt lat="44.88884" lon="1.64588">
        <ele>222</ele>
        <time>2018-06-25T09:12:08.191Z</time>
      </trkpt>
      <trkpt lat="44.88857" lon="1.6454">
        <ele>221</ele>
        <time>2018-06-25T09:12:09.191Z</time>
      </trkpt>
      <trkpt lat="44.88827" lon="1.64511">
        <ele>219</ele>
        <time>2018-06-25T09:12:10.191Z</time>
      </trkpt>
      <trkpt lat="44.88823" lon="1.64518">
        <ele>219</ele>
        <time>2018-06-25T09:12:11.191Z</time>
      </trkpt>
      <trkpt lat="44.88824" lon="1.64518">
        <ele>219</ele>
        <time>2018-06-25T09:12:12.191Z</time>
      </trkpt>
      <trkpt lat="44.8881" lon="1.64545">
        <ele>220</ele>
        <time>2018-06-25T09:12:13.191Z</time>
      </trkpt>
      <trkpt lat="44.88765" lon="1.64646">
        <ele>219</ele>
        <time>2018-06-25T09:12:14.191Z</time>
      </trkpt>
      <trkpt lat="44.88754" lon="1.64666">
        <ele>219</ele>
        <time>2018-06-25T09:12:15.191Z</time>
      </trkpt>
      <trkpt lat="44.88624" lon="1.64841">
        <ele>220</ele>
        <time>2018-06-25T09:12:16.191Z</time>
      </trkpt>
      <trkpt lat="44.88573" lon="1.64944">
        <ele>220</ele>
        <time>2018-06-25T09:12:17.191Z</time>
      </trkpt>
      <trkpt lat="44.88496" lon="1.65024">
        <ele>220</ele>
        <time>2018-06-25T09:12:18.191Z</time>
      </trkpt>
      <trkpt lat="44.88318" lon="1.65154">
        <ele>217</ele>
        <time>2018-06-25T09:12:19.191Z</time>
      </trkpt>
      <trkpt lat="44.88175" lon="1.6538">
        <ele>220</ele>
        <time>2018-06-25T09:12:20.191Z</time>
      </trkpt>
      <trkpt lat="44.87897" lon="1.65517">
        <ele>200</ele>
        <time>2018-06-25T09:12:21.191Z</time>
      </trkpt>
      <trkpt lat="44.8782" lon="1.65527">
        <ele>196</ele>
        <time>2018-06-25T09:12:22.191Z</time>
      </trkpt>
      <trkpt lat="44.87261" lon="1.6608">
        <ele>226</ele>
        <time>2018-06-25T09:12:23.191Z</time>
      </trkpt>
      <trkpt lat="44.87083" lon="1.66171">
        <ele>230</ele>
        <time>2018-06-25T09:12:24.191Z</time>
      </trkpt>
      <trkpt lat="44.86261" lon="1.66288">
        <ele>260</ele>
        <time>2018-06-25T09:12:25.191Z</time>
      </trkpt>
      <trkpt lat="44.8614" lon="1.66264">
        <ele>260</ele>
        <time>2018-06-25T09:12:26.191Z</time>
      </trkpt>
      <trkpt lat="44.86059" lon="1.66178">
        <ele>259</ele>
        <time>2018-06-25T09:12:27.191Z</time>
      </trkpt>
      <trkpt lat="44.857" lon="1.6604">
        <ele>255</ele>
        <time>2018-06-25T09:12:28.191Z</time>
      </trkpt>
      <trkpt lat="44.85566" lon="1.65963">
        <ele>253</ele>
        <time>2018-06-25T09:12:29.191Z</time>
      </trkpt>
      <trkpt lat="44.85508" lon="1.65906">
        <ele>254</ele>
        <time>2018-06-25T09:12:30.191Z</time>
      </trkpt>
      <trkpt lat="44.85382" lon="1.65701">
        <ele>257</ele>
        <time>2018-06-25T09:12:31.191Z</time>
      </trkpt>
      <trkpt lat="44.85256" lon="1.65595">
        <ele>254</ele>
        <time>2018-06-25T09:12:32.191Z</time>
      </trkpt>
      <trkpt lat="44.85055" lon="1.65517">
        <ele>254</ele>
        <time>2018-06-25T09:12:33.191Z</time>
      </trkpt>
      <trkpt lat="44.84988" lon="1.65457">
        <ele>253</ele>
        <time>2018-06-25T09:12:34.191Z</time>
      </trkpt>
      <trkpt lat="44.84801" lon="1.65182">
        <ele>250</ele>
        <time>2018-06-25T09:12:35.191Z</time>
      </trkpt>
      <trkpt lat="44.84666" lon="1.65081">
        <ele>251</ele>
        <time>2018-06-25T09:12:36.191Z</time>
      </trkpt>
      <trkpt lat="44.84565" lon="1.65">
        <ele>255</ele>
        <time>2018-06-25T09:12:37.191Z</time>
      </trkpt>
      <trkpt lat="44.83463" lon="1.659">
        <ele>278</ele>
        <time>2018-06-25T09:12:38.191Z</time>
      </trkpt>
      <trkpt lat="44.82862" lon="1.6595">
        <ele>291</ele>
        <time>2018-06-25T09:12:39.191Z</time>
      </trkpt>
      <trkpt lat="44.82709" lon="1.65992">
        <ele>291</ele>
        <time>2018-06-25T09:12:40.191Z</time>
      </trkpt>
      <trkpt lat="44.82557" lon="1.65957">
        <ele>294</ele>
        <time>2018-06-25T09:12:41.191Z</time>
      </trkpt>
      <trkpt lat="44.8224" lon="1.65984">
        <ele>290</ele>
        <time>2018-06-25T09:12:42.191Z</time>
      </trkpt>
      <trkpt lat="44.82044" lon="1.65689">
        <ele>281</ele>
        <time>2018-06-25T09:12:43.191Z</time>
      </trkpt>
      <trkpt lat="44.81844" lon="1.65273">
        <ele>283</ele>
        <time>2018-06-25T09:12:44.191Z</time>
      </trkpt>
      <trkpt lat="44.81804" lon="1.65045">
        <ele>274</ele>
        <time>2018-06-25T09:12:45.191Z</time>
      </trkpt>
      <trkpt lat="44.81691" lon="1.64797">
        <ele>268</ele>
        <time>2018-06-25T09:12:46.191Z</time>
      </trkpt>
      <trkpt lat="44.81574" lon="1.64676">
        <ele>270</ele>
        <time>2018-06-25T09:12:47.191Z</time>
      </trkpt>
      <trkpt lat="44.8144" lon="1.64449">
        <ele>273</ele>
        <time>2018-06-25T09:12:48.191Z</time>
      </trkpt>
      <trkpt lat="44.81373" lon="1.64116">
        <ele>273</ele>
        <time>2018-06-25T09:12:49.191Z</time>
      </trkpt>
      <trkpt lat="44.81308" lon="1.63959">
        <ele>272</ele>
        <time>2018-06-25T09:12:50.191Z</time>
      </trkpt>
      <trkpt lat="44.81243" lon="1.63878">
        <ele>273</ele>
        <time>2018-06-25T09:12:51.191Z</time>
      </trkpt>
      <trkpt lat="44.81133" lon="1.63831">
        <ele>268</ele>
        <time>2018-06-25T09:12:52.191Z</time>
      </trkpt>
      <trkpt lat="44.81041" lon="1.63664">
        <ele>266</ele>
        <time>2018-06-25T09:12:53.191Z</time>
      </trkpt>
      <trkpt lat="44.80996" lon="1.6349">
        <ele>262</ele>
        <time>2018-06-25T09:12:54.191Z</time>
      </trkpt>
      <trkpt lat="44.81059" lon="1.63325">
        <ele>255</ele>
        <time>2018-06-25T09:12:55.191Z</time>
      </trkpt>
      <trkpt lat="44.81049" lon="1.63274">
        <ele>254</ele>
        <time>2018-06-25T09:12:56.191Z</time>
      </trkpt>
      <trkpt lat="44.80974" lon="1.63194">
        <ele>249</ele>
        <time>2018-06-25T09:12:57.191Z</time>
      </trkpt>
      <trkpt lat="44.80895" lon="1.63172">
        <ele>249</ele>
        <time>2018-06-25T09:12:58.191Z</time>
      </trkpt>
      <trkpt lat="44.80869" lon="1.63145">
        <ele>250</ele>
        <time>2018-06-25T09:12:59.191Z</time>
      </trkpt>
      <trkpt lat="44.80674" lon="1.62685">
        <ele>259</ele>
        <time>2018-06-25T09:13:00.191Z</time>
      </trkpt>
      <trkpt lat="44.80554" lon="1.62648">
        <ele>258</ele>
        <time>2018-06-25T09:13:01.191Z</time>
      </trkpt>
      <trkpt lat="44.80474" lon="1.62682">
        <ele>258</ele>
        <time>2018-06-25T09:13:02.191Z</time>
      </trkpt>
      <trkpt lat="44.80504" lon="1.6253">
        <ele>259</ele>
        <time>2018-06-25T09:13:03.191Z</time>
      </trkpt>
      <trkpt lat="44.80469" lon="1.62279">
        <ele>252</ele>
        <time>2018-06-25T09:13:04.191Z</time>
      </trkpt>
      <trkpt lat="44.80353" lon="1.62062">
        <ele>257</ele>
        <time>2018-06-25T09:13:05.191Z</time>
      </trkpt>
      <trkpt lat="44.80256" lon="1.61938">
        <ele>246</ele>
        <time>2018-06-25T09:13:06.191Z</time>
      </trkpt>
      <trkpt lat="44.80246" lon="1.6185">
        <ele>256</ele>
        <time>2018-06-25T09:13:07.191Z</time>
      </trkpt>
      <trkpt lat="44.80184" lon="1.61726">
        <ele>264</ele>
        <time>2018-06-25T09:13:08.191Z</time>
      </trkpt>
      <trkpt lat="44.8013" lon="1.61657">
        <ele>266</ele>
        <time>2018-06-25T09:13:09.191Z</time>
      </trkpt>
      <trkpt lat="44.80041" lon="1.616">
        <ele>264</ele>
        <time>2018-06-25T09:13:10.191Z</time>
      </trkpt>
      <trkpt lat="44.79861" lon="1.61619">
        <ele>240</ele>
        <time>2018-06-25T09:13:11.191Z</time>
      </trkpt>
      <trkpt lat="44.79822" lon="1.61545">
        <ele>240</ele>
        <time>2018-06-25T09:13:12.191Z</time>
      </trkpt>
      <trkpt lat="44.79818" lon="1.61519">
        <ele>242</ele>
        <time>2018-06-25T09:13:13.191Z</time>
      </trkpt>
      <trkpt lat="44.79759" lon="1.61418">
        <ele>222</ele>
        <time>2018-06-25T09:13:14.191Z</time>
      </trkpt>
      <trkpt lat="44.79762" lon="1.61503">
        <ele>215</ele>
        <time>2018-06-25T09:13:15.191Z</time>
      </trkpt>
      <trkpt lat="44.79783" lon="1.61525">
        <ele>220</ele>
        <time>2018-06-25T09:13:16.191Z</time>
      </trkpt>
      <trkpt lat="44.79767" lon="1.61522">
        <ele>212</ele>
        <time>2018-06-25T09:13:17.191Z</time>
      </trkpt>
      <trkpt lat="44.79774" lon="1.61562">
        <ele>204</ele>
        <time>2018-06-25T09:13:18.191Z</time>
      </trkpt>
      <trkpt lat="44.79767" lon="1.61552">
        <ele>203</ele>
        <time>2018-06-25T09:13:19.191Z</time>
      </trkpt>
      <trkpt lat="44.79795" lon="1.61645">
        <ele>194</ele>
        <time>2018-06-25T09:13:20.191Z</time>
      </trkpt>
      <trkpt lat="44.7968" lon="1.61408">
        <ele>176</ele>
        <time>2018-06-25T09:13:21.191Z</time>
      </trkpt>
      <trkpt lat="44.79668" lon="1.61412">
        <ele>169</ele>
        <time>2018-06-25T09:13:22.191Z</time>
      </trkpt>
      <trkpt lat="44.79677" lon="1.6144">
        <ele>172</ele>
        <time>2018-06-25T09:13:23.191Z</time>
      </trkpt>
      <trkpt lat="44.79675" lon="1.61447">
        <ele>170</ele>
        <time>2018-06-25T09:13:24.191Z</time>
      </trkpt>
      <trkpt lat="44.7969" lon="1.61485">
        <ele>175</ele>
        <time>2018-06-25T09:13:25.191Z</time>
      </trkpt>
      <trkpt lat="44.7971" lon="1.61548">
        <ele>172</ele>
        <time>2018-06-25T09:13:26.191Z</time>
      </trkpt>
      <trkpt lat="44.79734" lon="1.61604">
        <ele>168</ele>
        <time>2018-06-25T09:13:27.191Z</time>
      </trkpt>
      <trkpt lat="44.79739" lon="1.61619">
        <ele>166</ele>
        <time>2018-06-25T09:13:28.191Z</time>
      </trkpt>
      <trkpt lat="44.79741" lon="1.6164">
        <ele>162</ele>
        <time>2018-06-25T09:13:29.191Z</time>
      </trkpt>
      <trkpt lat="44.79734" lon="1.61634">
        <ele>161</ele>
        <time>2018-06-25T09:13:30.191Z</time>
      </trkpt>
      <trkpt lat="44.79733" lon="1.61634">
        <ele>161</ele>
        <time>2018-06-25T09:13:31.191Z</time>
      </trkpt>
      <trkpt lat="44.79706" lon="1.6161">
        <ele>156</ele>
        <time>2018-06-25T09:13:32.191Z</time>
      </trkpt>
      <trkpt lat="44.797" lon="1.61608">
        <ele>155</ele>
        <time>2018-06-25T09:13:33.191Z</time>
      </trkpt>
      <trkpt lat="44.79692" lon="1.61613">
        <ele>151</ele>
        <time>2018-06-25T09:13:34.191Z</time>
      </trkpt>
      <trkpt lat="44.79691" lon="1.61618">
        <ele>150</ele>
        <time>2018-06-25T09:13:35.191Z</time>
      </trkpt>
      <trkpt lat="44.79681" lon="1.61626">
        <ele>146</ele>
        <time>2018-06-25T09:13:36.191Z</time>
      </trkpt>
      <trkpt lat="44.79665" lon="1.61625">
        <ele>142</ele>
        <time>2018-06-25T09:13:37.191Z</time>
      </trkpt>
      <trkpt lat="44.79652" lon="1.61632">
        <ele>146</ele>
        <time>2018-06-25T09:13:38.191Z</time>
      </trkpt>
      <trkpt lat="44.79604" lon="1.6158">
        <ele>150</ele>
        <time>2018-06-25T09:13:39.191Z</time>
      </trkpt>
      <trkpt lat="44.79589" lon="1.61554">
        <ele>149</ele>
        <time>2018-06-25T09:13:40.191Z</time>
      </trkpt>
      <trkpt lat="44.79585" lon="1.61543">
        <ele>149</ele>
        <time>2018-06-25T09:13:41.191Z</time>
      </trkpt>
      <trkpt lat="44.79576" lon="1.61532">
        <ele>151</ele>
        <time>2018-06-25T09:13:42.191Z</time>
      </trkpt>
      <trkpt lat="44.79557" lon="1.6152">
        <ele>159</ele>
        <time>2018-06-25T09:13:43.191Z</time>
      </trkpt>
      <trkpt lat="44.79535" lon="1.61492">
        <ele>165</ele>
        <time>2018-06-25T09:13:44.191Z</time>
      </trkpt>
      <trkpt lat="44.79519" lon="1.61466">
        <ele>169</ele>
        <time>2018-06-25T09:13:45.191Z</time>
      </trkpt>
      <trkpt lat="44.79508" lon="1.6145">
        <ele>171</ele>
        <time>2018-06-25T09:13:46.191Z</time>
      </trkpt>
      <trkpt lat="44.79502" lon="1.61445">
        <ele>173</ele>
        <time>2018-06-25T09:13:47.191Z</time>
      </trkpt>
      <trkpt lat="44.79499" lon="1.61448">
        <ele>175</ele>
        <time>2018-06-25T09:13:48.191Z</time>
      </trkpt>
      <trkpt lat="44.79501" lon="1.61478">
        <ele>178</ele>
        <time>2018-06-25T09:13:49.191Z</time>
      </trkpt>
      <trkpt lat="44.79499" lon="1.61493">
        <ele>181</ele>
        <time>2018-06-25T09:13:50.191Z</time>
      </trkpt>
      <trkpt lat="44.795" lon="1.61519">
        <ele>185</ele>
        <time>2018-06-25T09:13:51.191Z</time>
      </trkpt>
      <trkpt lat="44.79496" lon="1.61521">
        <ele>188</ele>
        <time>2018-06-25T09:13:52.191Z</time>
      </trkpt>
      <trkpt lat="44.79491" lon="1.61504">
        <ele>188</ele>
        <time>2018-06-25T09:13:53.191Z</time>
      </trkpt>
      <trkpt lat="44.7948" lon="1.6148">
        <ele>192</ele>
        <time>2018-06-25T09:13:54.191Z</time>
      </trkpt>
      <trkpt lat="44.79474" lon="1.61457">
        <ele>193</ele>
        <time>2018-06-25T09:13:55.191Z</time>
      </trkpt>
      <trkpt lat="44.79468" lon="1.61443">
        <ele>196</ele>
        <time>2018-06-25T09:13:56.191Z</time>
      </trkpt>
      <trkpt lat="44.79465" lon="1.61431">
        <ele>196</ele>
        <time>2018-06-25T09:13:57.191Z</time>
      </trkpt>
      <trkpt lat="44.79465" lon="1.61419">
        <ele>195</ele>
        <time>2018-06-25T09:13:58.191Z</time>
      </trkpt>
      <trkpt lat="44.79462" lon="1.61407">
        <ele>197</ele>
        <time>2018-06-25T09:13:59.191Z</time>
      </trkpt>
      <trkpt lat="44.7946" lon="1.61346">
        <ele>202</ele>
        <time>2018-06-25T09:14:00.191Z</time>
      </trkpt>
      <trkpt lat="44.79467" lon="1.61324">
        <ele>201</ele>
        <time>2018-06-25T09:14:01.191Z</time>
      </trkpt>
      <trkpt lat="44.79479" lon="1.61294">
        <ele>200</ele>
        <time>2018-06-25T09:14:02.191Z</time>
      </trkpt>
      <trkpt lat="44.79518" lon="1.61237">
        <ele>193</ele>
        <time>2018-06-25T09:14:03.191Z</time>
      </trkpt>
      <trkpt lat="44.79522" lon="1.61224">
        <ele>194</ele>
        <time>2018-06-25T09:14:04.191Z</time>
      </trkpt>
      <trkpt lat="44.79527" lon="1.61215">
        <ele>193</ele>
        <time>2018-06-25T09:14:05.191Z</time>
      </trkpt>
      <trkpt lat="44.79542" lon="1.61206">
        <ele>186</ele>
        <time>2018-06-25T09:14:06.191Z</time>
      </trkpt>
      <trkpt lat="44.7955" lon="1.61198">
        <ele>183</ele>
        <time>2018-06-25T09:14:07.191Z</time>
      </trkpt>
      <trkpt lat="44.79557" lon="1.61181">
        <ele>183</ele>
        <time>2018-06-25T09:14:08.191Z</time>
      </trkpt>
      <trkpt lat="44.79565" lon="1.61144">
        <ele>184</ele>
        <time>2018-06-25T09:14:09.191Z</time>
      </trkpt>
      <trkpt lat="44.79566" lon="1.61131">
        <ele>184</ele>
        <time>2018-06-25T09:14:10.191Z</time>
      </trkpt>
      <trkpt lat="44.79559" lon="1.61093">
        <ele>191</ele>
        <time>2018-06-25T09:14:11.191Z</time>
      </trkpt>
      <trkpt lat="44.79555" lon="1.6109">
        <ele>194</ele>
        <time>2018-06-25T09:14:12.191Z</time>
      </trkpt>
      <trkpt lat="44.79534" lon="1.61096">
        <ele>204</ele>
        <time>2018-06-25T09:14:13.191Z</time>
      </trkpt>
      <trkpt lat="44.79522" lon="1.61102">
        <ele>210</ele>
        <time>2018-06-25T09:14:14.191Z</time>
      </trkpt>
      <trkpt lat="44.79504" lon="1.61104">
        <ele>219</ele>
        <time>2018-06-25T09:14:15.191Z</time>
      </trkpt>
      <trkpt lat="44.79487" lon="1.61111">
        <ele>224</ele>
        <time>2018-06-25T09:14:16.191Z</time>
      </trkpt>
      <trkpt lat="44.79476" lon="1.61112">
        <ele>227</ele>
        <time>2018-06-25T09:14:17.191Z</time>
      </trkpt>
      <trkpt lat="44.79454" lon="1.61105">
        <ele>233</ele>
        <time>2018-06-25T09:14:18.191Z</time>
      </trkpt>
      <trkpt lat="44.79424" lon="1.61088">
        <ele>240</ele>
        <time>2018-06-25T09:14:19.191Z</time>
      </trkpt>
      <trkpt lat="44.79414" lon="1.61086">
        <ele>243</ele>
        <time>2018-06-25T09:14:20.191Z</time>
      </trkpt>
      <trkpt lat="44.79383" lon="1.6109">
        <ele>248</ele>
        <time>2018-06-25T09:14:21.191Z</time>
      </trkpt>
      <trkpt lat="44.79369" lon="1.61097">
        <ele>250</ele>
        <time>2018-06-25T09:14:22.191Z</time>
      </trkpt>
      <trkpt lat="44.79347" lon="1.61102">
        <ele>254</ele>
        <time>2018-06-25T09:14:23.191Z</time>
      </trkpt>
      <trkpt lat="44.79335" lon="1.61109">
        <ele>257</ele>
        <time>2018-06-25T09:14:24.191Z</time>
      </trkpt>
      <trkpt lat="44.79313" lon="1.61114">
        <ele>259</ele>
        <time>2018-06-25T09:14:25.191Z</time>
      </trkpt>
      <trkpt lat="44.793" lon="1.61113">
        <ele>260</ele>
        <time>2018-06-25T09:14:26.191Z</time>
      </trkpt>
      <trkpt lat="44.79283" lon="1.61108">
        <ele>261</ele>
        <time>2018-06-25T09:14:27.191Z</time>
      </trkpt>
      <trkpt lat="44.79267" lon="1.611">
        <ele>262</ele>
        <time>2018-06-25T09:14:28.191Z</time>
      </trkpt>
      <trkpt lat="44.79217" lon="1.61091">
        <ele>264</ele>
        <time>2018-06-25T09:14:29.191Z</time>
      </trkpt>
      <trkpt lat="44.79158" lon="1.61072">
        <ele>265</ele>
        <time>2018-06-25T09:14:30.191Z</time>
      </trkpt>
      <trkpt lat="44.79059" lon="1.61036">
        <ele>262</ele>
        <time>2018-06-25T09:14:31.191Z</time>
      </trkpt>
      <trkpt lat="44.79039" lon="1.61024">
        <ele>261</ele>
        <time>2018-06-25T09:14:32.191Z</time>
      </trkpt>
      <trkpt lat="44.79008" lon="1.61009">
        <ele>261</ele>
        <time>2018-06-25T09:14:33.191Z</time>
      </trkpt>
      <trkpt lat="44.78968" lon="1.60977">
        <ele>260</ele>
        <time>2018-06-25T09:14:34.191Z</time>
      </trkpt>
      <trkpt lat="44.78957" lon="1.60974">
        <ele>260</ele>
        <time>2018-06-25T09:14:35.191Z</time>
      </trkpt>
      <trkpt lat="44.78951" lon="1.60962">
        <ele>260</ele>
        <time>2018-06-25T09:14:36.191Z</time>
      </trkpt>
      <trkpt lat="44.78964" lon="1.60872">
        <ele>260</ele>
        <time>2018-06-25T09:14:37.191Z</time>
      </trkpt>
      <trkpt lat="44.78969" lon="1.60848">
        <ele>259</ele>
        <time>2018-06-25T09:14:38.191Z</time>
      </trkpt>
      <trkpt lat="44.78611" lon="1.60809">
        <ele>250</ele>
        <time>2018-06-25T09:14:39.191Z</time>
      </trkpt>
      <trkpt lat="44.78599" lon="1.60811">
        <ele>250</ele>
        <time>2018-06-25T09:14:40.191Z</time>
      </trkpt>
      <trkpt lat="44.78592" lon="1.6082">
        <ele>251</ele>
        <time>2018-06-25T09:14:41.191Z</time>
      </trkpt>
      <trkpt lat="44.78541" lon="1.60945">
        <ele>243</ele>
        <time>2018-06-25T09:14:42.191Z</time>
      </trkpt>
      <trkpt lat="44.78499" lon="1.61035">
        <ele>241</ele>
        <time>2018-06-25T09:14:43.191Z</time>
      </trkpt>
      <trkpt lat="44.78483" lon="1.61057">
        <ele>240</ele>
        <time>2018-06-25T09:14:44.191Z</time>
      </trkpt>
      <trkpt lat="44.7842" lon="1.61127">
        <ele>234</ele>
        <time>2018-06-25T09:14:45.191Z</time>
      </trkpt>
      <trkpt lat="44.78414" lon="1.61143">
        <ele>234</ele>
        <time>2018-06-25T09:14:46.191Z</time>
      </trkpt>
      <trkpt lat="44.78416" lon="1.61163">
        <ele>236</ele>
        <time>2018-06-25T09:14:47.191Z</time>
      </trkpt>
      <trkpt lat="44.78422" lon="1.61177">
        <ele>235</ele>
        <time>2018-06-25T09:14:48.191Z</time>
      </trkpt>
      <trkpt lat="44.78481" lon="1.61237">
        <ele>236</ele>
        <time>2018-06-25T09:14:49.191Z</time>
      </trkpt>
      <trkpt lat="44.78511" lon="1.61305">
        <ele>236</ele>
        <time>2018-06-25T09:14:50.191Z</time>
      </trkpt>
      <trkpt lat="44.78519" lon="1.6135">
        <ele>236</ele>
        <time>2018-06-25T09:14:51.191Z</time>
      </trkpt>
      <trkpt lat="44.78519" lon="1.61349">
        <ele>236</ele>
        <time>2018-06-25T09:14:52.191Z</time>
      </trkpt>
      <trkpt lat="44.78518" lon="1.61378">
        <ele>237</ele>
        <time>2018-06-25T09:14:53.191Z</time>
      </trkpt>
      <trkpt lat="44.78512" lon="1.61394">
        <ele>236</ele>
        <time>2018-06-25T09:14:54.191Z</time>
      </trkpt>
      <trkpt lat="44.78503" lon="1.61398">
        <ele>234</ele>
        <time>2018-06-25T09:14:55.191Z</time>
      </trkpt>
      <trkpt lat="44.78468" lon="1.61387">
        <ele>230</ele>
        <time>2018-06-25T09:14:56.191Z</time>
      </trkpt>
      <trkpt lat="44.78448" lon="1.61385">
        <ele>227</ele>
        <time>2018-06-25T09:14:57.191Z</time>
      </trkpt>
      <trkpt lat="44.78357" lon="1.61397">
        <ele>216</ele>
        <time>2018-06-25T09:14:58.191Z</time>
      </trkpt>
      <trkpt lat="44.78327" lon="1.61405">
        <ele>212</ele>
        <time>2018-06-25T09:14:59.191Z</time>
      </trkpt>
      <trkpt lat="44.78306" lon="1.61422">
        <ele>208</ele>
        <time>2018-06-25T09:15:00.191Z</time>
      </trkpt>
      <trkpt lat="44.7829" lon="1.61462">
        <ele>206</ele>
        <time>2018-06-25T09:15:01.191Z</time>
      </trkpt>
      <trkpt lat="44.78269" lon="1.6158">
        <ele>204</ele>
        <time>2018-06-25T09:15:02.191Z</time>
      </trkpt>
      <trkpt lat="44.78252" lon="1.61622">
        <ele>205</ele>
        <time>2018-06-25T09:15:03.191Z</time>
      </trkpt>
      <trkpt lat="44.78246" lon="1.61632">
        <ele>206</ele>
        <time>2018-06-25T09:15:04.191Z</time>
      </trkpt>
      <trkpt lat="44.78174" lon="1.61683">
        <ele>195</ele>
        <time>2018-06-25T09:15:05.191Z</time>
      </trkpt>
      <trkpt lat="44.78131" lon="1.61737">
        <ele>195</ele>
        <time>2018-06-25T09:15:06.191Z</time>
      </trkpt>
      <trkpt lat="44.78142" lon="1.61703">
        <ele>194</ele>
        <time>2018-06-25T09:15:07.191Z</time>
      </trkpt>
      <trkpt lat="44.78003" lon="1.61542">
        <ele>209</ele>
        <time>2018-06-25T09:15:08.191Z</time>
      </trkpt>
      <trkpt lat="44.77997" lon="1.61429">
        <ele>214</ele>
        <time>2018-06-25T09:15:09.191Z</time>
      </trkpt>
      <trkpt lat="44.77877" lon="1.61417">
        <ele>226</ele>
        <time>2018-06-25T09:15:10.191Z</time>
      </trkpt>
      <trkpt lat="44.77786" lon="1.61452">
        <ele>236</ele>
        <time>2018-06-25T09:15:11.191Z</time>
      </trkpt>
      <trkpt lat="44.77725" lon="1.61401">
        <ele>245</ele>
        <time>2018-06-25T09:15:12.191Z</time>
      </trkpt>
      <trkpt lat="44.77699" lon="1.61301">
        <ele>255</ele>
        <time>2018-06-25T09:15:13.191Z</time>
      </trkpt>
      <trkpt lat="44.77638" lon="1.61261">
        <ele>258</ele>
        <time>2018-06-25T09:15:14.191Z</time>
      </trkpt>
      <trkpt lat="44.77329" lon="1.61321">
        <ele>270</ele>
        <time>2018-06-25T09:15:15.191Z</time>
      </trkpt>
      <trkpt lat="44.77117" lon="1.61244">
        <ele>277</ele>
        <time>2018-06-25T09:15:16.191Z</time>
      </trkpt>
      <trkpt lat="44.76844" lon="1.6124">
        <ele>287</ele>
        <time>2018-06-25T09:15:17.191Z</time>
      </trkpt>
      <trkpt lat="44.76716" lon="1.61203">
        <ele>284</ele>
        <time>2018-06-25T09:15:18.191Z</time>
      </trkpt>
      <trkpt lat="44.76553" lon="1.61027">
        <ele>285</ele>
        <time>2018-06-25T09:15:19.191Z</time>
      </trkpt>
      <trkpt lat="44.76456" lon="1.61005">
        <ele>287</ele>
        <time>2018-06-25T09:15:20.191Z</time>
      </trkpt>
      <trkpt lat="44.76384" lon="1.60949">
        <ele>287</ele>
        <time>2018-06-25T09:15:21.191Z</time>
      </trkpt>
      <trkpt lat="44.76266" lon="1.60788">
        <ele>288</ele>
        <time>2018-06-25T09:15:22.191Z</time>
      </trkpt>
      <trkpt lat="44.76273" lon="1.60654">
        <ele>284</ele>
        <time>2018-06-25T09:15:23.191Z</time>
      </trkpt>
      <trkpt lat="44.76209" lon="1.60443">
        <ele>274</ele>
        <time>2018-06-25T09:15:24.191Z</time>
      </trkpt>
      <trkpt lat="44.76238" lon="1.60385">
        <ele>274</ele>
        <time>2018-06-25T09:15:25.191Z</time>
      </trkpt>
      <trkpt lat="44.76369" lon="1.60248">
        <ele>266</ele>
        <time>2018-06-25T09:15:26.191Z</time>
      </trkpt>
      <trkpt lat="44.76404" lon="1.60236">
        <ele>267</ele>
        <time>2018-06-25T09:15:27.191Z</time>
      </trkpt>
      <trkpt lat="44.76408" lon="1.60215">
        <ele>266</ele>
        <time>2018-06-25T09:15:28.191Z</time>
      </trkpt>
      <trkpt lat="44.76349" lon="1.60122">
        <ele>260</ele>
        <time>2018-06-25T09:15:29.191Z</time>
      </trkpt>
      <trkpt lat="44.76178" lon="1.60121">
        <ele>236</ele>
        <time>2018-06-25T09:15:30.191Z</time>
      </trkpt>
      <trkpt lat="44.76097" lon="1.6">
        <ele>215</ele>
        <time>2018-06-25T09:15:31.191Z</time>
      </trkpt>
      <trkpt lat="44.76086" lon="1.59782">
        <ele>197</ele>
        <time>2018-06-25T09:15:32.191Z</time>
      </trkpt>
      <trkpt lat="44.76096" lon="1.59689">
        <ele>192</ele>
        <time>2018-06-25T09:15:33.191Z</time>
      </trkpt>
      <trkpt lat="44.76046" lon="1.59654">
        <ele>187</ele>
        <time>2018-06-25T09:15:34.191Z</time>
      </trkpt>
      <trkpt lat="44.75897" lon="1.59929">
        <ele>192</ele>
        <time>2018-06-25T09:15:35.191Z</time>
      </trkpt>
      <trkpt lat="44.7586" lon="1.60058">
        <ele>196</ele>
        <time>2018-06-25T09:15:36.191Z</time>
      </trkpt>
      <trkpt lat="44.75857" lon="1.60246">
        <ele>197</ele>
        <time>2018-06-25T09:15:37.191Z</time>
      </trkpt>
      <trkpt lat="44.75832" lon="1.60328">
        <ele>194</ele>
        <time>2018-06-25T09:15:38.191Z</time>
      </trkpt>
      <trkpt lat="44.75763" lon="1.60386">
        <ele>198</ele>
        <time>2018-06-25T09:15:39.191Z</time>
      </trkpt>
      <trkpt lat="44.75566" lon="1.6043">
        <ele>201</ele>
        <time>2018-06-25T09:15:40.191Z</time>
      </trkpt>
      <trkpt lat="44.75553" lon="1.60419">
        <ele>202</ele>
        <time>2018-06-25T09:15:41.191Z</time>
      </trkpt>
      <trkpt lat="44.75555" lon="1.60372">
        <ele>202</ele>
        <time>2018-06-25T09:15:42.191Z</time>
      </trkpt>
      <trkpt lat="44.75522" lon="1.60306">
        <ele>207</ele>
        <time>2018-06-25T09:15:43.191Z</time>
      </trkpt>
      <trkpt lat="44.7555" lon="1.60232">
        <ele>204</ele>
        <time>2018-06-25T09:15:44.191Z</time>
      </trkpt>
      <trkpt lat="44.7544" lon="1.60064">
        <ele>216</ele>
        <time>2018-06-25T09:15:45.191Z</time>
      </trkpt>
      <trkpt lat="44.75353" lon="1.59889">
        <ele>227</ele>
        <time>2018-06-25T09:15:46.191Z</time>
      </trkpt>
      <trkpt lat="44.75302" lon="1.59715">
        <ele>249</ele>
        <time>2018-06-25T09:15:47.191Z</time>
      </trkpt>
      <trkpt lat="44.75257" lon="1.59645">
        <ele>260</ele>
        <time>2018-06-25T09:15:48.191Z</time>
      </trkpt>
      <trkpt lat="44.75185" lon="1.59581">
        <ele>270</ele>
        <time>2018-06-25T09:15:49.191Z</time>
      </trkpt>
      <trkpt lat="44.75052" lon="1.59359">
        <ele>297</ele>
        <time>2018-06-25T09:15:50.191Z</time>
      </trkpt>
      <trkpt lat="44.74927" lon="1.5931">
        <ele>309</ele>
        <time>2018-06-25T09:15:51.191Z</time>
      </trkpt>
      <trkpt lat="44.74785" lon="1.59223">
        <ele>319</ele>
        <time>2018-06-25T09:15:52.191Z</time>
      </trkpt>
      <trkpt lat="44.74723" lon="1.59152">
        <ele>319</ele>
        <time>2018-06-25T09:15:53.191Z</time>
      </trkpt>
      <trkpt lat="44.74602" lon="1.58931">
        <ele>313</ele>
        <time>2018-06-25T09:15:54.191Z</time>
      </trkpt>
      <trkpt lat="44.74405" lon="1.58874">
        <ele>312</ele>
        <time>2018-06-25T09:15:55.191Z</time>
      </trkpt>
      <trkpt lat="44.74172" lon="1.58733">
        <ele>293</ele>
        <time>2018-06-25T09:15:56.191Z</time>
      </trkpt>
      <trkpt lat="44.74051" lon="1.58699">
        <ele>297</ele>
        <time>2018-06-25T09:15:57.191Z</time>
      </trkpt>
      <trkpt lat="44.73964" lon="1.58747">
        <ele>305</ele>
        <time>2018-06-25T09:15:58.191Z</time>
      </trkpt>
      <trkpt lat="44.73863" lon="1.58743">
        <ele>314</ele>
        <time>2018-06-25T09:15:59.191Z</time>
      </trkpt>
      <trkpt lat="44.73713" lon="1.58814">
        <ele>319</ele>
        <time>2018-06-25T09:16:00.191Z</time>
      </trkpt>
      <trkpt lat="44.73544" lon="1.58988">
        <ele>316</ele>
        <time>2018-06-25T09:16:01.191Z</time>
      </trkpt>
      <trkpt lat="44.73489" lon="1.59095">
        <ele>317</ele>
        <time>2018-06-25T09:16:02.191Z</time>
      </trkpt>
      <trkpt lat="44.73274" lon="1.59334">
        <ele>305</ele>
        <time>2018-06-25T09:16:03.191Z</time>
      </trkpt>
      <trkpt lat="44.73156" lon="1.59521">
        <ele>303</ele>
        <time>2018-06-25T09:16:04.191Z</time>
      </trkpt>
      <trkpt lat="44.73145" lon="1.59471">
        <ele>302</ele>
        <time>2018-06-25T09:16:05.191Z</time>
      </trkpt>
      <trkpt lat="44.73176" lon="1.59207">
        <ele>302</ele>
        <time>2018-06-25T09:16:06.191Z</time>
      </trkpt>
      <trkpt lat="44.73229" lon="1.59065">
        <ele>298</ele>
        <time>2018-06-25T09:16:07.191Z</time>
      </trkpt>
      <trkpt lat="44.73221" lon="1.59028">
        <ele>297</ele>
        <time>2018-06-25T09:16:08.191Z</time>
      </trkpt>
      <trkpt lat="44.72849" lon="1.59176">
        <ele>332</ele>
        <time>2018-06-25T09:16:09.191Z</time>
      </trkpt>
      <trkpt lat="44.72763" lon="1.59083">
        <ele>345</ele>
        <time>2018-06-25T09:16:10.191Z</time>
      </trkpt>
      <trkpt lat="44.72697" lon="1.59055">
        <ele>351</ele>
        <time>2018-06-25T09:16:11.191Z</time>
      </trkpt>
      <trkpt lat="44.72474" lon="1.59022">
        <ele>364</ele>
        <time>2018-06-25T09:16:12.191Z</time>
      </trkpt>
      <trkpt lat="44.72395" lon="1.59038">
        <ele>363</ele>
        <time>2018-06-25T09:16:13.191Z</time>
      </trkpt>
      <trkpt lat="44.72282" lon="1.58928">
        <ele>362</ele>
        <time>2018-06-25T09:16:14.191Z</time>
      </trkpt>
      <trkpt lat="44.72378" lon="1.58666">
        <ele>359</ele>
        <time>2018-06-25T09:16:15.191Z</time>
      </trkpt>
      <trkpt lat="44.72516" lon="1.58013">
        <ele>348</ele>
        <time>2018-06-25T09:16:16.191Z</time>
      </trkpt>
      <trkpt lat="44.72485" lon="1.57725">
        <ele>336</ele>
        <time>2018-06-25T09:16:17.191Z</time>
      </trkpt>
      <trkpt lat="44.72503" lon="1.5757">
        <ele>331</ele>
        <time>2018-06-25T09:16:18.191Z</time>
      </trkpt>
      <trkpt lat="44.72398" lon="1.57584">
        <ele>329</ele>
        <time>2018-06-25T09:16:19.191Z</time>
      </trkpt>
      <trkpt lat="44.72407" lon="1.57346">
        <ele>308</ele>
        <time>2018-06-25T09:16:20.191Z</time>
      </trkpt>
      <trkpt lat="44.72371" lon="1.57249">
        <ele>303</ele>
        <time>2018-06-25T09:16:21.191Z</time>
      </trkpt>
      <trkpt lat="44.72375" lon="1.57141">
        <ele>295</ele>
        <time>2018-06-25T09:16:22.191Z</time>
      </trkpt>
      <trkpt lat="44.72335" lon="1.57084">
        <ele>287</ele>
        <time>2018-06-25T09:16:23.191Z</time>
      </trkpt>
      <trkpt lat="44.72225" lon="1.57011">
        <ele>276</ele>
        <time>2018-06-25T09:16:24.191Z</time>
      </trkpt>
      <trkpt lat="44.72203" lon="1.5697">
        <ele>275</ele>
        <time>2018-06-25T09:16:25.191Z</time>
      </trkpt>
      <trkpt lat="44.72165" lon="1.5677">
        <ele>274</ele>
        <time>2018-06-25T09:16:26.191Z</time>
      </trkpt>
      <trkpt lat="44.72123" lon="1.56887">
        <ele>283</ele>
        <time>2018-06-25T09:16:27.191Z</time>
      </trkpt>
      <trkpt lat="44.72055" lon="1.569">
        <ele>292</ele>
        <time>2018-06-25T09:16:28.191Z</time>
      </trkpt>
      <trkpt lat="44.71884" lon="1.56833">
        <ele>311</ele>
        <time>2018-06-25T09:16:29.191Z</time>
      </trkpt>
      <trkpt lat="44.71869" lon="1.56732">
        <ele>305</ele>
        <time>2018-06-25T09:16:30.191Z</time>
      </trkpt>
      <trkpt lat="44.71781" lon="1.5669">
        <ele>304</ele>
        <time>2018-06-25T09:16:31.191Z</time>
      </trkpt>
      <trkpt lat="44.71733" lon="1.56625">
        <ele>305</ele>
        <time>2018-06-25T09:16:32.191Z</time>
      </trkpt>
      <trkpt lat="44.71667" lon="1.56623">
        <ele>312</ele>
        <time>2018-06-25T09:16:33.191Z</time>
      </trkpt>
      <trkpt lat="44.71501" lon="1.56737">
        <ele>331</ele>
        <time>2018-06-25T09:16:34.191Z</time>
      </trkpt>
      <trkpt lat="44.71459" lon="1.56692">
        <ele>336</ele>
        <time>2018-06-25T09:16:35.191Z</time>
      </trkpt>
      <trkpt lat="44.71064" lon="1.56528">
        <ele>353</ele>
        <time>2018-06-25T09:16:36.191Z</time>
      </trkpt>
      <trkpt lat="44.70785" lon="1.5647">
        <ele>357</ele>
        <time>2018-06-25T09:16:37.191Z</time>
      </trkpt>
      <trkpt lat="44.70749" lon="1.56387">
        <ele>363</ele>
        <time>2018-06-25T09:16:38.191Z</time>
      </trkpt>
      <trkpt lat="44.70694" lon="1.5632">
        <ele>370</ele>
        <time>2018-06-25T09:16:39.191Z</time>
      </trkpt>
      <trkpt lat="44.70513" lon="1.56223">
        <ele>369</ele>
        <time>2018-06-25T09:16:40.191Z</time>
      </trkpt>
      <trkpt lat="44.70499" lon="1.56247">
        <ele>371</ele>
        <time>2018-06-25T09:16:41.191Z</time>
      </trkpt>
      <trkpt lat="44.70395" lon="1.56212">
        <ele>368</ele>
        <time>2018-06-25T09:16:42.191Z</time>
      </trkpt>
      <trkpt lat="44.703" lon="1.56226">
        <ele>365</ele>
        <time>2018-06-25T09:16:43.191Z</time>
      </trkpt>
      <trkpt lat="44.70216" lon="1.56202">
        <ele>361</ele>
        <time>2018-06-25T09:16:44.191Z</time>
      </trkpt>
      <trkpt lat="44.70127" lon="1.56423">
        <ele>356</ele>
        <time>2018-06-25T09:16:45.191Z</time>
      </trkpt>
      <trkpt lat="44.70023" lon="1.56432">
        <ele>352</ele>
        <time>2018-06-25T09:16:46.191Z</time>
      </trkpt>
      <trkpt lat="44.69685" lon="1.5636">
        <ele>333</ele>
        <time>2018-06-25T09:16:47.191Z</time>
      </trkpt>
      <trkpt lat="44.6957" lon="1.56263">
        <ele>321</ele>
        <time>2018-06-25T09:16:48.191Z</time>
      </trkpt>
      <trkpt lat="44.69502" lon="1.56277">
        <ele>308</ele>
        <time>2018-06-25T09:16:49.191Z</time>
      </trkpt>
      <trkpt lat="44.69463" lon="1.5625">
        <ele>301</ele>
        <time>2018-06-25T09:16:50.191Z</time>
      </trkpt>
      <trkpt lat="44.69382" lon="1.5634">
        <ele>292</ele>
        <time>2018-06-25T09:16:51.191Z</time>
      </trkpt>
      <trkpt lat="44.69252" lon="1.56414">
        <ele>299</ele>
        <time>2018-06-25T09:16:52.191Z</time>
      </trkpt>
      <trkpt lat="44.69145" lon="1.56505">
        <ele>302</ele>
        <time>2018-06-25T09:16:53.191Z</time>
      </trkpt>
      <trkpt lat="44.69118" lon="1.56499">
        <ele>302</ele>
        <time>2018-06-25T09:16:54.191Z</time>
      </trkpt>
      <trkpt lat="44.69085" lon="1.56384">
        <ele>300</ele>
        <time>2018-06-25T09:16:55.191Z</time>
      </trkpt>
      <trkpt lat="44.68881" lon="1.56394">
        <ele>310</ele>
        <time>2018-06-25T09:16:56.191Z</time>
      </trkpt>
      <trkpt lat="44.68798" lon="1.56358">
        <ele>313</ele>
        <time>2018-06-25T09:16:57.191Z</time>
      </trkpt>
      <trkpt lat="44.68683" lon="1.56269">
        <ele>316</ele>
        <time>2018-06-25T09:16:58.191Z</time>
      </trkpt>
      <trkpt lat="44.68617" lon="1.56253">
        <ele>315</ele>
        <time>2018-06-25T09:16:59.191Z</time>
      </trkpt>
      <trkpt lat="44.68535" lon="1.56343">
        <ele>312</ele>
        <time>2018-06-25T09:17:00.191Z</time>
      </trkpt>
      <trkpt lat="44.683" lon="1.56465">
        <ele>325</ele>
        <time>2018-06-25T09:17:01.191Z</time>
      </trkpt>
      <trkpt lat="44.68288" lon="1.56531">
        <ele>326</ele>
        <time>2018-06-25T09:17:02.191Z</time>
      </trkpt>
      <trkpt lat="44.68221" lon="1.56609">
        <ele>336</ele>
        <time>2018-06-25T09:17:03.191Z</time>
      </trkpt>
      <trkpt lat="44.68216" lon="1.56682">
        <ele>343</ele>
        <time>2018-06-25T09:17:04.191Z</time>
      </trkpt>
      <trkpt lat="44.68064" lon="1.56947">
        <ele>363</ele>
        <time>2018-06-25T09:17:05.191Z</time>
      </trkpt>
      <trkpt lat="44.67798" lon="1.56907">
        <ele>375</ele>
        <time>2018-06-25T09:17:06.191Z</time>
      </trkpt>
      <trkpt lat="44.67706" lon="1.56924">
        <ele>380</ele>
        <time>2018-06-25T09:17:07.191Z</time>
      </trkpt>
      <trkpt lat="44.67542" lon="1.57027">
        <ele>376</ele>
        <time>2018-06-25T09:17:08.191Z</time>
      </trkpt>
      <trkpt lat="44.67441" lon="1.57221">
        <ele>384</ele>
        <time>2018-06-25T09:17:09.191Z</time>
      </trkpt>
      <trkpt lat="44.67221" lon="1.573">
        <ele>394</ele>
        <time>2018-06-25T09:17:10.191Z</time>
      </trkpt>
      <trkpt lat="44.67099" lon="1.5741">
        <ele>403</ele>
        <time>2018-06-25T09:17:11.191Z</time>
      </trkpt>
      <trkpt lat="44.66901" lon="1.57325">
        <ele>412</ele>
        <time>2018-06-25T09:17:12.191Z</time>
      </trkpt>
      <trkpt lat="44.66855" lon="1.57349">
        <ele>411</ele>
        <time>2018-06-25T09:17:13.191Z</time>
      </trkpt>
      <trkpt lat="44.66706" lon="1.5735">
        <ele>406</ele>
        <time>2018-06-25T09:17:14.191Z</time>
      </trkpt>
      <trkpt lat="44.66562" lon="1.57423">
        <ele>407</ele>
        <time>2018-06-25T09:17:15.191Z</time>
      </trkpt>
      <trkpt lat="44.6646" lon="1.57429">
        <ele>403</ele>
        <time>2018-06-25T09:17:16.191Z</time>
      </trkpt>
      <trkpt lat="44.66376" lon="1.57479">
        <ele>394</ele>
        <time>2018-06-25T09:17:17.191Z</time>
      </trkpt>
      <trkpt lat="44.663" lon="1.57473">
        <ele>391</ele>
        <time>2018-06-25T09:17:18.191Z</time>
      </trkpt>
      <trkpt lat="44.66235" lon="1.57503">
        <ele>384</ele>
        <time>2018-06-25T09:17:19.191Z</time>
      </trkpt>
      <trkpt lat="44.6619" lon="1.57627">
        <ele>383</ele>
        <time>2018-06-25T09:17:20.191Z</time>
      </trkpt>
      <trkpt lat="44.66019" lon="1.57467">
        <ele>387</ele>
        <time>2018-06-25T09:17:21.191Z</time>
      </trkpt>
      <trkpt lat="44.65939" lon="1.57541">
        <ele>392</ele>
        <time>2018-06-25T09:17:22.191Z</time>
      </trkpt>
      <trkpt lat="44.65898" lon="1.57379">
        <ele>389</ele>
        <time>2018-06-25T09:17:23.191Z</time>
      </trkpt>
      <trkpt lat="44.65777" lon="1.57196">
        <ele>397</ele>
        <time>2018-06-25T09:17:24.191Z</time>
      </trkpt>
      <trkpt lat="44.65616" lon="1.57055">
        <ele>400</ele>
        <time>2018-06-25T09:17:25.191Z</time>
      </trkpt>
      <trkpt lat="44.65488" lon="1.57074">
        <ele>403</ele>
        <time>2018-06-25T09:17:26.191Z</time>
      </trkpt>
      <trkpt lat="44.65358" lon="1.56846">
        <ele>415</ele>
        <time>2018-06-25T09:17:27.191Z</time>
      </trkpt>
      <trkpt lat="44.65192" lon="1.5682">
        <ele>419</ele>
        <time>2018-06-25T09:17:28.191Z</time>
      </trkpt>
      <trkpt lat="44.64959" lon="1.56736">
        <ele>440</ele>
        <time>2018-06-25T09:17:29.191Z</time>
      </trkpt>
      <trkpt lat="44.64863" lon="1.5675">
        <ele>446</ele>
        <time>2018-06-25T09:17:30.191Z</time>
      </trkpt>
      <trkpt lat="44.64845" lon="1.56749">
        <ele>447</ele>
        <time>2018-06-25T09:17:31.191Z</time>
      </trkpt>
      <trkpt lat="44.64845" lon="1.56785">
        <ele>447</ele>
        <time>2018-06-25T09:17:32.191Z</time>
      </trkpt>
      <trkpt lat="44.64769" lon="1.56776">
        <ele>448</ele>
        <time>2018-06-25T09:17:33.191Z</time>
      </trkpt>
      <trkpt lat="44.64769" lon="1.56786">
        <ele>447</ele>
        <time>2018-06-25T09:17:34.191Z</time>
      </trkpt>
      <trkpt lat="44.64681" lon="1.5672">
        <ele>446</ele>
        <time>2018-06-25T09:17:35.191Z</time>
      </trkpt>
      <trkpt lat="44.64669" lon="1.56706">
        <ele>445</ele>
        <time>2018-06-25T09:17:36.191Z</time>
      </trkpt>
      <trkpt lat="44.64602" lon="1.56659">
        <ele>442</ele>
        <time>2018-06-25T09:17:37.191Z</time>
      </trkpt>
      <trkpt lat="44.64558" lon="1.56642">
        <ele>440</ele>
        <time>2018-06-25T09:17:38.191Z</time>
      </trkpt>
      <trkpt lat="44.64443" lon="1.56539">
        <ele>435</ele>
        <time>2018-06-25T09:17:39.191Z</time>
      </trkpt>
      <trkpt lat="44.63807" lon="1.56082">
        <ele>417</ele>
        <time>2018-06-25T09:17:40.191Z</time>
      </trkpt>
      <trkpt lat="44.63598" lon="1.55768">
        <ele>388</ele>
        <time>2018-06-25T09:17:41.191Z</time>
      </trkpt>
      <trkpt lat="44.6354" lon="1.55727">
        <ele>378</ele>
        <time>2018-06-25T09:17:42.191Z</time>
      </trkpt>
      <trkpt lat="44.63461" lon="1.55767">
        <ele>371</ele>
        <time>2018-06-25T09:17:43.191Z</time>
      </trkpt>
      <trkpt lat="44.63408" lon="1.55717">
        <ele>361</ele>
        <time>2018-06-25T09:17:44.191Z</time>
      </trkpt>
      <trkpt lat="44.63372" lon="1.55616">
        <ele>350</ele>
        <time>2018-06-25T09:17:45.191Z</time>
      </trkpt>
      <trkpt lat="44.63159" lon="1.55432">
        <ele>337</ele>
        <time>2018-06-25T09:17:46.191Z</time>
      </trkpt>
      <trkpt lat="44.62961" lon="1.55295">
        <ele>329</ele>
        <time>2018-06-25T09:17:47.191Z</time>
      </trkpt>
      <trkpt lat="44.6278" lon="1.55237">
        <ele>322</ele>
        <time>2018-06-25T09:17:48.191Z</time>
      </trkpt>
      <trkpt lat="44.62636" lon="1.55268">
        <ele>318</ele>
        <time>2018-06-25T09:17:49.191Z</time>
      </trkpt>
      <trkpt lat="44.62129" lon="1.55124">
        <ele>296</ele>
        <time>2018-06-25T09:17:50.191Z</time>
      </trkpt>
      <trkpt lat="44.62116" lon="1.55094">
        <ele>296</ele>
        <time>2018-06-25T09:17:51.191Z</time>
      </trkpt>
      <trkpt lat="44.62051" lon="1.551">
        <ele>291</ele>
        <time>2018-06-25T09:17:52.191Z</time>
      </trkpt>
      <trkpt lat="44.62017" lon="1.5507">
        <ele>290</ele>
        <time>2018-06-25T09:17:53.191Z</time>
      </trkpt>
      <trkpt lat="44.61872" lon="1.54816">
        <ele>283</ele>
        <time>2018-06-25T09:17:54.191Z</time>
      </trkpt>
      <trkpt lat="44.61808" lon="1.54811">
        <ele>280</ele>
        <time>2018-06-25T09:17:55.191Z</time>
      </trkpt>
      <trkpt lat="44.61785" lon="1.54784">
        <ele>281</ele>
        <time>2018-06-25T09:17:56.191Z</time>
      </trkpt>
      <trkpt lat="44.61726" lon="1.54607">
        <ele>280</ele>
        <time>2018-06-25T09:17:57.191Z</time>
      </trkpt>
      <trkpt lat="44.61612" lon="1.54387">
        <ele>278</ele>
        <time>2018-06-25T09:17:58.191Z</time>
      </trkpt>
      <trkpt lat="44.61571" lon="1.54354">
        <ele>276</ele>
        <time>2018-06-25T09:17:59.191Z</time>
      </trkpt>
      <trkpt lat="44.61432" lon="1.54325">
        <ele>278</ele>
        <time>2018-06-25T09:18:00.191Z</time>
      </trkpt>
      <trkpt lat="44.61296" lon="1.54347">
        <ele>267</ele>
        <time>2018-06-25T09:18:01.191Z</time>
      </trkpt>
      <trkpt lat="44.61222" lon="1.54279">
        <ele>274</ele>
        <time>2018-06-25T09:18:02.191Z</time>
      </trkpt>
      <trkpt lat="44.61199" lon="1.54279">
        <ele>279</ele>
        <time>2018-06-25T09:18:03.191Z</time>
      </trkpt>
      <trkpt lat="44.61119" lon="1.54357">
        <ele>287</ele>
        <time>2018-06-25T09:18:04.191Z</time>
      </trkpt>
      <trkpt lat="44.60894" lon="1.54439">
        <ele>320</ele>
        <time>2018-06-25T09:18:05.191Z</time>
      </trkpt>
      <trkpt lat="44.60845" lon="1.5443">
        <ele>327</ele>
        <time>2018-06-25T09:18:06.191Z</time>
      </trkpt>
      <trkpt lat="44.60778" lon="1.54353">
        <ele>330</ele>
        <time>2018-06-25T09:18:07.191Z</time>
      </trkpt>
      <trkpt lat="44.608" lon="1.54202">
        <ele>345</ele>
        <time>2018-06-25T09:18:08.191Z</time>
      </trkpt>
      <trkpt lat="44.60737" lon="1.5402">
        <ele>359</ele>
        <time>2018-06-25T09:18:09.191Z</time>
      </trkpt>
      <trkpt lat="44.60735" lon="1.5381">
        <ele>368</ele>
        <time>2018-06-25T09:18:10.191Z</time>
      </trkpt>
      <trkpt lat="44.6069" lon="1.53736">
        <ele>372</ele>
        <time>2018-06-25T09:18:11.191Z</time>
      </trkpt>
      <trkpt lat="44.6023" lon="1.5326">
        <ele>376</ele>
        <time>2018-06-25T09:18:12.191Z</time>
      </trkpt>
      <trkpt lat="44.60089" lon="1.53052">
        <ele>375</ele>
        <time>2018-06-25T09:18:13.191Z</time>
      </trkpt>
      <trkpt lat="44.59899" lon="1.52821">
        <ele>377</ele>
        <time>2018-06-25T09:18:14.191Z</time>
      </trkpt>
      <trkpt lat="44.59692" lon="1.52526">
        <ele>378</ele>
        <time>2018-06-25T09:18:15.191Z</time>
      </trkpt>
      <trkpt lat="44.59585" lon="1.52489">
        <ele>392</ele>
        <time>2018-06-25T09:18:16.191Z</time>
      </trkpt>
      <trkpt lat="44.59488" lon="1.52426">
        <ele>403</ele>
        <time>2018-06-25T09:18:17.191Z</time>
      </trkpt>
      <trkpt lat="44.59403" lon="1.52285">
        <ele>403</ele>
        <time>2018-06-25T09:18:18.191Z</time>
      </trkpt>
      <trkpt lat="44.59361" lon="1.52251">
        <ele>406</ele>
        <time>2018-06-25T09:18:19.191Z</time>
      </trkpt>
      <trkpt lat="44.593" lon="1.52153">
        <ele>404</ele>
        <time>2018-06-25T09:18:20.191Z</time>
      </trkpt>
      <trkpt lat="44.59255" lon="1.5193">
        <ele>407</ele>
        <time>2018-06-25T09:18:21.191Z</time>
      </trkpt>
      <trkpt lat="44.59287" lon="1.51813">
        <ele>408</ele>
        <time>2018-06-25T09:18:22.191Z</time>
      </trkpt>
      <trkpt lat="44.59226" lon="1.51647">
        <ele>410</ele>
        <time>2018-06-25T09:18:23.191Z</time>
      </trkpt>
      <trkpt lat="44.59261" lon="1.51513">
        <ele>408</ele>
        <time>2018-06-25T09:18:24.191Z</time>
      </trkpt>
      <trkpt lat="44.59108" lon="1.5133">
        <ele>409</ele>
        <time>2018-06-25T09:18:25.191Z</time>
      </trkpt>
      <trkpt lat="44.59057" lon="1.51239">
        <ele>414</ele>
        <time>2018-06-25T09:18:26.191Z</time>
      </trkpt>
      <trkpt lat="44.58957" lon="1.50917">
        <ele>405</ele>
        <time>2018-06-25T09:18:27.191Z</time>
      </trkpt>
      <trkpt lat="44.58887" lon="1.50553">
        <ele>398</ele>
        <time>2018-06-25T09:18:28.191Z</time>
      </trkpt>
      <trkpt lat="44.58829" lon="1.50451">
        <ele>397</ele>
        <time>2018-06-25T09:18:29.191Z</time>
      </trkpt>
      <trkpt lat="44.58756" lon="1.50388">
        <ele>395</ele>
        <time>2018-06-25T09:18:30.191Z</time>
      </trkpt>
      <trkpt lat="44.5858" lon="1.50325">
        <ele>395</ele>
        <time>2018-06-25T09:18:31.191Z</time>
      </trkpt>
      <trkpt lat="44.58495" lon="1.50247">
        <ele>395</ele>
        <time>2018-06-25T09:18:32.191Z</time>
      </trkpt>
      <trkpt lat="44.5843" lon="1.50136">
        <ele>395</ele>
        <time>2018-06-25T09:18:33.191Z</time>
      </trkpt>
      <trkpt lat="44.58381" lon="1.50149">
        <ele>394</ele>
        <time>2018-06-25T09:18:34.191Z</time>
      </trkpt>
      <trkpt lat="44.58271" lon="1.49993">
        <ele>404</ele>
        <time>2018-06-25T09:18:35.191Z</time>
      </trkpt>
      <trkpt lat="44.58179" lon="1.49976">
        <ele>406</ele>
        <time>2018-06-25T09:18:36.191Z</time>
      </trkpt>
      <trkpt lat="44.58113" lon="1.50009">
        <ele>407</ele>
        <time>2018-06-25T09:18:37.191Z</time>
      </trkpt>
      <trkpt lat="44.57919" lon="1.5001">
        <ele>405</ele>
        <time>2018-06-25T09:18:38.191Z</time>
      </trkpt>
      <trkpt lat="44.57818" lon="1.49952">
        <ele>399</ele>
        <time>2018-06-25T09:18:39.191Z</time>
      </trkpt>
      <trkpt lat="44.5772" lon="1.49961">
        <ele>388</ele>
        <time>2018-06-25T09:18:40.191Z</time>
      </trkpt>
      <trkpt lat="44.57571" lon="1.49885">
        <ele>377</ele>
        <time>2018-06-25T09:18:41.191Z</time>
      </trkpt>
      <trkpt lat="44.57358" lon="1.49815">
        <ele>370</ele>
        <time>2018-06-25T09:18:42.191Z</time>
      </trkpt>
      <trkpt lat="44.57287" lon="1.49864">
        <ele>363</ele>
        <time>2018-06-25T09:18:43.191Z</time>
      </trkpt>
      <trkpt lat="44.57246" lon="1.49858">
        <ele>361</ele>
        <time>2018-06-25T09:18:44.191Z</time>
      </trkpt>
      <trkpt lat="44.57092" lon="1.49711">
        <ele>358</ele>
        <time>2018-06-25T09:18:45.191Z</time>
      </trkpt>
      <trkpt lat="44.56898" lon="1.4962">
        <ele>347</ele>
        <time>2018-06-25T09:18:46.191Z</time>
      </trkpt>
      <trkpt lat="44.56706" lon="1.49403">
        <ele>333</ele>
        <time>2018-06-25T09:18:47.191Z</time>
      </trkpt>
      <trkpt lat="44.56619" lon="1.49255">
        <ele>320</ele>
        <time>2018-06-25T09:18:48.191Z</time>
      </trkpt>
      <trkpt lat="44.56504" lon="1.49141">
        <ele>298</ele>
        <time>2018-06-25T09:18:49.191Z</time>
      </trkpt>
      <trkpt lat="44.564" lon="1.4895">
        <ele>289</ele>
        <time>2018-06-25T09:18:50.191Z</time>
      </trkpt>
      <trkpt lat="44.56363" lon="1.48809">
        <ele>273</ele>
        <time>2018-06-25T09:18:51.191Z</time>
      </trkpt>
      <trkpt lat="44.56381" lon="1.48772">
        <ele>268</ele>
        <time>2018-06-25T09:18:52.191Z</time>
      </trkpt>
      <trkpt lat="44.56361" lon="1.48705">
        <ele>266</ele>
        <time>2018-06-25T09:18:53.191Z</time>
      </trkpt>
      <trkpt lat="44.56256" lon="1.48655">
        <ele>267</ele>
        <time>2018-06-25T09:18:54.191Z</time>
      </trkpt>
      <trkpt lat="44.56209" lon="1.48605">
        <ele>273</ele>
        <time>2018-06-25T09:18:55.191Z</time>
      </trkpt>
      <trkpt lat="44.56083" lon="1.48618">
        <ele>270</ele>
        <time>2018-06-25T09:18:56.191Z</time>
      </trkpt>
      <trkpt lat="44.55948" lon="1.48688">
        <ele>253</ele>
        <time>2018-06-25T09:18:57.191Z</time>
      </trkpt>
      <trkpt lat="44.55947" lon="1.48686">
        <ele>253</ele>
        <time>2018-06-25T09:18:58.191Z</time>
      </trkpt>
      <trkpt lat="44.55943" lon="1.48686">
        <ele>253</ele>
        <time>2018-06-25T09:18:59.191Z</time>
      </trkpt>
      <trkpt lat="44.55967" lon="1.48631">
        <ele>258</ele>
        <time>2018-06-25T09:19:00.191Z</time>
      </trkpt>
      <trkpt lat="44.55977" lon="1.48596">
        <ele>262</ele>
        <time>2018-06-25T09:19:01.191Z</time>
      </trkpt>
      <trkpt lat="44.55983" lon="1.48533">
        <ele>268</ele>
        <time>2018-06-25T09:19:02.191Z</time>
      </trkpt>
      <trkpt lat="44.55968" lon="1.484">
        <ele>277</ele>
        <time>2018-06-25T09:19:03.191Z</time>
      </trkpt>
      <trkpt lat="44.55961" lon="1.48359">
        <ele>278</ele>
        <time>2018-06-25T09:19:04.191Z</time>
      </trkpt>
      <trkpt lat="44.55963" lon="1.48336">
        <ele>279</ele>
        <time>2018-06-25T09:19:05.191Z</time>
      </trkpt>
      <trkpt lat="44.55967" lon="1.48306">
        <ele>280</ele>
        <time>2018-06-25T09:19:06.191Z</time>
      </trkpt>
      <trkpt lat="44.55972" lon="1.48291">
        <ele>280</ele>
        <time>2018-06-25T09:19:07.191Z</time>
      </trkpt>
      <trkpt lat="44.55984" lon="1.48272">
        <ele>279</ele>
        <time>2018-06-25T09:19:08.191Z</time>
      </trkpt>
      <trkpt lat="44.56013" lon="1.4824">
        <ele>282</ele>
        <time>2018-06-25T09:19:09.191Z</time>
      </trkpt>
      <trkpt lat="44.56046" lon="1.48187">
        <ele>288</ele>
        <time>2018-06-25T09:19:10.191Z</time>
      </trkpt>
      <trkpt lat="44.56096" lon="1.48078">
        <ele>285</ele>
        <time>2018-06-25T09:19:11.191Z</time>
      </trkpt>
      <trkpt lat="44.56137" lon="1.48006">
        <ele>287</ele>
        <time>2018-06-25T09:19:12.191Z</time>
      </trkpt>
      <trkpt lat="44.562" lon="1.47903">
        <ele>293</ele>
        <time>2018-06-25T09:19:13.191Z</time>
      </trkpt>
      <trkpt lat="44.56211" lon="1.47877">
        <ele>296</ele>
        <time>2018-06-25T09:19:14.191Z</time>
      </trkpt>
      <trkpt lat="44.56219" lon="1.4783">
        <ele>298</ele>
        <time>2018-06-25T09:19:15.191Z</time>
      </trkpt>
      <trkpt lat="44.56226" lon="1.47779">
        <ele>299</ele>
        <time>2018-06-25T09:19:16.191Z</time>
      </trkpt>
      <trkpt lat="44.56226" lon="1.47731">
        <ele>299</ele>
        <time>2018-06-25T09:19:17.191Z</time>
      </trkpt>
      <trkpt lat="44.56229" lon="1.47707">
        <ele>298</ele>
        <time>2018-06-25T09:19:18.191Z</time>
      </trkpt>
      <trkpt lat="44.56248" lon="1.47646">
        <ele>296</ele>
        <time>2018-06-25T09:19:19.191Z</time>
      </trkpt>
      <trkpt lat="44.5625" lon="1.47634">
        <ele>296</ele>
        <time>2018-06-25T09:19:20.191Z</time>
      </trkpt>
      <trkpt lat="44.56248" lon="1.47623">
        <ele>296</ele>
        <time>2018-06-25T09:19:21.191Z</time>
      </trkpt>
      <trkpt lat="44.56244" lon="1.47612">
        <ele>297</ele>
        <time>2018-06-25T09:19:22.191Z</time>
      </trkpt>
      <trkpt lat="44.56236" lon="1.47601">
        <ele>298</ele>
        <time>2018-06-25T09:19:23.191Z</time>
      </trkpt>
      <trkpt lat="44.56221" lon="1.47591">
        <ele>301</ele>
        <time>2018-06-25T09:19:24.191Z</time>
      </trkpt>
      <trkpt lat="44.56212" lon="1.47594">
        <ele>302</ele>
        <time>2018-06-25T09:19:25.191Z</time>
      </trkpt>
      <trkpt lat="44.56204" lon="1.47601">
        <ele>303</ele>
        <time>2018-06-25T09:19:26.191Z</time>
      </trkpt>
      <trkpt lat="44.56184" lon="1.47632">
        <ele>303</ele>
        <time>2018-06-25T09:19:27.191Z</time>
      </trkpt>
      <trkpt lat="44.56167" lon="1.47668">
        <ele>301</ele>
        <time>2018-06-25T09:19:28.191Z</time>
      </trkpt>
      <trkpt lat="44.56151" lon="1.47723">
        <ele>298</ele>
        <time>2018-06-25T09:19:29.191Z</time>
      </trkpt>
      <trkpt lat="44.56146" lon="1.47731">
        <ele>298</ele>
        <time>2018-06-25T09:19:30.191Z</time>
      </trkpt>
      <trkpt lat="44.56141" lon="1.47735">
        <ele>298</ele>
        <time>2018-06-25T09:19:31.191Z</time>
      </trkpt>
      <trkpt lat="44.56133" lon="1.47735">
        <ele>299</ele>
        <time>2018-06-25T09:19:32.191Z</time>
      </trkpt>
      <trkpt lat="44.56126" lon="1.47729">
        <ele>300</ele>
        <time>2018-06-25T09:19:33.191Z</time>
      </trkpt>
      <trkpt lat="44.56111" lon="1.477">
        <ele>306</ele>
        <time>2018-06-25T09:19:34.191Z</time>
      </trkpt>
      <trkpt lat="44.56081" lon="1.4766">
        <ele>316</ele>
        <time>2018-06-25T09:19:35.191Z</time>
      </trkpt>
      <trkpt lat="44.5607" lon="1.47654">
        <ele>319</ele>
        <time>2018-06-25T09:19:36.191Z</time>
      </trkpt>
      <trkpt lat="44.56055" lon="1.47657">
        <ele>321</ele>
        <time>2018-06-25T09:19:37.191Z</time>
      </trkpt>
      <trkpt lat="44.56044" lon="1.47664">
        <ele>322</ele>
        <time>2018-06-25T09:19:38.191Z</time>
      </trkpt>
      <trkpt lat="44.56037" lon="1.47678">
        <ele>322</ele>
        <time>2018-06-25T09:19:39.191Z</time>
      </trkpt>
      <trkpt lat="44.56033" lon="1.47693">
        <ele>322</ele>
        <time>2018-06-25T09:19:40.191Z</time>
      </trkpt>
      <trkpt lat="44.56022" lon="1.47779">
        <ele>319</ele>
        <time>2018-06-25T09:19:41.191Z</time>
      </trkpt>
      <trkpt lat="44.56012" lon="1.47816">
        <ele>319</ele>
        <time>2018-06-25T09:19:42.191Z</time>
      </trkpt>
      <trkpt lat="44.56003" lon="1.47834">
        <ele>319</ele>
        <time>2018-06-25T09:19:43.191Z</time>
      </trkpt>
      <trkpt lat="44.55993" lon="1.47845">
        <ele>319</ele>
        <time>2018-06-25T09:19:44.191Z</time>
      </trkpt>
      <trkpt lat="44.55983" lon="1.47849">
        <ele>319</ele>
        <time>2018-06-25T09:19:45.191Z</time>
      </trkpt>
      <trkpt lat="44.55937" lon="1.47847">
        <ele>322</ele>
        <time>2018-06-25T09:19:46.191Z</time>
      </trkpt>
      <trkpt lat="44.55914" lon="1.47851">
        <ele>323</ele>
        <time>2018-06-25T09:19:47.191Z</time>
      </trkpt>
      <trkpt lat="44.55866" lon="1.47866">
        <ele>324</ele>
        <time>2018-06-25T09:19:48.191Z</time>
      </trkpt>
      <trkpt lat="44.55847" lon="1.4787">
        <ele>325</ele>
        <time>2018-06-25T09:19:49.191Z</time>
      </trkpt>
      <trkpt lat="44.55827" lon="1.47868">
        <ele>326</ele>
        <time>2018-06-25T09:19:50.191Z</time>
      </trkpt>
      <trkpt lat="44.55796" lon="1.4786">
        <ele>329</ele>
        <time>2018-06-25T09:19:51.191Z</time>
      </trkpt>
      <trkpt lat="44.55778" lon="1.47851">
        <ele>330</ele>
        <time>2018-06-25T09:19:52.191Z</time>
      </trkpt>
      <trkpt lat="44.55762" lon="1.47839">
        <ele>331</ele>
        <time>2018-06-25T09:19:53.191Z</time>
      </trkpt>
      <trkpt lat="44.55751" lon="1.47825">
        <ele>332</ele>
        <time>2018-06-25T09:19:54.191Z</time>
      </trkpt>
      <trkpt lat="44.55721" lon="1.47767">
        <ele>337</ele>
        <time>2018-06-25T09:19:55.191Z</time>
      </trkpt>
      <trkpt lat="44.55719" lon="1.47741">
        <ele>338</ele>
        <time>2018-06-25T09:19:56.191Z</time>
      </trkpt>
      <trkpt lat="44.55722" lon="1.47721">
        <ele>339</ele>
        <time>2018-06-25T09:19:57.191Z</time>
      </trkpt>
      <trkpt lat="44.5575" lon="1.47652">
        <ele>341</ele>
        <time>2018-06-25T09:19:58.191Z</time>
      </trkpt>
      <trkpt lat="44.55752" lon="1.47639">
        <ele>341</ele>
        <time>2018-06-25T09:19:59.191Z</time>
      </trkpt>
      <trkpt lat="44.55751" lon="1.47632">
        <ele>341</ele>
        <time>2018-06-25T09:20:00.191Z</time>
      </trkpt>
      <trkpt lat="44.55806" lon="1.4759">
        <ele>341</ele>
        <time>2018-06-25T09:20:01.191Z</time>
      </trkpt>
      <trkpt lat="44.55846" lon="1.47555">
        <ele>341</ele>
        <time>2018-06-25T09:20:02.191Z</time>
      </trkpt>
      <trkpt lat="44.55874" lon="1.4752">
        <ele>343</ele>
        <time>2018-06-25T09:20:03.191Z</time>
      </trkpt>
      <trkpt lat="44.55927" lon="1.47436">
        <ele>348</ele>
        <time>2018-06-25T09:20:04.191Z</time>
      </trkpt>
      <trkpt lat="44.55959" lon="1.47395">
        <ele>351</ele>
        <time>2018-06-25T09:20:05.191Z</time>
      </trkpt>
      <trkpt lat="44.5603" lon="1.47296">
        <ele>352</ele>
        <time>2018-06-25T09:20:06.191Z</time>
      </trkpt>
      <trkpt lat="44.56026" lon="1.47281">
        <ele>352</ele>
        <time>2018-06-25T09:20:07.191Z</time>
      </trkpt>
      <trkpt lat="44.56023" lon="1.47253">
        <ele>352</ele>
        <time>2018-06-25T09:20:08.191Z</time>
      </trkpt>
      <trkpt lat="44.5603" lon="1.47218">
        <ele>351</ele>
        <time>2018-06-25T09:20:09.191Z</time>
      </trkpt>
      <trkpt lat="44.56045" lon="1.4719">
        <ele>352</ele>
        <time>2018-06-25T09:20:10.191Z</time>
      </trkpt>
      <trkpt lat="44.5605" lon="1.4717">
        <ele>352</ele>
        <time>2018-06-25T09:20:11.191Z</time>
      </trkpt>
      <trkpt lat="44.56063" lon="1.47015">
        <ele>347</ele>
        <time>2018-06-25T09:20:12.191Z</time>
      </trkpt>
      <trkpt lat="44.56081" lon="1.46727">
        <ele>348</ele>
        <time>2018-06-25T09:20:13.191Z</time>
      </trkpt>
      <trkpt lat="44.56081" lon="1.46715">
        <ele>348</ele>
        <time>2018-06-25T09:20:14.191Z</time>
      </trkpt>
      <trkpt lat="44.56101" lon="1.46656">
        <ele>350</ele>
        <time>2018-06-25T09:20:15.191Z</time>
      </trkpt>
      <trkpt lat="44.56102" lon="1.46656">
        <ele>350</ele>
        <time>2018-06-25T09:20:16.191Z</time>
      </trkpt>
      <trkpt lat="44.56118" lon="1.466">
        <ele>350</ele>
        <time>2018-06-25T09:20:17.191Z</time>
      </trkpt>
      <trkpt lat="44.56133" lon="1.46535">
        <ele>350</ele>
        <time>2018-06-25T09:20:18.191Z</time>
      </trkpt>
      <trkpt lat="44.56137" lon="1.46508">
        <ele>349</ele>
        <time>2018-06-25T09:20:19.191Z</time>
      </trkpt>
      <trkpt lat="44.56138" lon="1.46483">
        <ele>349</ele>
        <time>2018-06-25T09:20:20.191Z</time>
      </trkpt>
      <trkpt lat="44.56136" lon="1.46459">
        <ele>349</ele>
        <time>2018-06-25T09:20:21.191Z</time>
      </trkpt>
      <trkpt lat="44.56122" lon="1.46396">
        <ele>347</ele>
        <time>2018-06-25T09:20:22.191Z</time>
      </trkpt>
      <trkpt lat="44.56118" lon="1.4639">
        <ele>347</ele>
        <time>2018-06-25T09:20:23.191Z</time>
      </trkpt>
      <trkpt lat="44.56075" lon="1.46348">
        <ele>344</ele>
        <time>2018-06-25T09:20:24.191Z</time>
      </trkpt>
      <trkpt lat="44.56048" lon="1.46328">
        <ele>341</ele>
        <time>2018-06-25T09:20:25.191Z</time>
      </trkpt>
      <trkpt lat="44.56011" lon="1.46305">
        <ele>335</ele>
        <time>2018-06-25T09:20:26.191Z</time>
      </trkpt>
      <trkpt lat="44.55989" lon="1.46299">
        <ele>334</ele>
        <time>2018-06-25T09:20:27.191Z</time>
      </trkpt>
      <trkpt lat="44.5595" lon="1.463">
        <ele>336</ele>
        <time>2018-06-25T09:20:28.191Z</time>
      </trkpt>
      <trkpt lat="44.55935" lon="1.46295">
        <ele>335</ele>
        <time>2018-06-25T09:20:29.191Z</time>
      </trkpt>
      <trkpt lat="44.55925" lon="1.46289">
        <ele>335</ele>
        <time>2018-06-25T09:20:30.191Z</time>
      </trkpt>
      <trkpt lat="44.55912" lon="1.46279">
        <ele>333</ele>
        <time>2018-06-25T09:20:31.191Z</time>
      </trkpt>
      <trkpt lat="44.55903" lon="1.46268">
        <ele>330</ele>
        <time>2018-06-25T09:20:32.191Z</time>
      </trkpt>
      <trkpt lat="44.55889" lon="1.46245">
        <ele>324</ele>
        <time>2018-06-25T09:20:33.191Z</time>
      </trkpt>
      <trkpt lat="44.5588" lon="1.4624">
        <ele>322</ele>
        <time>2018-06-25T09:20:34.191Z</time>
      </trkpt>
      <trkpt lat="44.55874" lon="1.4624">
        <ele>321</ele>
        <time>2018-06-25T09:20:35.191Z</time>
      </trkpt>
      <trkpt lat="44.55865" lon="1.46244">
        <ele>321</ele>
        <time>2018-06-25T09:20:36.191Z</time>
      </trkpt>
      <trkpt lat="44.55845" lon="1.46263">
        <ele>322</ele>
        <time>2018-06-25T09:20:37.191Z</time>
      </trkpt>
      <trkpt lat="44.55837" lon="1.46274">
        <ele>323</ele>
        <time>2018-06-25T09:20:38.191Z</time>
      </trkpt>
      <trkpt lat="44.55824" lon="1.46306">
        <ele>328</ele>
        <time>2018-06-25T09:20:39.191Z</time>
      </trkpt>
      <trkpt lat="44.55813" lon="1.46323">
        <ele>331</ele>
        <time>2018-06-25T09:20:40.191Z</time>
      </trkpt>
      <trkpt lat="44.55799" lon="1.46335">
        <ele>333</ele>
        <time>2018-06-25T09:20:41.191Z</time>
      </trkpt>
      <trkpt lat="44.55791" lon="1.46339">
        <ele>334</ele>
        <time>2018-06-25T09:20:42.191Z</time>
      </trkpt>
      <trkpt lat="44.55783" lon="1.4634">
        <ele>334</ele>
        <time>2018-06-25T09:20:43.191Z</time>
      </trkpt>
      <trkpt lat="44.55776" lon="1.46338">
        <ele>334</ele>
        <time>2018-06-25T09:20:44.191Z</time>
      </trkpt>
      <trkpt lat="44.55771" lon="1.46334">
        <ele>333</ele>
        <time>2018-06-25T09:20:45.191Z</time>
      </trkpt>
      <trkpt lat="44.55763" lon="1.46323">
        <ele>331</ele>
        <time>2018-06-25T09:20:46.191Z</time>
      </trkpt>
      <trkpt lat="44.55757" lon="1.46311">
        <ele>329</ele>
        <time>2018-06-25T09:20:47.191Z</time>
      </trkpt>
      <trkpt lat="44.55744" lon="1.4627">
        <ele>324</ele>
        <time>2018-06-25T09:20:48.191Z</time>
      </trkpt>
      <trkpt lat="44.55742" lon="1.4625">
        <ele>321</ele>
        <time>2018-06-25T09:20:49.191Z</time>
      </trkpt>
      <trkpt lat="44.55744" lon="1.46201">
        <ele>312</ele>
        <time>2018-06-25T09:20:50.191Z</time>
      </trkpt>
      <trkpt lat="44.55741" lon="1.46197">
        <ele>312</ele>
        <time>2018-06-25T09:20:51.191Z</time>
      </trkpt>
      <trkpt lat="44.55733" lon="1.46193">
        <ele>313</ele>
        <time>2018-06-25T09:20:52.191Z</time>
      </trkpt>
      <trkpt lat="44.55709" lon="1.46194">
        <ele>319</ele>
        <time>2018-06-25T09:20:53.191Z</time>
      </trkpt>
      <trkpt lat="44.55699" lon="1.46191">
        <ele>321</ele>
        <time>2018-06-25T09:20:54.191Z</time>
      </trkpt>
      <trkpt lat="44.55691" lon="1.46186">
        <ele>322</ele>
        <time>2018-06-25T09:20:55.191Z</time>
      </trkpt>
      <trkpt lat="44.55685" lon="1.4618">
        <ele>322</ele>
        <time>2018-06-25T09:20:56.191Z</time>
      </trkpt>
      <trkpt lat="44.55682" lon="1.46173">
        <ele>322</ele>
        <time>2018-06-25T09:20:57.191Z</time>
      </trkpt>
      <trkpt lat="44.55681" lon="1.46155">
        <ele>321</ele>
        <time>2018-06-25T09:20:58.191Z</time>
      </trkpt>
      <trkpt lat="44.55689" lon="1.46079">
        <ele>313</ele>
        <time>2018-06-25T09:20:59.191Z</time>
      </trkpt>
      <trkpt lat="44.55705" lon="1.45985">
        <ele>305</ele>
        <time>2018-06-25T09:21:00.191Z</time>
      </trkpt>
      <trkpt lat="44.55711" lon="1.45964">
        <ele>304</ele>
        <time>2018-06-25T09:21:01.191Z</time>
      </trkpt>
      <trkpt lat="44.55767" lon="1.45719">
        <ele>293</ele>
        <time>2018-06-25T09:21:02.191Z</time>
      </trkpt>
      <trkpt lat="44.55808" lon="1.45602">
        <ele>279</ele>
        <time>2018-06-25T09:21:03.191Z</time>
      </trkpt>
      <trkpt lat="44.55817" lon="1.45584">
        <ele>276</ele>
        <time>2018-06-25T09:21:04.191Z</time>
      </trkpt>
      <trkpt lat="44.5582" lon="1.45572">
        <ele>274</ele>
        <time>2018-06-25T09:21:05.191Z</time>
      </trkpt>
      <trkpt lat="44.5582" lon="1.45563">
        <ele>272</ele>
        <time>2018-06-25T09:21:06.191Z</time>
      </trkpt>
      <trkpt lat="44.55818" lon="1.45556">
        <ele>272</ele>
        <time>2018-06-25T09:21:07.191Z</time>
      </trkpt>
      <trkpt lat="44.55807" lon="1.45547">
        <ele>273</ele>
        <time>2018-06-25T09:21:08.191Z</time>
      </trkpt>
      <trkpt lat="44.5575" lon="1.45526">
        <ele>283</ele>
        <time>2018-06-25T09:21:09.191Z</time>
      </trkpt>
      <trkpt lat="44.55743" lon="1.4552">
        <ele>284</ele>
        <time>2018-06-25T09:21:10.191Z</time>
      </trkpt>
      <trkpt lat="44.55739" lon="1.45512">
        <ele>283</ele>
        <time>2018-06-25T09:21:11.191Z</time>
      </trkpt>
      <trkpt lat="44.5573" lon="1.45486">
        <ele>279</ele>
        <time>2018-06-25T09:21:12.191Z</time>
      </trkpt>
      <trkpt lat="44.55722" lon="1.45469">
        <ele>277</ele>
        <time>2018-06-25T09:21:13.191Z</time>
      </trkpt>
      <trkpt lat="44.5571" lon="1.45448">
        <ele>275</ele>
        <time>2018-06-25T09:21:14.191Z</time>
      </trkpt>
      <trkpt lat="44.55686" lon="1.45418">
        <ele>274</ele>
        <time>2018-06-25T09:21:15.191Z</time>
      </trkpt>
      <trkpt lat="44.55675" lon="1.454">
        <ele>273</ele>
        <time>2018-06-25T09:21:16.191Z</time>
      </trkpt>
      <trkpt lat="44.55667" lon="1.45384">
        <ele>271</ele>
        <time>2018-06-25T09:21:17.191Z</time>
      </trkpt>
      <trkpt lat="44.55649" lon="1.45324">
        <ele>263</ele>
        <time>2018-06-25T09:21:18.191Z</time>
      </trkpt>
      <trkpt lat="44.55643" lon="1.45318">
        <ele>264</ele>
        <time>2018-06-25T09:21:19.191Z</time>
      </trkpt>
      <trkpt lat="44.55634" lon="1.45317">
        <ele>267</ele>
        <time>2018-06-25T09:21:20.191Z</time>
      </trkpt>
      <trkpt lat="44.55622" lon="1.4532">
        <ele>271</ele>
        <time>2018-06-25T09:21:21.191Z</time>
      </trkpt>
      <trkpt lat="44.55616" lon="1.45315">
        <ele>272</ele>
        <time>2018-06-25T09:21:22.191Z</time>
      </trkpt>
      <trkpt lat="44.55611" lon="1.45294">
        <ele>271</ele>
        <time>2018-06-25T09:21:23.191Z</time>
      </trkpt>
      <trkpt lat="44.5561" lon="1.45274">
        <ele>269</ele>
        <time>2018-06-25T09:21:24.191Z</time>
      </trkpt>
      <trkpt lat="44.5561" lon="1.45199">
        <ele>260</ele>
        <time>2018-06-25T09:21:25.191Z</time>
      </trkpt>
      <trkpt lat="44.55613" lon="1.45107">
        <ele>247</ele>
        <time>2018-06-25T09:21:26.191Z</time>
      </trkpt>
      <trkpt lat="44.55613" lon="1.45086">
        <ele>244</ele>
        <time>2018-06-25T09:21:27.191Z</time>
      </trkpt>
      <trkpt lat="44.55611" lon="1.45073">
        <ele>243</ele>
        <time>2018-06-25T09:21:28.191Z</time>
      </trkpt>
      <trkpt lat="44.556" lon="1.45062">
        <ele>243</ele>
        <time>2018-06-25T09:21:29.191Z</time>
      </trkpt>
      <trkpt lat="44.55594" lon="1.4506">
        <ele>244</ele>
        <time>2018-06-25T09:21:30.191Z</time>
      </trkpt>
      <trkpt lat="44.5558" lon="1.4506">
        <ele>246</ele>
        <time>2018-06-25T09:21:31.191Z</time>
      </trkpt>
      <trkpt lat="44.55555" lon="1.4507">
        <ele>250</ele>
        <time>2018-06-25T09:21:32.191Z</time>
      </trkpt>
      <trkpt lat="44.55541" lon="1.45069">
        <ele>252</ele>
        <time>2018-06-25T09:21:33.191Z</time>
      </trkpt>
      <trkpt lat="44.55532" lon="1.45061">
        <ele>252</ele>
        <time>2018-06-25T09:21:34.191Z</time>
      </trkpt>
      <trkpt lat="44.55527" lon="1.45052">
        <ele>253</ele>
        <time>2018-06-25T09:21:35.191Z</time>
      </trkpt>
      <trkpt lat="44.55524" lon="1.45042">
        <ele>253</ele>
        <time>2018-06-25T09:21:36.191Z</time>
      </trkpt>
      <trkpt lat="44.55524" lon="1.45031">
        <ele>252</ele>
        <time>2018-06-25T09:21:37.191Z</time>
      </trkpt>
      <trkpt lat="44.5553" lon="1.44986">
        <ele>249</ele>
        <time>2018-06-25T09:21:38.191Z</time>
      </trkpt>
      <trkpt lat="44.55534" lon="1.44972">
        <ele>248</ele>
        <time>2018-06-25T09:21:39.191Z</time>
      </trkpt>
      <trkpt lat="44.5554" lon="1.44967">
        <ele>247</ele>
        <time>2018-06-25T09:21:40.191Z</time>
      </trkpt>
      <trkpt lat="44.55544" lon="1.44957">
        <ele>246</ele>
        <time>2018-06-25T09:21:41.191Z</time>
      </trkpt>
      <trkpt lat="44.55547" lon="1.44933">
        <ele>244</ele>
        <time>2018-06-25T09:21:42.191Z</time>
      </trkpt>
      <trkpt lat="44.55548" lon="1.44906">
        <ele>243</ele>
        <time>2018-06-25T09:21:43.191Z</time>
      </trkpt>
      <trkpt lat="44.55545" lon="1.44848">
        <ele>239</ele>
        <time>2018-06-25T09:21:44.191Z</time>
      </trkpt>
      <trkpt lat="44.55542" lon="1.44827">
        <ele>238</ele>
        <time>2018-06-25T09:21:45.191Z</time>
      </trkpt>
      <trkpt lat="44.55536" lon="1.44808">
        <ele>238</ele>
        <time>2018-06-25T09:21:46.191Z</time>
      </trkpt>
      <trkpt lat="44.55517" lon="1.44767">
        <ele>236</ele>
        <time>2018-06-25T09:21:47.191Z</time>
      </trkpt>
      <trkpt lat="44.55495" lon="1.44671">
        <ele>230</ele>
        <time>2018-06-25T09:21:48.191Z</time>
      </trkpt>
      <trkpt lat="44.55491" lon="1.44627">
        <ele>228</ele>
        <time>2018-06-25T09:21:49.191Z</time>
      </trkpt>
      <trkpt lat="44.55486" lon="1.44615">
        <ele>228</ele>
        <time>2018-06-25T09:21:50.191Z</time>
      </trkpt>
      <trkpt lat="44.55477" lon="1.44599">
        <ele>228</ele>
        <time>2018-06-25T09:21:51.191Z</time>
      </trkpt>
      <trkpt lat="44.55438" lon="1.44549">
        <ele>228</ele>
        <time>2018-06-25T09:21:52.191Z</time>
      </trkpt>
      <trkpt lat="44.55429" lon="1.44544">
        <ele>228</ele>
        <time>2018-06-25T09:21:53.191Z</time>
      </trkpt>
      <trkpt lat="44.55409" lon="1.44544">
        <ele>229</ele>
        <time>2018-06-25T09:21:54.191Z</time>
      </trkpt>
      <trkpt lat="44.55399" lon="1.44541">
        <ele>229</ele>
        <time>2018-06-25T09:21:55.191Z</time>
      </trkpt>
      <trkpt lat="44.55381" lon="1.4453">
        <ele>229</ele>
        <time>2018-06-25T09:21:56.191Z</time>
      </trkpt>
      <trkpt lat="44.55346" lon="1.44483">
        <ele>224</ele>
        <time>2018-06-25T09:21:57.191Z</time>
      </trkpt>
      <trkpt lat="44.55326" lon="1.44455">
        <ele>222</ele>
        <time>2018-06-25T09:21:58.191Z</time>
      </trkpt>
      <trkpt lat="44.55301" lon="1.44436">
        <ele>221</ele>
        <time>2018-06-25T09:21:59.191Z</time>
      </trkpt>
      <trkpt lat="44.55295" lon="1.4443">
        <ele>221</ele>
        <time>2018-06-25T09:22:00.191Z</time>
      </trkpt>
      <trkpt lat="44.5529" lon="1.4443">
        <ele>221</ele>
        <time>2018-06-25T09:22:01.191Z</time>
      </trkpt>
      <trkpt lat="44.55274" lon="1.44425">
        <ele>221</ele>
        <time>2018-06-25T09:22:02.191Z</time>
      </trkpt>
      <trkpt lat="44.55263" lon="1.44416">
        <ele>221</ele>
        <time>2018-06-25T09:22:03.191Z</time>
      </trkpt>
      <trkpt lat="44.55232" lon="1.44383">
        <ele>224</ele>
        <time>2018-06-25T09:22:04.191Z</time>
      </trkpt>
      <trkpt lat="44.55142" lon="1.44246">
        <ele>225</ele>
        <time>2018-06-25T09:22:05.191Z</time>
      </trkpt>
      <trkpt lat="44.55128" lon="1.44219">
        <ele>225</ele>
        <time>2018-06-25T09:22:06.191Z</time>
      </trkpt>
      <trkpt lat="44.55117" lon="1.44191">
        <ele>223</ele>
        <time>2018-06-25T09:22:07.191Z</time>
      </trkpt>
      <trkpt lat="44.55107" lon="1.44172">
        <ele>221</ele>
        <time>2018-06-25T09:22:08.191Z</time>
      </trkpt>
      <trkpt lat="44.55097" lon="1.44161">
        <ele>221</ele>
        <time>2018-06-25T09:22:09.191Z</time>
      </trkpt>
      <trkpt lat="44.55087" lon="1.44154">
        <ele>221</ele>
        <time>2018-06-25T09:22:10.191Z</time>
      </trkpt>
      <trkpt lat="44.55088" lon="1.44153">
        <ele>220</ele>
        <time>2018-06-25T09:22:11.191Z</time>
      </trkpt>
      <trkpt lat="44.5503" lon="1.44111">
        <ele>222</ele>
        <time>2018-06-25T09:22:12.191Z</time>
      </trkpt>
      <trkpt lat="44.54918" lon="1.43997">
        <ele>217</ele>
        <time>2018-06-25T09:22:13.191Z</time>
      </trkpt>
      <trkpt lat="44.54848" lon="1.4393">
        <ele>212</ele>
        <time>2018-06-25T09:22:14.191Z</time>
      </trkpt>
      <trkpt lat="44.54826" lon="1.43892">
        <ele>208</ele>
        <time>2018-06-25T09:22:15.191Z</time>
      </trkpt>
      <trkpt lat="44.54815" lon="1.43859">
        <ele>206</ele>
        <time>2018-06-25T09:22:16.191Z</time>
      </trkpt>
      <trkpt lat="44.54808" lon="1.43843">
        <ele>205</ele>
        <time>2018-06-25T09:22:17.191Z</time>
      </trkpt>
      <trkpt lat="44.54777" lon="1.43799">
        <ele>205</ele>
        <time>2018-06-25T09:22:18.191Z</time>
      </trkpt>
      <trkpt lat="44.54761" lon="1.43756">
        <ele>206</ele>
        <time>2018-06-25T09:22:19.191Z</time>
      </trkpt>
      <trkpt lat="44.5471" lon="1.43658">
        <ele>209</ele>
        <time>2018-06-25T09:22:20.191Z</time>
      </trkpt>
      <trkpt lat="44.54696" lon="1.43637">
        <ele>209</ele>
        <time>2018-06-25T09:22:21.191Z</time>
      </trkpt>
      <trkpt lat="44.54511" lon="1.43395">
        <ele>207</ele>
        <time>2018-06-25T09:22:22.191Z</time>
      </trkpt>
      <trkpt lat="44.5449" lon="1.4337">
        <ele>205</ele>
        <time>2018-06-25T09:22:23.191Z</time>
      </trkpt>
      <trkpt lat="44.5443" lon="1.4331">
        <ele>202</ele>
        <time>2018-06-25T09:22:24.191Z</time>
      </trkpt>
      <trkpt lat="44.54362" lon="1.43259">
        <ele>203</ele>
        <time>2018-06-25T09:22:25.191Z</time>
      </trkpt>
      <trkpt lat="44.54322" lon="1.43217">
        <ele>204</ele>
        <time>2018-06-25T09:22:26.191Z</time>
      </trkpt>
      <trkpt lat="44.54275" lon="1.43161">
        <ele>205</ele>
        <time>2018-06-25T09:22:27.191Z</time>
      </trkpt>
      <trkpt lat="44.5423" lon="1.43099">
        <ele>202</ele>
        <time>2018-06-25T09:22:28.191Z</time>
      </trkpt>
      <trkpt lat="44.54177" lon="1.43031">
        <ele>201</ele>
        <time>2018-06-25T09:22:29.191Z</time>
      </trkpt>
      <trkpt lat="44.54136" lon="1.42998">
        <ele>201</ele>
        <time>2018-06-25T09:22:30.191Z</time>
      </trkpt>
      <trkpt lat="44.54118" lon="1.42978">
        <ele>201</ele>
        <time>2018-06-25T09:22:31.191Z</time>
      </trkpt>
      <trkpt lat="44.54086" lon="1.42938">
        <ele>200</ele>
        <time>2018-06-25T09:22:32.191Z</time>
      </trkpt>
      <trkpt lat="44.54034" lon="1.4286">
        <ele>200</ele>
        <time>2018-06-25T09:22:33.191Z</time>
      </trkpt>
      <trkpt lat="44.5401" lon="1.42817">
        <ele>198</ele>
        <time>2018-06-25T09:22:34.191Z</time>
      </trkpt>
      <trkpt lat="44.53987" lon="1.42769">
        <ele>194</ele>
        <time>2018-06-25T09:22:35.191Z</time>
      </trkpt>
      <trkpt lat="44.53975" lon="1.42752">
        <ele>192</ele>
        <time>2018-06-25T09:22:36.191Z</time>
      </trkpt>
      <trkpt lat="44.53966" lon="1.42744">
        <ele>191</ele>
        <time>2018-06-25T09:22:37.191Z</time>
      </trkpt>
      <trkpt lat="44.53952" lon="1.42739">
        <ele>191</ele>
        <time>2018-06-25T09:22:38.191Z</time>
      </trkpt>
      <trkpt lat="44.53945" lon="1.4274">
        <ele>191</ele>
        <time>2018-06-25T09:22:39.191Z</time>
      </trkpt>
      <trkpt lat="44.53926" lon="1.42753">
        <ele>191</ele>
        <time>2018-06-25T09:22:40.191Z</time>
      </trkpt>
      <trkpt lat="44.53872" lon="1.42771">
        <ele>190</ele>
        <time>2018-06-25T09:22:41.191Z</time>
      </trkpt>
      <trkpt lat="44.53864" lon="1.42776">
        <ele>190</ele>
        <time>2018-06-25T09:22:42.191Z</time>
      </trkpt>
      <trkpt lat="44.53844" lon="1.42799">
        <ele>189</ele>
        <time>2018-06-25T09:22:43.191Z</time>
      </trkpt>
      <trkpt lat="44.53817" lon="1.42817">
        <ele>189</ele>
        <time>2018-06-25T09:22:44.191Z</time>
      </trkpt>
      <trkpt lat="44.53796" lon="1.42827">
        <ele>190</ele>
        <time>2018-06-25T09:22:45.191Z</time>
      </trkpt>
      <trkpt lat="44.53758" lon="1.42838">
        <ele>192</ele>
        <time>2018-06-25T09:22:46.191Z</time>
      </trkpt>
      <trkpt lat="44.53756" lon="1.42864">
        <ele>191</ele>
        <time>2018-06-25T09:22:47.191Z</time>
      </trkpt>
      <trkpt lat="44.53751" lon="1.4289">
        <ele>191</ele>
        <time>2018-06-25T09:22:48.191Z</time>
      </trkpt>
      <trkpt lat="44.53736" lon="1.4295">
        <ele>192</ele>
        <time>2018-06-25T09:22:49.191Z</time>
      </trkpt>
      <trkpt lat="44.53721" lon="1.43062">
        <ele>196</ele>
        <time>2018-06-25T09:22:50.191Z</time>
      </trkpt>
      <trkpt lat="44.53715" lon="1.43205">
        <ele>197</ele>
        <time>2018-06-25T09:22:51.191Z</time>
      </trkpt>
      <trkpt lat="44.53713" lon="1.43232">
        <ele>197</ele>
        <time>2018-06-25T09:22:52.191Z</time>
      </trkpt>
      <trkpt lat="44.53708" lon="1.43259">
        <ele>198</ele>
        <time>2018-06-25T09:22:53.191Z</time>
      </trkpt>
      <trkpt lat="44.5367" lon="1.43409">
        <ele>205</ele>
        <time>2018-06-25T09:22:54.191Z</time>
      </trkpt>
      <trkpt lat="44.53665" lon="1.43438">
        <ele>206</ele>
        <time>2018-06-25T09:22:55.191Z</time>
      </trkpt>
      <trkpt lat="44.53659" lon="1.43502">
        <ele>208</ele>
        <time>2018-06-25T09:22:56.191Z</time>
      </trkpt>
      <trkpt lat="44.53657" lon="1.43723">
        <ele>206</ele>
        <time>2018-06-25T09:22:57.191Z</time>
      </trkpt>
      <trkpt lat="44.5367" lon="1.43842">
        <ele>204</ele>
        <time>2018-06-25T09:22:58.191Z</time>
      </trkpt>
      <trkpt lat="44.53675" lon="1.43917">
        <ele>206</ele>
        <time>2018-06-25T09:22:59.191Z</time>
      </trkpt>
      <trkpt lat="44.53679" lon="1.44009">
        <ele>207</ele>
        <time>2018-06-25T09:23:00.191Z</time>
      </trkpt>
      <trkpt lat="44.53681" lon="1.44165">
        <ele>212</ele>
        <time>2018-06-25T09:23:01.191Z</time>
      </trkpt>
      <trkpt lat="44.53679" lon="1.44192">
        <ele>213</ele>
        <time>2018-06-25T09:23:02.191Z</time>
      </trkpt>
      <trkpt lat="44.53659" lon="1.4428">
        <ele>216</ele>
        <time>2018-06-25T09:23:03.191Z</time>
      </trkpt>
      <trkpt lat="44.53651" lon="1.44297">
        <ele>215</ele>
        <time>2018-06-25T09:23:04.191Z</time>
      </trkpt>
      <trkpt lat="44.53641" lon="1.44307">
        <ele>216</ele>
        <time>2018-06-25T09:23:05.191Z</time>
      </trkpt>
      <trkpt lat="44.53629" lon="1.44312">
        <ele>216</ele>
        <time>2018-06-25T09:23:06.191Z</time>
      </trkpt>
      <trkpt lat="44.53538" lon="1.44286">
        <ele>223</ele>
        <time>2018-06-25T09:23:07.191Z</time>
      </trkpt>
      <trkpt lat="44.535" lon="1.44283">
        <ele>225</ele>
        <time>2018-06-25T09:23:08.191Z</time>
      </trkpt>
      <trkpt lat="44.53446" lon="1.44276">
        <ele>232</ele>
        <time>2018-06-25T09:23:09.191Z</time>
      </trkpt>
      <trkpt lat="44.53422" lon="1.44279">
        <ele>234</ele>
        <time>2018-06-25T09:23:10.191Z</time>
      </trkpt>
      <trkpt lat="44.53399" lon="1.44287">
        <ele>235</ele>
        <time>2018-06-25T09:23:11.191Z</time>
      </trkpt>
      <trkpt lat="44.53368" lon="1.44302">
        <ele>236</ele>
        <time>2018-06-25T09:23:12.191Z</time>
      </trkpt>
      <trkpt lat="44.53349" lon="1.44315">
        <ele>238</ele>
        <time>2018-06-25T09:23:13.191Z</time>
      </trkpt>
      <trkpt lat="44.53335" lon="1.44329">
        <ele>239</ele>
        <time>2018-06-25T09:23:14.191Z</time>
      </trkpt>
      <trkpt lat="44.53301" lon="1.44371">
        <ele>239</ele>
        <time>2018-06-25T09:23:15.191Z</time>
      </trkpt>
      <trkpt lat="44.53288" lon="1.44383">
        <ele>239</ele>
        <time>2018-06-25T09:23:16.191Z</time>
      </trkpt>
      <trkpt lat="44.53276" lon="1.44389">
        <ele>240</ele>
        <time>2018-06-25T09:23:17.191Z</time>
      </trkpt>
      <trkpt lat="44.53266" lon="1.4439">
        <ele>242</ele>
        <time>2018-06-25T09:23:18.191Z</time>
      </trkpt>
      <trkpt lat="44.53227" lon="1.44376">
        <ele>249</ele>
        <time>2018-06-25T09:23:19.191Z</time>
      </trkpt>
      <trkpt lat="44.53213" lon="1.44373">
        <ele>252</ele>
        <time>2018-06-25T09:23:20.191Z</time>
      </trkpt>
      <trkpt lat="44.53174" lon="1.44376">
        <ele>257</ele>
        <time>2018-06-25T09:23:21.191Z</time>
      </trkpt>
      <trkpt lat="44.5313" lon="1.44388">
        <ele>264</ele>
        <time>2018-06-25T09:23:22.191Z</time>
      </trkpt>
      <trkpt lat="44.53102" lon="1.444">
        <ele>268</ele>
        <time>2018-06-25T09:23:23.191Z</time>
      </trkpt>
      <trkpt lat="44.53087" lon="1.44411">
        <ele>270</ele>
        <time>2018-06-25T09:23:24.191Z</time>
      </trkpt>
      <trkpt lat="44.5306" lon="1.44434">
        <ele>273</ele>
        <time>2018-06-25T09:23:25.191Z</time>
      </trkpt>
      <trkpt lat="44.5304" lon="1.44457">
        <ele>274</ele>
        <time>2018-06-25T09:23:26.191Z</time>
      </trkpt>
      <trkpt lat="44.53002" lon="1.44515">
        <ele>275</ele>
        <time>2018-06-25T09:23:27.191Z</time>
      </trkpt>
      <trkpt lat="44.52921" lon="1.44609">
        <ele>286</ele>
        <time>2018-06-25T09:23:28.191Z</time>
      </trkpt>
      <trkpt lat="44.52908" lon="1.44629">
        <ele>286</ele>
        <time>2018-06-25T09:23:29.191Z</time>
      </trkpt>
      <trkpt lat="44.52878" lon="1.4469">
        <ele>287</ele>
        <time>2018-06-25T09:23:30.191Z</time>
      </trkpt>
      <trkpt lat="44.52864" lon="1.44715">
        <ele>288</ele>
        <time>2018-06-25T09:23:31.191Z</time>
      </trkpt>
      <trkpt lat="44.52845" lon="1.44747">
        <ele>291</ele>
        <time>2018-06-25T09:23:32.191Z</time>
      </trkpt>
      <trkpt lat="44.52824" lon="1.44778">
        <ele>293</ele>
        <time>2018-06-25T09:23:33.191Z</time>
      </trkpt>
      <trkpt lat="44.52806" lon="1.44811">
        <ele>295</ele>
        <time>2018-06-25T09:23:34.191Z</time>
      </trkpt>
      <trkpt lat="44.5279" lon="1.44855">
        <ele>299</ele>
        <time>2018-06-25T09:23:35.191Z</time>
      </trkpt>
      <trkpt lat="44.5277" lon="1.44947">
        <ele>307</ele>
        <time>2018-06-25T09:23:36.191Z</time>
      </trkpt>
      <trkpt lat="44.52769" lon="1.44967">
        <ele>308</ele>
        <time>2018-06-25T09:23:37.191Z</time>
      </trkpt>
      <trkpt lat="44.52773" lon="1.44987">
        <ele>308</ele>
        <time>2018-06-25T09:23:38.191Z</time>
      </trkpt>
      <trkpt lat="44.5278" lon="1.45007">
        <ele>309</ele>
        <time>2018-06-25T09:23:39.191Z</time>
      </trkpt>
      <trkpt lat="44.52799" lon="1.45052">
        <ele>312</ele>
        <time>2018-06-25T09:23:40.191Z</time>
      </trkpt>
      <trkpt lat="44.52821" lon="1.45097">
        <ele>313</ele>
        <time>2018-06-25T09:23:41.191Z</time>
      </trkpt>
      <trkpt lat="44.52826" lon="1.45116">
        <ele>313</ele>
        <time>2018-06-25T09:23:42.191Z</time>
      </trkpt>
      <trkpt lat="44.52826" lon="1.45137">
        <ele>313</ele>
        <time>2018-06-25T09:23:43.191Z</time>
      </trkpt>
      <trkpt lat="44.52815" lon="1.45184">
        <ele>313</ele>
        <time>2018-06-25T09:23:44.191Z</time>
      </trkpt>
      <trkpt lat="44.52805" lon="1.45209">
        <ele>312</ele>
        <time>2018-06-25T09:23:45.191Z</time>
      </trkpt>
      <trkpt lat="44.52795" lon="1.45225">
        <ele>311</ele>
        <time>2018-06-25T09:23:46.191Z</time>
      </trkpt>
      <trkpt lat="44.52783" lon="1.45237">
        <ele>310</ele>
        <time>2018-06-25T09:23:47.191Z</time>
      </trkpt>
      <trkpt lat="44.52772" lon="1.45244">
        <ele>309</ele>
        <time>2018-06-25T09:23:48.191Z</time>
      </trkpt>
      <trkpt lat="44.52757" lon="1.45244">
        <ele>309</ele>
        <time>2018-06-25T09:23:49.191Z</time>
      </trkpt>
      <trkpt lat="44.52719" lon="1.45229">
        <ele>310</ele>
        <time>2018-06-25T09:23:50.191Z</time>
      </trkpt>
      <trkpt lat="44.52701" lon="1.45226">
        <ele>310</ele>
        <time>2018-06-25T09:23:51.191Z</time>
      </trkpt>
      <trkpt lat="44.52684" lon="1.4523">
        <ele>310</ele>
        <time>2018-06-25T09:23:52.191Z</time>
      </trkpt>
      <trkpt lat="44.52664" lon="1.45244">
        <ele>309</ele>
        <time>2018-06-25T09:23:53.191Z</time>
      </trkpt>
      <trkpt lat="44.52642" lon="1.45271">
        <ele>306</ele>
        <time>2018-06-25T09:23:54.191Z</time>
      </trkpt>
      <trkpt lat="44.52623" lon="1.45315">
        <ele>305</ele>
        <time>2018-06-25T09:23:55.191Z</time>
      </trkpt>
      <trkpt lat="44.52579" lon="1.45406">
        <ele>315</ele>
        <time>2018-06-25T09:23:56.191Z</time>
      </trkpt>
      <trkpt lat="44.52546" lon="1.45448">
        <ele>319</ele>
        <time>2018-06-25T09:23:57.191Z</time>
      </trkpt>
      <trkpt lat="44.52513" lon="1.45477">
        <ele>322</ele>
        <time>2018-06-25T09:23:58.191Z</time>
      </trkpt>
      <trkpt lat="44.52484" lon="1.45481">
        <ele>324</ele>
        <time>2018-06-25T09:23:59.191Z</time>
      </trkpt>
      <trkpt lat="44.52421" lon="1.45484">
        <ele>329</ele>
        <time>2018-06-25T09:24:00.191Z</time>
      </trkpt>
      <trkpt lat="44.52415" lon="1.45487">
        <ele>330</ele>
        <time>2018-06-25T09:24:01.191Z</time>
      </trkpt>
      <trkpt lat="44.52412" lon="1.45479">
        <ele>329</ele>
        <time>2018-06-25T09:24:02.191Z</time>
      </trkpt>
      <trkpt lat="44.52438" lon="1.45491">
        <ele>328</ele>
        <time>2018-06-25T08:58:53.129Z</time>
      </trkpt>
      <trkpt lat="44.52438" lon="1.45483">
        <ele>328</ele>
        <time>2018-06-25T08:58:54.129Z</time>
      </trkpt>
      <trkpt lat="44.52422" lon="1.45484">
        <ele>329</ele>
        <time>2018-06-25T08:58:55.129Z</time>
      </trkpt>
      <trkpt lat="44.52416" lon="1.45487">
        <ele>330</ele>
        <time>2018-06-25T08:58:56.129Z</time>
      </trkpt>
      <trkpt lat="44.52458" lon="1.45627">
        <ele>334</ele>
        <time>2018-06-25T08:58:57.129Z</time>
      </trkpt>
      <trkpt lat="44.52475" lon="1.45668">
        <ele>335</ele>
        <time>2018-06-25T08:58:58.129Z</time>
      </trkpt>
      <trkpt lat="44.52489" lon="1.45694">
        <ele>335</ele>
        <time>2018-06-25T08:58:59.129Z</time>
      </trkpt>
      <trkpt lat="44.52518" lon="1.4573">
        <ele>333</ele>
        <time>2018-06-25T08:59:00.129Z</time>
      </trkpt>
      <trkpt lat="44.52534" lon="1.45761">
        <ele>331</ele>
        <time>2018-06-25T08:59:01.129Z</time>
      </trkpt>
      <trkpt lat="44.52547" lon="1.45798">
        <ele>330</ele>
        <time>2018-06-25T08:59:02.129Z</time>
      </trkpt>
      <trkpt lat="44.52579" lon="1.45959">
        <ele>334</ele>
        <time>2018-06-25T08:59:03.129Z</time>
      </trkpt>
      <trkpt lat="44.52569" lon="1.45963">
        <ele>334</ele>
        <time>2018-06-25T08:59:04.129Z</time>
      </trkpt>
      <trkpt lat="44.52507" lon="1.45976">
        <ele>333</ele>
        <time>2018-06-25T08:59:05.129Z</time>
      </trkpt>
      <trkpt lat="44.52486" lon="1.45983">
        <ele>332</ele>
        <time>2018-06-25T08:59:06.129Z</time>
      </trkpt>
      <trkpt lat="44.52473" lon="1.45991">
        <ele>332</ele>
        <time>2018-06-25T08:59:07.129Z</time>
      </trkpt>
      <trkpt lat="44.52376" lon="1.46105">
        <ele>332</ele>
        <time>2018-06-25T08:59:08.129Z</time>
      </trkpt>
      <trkpt lat="44.52304" lon="1.46154">
        <ele>334</ele>
        <time>2018-06-25T08:59:09.129Z</time>
      </trkpt>
      <trkpt lat="44.52257" lon="1.4636">
        <ele>340</ele>
        <time>2018-06-25T08:59:10.129Z</time>
      </trkpt>
      <trkpt lat="44.52254" lon="1.46569">
        <ele>321</ele>
        <time>2018-06-25T08:59:11.129Z</time>
      </trkpt>
      <trkpt lat="44.52267" lon="1.46694">
        <ele>312</ele>
        <time>2018-06-25T08:59:12.129Z</time>
      </trkpt>
      <trkpt lat="44.52254" lon="1.46759">
        <ele>312</ele>
        <time>2018-06-25T08:59:13.129Z</time>
      </trkpt>
      <trkpt lat="44.52214" lon="1.46829">
        <ele>315</ele>
        <time>2018-06-25T08:59:14.129Z</time>
      </trkpt>
      <trkpt lat="44.52098" lon="1.46813">
        <ele>312</ele>
        <time>2018-06-25T08:59:15.129Z</time>
      </trkpt>
      <trkpt lat="44.51936" lon="1.46832">
        <ele>305</ele>
        <time>2018-06-25T08:59:16.129Z</time>
      </trkpt>
      <trkpt lat="44.51814" lon="1.46818">
        <ele>299</ele>
        <time>2018-06-25T08:59:17.129Z</time>
      </trkpt>
      <trkpt lat="44.51729" lon="1.47">
        <ele>293</ele>
        <time>2018-06-25T08:59:18.129Z</time>
      </trkpt>
      <trkpt lat="44.51656" lon="1.47108">
        <ele>285</ele>
        <time>2018-06-25T08:59:19.129Z</time>
      </trkpt>
      <trkpt lat="44.51581" lon="1.47186">
        <ele>278</ele>
        <time>2018-06-25T08:59:20.129Z</time>
      </trkpt>
      <trkpt lat="44.51538" lon="1.47264">
        <ele>273</ele>
        <time>2018-06-25T08:59:21.129Z</time>
      </trkpt>
      <trkpt lat="44.51513" lon="1.47351">
        <ele>265</ele>
        <time>2018-06-25T08:59:22.129Z</time>
      </trkpt>
      <trkpt lat="44.51452" lon="1.47482">
        <ele>252</ele>
        <time>2018-06-25T08:59:23.129Z</time>
      </trkpt>
      <trkpt lat="44.51405" lon="1.47635">
        <ele>240</ele>
        <time>2018-06-25T08:59:24.129Z</time>
      </trkpt>
      <trkpt lat="44.5141" lon="1.47702">
        <ele>235</ele>
        <time>2018-06-25T08:59:25.129Z</time>
      </trkpt>
      <trkpt lat="44.51352" lon="1.47845">
        <ele>220</ele>
        <time>2018-06-25T08:59:26.129Z</time>
      </trkpt>
      <trkpt lat="44.51461" lon="1.47891">
        <ele>208</ele>
        <time>2018-06-25T08:59:27.129Z</time>
      </trkpt>
      <trkpt lat="44.5151" lon="1.47886">
        <ele>203</ele>
        <time>2018-06-25T08:59:28.129Z</time>
      </trkpt>
      <trkpt lat="44.5155" lon="1.47804">
        <ele>206</ele>
        <time>2018-06-25T08:59:29.129Z</time>
      </trkpt>
      <trkpt lat="44.5157" lon="1.47928">
        <ele>190</ele>
        <time>2018-06-25T08:59:30.129Z</time>
      </trkpt>
      <trkpt lat="44.51608" lon="1.48007">
        <ele>192</ele>
        <time>2018-06-25T08:59:31.129Z</time>
      </trkpt>
      <trkpt lat="44.51543" lon="1.48053">
        <ele>195</ele>
        <time>2018-06-25T08:59:32.129Z</time>
      </trkpt>
      <trkpt lat="44.51347" lon="1.48052">
        <ele>184</ele>
        <time>2018-06-25T08:59:33.129Z</time>
      </trkpt>
      <trkpt lat="44.51308" lon="1.48072">
        <ele>180</ele>
        <time>2018-06-25T08:59:34.129Z</time>
      </trkpt>
      <trkpt lat="44.51354" lon="1.48215">
        <ele>185</ele>
        <time>2018-06-25T08:59:35.129Z</time>
      </trkpt>
      <trkpt lat="44.51381" lon="1.48406">
        <ele>185</ele>
        <time>2018-06-25T08:59:36.129Z</time>
      </trkpt>
      <trkpt lat="44.51355" lon="1.48668">
        <ele>181</ele>
        <time>2018-06-25T08:59:37.129Z</time>
      </trkpt>
      <trkpt lat="44.51407" lon="1.48734">
        <ele>182</ele>
        <time>2018-06-25T08:59:38.129Z</time>
      </trkpt>
      <trkpt lat="44.5139" lon="1.48807">
        <ele>185</ele>
        <time>2018-06-25T08:59:39.129Z</time>
      </trkpt>
      <trkpt lat="44.5139" lon="1.48933">
        <ele>193</ele>
        <time>2018-06-25T08:59:40.129Z</time>
      </trkpt>
      <trkpt lat="44.51453" lon="1.49168">
        <ele>196</ele>
        <time>2018-06-25T08:59:41.129Z</time>
      </trkpt>
      <trkpt lat="44.51506" lon="1.49271">
        <ele>195</ele>
        <time>2018-06-25T08:59:42.129Z</time>
      </trkpt>
      <trkpt lat="44.51522" lon="1.49338">
        <ele>200</ele>
        <time>2018-06-25T08:59:43.129Z</time>
      </trkpt>
      <trkpt lat="44.51523" lon="1.49413">
        <ele>201</ele>
        <time>2018-06-25T08:59:44.129Z</time>
      </trkpt>
      <trkpt lat="44.51541" lon="1.49475">
        <ele>201</ele>
        <time>2018-06-25T08:59:45.129Z</time>
      </trkpt>
      <trkpt lat="44.51585" lon="1.49529">
        <ele>203</ele>
        <time>2018-06-25T08:59:46.129Z</time>
      </trkpt>
      <trkpt lat="44.51716" lon="1.49593">
        <ele>205</ele>
        <time>2018-06-25T08:59:47.129Z</time>
      </trkpt>
      <trkpt lat="44.5177" lon="1.4964">
        <ele>208</ele>
        <time>2018-06-25T08:59:48.129Z</time>
      </trkpt>
      <trkpt lat="44.51811" lon="1.49646">
        <ele>209</ele>
        <time>2018-06-25T08:59:49.129Z</time>
      </trkpt>
      <trkpt lat="44.52037" lon="1.49749">
        <ele>221</ele>
        <time>2018-06-25T08:59:50.129Z</time>
      </trkpt>
      <trkpt lat="44.52095" lon="1.49799">
        <ele>220</ele>
        <time>2018-06-25T08:59:51.129Z</time>
      </trkpt>
      <trkpt lat="44.52127" lon="1.49793">
        <ele>222</ele>
        <time>2018-06-25T08:59:52.129Z</time>
      </trkpt>
      <trkpt lat="44.52122" lon="1.49786">
        <ele>222</ele>
        <time>2018-06-25T08:59:53.129Z</time>
      </trkpt>
      <trkpt lat="44.52146" lon="1.49794">
        <ele>223</ele>
        <time>2018-06-25T08:59:54.129Z</time>
      </trkpt>
      <trkpt lat="44.52434" lon="1.5023">
        <ele>247</ele>
        <time>2018-06-25T08:59:55.129Z</time>
      </trkpt>
      <trkpt lat="44.52471" lon="1.50259">
        <ele>251</ele>
        <time>2018-06-25T08:59:56.129Z</time>
      </trkpt>
      <trkpt lat="44.52534" lon="1.50342">
        <ele>258</ele>
        <time>2018-06-25T08:59:57.129Z</time>
      </trkpt>
      <trkpt lat="44.5259" lon="1.50457">
        <ele>255</ele>
        <time>2018-06-25T08:59:58.129Z</time>
      </trkpt>
      <trkpt lat="44.52634" lon="1.50498">
        <ele>257</ele>
        <time>2018-06-25T08:59:59.129Z</time>
      </trkpt>
      <trkpt lat="44.52725" lon="1.50637">
        <ele>273</ele>
        <time>2018-06-25T09:00:00.129Z</time>
      </trkpt>
      <trkpt lat="44.52756" lon="1.5073">
        <ele>278</ele>
        <time>2018-06-25T09:00:01.129Z</time>
      </trkpt>
      <trkpt lat="44.52757" lon="1.50787">
        <ele>281</ele>
        <time>2018-06-25T09:00:02.129Z</time>
      </trkpt>
      <trkpt lat="44.5278" lon="1.50891">
        <ele>288</ele>
        <time>2018-06-25T09:00:03.129Z</time>
      </trkpt>
      <trkpt lat="44.52778" lon="1.50927">
        <ele>288</ele>
        <time>2018-06-25T09:00:04.129Z</time>
      </trkpt>
      <trkpt lat="44.52763" lon="1.50933">
        <ele>288</ele>
        <time>2018-06-25T09:00:05.129Z</time>
      </trkpt>
      <trkpt lat="44.52734" lon="1.5091">
        <ele>289</ele>
        <time>2018-06-25T09:00:06.129Z</time>
      </trkpt>
      <trkpt lat="44.527" lon="1.5081">
        <ele>291</ele>
        <time>2018-06-25T09:00:07.129Z</time>
      </trkpt>
      <trkpt lat="44.52635" lon="1.50753">
        <ele>290</ele>
        <time>2018-06-25T09:00:08.129Z</time>
      </trkpt>
      <trkpt lat="44.52622" lon="1.50762">
        <ele>291</ele>
        <time>2018-06-25T09:00:09.129Z</time>
      </trkpt>
      <trkpt lat="44.52612" lon="1.50823">
        <ele>299</ele>
        <time>2018-06-25T09:00:10.129Z</time>
      </trkpt>
      <trkpt lat="44.52618" lon="1.50939">
        <ele>313</ele>
        <time>2018-06-25T09:00:11.129Z</time>
      </trkpt>
      <trkpt lat="44.52596" lon="1.50947">
        <ele>314</ele>
        <time>2018-06-25T09:00:12.129Z</time>
      </trkpt>
      <trkpt lat="44.52561" lon="1.51015">
        <ele>322</ele>
        <time>2018-06-25T09:00:13.129Z</time>
      </trkpt>
      <trkpt lat="44.52513" lon="1.51055">
        <ele>325</ele>
        <time>2018-06-25T09:00:14.129Z</time>
      </trkpt>
      <trkpt lat="44.52462" lon="1.51045">
        <ele>325</ele>
        <time>2018-06-25T09:00:15.129Z</time>
      </trkpt>
      <trkpt lat="44.52396" lon="1.5098">
        <ele>324</ele>
        <time>2018-06-25T09:00:16.129Z</time>
      </trkpt>
      <trkpt lat="44.5229" lon="1.50978">
        <ele>322</ele>
        <time>2018-06-25T09:00:17.129Z</time>
      </trkpt>
      <trkpt lat="44.52238" lon="1.5095">
        <ele>319</ele>
        <time>2018-06-25T09:00:18.129Z</time>
      </trkpt>
      <trkpt lat="44.52189" lon="1.50829">
        <ele>312</ele>
        <time>2018-06-25T09:00:19.129Z</time>
      </trkpt>
      <trkpt lat="44.52177" lon="1.5082">
        <ele>312</ele>
        <time>2018-06-25T09:00:20.129Z</time>
      </trkpt>
      <trkpt lat="44.52155" lon="1.50835">
        <ele>311</ele>
        <time>2018-06-25T09:00:21.129Z</time>
      </trkpt>
      <trkpt lat="44.52081" lon="1.50964">
        <ele>314</ele>
        <time>2018-06-25T09:00:22.129Z</time>
      </trkpt>
      <trkpt lat="44.51957" lon="1.50957">
        <ele>318</ele>
        <time>2018-06-25T09:00:23.129Z</time>
      </trkpt>
      <trkpt lat="44.51955" lon="1.50975">
        <ele>319</ele>
        <time>2018-06-25T09:00:24.129Z</time>
      </trkpt>
      <trkpt lat="44.52055" lon="1.51061">
        <ele>326</ele>
        <time>2018-06-25T09:00:25.129Z</time>
      </trkpt>
      <trkpt lat="44.52176" lon="1.51063">
        <ele>332</ele>
        <time>2018-06-25T09:00:26.129Z</time>
      </trkpt>
      <trkpt lat="44.52399" lon="1.51127">
        <ele>330</ele>
        <time>2018-06-25T09:00:27.129Z</time>
      </trkpt>
      <trkpt lat="44.52667" lon="1.51283">
        <ele>333</ele>
        <time>2018-06-25T09:00:28.129Z</time>
      </trkpt>
      <trkpt lat="44.52766" lon="1.51374">
        <ele>337</ele>
        <time>2018-06-25T09:00:29.129Z</time>
      </trkpt>
      <trkpt lat="44.52815" lon="1.51495">
        <ele>344</ele>
        <time>2018-06-25T09:00:30.129Z</time>
      </trkpt>
      <trkpt lat="44.52729" lon="1.51545">
        <ele>330</ele>
        <time>2018-06-25T09:00:31.129Z</time>
      </trkpt>
      <trkpt lat="44.52639" lon="1.51572">
        <ele>308</ele>
        <time>2018-06-25T09:00:32.129Z</time>
      </trkpt>
      <trkpt lat="44.52624" lon="1.51556">
        <ele>303</ele>
        <time>2018-06-25T09:00:33.129Z</time>
      </trkpt>
      <trkpt lat="44.52642" lon="1.51455">
        <ele>309</ele>
        <time>2018-06-25T09:00:34.129Z</time>
      </trkpt>
      <trkpt lat="44.5261" lon="1.51447">
        <ele>305</ele>
        <time>2018-06-25T09:00:35.129Z</time>
      </trkpt>
      <trkpt lat="44.52575" lon="1.51467">
        <ele>297</ele>
        <time>2018-06-25T09:00:36.129Z</time>
      </trkpt>
      <trkpt lat="44.52506" lon="1.51543">
        <ele>281</ele>
        <time>2018-06-25T09:00:37.129Z</time>
      </trkpt>
      <trkpt lat="44.52413" lon="1.51536">
        <ele>275</ele>
        <time>2018-06-25T09:00:38.129Z</time>
      </trkpt>
      <trkpt lat="44.52368" lon="1.5155">
        <ele>272</ele>
        <time>2018-06-25T09:00:39.129Z</time>
      </trkpt>
      <trkpt lat="44.52257" lon="1.51668">
        <ele>257</ele>
        <time>2018-06-25T09:00:40.129Z</time>
      </trkpt>
      <trkpt lat="44.52177" lon="1.51711">
        <ele>259</ele>
        <time>2018-06-25T09:00:41.129Z</time>
      </trkpt>
      <trkpt lat="44.52101" lon="1.51719">
        <ele>254</ele>
        <time>2018-06-25T09:00:42.129Z</time>
      </trkpt>
      <trkpt lat="44.51924" lon="1.51827">
        <ele>239</ele>
        <time>2018-06-25T09:00:43.129Z</time>
      </trkpt>
      <trkpt lat="44.51792" lon="1.51811">
        <ele>231</ele>
        <time>2018-06-25T09:00:44.129Z</time>
      </trkpt>
      <trkpt lat="44.51695" lon="1.51906">
        <ele>223</ele>
        <time>2018-06-25T09:00:45.129Z</time>
      </trkpt>
      <trkpt lat="44.51671" lon="1.519">
        <ele>221</ele>
        <time>2018-06-25T09:00:46.129Z</time>
      </trkpt>
      <trkpt lat="44.51551" lon="1.51961">
        <ele>225</ele>
        <time>2018-06-25T09:00:47.129Z</time>
      </trkpt>
      <trkpt lat="44.51498" lon="1.51958">
        <ele>227</ele>
        <time>2018-06-25T09:00:48.129Z</time>
      </trkpt>
      <trkpt lat="44.51472" lon="1.51977">
        <ele>224</ele>
        <time>2018-06-25T09:00:49.129Z</time>
      </trkpt>
      <trkpt lat="44.51437" lon="1.51974">
        <ele>224</ele>
        <time>2018-06-25T09:00:50.129Z</time>
      </trkpt>
      <trkpt lat="44.51345" lon="1.51928">
        <ele>220</ele>
        <time>2018-06-25T09:00:51.129Z</time>
      </trkpt>
      <trkpt lat="44.51211" lon="1.51931">
        <ele>216</ele>
        <time>2018-06-25T09:00:52.129Z</time>
      </trkpt>
      <trkpt lat="44.51121" lon="1.51898">
        <ele>216</ele>
        <time>2018-06-25T09:00:53.129Z</time>
      </trkpt>
      <trkpt lat="44.50942" lon="1.51743">
        <ele>211</ele>
        <time>2018-06-25T09:00:54.129Z</time>
      </trkpt>
      <trkpt lat="44.50823" lon="1.51583">
        <ele>212</ele>
        <time>2018-06-25T09:00:55.129Z</time>
      </trkpt>
      <trkpt lat="44.50752" lon="1.51559">
        <ele>208</ele>
        <time>2018-06-25T09:00:56.129Z</time>
      </trkpt>
      <trkpt lat="44.50697" lon="1.51496">
        <ele>208</ele>
        <time>2018-06-25T09:00:57.129Z</time>
      </trkpt>
      <trkpt lat="44.50604" lon="1.51239">
        <ele>198</ele>
        <time>2018-06-25T09:00:58.129Z</time>
      </trkpt>
      <trkpt lat="44.50487" lon="1.51191">
        <ele>195</ele>
        <time>2018-06-25T09:00:59.129Z</time>
      </trkpt>
      <trkpt lat="44.50294" lon="1.51044">
        <ele>198</ele>
        <time>2018-06-25T09:01:00.129Z</time>
      </trkpt>
      <trkpt lat="44.50257" lon="1.51095">
        <ele>192</ele>
        <time>2018-06-25T09:01:01.129Z</time>
      </trkpt>
      <trkpt lat="44.50208" lon="1.51106">
        <ele>189</ele>
        <time>2018-06-25T09:01:02.129Z</time>
      </trkpt>
      <trkpt lat="44.50193" lon="1.51189">
        <ele>187</ele>
        <time>2018-06-25T09:01:03.129Z</time>
      </trkpt>
      <trkpt lat="44.50143" lon="1.51186">
        <ele>186</ele>
        <time>2018-06-25T09:01:04.129Z</time>
      </trkpt>
      <trkpt lat="44.49977" lon="1.5132">
        <ele>189</ele>
        <time>2018-06-25T09:01:05.129Z</time>
      </trkpt>
      <trkpt lat="44.49915" lon="1.51345">
        <ele>185</ele>
        <time>2018-06-25T09:01:06.129Z</time>
      </trkpt>
      <trkpt lat="44.49881" lon="1.5134">
        <ele>184</ele>
        <time>2018-06-25T09:01:07.129Z</time>
      </trkpt>
      <trkpt lat="44.49772" lon="1.51392">
        <ele>186</ele>
        <time>2018-06-25T09:01:08.129Z</time>
      </trkpt>
      <trkpt lat="44.49685" lon="1.51389">
        <ele>181</ele>
        <time>2018-06-25T09:01:09.129Z</time>
      </trkpt>
      <trkpt lat="44.49615" lon="1.51438">
        <ele>182</ele>
        <time>2018-06-25T09:01:10.129Z</time>
      </trkpt>
      <trkpt lat="44.49524" lon="1.51462">
        <ele>181</ele>
        <time>2018-06-25T09:01:11.129Z</time>
      </trkpt>
      <trkpt lat="44.49496" lon="1.51486">
        <ele>182</ele>
        <time>2018-06-25T09:01:12.129Z</time>
      </trkpt>
      <trkpt lat="44.49466" lon="1.51476">
        <ele>180</ele>
        <time>2018-06-25T09:01:13.129Z</time>
      </trkpt>
      <trkpt lat="44.49401" lon="1.51483">
        <ele>180</ele>
        <time>2018-06-25T09:01:14.129Z</time>
      </trkpt>
      <trkpt lat="44.49363" lon="1.51472">
        <ele>182</ele>
        <time>2018-06-25T09:01:15.129Z</time>
      </trkpt>
      <trkpt lat="44.49263" lon="1.51395">
        <ele>176</ele>
        <time>2018-06-25T09:01:16.129Z</time>
      </trkpt>
      <trkpt lat="44.49152" lon="1.51409">
        <ele>177</ele>
        <time>2018-06-25T09:01:17.129Z</time>
      </trkpt>
      <trkpt lat="44.49077" lon="1.51397">
        <ele>176</ele>
        <time>2018-06-25T09:01:18.129Z</time>
      </trkpt>
      <trkpt lat="44.49042" lon="1.51376">
        <ele>176</ele>
        <time>2018-06-25T09:01:19.129Z</time>
      </trkpt>
      <trkpt lat="44.4899" lon="1.51311">
        <ele>167</ele>
        <time>2018-06-25T09:01:20.129Z</time>
      </trkpt>
      <trkpt lat="44.48952" lon="1.51301">
        <ele>166</ele>
        <time>2018-06-25T09:01:21.129Z</time>
      </trkpt>
      <trkpt lat="44.48694" lon="1.51352">
        <ele>161</ele>
        <time>2018-06-25T09:01:22.129Z</time>
      </trkpt>
      <trkpt lat="44.4859" lon="1.51457">
        <ele>160</ele>
        <time>2018-06-25T09:01:23.129Z</time>
      </trkpt>
      <trkpt lat="44.48453" lon="1.5155">
        <ele>159</ele>
        <time>2018-06-25T09:01:24.129Z</time>
      </trkpt>
      <trkpt lat="44.4841" lon="1.51556">
        <ele>155</ele>
        <time>2018-06-25T09:01:25.129Z</time>
      </trkpt>
      <trkpt lat="44.48402" lon="1.51571">
        <ele>154</ele>
        <time>2018-06-25T09:01:26.129Z</time>
      </trkpt>
      <trkpt lat="44.48423" lon="1.51626">
        <ele>157</ele>
        <time>2018-06-25T09:01:27.129Z</time>
      </trkpt>
      <trkpt lat="44.48346" lon="1.51831">
        <ele>157</ele>
        <time>2018-06-25T09:01:28.129Z</time>
      </trkpt>
      <trkpt lat="44.48292" lon="1.51897">
        <ele>156</ele>
        <time>2018-06-25T09:01:29.129Z</time>
      </trkpt>
      <trkpt lat="44.48163" lon="1.51974">
        <ele>152</ele>
        <time>2018-06-25T09:01:30.129Z</time>
      </trkpt>
      <trkpt lat="44.48111" lon="1.52142">
        <ele>152</ele>
        <time>2018-06-25T09:01:31.129Z</time>
      </trkpt>
      <trkpt lat="44.48148" lon="1.52296">
        <ele>166</ele>
        <time>2018-06-25T09:01:32.129Z</time>
      </trkpt>
      <trkpt lat="44.48155" lon="1.526">
        <ele>183</ele>
        <time>2018-06-25T09:01:33.129Z</time>
      </trkpt>
      <trkpt lat="44.48137" lon="1.52726">
        <ele>190</ele>
        <time>2018-06-25T09:01:34.129Z</time>
      </trkpt>
      <trkpt lat="44.48146" lon="1.52787">
        <ele>194</ele>
        <time>2018-06-25T09:01:35.129Z</time>
      </trkpt>
      <trkpt lat="44.482" lon="1.52858">
        <ele>203</ele>
        <time>2018-06-25T09:01:36.129Z</time>
      </trkpt>
      <trkpt lat="44.48198" lon="1.52825">
        <ele>200</ele>
        <time>2018-06-25T09:01:37.129Z</time>
      </trkpt>
      <trkpt lat="44.48231" lon="1.52752">
        <ele>203</ele>
        <time>2018-06-25T09:01:38.129Z</time>
      </trkpt>
      <trkpt lat="44.4825" lon="1.52799">
        <ele>209</ele>
        <time>2018-06-25T09:01:39.129Z</time>
      </trkpt>
      <trkpt lat="44.48329" lon="1.52838">
        <ele>226</ele>
        <time>2018-06-25T09:01:40.129Z</time>
      </trkpt>
      <trkpt lat="44.48344" lon="1.52803">
        <ele>226</ele>
        <time>2018-06-25T09:01:41.129Z</time>
      </trkpt>
      <trkpt lat="44.48409" lon="1.5281">
        <ele>236</ele>
        <time>2018-06-25T09:01:42.129Z</time>
      </trkpt>
      <trkpt lat="44.48441" lon="1.52864">
        <ele>244</ele>
        <time>2018-06-25T09:01:43.129Z</time>
      </trkpt>
      <trkpt lat="44.48402" lon="1.53018">
        <ele>249</ele>
        <time>2018-06-25T09:01:44.129Z</time>
      </trkpt>
      <trkpt lat="44.48389" lon="1.53137">
        <ele>257</ele>
        <time>2018-06-25T09:01:45.129Z</time>
      </trkpt>
      <trkpt lat="44.48317" lon="1.53263">
        <ele>255</ele>
        <time>2018-06-25T09:01:46.129Z</time>
      </trkpt>
      <trkpt lat="44.48316" lon="1.53283">
        <ele>254</ele>
        <time>2018-06-25T09:01:47.129Z</time>
      </trkpt>
      <trkpt lat="44.48533" lon="1.53497">
        <ele>280</ele>
        <time>2018-06-25T09:01:48.129Z</time>
      </trkpt>
      <trkpt lat="44.48531" lon="1.53553">
        <ele>277</ele>
        <time>2018-06-25T09:01:49.129Z</time>
      </trkpt>
      <trkpt lat="44.48558" lon="1.5367">
        <ele>273</ele>
        <time>2018-06-25T09:01:50.129Z</time>
      </trkpt>
      <trkpt lat="44.48585" lon="1.5372">
        <ele>276</ele>
        <time>2018-06-25T09:01:51.129Z</time>
      </trkpt>
      <trkpt lat="44.48614" lon="1.53717">
        <ele>273</ele>
        <time>2018-06-25T09:01:52.129Z</time>
      </trkpt>
      <trkpt lat="44.48656" lon="1.53847">
        <ele>271</ele>
        <time>2018-06-25T09:01:53.129Z</time>
      </trkpt>
      <trkpt lat="44.48709" lon="1.53938">
        <ele>271</ele>
        <time>2018-06-25T09:01:54.129Z</time>
      </trkpt>
      <trkpt lat="44.48657" lon="1.54015">
        <ele>269</ele>
        <time>2018-06-25T09:01:55.129Z</time>
      </trkpt>
      <trkpt lat="44.48602" lon="1.5416">
        <ele>269</ele>
        <time>2018-06-25T09:01:56.129Z</time>
      </trkpt>
      <trkpt lat="44.48563" lon="1.54203">
        <ele>268</ele>
        <time>2018-06-25T09:01:57.129Z</time>
      </trkpt>
      <trkpt lat="44.4861" lon="1.54424">
        <ele>236</ele>
        <time>2018-06-25T09:01:58.129Z</time>
      </trkpt>
      <trkpt lat="44.48573" lon="1.54577">
        <ele>220</ele>
        <time>2018-06-25T09:01:59.129Z</time>
      </trkpt>
      <trkpt lat="44.48609" lon="1.54646">
        <ele>218</ele>
        <time>2018-06-25T09:02:00.129Z</time>
      </trkpt>
      <trkpt lat="44.48606" lon="1.5467">
        <ele>217</ele>
        <time>2018-06-25T09:02:01.129Z</time>
      </trkpt>
      <trkpt lat="44.48481" lon="1.54856">
        <ele>214</ele>
        <time>2018-06-25T09:02:02.129Z</time>
      </trkpt>
      <trkpt lat="44.48463" lon="1.54912">
        <ele>213</ele>
        <time>2018-06-25T09:02:03.129Z</time>
      </trkpt>
      <trkpt lat="44.48452" lon="1.55014">
        <ele>199</ele>
        <time>2018-06-25T09:02:04.129Z</time>
      </trkpt>
      <trkpt lat="44.48559" lon="1.55062">
        <ele>193</ele>
        <time>2018-06-25T09:02:05.129Z</time>
      </trkpt>
      <trkpt lat="44.48528" lon="1.55061">
        <ele>188</ele>
        <time>2018-06-25T09:02:06.129Z</time>
      </trkpt>
      <trkpt lat="44.48585" lon="1.55143">
        <ele>169</ele>
        <time>2018-06-25T09:02:07.129Z</time>
      </trkpt>
      <trkpt lat="44.48541" lon="1.55131">
        <ele>165</ele>
        <time>2018-06-25T09:02:08.129Z</time>
      </trkpt>
      <trkpt lat="44.48475" lon="1.55144">
        <ele>150</ele>
        <time>2018-06-25T09:02:09.129Z</time>
      </trkpt>
      <trkpt lat="44.48534" lon="1.55188">
        <ele>145</ele>
        <time>2018-06-25T09:02:10.129Z</time>
      </trkpt>
      <trkpt lat="44.48533" lon="1.55188">
        <ele>145</ele>
        <time>2018-06-25T09:02:11.129Z</time>
      </trkpt>
      <trkpt lat="44.4854" lon="1.55199">
        <ele>143</ele>
        <time>2018-06-25T09:02:12.129Z</time>
      </trkpt>
      <trkpt lat="44.48536" lon="1.55202">
        <ele>142</ele>
        <time>2018-06-25T09:02:13.129Z</time>
      </trkpt>
      <trkpt lat="44.48535" lon="1.55207">
        <ele>141</ele>
        <time>2018-06-25T09:02:14.129Z</time>
      </trkpt>
      <trkpt lat="44.4853" lon="1.55199">
        <ele>142</ele>
        <time>2018-06-25T09:02:15.129Z</time>
      </trkpt>
      <trkpt lat="44.485" lon="1.55174">
        <ele>141</ele>
        <time>2018-06-25T09:02:16.129Z</time>
      </trkpt>
      <trkpt lat="44.48477" lon="1.55158">
        <ele>144</ele>
        <time>2018-06-25T09:02:17.129Z</time>
      </trkpt>
      <trkpt lat="44.48459" lon="1.55152">
        <ele>145</ele>
        <time>2018-06-25T09:02:18.129Z</time>
      </trkpt>
      <trkpt lat="44.48382" lon="1.55147">
        <ele>146</ele>
        <time>2018-06-25T09:02:19.129Z</time>
      </trkpt>
      <trkpt lat="44.48334" lon="1.55158">
        <ele>141</ele>
        <time>2018-06-25T09:02:20.129Z</time>
      </trkpt>
      <trkpt lat="44.48313" lon="1.55159">
        <ele>138</ele>
        <time>2018-06-25T09:02:21.129Z</time>
      </trkpt>
      <trkpt lat="44.48315" lon="1.55171">
        <ele>133</ele>
        <time>2018-06-25T09:02:22.129Z</time>
      </trkpt>
      <trkpt lat="44.48315" lon="1.55183">
        <ele>132</ele>
        <time>2018-06-25T09:02:23.129Z</time>
      </trkpt>
      <trkpt lat="44.48141" lon="1.5551">
        <ele>136</ele>
        <time>2018-06-25T09:02:24.129Z</time>
      </trkpt>
      <trkpt lat="44.48132" lon="1.55518">
        <ele>139</ele>
        <time>2018-06-25T09:02:25.129Z</time>
      </trkpt>
      <trkpt lat="44.48124" lon="1.55521">
        <ele>141</ele>
        <time>2018-06-25T09:02:26.129Z</time>
      </trkpt>
      <trkpt lat="44.48117" lon="1.55521">
        <ele>142</ele>
        <time>2018-06-25T09:02:27.129Z</time>
      </trkpt>
      <trkpt lat="44.48107" lon="1.55515">
        <ele>143</ele>
        <time>2018-06-25T09:02:28.129Z</time>
      </trkpt>
      <trkpt lat="44.48088" lon="1.55493">
        <ele>141</ele>
        <time>2018-06-25T09:02:29.129Z</time>
      </trkpt>
      <trkpt lat="44.48069" lon="1.55482">
        <ele>140</ele>
        <time>2018-06-25T09:02:30.129Z</time>
      </trkpt>
      <trkpt lat="44.48046" lon="1.5548">
        <ele>140</ele>
        <time>2018-06-25T09:02:31.129Z</time>
      </trkpt>
      <trkpt lat="44.48017" lon="1.55486">
        <ele>142</ele>
        <time>2018-06-25T09:02:32.129Z</time>
      </trkpt>
      <trkpt lat="44.4799" lon="1.55503">
        <ele>145</ele>
        <time>2018-06-25T09:02:33.129Z</time>
      </trkpt>
      <trkpt lat="44.47955" lon="1.55537">
        <ele>148</ele>
        <time>2018-06-25T09:02:34.129Z</time>
      </trkpt>
      <trkpt lat="44.47941" lon="1.55556">
        <ele>150</ele>
        <time>2018-06-25T09:02:35.129Z</time>
      </trkpt>
      <trkpt lat="44.47915" lon="1.55604">
        <ele>152</ele>
        <time>2018-06-25T09:02:36.129Z</time>
      </trkpt>
      <trkpt lat="44.47905" lon="1.55612">
        <ele>153</ele>
        <time>2018-06-25T09:02:37.129Z</time>
      </trkpt>
      <trkpt lat="44.47895" lon="1.55616">
        <ele>153</ele>
        <time>2018-06-25T09:02:38.129Z</time>
      </trkpt>
      <trkpt lat="44.47851" lon="1.55623">
        <ele>152</ele>
        <time>2018-06-25T09:02:39.129Z</time>
      </trkpt>
      <trkpt lat="44.47835" lon="1.55627">
        <ele>152</ele>
        <time>2018-06-25T09:02:40.129Z</time>
      </trkpt>
      <trkpt lat="44.4779" lon="1.55647">
        <ele>151</ele>
        <time>2018-06-25T09:02:41.129Z</time>
      </trkpt>
      <trkpt lat="44.47761" lon="1.55664">
        <ele>151</ele>
        <time>2018-06-25T09:02:42.129Z</time>
      </trkpt>
      <trkpt lat="44.47729" lon="1.55697">
        <ele>151</ele>
        <time>2018-06-25T09:02:43.129Z</time>
      </trkpt>
      <trkpt lat="44.47722" lon="1.55833">
        <ele>149</ele>
        <time>2018-06-25T09:02:44.129Z</time>
      </trkpt>
      <trkpt lat="44.47713" lon="1.55843">
        <ele>148</ele>
        <time>2018-06-25T09:02:45.129Z</time>
      </trkpt>
      <trkpt lat="44.47702" lon="1.55845">
        <ele>148</ele>
        <time>2018-06-25T09:02:46.129Z</time>
      </trkpt>
      <trkpt lat="44.47656" lon="1.55824">
        <ele>154</ele>
        <time>2018-06-25T09:02:47.129Z</time>
      </trkpt>
      <trkpt lat="44.47637" lon="1.55806">
        <ele>160</ele>
        <time>2018-06-25T09:02:48.129Z</time>
      </trkpt>
      <trkpt lat="44.47625" lon="1.55791">
        <ele>164</ele>
        <time>2018-06-25T09:02:49.129Z</time>
      </trkpt>
      <trkpt lat="44.47595" lon="1.55728">
        <ele>178</ele>
        <time>2018-06-25T09:02:50.129Z</time>
      </trkpt>
      <trkpt lat="44.47561" lon="1.55633">
        <ele>188</ele>
        <time>2018-06-25T09:02:51.129Z</time>
      </trkpt>
      <trkpt lat="44.47553" lon="1.55623">
        <ele>190</ele>
        <time>2018-06-25T09:02:52.129Z</time>
      </trkpt>
      <trkpt lat="44.4755" lon="1.55623">
        <ele>191</ele>
        <time>2018-06-25T09:02:53.129Z</time>
      </trkpt>
      <trkpt lat="44.47549" lon="1.5563">
        <ele>192</ele>
        <time>2018-06-25T09:02:54.129Z</time>
      </trkpt>
      <trkpt lat="44.47552" lon="1.55659">
        <ele>192</ele>
        <time>2018-06-25T09:02:55.129Z</time>
      </trkpt>
      <trkpt lat="44.47556" lon="1.55681">
        <ele>192</ele>
        <time>2018-06-25T09:02:56.129Z</time>
      </trkpt>
      <trkpt lat="44.47556" lon="1.55702">
        <ele>192</ele>
        <time>2018-06-25T09:02:57.129Z</time>
      </trkpt>
      <trkpt lat="44.47554" lon="1.55711">
        <ele>193</ele>
        <time>2018-06-25T09:02:58.129Z</time>
      </trkpt>
      <trkpt lat="44.4755" lon="1.55706">
        <ele>194</ele>
        <time>2018-06-25T09:02:59.129Z</time>
      </trkpt>
      <trkpt lat="44.47519" lon="1.55636">
        <ele>203</ele>
        <time>2018-06-25T09:03:00.129Z</time>
      </trkpt>
      <trkpt lat="44.47506" lon="1.556">
        <ele>207</ele>
        <time>2018-06-25T09:03:01.129Z</time>
      </trkpt>
      <trkpt lat="44.47499" lon="1.55577">
        <ele>207</ele>
        <time>2018-06-25T09:03:02.129Z</time>
      </trkpt>
      <trkpt lat="44.47484" lon="1.55512">
        <ele>202</ele>
        <time>2018-06-25T09:03:03.129Z</time>
      </trkpt>
      <trkpt lat="44.4748" lon="1.55499">
        <ele>201</ele>
        <time>2018-06-25T09:03:04.129Z</time>
      </trkpt>
      <trkpt lat="44.47463" lon="1.5547">
        <ele>194</ele>
        <time>2018-06-25T09:03:05.129Z</time>
      </trkpt>
      <trkpt lat="44.47456" lon="1.55464">
        <ele>194</ele>
        <time>2018-06-25T09:03:06.129Z</time>
      </trkpt>
      <trkpt lat="44.47444" lon="1.55462">
        <ele>197</ele>
        <time>2018-06-25T09:03:07.129Z</time>
      </trkpt>
      <trkpt lat="44.47416" lon="1.55463">
        <ele>206</ele>
        <time>2018-06-25T09:03:08.129Z</time>
      </trkpt>
      <trkpt lat="44.47409" lon="1.55476">
        <ele>212</ele>
        <time>2018-06-25T09:03:09.129Z</time>
      </trkpt>
      <trkpt lat="44.47391" lon="1.555">
        <ele>224</ele>
        <time>2018-06-25T09:03:10.129Z</time>
      </trkpt>
      <trkpt lat="44.47382" lon="1.55517">
        <ele>227</ele>
        <time>2018-06-25T09:03:11.129Z</time>
      </trkpt>
      <trkpt lat="44.4736" lon="1.55547">
        <ele>234</ele>
        <time>2018-06-25T09:03:12.129Z</time>
      </trkpt>
      <trkpt lat="44.47339" lon="1.55569">
        <ele>239</ele>
        <time>2018-06-25T09:03:13.129Z</time>
      </trkpt>
      <trkpt lat="44.47326" lon="1.55586">
        <ele>242</ele>
        <time>2018-06-25T09:03:14.129Z</time>
      </trkpt>
      <trkpt lat="44.47322" lon="1.55595">
        <ele>243</ele>
        <time>2018-06-25T09:03:15.129Z</time>
      </trkpt>
      <trkpt lat="44.47319" lon="1.55613">
        <ele>245</ele>
        <time>2018-06-25T09:03:16.129Z</time>
      </trkpt>
      <trkpt lat="44.47324" lon="1.55642">
        <ele>249</ele>
        <time>2018-06-25T09:03:17.129Z</time>
      </trkpt>
      <trkpt lat="44.47328" lon="1.55655">
        <ele>251</ele>
        <time>2018-06-25T09:03:18.129Z</time>
      </trkpt>
      <trkpt lat="44.4733" lon="1.55657">
        <ele>251</ele>
        <time>2018-06-25T09:03:19.129Z</time>
      </trkpt>
      <trkpt lat="44.47325" lon="1.55643">
        <ele>249</ele>
        <time>2018-06-25T09:03:20.129Z</time>
      </trkpt>
      <trkpt lat="44.4732" lon="1.55614">
        <ele>245</ele>
        <time>2018-06-25T09:03:21.129Z</time>
      </trkpt>
      <trkpt lat="44.47323" lon="1.55595">
        <ele>243</ele>
        <time>2018-06-25T09:03:22.129Z</time>
      </trkpt>
      <trkpt lat="44.47327" lon="1.55587">
        <ele>242</ele>
        <time>2018-06-25T09:03:23.129Z</time>
      </trkpt>
      <trkpt lat="44.4734" lon="1.5557">
        <ele>239</ele>
        <time>2018-06-25T09:03:24.129Z</time>
      </trkpt>
      <trkpt lat="44.47361" lon="1.55548">
        <ele>234</ele>
        <time>2018-06-25T09:03:25.129Z</time>
      </trkpt>
      <trkpt lat="44.47384" lon="1.55517">
        <ele>227</ele>
        <time>2018-06-25T09:03:26.129Z</time>
      </trkpt>
      <trkpt lat="44.47361" lon="1.55548">
        <ele>234</ele>
        <time>2018-06-25T09:03:27.129Z</time>
      </trkpt>
      <trkpt lat="44.4734" lon="1.5557">
        <ele>239</ele>
        <time>2018-06-25T09:03:28.129Z</time>
      </trkpt>
      <trkpt lat="44.47327" lon="1.55587">
        <ele>242</ele>
        <time>2018-06-25T09:03:29.129Z</time>
      </trkpt>
      <trkpt lat="44.47323" lon="1.55595">
        <ele>243</ele>
        <time>2018-06-25T09:03:30.129Z</time>
      </trkpt>
      <trkpt lat="44.4732" lon="1.55614">
        <ele>245</ele>
        <time>2018-06-25T09:03:31.129Z</time>
      </trkpt>
      <trkpt lat="44.47325" lon="1.55643">
        <ele>249</ele>
        <time>2018-06-25T09:03:32.129Z</time>
      </trkpt>
      <trkpt lat="44.4733" lon="1.55656">
        <ele>251</ele>
        <time>2018-06-25T09:03:33.129Z</time>
      </trkpt>
      <trkpt lat="44.47335" lon="1.55664">
        <ele>251</ele>
        <time>2018-06-25T09:03:34.129Z</time>
      </trkpt>
      <trkpt lat="44.47355" lon="1.55682">
        <ele>249</ele>
        <time>2018-06-25T09:03:35.129Z</time>
      </trkpt>
      <trkpt lat="44.47359" lon="1.55688">
        <ele>248</ele>
        <time>2018-06-25T09:03:36.129Z</time>
      </trkpt>
      <trkpt lat="44.47345" lon="1.5576">
        <ele>245</ele>
        <time>2018-06-25T09:03:37.129Z</time>
      </trkpt>
      <trkpt lat="44.47289" lon="1.5574">
        <ele>253</ele>
        <time>2018-06-25T09:03:38.129Z</time>
      </trkpt>
      <trkpt lat="44.47215" lon="1.55784">
        <ele>250</ele>
        <time>2018-06-25T09:03:39.129Z</time>
      </trkpt>
      <trkpt lat="44.47178" lon="1.55768">
        <ele>256</ele>
        <time>2018-06-25T09:03:40.129Z</time>
      </trkpt>
      <trkpt lat="44.47007" lon="1.55858">
        <ele>279</ele>
        <time>2018-06-25T09:03:41.129Z</time>
      </trkpt>
      <trkpt lat="44.46943" lon="1.55873">
        <ele>286</ele>
        <time>2018-06-25T09:03:42.129Z</time>
      </trkpt>
      <trkpt lat="44.46801" lon="1.55948">
        <ele>294</ele>
        <time>2018-06-25T09:03:43.129Z</time>
      </trkpt>
      <trkpt lat="44.46674" lon="1.56053">
        <ele>298</ele>
        <time>2018-06-25T09:03:44.129Z</time>
      </trkpt>
      <trkpt lat="44.46611" lon="1.56165">
        <ele>307</ele>
        <time>2018-06-25T09:03:45.129Z</time>
      </trkpt>
      <trkpt lat="44.46558" lon="1.56228">
        <ele>311</ele>
        <time>2018-06-25T09:03:46.129Z</time>
      </trkpt>
      <trkpt lat="44.46531" lon="1.56232">
        <ele>310</ele>
        <time>2018-06-25T09:03:47.129Z</time>
      </trkpt>
      <trkpt lat="44.46472" lon="1.56282">
        <ele>304</ele>
        <time>2018-06-25T09:03:48.129Z</time>
      </trkpt>
      <trkpt lat="44.46438" lon="1.56356">
        <ele>298</ele>
        <time>2018-06-25T09:03:49.129Z</time>
      </trkpt>
      <trkpt lat="44.463" lon="1.56509">
        <ele>290</ele>
        <time>2018-06-25T09:03:50.129Z</time>
      </trkpt>
      <trkpt lat="44.46172" lon="1.56601">
        <ele>293</ele>
        <time>2018-06-25T09:03:51.129Z</time>
      </trkpt>
      <trkpt lat="44.46209" lon="1.56635">
        <ele>291</ele>
        <time>2018-06-25T09:03:52.129Z</time>
      </trkpt>
      <trkpt lat="44.46205" lon="1.56656">
        <ele>291</ele>
        <time>2018-06-25T09:03:53.129Z</time>
      </trkpt>
      <trkpt lat="44.46149" lon="1.56727">
        <ele>289</ele>
        <time>2018-06-25T09:03:54.129Z</time>
      </trkpt>
      <trkpt lat="44.46112" lon="1.56824">
        <ele>283</ele>
        <time>2018-06-25T09:03:55.129Z</time>
      </trkpt>
      <trkpt lat="44.46099" lon="1.56941">
        <ele>275</ele>
        <time>2018-06-25T09:03:56.129Z</time>
      </trkpt>
      <trkpt lat="44.46156" lon="1.57027">
        <ele>268</ele>
        <time>2018-06-25T09:03:57.129Z</time>
      </trkpt>
      <trkpt lat="44.46246" lon="1.57212">
        <ele>271</ele>
        <time>2018-06-25T09:03:58.129Z</time>
      </trkpt>
      <trkpt lat="44.46282" lon="1.57245">
        <ele>273</ele>
        <time>2018-06-25T09:03:59.129Z</time>
      </trkpt>
      <trkpt lat="44.4643" lon="1.57449">
        <ele>280</ele>
        <time>2018-06-25T09:04:00.129Z</time>
      </trkpt>
      <trkpt lat="44.46603" lon="1.57611">
        <ele>287</ele>
        <time>2018-06-25T09:04:01.129Z</time>
      </trkpt>
      <trkpt lat="44.46616" lon="1.57638">
        <ele>286</ele>
        <time>2018-06-25T09:04:02.129Z</time>
      </trkpt>
      <trkpt lat="44.46674" lon="1.57658">
        <ele>283</ele>
        <time>2018-06-25T09:04:03.129Z</time>
      </trkpt>
      <trkpt lat="44.46699" lon="1.57707">
        <ele>277</ele>
        <time>2018-06-25T09:04:04.129Z</time>
      </trkpt>
      <trkpt lat="44.46767" lon="1.57741">
        <ele>265</ele>
        <time>2018-06-25T09:04:05.129Z</time>
      </trkpt>
      <trkpt lat="44.46842" lon="1.57874">
        <ele>238</ele>
        <time>2018-06-25T09:04:06.129Z</time>
      </trkpt>
      <trkpt lat="44.47036" lon="1.57911">
        <ele>202</ele>
        <time>2018-06-25T09:04:07.129Z</time>
      </trkpt>
      <trkpt lat="44.47057" lon="1.5789">
        <ele>198</ele>
        <time>2018-06-25T09:04:08.129Z</time>
      </trkpt>
      <trkpt lat="44.47092" lon="1.57958">
        <ele>186</ele>
        <time>2018-06-25T09:04:09.129Z</time>
      </trkpt>
      <trkpt lat="44.47127" lon="1.57874">
        <ele>180</ele>
        <time>2018-06-25T09:04:10.129Z</time>
      </trkpt>
      <trkpt lat="44.47165" lon="1.57913">
        <ele>170</ele>
        <time>2018-06-25T09:04:11.129Z</time>
      </trkpt>
      <trkpt lat="44.47238" lon="1.57833">
        <ele>162</ele>
        <time>2018-06-25T09:04:12.129Z</time>
      </trkpt>
      <trkpt lat="44.47255" lon="1.5783">
        <ele>160</ele>
        <time>2018-06-25T09:04:13.129Z</time>
      </trkpt>
      <trkpt lat="44.47268" lon="1.57871">
        <ele>155</ele>
        <time>2018-06-25T09:04:14.129Z</time>
      </trkpt>
      <trkpt lat="44.47122" lon="1.58031">
        <ele>161</ele>
        <time>2018-06-25T09:04:15.129Z</time>
      </trkpt>
      <trkpt lat="44.47088" lon="1.58089">
        <ele>153</ele>
        <time>2018-06-25T09:04:16.129Z</time>
      </trkpt>
      <trkpt lat="44.47059" lon="1.58108">
        <ele>158</ele>
        <time>2018-06-25T09:04:17.129Z</time>
      </trkpt>
      <trkpt lat="44.46968" lon="1.58227">
        <ele>146</ele>
        <time>2018-06-25T09:04:18.129Z</time>
      </trkpt>
      <trkpt lat="44.46871" lon="1.58285">
        <ele>154</ele>
        <time>2018-06-25T09:04:19.129Z</time>
      </trkpt>
      <trkpt lat="44.46794" lon="1.58399">
        <ele>145</ele>
        <time>2018-06-25T09:04:20.129Z</time>
      </trkpt>
      <trkpt lat="44.46818" lon="1.58439">
        <ele>131</ele>
        <time>2018-06-25T09:04:21.129Z</time>
      </trkpt>
      <trkpt lat="44.46817" lon="1.58465">
        <ele>130</ele>
        <time>2018-06-25T09:04:22.129Z</time>
      </trkpt>
      <trkpt lat="44.46785" lon="1.5852">
        <ele>129</ele>
        <time>2018-06-25T09:04:23.129Z</time>
      </trkpt>
      <trkpt lat="44.46672" lon="1.58658">
        <ele>130</ele>
        <time>2018-06-25T09:04:24.129Z</time>
      </trkpt>
      <trkpt lat="44.46544" lon="1.58851">
        <ele>140</ele>
        <time>2018-06-25T09:04:25.129Z</time>
      </trkpt>
      <trkpt lat="44.46419" lon="1.59088">
        <ele>144</ele>
        <time>2018-06-25T09:04:26.129Z</time>
      </trkpt>
      <trkpt lat="44.46397" lon="1.59104">
        <ele>147</ele>
        <time>2018-06-25T09:04:27.129Z</time>
      </trkpt>
      <trkpt lat="44.4631" lon="1.59096">
        <ele>160</ele>
        <time>2018-06-25T09:04:28.129Z</time>
      </trkpt>
      <trkpt lat="44.46281" lon="1.59063">
        <ele>164</ele>
        <time>2018-06-25T09:04:29.129Z</time>
      </trkpt>
      <trkpt lat="44.46214" lon="1.59055">
        <ele>169</ele>
        <time>2018-06-25T09:04:30.129Z</time>
      </trkpt>
      <trkpt lat="44.46253" lon="1.59097">
        <ele>165</ele>
        <time>2018-06-25T09:04:31.129Z</time>
      </trkpt>
      <trkpt lat="44.46085" lon="1.59134">
        <ele>189</ele>
        <time>2018-06-25T09:04:32.129Z</time>
      </trkpt>
      <trkpt lat="44.45981" lon="1.59187">
        <ele>209</ele>
        <time>2018-06-25T09:04:33.129Z</time>
      </trkpt>
      <trkpt lat="44.45912" lon="1.59253">
        <ele>227</ele>
        <time>2018-06-25T09:04:34.129Z</time>
      </trkpt>
      <trkpt lat="44.45845" lon="1.59294">
        <ele>230</ele>
        <time>2018-06-25T09:04:35.129Z</time>
      </trkpt>
      <trkpt lat="44.45787" lon="1.59377">
        <ele>244</ele>
        <time>2018-06-25T09:04:36.129Z</time>
      </trkpt>
      <trkpt lat="44.45643" lon="1.59528">
        <ele>270</ele>
        <time>2018-06-25T09:04:37.129Z</time>
      </trkpt>
      <trkpt lat="44.45543" lon="1.59748">
        <ele>283</ele>
        <time>2018-06-25T09:04:38.129Z</time>
      </trkpt>
      <trkpt lat="44.45515" lon="1.59774">
        <ele>282</ele>
        <time>2018-06-25T09:04:39.129Z</time>
      </trkpt>
      <trkpt lat="44.45464" lon="1.59865">
        <ele>287</ele>
        <time>2018-06-25T09:04:40.129Z</time>
      </trkpt>
      <trkpt lat="44.45376" lon="1.59938">
        <ele>286</ele>
        <time>2018-06-25T09:04:41.129Z</time>
      </trkpt>
      <trkpt lat="44.45305" lon="1.60112">
        <ele>289</ele>
        <time>2018-06-25T09:04:42.129Z</time>
      </trkpt>
      <trkpt lat="44.453" lon="1.60154">
        <ele>287</ele>
        <time>2018-06-25T09:04:43.129Z</time>
      </trkpt>
      <trkpt lat="44.45231" lon="1.60291">
        <ele>283</ele>
        <time>2018-06-25T09:04:44.129Z</time>
      </trkpt>
      <trkpt lat="44.45168" lon="1.60453">
        <ele>288</ele>
        <time>2018-06-25T09:04:45.129Z</time>
      </trkpt>
      <trkpt lat="44.45179" lon="1.60506">
        <ele>288</ele>
        <time>2018-06-25T09:04:46.129Z</time>
      </trkpt>
      <trkpt lat="44.45158" lon="1.60662">
        <ele>308</ele>
        <time>2018-06-25T09:04:47.129Z</time>
      </trkpt>
      <trkpt lat="44.45167" lon="1.60701">
        <ele>311</ele>
        <time>2018-06-25T09:04:48.129Z</time>
      </trkpt>
      <trkpt lat="44.45161" lon="1.60818">
        <ele>324</ele>
        <time>2018-06-25T09:04:49.129Z</time>
      </trkpt>
      <trkpt lat="44.4514" lon="1.60911">
        <ele>338</ele>
        <time>2018-06-25T09:04:50.129Z</time>
      </trkpt>
      <trkpt lat="44.45103" lon="1.60995">
        <ele>348</ele>
        <time>2018-06-25T09:04:51.129Z</time>
      </trkpt>
      <trkpt lat="44.45044" lon="1.61061">
        <ele>346</ele>
        <time>2018-06-25T09:04:52.129Z</time>
      </trkpt>
      <trkpt lat="44.4487" lon="1.6099">
        <ele>347</ele>
        <time>2018-06-25T09:04:53.129Z</time>
      </trkpt>
      <trkpt lat="44.44786" lon="1.60927">
        <ele>348</ele>
        <time>2018-06-25T09:04:54.129Z</time>
      </trkpt>
      <trkpt lat="44.44609" lon="1.60828">
        <ele>354</ele>
        <time>2018-06-25T09:04:55.129Z</time>
      </trkpt>
      <trkpt lat="44.44603" lon="1.60851">
        <ele>351</ele>
        <time>2018-06-25T09:04:56.129Z</time>
      </trkpt>
      <trkpt lat="44.44775" lon="1.61019">
        <ele>331</ele>
        <time>2018-06-25T09:04:57.129Z</time>
      </trkpt>
      <trkpt lat="44.44803" lon="1.61075">
        <ele>325</ele>
        <time>2018-06-25T09:04:58.129Z</time>
      </trkpt>
      <trkpt lat="44.44873" lon="1.61149">
        <ele>321</ele>
        <time>2018-06-25T09:04:59.129Z</time>
      </trkpt>
      <trkpt lat="44.44912" lon="1.61255">
        <ele>308</ele>
        <time>2018-06-25T09:05:00.129Z</time>
      </trkpt>
      <trkpt lat="44.44908" lon="1.61292">
        <ele>305</ele>
        <time>2018-06-25T09:05:01.129Z</time>
      </trkpt>
      <trkpt lat="44.44926" lon="1.61369">
        <ele>301</ele>
        <time>2018-06-25T09:05:02.129Z</time>
      </trkpt>
      <trkpt lat="44.44909" lon="1.61418">
        <ele>297</ele>
        <time>2018-06-25T09:05:03.129Z</time>
      </trkpt>
      <trkpt lat="44.44906" lon="1.61469">
        <ele>292</ele>
        <time>2018-06-25T09:05:04.129Z</time>
      </trkpt>
      <trkpt lat="44.44848" lon="1.61576">
        <ele>286</ele>
        <time>2018-06-25T09:05:05.129Z</time>
      </trkpt>
      <trkpt lat="44.44819" lon="1.61716">
        <ele>289</ele>
        <time>2018-06-25T09:05:06.129Z</time>
      </trkpt>
      <trkpt lat="44.44741" lon="1.61728">
        <ele>287</ele>
        <time>2018-06-25T09:05:07.129Z</time>
      </trkpt>
      <trkpt lat="44.44645" lon="1.6178">
        <ele>281</ele>
        <time>2018-06-25T09:05:08.129Z</time>
      </trkpt>
      <trkpt lat="44.44603" lon="1.61822">
        <ele>278</ele>
        <time>2018-06-25T09:05:09.129Z</time>
      </trkpt>
      <trkpt lat="44.44454" lon="1.6178">
        <ele>279</ele>
        <time>2018-06-25T09:05:10.129Z</time>
      </trkpt>
      <trkpt lat="44.44329" lon="1.61771">
        <ele>278</ele>
        <time>2018-06-25T09:05:11.129Z</time>
      </trkpt>
      <trkpt lat="44.44239" lon="1.61802">
        <ele>276</ele>
        <time>2018-06-25T09:05:12.129Z</time>
      </trkpt>
      <trkpt lat="44.44133" lon="1.61945">
        <ele>278</ele>
        <time>2018-06-25T09:05:13.129Z</time>
      </trkpt>
      <trkpt lat="44.44116" lon="1.61994">
        <ele>278</ele>
        <time>2018-06-25T09:05:14.129Z</time>
      </trkpt>
      <trkpt lat="44.44032" lon="1.62122">
        <ele>278</ele>
        <time>2018-06-25T09:05:15.129Z</time>
      </trkpt>
      <trkpt lat="44.43981" lon="1.62162">
        <ele>276</ele>
        <time>2018-06-25T09:05:16.129Z</time>
      </trkpt>
      <trkpt lat="44.43908" lon="1.62175">
        <ele>275</ele>
        <time>2018-06-25T09:05:17.129Z</time>
      </trkpt>
      <trkpt lat="44.43868" lon="1.62226">
        <ele>273</ele>
        <time>2018-06-25T09:05:18.129Z</time>
      </trkpt>
      <trkpt lat="44.43843" lon="1.62293">
        <ele>273</ele>
        <time>2018-06-25T09:05:19.129Z</time>
      </trkpt>
      <trkpt lat="44.4382" lon="1.62318">
        <ele>273</ele>
        <time>2018-06-25T09:05:20.129Z</time>
      </trkpt>
      <trkpt lat="44.43788" lon="1.62263">
        <ele>269</ele>
        <time>2018-06-25T09:05:21.129Z</time>
      </trkpt>
      <trkpt lat="44.43721" lon="1.62214">
        <ele>270</ele>
        <time>2018-06-25T09:05:22.129Z</time>
      </trkpt>
      <trkpt lat="44.436" lon="1.62351">
        <ele>273</ele>
        <time>2018-06-25T09:05:23.129Z</time>
      </trkpt>
      <trkpt lat="44.43586" lon="1.62389">
        <ele>272</ele>
        <time>2018-06-25T09:05:24.129Z</time>
      </trkpt>
      <trkpt lat="44.43585" lon="1.62553">
        <ele>270</ele>
        <time>2018-06-25T09:05:25.129Z</time>
      </trkpt>
      <trkpt lat="44.43492" lon="1.627">
        <ele>268</ele>
        <time>2018-06-25T09:05:26.129Z</time>
      </trkpt>
      <trkpt lat="44.43443" lon="1.62751">
        <ele>264</ele>
        <time>2018-06-25T09:05:27.129Z</time>
      </trkpt>
      <trkpt lat="44.43398" lon="1.62832">
        <ele>266</ele>
        <time>2018-06-25T09:05:28.129Z</time>
      </trkpt>
      <trkpt lat="44.43454" lon="1.62878">
        <ele>270</ele>
        <time>2018-06-25T09:05:29.129Z</time>
      </trkpt>
      <trkpt lat="44.43494" lon="1.62936">
        <ele>269</ele>
        <time>2018-06-25T09:05:30.129Z</time>
      </trkpt>
      <trkpt lat="44.43501" lon="1.62971">
        <ele>272</ele>
        <time>2018-06-25T09:05:31.129Z</time>
      </trkpt>
      <trkpt lat="44.4349" lon="1.63061">
        <ele>276</ele>
        <time>2018-06-25T09:05:32.129Z</time>
      </trkpt>
      <trkpt lat="44.43463" lon="1.63105">
        <ele>282</ele>
        <time>2018-06-25T09:05:33.129Z</time>
      </trkpt>
      <trkpt lat="44.43487" lon="1.63218">
        <ele>283</ele>
        <time>2018-06-25T09:05:34.129Z</time>
      </trkpt>
      <trkpt lat="44.43529" lon="1.633">
        <ele>288</ele>
        <time>2018-06-25T09:05:35.129Z</time>
      </trkpt>
      <trkpt lat="44.435" lon="1.63367">
        <ele>290</ele>
        <time>2018-06-25T09:05:36.129Z</time>
      </trkpt>
      <trkpt lat="44.43493" lon="1.63422">
        <ele>295</ele>
        <time>2018-06-25T09:05:37.129Z</time>
      </trkpt>
      <trkpt lat="44.43503" lon="1.63479">
        <ele>297</ele>
        <time>2018-06-25T09:05:38.129Z</time>
      </trkpt>
      <trkpt lat="44.43516" lon="1.6349">
        <ele>299</ele>
        <time>2018-06-25T09:05:39.129Z</time>
      </trkpt>
      <trkpt lat="44.43542" lon="1.63435">
        <ele>300</ele>
        <time>2018-06-25T09:05:40.129Z</time>
      </trkpt>
      <trkpt lat="44.43562" lon="1.63436">
        <ele>303</ele>
        <time>2018-06-25T09:05:41.129Z</time>
      </trkpt>
      <trkpt lat="44.43591" lon="1.63511">
        <ele>308</ele>
        <time>2018-06-25T09:05:42.129Z</time>
      </trkpt>
      <trkpt lat="44.43622" lon="1.63553">
        <ele>309</ele>
        <time>2018-06-25T09:05:43.129Z</time>
      </trkpt>
      <trkpt lat="44.43617" lon="1.63624">
        <ele>312</ele>
        <time>2018-06-25T09:05:44.129Z</time>
      </trkpt>
      <trkpt lat="44.43629" lon="1.63669">
        <ele>314</ele>
        <time>2018-06-25T09:05:45.129Z</time>
      </trkpt>
      <trkpt lat="44.43623" lon="1.63698">
        <ele>315</ele>
        <time>2018-06-25T09:05:46.129Z</time>
      </trkpt>
      <trkpt lat="44.43568" lon="1.63744">
        <ele>319</ele>
        <time>2018-06-25T09:05:47.129Z</time>
      </trkpt>
      <trkpt lat="44.43535" lon="1.63827">
        <ele>320</ele>
        <time>2018-06-25T09:05:48.129Z</time>
      </trkpt>
      <trkpt lat="44.43545" lon="1.63952">
        <ele>321</ele>
        <time>2018-06-25T09:05:49.129Z</time>
      </trkpt>
      <trkpt lat="44.43512" lon="1.64041">
        <ele>325</ele>
        <time>2018-06-25T09:05:50.129Z</time>
      </trkpt>
      <trkpt lat="44.43522" lon="1.64104">
        <ele>328</ele>
        <time>2018-06-25T09:05:51.129Z</time>
      </trkpt>
      <trkpt lat="44.43505" lon="1.64147">
        <ele>329</ele>
        <time>2018-06-25T09:05:52.129Z</time>
      </trkpt>
      <trkpt lat="44.4341" lon="1.64186">
        <ele>336</ele>
        <time>2018-06-25T09:05:53.129Z</time>
      </trkpt>
      <trkpt lat="44.43206" lon="1.64145">
        <ele>339</ele>
        <time>2018-06-25T09:05:54.129Z</time>
      </trkpt>
      <trkpt lat="44.43118" lon="1.64216">
        <ele>343</ele>
        <time>2018-06-25T09:05:55.129Z</time>
      </trkpt>
      <trkpt lat="44.42994" lon="1.64222">
        <ele>346</ele>
        <time>2018-06-25T09:05:56.129Z</time>
      </trkpt>
      <trkpt lat="44.4291" lon="1.64283">
        <ele>357</ele>
        <time>2018-06-25T09:05:57.129Z</time>
      </trkpt>
      <trkpt lat="44.42876" lon="1.64344">
        <ele>359</ele>
        <time>2018-06-25T09:05:58.129Z</time>
      </trkpt>
      <trkpt lat="44.42857" lon="1.64462">
        <ele>360</ele>
        <time>2018-06-25T09:05:59.129Z</time>
      </trkpt>
      <trkpt lat="44.42596" lon="1.64384">
        <ele>351</ele>
        <time>2018-06-25T09:06:00.129Z</time>
      </trkpt>
      <trkpt lat="44.42594" lon="1.64364">
        <ele>349</ele>
        <time>2018-06-25T09:06:01.129Z</time>
      </trkpt>
      <trkpt lat="44.42625" lon="1.64265">
        <ele>345</ele>
        <time>2018-06-25T09:06:02.129Z</time>
      </trkpt>
      <trkpt lat="44.42563" lon="1.64265">
        <ele>339</ele>
        <time>2018-06-25T09:06:03.129Z</time>
      </trkpt>
      <trkpt lat="44.42377" lon="1.64338">
        <ele>322</ele>
        <time>2018-06-25T09:06:04.129Z</time>
      </trkpt>
      <trkpt lat="44.4233" lon="1.64374">
        <ele>317</ele>
        <time>2018-06-25T09:06:05.129Z</time>
      </trkpt>
      <trkpt lat="44.42322" lon="1.6432">
        <ele>317</ele>
        <time>2018-06-25T09:06:06.129Z</time>
      </trkpt>
      <trkpt lat="44.42178" lon="1.64341">
        <ele>304</ele>
        <time>2018-06-25T09:06:07.129Z</time>
      </trkpt>
      <trkpt lat="44.41963" lon="1.64319">
        <ele>294</ele>
        <time>2018-06-25T09:06:08.129Z</time>
      </trkpt>
      <trkpt lat="44.41863" lon="1.64345">
        <ele>286</ele>
        <time>2018-06-25T09:06:09.129Z</time>
      </trkpt>
      <trkpt lat="44.41752" lon="1.64296">
        <ele>284</ele>
        <time>2018-06-25T09:06:10.129Z</time>
      </trkpt>
      <trkpt lat="44.41573" lon="1.6431">
        <ele>284</ele>
        <time>2018-06-25T09:06:11.129Z</time>
      </trkpt>
      <trkpt lat="44.41378" lon="1.64384">
        <ele>289</ele>
        <time>2018-06-25T09:06:12.129Z</time>
      </trkpt>
      <trkpt lat="44.41313" lon="1.64374">
        <ele>284</ele>
        <time>2018-06-25T09:06:13.129Z</time>
      </trkpt>
      <trkpt lat="44.41175" lon="1.64382">
        <ele>278</ele>
        <time>2018-06-25T09:06:14.129Z</time>
      </trkpt>
      <trkpt lat="44.40949" lon="1.64341">
        <ele>279</ele>
        <time>2018-06-25T09:06:15.129Z</time>
      </trkpt>
      <trkpt lat="44.40854" lon="1.64346">
        <ele>280</ele>
        <time>2018-06-25T09:06:16.129Z</time>
      </trkpt>
      <trkpt lat="44.40738" lon="1.64264">
        <ele>285</ele>
        <time>2018-06-25T09:06:17.129Z</time>
      </trkpt>
      <trkpt lat="44.4063" lon="1.64142">
        <ele>278</ele>
        <time>2018-06-25T09:06:18.129Z</time>
      </trkpt>
      <trkpt lat="44.40559" lon="1.64105">
        <ele>274</ele>
        <time>2018-06-25T09:06:19.129Z</time>
      </trkpt>
      <trkpt lat="44.40523" lon="1.64116">
        <ele>273</ele>
        <time>2018-06-25T09:06:20.129Z</time>
      </trkpt>
      <trkpt lat="44.40484" lon="1.64176">
        <ele>273</ele>
        <time>2018-06-25T09:06:21.129Z</time>
      </trkpt>
      <trkpt lat="44.40469" lon="1.64243">
        <ele>274</ele>
        <time>2018-06-25T09:06:22.129Z</time>
      </trkpt>
      <trkpt lat="44.40436" lon="1.64302">
        <ele>275</ele>
        <time>2018-06-25T09:06:23.129Z</time>
      </trkpt>
      <trkpt lat="44.40438" lon="1.6436">
        <ele>277</ele>
        <time>2018-06-25T09:06:24.129Z</time>
      </trkpt>
      <trkpt lat="44.40427" lon="1.64385">
        <ele>277</ele>
        <time>2018-06-25T09:06:25.129Z</time>
      </trkpt>
      <trkpt lat="44.40396" lon="1.64404">
        <ele>276</ele>
        <time>2018-06-25T09:06:26.129Z</time>
      </trkpt>
      <trkpt lat="44.40377" lon="1.64447">
        <ele>276</ele>
        <time>2018-06-25T09:06:27.129Z</time>
      </trkpt>
      <trkpt lat="44.40308" lon="1.64459">
        <ele>272</ele>
        <time>2018-06-25T09:06:28.129Z</time>
      </trkpt>
      <trkpt lat="44.40248" lon="1.64434">
        <ele>274</ele>
        <time>2018-06-25T09:06:29.129Z</time>
      </trkpt>
      <trkpt lat="44.40215" lon="1.64437">
        <ele>276</ele>
        <time>2018-06-25T09:06:30.129Z</time>
      </trkpt>
      <trkpt lat="44.40193" lon="1.64355">
        <ele>278</ele>
        <time>2018-06-25T09:06:31.129Z</time>
      </trkpt>
      <trkpt lat="44.4016" lon="1.64391">
        <ele>280</ele>
        <time>2018-06-25T09:06:32.129Z</time>
      </trkpt>
      <trkpt lat="44.40077" lon="1.64569">
        <ele>281</ele>
        <time>2018-06-25T09:06:33.129Z</time>
      </trkpt>
      <trkpt lat="44.40032" lon="1.64701">
        <ele>282</ele>
        <time>2018-06-25T09:06:34.129Z</time>
      </trkpt>
      <trkpt lat="44.3995" lon="1.64867">
        <ele>279</ele>
        <time>2018-06-25T09:06:35.129Z</time>
      </trkpt>
      <trkpt lat="44.39898" lon="1.64924">
        <ele>278</ele>
        <time>2018-06-25T09:06:36.129Z</time>
      </trkpt>
      <trkpt lat="44.39824" lon="1.64971">
        <ele>275</ele>
        <time>2018-06-25T09:06:37.129Z</time>
      </trkpt>
      <trkpt lat="44.39748" lon="1.65058">
        <ele>270</ele>
        <time>2018-06-25T09:06:38.129Z</time>
      </trkpt>
      <trkpt lat="44.39654" lon="1.65137">
        <ele>266</ele>
        <time>2018-06-25T09:06:39.129Z</time>
      </trkpt>
      <trkpt lat="44.39566" lon="1.65269">
        <ele>266</ele>
        <time>2018-06-25T09:06:40.129Z</time>
      </trkpt>
      <trkpt lat="44.39348" lon="1.6552">
        <ele>270</ele>
        <time>2018-06-25T09:06:41.129Z</time>
      </trkpt>
      <trkpt lat="44.39282" lon="1.65536">
        <ele>269</ele>
        <time>2018-06-25T09:06:42.129Z</time>
      </trkpt>
      <trkpt lat="44.39204" lon="1.65635">
        <ele>269</ele>
        <time>2018-06-25T09:06:43.129Z</time>
      </trkpt>
      <trkpt lat="44.38936" lon="1.66068">
        <ele>271</ele>
        <time>2018-06-25T09:06:44.129Z</time>
      </trkpt>
      <trkpt lat="44.3877" lon="1.66215">
        <ele>267</ele>
        <time>2018-06-25T09:06:45.129Z</time>
      </trkpt>
      <trkpt lat="44.38666" lon="1.66347">
        <ele>265</ele>
        <time>2018-06-25T09:06:46.129Z</time>
      </trkpt>
      <trkpt lat="44.38513" lon="1.66341">
        <ele>268</ele>
        <time>2018-06-25T09:06:47.129Z</time>
      </trkpt>
      <trkpt lat="44.38289" lon="1.66193">
        <ele>272</ele>
        <time>2018-06-25T09:06:48.129Z</time>
      </trkpt>
      <trkpt lat="44.38224" lon="1.66127">
        <ele>278</ele>
        <time>2018-06-25T09:06:49.129Z</time>
      </trkpt>
      <trkpt lat="44.38163" lon="1.65969">
        <ele>283</ele>
        <time>2018-06-25T09:06:50.129Z</time>
      </trkpt>
      <trkpt lat="44.37945" lon="1.65809">
        <ele>290</ele>
        <time>2018-06-25T09:06:51.129Z</time>
      </trkpt>
      <trkpt lat="44.37885" lon="1.65601">
        <ele>296</ele>
        <time>2018-06-25T09:06:52.129Z</time>
      </trkpt>
      <trkpt lat="44.37804" lon="1.65517">
        <ele>298</ele>
        <time>2018-06-25T09:06:53.129Z</time>
      </trkpt>
      <trkpt lat="44.37492" lon="1.65764">
        <ele>290</ele>
        <time>2018-06-25T09:06:54.129Z</time>
      </trkpt>
      <trkpt lat="44.37419" lon="1.6608">
        <ele>280</ele>
        <time>2018-06-25T09:06:55.129Z</time>
      </trkpt>
      <trkpt lat="44.37392" lon="1.66123">
        <ele>282</ele>
        <time>2018-06-25T09:06:56.129Z</time>
      </trkpt>
      <trkpt lat="44.37289" lon="1.66199">
        <ele>288</ele>
        <time>2018-06-25T09:06:57.129Z</time>
      </trkpt>
      <trkpt lat="44.37191" lon="1.66248">
        <ele>294</ele>
        <time>2018-06-25T09:06:58.129Z</time>
      </trkpt>
      <trkpt lat="44.37128" lon="1.66243">
        <ele>297</ele>
        <time>2018-06-25T09:06:59.129Z</time>
      </trkpt>
      <trkpt lat="44.36888" lon="1.66412">
        <ele>302</ele>
        <time>2018-06-25T09:07:00.129Z</time>
      </trkpt>
      <trkpt lat="44.36681" lon="1.66636">
        <ele>300</ele>
        <time>2018-06-25T09:07:01.129Z</time>
      </trkpt>
      <trkpt lat="44.36736" lon="1.66674">
        <ele>299</ele>
        <time>2018-06-25T09:07:02.129Z</time>
      </trkpt>
      <trkpt lat="44.36689" lon="1.66799">
        <ele>299</ele>
        <time>2018-06-25T09:07:03.129Z</time>
      </trkpt>
      <trkpt lat="44.36617" lon="1.67261">
        <ele>297</ele>
        <time>2018-06-25T09:07:04.129Z</time>
      </trkpt>
      <trkpt lat="44.36587" lon="1.67371">
        <ele>294</ele>
        <time>2018-06-25T09:07:05.129Z</time>
      </trkpt>
      <trkpt lat="44.3653" lon="1.67366">
        <ele>294</ele>
        <time>2018-06-25T09:07:06.129Z</time>
      </trkpt>
      <trkpt lat="44.3646" lon="1.67387">
        <ele>292</ele>
        <time>2018-06-25T09:07:07.129Z</time>
      </trkpt>
      <trkpt lat="44.36436" lon="1.67419">
        <ele>290</ele>
        <time>2018-06-25T09:07:08.129Z</time>
      </trkpt>
      <trkpt lat="44.36373" lon="1.67446">
        <ele>287</ele>
        <time>2018-06-25T09:07:09.129Z</time>
      </trkpt>
      <trkpt lat="44.36316" lon="1.67417">
        <ele>285</ele>
        <time>2018-06-25T09:07:10.129Z</time>
      </trkpt>
      <trkpt lat="44.36193" lon="1.67409">
        <ele>285</ele>
        <time>2018-06-25T09:07:11.129Z</time>
      </trkpt>
      <trkpt lat="44.36096" lon="1.6753">
        <ele>290</ele>
        <time>2018-06-25T09:07:12.129Z</time>
      </trkpt>
      <trkpt lat="44.35911" lon="1.67654">
        <ele>297</ele>
        <time>2018-06-25T09:07:13.129Z</time>
      </trkpt>
      <trkpt lat="44.35787" lon="1.67782">
        <ele>302</ele>
        <time>2018-06-25T09:07:14.129Z</time>
      </trkpt>
      <trkpt lat="44.35836" lon="1.67858">
        <ele>302</ele>
        <time>2018-06-25T09:07:15.129Z</time>
      </trkpt>
      <trkpt lat="44.36049" lon="1.6809">
        <ele>296</ele>
        <time>2018-06-25T09:07:16.129Z</time>
      </trkpt>
      <trkpt lat="44.36195" lon="1.68229">
        <ele>299</ele>
        <time>2018-06-25T09:07:17.129Z</time>
      </trkpt>
      <trkpt lat="44.36502" lon="1.68625">
        <ele>287</ele>
        <time>2018-06-25T09:07:18.129Z</time>
      </trkpt>
      <trkpt lat="44.36446" lon="1.68754">
        <ele>290</ele>
        <time>2018-06-25T09:07:19.129Z</time>
      </trkpt>
      <trkpt lat="44.36428" lon="1.68918">
        <ele>291</ele>
        <time>2018-06-25T09:07:20.129Z</time>
      </trkpt>
      <trkpt lat="44.36447" lon="1.69044">
        <ele>295</ele>
        <time>2018-06-25T09:07:21.129Z</time>
      </trkpt>
      <trkpt lat="44.36514" lon="1.69168">
        <ele>294</ele>
        <time>2018-06-25T09:07:22.129Z</time>
      </trkpt>
      <trkpt lat="44.36476" lon="1.6927">
        <ele>298</ele>
        <time>2018-06-25T09:07:23.129Z</time>
      </trkpt>
      <trkpt lat="44.36484" lon="1.69333">
        <ele>300</ele>
        <time>2018-06-25T09:07:24.129Z</time>
      </trkpt>
      <trkpt lat="44.3653" lon="1.69442">
        <ele>295</ele>
        <time>2018-06-25T09:07:25.129Z</time>
      </trkpt>
      <trkpt lat="44.36546" lon="1.69528">
        <ele>291</ele>
        <time>2018-06-25T09:07:26.129Z</time>
      </trkpt>
      <trkpt lat="44.36533" lon="1.69624">
        <ele>292</ele>
        <time>2018-06-25T09:07:27.129Z</time>
      </trkpt>
      <trkpt lat="44.36523" lon="1.69885">
        <ele>297</ele>
        <time>2018-06-25T09:07:28.129Z</time>
      </trkpt>
      <trkpt lat="44.36528" lon="1.70159">
        <ele>300</ele>
        <time>2018-06-25T09:07:29.129Z</time>
      </trkpt>
      <trkpt lat="44.3652" lon="1.70255">
        <ele>300</ele>
        <time>2018-06-25T09:07:30.129Z</time>
      </trkpt>
      <trkpt lat="44.36473" lon="1.70377">
        <ele>303</ele>
        <time>2018-06-25T09:07:31.129Z</time>
      </trkpt>
      <trkpt lat="44.36419" lon="1.70465">
        <ele>308</ele>
        <time>2018-06-25T09:07:32.129Z</time>
      </trkpt>
      <trkpt lat="44.36338" lon="1.70654">
        <ele>316</ele>
        <time>2018-06-25T09:07:33.129Z</time>
      </trkpt>
      <trkpt lat="44.36334" lon="1.70769">
        <ele>316</ele>
        <time>2018-06-25T09:07:34.129Z</time>
      </trkpt>
      <trkpt lat="44.36354" lon="1.70899">
        <ele>316</ele>
        <time>2018-06-25T09:07:35.129Z</time>
      </trkpt>
      <trkpt lat="44.3635" lon="1.70968">
        <ele>317</ele>
        <time>2018-06-25T09:07:36.129Z</time>
      </trkpt>
      <trkpt lat="44.36324" lon="1.71038">
        <ele>318</ele>
        <time>2018-06-25T09:07:37.129Z</time>
      </trkpt>
      <trkpt lat="44.36274" lon="1.71405">
        <ele>321</ele>
        <time>2018-06-25T09:07:38.129Z</time>
      </trkpt>
      <trkpt lat="44.36222" lon="1.7153">
        <ele>317</ele>
        <time>2018-06-25T09:07:39.129Z</time>
      </trkpt>
      <trkpt lat="44.36189" lon="1.71648">
        <ele>310</ele>
        <time>2018-06-25T09:07:40.129Z</time>
      </trkpt>
      <trkpt lat="44.3602" lon="1.71857">
        <ele>316</ele>
        <time>2018-06-25T09:07:41.129Z</time>
      </trkpt>
      <trkpt lat="44.36016" lon="1.71908">
        <ele>314</ele>
        <time>2018-06-25T09:07:42.129Z</time>
      </trkpt>
      <trkpt lat="44.3603" lon="1.71961">
        <ele>314</ele>
        <time>2018-06-25T09:07:43.129Z</time>
      </trkpt>
      <trkpt lat="44.36083" lon="1.72031">
        <ele>314</ele>
        <time>2018-06-25T09:07:44.129Z</time>
      </trkpt>
      <trkpt lat="44.36092" lon="1.72059">
        <ele>315</ele>
        <time>2018-06-25T09:07:45.129Z</time>
      </trkpt>
      <trkpt lat="44.36087" lon="1.72209">
        <ele>314</ele>
        <time>2018-06-25T09:07:46.129Z</time>
      </trkpt>
      <trkpt lat="44.36067" lon="1.72272">
        <ele>311</ele>
        <time>2018-06-25T09:07:47.129Z</time>
      </trkpt>
      <trkpt lat="44.3594" lon="1.724">
        <ele>314</ele>
        <time>2018-06-25T09:07:48.129Z</time>
      </trkpt>
      <trkpt lat="44.35841" lon="1.72442">
        <ele>317</ele>
        <time>2018-06-25T09:07:49.129Z</time>
      </trkpt>
      <trkpt lat="44.35779" lon="1.72429">
        <ele>320</ele>
        <time>2018-06-25T09:07:50.129Z</time>
      </trkpt>
      <trkpt lat="44.35739" lon="1.72444">
        <ele>321</ele>
        <time>2018-06-25T09:07:51.129Z</time>
      </trkpt>
      <trkpt lat="44.35738" lon="1.72462">
        <ele>321</ele>
        <time>2018-06-25T09:07:52.129Z</time>
      </trkpt>
      <trkpt lat="44.35647" lon="1.72525">
        <ele>326</ele>
        <time>2018-06-25T09:07:53.129Z</time>
      </trkpt>
      <trkpt lat="44.35557" lon="1.72679">
        <ele>331</ele>
        <time>2018-06-25T09:07:54.129Z</time>
      </trkpt>
      <trkpt lat="44.35535" lon="1.72804">
        <ele>337</ele>
        <time>2018-06-25T09:07:55.129Z</time>
      </trkpt>
      <trkpt lat="44.35515" lon="1.72841">
        <ele>340</ele>
        <time>2018-06-25T09:07:56.129Z</time>
      </trkpt>
      <trkpt lat="44.35438" lon="1.72921">
        <ele>347</ele>
        <time>2018-06-25T09:07:57.129Z</time>
      </trkpt>
      <trkpt lat="44.35311" lon="1.73098">
        <ele>357</ele>
        <time>2018-06-25T09:07:58.129Z</time>
      </trkpt>
      <trkpt lat="44.35206" lon="1.73122">
        <ele>366</ele>
        <time>2018-06-25T09:07:59.129Z</time>
      </trkpt>
      <trkpt lat="44.35144" lon="1.73165">
        <ele>370</ele>
        <time>2018-06-25T09:08:00.129Z</time>
      </trkpt>
      <trkpt lat="44.3503" lon="1.732">
        <ele>375</ele>
        <time>2018-06-25T09:08:01.129Z</time>
      </trkpt>
      <trkpt lat="44.34972" lon="1.73248">
        <ele>372</ele>
        <time>2018-06-25T09:08:02.129Z</time>
      </trkpt>
      <trkpt lat="44.3459" lon="1.73396">
        <ele>375</ele>
        <time>2018-06-25T09:08:03.129Z</time>
      </trkpt>
      <trkpt lat="44.34373" lon="1.73544">
        <ele>368</ele>
        <time>2018-06-25T09:08:04.129Z</time>
      </trkpt>
      <trkpt lat="44.34257" lon="1.73907">
        <ele>369</ele>
        <time>2018-06-25T09:08:05.129Z</time>
      </trkpt>
      <trkpt lat="44.34252" lon="1.73997">
        <ele>369</ele>
        <time>2018-06-25T09:08:06.129Z</time>
      </trkpt>
      <trkpt lat="44.34299" lon="1.74162">
        <ele>370</ele>
        <time>2018-06-25T09:08:07.129Z</time>
      </trkpt>
      <trkpt lat="44.34319" lon="1.74333">
        <ele>372</ele>
        <time>2018-06-25T09:08:08.129Z</time>
      </trkpt>
      <trkpt lat="44.34309" lon="1.74412">
        <ele>373</ele>
        <time>2018-06-25T09:08:09.129Z</time>
      </trkpt>
      <trkpt lat="44.34249" lon="1.74559">
        <ele>380</ele>
        <time>2018-06-25T09:08:10.129Z</time>
      </trkpt>
      <trkpt lat="44.34155" lon="1.74635">
        <ele>383</ele>
        <time>2018-06-25T09:08:11.129Z</time>
      </trkpt>
      <trkpt lat="44.3407" lon="1.74778">
        <ele>384</ele>
        <time>2018-06-25T09:08:12.129Z</time>
      </trkpt>
      <trkpt lat="44.34041" lon="1.7487">
        <ele>383</ele>
        <time>2018-06-25T09:08:13.129Z</time>
      </trkpt>
      <trkpt lat="44.34006" lon="1.75052">
        <ele>386</ele>
        <time>2018-06-25T09:08:14.129Z</time>
      </trkpt>
      <trkpt lat="44.33997" lon="1.75235">
        <ele>391</ele>
        <time>2018-06-25T09:08:15.129Z</time>
      </trkpt>
      <trkpt lat="44.34011" lon="1.75373">
        <ele>385</ele>
        <time>2018-06-25T09:08:16.129Z</time>
      </trkpt>
      <trkpt lat="44.34014" lon="1.75931">
        <ele>394</ele>
        <time>2018-06-25T09:08:17.129Z</time>
      </trkpt>
      <trkpt lat="44.33935" lon="1.76091">
        <ele>393</ele>
        <time>2018-06-25T09:08:18.129Z</time>
      </trkpt>
      <trkpt lat="44.33878" lon="1.76284">
        <ele>390</ele>
        <time>2018-06-25T09:08:19.129Z</time>
      </trkpt>
      <trkpt lat="44.33839" lon="1.76364">
        <ele>389</ele>
        <time>2018-06-25T09:08:20.129Z</time>
      </trkpt>
      <trkpt lat="44.33803" lon="1.76564">
        <ele>384</ele>
        <time>2018-06-25T09:08:21.129Z</time>
      </trkpt>
      <trkpt lat="44.33799" lon="1.76711">
        <ele>378</ele>
        <time>2018-06-25T09:08:22.129Z</time>
      </trkpt>
      <trkpt lat="44.33824" lon="1.77026">
        <ele>374</ele>
        <time>2018-06-25T09:08:23.129Z</time>
      </trkpt>
      <trkpt lat="44.33825" lon="1.77181">
        <ele>370</ele>
        <time>2018-06-25T09:08:24.129Z</time>
      </trkpt>
      <trkpt lat="44.33791" lon="1.77353">
        <ele>367</ele>
        <time>2018-06-25T09:08:25.129Z</time>
      </trkpt>
      <trkpt lat="44.33909" lon="1.77579">
        <ele>364</ele>
        <time>2018-06-25T09:08:26.129Z</time>
      </trkpt>
      <trkpt lat="44.33938" lon="1.77703">
        <ele>363</ele>
        <time>2018-06-25T09:08:27.129Z</time>
      </trkpt>
      <trkpt lat="44.33966" lon="1.77764">
        <ele>363</ele>
        <time>2018-06-25T09:08:28.129Z</time>
      </trkpt>
      <trkpt lat="44.34181" lon="1.78002">
        <ele>360</ele>
        <time>2018-06-25T09:08:29.129Z</time>
      </trkpt>
      <trkpt lat="44.34243" lon="1.78181">
        <ele>362</ele>
        <time>2018-06-25T09:08:30.129Z</time>
      </trkpt>
      <trkpt lat="44.34377" lon="1.78249">
        <ele>360</ele>
        <time>2018-06-25T09:08:31.129Z</time>
      </trkpt>
      <trkpt lat="44.34439" lon="1.78321">
        <ele>361</ele>
        <time>2018-06-25T09:08:32.129Z</time>
      </trkpt>
      <trkpt lat="44.34402" lon="1.78354">
        <ele>359</ele>
        <time>2018-06-25T09:08:33.129Z</time>
      </trkpt>
      <trkpt lat="44.34387" lon="1.78417">
        <ele>358</ele>
        <time>2018-06-25T09:08:34.129Z</time>
      </trkpt>
      <trkpt lat="44.34299" lon="1.785">
        <ele>363</ele>
        <time>2018-06-25T09:08:35.129Z</time>
      </trkpt>
      <trkpt lat="44.34238" lon="1.78602">
        <ele>365</ele>
        <time>2018-06-25T09:08:36.129Z</time>
      </trkpt>
      <trkpt lat="44.34173" lon="1.78807">
        <ele>364</ele>
        <time>2018-06-25T09:08:37.129Z</time>
      </trkpt>
      <trkpt lat="44.34115" lon="1.78833">
        <ele>364</ele>
        <time>2018-06-25T09:08:38.129Z</time>
      </trkpt>
      <trkpt lat="44.33998" lon="1.78926">
        <ele>361</ele>
        <time>2018-06-25T09:08:39.129Z</time>
      </trkpt>
      <trkpt lat="44.33933" lon="1.78996">
        <ele>360</ele>
        <time>2018-06-25T09:08:40.129Z</time>
      </trkpt>
      <trkpt lat="44.33818" lon="1.79088">
        <ele>360</ele>
        <time>2018-06-25T09:08:41.129Z</time>
      </trkpt>
      <trkpt lat="44.33726" lon="1.79185">
        <ele>363</ele>
        <time>2018-06-25T09:08:42.129Z</time>
      </trkpt>
      <trkpt lat="44.33592" lon="1.7928">
        <ele>347</ele>
        <time>2018-06-25T09:08:43.129Z</time>
      </trkpt>
      <trkpt lat="44.33503" lon="1.79316">
        <ele>342</ele>
        <time>2018-06-25T09:08:44.129Z</time>
      </trkpt>
      <trkpt lat="44.33423" lon="1.79382">
        <ele>337</ele>
        <time>2018-06-25T09:08:45.129Z</time>
      </trkpt>
      <trkpt lat="44.33394" lon="1.7948">
        <ele>339</ele>
        <time>2018-06-25T09:08:46.129Z</time>
      </trkpt>
      <trkpt lat="44.33276" lon="1.79591">
        <ele>344</ele>
        <time>2018-06-25T09:08:47.129Z</time>
      </trkpt>
      <trkpt lat="44.33067" lon="1.79576">
        <ele>351</ele>
        <time>2018-06-25T09:08:48.129Z</time>
      </trkpt>
      <trkpt lat="44.33005" lon="1.79619">
        <ele>352</ele>
        <time>2018-06-25T09:08:49.129Z</time>
      </trkpt>
      <trkpt lat="44.32826" lon="1.79852">
        <ele>348</ele>
        <time>2018-06-25T09:08:50.129Z</time>
      </trkpt>
      <trkpt lat="44.32757" lon="1.79915">
        <ele>347</ele>
        <time>2018-06-25T09:08:51.129Z</time>
      </trkpt>
      <trkpt lat="44.32687" lon="1.79952">
        <ele>347</ele>
        <time>2018-06-25T09:08:52.129Z</time>
      </trkpt>
      <trkpt lat="44.32628" lon="1.79964">
        <ele>348</ele>
        <time>2018-06-25T09:08:53.129Z</time>
      </trkpt>
      <trkpt lat="44.32489" lon="1.80027">
        <ele>354</ele>
        <time>2018-06-25T09:08:54.129Z</time>
      </trkpt>
      <trkpt lat="44.32285" lon="1.80182">
        <ele>362</ele>
        <time>2018-06-25T09:08:55.129Z</time>
      </trkpt>
      <trkpt lat="44.32262" lon="1.80185">
        <ele>363</ele>
        <time>2018-06-25T09:08:56.129Z</time>
      </trkpt>
      <trkpt lat="44.3221" lon="1.7999">
        <ele>369</ele>
        <time>2018-06-25T09:08:57.129Z</time>
      </trkpt>
      <trkpt lat="44.32129" lon="1.79871">
        <ele>375</ele>
        <time>2018-06-25T09:08:58.129Z</time>
      </trkpt>
      <trkpt lat="44.32047" lon="1.79846">
        <ele>385</ele>
        <time>2018-06-25T09:08:59.129Z</time>
      </trkpt>
      <trkpt lat="44.3203" lon="1.79794">
        <ele>386</ele>
        <time>2018-06-25T09:09:00.129Z</time>
      </trkpt>
      <trkpt lat="44.31986" lon="1.79774">
        <ele>390</ele>
        <time>2018-06-25T09:09:01.129Z</time>
      </trkpt>
      <trkpt lat="44.31867" lon="1.79609">
        <ele>373</ele>
        <time>2018-06-25T09:09:02.129Z</time>
      </trkpt>
      <trkpt lat="44.31838" lon="1.79505">
        <ele>369</ele>
        <time>2018-06-25T09:09:03.129Z</time>
      </trkpt>
      <trkpt lat="44.31833" lon="1.79305">
        <ele>365</ele>
        <time>2018-06-25T09:09:04.129Z</time>
      </trkpt>
      <trkpt lat="44.31795" lon="1.79222">
        <ele>369</ele>
        <time>2018-06-25T09:09:05.129Z</time>
      </trkpt>
      <trkpt lat="44.31675" lon="1.7913">
        <ele>368</ele>
        <time>2018-06-25T09:09:06.129Z</time>
      </trkpt>
      <trkpt lat="44.3162" lon="1.79069">
        <ele>369</ele>
        <time>2018-06-25T09:09:07.129Z</time>
      </trkpt>
      <trkpt lat="44.3137" lon="1.78884">
        <ele>361</ele>
        <time>2018-06-25T09:09:08.129Z</time>
      </trkpt>
      <trkpt lat="44.3125" lon="1.78754">
        <ele>355</ele>
        <time>2018-06-25T09:09:09.129Z</time>
      </trkpt>
      <trkpt lat="44.31168" lon="1.78642">
        <ele>351</ele>
        <time>2018-06-25T09:09:10.129Z</time>
      </trkpt>
      <trkpt lat="44.31115" lon="1.78599">
        <ele>348</ele>
        <time>2018-06-25T09:09:11.129Z</time>
      </trkpt>
      <trkpt lat="44.30935" lon="1.78579">
        <ele>345</ele>
        <time>2018-06-25T09:09:12.129Z</time>
      </trkpt>
      <trkpt lat="44.30726" lon="1.78443">
        <ele>330</ele>
        <time>2018-06-25T09:09:13.129Z</time>
      </trkpt>
      <trkpt lat="44.30687" lon="1.78532">
        <ele>332</ele>
        <time>2018-06-25T09:09:14.129Z</time>
      </trkpt>
      <trkpt lat="44.30647" lon="1.78592">
        <ele>333</ele>
        <time>2018-06-25T09:09:15.129Z</time>
      </trkpt>
      <trkpt lat="44.30543" lon="1.78676">
        <ele>335</ele>
        <time>2018-06-25T09:09:16.129Z</time>
      </trkpt>
      <trkpt lat="44.30519" lon="1.78963">
        <ele>338</ele>
        <time>2018-06-25T09:09:17.129Z</time>
      </trkpt>
      <trkpt lat="44.30479" lon="1.79018">
        <ele>334</ele>
        <time>2018-06-25T09:09:18.129Z</time>
      </trkpt>
      <trkpt lat="44.30459" lon="1.79068">
        <ele>334</ele>
        <time>2018-06-25T09:09:19.129Z</time>
      </trkpt>
      <trkpt lat="44.30467" lon="1.7915">
        <ele>337</ele>
        <time>2018-06-25T09:09:20.129Z</time>
      </trkpt>
      <trkpt lat="44.30435" lon="1.79153">
        <ele>339</ele>
        <time>2018-06-25T09:09:21.129Z</time>
      </trkpt>
      <trkpt lat="44.30349" lon="1.79197">
        <ele>343</ele>
        <time>2018-06-25T09:09:22.129Z</time>
      </trkpt>
      <trkpt lat="44.30319" lon="1.79252">
        <ele>344</ele>
        <time>2018-06-25T09:09:23.129Z</time>
      </trkpt>
      <trkpt lat="44.30259" lon="1.79252">
        <ele>342</ele>
        <time>2018-06-25T09:09:24.129Z</time>
      </trkpt>
      <trkpt lat="44.30203" lon="1.79288">
        <ele>339</ele>
        <time>2018-06-25T09:09:25.129Z</time>
      </trkpt>
      <trkpt lat="44.30188" lon="1.79281">
        <ele>338</ele>
        <time>2018-06-25T09:09:26.129Z</time>
      </trkpt>
      <trkpt lat="44.30154" lon="1.79222">
        <ele>331</ele>
        <time>2018-06-25T09:09:27.129Z</time>
      </trkpt>
      <trkpt lat="44.29993" lon="1.79306">
        <ele>321</ele>
        <time>2018-06-25T09:09:28.129Z</time>
      </trkpt>
      <trkpt lat="44.29959" lon="1.79349">
        <ele>319</ele>
        <time>2018-06-25T09:09:29.129Z</time>
      </trkpt>
      <trkpt lat="44.29906" lon="1.79377">
        <ele>315</ele>
        <time>2018-06-25T09:09:30.129Z</time>
      </trkpt>
      <trkpt lat="44.29801" lon="1.795">
        <ele>316</ele>
        <time>2018-06-25T09:09:31.129Z</time>
      </trkpt>
      <trkpt lat="44.2976" lon="1.79513">
        <ele>314</ele>
        <time>2018-06-25T09:09:32.129Z</time>
      </trkpt>
      <trkpt lat="44.29745" lon="1.79532">
        <ele>316</ele>
        <time>2018-06-25T09:09:33.129Z</time>
      </trkpt>
      <trkpt lat="44.29784" lon="1.79674">
        <ele>331</ele>
        <time>2018-06-25T09:09:34.129Z</time>
      </trkpt>
      <trkpt lat="44.29791" lon="1.79914">
        <ele>334</ele>
        <time>2018-06-25T09:09:35.129Z</time>
      </trkpt>
      <trkpt lat="44.29685" lon="1.80062">
        <ele>338</ele>
        <time>2018-06-25T09:09:36.129Z</time>
      </trkpt>
      <trkpt lat="44.29628" lon="1.80107">
        <ele>338</ele>
        <time>2018-06-25T09:09:37.129Z</time>
      </trkpt>
      <trkpt lat="44.2957" lon="1.80207">
        <ele>335</ele>
        <time>2018-06-25T09:09:38.129Z</time>
      </trkpt>
      <trkpt lat="44.29508" lon="1.80261">
        <ele>340</ele>
        <time>2018-06-25T09:09:39.129Z</time>
      </trkpt>
      <trkpt lat="44.29401" lon="1.80185">
        <ele>336</ele>
        <time>2018-06-25T09:09:40.129Z</time>
      </trkpt>
      <trkpt lat="44.29334" lon="1.80166">
        <ele>335</ele>
        <time>2018-06-25T09:09:41.129Z</time>
      </trkpt>
      <trkpt lat="44.29241" lon="1.80087">
        <ele>335</ele>
        <time>2018-06-25T09:09:42.129Z</time>
      </trkpt>
      <trkpt lat="44.29151" lon="1.80097">
        <ele>333</ele>
        <time>2018-06-25T09:09:43.129Z</time>
      </trkpt>
      <trkpt lat="44.29088" lon="1.80136">
        <ele>331</ele>
        <time>2018-06-25T09:09:44.129Z</time>
      </trkpt>
      <trkpt lat="44.2898" lon="1.80302">
        <ele>334</ele>
        <time>2018-06-25T09:09:45.129Z</time>
      </trkpt>
      <trkpt lat="44.28923" lon="1.80356">
        <ele>338</ele>
        <time>2018-06-25T09:09:46.129Z</time>
      </trkpt>
      <trkpt lat="44.28852" lon="1.80131">
        <ele>334</ele>
        <time>2018-06-25T09:09:47.129Z</time>
      </trkpt>
      <trkpt lat="44.28858" lon="1.80036">
        <ele>324</ele>
        <time>2018-06-25T09:09:48.129Z</time>
      </trkpt>
      <trkpt lat="44.28902" lon="1.79993">
        <ele>320</ele>
        <time>2018-06-25T09:09:49.129Z</time>
      </trkpt>
      <trkpt lat="44.28871" lon="1.79983">
        <ele>314</ele>
        <time>2018-06-25T09:09:50.129Z</time>
      </trkpt>
      <trkpt lat="44.28911" lon="1.7993">
        <ele>304</ele>
        <time>2018-06-25T09:09:51.129Z</time>
      </trkpt>
      <trkpt lat="44.28839" lon="1.79813">
        <ele>265</ele>
        <time>2018-06-25T09:09:52.129Z</time>
      </trkpt>
      <trkpt lat="44.28834" lon="1.79748">
        <ele>252</ele>
        <time>2018-06-25T09:09:53.129Z</time>
      </trkpt>
      <trkpt lat="44.2874" lon="1.7976">
        <ele>247</ele>
        <time>2018-06-25T09:09:54.129Z</time>
      </trkpt>
      <trkpt lat="44.28718" lon="1.79728">
        <ele>247</ele>
        <time>2018-06-25T09:09:55.129Z</time>
      </trkpt>
      <trkpt lat="44.28747" lon="1.79685">
        <ele>252</ele>
        <time>2018-06-25T09:09:56.129Z</time>
      </trkpt>
      <trkpt lat="44.2871" lon="1.79702">
        <ele>250</ele>
        <time>2018-06-25T09:09:57.129Z</time>
      </trkpt>
      <trkpt lat="44.28547" lon="1.7969">
        <ele>249</ele>
        <time>2018-06-25T09:09:58.129Z</time>
      </trkpt>
      <trkpt lat="44.28511" lon="1.79709">
        <ele>248</ele>
        <time>2018-06-25T09:09:59.129Z</time>
      </trkpt>
      <trkpt lat="44.28422" lon="1.79811">
        <ele>246</ele>
        <time>2018-06-25T09:10:00.129Z</time>
      </trkpt>
      <trkpt lat="44.28332" lon="1.79864">
        <ele>245</ele>
        <time>2018-06-25T09:10:01.129Z</time>
      </trkpt>
      <trkpt lat="44.28407" lon="1.79807">
        <ele>247</ele>
        <time>2018-06-25T09:10:02.129Z</time>
      </trkpt>
      <trkpt lat="44.28463" lon="1.79622">
        <ele>268</ele>
        <time>2018-06-25T09:10:03.129Z</time>
      </trkpt>
      <trkpt lat="44.28497" lon="1.7956">
        <ele>282</ele>
        <time>2018-06-25T09:10:04.129Z</time>
      </trkpt>
      <trkpt lat="44.28638" lon="1.79536">
        <ele>287</ele>
        <time>2018-06-25T09:10:05.129Z</time>
      </trkpt>
      <trkpt lat="44.2873" lon="1.7949">
        <ele>301</ele>
        <time>2018-06-25T09:10:06.129Z</time>
      </trkpt>
      <trkpt lat="44.28818" lon="1.79473">
        <ele>299</ele>
        <time>2018-06-25T09:10:07.129Z</time>
      </trkpt>
      <trkpt lat="44.28708" lon="1.79444">
        <ele>314</ele>
        <time>2018-06-25T09:10:08.129Z</time>
      </trkpt>
      <trkpt lat="44.28656" lon="1.79461">
        <ele>311</ele>
        <time>2018-06-25T09:10:09.129Z</time>
      </trkpt>
      <trkpt lat="44.28594" lon="1.79444">
        <ele>314</ele>
        <time>2018-06-25T09:10:10.129Z</time>
      </trkpt>
      <trkpt lat="44.28594" lon="1.79447">
        <ele>313</ele>
        <time>2018-06-25T09:10:11.129Z</time>
      </trkpt>
      <trkpt lat="44.28597" lon="1.79445">
        <ele>314</ele>
        <time>2018-06-25T09:10:12.129Z</time>
      </trkpt>
      <trkpt lat="44.28594" lon="1.79433">
        <ele>316</ele>
        <time>2018-06-25T09:10:13.129Z</time>
      </trkpt>
      <trkpt lat="44.28603" lon="1.79408">
        <ele>321</ele>
        <time>2018-06-25T09:10:14.129Z</time>
      </trkpt>
      <trkpt lat="44.28619" lon="1.79369">
        <ele>323</ele>
        <time>2018-06-25T09:10:15.129Z</time>
      </trkpt>
      <trkpt lat="44.28592" lon="1.79351">
        <ele>323</ele>
        <time>2018-06-25T09:10:16.129Z</time>
      </trkpt>
      <trkpt lat="44.28575" lon="1.79342">
        <ele>324</ele>
        <time>2018-06-25T09:10:17.129Z</time>
      </trkpt>
      <trkpt lat="44.28545" lon="1.79331">
        <ele>325</ele>
        <time>2018-06-25T09:10:18.129Z</time>
      </trkpt>
      <trkpt lat="44.28539" lon="1.79327">
        <ele>325</ele>
        <time>2018-06-25T09:10:19.129Z</time>
      </trkpt>
      <trkpt lat="44.2853" lon="1.7931">
        <ele>326</ele>
        <time>2018-06-25T09:10:20.129Z</time>
      </trkpt>
      <trkpt lat="44.28509" lon="1.79236">
        <ele>327</ele>
        <time>2018-06-25T09:10:21.129Z</time>
      </trkpt>
      <trkpt lat="44.28499" lon="1.79178">
        <ele>329</ele>
        <time>2018-06-25T09:10:22.129Z</time>
      </trkpt>
      <trkpt lat="44.28477" lon="1.7915">
        <ele>330</ele>
        <time>2018-06-25T09:10:23.129Z</time>
      </trkpt>
      <trkpt lat="44.28461" lon="1.79148">
        <ele>330</ele>
        <time>2018-06-25T09:10:24.129Z</time>
      </trkpt>
      <trkpt lat="44.28333" lon="1.79134">
        <ele>332</ele>
        <time>2018-06-25T09:10:25.129Z</time>
      </trkpt>
      <trkpt lat="44.28143" lon="1.79141">
        <ele>331</ele>
        <time>2018-06-25T09:10:26.129Z</time>
      </trkpt>
      <trkpt lat="44.28145" lon="1.79151">
        <ele>332</ele>
        <time>2018-06-25T09:10:27.129Z</time>
      </trkpt>
      <trkpt lat="44.28145" lon="1.79151">
        <ele>332</ele>
        <time>2018-06-25T09:10:28.129Z</time>
      </trkpt>
      <trkpt lat="44.28143" lon="1.79141">
        <ele>331</ele>
        <time>2018-06-25T09:10:29.129Z</time>
      </trkpt>
      <trkpt lat="44.28111" lon="1.79142">
        <ele>332</ele>
        <time>2018-06-25T09:10:30.129Z</time>
      </trkpt>
      <trkpt lat="44.28082" lon="1.7914">
        <ele>333</ele>
        <time>2018-06-25T09:10:31.129Z</time>
      </trkpt>
      <trkpt lat="44.27982" lon="1.79106">
        <ele>329</ele>
        <time>2018-06-25T09:10:32.129Z</time>
      </trkpt>
      <trkpt lat="44.27963" lon="1.79105">
        <ele>328</ele>
        <time>2018-06-25T09:10:33.129Z</time>
      </trkpt>
      <trkpt lat="44.27925" lon="1.79113">
        <ele>327</ele>
        <time>2018-06-25T09:10:34.129Z</time>
      </trkpt>
      <trkpt lat="44.27881" lon="1.79125">
        <ele>326</ele>
        <time>2018-06-25T09:10:35.129Z</time>
      </trkpt>
      <trkpt lat="44.27851" lon="1.79129">
        <ele>325</ele>
        <time>2018-06-25T09:10:36.129Z</time>
      </trkpt>
      <trkpt lat="44.27821" lon="1.79128">
        <ele>323</ele>
        <time>2018-06-25T09:10:37.129Z</time>
      </trkpt>
      <trkpt lat="44.27689" lon="1.79109">
        <ele>318</ele>
        <time>2018-06-25T09:10:38.129Z</time>
      </trkpt>
      <trkpt lat="44.27634" lon="1.79123">
        <ele>316</ele>
        <time>2018-06-25T09:10:39.129Z</time>
      </trkpt>
      <trkpt lat="44.27573" lon="1.79178">
        <ele>311</ele>
        <time>2018-06-25T09:10:40.129Z</time>
      </trkpt>
      <trkpt lat="44.27462" lon="1.7921">
        <ele>303</ele>
        <time>2018-06-25T09:10:41.129Z</time>
      </trkpt>
      <trkpt lat="44.27222" lon="1.79037">
        <ele>299</ele>
        <time>2018-06-25T09:10:42.129Z</time>
      </trkpt>
      <trkpt lat="44.27179" lon="1.78906">
        <ele>311</ele>
        <time>2018-06-25T09:10:43.129Z</time>
      </trkpt>
      <trkpt lat="44.27158" lon="1.78889">
        <ele>307</ele>
        <time>2018-06-25T09:10:44.129Z</time>
      </trkpt>
      <trkpt lat="44.27094" lon="1.78756">
        <ele>310</ele>
        <time>2018-06-25T09:10:45.129Z</time>
      </trkpt>
      <trkpt lat="44.27023" lon="1.78665">
        <ele>308</ele>
        <time>2018-06-25T09:10:46.129Z</time>
      </trkpt>
      <trkpt lat="44.26842" lon="1.78503">
        <ele>310</ele>
        <time>2018-06-25T09:10:47.129Z</time>
      </trkpt>
      <trkpt lat="44.26736" lon="1.78386">
        <ele>315</ele>
        <time>2018-06-25T09:10:48.129Z</time>
      </trkpt>
      <trkpt lat="44.26706" lon="1.7847">
        <ele>312</ele>
        <time>2018-06-25T09:10:49.129Z</time>
      </trkpt>
      <trkpt lat="44.26676" lon="1.78473">
        <ele>311</ele>
        <time>2018-06-25T09:10:50.129Z</time>
      </trkpt>
      <trkpt lat="44.26655" lon="1.78441">
        <ele>314</ele>
        <time>2018-06-25T09:10:51.129Z</time>
      </trkpt>
      <trkpt lat="44.26487" lon="1.78403">
        <ele>308</ele>
        <time>2018-06-25T09:10:52.129Z</time>
      </trkpt>
      <trkpt lat="44.26306" lon="1.78265">
        <ele>301</ele>
        <time>2018-06-25T09:10:53.129Z</time>
      </trkpt>
      <trkpt lat="44.26205" lon="1.78236">
        <ele>281</ele>
        <time>2018-06-25T09:10:54.129Z</time>
      </trkpt>
      <trkpt lat="44.26191" lon="1.78217">
        <ele>279</ele>
        <time>2018-06-25T09:10:55.129Z</time>
      </trkpt>
      <trkpt lat="44.26175" lon="1.78144">
        <ele>279</ele>
        <time>2018-06-25T09:10:56.129Z</time>
      </trkpt>
      <trkpt lat="44.26209" lon="1.77963">
        <ele>267</ele>
        <time>2018-06-25T09:10:57.129Z</time>
      </trkpt>
      <trkpt lat="44.26227" lon="1.77939">
        <ele>269</ele>
        <time>2018-06-25T09:10:58.129Z</time>
      </trkpt>
      <trkpt lat="44.2623" lon="1.77915">
        <ele>266</ele>
        <time>2018-06-25T09:10:59.129Z</time>
      </trkpt>
      <trkpt lat="44.26166" lon="1.77934">
        <ele>252</ele>
        <time>2018-06-25T09:11:00.129Z</time>
      </trkpt>
      <trkpt lat="44.26066" lon="1.77993">
        <ele>237</ele>
        <time>2018-06-25T09:11:01.129Z</time>
      </trkpt>
      <trkpt lat="44.25997" lon="1.77985">
        <ele>232</ele>
        <time>2018-06-25T09:11:02.129Z</time>
      </trkpt>
      <trkpt lat="44.25903" lon="1.77917">
        <ele>227</ele>
        <time>2018-06-25T09:11:03.129Z</time>
      </trkpt>
      <trkpt lat="44.25878" lon="1.77878">
        <ele>230</ele>
        <time>2018-06-25T09:11:04.129Z</time>
      </trkpt>
      <trkpt lat="44.25853" lon="1.77801">
        <ele>236</ele>
        <time>2018-06-25T09:11:05.129Z</time>
      </trkpt>
      <trkpt lat="44.25705" lon="1.7755">
        <ele>262</ele>
        <time>2018-06-25T09:11:06.129Z</time>
      </trkpt>
      <trkpt lat="44.25643" lon="1.77581">
        <ele>258</ele>
        <time>2018-06-25T09:11:07.129Z</time>
      </trkpt>
      <trkpt lat="44.25558" lon="1.77592">
        <ele>258</ele>
        <time>2018-06-25T09:11:08.129Z</time>
      </trkpt>
      <trkpt lat="44.25467" lon="1.77538">
        <ele>260</ele>
        <time>2018-06-25T09:11:09.129Z</time>
      </trkpt>
      <trkpt lat="44.25363" lon="1.77539">
        <ele>257</ele>
        <time>2018-06-25T09:11:10.129Z</time>
      </trkpt>
      <trkpt lat="44.25269" lon="1.77504">
        <ele>251</ele>
        <time>2018-06-25T09:11:11.129Z</time>
      </trkpt>
      <trkpt lat="44.25179" lon="1.77534">
        <ele>239</ele>
        <time>2018-06-25T09:11:12.129Z</time>
      </trkpt>
      <trkpt lat="44.25101" lon="1.77502">
        <ele>242</ele>
        <time>2018-06-25T09:11:13.129Z</time>
      </trkpt>
      <trkpt lat="44.25119" lon="1.77319">
        <ele>249</ele>
        <time>2018-06-25T09:11:14.129Z</time>
      </trkpt>
      <trkpt lat="44.25033" lon="1.77281">
        <ele>247</ele>
        <time>2018-06-25T09:11:15.129Z</time>
      </trkpt>
      <trkpt lat="44.25052" lon="1.77219">
        <ele>249</ele>
        <time>2018-06-25T09:11:16.129Z</time>
      </trkpt>
      <trkpt lat="44.24961" lon="1.77241">
        <ele>249</ele>
        <time>2018-06-25T09:11:17.129Z</time>
      </trkpt>
      <trkpt lat="44.24977" lon="1.77161">
        <ele>249</ele>
        <time>2018-06-25T09:11:18.129Z</time>
      </trkpt>
      <trkpt lat="44.24957" lon="1.7707">
        <ele>254</ele>
        <time>2018-06-25T09:11:19.129Z</time>
      </trkpt>
      <trkpt lat="44.24964" lon="1.76961">
        <ele>259</ele>
        <time>2018-06-25T09:11:20.129Z</time>
      </trkpt>
      <trkpt lat="44.25022" lon="1.76742">
        <ele>262</ele>
        <time>2018-06-25T09:11:21.129Z</time>
      </trkpt>
      <trkpt lat="44.25048" lon="1.76715">
        <ele>264</ele>
        <time>2018-06-25T09:11:22.129Z</time>
      </trkpt>
      <trkpt lat="44.25067" lon="1.7672">
        <ele>264</ele>
        <time>2018-06-25T09:11:23.129Z</time>
      </trkpt>
      <trkpt lat="44.25089" lon="1.76694">
        <ele>265</ele>
        <time>2018-06-25T09:11:24.129Z</time>
      </trkpt>
      <trkpt lat="44.25124" lon="1.7658">
        <ele>275</ele>
        <time>2018-06-25T09:11:25.129Z</time>
      </trkpt>
      <trkpt lat="44.25104" lon="1.76567">
        <ele>275</ele>
        <time>2018-06-25T09:11:26.129Z</time>
      </trkpt>
      <trkpt lat="44.25091" lon="1.76589">
        <ele>267</ele>
        <time>2018-06-25T09:11:27.129Z</time>
      </trkpt>
      <trkpt lat="44.24981" lon="1.76652">
        <ele>284</ele>
        <time>2018-06-25T09:11:28.129Z</time>
      </trkpt>
      <trkpt lat="44.24942" lon="1.76688">
        <ele>293</ele>
        <time>2018-06-25T09:11:29.129Z</time>
      </trkpt>
      <trkpt lat="44.24889" lon="1.76792">
        <ele>295</ele>
        <time>2018-06-25T09:11:30.129Z</time>
      </trkpt>
      <trkpt lat="44.24876" lon="1.76853">
        <ele>294</ele>
        <time>2018-06-25T09:11:31.129Z</time>
      </trkpt>
      <trkpt lat="44.24842" lon="1.76899">
        <ele>302</ele>
        <time>2018-06-25T09:11:32.129Z</time>
      </trkpt>
      <trkpt lat="44.24602" lon="1.77033">
        <ele>308</ele>
        <time>2018-06-25T09:11:33.129Z</time>
      </trkpt>
      <trkpt lat="44.24433" lon="1.77083">
        <ele>310</ele>
        <time>2018-06-25T09:11:34.129Z</time>
      </trkpt>
      <trkpt lat="44.24344" lon="1.77075">
        <ele>311</ele>
        <time>2018-06-25T09:11:35.129Z</time>
      </trkpt>
      <trkpt lat="44.24179" lon="1.77107">
        <ele>316</ele>
        <time>2018-06-25T09:11:36.129Z</time>
      </trkpt>
      <trkpt lat="44.24118" lon="1.77145">
        <ele>313</ele>
        <time>2018-06-25T09:11:37.129Z</time>
      </trkpt>
      <trkpt lat="44.24052" lon="1.77161">
        <ele>309</ele>
        <time>2018-06-25T09:11:38.129Z</time>
      </trkpt>
      <trkpt lat="44.23888" lon="1.77131">
        <ele>300</ele>
        <time>2018-06-25T09:11:39.129Z</time>
      </trkpt>
      <trkpt lat="44.23835" lon="1.77142">
        <ele>298</ele>
        <time>2018-06-25T09:11:40.129Z</time>
      </trkpt>
      <trkpt lat="44.23804" lon="1.77077">
        <ele>294</ele>
        <time>2018-06-25T09:11:41.129Z</time>
      </trkpt>
      <trkpt lat="44.23763" lon="1.77026">
        <ele>280</ele>
        <time>2018-06-25T09:11:42.129Z</time>
      </trkpt>
      <trkpt lat="44.23733" lon="1.76955">
        <ele>267</ele>
        <time>2018-06-25T09:11:43.129Z</time>
      </trkpt>
      <trkpt lat="44.2374" lon="1.7691">
        <ele>268</ele>
        <time>2018-06-25T09:11:44.129Z</time>
      </trkpt>
      <trkpt lat="44.23686" lon="1.76974">
        <ele>252</ele>
        <time>2018-06-25T09:11:45.129Z</time>
      </trkpt>
      <trkpt lat="44.23674" lon="1.76904">
        <ele>247</ele>
        <time>2018-06-25T09:11:46.129Z</time>
      </trkpt>
      <trkpt lat="44.23657" lon="1.7699">
        <ele>244</ele>
        <time>2018-06-25T09:11:47.129Z</time>
      </trkpt>
      <trkpt lat="44.23621" lon="1.76988">
        <ele>241</ele>
        <time>2018-06-25T09:11:48.129Z</time>
      </trkpt>
      <trkpt lat="44.2362" lon="1.76985">
        <ele>240</ele>
        <time>2018-06-25T09:11:49.129Z</time>
      </trkpt>
      <trkpt lat="44.23598" lon="1.76988">
        <ele>238</ele>
        <time>2018-06-25T09:11:50.129Z</time>
      </trkpt>
      <trkpt lat="44.23598" lon="1.76988">
        <ele>238</ele>
        <time>2018-06-25T09:11:51.129Z</time>
      </trkpt>
      <trkpt lat="44.23592" lon="1.76993">
        <ele>238</ele>
        <time>2018-06-25T09:11:52.129Z</time>
      </trkpt>
      <trkpt lat="44.2358" lon="1.76997">
        <ele>238</ele>
        <time>2018-06-25T09:11:53.129Z</time>
      </trkpt>
      <trkpt lat="44.23579" lon="1.77003">
        <ele>238</ele>
        <time>2018-06-25T09:11:54.129Z</time>
      </trkpt>
      <trkpt lat="44.23554" lon="1.7701">
        <ele>237</ele>
        <time>2018-06-25T09:11:55.129Z</time>
      </trkpt>
      <trkpt lat="44.23547" lon="1.77012">
        <ele>237</ele>
        <time>2018-06-25T09:11:56.129Z</time>
      </trkpt>
      <trkpt lat="44.23543" lon="1.76983">
        <ele>234</ele>
        <time>2018-06-25T09:11:57.129Z</time>
      </trkpt>
      <trkpt lat="44.23541" lon="1.76977">
        <ele>233</ele>
        <time>2018-06-25T09:11:58.129Z</time>
      </trkpt>
      <trkpt lat="44.23535" lon="1.76968">
        <ele>231</ele>
        <time>2018-06-25T09:11:59.129Z</time>
      </trkpt>
      <trkpt lat="44.23531" lon="1.76973">
        <ele>231</ele>
        <time>2018-06-25T09:12:00.129Z</time>
      </trkpt>
      <trkpt lat="44.23522" lon="1.7698">
        <ele>232</ele>
        <time>2018-06-25T09:12:01.129Z</time>
      </trkpt>
      <trkpt lat="44.23495" lon="1.7702">
        <ele>235</ele>
        <time>2018-06-25T09:12:02.129Z</time>
      </trkpt>
      <trkpt lat="44.23492" lon="1.77023">
        <ele>234</ele>
        <time>2018-06-25T09:12:03.129Z</time>
      </trkpt>
      <trkpt lat="44.23482" lon="1.77023">
        <ele>231</ele>
        <time>2018-06-25T09:12:04.129Z</time>
      </trkpt>
      <trkpt lat="44.23478" lon="1.77026">
        <ele>230</ele>
        <time>2018-06-25T09:12:05.129Z</time>
      </trkpt>
      <trkpt lat="44.23472" lon="1.7704">
        <ele>230</ele>
        <time>2018-06-25T09:12:06.129Z</time>
      </trkpt>
      <trkpt lat="44.23472" lon="1.7704">
        <ele>230</ele>
        <time>2018-06-25T09:12:07.129Z</time>
      </trkpt>
      <trkpt lat="44.23463" lon="1.77068">
        <ele>230</ele>
        <time>2018-06-25T09:12:08.129Z</time>
      </trkpt>
      <trkpt lat="44.23462" lon="1.77085">
        <ele>230</ele>
        <time>2018-06-25T09:12:09.129Z</time>
      </trkpt>
      <trkpt lat="44.2346" lon="1.77104">
        <ele>228</ele>
        <time>2018-06-25T09:12:10.129Z</time>
      </trkpt>
      <trkpt lat="44.23464" lon="1.77176">
        <ele>223</ele>
        <time>2018-06-25T09:12:11.129Z</time>
      </trkpt>
      <trkpt lat="44.23481" lon="1.7726">
        <ele>213</ele>
        <time>2018-06-25T09:12:12.129Z</time>
      </trkpt>
      <trkpt lat="44.2347" lon="1.77252">
        <ele>212</ele>
        <time>2018-06-25T09:12:13.129Z</time>
      </trkpt>
      <trkpt lat="44.23445" lon="1.77174">
        <ele>219</ele>
        <time>2018-06-25T09:12:14.129Z</time>
      </trkpt>
      <trkpt lat="44.2341" lon="1.77132">
        <ele>214</ele>
        <time>2018-06-25T09:12:15.129Z</time>
      </trkpt>
      <trkpt lat="44.23379" lon="1.77128">
        <ele>211</ele>
        <time>2018-06-25T09:12:16.129Z</time>
      </trkpt>
      <trkpt lat="44.23359" lon="1.77146">
        <ele>209</ele>
        <time>2018-06-25T09:12:17.129Z</time>
      </trkpt>
      <trkpt lat="44.23347" lon="1.77181">
        <ele>209</ele>
        <time>2018-06-25T09:12:18.129Z</time>
      </trkpt>
      <trkpt lat="44.23339" lon="1.77333">
        <ele>203</ele>
        <time>2018-06-25T09:12:19.129Z</time>
      </trkpt>
      <trkpt lat="44.23293" lon="1.77537">
        <ele>203</ele>
        <time>2018-06-25T09:12:20.129Z</time>
      </trkpt>
      <trkpt lat="44.23245" lon="1.77605">
        <ele>210</ele>
        <time>2018-06-25T09:12:21.129Z</time>
      </trkpt>
      <trkpt lat="44.23189" lon="1.77647">
        <ele>222</ele>
        <time>2018-06-25T09:12:22.129Z</time>
      </trkpt>
      <trkpt lat="44.231" lon="1.77774">
        <ele>219</ele>
        <time>2018-06-25T09:12:23.129Z</time>
      </trkpt>
      <trkpt lat="44.2305" lon="1.77797">
        <ele>218</ele>
        <time>2018-06-25T09:12:24.129Z</time>
      </trkpt>
      <trkpt lat="44.22882" lon="1.77752">
        <ele>221</ele>
        <time>2018-06-25T09:12:25.129Z</time>
      </trkpt>
      <trkpt lat="44.22854" lon="1.77767">
        <ele>217</ele>
        <time>2018-06-25T09:12:26.129Z</time>
      </trkpt>
      <trkpt lat="44.22835" lon="1.7776">
        <ele>217</ele>
        <time>2018-06-25T09:12:27.129Z</time>
      </trkpt>
      <trkpt lat="44.22803" lon="1.77701">
        <ele>223</ele>
        <time>2018-06-25T09:12:28.129Z</time>
      </trkpt>
      <trkpt lat="44.22751" lon="1.77678">
        <ele>222</ele>
        <time>2018-06-25T09:12:29.129Z</time>
      </trkpt>
      <trkpt lat="44.22644" lon="1.77535">
        <ele>231</ele>
        <time>2018-06-25T09:12:30.129Z</time>
      </trkpt>
      <trkpt lat="44.22579" lon="1.77244">
        <ele>265</ele>
        <time>2018-06-25T09:12:31.129Z</time>
      </trkpt>
      <trkpt lat="44.22564" lon="1.77102">
        <ele>270</ele>
        <time>2018-06-25T09:12:32.129Z</time>
      </trkpt>
      <trkpt lat="44.22586" lon="1.76829">
        <ele>286</ele>
        <time>2018-06-25T09:12:33.129Z</time>
      </trkpt>
      <trkpt lat="44.22578" lon="1.76817">
        <ele>287</ele>
        <time>2018-06-25T09:12:34.129Z</time>
      </trkpt>
      <trkpt lat="44.2243" lon="1.76977">
        <ele>290</ele>
        <time>2018-06-25T09:12:35.129Z</time>
      </trkpt>
      <trkpt lat="44.22332" lon="1.77022">
        <ele>304</ele>
        <time>2018-06-25T09:12:36.129Z</time>
      </trkpt>
      <trkpt lat="44.22244" lon="1.77106">
        <ele>309</ele>
        <time>2018-06-25T09:12:37.129Z</time>
      </trkpt>
      <trkpt lat="44.22153" lon="1.77229">
        <ele>298</ele>
        <time>2018-06-25T09:12:38.129Z</time>
      </trkpt>
      <trkpt lat="44.22076" lon="1.7727">
        <ele>296</ele>
        <time>2018-06-25T09:12:39.129Z</time>
      </trkpt>
      <trkpt lat="44.22053" lon="1.77255">
        <ele>300</ele>
        <time>2018-06-25T09:12:40.129Z</time>
      </trkpt>
      <trkpt lat="44.22007" lon="1.77257">
        <ele>300</ele>
        <time>2018-06-25T09:12:41.129Z</time>
      </trkpt>
      <trkpt lat="44.22027" lon="1.77186">
        <ele>304</ele>
        <time>2018-06-25T09:12:42.129Z</time>
      </trkpt>
      <trkpt lat="44.22003" lon="1.7715">
        <ele>304</ele>
        <time>2018-06-25T09:12:43.129Z</time>
      </trkpt>
      <trkpt lat="44.21964" lon="1.77131">
        <ele>302</ele>
        <time>2018-06-25T09:12:44.129Z</time>
      </trkpt>
      <trkpt lat="44.21898" lon="1.77031">
        <ele>305</ele>
        <time>2018-06-25T09:12:45.129Z</time>
      </trkpt>
      <trkpt lat="44.21845" lon="1.76915">
        <ele>315</ele>
        <time>2018-06-25T09:12:46.129Z</time>
      </trkpt>
      <trkpt lat="44.21784" lon="1.76879">
        <ele>319</ele>
        <time>2018-06-25T09:12:47.129Z</time>
      </trkpt>
      <trkpt lat="44.21717" lon="1.76869">
        <ele>321</ele>
        <time>2018-06-25T09:12:48.129Z</time>
      </trkpt>
      <trkpt lat="44.21651" lon="1.76821">
        <ele>319</ele>
        <time>2018-06-25T09:12:49.129Z</time>
      </trkpt>
      <trkpt lat="44.21583" lon="1.76745">
        <ele>316</ele>
        <time>2018-06-25T09:12:50.129Z</time>
      </trkpt>
      <trkpt lat="44.21481" lon="1.7654">
        <ele>306</ele>
        <time>2018-06-25T09:12:51.129Z</time>
      </trkpt>
      <trkpt lat="44.21413" lon="1.76144">
        <ele>304</ele>
        <time>2018-06-25T09:12:52.129Z</time>
      </trkpt>
      <trkpt lat="44.21425" lon="1.76057">
        <ele>303</ele>
        <time>2018-06-25T09:12:53.129Z</time>
      </trkpt>
      <trkpt lat="44.21409" lon="1.75945">
        <ele>297</ele>
        <time>2018-06-25T09:12:54.129Z</time>
      </trkpt>
      <trkpt lat="44.21414" lon="1.75883">
        <ele>295</ele>
        <time>2018-06-25T09:12:55.129Z</time>
      </trkpt>
      <trkpt lat="44.21334" lon="1.75854">
        <ele>295</ele>
        <time>2018-06-25T09:12:56.129Z</time>
      </trkpt>
      <trkpt lat="44.21175" lon="1.75868">
        <ele>300</ele>
        <time>2018-06-25T09:12:57.129Z</time>
      </trkpt>
      <trkpt lat="44.21079" lon="1.75825">
        <ele>302</ele>
        <time>2018-06-25T09:12:58.129Z</time>
      </trkpt>
      <trkpt lat="44.21019" lon="1.75743">
        <ele>299</ele>
        <time>2018-06-25T09:12:59.129Z</time>
      </trkpt>
      <trkpt lat="44.20855" lon="1.75626">
        <ele>299</ele>
        <time>2018-06-25T09:13:00.129Z</time>
      </trkpt>
      <trkpt lat="44.20727" lon="1.75626">
        <ele>302</ele>
        <time>2018-06-25T09:13:01.129Z</time>
      </trkpt>
      <trkpt lat="44.20555" lon="1.75558">
        <ele>307</ele>
        <time>2018-06-25T09:13:02.129Z</time>
      </trkpt>
      <trkpt lat="44.20425" lon="1.75462">
        <ele>304</ele>
        <time>2018-06-25T09:13:03.129Z</time>
      </trkpt>
      <trkpt lat="44.20241" lon="1.75366">
        <ele>303</ele>
        <time>2018-06-25T09:13:04.129Z</time>
      </trkpt>
      <trkpt lat="44.19944" lon="1.75247">
        <ele>296</ele>
        <time>2018-06-25T09:13:05.129Z</time>
      </trkpt>
      <trkpt lat="44.19943" lon="1.75244">
        <ele>296</ele>
        <time>2018-06-25T09:13:06.129Z</time>
      </trkpt>
      <trkpt lat="44.1982" lon="1.75257">
        <ele>296</ele>
        <time>2018-06-25T09:13:07.129Z</time>
      </trkpt>
      <trkpt lat="44.19616" lon="1.7526">
        <ele>305</ele>
        <time>2018-06-25T09:13:08.129Z</time>
      </trkpt>
      <trkpt lat="44.19614" lon="1.75251">
        <ele>305</ele>
        <time>2018-06-25T09:13:09.129Z</time>
      </trkpt>
      <trkpt lat="44.19605" lon="1.75222">
        <ele>305</ele>
        <time>2018-06-25T09:13:10.129Z</time>
      </trkpt>
      <trkpt lat="44.19566" lon="1.75176">
        <ele>304</ele>
        <time>2018-06-25T09:13:11.129Z</time>
      </trkpt>
      <trkpt lat="44.19518" lon="1.74975">
        <ele>289</ele>
        <time>2018-06-25T09:13:12.129Z</time>
      </trkpt>
      <trkpt lat="44.19496" lon="1.74924">
        <ele>282</ele>
        <time>2018-06-25T09:13:13.129Z</time>
      </trkpt>
      <trkpt lat="44.19474" lon="1.74721">
        <ele>268</ele>
        <time>2018-06-25T09:13:14.129Z</time>
      </trkpt>
      <trkpt lat="44.19492" lon="1.74618">
        <ele>254</ele>
        <time>2018-06-25T09:13:15.129Z</time>
      </trkpt>
      <trkpt lat="44.19588" lon="1.74383">
        <ele>220</ele>
        <time>2018-06-25T09:13:16.129Z</time>
      </trkpt>
      <trkpt lat="44.19568" lon="1.74229">
        <ele>209</ele>
        <time>2018-06-25T09:13:17.129Z</time>
      </trkpt>
      <trkpt lat="44.19572" lon="1.74109">
        <ele>202</ele>
        <time>2018-06-25T09:13:18.129Z</time>
      </trkpt>
      <trkpt lat="44.19411" lon="1.74173">
        <ele>199</ele>
        <time>2018-06-25T09:13:19.129Z</time>
      </trkpt>
      <trkpt lat="44.19352" lon="1.74221">
        <ele>198</ele>
        <time>2018-06-25T09:13:20.129Z</time>
      </trkpt>
      <trkpt lat="44.1931" lon="1.74222">
        <ele>200</ele>
        <time>2018-06-25T09:13:21.129Z</time>
      </trkpt>
      <trkpt lat="44.19282" lon="1.74172">
        <ele>200</ele>
        <time>2018-06-25T09:13:22.129Z</time>
      </trkpt>
      <trkpt lat="44.19275" lon="1.74069">
        <ele>199</ele>
        <time>2018-06-25T09:13:23.129Z</time>
      </trkpt>
      <trkpt lat="44.19259" lon="1.74003">
        <ele>196</ele>
        <time>2018-06-25T09:13:24.129Z</time>
      </trkpt>
      <trkpt lat="44.19188" lon="1.73913">
        <ele>194</ele>
        <time>2018-06-25T09:13:25.129Z</time>
      </trkpt>
      <trkpt lat="44.19102" lon="1.73932">
        <ele>190</ele>
        <time>2018-06-25T09:13:26.129Z</time>
      </trkpt>
      <trkpt lat="44.18857" lon="1.73902">
        <ele>182</ele>
        <time>2018-06-25T09:13:27.129Z</time>
      </trkpt>
      <trkpt lat="44.18773" lon="1.73983">
        <ele>182</ele>
        <time>2018-06-25T09:13:28.129Z</time>
      </trkpt>
      <trkpt lat="44.18692" lon="1.73991">
        <ele>183</ele>
        <time>2018-06-25T09:13:29.129Z</time>
      </trkpt>
      <trkpt lat="44.18635" lon="1.74019">
        <ele>182</ele>
        <time>2018-06-25T09:13:30.129Z</time>
      </trkpt>
      <trkpt lat="44.18472" lon="1.73999">
        <ele>183</ele>
        <time>2018-06-25T09:13:31.129Z</time>
      </trkpt>
      <trkpt lat="44.18293" lon="1.74071">
        <ele>172</ele>
        <time>2018-06-25T09:13:32.129Z</time>
      </trkpt>
      <trkpt lat="44.18266" lon="1.73965">
        <ele>190</ele>
        <time>2018-06-25T09:13:33.129Z</time>
      </trkpt>
      <trkpt lat="44.18252" lon="1.73796">
        <ele>208</ele>
        <time>2018-06-25T09:13:34.129Z</time>
      </trkpt>
      <trkpt lat="44.18259" lon="1.73731">
        <ele>216</ele>
        <time>2018-06-25T09:13:35.129Z</time>
      </trkpt>
      <trkpt lat="44.1823" lon="1.73604">
        <ele>227</ele>
        <time>2018-06-25T09:13:36.129Z</time>
      </trkpt>
      <trkpt lat="44.18215" lon="1.73436">
        <ele>240</ele>
        <time>2018-06-25T09:13:37.129Z</time>
      </trkpt>
      <trkpt lat="44.18175" lon="1.73368">
        <ele>241</ele>
        <time>2018-06-25T09:13:38.129Z</time>
      </trkpt>
      <trkpt lat="44.1814" lon="1.73337">
        <ele>247</ele>
        <time>2018-06-25T09:13:39.129Z</time>
      </trkpt>
      <trkpt lat="44.18099" lon="1.73333">
        <ele>253</ele>
        <time>2018-06-25T09:13:40.129Z</time>
      </trkpt>
      <trkpt lat="44.17946" lon="1.7325">
        <ele>273</ele>
        <time>2018-06-25T09:13:41.129Z</time>
      </trkpt>
      <trkpt lat="44.17901" lon="1.73187">
        <ele>285</ele>
        <time>2018-06-25T09:13:42.129Z</time>
      </trkpt>
      <trkpt lat="44.17861" lon="1.73254">
        <ele>286</ele>
        <time>2018-06-25T09:13:43.129Z</time>
      </trkpt>
      <trkpt lat="44.17852" lon="1.7323">
        <ele>289</ele>
        <time>2018-06-25T09:13:44.129Z</time>
      </trkpt>
      <trkpt lat="44.17769" lon="1.73228">
        <ele>296</ele>
        <time>2018-06-25T09:13:45.129Z</time>
      </trkpt>
      <trkpt lat="44.17715" lon="1.73102">
        <ele>297</ele>
        <time>2018-06-25T09:13:46.129Z</time>
      </trkpt>
      <trkpt lat="44.17641" lon="1.7319">
        <ele>297</ele>
        <time>2018-06-25T09:13:47.129Z</time>
      </trkpt>
      <trkpt lat="44.17595" lon="1.73209">
        <ele>298</ele>
        <time>2018-06-25T09:13:48.129Z</time>
      </trkpt>
      <trkpt lat="44.17407" lon="1.73545">
        <ele>297</ele>
        <time>2018-06-25T09:13:49.129Z</time>
      </trkpt>
      <trkpt lat="44.17341" lon="1.73607">
        <ele>296</ele>
        <time>2018-06-25T09:13:50.129Z</time>
      </trkpt>
      <trkpt lat="44.17271" lon="1.73638">
        <ele>298</ele>
        <time>2018-06-25T09:13:51.129Z</time>
      </trkpt>
      <trkpt lat="44.17218" lon="1.73694">
        <ele>300</ele>
        <time>2018-06-25T09:13:52.129Z</time>
      </trkpt>
      <trkpt lat="44.17157" lon="1.73786">
        <ele>298</ele>
        <time>2018-06-25T09:13:53.129Z</time>
      </trkpt>
      <trkpt lat="44.17115" lon="1.73809">
        <ele>296</ele>
        <time>2018-06-25T09:13:54.129Z</time>
      </trkpt>
      <trkpt lat="44.1707" lon="1.7381">
        <ele>295</ele>
        <time>2018-06-25T09:13:55.129Z</time>
      </trkpt>
      <trkpt lat="44.16859" lon="1.73706">
        <ele>295</ele>
        <time>2018-06-25T09:13:56.129Z</time>
      </trkpt>
      <trkpt lat="44.1667" lon="1.73779">
        <ele>292</ele>
        <time>2018-06-25T09:13:57.129Z</time>
      </trkpt>
      <trkpt lat="44.16464" lon="1.73818">
        <ele>296</ele>
        <time>2018-06-25T09:13:58.129Z</time>
      </trkpt>
      <trkpt lat="44.16444" lon="1.73806">
        <ele>298</ele>
        <time>2018-06-25T09:13:59.129Z</time>
      </trkpt>
      <trkpt lat="44.16288" lon="1.73831">
        <ele>309</ele>
        <time>2018-06-25T09:14:00.129Z</time>
      </trkpt>
      <trkpt lat="44.16211" lon="1.7393">
        <ele>310</ele>
        <time>2018-06-25T09:14:01.129Z</time>
      </trkpt>
      <trkpt lat="44.16143" lon="1.74054">
        <ele>305</ele>
        <time>2018-06-25T09:14:02.129Z</time>
      </trkpt>
      <trkpt lat="44.16053" lon="1.74258">
        <ele>308</ele>
        <time>2018-06-25T09:14:03.129Z</time>
      </trkpt>
      <trkpt lat="44.1595" lon="1.74408">
        <ele>308</ele>
        <time>2018-06-25T09:14:04.129Z</time>
      </trkpt>
      <trkpt lat="44.15863" lon="1.74463">
        <ele>310</ele>
        <time>2018-06-25T09:14:05.129Z</time>
      </trkpt>
      <trkpt lat="44.15887" lon="1.74773">
        <ele>311</ele>
        <time>2018-06-25T09:14:06.129Z</time>
      </trkpt>
      <trkpt lat="44.1594" lon="1.74777">
        <ele>309</ele>
        <time>2018-06-25T09:14:07.129Z</time>
      </trkpt>
      <trkpt lat="44.15963" lon="1.74904">
        <ele>308</ele>
        <time>2018-06-25T09:14:08.129Z</time>
      </trkpt>
      <trkpt lat="44.15947" lon="1.74936">
        <ele>308</ele>
        <time>2018-06-25T09:14:09.129Z</time>
      </trkpt>
      <trkpt lat="44.1592" lon="1.74952">
        <ele>309</ele>
        <time>2018-06-25T09:14:10.129Z</time>
      </trkpt>
      <trkpt lat="44.15901" lon="1.74943">
        <ele>309</ele>
        <time>2018-06-25T09:14:11.129Z</time>
      </trkpt>
      <trkpt lat="44.15867" lon="1.75086">
        <ele>299</ele>
        <time>2018-06-25T09:14:12.129Z</time>
      </trkpt>
      <trkpt lat="44.15831" lon="1.75141">
        <ele>290</ele>
        <time>2018-06-25T09:14:13.129Z</time>
      </trkpt>
      <trkpt lat="44.15769" lon="1.75159">
        <ele>273</ele>
        <time>2018-06-25T09:14:14.129Z</time>
      </trkpt>
      <trkpt lat="44.15666" lon="1.75067">
        <ele>250</ele>
        <time>2018-06-25T09:14:15.129Z</time>
      </trkpt>
      <trkpt lat="44.15511" lon="1.7504">
        <ele>200</ele>
        <time>2018-06-25T09:14:16.129Z</time>
      </trkpt>
      <trkpt lat="44.15419" lon="1.7497">
        <ele>181</ele>
        <time>2018-06-25T09:14:17.129Z</time>
      </trkpt>
      <trkpt lat="44.15355" lon="1.74941">
        <ele>160</ele>
        <time>2018-06-25T09:14:18.129Z</time>
      </trkpt>
      <trkpt lat="44.15342" lon="1.74948">
        <ele>153</ele>
        <time>2018-06-25T09:14:19.129Z</time>
      </trkpt>
      <trkpt lat="44.15347" lon="1.74962">
        <ele>152</ele>
        <time>2018-06-25T09:14:20.129Z</time>
      </trkpt>
      <trkpt lat="44.15334" lon="1.75013">
        <ele>138</ele>
        <time>2018-06-25T09:14:21.129Z</time>
      </trkpt>
      <trkpt lat="44.15345" lon="1.75055">
        <ele>137</ele>
        <time>2018-06-25T09:14:22.129Z</time>
      </trkpt>
      <trkpt lat="44.15352" lon="1.751">
        <ele>134</ele>
        <time>2018-06-25T09:14:23.129Z</time>
      </trkpt>
      <trkpt lat="44.15351" lon="1.751">
        <ele>134</ele>
        <time>2018-06-25T09:14:24.129Z</time>
      </trkpt>
      <trkpt lat="44.1536" lon="1.75162">
        <ele>130</ele>
        <time>2018-06-25T09:14:25.129Z</time>
      </trkpt>
      <trkpt lat="44.1536" lon="1.75176">
        <ele>129</ele>
        <time>2018-06-25T09:14:26.129Z</time>
      </trkpt>
      <trkpt lat="44.15358" lon="1.75187">
        <ele>129</ele>
        <time>2018-06-25T09:14:27.129Z</time>
      </trkpt>
      <trkpt lat="44.15353" lon="1.75206">
        <ele>127</ele>
        <time>2018-06-25T09:14:28.129Z</time>
      </trkpt>
      <trkpt lat="44.15309" lon="1.75237">
        <ele>124</ele>
        <time>2018-06-25T09:14:29.129Z</time>
      </trkpt>
      <trkpt lat="44.15349" lon="1.75214">
        <ele>126</ele>
        <time>2018-06-25T09:14:30.129Z</time>
      </trkpt>
      <trkpt lat="44.15311" lon="1.75522">
        <ele>129</ele>
        <time>2018-06-25T09:14:31.129Z</time>
      </trkpt>
      <trkpt lat="44.15296" lon="1.75644">
        <ele>134</ele>
        <time>2018-06-25T09:14:32.129Z</time>
      </trkpt>
      <trkpt lat="44.15289" lon="1.75642">
        <ele>134</ele>
        <time>2018-06-25T09:14:33.129Z</time>
      </trkpt>
      <trkpt lat="44.15283" lon="1.75683">
        <ele>136</ele>
        <time>2018-06-25T09:14:34.129Z</time>
      </trkpt>
      <trkpt lat="44.15213" lon="1.75655">
        <ele>138</ele>
        <time>2018-06-25T09:14:35.129Z</time>
      </trkpt>
      <trkpt lat="44.15184" lon="1.75666">
        <ele>139</ele>
        <time>2018-06-25T09:14:36.129Z</time>
      </trkpt>
      <trkpt lat="44.15183" lon="1.75661">
        <ele>138</ele>
        <time>2018-06-25T09:14:37.129Z</time>
      </trkpt>
      <trkpt lat="44.15166" lon="1.75666">
        <ele>139</ele>
        <time>2018-06-25T09:14:38.129Z</time>
      </trkpt>
      <trkpt lat="44.15144" lon="1.75669">
        <ele>138</ele>
        <time>2018-06-25T09:14:39.129Z</time>
      </trkpt>
      <trkpt lat="44.15106" lon="1.75655">
        <ele>135</ele>
        <time>2018-06-25T09:14:40.129Z</time>
      </trkpt>
      <trkpt lat="44.15074" lon="1.75639">
        <ele>132</ele>
        <time>2018-06-25T09:14:41.129Z</time>
      </trkpt>
      <trkpt lat="44.15074" lon="1.75633">
        <ele>132</ele>
        <time>2018-06-25T09:14:42.129Z</time>
      </trkpt>
      <trkpt lat="44.15039" lon="1.75608">
        <ele>129</ele>
        <time>2018-06-25T09:14:43.129Z</time>
      </trkpt>
      <trkpt lat="44.15022" lon="1.75599">
        <ele>128</ele>
        <time>2018-06-25T09:14:44.129Z</time>
      </trkpt>
      <trkpt lat="44.15017" lon="1.75593">
        <ele>127</ele>
        <time>2018-06-25T09:14:45.129Z</time>
      </trkpt>
      <trkpt lat="44.15028" lon="1.7556">
        <ele>127</ele>
        <time>2018-06-25T09:14:46.129Z</time>
      </trkpt>
      <trkpt lat="44.15032" lon="1.75541">
        <ele>127</ele>
        <time>2018-06-25T09:14:47.129Z</time>
      </trkpt>
      <trkpt lat="44.15032" lon="1.75535">
        <ele>127</ele>
        <time>2018-06-25T09:14:48.129Z</time>
      </trkpt>
      <trkpt lat="44.15026" lon="1.75532">
        <ele>127</ele>
        <time>2018-06-25T09:14:49.129Z</time>
      </trkpt>
      <trkpt lat="44.15027" lon="1.75523">
        <ele>127</ele>
        <time>2018-06-25T09:14:50.129Z</time>
      </trkpt>
      <trkpt lat="44.15034" lon="1.75522">
        <ele>127</ele>
        <time>2018-06-25T09:14:51.129Z</time>
      </trkpt>
      <trkpt lat="44.15039" lon="1.7552">
        <ele>128</ele>
        <time>2018-06-25T09:14:52.129Z</time>
      </trkpt>
      <trkpt lat="44.15044" lon="1.75514">
        <ele>128</ele>
        <time>2018-06-25T09:14:53.129Z</time>
      </trkpt>
      <trkpt lat="44.15054" lon="1.75484">
        <ele>128</ele>
        <time>2018-06-25T09:14:54.129Z</time>
      </trkpt>
      <trkpt lat="44.15088" lon="1.75479">
        <ele>130</ele>
        <time>2018-06-25T09:14:55.129Z</time>
      </trkpt>
      <trkpt lat="44.15088" lon="1.75473">
        <ele>130</ele>
        <time>2018-06-25T09:14:56.129Z</time>
      </trkpt>
      <trkpt lat="44.15092" lon="1.75474">
        <ele>130</ele>
        <time>2018-06-25T09:14:57.129Z</time>
      </trkpt>
      <trkpt lat="44.15094" lon="1.75459">
        <ele>129</ele>
        <time>2018-06-25T09:14:58.129Z</time>
      </trkpt>
      <trkpt lat="44.15095" lon="1.75459">
        <ele>129</ele>
        <time>2018-06-25T09:14:59.129Z</time>
      </trkpt>
      <trkpt lat="44.15107" lon="1.75404">
        <ele>127</ele>
        <time>2018-06-25T09:15:00.129Z</time>
      </trkpt>
      <trkpt lat="44.1512" lon="1.75358">
        <ele>126</ele>
        <time>2018-06-25T09:15:01.129Z</time>
      </trkpt>
      <trkpt lat="44.15121" lon="1.75346">
        <ele>126</ele>
        <time>2018-06-25T09:15:02.129Z</time>
      </trkpt>
      <trkpt lat="44.15137" lon="1.75326">
        <ele>125</ele>
        <time>2018-06-25T09:15:03.129Z</time>
      </trkpt>
      <trkpt lat="44.15153" lon="1.75313">
        <ele>125</ele>
        <time>2018-06-25T09:15:04.129Z</time>
      </trkpt>
      <trkpt lat="44.15178" lon="1.75308">
        <ele>124</ele>
        <time>2018-06-25T09:15:05.129Z</time>
      </trkpt>
      <trkpt lat="44.15199" lon="1.7531">
        <ele>124</ele>
        <time>2018-06-25T09:15:06.129Z</time>
      </trkpt>
      <trkpt lat="44.15246" lon="1.75315">
        <ele>123</ele>
        <time>2018-06-25T09:15:07.129Z</time>
      </trkpt>
      <trkpt lat="44.15253" lon="1.75277">
        <ele>123</ele>
        <time>2018-06-25T09:15:08.129Z</time>
      </trkpt>
      <trkpt lat="44.15299" lon="1.75245">
        <ele>124</ele>
        <time>2018-06-25T09:15:09.129Z</time>
      </trkpt>
      <trkpt lat="44.15254" lon="1.75269">
        <ele>123</ele>
        <time>2018-06-25T09:15:10.129Z</time>
      </trkpt>
      <trkpt lat="44.15263" lon="1.75169">
        <ele>124</ele>
        <time>2018-06-25T09:15:11.129Z</time>
      </trkpt>
      <trkpt lat="44.15284" lon="1.75004">
        <ele>132</ele>
        <time>2018-06-25T09:15:12.129Z</time>
      </trkpt>
      <trkpt lat="44.15284" lon="1.74989">
        <ele>133</ele>
        <time>2018-06-25T09:15:13.129Z</time>
      </trkpt>
      <trkpt lat="44.1528" lon="1.74971">
        <ele>134</ele>
        <time>2018-06-25T09:15:14.129Z</time>
      </trkpt>
      <trkpt lat="44.15258" lon="1.74894">
        <ele>135</ele>
        <time>2018-06-25T09:15:15.129Z</time>
      </trkpt>
      <trkpt lat="44.15244" lon="1.74858">
        <ele>135</ele>
        <time>2018-06-25T09:15:16.129Z</time>
      </trkpt>
      <trkpt lat="44.15209" lon="1.74735">
        <ele>143</ele>
        <time>2018-06-25T09:15:17.129Z</time>
      </trkpt>
      <trkpt lat="44.15204" lon="1.74728">
        <ele>143</ele>
        <time>2018-06-25T09:15:18.129Z</time>
      </trkpt>
      <trkpt lat="44.15206" lon="1.7473">
        <ele>143</ele>
        <time>2018-06-25T09:15:19.129Z</time>
      </trkpt>
      <trkpt lat="44.15189" lon="1.74706">
        <ele>140</ele>
        <time>2018-06-25T09:15:20.129Z</time>
      </trkpt>
      <trkpt lat="44.15164" lon="1.74603">
        <ele>138</ele>
        <time>2018-06-25T09:15:21.129Z</time>
      </trkpt>
      <trkpt lat="44.15164" lon="1.74577">
        <ele>139</ele>
        <time>2018-06-25T09:15:22.129Z</time>
      </trkpt>
      <trkpt lat="44.15161" lon="1.74559">
        <ele>141</ele>
        <time>2018-06-25T09:15:23.129Z</time>
      </trkpt>
      <trkpt lat="44.1515" lon="1.74516">
        <ele>144</ele>
        <time>2018-06-25T09:15:24.129Z</time>
      </trkpt>
      <trkpt lat="44.15092" lon="1.74315">
        <ele>140</ele>
        <time>2018-06-25T09:15:25.129Z</time>
      </trkpt>
      <trkpt lat="44.15045" lon="1.74107">
        <ele>143</ele>
        <time>2018-06-25T09:15:26.129Z</time>
      </trkpt>
      <trkpt lat="44.15018" lon="1.73968">
        <ele>140</ele>
        <time>2018-06-25T09:15:27.129Z</time>
      </trkpt>
      <trkpt lat="44.14993" lon="1.73826">
        <ele>141</ele>
        <time>2018-06-25T09:15:28.129Z</time>
      </trkpt>
      <trkpt lat="44.14964" lon="1.73692">
        <ele>138</ele>
        <time>2018-06-25T09:15:29.129Z</time>
      </trkpt>
      <trkpt lat="44.14922" lon="1.73553">
        <ele>145</ele>
        <time>2018-06-25T09:15:30.129Z</time>
      </trkpt>
      <trkpt lat="44.14916" lon="1.73525">
        <ele>146</ele>
        <time>2018-06-25T09:15:31.129Z</time>
      </trkpt>
      <trkpt lat="44.14916" lon="1.73509">
        <ele>148</ele>
        <time>2018-06-25T09:15:32.129Z</time>
      </trkpt>
      <trkpt lat="44.14919" lon="1.73487">
        <ele>150</ele>
        <time>2018-06-25T09:15:33.129Z</time>
      </trkpt>
      <trkpt lat="44.14933" lon="1.73413">
        <ele>157</ele>
        <time>2018-06-25T09:15:34.129Z</time>
      </trkpt>
      <trkpt lat="44.14941" lon="1.7338">
        <ele>158</ele>
        <time>2018-06-25T09:15:35.129Z</time>
      </trkpt>
      <trkpt lat="44.14958" lon="1.73335">
        <ele>161</ele>
        <time>2018-06-25T09:15:36.129Z</time>
      </trkpt>
      <trkpt lat="44.14972" lon="1.73306">
        <ele>162</ele>
        <time>2018-06-25T09:15:37.129Z</time>
      </trkpt>
      <trkpt lat="44.15006" lon="1.73256">
        <ele>166</ele>
        <time>2018-06-25T09:15:38.129Z</time>
      </trkpt>
      <trkpt lat="44.15063" lon="1.732">
        <ele>173</ele>
        <time>2018-06-25T09:15:39.129Z</time>
      </trkpt>
      <trkpt lat="44.15105" lon="1.73166">
        <ele>177</ele>
        <time>2018-06-25T09:15:40.129Z</time>
      </trkpt>
      <trkpt lat="44.15188" lon="1.73116">
        <ele>186</ele>
        <time>2018-06-25T09:15:41.129Z</time>
      </trkpt>
      <trkpt lat="44.15275" lon="1.73061">
        <ele>194</ele>
        <time>2018-06-25T09:15:42.129Z</time>
      </trkpt>
      <trkpt lat="44.15358" lon="1.73003">
        <ele>199</ele>
        <time>2018-06-25T09:15:43.129Z</time>
      </trkpt>
      <trkpt lat="44.1539" lon="1.72979">
        <ele>203</ele>
        <time>2018-06-25T09:15:44.129Z</time>
      </trkpt>
      <trkpt lat="44.15422" lon="1.72951">
        <ele>207</ele>
        <time>2018-06-25T09:15:45.129Z</time>
      </trkpt>
      <trkpt lat="44.15508" lon="1.72843">
        <ele>219</ele>
        <time>2018-06-25T09:15:46.129Z</time>
      </trkpt>
      <trkpt lat="44.15552" lon="1.7278">
        <ele>226</ele>
        <time>2018-06-25T09:15:47.129Z</time>
      </trkpt>
      <trkpt lat="44.15584" lon="1.72728">
        <ele>232</ele>
        <time>2018-06-25T09:15:48.129Z</time>
      </trkpt>
      <trkpt lat="44.15602" lon="1.72695">
        <ele>235</ele>
        <time>2018-06-25T09:15:49.129Z</time>
      </trkpt>
      <trkpt lat="44.1565" lon="1.72599">
        <ele>242</ele>
        <time>2018-06-25T09:15:50.129Z</time>
      </trkpt>
      <trkpt lat="44.15663" lon="1.72575">
        <ele>243</ele>
        <time>2018-06-25T09:15:51.129Z</time>
      </trkpt>
      <trkpt lat="44.15677" lon="1.72558">
        <ele>246</ele>
        <time>2018-06-25T09:15:52.129Z</time>
      </trkpt>
      <trkpt lat="44.15699" lon="1.72536">
        <ele>250</ele>
        <time>2018-06-25T09:15:53.129Z</time>
      </trkpt>
      <trkpt lat="44.15731" lon="1.72511">
        <ele>257</ele>
        <time>2018-06-25T09:15:54.129Z</time>
      </trkpt>
      <trkpt lat="44.15743" lon="1.72498">
        <ele>259</ele>
        <time>2018-06-25T09:15:55.129Z</time>
      </trkpt>
      <trkpt lat="44.15752" lon="1.72483">
        <ele>261</ele>
        <time>2018-06-25T09:15:56.129Z</time>
      </trkpt>
      <trkpt lat="44.15762" lon="1.72444">
        <ele>263</ele>
        <time>2018-06-25T09:15:57.129Z</time>
      </trkpt>
      <trkpt lat="44.15767" lon="1.72407">
        <ele>264</ele>
        <time>2018-06-25T09:15:58.129Z</time>
      </trkpt>
      <trkpt lat="44.15769" lon="1.72358">
        <ele>266</ele>
        <time>2018-06-25T09:15:59.129Z</time>
      </trkpt>
      <trkpt lat="44.15769" lon="1.72287">
        <ele>270</ele>
        <time>2018-06-25T09:16:00.129Z</time>
      </trkpt>
      <trkpt lat="44.15766" lon="1.72257">
        <ele>271</ele>
        <time>2018-06-25T09:16:01.129Z</time>
      </trkpt>
      <trkpt lat="44.15762" lon="1.72234">
        <ele>273</ele>
        <time>2018-06-25T09:16:02.129Z</time>
      </trkpt>
      <trkpt lat="44.15754" lon="1.722">
        <ele>274</ele>
        <time>2018-06-25T09:16:03.129Z</time>
      </trkpt>
      <trkpt lat="44.15729" lon="1.72109">
        <ele>276</ele>
        <time>2018-06-25T09:16:04.129Z</time>
      </trkpt>
      <trkpt lat="44.15716" lon="1.71992">
        <ele>282</ele>
        <time>2018-06-25T09:16:05.129Z</time>
      </trkpt>
      <trkpt lat="44.15693" lon="1.71839">
        <ele>290</ele>
        <time>2018-06-25T09:16:06.129Z</time>
      </trkpt>
      <trkpt lat="44.157" lon="1.71825">
        <ele>292</ele>
        <time>2018-06-25T09:16:07.129Z</time>
      </trkpt>
      <trkpt lat="44.15698" lon="1.71801">
        <ele>293</ele>
        <time>2018-06-25T09:16:08.129Z</time>
      </trkpt>
      <trkpt lat="44.15698" lon="1.71776">
        <ele>295</ele>
        <time>2018-06-25T09:16:09.129Z</time>
      </trkpt>
      <trkpt lat="44.15702" lon="1.71749">
        <ele>297</ele>
        <time>2018-06-25T09:16:10.129Z</time>
      </trkpt>
      <trkpt lat="44.15734" lon="1.71624">
        <ele>299</ele>
        <time>2018-06-25T09:16:11.129Z</time>
      </trkpt>
      <trkpt lat="44.15312" lon="1.70681">
        <ele>297</ele>
        <time>2018-06-25T09:16:12.129Z</time>
      </trkpt>
      <trkpt lat="44.15299" lon="1.70658">
        <ele>299</ele>
        <time>2018-06-25T09:16:13.129Z</time>
      </trkpt>
      <trkpt lat="44.15264" lon="1.70613">
        <ele>301</ele>
        <time>2018-06-25T09:16:14.129Z</time>
      </trkpt>
      <trkpt lat="44.1491" lon="1.70237">
        <ele>295</ele>
        <time>2018-06-25T09:16:15.129Z</time>
      </trkpt>
      <trkpt lat="44.14892" lon="1.70218">
        <ele>294</ele>
        <time>2018-06-25T09:16:16.129Z</time>
      </trkpt>
      <trkpt lat="44.14873" lon="1.70203">
        <ele>293</ele>
        <time>2018-06-25T09:16:17.129Z</time>
      </trkpt>
      <trkpt lat="44.14858" lon="1.70194">
        <ele>293</ele>
        <time>2018-06-25T09:16:18.129Z</time>
      </trkpt>
      <trkpt lat="44.14841" lon="1.7019">
        <ele>293</ele>
        <time>2018-06-25T09:16:19.129Z</time>
      </trkpt>
      <trkpt lat="44.14435" lon="1.70171">
        <ele>306</ele>
        <time>2018-06-25T09:16:20.129Z</time>
      </trkpt>
      <trkpt lat="44.14378" lon="1.70164">
        <ele>306</ele>
        <time>2018-06-25T09:16:21.129Z</time>
      </trkpt>
      <trkpt lat="44.13881" lon="1.70091">
        <ele>313</ele>
        <time>2018-06-25T09:16:22.129Z</time>
      </trkpt>
      <trkpt lat="44.13849" lon="1.7008">
        <ele>313</ele>
        <time>2018-06-25T09:16:23.129Z</time>
      </trkpt>
      <trkpt lat="44.1373" lon="1.70032">
        <ele>312</ele>
        <time>2018-06-25T09:16:24.129Z</time>
      </trkpt>
      <trkpt lat="44.13704" lon="1.70011">
        <ele>311</ele>
        <time>2018-06-25T09:16:25.129Z</time>
      </trkpt>
      <trkpt lat="44.13696" lon="1.7">
        <ele>310</ele>
        <time>2018-06-25T09:16:26.129Z</time>
      </trkpt>
      <trkpt lat="44.13683" lon="1.6998">
        <ele>309</ele>
        <time>2018-06-25T09:16:27.129Z</time>
      </trkpt>
      <trkpt lat="44.13644" lon="1.69882">
        <ele>306</ele>
        <time>2018-06-25T09:16:28.129Z</time>
      </trkpt>
      <trkpt lat="44.13631" lon="1.69856">
        <ele>304</ele>
        <time>2018-06-25T09:16:29.129Z</time>
      </trkpt>
      <trkpt lat="44.13619" lon="1.69839">
        <ele>304</ele>
        <time>2018-06-25T09:16:30.129Z</time>
      </trkpt>
      <trkpt lat="44.13608" lon="1.69828">
        <ele>303</ele>
        <time>2018-06-25T09:16:31.129Z</time>
      </trkpt>
      <trkpt lat="44.13596" lon="1.69821">
        <ele>302</ele>
        <time>2018-06-25T09:16:32.129Z</time>
      </trkpt>
      <trkpt lat="44.13582" lon="1.69817">
        <ele>301</ele>
        <time>2018-06-25T09:16:33.129Z</time>
      </trkpt>
      <trkpt lat="44.13505" lon="1.69814">
        <ele>297</ele>
        <time>2018-06-25T09:16:34.129Z</time>
      </trkpt>
      <trkpt lat="44.13479" lon="1.6981">
        <ele>297</ele>
        <time>2018-06-25T09:16:35.129Z</time>
      </trkpt>
      <trkpt lat="44.1343" lon="1.6979">
        <ele>299</ele>
        <time>2018-06-25T09:16:36.129Z</time>
      </trkpt>
      <trkpt lat="44.12903" lon="1.6955">
        <ele>302</ele>
        <time>2018-06-25T09:16:37.129Z</time>
      </trkpt>
      <trkpt lat="44.12881" lon="1.69541">
        <ele>301</ele>
        <time>2018-06-25T09:16:38.129Z</time>
      </trkpt>
      <trkpt lat="44.1286" lon="1.69537">
        <ele>301</ele>
        <time>2018-06-25T09:16:39.129Z</time>
      </trkpt>
      <trkpt lat="44.12837" lon="1.69537">
        <ele>300</ele>
        <time>2018-06-25T09:16:40.129Z</time>
      </trkpt>
      <trkpt lat="44.12811" lon="1.69543">
        <ele>300</ele>
        <time>2018-06-25T09:16:41.129Z</time>
      </trkpt>
      <trkpt lat="44.1265" lon="1.69596">
        <ele>298</ele>
        <time>2018-06-25T09:16:42.129Z</time>
      </trkpt>
      <trkpt lat="44.1263" lon="1.69604">
        <ele>297</ele>
        <time>2018-06-25T09:16:43.129Z</time>
      </trkpt>
      <trkpt lat="44.1261" lon="1.69616">
        <ele>296</ele>
        <time>2018-06-25T09:16:44.129Z</time>
      </trkpt>
      <trkpt lat="44.12483" lon="1.69709">
        <ele>292</ele>
        <time>2018-06-25T09:16:45.129Z</time>
      </trkpt>
      <trkpt lat="44.12468" lon="1.69719">
        <ele>292</ele>
        <time>2018-06-25T09:16:46.129Z</time>
      </trkpt>
      <trkpt lat="44.12454" lon="1.69725">
        <ele>292</ele>
        <time>2018-06-25T09:16:47.129Z</time>
      </trkpt>
      <trkpt lat="44.12438" lon="1.69725">
        <ele>292</ele>
        <time>2018-06-25T09:16:48.129Z</time>
      </trkpt>
      <trkpt lat="44.12424" lon="1.6972">
        <ele>291</ele>
        <time>2018-06-25T09:16:49.129Z</time>
      </trkpt>
      <trkpt lat="44.12409" lon="1.69712">
        <ele>292</ele>
        <time>2018-06-25T09:16:50.129Z</time>
      </trkpt>
      <trkpt lat="44.12329" lon="1.69658">
        <ele>293</ele>
        <time>2018-06-25T09:16:51.129Z</time>
      </trkpt>
      <trkpt lat="44.12311" lon="1.69651">
        <ele>293</ele>
        <time>2018-06-25T09:16:52.129Z</time>
      </trkpt>
      <trkpt lat="44.12279" lon="1.69737">
        <ele>299</ele>
        <time>2018-06-25T09:16:53.129Z</time>
      </trkpt>
      <trkpt lat="44.12259" lon="1.69813">
        <ele>301</ele>
        <time>2018-06-25T09:16:54.129Z</time>
      </trkpt>
      <trkpt lat="44.1224" lon="1.69929">
        <ele>303</ele>
        <time>2018-06-25T09:16:55.129Z</time>
      </trkpt>
      <trkpt lat="44.12162" lon="1.69959">
        <ele>301</ele>
        <time>2018-06-25T09:16:56.129Z</time>
      </trkpt>
      <trkpt lat="44.12116" lon="1.69947">
        <ele>302</ele>
        <time>2018-06-25T09:16:57.129Z</time>
      </trkpt>
      <trkpt lat="44.12064" lon="1.69946">
        <ele>305</ele>
        <time>2018-06-25T09:16:58.129Z</time>
      </trkpt>
      <trkpt lat="44.1201" lon="1.69935">
        <ele>307</ele>
        <time>2018-06-25T09:16:59.129Z</time>
      </trkpt>
      <trkpt lat="44.11968" lon="1.69933">
        <ele>308</ele>
        <time>2018-06-25T09:17:00.129Z</time>
      </trkpt>
      <trkpt lat="44.11887" lon="1.69947">
        <ele>309</ele>
        <time>2018-06-25T09:17:01.129Z</time>
      </trkpt>
      <trkpt lat="44.11745" lon="1.69987">
        <ele>305</ele>
        <time>2018-06-25T09:17:02.129Z</time>
      </trkpt>
      <trkpt lat="44.11698" lon="1.69998">
        <ele>305</ele>
        <time>2018-06-25T09:17:03.129Z</time>
      </trkpt>
      <trkpt lat="44.1166" lon="1.7001">
        <ele>305</ele>
        <time>2018-06-25T09:17:04.129Z</time>
      </trkpt>
      <trkpt lat="44.11629" lon="1.70024">
        <ele>305</ele>
        <time>2018-06-25T09:17:05.129Z</time>
      </trkpt>
      <trkpt lat="44.11611" lon="1.70035">
        <ele>304</ele>
        <time>2018-06-25T09:17:06.129Z</time>
      </trkpt>
      <trkpt lat="44.11596" lon="1.70037">
        <ele>303</ele>
        <time>2018-06-25T09:17:07.129Z</time>
      </trkpt>
      <trkpt lat="44.11582" lon="1.70036">
        <ele>303</ele>
        <time>2018-06-25T09:17:08.129Z</time>
      </trkpt>
      <trkpt lat="44.11538" lon="1.70017">
        <ele>300</ele>
        <time>2018-06-25T09:17:09.129Z</time>
      </trkpt>
      <trkpt lat="44.11511" lon="1.7">
        <ele>298</ele>
        <time>2018-06-25T09:17:10.129Z</time>
      </trkpt>
      <trkpt lat="44.11477" lon="1.69995">
        <ele>298</ele>
        <time>2018-06-25T09:17:11.129Z</time>
      </trkpt>
      <trkpt lat="44.1143" lon="1.69992">
        <ele>298</ele>
        <time>2018-06-25T09:17:12.129Z</time>
      </trkpt>
      <trkpt lat="44.11357" lon="1.70005">
        <ele>298</ele>
        <time>2018-06-25T09:17:13.129Z</time>
      </trkpt>
      <trkpt lat="44.1134" lon="1.70013">
        <ele>298</ele>
        <time>2018-06-25T09:17:14.129Z</time>
      </trkpt>
      <trkpt lat="44.11322" lon="1.70018">
        <ele>297</ele>
        <time>2018-06-25T09:17:15.129Z</time>
      </trkpt>
      <trkpt lat="44.11302" lon="1.70018">
        <ele>296</ele>
        <time>2018-06-25T09:17:16.129Z</time>
      </trkpt>
      <trkpt lat="44.11208" lon="1.69997">
        <ele>293</ele>
        <time>2018-06-25T09:17:17.129Z</time>
      </trkpt>
      <trkpt lat="44.11165" lon="1.69969">
        <ele>292</ele>
        <time>2018-06-25T09:17:18.129Z</time>
      </trkpt>
      <trkpt lat="44.11153" lon="1.69959">
        <ele>291</ele>
        <time>2018-06-25T09:17:19.129Z</time>
      </trkpt>
      <trkpt lat="44.11135" lon="1.69936">
        <ele>289</ele>
        <time>2018-06-25T09:17:20.129Z</time>
      </trkpt>
      <trkpt lat="44.11108" lon="1.69925">
        <ele>287</ele>
        <time>2018-06-25T09:17:21.129Z</time>
      </trkpt>
      <trkpt lat="44.11061" lon="1.69913">
        <ele>285</ele>
        <time>2018-06-25T09:17:22.129Z</time>
      </trkpt>
      <trkpt lat="44.11017" lon="1.69894">
        <ele>285</ele>
        <time>2018-06-25T09:17:23.129Z</time>
      </trkpt>
      <trkpt lat="44.10931" lon="1.69842">
        <ele>285</ele>
        <time>2018-06-25T09:17:24.129Z</time>
      </trkpt>
      <trkpt lat="44.10892" lon="1.6983">
        <ele>285</ele>
        <time>2018-06-25T09:17:25.129Z</time>
      </trkpt>
      <trkpt lat="44.10862" lon="1.69804">
        <ele>286</ele>
        <time>2018-06-25T09:17:26.129Z</time>
      </trkpt>
      <trkpt lat="44.10827" lon="1.69767">
        <ele>288</ele>
        <time>2018-06-25T09:17:27.129Z</time>
      </trkpt>
      <trkpt lat="44.10803" lon="1.69732">
        <ele>290</ele>
        <time>2018-06-25T09:17:28.129Z</time>
      </trkpt>
      <trkpt lat="44.10774" lon="1.69706">
        <ele>292</ele>
        <time>2018-06-25T09:17:29.129Z</time>
      </trkpt>
      <trkpt lat="44.10756" lon="1.69683">
        <ele>293</ele>
        <time>2018-06-25T09:17:30.129Z</time>
      </trkpt>
      <trkpt lat="44.10737" lon="1.69652">
        <ele>294</ele>
        <time>2018-06-25T09:17:31.129Z</time>
      </trkpt>
      <trkpt lat="44.10711" lon="1.69623">
        <ele>295</ele>
        <time>2018-06-25T09:17:32.129Z</time>
      </trkpt>
      <trkpt lat="44.10673" lon="1.69587">
        <ele>295</ele>
        <time>2018-06-25T09:17:33.129Z</time>
      </trkpt>
      <trkpt lat="44.10649" lon="1.69561">
        <ele>295</ele>
        <time>2018-06-25T09:17:34.129Z</time>
      </trkpt>
      <trkpt lat="44.10639" lon="1.69546">
        <ele>295</ele>
        <time>2018-06-25T09:17:35.129Z</time>
      </trkpt>
      <trkpt lat="44.10634" lon="1.69526">
        <ele>295</ele>
        <time>2018-06-25T09:17:36.129Z</time>
      </trkpt>
      <trkpt lat="44.10618" lon="1.69507">
        <ele>296</ele>
        <time>2018-06-25T09:17:37.129Z</time>
      </trkpt>
      <trkpt lat="44.10526" lon="1.69436">
        <ele>300</ele>
        <time>2018-06-25T09:17:38.129Z</time>
      </trkpt>
      <trkpt lat="44.10513" lon="1.69424">
        <ele>300</ele>
        <time>2018-06-25T09:17:39.129Z</time>
      </trkpt>
      <trkpt lat="44.10505" lon="1.69408">
        <ele>300</ele>
        <time>2018-06-25T09:17:40.129Z</time>
      </trkpt>
      <trkpt lat="44.10501" lon="1.69385">
        <ele>300</ele>
        <time>2018-06-25T09:17:41.129Z</time>
      </trkpt>
      <trkpt lat="44.1049" lon="1.69357">
        <ele>299</ele>
        <time>2018-06-25T09:17:42.129Z</time>
      </trkpt>
      <trkpt lat="44.10465" lon="1.69316">
        <ele>297</ele>
        <time>2018-06-25T09:17:43.129Z</time>
      </trkpt>
      <trkpt lat="44.10368" lon="1.69128">
        <ele>286</ele>
        <time>2018-06-25T09:17:44.129Z</time>
      </trkpt>
      <trkpt lat="44.10324" lon="1.69051">
        <ele>284</ele>
        <time>2018-06-25T09:17:45.129Z</time>
      </trkpt>
      <trkpt lat="44.10234" lon="1.68869">
        <ele>278</ele>
        <time>2018-06-25T09:17:46.129Z</time>
      </trkpt>
      <trkpt lat="44.102" lon="1.68818">
        <ele>274</ele>
        <time>2018-06-25T09:17:47.129Z</time>
      </trkpt>
      <trkpt lat="44.1019" lon="1.68795">
        <ele>272</ele>
        <time>2018-06-25T09:17:48.129Z</time>
      </trkpt>
      <trkpt lat="44.10187" lon="1.68779">
        <ele>272</ele>
        <time>2018-06-25T09:17:49.129Z</time>
      </trkpt>
      <trkpt lat="44.10148" lon="1.68571">
        <ele>262</ele>
        <time>2018-06-25T09:17:50.129Z</time>
      </trkpt>
      <trkpt lat="44.10071" lon="1.68734">
        <ele>260</ele>
        <time>2018-06-25T09:17:51.129Z</time>
      </trkpt>
      <trkpt lat="44.09914" lon="1.68601">
        <ele>255</ele>
        <time>2018-06-25T09:17:52.129Z</time>
      </trkpt>
      <trkpt lat="44.09914" lon="1.68602">
        <ele>255</ele>
        <time>2018-06-25T09:17:53.129Z</time>
      </trkpt>
      <trkpt lat="44.09901" lon="1.68589">
        <ele>255</ele>
        <time>2018-06-25T09:17:54.129Z</time>
      </trkpt>
      <trkpt lat="44.09834" lon="1.68535">
        <ele>255</ele>
        <time>2018-06-25T09:17:55.129Z</time>
      </trkpt>
      <trkpt lat="44.09782" lon="1.68503">
        <ele>257</ele>
        <time>2018-06-25T09:17:56.129Z</time>
      </trkpt>
      <trkpt lat="44.09763" lon="1.68484">
        <ele>257</ele>
        <time>2018-06-25T09:17:57.129Z</time>
      </trkpt>
      <trkpt lat="44.09697" lon="1.68434">
        <ele>261</ele>
        <time>2018-06-25T09:17:58.129Z</time>
      </trkpt>
      <trkpt lat="44.09615" lon="1.68361">
        <ele>262</ele>
        <time>2018-06-25T09:17:59.129Z</time>
      </trkpt>
      <trkpt lat="44.09548" lon="1.68327">
        <ele>264</ele>
        <time>2018-06-25T09:18:00.129Z</time>
      </trkpt>
      <trkpt lat="44.09534" lon="1.68325">
        <ele>264</ele>
        <time>2018-06-25T09:18:01.129Z</time>
      </trkpt>
      <trkpt lat="44.095" lon="1.68308">
        <ele>264</ele>
        <time>2018-06-25T09:18:02.129Z</time>
      </trkpt>
      <trkpt lat="44.09446" lon="1.68308">
        <ele>262</ele>
        <time>2018-06-25T09:18:03.129Z</time>
      </trkpt>
      <trkpt lat="44.09355" lon="1.68293">
        <ele>256</ele>
        <time>2018-06-25T09:18:04.129Z</time>
      </trkpt>
      <trkpt lat="44.0934" lon="1.68292">
        <ele>255</ele>
        <time>2018-06-25T09:18:05.129Z</time>
      </trkpt>
      <trkpt lat="44.09263" lon="1.6829">
        <ele>250</ele>
        <time>2018-06-25T09:18:06.129Z</time>
      </trkpt>
      <trkpt lat="44.09245" lon="1.68283">
        <ele>249</ele>
        <time>2018-06-25T09:18:07.129Z</time>
      </trkpt>
      <trkpt lat="44.09228" lon="1.68396">
        <ele>249</ele>
        <time>2018-06-25T09:18:08.129Z</time>
      </trkpt>
      <trkpt lat="44.09222" lon="1.68406">
        <ele>249</ele>
        <time>2018-06-25T09:18:09.129Z</time>
      </trkpt>
      <trkpt lat="44.09176" lon="1.6842">
        <ele>247</ele>
        <time>2018-06-25T09:18:10.129Z</time>
      </trkpt>
      <trkpt lat="44.0913" lon="1.68428">
        <ele>248</ele>
        <time>2018-06-25T09:18:11.129Z</time>
      </trkpt>
      <trkpt lat="44.09061" lon="1.68506">
        <ele>254</ele>
        <time>2018-06-25T09:18:12.129Z</time>
      </trkpt>
      <trkpt lat="44.09004" lon="1.68542">
        <ele>257</ele>
        <time>2018-06-25T09:18:13.129Z</time>
      </trkpt>
      <trkpt lat="44.08992" lon="1.68561">
        <ele>258</ele>
        <time>2018-06-25T09:18:14.129Z</time>
      </trkpt>
      <trkpt lat="44.08955" lon="1.68641">
        <ele>261</ele>
        <time>2018-06-25T09:18:15.129Z</time>
      </trkpt>
      <trkpt lat="44.08947" lon="1.68648">
        <ele>261</ele>
        <time>2018-06-25T09:18:16.129Z</time>
      </trkpt>
      <trkpt lat="44.08943" lon="1.68707">
        <ele>264</ele>
        <time>2018-06-25T09:18:17.129Z</time>
      </trkpt>
      <trkpt lat="44.08926" lon="1.68825">
        <ele>269</ele>
        <time>2018-06-25T09:18:18.129Z</time>
      </trkpt>
      <trkpt lat="44.08923" lon="1.68887">
        <ele>270</ele>
        <time>2018-06-25T09:18:19.129Z</time>
      </trkpt>
      <trkpt lat="44.08907" lon="1.68964">
        <ele>273</ele>
        <time>2018-06-25T09:18:20.129Z</time>
      </trkpt>
      <trkpt lat="44.08903" lon="1.69009">
        <ele>275</ele>
        <time>2018-06-25T09:18:21.129Z</time>
      </trkpt>
      <trkpt lat="44.08898" lon="1.69086">
        <ele>276</ele>
        <time>2018-06-25T09:18:22.129Z</time>
      </trkpt>
      <trkpt lat="44.08734" lon="1.6906">
        <ele>277</ele>
        <time>2018-06-25T09:18:23.129Z</time>
      </trkpt>
      <trkpt lat="44.08735" lon="1.6906">
        <ele>277</ele>
        <time>2018-06-25T09:18:24.129Z</time>
      </trkpt>
      <trkpt lat="44.08649" lon="1.69035">
        <ele>280</ele>
        <time>2018-06-25T09:18:25.129Z</time>
      </trkpt>
      <trkpt lat="44.08598" lon="1.69019">
        <ele>280</ele>
        <time>2018-06-25T09:18:26.129Z</time>
      </trkpt>
      <trkpt lat="44.08528" lon="1.69002">
        <ele>277</ele>
        <time>2018-06-25T09:18:27.129Z</time>
      </trkpt>
      <trkpt lat="44.08516" lon="1.69004">
        <ele>276</ele>
        <time>2018-06-25T09:18:28.129Z</time>
      </trkpt>
      <trkpt lat="44.08485" lon="1.69023">
        <ele>275</ele>
        <time>2018-06-25T09:18:29.129Z</time>
      </trkpt>
      <trkpt lat="44.08475" lon="1.69024">
        <ele>275</ele>
        <time>2018-06-25T09:18:30.129Z</time>
      </trkpt>
      <trkpt lat="44.08465" lon="1.69018">
        <ele>274</ele>
        <time>2018-06-25T09:18:31.129Z</time>
      </trkpt>
      <trkpt lat="44.08448" lon="1.69">
        <ele>273</ele>
        <time>2018-06-25T09:18:32.129Z</time>
      </trkpt>
      <trkpt lat="44.08432" lon="1.68996">
        <ele>272</ele>
        <time>2018-06-25T09:18:33.129Z</time>
      </trkpt>
      <trkpt lat="44.08414" lon="1.69005">
        <ele>272</ele>
        <time>2018-06-25T09:18:34.129Z</time>
      </trkpt>
      <trkpt lat="44.08417" lon="1.68986">
        <ele>272</ele>
        <time>2018-06-25T09:18:35.129Z</time>
      </trkpt>
      <trkpt lat="44.08373" lon="1.68947">
        <ele>270</ele>
        <time>2018-06-25T09:18:36.129Z</time>
      </trkpt>
      <trkpt lat="44.08295" lon="1.68905">
        <ele>269</ele>
        <time>2018-06-25T09:18:37.129Z</time>
      </trkpt>
      <trkpt lat="44.08265" lon="1.68892">
        <ele>269</ele>
        <time>2018-06-25T09:18:38.129Z</time>
      </trkpt>
      <trkpt lat="44.08238" lon="1.68869">
        <ele>269</ele>
        <time>2018-06-25T09:18:39.129Z</time>
      </trkpt>
      <trkpt lat="44.0821" lon="1.68857">
        <ele>270</ele>
        <time>2018-06-25T09:18:40.129Z</time>
      </trkpt>
      <trkpt lat="44.08143" lon="1.68807">
        <ele>271</ele>
        <time>2018-06-25T09:18:41.129Z</time>
      </trkpt>
      <trkpt lat="44.08107" lon="1.68792">
        <ele>271</ele>
        <time>2018-06-25T09:18:42.129Z</time>
      </trkpt>
      <trkpt lat="44.08061" lon="1.68784">
        <ele>270</ele>
        <time>2018-06-25T09:18:43.129Z</time>
      </trkpt>
      <trkpt lat="44.08025" lon="1.68773">
        <ele>270</ele>
        <time>2018-06-25T09:18:44.129Z</time>
      </trkpt>
      <trkpt lat="44.07978" lon="1.68744">
        <ele>269</ele>
        <time>2018-06-25T09:18:45.129Z</time>
      </trkpt>
      <trkpt lat="44.07967" lon="1.68734">
        <ele>269</ele>
        <time>2018-06-25T09:18:46.129Z</time>
      </trkpt>
      <trkpt lat="44.07944" lon="1.68724">
        <ele>268</ele>
        <time>2018-06-25T09:18:47.129Z</time>
      </trkpt>
      <trkpt lat="44.07913" lon="1.68695">
        <ele>266</ele>
        <time>2018-06-25T09:18:48.129Z</time>
      </trkpt>
      <trkpt lat="44.07873" lon="1.68654">
        <ele>263</ele>
        <time>2018-06-25T09:18:49.129Z</time>
      </trkpt>
      <trkpt lat="44.07861" lon="1.68635">
        <ele>262</ele>
        <time>2018-06-25T09:18:50.129Z</time>
      </trkpt>
      <trkpt lat="44.07836" lon="1.68617">
        <ele>261</ele>
        <time>2018-06-25T09:18:51.129Z</time>
      </trkpt>
      <trkpt lat="44.0776" lon="1.68581">
        <ele>258</ele>
        <time>2018-06-25T09:18:52.129Z</time>
      </trkpt>
      <trkpt lat="44.0771" lon="1.68526">
        <ele>257</ele>
        <time>2018-06-25T09:18:53.129Z</time>
      </trkpt>
      <trkpt lat="44.07679" lon="1.68511">
        <ele>257</ele>
        <time>2018-06-25T09:18:54.129Z</time>
      </trkpt>
      <trkpt lat="44.0762" lon="1.68461">
        <ele>254</ele>
        <time>2018-06-25T09:18:55.129Z</time>
      </trkpt>
      <trkpt lat="44.07588" lon="1.68427">
        <ele>254</ele>
        <time>2018-06-25T09:18:56.129Z</time>
      </trkpt>
      <trkpt lat="44.0759" lon="1.68428">
        <ele>254</ele>
        <time>2018-06-25T09:18:57.129Z</time>
      </trkpt>
      <trkpt lat="44.07561" lon="1.68398">
        <ele>251</ele>
        <time>2018-06-25T09:18:58.129Z</time>
      </trkpt>
      <trkpt lat="44.07503" lon="1.68347">
        <ele>247</ele>
        <time>2018-06-25T09:18:59.129Z</time>
      </trkpt>
      <trkpt lat="44.07414" lon="1.68185">
        <ele>241</ele>
        <time>2018-06-25T09:19:00.129Z</time>
      </trkpt>
      <trkpt lat="44.07404" lon="1.68179">
        <ele>240</ele>
        <time>2018-06-25T09:19:01.129Z</time>
      </trkpt>
      <trkpt lat="44.07396" lon="1.68161">
        <ele>240</ele>
        <time>2018-06-25T09:19:02.129Z</time>
      </trkpt>
      <trkpt lat="44.074" lon="1.68137">
        <ele>242</ele>
        <time>2018-06-25T09:19:03.129Z</time>
      </trkpt>
      <trkpt lat="44.07419" lon="1.68033">
        <ele>248</ele>
        <time>2018-06-25T09:19:04.129Z</time>
      </trkpt>
      <trkpt lat="44.07448" lon="1.67985">
        <ele>246</ele>
        <time>2018-06-25T09:19:05.129Z</time>
      </trkpt>
      <trkpt lat="44.07464" lon="1.67968">
        <ele>245</ele>
        <time>2018-06-25T09:19:06.129Z</time>
      </trkpt>
      <trkpt lat="44.07478" lon="1.67935">
        <ele>245</ele>
        <time>2018-06-25T09:19:07.129Z</time>
      </trkpt>
      <trkpt lat="44.07531" lon="1.67877">
        <ele>240</ele>
        <time>2018-06-25T09:19:08.129Z</time>
      </trkpt>
      <trkpt lat="44.07558" lon="1.6783">
        <ele>237</ele>
        <time>2018-06-25T09:19:09.129Z</time>
      </trkpt>
      <trkpt lat="44.07579" lon="1.67778">
        <ele>236</ele>
        <time>2018-06-25T09:19:10.129Z</time>
      </trkpt>
      <trkpt lat="44.07596" lon="1.67699">
        <ele>234</ele>
        <time>2018-06-25T09:19:11.129Z</time>
      </trkpt>
      <trkpt lat="44.0762" lon="1.67646">
        <ele>231</ele>
        <time>2018-06-25T09:19:12.129Z</time>
      </trkpt>
      <trkpt lat="44.07658" lon="1.67642">
        <ele>229</ele>
        <time>2018-06-25T09:19:13.129Z</time>
      </trkpt>
      <trkpt lat="44.07713" lon="1.67602">
        <ele>228</ele>
        <time>2018-06-25T09:19:14.129Z</time>
      </trkpt>
      <trkpt lat="44.07727" lon="1.67587">
        <ele>229</ele>
        <time>2018-06-25T09:19:15.129Z</time>
      </trkpt>
      <trkpt lat="44.07737" lon="1.67568">
        <ele>230</ele>
        <time>2018-06-25T09:19:16.129Z</time>
      </trkpt>
      <trkpt lat="44.07764" lon="1.67498">
        <ele>231</ele>
        <time>2018-06-25T09:19:17.129Z</time>
      </trkpt>
      <trkpt lat="44.07769" lon="1.67476">
        <ele>232</ele>
        <time>2018-06-25T09:19:18.129Z</time>
      </trkpt>
      <trkpt lat="44.07771" lon="1.67437">
        <ele>232</ele>
        <time>2018-06-25T09:19:19.129Z</time>
      </trkpt>
      <trkpt lat="44.07796" lon="1.674">
        <ele>232</ele>
        <time>2018-06-25T09:19:20.129Z</time>
      </trkpt>
      <trkpt lat="44.078" lon="1.67386">
        <ele>232</ele>
        <time>2018-06-25T09:19:21.129Z</time>
      </trkpt>
      <trkpt lat="44.07804" lon="1.6735">
        <ele>232</ele>
        <time>2018-06-25T09:19:22.129Z</time>
      </trkpt>
      <trkpt lat="44.07802" lon="1.67338">
        <ele>232</ele>
        <time>2018-06-25T09:19:23.129Z</time>
      </trkpt>
      <trkpt lat="44.07793" lon="1.67316">
        <ele>232</ele>
        <time>2018-06-25T09:19:24.129Z</time>
      </trkpt>
      <trkpt lat="44.0778" lon="1.67299">
        <ele>232</ele>
        <time>2018-06-25T09:19:25.129Z</time>
      </trkpt>
      <trkpt lat="44.07718" lon="1.67242">
        <ele>231</ele>
        <time>2018-06-25T09:19:26.129Z</time>
      </trkpt>
      <trkpt lat="44.077" lon="1.67219">
        <ele>231</ele>
        <time>2018-06-25T09:19:27.129Z</time>
      </trkpt>
      <trkpt lat="44.07658" lon="1.67143">
        <ele>230</ele>
        <time>2018-06-25T09:19:28.129Z</time>
      </trkpt>
      <trkpt lat="44.07652" lon="1.67143">
        <ele>230</ele>
        <time>2018-06-25T09:19:29.129Z</time>
      </trkpt>
      <trkpt lat="44.07519" lon="1.67016">
        <ele>223</ele>
        <time>2018-06-25T09:19:30.129Z</time>
      </trkpt>
      <trkpt lat="44.07476" lon="1.66942">
        <ele>222</ele>
        <time>2018-06-25T09:19:31.129Z</time>
      </trkpt>
      <trkpt lat="44.07377" lon="1.66889">
        <ele>223</ele>
        <time>2018-06-25T09:19:32.129Z</time>
      </trkpt>
      <trkpt lat="44.07284" lon="1.66856">
        <ele>226</ele>
        <time>2018-06-25T09:19:33.129Z</time>
      </trkpt>
      <trkpt lat="44.0722" lon="1.66768">
        <ele>230</ele>
        <time>2018-06-25T09:19:34.129Z</time>
      </trkpt>
      <trkpt lat="44.07162" lon="1.6666">
        <ele>230</ele>
        <time>2018-06-25T09:19:35.129Z</time>
      </trkpt>
      <trkpt lat="44.07109" lon="1.6662">
        <ele>227</ele>
        <time>2018-06-25T09:19:36.129Z</time>
      </trkpt>
      <trkpt lat="44.07038" lon="1.66517">
        <ele>219</ele>
        <time>2018-06-25T09:19:37.129Z</time>
      </trkpt>
      <trkpt lat="44.06954" lon="1.66489">
        <ele>214</ele>
        <time>2018-06-25T09:19:38.129Z</time>
      </trkpt>
      <trkpt lat="44.06854" lon="1.66427">
        <ele>215</ele>
        <time>2018-06-25T09:19:39.129Z</time>
      </trkpt>
      <trkpt lat="44.0674" lon="1.66379">
        <ele>215</ele>
        <time>2018-06-25T09:19:40.129Z</time>
      </trkpt>
      <trkpt lat="44.06704" lon="1.664">
        <ele>215</ele>
        <time>2018-06-25T09:19:41.129Z</time>
      </trkpt>
      <trkpt lat="44.06619" lon="1.6649">
        <ele>215</ele>
        <time>2018-06-25T09:19:42.129Z</time>
      </trkpt>
      <trkpt lat="44.06565" lon="1.6655">
        <ele>215</ele>
        <time>2018-06-25T09:19:43.129Z</time>
      </trkpt>
      <trkpt lat="44.06541" lon="1.66561">
        <ele>211</ele>
        <time>2018-06-25T09:19:44.129Z</time>
      </trkpt>
      <trkpt lat="44.06515" lon="1.66591">
        <ele>210</ele>
        <time>2018-06-25T09:19:45.129Z</time>
      </trkpt>
      <trkpt lat="44.0652" lon="1.66611">
        <ele>212</ele>
        <time>2018-06-25T09:19:46.129Z</time>
      </trkpt>
      <trkpt lat="44.06466" lon="1.66671">
        <ele>206</ele>
        <time>2018-06-25T09:19:47.129Z</time>
      </trkpt>
      <trkpt lat="44.06435" lon="1.66693">
        <ele>201</ele>
        <time>2018-06-25T09:19:48.129Z</time>
      </trkpt>
      <trkpt lat="44.06327" lon="1.66775">
        <ele>193</ele>
        <time>2018-06-25T09:19:49.129Z</time>
      </trkpt>
      <trkpt lat="44.06275" lon="1.66818">
        <ele>189</ele>
        <time>2018-06-25T09:19:50.129Z</time>
      </trkpt>
      <trkpt lat="44.06108" lon="1.66913">
        <ele>160</ele>
        <time>2018-06-25T09:19:51.129Z</time>
      </trkpt>
      <trkpt lat="44.06069" lon="1.66916">
        <ele>156</ele>
        <time>2018-06-25T09:19:52.129Z</time>
      </trkpt>
      <trkpt lat="44.06064" lon="1.66913">
        <ele>154</ele>
        <time>2018-06-25T09:19:53.129Z</time>
      </trkpt>
      <trkpt lat="44.0605" lon="1.66911">
        <ele>151</ele>
        <time>2018-06-25T09:19:54.129Z</time>
      </trkpt>
      <trkpt lat="44.06037" lon="1.66918">
        <ele>151</ele>
        <time>2018-06-25T09:19:55.129Z</time>
      </trkpt>
      <trkpt lat="44.05999" lon="1.66922">
        <ele>144</ele>
        <time>2018-06-25T09:19:56.129Z</time>
      </trkpt>
      <trkpt lat="44.05965" lon="1.66939">
        <ele>139</ele>
        <time>2018-06-25T09:19:57.129Z</time>
      </trkpt>
      <trkpt lat="44.059" lon="1.66922">
        <ele>130</ele>
        <time>2018-06-25T09:19:58.129Z</time>
      </trkpt>
      <trkpt lat="44.05892" lon="1.66922">
        <ele>130</ele>
        <time>2018-06-25T09:19:59.129Z</time>
      </trkpt>
      <trkpt lat="44.05857" lon="1.66911">
        <ele>125</ele>
        <time>2018-06-25T09:20:00.129Z</time>
      </trkpt>
      <trkpt lat="44.05818" lon="1.66905">
        <ele>120</ele>
        <time>2018-06-25T09:20:01.129Z</time>
      </trkpt>
      <trkpt lat="44.05803" lon="1.66909">
        <ele>118</ele>
        <time>2018-06-25T09:20:02.129Z</time>
      </trkpt>
      <trkpt lat="44.05768" lon="1.66907">
        <ele>113</ele>
        <time>2018-06-25T09:20:03.129Z</time>
      </trkpt>
      <trkpt lat="44.05746" lon="1.66912">
        <ele>110</ele>
        <time>2018-06-25T09:20:04.129Z</time>
      </trkpt>
      <trkpt lat="44.05747" lon="1.66926">
        <ele>111</ele>
        <time>2018-06-25T09:20:05.129Z</time>
      </trkpt>
      <trkpt lat="44.05729" lon="1.66941">
        <ele>109</ele>
        <time>2018-06-25T09:20:06.129Z</time>
      </trkpt>
      <trkpt lat="44.05708" lon="1.66955">
        <ele>107</ele>
        <time>2018-06-25T09:20:07.129Z</time>
      </trkpt>
      <trkpt lat="44.05698" lon="1.66956">
        <ele>106</ele>
        <time>2018-06-25T09:20:08.129Z</time>
      </trkpt>
      <trkpt lat="44.05628" lon="1.66953">
        <ele>103</ele>
        <time>2018-06-25T09:20:09.129Z</time>
      </trkpt>
      <trkpt lat="44.05628" lon="1.66978">
        <ele>103</ele>
        <time>2018-06-25T09:20:10.129Z</time>
      </trkpt>
      <trkpt lat="44.05633" lon="1.67038">
        <ele>105</ele>
        <time>2018-06-25T09:20:11.129Z</time>
      </trkpt>
      <trkpt lat="44.05624" lon="1.67059">
        <ele>106</ele>
        <time>2018-06-25T09:20:12.129Z</time>
      </trkpt>
      <trkpt lat="44.05618" lon="1.67069">
        <ele>107</ele>
        <time>2018-06-25T09:20:13.129Z</time>
      </trkpt>
      <trkpt lat="44.05609" lon="1.67077">
        <ele>107</ele>
        <time>2018-06-25T09:20:14.129Z</time>
      </trkpt>
      <trkpt lat="44.05586" lon="1.67094">
        <ele>110</ele>
        <time>2018-06-25T09:20:15.129Z</time>
      </trkpt>
      <trkpt lat="44.05477" lon="1.67167">
        <ele>112</ele>
        <time>2018-06-25T09:20:16.129Z</time>
      </trkpt>
      <trkpt lat="44.05446" lon="1.67184">
        <ele>111</ele>
        <time>2018-06-25T09:20:17.129Z</time>
      </trkpt>
      <trkpt lat="44.0543" lon="1.67189">
        <ele>110</ele>
        <time>2018-06-25T09:20:18.129Z</time>
      </trkpt>
      <trkpt lat="44.05368" lon="1.67205">
        <ele>108</ele>
        <time>2018-06-25T09:20:19.129Z</time>
      </trkpt>
      <trkpt lat="44.05357" lon="1.6713">
        <ele>104</ele>
        <time>2018-06-25T09:20:20.129Z</time>
      </trkpt>
      <trkpt lat="44.05347" lon="1.67102">
        <ele>104</ele>
        <time>2018-06-25T09:20:21.129Z</time>
      </trkpt>
      <trkpt lat="44.05327" lon="1.67075">
        <ele>106</ele>
        <time>2018-06-25T09:20:22.129Z</time>
      </trkpt>
      <trkpt lat="44.05297" lon="1.67106">
        <ele>106</ele>
        <time>2018-06-25T09:20:23.129Z</time>
      </trkpt>
      <trkpt lat="44.05281" lon="1.67117">
        <ele>106</ele>
        <time>2018-06-25T09:20:24.129Z</time>
      </trkpt>
      <trkpt lat="44.05258" lon="1.67134">
        <ele>106</ele>
        <time>2018-06-25T09:20:25.129Z</time>
      </trkpt>
      <trkpt lat="44.05204" lon="1.67135">
        <ele>107</ele>
        <time>2018-06-25T09:20:26.129Z</time>
      </trkpt>
      <trkpt lat="44.05164" lon="1.67155">
        <ele>106</ele>
        <time>2018-06-25T09:20:27.129Z</time>
      </trkpt>
      <trkpt lat="44.05162" lon="1.67167">
        <ele>105</ele>
        <time>2018-06-25T09:20:28.129Z</time>
      </trkpt>
      <trkpt lat="44.05173" lon="1.67249">
        <ele>109</ele>
        <time>2018-06-25T09:20:29.129Z</time>
      </trkpt>
      <trkpt lat="44.05141" lon="1.6726">
        <ele>110</ele>
        <time>2018-06-25T09:20:30.129Z</time>
      </trkpt>
      <trkpt lat="44.05137" lon="1.67253">
        <ele>108</ele>
        <time>2018-06-25T09:20:31.129Z</time>
      </trkpt>
      <trkpt lat="44.05127" lon="1.67245">
        <ele>108</ele>
        <time>2018-06-25T09:20:32.129Z</time>
      </trkpt>
      <trkpt lat="44.05109" lon="1.67222">
        <ele>107</ele>
        <time>2018-06-25T09:20:33.129Z</time>
      </trkpt>
      <trkpt lat="44.05078" lon="1.67174">
        <ele>109</ele>
        <time>2018-06-25T09:20:34.129Z</time>
      </trkpt>
      <trkpt lat="44.05074" lon="1.67164">
        <ele>110</ele>
        <time>2018-06-25T09:20:35.129Z</time>
      </trkpt>
      <trkpt lat="44.05069" lon="1.67139">
        <ele>114</ele>
        <time>2018-06-25T09:20:36.129Z</time>
      </trkpt>
      <trkpt lat="44.05062" lon="1.67144">
        <ele>114</ele>
        <time>2018-06-25T09:20:37.129Z</time>
      </trkpt>
      <trkpt lat="44.05055" lon="1.67154">
        <ele>114</ele>
        <time>2018-06-25T09:20:38.129Z</time>
      </trkpt>
      <trkpt lat="44.05" lon="1.67243">
        <ele>112</ele>
        <time>2018-06-25T09:20:39.129Z</time>
      </trkpt>
      <trkpt lat="44.04941" lon="1.6733">
        <ele>109</ele>
        <time>2018-06-25T09:20:40.129Z</time>
      </trkpt>
      <trkpt lat="44.0493" lon="1.67341">
        <ele>109</ele>
        <time>2018-06-25T09:20:41.129Z</time>
      </trkpt>
      <trkpt lat="44.04904" lon="1.67352">
        <ele>110</ele>
        <time>2018-06-25T09:20:42.129Z</time>
      </trkpt>
      <trkpt lat="44.04861" lon="1.67376">
        <ele>111</ele>
        <time>2018-06-25T09:20:43.129Z</time>
      </trkpt>
      <trkpt lat="44.04844" lon="1.67378">
        <ele>112</ele>
        <time>2018-06-25T09:20:44.129Z</time>
      </trkpt>
      <trkpt lat="44.04832" lon="1.67374">
        <ele>113</ele>
        <time>2018-06-25T09:20:45.129Z</time>
      </trkpt>
      <trkpt lat="44.04819" lon="1.67364">
        <ele>113</ele>
        <time>2018-06-25T09:20:46.129Z</time>
      </trkpt>
      <trkpt lat="44.04779" lon="1.67343">
        <ele>112</ele>
        <time>2018-06-25T09:20:47.129Z</time>
      </trkpt>
      <trkpt lat="44.04761" lon="1.67331">
        <ele>112</ele>
        <time>2018-06-25T09:20:48.129Z</time>
      </trkpt>
      <trkpt lat="44.04743" lon="1.67307">
        <ele>113</ele>
        <time>2018-06-25T09:20:49.129Z</time>
      </trkpt>
      <trkpt lat="44.04675" lon="1.67194">
        <ele>114</ele>
        <time>2018-06-25T09:20:50.129Z</time>
      </trkpt>
      <trkpt lat="44.0464" lon="1.67127">
        <ele>115</ele>
        <time>2018-06-25T09:20:51.129Z</time>
      </trkpt>
      <trkpt lat="44.04615" lon="1.67088">
        <ele>114</ele>
        <time>2018-06-25T09:20:52.129Z</time>
      </trkpt>
      <trkpt lat="44.04529" lon="1.66981">
        <ele>115</ele>
        <time>2018-06-25T09:20:53.129Z</time>
      </trkpt>
      <trkpt lat="44.04513" lon="1.66956">
        <ele>115</ele>
        <time>2018-06-25T09:20:54.129Z</time>
      </trkpt>
      <trkpt lat="44.04498" lon="1.66938">
        <ele>114</ele>
        <time>2018-06-25T09:20:55.129Z</time>
      </trkpt>
      <trkpt lat="44.04482" lon="1.66923">
        <ele>113</ele>
        <time>2018-06-25T09:20:56.129Z</time>
      </trkpt>
      <trkpt lat="44.04462" lon="1.66911">
        <ele>112</ele>
        <time>2018-06-25T09:20:57.129Z</time>
      </trkpt>
      <trkpt lat="44.0445" lon="1.66899">
        <ele>112</ele>
        <time>2018-06-25T09:20:58.129Z</time>
      </trkpt>
      <trkpt lat="44.04433" lon="1.66873">
        <ele>112</ele>
        <time>2018-06-25T09:20:59.129Z</time>
      </trkpt>
      <trkpt lat="44.04408" lon="1.66825">
        <ele>115</ele>
        <time>2018-06-25T09:21:00.129Z</time>
      </trkpt>
      <trkpt lat="44.04391" lon="1.66805">
        <ele>119</ele>
        <time>2018-06-25T09:21:01.129Z</time>
      </trkpt>
      <trkpt lat="44.04376" lon="1.66794">
        <ele>121</ele>
        <time>2018-06-25T09:21:02.129Z</time>
      </trkpt>
      <trkpt lat="44.04351" lon="1.66785">
        <ele>122</ele>
        <time>2018-06-25T09:21:03.129Z</time>
      </trkpt>
      <trkpt lat="44.04334" lon="1.66788">
        <ele>121</ele>
        <time>2018-06-25T09:21:04.129Z</time>
      </trkpt>
      <trkpt lat="44.04317" lon="1.66797">
        <ele>119</ele>
        <time>2018-06-25T09:21:05.129Z</time>
      </trkpt>
      <trkpt lat="44.04297" lon="1.66801">
        <ele>118</ele>
        <time>2018-06-25T09:21:06.129Z</time>
      </trkpt>
      <trkpt lat="44.04233" lon="1.66786">
        <ele>122</ele>
        <time>2018-06-25T09:21:07.129Z</time>
      </trkpt>
      <trkpt lat="44.04188" lon="1.66794">
        <ele>123</ele>
        <time>2018-06-25T09:21:08.129Z</time>
      </trkpt>
      <trkpt lat="44.04176" lon="1.66798">
        <ele>122</ele>
        <time>2018-06-25T09:21:09.129Z</time>
      </trkpt>
      <trkpt lat="44.04161" lon="1.6681">
        <ele>121</ele>
        <time>2018-06-25T09:21:10.129Z</time>
      </trkpt>
      <trkpt lat="44.04156" lon="1.66818">
        <ele>120</ele>
        <time>2018-06-25T09:21:11.129Z</time>
      </trkpt>
      <trkpt lat="44.04149" lon="1.66842">
        <ele>118</ele>
        <time>2018-06-25T09:21:12.129Z</time>
      </trkpt>
      <trkpt lat="44.04141" lon="1.6686">
        <ele>118</ele>
        <time>2018-06-25T09:21:13.129Z</time>
      </trkpt>
      <trkpt lat="44.04129" lon="1.66879">
        <ele>119</ele>
        <time>2018-06-25T09:21:14.129Z</time>
      </trkpt>
      <trkpt lat="44.0412" lon="1.66891">
        <ele>119</ele>
        <time>2018-06-25T09:21:15.129Z</time>
      </trkpt>
      <trkpt lat="44.04096" lon="1.6691">
        <ele>120</ele>
        <time>2018-06-25T09:21:16.129Z</time>
      </trkpt>
      <trkpt lat="44.04049" lon="1.66938">
        <ele>122</ele>
        <time>2018-06-25T09:21:17.129Z</time>
      </trkpt>
      <trkpt lat="44.04042" lon="1.66941">
        <ele>122</ele>
        <time>2018-06-25T09:21:18.129Z</time>
      </trkpt>
      <trkpt lat="44.03963" lon="1.66938">
        <ele>123</ele>
        <time>2018-06-25T09:21:19.129Z</time>
      </trkpt>
      <trkpt lat="44.03954" lon="1.66956">
        <ele>121</ele>
        <time>2018-06-25T09:21:20.129Z</time>
      </trkpt>
      <trkpt lat="44.03949" lon="1.6696">
        <ele>121</ele>
        <time>2018-06-25T09:21:21.129Z</time>
      </trkpt>
      <trkpt lat="44.0394" lon="1.66958">
        <ele>120</ele>
        <time>2018-06-25T09:21:22.129Z</time>
      </trkpt>
      <trkpt lat="44.03909" lon="1.66941">
        <ele>120</ele>
        <time>2018-06-25T09:21:23.129Z</time>
      </trkpt>
      <trkpt lat="44.03881" lon="1.66914">
        <ele>121</ele>
        <time>2018-06-25T09:21:24.129Z</time>
      </trkpt>
      <trkpt lat="44.03872" lon="1.66898">
        <ele>123</ele>
        <time>2018-06-25T09:21:25.129Z</time>
      </trkpt>
      <trkpt lat="44.03851" lon="1.66886">
        <ele>124</ele>
        <time>2018-06-25T09:21:26.129Z</time>
      </trkpt>
      <trkpt lat="44.03827" lon="1.66881">
        <ele>123</ele>
        <time>2018-06-25T09:21:27.129Z</time>
      </trkpt>
      <trkpt lat="44.0381" lon="1.66876">
        <ele>123</ele>
        <time>2018-06-25T09:21:28.129Z</time>
      </trkpt>
      <trkpt lat="44.03774" lon="1.66882">
        <ele>119</ele>
        <time>2018-06-25T09:21:29.129Z</time>
      </trkpt>
      <trkpt lat="44.03739" lon="1.66883">
        <ele>117</ele>
        <time>2018-06-25T09:21:30.129Z</time>
      </trkpt>
      <trkpt lat="44.03621" lon="1.66845">
        <ele>123</ele>
        <time>2018-06-25T09:21:31.129Z</time>
      </trkpt>
      <trkpt lat="44.03563" lon="1.66848">
        <ele>124</ele>
        <time>2018-06-25T09:21:32.129Z</time>
      </trkpt>
      <trkpt lat="44.03542" lon="1.66854">
        <ele>124</ele>
        <time>2018-06-25T09:21:33.129Z</time>
      </trkpt>
      <trkpt lat="44.03537" lon="1.66865">
        <ele>124</ele>
        <time>2018-06-25T09:21:34.129Z</time>
      </trkpt>
      <trkpt lat="44.03551" lon="1.66883">
        <ele>123</ele>
        <time>2018-06-25T09:21:35.129Z</time>
      </trkpt>
      <trkpt lat="44.03574" lon="1.66882">
        <ele>122</ele>
        <time>2018-06-25T09:21:36.129Z</time>
      </trkpt>
      <trkpt lat="44.03603" lon="1.66892">
        <ele>121</ele>
        <time>2018-06-25T09:21:37.129Z</time>
      </trkpt>
      <trkpt lat="44.03625" lon="1.66919">
        <ele>119</ele>
        <time>2018-06-25T09:21:38.129Z</time>
      </trkpt>
      <trkpt lat="44.03625" lon="1.66927">
        <ele>119</ele>
        <time>2018-06-25T09:21:39.129Z</time>
      </trkpt>
      <trkpt lat="44.03622" lon="1.66942">
        <ele>120</ele>
        <time>2018-06-25T09:21:40.129Z</time>
      </trkpt>
      <trkpt lat="44.03625" lon="1.66956">
        <ele>120</ele>
        <time>2018-06-25T09:21:41.129Z</time>
      </trkpt>
      <trkpt lat="44.03615" lon="1.66982">
        <ele>122</ele>
        <time>2018-06-25T09:21:42.129Z</time>
      </trkpt>
      <trkpt lat="44.0362" lon="1.66994">
        <ele>122</ele>
        <time>2018-06-25T09:21:43.129Z</time>
      </trkpt>
      <trkpt lat="44.03582" lon="1.66973">
        <ele>123</ele>
        <time>2018-06-25T09:21:44.129Z</time>
      </trkpt>
      <trkpt lat="44.03565" lon="1.66971">
        <ele>124</ele>
        <time>2018-06-25T09:21:45.129Z</time>
      </trkpt>
      <trkpt lat="44.03553" lon="1.66972">
        <ele>124</ele>
        <time>2018-06-25T09:21:46.129Z</time>
      </trkpt>
      <trkpt lat="44.03486" lon="1.6696">
        <ele>125</ele>
        <time>2018-06-25T09:21:47.129Z</time>
      </trkpt>
      <trkpt lat="44.03452" lon="1.66952">
        <ele>125</ele>
        <time>2018-06-25T09:21:48.129Z</time>
      </trkpt>
      <trkpt lat="44.03418" lon="1.66961">
        <ele>126</ele>
        <time>2018-06-25T09:21:49.129Z</time>
      </trkpt>
      <trkpt lat="44.03364" lon="1.66969">
        <ele>128</ele>
        <time>2018-06-25T09:21:50.129Z</time>
      </trkpt>
      <trkpt lat="44.03344" lon="1.66977">
        <ele>129</ele>
        <time>2018-06-25T09:21:51.129Z</time>
      </trkpt>
      <trkpt lat="44.03331" lon="1.66993">
        <ele>131</ele>
        <time>2018-06-25T09:21:52.129Z</time>
      </trkpt>
      <trkpt lat="44.03314" lon="1.67018">
        <ele>134</ele>
        <time>2018-06-25T09:21:53.129Z</time>
      </trkpt>
      <trkpt lat="44.03298" lon="1.67031">
        <ele>136</ele>
        <time>2018-06-25T09:21:54.129Z</time>
      </trkpt>
      <trkpt lat="44.0329" lon="1.67042">
        <ele>137</ele>
        <time>2018-06-25T09:21:55.129Z</time>
      </trkpt>
      <trkpt lat="44.03275" lon="1.67069">
        <ele>143</ele>
        <time>2018-06-25T09:21:56.129Z</time>
      </trkpt>
      <trkpt lat="44.0326" lon="1.67079">
        <ele>147</ele>
        <time>2018-06-25T09:21:57.129Z</time>
      </trkpt>
      <trkpt lat="44.03251" lon="1.67088">
        <ele>149</ele>
        <time>2018-06-25T09:21:58.129Z</time>
      </trkpt>
      <trkpt lat="44.03234" lon="1.67111">
        <ele>150</ele>
        <time>2018-06-25T09:21:59.129Z</time>
      </trkpt>
      <trkpt lat="44.03221" lon="1.67138">
        <ele>153</ele>
        <time>2018-06-25T09:22:00.129Z</time>
      </trkpt>
      <trkpt lat="44.03202" lon="1.67158">
        <ele>157</ele>
        <time>2018-06-25T09:22:01.129Z</time>
      </trkpt>
      <trkpt lat="44.03185" lon="1.67168">
        <ele>160</ele>
        <time>2018-06-25T09:22:02.129Z</time>
      </trkpt>
      <trkpt lat="44.03179" lon="1.67179">
        <ele>161</ele>
        <time>2018-06-25T09:22:03.129Z</time>
      </trkpt>
      <trkpt lat="44.03159" lon="1.6719">
        <ele>162</ele>
        <time>2018-06-25T09:22:04.129Z</time>
      </trkpt>
      <trkpt lat="44.03133" lon="1.672">
        <ele>160</ele>
        <time>2018-06-25T09:22:05.129Z</time>
      </trkpt>
      <trkpt lat="44.03048" lon="1.67244">
        <ele>162</ele>
        <time>2018-06-25T09:22:06.129Z</time>
      </trkpt>
      <trkpt lat="44.03014" lon="1.67271">
        <ele>165</ele>
        <time>2018-06-25T09:22:07.129Z</time>
      </trkpt>
      <trkpt lat="44.02991" lon="1.67301">
        <ele>171</ele>
        <time>2018-06-25T09:22:08.129Z</time>
      </trkpt>
      <trkpt lat="44.02965" lon="1.67345">
        <ele>180</ele>
        <time>2018-06-25T09:22:09.129Z</time>
      </trkpt>
      <trkpt lat="44.02952" lon="1.6735">
        <ele>181</ele>
        <time>2018-06-25T09:22:10.129Z</time>
      </trkpt>
      <trkpt lat="44.02947" lon="1.67364">
        <ele>183</ele>
        <time>2018-06-25T09:22:11.129Z</time>
      </trkpt>
      <trkpt lat="44.02937" lon="1.6737">
        <ele>185</ele>
        <time>2018-06-25T09:22:12.129Z</time>
      </trkpt>
      <trkpt lat="44.02918" lon="1.67407">
        <ele>195</ele>
        <time>2018-06-25T09:22:13.129Z</time>
      </trkpt>
      <trkpt lat="44.02873" lon="1.67468">
        <ele>204</ele>
        <time>2018-06-25T09:22:14.129Z</time>
      </trkpt>
      <trkpt lat="44.02842" lon="1.67523">
        <ele>218</ele>
        <time>2018-06-25T09:22:15.129Z</time>
      </trkpt>
      <trkpt lat="44.02834" lon="1.67561">
        <ele>225</ele>
        <time>2018-06-25T09:22:16.129Z</time>
      </trkpt>
      <trkpt lat="44.02824" lon="1.67581">
        <ele>228</ele>
        <time>2018-06-25T09:22:17.129Z</time>
      </trkpt>
      <trkpt lat="44.02825" lon="1.676">
        <ele>231</ele>
        <time>2018-06-25T09:22:18.129Z</time>
      </trkpt>
      <trkpt lat="44.02817" lon="1.67615">
        <ele>232</ele>
        <time>2018-06-25T09:22:19.129Z</time>
      </trkpt>
      <trkpt lat="44.02815" lon="1.67631">
        <ele>235</ele>
        <time>2018-06-25T09:22:20.129Z</time>
      </trkpt>
      <trkpt lat="44.02809" lon="1.67649">
        <ele>237</ele>
        <time>2018-06-25T09:22:21.129Z</time>
      </trkpt>
      <trkpt lat="44.02799" lon="1.67669">
        <ele>241</ele>
        <time>2018-06-25T09:22:22.129Z</time>
      </trkpt>
      <trkpt lat="44.02791" lon="1.67703">
        <ele>247</ele>
        <time>2018-06-25T09:22:23.129Z</time>
      </trkpt>
      <trkpt lat="44.02782" lon="1.67707">
        <ele>248</ele>
        <time>2018-06-25T09:22:24.129Z</time>
      </trkpt>
      <trkpt lat="44.0277" lon="1.67732">
        <ele>253</ele>
        <time>2018-06-25T09:22:25.129Z</time>
      </trkpt>
      <trkpt lat="44.02772" lon="1.67744">
        <ele>255</ele>
        <time>2018-06-25T09:22:26.129Z</time>
      </trkpt>
      <trkpt lat="44.02767" lon="1.67765">
        <ele>259</ele>
        <time>2018-06-25T09:22:27.129Z</time>
      </trkpt>
      <trkpt lat="44.02758" lon="1.67782">
        <ele>262</ele>
        <time>2018-06-25T09:22:28.129Z</time>
      </trkpt>
      <trkpt lat="44.02759" lon="1.67826">
        <ele>270</ele>
        <time>2018-06-25T09:22:29.129Z</time>
      </trkpt>
      <trkpt lat="44.02763" lon="1.67841">
        <ele>272</ele>
        <time>2018-06-25T09:22:30.129Z</time>
      </trkpt>
      <trkpt lat="44.02762" lon="1.67866">
        <ele>277</ele>
        <time>2018-06-25T09:22:31.129Z</time>
      </trkpt>
      <trkpt lat="44.0276" lon="1.67883">
        <ele>280</ele>
        <time>2018-06-25T09:22:32.129Z</time>
      </trkpt>
      <trkpt lat="44.02782" lon="1.6793">
        <ele>289</ele>
        <time>2018-06-25T09:22:33.129Z</time>
      </trkpt>
      <trkpt lat="44.02793" lon="1.67961">
        <ele>294</ele>
        <time>2018-06-25T09:22:34.129Z</time>
      </trkpt>
      <trkpt lat="44.02805" lon="1.68009">
        <ele>303</ele>
        <time>2018-06-25T09:22:35.129Z</time>
      </trkpt>
      <trkpt lat="44.02802" lon="1.68029">
        <ele>307</ele>
        <time>2018-06-25T09:22:36.129Z</time>
      </trkpt>
      <trkpt lat="44.02791" lon="1.6805">
        <ele>311</ele>
        <time>2018-06-25T09:22:37.129Z</time>
      </trkpt>
      <trkpt lat="44.02778" lon="1.68069">
        <ele>313</ele>
        <time>2018-06-25T09:22:38.129Z</time>
      </trkpt>
      <trkpt lat="44.02785" lon="1.68084">
        <ele>316</ele>
        <time>2018-06-25T09:22:39.129Z</time>
      </trkpt>
      <trkpt lat="44.0279" lon="1.6809">
        <ele>318</ele>
        <time>2018-06-25T09:22:40.129Z</time>
      </trkpt>
      <trkpt lat="44.02809" lon="1.68101">
        <ele>322</ele>
        <time>2018-06-25T09:22:41.129Z</time>
      </trkpt>
      <trkpt lat="44.02833" lon="1.6812">
        <ele>329</ele>
        <time>2018-06-25T09:22:42.129Z</time>
      </trkpt>
      <trkpt lat="44.02832" lon="1.6814">
        <ele>333</ele>
        <time>2018-06-25T09:22:43.129Z</time>
      </trkpt>
      <trkpt lat="44.02817" lon="1.68162">
        <ele>336</ele>
        <time>2018-06-25T09:22:44.129Z</time>
      </trkpt>
      <trkpt lat="44.02802" lon="1.68192">
        <ele>339</ele>
        <time>2018-06-25T09:22:45.129Z</time>
      </trkpt>
      <trkpt lat="44.02783" lon="1.6825">
        <ele>346</ele>
        <time>2018-06-25T09:22:46.129Z</time>
      </trkpt>
      <trkpt lat="44.02786" lon="1.68276">
        <ele>349</ele>
        <time>2018-06-25T09:22:47.129Z</time>
      </trkpt>
      <trkpt lat="44.02782" lon="1.6831">
        <ele>353</ele>
        <time>2018-06-25T09:22:48.129Z</time>
      </trkpt>
      <trkpt lat="44.02777" lon="1.68387">
        <ele>358</ele>
        <time>2018-06-25T09:22:49.129Z</time>
      </trkpt>
      <trkpt lat="44.02781" lon="1.68456">
        <ele>360</ele>
        <time>2018-06-25T09:22:50.129Z</time>
      </trkpt>
      <trkpt lat="44.02771" lon="1.6849">
        <ele>359</ele>
        <time>2018-06-25T09:22:51.129Z</time>
      </trkpt>
      <trkpt lat="44.02769" lon="1.68504">
        <ele>358</ele>
        <time>2018-06-25T09:22:52.129Z</time>
      </trkpt>
      <trkpt lat="44.02765" lon="1.68513">
        <ele>357</ele>
        <time>2018-06-25T09:22:53.129Z</time>
      </trkpt>
      <trkpt lat="44.0276" lon="1.68545">
        <ele>354</ele>
        <time>2018-06-25T09:22:54.129Z</time>
      </trkpt>
      <trkpt lat="44.02754" lon="1.68573">
        <ele>353</ele>
        <time>2018-06-25T09:22:55.129Z</time>
      </trkpt>
      <trkpt lat="44.02741" lon="1.68604">
        <ele>350</ele>
        <time>2018-06-25T09:22:56.129Z</time>
      </trkpt>
      <trkpt lat="44.02737" lon="1.68644">
        <ele>348</ele>
        <time>2018-06-25T09:22:57.129Z</time>
      </trkpt>
      <trkpt lat="44.02724" lon="1.68691">
        <ele>347</ele>
        <time>2018-06-25T09:22:58.129Z</time>
      </trkpt>
      <trkpt lat="44.02722" lon="1.68708">
        <ele>347</ele>
        <time>2018-06-25T09:22:59.129Z</time>
      </trkpt>
      <trkpt lat="44.02718" lon="1.68716">
        <ele>347</ele>
        <time>2018-06-25T09:23:00.129Z</time>
      </trkpt>
      <trkpt lat="44.02716" lon="1.68732">
        <ele>347</ele>
        <time>2018-06-25T09:23:01.129Z</time>
      </trkpt>
      <trkpt lat="44.02709" lon="1.68739">
        <ele>347</ele>
        <time>2018-06-25T09:23:02.129Z</time>
      </trkpt>
      <trkpt lat="44.0269" lon="1.688">
        <ele>348</ele>
        <time>2018-06-25T09:23:03.129Z</time>
      </trkpt>
      <trkpt lat="44.02638" lon="1.68926">
        <ele>352</ele>
        <time>2018-06-25T09:23:04.129Z</time>
      </trkpt>
      <trkpt lat="44.02606" lon="1.68982">
        <ele>354</ele>
        <time>2018-06-25T09:23:05.129Z</time>
      </trkpt>
      <trkpt lat="44.02605" lon="1.69">
        <ele>355</ele>
        <time>2018-06-25T09:23:06.129Z</time>
      </trkpt>
      <trkpt lat="44.02592" lon="1.69031">
        <ele>355</ele>
        <time>2018-06-25T09:23:07.129Z</time>
      </trkpt>
      <trkpt lat="44.02587" lon="1.69068">
        <ele>354</ele>
        <time>2018-06-25T09:23:08.129Z</time>
      </trkpt>
      <trkpt lat="44.02579" lon="1.69098">
        <ele>355</ele>
        <time>2018-06-25T09:23:09.129Z</time>
      </trkpt>
      <trkpt lat="44.02585" lon="1.69135">
        <ele>358</ele>
        <time>2018-06-25T09:23:10.129Z</time>
      </trkpt>
      <trkpt lat="44.02589" lon="1.69157">
        <ele>359</ele>
        <time>2018-06-25T09:23:11.129Z</time>
      </trkpt>
      <trkpt lat="44.02612" lon="1.69238">
        <ele>369</ele>
        <time>2018-06-25T09:23:12.129Z</time>
      </trkpt>
      <trkpt lat="44.02611" lon="1.69262">
        <ele>373</ele>
        <time>2018-06-25T09:23:13.129Z</time>
      </trkpt>
      <trkpt lat="44.0264" lon="1.69261">
        <ele>372</ele>
        <time>2018-06-25T09:23:14.129Z</time>
      </trkpt>
      <trkpt lat="44.02762" lon="1.69287">
        <ele>370</ele>
        <time>2018-06-25T09:23:15.129Z</time>
      </trkpt>
      <trkpt lat="44.02773" lon="1.69288">
        <ele>370</ele>
        <time>2018-06-25T09:23:16.129Z</time>
      </trkpt>
      <trkpt lat="44.02773" lon="1.69289">
        <ele>370</ele>
        <time>2018-06-25T09:23:17.129Z</time>
      </trkpt>
      <trkpt lat="44.02924" lon="1.69301">
        <ele>357</ele>
        <time>2018-06-25T09:23:18.129Z</time>
      </trkpt>
      <trkpt lat="44.0299" lon="1.69329">
        <ele>358</ele>
        <time>2018-06-25T09:23:19.129Z</time>
      </trkpt>
      <trkpt lat="44.03036" lon="1.69345">
        <ele>356</ele>
        <time>2018-06-25T09:23:20.129Z</time>
      </trkpt>
      <trkpt lat="44.03202" lon="1.69445">
        <ele>360</ele>
        <time>2018-06-25T09:23:21.129Z</time>
      </trkpt>
      <trkpt lat="44.03218" lon="1.69437">
        <ele>360</ele>
        <time>2018-06-25T09:23:22.129Z</time>
      </trkpt>
      <trkpt lat="44.03231" lon="1.69377">
        <ele>357</ele>
        <time>2018-06-25T09:23:23.129Z</time>
      </trkpt>
      <trkpt lat="44.03255" lon="1.69285">
        <ele>357</ele>
        <time>2018-06-25T09:23:24.129Z</time>
      </trkpt>
      <trkpt lat="44.03276" lon="1.692">
        <ele>357</ele>
        <time>2018-06-25T09:23:25.129Z</time>
      </trkpt>
      <trkpt lat="44.03298" lon="1.69178">
        <ele>358</ele>
        <time>2018-06-25T09:23:26.129Z</time>
      </trkpt>
      <trkpt lat="44.03362" lon="1.692">
        <ele>361</ele>
        <time>2018-06-25T09:23:27.129Z</time>
      </trkpt>
      <trkpt lat="44.03361" lon="1.69201">
        <ele>361</ele>
        <time>2018-06-25T09:23:28.129Z</time>
      </trkpt>
      <trkpt lat="44.03444" lon="1.69231">
        <ele>363</ele>
        <time>2018-06-25T09:23:29.129Z</time>
      </trkpt>
      <trkpt lat="44.03564" lon="1.692">
        <ele>359</ele>
        <time>2018-06-25T09:23:30.129Z</time>
      </trkpt>
      <trkpt lat="44.03703" lon="1.69228">
        <ele>352</ele>
        <time>2018-06-25T09:23:31.129Z</time>
      </trkpt>
      <trkpt lat="44.03612" lon="1.69373">
        <ele>366</ele>
        <time>2018-06-25T09:23:32.129Z</time>
      </trkpt>
      <trkpt lat="44.03578" lon="1.69437">
        <ele>372</ele>
        <time>2018-06-25T09:23:33.129Z</time>
      </trkpt>
      <trkpt lat="44.03574" lon="1.69444">
        <ele>373</ele>
        <time>2018-06-25T09:23:34.129Z</time>
      </trkpt>
      <trkpt lat="44.0355" lon="1.69516">
        <ele>377</ele>
        <time>2018-06-25T09:23:35.129Z</time>
      </trkpt>
      <trkpt lat="44.03538" lon="1.69591">
        <ele>381</ele>
        <time>2018-06-25T09:23:36.129Z</time>
      </trkpt>
      <trkpt lat="44.03543" lon="1.69661">
        <ele>385</ele>
        <time>2018-06-25T09:23:37.129Z</time>
      </trkpt>
      <trkpt lat="44.0356" lon="1.6972">
        <ele>387</ele>
        <time>2018-06-25T09:23:38.129Z</time>
      </trkpt>
      <trkpt lat="44.03604" lon="1.69859">
        <ele>395</ele>
        <time>2018-06-25T09:23:39.129Z</time>
      </trkpt>
      <trkpt lat="44.03608" lon="1.6996">
        <ele>397</ele>
        <time>2018-06-25T09:23:40.129Z</time>
      </trkpt>
      <trkpt lat="44.0363" lon="1.70054">
        <ele>397</ele>
        <time>2018-06-25T09:23:41.129Z</time>
      </trkpt>
      <trkpt lat="44.03684" lon="1.70261">
        <ele>404</ele>
        <time>2018-06-25T09:23:42.129Z</time>
      </trkpt>
      <trkpt lat="44.03753" lon="1.70428">
        <ele>408</ele>
        <time>2018-06-25T09:23:43.129Z</time>
      </trkpt>
      <trkpt lat="44.03758" lon="1.70457">
        <ele>410</ele>
        <time>2018-06-25T09:23:44.129Z</time>
      </trkpt>
      <trkpt lat="44.03756" lon="1.70544">
        <ele>414</ele>
        <time>2018-06-25T09:23:45.129Z</time>
      </trkpt>
      <trkpt lat="44.03765" lon="1.70571">
        <ele>414</ele>
        <time>2018-06-25T09:23:46.129Z</time>
      </trkpt>
      <trkpt lat="44.03784" lon="1.70619">
        <ele>413</ele>
        <time>2018-06-25T09:23:47.129Z</time>
      </trkpt>
      <trkpt lat="44.03793" lon="1.70636">
        <ele>412</ele>
        <time>2018-06-25T09:23:48.129Z</time>
      </trkpt>
      <trkpt lat="44.03798" lon="1.70648">
        <ele>412</ele>
        <time>2018-06-25T09:23:49.129Z</time>
      </trkpt>
      <trkpt lat="44.038" lon="1.7067">
        <ele>412</ele>
        <time>2018-06-25T09:23:50.129Z</time>
      </trkpt>
      <trkpt lat="44.03796" lon="1.70729">
        <ele>409</ele>
        <time>2018-06-25T09:23:51.129Z</time>
      </trkpt>
      <trkpt lat="44.03804" lon="1.708">
        <ele>407</ele>
        <time>2018-06-25T09:23:52.129Z</time>
      </trkpt>
      <trkpt lat="44.03804" lon="1.70841">
        <ele>407</ele>
        <time>2018-06-25T09:23:53.129Z</time>
      </trkpt>
      <trkpt lat="44.03801" lon="1.70865">
        <ele>407</ele>
        <time>2018-06-25T09:23:54.129Z</time>
      </trkpt>
      <trkpt lat="44.03792" lon="1.70894">
        <ele>409</ele>
        <time>2018-06-25T09:23:55.129Z</time>
      </trkpt>
      <trkpt lat="44.03781" lon="1.70925">
        <ele>411</ele>
        <time>2018-06-25T09:23:56.129Z</time>
      </trkpt>
      <trkpt lat="44.03768" lon="1.7095">
        <ele>414</ele>
        <time>2018-06-25T09:23:57.129Z</time>
      </trkpt>
      <trkpt lat="44.03756" lon="1.70981">
        <ele>416</ele>
        <time>2018-06-25T09:23:58.129Z</time>
      </trkpt>
      <trkpt lat="44.03749" lon="1.71025">
        <ele>416</ele>
        <time>2018-06-25T09:23:59.129Z</time>
      </trkpt>
      <trkpt lat="44.03738" lon="1.71131">
        <ele>417</ele>
        <time>2018-06-25T09:24:00.129Z</time>
      </trkpt>
      <trkpt lat="44.0373" lon="1.71175">
        <ele>418</ele>
        <time>2018-06-25T09:24:01.129Z</time>
      </trkpt>
      <trkpt lat="44.03729" lon="1.71209">
        <ele>420</ele>
        <time>2018-06-25T09:24:02.129Z</time>
      </trkpt>
      <trkpt lat="44.03725" lon="1.71241">
        <ele>422</ele>
        <time>2018-06-25T09:24:03.129Z</time>
      </trkpt>
      <trkpt lat="44.03704" lon="1.71306">
        <ele>421</ele>
        <time>2018-06-25T09:24:04.129Z</time>
      </trkpt>
      <trkpt lat="44.03698" lon="1.71415">
        <ele>418</ele>
        <time>2018-06-25T09:24:05.129Z</time>
      </trkpt>
      <trkpt lat="44.03706" lon="1.71466">
        <ele>420</ele>
        <time>2018-06-25T09:24:06.129Z</time>
      </trkpt>
      <trkpt lat="44.03716" lon="1.71499">
        <ele>422</ele>
        <time>2018-06-25T09:24:07.129Z</time>
      </trkpt>
      <trkpt lat="44.0374" lon="1.7155">
        <ele>426</ele>
        <time>2018-06-25T09:24:08.129Z</time>
      </trkpt>
      <trkpt lat="44.03792" lon="1.71638">
        <ele>430</ele>
        <time>2018-06-25T09:24:09.129Z</time>
      </trkpt>
      <trkpt lat="44.03855" lon="1.71751">
        <ele>435</ele>
        <time>2018-06-25T09:24:10.129Z</time>
      </trkpt>
      <trkpt lat="44.03892" lon="1.7178">
        <ele>437</ele>
        <time>2018-06-25T09:24:11.129Z</time>
      </trkpt>
      <trkpt lat="44.03904" lon="1.718">
        <ele>439</ele>
        <time>2018-06-25T09:24:12.129Z</time>
      </trkpt>
      <trkpt lat="44.03941" lon="1.71868">
        <ele>443</ele>
        <time>2018-06-25T09:24:13.129Z</time>
      </trkpt>
      <trkpt lat="44.0395" lon="1.71894">
        <ele>445</ele>
        <time>2018-06-25T09:24:14.129Z</time>
      </trkpt>
      <trkpt lat="44.03969" lon="1.71923">
        <ele>446</ele>
        <time>2018-06-25T09:24:15.129Z</time>
      </trkpt>
      <trkpt lat="44.04009" lon="1.71959">
        <ele>444</ele>
        <time>2018-06-25T09:24:16.129Z</time>
      </trkpt>
      <trkpt lat="44.04029" lon="1.71982">
        <ele>442</ele>
        <time>2018-06-25T09:24:17.129Z</time>
      </trkpt>
      <trkpt lat="44.04049" lon="1.72021">
        <ele>440</ele>
        <time>2018-06-25T09:24:18.129Z</time>
      </trkpt>
      <trkpt lat="44.04054" lon="1.72039">
        <ele>439</ele>
        <time>2018-06-25T09:24:19.129Z</time>
      </trkpt>
      <trkpt lat="44.04053" lon="1.72061">
        <ele>438</ele>
        <time>2018-06-25T09:24:20.129Z</time>
      </trkpt>
      <trkpt lat="44.04051" lon="1.72093">
        <ele>438</ele>
        <time>2018-06-25T09:24:21.129Z</time>
      </trkpt>
      <trkpt lat="44.04054" lon="1.72106">
        <ele>437</ele>
        <time>2018-06-25T09:24:22.129Z</time>
      </trkpt>
      <trkpt lat="44.04067" lon="1.72148">
        <ele>437</ele>
        <time>2018-06-25T09:24:23.129Z</time>
      </trkpt>
      <trkpt lat="44.04081" lon="1.72185">
        <ele>438</ele>
        <time>2018-06-25T09:24:24.129Z</time>
      </trkpt>
      <trkpt lat="44.04088" lon="1.72197">
        <ele>438</ele>
        <time>2018-06-25T09:24:25.129Z</time>
      </trkpt>
      <trkpt lat="44.04076" lon="1.72189">
        <ele>438</ele>
        <time>2018-06-25T09:24:26.129Z</time>
      </trkpt>
      <trkpt lat="44.04075" lon="1.72189">
        <ele>437</ele>
        <time>2018-06-25T09:24:27.129Z</time>
      </trkpt>
      <trkpt lat="44.04034" lon="1.7216">
        <ele>435</ele>
        <time>2018-06-25T09:24:28.129Z</time>
      </trkpt>
      <trkpt lat="44.03968" lon="1.72125">
        <ele>430</ele>
        <time>2018-06-25T09:24:29.129Z</time>
      </trkpt>
      <trkpt lat="44.03937" lon="1.72121">
        <ele>427</ele>
        <time>2018-06-25T09:24:30.129Z</time>
      </trkpt>
      <trkpt lat="44.03905" lon="1.72092">
        <ele>427</ele>
        <time>2018-06-25T09:24:31.129Z</time>
      </trkpt>
      <trkpt lat="44.0387" lon="1.72066">
        <ele>423</ele>
        <time>2018-06-25T09:24:32.129Z</time>
      </trkpt>
      <trkpt lat="44.03805" lon="1.72023">
        <ele>416</ele>
        <time>2018-06-25T09:24:33.129Z</time>
      </trkpt>
      <trkpt lat="44.03778" lon="1.72021">
        <ele>412</ele>
        <time>2018-06-25T09:24:34.129Z</time>
      </trkpt>
      <trkpt lat="44.03747" lon="1.71997">
        <ele>408</ele>
        <time>2018-06-25T09:24:35.129Z</time>
      </trkpt>
      <trkpt lat="44.03696" lon="1.71974">
        <ele>403</ele>
        <time>2018-06-25T09:24:36.129Z</time>
      </trkpt>
      <trkpt lat="44.03679" lon="1.71994">
        <ele>402</ele>
        <time>2018-06-25T09:24:37.129Z</time>
      </trkpt>
      <trkpt lat="44.03562" lon="1.71957">
        <ele>394</ele>
        <time>2018-06-25T09:24:38.129Z</time>
      </trkpt>
      <trkpt lat="44.03448" lon="1.71899">
        <ele>394</ele>
        <time>2018-06-25T09:24:39.129Z</time>
      </trkpt>
      <trkpt lat="44.03283" lon="1.71799">
        <ele>395</ele>
        <time>2018-06-25T09:24:40.129Z</time>
      </trkpt>
      <trkpt lat="44.03193" lon="1.71771">
        <ele>396</ele>
        <time>2018-06-25T09:24:41.129Z</time>
      </trkpt>
      <trkpt lat="44.03125" lon="1.7175">
        <ele>398</ele>
        <time>2018-06-25T09:24:42.129Z</time>
      </trkpt>
      <trkpt lat="44.03029" lon="1.71689">
        <ele>398</ele>
        <time>2018-06-25T09:24:43.129Z</time>
      </trkpt>
      <trkpt lat="44.02939" lon="1.71674">
        <ele>403</ele>
        <time>2018-06-25T09:24:44.129Z</time>
      </trkpt>
      <trkpt lat="44.02886" lon="1.71647">
        <ele>406</ele>
        <time>2018-06-25T09:24:45.129Z</time>
      </trkpt>
      <trkpt lat="44.02877" lon="1.71635">
        <ele>406</ele>
        <time>2018-06-25T09:24:46.129Z</time>
      </trkpt>
      <trkpt lat="44.02792" lon="1.71542">
        <ele>404</ele>
        <time>2018-06-25T09:24:47.129Z</time>
      </trkpt>
      <trkpt lat="44.02665" lon="1.71536">
        <ele>407</ele>
        <time>2018-06-25T09:24:48.129Z</time>
      </trkpt>
      <trkpt lat="44.02646" lon="1.71525">
        <ele>407</ele>
        <time>2018-06-25T09:24:49.129Z</time>
      </trkpt>
      <trkpt lat="44.02588" lon="1.71464">
        <ele>404</ele>
        <time>2018-06-25T09:24:50.129Z</time>
      </trkpt>
      <trkpt lat="44.02565" lon="1.71455">
        <ele>405</ele>
        <time>2018-06-25T09:24:51.129Z</time>
      </trkpt>
      <trkpt lat="44.02541" lon="1.71462">
        <ele>408</ele>
        <time>2018-06-25T09:24:52.129Z</time>
      </trkpt>
      <trkpt lat="44.02522" lon="1.7146">
        <ele>409</ele>
        <time>2018-06-25T09:24:53.129Z</time>
      </trkpt>
      <trkpt lat="44.02507" lon="1.71452">
        <ele>409</ele>
        <time>2018-06-25T09:24:54.129Z</time>
      </trkpt>
      <trkpt lat="44.02498" lon="1.7144">
        <ele>408</ele>
        <time>2018-06-25T09:24:55.129Z</time>
      </trkpt>
      <trkpt lat="44.02473" lon="1.71387">
        <ele>403</ele>
        <time>2018-06-25T09:24:56.129Z</time>
      </trkpt>
      <trkpt lat="44.02442" lon="1.71373">
        <ele>405</ele>
        <time>2018-06-25T09:24:57.129Z</time>
      </trkpt>
      <trkpt lat="44.02406" lon="1.71374">
        <ele>409</ele>
        <time>2018-06-25T09:24:58.129Z</time>
      </trkpt>
      <trkpt lat="44.02371" lon="1.7138">
        <ele>413</ele>
        <time>2018-06-25T09:24:59.129Z</time>
      </trkpt>
      <trkpt lat="44.02355" lon="1.71369">
        <ele>413</ele>
        <time>2018-06-25T09:25:00.129Z</time>
      </trkpt>
      <trkpt lat="44.02338" lon="1.71308">
        <ele>407</ele>
        <time>2018-06-25T09:25:01.129Z</time>
      </trkpt>
      <trkpt lat="44.02319" lon="1.71267">
        <ele>404</ele>
        <time>2018-06-25T09:25:02.129Z</time>
      </trkpt>
      <trkpt lat="44.02231" lon="1.7117">
        <ele>401</ele>
        <time>2018-06-25T09:25:03.129Z</time>
      </trkpt>
      <trkpt lat="44.022" lon="1.71124">
        <ele>396</ele>
        <time>2018-06-25T09:25:04.129Z</time>
      </trkpt>
      <trkpt lat="44.02178" lon="1.7112">
        <ele>396</ele>
        <time>2018-06-25T09:25:05.129Z</time>
      </trkpt>
      <trkpt lat="44.02158" lon="1.71108">
        <ele>395</ele>
        <time>2018-06-25T09:25:06.129Z</time>
      </trkpt>
      <trkpt lat="44.02131" lon="1.71074">
        <ele>393</ele>
        <time>2018-06-25T09:25:07.129Z</time>
      </trkpt>
      <trkpt lat="44.02128" lon="1.71047">
        <ele>391</ele>
        <time>2018-06-25T09:25:08.129Z</time>
      </trkpt>
      <trkpt lat="44.0212" lon="1.7102">
        <ele>388</ele>
        <time>2018-06-25T09:25:09.129Z</time>
      </trkpt>
      <trkpt lat="44.02103" lon="1.70991">
        <ele>386</ele>
        <time>2018-06-25T09:25:10.129Z</time>
      </trkpt>
      <trkpt lat="44.02073" lon="1.70988">
        <ele>388</ele>
        <time>2018-06-25T09:25:11.129Z</time>
      </trkpt>
      <trkpt lat="44.02029" lon="1.70997">
        <ele>389</ele>
        <time>2018-06-25T09:25:12.129Z</time>
      </trkpt>
      <trkpt lat="44.02004" lon="1.70999">
        <ele>389</ele>
        <time>2018-06-25T09:25:13.129Z</time>
      </trkpt>
      <trkpt lat="44.01988" lon="1.70989">
        <ele>390</ele>
        <time>2018-06-25T09:25:14.129Z</time>
      </trkpt>
      <trkpt lat="44.01966" lon="1.70954">
        <ele>390</ele>
        <time>2018-06-25T09:25:15.129Z</time>
      </trkpt>
      <trkpt lat="44.01952" lon="1.70891">
        <ele>385</ele>
        <time>2018-06-25T09:25:16.129Z</time>
      </trkpt>
      <trkpt lat="44.01923" lon="1.70783">
        <ele>378</ele>
        <time>2018-06-25T09:25:17.129Z</time>
      </trkpt>
      <trkpt lat="44.01911" lon="1.70755">
        <ele>375</ele>
        <time>2018-06-25T09:25:18.129Z</time>
      </trkpt>
      <trkpt lat="44.01889" lon="1.70732">
        <ele>372</ele>
        <time>2018-06-25T09:25:19.129Z</time>
      </trkpt>
      <trkpt lat="44.01846" lon="1.70729">
        <ele>374</ele>
        <time>2018-06-25T09:25:20.129Z</time>
      </trkpt>
      <trkpt lat="44.01845" lon="1.70729">
        <ele>374</ele>
        <time>2018-06-25T09:25:21.129Z</time>
      </trkpt>
      <trkpt lat="44.01817" lon="1.70722">
        <ele>373</ele>
        <time>2018-06-25T09:25:22.129Z</time>
      </trkpt>
      <trkpt lat="44.01799" lon="1.70711">
        <ele>371</ele>
        <time>2018-06-25T09:25:23.129Z</time>
      </trkpt>
      <trkpt lat="44.01745" lon="1.70705">
        <ele>371</ele>
        <time>2018-06-25T09:25:24.129Z</time>
      </trkpt>
      <trkpt lat="44.01605" lon="1.70721">
        <ele>361</ele>
        <time>2018-06-25T09:25:25.129Z</time>
      </trkpt>
      <trkpt lat="44.01413" lon="1.70752">
        <ele>349</ele>
        <time>2018-06-25T09:25:26.129Z</time>
      </trkpt>
      <trkpt lat="44.0125" lon="1.70936">
        <ele>345</ele>
        <time>2018-06-25T09:25:27.129Z</time>
      </trkpt>
      <trkpt lat="44.01079" lon="1.71166">
        <ele>332</ele>
        <time>2018-06-25T09:25:28.129Z</time>
      </trkpt>
      <trkpt lat="44.01031" lon="1.71197">
        <ele>332</ele>
        <time>2018-06-25T09:25:29.129Z</time>
      </trkpt>
      <trkpt lat="44.01007" lon="1.71223">
        <ele>331</ele>
        <time>2018-06-25T09:25:30.129Z</time>
      </trkpt>
      <trkpt lat="44.00987" lon="1.71234">
        <ele>329</ele>
        <time>2018-06-25T09:25:31.129Z</time>
      </trkpt>
      <trkpt lat="44.00958" lon="1.71237">
        <ele>328</ele>
        <time>2018-06-25T09:25:32.129Z</time>
      </trkpt>
      <trkpt lat="44.00922" lon="1.71215">
        <ele>330</ele>
        <time>2018-06-25T09:25:33.129Z</time>
      </trkpt>
      <trkpt lat="44.00864" lon="1.71174">
        <ele>332</ele>
        <time>2018-06-25T09:25:34.129Z</time>
      </trkpt>
      <trkpt lat="44.00826" lon="1.71119">
        <ele>338</ele>
        <time>2018-06-25T09:25:35.129Z</time>
      </trkpt>
      <trkpt lat="44.00777" lon="1.71074">
        <ele>341</ele>
        <time>2018-06-25T09:25:36.129Z</time>
      </trkpt>
      <trkpt lat="44.00734" lon="1.71056">
        <ele>341</ele>
        <time>2018-06-25T09:25:37.129Z</time>
      </trkpt>
      <trkpt lat="44.00676" lon="1.71041">
        <ele>336</ele>
        <time>2018-06-25T09:25:38.129Z</time>
      </trkpt>
      <trkpt lat="44.0062" lon="1.71064">
        <ele>319</ele>
        <time>2018-06-25T09:25:39.129Z</time>
      </trkpt>
      <trkpt lat="44.00562" lon="1.71058">
        <ele>304</ele>
        <time>2018-06-25T09:25:40.129Z</time>
      </trkpt>
      <trkpt lat="44.00548" lon="1.71053">
        <ele>300</ele>
        <time>2018-06-25T09:25:41.129Z</time>
      </trkpt>
      <trkpt lat="44.00518" lon="1.71015">
        <ele>297</ele>
        <time>2018-06-25T09:25:42.129Z</time>
      </trkpt>
      <trkpt lat="44.00517" lon="1.71016">
        <ele>297</ele>
        <time>2018-06-25T09:25:43.129Z</time>
      </trkpt>
      <trkpt lat="44.00512" lon="1.71008">
        <ele>297</ele>
        <time>2018-06-25T09:25:44.129Z</time>
      </trkpt>
      <trkpt lat="44.00497" lon="1.70976">
        <ele>300</ele>
        <time>2018-06-25T09:25:45.129Z</time>
      </trkpt>
      <trkpt lat="44.00503" lon="1.70953">
        <ele>307</ele>
        <time>2018-06-25T09:25:46.129Z</time>
      </trkpt>
      <trkpt lat="44.00502" lon="1.70937">
        <ele>311</ele>
        <time>2018-06-25T09:25:47.129Z</time>
      </trkpt>
      <trkpt lat="44.00495" lon="1.70929">
        <ele>311</ele>
        <time>2018-06-25T09:25:48.129Z</time>
      </trkpt>
      <trkpt lat="44.00487" lon="1.70923">
        <ele>310</ele>
        <time>2018-06-25T09:25:49.129Z</time>
      </trkpt>
      <trkpt lat="44.00478" lon="1.70911">
        <ele>311</ele>
        <time>2018-06-25T09:25:50.129Z</time>
      </trkpt>
      <trkpt lat="44.00483" lon="1.70897">
        <ele>314</ele>
        <time>2018-06-25T09:25:51.129Z</time>
      </trkpt>
      <trkpt lat="44.00483" lon="1.7088">
        <ele>316</ele>
        <time>2018-06-25T09:25:52.129Z</time>
      </trkpt>
      <trkpt lat="44.00489" lon="1.70867">
        <ele>319</ele>
        <time>2018-06-25T09:25:53.129Z</time>
      </trkpt>
      <trkpt lat="44.0049" lon="1.70867">
        <ele>320</ele>
        <time>2018-06-25T09:25:54.129Z</time>
      </trkpt>
      <trkpt lat="44.00499" lon="1.7084">
        <ele>325</ele>
        <time>2018-06-25T09:25:55.129Z</time>
      </trkpt>
      <trkpt lat="44.00502" lon="1.70816">
        <ele>327</ele>
        <time>2018-06-25T09:25:56.129Z</time>
      </trkpt>
      <trkpt lat="44.0052" lon="1.70767">
        <ele>332</ele>
        <time>2018-06-25T09:25:57.129Z</time>
      </trkpt>
      <trkpt lat="44.00582" lon="1.70648">
        <ele>338</ele>
        <time>2018-06-25T09:25:58.129Z</time>
      </trkpt>
      <trkpt lat="44.00583" lon="1.70631">
        <ele>337</ele>
        <time>2018-06-25T09:25:59.129Z</time>
      </trkpt>
      <trkpt lat="44.0058" lon="1.70613">
        <ele>335</ele>
        <time>2018-06-25T09:26:00.129Z</time>
      </trkpt>
      <trkpt lat="44.00521" lon="1.70584">
        <ele>331</ele>
        <time>2018-06-25T09:26:01.129Z</time>
      </trkpt>
      <trkpt lat="44.00517" lon="1.70576">
        <ele>331</ele>
        <time>2018-06-25T09:26:02.129Z</time>
      </trkpt>
      <trkpt lat="44.00463" lon="1.7058">
        <ele>332</ele>
        <time>2018-06-25T09:26:03.129Z</time>
      </trkpt>
      <trkpt lat="44.00355" lon="1.70613">
        <ele>330</ele>
        <time>2018-06-25T09:26:04.129Z</time>
      </trkpt>
      <trkpt lat="44.00287" lon="1.70633">
        <ele>325</ele>
        <time>2018-06-25T09:26:05.129Z</time>
      </trkpt>
      <trkpt lat="44.00197" lon="1.70603">
        <ele>318</ele>
        <time>2018-06-25T09:26:06.129Z</time>
      </trkpt>
      <trkpt lat="44.00138" lon="1.70558">
        <ele>309</ele>
        <time>2018-06-25T09:26:07.129Z</time>
      </trkpt>
      <trkpt lat="44.00095" lon="1.70509">
        <ele>307</ele>
        <time>2018-06-25T09:26:08.129Z</time>
      </trkpt>
      <trkpt lat="44.00024" lon="1.70525">
        <ele>290</ele>
        <time>2018-06-25T09:26:09.129Z</time>
      </trkpt>
      <trkpt lat="43.99932" lon="1.70538">
        <ele>268</ele>
        <time>2018-06-25T09:26:10.129Z</time>
      </trkpt>
      <trkpt lat="43.99852" lon="1.70529">
        <ele>250</ele>
        <time>2018-06-25T09:26:11.129Z</time>
      </trkpt>
      <trkpt lat="43.99774" lon="1.70456">
        <ele>239</ele>
        <time>2018-06-25T09:26:12.129Z</time>
      </trkpt>
      <trkpt lat="43.99738" lon="1.70407">
        <ele>232</ele>
        <time>2018-06-25T09:26:13.129Z</time>
      </trkpt>
      <trkpt lat="43.99677" lon="1.70426">
        <ele>214</ele>
        <time>2018-06-25T09:26:14.129Z</time>
      </trkpt>
      <trkpt lat="43.9961" lon="1.70326">
        <ele>203</ele>
        <time>2018-06-25T09:26:15.129Z</time>
      </trkpt>
      <trkpt lat="43.99582" lon="1.7022">
        <ele>197</ele>
        <time>2018-06-25T09:26:16.129Z</time>
      </trkpt>
      <trkpt lat="43.99176" lon="1.70288">
        <ele>147</ele>
        <time>2018-06-25T09:26:17.129Z</time>
      </trkpt>
      <trkpt lat="43.99142" lon="1.70379">
        <ele>143</ele>
        <time>2018-06-25T09:26:18.129Z</time>
      </trkpt>
      <trkpt lat="43.99112" lon="1.70384">
        <ele>140</ele>
        <time>2018-06-25T09:26:19.129Z</time>
      </trkpt>
      <trkpt lat="43.99111" lon="1.70384">
        <ele>140</ele>
        <time>2018-06-25T09:26:20.129Z</time>
      </trkpt>
      <trkpt lat="43.99114" lon="1.70407">
        <ele>140</ele>
        <time>2018-06-25T09:26:21.129Z</time>
      </trkpt>
      <trkpt lat="43.99131" lon="1.70405">
        <ele>142</ele>
        <time>2018-06-25T09:26:22.129Z</time>
      </trkpt>
      <trkpt lat="43.99149" lon="1.70408">
        <ele>143</ele>
        <time>2018-06-25T09:26:23.129Z</time>
      </trkpt>
      <trkpt lat="43.99156" lon="1.70412">
        <ele>144</ele>
        <time>2018-06-25T09:26:24.129Z</time>
      </trkpt>
      <trkpt lat="43.99172" lon="1.70436">
        <ele>146</ele>
        <time>2018-06-25T09:26:25.129Z</time>
      </trkpt>
      <trkpt lat="43.99191" lon="1.70458">
        <ele>150</ele>
        <time>2018-06-25T09:26:26.129Z</time>
      </trkpt>
      <trkpt lat="43.99208" lon="1.70472">
        <ele>153</ele>
        <time>2018-06-25T09:26:27.129Z</time>
      </trkpt>
      <trkpt lat="43.99251" lon="1.70494">
        <ele>163</ele>
        <time>2018-06-25T09:26:28.129Z</time>
      </trkpt>
      <trkpt lat="43.99251" lon="1.70493">
        <ele>163</ele>
        <time>2018-06-25T09:26:29.129Z</time>
      </trkpt>
      <trkpt lat="43.99296" lon="1.70523">
        <ele>171</ele>
        <time>2018-06-25T09:26:30.129Z</time>
      </trkpt>
      <trkpt lat="43.9933" lon="1.7055">
        <ele>180</ele>
        <time>2018-06-25T09:26:31.129Z</time>
      </trkpt>
      <trkpt lat="43.99358" lon="1.70574">
        <ele>184</ele>
        <time>2018-06-25T09:26:32.129Z</time>
      </trkpt>
      <trkpt lat="43.9937" lon="1.70593">
        <ele>187</ele>
        <time>2018-06-25T09:26:33.129Z</time>
      </trkpt>
      <trkpt lat="43.99394" lon="1.70645">
        <ele>195</ele>
        <time>2018-06-25T09:26:34.129Z</time>
      </trkpt>
      <trkpt lat="43.99407" lon="1.70662">
        <ele>197</ele>
        <time>2018-06-25T09:26:35.129Z</time>
      </trkpt>
      <trkpt lat="43.99409" lon="1.7067">
        <ele>198</ele>
        <time>2018-06-25T09:26:36.129Z</time>
      </trkpt>
      <trkpt lat="43.99407" lon="1.70676">
        <ele>200</ele>
        <time>2018-06-25T09:26:37.129Z</time>
      </trkpt>
      <trkpt lat="43.99404" lon="1.70675">
        <ele>200</ele>
        <time>2018-06-25T09:26:38.129Z</time>
      </trkpt>
      <trkpt lat="43.99376" lon="1.7066">
        <ele>201</ele>
        <time>2018-06-25T09:26:39.129Z</time>
      </trkpt>
      <trkpt lat="43.99332" lon="1.70647">
        <ele>204</ele>
        <time>2018-06-25T09:26:40.129Z</time>
      </trkpt>
      <trkpt lat="43.9932" lon="1.70645">
        <ele>202</ele>
        <time>2018-06-25T09:26:41.129Z</time>
      </trkpt>
      <trkpt lat="43.99312" lon="1.70645">
        <ele>201</ele>
        <time>2018-06-25T09:26:42.129Z</time>
      </trkpt>
      <trkpt lat="43.99303" lon="1.70648">
        <ele>201</ele>
        <time>2018-06-25T09:26:43.129Z</time>
      </trkpt>
      <trkpt lat="43.99293" lon="1.70653">
        <ele>201</ele>
        <time>2018-06-25T09:26:44.129Z</time>
      </trkpt>
      <trkpt lat="43.99256" lon="1.7068">
        <ele>202</ele>
        <time>2018-06-25T09:26:45.129Z</time>
      </trkpt>
      <trkpt lat="43.99241" lon="1.70699">
        <ele>203</ele>
        <time>2018-06-25T09:26:46.129Z</time>
      </trkpt>
      <trkpt lat="43.99241" lon="1.70704">
        <ele>204</ele>
        <time>2018-06-25T09:26:47.129Z</time>
      </trkpt>
      <trkpt lat="43.99241" lon="1.70709">
        <ele>205</ele>
        <time>2018-06-25T09:26:48.129Z</time>
      </trkpt>
      <trkpt lat="43.99255" lon="1.7073">
        <ele>213</ele>
        <time>2018-06-25T09:26:49.129Z</time>
      </trkpt>
      <trkpt lat="43.99257" lon="1.70753">
        <ele>219</ele>
        <time>2018-06-25T09:26:50.129Z</time>
      </trkpt>
      <trkpt lat="43.99252" lon="1.70772">
        <ele>224</ele>
        <time>2018-06-25T09:26:51.129Z</time>
      </trkpt>
      <trkpt lat="43.99244" lon="1.70789">
        <ele>226</ele>
        <time>2018-06-25T09:26:52.129Z</time>
      </trkpt>
      <trkpt lat="43.99242" lon="1.70797">
        <ele>227</ele>
        <time>2018-06-25T09:26:53.129Z</time>
      </trkpt>
      <trkpt lat="43.99244" lon="1.70801">
        <ele>229</ele>
        <time>2018-06-25T09:26:54.129Z</time>
      </trkpt>
      <trkpt lat="43.99248" lon="1.70801">
        <ele>230</ele>
        <time>2018-06-25T09:26:55.129Z</time>
      </trkpt>
      <trkpt lat="43.99259" lon="1.7079">
        <ele>230</ele>
        <time>2018-06-25T09:26:56.129Z</time>
      </trkpt>
      <trkpt lat="43.99271" lon="1.70784">
        <ele>231</ele>
        <time>2018-06-25T09:26:57.129Z</time>
      </trkpt>
      <trkpt lat="43.99294" lon="1.70762">
        <ele>229</ele>
        <time>2018-06-25T09:26:58.129Z</time>
      </trkpt>
      <trkpt lat="43.99297" lon="1.70762">
        <ele>230</ele>
        <time>2018-06-25T09:26:59.129Z</time>
      </trkpt>
      <trkpt lat="43.99297" lon="1.70766">
        <ele>231</ele>
        <time>2018-06-25T09:27:00.129Z</time>
      </trkpt>
      <trkpt lat="43.99295" lon="1.70776">
        <ele>234</ele>
        <time>2018-06-25T09:27:01.129Z</time>
      </trkpt>
      <trkpt lat="43.99288" lon="1.70789">
        <ele>237</ele>
        <time>2018-06-25T09:27:02.129Z</time>
      </trkpt>
      <trkpt lat="43.99284" lon="1.70797">
        <ele>239</ele>
        <time>2018-06-25T09:27:03.129Z</time>
      </trkpt>
      <trkpt lat="43.99279" lon="1.708">
        <ele>238</ele>
        <time>2018-06-25T09:27:04.129Z</time>
      </trkpt>
      <trkpt lat="43.99275" lon="1.70808">
        <ele>240</ele>
        <time>2018-06-25T09:27:05.129Z</time>
      </trkpt>
      <trkpt lat="43.99273" lon="1.70814">
        <ele>241</ele>
        <time>2018-06-25T09:27:06.129Z</time>
      </trkpt>
      <trkpt lat="43.99273" lon="1.70823">
        <ele>244</ele>
        <time>2018-06-25T09:27:07.129Z</time>
      </trkpt>
      <trkpt lat="43.99265" lon="1.70845">
        <ele>248</ele>
        <time>2018-06-25T09:27:08.129Z</time>
      </trkpt>
      <trkpt lat="43.99264" lon="1.70852">
        <ele>251</ele>
        <time>2018-06-25T09:27:09.129Z</time>
      </trkpt>
      <trkpt lat="43.99223" lon="1.70939">
        <ele>262</ele>
        <time>2018-06-25T09:27:10.129Z</time>
      </trkpt>
      <trkpt lat="43.99209" lon="1.70982">
        <ele>267</ele>
        <time>2018-06-25T09:27:11.129Z</time>
      </trkpt>
      <trkpt lat="43.99202" lon="1.70993">
        <ele>267</ele>
        <time>2018-06-25T09:27:12.129Z</time>
      </trkpt>
      <trkpt lat="43.99187" lon="1.71027">
        <ele>268</ele>
        <time>2018-06-25T09:27:13.129Z</time>
      </trkpt>
      <trkpt lat="43.99188" lon="1.71033">
        <ele>269</ele>
        <time>2018-06-25T09:27:14.129Z</time>
      </trkpt>
      <trkpt lat="43.99231" lon="1.70986">
        <ele>276</ele>
        <time>2018-06-25T09:27:15.129Z</time>
      </trkpt>
      <trkpt lat="43.99313" lon="1.70882">
        <ele>272</ele>
        <time>2018-06-25T09:27:16.129Z</time>
      </trkpt>
      <trkpt lat="43.99312" lon="1.70879">
        <ele>271</ele>
        <time>2018-06-25T09:27:17.129Z</time>
      </trkpt>
      <trkpt lat="43.99317" lon="1.70874">
        <ele>271</ele>
        <time>2018-06-25T09:27:18.129Z</time>
      </trkpt>
      <trkpt lat="43.99323" lon="1.70875">
        <ele>273</ele>
        <time>2018-06-25T09:27:19.129Z</time>
      </trkpt>
      <trkpt lat="43.99316" lon="1.70876">
        <ele>272</ele>
        <time>2018-06-25T08:59:11.452Z</time>
      </trkpt>
      <trkpt lat="43.99316" lon="1.70875">
        <ele>271</ele>
        <time>2018-06-25T08:59:12.452Z</time>
      </trkpt>
      <trkpt lat="43.99312" lon="1.7088">
        <ele>272</ele>
        <time>2018-06-25T08:59:13.452Z</time>
      </trkpt>
      <trkpt lat="43.99313" lon="1.70883">
        <ele>273</ele>
        <time>2018-06-25T08:59:14.452Z</time>
      </trkpt>
      <trkpt lat="43.99231" lon="1.70986">
        <ele>276</ele>
        <time>2018-06-25T08:59:15.452Z</time>
      </trkpt>
      <trkpt lat="43.99175" lon="1.71046">
        <ele>267</ele>
        <time>2018-06-25T08:59:16.452Z</time>
      </trkpt>
      <trkpt lat="43.99161" lon="1.71064">
        <ele>266</ele>
        <time>2018-06-25T08:59:17.452Z</time>
      </trkpt>
      <trkpt lat="43.99154" lon="1.71078">
        <ele>266</ele>
        <time>2018-06-25T08:59:18.452Z</time>
      </trkpt>
      <trkpt lat="43.99151" lon="1.71095">
        <ele>263</ele>
        <time>2018-06-25T08:59:19.452Z</time>
      </trkpt>
      <trkpt lat="43.99152" lon="1.71107">
        <ele>261</ele>
        <time>2018-06-25T08:59:20.452Z</time>
      </trkpt>
      <trkpt lat="43.99158" lon="1.71116">
        <ele>262</ele>
        <time>2018-06-25T08:59:21.452Z</time>
      </trkpt>
      <trkpt lat="43.99378" lon="1.71223">
        <ele>257</ele>
        <time>2018-06-25T08:59:22.452Z</time>
      </trkpt>
      <trkpt lat="43.99397" lon="1.71234">
        <ele>255</ele>
        <time>2018-06-25T08:59:23.452Z</time>
      </trkpt>
      <trkpt lat="43.99412" lon="1.71251">
        <ele>253</ele>
        <time>2018-06-25T08:59:24.452Z</time>
      </trkpt>
      <trkpt lat="43.99421" lon="1.71272">
        <ele>251</ele>
        <time>2018-06-25T08:59:25.452Z</time>
      </trkpt>
      <trkpt lat="43.99424" lon="1.71285">
        <ele>250</ele>
        <time>2018-06-25T08:59:26.452Z</time>
      </trkpt>
      <trkpt lat="43.99412" lon="1.71286">
        <ele>251</ele>
        <time>2018-06-25T08:59:27.452Z</time>
      </trkpt>
      <trkpt lat="43.99366" lon="1.71275">
        <ele>250</ele>
        <time>2018-06-25T08:59:28.452Z</time>
      </trkpt>
      <trkpt lat="43.99358" lon="1.7128">
        <ele>249</ele>
        <time>2018-06-25T08:59:29.452Z</time>
      </trkpt>
      <trkpt lat="43.99354" lon="1.71286">
        <ele>249</ele>
        <time>2018-06-25T08:59:30.452Z</time>
      </trkpt>
      <trkpt lat="43.9934" lon="1.71341">
        <ele>243</ele>
        <time>2018-06-25T08:59:31.452Z</time>
      </trkpt>
      <trkpt lat="43.99335" lon="1.71348">
        <ele>243</ele>
        <time>2018-06-25T08:59:32.452Z</time>
      </trkpt>
      <trkpt lat="43.99322" lon="1.71356">
        <ele>241</ele>
        <time>2018-06-25T08:59:33.452Z</time>
      </trkpt>
      <trkpt lat="43.9921" lon="1.71362">
        <ele>224</ele>
        <time>2018-06-25T08:59:34.452Z</time>
      </trkpt>
      <trkpt lat="43.99163" lon="1.7137">
        <ele>214</ele>
        <time>2018-06-25T08:59:35.452Z</time>
      </trkpt>
      <trkpt lat="43.99155" lon="1.71381">
        <ele>212</ele>
        <time>2018-06-25T08:59:36.452Z</time>
      </trkpt>
      <trkpt lat="43.9914" lon="1.71434">
        <ele>205</ele>
        <time>2018-06-25T08:59:37.452Z</time>
      </trkpt>
      <trkpt lat="43.99132" lon="1.7144">
        <ele>203</ele>
        <time>2018-06-25T08:59:38.452Z</time>
      </trkpt>
      <trkpt lat="43.9912" lon="1.71439">
        <ele>201</ele>
        <time>2018-06-25T08:59:39.452Z</time>
      </trkpt>
      <trkpt lat="43.99091" lon="1.71407">
        <ele>197</ele>
        <time>2018-06-25T08:59:40.452Z</time>
      </trkpt>
      <trkpt lat="43.99076" lon="1.71394">
        <ele>194</ele>
        <time>2018-06-25T08:59:41.452Z</time>
      </trkpt>
      <trkpt lat="43.9905" lon="1.71386">
        <ele>190</ele>
        <time>2018-06-25T08:59:42.452Z</time>
      </trkpt>
      <trkpt lat="43.99018" lon="1.71362">
        <ele>184</ele>
        <time>2018-06-25T08:59:43.452Z</time>
      </trkpt>
      <trkpt lat="43.98959" lon="1.71309">
        <ele>174</ele>
        <time>2018-06-25T08:59:44.452Z</time>
      </trkpt>
      <trkpt lat="43.98905" lon="1.71277">
        <ele>167</ele>
        <time>2018-06-25T08:59:45.452Z</time>
      </trkpt>
      <trkpt lat="43.98894" lon="1.71262">
        <ele>167</ele>
        <time>2018-06-25T08:59:46.452Z</time>
      </trkpt>
      <trkpt lat="43.98886" lon="1.71244">
        <ele>167</ele>
        <time>2018-06-25T08:59:47.452Z</time>
      </trkpt>
      <trkpt lat="43.98842" lon="1.71065">
        <ele>154</ele>
        <time>2018-06-25T08:59:48.452Z</time>
      </trkpt>
      <trkpt lat="43.98828" lon="1.71015">
        <ele>149</ele>
        <time>2018-06-25T08:59:49.452Z</time>
      </trkpt>
      <trkpt lat="43.98806" lon="1.71033">
        <ele>150</ele>
        <time>2018-06-25T08:59:50.452Z</time>
      </trkpt>
      <trkpt lat="43.9879" lon="1.71041">
        <ele>150</ele>
        <time>2018-06-25T08:59:51.452Z</time>
      </trkpt>
      <trkpt lat="43.98772" lon="1.71047">
        <ele>150</ele>
        <time>2018-06-25T08:59:52.452Z</time>
      </trkpt>
      <trkpt lat="43.98771" lon="1.71041">
        <ele>149</ele>
        <time>2018-06-25T08:59:53.452Z</time>
      </trkpt>
      <trkpt lat="43.98763" lon="1.71032">
        <ele>148</ele>
        <time>2018-06-25T08:59:54.452Z</time>
      </trkpt>
      <trkpt lat="43.98659" lon="1.70968">
        <ele>141</ele>
        <time>2018-06-25T08:59:55.452Z</time>
      </trkpt>
      <trkpt lat="43.98634" lon="1.70946">
        <ele>140</ele>
        <time>2018-06-25T08:59:56.452Z</time>
      </trkpt>
      <trkpt lat="43.98616" lon="1.70937">
        <ele>139</ele>
        <time>2018-06-25T08:59:57.452Z</time>
      </trkpt>
      <trkpt lat="43.98548" lon="1.70921">
        <ele>138</ele>
        <time>2018-06-25T08:59:58.452Z</time>
      </trkpt>
      <trkpt lat="43.98488" lon="1.70951">
        <ele>139</ele>
        <time>2018-06-25T08:59:59.452Z</time>
      </trkpt>
      <trkpt lat="43.98434" lon="1.70945">
        <ele>139</ele>
        <time>2018-06-25T09:00:00.452Z</time>
      </trkpt>
      <trkpt lat="43.98372" lon="1.70952">
        <ele>139</ele>
        <time>2018-06-25T09:00:01.452Z</time>
      </trkpt>
      <trkpt lat="43.98301" lon="1.71004">
        <ele>139</ele>
        <time>2018-06-25T09:00:02.452Z</time>
      </trkpt>
      <trkpt lat="43.98142" lon="1.71065">
        <ele>146</ele>
        <time>2018-06-25T09:00:03.452Z</time>
      </trkpt>
      <trkpt lat="43.98114" lon="1.71025">
        <ele>151</ele>
        <time>2018-06-25T09:00:04.452Z</time>
      </trkpt>
      <trkpt lat="43.98047" lon="1.70976">
        <ele>163</ele>
        <time>2018-06-25T09:00:05.452Z</time>
      </trkpt>
      <trkpt lat="43.98046" lon="1.70914">
        <ele>165</ele>
        <time>2018-06-25T09:00:06.452Z</time>
      </trkpt>
      <trkpt lat="43.98039" lon="1.70917">
        <ele>166</ele>
        <time>2018-06-25T09:00:07.452Z</time>
      </trkpt>
      <trkpt lat="43.97994" lon="1.7089">
        <ele>170</ele>
        <time>2018-06-25T09:00:08.452Z</time>
      </trkpt>
      <trkpt lat="43.97976" lon="1.71119">
        <ele>171</ele>
        <time>2018-06-25T09:00:09.452Z</time>
      </trkpt>
      <trkpt lat="43.97965" lon="1.71145">
        <ele>172</ele>
        <time>2018-06-25T09:00:10.452Z</time>
      </trkpt>
      <trkpt lat="43.97946" lon="1.71161">
        <ele>178</ele>
        <time>2018-06-25T09:00:11.452Z</time>
      </trkpt>
      <trkpt lat="43.97922" lon="1.71205">
        <ele>186</ele>
        <time>2018-06-25T09:00:12.452Z</time>
      </trkpt>
      <trkpt lat="43.97852" lon="1.71387">
        <ele>195</ele>
        <time>2018-06-25T09:00:13.452Z</time>
      </trkpt>
      <trkpt lat="43.9782" lon="1.71407">
        <ele>200</ele>
        <time>2018-06-25T09:00:14.452Z</time>
      </trkpt>
      <trkpt lat="43.97718" lon="1.71368">
        <ele>203</ele>
        <time>2018-06-25T09:00:15.452Z</time>
      </trkpt>
      <trkpt lat="43.97606" lon="1.71422">
        <ele>202</ele>
        <time>2018-06-25T09:00:16.452Z</time>
      </trkpt>
      <trkpt lat="43.97543" lon="1.71397">
        <ele>205</ele>
        <time>2018-06-25T09:00:17.452Z</time>
      </trkpt>
      <trkpt lat="43.97429" lon="1.71386">
        <ele>210</ele>
        <time>2018-06-25T09:00:18.452Z</time>
      </trkpt>
      <trkpt lat="43.97397" lon="1.71329">
        <ele>209</ele>
        <time>2018-06-25T09:00:19.452Z</time>
      </trkpt>
      <trkpt lat="43.97374" lon="1.71316">
        <ele>210</ele>
        <time>2018-06-25T09:00:20.452Z</time>
      </trkpt>
      <trkpt lat="43.97216" lon="1.71343">
        <ele>195</ele>
        <time>2018-06-25T09:00:21.452Z</time>
      </trkpt>
      <trkpt lat="43.97194" lon="1.71321">
        <ele>193</ele>
        <time>2018-06-25T09:00:22.452Z</time>
      </trkpt>
      <trkpt lat="43.97169" lon="1.71209">
        <ele>189</ele>
        <time>2018-06-25T09:00:23.452Z</time>
      </trkpt>
      <trkpt lat="43.97148" lon="1.71179">
        <ele>186</ele>
        <time>2018-06-25T09:00:24.452Z</time>
      </trkpt>
      <trkpt lat="43.97094" lon="1.7115">
        <ele>182</ele>
        <time>2018-06-25T09:00:25.452Z</time>
      </trkpt>
      <trkpt lat="43.97049" lon="1.71141">
        <ele>177</ele>
        <time>2018-06-25T09:00:26.452Z</time>
      </trkpt>
      <trkpt lat="43.9697" lon="1.71085">
        <ele>172</ele>
        <time>2018-06-25T09:00:27.452Z</time>
      </trkpt>
      <trkpt lat="43.96945" lon="1.71082">
        <ele>172</ele>
        <time>2018-06-25T09:00:28.452Z</time>
      </trkpt>
      <trkpt lat="43.968" lon="1.71138">
        <ele>187</ele>
        <time>2018-06-25T09:00:29.452Z</time>
      </trkpt>
      <trkpt lat="43.96737" lon="1.71132">
        <ele>188</ele>
        <time>2018-06-25T09:00:30.452Z</time>
      </trkpt>
      <trkpt lat="43.96436" lon="1.70999">
        <ele>192</ele>
        <time>2018-06-25T09:00:31.452Z</time>
      </trkpt>
      <trkpt lat="43.96414" lon="1.7098">
        <ele>193</ele>
        <time>2018-06-25T09:00:32.452Z</time>
      </trkpt>
      <trkpt lat="43.96411" lon="1.70895">
        <ele>198</ele>
        <time>2018-06-25T09:00:33.452Z</time>
      </trkpt>
      <trkpt lat="43.96447" lon="1.70807">
        <ele>208</ele>
        <time>2018-06-25T09:00:34.452Z</time>
      </trkpt>
      <trkpt lat="43.9646" lon="1.70752">
        <ele>211</ele>
        <time>2018-06-25T09:00:35.452Z</time>
      </trkpt>
      <trkpt lat="43.96472" lon="1.70734">
        <ele>211</ele>
        <time>2018-06-25T09:00:36.452Z</time>
      </trkpt>
      <trkpt lat="43.96485" lon="1.70744">
        <ele>209</ele>
        <time>2018-06-25T09:00:37.452Z</time>
      </trkpt>
      <trkpt lat="43.96491" lon="1.70857">
        <ele>207</ele>
        <time>2018-06-25T09:00:38.452Z</time>
      </trkpt>
      <trkpt lat="43.96501" lon="1.70887">
        <ele>206</ele>
        <time>2018-06-25T09:00:39.452Z</time>
      </trkpt>
      <trkpt lat="43.96509" lon="1.70883">
        <ele>206</ele>
        <time>2018-06-25T09:00:40.452Z</time>
      </trkpt>
      <trkpt lat="43.96511" lon="1.70861">
        <ele>207</ele>
        <time>2018-06-25T09:00:41.452Z</time>
      </trkpt>
      <trkpt lat="43.96561" lon="1.70715">
        <ele>216</ele>
        <time>2018-06-25T09:00:42.452Z</time>
      </trkpt>
      <trkpt lat="43.96585" lon="1.70588">
        <ele>235</ele>
        <time>2018-06-25T09:00:43.452Z</time>
      </trkpt>
      <trkpt lat="43.96579" lon="1.70541">
        <ele>238</ele>
        <time>2018-06-25T09:00:44.452Z</time>
      </trkpt>
      <trkpt lat="43.9656" lon="1.70492">
        <ele>241</ele>
        <time>2018-06-25T09:00:45.452Z</time>
      </trkpt>
      <trkpt lat="43.96557" lon="1.70427">
        <ele>245</ele>
        <time>2018-06-25T09:00:46.452Z</time>
      </trkpt>
      <trkpt lat="43.96525" lon="1.70333">
        <ele>247</ele>
        <time>2018-06-25T09:00:47.452Z</time>
      </trkpt>
      <trkpt lat="43.96486" lon="1.70356">
        <ele>248</ele>
        <time>2018-06-25T09:00:48.452Z</time>
      </trkpt>
      <trkpt lat="43.96439" lon="1.70408">
        <ele>251</ele>
        <time>2018-06-25T09:00:49.452Z</time>
      </trkpt>
      <trkpt lat="43.96317" lon="1.70436">
        <ele>252</ele>
        <time>2018-06-25T09:00:50.452Z</time>
      </trkpt>
      <trkpt lat="43.96226" lon="1.70397">
        <ele>251</ele>
        <time>2018-06-25T09:00:51.452Z</time>
      </trkpt>
      <trkpt lat="43.96128" lon="1.70392">
        <ele>250</ele>
        <time>2018-06-25T09:00:52.452Z</time>
      </trkpt>
      <trkpt lat="43.96039" lon="1.70454">
        <ele>252</ele>
        <time>2018-06-25T09:00:53.452Z</time>
      </trkpt>
      <trkpt lat="43.95927" lon="1.70509">
        <ele>253</ele>
        <time>2018-06-25T09:00:54.452Z</time>
      </trkpt>
      <trkpt lat="43.95896" lon="1.7054">
        <ele>254</ele>
        <time>2018-06-25T09:00:55.452Z</time>
      </trkpt>
      <trkpt lat="43.95808" lon="1.70579">
        <ele>261</ele>
        <time>2018-06-25T09:00:56.452Z</time>
      </trkpt>
      <trkpt lat="43.95662" lon="1.70626">
        <ele>266</ele>
        <time>2018-06-25T09:00:57.452Z</time>
      </trkpt>
      <trkpt lat="43.95483" lon="1.7064">
        <ele>263</ele>
        <time>2018-06-25T09:00:58.452Z</time>
      </trkpt>
      <trkpt lat="43.95484" lon="1.70642">
        <ele>263</ele>
        <time>2018-06-25T09:00:59.452Z</time>
      </trkpt>
      <trkpt lat="43.95493" lon="1.70631">
        <ele>264</ele>
        <time>2018-06-25T09:01:00.452Z</time>
      </trkpt>
      <trkpt lat="43.95502" lon="1.7061">
        <ele>264</ele>
        <time>2018-06-25T09:01:01.452Z</time>
      </trkpt>
      <trkpt lat="43.95542" lon="1.70499">
        <ele>265</ele>
        <time>2018-06-25T09:01:02.452Z</time>
      </trkpt>
      <trkpt lat="43.95625" lon="1.70342">
        <ele>270</ele>
        <time>2018-06-25T09:01:03.452Z</time>
      </trkpt>
      <trkpt lat="43.95666" lon="1.70157">
        <ele>272</ele>
        <time>2018-06-25T09:01:04.452Z</time>
      </trkpt>
      <trkpt lat="43.95668" lon="1.70099">
        <ele>273</ele>
        <time>2018-06-25T09:01:05.452Z</time>
      </trkpt>
      <trkpt lat="43.95651" lon="1.70004">
        <ele>273</ele>
        <time>2018-06-25T09:01:06.452Z</time>
      </trkpt>
      <trkpt lat="43.95648" lon="1.69909">
        <ele>271</ele>
        <time>2018-06-25T09:01:07.452Z</time>
      </trkpt>
      <trkpt lat="43.95658" lon="1.69821">
        <ele>269</ele>
        <time>2018-06-25T09:01:08.452Z</time>
      </trkpt>
      <trkpt lat="43.95696" lon="1.69725">
        <ele>265</ele>
        <time>2018-06-25T09:01:09.452Z</time>
      </trkpt>
      <trkpt lat="43.95759" lon="1.69586">
        <ele>263</ele>
        <time>2018-06-25T09:01:10.452Z</time>
      </trkpt>
      <trkpt lat="43.95811" lon="1.69508">
        <ele>263</ele>
        <time>2018-06-25T09:01:11.452Z</time>
      </trkpt>
      <trkpt lat="43.95899" lon="1.69389">
        <ele>263</ele>
        <time>2018-06-25T09:01:12.452Z</time>
      </trkpt>
      <trkpt lat="43.95974" lon="1.69209">
        <ele>262</ele>
        <time>2018-06-25T09:01:13.452Z</time>
      </trkpt>
      <trkpt lat="43.96034" lon="1.69132">
        <ele>257</ele>
        <time>2018-06-25T09:01:14.452Z</time>
      </trkpt>
      <trkpt lat="43.96037" lon="1.69118">
        <ele>257</ele>
        <time>2018-06-25T09:01:15.452Z</time>
      </trkpt>
      <trkpt lat="43.96064" lon="1.69086">
        <ele>256</ele>
        <time>2018-06-25T09:01:16.452Z</time>
      </trkpt>
      <trkpt lat="43.96079" lon="1.69051">
        <ele>258</ele>
        <time>2018-06-25T09:01:17.452Z</time>
      </trkpt>
      <trkpt lat="43.96086" lon="1.69018">
        <ele>259</ele>
        <time>2018-06-25T09:01:18.452Z</time>
      </trkpt>
      <trkpt lat="43.96084" lon="1.68988">
        <ele>260</ele>
        <time>2018-06-25T09:01:19.452Z</time>
      </trkpt>
      <trkpt lat="43.96077" lon="1.68953">
        <ele>260</ele>
        <time>2018-06-25T09:01:20.452Z</time>
      </trkpt>
      <trkpt lat="43.96056" lon="1.68925">
        <ele>259</ele>
        <time>2018-06-25T09:01:21.452Z</time>
      </trkpt>
      <trkpt lat="43.96018" lon="1.68882">
        <ele>256</ele>
        <time>2018-06-25T09:01:22.452Z</time>
      </trkpt>
      <trkpt lat="43.95996" lon="1.68842">
        <ele>255</ele>
        <time>2018-06-25T09:01:23.452Z</time>
      </trkpt>
      <trkpt lat="43.95979" lon="1.68761">
        <ele>256</ele>
        <time>2018-06-25T09:01:24.452Z</time>
      </trkpt>
      <trkpt lat="43.95941" lon="1.68619">
        <ele>256</ele>
        <time>2018-06-25T09:01:25.452Z</time>
      </trkpt>
      <trkpt lat="43.95926" lon="1.68577">
        <ele>259</ele>
        <time>2018-06-25T09:01:26.452Z</time>
      </trkpt>
      <trkpt lat="43.95906" lon="1.68554">
        <ele>260</ele>
        <time>2018-06-25T09:01:27.452Z</time>
      </trkpt>
      <trkpt lat="43.95832" lon="1.68518">
        <ele>260</ele>
        <time>2018-06-25T09:01:28.452Z</time>
      </trkpt>
      <trkpt lat="43.95704" lon="1.68467">
        <ele>258</ele>
        <time>2018-06-25T09:01:29.452Z</time>
      </trkpt>
      <trkpt lat="43.95652" lon="1.6844">
        <ele>257</ele>
        <time>2018-06-25T09:01:30.452Z</time>
      </trkpt>
      <trkpt lat="43.95623" lon="1.68422">
        <ele>256</ele>
        <time>2018-06-25T09:01:31.452Z</time>
      </trkpt>
      <trkpt lat="43.95582" lon="1.68389">
        <ele>254</ele>
        <time>2018-06-25T09:01:32.452Z</time>
      </trkpt>
      <trkpt lat="43.95545" lon="1.68315">
        <ele>249</ele>
        <time>2018-06-25T09:01:33.452Z</time>
      </trkpt>
      <trkpt lat="43.95524" lon="1.68288">
        <ele>246</ele>
        <time>2018-06-25T09:01:34.452Z</time>
      </trkpt>
      <trkpt lat="43.95506" lon="1.68288">
        <ele>246</ele>
        <time>2018-06-25T09:01:35.452Z</time>
      </trkpt>
      <trkpt lat="43.95427" lon="1.68323">
        <ele>244</ele>
        <time>2018-06-25T09:01:36.452Z</time>
      </trkpt>
      <trkpt lat="43.95404" lon="1.68339">
        <ele>244</ele>
        <time>2018-06-25T09:01:37.452Z</time>
      </trkpt>
      <trkpt lat="43.95378" lon="1.68334">
        <ele>243</ele>
        <time>2018-06-25T09:01:38.452Z</time>
      </trkpt>
      <trkpt lat="43.95321" lon="1.68262">
        <ele>227</ele>
        <time>2018-06-25T09:01:39.452Z</time>
      </trkpt>
      <trkpt lat="43.9531" lon="1.68267">
        <ele>226</ele>
        <time>2018-06-25T09:01:40.452Z</time>
      </trkpt>
      <trkpt lat="43.95278" lon="1.68308">
        <ele>228</ele>
        <time>2018-06-25T09:01:41.452Z</time>
      </trkpt>
      <trkpt lat="43.9526" lon="1.68316">
        <ele>226</ele>
        <time>2018-06-25T09:01:42.452Z</time>
      </trkpt>
      <trkpt lat="43.95236" lon="1.6832">
        <ele>222</ele>
        <time>2018-06-25T09:01:43.452Z</time>
      </trkpt>
      <trkpt lat="43.95211" lon="1.68352">
        <ele>219</ele>
        <time>2018-06-25T09:01:44.452Z</time>
      </trkpt>
      <trkpt lat="43.9511" lon="1.68587">
        <ele>203</ele>
        <time>2018-06-25T09:01:45.452Z</time>
      </trkpt>
      <trkpt lat="43.951" lon="1.68616">
        <ele>201</ele>
        <time>2018-06-25T09:01:46.452Z</time>
      </trkpt>
      <trkpt lat="43.95103" lon="1.68634">
        <ele>201</ele>
        <time>2018-06-25T09:01:47.452Z</time>
      </trkpt>
      <trkpt lat="43.95104" lon="1.68633">
        <ele>201</ele>
        <time>2018-06-25T09:01:48.452Z</time>
      </trkpt>
      <trkpt lat="43.95109" lon="1.68666">
        <ele>200</ele>
        <time>2018-06-25T09:01:49.452Z</time>
      </trkpt>
      <trkpt lat="43.95052" lon="1.6874">
        <ele>201</ele>
        <time>2018-06-25T09:01:50.452Z</time>
      </trkpt>
      <trkpt lat="43.95041" lon="1.68769">
        <ele>202</ele>
        <time>2018-06-25T09:01:51.452Z</time>
      </trkpt>
      <trkpt lat="43.95044" lon="1.68814">
        <ele>202</ele>
        <time>2018-06-25T09:01:52.452Z</time>
      </trkpt>
      <trkpt lat="43.95042" lon="1.68851">
        <ele>203</ele>
        <time>2018-06-25T09:01:53.452Z</time>
      </trkpt>
      <trkpt lat="43.95014" lon="1.69023">
        <ele>204</ele>
        <time>2018-06-25T09:01:54.452Z</time>
      </trkpt>
      <trkpt lat="43.94987" lon="1.69022">
        <ele>207</ele>
        <time>2018-06-25T09:01:55.452Z</time>
      </trkpt>
      <trkpt lat="43.94913" lon="1.69027">
        <ele>216</ele>
        <time>2018-06-25T09:01:56.452Z</time>
      </trkpt>
      <trkpt lat="43.94887" lon="1.69031">
        <ele>219</ele>
        <time>2018-06-25T09:01:57.452Z</time>
      </trkpt>
      <trkpt lat="43.94825" lon="1.69013">
        <ele>226</ele>
        <time>2018-06-25T09:01:58.452Z</time>
      </trkpt>
      <trkpt lat="43.94754" lon="1.69029">
        <ele>233</ele>
        <time>2018-06-25T09:01:59.452Z</time>
      </trkpt>
      <trkpt lat="43.9472" lon="1.69014">
        <ele>236</ele>
        <time>2018-06-25T09:02:00.452Z</time>
      </trkpt>
      <trkpt lat="43.94515" lon="1.68841">
        <ele>248</ele>
        <time>2018-06-25T09:02:01.452Z</time>
      </trkpt>
      <trkpt lat="43.94483" lon="1.68792">
        <ele>246</ele>
        <time>2018-06-25T09:02:02.452Z</time>
      </trkpt>
      <trkpt lat="43.94379" lon="1.68782">
        <ele>243</ele>
        <time>2018-06-25T09:02:03.452Z</time>
      </trkpt>
      <trkpt lat="43.94116" lon="1.68732">
        <ele>245</ele>
        <time>2018-06-25T09:02:04.452Z</time>
      </trkpt>
      <trkpt lat="43.94095" lon="1.68702">
        <ele>243</ele>
        <time>2018-06-25T09:02:05.452Z</time>
      </trkpt>
      <trkpt lat="43.94084" lon="1.68711">
        <ele>242</ele>
        <time>2018-06-25T09:02:06.452Z</time>
      </trkpt>
      <trkpt lat="43.93951" lon="1.68699">
        <ele>232</ele>
        <time>2018-06-25T09:02:07.452Z</time>
      </trkpt>
      <trkpt lat="43.93907" lon="1.68717">
        <ele>228</ele>
        <time>2018-06-25T09:02:08.452Z</time>
      </trkpt>
      <trkpt lat="43.9379" lon="1.68737">
        <ele>218</ele>
        <time>2018-06-25T09:02:09.452Z</time>
      </trkpt>
      <trkpt lat="43.93681" lon="1.68802">
        <ele>214</ele>
        <time>2018-06-25T09:02:10.452Z</time>
      </trkpt>
      <trkpt lat="43.93601" lon="1.68827">
        <ele>213</ele>
        <time>2018-06-25T09:02:11.452Z</time>
      </trkpt>
      <trkpt lat="43.93549" lon="1.68821">
        <ele>211</ele>
        <time>2018-06-25T09:02:12.452Z</time>
      </trkpt>
      <trkpt lat="43.93462" lon="1.68848">
        <ele>205</ele>
        <time>2018-06-25T09:02:13.452Z</time>
      </trkpt>
      <trkpt lat="43.93317" lon="1.68873">
        <ele>193</ele>
        <time>2018-06-25T09:02:14.452Z</time>
      </trkpt>
      <trkpt lat="43.93275" lon="1.68802">
        <ele>189</ele>
        <time>2018-06-25T09:02:15.452Z</time>
      </trkpt>
      <trkpt lat="43.93062" lon="1.68671">
        <ele>172</ele>
        <time>2018-06-25T09:02:16.452Z</time>
      </trkpt>
      <trkpt lat="43.93007" lon="1.68584">
        <ele>171</ele>
        <time>2018-06-25T09:02:17.452Z</time>
      </trkpt>
      <trkpt lat="43.92967" lon="1.68548">
        <ele>171</ele>
        <time>2018-06-25T09:02:18.452Z</time>
      </trkpt>
      <trkpt lat="43.92941" lon="1.68541">
        <ele>171</ele>
        <time>2018-06-25T09:02:19.452Z</time>
      </trkpt>
      <trkpt lat="43.92889" lon="1.68559">
        <ele>169</ele>
        <time>2018-06-25T09:02:20.452Z</time>
      </trkpt>
      <trkpt lat="43.92854" lon="1.6856">
        <ele>169</ele>
        <time>2018-06-25T09:02:21.452Z</time>
      </trkpt>
      <trkpt lat="43.92771" lon="1.68518">
        <ele>167</ele>
        <time>2018-06-25T09:02:22.452Z</time>
      </trkpt>
      <trkpt lat="43.92635" lon="1.68468">
        <ele>166</ele>
        <time>2018-06-25T09:02:23.452Z</time>
      </trkpt>
      <trkpt lat="43.92586" lon="1.68377">
        <ele>164</ele>
        <time>2018-06-25T09:02:24.452Z</time>
      </trkpt>
      <trkpt lat="43.92546" lon="1.68331">
        <ele>164</ele>
        <time>2018-06-25T09:02:25.452Z</time>
      </trkpt>
      <trkpt lat="43.92465" lon="1.68311">
        <ele>164</ele>
        <time>2018-06-25T09:02:26.452Z</time>
      </trkpt>
      <trkpt lat="43.92419" lon="1.68265">
        <ele>166</ele>
        <time>2018-06-25T09:02:27.452Z</time>
      </trkpt>
      <trkpt lat="43.9234" lon="1.68225">
        <ele>165</ele>
        <time>2018-06-25T09:02:28.452Z</time>
      </trkpt>
      <trkpt lat="43.92274" lon="1.68213">
        <ele>167</ele>
        <time>2018-06-25T09:02:29.452Z</time>
      </trkpt>
      <trkpt lat="43.92221" lon="1.68214">
        <ele>168</ele>
        <time>2018-06-25T09:02:30.452Z</time>
      </trkpt>
      <trkpt lat="43.9216" lon="1.68185">
        <ele>170</ele>
        <time>2018-06-25T09:02:31.452Z</time>
      </trkpt>
      <trkpt lat="43.91995" lon="1.68075">
        <ele>171</ele>
        <time>2018-06-25T09:02:32.452Z</time>
      </trkpt>
      <trkpt lat="43.91812" lon="1.67988">
        <ele>154</ele>
        <time>2018-06-25T09:02:33.452Z</time>
      </trkpt>
      <trkpt lat="43.91808" lon="1.67971">
        <ele>154</ele>
        <time>2018-06-25T09:02:34.452Z</time>
      </trkpt>
      <trkpt lat="43.91824" lon="1.67915">
        <ele>155</ele>
        <time>2018-06-25T09:02:35.452Z</time>
      </trkpt>
      <trkpt lat="43.91812" lon="1.67849">
        <ele>153</ele>
        <time>2018-06-25T09:02:36.452Z</time>
      </trkpt>
      <trkpt lat="43.91812" lon="1.67773">
        <ele>154</ele>
        <time>2018-06-25T09:02:37.452Z</time>
      </trkpt>
      <trkpt lat="43.91834" lon="1.67666">
        <ele>155</ele>
        <time>2018-06-25T09:02:38.452Z</time>
      </trkpt>
      <trkpt lat="43.9184" lon="1.67603">
        <ele>155</ele>
        <time>2018-06-25T09:02:39.452Z</time>
      </trkpt>
      <trkpt lat="43.91833" lon="1.67452">
        <ele>156</ele>
        <time>2018-06-25T09:02:40.452Z</time>
      </trkpt>
      <trkpt lat="43.9186" lon="1.67199">
        <ele>157</ele>
        <time>2018-06-25T09:02:41.452Z</time>
      </trkpt>
      <trkpt lat="43.9187" lon="1.66809">
        <ele>153</ele>
        <time>2018-06-25T09:02:42.452Z</time>
      </trkpt>
      <trkpt lat="43.91894" lon="1.66579">
        <ele>151</ele>
        <time>2018-06-25T09:02:43.452Z</time>
      </trkpt>
      <trkpt lat="43.91889" lon="1.66429">
        <ele>152</ele>
        <time>2018-06-25T09:02:44.452Z</time>
      </trkpt>
      <trkpt lat="43.91876" lon="1.66323">
        <ele>154</ele>
        <time>2018-06-25T09:02:45.452Z</time>
      </trkpt>
      <trkpt lat="43.91878" lon="1.66238">
        <ele>152</ele>
        <time>2018-06-25T09:02:46.452Z</time>
      </trkpt>
      <trkpt lat="43.91892" lon="1.66141">
        <ele>152</ele>
        <time>2018-06-25T09:02:47.452Z</time>
      </trkpt>
      <trkpt lat="43.91944" lon="1.66076">
        <ele>154</ele>
        <time>2018-06-25T09:02:48.452Z</time>
      </trkpt>
      <trkpt lat="43.91992" lon="1.65977">
        <ele>155</ele>
        <time>2018-06-25T09:02:49.452Z</time>
      </trkpt>
      <trkpt lat="43.9201" lon="1.65882">
        <ele>153</ele>
        <time>2018-06-25T09:02:50.452Z</time>
      </trkpt>
      <trkpt lat="43.92024" lon="1.65736">
        <ele>150</ele>
        <time>2018-06-25T09:02:51.452Z</time>
      </trkpt>
      <trkpt lat="43.92137" lon="1.65174">
        <ele>149</ele>
        <time>2018-06-25T09:02:52.452Z</time>
      </trkpt>
      <trkpt lat="43.92132" lon="1.65152">
        <ele>148</ele>
        <time>2018-06-25T09:02:53.452Z</time>
      </trkpt>
      <trkpt lat="43.92118" lon="1.65138">
        <ele>148</ele>
        <time>2018-06-25T09:02:54.452Z</time>
      </trkpt>
      <trkpt lat="43.91989" lon="1.65118">
        <ele>145</ele>
        <time>2018-06-25T09:02:55.452Z</time>
      </trkpt>
      <trkpt lat="43.91907" lon="1.65121">
        <ele>145</ele>
        <time>2018-06-25T09:02:56.452Z</time>
      </trkpt>
      <trkpt lat="43.91851" lon="1.65111">
        <ele>145</ele>
        <time>2018-06-25T09:02:57.452Z</time>
      </trkpt>
      <trkpt lat="43.91811" lon="1.65085">
        <ele>147</ele>
        <time>2018-06-25T09:02:58.452Z</time>
      </trkpt>
      <trkpt lat="43.91732" lon="1.65056">
        <ele>151</ele>
        <time>2018-06-25T09:02:59.452Z</time>
      </trkpt>
      <trkpt lat="43.91724" lon="1.6506">
        <ele>152</ele>
        <time>2018-06-25T09:03:00.452Z</time>
      </trkpt>
      <trkpt lat="43.91697" lon="1.65131">
        <ele>154</ele>
        <time>2018-06-25T09:03:01.452Z</time>
      </trkpt>
      <trkpt lat="43.91683" lon="1.65144">
        <ele>155</ele>
        <time>2018-06-25T09:03:02.452Z</time>
      </trkpt>
      <trkpt lat="43.91629" lon="1.65156">
        <ele>160</ele>
        <time>2018-06-25T09:03:03.452Z</time>
      </trkpt>
      <trkpt lat="43.91609" lon="1.65148">
        <ele>162</ele>
        <time>2018-06-25T09:03:04.452Z</time>
      </trkpt>
      <trkpt lat="43.91545" lon="1.65079">
        <ele>168</ele>
        <time>2018-06-25T09:03:05.452Z</time>
      </trkpt>
      <trkpt lat="43.91458" lon="1.65074">
        <ele>174</ele>
        <time>2018-06-25T09:03:06.452Z</time>
      </trkpt>
      <trkpt lat="43.91286" lon="1.64968">
        <ele>189</ele>
        <time>2018-06-25T09:03:07.452Z</time>
      </trkpt>
      <trkpt lat="43.91214" lon="1.64938">
        <ele>195</ele>
        <time>2018-06-25T09:03:08.452Z</time>
      </trkpt>
      <trkpt lat="43.91178" lon="1.64937">
        <ele>198</ele>
        <time>2018-06-25T09:03:09.452Z</time>
      </trkpt>
      <trkpt lat="43.91122" lon="1.64966">
        <ele>206</ele>
        <time>2018-06-25T09:03:10.452Z</time>
      </trkpt>
      <trkpt lat="43.91086" lon="1.64974">
        <ele>211</ele>
        <time>2018-06-25T09:03:11.452Z</time>
      </trkpt>
      <trkpt lat="43.91019" lon="1.64953">
        <ele>213</ele>
        <time>2018-06-25T09:03:12.452Z</time>
      </trkpt>
      <trkpt lat="43.90838" lon="1.64866">
        <ele>215</ele>
        <time>2018-06-25T09:03:13.452Z</time>
      </trkpt>
      <trkpt lat="43.9071" lon="1.64937">
        <ele>209</ele>
        <time>2018-06-25T09:03:14.452Z</time>
      </trkpt>
      <trkpt lat="43.90688" lon="1.6492">
        <ele>209</ele>
        <time>2018-06-25T09:03:15.452Z</time>
      </trkpt>
      <trkpt lat="43.90601" lon="1.64777">
        <ele>206</ele>
        <time>2018-06-25T09:03:16.452Z</time>
      </trkpt>
      <trkpt lat="43.90527" lon="1.6454">
        <ele>206</ele>
        <time>2018-06-25T09:03:17.452Z</time>
      </trkpt>
      <trkpt lat="43.90485" lon="1.64437">
        <ele>209</ele>
        <time>2018-06-25T09:03:18.452Z</time>
      </trkpt>
      <trkpt lat="43.90416" lon="1.64334">
        <ele>216</ele>
        <time>2018-06-25T09:03:19.452Z</time>
      </trkpt>
      <trkpt lat="43.90392" lon="1.64323">
        <ele>217</ele>
        <time>2018-06-25T09:03:20.452Z</time>
      </trkpt>
      <trkpt lat="43.90277" lon="1.64345">
        <ele>216</ele>
        <time>2018-06-25T09:03:21.452Z</time>
      </trkpt>
      <trkpt lat="43.90174" lon="1.64321">
        <ele>217</ele>
        <time>2018-06-25T09:03:22.452Z</time>
      </trkpt>
      <trkpt lat="43.90032" lon="1.64332">
        <ele>219</ele>
        <time>2018-06-25T09:03:23.452Z</time>
      </trkpt>
      <trkpt lat="43.89924" lon="1.64322">
        <ele>217</ele>
        <time>2018-06-25T09:03:24.452Z</time>
      </trkpt>
      <trkpt lat="43.89764" lon="1.64335">
        <ele>224</ele>
        <time>2018-06-25T09:03:25.452Z</time>
      </trkpt>
      <trkpt lat="43.89731" lon="1.64329">
        <ele>226</ele>
        <time>2018-06-25T09:03:26.452Z</time>
      </trkpt>
      <trkpt lat="43.8969" lon="1.64304">
        <ele>229</ele>
        <time>2018-06-25T09:03:27.452Z</time>
      </trkpt>
      <trkpt lat="43.89542" lon="1.64131">
        <ele>233</ele>
        <time>2018-06-25T09:03:28.452Z</time>
      </trkpt>
      <trkpt lat="43.89494" lon="1.64173">
        <ele>232</ele>
        <time>2018-06-25T09:03:29.452Z</time>
      </trkpt>
      <trkpt lat="43.89467" lon="1.64185">
        <ele>232</ele>
        <time>2018-06-25T09:03:30.452Z</time>
      </trkpt>
      <trkpt lat="43.89405" lon="1.64169">
        <ele>235</ele>
        <time>2018-06-25T09:03:31.452Z</time>
      </trkpt>
      <trkpt lat="43.89371" lon="1.64173">
        <ele>236</ele>
        <time>2018-06-25T09:03:32.452Z</time>
      </trkpt>
      <trkpt lat="43.89342" lon="1.64191">
        <ele>237</ele>
        <time>2018-06-25T09:03:33.452Z</time>
      </trkpt>
      <trkpt lat="43.89306" lon="1.64243">
        <ele>236</ele>
        <time>2018-06-25T09:03:34.452Z</time>
      </trkpt>
      <trkpt lat="43.89296" lon="1.6428">
        <ele>235</ele>
        <time>2018-06-25T09:03:35.452Z</time>
      </trkpt>
      <trkpt lat="43.89277" lon="1.64503">
        <ele>232</ele>
        <time>2018-06-25T09:03:36.452Z</time>
      </trkpt>
      <trkpt lat="43.89275" lon="1.64682">
        <ele>233</ele>
        <time>2018-06-25T09:03:37.452Z</time>
      </trkpt>
      <trkpt lat="43.89217" lon="1.64929">
        <ele>238</ele>
        <time>2018-06-25T09:03:38.452Z</time>
      </trkpt>
      <trkpt lat="43.89184" lon="1.65032">
        <ele>243</ele>
        <time>2018-06-25T09:03:39.452Z</time>
      </trkpt>
      <trkpt lat="43.8912" lon="1.6514">
        <ele>238</ele>
        <time>2018-06-25T09:03:40.452Z</time>
      </trkpt>
      <trkpt lat="43.89088" lon="1.6517">
        <ele>238</ele>
        <time>2018-06-25T09:03:41.452Z</time>
      </trkpt>
      <trkpt lat="43.89073" lon="1.65169">
        <ele>238</ele>
        <time>2018-06-25T09:03:42.452Z</time>
      </trkpt>
      <trkpt lat="43.89009" lon="1.65104">
        <ele>236</ele>
        <time>2018-06-25T09:03:43.452Z</time>
      </trkpt>
      <trkpt lat="43.88742" lon="1.64958">
        <ele>231</ele>
        <time>2018-06-25T09:03:44.452Z</time>
      </trkpt>
      <trkpt lat="43.88624" lon="1.64914">
        <ele>227</ele>
        <time>2018-06-25T09:03:45.452Z</time>
      </trkpt>
      <trkpt lat="43.88465" lon="1.64879">
        <ele>228</ele>
        <time>2018-06-25T09:03:46.452Z</time>
      </trkpt>
      <trkpt lat="43.88452" lon="1.64862">
        <ele>229</ele>
        <time>2018-06-25T09:03:47.452Z</time>
      </trkpt>
      <trkpt lat="43.88421" lon="1.6478">
        <ele>234</ele>
        <time>2018-06-25T09:03:48.452Z</time>
      </trkpt>
      <trkpt lat="43.88315" lon="1.64645">
        <ele>229</ele>
        <time>2018-06-25T09:03:49.452Z</time>
      </trkpt>
      <trkpt lat="43.88295" lon="1.64602">
        <ele>227</ele>
        <time>2018-06-25T09:03:50.452Z</time>
      </trkpt>
      <trkpt lat="43.88293" lon="1.64572">
        <ele>226</ele>
        <time>2018-06-25T09:03:51.452Z</time>
      </trkpt>
      <trkpt lat="43.88313" lon="1.64431">
        <ele>228</ele>
        <time>2018-06-25T09:03:52.452Z</time>
      </trkpt>
      <trkpt lat="43.88308" lon="1.64374">
        <ele>229</ele>
        <time>2018-06-25T09:03:53.452Z</time>
      </trkpt>
      <trkpt lat="43.88258" lon="1.64219">
        <ele>223</ele>
        <time>2018-06-25T09:03:54.452Z</time>
      </trkpt>
      <trkpt lat="43.88232" lon="1.64157">
        <ele>219</ele>
        <time>2018-06-25T09:03:55.452Z</time>
      </trkpt>
      <trkpt lat="43.88173" lon="1.64063">
        <ele>219</ele>
        <time>2018-06-25T09:03:56.452Z</time>
      </trkpt>
      <trkpt lat="43.88075" lon="1.63976">
        <ele>223</ele>
        <time>2018-06-25T09:03:57.452Z</time>
      </trkpt>
      <trkpt lat="43.87998" lon="1.63879">
        <ele>230</ele>
        <time>2018-06-25T09:03:58.452Z</time>
      </trkpt>
      <trkpt lat="43.88076" lon="1.63749">
        <ele>227</ele>
        <time>2018-06-25T09:03:59.452Z</time>
      </trkpt>
      <trkpt lat="43.88086" lon="1.63696">
        <ele>228</ele>
        <time>2018-06-25T09:04:00.452Z</time>
      </trkpt>
      <trkpt lat="43.88078" lon="1.63464">
        <ele>222</ele>
        <time>2018-06-25T09:04:01.452Z</time>
      </trkpt>
      <trkpt lat="43.88033" lon="1.631">
        <ele>219</ele>
        <time>2018-06-25T09:04:02.452Z</time>
      </trkpt>
      <trkpt lat="43.88006" lon="1.63021">
        <ele>221</ele>
        <time>2018-06-25T09:04:03.452Z</time>
      </trkpt>
      <trkpt lat="43.87874" lon="1.6284">
        <ele>213</ele>
        <time>2018-06-25T09:04:04.452Z</time>
      </trkpt>
      <trkpt lat="43.87865" lon="1.62813">
        <ele>211</ele>
        <time>2018-06-25T09:04:05.452Z</time>
      </trkpt>
      <trkpt lat="43.87858" lon="1.62697">
        <ele>204</ele>
        <time>2018-06-25T09:04:06.452Z</time>
      </trkpt>
      <trkpt lat="43.87902" lon="1.62538">
        <ele>198</ele>
        <time>2018-06-25T09:04:07.452Z</time>
      </trkpt>
      <trkpt lat="43.88012" lon="1.62342">
        <ele>180</ele>
        <time>2018-06-25T09:04:08.452Z</time>
      </trkpt>
      <trkpt lat="43.8801" lon="1.62323">
        <ele>178</ele>
        <time>2018-06-25T09:04:09.452Z</time>
      </trkpt>
      <trkpt lat="43.8798" lon="1.62303">
        <ele>175</ele>
        <time>2018-06-25T09:04:10.452Z</time>
      </trkpt>
      <trkpt lat="43.87932" lon="1.6231">
        <ele>176</ele>
        <time>2018-06-25T09:04:11.452Z</time>
      </trkpt>
      <trkpt lat="43.87866" lon="1.62357">
        <ele>176</ele>
        <time>2018-06-25T09:04:12.452Z</time>
      </trkpt>
      <trkpt lat="43.878" lon="1.62347">
        <ele>165</ele>
        <time>2018-06-25T09:04:13.452Z</time>
      </trkpt>
      <trkpt lat="43.87729" lon="1.62356">
        <ele>157</ele>
        <time>2018-06-25T09:04:14.452Z</time>
      </trkpt>
      <trkpt lat="43.8772" lon="1.6235">
        <ele>156</ele>
        <time>2018-06-25T09:04:15.452Z</time>
      </trkpt>
      <trkpt lat="43.87671" lon="1.62162">
        <ele>146</ele>
        <time>2018-06-25T09:04:16.452Z</time>
      </trkpt>
      <trkpt lat="43.87677" lon="1.62143">
        <ele>146</ele>
        <time>2018-06-25T09:04:17.452Z</time>
      </trkpt>
      <trkpt lat="43.87751" lon="1.62102">
        <ele>152</ele>
        <time>2018-06-25T09:04:18.452Z</time>
      </trkpt>
      <trkpt lat="43.8778" lon="1.62032">
        <ele>154</ele>
        <time>2018-06-25T09:04:19.452Z</time>
      </trkpt>
      <trkpt lat="43.87769" lon="1.61943">
        <ele>159</ele>
        <time>2018-06-25T09:04:20.452Z</time>
      </trkpt>
      <trkpt lat="43.87773" lon="1.61913">
        <ele>160</ele>
        <time>2018-06-25T09:04:21.452Z</time>
      </trkpt>
      <trkpt lat="43.87826" lon="1.61912">
        <ele>158</ele>
        <time>2018-06-25T09:04:22.452Z</time>
      </trkpt>
      <trkpt lat="43.87862" lon="1.61937">
        <ele>160</ele>
        <time>2018-06-25T09:04:23.452Z</time>
      </trkpt>
      <trkpt lat="43.87878" lon="1.61979">
        <ele>159</ele>
        <time>2018-06-25T09:04:24.452Z</time>
      </trkpt>
      <trkpt lat="43.87886" lon="1.61977">
        <ele>160</ele>
        <time>2018-06-25T09:04:25.452Z</time>
      </trkpt>
      <trkpt lat="43.87898" lon="1.61932">
        <ele>164</ele>
        <time>2018-06-25T09:04:26.452Z</time>
      </trkpt>
      <trkpt lat="43.87929" lon="1.61893">
        <ele>167</ele>
        <time>2018-06-25T09:04:27.452Z</time>
      </trkpt>
      <trkpt lat="43.87957" lon="1.61893">
        <ele>171</ele>
        <time>2018-06-25T09:04:28.452Z</time>
      </trkpt>
      <trkpt lat="43.88108" lon="1.61817">
        <ele>193</ele>
        <time>2018-06-25T09:04:29.452Z</time>
      </trkpt>
      <trkpt lat="43.88192" lon="1.61794">
        <ele>201</ele>
        <time>2018-06-25T09:04:30.452Z</time>
      </trkpt>
      <trkpt lat="43.88243" lon="1.6177">
        <ele>205</ele>
        <time>2018-06-25T09:04:31.452Z</time>
      </trkpt>
      <trkpt lat="43.88293" lon="1.61789">
        <ele>211</ele>
        <time>2018-06-25T09:04:32.452Z</time>
      </trkpt>
      <trkpt lat="43.88421" lon="1.61668">
        <ele>223</ele>
        <time>2018-06-25T09:04:33.452Z</time>
      </trkpt>
      <trkpt lat="43.88503" lon="1.61558">
        <ele>220</ele>
        <time>2018-06-25T09:04:34.452Z</time>
      </trkpt>
      <trkpt lat="43.88613" lon="1.6146">
        <ele>220</ele>
        <time>2018-06-25T09:04:35.452Z</time>
      </trkpt>
      <trkpt lat="43.88716" lon="1.61324">
        <ele>221</ele>
        <time>2018-06-25T09:04:36.452Z</time>
      </trkpt>
      <trkpt lat="43.88718" lon="1.613">
        <ele>221</ele>
        <time>2018-06-25T09:04:37.452Z</time>
      </trkpt>
      <trkpt lat="43.88682" lon="1.61236">
        <ele>225</ele>
        <time>2018-06-25T09:04:38.452Z</time>
      </trkpt>
      <trkpt lat="43.88535" lon="1.61117">
        <ele>223</ele>
        <time>2018-06-25T09:04:39.452Z</time>
      </trkpt>
      <trkpt lat="43.88399" lon="1.61074">
        <ele>223</ele>
        <time>2018-06-25T09:04:40.452Z</time>
      </trkpt>
      <trkpt lat="43.88272" lon="1.61016">
        <ele>223</ele>
        <time>2018-06-25T09:04:41.452Z</time>
      </trkpt>
      <trkpt lat="43.88253" lon="1.60987">
        <ele>223</ele>
        <time>2018-06-25T09:04:42.452Z</time>
      </trkpt>
      <trkpt lat="43.88244" lon="1.60945">
        <ele>221</ele>
        <time>2018-06-25T09:04:43.452Z</time>
      </trkpt>
      <trkpt lat="43.88257" lon="1.60878">
        <ele>218</ele>
        <time>2018-06-25T09:04:44.452Z</time>
      </trkpt>
      <trkpt lat="43.88305" lon="1.60768">
        <ele>215</ele>
        <time>2018-06-25T09:04:45.452Z</time>
      </trkpt>
      <trkpt lat="43.88372" lon="1.60648">
        <ele>215</ele>
        <time>2018-06-25T09:04:46.452Z</time>
      </trkpt>
      <trkpt lat="43.8848" lon="1.60395">
        <ele>215</ele>
        <time>2018-06-25T09:04:47.452Z</time>
      </trkpt>
      <trkpt lat="43.88519" lon="1.60237">
        <ele>213</ele>
        <time>2018-06-25T09:04:48.452Z</time>
      </trkpt>
      <trkpt lat="43.8852" lon="1.60182">
        <ele>217</ele>
        <time>2018-06-25T09:04:49.452Z</time>
      </trkpt>
      <trkpt lat="43.88466" lon="1.60027">
        <ele>221</ele>
        <time>2018-06-25T09:04:50.452Z</time>
      </trkpt>
      <trkpt lat="43.88413" lon="1.59695">
        <ele>214</ele>
        <time>2018-06-25T09:04:51.452Z</time>
      </trkpt>
      <trkpt lat="43.88389" lon="1.59587">
        <ele>209</ele>
        <time>2018-06-25T09:04:52.452Z</time>
      </trkpt>
      <trkpt lat="43.88349" lon="1.59476">
        <ele>211</ele>
        <time>2018-06-25T09:04:53.452Z</time>
      </trkpt>
      <trkpt lat="43.88307" lon="1.59414">
        <ele>212</ele>
        <time>2018-06-25T09:04:54.452Z</time>
      </trkpt>
      <trkpt lat="43.88254" lon="1.59266">
        <ele>213</ele>
        <time>2018-06-25T09:04:55.452Z</time>
      </trkpt>
      <trkpt lat="43.88227" lon="1.59213">
        <ele>213</ele>
        <time>2018-06-25T09:04:56.452Z</time>
      </trkpt>
      <trkpt lat="43.88024" lon="1.59152">
        <ele>206</ele>
        <time>2018-06-25T09:04:57.452Z</time>
      </trkpt>
      <trkpt lat="43.87969" lon="1.59173">
        <ele>204</ele>
        <time>2018-06-25T09:04:58.452Z</time>
      </trkpt>
      <trkpt lat="43.87859" lon="1.59167">
        <ele>202</ele>
        <time>2018-06-25T09:04:59.452Z</time>
      </trkpt>
      <trkpt lat="43.87815" lon="1.59184">
        <ele>200</ele>
        <time>2018-06-25T09:05:00.452Z</time>
      </trkpt>
      <trkpt lat="43.87615" lon="1.59314">
        <ele>181</ele>
        <time>2018-06-25T09:05:01.452Z</time>
      </trkpt>
      <trkpt lat="43.87581" lon="1.59303">
        <ele>179</ele>
        <time>2018-06-25T09:05:02.452Z</time>
      </trkpt>
      <trkpt lat="43.8754" lon="1.59199">
        <ele>174</ele>
        <time>2018-06-25T09:05:03.452Z</time>
      </trkpt>
      <trkpt lat="43.87518" lon="1.59012">
        <ele>168</ele>
        <time>2018-06-25T09:05:04.452Z</time>
      </trkpt>
      <trkpt lat="43.87507" lon="1.58989">
        <ele>166</ele>
        <time>2018-06-25T09:05:05.452Z</time>
      </trkpt>
      <trkpt lat="43.8749" lon="1.58975">
        <ele>165</ele>
        <time>2018-06-25T09:05:06.452Z</time>
      </trkpt>
      <trkpt lat="43.87328" lon="1.58955">
        <ele>149</ele>
        <time>2018-06-25T09:05:07.452Z</time>
      </trkpt>
      <trkpt lat="43.87307" lon="1.5894">
        <ele>147</ele>
        <time>2018-06-25T09:05:08.452Z</time>
      </trkpt>
      <trkpt lat="43.87295" lon="1.58912">
        <ele>146</ele>
        <time>2018-06-25T09:05:09.452Z</time>
      </trkpt>
      <trkpt lat="43.87289" lon="1.58849">
        <ele>143</ele>
        <time>2018-06-25T09:05:10.452Z</time>
      </trkpt>
      <trkpt lat="43.87298" lon="1.58789">
        <ele>141</ele>
        <time>2018-06-25T09:05:11.452Z</time>
      </trkpt>
      <trkpt lat="43.87295" lon="1.5876">
        <ele>140</ele>
        <time>2018-06-25T09:05:12.452Z</time>
      </trkpt>
      <trkpt lat="43.87284" lon="1.58734">
        <ele>140</ele>
        <time>2018-06-25T09:05:13.452Z</time>
      </trkpt>
      <trkpt lat="43.87247" lon="1.58712">
        <ele>140</ele>
        <time>2018-06-25T09:05:14.452Z</time>
      </trkpt>
      <trkpt lat="43.87162" lon="1.58742">
        <ele>137</ele>
        <time>2018-06-25T09:05:15.452Z</time>
      </trkpt>
      <trkpt lat="43.87142" lon="1.58735">
        <ele>136</ele>
        <time>2018-06-25T09:05:16.452Z</time>
      </trkpt>
      <trkpt lat="43.86947" lon="1.58485">
        <ele>133</ele>
        <time>2018-06-25T09:05:17.452Z</time>
      </trkpt>
      <trkpt lat="43.86912" lon="1.58426">
        <ele>132</ele>
        <time>2018-06-25T09:05:18.452Z</time>
      </trkpt>
      <trkpt lat="43.86852" lon="1.58375">
        <ele>135</ele>
        <time>2018-06-25T09:05:19.452Z</time>
      </trkpt>
      <trkpt lat="43.86782" lon="1.58369">
        <ele>132</ele>
        <time>2018-06-25T09:05:20.452Z</time>
      </trkpt>
      <trkpt lat="43.86764" lon="1.58349">
        <ele>132</ele>
        <time>2018-06-25T09:05:21.452Z</time>
      </trkpt>
      <trkpt lat="43.86717" lon="1.58265">
        <ele>133</ele>
        <time>2018-06-25T09:05:22.452Z</time>
      </trkpt>
      <trkpt lat="43.86607" lon="1.58115">
        <ele>128</ele>
        <time>2018-06-25T09:05:23.452Z</time>
      </trkpt>
      <trkpt lat="43.86575" lon="1.58087">
        <ele>128</ele>
        <time>2018-06-25T09:05:24.452Z</time>
      </trkpt>
      <trkpt lat="43.86446" lon="1.58041">
        <ele>127</ele>
        <time>2018-06-25T09:05:25.452Z</time>
      </trkpt>
      <trkpt lat="43.86439" lon="1.58022">
        <ele>127</ele>
        <time>2018-06-25T09:05:26.452Z</time>
      </trkpt>
      <trkpt lat="43.8643" lon="1.57899">
        <ele>130</ele>
        <time>2018-06-25T09:05:27.452Z</time>
      </trkpt>
      <trkpt lat="43.86329" lon="1.57608">
        <ele>129</ele>
        <time>2018-06-25T09:05:28.452Z</time>
      </trkpt>
      <trkpt lat="43.86284" lon="1.57383">
        <ele>129</ele>
        <time>2018-06-25T09:05:29.452Z</time>
      </trkpt>
      <trkpt lat="43.86229" lon="1.5718">
        <ele>128</ele>
        <time>2018-06-25T09:05:30.452Z</time>
      </trkpt>
      <trkpt lat="43.86205" lon="1.57123">
        <ele>128</ele>
        <time>2018-06-25T09:05:31.452Z</time>
      </trkpt>
      <trkpt lat="43.86144" lon="1.57036">
        <ele>125</ele>
        <time>2018-06-25T09:05:32.452Z</time>
      </trkpt>
      <trkpt lat="43.85974" lon="1.5673">
        <ele>124</ele>
        <time>2018-06-25T09:05:33.452Z</time>
      </trkpt>
      <trkpt lat="43.85919" lon="1.56654">
        <ele>124</ele>
        <time>2018-06-25T09:05:34.452Z</time>
      </trkpt>
      <trkpt lat="43.85867" lon="1.56544">
        <ele>121</ele>
        <time>2018-06-25T09:05:35.452Z</time>
      </trkpt>
      <trkpt lat="43.85843" lon="1.5645">
        <ele>121</ele>
        <time>2018-06-25T09:05:36.452Z</time>
      </trkpt>
      <trkpt lat="43.8576" lon="1.5629">
        <ele>121</ele>
        <time>2018-06-25T09:05:37.452Z</time>
      </trkpt>
      <trkpt lat="43.85724" lon="1.56168">
        <ele>120</ele>
        <time>2018-06-25T09:05:38.452Z</time>
      </trkpt>
      <trkpt lat="43.85719" lon="1.56027">
        <ele>122</ele>
        <time>2018-06-25T09:05:39.452Z</time>
      </trkpt>
      <trkpt lat="43.85693" lon="1.55896">
        <ele>122</ele>
        <time>2018-06-25T09:05:40.452Z</time>
      </trkpt>
      <trkpt lat="43.8563" lon="1.55688">
        <ele>120</ele>
        <time>2018-06-25T09:05:41.452Z</time>
      </trkpt>
      <trkpt lat="43.85598" lon="1.55557">
        <ele>117</ele>
        <time>2018-06-25T09:05:42.452Z</time>
      </trkpt>
      <trkpt lat="43.85466" lon="1.55345">
        <ele>118</ele>
        <time>2018-06-25T09:05:43.452Z</time>
      </trkpt>
      <trkpt lat="43.8522" lon="1.55076">
        <ele>114</ele>
        <time>2018-06-25T09:05:44.452Z</time>
      </trkpt>
      <trkpt lat="43.85135" lon="1.54919">
        <ele>113</ele>
        <time>2018-06-25T09:05:45.452Z</time>
      </trkpt>
      <trkpt lat="43.85087" lon="1.54773">
        <ele>118</ele>
        <time>2018-06-25T09:05:46.452Z</time>
      </trkpt>
      <trkpt lat="43.85058" lon="1.54732">
        <ele>118</ele>
        <time>2018-06-25T09:05:47.452Z</time>
      </trkpt>
      <trkpt lat="43.84952" lon="1.5467">
        <ele>112</ele>
        <time>2018-06-25T09:05:48.452Z</time>
      </trkpt>
      <trkpt lat="43.84844" lon="1.54636">
        <ele>110</ele>
        <time>2018-06-25T09:05:49.452Z</time>
      </trkpt>
      <trkpt lat="43.8467" lon="1.54563">
        <ele>111</ele>
        <time>2018-06-25T09:05:50.452Z</time>
      </trkpt>
      <trkpt lat="43.84458" lon="1.54491">
        <ele>106</ele>
        <time>2018-06-25T09:05:51.452Z</time>
      </trkpt>
      <trkpt lat="43.84361" lon="1.54397">
        <ele>106</ele>
        <time>2018-06-25T09:05:52.452Z</time>
      </trkpt>
      <trkpt lat="43.84245" lon="1.54326">
        <ele>107</ele>
        <time>2018-06-25T09:05:53.452Z</time>
      </trkpt>
      <trkpt lat="43.84155" lon="1.54237">
        <ele>106</ele>
        <time>2018-06-25T09:05:54.452Z</time>
      </trkpt>
      <trkpt lat="43.84142" lon="1.54213">
        <ele>106</ele>
        <time>2018-06-25T09:05:55.452Z</time>
      </trkpt>
      <trkpt lat="43.8413" lon="1.54117">
        <ele>106</ele>
        <time>2018-06-25T09:05:56.452Z</time>
      </trkpt>
      <trkpt lat="43.84119" lon="1.54084">
        <ele>106</ele>
        <time>2018-06-25T09:05:57.452Z</time>
      </trkpt>
      <trkpt lat="43.84005" lon="1.53935">
        <ele>109</ele>
        <time>2018-06-25T09:05:58.452Z</time>
      </trkpt>
      <trkpt lat="43.83943" lon="1.53794">
        <ele>105</ele>
        <time>2018-06-25T09:05:59.452Z</time>
      </trkpt>
      <trkpt lat="43.8395" lon="1.53772">
        <ele>105</ele>
        <time>2018-06-25T09:06:00.452Z</time>
      </trkpt>
      <trkpt lat="43.83995" lon="1.53703">
        <ele>106</ele>
        <time>2018-06-25T09:06:01.452Z</time>
      </trkpt>
      <trkpt lat="43.84006" lon="1.53702">
        <ele>106</ele>
        <time>2018-06-25T09:06:02.452Z</time>
      </trkpt>
      <trkpt lat="43.84036" lon="1.53723">
        <ele>106</ele>
        <time>2018-06-25T09:06:03.452Z</time>
      </trkpt>
      <trkpt lat="43.8409" lon="1.53656">
        <ele>104</ele>
        <time>2018-06-25T09:06:04.452Z</time>
      </trkpt>
      <trkpt lat="43.84154" lon="1.53622">
        <ele>102</ele>
        <time>2018-06-25T09:06:05.452Z</time>
      </trkpt>
      <trkpt lat="43.84177" lon="1.53576">
        <ele>102</ele>
        <time>2018-06-25T09:06:06.452Z</time>
      </trkpt>
      <trkpt lat="43.8419" lon="1.53449">
        <ele>106</ele>
        <time>2018-06-25T09:06:07.452Z</time>
      </trkpt>
      <trkpt lat="43.842" lon="1.53442">
        <ele>107</ele>
        <time>2018-06-25T09:06:08.452Z</time>
      </trkpt>
      <trkpt lat="43.84248" lon="1.53449">
        <ele>114</ele>
        <time>2018-06-25T09:06:09.452Z</time>
      </trkpt>
      <trkpt lat="43.84272" lon="1.53476">
        <ele>119</ele>
        <time>2018-06-25T09:06:10.452Z</time>
      </trkpt>
      <trkpt lat="43.84309" lon="1.53498">
        <ele>127</ele>
        <time>2018-06-25T09:06:11.452Z</time>
      </trkpt>
      <trkpt lat="43.84341" lon="1.53501">
        <ele>134</ele>
        <time>2018-06-25T09:06:12.452Z</time>
      </trkpt>
      <trkpt lat="43.84348" lon="1.53493">
        <ele>136</ele>
        <time>2018-06-25T09:06:13.452Z</time>
      </trkpt>
      <trkpt lat="43.84341" lon="1.53466">
        <ele>139</ele>
        <time>2018-06-25T09:06:14.452Z</time>
      </trkpt>
      <trkpt lat="43.84367" lon="1.53326">
        <ele>153</ele>
        <time>2018-06-25T09:06:15.452Z</time>
      </trkpt>
      <trkpt lat="43.8439" lon="1.5324">
        <ele>161</ele>
        <time>2018-06-25T09:06:16.452Z</time>
      </trkpt>
      <trkpt lat="43.84432" lon="1.53142">
        <ele>166</ele>
        <time>2018-06-25T09:06:17.452Z</time>
      </trkpt>
      <trkpt lat="43.84497" lon="1.53033">
        <ele>170</ele>
        <time>2018-06-25T09:06:18.452Z</time>
      </trkpt>
      <trkpt lat="43.84524" lon="1.52926">
        <ele>172</ele>
        <time>2018-06-25T09:06:19.452Z</time>
      </trkpt>
      <trkpt lat="43.84569" lon="1.52831">
        <ele>176</ele>
        <time>2018-06-25T09:06:20.452Z</time>
      </trkpt>
      <trkpt lat="43.84602" lon="1.52677">
        <ele>182</ele>
        <time>2018-06-25T09:06:21.452Z</time>
      </trkpt>
      <trkpt lat="43.84642" lon="1.52596">
        <ele>184</ele>
        <time>2018-06-25T09:06:22.452Z</time>
      </trkpt>
      <trkpt lat="43.84666" lon="1.52525">
        <ele>185</ele>
        <time>2018-06-25T09:06:23.452Z</time>
      </trkpt>
      <trkpt lat="43.84756" lon="1.52427">
        <ele>184</ele>
        <time>2018-06-25T09:06:24.452Z</time>
      </trkpt>
      <trkpt lat="43.8491" lon="1.5222">
        <ele>188</ele>
        <time>2018-06-25T09:06:25.452Z</time>
      </trkpt>
      <trkpt lat="43.84999" lon="1.52171">
        <ele>189</ele>
        <time>2018-06-25T09:06:26.452Z</time>
      </trkpt>
      <trkpt lat="43.85023" lon="1.52169">
        <ele>189</ele>
        <time>2018-06-25T09:06:27.452Z</time>
      </trkpt>
      <trkpt lat="43.85162" lon="1.522">
        <ele>194</ele>
        <time>2018-06-25T09:06:28.452Z</time>
      </trkpt>
      <trkpt lat="43.8523" lon="1.52235">
        <ele>197</ele>
        <time>2018-06-25T09:06:29.452Z</time>
      </trkpt>
      <trkpt lat="43.85318" lon="1.52317">
        <ele>198</ele>
        <time>2018-06-25T09:06:30.452Z</time>
      </trkpt>
      <trkpt lat="43.8538" lon="1.52116">
        <ele>192</ele>
        <time>2018-06-25T09:06:31.452Z</time>
      </trkpt>
      <trkpt lat="43.85491" lon="1.51886">
        <ele>186</ele>
        <time>2018-06-25T09:06:32.452Z</time>
      </trkpt>
      <trkpt lat="43.85577" lon="1.5175">
        <ele>185</ele>
        <time>2018-06-25T09:06:33.452Z</time>
      </trkpt>
      <trkpt lat="43.85611" lon="1.51623">
        <ele>185</ele>
        <time>2018-06-25T09:06:34.452Z</time>
      </trkpt>
      <trkpt lat="43.85667" lon="1.51492">
        <ele>184</ele>
        <time>2018-06-25T09:06:35.452Z</time>
      </trkpt>
      <trkpt lat="43.85704" lon="1.51455">
        <ele>176</ele>
        <time>2018-06-25T09:06:36.452Z</time>
      </trkpt>
      <trkpt lat="43.85808" lon="1.5142">
        <ele>174</ele>
        <time>2018-06-25T09:06:37.452Z</time>
      </trkpt>
      <trkpt lat="43.859" lon="1.51328">
        <ele>172</ele>
        <time>2018-06-25T09:06:38.452Z</time>
      </trkpt>
      <trkpt lat="43.85995" lon="1.51206">
        <ele>164</ele>
        <time>2018-06-25T09:06:39.452Z</time>
      </trkpt>
      <trkpt lat="43.86047" lon="1.51159">
        <ele>160</ele>
        <time>2018-06-25T09:06:40.452Z</time>
      </trkpt>
      <trkpt lat="43.86132" lon="1.51048">
        <ele>147</ele>
        <time>2018-06-25T09:06:41.452Z</time>
      </trkpt>
      <trkpt lat="43.86166" lon="1.51019">
        <ele>145</ele>
        <time>2018-06-25T09:06:42.452Z</time>
      </trkpt>
      <trkpt lat="43.86199" lon="1.50963">
        <ele>134</ele>
        <time>2018-06-25T09:06:43.452Z</time>
      </trkpt>
      <trkpt lat="43.86357" lon="1.50813">
        <ele>121</ele>
        <time>2018-06-25T09:06:44.452Z</time>
      </trkpt>
      <trkpt lat="43.86383" lon="1.5076">
        <ele>114</ele>
        <time>2018-06-25T09:06:45.452Z</time>
      </trkpt>
      <trkpt lat="43.86392" lon="1.50706">
        <ele>108</ele>
        <time>2018-06-25T09:06:46.452Z</time>
      </trkpt>
      <trkpt lat="43.86391" lon="1.50666">
        <ele>104</ele>
        <time>2018-06-25T09:06:47.452Z</time>
      </trkpt>
      <trkpt lat="43.86397" lon="1.50648">
        <ele>104</ele>
        <time>2018-06-25T09:06:48.452Z</time>
      </trkpt>
      <trkpt lat="43.86355" lon="1.50561">
        <ele>98</ele>
        <time>2018-06-25T09:06:49.452Z</time>
      </trkpt>
      <trkpt lat="43.86354" lon="1.50565">
        <ele>98</ele>
        <time>2018-06-25T09:06:50.452Z</time>
      </trkpt>
      <trkpt lat="43.86352" lon="1.50563">
        <ele>97</ele>
        <time>2018-06-25T09:06:51.452Z</time>
      </trkpt>
      <trkpt lat="43.8634" lon="1.50572">
        <ele>97</ele>
        <time>2018-06-25T09:06:52.452Z</time>
      </trkpt>
      <trkpt lat="43.86334" lon="1.5057">
        <ele>96</ele>
        <time>2018-06-25T09:06:53.452Z</time>
      </trkpt>
      <trkpt lat="43.86332" lon="1.50555">
        <ele>96</ele>
        <time>2018-06-25T09:06:54.452Z</time>
      </trkpt>
      <trkpt lat="43.86334" lon="1.50549">
        <ele>95</ele>
        <time>2018-06-25T09:06:55.452Z</time>
      </trkpt>
      <trkpt lat="43.86346" lon="1.50536">
        <ele>96</ele>
        <time>2018-06-25T09:06:56.452Z</time>
      </trkpt>
      <trkpt lat="43.86371" lon="1.50507">
        <ele>96</ele>
        <time>2018-06-25T09:06:57.452Z</time>
      </trkpt>
      <trkpt lat="43.86391" lon="1.50486">
        <ele>97</ele>
        <time>2018-06-25T09:06:58.452Z</time>
      </trkpt>
      <trkpt lat="43.86414" lon="1.50462">
        <ele>97</ele>
        <time>2018-06-25T09:06:59.452Z</time>
      </trkpt>
      <trkpt lat="43.86447" lon="1.50434">
        <ele>97</ele>
        <time>2018-06-25T09:07:00.452Z</time>
      </trkpt>
      <trkpt lat="43.86515" lon="1.50373">
        <ele>98</ele>
        <time>2018-06-25T09:07:01.452Z</time>
      </trkpt>
      <trkpt lat="43.86557" lon="1.50326">
        <ele>97</ele>
        <time>2018-06-25T09:07:02.452Z</time>
      </trkpt>
      <trkpt lat="43.8674" lon="1.50163">
        <ele>94</ele>
        <time>2018-06-25T09:07:03.452Z</time>
      </trkpt>
      <trkpt lat="43.86803" lon="1.50081">
        <ele>90</ele>
        <time>2018-06-25T09:07:04.452Z</time>
      </trkpt>
      <trkpt lat="43.86802" lon="1.50063">
        <ele>89</ele>
        <time>2018-06-25T09:07:05.452Z</time>
      </trkpt>
      <trkpt lat="43.86705" lon="1.49815">
        <ele>99</ele>
        <time>2018-06-25T09:07:06.452Z</time>
      </trkpt>
      <trkpt lat="43.86703" lon="1.49775">
        <ele>100</ele>
        <time>2018-06-25T09:07:07.452Z</time>
      </trkpt>
      <trkpt lat="43.8668" lon="1.49746">
        <ele>100</ele>
        <time>2018-06-25T09:07:08.452Z</time>
      </trkpt>
      <trkpt lat="43.86654" lon="1.49679">
        <ele>100</ele>
        <time>2018-06-25T09:07:09.452Z</time>
      </trkpt>
      <trkpt lat="43.8607" lon="1.4859">
        <ele>99</ele>
        <time>2018-06-25T09:07:10.452Z</time>
      </trkpt>
      <trkpt lat="43.85968" lon="1.48326">
        <ele>105</ele>
        <time>2018-06-25T09:07:11.452Z</time>
      </trkpt>
      <trkpt lat="43.85962" lon="1.48286">
        <ele>106</ele>
        <time>2018-06-25T09:07:12.452Z</time>
      </trkpt>
      <trkpt lat="43.85958" lon="1.48288">
        <ele>106</ele>
        <time>2018-06-25T09:07:13.452Z</time>
      </trkpt>
      <trkpt lat="43.85955" lon="1.4828">
        <ele>106</ele>
        <time>2018-06-25T09:07:14.452Z</time>
      </trkpt>
      <trkpt lat="43.85948" lon="1.48278">
        <ele>106</ele>
        <time>2018-06-25T09:07:15.452Z</time>
      </trkpt>
      <trkpt lat="43.85944" lon="1.4828">
        <ele>106</ele>
        <time>2018-06-25T09:07:16.452Z</time>
      </trkpt>
      <trkpt lat="43.85933" lon="1.48261">
        <ele>106</ele>
        <time>2018-06-25T09:07:17.452Z</time>
      </trkpt>
      <trkpt lat="43.85961" lon="1.48234">
        <ele>106</ele>
        <time>2018-06-25T09:07:18.452Z</time>
      </trkpt>
      <trkpt lat="43.85953" lon="1.4821">
        <ele>106</ele>
        <time>2018-06-25T09:07:19.452Z</time>
      </trkpt>
      <trkpt lat="43.85954" lon="1.48211">
        <ele>106</ele>
        <time>2018-06-25T09:07:20.452Z</time>
      </trkpt>
      <trkpt lat="43.85962" lon="1.48235">
        <ele>106</ele>
        <time>2018-06-25T09:07:21.452Z</time>
      </trkpt>
      <trkpt lat="43.85944" lon="1.48252">
        <ele>106</ele>
        <time>2018-06-25T09:07:22.452Z</time>
      </trkpt>
      <trkpt lat="43.85944" lon="1.48252">
        <ele>106</ele>
        <time>2018-06-25T09:07:23.452Z</time>
      </trkpt>
      <trkpt lat="43.85962" lon="1.48235">
        <ele>106</ele>
        <time>2018-06-25T09:07:24.452Z</time>
      </trkpt>
      <trkpt lat="43.85953" lon="1.48206">
        <ele>106</ele>
        <time>2018-06-25T09:07:25.452Z</time>
      </trkpt>
      <trkpt lat="43.85944" lon="1.48118">
        <ele>106</ele>
        <time>2018-06-25T09:07:26.452Z</time>
      </trkpt>
      <trkpt lat="43.859" lon="1.47909">
        <ele>106</ele>
        <time>2018-06-25T09:07:27.452Z</time>
      </trkpt>
      <trkpt lat="43.85834" lon="1.47546">
        <ele>105</ele>
        <time>2018-06-25T09:07:28.452Z</time>
      </trkpt>
      <trkpt lat="43.858" lon="1.47436">
        <ele>105</ele>
        <time>2018-06-25T09:07:29.452Z</time>
      </trkpt>
      <trkpt lat="43.85773" lon="1.47377">
        <ele>105</ele>
        <time>2018-06-25T09:07:30.452Z</time>
      </trkpt>
      <trkpt lat="43.85689" lon="1.47233">
        <ele>105</ele>
        <time>2018-06-25T09:07:31.452Z</time>
      </trkpt>
      <trkpt lat="43.85616" lon="1.47071">
        <ele>103</ele>
        <time>2018-06-25T09:07:32.452Z</time>
      </trkpt>
      <trkpt lat="43.85565" lon="1.46898">
        <ele>104</ele>
        <time>2018-06-25T09:07:33.452Z</time>
      </trkpt>
      <trkpt lat="43.85389" lon="1.46639">
        <ele>102</ele>
        <time>2018-06-25T09:07:34.452Z</time>
      </trkpt>
      <trkpt lat="43.85308" lon="1.46559">
        <ele>104</ele>
        <time>2018-06-25T09:07:35.452Z</time>
      </trkpt>
      <trkpt lat="43.85129" lon="1.46234">
        <ele>105</ele>
        <time>2018-06-25T09:07:36.452Z</time>
      </trkpt>
      <trkpt lat="43.85019" lon="1.46077">
        <ele>110</ele>
        <time>2018-06-25T09:07:37.452Z</time>
      </trkpt>
      <trkpt lat="43.85058" lon="1.4606">
        <ele>109</ele>
        <time>2018-06-25T09:07:38.452Z</time>
      </trkpt>
      <trkpt lat="43.85065" lon="1.46042">
        <ele>109</ele>
        <time>2018-06-25T09:07:39.452Z</time>
      </trkpt>
      <trkpt lat="43.85059" lon="1.46022">
        <ele>109</ele>
        <time>2018-06-25T09:07:40.452Z</time>
      </trkpt>
      <trkpt lat="43.84826" lon="1.45673">
        <ele>111</ele>
        <time>2018-06-25T09:07:41.452Z</time>
      </trkpt>
      <trkpt lat="43.84687" lon="1.45401">
        <ele>115</ele>
        <time>2018-06-25T09:07:42.452Z</time>
      </trkpt>
      <trkpt lat="43.84505" lon="1.45253">
        <ele>116</ele>
        <time>2018-06-25T09:07:43.452Z</time>
      </trkpt>
      <trkpt lat="43.8446" lon="1.45197">
        <ele>116</ele>
        <time>2018-06-25T09:07:44.452Z</time>
      </trkpt>
      <trkpt lat="43.84463" lon="1.45128">
        <ele>115</ele>
        <time>2018-06-25T09:07:45.452Z</time>
      </trkpt>
      <trkpt lat="43.84392" lon="1.4501">
        <ele>115</ele>
        <time>2018-06-25T09:07:46.452Z</time>
      </trkpt>
      <trkpt lat="43.84414" lon="1.44944">
        <ele>116</ele>
        <time>2018-06-25T09:07:47.452Z</time>
      </trkpt>
      <trkpt lat="43.84256" lon="1.44766">
        <ele>115</ele>
        <time>2018-06-25T09:07:48.452Z</time>
      </trkpt>
      <trkpt lat="43.83971" lon="1.44268">
        <ele>118</ele>
        <time>2018-06-25T09:07:49.452Z</time>
      </trkpt>
      <trkpt lat="43.83852" lon="1.44078">
        <ele>119</ele>
        <time>2018-06-25T09:07:50.452Z</time>
      </trkpt>
      <trkpt lat="43.83851" lon="1.44062">
        <ele>119</ele>
        <time>2018-06-25T09:07:51.452Z</time>
      </trkpt>
      <trkpt lat="43.83955" lon="1.43955">
        <ele>117</ele>
        <time>2018-06-25T09:07:52.452Z</time>
      </trkpt>
      <trkpt lat="43.84239" lon="1.43254">
        <ele>117</ele>
        <time>2018-06-25T09:07:53.452Z</time>
      </trkpt>
      <trkpt lat="43.84064" lon="1.43061">
        <ele>120</ele>
        <time>2018-06-25T09:07:54.452Z</time>
      </trkpt>
      <trkpt lat="43.84021" lon="1.43027">
        <ele>121</ele>
        <time>2018-06-25T09:07:55.452Z</time>
      </trkpt>
      <trkpt lat="43.83913" lon="1.42972">
        <ele>122</ele>
        <time>2018-06-25T09:07:56.452Z</time>
      </trkpt>
      <trkpt lat="43.83775" lon="1.42792">
        <ele>129</ele>
        <time>2018-06-25T09:07:57.452Z</time>
      </trkpt>
      <trkpt lat="43.83669" lon="1.42783">
        <ele>132</ele>
        <time>2018-06-25T09:07:58.452Z</time>
      </trkpt>
      <trkpt lat="43.83573" lon="1.42788">
        <ele>140</ele>
        <time>2018-06-25T09:07:59.452Z</time>
      </trkpt>
      <trkpt lat="43.8352" lon="1.428">
        <ele>143</ele>
        <time>2018-06-25T09:08:00.452Z</time>
      </trkpt>
      <trkpt lat="43.83405" lon="1.42857">
        <ele>142</ele>
        <time>2018-06-25T09:08:01.452Z</time>
      </trkpt>
      <trkpt lat="43.83221" lon="1.42925">
        <ele>143</ele>
        <time>2018-06-25T09:08:02.452Z</time>
      </trkpt>
      <trkpt lat="43.8327" lon="1.42719">
        <ele>147</ele>
        <time>2018-06-25T09:08:03.452Z</time>
      </trkpt>
      <trkpt lat="43.83325" lon="1.42552">
        <ele>151</ele>
        <time>2018-06-25T09:08:04.452Z</time>
      </trkpt>
      <trkpt lat="43.83344" lon="1.42537">
        <ele>151</ele>
        <time>2018-06-25T09:08:05.452Z</time>
      </trkpt>
      <trkpt lat="43.83399" lon="1.42438">
        <ele>150</ele>
        <time>2018-06-25T09:08:06.452Z</time>
      </trkpt>
      <trkpt lat="43.83419" lon="1.4239">
        <ele>151</ele>
        <time>2018-06-25T09:08:07.452Z</time>
      </trkpt>
      <trkpt lat="43.8343" lon="1.42336">
        <ele>153</ele>
        <time>2018-06-25T09:08:08.452Z</time>
      </trkpt>
      <trkpt lat="43.83494" lon="1.42204">
        <ele>152</ele>
        <time>2018-06-25T09:08:09.452Z</time>
      </trkpt>
      <trkpt lat="43.83521" lon="1.42189">
        <ele>151</ele>
        <time>2018-06-25T09:08:10.452Z</time>
      </trkpt>
      <trkpt lat="43.8358" lon="1.42127">
        <ele>149</ele>
        <time>2018-06-25T09:08:11.452Z</time>
      </trkpt>
      <trkpt lat="43.83656" lon="1.42086">
        <ele>147</ele>
        <time>2018-06-25T09:08:12.452Z</time>
      </trkpt>
      <trkpt lat="43.83681" lon="1.4204">
        <ele>148</ele>
        <time>2018-06-25T09:08:13.452Z</time>
      </trkpt>
      <trkpt lat="43.83689" lon="1.41972">
        <ele>148</ele>
        <time>2018-06-25T09:08:14.452Z</time>
      </trkpt>
      <trkpt lat="43.83712" lon="1.4192">
        <ele>148</ele>
        <time>2018-06-25T09:08:15.452Z</time>
      </trkpt>
      <trkpt lat="43.83807" lon="1.4181">
        <ele>149</ele>
        <time>2018-06-25T09:08:16.452Z</time>
      </trkpt>
      <trkpt lat="43.83873" lon="1.41719">
        <ele>149</ele>
        <time>2018-06-25T09:08:17.452Z</time>
      </trkpt>
      <trkpt lat="43.83889" lon="1.41649">
        <ele>149</ele>
        <time>2018-06-25T09:08:18.452Z</time>
      </trkpt>
      <trkpt lat="43.83907" lon="1.41607">
        <ele>149</ele>
        <time>2018-06-25T09:08:19.452Z</time>
      </trkpt>
      <trkpt lat="43.83978" lon="1.41525">
        <ele>150</ele>
        <time>2018-06-25T09:08:20.452Z</time>
      </trkpt>
      <trkpt lat="43.83932" lon="1.41442">
        <ele>149</ele>
        <time>2018-06-25T09:08:21.452Z</time>
      </trkpt>
      <trkpt lat="43.83963" lon="1.41401">
        <ele>150</ele>
        <time>2018-06-25T09:08:22.452Z</time>
      </trkpt>
      <trkpt lat="43.84009" lon="1.41309">
        <ele>149</ele>
        <time>2018-06-25T09:08:23.452Z</time>
      </trkpt>
      <trkpt lat="43.83968" lon="1.4125">
        <ele>148</ele>
        <time>2018-06-25T09:08:24.452Z</time>
      </trkpt>
      <trkpt lat="43.83767" lon="1.41074">
        <ele>150</ele>
        <time>2018-06-25T09:08:25.452Z</time>
      </trkpt>
      <trkpt lat="43.83687" lon="1.40945">
        <ele>149</ele>
        <time>2018-06-25T09:08:26.452Z</time>
      </trkpt>
      <trkpt lat="43.83591" lon="1.40749">
        <ele>150</ele>
        <time>2018-06-25T09:08:27.452Z</time>
      </trkpt>
      <trkpt lat="43.83637" lon="1.40621">
        <ele>151</ele>
        <time>2018-06-25T09:08:28.452Z</time>
      </trkpt>
      <trkpt lat="43.83832" lon="1.40189">
        <ele>152</ele>
        <time>2018-06-25T09:08:29.452Z</time>
      </trkpt>
      <trkpt lat="43.83885" lon="1.40051">
        <ele>151</ele>
        <time>2018-06-25T09:08:30.452Z</time>
      </trkpt>
      <trkpt lat="43.83969" lon="1.39864">
        <ele>150</ele>
        <time>2018-06-25T09:08:31.452Z</time>
      </trkpt>
      <trkpt lat="43.84016" lon="1.39783">
        <ele>150</ele>
        <time>2018-06-25T09:08:32.452Z</time>
      </trkpt>
      <trkpt lat="43.8417" lon="1.39572">
        <ele>149</ele>
        <time>2018-06-25T09:08:33.452Z</time>
      </trkpt>
      <trkpt lat="43.84174" lon="1.39555">
        <ele>149</ele>
        <time>2018-06-25T09:08:34.452Z</time>
      </trkpt>
      <trkpt lat="43.84004" lon="1.39337">
        <ele>143</ele>
        <time>2018-06-25T09:08:35.452Z</time>
      </trkpt>
      <trkpt lat="43.8399" lon="1.39331">
        <ele>144</ele>
        <time>2018-06-25T09:08:36.452Z</time>
      </trkpt>
      <trkpt lat="43.83887" lon="1.39226">
        <ele>151</ele>
        <time>2018-06-25T09:08:37.452Z</time>
      </trkpt>
      <trkpt lat="43.83828" lon="1.39124">
        <ele>151</ele>
        <time>2018-06-25T09:08:38.452Z</time>
      </trkpt>
      <trkpt lat="43.8377" lon="1.3892">
        <ele>152</ele>
        <time>2018-06-25T09:08:39.452Z</time>
      </trkpt>
      <trkpt lat="43.83756" lon="1.38897">
        <ele>152</ele>
        <time>2018-06-25T09:08:40.452Z</time>
      </trkpt>
      <trkpt lat="43.83725" lon="1.38885">
        <ele>151</ele>
        <time>2018-06-25T09:08:41.452Z</time>
      </trkpt>
      <trkpt lat="43.83712" lon="1.3886">
        <ele>150</ele>
        <time>2018-06-25T09:08:42.452Z</time>
      </trkpt>
      <trkpt lat="43.83701" lon="1.38788">
        <ele>146</ele>
        <time>2018-06-25T09:08:43.452Z</time>
      </trkpt>
      <trkpt lat="43.83611" lon="1.38638">
        <ele>134</ele>
        <time>2018-06-25T09:08:44.452Z</time>
      </trkpt>
      <trkpt lat="43.83558" lon="1.3846">
        <ele>140</ele>
        <time>2018-06-25T09:08:45.452Z</time>
      </trkpt>
      <trkpt lat="43.83515" lon="1.38219">
        <ele>144</ele>
        <time>2018-06-25T09:08:46.452Z</time>
      </trkpt>
      <trkpt lat="43.83505" lon="1.38192">
        <ele>145</ele>
        <time>2018-06-25T09:08:47.452Z</time>
      </trkpt>
      <trkpt lat="43.8343" lon="1.38108">
        <ele>152</ele>
        <time>2018-06-25T09:08:48.452Z</time>
      </trkpt>
      <trkpt lat="43.83381" lon="1.38041">
        <ele>155</ele>
        <time>2018-06-25T09:08:49.452Z</time>
      </trkpt>
      <trkpt lat="43.83299" lon="1.37949">
        <ele>157</ele>
        <time>2018-06-25T09:08:50.452Z</time>
      </trkpt>
      <trkpt lat="43.8324" lon="1.37908">
        <ele>156</ele>
        <time>2018-06-25T09:08:51.452Z</time>
      </trkpt>
      <trkpt lat="43.83182" lon="1.37834">
        <ele>156</ele>
        <time>2018-06-25T09:08:52.452Z</time>
      </trkpt>
      <trkpt lat="43.82918" lon="1.37541">
        <ele>155</ele>
        <time>2018-06-25T09:08:53.452Z</time>
      </trkpt>
      <trkpt lat="43.82826" lon="1.37407">
        <ele>155</ele>
        <time>2018-06-25T09:08:54.452Z</time>
      </trkpt>
      <trkpt lat="43.82725" lon="1.3732">
        <ele>151</ele>
        <time>2018-06-25T09:08:55.452Z</time>
      </trkpt>
      <trkpt lat="43.82701" lon="1.37287">
        <ele>151</ele>
        <time>2018-06-25T09:08:56.452Z</time>
      </trkpt>
      <trkpt lat="43.82537" lon="1.36988">
        <ele>155</ele>
        <time>2018-06-25T09:08:57.452Z</time>
      </trkpt>
      <trkpt lat="43.82336" lon="1.36554">
        <ele>157</ele>
        <time>2018-06-25T09:08:58.452Z</time>
      </trkpt>
      <trkpt lat="43.82295" lon="1.36495">
        <ele>158</ele>
        <time>2018-06-25T09:08:59.452Z</time>
      </trkpt>
      <trkpt lat="43.82146" lon="1.36331">
        <ele>161</ele>
        <time>2018-06-25T09:09:00.452Z</time>
      </trkpt>
      <trkpt lat="43.82033" lon="1.36223">
        <ele>162</ele>
        <time>2018-06-25T09:09:01.452Z</time>
      </trkpt>
      <trkpt lat="43.81962" lon="1.36172">
        <ele>162</ele>
        <time>2018-06-25T09:09:02.452Z</time>
      </trkpt>
      <trkpt lat="43.81873" lon="1.36084">
        <ele>164</ele>
        <time>2018-06-25T09:09:03.452Z</time>
      </trkpt>
      <trkpt lat="43.81728" lon="1.35993">
        <ele>165</ele>
        <time>2018-06-25T09:09:04.452Z</time>
      </trkpt>
      <trkpt lat="43.81591" lon="1.35805">
        <ele>165</ele>
        <time>2018-06-25T09:09:05.452Z</time>
      </trkpt>
      <trkpt lat="43.81352" lon="1.35511">
        <ele>174</ele>
        <time>2018-06-25T09:09:06.452Z</time>
      </trkpt>
      <trkpt lat="43.81241" lon="1.35332">
        <ele>181</ele>
        <time>2018-06-25T09:09:07.452Z</time>
      </trkpt>
      <trkpt lat="43.81131" lon="1.35175">
        <ele>198</ele>
        <time>2018-06-25T09:09:08.452Z</time>
      </trkpt>
      <trkpt lat="43.81082" lon="1.35089">
        <ele>207</ele>
        <time>2018-06-25T09:09:09.452Z</time>
      </trkpt>
      <trkpt lat="43.81024" lon="1.35019">
        <ele>209</ele>
        <time>2018-06-25T09:09:10.452Z</time>
      </trkpt>
      <trkpt lat="43.80868" lon="1.34886">
        <ele>210</ele>
        <time>2018-06-25T09:09:11.452Z</time>
      </trkpt>
      <trkpt lat="43.80695" lon="1.34629">
        <ele>215</ele>
        <time>2018-06-25T09:09:12.452Z</time>
      </trkpt>
      <trkpt lat="43.80561" lon="1.34466">
        <ele>198</ele>
        <time>2018-06-25T09:09:13.452Z</time>
      </trkpt>
      <trkpt lat="43.80474" lon="1.34274">
        <ele>201</ele>
        <time>2018-06-25T09:09:14.452Z</time>
      </trkpt>
      <trkpt lat="43.80436" lon="1.34224">
        <ele>205</ele>
        <time>2018-06-25T09:09:15.452Z</time>
      </trkpt>
      <trkpt lat="43.80339" lon="1.34134">
        <ele>211</ele>
        <time>2018-06-25T09:09:16.452Z</time>
      </trkpt>
      <trkpt lat="43.8031" lon="1.34085">
        <ele>213</ele>
        <time>2018-06-25T09:09:17.452Z</time>
      </trkpt>
      <trkpt lat="43.80265" lon="1.33962">
        <ele>203</ele>
        <time>2018-06-25T09:09:18.452Z</time>
      </trkpt>
      <trkpt lat="43.80228" lon="1.33795">
        <ele>186</ele>
        <time>2018-06-25T09:09:19.452Z</time>
      </trkpt>
      <trkpt lat="43.8021" lon="1.33675">
        <ele>176</ele>
        <time>2018-06-25T09:09:20.452Z</time>
      </trkpt>
      <trkpt lat="43.80209" lon="1.33499">
        <ele>161</ele>
        <time>2018-06-25T09:09:21.452Z</time>
      </trkpt>
      <trkpt lat="43.80178" lon="1.33349">
        <ele>146</ele>
        <time>2018-06-25T09:09:22.452Z</time>
      </trkpt>
      <trkpt lat="43.80174" lon="1.333">
        <ele>142</ele>
        <time>2018-06-25T09:09:23.452Z</time>
      </trkpt>
      <trkpt lat="43.80181" lon="1.33212">
        <ele>137</ele>
        <time>2018-06-25T09:09:24.452Z</time>
      </trkpt>
      <trkpt lat="43.80192" lon="1.33184">
        <ele>136</ele>
        <time>2018-06-25T09:09:25.452Z</time>
      </trkpt>
      <trkpt lat="43.80249" lon="1.33118">
        <ele>133</ele>
        <time>2018-06-25T09:09:26.452Z</time>
      </trkpt>
      <trkpt lat="43.80248" lon="1.3311">
        <ele>132</ele>
        <time>2018-06-25T09:09:27.452Z</time>
      </trkpt>
      <trkpt lat="43.80177" lon="1.33093">
        <ele>127</ele>
        <time>2018-06-25T09:09:28.452Z</time>
      </trkpt>
      <trkpt lat="43.80109" lon="1.33137">
        <ele>123</ele>
        <time>2018-06-25T09:09:29.452Z</time>
      </trkpt>
      <trkpt lat="43.80007" lon="1.3311">
        <ele>115</ele>
        <time>2018-06-25T09:09:30.452Z</time>
      </trkpt>
      <trkpt lat="43.79984" lon="1.33092">
        <ele>114</ele>
        <time>2018-06-25T09:09:31.452Z</time>
      </trkpt>
      <trkpt lat="43.79895" lon="1.32973">
        <ele>110</ele>
        <time>2018-06-25T09:09:32.452Z</time>
      </trkpt>
      <trkpt lat="43.79872" lon="1.32954">
        <ele>111</ele>
        <time>2018-06-25T09:09:33.452Z</time>
      </trkpt>
      <trkpt lat="43.79825" lon="1.3298">
        <ele>110</ele>
        <time>2018-06-25T09:09:34.452Z</time>
      </trkpt>
      <trkpt lat="43.79813" lon="1.3297">
        <ele>111</ele>
        <time>2018-06-25T09:09:35.452Z</time>
      </trkpt>
      <trkpt lat="43.79784" lon="1.32915">
        <ele>110</ele>
        <time>2018-06-25T09:09:36.452Z</time>
      </trkpt>
      <trkpt lat="43.7972" lon="1.32843">
        <ele>108</ele>
        <time>2018-06-25T09:09:37.452Z</time>
      </trkpt>
      <trkpt lat="43.79663" lon="1.32745">
        <ele>108</ele>
        <time>2018-06-25T09:09:38.452Z</time>
      </trkpt>
      <trkpt lat="43.79467" lon="1.32454">
        <ele>107</ele>
        <time>2018-06-25T09:09:39.452Z</time>
      </trkpt>
      <trkpt lat="43.7932" lon="1.32259">
        <ele>108</ele>
        <time>2018-06-25T09:09:40.452Z</time>
      </trkpt>
      <trkpt lat="43.79246" lon="1.32215">
        <ele>108</ele>
        <time>2018-06-25T09:09:41.452Z</time>
      </trkpt>
      <trkpt lat="43.79089" lon="1.32168">
        <ele>108</ele>
        <time>2018-06-25T09:09:42.452Z</time>
      </trkpt>
      <trkpt lat="43.79011" lon="1.3219">
        <ele>107</ele>
        <time>2018-06-25T09:09:43.452Z</time>
      </trkpt>
      <trkpt lat="43.78847" lon="1.31817">
        <ele>108</ele>
        <time>2018-06-25T09:09:44.452Z</time>
      </trkpt>
      <trkpt lat="43.78678" lon="1.31559">
        <ele>108</ele>
        <time>2018-06-25T09:09:45.452Z</time>
      </trkpt>
      <trkpt lat="43.78603" lon="1.31478">
        <ele>107</ele>
        <time>2018-06-25T09:09:46.452Z</time>
      </trkpt>
      <trkpt lat="43.78382" lon="1.31143">
        <ele>108</ele>
        <time>2018-06-25T09:09:47.452Z</time>
      </trkpt>
      <trkpt lat="43.7831" lon="1.31014">
        <ele>107</ele>
        <time>2018-06-25T09:09:48.452Z</time>
      </trkpt>
      <trkpt lat="43.78227" lon="1.30825">
        <ele>110</ele>
        <time>2018-06-25T09:09:49.452Z</time>
      </trkpt>
      <trkpt lat="43.78086" lon="1.30866">
        <ele>109</ele>
        <time>2018-06-25T09:09:50.452Z</time>
      </trkpt>
      <trkpt lat="43.78066" lon="1.30863">
        <ele>109</ele>
        <time>2018-06-25T09:09:51.452Z</time>
      </trkpt>
      <trkpt lat="43.78054" lon="1.30816">
        <ele>108</ele>
        <time>2018-06-25T09:09:52.452Z</time>
      </trkpt>
      <trkpt lat="43.78025" lon="1.30791">
        <ele>108</ele>
        <time>2018-06-25T09:09:53.452Z</time>
      </trkpt>
      <trkpt lat="43.78011" lon="1.30749">
        <ele>108</ele>
        <time>2018-06-25T09:09:54.452Z</time>
      </trkpt>
      <trkpt lat="43.77995" lon="1.30741">
        <ele>108</ele>
        <time>2018-06-25T09:09:55.452Z</time>
      </trkpt>
      <trkpt lat="43.77964" lon="1.30751">
        <ele>108</ele>
        <time>2018-06-25T09:09:56.452Z</time>
      </trkpt>
      <trkpt lat="43.77567" lon="1.30564">
        <ele>107</ele>
        <time>2018-06-25T09:09:57.452Z</time>
      </trkpt>
      <trkpt lat="43.77507" lon="1.30528">
        <ele>106</ele>
        <time>2018-06-25T09:09:58.452Z</time>
      </trkpt>
      <trkpt lat="43.77465" lon="1.30481">
        <ele>105</ele>
        <time>2018-06-25T09:09:59.452Z</time>
      </trkpt>
      <trkpt lat="43.77397" lon="1.30331">
        <ele>106</ele>
        <time>2018-06-25T09:10:00.452Z</time>
      </trkpt>
      <trkpt lat="43.7708" lon="1.2953">
        <ele>119</ele>
        <time>2018-06-25T09:10:01.452Z</time>
      </trkpt>
      <trkpt lat="43.77072" lon="1.29536">
        <ele>119</ele>
        <time>2018-06-25T09:10:02.452Z</time>
      </trkpt>
      <trkpt lat="43.77066" lon="1.29521">
        <ele>119</ele>
        <time>2018-06-25T09:10:03.452Z</time>
      </trkpt>
      <trkpt lat="43.77151" lon="1.29452">
        <ele>120</ele>
        <time>2018-06-25T09:10:04.452Z</time>
      </trkpt>
      <trkpt lat="43.77227" lon="1.29385">
        <ele>121</ele>
        <time>2018-06-25T09:10:05.452Z</time>
      </trkpt>
      <trkpt lat="43.77316" lon="1.29312">
        <ele>119</ele>
        <time>2018-06-25T09:10:06.452Z</time>
      </trkpt>
      <trkpt lat="43.77317" lon="1.29313">
        <ele>119</ele>
        <time>2018-06-25T09:10:07.452Z</time>
      </trkpt>
      <trkpt lat="43.77347" lon="1.29287">
        <ele>118</ele>
        <time>2018-06-25T09:10:08.452Z</time>
      </trkpt>
      <trkpt lat="43.77284" lon="1.29149">
        <ele>117</ele>
        <time>2018-06-25T09:10:09.452Z</time>
      </trkpt>
      <trkpt lat="43.77285" lon="1.29149">
        <ele>117</ele>
        <time>2018-06-25T09:10:10.452Z</time>
      </trkpt>
      <trkpt lat="43.77167" lon="1.29252">
        <ele>119</ele>
        <time>2018-06-25T09:10:11.452Z</time>
      </trkpt>
      <trkpt lat="43.77174" lon="1.29267">
        <ele>120</ele>
        <time>2018-06-25T09:10:12.452Z</time>
      </trkpt>
      <trkpt lat="43.7717" lon="1.29256">
        <ele>119</ele>
        <time>2018-06-25T09:10:13.452Z</time>
      </trkpt>
      <trkpt lat="43.77046" lon="1.29363">
        <ele>119</ele>
        <time>2018-06-25T09:10:14.452Z</time>
      </trkpt>
      <trkpt lat="43.77023" lon="1.29372">
        <ele>119</ele>
        <time>2018-06-25T09:10:15.452Z</time>
      </trkpt>
      <trkpt lat="43.76957" lon="1.29225">
        <ele>117</ele>
        <time>2018-06-25T09:10:16.452Z</time>
      </trkpt>
      <trkpt lat="43.7696" lon="1.29207">
        <ele>117</ele>
        <time>2018-06-25T09:10:17.452Z</time>
      </trkpt>
      <trkpt lat="43.76948" lon="1.292">
        <ele>117</ele>
        <time>2018-06-25T09:10:18.452Z</time>
      </trkpt>
      <trkpt lat="43.76921" lon="1.2916">
        <ele>117</ele>
        <time>2018-06-25T09:10:19.452Z</time>
      </trkpt>
      <trkpt lat="43.76824" lon="1.29118">
        <ele>118</ele>
        <time>2018-06-25T09:10:20.452Z</time>
      </trkpt>
      <trkpt lat="43.76752" lon="1.29119">
        <ele>120</ele>
        <time>2018-06-25T09:10:21.452Z</time>
      </trkpt>
      <trkpt lat="43.76707" lon="1.29105">
        <ele>121</ele>
        <time>2018-06-25T09:10:22.452Z</time>
      </trkpt>
      <trkpt lat="43.76684" lon="1.29087">
        <ele>121</ele>
        <time>2018-06-25T09:10:23.452Z</time>
      </trkpt>
      <trkpt lat="43.76616" lon="1.28994">
        <ele>120</ele>
        <time>2018-06-25T09:10:24.452Z</time>
      </trkpt>
      <trkpt lat="43.76587" lon="1.28974">
        <ele>120</ele>
        <time>2018-06-25T09:10:25.452Z</time>
      </trkpt>
      <trkpt lat="43.76508" lon="1.28947">
        <ele>121</ele>
        <time>2018-06-25T09:10:26.452Z</time>
      </trkpt>
      <trkpt lat="43.76469" lon="1.28948">
        <ele>120</ele>
        <time>2018-06-25T09:10:27.452Z</time>
      </trkpt>
      <trkpt lat="43.76202" lon="1.28904">
        <ele>122</ele>
        <time>2018-06-25T09:10:28.452Z</time>
      </trkpt>
      <trkpt lat="43.75941" lon="1.28831">
        <ele>123</ele>
        <time>2018-06-25T09:10:29.452Z</time>
      </trkpt>
      <trkpt lat="43.7593" lon="1.28822">
        <ele>123</ele>
        <time>2018-06-25T09:10:30.452Z</time>
      </trkpt>
      <trkpt lat="43.75918" lon="1.28826">
        <ele>123</ele>
        <time>2018-06-25T09:10:31.452Z</time>
      </trkpt>
      <trkpt lat="43.75831" lon="1.28808">
        <ele>121</ele>
        <time>2018-06-25T09:10:32.452Z</time>
      </trkpt>
      <trkpt lat="43.75784" lon="1.28843">
        <ele>120</ele>
        <time>2018-06-25T09:10:33.452Z</time>
      </trkpt>
      <trkpt lat="43.75653" lon="1.2889">
        <ele>122</ele>
        <time>2018-06-25T09:10:34.452Z</time>
      </trkpt>
      <trkpt lat="43.7564" lon="1.2888">
        <ele>122</ele>
        <time>2018-06-25T09:10:35.452Z</time>
      </trkpt>
      <trkpt lat="43.75535" lon="1.28696">
        <ele>124</ele>
        <time>2018-06-25T09:10:36.452Z</time>
      </trkpt>
      <trkpt lat="43.75442" lon="1.28567">
        <ele>127</ele>
        <time>2018-06-25T09:10:37.452Z</time>
      </trkpt>
      <trkpt lat="43.75425" lon="1.28555">
        <ele>127</ele>
        <time>2018-06-25T09:10:38.452Z</time>
      </trkpt>
      <trkpt lat="43.75031" lon="1.28581">
        <ele>128</ele>
        <time>2018-06-25T09:10:39.452Z</time>
      </trkpt>
      <trkpt lat="43.74555" lon="1.28468">
        <ele>130</ele>
        <time>2018-06-25T09:10:40.452Z</time>
      </trkpt>
      <trkpt lat="43.74395" lon="1.28478">
        <ele>130</ele>
        <time>2018-06-25T09:10:41.452Z</time>
      </trkpt>
      <trkpt lat="43.74278" lon="1.28549">
        <ele>130</ele>
        <time>2018-06-25T09:10:42.452Z</time>
      </trkpt>
      <trkpt lat="43.74118" lon="1.28726">
        <ele>130</ele>
        <time>2018-06-25T09:10:43.452Z</time>
      </trkpt>
      <trkpt lat="43.73949" lon="1.28854">
        <ele>131</ele>
        <time>2018-06-25T09:10:44.452Z</time>
      </trkpt>
      <trkpt lat="43.73854" lon="1.28939">
        <ele>131</ele>
        <time>2018-06-25T09:10:45.452Z</time>
      </trkpt>
      <trkpt lat="43.73781" lon="1.28989">
        <ele>131</ele>
        <time>2018-06-25T09:10:46.452Z</time>
      </trkpt>
      <trkpt lat="43.73702" lon="1.29012">
        <ele>132</ele>
        <time>2018-06-25T09:10:47.452Z</time>
      </trkpt>
      <trkpt lat="43.73404" lon="1.28995">
        <ele>136</ele>
        <time>2018-06-25T09:10:48.452Z</time>
      </trkpt>
      <trkpt lat="43.73183" lon="1.29129">
        <ele>141</ele>
        <time>2018-06-25T09:10:49.452Z</time>
      </trkpt>
      <trkpt lat="43.73113" lon="1.29188">
        <ele>141</ele>
        <time>2018-06-25T09:10:50.452Z</time>
      </trkpt>
      <trkpt lat="43.72929" lon="1.29436">
        <ele>139</ele>
        <time>2018-06-25T09:10:51.452Z</time>
      </trkpt>
      <trkpt lat="43.72781" lon="1.29619">
        <ele>144</ele>
        <time>2018-06-25T09:10:52.452Z</time>
      </trkpt>
      <trkpt lat="43.7268" lon="1.29777">
        <ele>146</ele>
        <time>2018-06-25T09:10:53.452Z</time>
      </trkpt>
      <trkpt lat="43.7264" lon="1.29789">
        <ele>148</ele>
        <time>2018-06-25T09:10:54.452Z</time>
      </trkpt>
      <trkpt lat="43.72549" lon="1.29746">
        <ele>156</ele>
        <time>2018-06-25T09:10:55.452Z</time>
      </trkpt>
      <trkpt lat="43.72495" lon="1.29745">
        <ele>157</ele>
        <time>2018-06-25T09:10:56.452Z</time>
      </trkpt>
      <trkpt lat="43.72451" lon="1.29761">
        <ele>158</ele>
        <time>2018-06-25T09:10:57.452Z</time>
      </trkpt>
      <trkpt lat="43.72366" lon="1.29818">
        <ele>160</ele>
        <time>2018-06-25T09:10:58.452Z</time>
      </trkpt>
      <trkpt lat="43.72327" lon="1.29832">
        <ele>160</ele>
        <time>2018-06-25T09:10:59.452Z</time>
      </trkpt>
      <trkpt lat="43.72277" lon="1.29814">
        <ele>161</ele>
        <time>2018-06-25T09:11:00.452Z</time>
      </trkpt>
      <trkpt lat="43.72193" lon="1.29686">
        <ele>161</ele>
        <time>2018-06-25T09:11:01.452Z</time>
      </trkpt>
      <trkpt lat="43.72121" lon="1.29764">
        <ele>160</ele>
        <time>2018-06-25T09:11:02.452Z</time>
      </trkpt>
      <trkpt lat="43.7211" lon="1.29755">
        <ele>160</ele>
        <time>2018-06-25T09:11:03.452Z</time>
      </trkpt>
      <trkpt lat="43.72069" lon="1.29475">
        <ele>158</ele>
        <time>2018-06-25T09:11:04.452Z</time>
      </trkpt>
      <trkpt lat="43.72045" lon="1.29434">
        <ele>158</ele>
        <time>2018-06-25T09:11:05.452Z</time>
      </trkpt>
      <trkpt lat="43.71993" lon="1.29418">
        <ele>158</ele>
        <time>2018-06-25T09:11:06.452Z</time>
      </trkpt>
      <trkpt lat="43.71894" lon="1.29366">
        <ele>159</ele>
        <time>2018-06-25T09:11:07.452Z</time>
      </trkpt>
      <trkpt lat="43.71813" lon="1.29284">
        <ele>160</ele>
        <time>2018-06-25T09:11:08.452Z</time>
      </trkpt>
      <trkpt lat="43.71792" lon="1.29214">
        <ele>160</ele>
        <time>2018-06-25T09:11:09.452Z</time>
      </trkpt>
      <trkpt lat="43.71784" lon="1.29204">
        <ele>161</ele>
        <time>2018-06-25T09:11:10.452Z</time>
      </trkpt>
      <trkpt lat="43.71775" lon="1.29173">
        <ele>161</ele>
        <time>2018-06-25T09:11:11.452Z</time>
      </trkpt>
      <trkpt lat="43.71723" lon="1.29145">
        <ele>161</ele>
        <time>2018-06-25T09:11:12.452Z</time>
      </trkpt>
      <trkpt lat="43.71713" lon="1.29104">
        <ele>162</ele>
        <time>2018-06-25T09:11:13.452Z</time>
      </trkpt>
      <trkpt lat="43.71696" lon="1.29072">
        <ele>162</ele>
        <time>2018-06-25T09:11:14.452Z</time>
      </trkpt>
      <trkpt lat="43.71602" lon="1.28969">
        <ele>165</ele>
        <time>2018-06-25T09:11:15.452Z</time>
      </trkpt>
      <trkpt lat="43.71473" lon="1.28795">
        <ele>170</ele>
        <time>2018-06-25T09:11:16.452Z</time>
      </trkpt>
      <trkpt lat="43.71409" lon="1.28686">
        <ele>174</ele>
        <time>2018-06-25T09:11:17.452Z</time>
      </trkpt>
      <trkpt lat="43.71344" lon="1.2855">
        <ele>174</ele>
        <time>2018-06-25T09:11:18.452Z</time>
      </trkpt>
      <trkpt lat="43.71092" lon="1.28236">
        <ele>174</ele>
        <time>2018-06-25T09:11:19.452Z</time>
      </trkpt>
      <trkpt lat="43.70996" lon="1.28138">
        <ele>175</ele>
        <time>2018-06-25T09:11:20.452Z</time>
      </trkpt>
      <trkpt lat="43.70889" lon="1.28063">
        <ele>174</ele>
        <time>2018-06-25T09:11:21.452Z</time>
      </trkpt>
      <trkpt lat="43.70733" lon="1.28049">
        <ele>174</ele>
        <time>2018-06-25T09:11:22.452Z</time>
      </trkpt>
      <trkpt lat="43.70603" lon="1.28011">
        <ele>175</ele>
        <time>2018-06-25T09:11:23.452Z</time>
      </trkpt>
      <trkpt lat="43.70491" lon="1.27945">
        <ele>175</ele>
        <time>2018-06-25T09:11:24.452Z</time>
      </trkpt>
      <trkpt lat="43.70176" lon="1.27672">
        <ele>173</ele>
        <time>2018-06-25T09:11:25.452Z</time>
      </trkpt>
      <trkpt lat="43.70083" lon="1.27565">
        <ele>177</ele>
        <time>2018-06-25T09:11:26.452Z</time>
      </trkpt>
      <trkpt lat="43.69969" lon="1.27473">
        <ele>175</ele>
        <time>2018-06-25T09:11:27.452Z</time>
      </trkpt>
      <trkpt lat="43.69773" lon="1.27288">
        <ele>175</ele>
        <time>2018-06-25T09:11:28.452Z</time>
      </trkpt>
      <trkpt lat="43.69692" lon="1.2719">
        <ele>176</ele>
        <time>2018-06-25T09:11:29.452Z</time>
      </trkpt>
      <trkpt lat="43.69646" lon="1.2712">
        <ele>176</ele>
        <time>2018-06-25T09:11:30.452Z</time>
      </trkpt>
      <trkpt lat="43.69609" lon="1.27035">
        <ele>178</ele>
        <time>2018-06-25T09:11:31.452Z</time>
      </trkpt>
      <trkpt lat="43.69552" lon="1.26933">
        <ele>180</ele>
        <time>2018-06-25T09:11:32.452Z</time>
      </trkpt>
      <trkpt lat="43.69511" lon="1.26834">
        <ele>179</ele>
        <time>2018-06-25T09:11:33.452Z</time>
      </trkpt>
      <trkpt lat="43.69468" lon="1.26802">
        <ele>176</ele>
        <time>2018-06-25T09:11:34.452Z</time>
      </trkpt>
      <trkpt lat="43.69389" lon="1.26814">
        <ele>177</ele>
        <time>2018-06-25T09:11:35.452Z</time>
      </trkpt>
      <trkpt lat="43.69333" lon="1.26839">
        <ele>178</ele>
        <time>2018-06-25T09:11:36.452Z</time>
      </trkpt>
      <trkpt lat="43.69259" lon="1.26844">
        <ele>179</ele>
        <time>2018-06-25T09:11:37.452Z</time>
      </trkpt>
      <trkpt lat="43.6916" lon="1.26905">
        <ele>178</ele>
        <time>2018-06-25T09:11:38.452Z</time>
      </trkpt>
      <trkpt lat="43.69025" lon="1.27024">
        <ele>178</ele>
        <time>2018-06-25T09:11:39.452Z</time>
      </trkpt>
      <trkpt lat="43.68958" lon="1.27128">
        <ele>176</ele>
        <time>2018-06-25T09:11:40.452Z</time>
      </trkpt>
      <trkpt lat="43.68956" lon="1.27111">
        <ele>176</ele>
        <time>2018-06-25T09:11:41.452Z</time>
      </trkpt>
      <trkpt lat="43.69002" lon="1.26963">
        <ele>173</ele>
        <time>2018-06-25T09:11:42.452Z</time>
      </trkpt>
      <trkpt lat="43.69003" lon="1.26933">
        <ele>171</ele>
        <time>2018-06-25T09:11:43.452Z</time>
      </trkpt>
      <trkpt lat="43.68985" lon="1.26852">
        <ele>172</ele>
        <time>2018-06-25T09:11:44.452Z</time>
      </trkpt>
      <trkpt lat="43.68992" lon="1.26885">
        <ele>171</ele>
        <time>2018-06-25T09:11:45.452Z</time>
      </trkpt>
      <trkpt lat="43.68968" lon="1.26783">
        <ele>175</ele>
        <time>2018-06-25T09:11:46.452Z</time>
      </trkpt>
      <trkpt lat="43.68947" lon="1.26647">
        <ele>177</ele>
        <time>2018-06-25T09:11:47.452Z</time>
      </trkpt>
      <trkpt lat="43.68918" lon="1.2659">
        <ele>178</ele>
        <time>2018-06-25T09:11:48.452Z</time>
      </trkpt>
      <trkpt lat="43.68741" lon="1.26366">
        <ele>179</ele>
        <time>2018-06-25T09:11:49.452Z</time>
      </trkpt>
      <trkpt lat="43.68639" lon="1.26256">
        <ele>179</ele>
        <time>2018-06-25T09:11:50.452Z</time>
      </trkpt>
      <trkpt lat="43.68523" lon="1.26156">
        <ele>180</ele>
        <time>2018-06-25T09:11:51.452Z</time>
      </trkpt>
      <trkpt lat="43.68345" lon="1.25869">
        <ele>181</ele>
        <time>2018-06-25T09:11:52.452Z</time>
      </trkpt>
      <trkpt lat="43.68224" lon="1.25735">
        <ele>182</ele>
        <time>2018-06-25T09:11:53.452Z</time>
      </trkpt>
      <trkpt lat="43.68079" lon="1.25553">
        <ele>183</ele>
        <time>2018-06-25T09:11:54.452Z</time>
      </trkpt>
      <trkpt lat="43.67843" lon="1.25333">
        <ele>182</ele>
        <time>2018-06-25T09:11:55.452Z</time>
      </trkpt>
      <trkpt lat="43.67834" lon="1.25314">
        <ele>182</ele>
        <time>2018-06-25T09:11:56.452Z</time>
      </trkpt>
      <trkpt lat="43.67845" lon="1.25235">
        <ele>183</ele>
        <time>2018-06-25T09:11:57.452Z</time>
      </trkpt>
      <trkpt lat="43.67893" lon="1.25136">
        <ele>182</ele>
        <time>2018-06-25T09:11:58.452Z</time>
      </trkpt>
      <trkpt lat="43.67897" lon="1.25098">
        <ele>182</ele>
        <time>2018-06-25T09:11:59.452Z</time>
      </trkpt>
      <trkpt lat="43.67813" lon="1.24775">
        <ele>182</ele>
        <time>2018-06-25T09:12:00.452Z</time>
      </trkpt>
      <trkpt lat="43.67771" lon="1.24586">
        <ele>185</ele>
        <time>2018-06-25T09:12:01.452Z</time>
      </trkpt>
      <trkpt lat="43.67753" lon="1.2456">
        <ele>186</ele>
        <time>2018-06-25T09:12:02.452Z</time>
      </trkpt>
      <trkpt lat="43.67532" lon="1.24375">
        <ele>186</ele>
        <time>2018-06-25T09:12:03.452Z</time>
      </trkpt>
      <trkpt lat="43.67364" lon="1.24278">
        <ele>185</ele>
        <time>2018-06-25T09:12:04.452Z</time>
      </trkpt>
      <trkpt lat="43.67186" lon="1.24251">
        <ele>186</ele>
        <time>2018-06-25T09:12:05.452Z</time>
      </trkpt>
      <trkpt lat="43.67067" lon="1.24203">
        <ele>187</ele>
        <time>2018-06-25T09:12:06.452Z</time>
      </trkpt>
      <trkpt lat="43.66924" lon="1.24108">
        <ele>188</ele>
        <time>2018-06-25T09:12:07.452Z</time>
      </trkpt>
      <trkpt lat="43.66782" lon="1.23959">
        <ele>187</ele>
        <time>2018-06-25T09:12:08.452Z</time>
      </trkpt>
      <trkpt lat="43.66674" lon="1.23831">
        <ele>186</ele>
        <time>2018-06-25T09:12:09.452Z</time>
      </trkpt>
      <trkpt lat="43.66615" lon="1.23786">
        <ele>186</ele>
        <time>2018-06-25T09:12:10.452Z</time>
      </trkpt>
      <trkpt lat="43.66575" lon="1.23771">
        <ele>186</ele>
        <time>2018-06-25T09:12:11.452Z</time>
      </trkpt>
      <trkpt lat="43.66437" lon="1.23751">
        <ele>188</ele>
        <time>2018-06-25T09:12:12.452Z</time>
      </trkpt>
      <trkpt lat="43.66158" lon="1.23753">
        <ele>191</ele>
        <time>2018-06-25T09:12:13.452Z</time>
      </trkpt>
      <trkpt lat="43.66158" lon="1.23755">
        <ele>191</ele>
        <time>2018-06-25T09:12:14.452Z</time>
      </trkpt>
      <trkpt lat="43.66154" lon="1.23755">
        <ele>191</ele>
        <time>2018-06-25T09:12:15.452Z</time>
      </trkpt>
      <trkpt lat="43.66149" lon="1.23765">
        <ele>191</ele>
        <time>2018-06-25T09:12:16.452Z</time>
      </trkpt>
      <trkpt lat="43.66147" lon="1.23775">
        <ele>191</ele>
        <time>2018-06-25T09:12:17.452Z</time>
      </trkpt>
      <trkpt lat="43.66137" lon="1.23779">
        <ele>192</ele>
        <time>2018-06-25T09:12:18.452Z</time>
      </trkpt>
      <trkpt lat="43.66106" lon="1.23783">
        <ele>193</ele>
        <time>2018-06-25T09:12:19.452Z</time>
      </trkpt>
      <trkpt lat="43.66086" lon="1.23781">
        <ele>194</ele>
        <time>2018-06-25T09:12:20.452Z</time>
      </trkpt>
      <trkpt lat="43.66059" lon="1.23768">
        <ele>195</ele>
        <time>2018-06-25T09:12:21.452Z</time>
      </trkpt>
      <trkpt lat="43.66023" lon="1.2374">
        <ele>195</ele>
        <time>2018-06-25T09:12:22.452Z</time>
      </trkpt>
      <trkpt lat="43.6594" lon="1.23647">
        <ele>194</ele>
        <time>2018-06-25T09:12:23.452Z</time>
      </trkpt>
      <trkpt lat="43.65939" lon="1.23647">
        <ele>194</ele>
        <time>2018-06-25T09:12:24.452Z</time>
      </trkpt>
      <trkpt lat="43.65921" lon="1.23628">
        <ele>194</ele>
        <time>2018-06-25T09:12:25.452Z</time>
      </trkpt>
      <trkpt lat="43.65842" lon="1.23557">
        <ele>194</ele>
        <time>2018-06-25T09:12:26.452Z</time>
      </trkpt>
      <trkpt lat="43.65752" lon="1.23413">
        <ele>198</ele>
        <time>2018-06-25T09:12:27.452Z</time>
      </trkpt>
      <trkpt lat="43.65737" lon="1.23399">
        <ele>198</ele>
        <time>2018-06-25T09:12:28.452Z</time>
      </trkpt>
      <trkpt lat="43.6573" lon="1.23389">
        <ele>198</ele>
        <time>2018-06-25T09:12:29.452Z</time>
      </trkpt>
      <trkpt lat="43.65727" lon="1.23373">
        <ele>198</ele>
        <time>2018-06-25T09:12:30.452Z</time>
      </trkpt>
      <trkpt lat="43.65712" lon="1.23352">
        <ele>199</ele>
        <time>2018-06-25T09:12:31.452Z</time>
      </trkpt>
      <trkpt lat="43.65687" lon="1.23327">
        <ele>200</ele>
        <time>2018-06-25T09:12:32.452Z</time>
      </trkpt>
      <trkpt lat="43.65674" lon="1.23301">
        <ele>200</ele>
        <time>2018-06-25T09:12:33.452Z</time>
      </trkpt>
      <trkpt lat="43.65625" lon="1.23205">
        <ele>198</ele>
        <time>2018-06-25T09:12:34.452Z</time>
      </trkpt>
      <trkpt lat="43.65615" lon="1.2318">
        <ele>198</ele>
        <time>2018-06-25T09:12:35.452Z</time>
      </trkpt>
      <trkpt lat="43.65606" lon="1.23153">
        <ele>197</ele>
        <time>2018-06-25T09:12:36.452Z</time>
      </trkpt>
      <trkpt lat="43.6559" lon="1.23124">
        <ele>197</ele>
        <time>2018-06-25T09:12:37.452Z</time>
      </trkpt>
      <trkpt lat="43.65585" lon="1.23112">
        <ele>196</ele>
        <time>2018-06-25T09:12:38.452Z</time>
      </trkpt>
      <trkpt lat="43.65573" lon="1.23101">
        <ele>196</ele>
        <time>2018-06-25T09:12:39.452Z</time>
      </trkpt>
      <trkpt lat="43.65529" lon="1.23081">
        <ele>197</ele>
        <time>2018-06-25T09:12:40.452Z</time>
      </trkpt>
      <trkpt lat="43.65524" lon="1.23075">
        <ele>197</ele>
        <time>2018-06-25T09:12:41.452Z</time>
      </trkpt>
      <trkpt lat="43.65516" lon="1.23053">
        <ele>197</ele>
        <time>2018-06-25T09:12:42.452Z</time>
      </trkpt>
      <trkpt lat="43.65511" lon="1.23046">
        <ele>197</ele>
        <time>2018-06-25T09:12:43.452Z</time>
      </trkpt>
      <trkpt lat="43.65504" lon="1.2304">
        <ele>197</ele>
        <time>2018-06-25T09:12:44.452Z</time>
      </trkpt>
      <trkpt lat="43.65453" lon="1.22955">
        <ele>197</ele>
        <time>2018-06-25T09:12:45.452Z</time>
      </trkpt>
      <trkpt lat="43.65422" lon="1.2293">
        <ele>198</ele>
        <time>2018-06-25T09:12:46.452Z</time>
      </trkpt>
      <trkpt lat="43.65395" lon="1.22877">
        <ele>199</ele>
        <time>2018-06-25T09:12:47.452Z</time>
      </trkpt>
      <trkpt lat="43.6537" lon="1.22849">
        <ele>201</ele>
        <time>2018-06-25T09:12:48.452Z</time>
      </trkpt>
      <trkpt lat="43.65354" lon="1.22814">
        <ele>203</ele>
        <time>2018-06-25T09:12:49.452Z</time>
      </trkpt>
      <trkpt lat="43.65314" lon="1.22766">
        <ele>204</ele>
        <time>2018-06-25T09:12:50.452Z</time>
      </trkpt>
      <trkpt lat="43.65275" lon="1.2274">
        <ele>204</ele>
        <time>2018-06-25T09:12:51.452Z</time>
      </trkpt>
      <trkpt lat="43.65271" lon="1.22733">
        <ele>203</ele>
        <time>2018-06-25T09:12:52.452Z</time>
      </trkpt>
      <trkpt lat="43.65272" lon="1.22733">
        <ele>203</ele>
        <time>2018-06-25T09:12:53.452Z</time>
      </trkpt>
      <trkpt lat="43.65265" lon="1.22719">
        <ele>203</ele>
        <time>2018-06-25T09:12:54.452Z</time>
      </trkpt>
      <trkpt lat="43.65228" lon="1.22697">
        <ele>202</ele>
        <time>2018-06-25T09:12:55.452Z</time>
      </trkpt>
      <trkpt lat="43.64963" lon="1.22973">
        <ele>201</ele>
        <time>2018-06-25T09:12:56.452Z</time>
      </trkpt>
      <trkpt lat="43.64909" lon="1.23034">
        <ele>203</ele>
        <time>2018-06-25T09:12:57.452Z</time>
      </trkpt>
      <trkpt lat="43.64851" lon="1.23091">
        <ele>206</ele>
        <time>2018-06-25T09:12:58.452Z</time>
      </trkpt>
      <trkpt lat="43.64806" lon="1.23142">
        <ele>206</ele>
        <time>2018-06-25T09:12:59.452Z</time>
      </trkpt>
      <trkpt lat="43.64767" lon="1.23183">
        <ele>206</ele>
        <time>2018-06-25T09:13:00.452Z</time>
      </trkpt>
      <trkpt lat="43.64492" lon="1.22718">
        <ele>211</ele>
        <time>2018-06-25T09:13:01.452Z</time>
      </trkpt>
      <trkpt lat="43.64411" lon="1.22584">
        <ele>215</ele>
        <time>2018-06-25T09:13:02.452Z</time>
      </trkpt>
      <trkpt lat="43.64324" lon="1.22447">
        <ele>217</ele>
        <time>2018-06-25T09:13:03.452Z</time>
      </trkpt>
      <trkpt lat="43.64315" lon="1.22429">
        <ele>217</ele>
        <time>2018-06-25T09:13:04.452Z</time>
      </trkpt>
      <trkpt lat="43.6424" lon="1.22305">
        <ele>218</ele>
        <time>2018-06-25T09:13:05.452Z</time>
      </trkpt>
      <trkpt lat="43.64184" lon="1.22216">
        <ele>220</ele>
        <time>2018-06-25T09:13:06.452Z</time>
      </trkpt>
      <trkpt lat="43.64183" lon="1.22217">
        <ele>220</ele>
        <time>2018-06-25T09:13:07.452Z</time>
      </trkpt>
      <trkpt lat="43.6417" lon="1.22194">
        <ele>220</ele>
        <time>2018-06-25T09:13:08.452Z</time>
      </trkpt>
      <trkpt lat="43.64197" lon="1.22155">
        <ele>220</ele>
        <time>2018-06-25T09:13:09.452Z</time>
      </trkpt>
      <trkpt lat="43.64146" lon="1.22038">
        <ele>222</ele>
        <time>2018-06-25T09:13:10.452Z</time>
      </trkpt>
      <trkpt lat="43.64119" lon="1.21955">
        <ele>226</ele>
        <time>2018-06-25T09:13:11.452Z</time>
      </trkpt>
      <trkpt lat="43.64108" lon="1.21906">
        <ele>229</ele>
        <time>2018-06-25T09:13:12.452Z</time>
      </trkpt>
      <trkpt lat="43.64104" lon="1.21878">
        <ele>229</ele>
        <time>2018-06-25T09:13:13.452Z</time>
      </trkpt>
      <trkpt lat="43.64097" lon="1.21862">
        <ele>230</ele>
        <time>2018-06-25T09:13:14.452Z</time>
      </trkpt>
      <trkpt lat="43.64086" lon="1.21823">
        <ele>230</ele>
        <time>2018-06-25T09:13:15.452Z</time>
      </trkpt>
      <trkpt lat="43.64086" lon="1.21797">
        <ele>231</ele>
        <time>2018-06-25T09:13:16.452Z</time>
      </trkpt>
      <trkpt lat="43.64087" lon="1.21765">
        <ele>232</ele>
        <time>2018-06-25T09:13:17.452Z</time>
      </trkpt>
      <trkpt lat="43.63877" lon="1.21579">
        <ele>229</ele>
        <time>2018-06-25T09:13:18.452Z</time>
      </trkpt>
      <trkpt lat="43.63851" lon="1.21551">
        <ele>229</ele>
        <time>2018-06-25T09:13:19.452Z</time>
      </trkpt>
      <trkpt lat="43.63811" lon="1.21516">
        <ele>231</ele>
        <time>2018-06-25T09:13:20.452Z</time>
      </trkpt>
      <trkpt lat="43.63793" lon="1.21488">
        <ele>232</ele>
        <time>2018-06-25T09:13:21.452Z</time>
      </trkpt>
      <trkpt lat="43.63764" lon="1.21466">
        <ele>233</ele>
        <time>2018-06-25T09:13:22.452Z</time>
      </trkpt>
      <trkpt lat="43.6374" lon="1.21445">
        <ele>234</ele>
        <time>2018-06-25T09:13:23.452Z</time>
      </trkpt>
      <trkpt lat="43.63737" lon="1.21416">
        <ele>234</ele>
        <time>2018-06-25T09:13:24.452Z</time>
      </trkpt>
      <trkpt lat="43.63733" lon="1.21392">
        <ele>233</ele>
        <time>2018-06-25T09:13:25.452Z</time>
      </trkpt>
      <trkpt lat="43.63724" lon="1.21367">
        <ele>233</ele>
        <time>2018-06-25T09:13:26.452Z</time>
      </trkpt>
      <trkpt lat="43.6372" lon="1.21349">
        <ele>233</ele>
        <time>2018-06-25T09:13:27.452Z</time>
      </trkpt>
      <trkpt lat="43.63686" lon="1.21316">
        <ele>233</ele>
        <time>2018-06-25T09:13:28.452Z</time>
      </trkpt>
      <trkpt lat="43.63653" lon="1.21281">
        <ele>233</ele>
        <time>2018-06-25T09:13:29.452Z</time>
      </trkpt>
      <trkpt lat="43.6364" lon="1.21253">
        <ele>233</ele>
        <time>2018-06-25T09:13:30.452Z</time>
      </trkpt>
      <trkpt lat="43.63618" lon="1.21242">
        <ele>233</ele>
        <time>2018-06-25T09:13:31.452Z</time>
      </trkpt>
      <trkpt lat="43.63581" lon="1.21232">
        <ele>234</ele>
        <time>2018-06-25T09:13:32.452Z</time>
      </trkpt>
      <trkpt lat="43.63576" lon="1.21232">
        <ele>234</ele>
        <time>2018-06-25T09:13:33.452Z</time>
      </trkpt>
      <trkpt lat="43.63576" lon="1.21233">
        <ele>234</ele>
        <time>2018-06-25T09:13:34.452Z</time>
      </trkpt>
      <trkpt lat="43.63536" lon="1.21234">
        <ele>233</ele>
        <time>2018-06-25T09:13:35.452Z</time>
      </trkpt>
      <trkpt lat="43.63478" lon="1.21282">
        <ele>233</ele>
        <time>2018-06-25T09:13:36.452Z</time>
      </trkpt>
      <trkpt lat="43.63455" lon="1.21352">
        <ele>234</ele>
        <time>2018-06-25T09:13:37.452Z</time>
      </trkpt>
      <trkpt lat="43.63444" lon="1.21416">
        <ele>234</ele>
        <time>2018-06-25T09:13:38.452Z</time>
      </trkpt>
      <trkpt lat="43.634" lon="1.21549">
        <ele>234</ele>
        <time>2018-06-25T09:13:39.452Z</time>
      </trkpt>
      <trkpt lat="43.6337" lon="1.21526">
        <ele>233</ele>
        <time>2018-06-25T09:13:40.452Z</time>
      </trkpt>
      <trkpt lat="43.63003" lon="1.21227">
        <ele>243</ele>
        <time>2018-06-25T09:13:41.452Z</time>
      </trkpt>
      <trkpt lat="43.62612" lon="1.20889">
        <ele>244</ele>
        <time>2018-06-25T09:13:42.452Z</time>
      </trkpt>
      <trkpt lat="43.62359" lon="1.20686">
        <ele>242</ele>
        <time>2018-06-25T09:13:43.452Z</time>
      </trkpt>
      <trkpt lat="43.62323" lon="1.2065">
        <ele>242</ele>
        <time>2018-06-25T09:13:44.452Z</time>
      </trkpt>
      <trkpt lat="43.62012" lon="1.20397">
        <ele>238</ele>
        <time>2018-06-25T09:13:45.452Z</time>
      </trkpt>
      <trkpt lat="43.6188" lon="1.20286">
        <ele>243</ele>
        <time>2018-06-25T09:13:46.452Z</time>
      </trkpt>
      <trkpt lat="43.61786" lon="1.20202">
        <ele>244</ele>
        <time>2018-06-25T09:13:47.452Z</time>
      </trkpt>
      <trkpt lat="43.61714" lon="1.2014">
        <ele>243</ele>
        <time>2018-06-25T09:13:48.452Z</time>
      </trkpt>
      <trkpt lat="43.61527" lon="1.1999">
        <ele>229</ele>
        <time>2018-06-25T09:13:49.452Z</time>
      </trkpt>
      <trkpt lat="43.61426" lon="1.19899">
        <ele>228</ele>
        <time>2018-06-25T09:13:50.452Z</time>
      </trkpt>
      <trkpt lat="43.61399" lon="1.19877">
        <ele>230</ele>
        <time>2018-06-25T09:13:51.452Z</time>
      </trkpt>
      <trkpt lat="43.61372" lon="1.19912">
        <ele>232</ele>
        <time>2018-06-25T09:13:52.452Z</time>
      </trkpt>
      <trkpt lat="43.61361" lon="1.1992">
        <ele>233</ele>
        <time>2018-06-25T09:13:53.452Z</time>
      </trkpt>
      <trkpt lat="43.61347" lon="1.1993">
        <ele>234</ele>
        <time>2018-06-25T09:13:54.452Z</time>
      </trkpt>
      <trkpt lat="43.61332" lon="1.19938">
        <ele>235</ele>
        <time>2018-06-25T09:13:55.452Z</time>
      </trkpt>
      <trkpt lat="43.61327" lon="1.19949">
        <ele>235</ele>
        <time>2018-06-25T09:13:56.452Z</time>
      </trkpt>
      <trkpt lat="43.61329" lon="1.19963">
        <ele>234</ele>
        <time>2018-06-25T09:13:57.452Z</time>
      </trkpt>
      <trkpt lat="43.61324" lon="1.2">
        <ele>234</ele>
        <time>2018-06-25T09:13:58.452Z</time>
      </trkpt>
      <trkpt lat="43.61353" lon="1.20206">
        <ele>224</ele>
        <time>2018-06-25T09:13:59.452Z</time>
      </trkpt>
      <trkpt lat="43.61293" lon="1.20288">
        <ele>225</ele>
        <time>2018-06-25T09:14:00.452Z</time>
      </trkpt>
      <trkpt lat="43.61233" lon="1.20241">
        <ele>232</ele>
        <time>2018-06-25T09:14:01.452Z</time>
      </trkpt>
      <trkpt lat="43.61234" lon="1.2024">
        <ele>232</ele>
        <time>2018-06-25T09:14:02.452Z</time>
      </trkpt>
      <trkpt lat="43.60974" lon="1.20025">
        <ele>247</ele>
        <time>2018-06-25T09:14:03.452Z</time>
      </trkpt>
      <trkpt lat="43.60973" lon="1.20026">
        <ele>247</ele>
        <time>2018-06-25T09:14:04.452Z</time>
      </trkpt>
      <trkpt lat="43.60951" lon="1.20007">
        <ele>247</ele>
        <time>2018-06-25T09:14:05.452Z</time>
      </trkpt>
      <trkpt lat="43.60921" lon="1.20003">
        <ele>247</ele>
        <time>2018-06-25T09:14:06.452Z</time>
      </trkpt>
      <trkpt lat="43.6074" lon="1.19853">
        <ele>245</ele>
        <time>2018-06-25T09:14:07.452Z</time>
      </trkpt>
      <trkpt lat="43.60506" lon="1.19664">
        <ele>247</ele>
        <time>2018-06-25T09:14:08.452Z</time>
      </trkpt>
      <trkpt lat="43.60501" lon="1.19653">
        <ele>248</ele>
        <time>2018-06-25T09:14:09.452Z</time>
      </trkpt>
      <trkpt lat="43.60567" lon="1.19497">
        <ele>250</ele>
        <time>2018-06-25T09:14:10.452Z</time>
      </trkpt>
      <trkpt lat="43.6066" lon="1.1928">
        <ele>248</ele>
        <time>2018-06-25T09:14:11.452Z</time>
      </trkpt>
      <trkpt lat="43.60605" lon="1.19234">
        <ele>250</ele>
        <time>2018-06-25T09:14:12.452Z</time>
      </trkpt>
      <trkpt lat="43.60605" lon="1.19233">
        <ele>250</ele>
        <time>2018-06-25T09:14:13.452Z</time>
      </trkpt>
      <trkpt lat="43.60414" lon="1.19072">
        <ele>248</ele>
        <time>2018-06-25T09:14:14.452Z</time>
      </trkpt>
      <trkpt lat="43.59855" lon="1.18624">
        <ele>254</ele>
        <time>2018-06-25T09:14:15.452Z</time>
      </trkpt>
      <trkpt lat="43.59709" lon="1.18501">
        <ele>253</ele>
        <time>2018-06-25T09:14:16.452Z</time>
      </trkpt>
      <trkpt lat="43.597" lon="1.18484">
        <ele>252</ele>
        <time>2018-06-25T09:14:17.452Z</time>
      </trkpt>
      <trkpt lat="43.59708" lon="1.18427">
        <ele>252</ele>
        <time>2018-06-25T09:14:18.452Z</time>
      </trkpt>
      <trkpt lat="43.59722" lon="1.18393">
        <ele>254</ele>
        <time>2018-06-25T09:14:19.452Z</time>
      </trkpt>
      <trkpt lat="43.59736" lon="1.18348">
        <ele>257</ele>
        <time>2018-06-25T09:14:20.452Z</time>
      </trkpt>
      <trkpt lat="43.59741" lon="1.18292">
        <ele>259</ele>
        <time>2018-06-25T09:14:21.452Z</time>
      </trkpt>
      <trkpt lat="43.59761" lon="1.18172">
        <ele>264</ele>
        <time>2018-06-25T09:14:22.452Z</time>
      </trkpt>
      <trkpt lat="43.59752" lon="1.18139">
        <ele>263</ele>
        <time>2018-06-25T09:14:23.452Z</time>
      </trkpt>
      <trkpt lat="43.59751" lon="1.18105">
        <ele>263</ele>
        <time>2018-06-25T09:14:24.452Z</time>
      </trkpt>
      <trkpt lat="43.59737" lon="1.18036">
        <ele>263</ele>
        <time>2018-06-25T09:14:25.452Z</time>
      </trkpt>
      <trkpt lat="43.59735" lon="1.17908">
        <ele>267</ele>
        <time>2018-06-25T09:14:26.452Z</time>
      </trkpt>
      <trkpt lat="43.59725" lon="1.17848">
        <ele>268</ele>
        <time>2018-06-25T09:14:27.452Z</time>
      </trkpt>
      <trkpt lat="43.59732" lon="1.17798">
        <ele>270</ele>
        <time>2018-06-25T09:14:28.452Z</time>
      </trkpt>
      <trkpt lat="43.59726" lon="1.17739">
        <ele>270</ele>
        <time>2018-06-25T09:14:29.452Z</time>
      </trkpt>
      <trkpt lat="43.5973" lon="1.17696">
        <ele>271</ele>
        <time>2018-06-25T09:14:30.452Z</time>
      </trkpt>
      <trkpt lat="43.59733" lon="1.17683">
        <ele>271</ele>
        <time>2018-06-25T09:14:31.452Z</time>
      </trkpt>
      <trkpt lat="43.59736" lon="1.1767">
        <ele>272</ele>
        <time>2018-06-25T09:14:32.452Z</time>
      </trkpt>
      <trkpt lat="43.59749" lon="1.17648">
        <ele>273</ele>
        <time>2018-06-25T09:14:33.452Z</time>
      </trkpt>
      <trkpt lat="43.59761" lon="1.17611">
        <ele>273</ele>
        <time>2018-06-25T09:14:34.452Z</time>
      </trkpt>
      <trkpt lat="43.59774" lon="1.17546">
        <ele>274</ele>
        <time>2018-06-25T09:14:35.452Z</time>
      </trkpt>
      <trkpt lat="43.59782" lon="1.17529">
        <ele>274</ele>
        <time>2018-06-25T09:14:36.452Z</time>
      </trkpt>
      <trkpt lat="43.59787" lon="1.17505">
        <ele>275</ele>
        <time>2018-06-25T09:14:37.452Z</time>
      </trkpt>
      <trkpt lat="43.59791" lon="1.17452">
        <ele>278</ele>
        <time>2018-06-25T09:14:38.452Z</time>
      </trkpt>
      <trkpt lat="43.598" lon="1.1742">
        <ele>281</ele>
        <time>2018-06-25T09:14:39.452Z</time>
      </trkpt>
      <trkpt lat="43.59825" lon="1.17389">
        <ele>284</ele>
        <time>2018-06-25T09:14:40.452Z</time>
      </trkpt>
      <trkpt lat="43.59856" lon="1.1737">
        <ele>284</ele>
        <time>2018-06-25T09:14:41.452Z</time>
      </trkpt>
      <trkpt lat="43.5988" lon="1.1733">
        <ele>285</ele>
        <time>2018-06-25T09:14:42.452Z</time>
      </trkpt>
      <trkpt lat="43.59906" lon="1.17266">
        <ele>282</ele>
        <time>2018-06-25T09:14:43.452Z</time>
      </trkpt>
      <trkpt lat="43.59934" lon="1.17237">
        <ele>282</ele>
        <time>2018-06-25T09:14:44.452Z</time>
      </trkpt>
      <trkpt lat="43.5995" lon="1.17205">
        <ele>281</ele>
        <time>2018-06-25T09:14:45.452Z</time>
      </trkpt>
      <trkpt lat="43.5996" lon="1.17164">
        <ele>281</ele>
        <time>2018-06-25T09:14:46.452Z</time>
      </trkpt>
      <trkpt lat="43.59978" lon="1.1712">
        <ele>279</ele>
        <time>2018-06-25T09:14:47.452Z</time>
      </trkpt>
      <trkpt lat="43.60017" lon="1.17068">
        <ele>280</ele>
        <time>2018-06-25T09:14:48.452Z</time>
      </trkpt>
      <trkpt lat="43.6005" lon="1.17035">
        <ele>282</ele>
        <time>2018-06-25T09:14:49.452Z</time>
      </trkpt>
      <trkpt lat="43.60064" lon="1.17017">
        <ele>283</ele>
        <time>2018-06-25T09:14:50.452Z</time>
      </trkpt>
      <trkpt lat="43.60107" lon="1.16891">
        <ele>288</ele>
        <time>2018-06-25T09:14:51.452Z</time>
      </trkpt>
      <trkpt lat="43.60124" lon="1.16784">
        <ele>294</ele>
        <time>2018-06-25T09:14:52.452Z</time>
      </trkpt>
      <trkpt lat="43.60113" lon="1.16693">
        <ele>295</ele>
        <time>2018-06-25T09:14:53.452Z</time>
      </trkpt>
      <trkpt lat="43.6012" lon="1.16578">
        <ele>298</ele>
        <time>2018-06-25T09:14:54.452Z</time>
      </trkpt>
      <trkpt lat="43.60113" lon="1.16536">
        <ele>299</ele>
        <time>2018-06-25T09:14:55.452Z</time>
      </trkpt>
      <trkpt lat="43.60111" lon="1.16476">
        <ele>299</ele>
        <time>2018-06-25T09:14:56.452Z</time>
      </trkpt>
      <trkpt lat="43.60098" lon="1.16444">
        <ele>299</ele>
        <time>2018-06-25T09:14:57.452Z</time>
      </trkpt>
      <trkpt lat="43.60091" lon="1.16411">
        <ele>298</ele>
        <time>2018-06-25T09:14:58.452Z</time>
      </trkpt>
      <trkpt lat="43.60102" lon="1.16366">
        <ele>296</ele>
        <time>2018-06-25T09:14:59.452Z</time>
      </trkpt>
      <trkpt lat="43.60106" lon="1.16332">
        <ele>295</ele>
        <time>2018-06-25T09:15:00.452Z</time>
      </trkpt>
      <trkpt lat="43.60113" lon="1.16292">
        <ele>294</ele>
        <time>2018-06-25T09:15:01.452Z</time>
      </trkpt>
      <trkpt lat="43.60114" lon="1.1622">
        <ele>291</ele>
        <time>2018-06-25T09:15:02.452Z</time>
      </trkpt>
      <trkpt lat="43.60129" lon="1.16133">
        <ele>291</ele>
        <time>2018-06-25T09:15:03.452Z</time>
      </trkpt>
      <trkpt lat="43.60183" lon="1.15968">
        <ele>292</ele>
        <time>2018-06-25T09:15:04.452Z</time>
      </trkpt>
      <trkpt lat="43.602" lon="1.15937">
        <ele>291</ele>
        <time>2018-06-25T09:15:05.452Z</time>
      </trkpt>
      <trkpt lat="43.60185" lon="1.15823">
        <ele>293</ele>
        <time>2018-06-25T09:15:06.452Z</time>
      </trkpt>
      <trkpt lat="43.6018" lon="1.1581">
        <ele>292</ele>
        <time>2018-06-25T09:15:07.452Z</time>
      </trkpt>
      <trkpt lat="43.60181" lon="1.15809">
        <ele>292</ele>
        <time>2018-06-25T09:15:08.452Z</time>
      </trkpt>
      <trkpt lat="43.60155" lon="1.15742">
        <ele>290</ele>
        <time>2018-06-25T09:15:09.452Z</time>
      </trkpt>
      <trkpt lat="43.60102" lon="1.15697">
        <ele>290</ele>
        <time>2018-06-25T09:15:10.452Z</time>
      </trkpt>
      <trkpt lat="43.60072" lon="1.15656">
        <ele>290</ele>
        <time>2018-06-25T09:15:11.452Z</time>
      </trkpt>
      <trkpt lat="43.60059" lon="1.1564">
        <ele>289</ele>
        <time>2018-06-25T09:15:12.452Z</time>
      </trkpt>
      <trkpt lat="43.60063" lon="1.15583">
        <ele>290</ele>
        <time>2018-06-25T09:15:13.452Z</time>
      </trkpt>
      <trkpt lat="43.60054" lon="1.15557">
        <ele>289</ele>
        <time>2018-06-25T09:15:14.452Z</time>
      </trkpt>
      <trkpt lat="43.6004" lon="1.15545">
        <ele>288</ele>
        <time>2018-06-25T09:15:15.452Z</time>
      </trkpt>
      <trkpt lat="43.60023" lon="1.15542">
        <ele>287</ele>
        <time>2018-06-25T09:15:16.452Z</time>
      </trkpt>
      <trkpt lat="43.5999" lon="1.15515">
        <ele>284</ele>
        <time>2018-06-25T09:15:17.452Z</time>
      </trkpt>
      <trkpt lat="43.59969" lon="1.15525">
        <ele>284</ele>
        <time>2018-06-25T09:15:18.452Z</time>
      </trkpt>
      <trkpt lat="43.59963" lon="1.15519">
        <ele>283</ele>
        <time>2018-06-25T09:15:19.452Z</time>
      </trkpt>
      <trkpt lat="43.59916" lon="1.15504">
        <ele>282</ele>
        <time>2018-06-25T09:15:20.452Z</time>
      </trkpt>
      <trkpt lat="43.59885" lon="1.15474">
        <ele>285</ele>
        <time>2018-06-25T09:15:21.452Z</time>
      </trkpt>
      <trkpt lat="43.59856" lon="1.15416">
        <ele>290</ele>
        <time>2018-06-25T09:15:22.452Z</time>
      </trkpt>
      <trkpt lat="43.59839" lon="1.15398">
        <ele>292</ele>
        <time>2018-06-25T09:15:23.452Z</time>
      </trkpt>
      <trkpt lat="43.59821" lon="1.15351">
        <ele>295</ele>
        <time>2018-06-25T09:15:24.452Z</time>
      </trkpt>
      <trkpt lat="43.59808" lon="1.1534">
        <ele>296</ele>
        <time>2018-06-25T09:15:25.452Z</time>
      </trkpt>
      <trkpt lat="43.59789" lon="1.15308">
        <ele>296</ele>
        <time>2018-06-25T09:15:26.452Z</time>
      </trkpt>
      <trkpt lat="43.59788" lon="1.15297">
        <ele>296</ele>
        <time>2018-06-25T09:15:27.452Z</time>
      </trkpt>
      <trkpt lat="43.59785" lon="1.15278">
        <ele>296</ele>
        <time>2018-06-25T09:15:28.452Z</time>
      </trkpt>
      <trkpt lat="43.59795" lon="1.1523">
        <ele>295</ele>
        <time>2018-06-25T09:15:29.452Z</time>
      </trkpt>
      <trkpt lat="43.59794" lon="1.15196">
        <ele>295</ele>
        <time>2018-06-25T09:15:30.452Z</time>
      </trkpt>
      <trkpt lat="43.59611" lon="1.15133">
        <ele>296</ele>
        <time>2018-06-25T09:15:31.452Z</time>
      </trkpt>
      <trkpt lat="43.59594" lon="1.15133">
        <ele>295</ele>
        <time>2018-06-25T09:15:32.452Z</time>
      </trkpt>
      <trkpt lat="43.59559" lon="1.1511">
        <ele>296</ele>
        <time>2018-06-25T09:15:33.452Z</time>
      </trkpt>
      <trkpt lat="43.59517" lon="1.15091">
        <ele>297</ele>
        <time>2018-06-25T09:15:34.452Z</time>
      </trkpt>
      <trkpt lat="43.59483" lon="1.15073">
        <ele>298</ele>
        <time>2018-06-25T09:15:35.452Z</time>
      </trkpt>
      <trkpt lat="43.59456" lon="1.15066">
        <ele>299</ele>
        <time>2018-06-25T09:15:36.452Z</time>
      </trkpt>
      <trkpt lat="43.59451" lon="1.15045">
        <ele>299</ele>
        <time>2018-06-25T09:15:37.452Z</time>
      </trkpt>
      <trkpt lat="43.59421" lon="1.15032">
        <ele>300</ele>
        <time>2018-06-25T09:15:38.452Z</time>
      </trkpt>
      <trkpt lat="43.59389" lon="1.1501">
        <ele>300</ele>
        <time>2018-06-25T09:15:39.452Z</time>
      </trkpt>
      <trkpt lat="43.59283" lon="1.14924">
        <ele>301</ele>
        <time>2018-06-25T09:15:40.452Z</time>
      </trkpt>
      <trkpt lat="43.592" lon="1.14879">
        <ele>302</ele>
        <time>2018-06-25T09:15:41.452Z</time>
      </trkpt>
      <trkpt lat="43.59182" lon="1.14878">
        <ele>303</ele>
        <time>2018-06-25T09:15:42.452Z</time>
      </trkpt>
      <trkpt lat="43.59171" lon="1.14885">
        <ele>303</ele>
        <time>2018-06-25T09:15:43.452Z</time>
      </trkpt>
      <trkpt lat="43.5916" lon="1.1492">
        <ele>303</ele>
        <time>2018-06-25T09:15:44.452Z</time>
      </trkpt>
      <trkpt lat="43.59149" lon="1.14943">
        <ele>302</ele>
        <time>2018-06-25T09:15:45.452Z</time>
      </trkpt>
      <trkpt lat="43.59101" lon="1.15113">
        <ele>301</ele>
        <time>2018-06-25T09:15:46.452Z</time>
      </trkpt>
      <trkpt lat="43.59107" lon="1.15115">
        <ele>301</ele>
        <time>2018-06-25T09:15:47.452Z</time>
      </trkpt>
      <trkpt lat="43.59107" lon="1.15115">
        <ele>301</ele>
        <time>2018-06-25T09:15:48.452Z</time>
      </trkpt>
      <trkpt lat="43.59045" lon="1.1508">
        <ele>300</ele>
        <time>2018-06-25T09:15:49.452Z</time>
      </trkpt>
      <trkpt lat="43.59044" lon="1.15082">
        <ele>300</ele>
        <time>2018-06-25T09:15:50.452Z</time>
      </trkpt>
      <trkpt lat="43.59044" lon="1.15083">
        <ele>300</ele>
        <time>2018-06-25T09:15:51.452Z</time>
      </trkpt>
      <trkpt lat="43.59082" lon="1.14952">
        <ele>301</ele>
        <time>2018-06-25T09:15:52.452Z</time>
      </trkpt>
      <trkpt lat="43.59089" lon="1.14922">
        <ele>301</ele>
        <time>2018-06-25T09:15:53.452Z</time>
      </trkpt>
      <trkpt lat="43.59091" lon="1.14909">
        <ele>301</ele>
        <time>2018-06-25T09:15:54.452Z</time>
      </trkpt>
      <trkpt lat="43.59103" lon="1.14877">
        <ele>301</ele>
        <time>2018-06-25T09:15:55.452Z</time>
      </trkpt>
      <trkpt lat="43.59152" lon="1.14736">
        <ele>298</ele>
        <time>2018-06-25T09:15:56.452Z</time>
      </trkpt>
      <trkpt lat="43.59158" lon="1.14697">
        <ele>295</ele>
        <time>2018-06-25T09:15:57.452Z</time>
      </trkpt>
      <trkpt lat="43.5915" lon="1.1465">
        <ele>290</ele>
        <time>2018-06-25T09:15:58.452Z</time>
      </trkpt>
      <trkpt lat="43.59115" lon="1.14555">
        <ele>284</ele>
        <time>2018-06-25T09:15:59.452Z</time>
      </trkpt>
      <trkpt lat="43.59115" lon="1.14511">
        <ele>281</ele>
        <time>2018-06-25T09:16:00.452Z</time>
      </trkpt>
      <trkpt lat="43.59141" lon="1.14474">
        <ele>274</ele>
        <time>2018-06-25T09:16:01.452Z</time>
      </trkpt>
      <trkpt lat="43.59215" lon="1.14495">
        <ele>270</ele>
        <time>2018-06-25T09:16:02.452Z</time>
      </trkpt>
      <trkpt lat="43.5926" lon="1.14457">
        <ele>262</ele>
        <time>2018-06-25T09:16:03.452Z</time>
      </trkpt>
      <trkpt lat="43.59361" lon="1.14328">
        <ele>248</ele>
        <time>2018-06-25T09:16:04.452Z</time>
      </trkpt>
      <trkpt lat="43.5947" lon="1.14171">
        <ele>234</ele>
        <time>2018-06-25T09:16:05.452Z</time>
      </trkpt>
      <trkpt lat="43.59544" lon="1.14025">
        <ele>222</ele>
        <time>2018-06-25T09:16:06.452Z</time>
      </trkpt>
      <trkpt lat="43.59603" lon="1.13971">
        <ele>219</ele>
        <time>2018-06-25T09:16:07.452Z</time>
      </trkpt>
      <trkpt lat="43.59602" lon="1.13946">
        <ele>219</ele>
        <time>2018-06-25T09:16:08.452Z</time>
      </trkpt>
      <trkpt lat="43.59571" lon="1.13934">
        <ele>219</ele>
        <time>2018-06-25T09:16:09.452Z</time>
      </trkpt>
      <trkpt lat="43.59569" lon="1.13913">
        <ele>219</ele>
        <time>2018-06-25T09:16:10.452Z</time>
      </trkpt>
      <trkpt lat="43.5957" lon="1.13905">
        <ele>221</ele>
        <time>2018-06-25T09:16:11.452Z</time>
      </trkpt>
      <trkpt lat="43.59631" lon="1.13885">
        <ele>226</ele>
        <time>2018-06-25T09:16:12.452Z</time>
      </trkpt>
      <trkpt lat="43.59744" lon="1.13916">
        <ele>224</ele>
        <time>2018-06-25T09:16:13.452Z</time>
      </trkpt>
      <trkpt lat="43.59885" lon="1.13901">
        <ele>226</ele>
        <time>2018-06-25T09:16:14.452Z</time>
      </trkpt>
      <trkpt lat="43.59917" lon="1.1387">
        <ele>230</ele>
        <time>2018-06-25T09:16:15.452Z</time>
      </trkpt>
      <trkpt lat="43.59908" lon="1.13689">
        <ele>245</ele>
        <time>2018-06-25T09:16:16.452Z</time>
      </trkpt>
      <trkpt lat="43.59904" lon="1.13634">
        <ele>247</ele>
        <time>2018-06-25T09:16:17.452Z</time>
      </trkpt>
      <trkpt lat="43.59911" lon="1.13585">
        <ele>246</ele>
        <time>2018-06-25T09:16:18.452Z</time>
      </trkpt>
      <trkpt lat="43.60005" lon="1.1318">
        <ele>228</ele>
        <time>2018-06-25T09:16:19.452Z</time>
      </trkpt>
      <trkpt lat="43.60171" lon="1.12929">
        <ele>251</ele>
        <time>2018-06-25T09:16:20.452Z</time>
      </trkpt>
      <trkpt lat="43.60594" lon="1.11575">
        <ele>218</ele>
        <time>2018-06-25T09:16:21.452Z</time>
      </trkpt>
      <trkpt lat="43.60958" lon="1.10404">
        <ele>167</ele>
        <time>2018-06-25T09:16:22.452Z</time>
      </trkpt>
      <trkpt lat="43.61108" lon="1.09911">
        <ele>182</ele>
        <time>2018-06-25T09:16:23.452Z</time>
      </trkpt>
      <trkpt lat="43.61116" lon="1.09905">
        <ele>181</ele>
        <time>2018-06-25T09:16:24.452Z</time>
      </trkpt>
      <trkpt lat="43.6112" lon="1.09893">
        <ele>181</ele>
        <time>2018-06-25T09:16:25.452Z</time>
      </trkpt>
      <trkpt lat="43.61119" lon="1.09887">
        <ele>181</ele>
        <time>2018-06-25T09:16:26.452Z</time>
      </trkpt>
      <trkpt lat="43.61114" lon="1.09876">
        <ele>181</ele>
        <time>2018-06-25T09:16:27.452Z</time>
      </trkpt>
      <trkpt lat="43.61111" lon="1.09874">
        <ele>181</ele>
        <time>2018-06-25T09:16:28.452Z</time>
      </trkpt>
      <trkpt lat="43.61144" lon="1.09798">
        <ele>180</ele>
        <time>2018-06-25T09:16:29.452Z</time>
      </trkpt>
      <trkpt lat="43.61153" lon="1.09771">
        <ele>179</ele>
        <time>2018-06-25T09:16:30.452Z</time>
      </trkpt>
      <trkpt lat="43.61162" lon="1.09739">
        <ele>179</ele>
        <time>2018-06-25T09:16:31.452Z</time>
      </trkpt>
      <trkpt lat="43.61284" lon="1.08929">
        <ele>162</ele>
        <time>2018-06-25T09:16:32.452Z</time>
      </trkpt>
      <trkpt lat="43.61285" lon="1.08917">
        <ele>161</ele>
        <time>2018-06-25T09:16:33.452Z</time>
      </trkpt>
      <trkpt lat="43.61284" lon="1.08903">
        <ele>161</ele>
        <time>2018-06-25T09:16:34.452Z</time>
      </trkpt>
      <trkpt lat="43.61289" lon="1.08897">
        <ele>161</ele>
        <time>2018-06-25T09:16:35.452Z</time>
      </trkpt>
      <trkpt lat="43.61287" lon="1.08889">
        <ele>160</ele>
        <time>2018-06-25T09:16:36.452Z</time>
      </trkpt>
      <trkpt lat="43.6129" lon="1.08874">
        <ele>160</ele>
        <time>2018-06-25T09:16:37.452Z</time>
      </trkpt>
      <trkpt lat="43.61295" lon="1.08869">
        <ele>159</ele>
        <time>2018-06-25T09:16:38.452Z</time>
      </trkpt>
      <trkpt lat="43.61296" lon="1.08866">
        <ele>159</ele>
        <time>2018-06-25T09:16:39.452Z</time>
      </trkpt>
      <trkpt lat="43.61296" lon="1.08862">
        <ele>159</ele>
        <time>2018-06-25T09:16:40.452Z</time>
      </trkpt>
      <trkpt lat="43.61293" lon="1.08855">
        <ele>159</ele>
        <time>2018-06-25T09:16:41.452Z</time>
      </trkpt>
      <trkpt lat="43.6129" lon="1.08853">
        <ele>159</ele>
        <time>2018-06-25T09:16:42.452Z</time>
      </trkpt>
      <trkpt lat="43.61301" lon="1.08809">
        <ele>158</ele>
        <time>2018-06-25T09:16:43.452Z</time>
      </trkpt>
      <trkpt lat="43.61323" lon="1.08661">
        <ele>156</ele>
        <time>2018-06-25T09:16:44.452Z</time>
      </trkpt>
      <trkpt lat="43.61373" lon="1.08337">
        <ele>155</ele>
        <time>2018-06-25T09:16:45.452Z</time>
      </trkpt>
      <trkpt lat="43.61383" lon="1.08263">
        <ele>157</ele>
        <time>2018-06-25T09:16:46.452Z</time>
      </trkpt>
      <trkpt lat="43.61401" lon="1.08182">
        <ele>157</ele>
        <time>2018-06-25T09:16:47.452Z</time>
      </trkpt>
      <trkpt lat="43.61382" lon="1.07957">
        <ele>151</ele>
        <time>2018-06-25T09:16:48.452Z</time>
      </trkpt>
      <trkpt lat="43.6138" lon="1.07878">
        <ele>148</ele>
        <time>2018-06-25T09:16:49.452Z</time>
      </trkpt>
      <trkpt lat="43.61483" lon="1.07144">
        <ele>142</ele>
        <time>2018-06-25T09:16:50.452Z</time>
      </trkpt>
      <trkpt lat="43.61479" lon="1.07142">
        <ele>142</ele>
        <time>2018-06-25T09:16:51.452Z</time>
      </trkpt>
      <trkpt lat="43.61457" lon="1.07331">
        <ele>144</ele>
        <time>2018-06-25T08:59:23.699Z</time>
      </trkpt>
      <trkpt lat="43.61468" lon="1.07299">
        <ele>143</ele>
        <time>2018-06-25T08:59:24.699Z</time>
      </trkpt>
      <trkpt lat="43.61471" lon="1.073">
        <ele>143</ele>
        <time>2018-06-25T08:59:25.699Z</time>
      </trkpt>
      <trkpt lat="43.61492" lon="1.0715">
        <ele>142</ele>
        <time>2018-06-25T08:59:26.699Z</time>
      </trkpt>
      <trkpt lat="43.61469" lon="1.07138">
        <ele>143</ele>
        <time>2018-06-25T08:59:27.699Z</time>
      </trkpt>
      <trkpt lat="43.61451" lon="1.07122">
        <ele>144</ele>
        <time>2018-06-25T08:59:28.699Z</time>
      </trkpt>
      <trkpt lat="43.61424" lon="1.07111">
        <ele>146</ele>
        <time>2018-06-25T08:59:29.699Z</time>
      </trkpt>
      <trkpt lat="43.61415" lon="1.071">
        <ele>146</ele>
        <time>2018-06-25T08:59:30.699Z</time>
      </trkpt>
      <trkpt lat="43.61408" lon="1.07086">
        <ele>146</ele>
        <time>2018-06-25T08:59:31.699Z</time>
      </trkpt>
      <trkpt lat="43.61407" lon="1.07086">
        <ele>146</ele>
        <time>2018-06-25T08:59:32.699Z</time>
      </trkpt>
      <trkpt lat="43.61414" lon="1.071">
        <ele>146</ele>
        <time>2018-06-25T08:59:33.699Z</time>
      </trkpt>
      <trkpt lat="43.61423" lon="1.07111">
        <ele>146</ele>
        <time>2018-06-25T08:59:34.699Z</time>
      </trkpt>
      <trkpt lat="43.61421" lon="1.07113">
        <ele>146</ele>
        <time>2018-06-25T08:59:35.699Z</time>
      </trkpt>
      <trkpt lat="43.61416" lon="1.07108">
        <ele>146</ele>
        <time>2018-06-25T08:59:36.699Z</time>
      </trkpt>
      <trkpt lat="43.614" lon="1.07086">
        <ele>147</ele>
        <time>2018-06-25T08:59:37.699Z</time>
      </trkpt>
      <trkpt lat="43.61349" lon="1.07047">
        <ele>146</ele>
        <time>2018-06-25T08:59:38.699Z</time>
      </trkpt>
      <trkpt lat="43.61331" lon="1.07031">
        <ele>146</ele>
        <time>2018-06-25T08:59:39.699Z</time>
      </trkpt>
      <trkpt lat="43.6131" lon="1.07023">
        <ele>145</ele>
        <time>2018-06-25T08:59:40.699Z</time>
      </trkpt>
      <trkpt lat="43.61302" lon="1.07022">
        <ele>145</ele>
        <time>2018-06-25T08:59:41.699Z</time>
      </trkpt>
      <trkpt lat="43.61283" lon="1.07025">
        <ele>144</ele>
        <time>2018-06-25T08:59:42.699Z</time>
      </trkpt>
      <trkpt lat="43.61269" lon="1.07025">
        <ele>144</ele>
        <time>2018-06-25T08:59:43.699Z</time>
      </trkpt>
      <trkpt lat="43.61264" lon="1.07026">
        <ele>144</ele>
        <time>2018-06-25T08:59:44.699Z</time>
      </trkpt>
      <trkpt lat="43.6126" lon="1.07032">
        <ele>144</ele>
        <time>2018-06-25T08:59:45.699Z</time>
      </trkpt>
      <trkpt lat="43.61258" lon="1.07038">
        <ele>144</ele>
        <time>2018-06-25T08:59:46.699Z</time>
      </trkpt>
      <trkpt lat="43.61256" lon="1.07051">
        <ele>144</ele>
        <time>2018-06-25T08:59:47.699Z</time>
      </trkpt>
      <trkpt lat="43.61248" lon="1.07073">
        <ele>145</ele>
        <time>2018-06-25T08:59:48.699Z</time>
      </trkpt>
      <trkpt lat="43.61245" lon="1.071">
        <ele>145</ele>
        <time>2018-06-25T08:59:49.699Z</time>
      </trkpt>
      <trkpt lat="43.61246" lon="1.07144">
        <ele>144</ele>
        <time>2018-06-25T08:59:50.699Z</time>
      </trkpt>
      <trkpt lat="43.61237" lon="1.07189">
        <ele>144</ele>
        <time>2018-06-25T08:59:51.699Z</time>
      </trkpt>
      <trkpt lat="43.61232" lon="1.07203">
        <ele>144</ele>
        <time>2018-06-25T08:59:52.699Z</time>
      </trkpt>
      <trkpt lat="43.61226" lon="1.07212">
        <ele>144</ele>
        <time>2018-06-25T08:59:53.699Z</time>
      </trkpt>
      <trkpt lat="43.61217" lon="1.0722">
        <ele>144</ele>
        <time>2018-06-25T08:59:54.699Z</time>
      </trkpt>
      <trkpt lat="43.61194" lon="1.07228">
        <ele>144</ele>
        <time>2018-06-25T08:59:55.699Z</time>
      </trkpt>
      <trkpt lat="43.6117" lon="1.07229">
        <ele>144</ele>
        <time>2018-06-25T08:59:56.699Z</time>
      </trkpt>
      <trkpt lat="43.61158" lon="1.07226">
        <ele>144</ele>
        <time>2018-06-25T08:59:57.699Z</time>
      </trkpt>
      <trkpt lat="43.61138" lon="1.07214">
        <ele>144</ele>
        <time>2018-06-25T08:59:58.699Z</time>
      </trkpt>
      <trkpt lat="43.61123" lon="1.072">
        <ele>144</ele>
        <time>2018-06-25T08:59:59.699Z</time>
      </trkpt>
      <trkpt lat="43.61114" lon="1.07185">
        <ele>144</ele>
        <time>2018-06-25T09:00:00.699Z</time>
      </trkpt>
      <trkpt lat="43.61106" lon="1.07161">
        <ele>143</ele>
        <time>2018-06-25T09:00:01.699Z</time>
      </trkpt>
      <trkpt lat="43.61098" lon="1.07111">
        <ele>143</ele>
        <time>2018-06-25T09:00:02.699Z</time>
      </trkpt>
      <trkpt lat="43.61094" lon="1.07096">
        <ele>143</ele>
        <time>2018-06-25T09:00:03.699Z</time>
      </trkpt>
      <trkpt lat="43.61086" lon="1.07077">
        <ele>143</ele>
        <time>2018-06-25T09:00:04.699Z</time>
      </trkpt>
      <trkpt lat="43.6106" lon="1.07035">
        <ele>143</ele>
        <time>2018-06-25T09:00:05.699Z</time>
      </trkpt>
      <trkpt lat="43.61053" lon="1.07028">
        <ele>143</ele>
        <time>2018-06-25T09:00:06.699Z</time>
      </trkpt>
      <trkpt lat="43.61045" lon="1.07022">
        <ele>143</ele>
        <time>2018-06-25T09:00:07.699Z</time>
      </trkpt>
      <trkpt lat="43.61033" lon="1.07018">
        <ele>143</ele>
        <time>2018-06-25T09:00:08.699Z</time>
      </trkpt>
      <trkpt lat="43.61017" lon="1.07023">
        <ele>144</ele>
        <time>2018-06-25T09:00:09.699Z</time>
      </trkpt>
      <trkpt lat="43.6101" lon="1.07029">
        <ele>144</ele>
        <time>2018-06-25T09:00:10.699Z</time>
      </trkpt>
      <trkpt lat="43.60996" lon="1.07049">
        <ele>145</ele>
        <time>2018-06-25T09:00:11.699Z</time>
      </trkpt>
      <trkpt lat="43.60989" lon="1.07063">
        <ele>146</ele>
        <time>2018-06-25T09:00:12.699Z</time>
      </trkpt>
      <trkpt lat="43.60985" lon="1.07067">
        <ele>146</ele>
        <time>2018-06-25T09:00:13.699Z</time>
      </trkpt>
      <trkpt lat="43.60979" lon="1.07072">
        <ele>146</ele>
        <time>2018-06-25T09:00:14.699Z</time>
      </trkpt>
      <trkpt lat="43.6097" lon="1.07073">
        <ele>146</ele>
        <time>2018-06-25T09:00:15.699Z</time>
      </trkpt>
      <trkpt lat="43.60959" lon="1.0707">
        <ele>146</ele>
        <time>2018-06-25T09:00:16.699Z</time>
      </trkpt>
      <trkpt lat="43.60952" lon="1.07064">
        <ele>146</ele>
        <time>2018-06-25T09:00:17.699Z</time>
      </trkpt>
      <trkpt lat="43.60913" lon="1.07012">
        <ele>144</ele>
        <time>2018-06-25T09:00:18.699Z</time>
      </trkpt>
      <trkpt lat="43.60901" lon="1.07">
        <ele>144</ele>
        <time>2018-06-25T09:00:19.699Z</time>
      </trkpt>
      <trkpt lat="43.60861" lon="1.0698">
        <ele>145</ele>
        <time>2018-06-25T09:00:20.699Z</time>
      </trkpt>
      <trkpt lat="43.6083" lon="1.06958">
        <ele>146</ele>
        <time>2018-06-25T09:00:21.699Z</time>
      </trkpt>
      <trkpt lat="43.6082" lon="1.0695">
        <ele>146</ele>
        <time>2018-06-25T09:00:22.699Z</time>
      </trkpt>
      <trkpt lat="43.6083" lon="1.06911">
        <ele>147</ele>
        <time>2018-06-25T09:00:23.699Z</time>
      </trkpt>
      <trkpt lat="43.60859" lon="1.06829">
        <ele>144</ele>
        <time>2018-06-25T09:00:24.699Z</time>
      </trkpt>
      <trkpt lat="43.6085" lon="1.06816">
        <ele>144</ele>
        <time>2018-06-25T09:00:25.699Z</time>
      </trkpt>
      <trkpt lat="43.60845" lon="1.06794">
        <ele>145</ele>
        <time>2018-06-25T09:00:26.699Z</time>
      </trkpt>
      <trkpt lat="43.6083" lon="1.06764">
        <ele>145</ele>
        <time>2018-06-25T09:00:27.699Z</time>
      </trkpt>
      <trkpt lat="43.60815" lon="1.06748">
        <ele>145</ele>
        <time>2018-06-25T09:00:28.699Z</time>
      </trkpt>
      <trkpt lat="43.60752" lon="1.06688">
        <ele>145</ele>
        <time>2018-06-25T09:00:29.699Z</time>
      </trkpt>
      <trkpt lat="43.60718" lon="1.06652">
        <ele>145</ele>
        <time>2018-06-25T09:00:30.699Z</time>
      </trkpt>
      <trkpt lat="43.60711" lon="1.0661">
        <ele>146</ele>
        <time>2018-06-25T09:00:31.699Z</time>
      </trkpt>
      <trkpt lat="43.60711" lon="1.06609">
        <ele>146</ele>
        <time>2018-06-25T09:00:32.699Z</time>
      </trkpt>
      <trkpt lat="43.60703" lon="1.06578">
        <ele>146</ele>
        <time>2018-06-25T09:00:33.699Z</time>
      </trkpt>
      <trkpt lat="43.60677" lon="1.0651">
        <ele>144</ele>
        <time>2018-06-25T09:00:34.699Z</time>
      </trkpt>
      <trkpt lat="43.60687" lon="1.06423">
        <ele>143</ele>
        <time>2018-06-25T09:00:35.699Z</time>
      </trkpt>
      <trkpt lat="43.60691" lon="1.06304">
        <ele>144</ele>
        <time>2018-06-25T09:00:36.699Z</time>
      </trkpt>
      <trkpt lat="43.60657" lon="1.06148">
        <ele>144</ele>
        <time>2018-06-25T09:00:37.699Z</time>
      </trkpt>
      <trkpt lat="43.60447" lon="1.05563">
        <ele>143</ele>
        <time>2018-06-25T09:00:38.699Z</time>
      </trkpt>
      <trkpt lat="43.60505" lon="1.05491">
        <ele>144</ele>
        <time>2018-06-25T09:00:39.699Z</time>
      </trkpt>
      <trkpt lat="43.6056" lon="1.05344">
        <ele>152</ele>
        <time>2018-06-25T09:00:40.699Z</time>
      </trkpt>
      <trkpt lat="43.6045" lon="1.05237">
        <ele>147</ele>
        <time>2018-06-25T09:00:41.699Z</time>
      </trkpt>
      <trkpt lat="43.6038" lon="1.05114">
        <ele>147</ele>
        <time>2018-06-25T09:00:42.699Z</time>
      </trkpt>
      <trkpt lat="43.60366" lon="1.05074">
        <ele>147</ele>
        <time>2018-06-25T09:00:43.699Z</time>
      </trkpt>
      <trkpt lat="43.60369" lon="1.05072">
        <ele>147</ele>
        <time>2018-06-25T09:00:44.699Z</time>
      </trkpt>
      <trkpt lat="43.60373" lon="1.05065">
        <ele>148</ele>
        <time>2018-06-25T09:00:45.699Z</time>
      </trkpt>
      <trkpt lat="43.60375" lon="1.05049">
        <ele>148</ele>
        <time>2018-06-25T09:00:46.699Z</time>
      </trkpt>
      <trkpt lat="43.60375" lon="1.05033">
        <ele>148</ele>
        <time>2018-06-25T09:00:47.699Z</time>
      </trkpt>
      <trkpt lat="43.60365" lon="1.04998">
        <ele>148</ele>
        <time>2018-06-25T09:00:48.699Z</time>
      </trkpt>
      <trkpt lat="43.60362" lon="1.0498">
        <ele>147</ele>
        <time>2018-06-25T09:00:49.699Z</time>
      </trkpt>
      <trkpt lat="43.60365" lon="1.04961">
        <ele>147</ele>
        <time>2018-06-25T09:00:50.699Z</time>
      </trkpt>
      <trkpt lat="43.60409" lon="1.04836">
        <ele>149</ele>
        <time>2018-06-25T09:00:51.699Z</time>
      </trkpt>
      <trkpt lat="43.60418" lon="1.04823">
        <ele>149</ele>
        <time>2018-06-25T09:00:52.699Z</time>
      </trkpt>
      <trkpt lat="43.60416" lon="1.04814">
        <ele>149</ele>
        <time>2018-06-25T09:00:53.699Z</time>
      </trkpt>
      <trkpt lat="43.60446" lon="1.04787">
        <ele>150</ele>
        <time>2018-06-25T09:00:54.699Z</time>
      </trkpt>
      <trkpt lat="43.60461" lon="1.04746">
        <ele>149</ele>
        <time>2018-06-25T09:00:55.699Z</time>
      </trkpt>
      <trkpt lat="43.6065" lon="1.0438">
        <ele>149</ele>
        <time>2018-06-25T09:00:56.699Z</time>
      </trkpt>
      <trkpt lat="43.60661" lon="1.04336">
        <ele>148</ele>
        <time>2018-06-25T09:00:57.699Z</time>
      </trkpt>
      <trkpt lat="43.60678" lon="1.04336">
        <ele>149</ele>
        <time>2018-06-25T09:00:58.699Z</time>
      </trkpt>
      <trkpt lat="43.6069" lon="1.04338">
        <ele>150</ele>
        <time>2018-06-25T09:00:59.699Z</time>
      </trkpt>
      <trkpt lat="43.60799" lon="1.0434">
        <ele>159</ele>
        <time>2018-06-25T09:01:00.699Z</time>
      </trkpt>
      <trkpt lat="43.60808" lon="1.04316">
        <ele>159</ele>
        <time>2018-06-25T09:01:01.699Z</time>
      </trkpt>
      <trkpt lat="43.60833" lon="1.04306">
        <ele>161</ele>
        <time>2018-06-25T09:01:02.699Z</time>
      </trkpt>
      <trkpt lat="43.60979" lon="1.04449">
        <ele>179</ele>
        <time>2018-06-25T09:01:03.699Z</time>
      </trkpt>
      <trkpt lat="43.60981" lon="1.04449">
        <ele>180</ele>
        <time>2018-06-25T09:01:04.699Z</time>
      </trkpt>
      <trkpt lat="43.6106" lon="1.04527">
        <ele>184</ele>
        <time>2018-06-25T09:01:05.699Z</time>
      </trkpt>
      <trkpt lat="43.61117" lon="1.04423">
        <ele>183</ele>
        <time>2018-06-25T09:01:06.699Z</time>
      </trkpt>
      <trkpt lat="43.61115" lon="1.04288">
        <ele>181</ele>
        <time>2018-06-25T09:01:07.699Z</time>
      </trkpt>
      <trkpt lat="43.61113" lon="1.04285">
        <ele>181</ele>
        <time>2018-06-25T09:01:08.699Z</time>
      </trkpt>
      <trkpt lat="43.61033" lon="1.04042">
        <ele>162</ele>
        <time>2018-06-25T09:01:09.699Z</time>
      </trkpt>
      <trkpt lat="43.60913" lon="1.03717">
        <ele>152</ele>
        <time>2018-06-25T09:01:10.699Z</time>
      </trkpt>
      <trkpt lat="43.60767" lon="1.03275">
        <ele>165</ele>
        <time>2018-06-25T09:01:11.699Z</time>
      </trkpt>
      <trkpt lat="43.60728" lon="1.03184">
        <ele>167</ele>
        <time>2018-06-25T09:01:12.699Z</time>
      </trkpt>
      <trkpt lat="43.60663" lon="1.03">
        <ele>173</ele>
        <time>2018-06-25T09:01:13.699Z</time>
      </trkpt>
      <trkpt lat="43.60626" lon="1.02877">
        <ele>175</ele>
        <time>2018-06-25T09:01:14.699Z</time>
      </trkpt>
      <trkpt lat="43.60444" lon="1.02377">
        <ele>190</ele>
        <time>2018-06-25T09:01:15.699Z</time>
      </trkpt>
      <trkpt lat="43.60379" lon="1.02179">
        <ele>202</ele>
        <time>2018-06-25T09:01:16.699Z</time>
      </trkpt>
      <trkpt lat="43.60313" lon="1.01793">
        <ele>206</ele>
        <time>2018-06-25T09:01:17.699Z</time>
      </trkpt>
      <trkpt lat="43.60275" lon="1.01614">
        <ele>205</ele>
        <time>2018-06-25T09:01:18.699Z</time>
      </trkpt>
      <trkpt lat="43.6027" lon="1.01567">
        <ele>206</ele>
        <time>2018-06-25T09:01:19.699Z</time>
      </trkpt>
      <trkpt lat="43.60258" lon="1.01537">
        <ele>208</ele>
        <time>2018-06-25T09:01:20.699Z</time>
      </trkpt>
      <trkpt lat="43.60247" lon="1.01128">
        <ele>217</ele>
        <time>2018-06-25T09:01:21.699Z</time>
      </trkpt>
      <trkpt lat="43.60251" lon="1.00982">
        <ele>217</ele>
        <time>2018-06-25T09:01:22.699Z</time>
      </trkpt>
      <trkpt lat="43.60279" lon="1.00834">
        <ele>216</ele>
        <time>2018-06-25T09:01:23.699Z</time>
      </trkpt>
      <trkpt lat="43.60259" lon="1.00812">
        <ele>216</ele>
        <time>2018-06-25T09:01:24.699Z</time>
      </trkpt>
      <trkpt lat="43.60238" lon="1.00621">
        <ele>210</ele>
        <time>2018-06-25T09:01:25.699Z</time>
      </trkpt>
      <trkpt lat="43.60218" lon="1.0054">
        <ele>206</ele>
        <time>2018-06-25T09:01:26.699Z</time>
      </trkpt>
      <trkpt lat="43.60164" lon="1.00391">
        <ele>201</ele>
        <time>2018-06-25T09:01:27.699Z</time>
      </trkpt>
      <trkpt lat="43.60106" lon="1.00347">
        <ele>206</ele>
        <time>2018-06-25T09:01:28.699Z</time>
      </trkpt>
      <trkpt lat="43.60083" lon="1.00317">
        <ele>209</ele>
        <time>2018-06-25T09:01:29.699Z</time>
      </trkpt>
      <trkpt lat="43.60031" lon="1.00202">
        <ele>214</ele>
        <time>2018-06-25T09:01:30.699Z</time>
      </trkpt>
      <trkpt lat="43.60009" lon="1.00167">
        <ele>215</ele>
        <time>2018-06-25T09:01:31.699Z</time>
      </trkpt>
      <trkpt lat="43.59943" lon="1.00022">
        <ele>211</ele>
        <time>2018-06-25T09:01:32.699Z</time>
      </trkpt>
      <trkpt lat="43.59903" lon="0.99888">
        <ele>201</ele>
        <time>2018-06-25T09:01:33.699Z</time>
      </trkpt>
      <trkpt lat="43.59858" lon="0.99822">
        <ele>194</ele>
        <time>2018-06-25T09:01:34.699Z</time>
      </trkpt>
      <trkpt lat="43.59836" lon="0.99759">
        <ele>189</ele>
        <time>2018-06-25T09:01:35.699Z</time>
      </trkpt>
      <trkpt lat="43.5983" lon="0.99722">
        <ele>185</ele>
        <time>2018-06-25T09:01:36.699Z</time>
      </trkpt>
      <trkpt lat="43.59827" lon="0.99602">
        <ele>181</ele>
        <time>2018-06-25T09:01:37.699Z</time>
      </trkpt>
      <trkpt lat="43.59811" lon="0.9949">
        <ele>181</ele>
        <time>2018-06-25T09:01:38.699Z</time>
      </trkpt>
      <trkpt lat="43.59795" lon="0.99423">
        <ele>181</ele>
        <time>2018-06-25T09:01:39.699Z</time>
      </trkpt>
      <trkpt lat="43.59798" lon="0.99399">
        <ele>182</ele>
        <time>2018-06-25T09:01:40.699Z</time>
      </trkpt>
      <trkpt lat="43.59783" lon="0.99096">
        <ele>193</ele>
        <time>2018-06-25T09:01:41.699Z</time>
      </trkpt>
      <trkpt lat="43.59765" lon="0.98894">
        <ele>201</ele>
        <time>2018-06-25T09:01:42.699Z</time>
      </trkpt>
      <trkpt lat="43.59744" lon="0.98771">
        <ele>206</ele>
        <time>2018-06-25T09:01:43.699Z</time>
      </trkpt>
      <trkpt lat="43.59718" lon="0.98714">
        <ele>210</ele>
        <time>2018-06-25T09:01:44.699Z</time>
      </trkpt>
      <trkpt lat="43.59699" lon="0.9869">
        <ele>213</ele>
        <time>2018-06-25T09:01:45.699Z</time>
      </trkpt>
      <trkpt lat="43.59692" lon="0.98581">
        <ele>218</ele>
        <time>2018-06-25T09:01:46.699Z</time>
      </trkpt>
      <trkpt lat="43.59697" lon="0.98537">
        <ele>218</ele>
        <time>2018-06-25T09:01:47.699Z</time>
      </trkpt>
      <trkpt lat="43.59757" lon="0.98376">
        <ele>219</ele>
        <time>2018-06-25T09:01:48.699Z</time>
      </trkpt>
      <trkpt lat="43.598" lon="0.98135">
        <ele>215</ele>
        <time>2018-06-25T09:01:49.699Z</time>
      </trkpt>
      <trkpt lat="43.59793" lon="0.98123">
        <ele>214</ele>
        <time>2018-06-25T09:01:50.699Z</time>
      </trkpt>
      <trkpt lat="43.59793" lon="0.98123">
        <ele>214</ele>
        <time>2018-06-25T09:01:51.699Z</time>
      </trkpt>
      <trkpt lat="43.59791" lon="0.98127">
        <ele>214</ele>
        <time>2018-06-25T09:01:52.699Z</time>
      </trkpt>
      <trkpt lat="43.59766" lon="0.98115">
        <ele>212</ele>
        <time>2018-06-25T09:01:53.699Z</time>
      </trkpt>
      <trkpt lat="43.5976" lon="0.98114">
        <ele>212</ele>
        <time>2018-06-25T09:01:54.699Z</time>
      </trkpt>
      <trkpt lat="43.59753" lon="0.98095">
        <ele>211</ele>
        <time>2018-06-25T09:01:55.699Z</time>
      </trkpt>
      <trkpt lat="43.59752" lon="0.98089">
        <ele>210</ele>
        <time>2018-06-25T09:01:56.699Z</time>
      </trkpt>
      <trkpt lat="43.59753" lon="0.98088">
        <ele>210</ele>
        <time>2018-06-25T09:01:57.699Z</time>
      </trkpt>
      <trkpt lat="43.59751" lon="0.98074">
        <ele>209</ele>
        <time>2018-06-25T09:01:58.699Z</time>
      </trkpt>
      <trkpt lat="43.59772" lon="0.97978">
        <ele>205</ele>
        <time>2018-06-25T09:01:59.699Z</time>
      </trkpt>
      <trkpt lat="43.5976" lon="0.97991">
        <ele>205</ele>
        <time>2018-06-25T09:02:00.699Z</time>
      </trkpt>
      <trkpt lat="43.59751" lon="0.97995">
        <ele>204</ele>
        <time>2018-06-25T09:02:01.699Z</time>
      </trkpt>
      <trkpt lat="43.59736" lon="0.97988">
        <ele>200</ele>
        <time>2018-06-25T09:02:02.699Z</time>
      </trkpt>
      <trkpt lat="43.59659" lon="0.97927">
        <ele>183</ele>
        <time>2018-06-25T09:02:03.699Z</time>
      </trkpt>
      <trkpt lat="43.59626" lon="0.97881">
        <ele>180</ele>
        <time>2018-06-25T09:02:04.699Z</time>
      </trkpt>
      <trkpt lat="43.5961" lon="0.97842">
        <ele>179</ele>
        <time>2018-06-25T09:02:05.699Z</time>
      </trkpt>
      <trkpt lat="43.59563" lon="0.97858">
        <ele>179</ele>
        <time>2018-06-25T09:02:06.699Z</time>
      </trkpt>
      <trkpt lat="43.59502" lon="0.97868">
        <ele>181</ele>
        <time>2018-06-25T09:02:07.699Z</time>
      </trkpt>
      <trkpt lat="43.5948" lon="0.97857">
        <ele>181</ele>
        <time>2018-06-25T09:02:08.699Z</time>
      </trkpt>
      <trkpt lat="43.59471" lon="0.97797">
        <ele>183</ele>
        <time>2018-06-25T09:02:09.699Z</time>
      </trkpt>
      <trkpt lat="43.59409" lon="0.97696">
        <ele>189</ele>
        <time>2018-06-25T09:02:10.699Z</time>
      </trkpt>
      <trkpt lat="43.59363" lon="0.97656">
        <ele>193</ele>
        <time>2018-06-25T09:02:11.699Z</time>
      </trkpt>
      <trkpt lat="43.59334" lon="0.97613">
        <ele>194</ele>
        <time>2018-06-25T09:02:12.699Z</time>
      </trkpt>
      <trkpt lat="43.59219" lon="0.97494">
        <ele>175</ele>
        <time>2018-06-25T09:02:13.699Z</time>
      </trkpt>
      <trkpt lat="43.59232" lon="0.97454">
        <ele>176</ele>
        <time>2018-06-25T09:02:14.699Z</time>
      </trkpt>
      <trkpt lat="43.59332" lon="0.97346">
        <ele>179</ele>
        <time>2018-06-25T09:02:15.699Z</time>
      </trkpt>
      <trkpt lat="43.59372" lon="0.97261">
        <ele>181</ele>
        <time>2018-06-25T09:02:16.699Z</time>
      </trkpt>
      <trkpt lat="43.59395" lon="0.97141">
        <ele>182</ele>
        <time>2018-06-25T09:02:17.699Z</time>
      </trkpt>
      <trkpt lat="43.59413" lon="0.96999">
        <ele>181</ele>
        <time>2018-06-25T09:02:18.699Z</time>
      </trkpt>
      <trkpt lat="43.59434" lon="0.96923">
        <ele>182</ele>
        <time>2018-06-25T09:02:19.699Z</time>
      </trkpt>
      <trkpt lat="43.59496" lon="0.96769">
        <ele>181</ele>
        <time>2018-06-25T09:02:20.699Z</time>
      </trkpt>
      <trkpt lat="43.59548" lon="0.96678">
        <ele>184</ele>
        <time>2018-06-25T09:02:21.699Z</time>
      </trkpt>
      <trkpt lat="43.59549" lon="0.96658">
        <ele>184</ele>
        <time>2018-06-25T09:02:22.699Z</time>
      </trkpt>
      <trkpt lat="43.5954" lon="0.96636">
        <ele>183</ele>
        <time>2018-06-25T09:02:23.699Z</time>
      </trkpt>
      <trkpt lat="43.59539" lon="0.96613">
        <ele>183</ele>
        <time>2018-06-25T09:02:24.699Z</time>
      </trkpt>
      <trkpt lat="43.59552" lon="0.96532">
        <ele>182</ele>
        <time>2018-06-25T09:02:25.699Z</time>
      </trkpt>
      <trkpt lat="43.59553" lon="0.96473">
        <ele>182</ele>
        <time>2018-06-25T09:02:26.699Z</time>
      </trkpt>
      <trkpt lat="43.59596" lon="0.96201">
        <ele>198</ele>
        <time>2018-06-25T09:02:27.699Z</time>
      </trkpt>
      <trkpt lat="43.59598" lon="0.96111">
        <ele>202</ele>
        <time>2018-06-25T09:02:28.699Z</time>
      </trkpt>
      <trkpt lat="43.59634" lon="0.95901">
        <ele>208</ele>
        <time>2018-06-25T09:02:29.699Z</time>
      </trkpt>
      <trkpt lat="43.5969" lon="0.95678">
        <ele>216</ele>
        <time>2018-06-25T09:02:30.699Z</time>
      </trkpt>
      <trkpt lat="43.59696" lon="0.95614">
        <ele>217</ele>
        <time>2018-06-25T09:02:31.699Z</time>
      </trkpt>
      <trkpt lat="43.59704" lon="0.95593">
        <ele>217</ele>
        <time>2018-06-25T09:02:32.699Z</time>
      </trkpt>
      <trkpt lat="43.59728" lon="0.95438">
        <ele>220</ele>
        <time>2018-06-25T09:02:33.699Z</time>
      </trkpt>
      <trkpt lat="43.59728" lon="0.95372">
        <ele>220</ele>
        <time>2018-06-25T09:02:34.699Z</time>
      </trkpt>
      <trkpt lat="43.59736" lon="0.95313">
        <ele>221</ele>
        <time>2018-06-25T09:02:35.699Z</time>
      </trkpt>
      <trkpt lat="43.59815" lon="0.95113">
        <ele>225</ele>
        <time>2018-06-25T09:02:36.699Z</time>
      </trkpt>
      <trkpt lat="43.59859" lon="0.95025">
        <ele>226</ele>
        <time>2018-06-25T09:02:37.699Z</time>
      </trkpt>
      <trkpt lat="43.59931" lon="0.94915">
        <ele>230</ele>
        <time>2018-06-25T09:02:38.699Z</time>
      </trkpt>
      <trkpt lat="43.59963" lon="0.94848">
        <ele>233</ele>
        <time>2018-06-25T09:02:39.699Z</time>
      </trkpt>
      <trkpt lat="43.60194" lon="0.9497">
        <ele>236</ele>
        <time>2018-06-25T09:02:40.699Z</time>
      </trkpt>
      <trkpt lat="43.60419" lon="0.95105">
        <ele>223</ele>
        <time>2018-06-25T09:02:41.699Z</time>
      </trkpt>
      <trkpt lat="43.60425" lon="0.95096">
        <ele>224</ele>
        <time>2018-06-25T09:02:42.699Z</time>
      </trkpt>
      <trkpt lat="43.60441" lon="0.94817">
        <ele>232</ele>
        <time>2018-06-25T09:02:43.699Z</time>
      </trkpt>
      <trkpt lat="43.60434" lon="0.94718">
        <ele>232</ele>
        <time>2018-06-25T09:02:44.699Z</time>
      </trkpt>
      <trkpt lat="43.60466" lon="0.94416">
        <ele>218</ele>
        <time>2018-06-25T09:02:45.699Z</time>
      </trkpt>
      <trkpt lat="43.60464" lon="0.94264">
        <ele>216</ele>
        <time>2018-06-25T09:02:46.699Z</time>
      </trkpt>
      <trkpt lat="43.60498" lon="0.94093">
        <ele>211</ele>
        <time>2018-06-25T09:02:47.699Z</time>
      </trkpt>
      <trkpt lat="43.60493" lon="0.94005">
        <ele>210</ele>
        <time>2018-06-25T09:02:48.699Z</time>
      </trkpt>
      <trkpt lat="43.60501" lon="0.9394">
        <ele>210</ele>
        <time>2018-06-25T09:02:49.699Z</time>
      </trkpt>
      <trkpt lat="43.6049" lon="0.93871">
        <ele>211</ele>
        <time>2018-06-25T09:02:50.699Z</time>
      </trkpt>
      <trkpt lat="43.60487" lon="0.93753">
        <ele>216</ele>
        <time>2018-06-25T09:02:51.699Z</time>
      </trkpt>
      <trkpt lat="43.60495" lon="0.93643">
        <ele>225</ele>
        <time>2018-06-25T09:02:52.699Z</time>
      </trkpt>
      <trkpt lat="43.60516" lon="0.93554">
        <ele>227</ele>
        <time>2018-06-25T09:02:53.699Z</time>
      </trkpt>
      <trkpt lat="43.60572" lon="0.93439">
        <ele>225</ele>
        <time>2018-06-25T09:02:54.699Z</time>
      </trkpt>
      <trkpt lat="43.60634" lon="0.93289">
        <ele>220</ele>
        <time>2018-06-25T09:02:55.699Z</time>
      </trkpt>
      <trkpt lat="43.60651" lon="0.93228">
        <ele>218</ele>
        <time>2018-06-25T09:02:56.699Z</time>
      </trkpt>
      <trkpt lat="43.60678" lon="0.93081">
        <ele>216</ele>
        <time>2018-06-25T09:02:57.699Z</time>
      </trkpt>
      <trkpt lat="43.60704" lon="0.92993">
        <ele>215</ele>
        <time>2018-06-25T09:02:58.699Z</time>
      </trkpt>
      <trkpt lat="43.60711" lon="0.92943">
        <ele>215</ele>
        <time>2018-06-25T09:02:59.699Z</time>
      </trkpt>
      <trkpt lat="43.60706" lon="0.92954">
        <ele>215</ele>
        <time>2018-06-25T09:03:00.699Z</time>
      </trkpt>
      <trkpt lat="43.6071" lon="0.92954">
        <ele>215</ele>
        <time>2018-06-25T09:03:01.699Z</time>
      </trkpt>
      <trkpt lat="43.60736" lon="0.92742">
        <ele>217</ele>
        <time>2018-06-25T09:03:02.699Z</time>
      </trkpt>
      <trkpt lat="43.60778" lon="0.92545">
        <ele>212</ele>
        <time>2018-06-25T09:03:03.699Z</time>
      </trkpt>
      <trkpt lat="43.60873" lon="0.92326">
        <ele>206</ele>
        <time>2018-06-25T09:03:04.699Z</time>
      </trkpt>
      <trkpt lat="43.60919" lon="0.92197">
        <ele>202</ele>
        <time>2018-06-25T09:03:05.699Z</time>
      </trkpt>
      <trkpt lat="43.60977" lon="0.92085">
        <ele>193</ele>
        <time>2018-06-25T09:03:06.699Z</time>
      </trkpt>
      <trkpt lat="43.61004" lon="0.91999">
        <ele>194</ele>
        <time>2018-06-25T09:03:07.699Z</time>
      </trkpt>
      <trkpt lat="43.61029" lon="0.91853">
        <ele>204</ele>
        <time>2018-06-25T09:03:08.699Z</time>
      </trkpt>
      <trkpt lat="43.61079" lon="0.91617">
        <ele>211</ele>
        <time>2018-06-25T09:03:09.699Z</time>
      </trkpt>
      <trkpt lat="43.61083" lon="0.91557">
        <ele>212</ele>
        <time>2018-06-25T09:03:10.699Z</time>
      </trkpt>
      <trkpt lat="43.61079" lon="0.91367">
        <ele>212</ele>
        <time>2018-06-25T09:03:11.699Z</time>
      </trkpt>
      <trkpt lat="43.61098" lon="0.91241">
        <ele>209</ele>
        <time>2018-06-25T09:03:12.699Z</time>
      </trkpt>
      <trkpt lat="43.61131" lon="0.91107">
        <ele>208</ele>
        <time>2018-06-25T09:03:13.699Z</time>
      </trkpt>
      <trkpt lat="43.61126" lon="0.91096">
        <ele>208</ele>
        <time>2018-06-25T09:03:14.699Z</time>
      </trkpt>
      <trkpt lat="43.60971" lon="0.91181">
        <ele>213</ele>
        <time>2018-06-25T09:03:15.699Z</time>
      </trkpt>
      <trkpt lat="43.6096" lon="0.91179">
        <ele>213</ele>
        <time>2018-06-25T09:03:16.699Z</time>
      </trkpt>
      <trkpt lat="43.60954" lon="0.91168">
        <ele>213</ele>
        <time>2018-06-25T09:03:17.699Z</time>
      </trkpt>
      <trkpt lat="43.60951" lon="0.91118">
        <ele>212</ele>
        <time>2018-06-25T09:03:18.699Z</time>
      </trkpt>
      <trkpt lat="43.60962" lon="0.90826">
        <ele>207</ele>
        <time>2018-06-25T09:03:19.699Z</time>
      </trkpt>
      <trkpt lat="43.61022" lon="0.90508">
        <ele>203</ele>
        <time>2018-06-25T09:03:20.699Z</time>
      </trkpt>
      <trkpt lat="43.61044" lon="0.90247">
        <ele>201</ele>
        <time>2018-06-25T09:03:21.699Z</time>
      </trkpt>
      <trkpt lat="43.61036" lon="0.90091">
        <ele>198</ele>
        <time>2018-06-25T09:03:22.699Z</time>
      </trkpt>
      <trkpt lat="43.60985" lon="0.89904">
        <ele>185</ele>
        <time>2018-06-25T09:03:23.699Z</time>
      </trkpt>
      <trkpt lat="43.60902" lon="0.8969">
        <ele>166</ele>
        <time>2018-06-25T09:03:24.699Z</time>
      </trkpt>
      <trkpt lat="43.60884" lon="0.89612">
        <ele>165</ele>
        <time>2018-06-25T09:03:25.699Z</time>
      </trkpt>
      <trkpt lat="43.60856" lon="0.89578">
        <ele>165</ele>
        <time>2018-06-25T09:03:26.699Z</time>
      </trkpt>
      <trkpt lat="43.60784" lon="0.89548">
        <ele>166</ele>
        <time>2018-06-25T09:03:27.699Z</time>
      </trkpt>
      <trkpt lat="43.6068" lon="0.89544">
        <ele>165</ele>
        <time>2018-06-25T09:03:28.699Z</time>
      </trkpt>
      <trkpt lat="43.6067" lon="0.89532">
        <ele>165</ele>
        <time>2018-06-25T09:03:29.699Z</time>
      </trkpt>
      <trkpt lat="43.60706" lon="0.8948">
        <ele>163</ele>
        <time>2018-06-25T09:03:30.699Z</time>
      </trkpt>
      <trkpt lat="43.60785" lon="0.89314">
        <ele>163</ele>
        <time>2018-06-25T09:03:31.699Z</time>
      </trkpt>
      <trkpt lat="43.60811" lon="0.89241">
        <ele>165</ele>
        <time>2018-06-25T09:03:32.699Z</time>
      </trkpt>
      <trkpt lat="43.60825" lon="0.89218">
        <ele>165</ele>
        <time>2018-06-25T09:03:33.699Z</time>
      </trkpt>
      <trkpt lat="43.60869" lon="0.89177">
        <ele>167</ele>
        <time>2018-06-25T09:03:34.699Z</time>
      </trkpt>
      <trkpt lat="43.60937" lon="0.89145">
        <ele>169</ele>
        <time>2018-06-25T09:03:35.699Z</time>
      </trkpt>
      <trkpt lat="43.61092" lon="0.88956">
        <ele>167</ele>
        <time>2018-06-25T09:03:36.699Z</time>
      </trkpt>
      <trkpt lat="43.61183" lon="0.88867">
        <ele>167</ele>
        <time>2018-06-25T09:03:37.699Z</time>
      </trkpt>
      <trkpt lat="43.61308" lon="0.88774">
        <ele>174</ele>
        <time>2018-06-25T09:03:38.699Z</time>
      </trkpt>
      <trkpt lat="43.61385" lon="0.88698">
        <ele>177</ele>
        <time>2018-06-25T09:03:39.699Z</time>
      </trkpt>
      <trkpt lat="43.61727" lon="0.88451">
        <ele>189</ele>
        <time>2018-06-25T09:03:40.699Z</time>
      </trkpt>
      <trkpt lat="43.61912" lon="0.88345">
        <ele>200</ele>
        <time>2018-06-25T09:03:41.699Z</time>
      </trkpt>
      <trkpt lat="43.6201" lon="0.88255">
        <ele>202</ele>
        <time>2018-06-25T09:03:42.699Z</time>
      </trkpt>
      <trkpt lat="43.62089" lon="0.88196">
        <ele>203</ele>
        <time>2018-06-25T09:03:43.699Z</time>
      </trkpt>
      <trkpt lat="43.62154" lon="0.88136">
        <ele>203</ele>
        <time>2018-06-25T09:03:44.699Z</time>
      </trkpt>
      <trkpt lat="43.62207" lon="0.8811">
        <ele>202</ele>
        <time>2018-06-25T09:03:45.699Z</time>
      </trkpt>
      <trkpt lat="43.62275" lon="0.88114">
        <ele>200</ele>
        <time>2018-06-25T09:03:46.699Z</time>
      </trkpt>
      <trkpt lat="43.62295" lon="0.88078">
        <ele>198</ele>
        <time>2018-06-25T09:03:47.699Z</time>
      </trkpt>
      <trkpt lat="43.62369" lon="0.87893">
        <ele>195</ele>
        <time>2018-06-25T09:03:48.699Z</time>
      </trkpt>
      <trkpt lat="43.62395" lon="0.87806">
        <ele>192</ele>
        <time>2018-06-25T09:03:49.699Z</time>
      </trkpt>
      <trkpt lat="43.62413" lon="0.87828">
        <ele>194</ele>
        <time>2018-06-25T09:03:50.699Z</time>
      </trkpt>
      <trkpt lat="43.6247" lon="0.87784">
        <ele>189</ele>
        <time>2018-06-25T09:03:51.699Z</time>
      </trkpt>
      <trkpt lat="43.62502" lon="0.87737">
        <ele>186</ele>
        <time>2018-06-25T09:03:52.699Z</time>
      </trkpt>
      <trkpt lat="43.62503" lon="0.87748">
        <ele>186</ele>
        <time>2018-06-25T09:03:53.699Z</time>
      </trkpt>
      <trkpt lat="43.62543" lon="0.87786">
        <ele>186</ele>
        <time>2018-06-25T09:03:54.699Z</time>
      </trkpt>
      <trkpt lat="43.62543" lon="0.87796">
        <ele>186</ele>
        <time>2018-06-25T09:03:55.699Z</time>
      </trkpt>
      <trkpt lat="43.62489" lon="0.87891">
        <ele>189</ele>
        <time>2018-06-25T09:03:56.699Z</time>
      </trkpt>
      <trkpt lat="43.62544" lon="0.87959">
        <ele>180</ele>
        <time>2018-06-25T09:03:57.699Z</time>
      </trkpt>
      <trkpt lat="43.62551" lon="0.87958">
        <ele>179</ele>
        <time>2018-06-25T09:03:58.699Z</time>
      </trkpt>
      <trkpt lat="43.62633" lon="0.87868">
        <ele>175</ele>
        <time>2018-06-25T09:03:59.699Z</time>
      </trkpt>
      <trkpt lat="43.62687" lon="0.87796">
        <ele>173</ele>
        <time>2018-06-25T09:04:00.699Z</time>
      </trkpt>
      <trkpt lat="43.62704" lon="0.87795">
        <ele>172</ele>
        <time>2018-06-25T09:04:01.699Z</time>
      </trkpt>
      <trkpt lat="43.62716" lon="0.8781">
        <ele>170</ele>
        <time>2018-06-25T09:04:02.699Z</time>
      </trkpt>
      <trkpt lat="43.62707" lon="0.87791">
        <ele>172</ele>
        <time>2018-06-25T09:04:03.699Z</time>
      </trkpt>
      <trkpt lat="43.62706" lon="0.8777">
        <ele>172</ele>
        <time>2018-06-25T09:04:04.699Z</time>
      </trkpt>
      <trkpt lat="43.62825" lon="0.87581">
        <ele>166</ele>
        <time>2018-06-25T09:04:05.699Z</time>
      </trkpt>
      <trkpt lat="43.62781" lon="0.87549">
        <ele>174</ele>
        <time>2018-06-25T09:04:06.699Z</time>
      </trkpt>
      <trkpt lat="43.62737" lon="0.87502">
        <ele>181</ele>
        <time>2018-06-25T09:04:07.699Z</time>
      </trkpt>
      <trkpt lat="43.62731" lon="0.87487">
        <ele>180</ele>
        <time>2018-06-25T09:04:08.699Z</time>
      </trkpt>
      <trkpt lat="43.62721" lon="0.87486">
        <ele>179</ele>
        <time>2018-06-25T09:04:09.699Z</time>
      </trkpt>
      <trkpt lat="43.62655" lon="0.87418">
        <ele>170</ele>
        <time>2018-06-25T09:04:10.699Z</time>
      </trkpt>
      <trkpt lat="43.62655" lon="0.87408">
        <ele>169</ele>
        <time>2018-06-25T09:04:11.699Z</time>
      </trkpt>
      <trkpt lat="43.62679" lon="0.87364">
        <ele>166</ele>
        <time>2018-06-25T09:04:12.699Z</time>
      </trkpt>
      <trkpt lat="43.62775" lon="0.87236">
        <ele>158</ele>
        <time>2018-06-25T09:04:13.699Z</time>
      </trkpt>
      <trkpt lat="43.62775" lon="0.87227">
        <ele>157</ele>
        <time>2018-06-25T09:04:14.699Z</time>
      </trkpt>
      <trkpt lat="43.62692" lon="0.87155">
        <ele>158</ele>
        <time>2018-06-25T09:04:15.699Z</time>
      </trkpt>
      <trkpt lat="43.62539" lon="0.87061">
        <ele>154</ele>
        <time>2018-06-25T09:04:16.699Z</time>
      </trkpt>
      <trkpt lat="43.62533" lon="0.87048">
        <ele>153</ele>
        <time>2018-06-25T09:04:17.699Z</time>
      </trkpt>
      <trkpt lat="43.62534" lon="0.87021">
        <ele>151</ele>
        <time>2018-06-25T09:04:18.699Z</time>
      </trkpt>
      <trkpt lat="43.62563" lon="0.86905">
        <ele>148</ele>
        <time>2018-06-25T09:04:19.699Z</time>
      </trkpt>
      <trkpt lat="43.62567" lon="0.8682">
        <ele>147</ele>
        <time>2018-06-25T09:04:20.699Z</time>
      </trkpt>
      <trkpt lat="43.62577" lon="0.86815">
        <ele>147</ele>
        <time>2018-06-25T09:04:21.699Z</time>
      </trkpt>
      <trkpt lat="43.62736" lon="0.8686">
        <ele>148</ele>
        <time>2018-06-25T09:04:22.699Z</time>
      </trkpt>
      <trkpt lat="43.62756" lon="0.86848">
        <ele>149</ele>
        <time>2018-06-25T09:04:23.699Z</time>
      </trkpt>
      <trkpt lat="43.62806" lon="0.86865">
        <ele>148</ele>
        <time>2018-06-25T09:04:24.699Z</time>
      </trkpt>
      <trkpt lat="43.62943" lon="0.86948">
        <ele>148</ele>
        <time>2018-06-25T09:04:25.699Z</time>
      </trkpt>
      <trkpt lat="43.62953" lon="0.86947">
        <ele>149</ele>
        <time>2018-06-25T09:04:26.699Z</time>
      </trkpt>
      <trkpt lat="43.62984" lon="0.86855">
        <ele>149</ele>
        <time>2018-06-25T09:04:27.699Z</time>
      </trkpt>
      <trkpt lat="43.63023" lon="0.86699">
        <ele>150</ele>
        <time>2018-06-25T09:04:28.699Z</time>
      </trkpt>
      <trkpt lat="43.63057" lon="0.86603">
        <ele>152</ele>
        <time>2018-06-25T09:04:29.699Z</time>
      </trkpt>
      <trkpt lat="43.63073" lon="0.86575">
        <ele>153</ele>
        <time>2018-06-25T09:04:30.699Z</time>
      </trkpt>
      <trkpt lat="43.6311" lon="0.86463">
        <ele>157</ele>
        <time>2018-06-25T09:04:31.699Z</time>
      </trkpt>
      <trkpt lat="43.63108" lon="0.86448">
        <ele>157</ele>
        <time>2018-06-25T09:04:32.699Z</time>
      </trkpt>
      <trkpt lat="43.63062" lon="0.86402">
        <ele>156</ele>
        <time>2018-06-25T09:04:33.699Z</time>
      </trkpt>
      <trkpt lat="43.6303" lon="0.86356">
        <ele>156</ele>
        <time>2018-06-25T09:04:34.699Z</time>
      </trkpt>
      <trkpt lat="43.63019" lon="0.86329">
        <ele>156</ele>
        <time>2018-06-25T09:04:35.699Z</time>
      </trkpt>
      <trkpt lat="43.62974" lon="0.86105">
        <ele>161</ele>
        <time>2018-06-25T09:04:36.699Z</time>
      </trkpt>
      <trkpt lat="43.62977" lon="0.86006">
        <ele>161</ele>
        <time>2018-06-25T09:04:37.699Z</time>
      </trkpt>
      <trkpt lat="43.63035" lon="0.85759">
        <ele>164</ele>
        <time>2018-06-25T09:04:38.699Z</time>
      </trkpt>
      <trkpt lat="43.63033" lon="0.85714">
        <ele>163</ele>
        <time>2018-06-25T09:04:39.699Z</time>
      </trkpt>
      <trkpt lat="43.63006" lon="0.85587">
        <ele>164</ele>
        <time>2018-06-25T09:04:40.699Z</time>
      </trkpt>
      <trkpt lat="43.62993" lon="0.85494">
        <ele>165</ele>
        <time>2018-06-25T09:04:41.699Z</time>
      </trkpt>
      <trkpt lat="43.62939" lon="0.85425">
        <ele>169</ele>
        <time>2018-06-25T09:04:42.699Z</time>
      </trkpt>
      <trkpt lat="43.62904" lon="0.854">
        <ele>172</ele>
        <time>2018-06-25T09:04:43.699Z</time>
      </trkpt>
      <trkpt lat="43.62839" lon="0.85383">
        <ele>179</ele>
        <time>2018-06-25T09:04:44.699Z</time>
      </trkpt>
      <trkpt lat="43.62809" lon="0.85307">
        <ele>181</ele>
        <time>2018-06-25T09:04:45.699Z</time>
      </trkpt>
      <trkpt lat="43.62789" lon="0.85292">
        <ele>184</ele>
        <time>2018-06-25T09:04:46.699Z</time>
      </trkpt>
      <trkpt lat="43.62721" lon="0.85279">
        <ele>191</ele>
        <time>2018-06-25T09:04:47.699Z</time>
      </trkpt>
      <trkpt lat="43.62709" lon="0.85269">
        <ele>192</ele>
        <time>2018-06-25T09:04:48.699Z</time>
      </trkpt>
      <trkpt lat="43.62703" lon="0.85173">
        <ele>195</ele>
        <time>2018-06-25T09:04:49.699Z</time>
      </trkpt>
      <trkpt lat="43.6269" lon="0.8513">
        <ele>197</ele>
        <time>2018-06-25T09:04:50.699Z</time>
      </trkpt>
      <trkpt lat="43.62651" lon="0.85055">
        <ele>199</ele>
        <time>2018-06-25T09:04:51.699Z</time>
      </trkpt>
      <trkpt lat="43.62625" lon="0.84965">
        <ele>200</ele>
        <time>2018-06-25T09:04:52.699Z</time>
      </trkpt>
      <trkpt lat="43.62587" lon="0.8477">
        <ele>207</ele>
        <time>2018-06-25T09:04:53.699Z</time>
      </trkpt>
      <trkpt lat="43.62612" lon="0.84645">
        <ele>205</ele>
        <time>2018-06-25T09:04:54.699Z</time>
      </trkpt>
      <trkpt lat="43.6265" lon="0.84522">
        <ele>206</ele>
        <time>2018-06-25T09:04:55.699Z</time>
      </trkpt>
      <trkpt lat="43.62646" lon="0.84502">
        <ele>207</ele>
        <time>2018-06-25T09:04:56.699Z</time>
      </trkpt>
      <trkpt lat="43.62588" lon="0.84403">
        <ele>206</ele>
        <time>2018-06-25T09:04:57.699Z</time>
      </trkpt>
      <trkpt lat="43.62576" lon="0.84391">
        <ele>206</ele>
        <time>2018-06-25T09:04:58.699Z</time>
      </trkpt>
      <trkpt lat="43.62411" lon="0.84118">
        <ele>206</ele>
        <time>2018-06-25T09:04:59.699Z</time>
      </trkpt>
      <trkpt lat="43.62351" lon="0.83969">
        <ele>193</ele>
        <time>2018-06-25T09:05:00.699Z</time>
      </trkpt>
      <trkpt lat="43.62307" lon="0.83885">
        <ele>186</ele>
        <time>2018-06-25T09:05:01.699Z</time>
      </trkpt>
      <trkpt lat="43.62234" lon="0.83708">
        <ele>178</ele>
        <time>2018-06-25T09:05:02.699Z</time>
      </trkpt>
      <trkpt lat="43.62213" lon="0.83567">
        <ele>180</ele>
        <time>2018-06-25T09:05:03.699Z</time>
      </trkpt>
      <trkpt lat="43.62178" lon="0.83435">
        <ele>188</ele>
        <time>2018-06-25T09:05:04.699Z</time>
      </trkpt>
      <trkpt lat="43.62132" lon="0.83348">
        <ele>194</ele>
        <time>2018-06-25T09:05:05.699Z</time>
      </trkpt>
      <trkpt lat="43.62106" lon="0.83278">
        <ele>199</ele>
        <time>2018-06-25T09:05:06.699Z</time>
      </trkpt>
      <trkpt lat="43.62056" lon="0.83072">
        <ele>209</ele>
        <time>2018-06-25T09:05:07.699Z</time>
      </trkpt>
      <trkpt lat="43.62035" lon="0.82963">
        <ele>216</ele>
        <time>2018-06-25T09:05:08.699Z</time>
      </trkpt>
      <trkpt lat="43.62032" lon="0.82898">
        <ele>220</ele>
        <time>2018-06-25T09:05:09.699Z</time>
      </trkpt>
      <trkpt lat="43.62036" lon="0.82857">
        <ele>221</ele>
        <time>2018-06-25T09:05:10.699Z</time>
      </trkpt>
      <trkpt lat="43.6203" lon="0.8284">
        <ele>221</ele>
        <time>2018-06-25T09:05:11.699Z</time>
      </trkpt>
      <trkpt lat="43.62051" lon="0.82774">
        <ele>221</ele>
        <time>2018-06-25T09:05:12.699Z</time>
      </trkpt>
      <trkpt lat="43.62039" lon="0.826">
        <ele>213</ele>
        <time>2018-06-25T09:05:13.699Z</time>
      </trkpt>
      <trkpt lat="43.62034" lon="0.82374">
        <ele>208</ele>
        <time>2018-06-25T09:05:14.699Z</time>
      </trkpt>
      <trkpt lat="43.62019" lon="0.82119">
        <ele>200</ele>
        <time>2018-06-25T09:05:15.699Z</time>
      </trkpt>
      <trkpt lat="43.6203" lon="0.81957">
        <ele>197</ele>
        <time>2018-06-25T09:05:16.699Z</time>
      </trkpt>
      <trkpt lat="43.62057" lon="0.81877">
        <ele>197</ele>
        <time>2018-06-25T09:05:17.699Z</time>
      </trkpt>
      <trkpt lat="43.62095" lon="0.81817">
        <ele>198</ele>
        <time>2018-06-25T09:05:18.699Z</time>
      </trkpt>
      <trkpt lat="43.62083" lon="0.81794">
        <ele>197</ele>
        <time>2018-06-25T09:05:19.699Z</time>
      </trkpt>
      <trkpt lat="43.62079" lon="0.81776">
        <ele>198</ele>
        <time>2018-06-25T09:05:20.699Z</time>
      </trkpt>
      <trkpt lat="43.62091" lon="0.81566">
        <ele>207</ele>
        <time>2018-06-25T09:05:21.699Z</time>
      </trkpt>
      <trkpt lat="43.62116" lon="0.81353">
        <ele>214</ele>
        <time>2018-06-25T09:05:22.699Z</time>
      </trkpt>
      <trkpt lat="43.62111" lon="0.81137">
        <ele>224</ele>
        <time>2018-06-25T09:05:23.699Z</time>
      </trkpt>
      <trkpt lat="43.62097" lon="0.80972">
        <ele>231</ele>
        <time>2018-06-25T09:05:24.699Z</time>
      </trkpt>
      <trkpt lat="43.62079" lon="0.80926">
        <ele>229</ele>
        <time>2018-06-25T09:05:25.699Z</time>
      </trkpt>
      <trkpt lat="43.61957" lon="0.80787">
        <ele>220</ele>
        <time>2018-06-25T09:05:26.699Z</time>
      </trkpt>
      <trkpt lat="43.61837" lon="0.80569">
        <ele>230</ele>
        <time>2018-06-25T09:05:27.699Z</time>
      </trkpt>
      <trkpt lat="43.61822" lon="0.80511">
        <ele>231</ele>
        <time>2018-06-25T09:05:28.699Z</time>
      </trkpt>
      <trkpt lat="43.61801" lon="0.80375">
        <ele>230</ele>
        <time>2018-06-25T09:05:29.699Z</time>
      </trkpt>
      <trkpt lat="43.61808" lon="0.80307">
        <ele>230</ele>
        <time>2018-06-25T09:05:30.699Z</time>
      </trkpt>
      <trkpt lat="43.61923" lon="0.7981">
        <ele>220</ele>
        <time>2018-06-25T09:05:31.699Z</time>
      </trkpt>
      <trkpt lat="43.61969" lon="0.79651">
        <ele>215</ele>
        <time>2018-06-25T09:05:32.699Z</time>
      </trkpt>
      <trkpt lat="43.6198" lon="0.79524">
        <ele>212</ele>
        <time>2018-06-25T09:05:33.699Z</time>
      </trkpt>
      <trkpt lat="43.61966" lon="0.79421">
        <ele>209</ele>
        <time>2018-06-25T09:05:34.699Z</time>
      </trkpt>
      <trkpt lat="43.61937" lon="0.79296">
        <ele>205</ele>
        <time>2018-06-25T09:05:35.699Z</time>
      </trkpt>
      <trkpt lat="43.61928" lon="0.7918">
        <ele>202</ele>
        <time>2018-06-25T09:05:36.699Z</time>
      </trkpt>
      <trkpt lat="43.61933" lon="0.79113">
        <ele>201</ele>
        <time>2018-06-25T09:05:37.699Z</time>
      </trkpt>
      <trkpt lat="43.62021" lon="0.78613">
        <ele>200</ele>
        <time>2018-06-25T09:05:38.699Z</time>
      </trkpt>
      <trkpt lat="43.62027" lon="0.7854">
        <ele>199</ele>
        <time>2018-06-25T09:05:39.699Z</time>
      </trkpt>
      <trkpt lat="43.62019" lon="0.78336">
        <ele>198</ele>
        <time>2018-06-25T09:05:40.699Z</time>
      </trkpt>
      <trkpt lat="43.61963" lon="0.7831">
        <ele>199</ele>
        <time>2018-06-25T09:05:41.699Z</time>
      </trkpt>
      <trkpt lat="43.6195" lon="0.78284">
        <ele>198</ele>
        <time>2018-06-25T09:05:42.699Z</time>
      </trkpt>
      <trkpt lat="43.61893" lon="0.7808">
        <ele>195</ele>
        <time>2018-06-25T09:05:43.699Z</time>
      </trkpt>
      <trkpt lat="43.61895" lon="0.78038">
        <ele>195</ele>
        <time>2018-06-25T09:05:44.699Z</time>
      </trkpt>
      <trkpt lat="43.61925" lon="0.77859">
        <ele>194</ele>
        <time>2018-06-25T09:05:45.699Z</time>
      </trkpt>
      <trkpt lat="43.61923" lon="0.77817">
        <ele>193</ele>
        <time>2018-06-25T09:05:46.699Z</time>
      </trkpt>
      <trkpt lat="43.61915" lon="0.7778">
        <ele>193</ele>
        <time>2018-06-25T09:05:47.699Z</time>
      </trkpt>
      <trkpt lat="43.61824" lon="0.77673">
        <ele>182</ele>
        <time>2018-06-25T09:05:48.699Z</time>
      </trkpt>
      <trkpt lat="43.61803" lon="0.77623">
        <ele>177</ele>
        <time>2018-06-25T09:05:49.699Z</time>
      </trkpt>
      <trkpt lat="43.61799" lon="0.77578">
        <ele>175</ele>
        <time>2018-06-25T09:05:50.699Z</time>
      </trkpt>
      <trkpt lat="43.61821" lon="0.77427">
        <ele>167</ele>
        <time>2018-06-25T09:05:51.699Z</time>
      </trkpt>
      <trkpt lat="43.61819" lon="0.77403">
        <ele>164</ele>
        <time>2018-06-25T09:05:52.699Z</time>
      </trkpt>
      <trkpt lat="43.61809" lon="0.77382">
        <ele>162</ele>
        <time>2018-06-25T09:05:53.699Z</time>
      </trkpt>
      <trkpt lat="43.61651" lon="0.77225">
        <ele>159</ele>
        <time>2018-06-25T09:05:54.699Z</time>
      </trkpt>
      <trkpt lat="43.616" lon="0.77158">
        <ele>159</ele>
        <time>2018-06-25T09:05:55.699Z</time>
      </trkpt>
      <trkpt lat="43.61581" lon="0.77113">
        <ele>158</ele>
        <time>2018-06-25T09:05:56.699Z</time>
      </trkpt>
      <trkpt lat="43.61536" lon="0.77033">
        <ele>157</ele>
        <time>2018-06-25T09:05:57.699Z</time>
      </trkpt>
      <trkpt lat="43.6154" lon="0.77017">
        <ele>157</ele>
        <time>2018-06-25T09:05:58.699Z</time>
      </trkpt>
      <trkpt lat="43.61666" lon="0.76879">
        <ele>155</ele>
        <time>2018-06-25T09:05:59.699Z</time>
      </trkpt>
      <trkpt lat="43.61764" lon="0.76715">
        <ele>156</ele>
        <time>2018-06-25T09:06:00.699Z</time>
      </trkpt>
      <trkpt lat="43.61766" lon="0.76598">
        <ele>160</ele>
        <time>2018-06-25T09:06:01.699Z</time>
      </trkpt>
      <trkpt lat="43.61743" lon="0.76471">
        <ele>165</ele>
        <time>2018-06-25T09:06:02.699Z</time>
      </trkpt>
      <trkpt lat="43.61771" lon="0.76251">
        <ele>170</ele>
        <time>2018-06-25T09:06:03.699Z</time>
      </trkpt>
      <trkpt lat="43.61769" lon="0.76143">
        <ele>177</ele>
        <time>2018-06-25T09:06:04.699Z</time>
      </trkpt>
      <trkpt lat="43.61782" lon="0.76013">
        <ele>182</ele>
        <time>2018-06-25T09:06:05.699Z</time>
      </trkpt>
      <trkpt lat="43.61829" lon="0.75885">
        <ele>187</ele>
        <time>2018-06-25T09:06:06.699Z</time>
      </trkpt>
      <trkpt lat="43.6192" lon="0.75543">
        <ele>198</ele>
        <time>2018-06-25T09:06:07.699Z</time>
      </trkpt>
      <trkpt lat="43.61952" lon="0.75396">
        <ele>201</ele>
        <time>2018-06-25T09:06:08.699Z</time>
      </trkpt>
      <trkpt lat="43.61971" lon="0.7521">
        <ele>205</ele>
        <time>2018-06-25T09:06:09.699Z</time>
      </trkpt>
      <trkpt lat="43.61961" lon="0.74747">
        <ele>210</ele>
        <time>2018-06-25T09:06:10.699Z</time>
      </trkpt>
      <trkpt lat="43.61975" lon="0.74704">
        <ele>211</ele>
        <time>2018-06-25T09:06:11.699Z</time>
      </trkpt>
      <trkpt lat="43.62068" lon="0.74557">
        <ele>213</ele>
        <time>2018-06-25T09:06:12.699Z</time>
      </trkpt>
      <trkpt lat="43.62087" lon="0.74488">
        <ele>213</ele>
        <time>2018-06-25T09:06:13.699Z</time>
      </trkpt>
      <trkpt lat="43.62152" lon="0.74141">
        <ele>190</ele>
        <time>2018-06-25T09:06:14.699Z</time>
      </trkpt>
      <trkpt lat="43.62172" lon="0.74092">
        <ele>188</ele>
        <time>2018-06-25T09:06:15.699Z</time>
      </trkpt>
      <trkpt lat="43.62201" lon="0.7405">
        <ele>186</ele>
        <time>2018-06-25T09:06:16.699Z</time>
      </trkpt>
      <trkpt lat="43.62282" lon="0.73963">
        <ele>181</ele>
        <time>2018-06-25T09:06:17.699Z</time>
      </trkpt>
      <trkpt lat="43.62369" lon="0.73934">
        <ele>176</ele>
        <time>2018-06-25T09:06:18.699Z</time>
      </trkpt>
      <trkpt lat="43.62384" lon="0.73917">
        <ele>177</ele>
        <time>2018-06-25T09:06:19.699Z</time>
      </trkpt>
      <trkpt lat="43.62447" lon="0.73777">
        <ele>183</ele>
        <time>2018-06-25T09:06:20.699Z</time>
      </trkpt>
      <trkpt lat="43.6253" lon="0.73527">
        <ele>199</ele>
        <time>2018-06-25T09:06:21.699Z</time>
      </trkpt>
      <trkpt lat="43.62523" lon="0.73433">
        <ele>201</ele>
        <time>2018-06-25T09:06:22.699Z</time>
      </trkpt>
      <trkpt lat="43.62538" lon="0.73359">
        <ele>200</ele>
        <time>2018-06-25T09:06:23.699Z</time>
      </trkpt>
      <trkpt lat="43.62535" lon="0.73357">
        <ele>200</ele>
        <time>2018-06-25T09:06:24.699Z</time>
      </trkpt>
      <trkpt lat="43.62537" lon="0.73348">
        <ele>200</ele>
        <time>2018-06-25T09:06:25.699Z</time>
      </trkpt>
      <trkpt lat="43.62546" lon="0.73333">
        <ele>200</ele>
        <time>2018-06-25T09:06:26.699Z</time>
      </trkpt>
      <trkpt lat="43.62555" lon="0.73322">
        <ele>201</ele>
        <time>2018-06-25T09:06:27.699Z</time>
      </trkpt>
      <trkpt lat="43.6267" lon="0.73317">
        <ele>208</ele>
        <time>2018-06-25T09:06:28.699Z</time>
      </trkpt>
      <trkpt lat="43.62682" lon="0.73312">
        <ele>208</ele>
        <time>2018-06-25T09:06:29.699Z</time>
      </trkpt>
      <trkpt lat="43.62691" lon="0.73303">
        <ele>208</ele>
        <time>2018-06-25T09:06:30.699Z</time>
      </trkpt>
      <trkpt lat="43.62699" lon="0.7329">
        <ele>208</ele>
        <time>2018-06-25T09:06:31.699Z</time>
      </trkpt>
      <trkpt lat="43.62871" lon="0.7278">
        <ele>220</ele>
        <time>2018-06-25T09:06:32.699Z</time>
      </trkpt>
      <trkpt lat="43.62889" lon="0.72748">
        <ele>221</ele>
        <time>2018-06-25T09:06:33.699Z</time>
      </trkpt>
      <trkpt lat="43.62946" lon="0.72667">
        <ele>223</ele>
        <time>2018-06-25T09:06:34.699Z</time>
      </trkpt>
      <trkpt lat="43.63008" lon="0.72547">
        <ele>228</ele>
        <time>2018-06-25T09:06:35.699Z</time>
      </trkpt>
      <trkpt lat="43.63091" lon="0.72347">
        <ele>232</ele>
        <time>2018-06-25T09:06:36.699Z</time>
      </trkpt>
      <trkpt lat="43.63128" lon="0.72214">
        <ele>233</ele>
        <time>2018-06-25T09:06:37.699Z</time>
      </trkpt>
      <trkpt lat="43.63164" lon="0.71961">
        <ele>244</ele>
        <time>2018-06-25T09:06:38.699Z</time>
      </trkpt>
      <trkpt lat="43.63208" lon="0.71683">
        <ele>244</ele>
        <time>2018-06-25T09:06:39.699Z</time>
      </trkpt>
      <trkpt lat="43.6321" lon="0.71612">
        <ele>243</ele>
        <time>2018-06-25T09:06:40.699Z</time>
      </trkpt>
      <trkpt lat="43.63199" lon="0.71381">
        <ele>233</ele>
        <time>2018-06-25T09:06:41.699Z</time>
      </trkpt>
      <trkpt lat="43.63207" lon="0.71266">
        <ele>233</ele>
        <time>2018-06-25T09:06:42.699Z</time>
      </trkpt>
      <trkpt lat="43.63202" lon="0.71186">
        <ele>236</ele>
        <time>2018-06-25T09:06:43.699Z</time>
      </trkpt>
      <trkpt lat="43.63172" lon="0.71081">
        <ele>243</ele>
        <time>2018-06-25T09:06:44.699Z</time>
      </trkpt>
      <trkpt lat="43.63167" lon="0.71057">
        <ele>243</ele>
        <time>2018-06-25T09:06:45.699Z</time>
      </trkpt>
      <trkpt lat="43.63171" lon="0.70982">
        <ele>241</ele>
        <time>2018-06-25T09:06:46.699Z</time>
      </trkpt>
      <trkpt lat="43.63193" lon="0.70814">
        <ele>234</ele>
        <time>2018-06-25T09:06:47.699Z</time>
      </trkpt>
      <trkpt lat="43.63247" lon="0.70501">
        <ele>220</ele>
        <time>2018-06-25T09:06:48.699Z</time>
      </trkpt>
      <trkpt lat="43.63248" lon="0.70502">
        <ele>220</ele>
        <time>2018-06-25T09:06:49.699Z</time>
      </trkpt>
      <trkpt lat="43.63329" lon="0.70041">
        <ele>209</ele>
        <time>2018-06-25T09:06:50.699Z</time>
      </trkpt>
      <trkpt lat="43.6336" lon="0.69895">
        <ele>202</ele>
        <time>2018-06-25T09:06:51.699Z</time>
      </trkpt>
      <trkpt lat="43.63455" lon="0.69665">
        <ele>190</ele>
        <time>2018-06-25T09:06:52.699Z</time>
      </trkpt>
      <trkpt lat="43.63462" lon="0.69631">
        <ele>189</ele>
        <time>2018-06-25T09:06:53.699Z</time>
      </trkpt>
      <trkpt lat="43.63485" lon="0.69336">
        <ele>194</ele>
        <time>2018-06-25T09:06:54.699Z</time>
      </trkpt>
      <trkpt lat="43.6349" lon="0.6929">
        <ele>196</ele>
        <time>2018-06-25T09:06:55.699Z</time>
      </trkpt>
      <trkpt lat="43.63498" lon="0.69206">
        <ele>199</ele>
        <time>2018-06-25T09:06:56.699Z</time>
      </trkpt>
      <trkpt lat="43.63534" lon="0.69102">
        <ele>199</ele>
        <time>2018-06-25T09:06:57.699Z</time>
      </trkpt>
      <trkpt lat="43.63572" lon="0.69007">
        <ele>196</ele>
        <time>2018-06-25T09:06:58.699Z</time>
      </trkpt>
      <trkpt lat="43.63371" lon="0.68952">
        <ele>211</ele>
        <time>2018-06-25T09:06:59.699Z</time>
      </trkpt>
      <trkpt lat="43.6327" lon="0.68927">
        <ele>216</ele>
        <time>2018-06-25T09:07:00.699Z</time>
      </trkpt>
      <trkpt lat="43.63158" lon="0.68908">
        <ele>222</ele>
        <time>2018-06-25T09:07:01.699Z</time>
      </trkpt>
      <trkpt lat="43.63163" lon="0.68899">
        <ele>222</ele>
        <time>2018-06-25T09:07:02.699Z</time>
      </trkpt>
      <trkpt lat="43.6317" lon="0.68903">
        <ele>221</ele>
        <time>2018-06-25T09:07:03.699Z</time>
      </trkpt>
      <trkpt lat="43.63168" lon="0.6891">
        <ele>221</ele>
        <time>2018-06-25T09:07:04.699Z</time>
      </trkpt>
      <trkpt lat="43.63165" lon="0.68904">
        <ele>221</ele>
        <time>2018-06-25T09:07:05.699Z</time>
      </trkpt>
      <trkpt lat="43.63297" lon="0.68664">
        <ele>215</ele>
        <time>2018-06-25T09:07:06.699Z</time>
      </trkpt>
      <trkpt lat="43.63334" lon="0.68571">
        <ele>212</ele>
        <time>2018-06-25T09:07:07.699Z</time>
      </trkpt>
      <trkpt lat="43.63449" lon="0.68547">
        <ele>207</ele>
        <time>2018-06-25T09:07:08.699Z</time>
      </trkpt>
      <trkpt lat="43.63557" lon="0.6854">
        <ele>201</ele>
        <time>2018-06-25T09:07:09.699Z</time>
      </trkpt>
      <trkpt lat="43.63636" lon="0.685">
        <ele>196</ele>
        <time>2018-06-25T09:07:10.699Z</time>
      </trkpt>
      <trkpt lat="43.63676" lon="0.68463">
        <ele>197</ele>
        <time>2018-06-25T09:07:11.699Z</time>
      </trkpt>
      <trkpt lat="43.63731" lon="0.68322">
        <ele>202</ele>
        <time>2018-06-25T09:07:12.699Z</time>
      </trkpt>
      <trkpt lat="43.6374" lon="0.68275">
        <ele>205</ele>
        <time>2018-06-25T09:07:13.699Z</time>
      </trkpt>
      <trkpt lat="43.63842" lon="0.68167">
        <ele>207</ele>
        <time>2018-06-25T09:07:14.699Z</time>
      </trkpt>
      <trkpt lat="43.63929" lon="0.68031">
        <ele>204</ele>
        <time>2018-06-25T09:07:15.699Z</time>
      </trkpt>
      <trkpt lat="43.63942" lon="0.67999">
        <ele>204</ele>
        <time>2018-06-25T09:07:16.699Z</time>
      </trkpt>
      <trkpt lat="43.63993" lon="0.67914">
        <ele>200</ele>
        <time>2018-06-25T09:07:17.699Z</time>
      </trkpt>
      <trkpt lat="43.64051" lon="0.67772">
        <ele>194</ele>
        <time>2018-06-25T09:07:18.699Z</time>
      </trkpt>
      <trkpt lat="43.64086" lon="0.67653">
        <ele>186</ele>
        <time>2018-06-25T09:07:19.699Z</time>
      </trkpt>
      <trkpt lat="43.6411" lon="0.67621">
        <ele>183</ele>
        <time>2018-06-25T09:07:20.699Z</time>
      </trkpt>
      <trkpt lat="43.64145" lon="0.67516">
        <ele>175</ele>
        <time>2018-06-25T09:07:21.699Z</time>
      </trkpt>
      <trkpt lat="43.64172" lon="0.67472">
        <ele>172</ele>
        <time>2018-06-25T09:07:22.699Z</time>
      </trkpt>
      <trkpt lat="43.64195" lon="0.67378">
        <ele>168</ele>
        <time>2018-06-25T09:07:23.699Z</time>
      </trkpt>
      <trkpt lat="43.64215" lon="0.67155">
        <ele>177</ele>
        <time>2018-06-25T09:07:24.699Z</time>
      </trkpt>
      <trkpt lat="43.64219" lon="0.67055">
        <ele>181</ele>
        <time>2018-06-25T09:07:25.699Z</time>
      </trkpt>
      <trkpt lat="43.64244" lon="0.66984">
        <ele>182</ele>
        <time>2018-06-25T09:07:26.699Z</time>
      </trkpt>
      <trkpt lat="43.64243" lon="0.66952">
        <ele>184</ele>
        <time>2018-06-25T09:07:27.699Z</time>
      </trkpt>
      <trkpt lat="43.64202" lon="0.66762">
        <ele>195</ele>
        <time>2018-06-25T09:07:28.699Z</time>
      </trkpt>
      <trkpt lat="43.6419" lon="0.66355">
        <ele>226</ele>
        <time>2018-06-25T09:07:29.699Z</time>
      </trkpt>
      <trkpt lat="43.64208" lon="0.66252">
        <ele>232</ele>
        <time>2018-06-25T09:07:30.699Z</time>
      </trkpt>
      <trkpt lat="43.64218" lon="0.6625">
        <ele>232</ele>
        <time>2018-06-25T09:07:31.699Z</time>
      </trkpt>
      <trkpt lat="43.64259" lon="0.66283">
        <ele>229</ele>
        <time>2018-06-25T09:07:32.699Z</time>
      </trkpt>
      <trkpt lat="43.64283" lon="0.66278">
        <ele>231</ele>
        <time>2018-06-25T09:07:33.699Z</time>
      </trkpt>
      <trkpt lat="43.64336" lon="0.66286">
        <ele>234</ele>
        <time>2018-06-25T09:07:34.699Z</time>
      </trkpt>
      <trkpt lat="43.64377" lon="0.66248">
        <ele>234</ele>
        <time>2018-06-25T09:07:35.699Z</time>
      </trkpt>
      <trkpt lat="43.64429" lon="0.66229">
        <ele>233</ele>
        <time>2018-06-25T09:07:36.699Z</time>
      </trkpt>
      <trkpt lat="43.6453" lon="0.66138">
        <ele>231</ele>
        <time>2018-06-25T09:07:37.699Z</time>
      </trkpt>
      <trkpt lat="43.64601" lon="0.66054">
        <ele>235</ele>
        <time>2018-06-25T09:07:38.699Z</time>
      </trkpt>
      <trkpt lat="43.64631" lon="0.65998">
        <ele>234</ele>
        <time>2018-06-25T09:07:39.699Z</time>
      </trkpt>
      <trkpt lat="43.64648" lon="0.65944">
        <ele>235</ele>
        <time>2018-06-25T09:07:40.699Z</time>
      </trkpt>
      <trkpt lat="43.64703" lon="0.65872">
        <ele>231</ele>
        <time>2018-06-25T09:07:41.699Z</time>
      </trkpt>
      <trkpt lat="43.64733" lon="0.65805">
        <ele>231</ele>
        <time>2018-06-25T09:07:42.699Z</time>
      </trkpt>
      <trkpt lat="43.64747" lon="0.65796">
        <ele>231</ele>
        <time>2018-06-25T09:07:43.699Z</time>
      </trkpt>
      <trkpt lat="43.64806" lon="0.65721">
        <ele>226</ele>
        <time>2018-06-25T09:07:44.699Z</time>
      </trkpt>
      <trkpt lat="43.64849" lon="0.65718">
        <ele>222</ele>
        <time>2018-06-25T09:07:45.699Z</time>
      </trkpt>
      <trkpt lat="43.6488" lon="0.65741">
        <ele>217</ele>
        <time>2018-06-25T09:07:46.699Z</time>
      </trkpt>
      <trkpt lat="43.64886" lon="0.65759">
        <ele>215</ele>
        <time>2018-06-25T09:07:47.699Z</time>
      </trkpt>
      <trkpt lat="43.64955" lon="0.65779">
        <ele>209</ele>
        <time>2018-06-25T09:07:48.699Z</time>
      </trkpt>
      <trkpt lat="43.64967" lon="0.65775">
        <ele>210</ele>
        <time>2018-06-25T09:07:49.699Z</time>
      </trkpt>
      <trkpt lat="43.65113" lon="0.65538">
        <ele>218</ele>
        <time>2018-06-25T09:07:50.699Z</time>
      </trkpt>
      <trkpt lat="43.65148" lon="0.6546">
        <ele>219</ele>
        <time>2018-06-25T09:07:51.699Z</time>
      </trkpt>
      <trkpt lat="43.65202" lon="0.65276">
        <ele>226</ele>
        <time>2018-06-25T09:07:52.699Z</time>
      </trkpt>
      <trkpt lat="43.65244" lon="0.65048">
        <ele>232</ele>
        <time>2018-06-25T09:07:53.699Z</time>
      </trkpt>
      <trkpt lat="43.65238" lon="0.65035">
        <ele>229</ele>
        <time>2018-06-25T09:07:54.699Z</time>
      </trkpt>
      <trkpt lat="43.65247" lon="0.65044">
        <ele>232</ele>
        <time>2018-06-25T09:07:55.699Z</time>
      </trkpt>
      <trkpt lat="43.65277" lon="0.6502">
        <ele>232</ele>
        <time>2018-06-25T09:07:56.699Z</time>
      </trkpt>
      <trkpt lat="43.65311" lon="0.64977">
        <ele>232</ele>
        <time>2018-06-25T09:07:57.699Z</time>
      </trkpt>
      <trkpt lat="43.65325" lon="0.64948">
        <ele>232</ele>
        <time>2018-06-25T09:07:58.699Z</time>
      </trkpt>
      <trkpt lat="43.65336" lon="0.64893">
        <ele>229</ele>
        <time>2018-06-25T09:07:59.699Z</time>
      </trkpt>
      <trkpt lat="43.65338" lon="0.64849">
        <ele>226</ele>
        <time>2018-06-25T09:08:00.699Z</time>
      </trkpt>
      <trkpt lat="43.65298" lon="0.64735">
        <ele>216</ele>
        <time>2018-06-25T09:08:01.699Z</time>
      </trkpt>
      <trkpt lat="43.65268" lon="0.64686">
        <ele>214</ele>
        <time>2018-06-25T09:08:02.699Z</time>
      </trkpt>
      <trkpt lat="43.65234" lon="0.64651">
        <ele>213</ele>
        <time>2018-06-25T09:08:03.699Z</time>
      </trkpt>
      <trkpt lat="43.65229" lon="0.64662">
        <ele>212</ele>
        <time>2018-06-25T09:08:04.699Z</time>
      </trkpt>
      <trkpt lat="43.65232" lon="0.64677">
        <ele>212</ele>
        <time>2018-06-25T09:08:05.699Z</time>
      </trkpt>
      <trkpt lat="43.65227" lon="0.6469">
        <ele>209</ele>
        <time>2018-06-25T09:08:06.699Z</time>
      </trkpt>
      <trkpt lat="43.65204" lon="0.64686">
        <ele>206</ele>
        <time>2018-06-25T09:08:07.699Z</time>
      </trkpt>
      <trkpt lat="43.65161" lon="0.64613">
        <ele>207</ele>
        <time>2018-06-25T09:08:08.699Z</time>
      </trkpt>
      <trkpt lat="43.65146" lon="0.64547">
        <ele>206</ele>
        <time>2018-06-25T09:08:09.699Z</time>
      </trkpt>
      <trkpt lat="43.65152" lon="0.64499">
        <ele>209</ele>
        <time>2018-06-25T09:08:10.699Z</time>
      </trkpt>
      <trkpt lat="43.6517" lon="0.64449">
        <ele>205</ele>
        <time>2018-06-25T09:08:11.699Z</time>
      </trkpt>
      <trkpt lat="43.6519" lon="0.64413">
        <ele>199</ele>
        <time>2018-06-25T09:08:12.699Z</time>
      </trkpt>
      <trkpt lat="43.65195" lon="0.64373">
        <ele>193</ele>
        <time>2018-06-25T09:08:13.699Z</time>
      </trkpt>
      <trkpt lat="43.65177" lon="0.64325">
        <ele>187</ele>
        <time>2018-06-25T09:08:14.699Z</time>
      </trkpt>
      <trkpt lat="43.65119" lon="0.64217">
        <ele>171</ele>
        <time>2018-06-25T09:08:15.699Z</time>
      </trkpt>
      <trkpt lat="43.65009" lon="0.64054">
        <ele>151</ele>
        <time>2018-06-25T09:08:16.699Z</time>
      </trkpt>
      <trkpt lat="43.65007" lon="0.64035">
        <ele>150</ele>
        <time>2018-06-25T09:08:17.699Z</time>
      </trkpt>
      <trkpt lat="43.65058" lon="0.639">
        <ele>146</ele>
        <time>2018-06-25T09:08:18.699Z</time>
      </trkpt>
      <trkpt lat="43.6506" lon="0.63875">
        <ele>146</ele>
        <time>2018-06-25T09:08:19.699Z</time>
      </trkpt>
      <trkpt lat="43.65044" lon="0.63789">
        <ele>147</ele>
        <time>2018-06-25T09:08:20.699Z</time>
      </trkpt>
      <trkpt lat="43.65021" lon="0.63458">
        <ele>168</ele>
        <time>2018-06-25T09:08:21.699Z</time>
      </trkpt>
      <trkpt lat="43.65013" lon="0.63409">
        <ele>172</ele>
        <time>2018-06-25T09:08:22.699Z</time>
      </trkpt>
      <trkpt lat="43.65011" lon="0.63321">
        <ele>178</ele>
        <time>2018-06-25T09:08:23.699Z</time>
      </trkpt>
      <trkpt lat="43.65018" lon="0.63286">
        <ele>179</ele>
        <time>2018-06-25T09:08:24.699Z</time>
      </trkpt>
      <trkpt lat="43.65108" lon="0.63285">
        <ele>171</ele>
        <time>2018-06-25T09:08:25.699Z</time>
      </trkpt>
      <trkpt lat="43.65133" lon="0.6327">
        <ele>170</ele>
        <time>2018-06-25T09:08:26.699Z</time>
      </trkpt>
      <trkpt lat="43.65168" lon="0.63231">
        <ele>169</ele>
        <time>2018-06-25T09:08:27.699Z</time>
      </trkpt>
      <trkpt lat="43.65202" lon="0.63208">
        <ele>167</ele>
        <time>2018-06-25T09:08:28.699Z</time>
      </trkpt>
      <trkpt lat="43.65408" lon="0.63166">
        <ele>153</ele>
        <time>2018-06-25T09:08:29.699Z</time>
      </trkpt>
      <trkpt lat="43.65447" lon="0.63141">
        <ele>150</ele>
        <time>2018-06-25T09:08:30.699Z</time>
      </trkpt>
      <trkpt lat="43.6547" lon="0.63111">
        <ele>148</ele>
        <time>2018-06-25T09:08:31.699Z</time>
      </trkpt>
      <trkpt lat="43.65506" lon="0.63038">
        <ele>146</ele>
        <time>2018-06-25T09:08:32.699Z</time>
      </trkpt>
      <trkpt lat="43.65542" lon="0.62998">
        <ele>145</ele>
        <time>2018-06-25T09:08:33.699Z</time>
      </trkpt>
      <trkpt lat="43.65696" lon="0.62854">
        <ele>148</ele>
        <time>2018-06-25T09:08:34.699Z</time>
      </trkpt>
      <trkpt lat="43.65707" lon="0.62767">
        <ele>148</ele>
        <time>2018-06-25T09:08:35.699Z</time>
      </trkpt>
      <trkpt lat="43.6575" lon="0.62703">
        <ele>147</ele>
        <time>2018-06-25T09:08:36.699Z</time>
      </trkpt>
      <trkpt lat="43.65568" lon="0.61872">
        <ele>187</ele>
        <time>2018-06-25T09:08:37.699Z</time>
      </trkpt>
      <trkpt lat="43.65526" lon="0.61609">
        <ele>195</ele>
        <time>2018-06-25T09:08:38.699Z</time>
      </trkpt>
      <trkpt lat="43.65446" lon="0.61352">
        <ele>177</ele>
        <time>2018-06-25T09:08:39.699Z</time>
      </trkpt>
      <trkpt lat="43.65446" lon="0.6134">
        <ele>176</ele>
        <time>2018-06-25T09:08:40.699Z</time>
      </trkpt>
      <trkpt lat="43.65538" lon="0.61301">
        <ele>179</ele>
        <time>2018-06-25T09:08:41.699Z</time>
      </trkpt>
      <trkpt lat="43.65562" lon="0.61283">
        <ele>181</ele>
        <time>2018-06-25T09:08:42.699Z</time>
      </trkpt>
      <trkpt lat="43.65615" lon="0.61159">
        <ele>182</ele>
        <time>2018-06-25T09:08:43.699Z</time>
      </trkpt>
      <trkpt lat="43.65642" lon="0.61129">
        <ele>185</ele>
        <time>2018-06-25T09:08:44.699Z</time>
      </trkpt>
      <trkpt lat="43.6567" lon="0.61061">
        <ele>186</ele>
        <time>2018-06-25T09:08:45.699Z</time>
      </trkpt>
      <trkpt lat="43.65646" lon="0.61026">
        <ele>181</ele>
        <time>2018-06-25T09:08:46.699Z</time>
      </trkpt>
      <trkpt lat="43.65536" lon="0.6081">
        <ele>170</ele>
        <time>2018-06-25T09:08:47.699Z</time>
      </trkpt>
      <trkpt lat="43.65533" lon="0.60792">
        <ele>170</ele>
        <time>2018-06-25T09:08:48.699Z</time>
      </trkpt>
      <trkpt lat="43.65606" lon="0.60553">
        <ele>161</ele>
        <time>2018-06-25T09:08:49.699Z</time>
      </trkpt>
      <trkpt lat="43.65632" lon="0.60449">
        <ele>155</ele>
        <time>2018-06-25T09:08:50.699Z</time>
      </trkpt>
      <trkpt lat="43.65671" lon="0.60415">
        <ele>152</ele>
        <time>2018-06-25T09:08:51.699Z</time>
      </trkpt>
      <trkpt lat="43.65724" lon="0.59733">
        <ele>131</ele>
        <time>2018-06-25T09:08:52.699Z</time>
      </trkpt>
      <trkpt lat="43.65582" lon="0.59656">
        <ele>130</ele>
        <time>2018-06-25T09:08:53.699Z</time>
      </trkpt>
      <trkpt lat="43.65599" lon="0.59573">
        <ele>130</ele>
        <time>2018-06-25T09:08:54.699Z</time>
      </trkpt>
      <trkpt lat="43.65596" lon="0.59561">
        <ele>130</ele>
        <time>2018-06-25T09:08:55.699Z</time>
      </trkpt>
      <trkpt lat="43.65573" lon="0.59547">
        <ele>130</ele>
        <time>2018-06-25T09:08:56.699Z</time>
      </trkpt>
      <trkpt lat="43.65572" lon="0.59528">
        <ele>130</ele>
        <time>2018-06-25T09:08:57.699Z</time>
      </trkpt>
      <trkpt lat="43.65551" lon="0.59475">
        <ele>129</ele>
        <time>2018-06-25T09:08:58.699Z</time>
      </trkpt>
      <trkpt lat="43.65557" lon="0.59389">
        <ele>128</ele>
        <time>2018-06-25T09:08:59.699Z</time>
      </trkpt>
      <trkpt lat="43.65537" lon="0.59342">
        <ele>128</ele>
        <time>2018-06-25T09:09:00.699Z</time>
      </trkpt>
      <trkpt lat="43.65539" lon="0.59315">
        <ele>128</ele>
        <time>2018-06-25T09:09:01.699Z</time>
      </trkpt>
      <trkpt lat="43.65566" lon="0.59244">
        <ele>126</ele>
        <time>2018-06-25T09:09:02.699Z</time>
      </trkpt>
      <trkpt lat="43.65559" lon="0.59234">
        <ele>126</ele>
        <time>2018-06-25T09:09:03.699Z</time>
      </trkpt>
      <trkpt lat="43.65489" lon="0.5921">
        <ele>127</ele>
        <time>2018-06-25T09:09:04.699Z</time>
      </trkpt>
      <trkpt lat="43.65353" lon="0.59143">
        <ele>129</ele>
        <time>2018-06-25T09:09:05.699Z</time>
      </trkpt>
      <trkpt lat="43.65287" lon="0.59121">
        <ele>129</ele>
        <time>2018-06-25T09:09:06.699Z</time>
      </trkpt>
      <trkpt lat="43.65218" lon="0.59119">
        <ele>129</ele>
        <time>2018-06-25T09:09:07.699Z</time>
      </trkpt>
      <trkpt lat="43.65095" lon="0.59142">
        <ele>129</ele>
        <time>2018-06-25T09:09:08.699Z</time>
      </trkpt>
      <trkpt lat="43.65009" lon="0.5913">
        <ele>130</ele>
        <time>2018-06-25T09:09:09.699Z</time>
      </trkpt>
      <trkpt lat="43.6495" lon="0.59077">
        <ele>131</ele>
        <time>2018-06-25T09:09:10.699Z</time>
      </trkpt>
      <trkpt lat="43.64955" lon="0.59089">
        <ele>131</ele>
        <time>2018-06-25T09:09:11.699Z</time>
      </trkpt>
      <trkpt lat="43.64897" lon="0.59065">
        <ele>133</ele>
        <time>2018-06-25T09:09:12.699Z</time>
      </trkpt>
      <trkpt lat="43.64882" lon="0.59052">
        <ele>133</ele>
        <time>2018-06-25T09:09:13.699Z</time>
      </trkpt>
      <trkpt lat="43.64896" lon="0.58943">
        <ele>134</ele>
        <time>2018-06-25T09:09:14.699Z</time>
      </trkpt>
      <trkpt lat="43.64881" lon="0.58926">
        <ele>134</ele>
        <time>2018-06-25T09:09:15.699Z</time>
      </trkpt>
      <trkpt lat="43.64524" lon="0.58769">
        <ele>135</ele>
        <time>2018-06-25T09:09:16.699Z</time>
      </trkpt>
      <trkpt lat="43.64525" lon="0.58748">
        <ele>137</ele>
        <time>2018-06-25T09:09:17.699Z</time>
      </trkpt>
      <trkpt lat="43.64681" lon="0.58762">
        <ele>147</ele>
        <time>2018-06-25T09:09:18.699Z</time>
      </trkpt>
      <trkpt lat="43.64697" lon="0.58744">
        <ele>151</ele>
        <time>2018-06-25T09:09:19.699Z</time>
      </trkpt>
      <trkpt lat="43.64706" lon="0.58693">
        <ele>161</ele>
        <time>2018-06-25T09:09:20.699Z</time>
      </trkpt>
      <trkpt lat="43.64717" lon="0.58693">
        <ele>161</ele>
        <time>2018-06-25T09:09:21.699Z</time>
      </trkpt>
      <trkpt lat="43.64788" lon="0.58746">
        <ele>153</ele>
        <time>2018-06-25T09:09:22.699Z</time>
      </trkpt>
      <trkpt lat="43.64798" lon="0.58744">
        <ele>154</ele>
        <time>2018-06-25T09:09:23.699Z</time>
      </trkpt>
      <trkpt lat="43.64824" lon="0.5871">
        <ele>159</ele>
        <time>2018-06-25T09:09:24.699Z</time>
      </trkpt>
      <trkpt lat="43.64795" lon="0.5867">
        <ele>164</ele>
        <time>2018-06-25T09:09:25.699Z</time>
      </trkpt>
      <trkpt lat="43.64779" lon="0.58659">
        <ele>166</ele>
        <time>2018-06-25T09:09:26.699Z</time>
      </trkpt>
      <trkpt lat="43.64766" lon="0.58634">
        <ele>168</ele>
        <time>2018-06-25T09:09:27.699Z</time>
      </trkpt>
      <trkpt lat="43.64749" lon="0.5862">
        <ele>169</ele>
        <time>2018-06-25T09:09:28.699Z</time>
      </trkpt>
      <trkpt lat="43.64745" lon="0.58587">
        <ele>172</ele>
        <time>2018-06-25T09:09:29.699Z</time>
      </trkpt>
      <trkpt lat="43.64734" lon="0.58561">
        <ele>172</ele>
        <time>2018-06-25T09:09:30.699Z</time>
      </trkpt>
      <trkpt lat="43.64696" lon="0.58527">
        <ele>174</ele>
        <time>2018-06-25T09:09:31.699Z</time>
      </trkpt>
      <trkpt lat="43.64663" lon="0.58519">
        <ele>174</ele>
        <time>2018-06-25T09:09:32.699Z</time>
      </trkpt>
      <trkpt lat="43.6465" lon="0.585">
        <ele>175</ele>
        <time>2018-06-25T09:09:33.699Z</time>
      </trkpt>
      <trkpt lat="43.64645" lon="0.58469">
        <ele>175</ele>
        <time>2018-06-25T09:09:34.699Z</time>
      </trkpt>
      <trkpt lat="43.6465" lon="0.58447">
        <ele>175</ele>
        <time>2018-06-25T09:09:35.699Z</time>
      </trkpt>
      <trkpt lat="43.64694" lon="0.58376">
        <ele>174</ele>
        <time>2018-06-25T09:09:36.699Z</time>
      </trkpt>
      <trkpt lat="43.64697" lon="0.58358">
        <ele>175</ele>
        <time>2018-06-25T09:09:37.699Z</time>
      </trkpt>
      <trkpt lat="43.64668" lon="0.58319">
        <ele>176</ele>
        <time>2018-06-25T09:09:38.699Z</time>
      </trkpt>
      <trkpt lat="43.64536" lon="0.58243">
        <ele>155</ele>
        <time>2018-06-25T09:09:39.699Z</time>
      </trkpt>
      <trkpt lat="43.64551" lon="0.58192">
        <ele>155</ele>
        <time>2018-06-25T09:09:40.699Z</time>
      </trkpt>
      <trkpt lat="43.64563" lon="0.58031">
        <ele>150</ele>
        <time>2018-06-25T09:09:41.699Z</time>
      </trkpt>
      <trkpt lat="43.64591" lon="0.57835">
        <ele>147</ele>
        <time>2018-06-25T09:09:42.699Z</time>
      </trkpt>
      <trkpt lat="43.64603" lon="0.57662">
        <ele>154</ele>
        <time>2018-06-25T09:09:43.699Z</time>
      </trkpt>
      <trkpt lat="43.6464" lon="0.57484">
        <ele>156</ele>
        <time>2018-06-25T09:09:44.699Z</time>
      </trkpt>
      <trkpt lat="43.64639" lon="0.57458">
        <ele>156</ele>
        <time>2018-06-25T09:09:45.699Z</time>
      </trkpt>
      <trkpt lat="43.64628" lon="0.57428">
        <ele>155</ele>
        <time>2018-06-25T09:09:46.699Z</time>
      </trkpt>
      <trkpt lat="43.64562" lon="0.57354">
        <ele>161</ele>
        <time>2018-06-25T09:09:47.699Z</time>
      </trkpt>
      <trkpt lat="43.6451" lon="0.57317">
        <ele>163</ele>
        <time>2018-06-25T09:09:48.699Z</time>
      </trkpt>
      <trkpt lat="43.64501" lon="0.57258">
        <ele>164</ele>
        <time>2018-06-25T09:09:49.699Z</time>
      </trkpt>
      <trkpt lat="43.64503" lon="0.5711">
        <ele>169</ele>
        <time>2018-06-25T09:09:50.699Z</time>
      </trkpt>
      <trkpt lat="43.64512" lon="0.57015">
        <ele>174</ele>
        <time>2018-06-25T09:09:51.699Z</time>
      </trkpt>
      <trkpt lat="43.64543" lon="0.56857">
        <ele>181</ele>
        <time>2018-06-25T09:09:52.699Z</time>
      </trkpt>
      <trkpt lat="43.64547" lon="0.56777">
        <ele>183</ele>
        <time>2018-06-25T09:09:53.699Z</time>
      </trkpt>
      <trkpt lat="43.64561" lon="0.5669">
        <ele>187</ele>
        <time>2018-06-25T09:09:54.699Z</time>
      </trkpt>
      <trkpt lat="43.64582" lon="0.56459">
        <ele>200</ele>
        <time>2018-06-25T09:09:55.699Z</time>
      </trkpt>
      <trkpt lat="43.64626" lon="0.56342">
        <ele>205</ele>
        <time>2018-06-25T09:09:56.699Z</time>
      </trkpt>
      <trkpt lat="43.64631" lon="0.56303">
        <ele>206</ele>
        <time>2018-06-25T09:09:57.699Z</time>
      </trkpt>
      <trkpt lat="43.64624" lon="0.56251">
        <ele>206</ele>
        <time>2018-06-25T09:09:58.699Z</time>
      </trkpt>
      <trkpt lat="43.64609" lon="0.56196">
        <ele>203</ele>
        <time>2018-06-25T09:09:59.699Z</time>
      </trkpt>
      <trkpt lat="43.64608" lon="0.56037">
        <ele>194</ele>
        <time>2018-06-25T09:10:00.699Z</time>
      </trkpt>
      <trkpt lat="43.64566" lon="0.55944">
        <ele>189</ele>
        <time>2018-06-25T09:10:01.699Z</time>
      </trkpt>
      <trkpt lat="43.64554" lon="0.55903">
        <ele>187</ele>
        <time>2018-06-25T09:10:02.699Z</time>
      </trkpt>
      <trkpt lat="43.64557" lon="0.55838">
        <ele>188</ele>
        <time>2018-06-25T09:10:03.699Z</time>
      </trkpt>
      <trkpt lat="43.64543" lon="0.55778">
        <ele>187</ele>
        <time>2018-06-25T09:10:04.699Z</time>
      </trkpt>
      <trkpt lat="43.64523" lon="0.55745">
        <ele>184</ele>
        <time>2018-06-25T09:10:05.699Z</time>
      </trkpt>
      <trkpt lat="43.6445" lon="0.55682">
        <ele>175</ele>
        <time>2018-06-25T09:10:06.699Z</time>
      </trkpt>
      <trkpt lat="43.64438" lon="0.55648">
        <ele>173</ele>
        <time>2018-06-25T09:10:07.699Z</time>
      </trkpt>
      <trkpt lat="43.64435" lon="0.55554">
        <ele>169</ele>
        <time>2018-06-25T09:10:08.699Z</time>
      </trkpt>
      <trkpt lat="43.64456" lon="0.55459">
        <ele>168</ele>
        <time>2018-06-25T09:10:09.699Z</time>
      </trkpt>
      <trkpt lat="43.64475" lon="0.55299">
        <ele>171</ele>
        <time>2018-06-25T09:10:10.699Z</time>
      </trkpt>
      <trkpt lat="43.64505" lon="0.54842">
        <ele>177</ele>
        <time>2018-06-25T09:10:11.699Z</time>
      </trkpt>
      <trkpt lat="43.64505" lon="0.54781">
        <ele>179</ele>
        <time>2018-06-25T09:10:12.699Z</time>
      </trkpt>
      <trkpt lat="43.64523" lon="0.54689">
        <ele>182</ele>
        <time>2018-06-25T09:10:13.699Z</time>
      </trkpt>
      <trkpt lat="43.64531" lon="0.54596">
        <ele>189</ele>
        <time>2018-06-25T09:10:14.699Z</time>
      </trkpt>
      <trkpt lat="43.64527" lon="0.54475">
        <ele>198</ele>
        <time>2018-06-25T09:10:15.699Z</time>
      </trkpt>
      <trkpt lat="43.64511" lon="0.5434">
        <ele>209</ele>
        <time>2018-06-25T09:10:16.699Z</time>
      </trkpt>
      <trkpt lat="43.64499" lon="0.54283">
        <ele>213</ele>
        <time>2018-06-25T09:10:17.699Z</time>
      </trkpt>
      <trkpt lat="43.64512" lon="0.5417">
        <ele>220</ele>
        <time>2018-06-25T09:10:18.699Z</time>
      </trkpt>
      <trkpt lat="43.64527" lon="0.54122">
        <ele>224</ele>
        <time>2018-06-25T09:10:19.699Z</time>
      </trkpt>
      <trkpt lat="43.64574" lon="0.54027">
        <ele>236</ele>
        <time>2018-06-25T09:10:20.699Z</time>
      </trkpt>
      <trkpt lat="43.64597" lon="0.5395">
        <ele>243</ele>
        <time>2018-06-25T09:10:21.699Z</time>
      </trkpt>
      <trkpt lat="43.64631" lon="0.53871">
        <ele>240</ele>
        <time>2018-06-25T09:10:22.699Z</time>
      </trkpt>
      <trkpt lat="43.64675" lon="0.53793">
        <ele>240</ele>
        <time>2018-06-25T09:10:23.699Z</time>
      </trkpt>
      <trkpt lat="43.64728" lon="0.53722">
        <ele>240</ele>
        <time>2018-06-25T09:10:24.699Z</time>
      </trkpt>
      <trkpt lat="43.64902" lon="0.53558">
        <ele>251</ele>
        <time>2018-06-25T09:10:25.699Z</time>
      </trkpt>
      <trkpt lat="43.65008" lon="0.53394">
        <ele>256</ele>
        <time>2018-06-25T09:10:26.699Z</time>
      </trkpt>
      <trkpt lat="43.65076" lon="0.53318">
        <ele>260</ele>
        <time>2018-06-25T09:10:27.699Z</time>
      </trkpt>
      <trkpt lat="43.65134" lon="0.53204">
        <ele>259</ele>
        <time>2018-06-25T09:10:28.699Z</time>
      </trkpt>
      <trkpt lat="43.65155" lon="0.53138">
        <ele>260</ele>
        <time>2018-06-25T09:10:29.699Z</time>
      </trkpt>
      <trkpt lat="43.65156" lon="0.53077">
        <ele>261</ele>
        <time>2018-06-25T09:10:30.699Z</time>
      </trkpt>
      <trkpt lat="43.65058" lon="0.52955">
        <ele>263</ele>
        <time>2018-06-25T09:10:31.699Z</time>
      </trkpt>
      <trkpt lat="43.65056" lon="0.5293">
        <ele>263</ele>
        <time>2018-06-25T09:10:32.699Z</time>
      </trkpt>
      <trkpt lat="43.65067" lon="0.52835">
        <ele>268</ele>
        <time>2018-06-25T09:10:33.699Z</time>
      </trkpt>
      <trkpt lat="43.6516" lon="0.52561">
        <ele>277</ele>
        <time>2018-06-25T09:10:34.699Z</time>
      </trkpt>
      <trkpt lat="43.6528" lon="0.52307">
        <ele>277</ele>
        <time>2018-06-25T09:10:35.699Z</time>
      </trkpt>
      <trkpt lat="43.65298" lon="0.52251">
        <ele>278</ele>
        <time>2018-06-25T09:10:36.699Z</time>
      </trkpt>
      <trkpt lat="43.65312" lon="0.52144">
        <ele>281</ele>
        <time>2018-06-25T09:10:37.699Z</time>
      </trkpt>
      <trkpt lat="43.65306" lon="0.52066">
        <ele>281</ele>
        <time>2018-06-25T09:10:38.699Z</time>
      </trkpt>
      <trkpt lat="43.65291" lon="0.51967">
        <ele>280</ele>
        <time>2018-06-25T09:10:39.699Z</time>
      </trkpt>
      <trkpt lat="43.6534" lon="0.51693">
        <ele>283</ele>
        <time>2018-06-25T09:10:40.699Z</time>
      </trkpt>
      <trkpt lat="43.65374" lon="0.51556">
        <ele>281</ele>
        <time>2018-06-25T09:10:41.699Z</time>
      </trkpt>
      <trkpt lat="43.65392" lon="0.51411">
        <ele>281</ele>
        <time>2018-06-25T09:10:42.699Z</time>
      </trkpt>
      <trkpt lat="43.65397" lon="0.51289">
        <ele>281</ele>
        <time>2018-06-25T09:10:43.699Z</time>
      </trkpt>
      <trkpt lat="43.65388" lon="0.51103">
        <ele>277</ele>
        <time>2018-06-25T09:10:44.699Z</time>
      </trkpt>
      <trkpt lat="43.65376" lon="0.51045">
        <ele>276</ele>
        <time>2018-06-25T09:10:45.699Z</time>
      </trkpt>
      <trkpt lat="43.65357" lon="0.5084">
        <ele>274</ele>
        <time>2018-06-25T09:10:46.699Z</time>
      </trkpt>
      <trkpt lat="43.65357" lon="0.50777">
        <ele>271</ele>
        <time>2018-06-25T09:10:47.699Z</time>
      </trkpt>
      <trkpt lat="43.6539" lon="0.50616">
        <ele>272</ele>
        <time>2018-06-25T09:10:48.699Z</time>
      </trkpt>
      <trkpt lat="43.65406" lon="0.5057">
        <ele>272</ele>
        <time>2018-06-25T09:10:49.699Z</time>
      </trkpt>
      <trkpt lat="43.65533" lon="0.50355">
        <ele>268</ele>
        <time>2018-06-25T09:10:50.699Z</time>
      </trkpt>
      <trkpt lat="43.65601" lon="0.50184">
        <ele>263</ele>
        <time>2018-06-25T09:10:51.699Z</time>
      </trkpt>
      <trkpt lat="43.65642" lon="0.4996">
        <ele>258</ele>
        <time>2018-06-25T09:10:52.699Z</time>
      </trkpt>
      <trkpt lat="43.65642" lon="0.49936">
        <ele>258</ele>
        <time>2018-06-25T09:10:53.699Z</time>
      </trkpt>
      <trkpt lat="43.65557" lon="0.49807">
        <ele>259</ele>
        <time>2018-06-25T09:10:54.699Z</time>
      </trkpt>
      <trkpt lat="43.65519" lon="0.49734">
        <ele>258</ele>
        <time>2018-06-25T09:10:55.699Z</time>
      </trkpt>
      <trkpt lat="43.65445" lon="0.49618">
        <ele>254</ele>
        <time>2018-06-25T09:10:56.699Z</time>
      </trkpt>
      <trkpt lat="43.65287" lon="0.49466">
        <ele>262</ele>
        <time>2018-06-25T09:10:57.699Z</time>
      </trkpt>
      <trkpt lat="43.65217" lon="0.49411">
        <ele>258</ele>
        <time>2018-06-25T09:10:58.699Z</time>
      </trkpt>
      <trkpt lat="43.65066" lon="0.49336">
        <ele>246</ele>
        <time>2018-06-25T09:10:59.699Z</time>
      </trkpt>
      <trkpt lat="43.65025" lon="0.49326">
        <ele>245</ele>
        <time>2018-06-25T09:11:00.699Z</time>
      </trkpt>
      <trkpt lat="43.64836" lon="0.49324">
        <ele>243</ele>
        <time>2018-06-25T09:11:01.699Z</time>
      </trkpt>
      <trkpt lat="43.64751" lon="0.49305">
        <ele>251</ele>
        <time>2018-06-25T09:11:02.699Z</time>
      </trkpt>
      <trkpt lat="43.64724" lon="0.49284">
        <ele>249</ele>
        <time>2018-06-25T09:11:03.699Z</time>
      </trkpt>
      <trkpt lat="43.64625" lon="0.49114">
        <ele>241</ele>
        <time>2018-06-25T09:11:04.699Z</time>
      </trkpt>
      <trkpt lat="43.64502" lon="0.49085">
        <ele>247</ele>
        <time>2018-06-25T09:11:05.699Z</time>
      </trkpt>
      <trkpt lat="43.6439" lon="0.48914">
        <ele>248</ele>
        <time>2018-06-25T09:11:06.699Z</time>
      </trkpt>
      <trkpt lat="43.64354" lon="0.4888">
        <ele>247</ele>
        <time>2018-06-25T09:11:07.699Z</time>
      </trkpt>
      <trkpt lat="43.64324" lon="0.4887">
        <ele>246</ele>
        <time>2018-06-25T09:11:08.699Z</time>
      </trkpt>
      <trkpt lat="43.64305" lon="0.48878">
        <ele>243</ele>
        <time>2018-06-25T09:11:09.699Z</time>
      </trkpt>
      <trkpt lat="43.64224" lon="0.48939">
        <ele>239</ele>
        <time>2018-06-25T09:11:10.699Z</time>
      </trkpt>
      <trkpt lat="43.64192" lon="0.48944">
        <ele>239</ele>
        <time>2018-06-25T09:11:11.699Z</time>
      </trkpt>
      <trkpt lat="43.64032" lon="0.48893">
        <ele>236</ele>
        <time>2018-06-25T09:11:12.699Z</time>
      </trkpt>
      <trkpt lat="43.6397" lon="0.48827">
        <ele>230</ele>
        <time>2018-06-25T09:11:13.699Z</time>
      </trkpt>
      <trkpt lat="43.63893" lon="0.48816">
        <ele>228</ele>
        <time>2018-06-25T09:11:14.699Z</time>
      </trkpt>
      <trkpt lat="43.63893" lon="0.48799">
        <ele>229</ele>
        <time>2018-06-25T09:11:15.699Z</time>
      </trkpt>
      <trkpt lat="43.6385" lon="0.48774">
        <ele>233</ele>
        <time>2018-06-25T09:11:16.699Z</time>
      </trkpt>
      <trkpt lat="43.63818" lon="0.48772">
        <ele>233</ele>
        <time>2018-06-25T09:11:17.699Z</time>
      </trkpt>
      <trkpt lat="43.63799" lon="0.48749">
        <ele>234</ele>
        <time>2018-06-25T09:11:18.699Z</time>
      </trkpt>
      <trkpt lat="43.63769" lon="0.48758">
        <ele>232</ele>
        <time>2018-06-25T09:11:19.699Z</time>
      </trkpt>
      <trkpt lat="43.63729" lon="0.48731">
        <ele>227</ele>
        <time>2018-06-25T09:11:20.699Z</time>
      </trkpt>
      <trkpt lat="43.63684" lon="0.48721">
        <ele>222</ele>
        <time>2018-06-25T09:11:21.699Z</time>
      </trkpt>
      <trkpt lat="43.63674" lon="0.48711">
        <ele>221</ele>
        <time>2018-06-25T09:11:22.699Z</time>
      </trkpt>
      <trkpt lat="43.63665" lon="0.48688">
        <ele>222</ele>
        <time>2018-06-25T09:11:23.699Z</time>
      </trkpt>
      <trkpt lat="43.63677" lon="0.48642">
        <ele>221</ele>
        <time>2018-06-25T09:11:24.699Z</time>
      </trkpt>
      <trkpt lat="43.63754" lon="0.48485">
        <ele>207</ele>
        <time>2018-06-25T09:11:25.699Z</time>
      </trkpt>
      <trkpt lat="43.63769" lon="0.48428">
        <ele>206</ele>
        <time>2018-06-25T09:11:26.699Z</time>
      </trkpt>
      <trkpt lat="43.63789" lon="0.48383">
        <ele>203</ele>
        <time>2018-06-25T09:11:27.699Z</time>
      </trkpt>
      <trkpt lat="43.63805" lon="0.48311">
        <ele>196</ele>
        <time>2018-06-25T09:11:28.699Z</time>
      </trkpt>
      <trkpt lat="43.63799" lon="0.4827">
        <ele>193</ele>
        <time>2018-06-25T09:11:29.699Z</time>
      </trkpt>
      <trkpt lat="43.63793" lon="0.47985">
        <ele>172</ele>
        <time>2018-06-25T09:11:30.699Z</time>
      </trkpt>
      <trkpt lat="43.63799" lon="0.47953">
        <ele>171</ele>
        <time>2018-06-25T09:11:31.699Z</time>
      </trkpt>
      <trkpt lat="43.63821" lon="0.47928">
        <ele>171</ele>
        <time>2018-06-25T09:11:32.699Z</time>
      </trkpt>
      <trkpt lat="43.63765" lon="0.47766">
        <ele>171</ele>
        <time>2018-06-25T09:11:33.699Z</time>
      </trkpt>
      <trkpt lat="43.63749" lon="0.4777">
        <ele>172</ele>
        <time>2018-06-25T09:11:34.699Z</time>
      </trkpt>
      <trkpt lat="43.63615" lon="0.47877">
        <ele>171</ele>
        <time>2018-06-25T09:11:35.699Z</time>
      </trkpt>
      <trkpt lat="43.6352" lon="0.47928">
        <ele>170</ele>
        <time>2018-06-25T09:11:36.699Z</time>
      </trkpt>
      <trkpt lat="43.63403" lon="0.47957">
        <ele>174</ele>
        <time>2018-06-25T09:11:37.699Z</time>
      </trkpt>
      <trkpt lat="43.63396" lon="0.47915">
        <ele>177</ele>
        <time>2018-06-25T09:11:38.699Z</time>
      </trkpt>
      <trkpt lat="43.6339" lon="0.47717">
        <ele>186</ele>
        <time>2018-06-25T09:11:39.699Z</time>
      </trkpt>
      <trkpt lat="43.63382" lon="0.47685">
        <ele>188</ele>
        <time>2018-06-25T09:11:40.699Z</time>
      </trkpt>
      <trkpt lat="43.63366" lon="0.47546">
        <ele>195</ele>
        <time>2018-06-25T09:11:41.699Z</time>
      </trkpt>
      <trkpt lat="43.63382" lon="0.47493">
        <ele>196</ele>
        <time>2018-06-25T09:11:42.699Z</time>
      </trkpt>
      <trkpt lat="43.6334" lon="0.47365">
        <ele>202</ele>
        <time>2018-06-25T09:11:43.699Z</time>
      </trkpt>
      <trkpt lat="43.6332" lon="0.47119">
        <ele>216</ele>
        <time>2018-06-25T09:11:44.699Z</time>
      </trkpt>
      <trkpt lat="43.63301" lon="0.46981">
        <ele>223</ele>
        <time>2018-06-25T09:11:45.699Z</time>
      </trkpt>
      <trkpt lat="43.63288" lon="0.46926">
        <ele>228</ele>
        <time>2018-06-25T09:11:46.699Z</time>
      </trkpt>
      <trkpt lat="43.63267" lon="0.46897">
        <ele>231</ele>
        <time>2018-06-25T09:11:47.699Z</time>
      </trkpt>
      <trkpt lat="43.6321" lon="0.46882">
        <ele>232</ele>
        <time>2018-06-25T09:11:48.699Z</time>
      </trkpt>
      <trkpt lat="43.63205" lon="0.46873">
        <ele>233</ele>
        <time>2018-06-25T09:11:49.699Z</time>
      </trkpt>
      <trkpt lat="43.63243" lon="0.46766">
        <ele>240</ele>
        <time>2018-06-25T09:11:50.699Z</time>
      </trkpt>
      <trkpt lat="43.63274" lon="0.46656">
        <ele>245</ele>
        <time>2018-06-25T09:11:51.699Z</time>
      </trkpt>
      <trkpt lat="43.63286" lon="0.46579">
        <ele>247</ele>
        <time>2018-06-25T09:11:52.699Z</time>
      </trkpt>
      <trkpt lat="43.6334" lon="0.46434">
        <ele>248</ele>
        <time>2018-06-25T09:11:53.699Z</time>
      </trkpt>
      <trkpt lat="43.63393" lon="0.46358">
        <ele>247</ele>
        <time>2018-06-25T09:11:54.699Z</time>
      </trkpt>
      <trkpt lat="43.63442" lon="0.46239">
        <ele>248</ele>
        <time>2018-06-25T09:11:55.699Z</time>
      </trkpt>
      <trkpt lat="43.63449" lon="0.46192">
        <ele>247</ele>
        <time>2018-06-25T09:11:56.699Z</time>
      </trkpt>
      <trkpt lat="43.63485" lon="0.46095">
        <ele>247</ele>
        <time>2018-06-25T09:11:57.699Z</time>
      </trkpt>
      <trkpt lat="43.63556" lon="0.46007">
        <ele>249</ele>
        <time>2018-06-25T09:11:58.699Z</time>
      </trkpt>
      <trkpt lat="43.63609" lon="0.45911">
        <ele>253</ele>
        <time>2018-06-25T09:11:59.699Z</time>
      </trkpt>
      <trkpt lat="43.63674" lon="0.45724">
        <ele>256</ele>
        <time>2018-06-25T09:12:00.699Z</time>
      </trkpt>
      <trkpt lat="43.63692" lon="0.45654">
        <ele>254</ele>
        <time>2018-06-25T09:12:01.699Z</time>
      </trkpt>
      <trkpt lat="43.63702" lon="0.45573">
        <ele>253</ele>
        <time>2018-06-25T09:12:02.699Z</time>
      </trkpt>
      <trkpt lat="43.63761" lon="0.45322">
        <ele>250</ele>
        <time>2018-06-25T09:12:03.699Z</time>
      </trkpt>
      <trkpt lat="43.63779" lon="0.45269">
        <ele>247</ele>
        <time>2018-06-25T09:12:04.699Z</time>
      </trkpt>
      <trkpt lat="43.6381" lon="0.45135">
        <ele>246</ele>
        <time>2018-06-25T09:12:05.699Z</time>
      </trkpt>
      <trkpt lat="43.6381" lon="0.45023">
        <ele>241</ele>
        <time>2018-06-25T09:12:06.699Z</time>
      </trkpt>
      <trkpt lat="43.63751" lon="0.44872">
        <ele>240</ele>
        <time>2018-06-25T09:12:07.699Z</time>
      </trkpt>
      <trkpt lat="43.63731" lon="0.44856">
        <ele>241</ele>
        <time>2018-06-25T09:12:08.699Z</time>
      </trkpt>
      <trkpt lat="43.63654" lon="0.44841">
        <ele>243</ele>
        <time>2018-06-25T09:12:09.699Z</time>
      </trkpt>
      <trkpt lat="43.63627" lon="0.44827">
        <ele>242</ele>
        <time>2018-06-25T09:12:10.699Z</time>
      </trkpt>
      <trkpt lat="43.63541" lon="0.44744">
        <ele>235</ele>
        <time>2018-06-25T09:12:11.699Z</time>
      </trkpt>
      <trkpt lat="43.6346" lon="0.447">
        <ele>227</ele>
        <time>2018-06-25T09:12:12.699Z</time>
      </trkpt>
      <trkpt lat="43.63411" lon="0.44664">
        <ele>224</ele>
        <time>2018-06-25T09:12:13.699Z</time>
      </trkpt>
      <trkpt lat="43.63323" lon="0.44582">
        <ele>218</ele>
        <time>2018-06-25T09:12:14.699Z</time>
      </trkpt>
      <trkpt lat="43.63271" lon="0.44506">
        <ele>214</ele>
        <time>2018-06-25T09:12:15.699Z</time>
      </trkpt>
      <trkpt lat="43.63237" lon="0.44469">
        <ele>212</ele>
        <time>2018-06-25T09:12:16.699Z</time>
      </trkpt>
      <trkpt lat="43.6316" lon="0.44403">
        <ele>209</ele>
        <time>2018-06-25T09:12:17.699Z</time>
      </trkpt>
      <trkpt lat="43.62985" lon="0.44304">
        <ele>190</ele>
        <time>2018-06-25T09:12:18.699Z</time>
      </trkpt>
      <trkpt lat="43.62907" lon="0.44276">
        <ele>181</ele>
        <time>2018-06-25T09:12:19.699Z</time>
      </trkpt>
      <trkpt lat="43.62813" lon="0.44292">
        <ele>169</ele>
        <time>2018-06-25T09:12:20.699Z</time>
      </trkpt>
      <trkpt lat="43.62734" lon="0.4434">
        <ele>161</ele>
        <time>2018-06-25T09:12:21.699Z</time>
      </trkpt>
      <trkpt lat="43.62679" lon="0.44389">
        <ele>164</ele>
        <time>2018-06-25T09:12:22.699Z</time>
      </trkpt>
      <trkpt lat="43.62662" lon="0.44386">
        <ele>165</ele>
        <time>2018-06-25T09:12:23.699Z</time>
      </trkpt>
      <trkpt lat="43.62645" lon="0.44366">
        <ele>163</ele>
        <time>2018-06-25T09:12:24.699Z</time>
      </trkpt>
      <trkpt lat="43.62596" lon="0.44349">
        <ele>161</ele>
        <time>2018-06-25T09:12:25.699Z</time>
      </trkpt>
      <trkpt lat="43.6255" lon="0.44322">
        <ele>161</ele>
        <time>2018-06-25T09:12:26.699Z</time>
      </trkpt>
      <trkpt lat="43.6249" lon="0.44274">
        <ele>160</ele>
        <time>2018-06-25T09:12:27.699Z</time>
      </trkpt>
      <trkpt lat="43.62443" lon="0.4425">
        <ele>159</ele>
        <time>2018-06-25T09:12:28.699Z</time>
      </trkpt>
      <trkpt lat="43.62406" lon="0.44258">
        <ele>160</ele>
        <time>2018-06-25T09:12:29.699Z</time>
      </trkpt>
      <trkpt lat="43.62098" lon="0.44416">
        <ele>164</ele>
        <time>2018-06-25T09:12:30.699Z</time>
      </trkpt>
      <trkpt lat="43.62047" lon="0.44493">
        <ele>165</ele>
        <time>2018-06-25T09:12:31.699Z</time>
      </trkpt>
      <trkpt lat="43.6203" lon="0.44507">
        <ele>164</ele>
        <time>2018-06-25T09:12:32.699Z</time>
      </trkpt>
      <trkpt lat="43.61808" lon="0.44358">
        <ele>172</ele>
        <time>2018-06-25T09:12:33.699Z</time>
      </trkpt>
      <trkpt lat="43.61626" lon="0.44255">
        <ele>177</ele>
        <time>2018-06-25T09:12:34.699Z</time>
      </trkpt>
      <trkpt lat="43.61616" lon="0.44234">
        <ele>178</ele>
        <time>2018-06-25T09:12:35.699Z</time>
      </trkpt>
      <trkpt lat="43.61611" lon="0.44243">
        <ele>177</ele>
        <time>2018-06-25T09:12:36.699Z</time>
      </trkpt>
      <trkpt lat="43.61607" lon="0.4424">
        <ele>177</ele>
        <time>2018-06-25T09:12:37.699Z</time>
      </trkpt>
      <trkpt lat="43.61609" lon="0.44233">
        <ele>178</ele>
        <time>2018-06-25T09:12:38.699Z</time>
      </trkpt>
      <trkpt lat="43.61609" lon="0.4424">
        <ele>177</ele>
        <time>2018-06-25T09:12:39.699Z</time>
      </trkpt>
      <trkpt lat="43.61575" lon="0.44228">
        <ele>178</ele>
        <time>2018-06-25T09:12:40.699Z</time>
      </trkpt>
      <trkpt lat="43.61255" lon="0.44045">
        <ele>178</ele>
        <time>2018-06-25T09:12:41.699Z</time>
      </trkpt>
      <trkpt lat="43.61263" lon="0.44025">
        <ele>179</ele>
        <time>2018-06-25T09:12:42.699Z</time>
      </trkpt>
      <trkpt lat="43.61272" lon="0.44026">
        <ele>179</ele>
        <time>2018-06-25T09:12:43.699Z</time>
      </trkpt>
      <trkpt lat="43.61266" lon="0.44024">
        <ele>179</ele>
        <time>2018-06-25T09:12:44.699Z</time>
      </trkpt>
      <trkpt lat="43.61245" lon="0.44045">
        <ele>177</ele>
        <time>2018-06-25T09:12:45.699Z</time>
      </trkpt>
      <trkpt lat="43.6073" lon="0.43758">
        <ele>191</ele>
        <time>2018-06-25T09:12:46.699Z</time>
      </trkpt>
      <trkpt lat="43.60728" lon="0.43762">
        <ele>191</ele>
        <time>2018-06-25T09:12:47.699Z</time>
      </trkpt>
      <trkpt lat="43.60729" lon="0.43765">
        <ele>190</ele>
        <time>2018-06-25T09:12:48.699Z</time>
      </trkpt>
      <trkpt lat="43.60671" lon="0.43743">
        <ele>191</ele>
        <time>2018-06-25T09:12:49.699Z</time>
      </trkpt>
      <trkpt lat="43.6061" lon="0.43839">
        <ele>184</ele>
        <time>2018-06-25T09:12:50.699Z</time>
      </trkpt>
      <trkpt lat="43.60613" lon="0.43856">
        <ele>184</ele>
        <time>2018-06-25T09:12:51.699Z</time>
      </trkpt>
      <trkpt lat="43.60619" lon="0.43868">
        <ele>183</ele>
        <time>2018-06-25T09:12:52.699Z</time>
      </trkpt>
      <trkpt lat="43.60618" lon="0.43868">
        <ele>183</ele>
        <time>2018-06-25T09:12:53.699Z</time>
      </trkpt>
      <trkpt lat="43.60636" lon="0.43907">
        <ele>183</ele>
        <time>2018-06-25T09:12:54.699Z</time>
      </trkpt>
      <trkpt lat="43.60638" lon="0.43918">
        <ele>183</ele>
        <time>2018-06-25T09:12:55.699Z</time>
      </trkpt>
      <trkpt lat="43.60637" lon="0.4393">
        <ele>184</ele>
        <time>2018-06-25T09:12:56.699Z</time>
      </trkpt>
      <trkpt lat="43.60624" lon="0.43936">
        <ele>184</ele>
        <time>2018-06-25T09:12:57.699Z</time>
      </trkpt>
      <trkpt lat="43.60597" lon="0.4393">
        <ele>183</ele>
        <time>2018-06-25T09:12:58.699Z</time>
      </trkpt>
      <trkpt lat="43.60575" lon="0.43922">
        <ele>183</ele>
        <time>2018-06-25T09:12:59.699Z</time>
      </trkpt>
      <trkpt lat="43.60537" lon="0.43911">
        <ele>184</ele>
        <time>2018-06-25T09:13:00.699Z</time>
      </trkpt>
      <trkpt lat="43.60527" lon="0.43898">
        <ele>185</ele>
        <time>2018-06-25T09:13:01.699Z</time>
      </trkpt>
      <trkpt lat="43.60521" lon="0.43887">
        <ele>185</ele>
        <time>2018-06-25T09:13:02.699Z</time>
      </trkpt>
      <trkpt lat="43.60446" lon="0.43792">
        <ele>191</ele>
        <time>2018-06-25T09:13:03.699Z</time>
      </trkpt>
      <trkpt lat="43.60432" lon="0.43782">
        <ele>192</ele>
        <time>2018-06-25T09:13:04.699Z</time>
      </trkpt>
      <trkpt lat="43.60401" lon="0.43807">
        <ele>196</ele>
        <time>2018-06-25T09:13:05.699Z</time>
      </trkpt>
      <trkpt lat="43.60393" lon="0.43808">
        <ele>197</ele>
        <time>2018-06-25T09:13:06.699Z</time>
      </trkpt>
      <trkpt lat="43.60355" lon="0.43777">
        <ele>203</ele>
        <time>2018-06-25T09:13:07.699Z</time>
      </trkpt>
      <trkpt lat="43.60287" lon="0.43706">
        <ele>202</ele>
        <time>2018-06-25T09:13:08.699Z</time>
      </trkpt>
      <trkpt lat="43.60273" lon="0.43693">
        <ele>201</ele>
        <time>2018-06-25T09:13:09.699Z</time>
      </trkpt>
      <trkpt lat="43.60267" lon="0.43691">
        <ele>200</ele>
        <time>2018-06-25T09:13:10.699Z</time>
      </trkpt>
      <trkpt lat="43.60261" lon="0.43695">
        <ele>201</ele>
        <time>2018-06-25T09:13:11.699Z</time>
      </trkpt>
      <trkpt lat="43.60269" lon="0.43711">
        <ele>202</ele>
        <time>2018-06-25T09:13:12.699Z</time>
      </trkpt>
      <trkpt lat="43.60272" lon="0.43722">
        <ele>203</ele>
        <time>2018-06-25T09:13:13.699Z</time>
      </trkpt>
      <trkpt lat="43.60273" lon="0.43761">
        <ele>207</ele>
        <time>2018-06-25T09:13:14.699Z</time>
      </trkpt>
      <trkpt lat="43.60269" lon="0.43782">
        <ele>209</ele>
        <time>2018-06-25T09:13:15.699Z</time>
      </trkpt>
      <trkpt lat="43.6026" lon="0.4381">
        <ele>212</ele>
        <time>2018-06-25T09:13:16.699Z</time>
      </trkpt>
      <trkpt lat="43.60205" lon="0.43994">
        <ele>224</ele>
        <time>2018-06-25T09:13:17.699Z</time>
      </trkpt>
      <trkpt lat="43.60194" lon="0.44026">
        <ele>226</ele>
        <time>2018-06-25T09:13:18.699Z</time>
      </trkpt>
      <trkpt lat="43.60168" lon="0.44078">
        <ele>230</ele>
        <time>2018-06-25T09:13:19.699Z</time>
      </trkpt>
      <trkpt lat="43.60156" lon="0.44092">
        <ele>231</ele>
        <time>2018-06-25T09:13:20.699Z</time>
      </trkpt>
      <trkpt lat="43.60126" lon="0.44119">
        <ele>233</ele>
        <time>2018-06-25T09:13:21.699Z</time>
      </trkpt>
      <trkpt lat="43.60108" lon="0.44129">
        <ele>234</ele>
        <time>2018-06-25T09:13:22.699Z</time>
      </trkpt>
      <trkpt lat="43.60069" lon="0.44143">
        <ele>237</ele>
        <time>2018-06-25T09:13:23.699Z</time>
      </trkpt>
      <trkpt lat="43.6004" lon="0.4415">
        <ele>239</ele>
        <time>2018-06-25T09:13:24.699Z</time>
      </trkpt>
      <trkpt lat="43.59954" lon="0.44163">
        <ele>243</ele>
        <time>2018-06-25T09:13:25.699Z</time>
      </trkpt>
      <trkpt lat="43.59907" lon="0.4418">
        <ele>243</ele>
        <time>2018-06-25T09:13:26.699Z</time>
      </trkpt>
      <trkpt lat="43.59776" lon="0.44216">
        <ele>243</ele>
        <time>2018-06-25T09:13:27.699Z</time>
      </trkpt>
      <trkpt lat="43.59776" lon="0.44217">
        <ele>244</ele>
        <time>2018-06-25T09:13:28.699Z</time>
      </trkpt>
      <trkpt lat="43.5957" lon="0.44273">
        <ele>251</ele>
        <time>2018-06-25T09:13:29.699Z</time>
      </trkpt>
      <trkpt lat="43.59535" lon="0.44265">
        <ele>253</ele>
        <time>2018-06-25T09:13:30.699Z</time>
      </trkpt>
      <trkpt lat="43.59527" lon="0.44261">
        <ele>253</ele>
        <time>2018-06-25T09:13:31.699Z</time>
      </trkpt>
      <trkpt lat="43.59493" lon="0.44267">
        <ele>255</ele>
        <time>2018-06-25T09:13:32.699Z</time>
      </trkpt>
      <trkpt lat="43.59436" lon="0.44288">
        <ele>255</ele>
        <time>2018-06-25T09:13:33.699Z</time>
      </trkpt>
      <trkpt lat="43.59403" lon="0.44308">
        <ele>257</ele>
        <time>2018-06-25T09:13:34.699Z</time>
      </trkpt>
      <trkpt lat="43.59358" lon="0.44327">
        <ele>259</ele>
        <time>2018-06-25T09:13:35.699Z</time>
      </trkpt>
      <trkpt lat="43.59345" lon="0.44327">
        <ele>259</ele>
        <time>2018-06-25T09:13:36.699Z</time>
      </trkpt>
      <trkpt lat="43.59337" lon="0.44316">
        <ele>259</ele>
        <time>2018-06-25T09:13:37.699Z</time>
      </trkpt>
      <trkpt lat="43.59272" lon="0.44301">
        <ele>260</ele>
        <time>2018-06-25T09:13:38.699Z</time>
      </trkpt>
      <trkpt lat="43.59258" lon="0.443">
        <ele>261</ele>
        <time>2018-06-25T09:13:39.699Z</time>
      </trkpt>
      <trkpt lat="43.59212" lon="0.44305">
        <ele>261</ele>
        <time>2018-06-25T09:13:40.699Z</time>
      </trkpt>
      <trkpt lat="43.59201" lon="0.44303">
        <ele>260</ele>
        <time>2018-06-25T09:13:41.699Z</time>
      </trkpt>
      <trkpt lat="43.59187" lon="0.44294">
        <ele>260</ele>
        <time>2018-06-25T09:13:42.699Z</time>
      </trkpt>
      <trkpt lat="43.59155" lon="0.44269">
        <ele>258</ele>
        <time>2018-06-25T09:13:43.699Z</time>
      </trkpt>
      <trkpt lat="43.59128" lon="0.44238">
        <ele>255</ele>
        <time>2018-06-25T09:13:44.699Z</time>
      </trkpt>
      <trkpt lat="43.59118" lon="0.44232">
        <ele>254</ele>
        <time>2018-06-25T09:13:45.699Z</time>
      </trkpt>
      <trkpt lat="43.59092" lon="0.44234">
        <ele>253</ele>
        <time>2018-06-25T09:13:46.699Z</time>
      </trkpt>
      <trkpt lat="43.59091" lon="0.44225">
        <ele>253</ele>
        <time>2018-06-25T09:13:47.699Z</time>
      </trkpt>
      <trkpt lat="43.59096" lon="0.44171">
        <ele>251</ele>
        <time>2018-06-25T09:13:48.699Z</time>
      </trkpt>
      <trkpt lat="43.59101" lon="0.44112">
        <ele>249</ele>
        <time>2018-06-25T09:13:49.699Z</time>
      </trkpt>
      <trkpt lat="43.59106" lon="0.44094">
        <ele>249</ele>
        <time>2018-06-25T09:13:50.699Z</time>
      </trkpt>
      <trkpt lat="43.59138" lon="0.44037">
        <ele>248</ele>
        <time>2018-06-25T09:13:51.699Z</time>
      </trkpt>
      <trkpt lat="43.59146" lon="0.44026">
        <ele>248</ele>
        <time>2018-06-25T09:13:52.699Z</time>
      </trkpt>
      <trkpt lat="43.59144" lon="0.44019">
        <ele>248</ele>
        <time>2018-06-25T09:13:53.699Z</time>
      </trkpt>
      <trkpt lat="43.59144" lon="0.43994">
        <ele>247</ele>
        <time>2018-06-25T09:13:54.699Z</time>
      </trkpt>
      <trkpt lat="43.59157" lon="0.43842">
        <ele>239</ele>
        <time>2018-06-25T09:13:55.699Z</time>
      </trkpt>
      <trkpt lat="43.59149" lon="0.43778">
        <ele>235</ele>
        <time>2018-06-25T09:13:56.699Z</time>
      </trkpt>
      <trkpt lat="43.59137" lon="0.4374">
        <ele>231</ele>
        <time>2018-06-25T09:13:57.699Z</time>
      </trkpt>
      <trkpt lat="43.59119" lon="0.43689">
        <ele>228</ele>
        <time>2018-06-25T09:13:58.699Z</time>
      </trkpt>
      <trkpt lat="43.59119" lon="0.43659">
        <ele>229</ele>
        <time>2018-06-25T09:13:59.699Z</time>
      </trkpt>
      <trkpt lat="43.59073" lon="0.43542">
        <ele>219</ele>
        <time>2018-06-25T09:14:00.699Z</time>
      </trkpt>
      <trkpt lat="43.59074" lon="0.43527">
        <ele>218</ele>
        <time>2018-06-25T09:14:01.699Z</time>
      </trkpt>
      <trkpt lat="43.59078" lon="0.43515">
        <ele>217</ele>
        <time>2018-06-25T09:14:02.699Z</time>
      </trkpt>
      <trkpt lat="43.59094" lon="0.43377">
        <ele>215</ele>
        <time>2018-06-25T09:14:03.699Z</time>
      </trkpt>
      <trkpt lat="43.59097" lon="0.43358">
        <ele>215</ele>
        <time>2018-06-25T09:14:04.699Z</time>
      </trkpt>
      <trkpt lat="43.59103" lon="0.43337">
        <ele>214</ele>
        <time>2018-06-25T09:14:05.699Z</time>
      </trkpt>
      <trkpt lat="43.59122" lon="0.43217">
        <ele>209</ele>
        <time>2018-06-25T09:14:06.699Z</time>
      </trkpt>
      <trkpt lat="43.5911" lon="0.43215">
        <ele>212</ele>
        <time>2018-06-25T09:14:07.699Z</time>
      </trkpt>
      <trkpt lat="43.59073" lon="0.432">
        <ele>220</ele>
        <time>2018-06-25T09:14:08.699Z</time>
      </trkpt>
      <trkpt lat="43.59057" lon="0.43196">
        <ele>221</ele>
        <time>2018-06-25T09:14:09.699Z</time>
      </trkpt>
      <trkpt lat="43.59037" lon="0.43194">
        <ele>221</ele>
        <time>2018-06-25T09:14:10.699Z</time>
      </trkpt>
      <trkpt lat="43.59023" lon="0.43189">
        <ele>222</ele>
        <time>2018-06-25T09:14:11.699Z</time>
      </trkpt>
      <trkpt lat="43.59053" lon="0.43118">
        <ele>223</ele>
        <time>2018-06-25T09:14:12.699Z</time>
      </trkpt>
      <trkpt lat="43.59088" lon="0.43048">
        <ele>220</ele>
        <time>2018-06-25T09:14:13.699Z</time>
      </trkpt>
      <trkpt lat="43.59104" lon="0.42995">
        <ele>215</ele>
        <time>2018-06-25T09:14:14.699Z</time>
      </trkpt>
      <trkpt lat="43.59119" lon="0.42898">
        <ele>208</ele>
        <time>2018-06-25T09:14:15.699Z</time>
      </trkpt>
      <trkpt lat="43.59125" lon="0.42851">
        <ele>204</ele>
        <time>2018-06-25T09:14:16.699Z</time>
      </trkpt>
      <trkpt lat="43.59132" lon="0.42815">
        <ele>202</ele>
        <time>2018-06-25T09:14:17.699Z</time>
      </trkpt>
      <trkpt lat="43.59134" lon="0.42776">
        <ele>201</ele>
        <time>2018-06-25T09:14:18.699Z</time>
      </trkpt>
      <trkpt lat="43.59139" lon="0.4275">
        <ele>200</ele>
        <time>2018-06-25T09:14:19.699Z</time>
      </trkpt>
      <trkpt lat="43.5915" lon="0.42701">
        <ele>200</ele>
        <time>2018-06-25T09:14:20.699Z</time>
      </trkpt>
      <trkpt lat="43.59156" lon="0.42663">
        <ele>200</ele>
        <time>2018-06-25T09:14:21.699Z</time>
      </trkpt>
      <trkpt lat="43.59162" lon="0.42644">
        <ele>200</ele>
        <time>2018-06-25T09:14:22.699Z</time>
      </trkpt>
      <trkpt lat="43.59163" lon="0.4261">
        <ele>200</ele>
        <time>2018-06-25T09:14:23.699Z</time>
      </trkpt>
      <trkpt lat="43.59161" lon="0.42573">
        <ele>199</ele>
        <time>2018-06-25T09:14:24.699Z</time>
      </trkpt>
      <trkpt lat="43.59164" lon="0.42555">
        <ele>198</ele>
        <time>2018-06-25T09:14:25.699Z</time>
      </trkpt>
      <trkpt lat="43.5917" lon="0.42546">
        <ele>197</ele>
        <time>2018-06-25T09:14:26.699Z</time>
      </trkpt>
      <trkpt lat="43.59182" lon="0.42538">
        <ele>194</ele>
        <time>2018-06-25T09:14:27.699Z</time>
      </trkpt>
      <trkpt lat="43.59175" lon="0.42469">
        <ele>191</ele>
        <time>2018-06-25T09:14:28.699Z</time>
      </trkpt>
      <trkpt lat="43.59166" lon="0.42416">
        <ele>188</ele>
        <time>2018-06-25T09:14:29.699Z</time>
      </trkpt>
      <trkpt lat="43.59159" lon="0.42393">
        <ele>186</ele>
        <time>2018-06-25T09:14:30.699Z</time>
      </trkpt>
      <trkpt lat="43.59094" lon="0.4223">
        <ele>174</ele>
        <time>2018-06-25T09:14:31.699Z</time>
      </trkpt>
      <trkpt lat="43.59082" lon="0.42198">
        <ele>173</ele>
        <time>2018-06-25T09:14:32.699Z</time>
      </trkpt>
      <trkpt lat="43.59084" lon="0.42187">
        <ele>173</ele>
        <time>2018-06-25T09:14:33.699Z</time>
      </trkpt>
      <trkpt lat="43.59089" lon="0.42179">
        <ele>172</ele>
        <time>2018-06-25T09:14:34.699Z</time>
      </trkpt>
      <trkpt lat="43.59099" lon="0.42167">
        <ele>171</ele>
        <time>2018-06-25T09:14:35.699Z</time>
      </trkpt>
      <trkpt lat="43.59123" lon="0.42147">
        <ele>168</ele>
        <time>2018-06-25T09:14:36.699Z</time>
      </trkpt>
      <trkpt lat="43.59157" lon="0.42127">
        <ele>165</ele>
        <time>2018-06-25T09:14:37.699Z</time>
      </trkpt>
      <trkpt lat="43.59172" lon="0.42115">
        <ele>163</ele>
        <time>2018-06-25T09:14:38.699Z</time>
      </trkpt>
      <trkpt lat="43.59225" lon="0.42068">
        <ele>157</ele>
        <time>2018-06-25T09:14:39.699Z</time>
      </trkpt>
      <trkpt lat="43.5921" lon="0.42042">
        <ele>157</ele>
        <time>2018-06-25T09:14:40.699Z</time>
      </trkpt>
      <trkpt lat="43.59211" lon="0.42042">
        <ele>157</ele>
        <time>2018-06-25T09:14:41.699Z</time>
      </trkpt>
      <trkpt lat="43.59133" lon="0.41914">
        <ele>157</ele>
        <time>2018-06-25T09:14:42.699Z</time>
      </trkpt>
      <trkpt lat="43.59071" lon="0.41844">
        <ele>155</ele>
        <time>2018-06-25T09:14:43.699Z</time>
      </trkpt>
      <trkpt lat="43.59028" lon="0.41803">
        <ele>150</ele>
        <time>2018-06-25T09:14:44.699Z</time>
      </trkpt>
      <trkpt lat="43.59006" lon="0.41798">
        <ele>148</ele>
        <time>2018-06-25T09:14:45.699Z</time>
      </trkpt>
      <trkpt lat="43.5897" lon="0.41815">
        <ele>149</ele>
        <time>2018-06-25T09:14:46.699Z</time>
      </trkpt>
      <trkpt lat="43.58955" lon="0.41817">
        <ele>148</ele>
        <time>2018-06-25T09:14:47.699Z</time>
      </trkpt>
      <trkpt lat="43.58946" lon="0.41813">
        <ele>148</ele>
        <time>2018-06-25T09:14:48.699Z</time>
      </trkpt>
      <trkpt lat="43.58933" lon="0.418">
        <ele>147</ele>
        <time>2018-06-25T09:14:49.699Z</time>
      </trkpt>
      <trkpt lat="43.58911" lon="0.41768">
        <ele>145</ele>
        <time>2018-06-25T09:14:50.699Z</time>
      </trkpt>
      <trkpt lat="43.58897" lon="0.41735">
        <ele>143</ele>
        <time>2018-06-25T09:14:51.699Z</time>
      </trkpt>
      <trkpt lat="43.5889" lon="0.41693">
        <ele>142</ele>
        <time>2018-06-25T09:14:52.699Z</time>
      </trkpt>
      <trkpt lat="43.58884" lon="0.41597">
        <ele>139</ele>
        <time>2018-06-25T09:14:53.699Z</time>
      </trkpt>
      <trkpt lat="43.58887" lon="0.41542">
        <ele>138</ele>
        <time>2018-06-25T09:14:54.699Z</time>
      </trkpt>
      <trkpt lat="43.58891" lon="0.41462">
        <ele>138</ele>
        <time>2018-06-25T09:14:55.699Z</time>
      </trkpt>
      <trkpt lat="43.58887" lon="0.41442">
        <ele>137</ele>
        <time>2018-06-25T09:14:56.699Z</time>
      </trkpt>
      <trkpt lat="43.5888" lon="0.41427">
        <ele>137</ele>
        <time>2018-06-25T09:14:57.699Z</time>
      </trkpt>
      <trkpt lat="43.5887" lon="0.41412">
        <ele>137</ele>
        <time>2018-06-25T09:14:58.699Z</time>
      </trkpt>
      <trkpt lat="43.58855" lon="0.41403">
        <ele>137</ele>
        <time>2018-06-25T09:14:59.699Z</time>
      </trkpt>
      <trkpt lat="43.58792" lon="0.41383">
        <ele>137</ele>
        <time>2018-06-25T09:15:00.699Z</time>
      </trkpt>
      <trkpt lat="43.58727" lon="0.41344">
        <ele>136</ele>
        <time>2018-06-25T09:15:01.699Z</time>
      </trkpt>
      <trkpt lat="43.58714" lon="0.41332">
        <ele>136</ele>
        <time>2018-06-25T09:15:02.699Z</time>
      </trkpt>
      <trkpt lat="43.58616" lon="0.41234">
        <ele>137</ele>
        <time>2018-06-25T09:15:03.699Z</time>
      </trkpt>
      <trkpt lat="43.58604" lon="0.41211">
        <ele>137</ele>
        <time>2018-06-25T09:15:04.699Z</time>
      </trkpt>
      <trkpt lat="43.58593" lon="0.4118">
        <ele>136</ele>
        <time>2018-06-25T09:15:05.699Z</time>
      </trkpt>
      <trkpt lat="43.58569" lon="0.41086">
        <ele>136</ele>
        <time>2018-06-25T09:15:06.699Z</time>
      </trkpt>
      <trkpt lat="43.58555" lon="0.41062">
        <ele>138</ele>
        <time>2018-06-25T09:15:07.699Z</time>
      </trkpt>
      <trkpt lat="43.58542" lon="0.41051">
        <ele>139</ele>
        <time>2018-06-25T09:15:08.699Z</time>
      </trkpt>
      <trkpt lat="43.58461" lon="0.41024">
        <ele>141</ele>
        <time>2018-06-25T09:15:09.699Z</time>
      </trkpt>
      <trkpt lat="43.58448" lon="0.41012">
        <ele>141</ele>
        <time>2018-06-25T09:15:10.699Z</time>
      </trkpt>
      <trkpt lat="43.58441" lon="0.41023">
        <ele>140</ele>
        <time>2018-06-25T09:15:11.699Z</time>
      </trkpt>
      <trkpt lat="43.58431" lon="0.41027">
        <ele>140</ele>
        <time>2018-06-25T09:15:12.699Z</time>
      </trkpt>
      <trkpt lat="43.58267" lon="0.41025">
        <ele>148</ele>
        <time>2018-06-25T09:15:13.699Z</time>
      </trkpt>
      <trkpt lat="43.58234" lon="0.41019">
        <ele>149</ele>
        <time>2018-06-25T09:15:14.699Z</time>
      </trkpt>
      <trkpt lat="43.5817" lon="0.40999">
        <ele>147</ele>
        <time>2018-06-25T09:15:15.699Z</time>
      </trkpt>
      <trkpt lat="43.58117" lon="0.40976">
        <ele>146</ele>
        <time>2018-06-25T09:15:16.699Z</time>
      </trkpt>
      <trkpt lat="43.58085" lon="0.40954">
        <ele>146</ele>
        <time>2018-06-25T09:15:17.699Z</time>
      </trkpt>
      <trkpt lat="43.5805" lon="0.40926">
        <ele>147</ele>
        <time>2018-06-25T09:15:18.699Z</time>
      </trkpt>
      <trkpt lat="43.58049" lon="0.40926">
        <ele>147</ele>
        <time>2018-06-25T09:15:19.699Z</time>
      </trkpt>
      <trkpt lat="43.58025" lon="0.40906">
        <ele>147</ele>
        <time>2018-06-25T09:15:20.699Z</time>
      </trkpt>
      <trkpt lat="43.57993" lon="0.40888">
        <ele>146</ele>
        <time>2018-06-25T09:15:21.699Z</time>
      </trkpt>
      <trkpt lat="43.57962" lon="0.40879">
        <ele>146</ele>
        <time>2018-06-25T09:15:22.699Z</time>
      </trkpt>
      <trkpt lat="43.5796" lon="0.4085">
        <ele>149</ele>
        <time>2018-06-25T09:15:23.699Z</time>
      </trkpt>
      <trkpt lat="43.57952" lon="0.40797">
        <ele>152</ele>
        <time>2018-06-25T09:15:24.699Z</time>
      </trkpt>
      <trkpt lat="43.57948" lon="0.40734">
        <ele>155</ele>
        <time>2018-06-25T09:15:25.699Z</time>
      </trkpt>
      <trkpt lat="43.57943" lon="0.40688">
        <ele>159</ele>
        <time>2018-06-25T09:15:26.699Z</time>
      </trkpt>
      <trkpt lat="43.57942" lon="0.40626">
        <ele>164</ele>
        <time>2018-06-25T09:15:27.699Z</time>
      </trkpt>
      <trkpt lat="43.57938" lon="0.40584">
        <ele>169</ele>
        <time>2018-06-25T09:15:28.699Z</time>
      </trkpt>
      <trkpt lat="43.57934" lon="0.40565">
        <ele>170</ele>
        <time>2018-06-25T09:15:29.699Z</time>
      </trkpt>
      <trkpt lat="43.57928" lon="0.40558">
        <ele>171</ele>
        <time>2018-06-25T09:15:30.699Z</time>
      </trkpt>
      <trkpt lat="43.57896" lon="0.40554">
        <ele>173</ele>
        <time>2018-06-25T09:15:31.699Z</time>
      </trkpt>
      <trkpt lat="43.57887" lon="0.40548">
        <ele>173</ele>
        <time>2018-06-25T09:15:32.699Z</time>
      </trkpt>
      <trkpt lat="43.57874" lon="0.40534">
        <ele>174</ele>
        <time>2018-06-25T09:15:33.699Z</time>
      </trkpt>
      <trkpt lat="43.57827" lon="0.40499">
        <ele>176</ele>
        <time>2018-06-25T09:15:34.699Z</time>
      </trkpt>
      <trkpt lat="43.5782" lon="0.40492">
        <ele>177</ele>
        <time>2018-06-25T09:15:35.699Z</time>
      </trkpt>
      <trkpt lat="43.57806" lon="0.4041">
        <ele>180</ele>
        <time>2018-06-25T09:15:36.699Z</time>
      </trkpt>
      <trkpt lat="43.57778" lon="0.40322">
        <ele>185</ele>
        <time>2018-06-25T09:15:37.699Z</time>
      </trkpt>
      <trkpt lat="43.57778" lon="0.40321">
        <ele>185</ele>
        <time>2018-06-25T09:15:38.699Z</time>
      </trkpt>
      <trkpt lat="43.57767" lon="0.40291">
        <ele>186</ele>
        <time>2018-06-25T09:15:39.699Z</time>
      </trkpt>
      <trkpt lat="43.57746" lon="0.40242">
        <ele>187</ele>
        <time>2018-06-25T09:15:40.699Z</time>
      </trkpt>
      <trkpt lat="43.57744" lon="0.40232">
        <ele>187</ele>
        <time>2018-06-25T09:15:41.699Z</time>
      </trkpt>
      <trkpt lat="43.57742" lon="0.402">
        <ele>187</ele>
        <time>2018-06-25T09:15:42.699Z</time>
      </trkpt>
      <trkpt lat="43.57761" lon="0.40048">
        <ele>190</ele>
        <time>2018-06-25T09:15:43.699Z</time>
      </trkpt>
      <trkpt lat="43.57767" lon="0.40044">
        <ele>189</ele>
        <time>2018-06-25T09:15:44.699Z</time>
      </trkpt>
      <trkpt lat="43.5777" lon="0.40037">
        <ele>189</ele>
        <time>2018-06-25T09:15:45.699Z</time>
      </trkpt>
      <trkpt lat="43.57776" lon="0.40019">
        <ele>189</ele>
        <time>2018-06-25T09:15:46.699Z</time>
      </trkpt>
      <trkpt lat="43.57779" lon="0.39913">
        <ele>190</ele>
        <time>2018-06-25T09:15:47.699Z</time>
      </trkpt>
      <trkpt lat="43.57779" lon="0.39886">
        <ele>191</ele>
        <time>2018-06-25T09:15:48.699Z</time>
      </trkpt>
      <trkpt lat="43.57776" lon="0.39866">
        <ele>191</ele>
        <time>2018-06-25T09:15:49.699Z</time>
      </trkpt>
      <trkpt lat="43.57767" lon="0.39833">
        <ele>191</ele>
        <time>2018-06-25T09:15:50.699Z</time>
      </trkpt>
      <trkpt lat="43.57767" lon="0.39824">
        <ele>191</ele>
        <time>2018-06-25T09:15:51.699Z</time>
      </trkpt>
      <trkpt lat="43.5779" lon="0.39753">
        <ele>196</ele>
        <time>2018-06-25T09:15:52.699Z</time>
      </trkpt>
      <trkpt lat="43.57815" lon="0.39653">
        <ele>198</ele>
        <time>2018-06-25T09:15:53.699Z</time>
      </trkpt>
      <trkpt lat="43.57836" lon="0.39582">
        <ele>204</ele>
        <time>2018-06-25T09:15:54.699Z</time>
      </trkpt>
      <trkpt lat="43.5786" lon="0.39462">
        <ele>202</ele>
        <time>2018-06-25T09:15:55.699Z</time>
      </trkpt>
      <trkpt lat="43.57876" lon="0.39417">
        <ele>204</ele>
        <time>2018-06-25T09:15:56.699Z</time>
      </trkpt>
      <trkpt lat="43.57899" lon="0.39341">
        <ele>210</ele>
        <time>2018-06-25T09:15:57.699Z</time>
      </trkpt>
      <trkpt lat="43.5791" lon="0.39311">
        <ele>213</ele>
        <time>2018-06-25T09:15:58.699Z</time>
      </trkpt>
      <trkpt lat="43.57927" lon="0.39277">
        <ele>214</ele>
        <time>2018-06-25T09:15:59.699Z</time>
      </trkpt>
      <trkpt lat="43.57939" lon="0.39234">
        <ele>214</ele>
        <time>2018-06-25T09:16:00.699Z</time>
      </trkpt>
      <trkpt lat="43.57975" lon="0.39128">
        <ele>219</ele>
        <time>2018-06-25T09:16:01.699Z</time>
      </trkpt>
      <trkpt lat="43.57983" lon="0.39108">
        <ele>221</ele>
        <time>2018-06-25T09:16:02.699Z</time>
      </trkpt>
      <trkpt lat="43.57992" lon="0.39044">
        <ele>222</ele>
        <time>2018-06-25T09:16:03.699Z</time>
      </trkpt>
      <trkpt lat="43.58" lon="0.39008">
        <ele>223</ele>
        <time>2018-06-25T09:16:04.699Z</time>
      </trkpt>
      <trkpt lat="43.58016" lon="0.38964">
        <ele>224</ele>
        <time>2018-06-25T09:16:05.699Z</time>
      </trkpt>
      <trkpt lat="43.58027" lon="0.38921">
        <ele>225</ele>
        <time>2018-06-25T09:16:06.699Z</time>
      </trkpt>
      <trkpt lat="43.5804" lon="0.38883">
        <ele>228</ele>
        <time>2018-06-25T09:16:07.699Z</time>
      </trkpt>
      <trkpt lat="43.5806" lon="0.38793">
        <ele>233</ele>
        <time>2018-06-25T09:16:08.699Z</time>
      </trkpt>
      <trkpt lat="43.58065" lon="0.3877">
        <ele>234</ele>
        <time>2018-06-25T09:16:09.699Z</time>
      </trkpt>
      <trkpt lat="43.5808" lon="0.38736">
        <ele>235</ele>
        <time>2018-06-25T09:16:10.699Z</time>
      </trkpt>
      <trkpt lat="43.58184" lon="0.38515">
        <ele>237</ele>
        <time>2018-06-25T09:16:11.699Z</time>
      </trkpt>
      <trkpt lat="43.58224" lon="0.38425">
        <ele>238</ele>
        <time>2018-06-25T09:16:12.699Z</time>
      </trkpt>
      <trkpt lat="43.58217" lon="0.38427">
        <ele>238</ele>
        <time>2018-06-25T09:16:13.699Z</time>
      </trkpt>
      <trkpt lat="43.58211" lon="0.38401">
        <ele>238</ele>
        <time>2018-06-25T09:16:14.699Z</time>
      </trkpt>
      <trkpt lat="43.5819" lon="0.38319">
        <ele>234</ele>
        <time>2018-06-25T09:16:15.699Z</time>
      </trkpt>
      <trkpt lat="43.58164" lon="0.38151">
        <ele>231</ele>
        <time>2018-06-25T09:16:16.699Z</time>
      </trkpt>
      <trkpt lat="43.58166" lon="0.3814">
        <ele>231</ele>
        <time>2018-06-25T09:16:17.699Z</time>
      </trkpt>
      <trkpt lat="43.58173" lon="0.38124">
        <ele>230</ele>
        <time>2018-06-25T09:16:18.699Z</time>
      </trkpt>
      <trkpt lat="43.58193" lon="0.38077">
        <ele>226</ele>
        <time>2018-06-25T09:16:19.699Z</time>
      </trkpt>
      <trkpt lat="43.58209" lon="0.38057">
        <ele>223</ele>
        <time>2018-06-25T09:16:20.699Z</time>
      </trkpt>
      <trkpt lat="43.58227" lon="0.3802">
        <ele>220</ele>
        <time>2018-06-25T09:16:21.699Z</time>
      </trkpt>
      <trkpt lat="43.58259" lon="0.37945">
        <ele>213</ele>
        <time>2018-06-25T09:16:22.699Z</time>
      </trkpt>
      <trkpt lat="43.58275" lon="0.37905">
        <ele>209</ele>
        <time>2018-06-25T09:16:23.699Z</time>
      </trkpt>
      <trkpt lat="43.58303" lon="0.3783">
        <ele>204</ele>
        <time>2018-06-25T09:16:24.699Z</time>
      </trkpt>
      <trkpt lat="43.58338" lon="0.37746">
        <ele>197</ele>
        <time>2018-06-25T09:16:25.699Z</time>
      </trkpt>
      <trkpt lat="43.58345" lon="0.37723">
        <ele>195</ele>
        <time>2018-06-25T09:16:26.699Z</time>
      </trkpt>
      <trkpt lat="43.58345" lon="0.37695">
        <ele>193</ele>
        <time>2018-06-25T09:16:27.699Z</time>
      </trkpt>
      <trkpt lat="43.58331" lon="0.37622">
        <ele>191</ele>
        <time>2018-06-25T09:16:28.699Z</time>
      </trkpt>
      <trkpt lat="43.58323" lon="0.37561">
        <ele>193</ele>
        <time>2018-06-25T09:16:29.699Z</time>
      </trkpt>
      <trkpt lat="43.58331" lon="0.37422">
        <ele>191</ele>
        <time>2018-06-25T09:16:30.699Z</time>
      </trkpt>
      <trkpt lat="43.58345" lon="0.37369">
        <ele>187</ele>
        <time>2018-06-25T09:16:31.699Z</time>
      </trkpt>
      <trkpt lat="43.58349" lon="0.37334">
        <ele>186</ele>
        <time>2018-06-25T09:16:32.699Z</time>
      </trkpt>
      <trkpt lat="43.58351" lon="0.3729">
        <ele>185</ele>
        <time>2018-06-25T09:16:33.699Z</time>
      </trkpt>
      <trkpt lat="43.58349" lon="0.3723">
        <ele>185</ele>
        <time>2018-06-25T09:16:34.699Z</time>
      </trkpt>
      <trkpt lat="43.58352" lon="0.37206">
        <ele>184</ele>
        <time>2018-06-25T09:16:35.699Z</time>
      </trkpt>
      <trkpt lat="43.58349" lon="0.37174">
        <ele>183</ele>
        <time>2018-06-25T09:16:36.699Z</time>
      </trkpt>
      <trkpt lat="43.58351" lon="0.37135">
        <ele>181</ele>
        <time>2018-06-25T09:16:37.699Z</time>
      </trkpt>
      <trkpt lat="43.58349" lon="0.3709">
        <ele>179</ele>
        <time>2018-06-25T09:16:38.699Z</time>
      </trkpt>
      <trkpt lat="43.58351" lon="0.37069">
        <ele>178</ele>
        <time>2018-06-25T09:16:39.699Z</time>
      </trkpt>
      <trkpt lat="43.58342" lon="0.36974">
        <ele>178</ele>
        <time>2018-06-25T09:16:40.699Z</time>
      </trkpt>
      <trkpt lat="43.58343" lon="0.36945">
        <ele>177</ele>
        <time>2018-06-25T09:16:41.699Z</time>
      </trkpt>
      <trkpt lat="43.5834" lon="0.36852">
        <ele>174</ele>
        <time>2018-06-25T09:16:42.699Z</time>
      </trkpt>
      <trkpt lat="43.58342" lon="0.36828">
        <ele>173</ele>
        <time>2018-06-25T09:16:43.699Z</time>
      </trkpt>
      <trkpt lat="43.5834" lon="0.36772">
        <ele>169</ele>
        <time>2018-06-25T09:16:44.699Z</time>
      </trkpt>
      <trkpt lat="43.58325" lon="0.36756">
        <ele>167</ele>
        <time>2018-06-25T09:16:45.699Z</time>
      </trkpt>
      <trkpt lat="43.58316" lon="0.36758">
        <ele>167</ele>
        <time>2018-06-25T09:16:46.699Z</time>
      </trkpt>
      <trkpt lat="43.58298" lon="0.36744">
        <ele>166</ele>
        <time>2018-06-25T09:16:47.699Z</time>
      </trkpt>
      <trkpt lat="43.58275" lon="0.36706">
        <ele>164</ele>
        <time>2018-06-25T09:16:48.699Z</time>
      </trkpt>
      <trkpt lat="43.58267" lon="0.36675">
        <ele>164</ele>
        <time>2018-06-25T09:16:49.699Z</time>
      </trkpt>
      <trkpt lat="43.58256" lon="0.36617">
        <ele>165</ele>
        <time>2018-06-25T09:16:50.699Z</time>
      </trkpt>
      <trkpt lat="43.58257" lon="0.36603">
        <ele>165</ele>
        <time>2018-06-25T09:16:51.699Z</time>
      </trkpt>
      <trkpt lat="43.58261" lon="0.36595">
        <ele>165</ele>
        <time>2018-06-25T09:16:52.699Z</time>
      </trkpt>
      <trkpt lat="43.58247" lon="0.36544">
        <ele>167</ele>
        <time>2018-06-25T09:16:53.699Z</time>
      </trkpt>
      <trkpt lat="43.58229" lon="0.36404">
        <ele>173</ele>
        <time>2018-06-25T09:16:54.699Z</time>
      </trkpt>
      <trkpt lat="43.58224" lon="0.36275">
        <ele>177</ele>
        <time>2018-06-25T09:16:55.699Z</time>
      </trkpt>
      <trkpt lat="43.5822" lon="0.36199">
        <ele>179</ele>
        <time>2018-06-25T09:16:56.699Z</time>
      </trkpt>
      <trkpt lat="43.58221" lon="0.36039">
        <ele>189</ele>
        <time>2018-06-25T09:16:57.699Z</time>
      </trkpt>
      <trkpt lat="43.58219" lon="0.36024">
        <ele>191</ele>
        <time>2018-06-25T09:16:58.699Z</time>
      </trkpt>
      <trkpt lat="43.58205" lon="0.35987">
        <ele>193</ele>
        <time>2018-06-25T09:16:59.699Z</time>
      </trkpt>
      <trkpt lat="43.58205" lon="0.35986">
        <ele>194</ele>
        <time>2018-06-25T09:17:00.699Z</time>
      </trkpt>
      <trkpt lat="43.58188" lon="0.35949">
        <ele>195</ele>
        <time>2018-06-25T09:17:01.699Z</time>
      </trkpt>
      <trkpt lat="43.58168" lon="0.35909">
        <ele>196</ele>
        <time>2018-06-25T09:17:02.699Z</time>
      </trkpt>
      <trkpt lat="43.58147" lon="0.35876">
        <ele>197</ele>
        <time>2018-06-25T09:17:03.699Z</time>
      </trkpt>
      <trkpt lat="43.58087" lon="0.35801">
        <ele>201</ele>
        <time>2018-06-25T09:17:04.699Z</time>
      </trkpt>
      <trkpt lat="43.58078" lon="0.35781">
        <ele>201</ele>
        <time>2018-06-25T09:17:05.699Z</time>
      </trkpt>
      <trkpt lat="43.5807" lon="0.35761">
        <ele>202</ele>
        <time>2018-06-25T09:17:06.699Z</time>
      </trkpt>
      <trkpt lat="43.58063" lon="0.35719">
        <ele>205</ele>
        <time>2018-06-25T09:17:07.699Z</time>
      </trkpt>
      <trkpt lat="43.5806" lon="0.35669">
        <ele>208</ele>
        <time>2018-06-25T09:17:08.699Z</time>
      </trkpt>
      <trkpt lat="43.58043" lon="0.35557">
        <ele>214</ele>
        <time>2018-06-25T09:17:09.699Z</time>
      </trkpt>
      <trkpt lat="43.57993" lon="0.35418">
        <ele>225</ele>
        <time>2018-06-25T09:17:10.699Z</time>
      </trkpt>
      <trkpt lat="43.57973" lon="0.35321">
        <ele>233</ele>
        <time>2018-06-25T09:17:11.699Z</time>
      </trkpt>
      <trkpt lat="43.57974" lon="0.35237">
        <ele>233</ele>
        <time>2018-06-25T09:17:12.699Z</time>
      </trkpt>
      <trkpt lat="43.57967" lon="0.35173">
        <ele>231</ele>
        <time>2018-06-25T09:17:13.699Z</time>
      </trkpt>
      <trkpt lat="43.57957" lon="0.35126">
        <ele>227</ele>
        <time>2018-06-25T09:17:14.699Z</time>
      </trkpt>
      <trkpt lat="43.57948" lon="0.35093">
        <ele>224</ele>
        <time>2018-06-25T09:17:15.699Z</time>
      </trkpt>
      <trkpt lat="43.57937" lon="0.35048">
        <ele>220</ele>
        <time>2018-06-25T09:17:16.699Z</time>
      </trkpt>
      <trkpt lat="43.57926" lon="0.3502">
        <ele>217</ele>
        <time>2018-06-25T09:17:17.699Z</time>
      </trkpt>
      <trkpt lat="43.57911" lon="0.34998">
        <ele>215</ele>
        <time>2018-06-25T09:17:18.699Z</time>
      </trkpt>
      <trkpt lat="43.57886" lon="0.34921">
        <ele>206</ele>
        <time>2018-06-25T09:17:19.699Z</time>
      </trkpt>
      <trkpt lat="43.57879" lon="0.34906">
        <ele>205</ele>
        <time>2018-06-25T09:17:20.699Z</time>
      </trkpt>
      <trkpt lat="43.57851" lon="0.34796">
        <ele>193</ele>
        <time>2018-06-25T09:17:21.699Z</time>
      </trkpt>
      <trkpt lat="43.57843" lon="0.34747">
        <ele>186</ele>
        <time>2018-06-25T09:17:22.699Z</time>
      </trkpt>
      <trkpt lat="43.57835" lon="0.34712">
        <ele>182</ele>
        <time>2018-06-25T09:17:23.699Z</time>
      </trkpt>
      <trkpt lat="43.57829" lon="0.34707">
        <ele>182</ele>
        <time>2018-06-25T09:17:24.699Z</time>
      </trkpt>
      <trkpt lat="43.57836" lon="0.34688">
        <ele>180</ele>
        <time>2018-06-25T09:17:25.699Z</time>
      </trkpt>
      <trkpt lat="43.57855" lon="0.34583">
        <ele>177</ele>
        <time>2018-06-25T09:17:26.699Z</time>
      </trkpt>
      <trkpt lat="43.57876" lon="0.34478">
        <ele>178</ele>
        <time>2018-06-25T09:17:27.699Z</time>
      </trkpt>
      <trkpt lat="43.57885" lon="0.3444">
        <ele>180</ele>
        <time>2018-06-25T09:17:28.699Z</time>
      </trkpt>
      <trkpt lat="43.57893" lon="0.34437">
        <ele>180</ele>
        <time>2018-06-25T09:17:29.699Z</time>
      </trkpt>
      <trkpt lat="43.57887" lon="0.34416">
        <ele>181</ele>
        <time>2018-06-25T09:17:30.699Z</time>
      </trkpt>
      <trkpt lat="43.57886" lon="0.34357">
        <ele>185</ele>
        <time>2018-06-25T09:17:31.699Z</time>
      </trkpt>
      <trkpt lat="43.57881" lon="0.34326">
        <ele>187</ele>
        <time>2018-06-25T09:17:32.699Z</time>
      </trkpt>
      <trkpt lat="43.57879" lon="0.34295">
        <ele>188</ele>
        <time>2018-06-25T09:17:33.699Z</time>
      </trkpt>
      <trkpt lat="43.57873" lon="0.34254">
        <ele>190</ele>
        <time>2018-06-25T09:17:34.699Z</time>
      </trkpt>
      <trkpt lat="43.5787" lon="0.34218">
        <ele>191</ele>
        <time>2018-06-25T09:17:35.699Z</time>
      </trkpt>
      <trkpt lat="43.57863" lon="0.3416">
        <ele>193</ele>
        <time>2018-06-25T09:17:36.699Z</time>
      </trkpt>
      <trkpt lat="43.5784" lon="0.34041">
        <ele>195</ele>
        <time>2018-06-25T09:17:37.699Z</time>
      </trkpt>
      <trkpt lat="43.57828" lon="0.33966">
        <ele>196</ele>
        <time>2018-06-25T09:17:38.699Z</time>
      </trkpt>
      <trkpt lat="43.57808" lon="0.33893">
        <ele>198</ele>
        <time>2018-06-25T09:17:39.699Z</time>
      </trkpt>
      <trkpt lat="43.57795" lon="0.33797">
        <ele>200</ele>
        <time>2018-06-25T09:17:40.699Z</time>
      </trkpt>
      <trkpt lat="43.57795" lon="0.33773">
        <ele>201</ele>
        <time>2018-06-25T09:17:41.699Z</time>
      </trkpt>
      <trkpt lat="43.5779" lon="0.33738">
        <ele>201</ele>
        <time>2018-06-25T09:17:42.699Z</time>
      </trkpt>
      <trkpt lat="43.57785" lon="0.3371">
        <ele>202</ele>
        <time>2018-06-25T09:17:43.699Z</time>
      </trkpt>
      <trkpt lat="43.57774" lon="0.3368">
        <ele>203</ele>
        <time>2018-06-25T09:17:44.699Z</time>
      </trkpt>
      <trkpt lat="43.57754" lon="0.33597">
        <ele>205</ele>
        <time>2018-06-25T09:17:45.699Z</time>
      </trkpt>
      <trkpt lat="43.57743" lon="0.33561">
        <ele>207</ele>
        <time>2018-06-25T09:17:46.699Z</time>
      </trkpt>
      <trkpt lat="43.57769" lon="0.33364">
        <ele>219</ele>
        <time>2018-06-25T09:17:47.699Z</time>
      </trkpt>
      <trkpt lat="43.57771" lon="0.3336">
        <ele>219</ele>
        <time>2018-06-25T09:17:48.699Z</time>
      </trkpt>
      <trkpt lat="43.57772" lon="0.33362">
        <ele>219</ele>
        <time>2018-06-25T09:17:49.699Z</time>
      </trkpt>
      <trkpt lat="43.57765" lon="0.3332">
        <ele>219</ele>
        <time>2018-06-25T09:17:50.699Z</time>
      </trkpt>
      <trkpt lat="43.57779" lon="0.33315">
        <ele>220</ele>
        <time>2018-06-25T09:17:51.699Z</time>
      </trkpt>
      <trkpt lat="43.57801" lon="0.33239">
        <ele>220</ele>
        <time>2018-06-25T09:17:52.699Z</time>
      </trkpt>
      <trkpt lat="43.57805" lon="0.33232">
        <ele>220</ele>
        <time>2018-06-25T09:17:53.699Z</time>
      </trkpt>
      <trkpt lat="43.5783" lon="0.33133">
        <ele>223</ele>
        <time>2018-06-25T09:17:54.699Z</time>
      </trkpt>
      <trkpt lat="43.57837" lon="0.33087">
        <ele>221</ele>
        <time>2018-06-25T09:17:55.699Z</time>
      </trkpt>
      <trkpt lat="43.57841" lon="0.33026">
        <ele>215</ele>
        <time>2018-06-25T09:17:56.699Z</time>
      </trkpt>
      <trkpt lat="43.57848" lon="0.32937">
        <ele>209</ele>
        <time>2018-06-25T09:17:57.699Z</time>
      </trkpt>
      <trkpt lat="43.57849" lon="0.32937">
        <ele>208</ele>
        <time>2018-06-25T09:17:58.699Z</time>
      </trkpt>
      <trkpt lat="43.57852" lon="0.32913">
        <ele>207</ele>
        <time>2018-06-25T09:17:59.699Z</time>
      </trkpt>
      <trkpt lat="43.5785" lon="0.32888">
        <ele>206</ele>
        <time>2018-06-25T09:18:00.699Z</time>
      </trkpt>
      <trkpt lat="43.57848" lon="0.3288">
        <ele>206</ele>
        <time>2018-06-25T09:18:01.699Z</time>
      </trkpt>
      <trkpt lat="43.57838" lon="0.32866">
        <ele>207</ele>
        <time>2018-06-25T09:18:02.699Z</time>
      </trkpt>
      <trkpt lat="43.57852" lon="0.32808">
        <ele>206</ele>
        <time>2018-06-25T09:18:03.699Z</time>
      </trkpt>
      <trkpt lat="43.57866" lon="0.32686">
        <ele>198</ele>
        <time>2018-06-25T09:18:04.699Z</time>
      </trkpt>
      <trkpt lat="43.57866" lon="0.32649">
        <ele>192</ele>
        <time>2018-06-25T09:18:05.699Z</time>
      </trkpt>
      <trkpt lat="43.57849" lon="0.32643">
        <ele>192</ele>
        <time>2018-06-25T09:18:06.699Z</time>
      </trkpt>
      <trkpt lat="43.57849" lon="0.32635">
        <ele>191</ele>
        <time>2018-06-25T09:18:07.699Z</time>
      </trkpt>
      <trkpt lat="43.57842" lon="0.32626">
        <ele>189</ele>
        <time>2018-06-25T09:18:08.699Z</time>
      </trkpt>
      <trkpt lat="43.57802" lon="0.32605">
        <ele>180</ele>
        <time>2018-06-25T09:18:09.699Z</time>
      </trkpt>
      <trkpt lat="43.57799" lon="0.32609">
        <ele>180</ele>
        <time>2018-06-25T09:18:10.699Z</time>
      </trkpt>
      <trkpt lat="43.57791" lon="0.32624">
        <ele>181</ele>
        <time>2018-06-25T09:18:11.699Z</time>
      </trkpt>
      <trkpt lat="43.57781" lon="0.32623">
        <ele>179</ele>
        <time>2018-06-25T09:18:12.699Z</time>
      </trkpt>
      <trkpt lat="43.57781" lon="0.32624">
        <ele>179</ele>
        <time>2018-06-25T09:18:13.699Z</time>
      </trkpt>
      <trkpt lat="43.57791" lon="0.32625">
        <ele>181</ele>
        <time>2018-06-25T09:18:14.699Z</time>
      </trkpt>
      <trkpt lat="43.57799" lon="0.3261">
        <ele>180</ele>
        <time>2018-06-25T09:18:15.699Z</time>
      </trkpt>
      <trkpt lat="43.57802" lon="0.32606">
        <ele>180</ele>
        <time>2018-06-25T09:18:16.699Z</time>
      </trkpt>
      <trkpt lat="43.57836" lon="0.32623">
        <ele>189</ele>
        <time>2018-06-25T09:18:17.699Z</time>
      </trkpt>
      <trkpt lat="43.57835" lon="0.32623">
        <ele>189</ele>
        <time>2018-06-25T09:18:18.699Z</time>
      </trkpt>
      <trkpt lat="43.57802" lon="0.32606">
        <ele>180</ele>
        <time>2018-06-25T09:18:19.699Z</time>
      </trkpt>
      <trkpt lat="43.57799" lon="0.3261">
        <ele>180</ele>
        <time>2018-06-25T09:18:20.699Z</time>
      </trkpt>
      <trkpt lat="43.57791" lon="0.32625">
        <ele>181</ele>
        <time>2018-06-25T09:18:21.699Z</time>
      </trkpt>
      <trkpt lat="43.57781" lon="0.32624">
        <ele>179</ele>
        <time>2018-06-25T09:18:22.699Z</time>
      </trkpt>
      <trkpt lat="43.57782" lon="0.3261">
        <ele>177</ele>
        <time>2018-06-25T09:18:23.699Z</time>
      </trkpt>
      <trkpt lat="43.57777" lon="0.32614">
        <ele>177</ele>
        <time>2018-06-25T09:18:24.699Z</time>
      </trkpt>
      <trkpt lat="43.57769" lon="0.32637">
        <ele>178</ele>
        <time>2018-06-25T09:18:25.699Z</time>
      </trkpt>
      <trkpt lat="43.57762" lon="0.32651">
        <ele>179</ele>
        <time>2018-06-25T09:18:26.699Z</time>
      </trkpt>
      <trkpt lat="43.57738" lon="0.32679">
        <ele>177</ele>
        <time>2018-06-25T09:18:27.699Z</time>
      </trkpt>
      <trkpt lat="43.5772" lon="0.32687">
        <ele>174</ele>
        <time>2018-06-25T09:18:28.699Z</time>
      </trkpt>
      <trkpt lat="43.577" lon="0.32682">
        <ele>171</ele>
        <time>2018-06-25T09:18:29.699Z</time>
      </trkpt>
      <trkpt lat="43.57669" lon="0.3268">
        <ele>165</ele>
        <time>2018-06-25T09:18:30.699Z</time>
      </trkpt>
      <trkpt lat="43.57658" lon="0.32681">
        <ele>164</ele>
        <time>2018-06-25T09:18:31.699Z</time>
      </trkpt>
      <trkpt lat="43.57636" lon="0.32689">
        <ele>165</ele>
        <time>2018-06-25T09:18:32.699Z</time>
      </trkpt>
      <trkpt lat="43.57627" lon="0.32687">
        <ele>164</ele>
        <time>2018-06-25T09:18:33.699Z</time>
      </trkpt>
      <trkpt lat="43.57585" lon="0.32667">
        <ele>163</ele>
        <time>2018-06-25T09:18:34.699Z</time>
      </trkpt>
      <trkpt lat="43.57567" lon="0.32661">
        <ele>163</ele>
        <time>2018-06-25T09:18:35.699Z</time>
      </trkpt>
      <trkpt lat="43.57467" lon="0.32644">
        <ele>163</ele>
        <time>2018-06-25T09:18:36.699Z</time>
      </trkpt>
      <trkpt lat="43.5744" lon="0.32654">
        <ele>162</ele>
        <time>2018-06-25T09:18:37.699Z</time>
      </trkpt>
      <trkpt lat="43.57375" lon="0.32688">
        <ele>162</ele>
        <time>2018-06-25T09:18:38.699Z</time>
      </trkpt>
      <trkpt lat="43.57365" lon="0.32688">
        <ele>162</ele>
        <time>2018-06-25T09:18:39.699Z</time>
      </trkpt>
      <trkpt lat="43.57332" lon="0.3268">
        <ele>161</ele>
        <time>2018-06-25T09:18:40.699Z</time>
      </trkpt>
      <trkpt lat="43.57323" lon="0.3268">
        <ele>162</ele>
        <time>2018-06-25T09:18:41.699Z</time>
      </trkpt>
      <trkpt lat="43.5731" lon="0.32686">
        <ele>163</ele>
        <time>2018-06-25T09:18:42.699Z</time>
      </trkpt>
      <trkpt lat="43.57295" lon="0.32705">
        <ele>166</ele>
        <time>2018-06-25T09:18:43.699Z</time>
      </trkpt>
      <trkpt lat="43.57287" lon="0.32717">
        <ele>167</ele>
        <time>2018-06-25T09:18:44.699Z</time>
      </trkpt>
      <trkpt lat="43.57264" lon="0.32748">
        <ele>172</ele>
        <time>2018-06-25T09:18:45.699Z</time>
      </trkpt>
      <trkpt lat="43.57238" lon="0.32792">
        <ele>172</ele>
        <time>2018-06-25T09:18:46.699Z</time>
      </trkpt>
      <trkpt lat="43.57217" lon="0.32816">
        <ele>173</ele>
        <time>2018-06-25T09:18:47.699Z</time>
      </trkpt>
      <trkpt lat="43.57198" lon="0.3283">
        <ele>174</ele>
        <time>2018-06-25T09:18:48.699Z</time>
      </trkpt>
      <trkpt lat="43.57165" lon="0.32848">
        <ele>176</ele>
        <time>2018-06-25T09:18:49.699Z</time>
      </trkpt>
      <trkpt lat="43.57131" lon="0.32874">
        <ele>175</ele>
        <time>2018-06-25T09:18:50.699Z</time>
      </trkpt>
      <trkpt lat="43.57122" lon="0.32876">
        <ele>174</ele>
        <time>2018-06-25T09:18:51.699Z</time>
      </trkpt>
      <trkpt lat="43.57113" lon="0.3287">
        <ele>173</ele>
        <time>2018-06-25T09:18:52.699Z</time>
      </trkpt>
      <trkpt lat="43.57098" lon="0.32863">
        <ele>172</ele>
        <time>2018-06-25T09:18:53.699Z</time>
      </trkpt>
      <trkpt lat="43.5708" lon="0.32872">
        <ele>171</ele>
        <time>2018-06-25T09:18:54.699Z</time>
      </trkpt>
      <trkpt lat="43.57053" lon="0.32881">
        <ele>170</ele>
        <time>2018-06-25T09:18:55.699Z</time>
      </trkpt>
      <trkpt lat="43.57025" lon="0.32893">
        <ele>170</ele>
        <time>2018-06-25T09:18:56.699Z</time>
      </trkpt>
      <trkpt lat="43.57002" lon="0.32899">
        <ele>169</ele>
        <time>2018-06-25T09:18:57.699Z</time>
      </trkpt>
      <trkpt lat="43.57002" lon="0.329">
        <ele>169</ele>
        <time>2018-06-25T09:18:58.699Z</time>
      </trkpt>
      <trkpt lat="43.56993" lon="0.32902">
        <ele>169</ele>
        <time>2018-06-25T09:18:59.699Z</time>
      </trkpt>
      <trkpt lat="43.56912" lon="0.32909">
        <ele>165</ele>
        <time>2018-06-25T09:19:00.699Z</time>
      </trkpt>
      <trkpt lat="43.56884" lon="0.32914">
        <ele>166</ele>
        <time>2018-06-25T09:19:01.699Z</time>
      </trkpt>
      <trkpt lat="43.56822" lon="0.32908">
        <ele>165</ele>
        <time>2018-06-25T09:19:02.699Z</time>
      </trkpt>
      <trkpt lat="43.56769" lon="0.32912">
        <ele>165</ele>
        <time>2018-06-25T09:19:03.699Z</time>
      </trkpt>
      <trkpt lat="43.56724" lon="0.3292">
        <ele>165</ele>
        <time>2018-06-25T09:19:04.699Z</time>
      </trkpt>
      <trkpt lat="43.56708" lon="0.32926">
        <ele>166</ele>
        <time>2018-06-25T09:19:05.699Z</time>
      </trkpt>
      <trkpt lat="43.56661" lon="0.32938">
        <ele>166</ele>
        <time>2018-06-25T09:19:06.699Z</time>
      </trkpt>
      <trkpt lat="43.56638" lon="0.32948">
        <ele>166</ele>
        <time>2018-06-25T09:19:07.699Z</time>
      </trkpt>
      <trkpt lat="43.5662" lon="0.32961">
        <ele>166</ele>
        <time>2018-06-25T09:19:08.699Z</time>
      </trkpt>
      <trkpt lat="43.56559" lon="0.32988">
        <ele>162</ele>
        <time>2018-06-25T09:19:09.699Z</time>
      </trkpt>
      <trkpt lat="43.56542" lon="0.33">
        <ele>162</ele>
        <time>2018-06-25T09:19:10.699Z</time>
      </trkpt>
      <trkpt lat="43.56538" lon="0.33008">
        <ele>162</ele>
        <time>2018-06-25T09:19:11.699Z</time>
      </trkpt>
      <trkpt lat="43.56533" lon="0.33028">
        <ele>163</ele>
        <time>2018-06-25T09:19:12.699Z</time>
      </trkpt>
      <trkpt lat="43.56521" lon="0.33037">
        <ele>163</ele>
        <time>2018-06-25T09:19:13.699Z</time>
      </trkpt>
      <trkpt lat="43.56502" lon="0.33056">
        <ele>163</ele>
        <time>2018-06-25T09:19:14.699Z</time>
      </trkpt>
      <trkpt lat="43.56489" lon="0.33067">
        <ele>163</ele>
        <time>2018-06-25T09:19:15.699Z</time>
      </trkpt>
      <trkpt lat="43.5648" lon="0.33072">
        <ele>163</ele>
        <time>2018-06-25T09:19:16.699Z</time>
      </trkpt>
      <trkpt lat="43.56431" lon="0.33085">
        <ele>163</ele>
        <time>2018-06-25T09:19:17.699Z</time>
      </trkpt>
      <trkpt lat="43.56416" lon="0.33087">
        <ele>163</ele>
        <time>2018-06-25T09:19:18.699Z</time>
      </trkpt>
      <trkpt lat="43.56401" lon="0.33089">
        <ele>164</ele>
        <time>2018-06-25T09:19:19.699Z</time>
      </trkpt>
      <trkpt lat="43.56342" lon="0.3309">
        <ele>164</ele>
        <time>2018-06-25T09:19:20.699Z</time>
      </trkpt>
      <trkpt lat="43.5626" lon="0.33103">
        <ele>164</ele>
        <time>2018-06-25T09:19:21.699Z</time>
      </trkpt>
      <trkpt lat="43.56133" lon="0.33149">
        <ele>165</ele>
        <time>2018-06-25T09:19:22.699Z</time>
      </trkpt>
      <trkpt lat="43.56078" lon="0.33162">
        <ele>166</ele>
        <time>2018-06-25T09:19:23.699Z</time>
      </trkpt>
      <trkpt lat="43.5606" lon="0.33173">
        <ele>166</ele>
        <time>2018-06-25T09:19:24.699Z</time>
      </trkpt>
      <trkpt lat="43.56005" lon="0.33183">
        <ele>167</ele>
        <time>2018-06-25T09:19:25.699Z</time>
      </trkpt>
      <trkpt lat="43.5596" lon="0.33179">
        <ele>166</ele>
        <time>2018-06-25T09:19:26.699Z</time>
      </trkpt>
      <trkpt lat="43.55896" lon="0.33191">
        <ele>167</ele>
        <time>2018-06-25T09:19:27.699Z</time>
      </trkpt>
      <trkpt lat="43.55876" lon="0.33185">
        <ele>165</ele>
        <time>2018-06-25T09:19:28.699Z</time>
      </trkpt>
      <trkpt lat="43.55785" lon="0.33232">
        <ele>167</ele>
        <time>2018-06-25T09:19:29.699Z</time>
      </trkpt>
      <trkpt lat="43.55762" lon="0.33247">
        <ele>167</ele>
        <time>2018-06-25T09:19:30.699Z</time>
      </trkpt>
      <trkpt lat="43.55734" lon="0.33273">
        <ele>167</ele>
        <time>2018-06-25T09:19:31.699Z</time>
      </trkpt>
      <trkpt lat="43.55705" lon="0.33312">
        <ele>167</ele>
        <time>2018-06-25T09:19:32.699Z</time>
      </trkpt>
      <trkpt lat="43.55694" lon="0.33317">
        <ele>167</ele>
        <time>2018-06-25T09:19:33.699Z</time>
      </trkpt>
      <trkpt lat="43.55632" lon="0.33328">
        <ele>166</ele>
        <time>2018-06-25T09:19:34.699Z</time>
      </trkpt>
      <trkpt lat="43.55585" lon="0.33331">
        <ele>167</ele>
        <time>2018-06-25T09:19:35.699Z</time>
      </trkpt>
      <trkpt lat="43.55535" lon="0.33342">
        <ele>168</ele>
        <time>2018-06-25T09:19:36.699Z</time>
      </trkpt>
      <trkpt lat="43.55438" lon="0.33382">
        <ele>169</ele>
        <time>2018-06-25T09:19:37.699Z</time>
      </trkpt>
      <trkpt lat="43.55326" lon="0.33438">
        <ele>166</ele>
        <time>2018-06-25T09:19:38.699Z</time>
      </trkpt>
      <trkpt lat="43.55315" lon="0.33439">
        <ele>166</ele>
        <time>2018-06-25T09:19:39.699Z</time>
      </trkpt>
      <trkpt lat="43.55294" lon="0.33439">
        <ele>165</ele>
        <time>2018-06-25T09:19:40.699Z</time>
      </trkpt>
      <trkpt lat="43.55282" lon="0.33441">
        <ele>165</ele>
        <time>2018-06-25T09:19:41.699Z</time>
      </trkpt>
      <trkpt lat="43.55189" lon="0.335">
        <ele>166</ele>
        <time>2018-06-25T09:19:42.699Z</time>
      </trkpt>
      <trkpt lat="43.55179" lon="0.33504">
        <ele>167</ele>
        <time>2018-06-25T09:19:43.699Z</time>
      </trkpt>
      <trkpt lat="43.55171" lon="0.33501">
        <ele>166</ele>
        <time>2018-06-25T09:19:44.699Z</time>
      </trkpt>
      <trkpt lat="43.55168" lon="0.33496">
        <ele>166</ele>
        <time>2018-06-25T09:19:45.699Z</time>
      </trkpt>
      <trkpt lat="43.55148" lon="0.3343">
        <ele>164</ele>
        <time>2018-06-25T09:19:46.699Z</time>
      </trkpt>
      <trkpt lat="43.55137" lon="0.33409">
        <ele>164</ele>
        <time>2018-06-25T09:19:47.699Z</time>
      </trkpt>
      <trkpt lat="43.5513" lon="0.33396">
        <ele>164</ele>
        <time>2018-06-25T09:19:48.699Z</time>
      </trkpt>
      <trkpt lat="43.55011" lon="0.33268">
        <ele>164</ele>
        <time>2018-06-25T09:19:49.699Z</time>
      </trkpt>
      <trkpt lat="43.55" lon="0.33251">
        <ele>164</ele>
        <time>2018-06-25T09:19:50.699Z</time>
      </trkpt>
      <trkpt lat="43.54931" lon="0.33056">
        <ele>165</ele>
        <time>2018-06-25T09:19:51.699Z</time>
      </trkpt>
      <trkpt lat="43.54928" lon="0.33039">
        <ele>165</ele>
        <time>2018-06-25T09:19:52.699Z</time>
      </trkpt>
      <trkpt lat="43.5492" lon="0.32961">
        <ele>170</ele>
        <time>2018-06-25T09:19:53.699Z</time>
      </trkpt>
      <trkpt lat="43.54921" lon="0.3296">
        <ele>170</ele>
        <time>2018-06-25T09:19:54.699Z</time>
      </trkpt>
      <trkpt lat="43.54918" lon="0.32929">
        <ele>173</ele>
        <time>2018-06-25T09:19:55.699Z</time>
      </trkpt>
      <trkpt lat="43.54898" lon="0.32806">
        <ele>177</ele>
        <time>2018-06-25T09:19:56.699Z</time>
      </trkpt>
      <trkpt lat="43.54887" lon="0.32762">
        <ele>179</ele>
        <time>2018-06-25T09:19:57.699Z</time>
      </trkpt>
      <trkpt lat="43.5484" lon="0.32702">
        <ele>180</ele>
        <time>2018-06-25T09:19:58.699Z</time>
      </trkpt>
      <trkpt lat="43.54833" lon="0.32674">
        <ele>181</ele>
        <time>2018-06-25T09:19:59.699Z</time>
      </trkpt>
      <trkpt lat="43.54832" lon="0.32577">
        <ele>185</ele>
        <time>2018-06-25T09:20:00.699Z</time>
      </trkpt>
      <trkpt lat="43.54826" lon="0.32463">
        <ele>189</ele>
        <time>2018-06-25T09:20:01.699Z</time>
      </trkpt>
      <trkpt lat="43.5483" lon="0.32346">
        <ele>194</ele>
        <time>2018-06-25T09:20:02.699Z</time>
      </trkpt>
      <trkpt lat="43.54831" lon="0.32175">
        <ele>196</ele>
        <time>2018-06-25T09:20:03.699Z</time>
      </trkpt>
      <trkpt lat="43.54832" lon="0.32149">
        <ele>197</ele>
        <time>2018-06-25T09:20:04.699Z</time>
      </trkpt>
      <trkpt lat="43.54837" lon="0.32142">
        <ele>197</ele>
        <time>2018-06-25T09:20:05.699Z</time>
      </trkpt>
      <trkpt lat="43.54875" lon="0.32101">
        <ele>200</ele>
        <time>2018-06-25T09:20:06.699Z</time>
      </trkpt>
      <trkpt lat="43.54909" lon="0.32059">
        <ele>203</ele>
        <time>2018-06-25T09:20:07.699Z</time>
      </trkpt>
      <trkpt lat="43.54947" lon="0.32033">
        <ele>204</ele>
        <time>2018-06-25T09:20:08.699Z</time>
      </trkpt>
      <trkpt lat="43.54926" lon="0.31971">
        <ele>205</ele>
        <time>2018-06-25T09:20:09.699Z</time>
      </trkpt>
      <trkpt lat="43.54898" lon="0.31896">
        <ele>206</ele>
        <time>2018-06-25T09:20:10.699Z</time>
      </trkpt>
      <trkpt lat="43.54816" lon="0.31654">
        <ele>215</ele>
        <time>2018-06-25T09:20:11.699Z</time>
      </trkpt>
      <trkpt lat="43.54812" lon="0.31646">
        <ele>215</ele>
        <time>2018-06-25T09:20:12.699Z</time>
      </trkpt>
      <trkpt lat="43.54807" lon="0.3164">
        <ele>215</ele>
        <time>2018-06-25T09:20:13.699Z</time>
      </trkpt>
      <trkpt lat="43.54799" lon="0.31622">
        <ele>216</ele>
        <time>2018-06-25T09:20:14.699Z</time>
      </trkpt>
      <trkpt lat="43.54792" lon="0.31616">
        <ele>216</ele>
        <time>2018-06-25T09:20:15.699Z</time>
      </trkpt>
      <trkpt lat="43.54829" lon="0.31518">
        <ele>215</ele>
        <time>2018-06-25T09:20:16.699Z</time>
      </trkpt>
      <trkpt lat="43.54842" lon="0.31466">
        <ele>212</ele>
        <time>2018-06-25T09:20:17.699Z</time>
      </trkpt>
      <trkpt lat="43.54861" lon="0.3141">
        <ele>204</ele>
        <time>2018-06-25T09:20:18.699Z</time>
      </trkpt>
      <trkpt lat="43.54901" lon="0.3127">
        <ele>190</ele>
        <time>2018-06-25T09:20:19.699Z</time>
      </trkpt>
      <trkpt lat="43.54939" lon="0.31166">
        <ele>185</ele>
        <time>2018-06-25T09:20:20.699Z</time>
      </trkpt>
      <trkpt lat="43.54941" lon="0.31147">
        <ele>187</ele>
        <time>2018-06-25T09:20:21.699Z</time>
      </trkpt>
      <trkpt lat="43.54939" lon="0.31087">
        <ele>191</ele>
        <time>2018-06-25T09:20:22.699Z</time>
      </trkpt>
      <trkpt lat="43.54931" lon="0.31052">
        <ele>194</ele>
        <time>2018-06-25T09:20:23.699Z</time>
      </trkpt>
      <trkpt lat="43.54919" lon="0.30987">
        <ele>200</ele>
        <time>2018-06-25T09:20:24.699Z</time>
      </trkpt>
      <trkpt lat="43.54886" lon="0.30905">
        <ele>203</ele>
        <time>2018-06-25T09:20:25.699Z</time>
      </trkpt>
      <trkpt lat="43.54875" lon="0.30854">
        <ele>205</ele>
        <time>2018-06-25T09:20:26.699Z</time>
      </trkpt>
      <trkpt lat="43.54876" lon="0.30838">
        <ele>205</ele>
        <time>2018-06-25T09:20:27.699Z</time>
      </trkpt>
      <trkpt lat="43.54887" lon="0.30761">
        <ele>209</ele>
        <time>2018-06-25T09:20:28.699Z</time>
      </trkpt>
      <trkpt lat="43.54894" lon="0.30728">
        <ele>211</ele>
        <time>2018-06-25T09:20:29.699Z</time>
      </trkpt>
      <trkpt lat="43.54896" lon="0.30703">
        <ele>213</ele>
        <time>2018-06-25T09:20:30.699Z</time>
      </trkpt>
      <trkpt lat="43.54901" lon="0.30677">
        <ele>215</ele>
        <time>2018-06-25T09:20:31.699Z</time>
      </trkpt>
      <trkpt lat="43.54915" lon="0.30641">
        <ele>218</ele>
        <time>2018-06-25T09:20:32.699Z</time>
      </trkpt>
      <trkpt lat="43.54964" lon="0.30551">
        <ele>222</ele>
        <time>2018-06-25T09:20:33.699Z</time>
      </trkpt>
      <trkpt lat="43.54989" lon="0.30499">
        <ele>227</ele>
        <time>2018-06-25T09:20:34.699Z</time>
      </trkpt>
      <trkpt lat="43.55001" lon="0.30452">
        <ele>229</ele>
        <time>2018-06-25T09:20:35.699Z</time>
      </trkpt>
      <trkpt lat="43.55007" lon="0.30406">
        <ele>229</ele>
        <time>2018-06-25T09:20:36.699Z</time>
      </trkpt>
      <trkpt lat="43.55006" lon="0.30342">
        <ele>229</ele>
        <time>2018-06-25T09:20:37.699Z</time>
      </trkpt>
      <trkpt lat="43.55" lon="0.30298">
        <ele>231</ele>
        <time>2018-06-25T09:20:38.699Z</time>
      </trkpt>
      <trkpt lat="43.5498" lon="0.30206">
        <ele>237</ele>
        <time>2018-06-25T09:20:39.699Z</time>
      </trkpt>
      <trkpt lat="43.54973" lon="0.30151">
        <ele>241</ele>
        <time>2018-06-25T09:20:40.699Z</time>
      </trkpt>
      <trkpt lat="43.54972" lon="0.30087">
        <ele>244</ele>
        <time>2018-06-25T09:20:41.699Z</time>
      </trkpt>
      <trkpt lat="43.54973" lon="0.30029">
        <ele>247</ele>
        <time>2018-06-25T09:20:42.699Z</time>
      </trkpt>
      <trkpt lat="43.54976" lon="0.30002">
        <ele>249</ele>
        <time>2018-06-25T09:20:43.699Z</time>
      </trkpt>
      <trkpt lat="43.5499" lon="0.29914">
        <ele>252</ele>
        <time>2018-06-25T09:20:44.699Z</time>
      </trkpt>
      <trkpt lat="43.5494" lon="0.29909">
        <ele>255</ele>
        <time>2018-06-25T09:20:45.699Z</time>
      </trkpt>
      <trkpt lat="43.5492" lon="0.29905">
        <ele>256</ele>
        <time>2018-06-25T09:20:46.699Z</time>
      </trkpt>
      <trkpt lat="43.54912" lon="0.299">
        <ele>256</ele>
        <time>2018-06-25T09:20:47.699Z</time>
      </trkpt>
      <trkpt lat="43.54896" lon="0.29885">
        <ele>255</ele>
        <time>2018-06-25T09:20:48.699Z</time>
      </trkpt>
      <trkpt lat="43.54885" lon="0.29868">
        <ele>254</ele>
        <time>2018-06-25T09:20:49.699Z</time>
      </trkpt>
      <trkpt lat="43.54876" lon="0.29849">
        <ele>253</ele>
        <time>2018-06-25T09:20:50.699Z</time>
      </trkpt>
      <trkpt lat="43.54867" lon="0.29821">
        <ele>252</ele>
        <time>2018-06-25T09:20:51.699Z</time>
      </trkpt>
      <trkpt lat="43.54832" lon="0.29668">
        <ele>259</ele>
        <time>2018-06-25T09:20:52.699Z</time>
      </trkpt>
      <trkpt lat="43.54811" lon="0.29545">
        <ele>263</ele>
        <time>2018-06-25T09:20:53.699Z</time>
      </trkpt>
      <trkpt lat="43.54805" lon="0.29547">
        <ele>262</ele>
        <time>2018-06-25T09:20:54.699Z</time>
      </trkpt>
      <trkpt lat="43.548" lon="0.29525">
        <ele>263</ele>
        <time>2018-06-25T09:20:55.699Z</time>
      </trkpt>
      <trkpt lat="43.54795" lon="0.29519">
        <ele>264</ele>
        <time>2018-06-25T09:20:56.699Z</time>
      </trkpt>
      <trkpt lat="43.54807" lon="0.295">
        <ele>265</ele>
        <time>2018-06-25T09:20:57.699Z</time>
      </trkpt>
      <trkpt lat="43.54819" lon="0.29486">
        <ele>266</ele>
        <time>2018-06-25T09:20:58.699Z</time>
      </trkpt>
      <trkpt lat="43.54825" lon="0.2947">
        <ele>266</ele>
        <time>2018-06-25T09:20:59.699Z</time>
      </trkpt>
      <trkpt lat="43.54826" lon="0.29442">
        <ele>268</ele>
        <time>2018-06-25T09:21:00.699Z</time>
      </trkpt>
      <trkpt lat="43.54824" lon="0.29379">
        <ele>270</ele>
        <time>2018-06-25T09:21:01.699Z</time>
      </trkpt>
      <trkpt lat="43.54825" lon="0.29362">
        <ele>271</ele>
        <time>2018-06-25T09:21:02.699Z</time>
      </trkpt>
      <trkpt lat="43.54828" lon="0.29344">
        <ele>271</ele>
        <time>2018-06-25T09:21:03.699Z</time>
      </trkpt>
      <trkpt lat="43.54843" lon="0.29319">
        <ele>270</ele>
        <time>2018-06-25T09:21:04.699Z</time>
      </trkpt>
      <trkpt lat="43.54815" lon="0.29295">
        <ele>271</ele>
        <time>2018-06-25T09:21:05.699Z</time>
      </trkpt>
      <trkpt lat="43.54803" lon="0.29279">
        <ele>271</ele>
        <time>2018-06-25T09:21:06.699Z</time>
      </trkpt>
      <trkpt lat="43.54789" lon="0.29267">
        <ele>271</ele>
        <time>2018-06-25T09:21:07.699Z</time>
      </trkpt>
      <trkpt lat="43.54778" lon="0.29266">
        <ele>271</ele>
        <time>2018-06-25T09:21:08.699Z</time>
      </trkpt>
      <trkpt lat="43.54802" lon="0.29122">
        <ele>262</ele>
        <time>2018-06-25T09:21:09.699Z</time>
      </trkpt>
      <trkpt lat="43.5482" lon="0.29006">
        <ele>259</ele>
        <time>2018-06-25T09:21:10.699Z</time>
      </trkpt>
      <trkpt lat="43.54821" lon="0.28941">
        <ele>256</ele>
        <time>2018-06-25T09:21:11.699Z</time>
      </trkpt>
      <trkpt lat="43.54815" lon="0.28859">
        <ele>251</ele>
        <time>2018-06-25T09:21:12.699Z</time>
      </trkpt>
      <trkpt lat="43.54794" lon="0.28726">
        <ele>245</ele>
        <time>2018-06-25T09:21:13.699Z</time>
      </trkpt>
      <trkpt lat="43.54789" lon="0.28666">
        <ele>246</ele>
        <time>2018-06-25T09:21:14.699Z</time>
      </trkpt>
      <trkpt lat="43.5475" lon="0.28545">
        <ele>249</ele>
        <time>2018-06-25T09:21:15.699Z</time>
      </trkpt>
      <trkpt lat="43.54717" lon="0.2853">
        <ele>240</ele>
        <time>2018-06-25T09:21:16.699Z</time>
      </trkpt>
      <trkpt lat="43.54702" lon="0.28517">
        <ele>236</ele>
        <time>2018-06-25T09:21:17.699Z</time>
      </trkpt>
      <trkpt lat="43.54666" lon="0.28519">
        <ele>227</ele>
        <time>2018-06-25T09:21:18.699Z</time>
      </trkpt>
      <trkpt lat="43.54668" lon="0.28463">
        <ele>223</ele>
        <time>2018-06-25T09:21:19.699Z</time>
      </trkpt>
      <trkpt lat="43.54685" lon="0.28403">
        <ele>218</ele>
        <time>2018-06-25T09:21:20.699Z</time>
      </trkpt>
      <trkpt lat="43.54635" lon="0.2827">
        <ele>197</ele>
        <time>2018-06-25T09:21:21.699Z</time>
      </trkpt>
      <trkpt lat="43.54599" lon="0.28276">
        <ele>197</ele>
        <time>2018-06-25T09:21:22.699Z</time>
      </trkpt>
      <trkpt lat="43.5456" lon="0.2821">
        <ele>204</ele>
        <time>2018-06-25T09:21:23.699Z</time>
      </trkpt>
      <trkpt lat="43.54557" lon="0.28079">
        <ele>213</ele>
        <time>2018-06-25T09:21:24.699Z</time>
      </trkpt>
      <trkpt lat="43.54545" lon="0.28017">
        <ele>218</ele>
        <time>2018-06-25T09:21:25.699Z</time>
      </trkpt>
      <trkpt lat="43.54521" lon="0.27935">
        <ele>222</ele>
        <time>2018-06-25T09:21:26.699Z</time>
      </trkpt>
      <trkpt lat="43.5447" lon="0.27888">
        <ele>229</ele>
        <time>2018-06-25T09:21:27.699Z</time>
      </trkpt>
      <trkpt lat="43.54416" lon="0.2786">
        <ele>233</ele>
        <time>2018-06-25T09:21:28.699Z</time>
      </trkpt>
      <trkpt lat="43.54382" lon="0.27761">
        <ele>235</ele>
        <time>2018-06-25T09:21:29.699Z</time>
      </trkpt>
      <trkpt lat="43.54378" lon="0.27706">
        <ele>237</ele>
        <time>2018-06-25T09:21:30.699Z</time>
      </trkpt>
      <trkpt lat="43.54402" lon="0.27618">
        <ele>240</ele>
        <time>2018-06-25T09:21:31.699Z</time>
      </trkpt>
      <trkpt lat="43.54388" lon="0.27543">
        <ele>243</ele>
        <time>2018-06-25T09:21:32.699Z</time>
      </trkpt>
      <trkpt lat="43.54403" lon="0.27452">
        <ele>247</ele>
        <time>2018-06-25T09:21:33.699Z</time>
      </trkpt>
      <trkpt lat="43.5438" lon="0.27341">
        <ele>251</ele>
        <time>2018-06-25T09:21:34.699Z</time>
      </trkpt>
      <trkpt lat="43.54374" lon="0.27246">
        <ele>255</ele>
        <time>2018-06-25T09:21:35.699Z</time>
      </trkpt>
      <trkpt lat="43.54338" lon="0.2718">
        <ele>261</ele>
        <time>2018-06-25T09:21:36.699Z</time>
      </trkpt>
      <trkpt lat="43.54279" lon="0.27066">
        <ele>257</ele>
        <time>2018-06-25T09:21:37.699Z</time>
      </trkpt>
      <trkpt lat="43.54221" lon="0.26929">
        <ele>265</ele>
        <time>2018-06-25T09:21:38.699Z</time>
      </trkpt>
      <trkpt lat="43.54181" lon="0.26849">
        <ele>265</ele>
        <time>2018-06-25T09:21:39.699Z</time>
      </trkpt>
      <trkpt lat="43.54144" lon="0.26794">
        <ele>262</ele>
        <time>2018-06-25T09:21:40.699Z</time>
      </trkpt>
      <trkpt lat="43.5407" lon="0.26746">
        <ele>258</ele>
        <time>2018-06-25T09:21:41.699Z</time>
      </trkpt>
      <trkpt lat="43.54013" lon="0.26701">
        <ele>258</ele>
        <time>2018-06-25T09:21:42.699Z</time>
      </trkpt>
      <trkpt lat="43.53979" lon="0.26641">
        <ele>260</ele>
        <time>2018-06-25T09:21:43.699Z</time>
      </trkpt>
      <trkpt lat="43.53941" lon="0.2653">
        <ele>266</ele>
        <time>2018-06-25T09:21:44.699Z</time>
      </trkpt>
      <trkpt lat="43.53873" lon="0.26536">
        <ele>263</ele>
        <time>2018-06-25T09:21:45.699Z</time>
      </trkpt>
      <trkpt lat="43.53618" lon="0.2648">
        <ele>275</ele>
        <time>2018-06-25T09:21:46.699Z</time>
      </trkpt>
      <trkpt lat="43.53616" lon="0.26474">
        <ele>275</ele>
        <time>2018-06-25T09:21:47.699Z</time>
      </trkpt>
      <trkpt lat="43.53423" lon="0.26576">
        <ele>273</ele>
        <time>2018-06-25T09:21:48.699Z</time>
      </trkpt>
      <trkpt lat="43.53414" lon="0.26548">
        <ele>272</ele>
        <time>2018-06-25T09:21:49.699Z</time>
      </trkpt>
      <trkpt lat="43.53394" lon="0.26479">
        <ele>273</ele>
        <time>2018-06-25T09:21:50.699Z</time>
      </trkpt>
      <trkpt lat="43.53382" lon="0.26419">
        <ele>272</ele>
        <time>2018-06-25T09:21:51.699Z</time>
      </trkpt>
      <trkpt lat="43.5338" lon="0.2636">
        <ele>273</ele>
        <time>2018-06-25T09:21:52.699Z</time>
      </trkpt>
      <trkpt lat="43.53349" lon="0.26372">
        <ele>278</ele>
        <time>2018-06-25T09:21:53.699Z</time>
      </trkpt>
      <trkpt lat="43.53323" lon="0.26378">
        <ele>280</ele>
        <time>2018-06-25T09:21:54.699Z</time>
      </trkpt>
      <trkpt lat="43.53261" lon="0.26376">
        <ele>278</ele>
        <time>2018-06-25T09:21:55.699Z</time>
      </trkpt>
      <trkpt lat="43.53205" lon="0.26378">
        <ele>276</ele>
        <time>2018-06-25T09:21:56.699Z</time>
      </trkpt>
      <trkpt lat="43.53205" lon="0.26379">
        <ele>276</ele>
        <time>2018-06-25T09:21:57.699Z</time>
      </trkpt>
      <trkpt lat="43.5304" lon="0.26387">
        <ele>274</ele>
        <time>2018-06-25T09:21:58.699Z</time>
      </trkpt>
      <trkpt lat="43.52976" lon="0.26388">
        <ele>276</ele>
        <time>2018-06-25T09:21:59.699Z</time>
      </trkpt>
      <trkpt lat="43.52949" lon="0.26394">
        <ele>276</ele>
        <time>2018-06-25T09:22:00.699Z</time>
      </trkpt>
      <trkpt lat="43.52946" lon="0.26345">
        <ele>278</ele>
        <time>2018-06-25T09:22:01.699Z</time>
      </trkpt>
      <trkpt lat="43.52958" lon="0.26168">
        <ele>272</ele>
        <time>2018-06-25T09:22:02.699Z</time>
      </trkpt>
      <trkpt lat="43.52961" lon="0.26113">
        <ele>267</ele>
        <time>2018-06-25T09:22:03.699Z</time>
      </trkpt>
      <trkpt lat="43.52955" lon="0.26075">
        <ele>264</ele>
        <time>2018-06-25T09:22:04.699Z</time>
      </trkpt>
      <trkpt lat="43.52947" lon="0.26037">
        <ele>261</ele>
        <time>2018-06-25T09:22:05.699Z</time>
      </trkpt>
      <trkpt lat="43.52934" lon="0.26009">
        <ele>259</ele>
        <time>2018-06-25T09:22:06.699Z</time>
      </trkpt>
      <trkpt lat="43.52925" lon="0.25995">
        <ele>258</ele>
        <time>2018-06-25T09:22:07.699Z</time>
      </trkpt>
      <trkpt lat="43.52921" lon="0.25971">
        <ele>257</ele>
        <time>2018-06-25T09:22:08.699Z</time>
      </trkpt>
      <trkpt lat="43.52904" lon="0.25939">
        <ele>255</ele>
        <time>2018-06-25T09:22:09.699Z</time>
      </trkpt>
      <trkpt lat="43.52878" lon="0.25879">
        <ele>253</ele>
        <time>2018-06-25T09:22:10.699Z</time>
      </trkpt>
      <trkpt lat="43.52885" lon="0.25835">
        <ele>254</ele>
        <time>2018-06-25T09:22:11.699Z</time>
      </trkpt>
      <trkpt lat="43.52888" lon="0.25805">
        <ele>254</ele>
        <time>2018-06-25T09:22:12.699Z</time>
      </trkpt>
      <trkpt lat="43.52884" lon="0.25744">
        <ele>254</ele>
        <time>2018-06-25T09:22:13.699Z</time>
      </trkpt>
      <trkpt lat="43.52884" lon="0.25743">
        <ele>254</ele>
        <time>2018-06-25T09:22:14.699Z</time>
      </trkpt>
      <trkpt lat="43.52888" lon="0.25712">
        <ele>254</ele>
        <time>2018-06-25T09:22:15.699Z</time>
      </trkpt>
      <trkpt lat="43.52884" lon="0.25649">
        <ele>252</ele>
        <time>2018-06-25T09:22:16.699Z</time>
      </trkpt>
      <trkpt lat="43.52876" lon="0.25606">
        <ele>249</ele>
        <time>2018-06-25T09:22:17.699Z</time>
      </trkpt>
      <trkpt lat="43.52848" lon="0.25505">
        <ele>243</ele>
        <time>2018-06-25T09:22:18.699Z</time>
      </trkpt>
      <trkpt lat="43.52832" lon="0.25464">
        <ele>240</ele>
        <time>2018-06-25T09:22:19.699Z</time>
      </trkpt>
      <trkpt lat="43.52807" lon="0.25389">
        <ele>231</ele>
        <time>2018-06-25T09:22:20.699Z</time>
      </trkpt>
      <trkpt lat="43.52792" lon="0.2536">
        <ele>228</ele>
        <time>2018-06-25T09:22:21.699Z</time>
      </trkpt>
      <trkpt lat="43.52778" lon="0.2534">
        <ele>226</ele>
        <time>2018-06-25T09:22:22.699Z</time>
      </trkpt>
      <trkpt lat="43.52764" lon="0.25328">
        <ele>226</ele>
        <time>2018-06-25T09:22:23.699Z</time>
      </trkpt>
      <trkpt lat="43.52691" lon="0.25233">
        <ele>215</ele>
        <time>2018-06-25T09:22:24.699Z</time>
      </trkpt>
      <trkpt lat="43.52674" lon="0.25204">
        <ele>214</ele>
        <time>2018-06-25T09:22:25.699Z</time>
      </trkpt>
      <trkpt lat="43.5266" lon="0.25172">
        <ele>215</ele>
        <time>2018-06-25T09:22:26.699Z</time>
      </trkpt>
      <trkpt lat="43.52613" lon="0.25077">
        <ele>213</ele>
        <time>2018-06-25T09:22:27.699Z</time>
      </trkpt>
      <trkpt lat="43.52578" lon="0.24998">
        <ele>213</ele>
        <time>2018-06-25T09:22:28.699Z</time>
      </trkpt>
      <trkpt lat="43.52556" lon="0.24937">
        <ele>213</ele>
        <time>2018-06-25T09:22:29.699Z</time>
      </trkpt>
      <trkpt lat="43.5253" lon="0.24879">
        <ele>214</ele>
        <time>2018-06-25T09:22:30.699Z</time>
      </trkpt>
      <trkpt lat="43.52518" lon="0.24854">
        <ele>214</ele>
        <time>2018-06-25T09:22:31.699Z</time>
      </trkpt>
      <trkpt lat="43.52417" lon="0.24733">
        <ele>214</ele>
        <time>2018-06-25T09:22:32.699Z</time>
      </trkpt>
      <trkpt lat="43.52391" lon="0.24698">
        <ele>212</ele>
        <time>2018-06-25T09:22:33.699Z</time>
      </trkpt>
      <trkpt lat="43.52379" lon="0.24672">
        <ele>211</ele>
        <time>2018-06-25T09:22:34.699Z</time>
      </trkpt>
      <trkpt lat="43.52325" lon="0.24584">
        <ele>208</ele>
        <time>2018-06-25T09:22:35.699Z</time>
      </trkpt>
      <trkpt lat="43.52291" lon="0.24536">
        <ele>205</ele>
        <time>2018-06-25T09:22:36.699Z</time>
      </trkpt>
      <trkpt lat="43.52288" lon="0.24542">
        <ele>205</ele>
        <time>2018-06-25T09:22:37.699Z</time>
      </trkpt>
      <trkpt lat="43.52271" lon="0.24542">
        <ele>203</ele>
        <time>2018-06-25T09:22:38.699Z</time>
      </trkpt>
      <trkpt lat="43.52233" lon="0.24518">
        <ele>200</ele>
        <time>2018-06-25T09:22:39.699Z</time>
      </trkpt>
      <trkpt lat="43.52189" lon="0.24487">
        <ele>197</ele>
        <time>2018-06-25T09:22:40.699Z</time>
      </trkpt>
      <trkpt lat="43.5216" lon="0.24476">
        <ele>196</ele>
        <time>2018-06-25T09:22:41.699Z</time>
      </trkpt>
      <trkpt lat="43.52119" lon="0.24429">
        <ele>196</ele>
        <time>2018-06-25T09:22:42.699Z</time>
      </trkpt>
      <trkpt lat="43.52093" lon="0.24395">
        <ele>195</ele>
        <time>2018-06-25T09:22:43.699Z</time>
      </trkpt>
      <trkpt lat="43.52075" lon="0.24365">
        <ele>196</ele>
        <time>2018-06-25T09:22:44.699Z</time>
      </trkpt>
      <trkpt lat="43.52007" lon="0.24291">
        <ele>195</ele>
        <time>2018-06-25T09:22:45.699Z</time>
      </trkpt>
      <trkpt lat="43.51832" lon="0.24147">
        <ele>187</ele>
        <time>2018-06-25T09:22:46.699Z</time>
      </trkpt>
      <trkpt lat="43.51809" lon="0.24137">
        <ele>187</ele>
        <time>2018-06-25T09:22:47.699Z</time>
      </trkpt>
      <trkpt lat="43.51786" lon="0.24139">
        <ele>187</ele>
        <time>2018-06-25T09:22:48.699Z</time>
      </trkpt>
      <trkpt lat="43.51764" lon="0.2415">
        <ele>186</ele>
        <time>2018-06-25T09:22:49.699Z</time>
      </trkpt>
      <trkpt lat="43.51729" lon="0.24156">
        <ele>185</ele>
        <time>2018-06-25T09:22:50.699Z</time>
      </trkpt>
      <trkpt lat="43.51699" lon="0.24155">
        <ele>185</ele>
        <time>2018-06-25T09:22:51.699Z</time>
      </trkpt>
      <trkpt lat="43.51662" lon="0.24138">
        <ele>185</ele>
        <time>2018-06-25T09:22:52.699Z</time>
      </trkpt>
      <trkpt lat="43.51702" lon="0.24023">
        <ele>191</ele>
        <time>2018-06-25T09:22:53.699Z</time>
      </trkpt>
      <trkpt lat="43.51528" lon="0.23816">
        <ele>203</ele>
        <time>2018-06-25T09:22:54.699Z</time>
      </trkpt>
      <trkpt lat="43.51484" lon="0.23796">
        <ele>200</ele>
        <time>2018-06-25T09:22:55.699Z</time>
      </trkpt>
      <trkpt lat="43.51448" lon="0.23775">
        <ele>201</ele>
        <time>2018-06-25T09:22:56.699Z</time>
      </trkpt>
      <trkpt lat="43.51388" lon="0.23722">
        <ele>202</ele>
        <time>2018-06-25T09:22:57.699Z</time>
      </trkpt>
      <trkpt lat="43.51335" lon="0.23683">
        <ele>201</ele>
        <time>2018-06-25T09:22:58.699Z</time>
      </trkpt>
      <trkpt lat="43.51316" lon="0.23664">
        <ele>203</ele>
        <time>2018-06-25T09:22:59.699Z</time>
      </trkpt>
      <trkpt lat="43.51293" lon="0.23648">
        <ele>204</ele>
        <time>2018-06-25T09:23:00.699Z</time>
      </trkpt>
      <trkpt lat="43.51244" lon="0.23624">
        <ele>207</ele>
        <time>2018-06-25T09:23:01.699Z</time>
      </trkpt>
      <trkpt lat="43.51206" lon="0.23602">
        <ele>209</ele>
        <time>2018-06-25T09:23:02.699Z</time>
      </trkpt>
      <trkpt lat="43.51188" lon="0.23589">
        <ele>209</ele>
        <time>2018-06-25T09:23:03.699Z</time>
      </trkpt>
      <trkpt lat="43.51162" lon="0.23552">
        <ele>211</ele>
        <time>2018-06-25T09:23:04.699Z</time>
      </trkpt>
      <trkpt lat="43.51156" lon="0.23535">
        <ele>211</ele>
        <time>2018-06-25T09:23:05.699Z</time>
      </trkpt>
      <trkpt lat="43.51152" lon="0.23509">
        <ele>211</ele>
        <time>2018-06-25T09:23:06.699Z</time>
      </trkpt>
      <trkpt lat="43.51143" lon="0.2339">
        <ele>208</ele>
        <time>2018-06-25T09:23:07.699Z</time>
      </trkpt>
      <trkpt lat="43.51141" lon="0.23347">
        <ele>205</ele>
        <time>2018-06-25T09:23:08.699Z</time>
      </trkpt>
      <trkpt lat="43.51131" lon="0.23326">
        <ele>203</ele>
        <time>2018-06-25T09:23:09.699Z</time>
      </trkpt>
      <trkpt lat="43.51123" lon="0.23312">
        <ele>201</ele>
        <time>2018-06-25T09:23:10.699Z</time>
      </trkpt>
      <trkpt lat="43.51099" lon="0.23279">
        <ele>196</ele>
        <time>2018-06-25T09:23:11.699Z</time>
      </trkpt>
      <trkpt lat="43.51074" lon="0.23249">
        <ele>193</ele>
        <time>2018-06-25T09:23:12.699Z</time>
      </trkpt>
      <trkpt lat="43.51067" lon="0.23237">
        <ele>192</ele>
        <time>2018-06-25T09:23:13.699Z</time>
      </trkpt>
      <trkpt lat="43.51051" lon="0.23182">
        <ele>188</ele>
        <time>2018-06-25T09:23:14.699Z</time>
      </trkpt>
      <trkpt lat="43.51034" lon="0.23134">
        <ele>183</ele>
        <time>2018-06-25T09:23:15.699Z</time>
      </trkpt>
      <trkpt lat="43.51004" lon="0.23067">
        <ele>176</ele>
        <time>2018-06-25T09:23:16.699Z</time>
      </trkpt>
      <trkpt lat="43.50989" lon="0.23029">
        <ele>175</ele>
        <time>2018-06-25T09:23:17.699Z</time>
      </trkpt>
      <trkpt lat="43.50988" lon="0.23024">
        <ele>174</ele>
        <time>2018-06-25T09:23:18.699Z</time>
      </trkpt>
      <trkpt lat="43.50979" lon="0.2301">
        <ele>175</ele>
        <time>2018-06-25T09:23:19.699Z</time>
      </trkpt>
      <trkpt lat="43.50959" lon="0.22997">
        <ele>177</ele>
        <time>2018-06-25T09:23:20.699Z</time>
      </trkpt>
      <trkpt lat="43.50926" lon="0.22996">
        <ele>179</ele>
        <time>2018-06-25T09:23:21.699Z</time>
      </trkpt>
      <trkpt lat="43.50891" lon="0.2299">
        <ele>181</ele>
        <time>2018-06-25T09:23:22.699Z</time>
      </trkpt>
      <trkpt lat="43.50878" lon="0.22982">
        <ele>181</ele>
        <time>2018-06-25T09:23:23.699Z</time>
      </trkpt>
      <trkpt lat="43.50866" lon="0.22955">
        <ele>180</ele>
        <time>2018-06-25T09:23:24.699Z</time>
      </trkpt>
      <trkpt lat="43.50847" lon="0.22892">
        <ele>175</ele>
        <time>2018-06-25T09:23:25.699Z</time>
      </trkpt>
      <trkpt lat="43.50837" lon="0.22837">
        <ele>169</ele>
        <time>2018-06-25T09:23:26.699Z</time>
      </trkpt>
      <trkpt lat="43.50816" lon="0.22758">
        <ele>169</ele>
        <time>2018-06-25T09:23:27.699Z</time>
      </trkpt>
      <trkpt lat="43.50807" lon="0.22717">
        <ele>169</ele>
        <time>2018-06-25T09:23:28.699Z</time>
      </trkpt>
      <trkpt lat="43.50807" lon="0.2268">
        <ele>170</ele>
        <time>2018-06-25T09:23:29.699Z</time>
      </trkpt>
      <trkpt lat="43.50792" lon="0.22628">
        <ele>169</ele>
        <time>2018-06-25T09:23:30.699Z</time>
      </trkpt>
      <trkpt lat="43.50779" lon="0.22605">
        <ele>168</ele>
        <time>2018-06-25T09:23:31.699Z</time>
      </trkpt>
      <trkpt lat="43.5076" lon="0.22577">
        <ele>166</ele>
        <time>2018-06-25T09:23:32.699Z</time>
      </trkpt>
      <trkpt lat="43.50737" lon="0.22557">
        <ele>165</ele>
        <time>2018-06-25T09:23:33.699Z</time>
      </trkpt>
      <trkpt lat="43.50716" lon="0.22535">
        <ele>165</ele>
        <time>2018-06-25T09:23:34.699Z</time>
      </trkpt>
      <trkpt lat="43.50692" lon="0.22503">
        <ele>166</ele>
        <time>2018-06-25T09:23:35.699Z</time>
      </trkpt>
      <trkpt lat="43.50678" lon="0.22488">
        <ele>166</ele>
        <time>2018-06-25T09:23:36.699Z</time>
      </trkpt>
      <trkpt lat="43.50601" lon="0.22424">
        <ele>163</ele>
        <time>2018-06-25T09:23:37.699Z</time>
      </trkpt>
      <trkpt lat="43.50583" lon="0.22411">
        <ele>163</ele>
        <time>2018-06-25T09:23:38.699Z</time>
      </trkpt>
      <trkpt lat="43.50555" lon="0.22399">
        <ele>164</ele>
        <time>2018-06-25T09:23:39.699Z</time>
      </trkpt>
      <trkpt lat="43.50515" lon="0.22377">
        <ele>165</ele>
        <time>2018-06-25T09:23:40.699Z</time>
      </trkpt>
      <trkpt lat="43.50497" lon="0.22362">
        <ele>166</ele>
        <time>2018-06-25T09:23:41.699Z</time>
      </trkpt>
      <trkpt lat="43.50476" lon="0.22338">
        <ele>167</ele>
        <time>2018-06-25T09:23:42.699Z</time>
      </trkpt>
      <trkpt lat="43.50423" lon="0.22243">
        <ele>169</ele>
        <time>2018-06-25T09:23:43.699Z</time>
      </trkpt>
      <trkpt lat="43.5038" lon="0.22178">
        <ele>169</ele>
        <time>2018-06-25T09:23:44.699Z</time>
      </trkpt>
      <trkpt lat="43.50366" lon="0.22161">
        <ele>169</ele>
        <time>2018-06-25T09:23:45.699Z</time>
      </trkpt>
      <trkpt lat="43.50366" lon="0.22162">
        <ele>169</ele>
        <time>2018-06-25T09:23:46.699Z</time>
      </trkpt>
      <trkpt lat="43.50354" lon="0.22136">
        <ele>169</ele>
        <time>2018-06-25T09:23:47.699Z</time>
      </trkpt>
      <trkpt lat="43.50346" lon="0.22107">
        <ele>169</ele>
        <time>2018-06-25T09:23:48.699Z</time>
      </trkpt>
      <trkpt lat="43.50339" lon="0.22072">
        <ele>169</ele>
        <time>2018-06-25T09:23:49.699Z</time>
      </trkpt>
      <trkpt lat="43.50334" lon="0.22034">
        <ele>170</ele>
        <time>2018-06-25T09:23:50.699Z</time>
      </trkpt>
      <trkpt lat="43.50322" lon="0.22004">
        <ele>172</ele>
        <time>2018-06-25T09:23:51.699Z</time>
      </trkpt>
      <trkpt lat="43.50295" lon="0.21951">
        <ele>176</ele>
        <time>2018-06-25T09:23:52.699Z</time>
      </trkpt>
      <trkpt lat="43.50273" lon="0.21953">
        <ele>179</ele>
        <time>2018-06-25T09:23:53.699Z</time>
      </trkpt>
      <trkpt lat="43.50144" lon="0.21903">
        <ele>195</ele>
        <time>2018-06-25T09:23:54.699Z</time>
      </trkpt>
      <trkpt lat="43.50148" lon="0.21869">
        <ele>196</ele>
        <time>2018-06-25T09:23:55.699Z</time>
      </trkpt>
      <trkpt lat="43.50148" lon="0.21832">
        <ele>198</ele>
        <time>2018-06-25T09:23:56.699Z</time>
      </trkpt>
      <trkpt lat="43.50144" lon="0.21811">
        <ele>199</ele>
        <time>2018-06-25T09:23:57.699Z</time>
      </trkpt>
      <trkpt lat="43.50134" lon="0.21784">
        <ele>201</ele>
        <time>2018-06-25T09:23:58.699Z</time>
      </trkpt>
      <trkpt lat="43.50134" lon="0.21774">
        <ele>202</ele>
        <time>2018-06-25T09:23:59.699Z</time>
      </trkpt>
      <trkpt lat="43.50126" lon="0.21658">
        <ele>208</ele>
        <time>2018-06-25T09:24:00.699Z</time>
      </trkpt>
      <trkpt lat="43.50121" lon="0.21629">
        <ele>210</ele>
        <time>2018-06-25T09:24:01.699Z</time>
      </trkpt>
      <trkpt lat="43.50112" lon="0.21589">
        <ele>213</ele>
        <time>2018-06-25T09:24:02.699Z</time>
      </trkpt>
      <trkpt lat="43.501" lon="0.21567">
        <ele>215</ele>
        <time>2018-06-25T09:24:03.699Z</time>
      </trkpt>
      <trkpt lat="43.50085" lon="0.21552">
        <ele>217</ele>
        <time>2018-06-25T09:24:04.699Z</time>
      </trkpt>
      <trkpt lat="43.50056" lon="0.21529">
        <ele>222</ele>
        <time>2018-06-25T09:24:05.699Z</time>
      </trkpt>
      <trkpt lat="43.50035" lon="0.21521">
        <ele>226</ele>
        <time>2018-06-25T09:24:06.699Z</time>
      </trkpt>
      <trkpt lat="43.50018" lon="0.21519">
        <ele>229</ele>
        <time>2018-06-25T09:24:07.699Z</time>
      </trkpt>
      <trkpt lat="43.49952" lon="0.21524">
        <ele>236</ele>
        <time>2018-06-25T09:24:08.699Z</time>
      </trkpt>
      <trkpt lat="43.49933" lon="0.2152">
        <ele>237</ele>
        <time>2018-06-25T09:24:09.699Z</time>
      </trkpt>
      <trkpt lat="43.49915" lon="0.2152">
        <ele>238</ele>
        <time>2018-06-25T09:24:10.699Z</time>
      </trkpt>
      <trkpt lat="43.49944" lon="0.21435">
        <ele>242</ele>
        <time>2018-06-25T09:24:11.699Z</time>
      </trkpt>
      <trkpt lat="43.49945" lon="0.21436">
        <ele>242</ele>
        <time>2018-06-25T09:24:12.699Z</time>
      </trkpt>
      <trkpt lat="43.49971" lon="0.21379">
        <ele>243</ele>
        <time>2018-06-25T09:24:13.699Z</time>
      </trkpt>
      <trkpt lat="43.49981" lon="0.21373">
        <ele>244</ele>
        <time>2018-06-25T09:24:14.699Z</time>
      </trkpt>
      <trkpt lat="43.50003" lon="0.21379">
        <ele>246</ele>
        <time>2018-06-25T09:24:15.699Z</time>
      </trkpt>
      <trkpt lat="43.50011" lon="0.21369">
        <ele>243</ele>
        <time>2018-06-25T09:24:16.699Z</time>
      </trkpt>
      <trkpt lat="43.50018" lon="0.21352">
        <ele>240</ele>
        <time>2018-06-25T09:24:17.699Z</time>
      </trkpt>
      <trkpt lat="43.50026" lon="0.21329">
        <ele>238</ele>
        <time>2018-06-25T09:24:18.699Z</time>
      </trkpt>
      <trkpt lat="43.50031" lon="0.21288">
        <ele>237</ele>
        <time>2018-06-25T09:24:19.699Z</time>
      </trkpt>
      <trkpt lat="43.50038" lon="0.21258">
        <ele>236</ele>
        <time>2018-06-25T09:24:20.699Z</time>
      </trkpt>
      <trkpt lat="43.50093" lon="0.21172">
        <ele>230</ele>
        <time>2018-06-25T09:24:21.699Z</time>
      </trkpt>
      <trkpt lat="43.50123" lon="0.21134">
        <ele>227</ele>
        <time>2018-06-25T09:24:22.699Z</time>
      </trkpt>
      <trkpt lat="43.50143" lon="0.21128">
        <ele>227</ele>
        <time>2018-06-25T09:24:23.699Z</time>
      </trkpt>
      <trkpt lat="43.50163" lon="0.21128">
        <ele>227</ele>
        <time>2018-06-25T09:24:24.699Z</time>
      </trkpt>
      <trkpt lat="43.50178" lon="0.21134">
        <ele>225</ele>
        <time>2018-06-25T09:24:25.699Z</time>
      </trkpt>
      <trkpt lat="43.50197" lon="0.21131">
        <ele>224</ele>
        <time>2018-06-25T09:24:26.699Z</time>
      </trkpt>
      <trkpt lat="43.50212" lon="0.21117">
        <ele>223</ele>
        <time>2018-06-25T09:24:27.699Z</time>
      </trkpt>
      <trkpt lat="43.50225" lon="0.211">
        <ele>223</ele>
        <time>2018-06-25T09:24:28.699Z</time>
      </trkpt>
      <trkpt lat="43.50243" lon="0.21065">
        <ele>222</ele>
        <time>2018-06-25T09:24:29.699Z</time>
      </trkpt>
      <trkpt lat="43.50272" lon="0.20842">
        <ele>216</ele>
        <time>2018-06-25T09:24:30.699Z</time>
      </trkpt>
      <trkpt lat="43.50277" lon="0.20817">
        <ele>213</ele>
        <time>2018-06-25T09:24:31.699Z</time>
      </trkpt>
      <trkpt lat="43.50288" lon="0.2079">
        <ele>209</ele>
        <time>2018-06-25T09:24:32.699Z</time>
      </trkpt>
      <trkpt lat="43.50327" lon="0.20715">
        <ele>200</ele>
        <time>2018-06-25T09:24:33.699Z</time>
      </trkpt>
      <trkpt lat="43.50334" lon="0.20693">
        <ele>197</ele>
        <time>2018-06-25T09:24:34.699Z</time>
      </trkpt>
      <trkpt lat="43.50336" lon="0.20682">
        <ele>196</ele>
        <time>2018-06-25T09:24:35.699Z</time>
      </trkpt>
      <trkpt lat="43.50333" lon="0.20677">
        <ele>196</ele>
        <time>2018-06-25T09:24:36.699Z</time>
      </trkpt>
      <trkpt lat="43.503" lon="0.20681">
        <ele>196</ele>
        <time>2018-06-25T09:24:37.699Z</time>
      </trkpt>
      <trkpt lat="43.5029" lon="0.20675">
        <ele>195</ele>
        <time>2018-06-25T09:24:38.699Z</time>
      </trkpt>
      <trkpt lat="43.50277" lon="0.20657">
        <ele>191</ele>
        <time>2018-06-25T09:24:39.699Z</time>
      </trkpt>
      <trkpt lat="43.5023" lon="0.20605">
        <ele>179</ele>
        <time>2018-06-25T09:24:40.699Z</time>
      </trkpt>
      <trkpt lat="43.50219" lon="0.20588">
        <ele>175</ele>
        <time>2018-06-25T09:24:41.699Z</time>
      </trkpt>
      <trkpt lat="43.50201" lon="0.20504">
        <ele>166</ele>
        <time>2018-06-25T09:24:42.699Z</time>
      </trkpt>
      <trkpt lat="43.50199" lon="0.20485">
        <ele>165</ele>
        <time>2018-06-25T09:24:43.699Z</time>
      </trkpt>
      <trkpt lat="43.50181" lon="0.20435">
        <ele>166</ele>
        <time>2018-06-25T09:24:44.699Z</time>
      </trkpt>
      <trkpt lat="43.50159" lon="0.20359">
        <ele>166</ele>
        <time>2018-06-25T09:24:45.699Z</time>
      </trkpt>
      <trkpt lat="43.50149" lon="0.20306">
        <ele>167</ele>
        <time>2018-06-25T09:24:46.699Z</time>
      </trkpt>
      <trkpt lat="43.50138" lon="0.20204">
        <ele>169</ele>
        <time>2018-06-25T09:24:47.699Z</time>
      </trkpt>
      <trkpt lat="43.50134" lon="0.20194">
        <ele>170</ele>
        <time>2018-06-25T09:24:48.699Z</time>
      </trkpt>
      <trkpt lat="43.50149" lon="0.20171">
        <ele>171</ele>
        <time>2018-06-25T09:24:49.699Z</time>
      </trkpt>
      <trkpt lat="43.50156" lon="0.20162">
        <ele>171</ele>
        <time>2018-06-25T09:24:50.699Z</time>
      </trkpt>
      <trkpt lat="43.50172" lon="0.20151">
        <ele>171</ele>
        <time>2018-06-25T09:24:51.699Z</time>
      </trkpt>
      <trkpt lat="43.50243" lon="0.20116">
        <ele>169</ele>
        <time>2018-06-25T09:24:52.699Z</time>
      </trkpt>
      <trkpt lat="43.50255" lon="0.20114">
        <ele>169</ele>
        <time>2018-06-25T09:24:53.699Z</time>
      </trkpt>
      <trkpt lat="43.50281" lon="0.20127">
        <ele>169</ele>
        <time>2018-06-25T09:24:54.699Z</time>
      </trkpt>
      <trkpt lat="43.5028" lon="0.20127">
        <ele>169</ele>
        <time>2018-06-25T09:24:55.699Z</time>
      </trkpt>
      <trkpt lat="43.50297" lon="0.20128">
        <ele>169</ele>
        <time>2018-06-25T09:24:56.699Z</time>
      </trkpt>
      <trkpt lat="43.50308" lon="0.20124">
        <ele>169</ele>
        <time>2018-06-25T09:24:57.699Z</time>
      </trkpt>
      <trkpt lat="43.5034" lon="0.20095">
        <ele>170</ele>
        <time>2018-06-25T09:24:58.699Z</time>
      </trkpt>
      <trkpt lat="43.50391" lon="0.20024">
        <ele>170</ele>
        <time>2018-06-25T09:24:59.699Z</time>
      </trkpt>
      <trkpt lat="43.50394" lon="0.20007">
        <ele>170</ele>
        <time>2018-06-25T09:25:00.699Z</time>
      </trkpt>
      <trkpt lat="43.50394" lon="0.19913">
        <ele>173</ele>
        <time>2018-06-25T09:25:01.699Z</time>
      </trkpt>
      <trkpt lat="43.50385" lon="0.19885">
        <ele>175</ele>
        <time>2018-06-25T09:25:02.699Z</time>
      </trkpt>
      <trkpt lat="43.5038" lon="0.19876">
        <ele>175</ele>
        <time>2018-06-25T09:25:03.699Z</time>
      </trkpt>
      <trkpt lat="43.5039" lon="0.19862">
        <ele>176</ele>
        <time>2018-06-25T09:25:04.699Z</time>
      </trkpt>
      <trkpt lat="43.50404" lon="0.19852">
        <ele>176</ele>
        <time>2018-06-25T09:25:05.699Z</time>
      </trkpt>
      <trkpt lat="43.5052" lon="0.19798">
        <ele>175</ele>
        <time>2018-06-25T09:25:06.699Z</time>
      </trkpt>
      <trkpt lat="43.506" lon="0.1972">
        <ele>176</ele>
        <time>2018-06-25T09:25:07.699Z</time>
      </trkpt>
      <trkpt lat="43.50619" lon="0.19704">
        <ele>175</ele>
        <time>2018-06-25T09:25:08.699Z</time>
      </trkpt>
      <trkpt lat="43.50667" lon="0.19693">
        <ele>173</ele>
        <time>2018-06-25T09:25:09.699Z</time>
      </trkpt>
      <trkpt lat="43.50682" lon="0.19687">
        <ele>173</ele>
        <time>2018-06-25T09:25:10.699Z</time>
      </trkpt>
      <trkpt lat="43.50728" lon="0.19655">
        <ele>173</ele>
        <time>2018-06-25T09:25:11.699Z</time>
      </trkpt>
      <trkpt lat="43.50752" lon="0.19632">
        <ele>175</ele>
        <time>2018-06-25T09:25:12.699Z</time>
      </trkpt>
      <trkpt lat="43.50775" lon="0.19602">
        <ele>176</ele>
        <time>2018-06-25T09:25:13.699Z</time>
      </trkpt>
      <trkpt lat="43.50808" lon="0.19534">
        <ele>176</ele>
        <time>2018-06-25T09:25:14.699Z</time>
      </trkpt>
      <trkpt lat="43.5083" lon="0.19481">
        <ele>176</ele>
        <time>2018-06-25T09:25:15.699Z</time>
      </trkpt>
      <trkpt lat="43.50851" lon="0.19439">
        <ele>174</ele>
        <time>2018-06-25T09:25:16.699Z</time>
      </trkpt>
      <trkpt lat="43.50938" lon="0.19264">
        <ele>174</ele>
        <time>2018-06-25T09:25:17.699Z</time>
      </trkpt>
      <trkpt lat="43.50957" lon="0.1925">
        <ele>173</ele>
        <time>2018-06-25T09:25:18.699Z</time>
      </trkpt>
      <trkpt lat="43.50998" lon="0.19191">
        <ele>174</ele>
        <time>2018-06-25T09:25:19.699Z</time>
      </trkpt>
      <trkpt lat="43.51055" lon="0.19088">
        <ele>172</ele>
        <time>2018-06-25T09:25:20.699Z</time>
      </trkpt>
      <trkpt lat="43.51076" lon="0.19017">
        <ele>170</ele>
        <time>2018-06-25T09:25:21.699Z</time>
      </trkpt>
      <trkpt lat="43.51141" lon="0.18874">
        <ele>167</ele>
        <time>2018-06-25T09:25:22.699Z</time>
      </trkpt>
      <trkpt lat="43.51222" lon="0.18571">
        <ele>171</ele>
        <time>2018-06-25T09:25:23.699Z</time>
      </trkpt>
      <trkpt lat="43.51105" lon="0.18524">
        <ele>186</ele>
        <time>2018-06-25T09:25:24.699Z</time>
      </trkpt>
      <trkpt lat="43.51052" lon="0.18451">
        <ele>191</ele>
        <time>2018-06-25T09:25:25.699Z</time>
      </trkpt>
      <trkpt lat="43.51272" lon="0.17998">
        <ele>189</ele>
        <time>2018-06-25T09:25:26.699Z</time>
      </trkpt>
      <trkpt lat="43.51271" lon="0.17998">
        <ele>189</ele>
        <time>2018-06-25T09:25:27.699Z</time>
      </trkpt>
      <trkpt lat="43.51251" lon="0.1798">
        <ele>187</ele>
        <time>2018-06-25T09:25:28.699Z</time>
      </trkpt>
      <trkpt lat="43.51224" lon="0.17959">
        <ele>186</ele>
        <time>2018-06-25T09:25:29.699Z</time>
      </trkpt>
      <trkpt lat="43.51202" lon="0.17938">
        <ele>185</ele>
        <time>2018-06-25T09:25:30.699Z</time>
      </trkpt>
      <trkpt lat="43.51222" lon="0.17902">
        <ele>184</ele>
        <time>2018-06-25T09:25:31.699Z</time>
      </trkpt>
      <trkpt lat="43.51242" lon="0.17857">
        <ele>182</ele>
        <time>2018-06-25T09:25:32.699Z</time>
      </trkpt>
      <trkpt lat="43.51264" lon="0.17813">
        <ele>181</ele>
        <time>2018-06-25T09:25:33.699Z</time>
      </trkpt>
      <trkpt lat="43.51285" lon="0.17773">
        <ele>178</ele>
        <time>2018-06-25T09:25:34.699Z</time>
      </trkpt>
      <trkpt lat="43.51296" lon="0.17742">
        <ele>175</ele>
        <time>2018-06-25T09:25:35.699Z</time>
      </trkpt>
      <trkpt lat="43.51319" lon="0.17667">
        <ele>169</ele>
        <time>2018-06-25T09:25:36.699Z</time>
      </trkpt>
      <trkpt lat="43.51321" lon="0.17646">
        <ele>169</ele>
        <time>2018-06-25T09:25:37.699Z</time>
      </trkpt>
      <trkpt lat="43.51346" lon="0.17648">
        <ele>169</ele>
        <time>2018-06-25T09:25:38.699Z</time>
      </trkpt>
      <trkpt lat="43.51371" lon="0.17646">
        <ele>168</ele>
        <time>2018-06-25T09:25:39.699Z</time>
      </trkpt>
      <trkpt lat="43.51384" lon="0.17633">
        <ele>169</ele>
        <time>2018-06-25T09:25:40.699Z</time>
      </trkpt>
      <trkpt lat="43.51403" lon="0.17557">
        <ele>171</ele>
        <time>2018-06-25T09:25:41.699Z</time>
      </trkpt>
      <trkpt lat="43.51449" lon="0.17388">
        <ele>178</ele>
        <time>2018-06-25T09:25:42.699Z</time>
      </trkpt>
      <trkpt lat="43.51557" lon="0.17015">
        <ele>189</ele>
        <time>2018-06-25T09:25:43.699Z</time>
      </trkpt>
      <trkpt lat="43.51585" lon="0.16937">
        <ele>186</ele>
        <time>2018-06-25T09:25:44.699Z</time>
      </trkpt>
      <trkpt lat="43.51633" lon="0.16877">
        <ele>178</ele>
        <time>2018-06-25T09:25:45.699Z</time>
      </trkpt>
      <trkpt lat="43.51646" lon="0.16856">
        <ele>176</ele>
        <time>2018-06-25T09:25:46.699Z</time>
      </trkpt>
      <trkpt lat="43.51811" lon="0.1675">
        <ele>164</ele>
        <time>2018-06-25T09:25:47.699Z</time>
      </trkpt>
      <trkpt lat="43.51824" lon="0.1674">
        <ele>163</ele>
        <time>2018-06-25T09:25:48.699Z</time>
      </trkpt>
      <trkpt lat="43.51835" lon="0.16724">
        <ele>163</ele>
        <time>2018-06-25T09:25:49.699Z</time>
      </trkpt>
      <trkpt lat="43.52019" lon="0.16366">
        <ele>162</ele>
        <time>2018-06-25T09:25:50.699Z</time>
      </trkpt>
      <trkpt lat="43.52188" lon="0.16285">
        <ele>160</ele>
        <time>2018-06-25T09:25:51.699Z</time>
      </trkpt>
      <trkpt lat="43.52207" lon="0.16282">
        <ele>159</ele>
        <time>2018-06-25T09:25:52.699Z</time>
      </trkpt>
      <trkpt lat="43.52229" lon="0.16268">
        <ele>159</ele>
        <time>2018-06-25T09:25:53.699Z</time>
      </trkpt>
      <trkpt lat="43.52389" lon="0.16192">
        <ele>161</ele>
        <time>2018-06-25T09:25:54.699Z</time>
      </trkpt>
      <trkpt lat="43.52396" lon="0.16177">
        <ele>162</ele>
        <time>2018-06-25T09:25:55.699Z</time>
      </trkpt>
      <trkpt lat="43.52429" lon="0.1616">
        <ele>161</ele>
        <time>2018-06-25T09:25:56.699Z</time>
      </trkpt>
      <trkpt lat="43.52428" lon="0.16155">
        <ele>161</ele>
        <time>2018-06-25T09:25:57.699Z</time>
      </trkpt>
      <trkpt lat="43.52454" lon="0.16194">
        <ele>160</ele>
        <time>2018-06-25T08:59:34.228Z</time>
      </trkpt>
      <trkpt lat="43.52456" lon="0.16193">
        <ele>160</ele>
        <time>2018-06-25T08:59:35.228Z</time>
      </trkpt>
      <trkpt lat="43.52449" lon="0.16161">
        <ele>161</ele>
        <time>2018-06-25T08:59:36.228Z</time>
      </trkpt>
      <trkpt lat="43.52444" lon="0.16161">
        <ele>161</ele>
        <time>2018-06-25T08:59:37.228Z</time>
      </trkpt>
      <trkpt lat="43.52439" lon="0.16158">
        <ele>161</ele>
        <time>2018-06-25T08:59:38.228Z</time>
      </trkpt>
      <trkpt lat="43.52406" lon="0.16032">
        <ele>160</ele>
        <time>2018-06-25T08:59:39.228Z</time>
      </trkpt>
      <trkpt lat="43.52409" lon="0.16017">
        <ele>160</ele>
        <time>2018-06-25T08:59:40.228Z</time>
      </trkpt>
      <trkpt lat="43.52379" lon="0.15897">
        <ele>160</ele>
        <time>2018-06-25T08:59:41.228Z</time>
      </trkpt>
      <trkpt lat="43.52334" lon="0.15735">
        <ele>163</ele>
        <time>2018-06-25T08:59:42.228Z</time>
      </trkpt>
      <trkpt lat="43.52328" lon="0.15711">
        <ele>162</ele>
        <time>2018-06-25T08:59:43.228Z</time>
      </trkpt>
      <trkpt lat="43.52259" lon="0.15741">
        <ele>164</ele>
        <time>2018-06-25T08:59:44.228Z</time>
      </trkpt>
      <trkpt lat="43.52218" lon="0.15771">
        <ele>163</ele>
        <time>2018-06-25T08:59:45.228Z</time>
      </trkpt>
      <trkpt lat="43.52196" lon="0.15796">
        <ele>163</ele>
        <time>2018-06-25T08:59:46.228Z</time>
      </trkpt>
      <trkpt lat="43.52171" lon="0.15832">
        <ele>163</ele>
        <time>2018-06-25T08:59:47.228Z</time>
      </trkpt>
      <trkpt lat="43.52148" lon="0.15885">
        <ele>163</ele>
        <time>2018-06-25T08:59:48.228Z</time>
      </trkpt>
      <trkpt lat="43.5214" lon="0.15912">
        <ele>163</ele>
        <time>2018-06-25T08:59:49.228Z</time>
      </trkpt>
      <trkpt lat="43.52134" lon="0.15932">
        <ele>163</ele>
        <time>2018-06-25T08:59:50.228Z</time>
      </trkpt>
      <trkpt lat="43.52089" lon="0.15759">
        <ele>166</ele>
        <time>2018-06-25T08:59:51.228Z</time>
      </trkpt>
      <trkpt lat="43.52077" lon="0.15731">
        <ele>166</ele>
        <time>2018-06-25T08:59:52.228Z</time>
      </trkpt>
      <trkpt lat="43.5205" lon="0.15692">
        <ele>167</ele>
        <time>2018-06-25T08:59:53.228Z</time>
      </trkpt>
      <trkpt lat="43.51789" lon="0.15403">
        <ele>200</ele>
        <time>2018-06-25T08:59:54.228Z</time>
      </trkpt>
      <trkpt lat="43.51686" lon="0.15422">
        <ele>203</ele>
        <time>2018-06-25T08:59:55.228Z</time>
      </trkpt>
      <trkpt lat="43.51571" lon="0.15466">
        <ele>201</ele>
        <time>2018-06-25T08:59:56.228Z</time>
      </trkpt>
      <trkpt lat="43.51559" lon="0.15399">
        <ele>196</ele>
        <time>2018-06-25T08:59:57.228Z</time>
      </trkpt>
      <trkpt lat="43.51577" lon="0.15323">
        <ele>182</ele>
        <time>2018-06-25T08:59:58.228Z</time>
      </trkpt>
      <trkpt lat="43.51573" lon="0.15284">
        <ele>173</ele>
        <time>2018-06-25T08:59:59.228Z</time>
      </trkpt>
      <trkpt lat="43.51535" lon="0.15208">
        <ele>161</ele>
        <time>2018-06-25T09:00:00.228Z</time>
      </trkpt>
      <trkpt lat="43.51503" lon="0.15163">
        <ele>158</ele>
        <time>2018-06-25T09:00:01.228Z</time>
      </trkpt>
      <trkpt lat="43.51401" lon="0.14852">
        <ele>160</ele>
        <time>2018-06-25T09:00:02.228Z</time>
      </trkpt>
      <trkpt lat="43.51399" lon="0.14847">
        <ele>160</ele>
        <time>2018-06-25T09:00:03.228Z</time>
      </trkpt>
      <trkpt lat="43.51304" lon="0.14886">
        <ele>162</ele>
        <time>2018-06-25T09:00:04.228Z</time>
      </trkpt>
      <trkpt lat="43.51211" lon="0.14923">
        <ele>161</ele>
        <time>2018-06-25T09:00:05.228Z</time>
      </trkpt>
      <trkpt lat="43.51187" lon="0.14931">
        <ele>162</ele>
        <time>2018-06-25T09:00:06.228Z</time>
      </trkpt>
      <trkpt lat="43.51145" lon="0.14968">
        <ele>162</ele>
        <time>2018-06-25T09:00:07.228Z</time>
      </trkpt>
      <trkpt lat="43.5112" lon="0.14976">
        <ele>163</ele>
        <time>2018-06-25T09:00:08.228Z</time>
      </trkpt>
      <trkpt lat="43.51069" lon="0.15002">
        <ele>163</ele>
        <time>2018-06-25T09:00:09.228Z</time>
      </trkpt>
      <trkpt lat="43.51047" lon="0.15016">
        <ele>163</ele>
        <time>2018-06-25T09:00:10.228Z</time>
      </trkpt>
      <trkpt lat="43.51035" lon="0.1503">
        <ele>163</ele>
        <time>2018-06-25T09:00:11.228Z</time>
      </trkpt>
      <trkpt lat="43.51018" lon="0.15008">
        <ele>164</ele>
        <time>2018-06-25T09:00:12.228Z</time>
      </trkpt>
      <trkpt lat="43.50951" lon="0.14901">
        <ele>166</ele>
        <time>2018-06-25T09:00:13.228Z</time>
      </trkpt>
      <trkpt lat="43.50896" lon="0.14941">
        <ele>168</ele>
        <time>2018-06-25T09:00:14.228Z</time>
      </trkpt>
      <trkpt lat="43.50873" lon="0.14955">
        <ele>168</ele>
        <time>2018-06-25T09:00:15.228Z</time>
      </trkpt>
      <trkpt lat="43.50856" lon="0.1496">
        <ele>168</ele>
        <time>2018-06-25T09:00:16.228Z</time>
      </trkpt>
      <trkpt lat="43.50815" lon="0.14965">
        <ele>169</ele>
        <time>2018-06-25T09:00:17.228Z</time>
      </trkpt>
      <trkpt lat="43.5075" lon="0.15005">
        <ele>171</ele>
        <time>2018-06-25T09:00:18.228Z</time>
      </trkpt>
      <trkpt lat="43.50745" lon="0.15009">
        <ele>171</ele>
        <time>2018-06-25T09:00:19.228Z</time>
      </trkpt>
      <trkpt lat="43.50725" lon="0.15039">
        <ele>169</ele>
        <time>2018-06-25T09:00:20.228Z</time>
      </trkpt>
      <trkpt lat="43.50637" lon="0.15105">
        <ele>170</ele>
        <time>2018-06-25T09:00:21.228Z</time>
      </trkpt>
      <trkpt lat="43.50624" lon="0.15084">
        <ele>170</ele>
        <time>2018-06-25T09:00:22.228Z</time>
      </trkpt>
      <trkpt lat="43.50599" lon="0.1503">
        <ele>172</ele>
        <time>2018-06-25T09:00:23.228Z</time>
      </trkpt>
      <trkpt lat="43.50586" lon="0.15012">
        <ele>173</ele>
        <time>2018-06-25T09:00:24.228Z</time>
      </trkpt>
      <trkpt lat="43.50559" lon="0.14994">
        <ele>176</ele>
        <time>2018-06-25T09:00:25.228Z</time>
      </trkpt>
      <trkpt lat="43.50497" lon="0.14939">
        <ele>181</ele>
        <time>2018-06-25T09:00:26.228Z</time>
      </trkpt>
      <trkpt lat="43.50483" lon="0.14922">
        <ele>182</ele>
        <time>2018-06-25T09:00:27.228Z</time>
      </trkpt>
      <trkpt lat="43.50469" lon="0.14892">
        <ele>183</ele>
        <time>2018-06-25T09:00:28.228Z</time>
      </trkpt>
      <trkpt lat="43.50468" lon="0.14893">
        <ele>183</ele>
        <time>2018-06-25T09:00:29.228Z</time>
      </trkpt>
      <trkpt lat="43.50457" lon="0.1487">
        <ele>183</ele>
        <time>2018-06-25T09:00:30.228Z</time>
      </trkpt>
      <trkpt lat="43.50432" lon="0.14834">
        <ele>184</ele>
        <time>2018-06-25T09:00:31.228Z</time>
      </trkpt>
      <trkpt lat="43.50386" lon="0.14792">
        <ele>188</ele>
        <time>2018-06-25T09:00:32.228Z</time>
      </trkpt>
      <trkpt lat="43.50311" lon="0.14703">
        <ele>195</ele>
        <time>2018-06-25T09:00:33.228Z</time>
      </trkpt>
      <trkpt lat="43.50277" lon="0.14659">
        <ele>198</ele>
        <time>2018-06-25T09:00:34.228Z</time>
      </trkpt>
      <trkpt lat="43.50101" lon="0.14475">
        <ele>228</ele>
        <time>2018-06-25T09:00:35.228Z</time>
      </trkpt>
      <trkpt lat="43.50084" lon="0.14459">
        <ele>229</ele>
        <time>2018-06-25T09:00:36.228Z</time>
      </trkpt>
      <trkpt lat="43.50052" lon="0.14436">
        <ele>228</ele>
        <time>2018-06-25T09:00:37.228Z</time>
      </trkpt>
      <trkpt lat="43.49946" lon="0.14366">
        <ele>230</ele>
        <time>2018-06-25T09:00:38.228Z</time>
      </trkpt>
      <trkpt lat="43.49936" lon="0.14355">
        <ele>230</ele>
        <time>2018-06-25T09:00:39.228Z</time>
      </trkpt>
      <trkpt lat="43.49922" lon="0.14347">
        <ele>229</ele>
        <time>2018-06-25T09:00:40.228Z</time>
      </trkpt>
      <trkpt lat="43.49898" lon="0.14337">
        <ele>224</ele>
        <time>2018-06-25T09:00:41.228Z</time>
      </trkpt>
      <trkpt lat="43.49878" lon="0.14325">
        <ele>218</ele>
        <time>2018-06-25T09:00:42.228Z</time>
      </trkpt>
      <trkpt lat="43.49863" lon="0.14309">
        <ele>214</ele>
        <time>2018-06-25T09:00:43.228Z</time>
      </trkpt>
      <trkpt lat="43.49854" lon="0.14291">
        <ele>211</ele>
        <time>2018-06-25T09:00:44.228Z</time>
      </trkpt>
      <trkpt lat="43.49851" lon="0.1427">
        <ele>210</ele>
        <time>2018-06-25T09:00:45.228Z</time>
      </trkpt>
      <trkpt lat="43.49853" lon="0.14248">
        <ele>209</ele>
        <time>2018-06-25T09:00:46.228Z</time>
      </trkpt>
      <trkpt lat="43.49858" lon="0.14233">
        <ele>206</ele>
        <time>2018-06-25T09:00:47.228Z</time>
      </trkpt>
      <trkpt lat="43.49871" lon="0.14221">
        <ele>206</ele>
        <time>2018-06-25T09:00:48.228Z</time>
      </trkpt>
      <trkpt lat="43.49916" lon="0.14201">
        <ele>206</ele>
        <time>2018-06-25T09:00:49.228Z</time>
      </trkpt>
      <trkpt lat="43.49927" lon="0.14183">
        <ele>204</ele>
        <time>2018-06-25T09:00:50.228Z</time>
      </trkpt>
      <trkpt lat="43.49948" lon="0.14081">
        <ele>191</ele>
        <time>2018-06-25T09:00:51.228Z</time>
      </trkpt>
      <trkpt lat="43.49966" lon="0.1405">
        <ele>191</ele>
        <time>2018-06-25T09:00:52.228Z</time>
      </trkpt>
      <trkpt lat="43.49972" lon="0.14036">
        <ele>191</ele>
        <time>2018-06-25T09:00:53.228Z</time>
      </trkpt>
      <trkpt lat="43.49977" lon="0.13993">
        <ele>186</ele>
        <time>2018-06-25T09:00:54.228Z</time>
      </trkpt>
      <trkpt lat="43.49973" lon="0.13967">
        <ele>182</ele>
        <time>2018-06-25T09:00:55.228Z</time>
      </trkpt>
      <trkpt lat="43.49966" lon="0.13956">
        <ele>180</ele>
        <time>2018-06-25T09:00:56.228Z</time>
      </trkpt>
      <trkpt lat="43.49904" lon="0.13927">
        <ele>167</ele>
        <time>2018-06-25T09:00:57.228Z</time>
      </trkpt>
      <trkpt lat="43.49892" lon="0.13927">
        <ele>166</ele>
        <time>2018-06-25T09:00:58.228Z</time>
      </trkpt>
      <trkpt lat="43.49878" lon="0.13936">
        <ele>166</ele>
        <time>2018-06-25T09:00:59.228Z</time>
      </trkpt>
      <trkpt lat="43.49859" lon="0.13954">
        <ele>164</ele>
        <time>2018-06-25T09:01:00.228Z</time>
      </trkpt>
      <trkpt lat="43.49841" lon="0.13975">
        <ele>163</ele>
        <time>2018-06-25T09:01:01.228Z</time>
      </trkpt>
      <trkpt lat="43.49823" lon="0.13988">
        <ele>161</ele>
        <time>2018-06-25T09:01:02.228Z</time>
      </trkpt>
      <trkpt lat="43.4981" lon="0.13989">
        <ele>160</ele>
        <time>2018-06-25T09:01:03.228Z</time>
      </trkpt>
      <trkpt lat="43.49803" lon="0.13984">
        <ele>159</ele>
        <time>2018-06-25T09:01:04.228Z</time>
      </trkpt>
      <trkpt lat="43.498" lon="0.13967">
        <ele>159</ele>
        <time>2018-06-25T09:01:05.228Z</time>
      </trkpt>
      <trkpt lat="43.49776" lon="0.13896">
        <ele>158</ele>
        <time>2018-06-25T09:01:06.228Z</time>
      </trkpt>
      <trkpt lat="43.49759" lon="0.13851">
        <ele>157</ele>
        <time>2018-06-25T09:01:07.228Z</time>
      </trkpt>
      <trkpt lat="43.49742" lon="0.13817">
        <ele>156</ele>
        <time>2018-06-25T09:01:08.228Z</time>
      </trkpt>
      <trkpt lat="43.49736" lon="0.13806">
        <ele>156</ele>
        <time>2018-06-25T09:01:09.228Z</time>
      </trkpt>
      <trkpt lat="43.49701" lon="0.13781">
        <ele>155</ele>
        <time>2018-06-25T09:01:10.228Z</time>
      </trkpt>
      <trkpt lat="43.49687" lon="0.13765">
        <ele>155</ele>
        <time>2018-06-25T09:01:11.228Z</time>
      </trkpt>
      <trkpt lat="43.49675" lon="0.13733">
        <ele>155</ele>
        <time>2018-06-25T09:01:12.228Z</time>
      </trkpt>
      <trkpt lat="43.4967" lon="0.13711">
        <ele>155</ele>
        <time>2018-06-25T09:01:13.228Z</time>
      </trkpt>
      <trkpt lat="43.49674" lon="0.13692">
        <ele>155</ele>
        <time>2018-06-25T09:01:14.228Z</time>
      </trkpt>
      <trkpt lat="43.49674" lon="0.13677">
        <ele>155</ele>
        <time>2018-06-25T09:01:15.228Z</time>
      </trkpt>
      <trkpt lat="43.49658" lon="0.13637">
        <ele>154</ele>
        <time>2018-06-25T09:01:16.228Z</time>
      </trkpt>
      <trkpt lat="43.49649" lon="0.13624">
        <ele>154</ele>
        <time>2018-06-25T09:01:17.228Z</time>
      </trkpt>
      <trkpt lat="43.49613" lon="0.1359">
        <ele>152</ele>
        <time>2018-06-25T09:01:18.228Z</time>
      </trkpt>
      <trkpt lat="43.49599" lon="0.13567">
        <ele>152</ele>
        <time>2018-06-25T09:01:19.228Z</time>
      </trkpt>
      <trkpt lat="43.4959" lon="0.13556">
        <ele>152</ele>
        <time>2018-06-25T09:01:20.228Z</time>
      </trkpt>
      <trkpt lat="43.49588" lon="0.1355">
        <ele>152</ele>
        <time>2018-06-25T09:01:21.228Z</time>
      </trkpt>
      <trkpt lat="43.49588" lon="0.13547">
        <ele>152</ele>
        <time>2018-06-25T09:01:22.228Z</time>
      </trkpt>
      <trkpt lat="43.49607" lon="0.13524">
        <ele>152</ele>
        <time>2018-06-25T09:01:23.228Z</time>
      </trkpt>
      <trkpt lat="43.49604" lon="0.1351">
        <ele>152</ele>
        <time>2018-06-25T09:01:24.228Z</time>
      </trkpt>
      <trkpt lat="43.49581" lon="0.13466">
        <ele>152</ele>
        <time>2018-06-25T09:01:25.228Z</time>
      </trkpt>
      <trkpt lat="43.49541" lon="0.13398">
        <ele>152</ele>
        <time>2018-06-25T09:01:26.228Z</time>
      </trkpt>
      <trkpt lat="43.49531" lon="0.13386">
        <ele>152</ele>
        <time>2018-06-25T09:01:27.228Z</time>
      </trkpt>
      <trkpt lat="43.4952" lon="0.13381">
        <ele>152</ele>
        <time>2018-06-25T09:01:28.228Z</time>
      </trkpt>
      <trkpt lat="43.4951" lon="0.13379">
        <ele>152</ele>
        <time>2018-06-25T09:01:29.228Z</time>
      </trkpt>
      <trkpt lat="43.49485" lon="0.13387">
        <ele>152</ele>
        <time>2018-06-25T09:01:30.228Z</time>
      </trkpt>
      <trkpt lat="43.49454" lon="0.13405">
        <ele>152</ele>
        <time>2018-06-25T09:01:31.228Z</time>
      </trkpt>
      <trkpt lat="43.4942" lon="0.13279">
        <ele>150</ele>
        <time>2018-06-25T09:01:32.228Z</time>
      </trkpt>
      <trkpt lat="43.49421" lon="0.13268">
        <ele>150</ele>
        <time>2018-06-25T09:01:33.228Z</time>
      </trkpt>
      <trkpt lat="43.49426" lon="0.13263">
        <ele>150</ele>
        <time>2018-06-25T09:01:34.228Z</time>
      </trkpt>
      <trkpt lat="43.49619" lon="0.13161">
        <ele>152</ele>
        <time>2018-06-25T09:01:35.228Z</time>
      </trkpt>
      <trkpt lat="43.50046" lon="0.1293">
        <ele>152</ele>
        <time>2018-06-25T09:01:36.228Z</time>
      </trkpt>
      <trkpt lat="43.50107" lon="0.12882">
        <ele>151</ele>
        <time>2018-06-25T09:01:37.228Z</time>
      </trkpt>
      <trkpt lat="43.50046" lon="0.12822">
        <ele>150</ele>
        <time>2018-06-25T09:01:38.228Z</time>
      </trkpt>
      <trkpt lat="43.50045" lon="0.12823">
        <ele>150</ele>
        <time>2018-06-25T09:01:39.228Z</time>
      </trkpt>
      <trkpt lat="43.4991" lon="0.12694">
        <ele>150</ele>
        <time>2018-06-25T09:01:40.228Z</time>
      </trkpt>
      <trkpt lat="43.49888" lon="0.12675">
        <ele>150</ele>
        <time>2018-06-25T09:01:41.228Z</time>
      </trkpt>
      <trkpt lat="43.49871" lon="0.12664">
        <ele>151</ele>
        <time>2018-06-25T09:01:42.228Z</time>
      </trkpt>
      <trkpt lat="43.4984" lon="0.1265">
        <ele>151</ele>
        <time>2018-06-25T09:01:43.228Z</time>
      </trkpt>
      <trkpt lat="43.4982" lon="0.12639">
        <ele>151</ele>
        <time>2018-06-25T09:01:44.228Z</time>
      </trkpt>
      <trkpt lat="43.49789" lon="0.12588">
        <ele>151</ele>
        <time>2018-06-25T09:01:45.228Z</time>
      </trkpt>
      <trkpt lat="43.49743" lon="0.12496">
        <ele>153</ele>
        <time>2018-06-25T09:01:46.228Z</time>
      </trkpt>
      <trkpt lat="43.49675" lon="0.1232">
        <ele>152</ele>
        <time>2018-06-25T09:01:47.228Z</time>
      </trkpt>
      <trkpt lat="43.49668" lon="0.12296">
        <ele>152</ele>
        <time>2018-06-25T09:01:48.228Z</time>
      </trkpt>
      <trkpt lat="43.49668" lon="0.12278">
        <ele>152</ele>
        <time>2018-06-25T09:01:49.228Z</time>
      </trkpt>
      <trkpt lat="43.49674" lon="0.12194">
        <ele>153</ele>
        <time>2018-06-25T09:01:50.228Z</time>
      </trkpt>
      <trkpt lat="43.49674" lon="0.12173">
        <ele>153</ele>
        <time>2018-06-25T09:01:51.228Z</time>
      </trkpt>
      <trkpt lat="43.49671" lon="0.12153">
        <ele>153</ele>
        <time>2018-06-25T09:01:52.228Z</time>
      </trkpt>
      <trkpt lat="43.49649" lon="0.12054">
        <ele>153</ele>
        <time>2018-06-25T09:01:53.228Z</time>
      </trkpt>
      <trkpt lat="43.49638" lon="0.12">
        <ele>154</ele>
        <time>2018-06-25T09:01:54.228Z</time>
      </trkpt>
      <trkpt lat="43.496" lon="0.11866">
        <ele>154</ele>
        <time>2018-06-25T09:01:55.228Z</time>
      </trkpt>
      <trkpt lat="43.49588" lon="0.11837">
        <ele>154</ele>
        <time>2018-06-25T09:01:56.228Z</time>
      </trkpt>
      <trkpt lat="43.49562" lon="0.11794">
        <ele>154</ele>
        <time>2018-06-25T09:01:57.228Z</time>
      </trkpt>
      <trkpt lat="43.4954" lon="0.11761">
        <ele>154</ele>
        <time>2018-06-25T09:01:58.228Z</time>
      </trkpt>
      <trkpt lat="43.49486" lon="0.11712">
        <ele>156</ele>
        <time>2018-06-25T09:01:59.228Z</time>
      </trkpt>
      <trkpt lat="43.49457" lon="0.11673">
        <ele>156</ele>
        <time>2018-06-25T09:02:00.228Z</time>
      </trkpt>
      <trkpt lat="43.4944" lon="0.11645">
        <ele>157</ele>
        <time>2018-06-25T09:02:01.228Z</time>
      </trkpt>
      <trkpt lat="43.49386" lon="0.11524">
        <ele>158</ele>
        <time>2018-06-25T09:02:02.228Z</time>
      </trkpt>
      <trkpt lat="43.49285" lon="0.11255">
        <ele>163</ele>
        <time>2018-06-25T09:02:03.228Z</time>
      </trkpt>
      <trkpt lat="43.49267" lon="0.11255">
        <ele>163</ele>
        <time>2018-06-25T09:02:04.228Z</time>
      </trkpt>
      <trkpt lat="43.49232" lon="0.11265">
        <ele>163</ele>
        <time>2018-06-25T09:02:05.228Z</time>
      </trkpt>
      <trkpt lat="43.49238" lon="0.11192">
        <ele>164</ele>
        <time>2018-06-25T09:02:06.228Z</time>
      </trkpt>
      <trkpt lat="43.49255" lon="0.11071">
        <ele>165</ele>
        <time>2018-06-25T09:02:07.228Z</time>
      </trkpt>
      <trkpt lat="43.49269" lon="0.11015">
        <ele>165</ele>
        <time>2018-06-25T09:02:08.228Z</time>
      </trkpt>
      <trkpt lat="43.49272" lon="0.11005">
        <ele>165</ele>
        <time>2018-06-25T09:02:09.228Z</time>
      </trkpt>
      <trkpt lat="43.49283" lon="0.10842">
        <ele>165</ele>
        <time>2018-06-25T09:02:10.228Z</time>
      </trkpt>
      <trkpt lat="43.49285" lon="0.10697">
        <ele>171</ele>
        <time>2018-06-25T09:02:11.228Z</time>
      </trkpt>
      <trkpt lat="43.49314" lon="0.10708">
        <ele>169</ele>
        <time>2018-06-25T09:02:12.228Z</time>
      </trkpt>
      <trkpt lat="43.49337" lon="0.10712">
        <ele>168</ele>
        <time>2018-06-25T09:02:13.228Z</time>
      </trkpt>
      <trkpt lat="43.49353" lon="0.10712">
        <ele>168</ele>
        <time>2018-06-25T09:02:14.228Z</time>
      </trkpt>
      <trkpt lat="43.49365" lon="0.10709">
        <ele>168</ele>
        <time>2018-06-25T09:02:15.228Z</time>
      </trkpt>
      <trkpt lat="43.49375" lon="0.10704">
        <ele>168</ele>
        <time>2018-06-25T09:02:16.228Z</time>
      </trkpt>
      <trkpt lat="43.4941" lon="0.10676">
        <ele>169</ele>
        <time>2018-06-25T09:02:17.228Z</time>
      </trkpt>
      <trkpt lat="43.49429" lon="0.10665">
        <ele>169</ele>
        <time>2018-06-25T09:02:18.228Z</time>
      </trkpt>
      <trkpt lat="43.49445" lon="0.10657">
        <ele>169</ele>
        <time>2018-06-25T09:02:19.228Z</time>
      </trkpt>
      <trkpt lat="43.49522" lon="0.10625">
        <ele>169</ele>
        <time>2018-06-25T09:02:20.228Z</time>
      </trkpt>
      <trkpt lat="43.49575" lon="0.1059">
        <ele>170</ele>
        <time>2018-06-25T09:02:21.228Z</time>
      </trkpt>
      <trkpt lat="43.49555" lon="0.10551">
        <ele>172</ele>
        <time>2018-06-25T09:02:22.228Z</time>
      </trkpt>
      <trkpt lat="43.4955" lon="0.10534">
        <ele>172</ele>
        <time>2018-06-25T09:02:23.228Z</time>
      </trkpt>
      <trkpt lat="43.49518" lon="0.10387">
        <ele>178</ele>
        <time>2018-06-25T09:02:24.228Z</time>
      </trkpt>
      <trkpt lat="43.49504" lon="0.10298">
        <ele>181</ele>
        <time>2018-06-25T09:02:25.228Z</time>
      </trkpt>
      <trkpt lat="43.495" lon="0.10255">
        <ele>183</ele>
        <time>2018-06-25T09:02:26.228Z</time>
      </trkpt>
      <trkpt lat="43.495" lon="0.10245">
        <ele>183</ele>
        <time>2018-06-25T09:02:27.228Z</time>
      </trkpt>
      <trkpt lat="43.49503" lon="0.10192">
        <ele>187</ele>
        <time>2018-06-25T09:02:28.228Z</time>
      </trkpt>
      <trkpt lat="43.49507" lon="0.10185">
        <ele>187</ele>
        <time>2018-06-25T09:02:29.228Z</time>
      </trkpt>
      <trkpt lat="43.49514" lon="0.1018">
        <ele>188</ele>
        <time>2018-06-25T09:02:30.228Z</time>
      </trkpt>
      <trkpt lat="43.49574" lon="0.10162">
        <ele>195</ele>
        <time>2018-06-25T09:02:31.228Z</time>
      </trkpt>
      <trkpt lat="43.49579" lon="0.10158">
        <ele>196</ele>
        <time>2018-06-25T09:02:32.228Z</time>
      </trkpt>
      <trkpt lat="43.49584" lon="0.10098">
        <ele>203</ele>
        <time>2018-06-25T09:02:33.228Z</time>
      </trkpt>
      <trkpt lat="43.49595" lon="0.10019">
        <ele>209</ele>
        <time>2018-06-25T09:02:34.228Z</time>
      </trkpt>
      <trkpt lat="43.49605" lon="0.09984">
        <ele>212</ele>
        <time>2018-06-25T09:02:35.228Z</time>
      </trkpt>
      <trkpt lat="43.49656" lon="0.09868">
        <ele>225</ele>
        <time>2018-06-25T09:02:36.228Z</time>
      </trkpt>
      <trkpt lat="43.49677" lon="0.09804">
        <ele>228</ele>
        <time>2018-06-25T09:02:37.228Z</time>
      </trkpt>
      <trkpt lat="43.49719" lon="0.09664">
        <ele>225</ele>
        <time>2018-06-25T09:02:38.228Z</time>
      </trkpt>
      <trkpt lat="43.49755" lon="0.09555">
        <ele>225</ele>
        <time>2018-06-25T09:02:39.228Z</time>
      </trkpt>
      <trkpt lat="43.49766" lon="0.0951">
        <ele>228</ele>
        <time>2018-06-25T09:02:40.228Z</time>
      </trkpt>
      <trkpt lat="43.49769" lon="0.09456">
        <ele>232</ele>
        <time>2018-06-25T09:02:41.228Z</time>
      </trkpt>
      <trkpt lat="43.49769" lon="0.09376">
        <ele>239</ele>
        <time>2018-06-25T09:02:42.228Z</time>
      </trkpt>
      <trkpt lat="43.49768" lon="0.09368">
        <ele>239</ele>
        <time>2018-06-25T09:02:43.228Z</time>
      </trkpt>
      <trkpt lat="43.49763" lon="0.09353">
        <ele>241</ele>
        <time>2018-06-25T09:02:44.228Z</time>
      </trkpt>
      <trkpt lat="43.49747" lon="0.09334">
        <ele>243</ele>
        <time>2018-06-25T09:02:45.228Z</time>
      </trkpt>
      <trkpt lat="43.49733" lon="0.09321">
        <ele>242</ele>
        <time>2018-06-25T09:02:46.228Z</time>
      </trkpt>
      <trkpt lat="43.49722" lon="0.09317">
        <ele>242</ele>
        <time>2018-06-25T09:02:47.228Z</time>
      </trkpt>
      <trkpt lat="43.49699" lon="0.09312">
        <ele>240</ele>
        <time>2018-06-25T09:02:48.228Z</time>
      </trkpt>
      <trkpt lat="43.49688" lon="0.09303">
        <ele>240</ele>
        <time>2018-06-25T09:02:49.228Z</time>
      </trkpt>
      <trkpt lat="43.49685" lon="0.09295">
        <ele>240</ele>
        <time>2018-06-25T09:02:50.228Z</time>
      </trkpt>
      <trkpt lat="43.49673" lon="0.09173">
        <ele>238</ele>
        <time>2018-06-25T09:02:51.228Z</time>
      </trkpt>
      <trkpt lat="43.4967" lon="0.09159">
        <ele>238</ele>
        <time>2018-06-25T09:02:52.228Z</time>
      </trkpt>
      <trkpt lat="43.49421" lon="0.09056">
        <ele>247</ele>
        <time>2018-06-25T09:02:53.228Z</time>
      </trkpt>
      <trkpt lat="43.49411" lon="0.09046">
        <ele>248</ele>
        <time>2018-06-25T09:02:54.228Z</time>
      </trkpt>
      <trkpt lat="43.49407" lon="0.09028">
        <ele>248</ele>
        <time>2018-06-25T09:02:55.228Z</time>
      </trkpt>
      <trkpt lat="43.494" lon="0.08946">
        <ele>253</ele>
        <time>2018-06-25T09:02:56.228Z</time>
      </trkpt>
      <trkpt lat="43.49406" lon="0.08921">
        <ele>255</ele>
        <time>2018-06-25T09:02:57.228Z</time>
      </trkpt>
      <trkpt lat="43.4942" lon="0.08886">
        <ele>255</ele>
        <time>2018-06-25T09:02:58.228Z</time>
      </trkpt>
      <trkpt lat="43.49422" lon="0.08853">
        <ele>256</ele>
        <time>2018-06-25T09:02:59.228Z</time>
      </trkpt>
      <trkpt lat="43.49429" lon="0.08842">
        <ele>256</ele>
        <time>2018-06-25T09:03:00.228Z</time>
      </trkpt>
      <trkpt lat="43.49444" lon="0.08822">
        <ele>256</ele>
        <time>2018-06-25T09:03:01.228Z</time>
      </trkpt>
      <trkpt lat="43.4946" lon="0.08814">
        <ele>256</ele>
        <time>2018-06-25T09:03:02.228Z</time>
      </trkpt>
      <trkpt lat="43.49465" lon="0.08833">
        <ele>258</ele>
        <time>2018-06-25T09:03:03.228Z</time>
      </trkpt>
      <trkpt lat="43.4947" lon="0.0884">
        <ele>257</ele>
        <time>2018-06-25T09:03:04.228Z</time>
      </trkpt>
      <trkpt lat="43.49476" lon="0.08845">
        <ele>257</ele>
        <time>2018-06-25T09:03:05.228Z</time>
      </trkpt>
      <trkpt lat="43.49485" lon="0.08848">
        <ele>257</ele>
        <time>2018-06-25T09:03:06.228Z</time>
      </trkpt>
      <trkpt lat="43.49496" lon="0.08848">
        <ele>257</ele>
        <time>2018-06-25T09:03:07.228Z</time>
      </trkpt>
      <trkpt lat="43.49516" lon="0.08844">
        <ele>256</ele>
        <time>2018-06-25T09:03:08.228Z</time>
      </trkpt>
      <trkpt lat="43.49578" lon="0.0881">
        <ele>254</ele>
        <time>2018-06-25T09:03:09.228Z</time>
      </trkpt>
      <trkpt lat="43.49579" lon="0.08811">
        <ele>254</ele>
        <time>2018-06-25T09:03:10.228Z</time>
      </trkpt>
      <trkpt lat="43.49594" lon="0.08801">
        <ele>254</ele>
        <time>2018-06-25T09:03:11.228Z</time>
      </trkpt>
      <trkpt lat="43.49615" lon="0.08783">
        <ele>254</ele>
        <time>2018-06-25T09:03:12.228Z</time>
      </trkpt>
      <trkpt lat="43.49626" lon="0.08771">
        <ele>255</ele>
        <time>2018-06-25T09:03:13.228Z</time>
      </trkpt>
      <trkpt lat="43.49651" lon="0.08736">
        <ele>257</ele>
        <time>2018-06-25T09:03:14.228Z</time>
      </trkpt>
      <trkpt lat="43.49692" lon="0.08673">
        <ele>260</ele>
        <time>2018-06-25T09:03:15.228Z</time>
      </trkpt>
      <trkpt lat="43.49723" lon="0.08614">
        <ele>255</ele>
        <time>2018-06-25T09:03:16.228Z</time>
      </trkpt>
      <trkpt lat="43.49748" lon="0.08544">
        <ele>253</ele>
        <time>2018-06-25T09:03:17.228Z</time>
      </trkpt>
      <trkpt lat="43.49769" lon="0.08513">
        <ele>250</ele>
        <time>2018-06-25T09:03:18.228Z</time>
      </trkpt>
      <trkpt lat="43.4979" lon="0.08488">
        <ele>248</ele>
        <time>2018-06-25T09:03:19.228Z</time>
      </trkpt>
      <trkpt lat="43.49867" lon="0.08427">
        <ele>250</ele>
        <time>2018-06-25T09:03:20.228Z</time>
      </trkpt>
      <trkpt lat="43.49886" lon="0.08419">
        <ele>251</ele>
        <time>2018-06-25T09:03:21.228Z</time>
      </trkpt>
      <trkpt lat="43.49902" lon="0.08416">
        <ele>251</ele>
        <time>2018-06-25T09:03:22.228Z</time>
      </trkpt>
      <trkpt lat="43.49914" lon="0.0839">
        <ele>251</ele>
        <time>2018-06-25T09:03:23.228Z</time>
      </trkpt>
      <trkpt lat="43.49916" lon="0.08356">
        <ele>251</ele>
        <time>2018-06-25T09:03:24.228Z</time>
      </trkpt>
      <trkpt lat="43.49917" lon="0.08289">
        <ele>247</ele>
        <time>2018-06-25T09:03:25.228Z</time>
      </trkpt>
      <trkpt lat="43.4992" lon="0.08262">
        <ele>245</ele>
        <time>2018-06-25T09:03:26.228Z</time>
      </trkpt>
      <trkpt lat="43.49938" lon="0.08178">
        <ele>237</ele>
        <time>2018-06-25T09:03:27.228Z</time>
      </trkpt>
      <trkpt lat="43.4994" lon="0.08167">
        <ele>236</ele>
        <time>2018-06-25T09:03:28.228Z</time>
      </trkpt>
      <trkpt lat="43.49943" lon="0.08127">
        <ele>234</ele>
        <time>2018-06-25T09:03:29.228Z</time>
      </trkpt>
      <trkpt lat="43.49948" lon="0.08112">
        <ele>233</ele>
        <time>2018-06-25T09:03:30.228Z</time>
      </trkpt>
      <trkpt lat="43.50041" lon="0.08002">
        <ele>222</ele>
        <time>2018-06-25T09:03:31.228Z</time>
      </trkpt>
      <trkpt lat="43.50078" lon="0.07942">
        <ele>216</ele>
        <time>2018-06-25T09:03:32.228Z</time>
      </trkpt>
      <trkpt lat="43.50093" lon="0.07848">
        <ele>207</ele>
        <time>2018-06-25T09:03:33.228Z</time>
      </trkpt>
      <trkpt lat="43.50103" lon="0.07805">
        <ele>201</ele>
        <time>2018-06-25T09:03:34.228Z</time>
      </trkpt>
      <trkpt lat="43.50109" lon="0.07793">
        <ele>199</ele>
        <time>2018-06-25T09:03:35.228Z</time>
      </trkpt>
      <trkpt lat="43.50123" lon="0.0778">
        <ele>197</ele>
        <time>2018-06-25T09:03:36.228Z</time>
      </trkpt>
      <trkpt lat="43.5014" lon="0.07769">
        <ele>195</ele>
        <time>2018-06-25T09:03:37.228Z</time>
      </trkpt>
      <trkpt lat="43.50143" lon="0.07764">
        <ele>195</ele>
        <time>2018-06-25T09:03:38.228Z</time>
      </trkpt>
      <trkpt lat="43.50143" lon="0.07756">
        <ele>194</ele>
        <time>2018-06-25T09:03:39.228Z</time>
      </trkpt>
      <trkpt lat="43.50141" lon="0.07743">
        <ele>193</ele>
        <time>2018-06-25T09:03:40.228Z</time>
      </trkpt>
      <trkpt lat="43.50127" lon="0.07699">
        <ele>190</ele>
        <time>2018-06-25T09:03:41.228Z</time>
      </trkpt>
      <trkpt lat="43.50123" lon="0.07674">
        <ele>188</ele>
        <time>2018-06-25T09:03:42.228Z</time>
      </trkpt>
      <trkpt lat="43.5012" lon="0.0764">
        <ele>186</ele>
        <time>2018-06-25T09:03:43.228Z</time>
      </trkpt>
      <trkpt lat="43.50112" lon="0.07627">
        <ele>186</ele>
        <time>2018-06-25T09:03:44.228Z</time>
      </trkpt>
      <trkpt lat="43.50099" lon="0.07614">
        <ele>185</ele>
        <time>2018-06-25T09:03:45.228Z</time>
      </trkpt>
      <trkpt lat="43.50072" lon="0.07603">
        <ele>184</ele>
        <time>2018-06-25T09:03:46.228Z</time>
      </trkpt>
      <trkpt lat="43.50065" lon="0.07567">
        <ele>183</ele>
        <time>2018-06-25T09:03:47.228Z</time>
      </trkpt>
      <trkpt lat="43.50057" lon="0.07548">
        <ele>182</ele>
        <time>2018-06-25T09:03:48.228Z</time>
      </trkpt>
      <trkpt lat="43.50047" lon="0.07539">
        <ele>181</ele>
        <time>2018-06-25T09:03:49.228Z</time>
      </trkpt>
      <trkpt lat="43.50067" lon="0.07498">
        <ele>180</ele>
        <time>2018-06-25T09:03:50.228Z</time>
      </trkpt>
      <trkpt lat="43.50089" lon="0.07459">
        <ele>180</ele>
        <time>2018-06-25T09:03:51.228Z</time>
      </trkpt>
      <trkpt lat="43.50055" lon="0.07426">
        <ele>178</ele>
        <time>2018-06-25T09:03:52.228Z</time>
      </trkpt>
      <trkpt lat="43.50232" lon="0.07244">
        <ele>175</ele>
        <time>2018-06-25T09:03:53.228Z</time>
      </trkpt>
      <trkpt lat="43.50134" lon="0.06932">
        <ele>173</ele>
        <time>2018-06-25T09:03:54.228Z</time>
      </trkpt>
      <trkpt lat="43.50129" lon="0.06842">
        <ele>174</ele>
        <time>2018-06-25T09:03:55.228Z</time>
      </trkpt>
      <trkpt lat="43.50126" lon="0.06828">
        <ele>173</ele>
        <time>2018-06-25T09:03:56.228Z</time>
      </trkpt>
      <trkpt lat="43.50101" lon="0.06769">
        <ele>172</ele>
        <time>2018-06-25T09:03:57.228Z</time>
      </trkpt>
      <trkpt lat="43.50092" lon="0.06753">
        <ele>172</ele>
        <time>2018-06-25T09:03:58.228Z</time>
      </trkpt>
      <trkpt lat="43.50063" lon="0.06729">
        <ele>172</ele>
        <time>2018-06-25T09:03:59.228Z</time>
      </trkpt>
      <trkpt lat="43.50053" lon="0.06716">
        <ele>172</ele>
        <time>2018-06-25T09:04:00.228Z</time>
      </trkpt>
      <trkpt lat="43.50043" lon="0.06698">
        <ele>172</ele>
        <time>2018-06-25T09:04:01.228Z</time>
      </trkpt>
      <trkpt lat="43.50044" lon="0.06697">
        <ele>172</ele>
        <time>2018-06-25T09:04:02.228Z</time>
      </trkpt>
      <trkpt lat="43.49988" lon="0.06595">
        <ele>173</ele>
        <time>2018-06-25T09:04:03.228Z</time>
      </trkpt>
      <trkpt lat="43.49973" lon="0.06564">
        <ele>174</ele>
        <time>2018-06-25T09:04:04.228Z</time>
      </trkpt>
      <trkpt lat="43.49963" lon="0.06538">
        <ele>174</ele>
        <time>2018-06-25T09:04:05.228Z</time>
      </trkpt>
      <trkpt lat="43.49943" lon="0.06443">
        <ele>174</ele>
        <time>2018-06-25T09:04:06.228Z</time>
      </trkpt>
      <trkpt lat="43.49923" lon="0.06299">
        <ele>172</ele>
        <time>2018-06-25T09:04:07.228Z</time>
      </trkpt>
      <trkpt lat="43.49916" lon="0.06259">
        <ele>172</ele>
        <time>2018-06-25T09:04:08.228Z</time>
      </trkpt>
      <trkpt lat="43.4989" lon="0.06185">
        <ele>172</ele>
        <time>2018-06-25T09:04:09.228Z</time>
      </trkpt>
      <trkpt lat="43.49791" lon="0.05972">
        <ele>171</ele>
        <time>2018-06-25T09:04:10.228Z</time>
      </trkpt>
      <trkpt lat="43.4984" lon="0.0588">
        <ele>170</ele>
        <time>2018-06-25T09:04:11.228Z</time>
      </trkpt>
      <trkpt lat="43.49909" lon="0.05791">
        <ele>170</ele>
        <time>2018-06-25T09:04:12.228Z</time>
      </trkpt>
      <trkpt lat="43.49966" lon="0.057">
        <ele>170</ele>
        <time>2018-06-25T09:04:13.228Z</time>
      </trkpt>
      <trkpt lat="43.49982" lon="0.05667">
        <ele>170</ele>
        <time>2018-06-25T09:04:14.228Z</time>
      </trkpt>
      <trkpt lat="43.49986" lon="0.05659">
        <ele>170</ele>
        <time>2018-06-25T09:04:15.228Z</time>
      </trkpt>
      <trkpt lat="43.4994" lon="0.05648">
        <ele>169</ele>
        <time>2018-06-25T09:04:16.228Z</time>
      </trkpt>
      <trkpt lat="43.49905" lon="0.05652">
        <ele>169</ele>
        <time>2018-06-25T09:04:17.228Z</time>
      </trkpt>
      <trkpt lat="43.49867" lon="0.05649">
        <ele>169</ele>
        <time>2018-06-25T09:04:18.228Z</time>
      </trkpt>
      <trkpt lat="43.49859" lon="0.05644">
        <ele>170</ele>
        <time>2018-06-25T09:04:19.228Z</time>
      </trkpt>
      <trkpt lat="43.49834" lon="0.05607">
        <ele>170</ele>
        <time>2018-06-25T09:04:20.228Z</time>
      </trkpt>
      <trkpt lat="43.49801" lon="0.0558">
        <ele>170</ele>
        <time>2018-06-25T09:04:21.228Z</time>
      </trkpt>
      <trkpt lat="43.49726" lon="0.05526">
        <ele>169</ele>
        <time>2018-06-25T09:04:22.228Z</time>
      </trkpt>
      <trkpt lat="43.49707" lon="0.05517">
        <ele>169</ele>
        <time>2018-06-25T09:04:23.228Z</time>
      </trkpt>
      <trkpt lat="43.4964" lon="0.05506">
        <ele>171</ele>
        <time>2018-06-25T09:04:24.228Z</time>
      </trkpt>
      <trkpt lat="43.49586" lon="0.05504">
        <ele>175</ele>
        <time>2018-06-25T09:04:25.228Z</time>
      </trkpt>
      <trkpt lat="43.4953" lon="0.05494">
        <ele>174</ele>
        <time>2018-06-25T09:04:26.228Z</time>
      </trkpt>
      <trkpt lat="43.495" lon="0.05486">
        <ele>173</ele>
        <time>2018-06-25T09:04:27.228Z</time>
      </trkpt>
      <trkpt lat="43.4943" lon="0.0546">
        <ele>171</ele>
        <time>2018-06-25T09:04:28.228Z</time>
      </trkpt>
      <trkpt lat="43.49353" lon="0.05416">
        <ele>170</ele>
        <time>2018-06-25T09:04:29.228Z</time>
      </trkpt>
      <trkpt lat="43.49321" lon="0.05405">
        <ele>170</ele>
        <time>2018-06-25T09:04:30.228Z</time>
      </trkpt>
      <trkpt lat="43.49306" lon="0.05403">
        <ele>170</ele>
        <time>2018-06-25T09:04:31.228Z</time>
      </trkpt>
      <trkpt lat="43.49281" lon="0.05407">
        <ele>171</ele>
        <time>2018-06-25T09:04:32.228Z</time>
      </trkpt>
      <trkpt lat="43.49256" lon="0.05415">
        <ele>171</ele>
        <time>2018-06-25T09:04:33.228Z</time>
      </trkpt>
      <trkpt lat="43.49198" lon="0.0542">
        <ele>172</ele>
        <time>2018-06-25T09:04:34.228Z</time>
      </trkpt>
      <trkpt lat="43.4917" lon="0.05416">
        <ele>172</ele>
        <time>2018-06-25T09:04:35.228Z</time>
      </trkpt>
      <trkpt lat="43.49156" lon="0.05413">
        <ele>172</ele>
        <time>2018-06-25T09:04:36.228Z</time>
      </trkpt>
      <trkpt lat="43.49143" lon="0.05396">
        <ele>172</ele>
        <time>2018-06-25T09:04:37.228Z</time>
      </trkpt>
      <trkpt lat="43.49129" lon="0.05363">
        <ele>171</ele>
        <time>2018-06-25T09:04:38.228Z</time>
      </trkpt>
      <trkpt lat="43.49126" lon="0.05343">
        <ele>170</ele>
        <time>2018-06-25T09:04:39.228Z</time>
      </trkpt>
      <trkpt lat="43.49124" lon="0.05287">
        <ele>171</ele>
        <time>2018-06-25T09:04:40.228Z</time>
      </trkpt>
      <trkpt lat="43.49118" lon="0.05268">
        <ele>171</ele>
        <time>2018-06-25T09:04:41.228Z</time>
      </trkpt>
      <trkpt lat="43.49113" lon="0.05258">
        <ele>171</ele>
        <time>2018-06-25T09:04:42.228Z</time>
      </trkpt>
      <trkpt lat="43.49023" lon="0.05144">
        <ele>170</ele>
        <time>2018-06-25T09:04:43.228Z</time>
      </trkpt>
      <trkpt lat="43.48941" lon="0.05048">
        <ele>172</ele>
        <time>2018-06-25T09:04:44.228Z</time>
      </trkpt>
      <trkpt lat="43.489" lon="0.05032">
        <ele>172</ele>
        <time>2018-06-25T09:04:45.228Z</time>
      </trkpt>
      <trkpt lat="43.48826" lon="0.05013">
        <ele>171</ele>
        <time>2018-06-25T09:04:46.228Z</time>
      </trkpt>
      <trkpt lat="43.48743" lon="0.04973">
        <ele>172</ele>
        <time>2018-06-25T09:04:47.228Z</time>
      </trkpt>
      <trkpt lat="43.4858" lon="0.04886">
        <ele>174</ele>
        <time>2018-06-25T09:04:48.228Z</time>
      </trkpt>
      <trkpt lat="43.48558" lon="0.04872">
        <ele>173</ele>
        <time>2018-06-25T09:04:49.228Z</time>
      </trkpt>
      <trkpt lat="43.48533" lon="0.04848">
        <ele>173</ele>
        <time>2018-06-25T09:04:50.228Z</time>
      </trkpt>
      <trkpt lat="43.48509" lon="0.04834">
        <ele>174</ele>
        <time>2018-06-25T09:04:51.228Z</time>
      </trkpt>
      <trkpt lat="43.48486" lon="0.04824">
        <ele>173</ele>
        <time>2018-06-25T09:04:52.228Z</time>
      </trkpt>
      <trkpt lat="43.48451" lon="0.04815">
        <ele>173</ele>
        <time>2018-06-25T09:04:53.228Z</time>
      </trkpt>
      <trkpt lat="43.4838" lon="0.04801">
        <ele>173</ele>
        <time>2018-06-25T09:04:54.228Z</time>
      </trkpt>
      <trkpt lat="43.48334" lon="0.04777">
        <ele>175</ele>
        <time>2018-06-25T09:04:55.228Z</time>
      </trkpt>
      <trkpt lat="43.4831" lon="0.04761">
        <ele>174</ele>
        <time>2018-06-25T09:04:56.228Z</time>
      </trkpt>
      <trkpt lat="43.48279" lon="0.04733">
        <ele>173</ele>
        <time>2018-06-25T09:04:57.228Z</time>
      </trkpt>
      <trkpt lat="43.4827" lon="0.04718">
        <ele>173</ele>
        <time>2018-06-25T09:04:58.228Z</time>
      </trkpt>
      <trkpt lat="43.48262" lon="0.04713">
        <ele>173</ele>
        <time>2018-06-25T09:04:59.228Z</time>
      </trkpt>
      <trkpt lat="43.48254" lon="0.04714">
        <ele>173</ele>
        <time>2018-06-25T09:05:00.228Z</time>
      </trkpt>
      <trkpt lat="43.48137" lon="0.04766">
        <ele>174</ele>
        <time>2018-06-25T09:05:01.228Z</time>
      </trkpt>
      <trkpt lat="43.48108" lon="0.04748">
        <ele>174</ele>
        <time>2018-06-25T09:05:02.228Z</time>
      </trkpt>
      <trkpt lat="43.48068" lon="0.04698">
        <ele>175</ele>
        <time>2018-06-25T09:05:03.228Z</time>
      </trkpt>
      <trkpt lat="43.48033" lon="0.04672">
        <ele>175</ele>
        <time>2018-06-25T09:05:04.228Z</time>
      </trkpt>
      <trkpt lat="43.48018" lon="0.04666">
        <ele>175</ele>
        <time>2018-06-25T09:05:05.228Z</time>
      </trkpt>
      <trkpt lat="43.48009" lon="0.04665">
        <ele>175</ele>
        <time>2018-06-25T09:05:06.228Z</time>
      </trkpt>
      <trkpt lat="43.47959" lon="0.04666">
        <ele>175</ele>
        <time>2018-06-25T09:05:07.228Z</time>
      </trkpt>
      <trkpt lat="43.47925" lon="0.04656">
        <ele>175</ele>
        <time>2018-06-25T09:05:08.228Z</time>
      </trkpt>
      <trkpt lat="43.47889" lon="0.04641">
        <ele>175</ele>
        <time>2018-06-25T09:05:09.228Z</time>
      </trkpt>
      <trkpt lat="43.47835" lon="0.04629">
        <ele>175</ele>
        <time>2018-06-25T09:05:10.228Z</time>
      </trkpt>
      <trkpt lat="43.47765" lon="0.04618">
        <ele>175</ele>
        <time>2018-06-25T09:05:11.228Z</time>
      </trkpt>
      <trkpt lat="43.47693" lon="0.046">
        <ele>176</ele>
        <time>2018-06-25T09:05:12.228Z</time>
      </trkpt>
      <trkpt lat="43.4763" lon="0.04597">
        <ele>176</ele>
        <time>2018-06-25T09:05:13.228Z</time>
      </trkpt>
      <trkpt lat="43.47612" lon="0.04592">
        <ele>176</ele>
        <time>2018-06-25T09:05:14.228Z</time>
      </trkpt>
      <trkpt lat="43.47602" lon="0.04586">
        <ele>176</ele>
        <time>2018-06-25T09:05:15.228Z</time>
      </trkpt>
      <trkpt lat="43.47506" lon="0.045">
        <ele>177</ele>
        <time>2018-06-25T09:05:16.228Z</time>
      </trkpt>
      <trkpt lat="43.4746" lon="0.04462">
        <ele>177</ele>
        <time>2018-06-25T09:05:17.228Z</time>
      </trkpt>
      <trkpt lat="43.47412" lon="0.04439">
        <ele>177</ele>
        <time>2018-06-25T09:05:18.228Z</time>
      </trkpt>
      <trkpt lat="43.47386" lon="0.04437">
        <ele>178</ele>
        <time>2018-06-25T09:05:19.228Z</time>
      </trkpt>
      <trkpt lat="43.47371" lon="0.04433">
        <ele>178</ele>
        <time>2018-06-25T09:05:20.228Z</time>
      </trkpt>
      <trkpt lat="43.47357" lon="0.04422">
        <ele>178</ele>
        <time>2018-06-25T09:05:21.228Z</time>
      </trkpt>
      <trkpt lat="43.47335" lon="0.04352">
        <ele>179</ele>
        <time>2018-06-25T09:05:22.228Z</time>
      </trkpt>
      <trkpt lat="43.47328" lon="0.04334">
        <ele>179</ele>
        <time>2018-06-25T09:05:23.228Z</time>
      </trkpt>
      <trkpt lat="43.4732" lon="0.04334">
        <ele>179</ele>
        <time>2018-06-25T09:05:24.228Z</time>
      </trkpt>
      <trkpt lat="43.47303" lon="0.04319">
        <ele>178</ele>
        <time>2018-06-25T09:05:25.228Z</time>
      </trkpt>
      <trkpt lat="43.47299" lon="0.0431">
        <ele>178</ele>
        <time>2018-06-25T09:05:26.228Z</time>
      </trkpt>
      <trkpt lat="43.47288" lon="0.04266">
        <ele>178</ele>
        <time>2018-06-25T09:05:27.228Z</time>
      </trkpt>
      <trkpt lat="43.47277" lon="0.04237">
        <ele>178</ele>
        <time>2018-06-25T09:05:28.228Z</time>
      </trkpt>
      <trkpt lat="43.47269" lon="0.04224">
        <ele>178</ele>
        <time>2018-06-25T09:05:29.228Z</time>
      </trkpt>
      <trkpt lat="43.47253" lon="0.04214">
        <ele>178</ele>
        <time>2018-06-25T09:05:30.228Z</time>
      </trkpt>
      <trkpt lat="43.4723" lon="0.04205">
        <ele>179</ele>
        <time>2018-06-25T09:05:31.228Z</time>
      </trkpt>
      <trkpt lat="43.47145" lon="0.04163">
        <ele>180</ele>
        <time>2018-06-25T09:05:32.228Z</time>
      </trkpt>
      <trkpt lat="43.47125" lon="0.04155">
        <ele>180</ele>
        <time>2018-06-25T09:05:33.228Z</time>
      </trkpt>
      <trkpt lat="43.47124" lon="0.04148">
        <ele>180</ele>
        <time>2018-06-25T09:05:34.228Z</time>
      </trkpt>
      <trkpt lat="43.47118" lon="0.04144">
        <ele>180</ele>
        <time>2018-06-25T09:05:35.228Z</time>
      </trkpt>
      <trkpt lat="43.47115" lon="0.04146">
        <ele>180</ele>
        <time>2018-06-25T09:05:36.228Z</time>
      </trkpt>
      <trkpt lat="43.47113" lon="0.0414">
        <ele>180</ele>
        <time>2018-06-25T09:05:37.228Z</time>
      </trkpt>
      <trkpt lat="43.47102" lon="0.03781">
        <ele>177</ele>
        <time>2018-06-25T09:05:38.228Z</time>
      </trkpt>
      <trkpt lat="43.47103" lon="0.0368">
        <ele>177</ele>
        <time>2018-06-25T09:05:39.228Z</time>
      </trkpt>
      <trkpt lat="43.47102" lon="0.03655">
        <ele>177</ele>
        <time>2018-06-25T09:05:40.228Z</time>
      </trkpt>
      <trkpt lat="43.47095" lon="0.03617">
        <ele>178</ele>
        <time>2018-06-25T09:05:41.228Z</time>
      </trkpt>
      <trkpt lat="43.47087" lon="0.03592">
        <ele>178</ele>
        <time>2018-06-25T09:05:42.228Z</time>
      </trkpt>
      <trkpt lat="43.47064" lon="0.0357">
        <ele>178</ele>
        <time>2018-06-25T09:05:43.228Z</time>
      </trkpt>
      <trkpt lat="43.47038" lon="0.03551">
        <ele>179</ele>
        <time>2018-06-25T09:05:44.228Z</time>
      </trkpt>
      <trkpt lat="43.47009" lon="0.03551">
        <ele>179</ele>
        <time>2018-06-25T09:05:45.228Z</time>
      </trkpt>
      <trkpt lat="43.47005" lon="0.03549">
        <ele>179</ele>
        <time>2018-06-25T09:05:46.228Z</time>
      </trkpt>
      <trkpt lat="43.47002" lon="0.03543">
        <ele>179</ele>
        <time>2018-06-25T09:05:47.228Z</time>
      </trkpt>
      <trkpt lat="43.46988" lon="0.03499">
        <ele>180</ele>
        <time>2018-06-25T09:05:48.228Z</time>
      </trkpt>
      <trkpt lat="43.46968" lon="0.03475">
        <ele>179</ele>
        <time>2018-06-25T09:05:49.228Z</time>
      </trkpt>
      <trkpt lat="43.46958" lon="0.03468">
        <ele>179</ele>
        <time>2018-06-25T09:05:50.228Z</time>
      </trkpt>
      <trkpt lat="43.46871" lon="0.03468">
        <ele>180</ele>
        <time>2018-06-25T09:05:51.228Z</time>
      </trkpt>
      <trkpt lat="43.46857" lon="0.0347">
        <ele>180</ele>
        <time>2018-06-25T09:05:52.228Z</time>
      </trkpt>
      <trkpt lat="43.4684" lon="0.03462">
        <ele>180</ele>
        <time>2018-06-25T09:05:53.228Z</time>
      </trkpt>
      <trkpt lat="43.46824" lon="0.03458">
        <ele>181</ele>
        <time>2018-06-25T09:05:54.228Z</time>
      </trkpt>
      <trkpt lat="43.46807" lon="0.03092">
        <ele>179</ele>
        <time>2018-06-25T09:05:55.228Z</time>
      </trkpt>
      <trkpt lat="43.46807" lon="0.03026">
        <ele>179</ele>
        <time>2018-06-25T09:05:56.228Z</time>
      </trkpt>
      <trkpt lat="43.46806" lon="0.03015">
        <ele>180</ele>
        <time>2018-06-25T09:05:57.228Z</time>
      </trkpt>
      <trkpt lat="43.46792" lon="0.02764">
        <ele>179</ele>
        <time>2018-06-25T09:05:58.228Z</time>
      </trkpt>
      <trkpt lat="43.46788" lon="0.02756">
        <ele>179</ele>
        <time>2018-06-25T09:05:59.228Z</time>
      </trkpt>
      <trkpt lat="43.46776" lon="0.02759">
        <ele>179</ele>
        <time>2018-06-25T09:06:00.228Z</time>
      </trkpt>
      <trkpt lat="43.46756" lon="0.02773">
        <ele>179</ele>
        <time>2018-06-25T09:06:01.228Z</time>
      </trkpt>
      <trkpt lat="43.46744" lon="0.02789">
        <ele>179</ele>
        <time>2018-06-25T09:06:02.228Z</time>
      </trkpt>
      <trkpt lat="43.46738" lon="0.02804">
        <ele>178</ele>
        <time>2018-06-25T09:06:03.228Z</time>
      </trkpt>
      <trkpt lat="43.46707" lon="0.02833">
        <ele>179</ele>
        <time>2018-06-25T09:06:04.228Z</time>
      </trkpt>
      <trkpt lat="43.46634" lon="0.02895">
        <ele>180</ele>
        <time>2018-06-25T09:06:05.228Z</time>
      </trkpt>
      <trkpt lat="43.46587" lon="0.0293">
        <ele>180</ele>
        <time>2018-06-25T09:06:06.228Z</time>
      </trkpt>
      <trkpt lat="43.46582" lon="0.02931">
        <ele>180</ele>
        <time>2018-06-25T09:06:07.228Z</time>
      </trkpt>
      <trkpt lat="43.4657" lon="0.02928">
        <ele>180</ele>
        <time>2018-06-25T09:06:08.228Z</time>
      </trkpt>
      <trkpt lat="43.46563" lon="0.02918">
        <ele>180</ele>
        <time>2018-06-25T09:06:09.228Z</time>
      </trkpt>
      <trkpt lat="43.46545" lon="0.0287">
        <ele>180</ele>
        <time>2018-06-25T09:06:10.228Z</time>
      </trkpt>
      <trkpt lat="43.46543" lon="0.02852">
        <ele>180</ele>
        <time>2018-06-25T09:06:11.228Z</time>
      </trkpt>
      <trkpt lat="43.46523" lon="0.02685">
        <ele>177</ele>
        <time>2018-06-25T09:06:12.228Z</time>
      </trkpt>
      <trkpt lat="43.4652" lon="0.02487">
        <ele>177</ele>
        <time>2018-06-25T09:06:13.228Z</time>
      </trkpt>
      <trkpt lat="43.46515" lon="0.02441">
        <ele>177</ele>
        <time>2018-06-25T09:06:14.228Z</time>
      </trkpt>
      <trkpt lat="43.46507" lon="0.02392">
        <ele>177</ele>
        <time>2018-06-25T09:06:15.228Z</time>
      </trkpt>
      <trkpt lat="43.46486" lon="0.0229">
        <ele>178</ele>
        <time>2018-06-25T09:06:16.228Z</time>
      </trkpt>
      <trkpt lat="43.46454" lon="0.02195">
        <ele>179</ele>
        <time>2018-06-25T09:06:17.228Z</time>
      </trkpt>
      <trkpt lat="43.46298" lon="0.01394">
        <ele>179</ele>
        <time>2018-06-25T09:06:18.228Z</time>
      </trkpt>
      <trkpt lat="43.46242" lon="0.01184">
        <ele>180</ele>
        <time>2018-06-25T09:06:19.228Z</time>
      </trkpt>
      <trkpt lat="43.46213" lon="0.0088">
        <ele>180</ele>
        <time>2018-06-25T09:06:20.228Z</time>
      </trkpt>
      <trkpt lat="43.46245" lon="0.00833">
        <ele>181</ele>
        <time>2018-06-25T09:06:21.228Z</time>
      </trkpt>
      <trkpt lat="43.46186" lon="0.00551">
        <ele>208</ele>
        <time>2018-06-25T09:06:22.228Z</time>
      </trkpt>
      <trkpt lat="43.46157" lon="0.00291">
        <ele>230</ele>
        <time>2018-06-25T09:06:23.228Z</time>
      </trkpt>
      <trkpt lat="43.46138" lon="0.00192">
        <ele>232</ele>
        <time>2018-06-25T09:06:24.228Z</time>
      </trkpt>
      <trkpt lat="43.46119" lon="0.00065">
        <ele>226</ele>
        <time>2018-06-25T09:06:25.228Z</time>
      </trkpt>
      <trkpt lat="43.4612" lon="-0.00042">
        <ele>226</ele>
        <time>2018-06-25T09:06:26.228Z</time>
      </trkpt>
      <trkpt lat="43.45999" lon="-0.00087">
        <ele>230</ele>
        <time>2018-06-25T09:06:27.228Z</time>
      </trkpt>
      <trkpt lat="43.45911" lon="-0.00134">
        <ele>238</ele>
        <time>2018-06-25T09:06:28.228Z</time>
      </trkpt>
      <trkpt lat="43.45843" lon="-0.00169">
        <ele>247</ele>
        <time>2018-06-25T09:06:29.228Z</time>
      </trkpt>
      <trkpt lat="43.4583" lon="-0.00142">
        <ele>246</ele>
        <time>2018-06-25T09:06:30.228Z</time>
      </trkpt>
      <trkpt lat="43.45777" lon="-0.00122">
        <ele>246</ele>
        <time>2018-06-25T09:06:31.228Z</time>
      </trkpt>
      <trkpt lat="43.4572" lon="-0.00118">
        <ele>247</ele>
        <time>2018-06-25T09:06:32.228Z</time>
      </trkpt>
      <trkpt lat="43.45699" lon="-0.00102">
        <ele>247</ele>
        <time>2018-06-25T09:06:33.228Z</time>
      </trkpt>
      <trkpt lat="43.45696" lon="-0.00074">
        <ele>248</ele>
        <time>2018-06-25T09:06:34.228Z</time>
      </trkpt>
      <trkpt lat="43.45693" lon="-0.0002">
        <ele>254</ele>
        <time>2018-06-25T09:06:35.228Z</time>
      </trkpt>
      <trkpt lat="43.45651" lon="-0.00019">
        <ele>258</ele>
        <time>2018-06-25T09:06:36.228Z</time>
      </trkpt>
      <trkpt lat="43.45593" lon="-0.00085">
        <ele>256</ele>
        <time>2018-06-25T09:06:37.228Z</time>
      </trkpt>
      <trkpt lat="43.45489" lon="-0.00138">
        <ele>256</ele>
        <time>2018-06-25T09:06:38.228Z</time>
      </trkpt>
      <trkpt lat="43.45362" lon="-0.00114">
        <ele>260</ele>
        <time>2018-06-25T09:06:39.228Z</time>
      </trkpt>
      <trkpt lat="43.451" lon="-0.00164">
        <ele>263</ele>
        <time>2018-06-25T09:06:40.228Z</time>
      </trkpt>
      <trkpt lat="43.45073" lon="-0.00347">
        <ele>266</ele>
        <time>2018-06-25T09:06:41.228Z</time>
      </trkpt>
      <trkpt lat="43.45071" lon="-0.00351">
        <ele>267</ele>
        <time>2018-06-25T09:06:42.228Z</time>
      </trkpt>
      <trkpt lat="43.45071" lon="-0.00343">
        <ele>266</ele>
        <time>2018-06-25T09:06:43.228Z</time>
      </trkpt>
      <trkpt lat="43.45067" lon="-0.00335">
        <ele>264</ele>
        <time>2018-06-25T09:06:44.228Z</time>
      </trkpt>
      <trkpt lat="43.44992" lon="-0.00279">
        <ele>256</ele>
        <time>2018-06-25T09:06:45.228Z</time>
      </trkpt>
      <trkpt lat="43.44988" lon="-0.00278">
        <ele>255</ele>
        <time>2018-06-25T09:06:46.228Z</time>
      </trkpt>
      <trkpt lat="43.44983" lon="-0.00281">
        <ele>255</ele>
        <time>2018-06-25T09:06:47.228Z</time>
      </trkpt>
      <trkpt lat="43.44967" lon="-0.00304">
        <ele>253</ele>
        <time>2018-06-25T09:06:48.228Z</time>
      </trkpt>
      <trkpt lat="43.44951" lon="-0.00319">
        <ele>250</ele>
        <time>2018-06-25T09:06:49.228Z</time>
      </trkpt>
      <trkpt lat="43.4493" lon="-0.00345">
        <ele>247</ele>
        <time>2018-06-25T09:06:50.228Z</time>
      </trkpt>
      <trkpt lat="43.44926" lon="-0.00353">
        <ele>247</ele>
        <time>2018-06-25T09:06:51.228Z</time>
      </trkpt>
      <trkpt lat="43.44919" lon="-0.00383">
        <ele>247</ele>
        <time>2018-06-25T09:06:52.228Z</time>
      </trkpt>
      <trkpt lat="43.44912" lon="-0.00434">
        <ele>250</ele>
        <time>2018-06-25T09:06:53.228Z</time>
      </trkpt>
      <trkpt lat="43.449" lon="-0.00459">
        <ele>252</ele>
        <time>2018-06-25T09:06:54.228Z</time>
      </trkpt>
      <trkpt lat="43.44887" lon="-0.00479">
        <ele>253</ele>
        <time>2018-06-25T09:06:55.228Z</time>
      </trkpt>
      <trkpt lat="43.44867" lon="-0.005">
        <ele>251</ele>
        <time>2018-06-25T09:06:56.228Z</time>
      </trkpt>
      <trkpt lat="43.44841" lon="-0.00515">
        <ele>247</ele>
        <time>2018-06-25T09:06:57.228Z</time>
      </trkpt>
      <trkpt lat="43.4482" lon="-0.00522">
        <ele>245</ele>
        <time>2018-06-25T09:06:58.228Z</time>
      </trkpt>
      <trkpt lat="43.44799" lon="-0.00522">
        <ele>243</ele>
        <time>2018-06-25T09:06:59.228Z</time>
      </trkpt>
      <trkpt lat="43.44786" lon="-0.00518">
        <ele>241</ele>
        <time>2018-06-25T09:07:00.228Z</time>
      </trkpt>
      <trkpt lat="43.44777" lon="-0.00511">
        <ele>239</ele>
        <time>2018-06-25T09:07:01.228Z</time>
      </trkpt>
      <trkpt lat="43.44772" lon="-0.00505">
        <ele>238</ele>
        <time>2018-06-25T09:07:02.228Z</time>
      </trkpt>
      <trkpt lat="43.44769" lon="-0.00487">
        <ele>237</ele>
        <time>2018-06-25T09:07:03.228Z</time>
      </trkpt>
      <trkpt lat="43.44764" lon="-0.00479">
        <ele>236</ele>
        <time>2018-06-25T09:07:04.228Z</time>
      </trkpt>
      <trkpt lat="43.44756" lon="-0.00475">
        <ele>235</ele>
        <time>2018-06-25T09:07:05.228Z</time>
      </trkpt>
      <trkpt lat="43.44718" lon="-0.00467">
        <ele>230</ele>
        <time>2018-06-25T09:07:06.228Z</time>
      </trkpt>
      <trkpt lat="43.44675" lon="-0.0049">
        <ele>225</ele>
        <time>2018-06-25T09:07:07.228Z</time>
      </trkpt>
      <trkpt lat="43.4467" lon="-0.0049">
        <ele>224</ele>
        <time>2018-06-25T09:07:08.228Z</time>
      </trkpt>
      <trkpt lat="43.44661" lon="-0.00488">
        <ele>223</ele>
        <time>2018-06-25T09:07:09.228Z</time>
      </trkpt>
      <trkpt lat="43.44654" lon="-0.00483">
        <ele>223</ele>
        <time>2018-06-25T09:07:10.228Z</time>
      </trkpt>
      <trkpt lat="43.44655" lon="-0.00483">
        <ele>223</ele>
        <time>2018-06-25T09:07:11.228Z</time>
      </trkpt>
      <trkpt lat="43.4462" lon="-0.00448">
        <ele>219</ele>
        <time>2018-06-25T09:07:12.228Z</time>
      </trkpt>
      <trkpt lat="43.44575" lon="-0.00388">
        <ele>213</ele>
        <time>2018-06-25T09:07:13.228Z</time>
      </trkpt>
      <trkpt lat="43.44572" lon="-0.00379">
        <ele>213</ele>
        <time>2018-06-25T09:07:14.228Z</time>
      </trkpt>
      <trkpt lat="43.44561" lon="-0.00313">
        <ele>210</ele>
        <time>2018-06-25T09:07:15.228Z</time>
      </trkpt>
      <trkpt lat="43.44554" lon="-0.00295">
        <ele>210</ele>
        <time>2018-06-25T09:07:16.228Z</time>
      </trkpt>
      <trkpt lat="43.44544" lon="-0.00274">
        <ele>209</ele>
        <time>2018-06-25T09:07:17.228Z</time>
      </trkpt>
      <trkpt lat="43.44511" lon="-0.00238">
        <ele>208</ele>
        <time>2018-06-25T09:07:18.228Z</time>
      </trkpt>
      <trkpt lat="43.44513" lon="-0.0022">
        <ele>208</ele>
        <time>2018-06-25T09:07:19.228Z</time>
      </trkpt>
      <trkpt lat="43.44511" lon="-0.00197">
        <ele>207</ele>
        <time>2018-06-25T09:07:20.228Z</time>
      </trkpt>
      <trkpt lat="43.44502" lon="-0.00153">
        <ele>207</ele>
        <time>2018-06-25T09:07:21.228Z</time>
      </trkpt>
      <trkpt lat="43.44501" lon="-0.00135">
        <ele>206</ele>
        <time>2018-06-25T09:07:22.228Z</time>
      </trkpt>
      <trkpt lat="43.44534" lon="0.0005">
        <ele>203</ele>
        <time>2018-06-25T09:07:23.228Z</time>
      </trkpt>
      <trkpt lat="43.44553" lon="0.00153">
        <ele>201</ele>
        <time>2018-06-25T09:07:24.228Z</time>
      </trkpt>
      <trkpt lat="43.44539" lon="0.00137">
        <ele>202</ele>
        <time>2018-06-25T09:07:25.228Z</time>
      </trkpt>
      <trkpt lat="43.44525" lon="0.001">
        <ele>203</ele>
        <time>2018-06-25T09:07:26.228Z</time>
      </trkpt>
      <trkpt lat="43.44412" lon="-0.00039">
        <ele>213</ele>
        <time>2018-06-25T09:07:27.228Z</time>
      </trkpt>
      <trkpt lat="43.4439" lon="-0.00055">
        <ele>216</ele>
        <time>2018-06-25T09:07:28.228Z</time>
      </trkpt>
      <trkpt lat="43.44374" lon="-0.00061">
        <ele>218</ele>
        <time>2018-06-25T09:07:29.228Z</time>
      </trkpt>
      <trkpt lat="43.44356" lon="-0.00064">
        <ele>220</ele>
        <time>2018-06-25T09:07:30.228Z</time>
      </trkpt>
      <trkpt lat="43.44326" lon="-0.00059">
        <ele>225</ele>
        <time>2018-06-25T09:07:31.228Z</time>
      </trkpt>
      <trkpt lat="43.44275" lon="-0.0006">
        <ele>228</ele>
        <time>2018-06-25T09:07:32.228Z</time>
      </trkpt>
      <trkpt lat="43.44157" lon="-0.0003">
        <ele>236</ele>
        <time>2018-06-25T09:07:33.228Z</time>
      </trkpt>
      <trkpt lat="43.44134" lon="-0.00031">
        <ele>238</ele>
        <time>2018-06-25T09:07:34.228Z</time>
      </trkpt>
      <trkpt lat="43.44103" lon="-0.00044">
        <ele>239</ele>
        <time>2018-06-25T09:07:35.228Z</time>
      </trkpt>
      <trkpt lat="43.44011" lon="-0.00059">
        <ele>246</ele>
        <time>2018-06-25T09:07:36.228Z</time>
      </trkpt>
      <trkpt lat="43.43981" lon="-0.00077">
        <ele>247</ele>
        <time>2018-06-25T09:07:37.228Z</time>
      </trkpt>
      <trkpt lat="43.43946" lon="-0.00104">
        <ele>250</ele>
        <time>2018-06-25T09:07:38.228Z</time>
      </trkpt>
      <trkpt lat="43.4391" lon="-0.00129">
        <ele>254</ele>
        <time>2018-06-25T09:07:39.228Z</time>
      </trkpt>
      <trkpt lat="43.43882" lon="-0.00137">
        <ele>256</ele>
        <time>2018-06-25T09:07:40.228Z</time>
      </trkpt>
      <trkpt lat="43.43846" lon="-0.00137">
        <ele>259</ele>
        <time>2018-06-25T09:07:41.228Z</time>
      </trkpt>
      <trkpt lat="43.43808" lon="-0.00153">
        <ele>261</ele>
        <time>2018-06-25T09:07:42.228Z</time>
      </trkpt>
      <trkpt lat="43.43778" lon="-0.00155">
        <ele>263</ele>
        <time>2018-06-25T09:07:43.228Z</time>
      </trkpt>
      <trkpt lat="43.43755" lon="-0.00141">
        <ele>266</ele>
        <time>2018-06-25T09:07:44.228Z</time>
      </trkpt>
      <trkpt lat="43.43756" lon="-0.00141">
        <ele>266</ele>
        <time>2018-06-25T09:07:45.228Z</time>
      </trkpt>
      <trkpt lat="43.43738" lon="-0.00133">
        <ele>269</ele>
        <time>2018-06-25T09:07:46.228Z</time>
      </trkpt>
      <trkpt lat="43.43694" lon="-0.00177">
        <ele>272</ele>
        <time>2018-06-25T09:07:47.228Z</time>
      </trkpt>
      <trkpt lat="43.4366" lon="-0.00185">
        <ele>276</ele>
        <time>2018-06-25T09:07:48.228Z</time>
      </trkpt>
      <trkpt lat="43.43517" lon="-0.00241">
        <ele>288</ele>
        <time>2018-06-25T09:07:49.228Z</time>
      </trkpt>
      <trkpt lat="43.43486" lon="-0.00269">
        <ele>291</ele>
        <time>2018-06-25T09:07:50.228Z</time>
      </trkpt>
      <trkpt lat="43.43456" lon="-0.00311">
        <ele>295</ele>
        <time>2018-06-25T09:07:51.228Z</time>
      </trkpt>
      <trkpt lat="43.43441" lon="-0.00341">
        <ele>296</ele>
        <time>2018-06-25T09:07:52.228Z</time>
      </trkpt>
      <trkpt lat="43.43407" lon="-0.00399">
        <ele>296</ele>
        <time>2018-06-25T09:07:53.228Z</time>
      </trkpt>
      <trkpt lat="43.43385" lon="-0.00422">
        <ele>298</ele>
        <time>2018-06-25T09:07:54.228Z</time>
      </trkpt>
      <trkpt lat="43.43374" lon="-0.00431">
        <ele>299</ele>
        <time>2018-06-25T09:07:55.228Z</time>
      </trkpt>
      <trkpt lat="43.43326" lon="-0.00445">
        <ele>303</ele>
        <time>2018-06-25T09:07:56.228Z</time>
      </trkpt>
      <trkpt lat="43.43171" lon="-0.00469">
        <ele>308</ele>
        <time>2018-06-25T09:07:57.228Z</time>
      </trkpt>
      <trkpt lat="43.43154" lon="-0.00466">
        <ele>308</ele>
        <time>2018-06-25T09:07:58.228Z</time>
      </trkpt>
      <trkpt lat="43.43159" lon="-0.00492">
        <ele>307</ele>
        <time>2018-06-25T09:07:59.228Z</time>
      </trkpt>
      <trkpt lat="43.43158" lon="-0.00507">
        <ele>306</ele>
        <time>2018-06-25T09:08:00.228Z</time>
      </trkpt>
      <trkpt lat="43.43151" lon="-0.00526">
        <ele>306</ele>
        <time>2018-06-25T09:08:01.228Z</time>
      </trkpt>
      <trkpt lat="43.43142" lon="-0.00534">
        <ele>305</ele>
        <time>2018-06-25T09:08:02.228Z</time>
      </trkpt>
      <trkpt lat="43.43113" lon="-0.0055">
        <ele>304</ele>
        <time>2018-06-25T09:08:03.228Z</time>
      </trkpt>
      <trkpt lat="43.43105" lon="-0.00558">
        <ele>304</ele>
        <time>2018-06-25T09:08:04.228Z</time>
      </trkpt>
      <trkpt lat="43.43067" lon="-0.00617">
        <ele>303</ele>
        <time>2018-06-25T09:08:05.228Z</time>
      </trkpt>
      <trkpt lat="43.43042" lon="-0.00646">
        <ele>303</ele>
        <time>2018-06-25T09:08:06.228Z</time>
      </trkpt>
      <trkpt lat="43.429" lon="-0.00758">
        <ele>303</ele>
        <time>2018-06-25T09:08:07.228Z</time>
      </trkpt>
      <trkpt lat="43.42901" lon="-0.00759">
        <ele>303</ele>
        <time>2018-06-25T09:08:08.228Z</time>
      </trkpt>
      <trkpt lat="43.42872" lon="-0.00781">
        <ele>303</ele>
        <time>2018-06-25T09:08:09.228Z</time>
      </trkpt>
      <trkpt lat="43.42827" lon="-0.0081">
        <ele>303</ele>
        <time>2018-06-25T09:08:10.228Z</time>
      </trkpt>
      <trkpt lat="43.42785" lon="-0.00834">
        <ele>304</ele>
        <time>2018-06-25T09:08:11.228Z</time>
      </trkpt>
      <trkpt lat="43.42771" lon="-0.00846">
        <ele>304</ele>
        <time>2018-06-25T09:08:12.228Z</time>
      </trkpt>
      <trkpt lat="43.42751" lon="-0.00871">
        <ele>304</ele>
        <time>2018-06-25T09:08:13.228Z</time>
      </trkpt>
      <trkpt lat="43.42668" lon="-0.01014">
        <ele>306</ele>
        <time>2018-06-25T09:08:14.228Z</time>
      </trkpt>
      <trkpt lat="43.4253" lon="-0.01178">
        <ele>311</ele>
        <time>2018-06-25T09:08:15.228Z</time>
      </trkpt>
      <trkpt lat="43.42531" lon="-0.01179">
        <ele>311</ele>
        <time>2018-06-25T09:08:16.228Z</time>
      </trkpt>
      <trkpt lat="43.42522" lon="-0.01196">
        <ele>311</ele>
        <time>2018-06-25T09:08:17.228Z</time>
      </trkpt>
      <trkpt lat="43.42471" lon="-0.01304">
        <ele>311</ele>
        <time>2018-06-25T09:08:18.228Z</time>
      </trkpt>
      <trkpt lat="43.42363" lon="-0.01523">
        <ele>310</ele>
        <time>2018-06-25T09:08:19.228Z</time>
      </trkpt>
      <trkpt lat="43.42312" lon="-0.01614">
        <ele>309</ele>
        <time>2018-06-25T09:08:20.228Z</time>
      </trkpt>
      <trkpt lat="43.42288" lon="-0.01501">
        <ele>311</ele>
        <time>2018-06-25T09:08:21.228Z</time>
      </trkpt>
      <trkpt lat="43.42261" lon="-0.01365">
        <ele>310</ele>
        <time>2018-06-25T09:08:22.228Z</time>
      </trkpt>
      <trkpt lat="43.4224" lon="-0.01275">
        <ele>302</ele>
        <time>2018-06-25T09:08:23.228Z</time>
      </trkpt>
      <trkpt lat="43.4224" lon="-0.01248">
        <ele>300</ele>
        <time>2018-06-25T09:08:24.228Z</time>
      </trkpt>
      <trkpt lat="43.4227" lon="-0.0114">
        <ele>289</ele>
        <time>2018-06-25T09:08:25.228Z</time>
      </trkpt>
      <trkpt lat="43.42291" lon="-0.01091">
        <ele>286</ele>
        <time>2018-06-25T09:08:26.228Z</time>
      </trkpt>
      <trkpt lat="43.42301" lon="-0.01077">
        <ele>286</ele>
        <time>2018-06-25T09:08:27.228Z</time>
      </trkpt>
      <trkpt lat="43.42324" lon="-0.01054">
        <ele>284</ele>
        <time>2018-06-25T09:08:28.228Z</time>
      </trkpt>
      <trkpt lat="43.42323" lon="-0.01054">
        <ele>284</ele>
        <time>2018-06-25T09:08:29.228Z</time>
      </trkpt>
      <trkpt lat="43.4235" lon="-0.0103">
        <ele>283</ele>
        <time>2018-06-25T09:08:30.228Z</time>
      </trkpt>
      <trkpt lat="43.42366" lon="-0.01019">
        <ele>284</ele>
        <time>2018-06-25T09:08:31.228Z</time>
      </trkpt>
      <trkpt lat="43.4237" lon="-0.0101">
        <ele>283</ele>
        <time>2018-06-25T09:08:32.228Z</time>
      </trkpt>
      <trkpt lat="43.4237" lon="-0.01002">
        <ele>282</ele>
        <time>2018-06-25T09:08:33.228Z</time>
      </trkpt>
      <trkpt lat="43.42366" lon="-0.00998">
        <ele>281</ele>
        <time>2018-06-25T09:08:34.228Z</time>
      </trkpt>
      <trkpt lat="43.42351" lon="-0.01002">
        <ele>279</ele>
        <time>2018-06-25T09:08:35.228Z</time>
      </trkpt>
      <trkpt lat="43.42326" lon="-0.01015">
        <ele>277</ele>
        <time>2018-06-25T09:08:36.228Z</time>
      </trkpt>
      <trkpt lat="43.42297" lon="-0.01025">
        <ele>276</ele>
        <time>2018-06-25T09:08:37.228Z</time>
      </trkpt>
      <trkpt lat="43.42277" lon="-0.0102">
        <ele>273</ele>
        <time>2018-06-25T09:08:38.228Z</time>
      </trkpt>
      <trkpt lat="43.42194" lon="-0.00968">
        <ele>258</ele>
        <time>2018-06-25T09:08:39.228Z</time>
      </trkpt>
      <trkpt lat="43.42149" lon="-0.00947">
        <ele>251</ele>
        <time>2018-06-25T09:08:40.228Z</time>
      </trkpt>
      <trkpt lat="43.42142" lon="-0.00938">
        <ele>250</ele>
        <time>2018-06-25T09:08:41.228Z</time>
      </trkpt>
      <trkpt lat="43.42141" lon="-0.00922">
        <ele>248</ele>
        <time>2018-06-25T09:08:42.228Z</time>
      </trkpt>
      <trkpt lat="43.42144" lon="-0.00902">
        <ele>246</ele>
        <time>2018-06-25T09:08:43.228Z</time>
      </trkpt>
      <trkpt lat="43.42169" lon="-0.00847">
        <ele>242</ele>
        <time>2018-06-25T09:08:44.228Z</time>
      </trkpt>
      <trkpt lat="43.42194" lon="-0.00764">
        <ele>236</ele>
        <time>2018-06-25T09:08:45.228Z</time>
      </trkpt>
      <trkpt lat="43.42198" lon="-0.00737">
        <ele>234</ele>
        <time>2018-06-25T09:08:46.228Z</time>
      </trkpt>
      <trkpt lat="43.42194" lon="-0.00718">
        <ele>231</ele>
        <time>2018-06-25T09:08:47.228Z</time>
      </trkpt>
      <trkpt lat="43.42182" lon="-0.00702">
        <ele>229</ele>
        <time>2018-06-25T09:08:48.228Z</time>
      </trkpt>
      <trkpt lat="43.42133" lon="-0.00656">
        <ele>222</ele>
        <time>2018-06-25T09:08:49.228Z</time>
      </trkpt>
      <trkpt lat="43.42109" lon="-0.00613">
        <ele>219</ele>
        <time>2018-06-25T09:08:50.228Z</time>
      </trkpt>
      <trkpt lat="43.42004" lon="-0.00507">
        <ele>214</ele>
        <time>2018-06-25T09:08:51.228Z</time>
      </trkpt>
      <trkpt lat="43.41945" lon="-0.00431">
        <ele>213</ele>
        <time>2018-06-25T09:08:52.228Z</time>
      </trkpt>
      <trkpt lat="43.41911" lon="-0.00409">
        <ele>212</ele>
        <time>2018-06-25T09:08:53.228Z</time>
      </trkpt>
      <trkpt lat="43.41885" lon="-0.00398">
        <ele>213</ele>
        <time>2018-06-25T09:08:54.228Z</time>
      </trkpt>
      <trkpt lat="43.41842" lon="-0.00383">
        <ele>213</ele>
        <time>2018-06-25T09:08:55.228Z</time>
      </trkpt>
      <trkpt lat="43.4184" lon="-0.00379">
        <ele>213</ele>
        <time>2018-06-25T09:08:56.228Z</time>
      </trkpt>
      <trkpt lat="43.41804" lon="-0.00364">
        <ele>214</ele>
        <time>2018-06-25T09:08:57.228Z</time>
      </trkpt>
      <trkpt lat="43.41755" lon="-0.00349">
        <ele>215</ele>
        <time>2018-06-25T09:08:58.228Z</time>
      </trkpt>
      <trkpt lat="43.41692" lon="-0.00324">
        <ele>223</ele>
        <time>2018-06-25T09:08:59.228Z</time>
      </trkpt>
      <trkpt lat="43.41652" lon="-0.00285">
        <ele>227</ele>
        <time>2018-06-25T09:09:00.228Z</time>
      </trkpt>
      <trkpt lat="43.4163" lon="-0.00276">
        <ele>229</ele>
        <time>2018-06-25T09:09:01.228Z</time>
      </trkpt>
      <trkpt lat="43.41605" lon="-0.00274">
        <ele>231</ele>
        <time>2018-06-25T09:09:02.228Z</time>
      </trkpt>
      <trkpt lat="43.41572" lon="-0.00265">
        <ele>234</ele>
        <time>2018-06-25T09:09:03.228Z</time>
      </trkpt>
      <trkpt lat="43.41551" lon="-0.00254">
        <ele>235</ele>
        <time>2018-06-25T09:09:04.228Z</time>
      </trkpt>
      <trkpt lat="43.41491" lon="-0.00236">
        <ele>242</ele>
        <time>2018-06-25T09:09:05.228Z</time>
      </trkpt>
      <trkpt lat="43.41475" lon="-0.00228">
        <ele>244</ele>
        <time>2018-06-25T09:09:06.228Z</time>
      </trkpt>
      <trkpt lat="43.41459" lon="-0.00215">
        <ele>246</ele>
        <time>2018-06-25T09:09:07.228Z</time>
      </trkpt>
      <trkpt lat="43.41433" lon="-0.00179">
        <ele>253</ele>
        <time>2018-06-25T09:09:08.228Z</time>
      </trkpt>
      <trkpt lat="43.41412" lon="-0.00163">
        <ele>255</ele>
        <time>2018-06-25T09:09:09.228Z</time>
      </trkpt>
      <trkpt lat="43.4139" lon="-0.00144">
        <ele>258</ele>
        <time>2018-06-25T09:09:10.228Z</time>
      </trkpt>
      <trkpt lat="43.41363" lon="-0.00101">
        <ele>263</ele>
        <time>2018-06-25T09:09:11.228Z</time>
      </trkpt>
      <trkpt lat="43.41325" lon="-0.00025">
        <ele>272</ele>
        <time>2018-06-25T09:09:12.228Z</time>
      </trkpt>
      <trkpt lat="43.41308" lon="-0.0001">
        <ele>273</ele>
        <time>2018-06-25T09:09:13.228Z</time>
      </trkpt>
      <trkpt lat="43.41297" lon="0">
        <ele>274</ele>
        <time>2018-06-25T09:09:14.228Z</time>
      </trkpt>
      <trkpt lat="43.41236" lon="0.00033">
        <ele>277</ele>
        <time>2018-06-25T09:09:15.228Z</time>
      </trkpt>
      <trkpt lat="43.41161" lon="0.00079">
        <ele>286</ele>
        <time>2018-06-25T09:09:16.228Z</time>
      </trkpt>
      <trkpt lat="43.41104" lon="0.00132">
        <ele>298</ele>
        <time>2018-06-25T09:09:17.228Z</time>
      </trkpt>
      <trkpt lat="43.41054" lon="0.00153">
        <ele>303</ele>
        <time>2018-06-25T09:09:18.228Z</time>
      </trkpt>
      <trkpt lat="43.40985" lon="0.00188">
        <ele>310</ele>
        <time>2018-06-25T09:09:19.228Z</time>
      </trkpt>
      <trkpt lat="43.40914" lon="0.00239">
        <ele>313</ele>
        <time>2018-06-25T09:09:20.228Z</time>
      </trkpt>
      <trkpt lat="43.40877" lon="0.00217">
        <ele>312</ele>
        <time>2018-06-25T09:09:21.228Z</time>
      </trkpt>
      <trkpt lat="43.40801" lon="0.0016">
        <ele>314</ele>
        <time>2018-06-25T09:09:22.228Z</time>
      </trkpt>
      <trkpt lat="43.40775" lon="0.00136">
        <ele>314</ele>
        <time>2018-06-25T09:09:23.228Z</time>
      </trkpt>
      <trkpt lat="43.40719" lon="0.00076">
        <ele>315</ele>
        <time>2018-06-25T09:09:24.228Z</time>
      </trkpt>
      <trkpt lat="43.40693" lon="0.00059">
        <ele>315</ele>
        <time>2018-06-25T09:09:25.228Z</time>
      </trkpt>
      <trkpt lat="43.40606" lon="-0.00052">
        <ele>315</ele>
        <time>2018-06-25T09:09:26.228Z</time>
      </trkpt>
      <trkpt lat="43.40573" lon="-0.0009">
        <ele>316</ele>
        <time>2018-06-25T09:09:27.228Z</time>
      </trkpt>
      <trkpt lat="43.40481" lon="-0.0014">
        <ele>316</ele>
        <time>2018-06-25T09:09:28.228Z</time>
      </trkpt>
      <trkpt lat="43.40368" lon="-0.00145">
        <ele>317</ele>
        <time>2018-06-25T09:09:29.228Z</time>
      </trkpt>
      <trkpt lat="43.40186" lon="-0.00125">
        <ele>323</ele>
        <time>2018-06-25T09:09:30.228Z</time>
      </trkpt>
      <trkpt lat="43.40161" lon="-0.00137">
        <ele>322</ele>
        <time>2018-06-25T09:09:31.228Z</time>
      </trkpt>
      <trkpt lat="43.40145" lon="-0.00157">
        <ele>320</ele>
        <time>2018-06-25T09:09:32.228Z</time>
      </trkpt>
      <trkpt lat="43.40123" lon="-0.00215">
        <ele>319</ele>
        <time>2018-06-25T09:09:33.228Z</time>
      </trkpt>
      <trkpt lat="43.40108" lon="-0.00244">
        <ele>319</ele>
        <time>2018-06-25T09:09:34.228Z</time>
      </trkpt>
      <trkpt lat="43.40092" lon="-0.00252">
        <ele>320</ele>
        <time>2018-06-25T09:09:35.228Z</time>
      </trkpt>
      <trkpt lat="43.40071" lon="-0.0025">
        <ele>320</ele>
        <time>2018-06-25T09:09:36.228Z</time>
      </trkpt>
      <trkpt lat="43.39955" lon="-0.0018">
        <ele>318</ele>
        <time>2018-06-25T09:09:37.228Z</time>
      </trkpt>
      <trkpt lat="43.39938" lon="-0.00173">
        <ele>318</ele>
        <time>2018-06-25T09:09:38.228Z</time>
      </trkpt>
      <trkpt lat="43.39914" lon="-0.00175">
        <ele>319</ele>
        <time>2018-06-25T09:09:39.228Z</time>
      </trkpt>
      <trkpt lat="43.39896" lon="-0.00182">
        <ele>318</ele>
        <time>2018-06-25T09:09:40.228Z</time>
      </trkpt>
      <trkpt lat="43.3989" lon="-0.00189">
        <ele>318</ele>
        <time>2018-06-25T09:09:41.228Z</time>
      </trkpt>
      <trkpt lat="43.39883" lon="-0.00207">
        <ele>318</ele>
        <time>2018-06-25T09:09:42.228Z</time>
      </trkpt>
      <trkpt lat="43.39839" lon="-0.00337">
        <ele>318</ele>
        <time>2018-06-25T09:09:43.228Z</time>
      </trkpt>
      <trkpt lat="43.39833" lon="-0.0037">
        <ele>318</ele>
        <time>2018-06-25T09:09:44.228Z</time>
      </trkpt>
      <trkpt lat="43.39823" lon="-0.00394">
        <ele>318</ele>
        <time>2018-06-25T09:09:45.228Z</time>
      </trkpt>
      <trkpt lat="43.39813" lon="-0.00392">
        <ele>318</ele>
        <time>2018-06-25T09:09:46.228Z</time>
      </trkpt>
      <trkpt lat="43.39807" lon="-0.00386">
        <ele>318</ele>
        <time>2018-06-25T09:09:47.228Z</time>
      </trkpt>
      <trkpt lat="43.39771" lon="-0.00315">
        <ele>313</ele>
        <time>2018-06-25T09:09:48.228Z</time>
      </trkpt>
      <trkpt lat="43.39742" lon="-0.00273">
        <ele>307</ele>
        <time>2018-06-25T09:09:49.228Z</time>
      </trkpt>
      <trkpt lat="43.39715" lon="-0.00245">
        <ele>303</ele>
        <time>2018-06-25T09:09:50.228Z</time>
      </trkpt>
      <trkpt lat="43.39696" lon="-0.0021">
        <ele>298</ele>
        <time>2018-06-25T09:09:51.228Z</time>
      </trkpt>
      <trkpt lat="43.39678" lon="-0.00164">
        <ele>291</ele>
        <time>2018-06-25T09:09:52.228Z</time>
      </trkpt>
      <trkpt lat="43.39612" lon="-0.00017">
        <ele>282</ele>
        <time>2018-06-25T09:09:53.228Z</time>
      </trkpt>
      <trkpt lat="43.39573" lon="0.0018">
        <ele>279</ele>
        <time>2018-06-25T09:09:54.228Z</time>
      </trkpt>
      <trkpt lat="43.39553" lon="0.00358">
        <ele>272</ele>
        <time>2018-06-25T09:09:55.228Z</time>
      </trkpt>
      <trkpt lat="43.39555" lon="0.00358">
        <ele>272</ele>
        <time>2018-06-25T09:09:56.228Z</time>
      </trkpt>
      <trkpt lat="43.39549" lon="0.00426">
        <ele>268</ele>
        <time>2018-06-25T09:09:57.228Z</time>
      </trkpt>
      <trkpt lat="43.39555" lon="0.00499">
        <ele>263</ele>
        <time>2018-06-25T09:09:58.228Z</time>
      </trkpt>
      <trkpt lat="43.39585" lon="0.00629">
        <ele>260</ele>
        <time>2018-06-25T09:09:59.228Z</time>
      </trkpt>
      <trkpt lat="43.39582" lon="0.00673">
        <ele>257</ele>
        <time>2018-06-25T09:10:00.228Z</time>
      </trkpt>
      <trkpt lat="43.39599" lon="0.00805">
        <ele>257</ele>
        <time>2018-06-25T09:10:01.228Z</time>
      </trkpt>
      <trkpt lat="43.39599" lon="0.00832">
        <ele>256</ele>
        <time>2018-06-25T09:10:02.228Z</time>
      </trkpt>
      <trkpt lat="43.39586" lon="0.00907">
        <ele>251</ele>
        <time>2018-06-25T09:10:03.228Z</time>
      </trkpt>
      <trkpt lat="43.39594" lon="0.00968">
        <ele>248</ele>
        <time>2018-06-25T09:10:04.228Z</time>
      </trkpt>
      <trkpt lat="43.39502" lon="0.01362">
        <ele>229</ele>
        <time>2018-06-25T09:10:05.228Z</time>
      </trkpt>
      <trkpt lat="43.39605" lon="0.01523">
        <ele>225</ele>
        <time>2018-06-25T09:10:06.228Z</time>
      </trkpt>
      <trkpt lat="43.3938" lon="0.02027">
        <ele>219</ele>
        <time>2018-06-25T09:10:07.228Z</time>
      </trkpt>
      <trkpt lat="43.39294" lon="0.02072">
        <ele>222</ele>
        <time>2018-06-25T09:10:08.228Z</time>
      </trkpt>
      <trkpt lat="43.39232" lon="0.02111">
        <ele>221</ele>
        <time>2018-06-25T09:10:09.228Z</time>
      </trkpt>
      <trkpt lat="43.39145" lon="0.02068">
        <ele>219</ele>
        <time>2018-06-25T09:10:10.228Z</time>
      </trkpt>
      <trkpt lat="43.3921" lon="0.02308">
        <ele>224</ele>
        <time>2018-06-25T09:10:11.228Z</time>
      </trkpt>
      <trkpt lat="43.39221" lon="0.02374">
        <ele>225</ele>
        <time>2018-06-25T09:10:12.228Z</time>
      </trkpt>
      <trkpt lat="43.39199" lon="0.02368">
        <ele>226</ele>
        <time>2018-06-25T09:10:13.228Z</time>
      </trkpt>
      <trkpt lat="43.39111" lon="0.02322">
        <ele>230</ele>
        <time>2018-06-25T09:10:14.228Z</time>
      </trkpt>
      <trkpt lat="43.3908" lon="0.02311">
        <ele>232</ele>
        <time>2018-06-25T09:10:15.228Z</time>
      </trkpt>
      <trkpt lat="43.39082" lon="0.02306">
        <ele>231</ele>
        <time>2018-06-25T09:10:16.228Z</time>
      </trkpt>
      <trkpt lat="43.39" lon="0.02262">
        <ele>237</ele>
        <time>2018-06-25T09:10:17.228Z</time>
      </trkpt>
      <trkpt lat="43.38988" lon="0.02259">
        <ele>239</ele>
        <time>2018-06-25T09:10:18.228Z</time>
      </trkpt>
      <trkpt lat="43.38989" lon="0.02256">
        <ele>239</ele>
        <time>2018-06-25T09:10:19.228Z</time>
      </trkpt>
      <trkpt lat="43.38956" lon="0.02243">
        <ele>243</ele>
        <time>2018-06-25T09:10:20.228Z</time>
      </trkpt>
      <trkpt lat="43.38914" lon="0.02232">
        <ele>249</ele>
        <time>2018-06-25T09:10:21.228Z</time>
      </trkpt>
      <trkpt lat="43.38912" lon="0.02225">
        <ele>248</ele>
        <time>2018-06-25T09:10:22.228Z</time>
      </trkpt>
      <trkpt lat="43.38913" lon="0.02221">
        <ele>247</ele>
        <time>2018-06-25T09:10:23.228Z</time>
      </trkpt>
      <trkpt lat="43.38904" lon="0.02215">
        <ele>248</ele>
        <time>2018-06-25T09:10:24.228Z</time>
      </trkpt>
      <trkpt lat="43.38887" lon="0.02208">
        <ele>249</ele>
        <time>2018-06-25T09:10:25.228Z</time>
      </trkpt>
      <trkpt lat="43.38865" lon="0.02198">
        <ele>251</ele>
        <time>2018-06-25T09:10:26.228Z</time>
      </trkpt>
      <trkpt lat="43.38866" lon="0.02193">
        <ele>250</ele>
        <time>2018-06-25T09:10:27.228Z</time>
      </trkpt>
      <trkpt lat="43.3884" lon="0.02177">
        <ele>251</ele>
        <time>2018-06-25T09:10:28.228Z</time>
      </trkpt>
      <trkpt lat="43.38809" lon="0.02149">
        <ele>253</ele>
        <time>2018-06-25T09:10:29.228Z</time>
      </trkpt>
      <trkpt lat="43.38791" lon="0.02142">
        <ele>255</ele>
        <time>2018-06-25T09:10:30.228Z</time>
      </trkpt>
      <trkpt lat="43.38746" lon="0.02117">
        <ele>258</ele>
        <time>2018-06-25T09:10:31.228Z</time>
      </trkpt>
      <trkpt lat="43.38726" lon="0.02114">
        <ele>260</ele>
        <time>2018-06-25T09:10:32.228Z</time>
      </trkpt>
      <trkpt lat="43.38684" lon="0.02091">
        <ele>261</ele>
        <time>2018-06-25T09:10:33.228Z</time>
      </trkpt>
      <trkpt lat="43.38624" lon="0.02098">
        <ele>269</ele>
        <time>2018-06-25T09:10:34.228Z</time>
      </trkpt>
      <trkpt lat="43.38565" lon="0.02074">
        <ele>273</ele>
        <time>2018-06-25T09:10:35.228Z</time>
      </trkpt>
      <trkpt lat="43.38522" lon="0.02047">
        <ele>280</ele>
        <time>2018-06-25T09:10:36.228Z</time>
      </trkpt>
      <trkpt lat="43.3852" lon="0.0205">
        <ele>280</ele>
        <time>2018-06-25T09:10:37.228Z</time>
      </trkpt>
      <trkpt lat="43.38509" lon="0.02044">
        <ele>282</ele>
        <time>2018-06-25T09:10:38.228Z</time>
      </trkpt>
      <trkpt lat="43.38511" lon="0.01995">
        <ele>279</ele>
        <time>2018-06-25T09:10:39.228Z</time>
      </trkpt>
      <trkpt lat="43.38512" lon="0.01995">
        <ele>279</ele>
        <time>2018-06-25T09:10:40.228Z</time>
      </trkpt>
      <trkpt lat="43.38512" lon="0.01985">
        <ele>278</ele>
        <time>2018-06-25T09:10:41.228Z</time>
      </trkpt>
      <trkpt lat="43.38502" lon="0.01957">
        <ele>279</ele>
        <time>2018-06-25T09:10:42.228Z</time>
      </trkpt>
      <trkpt lat="43.38498" lon="0.01947">
        <ele>278</ele>
        <time>2018-06-25T09:10:43.228Z</time>
      </trkpt>
      <trkpt lat="43.38467" lon="0.01936">
        <ele>280</ele>
        <time>2018-06-25T09:10:44.228Z</time>
      </trkpt>
      <trkpt lat="43.38438" lon="0.01921">
        <ele>280</ele>
        <time>2018-06-25T09:10:45.228Z</time>
      </trkpt>
      <trkpt lat="43.38437" lon="0.01932">
        <ele>282</ele>
        <time>2018-06-25T09:10:46.228Z</time>
      </trkpt>
      <trkpt lat="43.38388" lon="0.01924">
        <ele>286</ele>
        <time>2018-06-25T09:10:47.228Z</time>
      </trkpt>
      <trkpt lat="43.38379" lon="0.01917">
        <ele>286</ele>
        <time>2018-06-25T09:10:48.228Z</time>
      </trkpt>
      <trkpt lat="43.38374" lon="0.01906">
        <ele>285</ele>
        <time>2018-06-25T09:10:49.228Z</time>
      </trkpt>
      <trkpt lat="43.38356" lon="0.01883">
        <ele>284</ele>
        <time>2018-06-25T09:10:50.228Z</time>
      </trkpt>
      <trkpt lat="43.38338" lon="0.01827">
        <ele>281</ele>
        <time>2018-06-25T09:10:51.228Z</time>
      </trkpt>
      <trkpt lat="43.38318" lon="0.01789">
        <ele>282</ele>
        <time>2018-06-25T09:10:52.228Z</time>
      </trkpt>
      <trkpt lat="43.38311" lon="0.01769">
        <ele>281</ele>
        <time>2018-06-25T09:10:53.228Z</time>
      </trkpt>
      <trkpt lat="43.38302" lon="0.0172">
        <ele>278</ele>
        <time>2018-06-25T09:10:54.228Z</time>
      </trkpt>
      <trkpt lat="43.38296" lon="0.01708">
        <ele>278</ele>
        <time>2018-06-25T09:10:55.228Z</time>
      </trkpt>
      <trkpt lat="43.38264" lon="0.01665">
        <ele>281</ele>
        <time>2018-06-25T09:10:56.228Z</time>
      </trkpt>
      <trkpt lat="43.38253" lon="0.01659">
        <ele>282</ele>
        <time>2018-06-25T09:10:57.228Z</time>
      </trkpt>
      <trkpt lat="43.38213" lon="0.01616">
        <ele>280</ele>
        <time>2018-06-25T09:10:58.228Z</time>
      </trkpt>
      <trkpt lat="43.3819" lon="0.01605">
        <ele>281</ele>
        <time>2018-06-25T09:10:59.228Z</time>
      </trkpt>
      <trkpt lat="43.38141" lon="0.01571">
        <ele>281</ele>
        <time>2018-06-25T09:11:00.228Z</time>
      </trkpt>
      <trkpt lat="43.38085" lon="0.01544">
        <ele>282</ele>
        <time>2018-06-25T09:11:01.228Z</time>
      </trkpt>
      <trkpt lat="43.38052" lon="0.01515">
        <ele>283</ele>
        <time>2018-06-25T09:11:02.228Z</time>
      </trkpt>
      <trkpt lat="43.3803" lon="0.01501">
        <ele>284</ele>
        <time>2018-06-25T09:11:03.228Z</time>
      </trkpt>
      <trkpt lat="43.38006" lon="0.01481">
        <ele>283</ele>
        <time>2018-06-25T09:11:04.228Z</time>
      </trkpt>
      <trkpt lat="43.37964" lon="0.01471">
        <ele>284</ele>
        <time>2018-06-25T09:11:05.228Z</time>
      </trkpt>
      <trkpt lat="43.37928" lon="0.01453">
        <ele>284</ele>
        <time>2018-06-25T09:11:06.228Z</time>
      </trkpt>
      <trkpt lat="43.37885" lon="0.01441">
        <ele>285</ele>
        <time>2018-06-25T09:11:07.228Z</time>
      </trkpt>
      <trkpt lat="43.37876" lon="0.01441">
        <ele>286</ele>
        <time>2018-06-25T09:11:08.228Z</time>
      </trkpt>
      <trkpt lat="43.37875" lon="0.01444">
        <ele>286</ele>
        <time>2018-06-25T09:11:09.228Z</time>
      </trkpt>
      <trkpt lat="43.37844" lon="0.01442">
        <ele>288</ele>
        <time>2018-06-25T09:11:10.228Z</time>
      </trkpt>
      <trkpt lat="43.37837" lon="0.0144">
        <ele>288</ele>
        <time>2018-06-25T09:11:11.228Z</time>
      </trkpt>
      <trkpt lat="43.37824" lon="0.01427">
        <ele>287</ele>
        <time>2018-06-25T09:11:12.228Z</time>
      </trkpt>
      <trkpt lat="43.37803" lon="0.01424">
        <ele>288</ele>
        <time>2018-06-25T09:11:13.228Z</time>
      </trkpt>
      <trkpt lat="43.37762" lon="0.01407">
        <ele>289</ele>
        <time>2018-06-25T09:11:14.228Z</time>
      </trkpt>
      <trkpt lat="43.37728" lon="0.01387">
        <ele>288</ele>
        <time>2018-06-25T09:11:15.228Z</time>
      </trkpt>
      <trkpt lat="43.37719" lon="0.01384">
        <ele>287</ele>
        <time>2018-06-25T09:11:16.228Z</time>
      </trkpt>
      <trkpt lat="43.37708" lon="0.0139">
        <ele>288</ele>
        <time>2018-06-25T09:11:17.228Z</time>
      </trkpt>
      <trkpt lat="43.37686" lon="0.01417">
        <ele>291</ele>
        <time>2018-06-25T09:11:18.228Z</time>
      </trkpt>
      <trkpt lat="43.37686" lon="0.01425">
        <ele>292</ele>
        <time>2018-06-25T09:11:19.228Z</time>
      </trkpt>
      <trkpt lat="43.37672" lon="0.01454">
        <ele>296</ele>
        <time>2018-06-25T09:11:20.228Z</time>
      </trkpt>
      <trkpt lat="43.37643" lon="0.01542">
        <ele>306</ele>
        <time>2018-06-25T09:11:21.228Z</time>
      </trkpt>
      <trkpt lat="43.3763" lon="0.01595">
        <ele>310</ele>
        <time>2018-06-25T09:11:22.228Z</time>
      </trkpt>
      <trkpt lat="43.37618" lon="0.01611">
        <ele>311</ele>
        <time>2018-06-25T09:11:23.228Z</time>
      </trkpt>
      <trkpt lat="43.37607" lon="0.01616">
        <ele>310</ele>
        <time>2018-06-25T09:11:24.228Z</time>
      </trkpt>
      <trkpt lat="43.37596" lon="0.01645">
        <ele>311</ele>
        <time>2018-06-25T09:11:25.228Z</time>
      </trkpt>
      <trkpt lat="43.37587" lon="0.01682">
        <ele>310</ele>
        <time>2018-06-25T09:11:26.228Z</time>
      </trkpt>
      <trkpt lat="43.37584" lon="0.0172">
        <ele>308</ele>
        <time>2018-06-25T09:11:27.228Z</time>
      </trkpt>
      <trkpt lat="43.37589" lon="0.01742">
        <ele>308</ele>
        <time>2018-06-25T09:11:28.228Z</time>
      </trkpt>
      <trkpt lat="43.37587" lon="0.01777">
        <ele>304</ele>
        <time>2018-06-25T09:11:29.228Z</time>
      </trkpt>
      <trkpt lat="43.3758" lon="0.01815">
        <ele>300</ele>
        <time>2018-06-25T09:11:30.228Z</time>
      </trkpt>
      <trkpt lat="43.37571" lon="0.0184">
        <ele>298</ele>
        <time>2018-06-25T09:11:31.228Z</time>
      </trkpt>
      <trkpt lat="43.37556" lon="0.01849">
        <ele>298</ele>
        <time>2018-06-25T09:11:32.228Z</time>
      </trkpt>
      <trkpt lat="43.37525" lon="0.01856">
        <ele>298</ele>
        <time>2018-06-25T09:11:33.228Z</time>
      </trkpt>
      <trkpt lat="43.37509" lon="0.01857">
        <ele>298</ele>
        <time>2018-06-25T09:11:34.228Z</time>
      </trkpt>
      <trkpt lat="43.37472" lon="0.01873">
        <ele>296</ele>
        <time>2018-06-25T09:11:35.228Z</time>
      </trkpt>
      <trkpt lat="43.37461" lon="0.01873">
        <ele>296</ele>
        <time>2018-06-25T09:11:36.228Z</time>
      </trkpt>
      <trkpt lat="43.37455" lon="0.01886">
        <ele>293</ele>
        <time>2018-06-25T09:11:37.228Z</time>
      </trkpt>
      <trkpt lat="43.37434" lon="0.01903">
        <ele>291</ele>
        <time>2018-06-25T09:11:38.228Z</time>
      </trkpt>
      <trkpt lat="43.37394" lon="0.0191">
        <ele>290</ele>
        <time>2018-06-25T09:11:39.228Z</time>
      </trkpt>
      <trkpt lat="43.37379" lon="0.01907">
        <ele>290</ele>
        <time>2018-06-25T09:11:40.228Z</time>
      </trkpt>
      <trkpt lat="43.37365" lon="0.0191">
        <ele>289</ele>
        <time>2018-06-25T09:11:41.228Z</time>
      </trkpt>
      <trkpt lat="43.37342" lon="0.01907">
        <ele>289</ele>
        <time>2018-06-25T09:11:42.228Z</time>
      </trkpt>
      <trkpt lat="43.37327" lon="0.0191">
        <ele>288</ele>
        <time>2018-06-25T09:11:43.228Z</time>
      </trkpt>
      <trkpt lat="43.37309" lon="0.01909">
        <ele>288</ele>
        <time>2018-06-25T09:11:44.228Z</time>
      </trkpt>
      <trkpt lat="43.37264" lon="0.01886">
        <ele>288</ele>
        <time>2018-06-25T09:11:45.228Z</time>
      </trkpt>
      <trkpt lat="43.37253" lon="0.01876">
        <ele>289</ele>
        <time>2018-06-25T09:11:46.228Z</time>
      </trkpt>
      <trkpt lat="43.37226" lon="0.0183">
        <ele>291</ele>
        <time>2018-06-25T09:11:47.228Z</time>
      </trkpt>
      <trkpt lat="43.37137" lon="0.01749">
        <ele>292</ele>
        <time>2018-06-25T09:11:48.228Z</time>
      </trkpt>
      <trkpt lat="43.3701" lon="0.01653">
        <ele>294</ele>
        <time>2018-06-25T09:11:49.228Z</time>
      </trkpt>
      <trkpt lat="43.36998" lon="0.01652">
        <ele>293</ele>
        <time>2018-06-25T09:11:50.228Z</time>
      </trkpt>
      <trkpt lat="43.36966" lon="0.01669">
        <ele>290</ele>
        <time>2018-06-25T09:11:51.228Z</time>
      </trkpt>
      <trkpt lat="43.36954" lon="0.01682">
        <ele>288</ele>
        <time>2018-06-25T09:11:52.228Z</time>
      </trkpt>
      <trkpt lat="43.36935" lon="0.01712">
        <ele>284</ele>
        <time>2018-06-25T09:11:53.228Z</time>
      </trkpt>
      <trkpt lat="43.3693" lon="0.01713">
        <ele>284</ele>
        <time>2018-06-25T09:11:54.228Z</time>
      </trkpt>
      <trkpt lat="43.36924" lon="0.01675">
        <ele>287</ele>
        <time>2018-06-25T09:11:55.228Z</time>
      </trkpt>
      <trkpt lat="43.36912" lon="0.01686">
        <ele>286</ele>
        <time>2018-06-25T09:11:56.228Z</time>
      </trkpt>
      <trkpt lat="43.36906" lon="0.01699">
        <ele>284</ele>
        <time>2018-06-25T09:11:57.228Z</time>
      </trkpt>
      <trkpt lat="43.36908" lon="0.01732">
        <ele>281</ele>
        <time>2018-06-25T09:11:58.228Z</time>
      </trkpt>
      <trkpt lat="43.36915" lon="0.01773">
        <ele>279</ele>
        <time>2018-06-25T09:11:59.228Z</time>
      </trkpt>
      <trkpt lat="43.36906" lon="0.01866">
        <ele>273</ele>
        <time>2018-06-25T09:12:00.228Z</time>
      </trkpt>
      <trkpt lat="43.36897" lon="0.01899">
        <ele>270</ele>
        <time>2018-06-25T09:12:01.228Z</time>
      </trkpt>
      <trkpt lat="43.36897" lon="0.01911">
        <ele>270</ele>
        <time>2018-06-25T09:12:02.228Z</time>
      </trkpt>
      <trkpt lat="43.36901" lon="0.01934">
        <ele>269</ele>
        <time>2018-06-25T09:12:03.228Z</time>
      </trkpt>
      <trkpt lat="43.36901" lon="0.01978">
        <ele>267</ele>
        <time>2018-06-25T09:12:04.228Z</time>
      </trkpt>
      <trkpt lat="43.3691" lon="0.01997">
        <ele>266</ele>
        <time>2018-06-25T09:12:05.228Z</time>
      </trkpt>
      <trkpt lat="43.36917" lon="0.02038">
        <ele>265</ele>
        <time>2018-06-25T09:12:06.228Z</time>
      </trkpt>
      <trkpt lat="43.36914" lon="0.0207">
        <ele>265</ele>
        <time>2018-06-25T09:12:07.228Z</time>
      </trkpt>
      <trkpt lat="43.36917" lon="0.02121">
        <ele>266</ele>
        <time>2018-06-25T09:12:08.228Z</time>
      </trkpt>
      <trkpt lat="43.36928" lon="0.02158">
        <ele>266</ele>
        <time>2018-06-25T09:12:09.228Z</time>
      </trkpt>
      <trkpt lat="43.36936" lon="0.02171">
        <ele>265</ele>
        <time>2018-06-25T09:12:10.228Z</time>
      </trkpt>
      <trkpt lat="43.36951" lon="0.02226">
        <ele>268</ele>
        <time>2018-06-25T09:12:11.228Z</time>
      </trkpt>
      <trkpt lat="43.36966" lon="0.02252">
        <ele>267</ele>
        <time>2018-06-25T09:12:12.228Z</time>
      </trkpt>
      <trkpt lat="43.36973" lon="0.02295">
        <ele>267</ele>
        <time>2018-06-25T09:12:13.228Z</time>
      </trkpt>
      <trkpt lat="43.36961" lon="0.02359">
        <ele>272</ele>
        <time>2018-06-25T09:12:14.228Z</time>
      </trkpt>
      <trkpt lat="43.36954" lon="0.02383">
        <ele>275</ele>
        <time>2018-06-25T09:12:15.228Z</time>
      </trkpt>
      <trkpt lat="43.3697" lon="0.02473">
        <ele>278</ele>
        <time>2018-06-25T09:12:16.228Z</time>
      </trkpt>
      <trkpt lat="43.3699" lon="0.02503">
        <ele>277</ele>
        <time>2018-06-25T09:12:17.228Z</time>
      </trkpt>
      <trkpt lat="43.37016" lon="0.02537">
        <ele>277</ele>
        <time>2018-06-25T09:12:18.228Z</time>
      </trkpt>
      <trkpt lat="43.37039" lon="0.026">
        <ele>281</ele>
        <time>2018-06-25T09:12:19.228Z</time>
      </trkpt>
      <trkpt lat="43.37054" lon="0.02623">
        <ele>280</ele>
        <time>2018-06-25T09:12:20.228Z</time>
      </trkpt>
      <trkpt lat="43.37056" lon="0.02631">
        <ele>280</ele>
        <time>2018-06-25T09:12:21.228Z</time>
      </trkpt>
      <trkpt lat="43.37078" lon="0.02668">
        <ele>281</ele>
        <time>2018-06-25T09:12:22.228Z</time>
      </trkpt>
      <trkpt lat="43.37089" lon="0.02695">
        <ele>280</ele>
        <time>2018-06-25T09:12:23.228Z</time>
      </trkpt>
      <trkpt lat="43.37098" lon="0.02708">
        <ele>279</ele>
        <time>2018-06-25T09:12:24.228Z</time>
      </trkpt>
      <trkpt lat="43.37127" lon="0.02728">
        <ele>280</ele>
        <time>2018-06-25T09:12:25.228Z</time>
      </trkpt>
      <trkpt lat="43.37143" lon="0.02744">
        <ele>281</ele>
        <time>2018-06-25T09:12:26.228Z</time>
      </trkpt>
      <trkpt lat="43.37188" lon="0.02762">
        <ele>282</ele>
        <time>2018-06-25T09:12:27.228Z</time>
      </trkpt>
      <trkpt lat="43.37208" lon="0.02778">
        <ele>282</ele>
        <time>2018-06-25T09:12:28.228Z</time>
      </trkpt>
      <trkpt lat="43.37246" lon="0.02781">
        <ele>283</ele>
        <time>2018-06-25T09:12:29.228Z</time>
      </trkpt>
      <trkpt lat="43.37249" lon="0.02785">
        <ele>283</ele>
        <time>2018-06-25T09:12:30.228Z</time>
      </trkpt>
      <trkpt lat="43.37251" lon="0.02791">
        <ele>283</ele>
        <time>2018-06-25T09:12:31.228Z</time>
      </trkpt>
      <trkpt lat="43.37239" lon="0.02844">
        <ele>286</ele>
        <time>2018-06-25T09:12:32.228Z</time>
      </trkpt>
      <trkpt lat="43.37241" lon="0.02852">
        <ele>286</ele>
        <time>2018-06-25T09:12:33.228Z</time>
      </trkpt>
      <trkpt lat="43.37255" lon="0.02872">
        <ele>286</ele>
        <time>2018-06-25T09:12:34.228Z</time>
      </trkpt>
      <trkpt lat="43.37275" lon="0.02919">
        <ele>286</ele>
        <time>2018-06-25T09:12:35.228Z</time>
      </trkpt>
      <trkpt lat="43.37275" lon="0.02945">
        <ele>283</ele>
        <time>2018-06-25T09:12:36.228Z</time>
      </trkpt>
      <trkpt lat="43.37273" lon="0.0295">
        <ele>283</ele>
        <time>2018-06-25T09:12:37.228Z</time>
      </trkpt>
      <trkpt lat="43.37235" lon="0.02959">
        <ele>279</ele>
        <time>2018-06-25T09:12:38.228Z</time>
      </trkpt>
      <trkpt lat="43.37206" lon="0.02976">
        <ele>273</ele>
        <time>2018-06-25T09:12:39.228Z</time>
      </trkpt>
      <trkpt lat="43.37206" lon="0.02985">
        <ele>272</ele>
        <time>2018-06-25T09:12:40.228Z</time>
      </trkpt>
      <trkpt lat="43.37237" lon="0.03077">
        <ele>264</ele>
        <time>2018-06-25T09:12:41.228Z</time>
      </trkpt>
      <trkpt lat="43.37248" lon="0.03089">
        <ele>264</ele>
        <time>2018-06-25T09:12:42.228Z</time>
      </trkpt>
      <trkpt lat="43.37228" lon="0.03083">
        <ele>262</ele>
        <time>2018-06-25T09:12:43.228Z</time>
      </trkpt>
      <trkpt lat="43.37216" lon="0.03063">
        <ele>264</ele>
        <time>2018-06-25T09:12:44.228Z</time>
      </trkpt>
      <trkpt lat="43.37223" lon="0.03049">
        <ele>266</ele>
        <time>2018-06-25T09:12:45.228Z</time>
      </trkpt>
      <trkpt lat="43.37222" lon="0.03039">
        <ele>268</ele>
        <time>2018-06-25T09:12:46.228Z</time>
      </trkpt>
      <trkpt lat="43.37213" lon="0.03019">
        <ele>269</ele>
        <time>2018-06-25T09:12:47.228Z</time>
      </trkpt>
      <trkpt lat="43.37206" lon="0.02993">
        <ele>271</ele>
        <time>2018-06-25T09:12:48.228Z</time>
      </trkpt>
      <trkpt lat="43.37197" lon="0.02986">
        <ele>271</ele>
        <time>2018-06-25T09:12:49.228Z</time>
      </trkpt>
      <trkpt lat="43.37172" lon="0.02999">
        <ele>266</ele>
        <time>2018-06-25T09:12:50.228Z</time>
      </trkpt>
      <trkpt lat="43.3711" lon="0.02993">
        <ele>258</ele>
        <time>2018-06-25T09:12:51.228Z</time>
      </trkpt>
      <trkpt lat="43.37105" lon="0.03002">
        <ele>257</ele>
        <time>2018-06-25T09:12:52.228Z</time>
      </trkpt>
      <trkpt lat="43.37103" lon="0.03076">
        <ele>249</ele>
        <time>2018-06-25T09:12:53.228Z</time>
      </trkpt>
      <trkpt lat="43.37089" lon="0.03076">
        <ele>247</ele>
        <time>2018-06-25T09:12:54.228Z</time>
      </trkpt>
      <trkpt lat="43.37045" lon="0.03072">
        <ele>246</ele>
        <time>2018-06-25T09:12:55.228Z</time>
      </trkpt>
      <trkpt lat="43.37027" lon="0.03074">
        <ele>245</ele>
        <time>2018-06-25T09:12:56.228Z</time>
      </trkpt>
      <trkpt lat="43.37004" lon="0.03086">
        <ele>244</ele>
        <time>2018-06-25T09:12:57.228Z</time>
      </trkpt>
      <trkpt lat="43.36966" lon="0.03139">
        <ele>240</ele>
        <time>2018-06-25T09:12:58.228Z</time>
      </trkpt>
      <trkpt lat="43.36873" lon="0.03183">
        <ele>236</ele>
        <time>2018-06-25T09:12:59.228Z</time>
      </trkpt>
      <trkpt lat="43.36845" lon="0.03188">
        <ele>236</ele>
        <time>2018-06-25T09:13:00.228Z</time>
      </trkpt>
      <trkpt lat="43.3682" lon="0.03188">
        <ele>235</ele>
        <time>2018-06-25T09:13:01.228Z</time>
      </trkpt>
      <trkpt lat="43.36758" lon="0.03181">
        <ele>236</ele>
        <time>2018-06-25T09:13:02.228Z</time>
      </trkpt>
      <trkpt lat="43.36749" lon="0.03191">
        <ele>235</ele>
        <time>2018-06-25T09:13:03.228Z</time>
      </trkpt>
      <trkpt lat="43.36744" lon="0.03214">
        <ele>234</ele>
        <time>2018-06-25T09:13:04.228Z</time>
      </trkpt>
      <trkpt lat="43.36735" lon="0.03227">
        <ele>233</ele>
        <time>2018-06-25T09:13:05.228Z</time>
      </trkpt>
      <trkpt lat="43.36717" lon="0.03231">
        <ele>232</ele>
        <time>2018-06-25T09:13:06.228Z</time>
      </trkpt>
      <trkpt lat="43.36583" lon="0.03221">
        <ele>234</ele>
        <time>2018-06-25T09:13:07.228Z</time>
      </trkpt>
      <trkpt lat="43.36547" lon="0.03227">
        <ele>234</ele>
        <time>2018-06-25T09:13:08.228Z</time>
      </trkpt>
      <trkpt lat="43.36467" lon="0.03227">
        <ele>235</ele>
        <time>2018-06-25T09:13:09.228Z</time>
      </trkpt>
      <trkpt lat="43.36459" lon="0.03231">
        <ele>235</ele>
        <time>2018-06-25T09:13:10.228Z</time>
      </trkpt>
      <trkpt lat="43.36453" lon="0.03257">
        <ele>234</ele>
        <time>2018-06-25T09:13:11.228Z</time>
      </trkpt>
      <trkpt lat="43.36446" lon="0.03268">
        <ele>234</ele>
        <time>2018-06-25T09:13:12.228Z</time>
      </trkpt>
      <trkpt lat="43.36389" lon="0.03332">
        <ele>234</ele>
        <time>2018-06-25T09:13:13.228Z</time>
      </trkpt>
      <trkpt lat="43.36352" lon="0.03382">
        <ele>234</ele>
        <time>2018-06-25T09:13:14.228Z</time>
      </trkpt>
      <trkpt lat="43.3634" lon="0.03404">
        <ele>233</ele>
        <time>2018-06-25T09:13:15.228Z</time>
      </trkpt>
      <trkpt lat="43.36316" lon="0.03421">
        <ele>233</ele>
        <time>2018-06-25T09:13:16.228Z</time>
      </trkpt>
      <trkpt lat="43.36196" lon="0.03475">
        <ele>233</ele>
        <time>2018-06-25T09:13:17.228Z</time>
      </trkpt>
      <trkpt lat="43.3617" lon="0.03468">
        <ele>234</ele>
        <time>2018-06-25T09:13:18.228Z</time>
      </trkpt>
      <trkpt lat="43.36168" lon="0.03489">
        <ele>234</ele>
        <time>2018-06-25T09:13:19.228Z</time>
      </trkpt>
      <trkpt lat="43.36048" lon="0.03499">
        <ele>234</ele>
        <time>2018-06-25T09:13:20.228Z</time>
      </trkpt>
      <trkpt lat="43.36017" lon="0.03496">
        <ele>234</ele>
        <time>2018-06-25T09:13:21.228Z</time>
      </trkpt>
      <trkpt lat="43.35995" lon="0.03499">
        <ele>234</ele>
        <time>2018-06-25T09:13:22.228Z</time>
      </trkpt>
      <trkpt lat="43.35898" lon="0.03525">
        <ele>234</ele>
        <time>2018-06-25T09:13:23.228Z</time>
      </trkpt>
      <trkpt lat="43.35838" lon="0.03535">
        <ele>235</ele>
        <time>2018-06-25T09:13:24.228Z</time>
      </trkpt>
      <trkpt lat="43.35825" lon="0.03529">
        <ele>235</ele>
        <time>2018-06-25T09:13:25.228Z</time>
      </trkpt>
      <trkpt lat="43.35791" lon="0.03525">
        <ele>237</ele>
        <time>2018-06-25T09:13:26.228Z</time>
      </trkpt>
      <trkpt lat="43.35773" lon="0.03519">
        <ele>237</ele>
        <time>2018-06-25T09:13:27.228Z</time>
      </trkpt>
      <trkpt lat="43.35752" lon="0.03521">
        <ele>239</ele>
        <time>2018-06-25T09:13:28.228Z</time>
      </trkpt>
      <trkpt lat="43.35726" lon="0.03526">
        <ele>241</ele>
        <time>2018-06-25T09:13:29.228Z</time>
      </trkpt>
      <trkpt lat="43.35688" lon="0.03543">
        <ele>247</ele>
        <time>2018-06-25T09:13:30.228Z</time>
      </trkpt>
      <trkpt lat="43.3565" lon="0.0355">
        <ele>252</ele>
        <time>2018-06-25T09:13:31.228Z</time>
      </trkpt>
      <trkpt lat="43.3564" lon="0.03549">
        <ele>253</ele>
        <time>2018-06-25T09:13:32.228Z</time>
      </trkpt>
      <trkpt lat="43.35618" lon="0.03555">
        <ele>257</ele>
        <time>2018-06-25T09:13:33.228Z</time>
      </trkpt>
      <trkpt lat="43.35592" lon="0.03553">
        <ele>260</ele>
        <time>2018-06-25T09:13:34.228Z</time>
      </trkpt>
      <trkpt lat="43.35585" lon="0.03549">
        <ele>260</ele>
        <time>2018-06-25T09:13:35.228Z</time>
      </trkpt>
      <trkpt lat="43.35555" lon="0.03548">
        <ele>266</ele>
        <time>2018-06-25T09:13:36.228Z</time>
      </trkpt>
      <trkpt lat="43.35542" lon="0.03539">
        <ele>268</ele>
        <time>2018-06-25T09:13:37.228Z</time>
      </trkpt>
      <trkpt lat="43.35537" lon="0.03542">
        <ele>269</ele>
        <time>2018-06-25T09:13:38.228Z</time>
      </trkpt>
      <trkpt lat="43.35502" lon="0.03532">
        <ele>276</ele>
        <time>2018-06-25T09:13:39.228Z</time>
      </trkpt>
      <trkpt lat="43.35437" lon="0.03522">
        <ele>281</ele>
        <time>2018-06-25T09:13:40.228Z</time>
      </trkpt>
      <trkpt lat="43.35397" lon="0.03525">
        <ele>284</ele>
        <time>2018-06-25T09:13:41.228Z</time>
      </trkpt>
      <trkpt lat="43.35348" lon="0.03519">
        <ele>288</ele>
        <time>2018-06-25T09:13:42.228Z</time>
      </trkpt>
      <trkpt lat="43.3532" lon="0.03512">
        <ele>292</ele>
        <time>2018-06-25T09:13:43.228Z</time>
      </trkpt>
      <trkpt lat="43.35301" lon="0.03502">
        <ele>295</ele>
        <time>2018-06-25T09:13:44.228Z</time>
      </trkpt>
      <trkpt lat="43.35275" lon="0.03483">
        <ele>297</ele>
        <time>2018-06-25T09:13:45.228Z</time>
      </trkpt>
      <trkpt lat="43.35268" lon="0.03483">
        <ele>298</ele>
        <time>2018-06-25T09:13:46.228Z</time>
      </trkpt>
      <trkpt lat="43.35225" lon="0.03465">
        <ele>300</ele>
        <time>2018-06-25T09:13:47.228Z</time>
      </trkpt>
      <trkpt lat="43.35201" lon="0.03446">
        <ele>300</ele>
        <time>2018-06-25T09:13:48.228Z</time>
      </trkpt>
      <trkpt lat="43.35182" lon="0.03438">
        <ele>301</ele>
        <time>2018-06-25T09:13:49.228Z</time>
      </trkpt>
      <trkpt lat="43.35163" lon="0.03435">
        <ele>301</ele>
        <time>2018-06-25T09:13:50.228Z</time>
      </trkpt>
      <trkpt lat="43.35112" lon="0.03438">
        <ele>304</ele>
        <time>2018-06-25T09:13:51.228Z</time>
      </trkpt>
      <trkpt lat="43.35071" lon="0.03415">
        <ele>306</ele>
        <time>2018-06-25T09:13:52.228Z</time>
      </trkpt>
      <trkpt lat="43.34997" lon="0.03358">
        <ele>308</ele>
        <time>2018-06-25T09:13:53.228Z</time>
      </trkpt>
      <trkpt lat="43.34981" lon="0.03341">
        <ele>308</ele>
        <time>2018-06-25T09:13:54.228Z</time>
      </trkpt>
      <trkpt lat="43.34942" lon="0.03291">
        <ele>308</ele>
        <time>2018-06-25T09:13:55.228Z</time>
      </trkpt>
      <trkpt lat="43.34903" lon="0.03228">
        <ele>309</ele>
        <time>2018-06-25T09:13:56.228Z</time>
      </trkpt>
      <trkpt lat="43.34887" lon="0.03208">
        <ele>308</ele>
        <time>2018-06-25T09:13:57.228Z</time>
      </trkpt>
      <trkpt lat="43.34847" lon="0.0318">
        <ele>307</ele>
        <time>2018-06-25T09:13:58.228Z</time>
      </trkpt>
      <trkpt lat="43.34837" lon="0.03174">
        <ele>307</ele>
        <time>2018-06-25T09:13:59.228Z</time>
      </trkpt>
      <trkpt lat="43.34816" lon="0.0316">
        <ele>306</ele>
        <time>2018-06-25T09:14:00.228Z</time>
      </trkpt>
      <trkpt lat="43.34758" lon="0.03133">
        <ele>306</ele>
        <time>2018-06-25T09:14:01.228Z</time>
      </trkpt>
      <trkpt lat="43.34702" lon="0.03093">
        <ele>310</ele>
        <time>2018-06-25T09:14:02.228Z</time>
      </trkpt>
      <trkpt lat="43.34661" lon="0.03036">
        <ele>315</ele>
        <time>2018-06-25T09:14:03.228Z</time>
      </trkpt>
      <trkpt lat="43.34634" lon="0.03003">
        <ele>320</ele>
        <time>2018-06-25T09:14:04.228Z</time>
      </trkpt>
      <trkpt lat="43.34614" lon="0.02989">
        <ele>323</ele>
        <time>2018-06-25T09:14:05.228Z</time>
      </trkpt>
      <trkpt lat="43.34605" lon="0.02989">
        <ele>323</ele>
        <time>2018-06-25T09:14:06.228Z</time>
      </trkpt>
      <trkpt lat="43.34585" lon="0.02976">
        <ele>326</ele>
        <time>2018-06-25T09:14:07.228Z</time>
      </trkpt>
      <trkpt lat="43.34533" lon="0.02939">
        <ele>327</ele>
        <time>2018-06-25T09:14:08.228Z</time>
      </trkpt>
      <trkpt lat="43.3452" lon="0.02923">
        <ele>329</ele>
        <time>2018-06-25T09:14:09.228Z</time>
      </trkpt>
      <trkpt lat="43.34502" lon="0.02915">
        <ele>331</ele>
        <time>2018-06-25T09:14:10.228Z</time>
      </trkpt>
      <trkpt lat="43.3447" lon="0.02883">
        <ele>331</ele>
        <time>2018-06-25T09:14:11.228Z</time>
      </trkpt>
      <trkpt lat="43.34461" lon="0.02881">
        <ele>331</ele>
        <time>2018-06-25T09:14:12.228Z</time>
      </trkpt>
      <trkpt lat="43.34447" lon="0.02886">
        <ele>332</ele>
        <time>2018-06-25T09:14:13.228Z</time>
      </trkpt>
      <trkpt lat="43.34392" lon="0.02858">
        <ele>334</ele>
        <time>2018-06-25T09:14:14.228Z</time>
      </trkpt>
      <trkpt lat="43.34381" lon="0.02858">
        <ele>334</ele>
        <time>2018-06-25T09:14:15.228Z</time>
      </trkpt>
      <trkpt lat="43.34361" lon="0.02849">
        <ele>335</ele>
        <time>2018-06-25T09:14:16.228Z</time>
      </trkpt>
      <trkpt lat="43.34331" lon="0.02819">
        <ele>337</ele>
        <time>2018-06-25T09:14:17.228Z</time>
      </trkpt>
      <trkpt lat="43.34309" lon="0.02812">
        <ele>338</ele>
        <time>2018-06-25T09:14:18.228Z</time>
      </trkpt>
      <trkpt lat="43.34287" lon="0.02792">
        <ele>338</ele>
        <time>2018-06-25T09:14:19.228Z</time>
      </trkpt>
      <trkpt lat="43.34271" lon="0.02791">
        <ele>338</ele>
        <time>2018-06-25T09:14:20.228Z</time>
      </trkpt>
      <trkpt lat="43.34248" lon="0.02777">
        <ele>339</ele>
        <time>2018-06-25T09:14:21.228Z</time>
      </trkpt>
      <trkpt lat="43.34206" lon="0.02728">
        <ele>340</ele>
        <time>2018-06-25T09:14:22.228Z</time>
      </trkpt>
      <trkpt lat="43.34161" lon="0.02704">
        <ele>342</ele>
        <time>2018-06-25T09:14:23.228Z</time>
      </trkpt>
      <trkpt lat="43.34139" lon="0.02685">
        <ele>342</ele>
        <time>2018-06-25T09:14:24.228Z</time>
      </trkpt>
      <trkpt lat="43.34116" lon="0.02657">
        <ele>342</ele>
        <time>2018-06-25T09:14:25.228Z</time>
      </trkpt>
      <trkpt lat="43.34092" lon="0.0264">
        <ele>343</ele>
        <time>2018-06-25T09:14:26.228Z</time>
      </trkpt>
      <trkpt lat="43.3406" lon="0.02603">
        <ele>343</ele>
        <time>2018-06-25T09:14:27.228Z</time>
      </trkpt>
      <trkpt lat="43.34023" lon="0.0255">
        <ele>343</ele>
        <time>2018-06-25T09:14:28.228Z</time>
      </trkpt>
      <trkpt lat="43.33981" lon="0.0252">
        <ele>344</ele>
        <time>2018-06-25T09:14:29.228Z</time>
      </trkpt>
      <trkpt lat="43.33851" lon="0.02397">
        <ele>344</ele>
        <time>2018-06-25T09:14:30.228Z</time>
      </trkpt>
      <trkpt lat="43.33753" lon="0.02218">
        <ele>341</ele>
        <time>2018-06-25T09:14:31.228Z</time>
      </trkpt>
      <trkpt lat="43.33726" lon="0.02175">
        <ele>341</ele>
        <time>2018-06-25T09:14:32.228Z</time>
      </trkpt>
      <trkpt lat="43.33607" lon="0.02043">
        <ele>343</ele>
        <time>2018-06-25T09:14:33.228Z</time>
      </trkpt>
      <trkpt lat="43.33471" lon="0.01897">
        <ele>342</ele>
        <time>2018-06-25T09:14:34.228Z</time>
      </trkpt>
      <trkpt lat="43.33452" lon="0.01879">
        <ele>342</ele>
        <time>2018-06-25T09:14:35.228Z</time>
      </trkpt>
      <trkpt lat="43.33217" lon="0.01625">
        <ele>339</ele>
        <time>2018-06-25T09:14:36.228Z</time>
      </trkpt>
      <trkpt lat="43.3321" lon="0.01622">
        <ele>339</ele>
        <time>2018-06-25T09:14:37.228Z</time>
      </trkpt>
      <trkpt lat="43.33205" lon="0.01626">
        <ele>339</ele>
        <time>2018-06-25T09:14:38.228Z</time>
      </trkpt>
      <trkpt lat="43.33201" lon="0.01635">
        <ele>340</ele>
        <time>2018-06-25T09:14:39.228Z</time>
      </trkpt>
      <trkpt lat="43.33193" lon="0.01636">
        <ele>340</ele>
        <time>2018-06-25T09:14:40.228Z</time>
      </trkpt>
      <trkpt lat="43.33191" lon="0.01625">
        <ele>340</ele>
        <time>2018-06-25T09:14:41.228Z</time>
      </trkpt>
      <trkpt lat="43.33184" lon="0.01616">
        <ele>340</ele>
        <time>2018-06-25T09:14:42.228Z</time>
      </trkpt>
      <trkpt lat="43.33137" lon="0.01581">
        <ele>343</ele>
        <time>2018-06-25T09:14:43.228Z</time>
      </trkpt>
      <trkpt lat="43.33119" lon="0.01562">
        <ele>343</ele>
        <time>2018-06-25T09:14:44.228Z</time>
      </trkpt>
      <trkpt lat="43.33084" lon="0.01512">
        <ele>344</ele>
        <time>2018-06-25T09:14:45.228Z</time>
      </trkpt>
      <trkpt lat="43.33058" lon="0.01494">
        <ele>345</ele>
        <time>2018-06-25T09:14:46.228Z</time>
      </trkpt>
      <trkpt lat="43.33036" lon="0.01468">
        <ele>343</ele>
        <time>2018-06-25T09:14:47.228Z</time>
      </trkpt>
      <trkpt lat="43.32933" lon="0.01397">
        <ele>344</ele>
        <time>2018-06-25T09:14:48.228Z</time>
      </trkpt>
      <trkpt lat="43.32834" lon="0.0132">
        <ele>344</ele>
        <time>2018-06-25T09:14:49.228Z</time>
      </trkpt>
      <trkpt lat="43.3278" lon="0.01281">
        <ele>343</ele>
        <time>2018-06-25T09:14:50.228Z</time>
      </trkpt>
      <trkpt lat="43.32747" lon="0.0125">
        <ele>343</ele>
        <time>2018-06-25T09:14:51.228Z</time>
      </trkpt>
      <trkpt lat="43.32632" lon="0.01122">
        <ele>340</ele>
        <time>2018-06-25T09:14:52.228Z</time>
      </trkpt>
      <trkpt lat="43.32582" lon="0.01069">
        <ele>337</ele>
        <time>2018-06-25T09:14:53.228Z</time>
      </trkpt>
      <trkpt lat="43.32509" lon="0.00988">
        <ele>339</ele>
        <time>2018-06-25T09:14:54.228Z</time>
      </trkpt>
      <trkpt lat="43.32509" lon="0.00981">
        <ele>339</ele>
        <time>2018-06-25T09:14:55.228Z</time>
      </trkpt>
      <trkpt lat="43.32513" lon="0.00935">
        <ele>339</ele>
        <time>2018-06-25T09:14:56.228Z</time>
      </trkpt>
      <trkpt lat="43.32511" lon="0.00911">
        <ele>339</ele>
        <time>2018-06-25T09:14:57.228Z</time>
      </trkpt>
      <trkpt lat="43.32502" lon="0.00888">
        <ele>339</ele>
        <time>2018-06-25T09:14:58.228Z</time>
      </trkpt>
      <trkpt lat="43.32374" lon="0.00666">
        <ele>345</ele>
        <time>2018-06-25T09:14:59.228Z</time>
      </trkpt>
      <trkpt lat="43.32366" lon="0.00663">
        <ele>345</ele>
        <time>2018-06-25T09:15:00.228Z</time>
      </trkpt>
      <trkpt lat="43.3235" lon="0.00663">
        <ele>347</ele>
        <time>2018-06-25T09:15:01.228Z</time>
      </trkpt>
      <trkpt lat="43.32338" lon="0.0067">
        <ele>348</ele>
        <time>2018-06-25T09:15:02.228Z</time>
      </trkpt>
      <trkpt lat="43.32343" lon="0.00666">
        <ele>347</ele>
        <time>2018-06-25T09:15:03.228Z</time>
      </trkpt>
      <trkpt lat="43.32343" lon="0.0066">
        <ele>347</ele>
        <time>2018-06-25T09:15:04.228Z</time>
      </trkpt>
      <trkpt lat="43.32304" lon="0.00633">
        <ele>349</ele>
        <time>2018-06-25T09:15:05.228Z</time>
      </trkpt>
      <trkpt lat="43.3222" lon="0.00585">
        <ele>353</ele>
        <time>2018-06-25T09:15:06.228Z</time>
      </trkpt>
      <trkpt lat="43.32165" lon="0.00576">
        <ele>356</ele>
        <time>2018-06-25T09:15:07.228Z</time>
      </trkpt>
      <trkpt lat="43.32013" lon="0.00572">
        <ele>353</ele>
        <time>2018-06-25T09:15:08.228Z</time>
      </trkpt>
      <trkpt lat="43.31986" lon="0.00566">
        <ele>352</ele>
        <time>2018-06-25T09:15:09.228Z</time>
      </trkpt>
      <trkpt lat="43.31933" lon="0.00566">
        <ele>354</ele>
        <time>2018-06-25T09:15:10.228Z</time>
      </trkpt>
      <trkpt lat="43.31915" lon="0.00557">
        <ele>354</ele>
        <time>2018-06-25T09:15:11.228Z</time>
      </trkpt>
      <trkpt lat="43.3183" lon="0.00505">
        <ele>355</ele>
        <time>2018-06-25T09:15:12.228Z</time>
      </trkpt>
      <trkpt lat="43.31733" lon="0.00398">
        <ele>354</ele>
        <time>2018-06-25T09:15:13.228Z</time>
      </trkpt>
      <trkpt lat="43.31711" lon="0.00378">
        <ele>353</ele>
        <time>2018-06-25T09:15:14.228Z</time>
      </trkpt>
      <trkpt lat="43.31677" lon="0.00335">
        <ele>353</ele>
        <time>2018-06-25T09:15:15.228Z</time>
      </trkpt>
      <trkpt lat="43.31667" lon="0.00314">
        <ele>353</ele>
        <time>2018-06-25T09:15:16.228Z</time>
      </trkpt>
      <trkpt lat="43.31659" lon="0.00288">
        <ele>353</ele>
        <time>2018-06-25T09:15:17.228Z</time>
      </trkpt>
      <trkpt lat="43.31628" lon="0.00228">
        <ele>351</ele>
        <time>2018-06-25T09:15:18.228Z</time>
      </trkpt>
      <trkpt lat="43.31569" lon="0.00127">
        <ele>351</ele>
        <time>2018-06-25T09:15:19.228Z</time>
      </trkpt>
      <trkpt lat="43.3154" lon="0.0001">
        <ele>349</ele>
        <time>2018-06-25T09:15:20.228Z</time>
      </trkpt>
      <trkpt lat="43.31533" lon="0.00027">
        <ele>349</ele>
        <time>2018-06-25T09:15:21.228Z</time>
      </trkpt>
      <trkpt lat="43.31534" lon="0.00053">
        <ele>349</ele>
        <time>2018-06-25T09:15:22.228Z</time>
      </trkpt>
      <trkpt lat="43.3152" lon="0.00086">
        <ele>349</ele>
        <time>2018-06-25T09:15:23.228Z</time>
      </trkpt>
      <trkpt lat="43.31509" lon="0.00087">
        <ele>348</ele>
        <time>2018-06-25T09:15:24.228Z</time>
      </trkpt>
      <trkpt lat="43.31502" lon="0.00091">
        <ele>348</ele>
        <time>2018-06-25T09:15:25.228Z</time>
      </trkpt>
      <trkpt lat="43.31491" lon="0.00123">
        <ele>346</ele>
        <time>2018-06-25T09:15:26.228Z</time>
      </trkpt>
      <trkpt lat="43.31482" lon="0.0013">
        <ele>345</ele>
        <time>2018-06-25T09:15:27.228Z</time>
      </trkpt>
      <trkpt lat="43.31475" lon="0.00158">
        <ele>344</ele>
        <time>2018-06-25T09:15:28.228Z</time>
      </trkpt>
      <trkpt lat="43.31468" lon="0.0018">
        <ele>342</ele>
        <time>2018-06-25T09:15:29.228Z</time>
      </trkpt>
      <trkpt lat="43.3145" lon="0.00214">
        <ele>339</ele>
        <time>2018-06-25T09:15:30.228Z</time>
      </trkpt>
      <trkpt lat="43.31446" lon="0.00225">
        <ele>338</ele>
        <time>2018-06-25T09:15:31.228Z</time>
      </trkpt>
      <trkpt lat="43.31443" lon="0.00264">
        <ele>336</ele>
        <time>2018-06-25T09:15:32.228Z</time>
      </trkpt>
      <trkpt lat="43.31434" lon="0.00294">
        <ele>332</ele>
        <time>2018-06-25T09:15:33.228Z</time>
      </trkpt>
      <trkpt lat="43.31419" lon="0.00315">
        <ele>328</ele>
        <time>2018-06-25T09:15:34.228Z</time>
      </trkpt>
      <trkpt lat="43.31404" lon="0.00318">
        <ele>325</ele>
        <time>2018-06-25T09:15:35.228Z</time>
      </trkpt>
      <trkpt lat="43.31392" lon="0.00329">
        <ele>322</ele>
        <time>2018-06-25T09:15:36.228Z</time>
      </trkpt>
      <trkpt lat="43.31386" lon="0.00339">
        <ele>320</ele>
        <time>2018-06-25T09:15:37.228Z</time>
      </trkpt>
      <trkpt lat="43.3138" lon="0.00385">
        <ele>316</ele>
        <time>2018-06-25T09:15:38.228Z</time>
      </trkpt>
      <trkpt lat="43.31381" lon="0.00402">
        <ele>314</ele>
        <time>2018-06-25T09:15:39.228Z</time>
      </trkpt>
      <trkpt lat="43.31375" lon="0.00426">
        <ele>312</ele>
        <time>2018-06-25T09:15:40.228Z</time>
      </trkpt>
      <trkpt lat="43.31365" lon="0.00435">
        <ele>310</ele>
        <time>2018-06-25T09:15:41.228Z</time>
      </trkpt>
      <trkpt lat="43.31362" lon="0.00449">
        <ele>308</ele>
        <time>2018-06-25T09:15:42.228Z</time>
      </trkpt>
      <trkpt lat="43.31358" lon="0.00515">
        <ele>302</ele>
        <time>2018-06-25T09:15:43.228Z</time>
      </trkpt>
      <trkpt lat="43.31348" lon="0.00538">
        <ele>299</ele>
        <time>2018-06-25T09:15:44.228Z</time>
      </trkpt>
      <trkpt lat="43.3132" lon="0.00582">
        <ele>292</ele>
        <time>2018-06-25T09:15:45.228Z</time>
      </trkpt>
      <trkpt lat="43.31309" lon="0.00612">
        <ele>289</ele>
        <time>2018-06-25T09:15:46.228Z</time>
      </trkpt>
      <trkpt lat="43.31302" lon="0.00622">
        <ele>288</ele>
        <time>2018-06-25T09:15:47.228Z</time>
      </trkpt>
      <trkpt lat="43.31289" lon="0.00653">
        <ele>284</ele>
        <time>2018-06-25T09:15:48.228Z</time>
      </trkpt>
      <trkpt lat="43.31285" lon="0.00659">
        <ele>284</ele>
        <time>2018-06-25T09:15:49.228Z</time>
      </trkpt>
      <trkpt lat="43.31278" lon="0.00657">
        <ele>284</ele>
        <time>2018-06-25T09:15:50.228Z</time>
      </trkpt>
      <trkpt lat="43.31171" lon="0.00538">
        <ele>283</ele>
        <time>2018-06-25T09:15:51.228Z</time>
      </trkpt>
      <trkpt lat="43.31124" lon="0.00499">
        <ele>283</ele>
        <time>2018-06-25T09:15:52.228Z</time>
      </trkpt>
      <trkpt lat="43.31114" lon="0.00488">
        <ele>283</ele>
        <time>2018-06-25T09:15:53.228Z</time>
      </trkpt>
      <trkpt lat="43.31094" lon="0.00452">
        <ele>284</ele>
        <time>2018-06-25T09:15:54.228Z</time>
      </trkpt>
      <trkpt lat="43.31078" lon="0.00445">
        <ele>284</ele>
        <time>2018-06-25T09:15:55.228Z</time>
      </trkpt>
      <trkpt lat="43.31034" lon="0.00418">
        <ele>284</ele>
        <time>2018-06-25T09:15:56.228Z</time>
      </trkpt>
      <trkpt lat="43.31012" lon="0.00406">
        <ele>284</ele>
        <time>2018-06-25T09:15:57.228Z</time>
      </trkpt>
      <trkpt lat="43.30966" lon="0.00378">
        <ele>283</ele>
        <time>2018-06-25T09:15:58.228Z</time>
      </trkpt>
      <trkpt lat="43.30939" lon="0.00354">
        <ele>282</ele>
        <time>2018-06-25T09:15:59.228Z</time>
      </trkpt>
      <trkpt lat="43.30893" lon="0.00298">
        <ele>283</ele>
        <time>2018-06-25T09:16:00.228Z</time>
      </trkpt>
      <trkpt lat="43.30868" lon="0.00275">
        <ele>283</ele>
        <time>2018-06-25T09:16:01.228Z</time>
      </trkpt>
      <trkpt lat="43.30851" lon="0.00252">
        <ele>283</ele>
        <time>2018-06-25T09:16:02.228Z</time>
      </trkpt>
      <trkpt lat="43.308" lon="0.00168">
        <ele>285</ele>
        <time>2018-06-25T09:16:03.228Z</time>
      </trkpt>
      <trkpt lat="43.3078" lon="0.00151">
        <ele>286</ele>
        <time>2018-06-25T09:16:04.228Z</time>
      </trkpt>
      <trkpt lat="43.3064" lon="0.00056">
        <ele>291</ele>
        <time>2018-06-25T09:16:05.228Z</time>
      </trkpt>
      <trkpt lat="43.30596" lon="0.00017">
        <ele>293</ele>
        <time>2018-06-25T09:16:06.228Z</time>
      </trkpt>
      <trkpt lat="43.30565" lon="-0.0002">
        <ele>296</ele>
        <time>2018-06-25T09:16:07.228Z</time>
      </trkpt>
      <trkpt lat="43.3056" lon="-0.00031">
        <ele>297</ele>
        <time>2018-06-25T09:16:08.228Z</time>
      </trkpt>
      <trkpt lat="43.30528" lon="-0.00055">
        <ele>298</ele>
        <time>2018-06-25T09:16:09.228Z</time>
      </trkpt>
      <trkpt lat="43.3052" lon="-0.00068">
        <ele>299</ele>
        <time>2018-06-25T09:16:10.228Z</time>
      </trkpt>
      <trkpt lat="43.3052" lon="-0.00085">
        <ele>301</ele>
        <time>2018-06-25T09:16:11.228Z</time>
      </trkpt>
      <trkpt lat="43.30528" lon="-0.00105">
        <ele>304</ele>
        <time>2018-06-25T09:16:12.228Z</time>
      </trkpt>
      <trkpt lat="43.30531" lon="-0.00127">
        <ele>307</ele>
        <time>2018-06-25T09:16:13.228Z</time>
      </trkpt>
      <trkpt lat="43.30529" lon="-0.00137">
        <ele>308</ele>
        <time>2018-06-25T09:16:14.228Z</time>
      </trkpt>
      <trkpt lat="43.3052" lon="-0.00145">
        <ele>308</ele>
        <time>2018-06-25T09:16:15.228Z</time>
      </trkpt>
      <trkpt lat="43.30498" lon="-0.0014">
        <ele>305</ele>
        <time>2018-06-25T09:16:16.228Z</time>
      </trkpt>
      <trkpt lat="43.30475" lon="-0.0015">
        <ele>305</ele>
        <time>2018-06-25T09:16:17.228Z</time>
      </trkpt>
      <trkpt lat="43.30471" lon="-0.00147">
        <ele>304</ele>
        <time>2018-06-25T09:16:18.228Z</time>
      </trkpt>
      <trkpt lat="43.30413" lon="-0.00018">
        <ele>293</ele>
        <time>2018-06-25T09:16:19.228Z</time>
      </trkpt>
      <trkpt lat="43.30323" lon="0.002">
        <ele>286</ele>
        <time>2018-06-25T09:16:20.228Z</time>
      </trkpt>
      <trkpt lat="43.30301" lon="0.00207">
        <ele>286</ele>
        <time>2018-06-25T09:16:21.228Z</time>
      </trkpt>
      <trkpt lat="43.30274" lon="0.00211">
        <ele>287</ele>
        <time>2018-06-25T09:16:22.228Z</time>
      </trkpt>
      <trkpt lat="43.30266" lon="0.00215">
        <ele>287</ele>
        <time>2018-06-25T09:16:23.228Z</time>
      </trkpt>
      <trkpt lat="43.30256" lon="0.0023">
        <ele>287</ele>
        <time>2018-06-25T09:16:24.228Z</time>
      </trkpt>
      <trkpt lat="43.30251" lon="0.00247">
        <ele>287</ele>
        <time>2018-06-25T09:16:25.228Z</time>
      </trkpt>
      <trkpt lat="43.30251" lon="0.00271">
        <ele>287</ele>
        <time>2018-06-25T09:16:26.228Z</time>
      </trkpt>
      <trkpt lat="43.30233" lon="0.00348">
        <ele>287</ele>
        <time>2018-06-25T09:16:27.228Z</time>
      </trkpt>
      <trkpt lat="43.30229" lon="0.00358">
        <ele>287</ele>
        <time>2018-06-25T09:16:28.228Z</time>
      </trkpt>
      <trkpt lat="43.30224" lon="0.00375">
        <ele>287</ele>
        <time>2018-06-25T09:16:29.228Z</time>
      </trkpt>
      <trkpt lat="43.30225" lon="0.00386">
        <ele>287</ele>
        <time>2018-06-25T09:16:30.228Z</time>
      </trkpt>
      <trkpt lat="43.30218" lon="0.00398">
        <ele>287</ele>
        <time>2018-06-25T09:16:31.228Z</time>
      </trkpt>
      <trkpt lat="43.30202" lon="0.00402">
        <ele>286</ele>
        <time>2018-06-25T09:16:32.228Z</time>
      </trkpt>
      <trkpt lat="43.30166" lon="0.00396">
        <ele>285</ele>
        <time>2018-06-25T09:16:33.228Z</time>
      </trkpt>
      <trkpt lat="43.30141" lon="0.00402">
        <ele>285</ele>
        <time>2018-06-25T09:16:34.228Z</time>
      </trkpt>
      <trkpt lat="43.30113" lon="0.00391">
        <ele>285</ele>
        <time>2018-06-25T09:16:35.228Z</time>
      </trkpt>
      <trkpt lat="43.30045" lon="0.00345">
        <ele>285</ele>
        <time>2018-06-25T09:16:36.228Z</time>
      </trkpt>
      <trkpt lat="43.3004" lon="0.00347">
        <ele>285</ele>
        <time>2018-06-25T09:16:37.228Z</time>
      </trkpt>
      <trkpt lat="43.30036" lon="0.00351">
        <ele>285</ele>
        <time>2018-06-25T09:16:38.228Z</time>
      </trkpt>
      <trkpt lat="43.30026" lon="0.00389">
        <ele>286</ele>
        <time>2018-06-25T09:16:39.228Z</time>
      </trkpt>
      <trkpt lat="43.30017" lon="0.00405">
        <ele>287</ele>
        <time>2018-06-25T09:16:40.228Z</time>
      </trkpt>
      <trkpt lat="43.29987" lon="0.00486">
        <ele>287</ele>
        <time>2018-06-25T09:16:41.228Z</time>
      </trkpt>
      <trkpt lat="43.29981" lon="0.00528">
        <ele>289</ele>
        <time>2018-06-25T09:16:42.228Z</time>
      </trkpt>
      <trkpt lat="43.29964" lon="0.00577">
        <ele>295</ele>
        <time>2018-06-25T09:16:43.228Z</time>
      </trkpt>
      <trkpt lat="43.29948" lon="0.00589">
        <ele>299</ele>
        <time>2018-06-25T09:16:44.228Z</time>
      </trkpt>
      <trkpt lat="43.29854" lon="0.00586">
        <ele>309</ele>
        <time>2018-06-25T09:16:45.228Z</time>
      </trkpt>
      <trkpt lat="43.29825" lon="0.00567">
        <ele>308</ele>
        <time>2018-06-25T09:16:46.228Z</time>
      </trkpt>
      <trkpt lat="43.29727" lon="0.00559">
        <ele>307</ele>
        <time>2018-06-25T09:16:47.228Z</time>
      </trkpt>
      <trkpt lat="43.2972" lon="0.00563">
        <ele>307</ele>
        <time>2018-06-25T09:16:48.228Z</time>
      </trkpt>
      <trkpt lat="43.29709" lon="0.00576">
        <ele>309</ele>
        <time>2018-06-25T09:16:49.228Z</time>
      </trkpt>
      <trkpt lat="43.29704" lon="0.00595">
        <ele>312</ele>
        <time>2018-06-25T09:16:50.228Z</time>
      </trkpt>
      <trkpt lat="43.29699" lon="0.00602">
        <ele>313</ele>
        <time>2018-06-25T09:16:51.228Z</time>
      </trkpt>
      <trkpt lat="43.29681" lon="0.00603">
        <ele>313</ele>
        <time>2018-06-25T09:16:52.228Z</time>
      </trkpt>
      <trkpt lat="43.29655" lon="0.00592">
        <ele>311</ele>
        <time>2018-06-25T09:16:53.228Z</time>
      </trkpt>
      <trkpt lat="43.29601" lon="0.00573">
        <ele>311</ele>
        <time>2018-06-25T09:16:54.228Z</time>
      </trkpt>
      <trkpt lat="43.29565" lon="0.00555">
        <ele>310</ele>
        <time>2018-06-25T09:16:55.228Z</time>
      </trkpt>
      <trkpt lat="43.29554" lon="0.00555">
        <ele>311</ele>
        <time>2018-06-25T09:16:56.228Z</time>
      </trkpt>
      <trkpt lat="43.29541" lon="0.00549">
        <ele>312</ele>
        <time>2018-06-25T09:16:57.228Z</time>
      </trkpt>
      <trkpt lat="43.29525" lon="0.00556">
        <ele>315</ele>
        <time>2018-06-25T09:16:58.228Z</time>
      </trkpt>
      <trkpt lat="43.29477" lon="0.00553">
        <ele>317</ele>
        <time>2018-06-25T09:16:59.228Z</time>
      </trkpt>
      <trkpt lat="43.29456" lon="0.00559">
        <ele>319</ele>
        <time>2018-06-25T09:17:00.228Z</time>
      </trkpt>
      <trkpt lat="43.29439" lon="0.0057">
        <ele>321</ele>
        <time>2018-06-25T09:17:01.228Z</time>
      </trkpt>
      <trkpt lat="43.29426" lon="0.00576">
        <ele>322</ele>
        <time>2018-06-25T09:17:02.228Z</time>
      </trkpt>
      <trkpt lat="43.29408" lon="0.00593">
        <ele>325</ele>
        <time>2018-06-25T09:17:03.228Z</time>
      </trkpt>
      <trkpt lat="43.29361" lon="0.00616">
        <ele>326</ele>
        <time>2018-06-25T09:17:04.228Z</time>
      </trkpt>
      <trkpt lat="43.29348" lon="0.00637">
        <ele>329</ele>
        <time>2018-06-25T09:17:05.228Z</time>
      </trkpt>
      <trkpt lat="43.29299" lon="0.00887">
        <ele>357</ele>
        <time>2018-06-25T09:17:06.228Z</time>
      </trkpt>
      <trkpt lat="43.29298" lon="0.00908">
        <ele>358</ele>
        <time>2018-06-25T09:17:07.228Z</time>
      </trkpt>
      <trkpt lat="43.29282" lon="0.00948">
        <ele>359</ele>
        <time>2018-06-25T09:17:08.228Z</time>
      </trkpt>
      <trkpt lat="43.29274" lon="0.01005">
        <ele>361</ele>
        <time>2018-06-25T09:17:09.228Z</time>
      </trkpt>
      <trkpt lat="43.29267" lon="0.01018">
        <ele>361</ele>
        <time>2018-06-25T09:17:10.228Z</time>
      </trkpt>
      <trkpt lat="43.29256" lon="0.01024">
        <ele>362</ele>
        <time>2018-06-25T09:17:11.228Z</time>
      </trkpt>
      <trkpt lat="43.29233" lon="0.01024">
        <ele>364</ele>
        <time>2018-06-25T09:17:12.228Z</time>
      </trkpt>
      <trkpt lat="43.29157" lon="0.01012">
        <ele>372</ele>
        <time>2018-06-25T09:17:13.228Z</time>
      </trkpt>
      <trkpt lat="43.29112" lon="0.00968">
        <ele>373</ele>
        <time>2018-06-25T09:17:14.228Z</time>
      </trkpt>
      <trkpt lat="43.2907" lon="0.00938">
        <ele>376</ele>
        <time>2018-06-25T09:17:15.228Z</time>
      </trkpt>
      <trkpt lat="43.2904" lon="0.00914">
        <ele>376</ele>
        <time>2018-06-25T09:17:16.228Z</time>
      </trkpt>
      <trkpt lat="43.29027" lon="0.00904">
        <ele>376</ele>
        <time>2018-06-25T09:17:17.228Z</time>
      </trkpt>
      <trkpt lat="43.28987" lon="0.00871">
        <ele>376</ele>
        <time>2018-06-25T09:17:18.228Z</time>
      </trkpt>
      <trkpt lat="43.28973" lon="0.00862">
        <ele>375</ele>
        <time>2018-06-25T09:17:19.228Z</time>
      </trkpt>
      <trkpt lat="43.28969" lon="0.00854">
        <ele>375</ele>
        <time>2018-06-25T09:17:20.228Z</time>
      </trkpt>
      <trkpt lat="43.28931" lon="0.00821">
        <ele>375</ele>
        <time>2018-06-25T09:17:21.228Z</time>
      </trkpt>
      <trkpt lat="43.28911" lon="0.00807">
        <ele>375</ele>
        <time>2018-06-25T09:17:22.228Z</time>
      </trkpt>
      <trkpt lat="43.28872" lon="0.00788">
        <ele>374</ele>
        <time>2018-06-25T09:17:23.228Z</time>
      </trkpt>
      <trkpt lat="43.28807" lon="0.00768">
        <ele>373</ele>
        <time>2018-06-25T09:17:24.228Z</time>
      </trkpt>
      <trkpt lat="43.28758" lon="0.0074">
        <ele>372</ele>
        <time>2018-06-25T09:17:25.228Z</time>
      </trkpt>
      <trkpt lat="43.28704" lon="0.00723">
        <ele>374</ele>
        <time>2018-06-25T09:17:26.228Z</time>
      </trkpt>
      <trkpt lat="43.28694" lon="0.00723">
        <ele>375</ele>
        <time>2018-06-25T09:17:27.228Z</time>
      </trkpt>
      <trkpt lat="43.28672" lon="0.00713">
        <ele>376</ele>
        <time>2018-06-25T09:17:28.228Z</time>
      </trkpt>
      <trkpt lat="43.28657" lon="0.00711">
        <ele>377</ele>
        <time>2018-06-25T09:17:29.228Z</time>
      </trkpt>
      <trkpt lat="43.28607" lon="0.0069">
        <ele>378</ele>
        <time>2018-06-25T09:17:30.228Z</time>
      </trkpt>
      <trkpt lat="43.28577" lon="0.00683">
        <ele>378</ele>
        <time>2018-06-25T09:17:31.228Z</time>
      </trkpt>
      <trkpt lat="43.28546" lon="0.00683">
        <ele>376</ele>
        <time>2018-06-25T09:17:32.228Z</time>
      </trkpt>
      <trkpt lat="43.28525" lon="0.00693">
        <ele>375</ele>
        <time>2018-06-25T09:17:33.228Z</time>
      </trkpt>
      <trkpt lat="43.28507" lon="0.00709">
        <ele>375</ele>
        <time>2018-06-25T09:17:34.228Z</time>
      </trkpt>
      <trkpt lat="43.28489" lon="0.0072">
        <ele>375</ele>
        <time>2018-06-25T09:17:35.228Z</time>
      </trkpt>
      <trkpt lat="43.2847" lon="0.0072">
        <ele>376</ele>
        <time>2018-06-25T09:17:36.228Z</time>
      </trkpt>
      <trkpt lat="43.28439" lon="0.007">
        <ele>377</ele>
        <time>2018-06-25T09:17:37.228Z</time>
      </trkpt>
      <trkpt lat="43.28428" lon="0.00697">
        <ele>378</ele>
        <time>2018-06-25T09:17:38.228Z</time>
      </trkpt>
      <trkpt lat="43.28419" lon="0.00687">
        <ele>378</ele>
        <time>2018-06-25T09:17:39.228Z</time>
      </trkpt>
      <trkpt lat="43.28399" lon="0.00674">
        <ele>378</ele>
        <time>2018-06-25T09:17:40.228Z</time>
      </trkpt>
      <trkpt lat="43.28361" lon="0.00642">
        <ele>378</ele>
        <time>2018-06-25T09:17:41.228Z</time>
      </trkpt>
      <trkpt lat="43.28341" lon="0.0062">
        <ele>379</ele>
        <time>2018-06-25T09:17:42.228Z</time>
      </trkpt>
      <trkpt lat="43.28285" lon="0.00576">
        <ele>379</ele>
        <time>2018-06-25T09:17:43.228Z</time>
      </trkpt>
      <trkpt lat="43.28224" lon="0.00546">
        <ele>379</ele>
        <time>2018-06-25T09:17:44.228Z</time>
      </trkpt>
      <trkpt lat="43.28168" lon="0.00496">
        <ele>376</ele>
        <time>2018-06-25T09:17:45.228Z</time>
      </trkpt>
      <trkpt lat="43.28165" lon="0.00488">
        <ele>376</ele>
        <time>2018-06-25T09:17:46.228Z</time>
      </trkpt>
      <trkpt lat="43.28182" lon="0.00448">
        <ele>375</ele>
        <time>2018-06-25T09:17:47.228Z</time>
      </trkpt>
      <trkpt lat="43.2818" lon="0.00432">
        <ele>374</ele>
        <time>2018-06-25T09:17:48.228Z</time>
      </trkpt>
      <trkpt lat="43.28177" lon="0.00429">
        <ele>374</ele>
        <time>2018-06-25T09:17:49.228Z</time>
      </trkpt>
      <trkpt lat="43.28124" lon="0.00446">
        <ele>374</ele>
        <time>2018-06-25T09:17:50.228Z</time>
      </trkpt>
      <trkpt lat="43.28113" lon="0.00453">
        <ele>374</ele>
        <time>2018-06-25T09:17:51.228Z</time>
      </trkpt>
      <trkpt lat="43.28077" lon="0.00465">
        <ele>374</ele>
        <time>2018-06-25T09:17:52.228Z</time>
      </trkpt>
      <trkpt lat="43.28036" lon="0.00486">
        <ele>377</ele>
        <time>2018-06-25T09:17:53.228Z</time>
      </trkpt>
      <trkpt lat="43.28021" lon="0.00499">
        <ele>379</ele>
        <time>2018-06-25T09:17:54.228Z</time>
      </trkpt>
      <trkpt lat="43.27996" lon="0.00528">
        <ele>382</ele>
        <time>2018-06-25T09:17:55.228Z</time>
      </trkpt>
      <trkpt lat="43.27989" lon="0.00533">
        <ele>382</ele>
        <time>2018-06-25T09:17:56.228Z</time>
      </trkpt>
      <trkpt lat="43.27905" lon="0.00515">
        <ele>384</ele>
        <time>2018-06-25T09:17:57.228Z</time>
      </trkpt>
      <trkpt lat="43.27798" lon="0.00472">
        <ele>383</ele>
        <time>2018-06-25T09:17:58.228Z</time>
      </trkpt>
      <trkpt lat="43.27742" lon="0.00442">
        <ele>383</ele>
        <time>2018-06-25T09:17:59.228Z</time>
      </trkpt>
      <trkpt lat="43.27709" lon="0.00429">
        <ele>383</ele>
        <time>2018-06-25T09:18:00.228Z</time>
      </trkpt>
      <trkpt lat="43.2763" lon="0.00388">
        <ele>382</ele>
        <time>2018-06-25T09:18:01.228Z</time>
      </trkpt>
      <trkpt lat="43.27597" lon="0.00375">
        <ele>382</ele>
        <time>2018-06-25T09:18:02.228Z</time>
      </trkpt>
      <trkpt lat="43.27585" lon="0.00374">
        <ele>382</ele>
        <time>2018-06-25T09:18:03.228Z</time>
      </trkpt>
      <trkpt lat="43.27532" lon="0.00345">
        <ele>383</ele>
        <time>2018-06-25T09:18:04.228Z</time>
      </trkpt>
      <trkpt lat="43.27507" lon="0.00329">
        <ele>384</ele>
        <time>2018-06-25T09:18:05.228Z</time>
      </trkpt>
      <trkpt lat="43.27471" lon="0.00312">
        <ele>384</ele>
        <time>2018-06-25T09:18:06.228Z</time>
      </trkpt>
      <trkpt lat="43.27404" lon="0.00294">
        <ele>385</ele>
        <time>2018-06-25T09:18:07.228Z</time>
      </trkpt>
      <trkpt lat="43.27361" lon="0.00274">
        <ele>385</ele>
        <time>2018-06-25T09:18:08.228Z</time>
      </trkpt>
      <trkpt lat="43.27346" lon="0.0027">
        <ele>385</ele>
        <time>2018-06-25T09:18:09.228Z</time>
      </trkpt>
      <trkpt lat="43.2724" lon="0.00223">
        <ele>384</ele>
        <time>2018-06-25T09:18:10.228Z</time>
      </trkpt>
      <trkpt lat="43.27173" lon="0.00201">
        <ele>384</ele>
        <time>2018-06-25T09:18:11.228Z</time>
      </trkpt>
      <trkpt lat="43.2709" lon="0.00164">
        <ele>384</ele>
        <time>2018-06-25T09:18:12.228Z</time>
      </trkpt>
      <trkpt lat="43.27086" lon="0.00157">
        <ele>383</ele>
        <time>2018-06-25T09:18:13.228Z</time>
      </trkpt>
      <trkpt lat="43.27097" lon="0.00116">
        <ele>381</ele>
        <time>2018-06-25T09:18:14.228Z</time>
      </trkpt>
      <trkpt lat="43.27105" lon="0.001">
        <ele>380</ele>
        <time>2018-06-25T09:18:15.228Z</time>
      </trkpt>
      <trkpt lat="43.27105" lon="0.00084">
        <ele>379</ele>
        <time>2018-06-25T09:18:16.228Z</time>
      </trkpt>
      <trkpt lat="43.27094" lon="0.00057">
        <ele>377</ele>
        <time>2018-06-25T09:18:17.228Z</time>
      </trkpt>
      <trkpt lat="43.27044" lon="-0.00016">
        <ele>375</ele>
        <time>2018-06-25T09:18:18.228Z</time>
      </trkpt>
      <trkpt lat="43.27018" lon="-0.0004">
        <ele>376</ele>
        <time>2018-06-25T09:18:19.228Z</time>
      </trkpt>
      <trkpt lat="43.26996" lon="-0.00055">
        <ele>377</ele>
        <time>2018-06-25T09:18:20.228Z</time>
      </trkpt>
      <trkpt lat="43.26895" lon="-0.00102">
        <ele>374</ele>
        <time>2018-06-25T09:18:21.228Z</time>
      </trkpt>
      <trkpt lat="43.26857" lon="-0.00127">
        <ele>371</ele>
        <time>2018-06-25T09:18:22.228Z</time>
      </trkpt>
      <trkpt lat="43.26803" lon="-0.00177">
        <ele>367</ele>
        <time>2018-06-25T09:18:23.228Z</time>
      </trkpt>
      <trkpt lat="43.26734" lon="-0.00231">
        <ele>366</ele>
        <time>2018-06-25T09:18:24.228Z</time>
      </trkpt>
      <trkpt lat="43.26718" lon="-0.00249">
        <ele>367</ele>
        <time>2018-06-25T09:18:25.228Z</time>
      </trkpt>
      <trkpt lat="43.26709" lon="-0.00263">
        <ele>368</ele>
        <time>2018-06-25T09:18:26.228Z</time>
      </trkpt>
      <trkpt lat="43.26646" lon="-0.00321">
        <ele>371</ele>
        <time>2018-06-25T09:18:27.228Z</time>
      </trkpt>
      <trkpt lat="43.26628" lon="-0.00345">
        <ele>372</ele>
        <time>2018-06-25T09:18:28.228Z</time>
      </trkpt>
      <trkpt lat="43.26605" lon="-0.00395">
        <ele>374</ele>
        <time>2018-06-25T09:18:29.228Z</time>
      </trkpt>
      <trkpt lat="43.26597" lon="-0.00418">
        <ele>375</ele>
        <time>2018-06-25T09:18:30.228Z</time>
      </trkpt>
      <trkpt lat="43.26558" lon="-0.00499">
        <ele>375</ele>
        <time>2018-06-25T09:18:31.228Z</time>
      </trkpt>
      <trkpt lat="43.26524" lon="-0.00544">
        <ele>379</ele>
        <time>2018-06-25T09:18:32.228Z</time>
      </trkpt>
      <trkpt lat="43.26493" lon="-0.00599">
        <ele>383</ele>
        <time>2018-06-25T09:18:33.228Z</time>
      </trkpt>
      <trkpt lat="43.26433" lon="-0.00685">
        <ele>386</ele>
        <time>2018-06-25T09:18:34.228Z</time>
      </trkpt>
      <trkpt lat="43.26413" lon="-0.00707">
        <ele>387</ele>
        <time>2018-06-25T09:18:35.228Z</time>
      </trkpt>
      <trkpt lat="43.26394" lon="-0.00737">
        <ele>387</ele>
        <time>2018-06-25T09:18:36.228Z</time>
      </trkpt>
      <trkpt lat="43.26366" lon="-0.00784">
        <ele>389</ele>
        <time>2018-06-25T09:18:37.228Z</time>
      </trkpt>
      <trkpt lat="43.26323" lon="-0.00841">
        <ele>390</ele>
        <time>2018-06-25T09:18:38.228Z</time>
      </trkpt>
      <trkpt lat="43.26286" lon="-0.00908">
        <ele>389</ele>
        <time>2018-06-25T09:18:39.228Z</time>
      </trkpt>
      <trkpt lat="43.26269" lon="-0.00946">
        <ele>390</ele>
        <time>2018-06-25T09:18:40.228Z</time>
      </trkpt>
      <trkpt lat="43.26238" lon="-0.00997">
        <ele>392</ele>
        <time>2018-06-25T09:18:41.228Z</time>
      </trkpt>
      <trkpt lat="43.26184" lon="-0.01111">
        <ele>394</ele>
        <time>2018-06-25T09:18:42.228Z</time>
      </trkpt>
      <trkpt lat="43.26155" lon="-0.01156">
        <ele>393</ele>
        <time>2018-06-25T09:18:43.228Z</time>
      </trkpt>
      <trkpt lat="43.26144" lon="-0.01176">
        <ele>393</ele>
        <time>2018-06-25T09:18:44.228Z</time>
      </trkpt>
      <trkpt lat="43.26131" lon="-0.01228">
        <ele>395</ele>
        <time>2018-06-25T09:18:45.228Z</time>
      </trkpt>
      <trkpt lat="43.2608" lon="-0.01387">
        <ele>400</ele>
        <time>2018-06-25T09:18:46.228Z</time>
      </trkpt>
      <trkpt lat="43.26063" lon="-0.01454">
        <ele>399</ele>
        <time>2018-06-25T09:18:47.228Z</time>
      </trkpt>
      <trkpt lat="43.2605" lon="-0.01496">
        <ele>398</ele>
        <time>2018-06-25T09:18:48.228Z</time>
      </trkpt>
      <trkpt lat="43.26031" lon="-0.0155">
        <ele>397</ele>
        <time>2018-06-25T09:18:49.228Z</time>
      </trkpt>
      <trkpt lat="43.25944" lon="-0.01692">
        <ele>394</ele>
        <time>2018-06-25T09:18:50.228Z</time>
      </trkpt>
      <trkpt lat="43.25847" lon="-0.01803">
        <ele>394</ele>
        <time>2018-06-25T09:18:51.228Z</time>
      </trkpt>
      <trkpt lat="43.25825" lon="-0.01818">
        <ele>393</ele>
        <time>2018-06-25T09:18:52.228Z</time>
      </trkpt>
      <trkpt lat="43.25702" lon="-0.01942">
        <ele>392</ele>
        <time>2018-06-25T09:18:53.228Z</time>
      </trkpt>
      <trkpt lat="43.25678" lon="-0.0196">
        <ele>393</ele>
        <time>2018-06-25T09:18:54.228Z</time>
      </trkpt>
      <trkpt lat="43.25619" lon="-0.01989">
        <ele>393</ele>
        <time>2018-06-25T09:18:55.228Z</time>
      </trkpt>
      <trkpt lat="43.25592" lon="-0.02012">
        <ele>394</ele>
        <time>2018-06-25T09:18:56.228Z</time>
      </trkpt>
      <trkpt lat="43.2555" lon="-0.02039">
        <ele>393</ele>
        <time>2018-06-25T09:18:57.228Z</time>
      </trkpt>
      <trkpt lat="43.25532" lon="-0.02054">
        <ele>394</ele>
        <time>2018-06-25T09:18:58.228Z</time>
      </trkpt>
      <trkpt lat="43.25496" lon="-0.02079">
        <ele>395</ele>
        <time>2018-06-25T09:18:59.228Z</time>
      </trkpt>
      <trkpt lat="43.25475" lon="-0.02098">
        <ele>395</ele>
        <time>2018-06-25T09:19:00.228Z</time>
      </trkpt>
      <trkpt lat="43.25465" lon="-0.02113">
        <ele>395</ele>
        <time>2018-06-25T09:19:01.228Z</time>
      </trkpt>
      <trkpt lat="43.25404" lon="-0.0218">
        <ele>399</ele>
        <time>2018-06-25T09:19:02.228Z</time>
      </trkpt>
      <trkpt lat="43.25345" lon="-0.02232">
        <ele>398</ele>
        <time>2018-06-25T09:19:03.228Z</time>
      </trkpt>
      <trkpt lat="43.25339" lon="-0.02242">
        <ele>399</ele>
        <time>2018-06-25T09:19:04.228Z</time>
      </trkpt>
      <trkpt lat="43.25321" lon="-0.02253">
        <ele>399</ele>
        <time>2018-06-25T09:19:05.228Z</time>
      </trkpt>
      <trkpt lat="43.25274" lon="-0.02275">
        <ele>398</ele>
        <time>2018-06-25T09:19:06.228Z</time>
      </trkpt>
      <trkpt lat="43.25265" lon="-0.02282">
        <ele>398</ele>
        <time>2018-06-25T09:19:07.228Z</time>
      </trkpt>
      <trkpt lat="43.25207" lon="-0.02307">
        <ele>400</ele>
        <time>2018-06-25T09:19:08.228Z</time>
      </trkpt>
      <trkpt lat="43.25128" lon="-0.02349">
        <ele>403</ele>
        <time>2018-06-25T09:19:09.228Z</time>
      </trkpt>
      <trkpt lat="43.25117" lon="-0.02364">
        <ele>403</ele>
        <time>2018-06-25T09:19:10.228Z</time>
      </trkpt>
      <trkpt lat="43.25074" lon="-0.02401">
        <ele>405</ele>
        <time>2018-06-25T09:19:11.228Z</time>
      </trkpt>
      <trkpt lat="43.25031" lon="-0.02451">
        <ele>403</ele>
        <time>2018-06-25T09:19:12.228Z</time>
      </trkpt>
      <trkpt lat="43.24998" lon="-0.02491">
        <ele>402</ele>
        <time>2018-06-25T09:19:13.228Z</time>
      </trkpt>
      <trkpt lat="43.2494" lon="-0.02528">
        <ele>402</ele>
        <time>2018-06-25T09:19:14.228Z</time>
      </trkpt>
      <trkpt lat="43.24881" lon="-0.02555">
        <ele>402</ele>
        <time>2018-06-25T09:19:15.228Z</time>
      </trkpt>
      <trkpt lat="43.2486" lon="-0.0256">
        <ele>402</ele>
        <time>2018-06-25T09:19:16.228Z</time>
      </trkpt>
      <trkpt lat="43.24787" lon="-0.02552">
        <ele>402</ele>
        <time>2018-06-25T09:19:17.228Z</time>
      </trkpt>
      <trkpt lat="43.24727" lon="-0.02537">
        <ele>402</ele>
        <time>2018-06-25T09:19:18.228Z</time>
      </trkpt>
      <trkpt lat="43.24677" lon="-0.02532">
        <ele>402</ele>
        <time>2018-06-25T09:19:19.228Z</time>
      </trkpt>
      <trkpt lat="43.24616" lon="-0.02518">
        <ele>401</ele>
        <time>2018-06-25T09:19:20.228Z</time>
      </trkpt>
      <trkpt lat="43.24588" lon="-0.02498">
        <ele>401</ele>
        <time>2018-06-25T09:19:21.228Z</time>
      </trkpt>
      <trkpt lat="43.24579" lon="-0.0249">
        <ele>402</ele>
        <time>2018-06-25T09:19:22.228Z</time>
      </trkpt>
      <trkpt lat="43.24529" lon="-0.02406">
        <ele>404</ele>
        <time>2018-06-25T09:19:23.228Z</time>
      </trkpt>
      <trkpt lat="43.24515" lon="-0.02376">
        <ele>405</ele>
        <time>2018-06-25T09:19:24.228Z</time>
      </trkpt>
      <trkpt lat="43.24469" lon="-0.02252">
        <ele>403</ele>
        <time>2018-06-25T09:19:25.228Z</time>
      </trkpt>
      <trkpt lat="43.24463" lon="-0.0223">
        <ele>402</ele>
        <time>2018-06-25T09:19:26.228Z</time>
      </trkpt>
      <trkpt lat="43.24454" lon="-0.0221">
        <ele>400</ele>
        <time>2018-06-25T09:19:27.228Z</time>
      </trkpt>
      <trkpt lat="43.24439" lon="-0.02186">
        <ele>399</ele>
        <time>2018-06-25T09:19:28.228Z</time>
      </trkpt>
      <trkpt lat="43.24412" lon="-0.02156">
        <ele>395</ele>
        <time>2018-06-25T09:19:29.228Z</time>
      </trkpt>
      <trkpt lat="43.24401" lon="-0.02146">
        <ele>393</ele>
        <time>2018-06-25T09:19:30.228Z</time>
      </trkpt>
      <trkpt lat="43.24345" lon="-0.02126">
        <ele>390</ele>
        <time>2018-06-25T09:19:31.228Z</time>
      </trkpt>
      <trkpt lat="43.24342" lon="-0.02116">
        <ele>389</ele>
        <time>2018-06-25T09:19:32.228Z</time>
      </trkpt>
      <trkpt lat="43.24377" lon="-0.02106">
        <ele>387</ele>
        <time>2018-06-25T09:19:33.228Z</time>
      </trkpt>
      <trkpt lat="43.24404" lon="-0.02106">
        <ele>388</ele>
        <time>2018-06-25T09:19:34.228Z</time>
      </trkpt>
      <trkpt lat="43.24429" lon="-0.02093">
        <ele>386</ele>
        <time>2018-06-25T09:19:35.228Z</time>
      </trkpt>
      <trkpt lat="43.24458" lon="-0.02039">
        <ele>381</ele>
        <time>2018-06-25T09:19:36.228Z</time>
      </trkpt>
      <trkpt lat="43.24469" lon="-0.02012">
        <ele>379</ele>
        <time>2018-06-25T09:19:37.228Z</time>
      </trkpt>
      <trkpt lat="43.24471" lon="-0.02002">
        <ele>377</ele>
        <time>2018-06-25T09:19:38.228Z</time>
      </trkpt>
      <trkpt lat="43.24469" lon="-0.01984">
        <ele>375</ele>
        <time>2018-06-25T09:19:39.228Z</time>
      </trkpt>
      <trkpt lat="43.24465" lon="-0.01979">
        <ele>374</ele>
        <time>2018-06-25T09:19:40.228Z</time>
      </trkpt>
      <trkpt lat="43.24444" lon="-0.01972">
        <ele>370</ele>
        <time>2018-06-25T09:19:41.228Z</time>
      </trkpt>
      <trkpt lat="43.24422" lon="-0.0198">
        <ele>368</ele>
        <time>2018-06-25T09:19:42.228Z</time>
      </trkpt>
      <trkpt lat="43.24388" lon="-0.0197">
        <ele>365</ele>
        <time>2018-06-25T09:19:43.228Z</time>
      </trkpt>
      <trkpt lat="43.24363" lon="-0.01952">
        <ele>362</ele>
        <time>2018-06-25T09:19:44.228Z</time>
      </trkpt>
      <trkpt lat="43.24348" lon="-0.01935">
        <ele>358</ele>
        <time>2018-06-25T09:19:45.228Z</time>
      </trkpt>
      <trkpt lat="43.24336" lon="-0.01903">
        <ele>352</ele>
        <time>2018-06-25T09:19:46.228Z</time>
      </trkpt>
      <trkpt lat="43.24336" lon="-0.0188">
        <ele>348</ele>
        <time>2018-06-25T09:19:47.228Z</time>
      </trkpt>
      <trkpt lat="43.24351" lon="-0.01819">
        <ele>339</ele>
        <time>2018-06-25T09:19:48.228Z</time>
      </trkpt>
      <trkpt lat="43.24386" lon="-0.01749">
        <ele>332</ele>
        <time>2018-06-25T09:19:49.228Z</time>
      </trkpt>
      <trkpt lat="43.24399" lon="-0.01707">
        <ele>329</ele>
        <time>2018-06-25T09:19:50.228Z</time>
      </trkpt>
      <trkpt lat="43.24391" lon="-0.017">
        <ele>328</ele>
        <time>2018-06-25T09:19:51.228Z</time>
      </trkpt>
      <trkpt lat="43.24371" lon="-0.01734">
        <ele>329</ele>
        <time>2018-06-25T09:19:52.228Z</time>
      </trkpt>
      <trkpt lat="43.24298" lon="-0.01711">
        <ele>324</ele>
        <time>2018-06-25T09:19:53.228Z</time>
      </trkpt>
      <trkpt lat="43.2429" lon="-0.01709">
        <ele>323</ele>
        <time>2018-06-25T09:19:54.228Z</time>
      </trkpt>
      <trkpt lat="43.24289" lon="-0.01702">
        <ele>323</ele>
        <time>2018-06-25T09:19:55.228Z</time>
      </trkpt>
      <trkpt lat="43.2424" lon="-0.01615">
        <ele>318</ele>
        <time>2018-06-25T09:19:56.228Z</time>
      </trkpt>
      <trkpt lat="43.24225" lon="-0.01578">
        <ele>318</ele>
        <time>2018-06-25T09:19:57.228Z</time>
      </trkpt>
      <trkpt lat="43.24215" lon="-0.01535">
        <ele>319</ele>
        <time>2018-06-25T09:19:58.228Z</time>
      </trkpt>
      <trkpt lat="43.24201" lon="-0.01498">
        <ele>321</ele>
        <time>2018-06-25T09:19:59.228Z</time>
      </trkpt>
      <trkpt lat="43.24166" lon="-0.01441">
        <ele>320</ele>
        <time>2018-06-25T09:20:00.228Z</time>
      </trkpt>
      <trkpt lat="43.24144" lon="-0.01429">
        <ele>320</ele>
        <time>2018-06-25T09:20:01.228Z</time>
      </trkpt>
      <trkpt lat="43.2414" lon="-0.01429">
        <ele>320</ele>
        <time>2018-06-25T09:20:02.228Z</time>
      </trkpt>
      <trkpt lat="43.24099" lon="-0.01451">
        <ele>319</ele>
        <time>2018-06-25T09:20:03.228Z</time>
      </trkpt>
      <trkpt lat="43.24085" lon="-0.01462">
        <ele>319</ele>
        <time>2018-06-25T09:20:04.228Z</time>
      </trkpt>
      <trkpt lat="43.24065" lon="-0.01471">
        <ele>319</ele>
        <time>2018-06-25T09:20:05.228Z</time>
      </trkpt>
      <trkpt lat="43.24054" lon="-0.01469">
        <ele>319</ele>
        <time>2018-06-25T09:20:06.228Z</time>
      </trkpt>
      <trkpt lat="43.24036" lon="-0.01446">
        <ele>320</ele>
        <time>2018-06-25T09:20:07.228Z</time>
      </trkpt>
      <trkpt lat="43.24023" lon="-0.01441">
        <ele>320</ele>
        <time>2018-06-25T09:20:08.228Z</time>
      </trkpt>
      <trkpt lat="43.2398" lon="-0.01446">
        <ele>320</ele>
        <time>2018-06-25T09:20:09.228Z</time>
      </trkpt>
      <trkpt lat="43.23888" lon="-0.0128">
        <ele>318</ele>
        <time>2018-06-25T09:20:10.228Z</time>
      </trkpt>
      <trkpt lat="43.23838" lon="-0.01181">
        <ele>320</ele>
        <time>2018-06-25T09:20:11.228Z</time>
      </trkpt>
      <trkpt lat="43.23817" lon="-0.01131">
        <ele>319</ele>
        <time>2018-06-25T09:20:12.228Z</time>
      </trkpt>
      <trkpt lat="43.23815" lon="-0.01106">
        <ele>318</ele>
        <time>2018-06-25T09:20:13.228Z</time>
      </trkpt>
      <trkpt lat="43.2383" lon="-0.00965">
        <ele>318</ele>
        <time>2018-06-25T09:20:14.228Z</time>
      </trkpt>
      <trkpt lat="43.2383" lon="-0.00842">
        <ele>318</ele>
        <time>2018-06-25T09:20:15.228Z</time>
      </trkpt>
      <trkpt lat="43.23826" lon="-0.00809">
        <ele>318</ele>
        <time>2018-06-25T09:20:16.228Z</time>
      </trkpt>
      <trkpt lat="43.23819" lon="-0.00777">
        <ele>317</ele>
        <time>2018-06-25T09:20:17.228Z</time>
      </trkpt>
      <trkpt lat="43.23805" lon="-0.00745">
        <ele>317</ele>
        <time>2018-06-25T09:20:18.228Z</time>
      </trkpt>
      <trkpt lat="43.23776" lon="-0.0071">
        <ele>317</ele>
        <time>2018-06-25T09:20:19.228Z</time>
      </trkpt>
      <trkpt lat="43.23673" lon="-0.00611">
        <ele>318</ele>
        <time>2018-06-25T09:20:20.228Z</time>
      </trkpt>
      <trkpt lat="43.23596" lon="-0.00558">
        <ele>319</ele>
        <time>2018-06-25T09:20:21.228Z</time>
      </trkpt>
      <trkpt lat="43.23577" lon="-0.00537">
        <ele>319</ele>
        <time>2018-06-25T09:20:22.228Z</time>
      </trkpt>
      <trkpt lat="43.23559" lon="-0.00497">
        <ele>320</ele>
        <time>2018-06-25T09:20:23.228Z</time>
      </trkpt>
      <trkpt lat="43.23551" lon="-0.00465">
        <ele>319</ele>
        <time>2018-06-25T09:20:24.228Z</time>
      </trkpt>
      <trkpt lat="43.23543" lon="-0.00452">
        <ele>319</ele>
        <time>2018-06-25T09:20:25.228Z</time>
      </trkpt>
      <trkpt lat="43.235" lon="-0.00417">
        <ele>319</ele>
        <time>2018-06-25T09:20:26.228Z</time>
      </trkpt>
      <trkpt lat="43.23493" lon="-0.00405">
        <ele>319</ele>
        <time>2018-06-25T09:20:27.228Z</time>
      </trkpt>
      <trkpt lat="43.2348" lon="-0.0035">
        <ele>319</ele>
        <time>2018-06-25T09:20:28.228Z</time>
      </trkpt>
      <trkpt lat="43.23463" lon="-0.00298">
        <ele>320</ele>
        <time>2018-06-25T09:20:29.228Z</time>
      </trkpt>
      <trkpt lat="43.23447" lon="-0.00207">
        <ele>320</ele>
        <time>2018-06-25T09:20:30.228Z</time>
      </trkpt>
      <trkpt lat="43.2344" lon="-0.00154">
        <ele>320</ele>
        <time>2018-06-25T09:20:31.228Z</time>
      </trkpt>
      <trkpt lat="43.23438" lon="-0.00083">
        <ele>320</ele>
        <time>2018-06-25T09:20:32.228Z</time>
      </trkpt>
      <trkpt lat="43.23433" lon="-0.00068">
        <ele>320</ele>
        <time>2018-06-25T09:20:33.228Z</time>
      </trkpt>
      <trkpt lat="43.23425" lon="-0.00055">
        <ele>320</ele>
        <time>2018-06-25T09:20:34.228Z</time>
      </trkpt>
      <trkpt lat="43.23397" lon="-0.00038">
        <ele>320</ele>
        <time>2018-06-25T09:20:35.228Z</time>
      </trkpt>
      <trkpt lat="43.23391" lon="-0.00018">
        <ele>320</ele>
        <time>2018-06-25T09:20:36.228Z</time>
      </trkpt>
      <trkpt lat="43.23382" lon="0.00037">
        <ele>320</ele>
        <time>2018-06-25T09:20:37.228Z</time>
      </trkpt>
      <trkpt lat="43.23366" lon="0.00101">
        <ele>321</ele>
        <time>2018-06-25T09:20:38.228Z</time>
      </trkpt>
      <trkpt lat="43.23355" lon="0.00127">
        <ele>321</ele>
        <time>2018-06-25T09:20:39.228Z</time>
      </trkpt>
      <trkpt lat="43.2335" lon="0.0013">
        <ele>322</ele>
        <time>2018-06-25T09:20:40.228Z</time>
      </trkpt>
      <trkpt lat="43.23275" lon="0.00093">
        <ele>322</ele>
        <time>2018-06-25T09:20:41.228Z</time>
      </trkpt>
      <trkpt lat="43.23256" lon="0.00079">
        <ele>322</ele>
        <time>2018-06-25T09:20:42.228Z</time>
      </trkpt>
      <trkpt lat="43.23234" lon="0.00067">
        <ele>321</ele>
        <time>2018-06-25T09:20:43.228Z</time>
      </trkpt>
      <trkpt lat="43.23171" lon="0.00056">
        <ele>320</ele>
        <time>2018-06-25T09:20:44.228Z</time>
      </trkpt>
      <trkpt lat="43.23107" lon="0.00016">
        <ele>321</ele>
        <time>2018-06-25T09:20:45.228Z</time>
      </trkpt>
      <trkpt lat="43.23101" lon="3.0E-5">
        <ele>321</ele>
        <time>2018-06-25T09:20:46.228Z</time>
      </trkpt>
      <trkpt lat="43.2279" lon="-0.00041">
        <ele>325</ele>
        <time>2018-06-25T09:20:47.228Z</time>
      </trkpt>
      <trkpt lat="43.22588" lon="-0.00137">
        <ele>327</ele>
        <time>2018-06-25T09:20:48.228Z</time>
      </trkpt>
      <trkpt lat="43.22315" lon="-0.00274">
        <ele>330</ele>
        <time>2018-06-25T09:20:49.228Z</time>
      </trkpt>
      <trkpt lat="43.22124" lon="-0.00407">
        <ele>332</ele>
        <time>2018-06-25T09:20:50.228Z</time>
      </trkpt>
      <trkpt lat="43.21978" lon="-0.00489">
        <ele>332</ele>
        <time>2018-06-25T09:20:51.228Z</time>
      </trkpt>
      <trkpt lat="43.21795" lon="-0.00556">
        <ele>333</ele>
        <time>2018-06-25T09:20:52.228Z</time>
      </trkpt>
      <trkpt lat="43.21681" lon="-0.0063">
        <ele>335</ele>
        <time>2018-06-25T09:20:53.228Z</time>
      </trkpt>
      <trkpt lat="43.21581" lon="-0.0067">
        <ele>335</ele>
        <time>2018-06-25T09:20:54.228Z</time>
      </trkpt>
      <trkpt lat="43.21491" lon="-0.00707">
        <ele>335</ele>
        <time>2018-06-25T09:20:55.228Z</time>
      </trkpt>
      <trkpt lat="43.2138" lon="-0.00735">
        <ele>336</ele>
        <time>2018-06-25T09:20:56.228Z</time>
      </trkpt>
      <trkpt lat="43.2129" lon="-0.00742">
        <ele>337</ele>
        <time>2018-06-25T09:20:57.228Z</time>
      </trkpt>
      <trkpt lat="43.21197" lon="-0.007">
        <ele>339</ele>
        <time>2018-06-25T09:20:58.228Z</time>
      </trkpt>
      <trkpt lat="43.21079" lon="-0.00692">
        <ele>341</ele>
        <time>2018-06-25T09:20:59.228Z</time>
      </trkpt>
      <trkpt lat="43.21025" lon="-0.00677">
        <ele>342</ele>
        <time>2018-06-25T09:21:00.228Z</time>
      </trkpt>
      <trkpt lat="43.21004" lon="-0.00677">
        <ele>342</ele>
        <time>2018-06-25T09:21:01.228Z</time>
      </trkpt>
      <trkpt lat="43.20978" lon="-0.0069">
        <ele>342</ele>
        <time>2018-06-25T09:21:02.228Z</time>
      </trkpt>
      <trkpt lat="43.20946" lon="-0.00725">
        <ele>341</ele>
        <time>2018-06-25T09:21:03.228Z</time>
      </trkpt>
      <trkpt lat="43.20853" lon="-0.00777">
        <ele>343</ele>
        <time>2018-06-25T09:21:04.228Z</time>
      </trkpt>
      <trkpt lat="43.20799" lon="-0.00787">
        <ele>343</ele>
        <time>2018-06-25T09:21:05.228Z</time>
      </trkpt>
      <trkpt lat="43.20778" lon="-0.00797">
        <ele>344</ele>
        <time>2018-06-25T09:21:06.228Z</time>
      </trkpt>
      <trkpt lat="43.20761" lon="-0.00817">
        <ele>343</ele>
        <time>2018-06-25T09:21:07.228Z</time>
      </trkpt>
      <trkpt lat="43.20734" lon="-0.00871">
        <ele>344</ele>
        <time>2018-06-25T09:21:08.228Z</time>
      </trkpt>
      <trkpt lat="43.20725" lon="-0.00881">
        <ele>344</ele>
        <time>2018-06-25T09:21:09.228Z</time>
      </trkpt>
      <trkpt lat="43.20713" lon="-0.00886">
        <ele>344</ele>
        <time>2018-06-25T09:21:10.228Z</time>
      </trkpt>
      <trkpt lat="43.20654" lon="-0.00884">
        <ele>344</ele>
        <time>2018-06-25T09:21:11.228Z</time>
      </trkpt>
      <trkpt lat="43.20543" lon="-0.00869">
        <ele>345</ele>
        <time>2018-06-25T09:21:12.228Z</time>
      </trkpt>
      <trkpt lat="43.20514" lon="-0.00878">
        <ele>345</ele>
        <time>2018-06-25T09:21:13.228Z</time>
      </trkpt>
      <trkpt lat="43.20483" lon="-0.00898">
        <ele>346</ele>
        <time>2018-06-25T09:21:14.228Z</time>
      </trkpt>
      <trkpt lat="43.20421" lon="-0.01003">
        <ele>346</ele>
        <time>2018-06-25T09:21:15.228Z</time>
      </trkpt>
      <trkpt lat="43.20369" lon="-0.01079">
        <ele>347</ele>
        <time>2018-06-25T09:21:16.228Z</time>
      </trkpt>
      <trkpt lat="43.20072" lon="-0.01429">
        <ele>348</ele>
        <time>2018-06-25T09:21:17.228Z</time>
      </trkpt>
      <trkpt lat="43.19832" lon="-0.0163">
        <ele>350</ele>
        <time>2018-06-25T09:21:18.228Z</time>
      </trkpt>
      <trkpt lat="43.19615" lon="-0.01801">
        <ele>354</ele>
        <time>2018-06-25T09:21:19.228Z</time>
      </trkpt>
      <trkpt lat="43.19581" lon="-0.01824">
        <ele>354</ele>
        <time>2018-06-25T09:21:20.228Z</time>
      </trkpt>
      <trkpt lat="43.19373" lon="-0.01922">
        <ele>355</ele>
        <time>2018-06-25T09:21:21.228Z</time>
      </trkpt>
      <trkpt lat="43.19117" lon="-0.02017">
        <ele>358</ele>
        <time>2018-06-25T09:21:22.228Z</time>
      </trkpt>
      <trkpt lat="43.19108" lon="-0.02027">
        <ele>358</ele>
        <time>2018-06-25T09:21:23.228Z</time>
      </trkpt>
      <trkpt lat="43.19088" lon="-0.02121">
        <ele>360</ele>
        <time>2018-06-25T09:21:24.228Z</time>
      </trkpt>
      <trkpt lat="43.19079" lon="-0.02153">
        <ele>360</ele>
        <time>2018-06-25T09:21:25.228Z</time>
      </trkpt>
      <trkpt lat="43.19057" lon="-0.02195">
        <ele>359</ele>
        <time>2018-06-25T09:21:26.228Z</time>
      </trkpt>
      <trkpt lat="43.19037" lon="-0.02218">
        <ele>358</ele>
        <time>2018-06-25T09:21:27.228Z</time>
      </trkpt>
      <trkpt lat="43.1901" lon="-0.0224">
        <ele>359</ele>
        <time>2018-06-25T09:21:28.228Z</time>
      </trkpt>
      <trkpt lat="43.18751" lon="-0.02364">
        <ele>362</ele>
        <time>2018-06-25T09:21:29.228Z</time>
      </trkpt>
      <trkpt lat="43.18723" lon="-0.02386">
        <ele>362</ele>
        <time>2018-06-25T09:21:30.228Z</time>
      </trkpt>
      <trkpt lat="43.18653" lon="-0.02453">
        <ele>363</ele>
        <time>2018-06-25T09:21:31.228Z</time>
      </trkpt>
      <trkpt lat="43.18554" lon="-0.02555">
        <ele>364</ele>
        <time>2018-06-25T09:21:32.228Z</time>
      </trkpt>
      <trkpt lat="43.18523" lon="-0.0258">
        <ele>364</ele>
        <time>2018-06-25T09:21:33.228Z</time>
      </trkpt>
      <trkpt lat="43.18509" lon="-0.02584">
        <ele>365</ele>
        <time>2018-06-25T09:21:34.228Z</time>
      </trkpt>
      <trkpt lat="43.18445" lon="-0.0258">
        <ele>366</ele>
        <time>2018-06-25T09:21:35.228Z</time>
      </trkpt>
      <trkpt lat="43.18435" lon="-0.02577">
        <ele>366</ele>
        <time>2018-06-25T09:21:36.228Z</time>
      </trkpt>
      <trkpt lat="43.18427" lon="-0.02565">
        <ele>366</ele>
        <time>2018-06-25T09:21:37.228Z</time>
      </trkpt>
      <trkpt lat="43.18418" lon="-0.02503">
        <ele>365</ele>
        <time>2018-06-25T09:21:38.228Z</time>
      </trkpt>
      <trkpt lat="43.18406" lon="-0.02388">
        <ele>365</ele>
        <time>2018-06-25T09:21:39.228Z</time>
      </trkpt>
      <trkpt lat="43.18407" lon="-0.02275">
        <ele>366</ele>
        <time>2018-06-25T09:21:40.228Z</time>
      </trkpt>
      <trkpt lat="43.18402" lon="-0.02225">
        <ele>366</ele>
        <time>2018-06-25T09:21:41.228Z</time>
      </trkpt>
      <trkpt lat="43.18398" lon="-0.02212">
        <ele>367</ele>
        <time>2018-06-25T09:21:42.228Z</time>
      </trkpt>
      <trkpt lat="43.18389" lon="-0.02205">
        <ele>367</ele>
        <time>2018-06-25T09:21:43.228Z</time>
      </trkpt>
      <trkpt lat="43.18268" lon="-0.02222">
        <ele>367</ele>
        <time>2018-06-25T09:21:44.228Z</time>
      </trkpt>
      <trkpt lat="43.18245" lon="-0.02227">
        <ele>367</ele>
        <time>2018-06-25T09:21:45.228Z</time>
      </trkpt>
      <trkpt lat="43.18153" lon="-0.02277">
        <ele>368</ele>
        <time>2018-06-25T09:21:46.228Z</time>
      </trkpt>
      <trkpt lat="43.18144" lon="-0.02272">
        <ele>369</ele>
        <time>2018-06-25T09:21:47.228Z</time>
      </trkpt>
      <trkpt lat="43.18141" lon="-0.02259">
        <ele>369</ele>
        <time>2018-06-25T09:21:48.228Z</time>
      </trkpt>
      <trkpt lat="43.18137" lon="-0.02252">
        <ele>369</ele>
        <time>2018-06-25T09:21:49.228Z</time>
      </trkpt>
      <trkpt lat="43.18085" lon="-0.02275">
        <ele>370</ele>
        <time>2018-06-25T09:21:50.228Z</time>
      </trkpt>
      <trkpt lat="43.18027" lon="-0.02289">
        <ele>370</ele>
        <time>2018-06-25T09:21:51.228Z</time>
      </trkpt>
      <trkpt lat="43.17945" lon="-0.02302">
        <ele>370</ele>
        <time>2018-06-25T09:21:52.228Z</time>
      </trkpt>
      <trkpt lat="43.17875" lon="-0.02299">
        <ele>372</ele>
        <time>2018-06-25T09:21:53.228Z</time>
      </trkpt>
      <trkpt lat="43.17741" lon="-0.02275">
        <ele>372</ele>
        <time>2018-06-25T09:21:54.228Z</time>
      </trkpt>
      <trkpt lat="43.17729" lon="-0.0227">
        <ele>372</ele>
        <time>2018-06-25T09:21:55.228Z</time>
      </trkpt>
      <trkpt lat="43.17142" lon="-0.02146">
        <ele>380</ele>
        <time>2018-06-25T09:21:56.228Z</time>
      </trkpt>
      <trkpt lat="43.17138" lon="-0.02148">
        <ele>380</ele>
        <time>2018-06-25T09:21:57.228Z</time>
      </trkpt>
      <trkpt lat="43.17133" lon="-0.02181">
        <ele>380</ele>
        <time>2018-06-25T09:21:58.228Z</time>
      </trkpt>
      <trkpt lat="43.1713" lon="-0.0219">
        <ele>380</ele>
        <time>2018-06-25T09:21:59.228Z</time>
      </trkpt>
      <trkpt lat="43.17122" lon="-0.02193">
        <ele>380</ele>
        <time>2018-06-25T09:22:00.228Z</time>
      </trkpt>
      <trkpt lat="43.17068" lon="-0.02165">
        <ele>381</ele>
        <time>2018-06-25T09:22:01.228Z</time>
      </trkpt>
      <trkpt lat="43.16992" lon="-0.02141">
        <ele>382</ele>
        <time>2018-06-25T09:22:02.228Z</time>
      </trkpt>
      <trkpt lat="43.16864" lon="-0.02118">
        <ele>383</ele>
        <time>2018-06-25T09:22:03.228Z</time>
      </trkpt>
      <trkpt lat="43.16841" lon="-0.02118">
        <ele>384</ele>
        <time>2018-06-25T09:22:04.228Z</time>
      </trkpt>
      <trkpt lat="43.16805" lon="-0.02123">
        <ele>385</ele>
        <time>2018-06-25T09:22:05.228Z</time>
      </trkpt>
      <trkpt lat="43.16642" lon="-0.02126">
        <ele>386</ele>
        <time>2018-06-25T09:22:06.228Z</time>
      </trkpt>
      <trkpt lat="43.16572" lon="-0.02136">
        <ele>386</ele>
        <time>2018-06-25T09:22:07.228Z</time>
      </trkpt>
      <trkpt lat="43.1655" lon="-0.02146">
        <ele>387</ele>
        <time>2018-06-25T09:22:08.228Z</time>
      </trkpt>
      <trkpt lat="43.16519" lon="-0.02185">
        <ele>388</ele>
        <time>2018-06-25T09:22:09.228Z</time>
      </trkpt>
      <trkpt lat="43.16498" lon="-0.02195">
        <ele>388</ele>
        <time>2018-06-25T09:22:10.228Z</time>
      </trkpt>
      <trkpt lat="43.16344" lon="-0.0221">
        <ele>390</ele>
        <time>2018-06-25T09:22:11.228Z</time>
      </trkpt>
      <trkpt lat="43.1629" lon="-0.02225">
        <ele>392</ele>
        <time>2018-06-25T09:22:12.228Z</time>
      </trkpt>
      <trkpt lat="43.16102" lon="-0.02212">
        <ele>395</ele>
        <time>2018-06-25T09:22:13.228Z</time>
      </trkpt>
      <trkpt lat="43.15969" lon="-0.02181">
        <ele>402</ele>
        <time>2018-06-25T09:22:14.228Z</time>
      </trkpt>
      <trkpt lat="43.15885" lon="-0.02156">
        <ele>403</ele>
        <time>2018-06-25T09:22:15.228Z</time>
      </trkpt>
      <trkpt lat="43.15846" lon="-0.02148">
        <ele>405</ele>
        <time>2018-06-25T09:22:16.228Z</time>
      </trkpt>
      <trkpt lat="43.1584" lon="-0.0215">
        <ele>406</ele>
        <time>2018-06-25T09:22:17.228Z</time>
      </trkpt>
      <trkpt lat="43.15837" lon="-0.02163">
        <ele>407</ele>
        <time>2018-06-25T09:22:18.228Z</time>
      </trkpt>
      <trkpt lat="43.15839" lon="-0.02173">
        <ele>409</ele>
        <time>2018-06-25T09:22:19.228Z</time>
      </trkpt>
      <trkpt lat="43.15839" lon="-0.02148">
        <ele>405</ele>
        <time>2018-06-25T09:22:20.228Z</time>
      </trkpt>
      <trkpt lat="43.15837" lon="-0.02145">
        <ele>405</ele>
        <time>2018-06-25T09:22:21.228Z</time>
      </trkpt>
      <trkpt lat="43.15825" lon="-0.02138">
        <ele>404</ele>
        <time>2018-06-25T09:22:22.228Z</time>
      </trkpt>
      <trkpt lat="43.15814" lon="-0.02136">
        <ele>403</ele>
        <time>2018-06-25T09:22:23.228Z</time>
      </trkpt>
      <trkpt lat="43.15745" lon="-0.02116">
        <ele>399</ele>
        <time>2018-06-25T09:22:24.228Z</time>
      </trkpt>
      <trkpt lat="43.15705" lon="-0.02096">
        <ele>398</ele>
        <time>2018-06-25T09:22:25.228Z</time>
      </trkpt>
      <trkpt lat="43.15686" lon="-0.02076">
        <ele>397</ele>
        <time>2018-06-25T09:22:26.228Z</time>
      </trkpt>
      <trkpt lat="43.15671" lon="-0.02049">
        <ele>396</ele>
        <time>2018-06-25T09:22:27.228Z</time>
      </trkpt>
      <trkpt lat="43.15662" lon="-0.02042">
        <ele>396</ele>
        <time>2018-06-25T09:22:28.228Z</time>
      </trkpt>
      <trkpt lat="43.15651" lon="-0.02044">
        <ele>396</ele>
        <time>2018-06-25T09:22:29.228Z</time>
      </trkpt>
      <trkpt lat="43.15615" lon="-0.02086">
        <ele>396</ele>
        <time>2018-06-25T09:22:30.228Z</time>
      </trkpt>
      <trkpt lat="43.15534" lon="-0.02198">
        <ele>399</ele>
        <time>2018-06-25T09:22:31.228Z</time>
      </trkpt>
      <trkpt lat="43.15366" lon="-0.02416">
        <ele>401</ele>
        <time>2018-06-25T09:22:32.228Z</time>
      </trkpt>
      <trkpt lat="43.15142" lon="-0.02721">
        <ele>406</ele>
        <time>2018-06-25T09:22:33.228Z</time>
      </trkpt>
      <trkpt lat="43.15104" lon="-0.02758">
        <ele>407</ele>
        <time>2018-06-25T09:22:34.228Z</time>
      </trkpt>
      <trkpt lat="43.15028" lon="-0.02808">
        <ele>408</ele>
        <time>2018-06-25T09:22:35.228Z</time>
      </trkpt>
      <trkpt lat="43.1484" lon="-0.02904">
        <ele>405</ele>
        <time>2018-06-25T09:22:36.228Z</time>
      </trkpt>
      <trkpt lat="43.14708" lon="-0.02959">
        <ele>408</ele>
        <time>2018-06-25T09:22:37.228Z</time>
      </trkpt>
      <trkpt lat="43.14548" lon="-0.03029">
        <ele>417</ele>
        <time>2018-06-25T09:22:38.228Z</time>
      </trkpt>
      <trkpt lat="43.14438" lon="-0.03085">
        <ele>416</ele>
        <time>2018-06-25T09:22:39.228Z</time>
      </trkpt>
      <trkpt lat="43.14354" lon="-0.03123">
        <ele>413</ele>
        <time>2018-06-25T09:22:40.228Z</time>
      </trkpt>
      <trkpt lat="43.14331" lon="-0.03138">
        <ele>411</ele>
        <time>2018-06-25T09:22:41.228Z</time>
      </trkpt>
      <trkpt lat="43.14115" lon="-0.03237">
        <ele>413</ele>
        <time>2018-06-25T09:22:42.228Z</time>
      </trkpt>
      <trkpt lat="43.14098" lon="-0.03241">
        <ele>413</ele>
        <time>2018-06-25T09:22:43.228Z</time>
      </trkpt>
      <trkpt lat="43.14075" lon="-0.03252">
        <ele>413</ele>
        <time>2018-06-25T09:22:44.228Z</time>
      </trkpt>
      <trkpt lat="43.14014" lon="-0.03259">
        <ele>414</ele>
        <time>2018-06-25T09:22:45.228Z</time>
      </trkpt>
      <trkpt lat="43.13964" lon="-0.03257">
        <ele>416</ele>
        <time>2018-06-25T09:22:46.228Z</time>
      </trkpt>
      <trkpt lat="43.13907" lon="-0.03247">
        <ele>419</ele>
        <time>2018-06-25T09:22:47.228Z</time>
      </trkpt>
      <trkpt lat="43.139" lon="-0.03241">
        <ele>419</ele>
        <time>2018-06-25T09:22:48.228Z</time>
      </trkpt>
      <trkpt lat="43.13898" lon="-0.0323">
        <ele>419</ele>
        <time>2018-06-25T09:22:49.228Z</time>
      </trkpt>
      <trkpt lat="43.13902" lon="-0.03197">
        <ele>416</ele>
        <time>2018-06-25T09:22:50.228Z</time>
      </trkpt>
      <trkpt lat="43.139" lon="-0.03187">
        <ele>416</ele>
        <time>2018-06-25T09:22:51.228Z</time>
      </trkpt>
      <trkpt lat="43.13894" lon="-0.0318">
        <ele>415</ele>
        <time>2018-06-25T09:22:52.228Z</time>
      </trkpt>
      <trkpt lat="43.13826" lon="-0.03128">
        <ele>416</ele>
        <time>2018-06-25T09:22:53.228Z</time>
      </trkpt>
      <trkpt lat="43.13788" lon="-0.03108">
        <ele>417</ele>
        <time>2018-06-25T09:22:54.228Z</time>
      </trkpt>
      <trkpt lat="43.13734" lon="-0.0311">
        <ele>420</ele>
        <time>2018-06-25T09:22:55.228Z</time>
      </trkpt>
      <trkpt lat="43.13712" lon="-0.03115">
        <ele>421</ele>
        <time>2018-06-25T09:22:56.228Z</time>
      </trkpt>
      <trkpt lat="43.13673" lon="-0.03133">
        <ele>422</ele>
        <time>2018-06-25T09:22:57.228Z</time>
      </trkpt>
      <trkpt lat="43.13658" lon="-0.03135">
        <ele>423</ele>
        <time>2018-06-25T09:22:58.228Z</time>
      </trkpt>
      <trkpt lat="43.13543" lon="-0.03105">
        <ele>427</ele>
        <time>2018-06-25T09:22:59.228Z</time>
      </trkpt>
      <trkpt lat="43.13456" lon="-0.03076">
        <ele>429</ele>
        <time>2018-06-25T09:23:00.228Z</time>
      </trkpt>
      <trkpt lat="43.13453" lon="-0.0308">
        <ele>429</ele>
        <time>2018-06-25T09:23:01.228Z</time>
      </trkpt>
      <trkpt lat="43.13449" lon="-0.03106">
        <ele>430</ele>
        <time>2018-06-25T09:23:02.228Z</time>
      </trkpt>
      <trkpt lat="43.13443" lon="-0.0311">
        <ele>430</ele>
        <time>2018-06-25T09:23:03.228Z</time>
      </trkpt>
      <trkpt lat="43.13371" lon="-0.03098">
        <ele>431</ele>
        <time>2018-06-25T09:23:04.228Z</time>
      </trkpt>
      <trkpt lat="43.13155" lon="-0.03036">
        <ele>432</ele>
        <time>2018-06-25T09:23:05.228Z</time>
      </trkpt>
      <trkpt lat="43.12991" lon="-0.03006">
        <ele>436</ele>
        <time>2018-06-25T09:23:06.228Z</time>
      </trkpt>
      <trkpt lat="43.1292" lon="-0.03001">
        <ele>437</ele>
        <time>2018-06-25T09:23:07.228Z</time>
      </trkpt>
      <trkpt lat="43.1286" lon="-0.03008">
        <ele>436</ele>
        <time>2018-06-25T09:23:08.228Z</time>
      </trkpt>
      <trkpt lat="43.12805" lon="-0.03023">
        <ele>436</ele>
        <time>2018-06-25T09:23:09.228Z</time>
      </trkpt>
      <trkpt lat="43.12786" lon="-0.03033">
        <ele>436</ele>
        <time>2018-06-25T09:23:10.228Z</time>
      </trkpt>
      <trkpt lat="43.12723" lon="-0.03075">
        <ele>435</ele>
        <time>2018-06-25T09:23:11.228Z</time>
      </trkpt>
      <trkpt lat="43.1268" lon="-0.03096">
        <ele>435</ele>
        <time>2018-06-25T09:23:12.228Z</time>
      </trkpt>
      <trkpt lat="43.12595" lon="-0.03157">
        <ele>433</ele>
        <time>2018-06-25T09:23:13.228Z</time>
      </trkpt>
      <trkpt lat="43.12541" lon="-0.0319">
        <ele>432</ele>
        <time>2018-06-25T09:23:14.228Z</time>
      </trkpt>
      <trkpt lat="43.1253" lon="-0.03234">
        <ele>431</ele>
        <time>2018-06-25T09:23:15.228Z</time>
      </trkpt>
      <trkpt lat="43.12519" lon="-0.03294">
        <ele>430</ele>
        <time>2018-06-25T09:23:16.228Z</time>
      </trkpt>
      <trkpt lat="43.12525" lon="-0.03354">
        <ele>430</ele>
        <time>2018-06-25T09:23:17.228Z</time>
      </trkpt>
      <trkpt lat="43.12519" lon="-0.03403">
        <ele>430</ele>
        <time>2018-06-25T09:23:18.228Z</time>
      </trkpt>
      <trkpt lat="43.12512" lon="-0.0343">
        <ele>431</ele>
        <time>2018-06-25T09:23:19.228Z</time>
      </trkpt>
      <trkpt lat="43.12496" lon="-0.03472">
        <ele>431</ele>
        <time>2018-06-25T09:23:20.228Z</time>
      </trkpt>
      <trkpt lat="43.12487" lon="-0.03537">
        <ele>434</ele>
        <time>2018-06-25T09:23:21.228Z</time>
      </trkpt>
      <trkpt lat="43.12481" lon="-0.03556">
        <ele>435</ele>
        <time>2018-06-25T09:23:22.228Z</time>
      </trkpt>
      <trkpt lat="43.12443" lon="-0.03648">
        <ele>442</ele>
        <time>2018-06-25T09:23:23.228Z</time>
      </trkpt>
      <trkpt lat="43.12436" lon="-0.03653">
        <ele>442</ele>
        <time>2018-06-25T09:23:24.228Z</time>
      </trkpt>
      <trkpt lat="43.12409" lon="-0.03648">
        <ele>441</ele>
        <time>2018-06-25T09:23:25.228Z</time>
      </trkpt>
      <trkpt lat="43.12377" lon="-0.03631">
        <ele>438</ele>
        <time>2018-06-25T09:23:26.228Z</time>
      </trkpt>
      <trkpt lat="43.12358" lon="-0.03628">
        <ele>436</ele>
        <time>2018-06-25T09:23:27.228Z</time>
      </trkpt>
      <trkpt lat="43.12256" lon="-0.03656">
        <ele>437</ele>
        <time>2018-06-25T09:23:28.228Z</time>
      </trkpt>
      <trkpt lat="43.12176" lon="-0.03663">
        <ele>435</ele>
        <time>2018-06-25T09:23:29.228Z</time>
      </trkpt>
      <trkpt lat="43.12158" lon="-0.03661">
        <ele>435</ele>
        <time>2018-06-25T09:23:30.228Z</time>
      </trkpt>
      <trkpt lat="43.12075" lon="-0.03693">
        <ele>438</ele>
        <time>2018-06-25T09:23:31.228Z</time>
      </trkpt>
      <trkpt lat="43.12037" lon="-0.03713">
        <ele>440</ele>
        <time>2018-06-25T09:23:32.228Z</time>
      </trkpt>
      <trkpt lat="43.12017" lon="-0.03718">
        <ele>440</ele>
        <time>2018-06-25T09:23:33.228Z</time>
      </trkpt>
      <trkpt lat="43.11969" lon="-0.03713">
        <ele>440</ele>
        <time>2018-06-25T09:23:34.228Z</time>
      </trkpt>
      <trkpt lat="43.1194" lon="-0.03723">
        <ele>441</ele>
        <time>2018-06-25T09:23:35.228Z</time>
      </trkpt>
      <trkpt lat="43.11902" lon="-0.0373">
        <ele>442</ele>
        <time>2018-06-25T09:23:36.228Z</time>
      </trkpt>
      <trkpt lat="43.11884" lon="-0.03728">
        <ele>441</ele>
        <time>2018-06-25T09:23:37.228Z</time>
      </trkpt>
      <trkpt lat="43.11875" lon="-0.03703">
        <ele>438</ele>
        <time>2018-06-25T09:23:38.228Z</time>
      </trkpt>
      <trkpt lat="43.11867" lon="-0.03698">
        <ele>438</ele>
        <time>2018-06-25T09:23:39.228Z</time>
      </trkpt>
      <trkpt lat="43.11831" lon="-0.03695">
        <ele>437</ele>
        <time>2018-06-25T09:23:40.228Z</time>
      </trkpt>
      <trkpt lat="43.11813" lon="-0.03681">
        <ele>437</ele>
        <time>2018-06-25T09:23:41.228Z</time>
      </trkpt>
      <trkpt lat="43.11798" lon="-0.03663">
        <ele>437</ele>
        <time>2018-06-25T09:23:42.228Z</time>
      </trkpt>
      <trkpt lat="43.11776" lon="-0.03619">
        <ele>437</ele>
        <time>2018-06-25T09:23:43.228Z</time>
      </trkpt>
      <trkpt lat="43.11777" lon="-0.03567">
        <ele>435</ele>
        <time>2018-06-25T09:23:44.228Z</time>
      </trkpt>
      <trkpt lat="43.11786" lon="-0.03542">
        <ele>433</ele>
        <time>2018-06-25T09:23:45.228Z</time>
      </trkpt>
      <trkpt lat="43.11788" lon="-0.03522">
        <ele>432</ele>
        <time>2018-06-25T09:23:46.228Z</time>
      </trkpt>
      <trkpt lat="43.11784" lon="-0.035">
        <ele>430</ele>
        <time>2018-06-25T09:23:47.228Z</time>
      </trkpt>
      <trkpt lat="43.11761" lon="-0.03455">
        <ele>428</ele>
        <time>2018-06-25T09:23:48.228Z</time>
      </trkpt>
      <trkpt lat="43.11754" lon="-0.0345">
        <ele>428</ele>
        <time>2018-06-25T09:23:49.228Z</time>
      </trkpt>
      <trkpt lat="43.11743" lon="-0.03452">
        <ele>428</ele>
        <time>2018-06-25T09:23:50.228Z</time>
      </trkpt>
      <trkpt lat="43.11719" lon="-0.03467">
        <ele>427</ele>
        <time>2018-06-25T09:23:51.228Z</time>
      </trkpt>
      <trkpt lat="43.11611" lon="-0.03529">
        <ele>425</ele>
        <time>2018-06-25T09:23:52.228Z</time>
      </trkpt>
      <trkpt lat="43.11562" lon="-0.03566">
        <ele>425</ele>
        <time>2018-06-25T09:23:53.228Z</time>
      </trkpt>
      <trkpt lat="43.1151" lon="-0.03594">
        <ele>424</ele>
        <time>2018-06-25T09:23:54.228Z</time>
      </trkpt>
      <trkpt lat="43.11449" lon="-0.03641">
        <ele>426</ele>
        <time>2018-06-25T09:23:55.228Z</time>
      </trkpt>
      <trkpt lat="43.11423" lon="-0.03651">
        <ele>424</ele>
        <time>2018-06-25T09:23:56.228Z</time>
      </trkpt>
      <trkpt lat="43.11404" lon="-0.03651">
        <ele>423</ele>
        <time>2018-06-25T09:23:57.228Z</time>
      </trkpt>
      <trkpt lat="43.11384" lon="-0.03644">
        <ele>423</ele>
        <time>2018-06-25T09:23:58.228Z</time>
      </trkpt>
      <trkpt lat="43.11371" lon="-0.03634">
        <ele>423</ele>
        <time>2018-06-25T09:23:59.228Z</time>
      </trkpt>
      <trkpt lat="43.11311" lon="-0.03559">
        <ele>422</ele>
        <time>2018-06-25T09:24:00.228Z</time>
      </trkpt>
      <trkpt lat="43.11288" lon="-0.03549">
        <ele>420</ele>
        <time>2018-06-25T09:24:01.228Z</time>
      </trkpt>
      <trkpt lat="43.11279" lon="-0.03552">
        <ele>420</ele>
        <time>2018-06-25T09:24:02.228Z</time>
      </trkpt>
      <trkpt lat="43.10979" lon="-0.03784">
        <ele>419</ele>
        <time>2018-06-25T09:24:03.228Z</time>
      </trkpt>
      <trkpt lat="43.10768" lon="-0.03956">
        <ele>423</ele>
        <time>2018-06-25T09:24:04.228Z</time>
      </trkpt>
      <trkpt lat="43.1074" lon="-0.0397">
        <ele>423</ele>
        <time>2018-06-25T09:24:05.228Z</time>
      </trkpt>
      <trkpt lat="43.10718" lon="-0.03995">
        <ele>423</ele>
        <time>2018-06-25T09:24:06.228Z</time>
      </trkpt>
      <trkpt lat="43.10676" lon="-0.04028">
        <ele>421</ele>
        <time>2018-06-25T09:24:07.228Z</time>
      </trkpt>
      <trkpt lat="43.10615" lon="-0.04067">
        <ele>420</ele>
        <time>2018-06-25T09:24:08.228Z</time>
      </trkpt>
      <trkpt lat="43.10512" lon="-0.04149">
        <ele>416</ele>
        <time>2018-06-25T09:24:09.228Z</time>
      </trkpt>
      <trkpt lat="43.10378" lon="-0.04244">
        <ele>415</ele>
        <time>2018-06-25T09:24:10.228Z</time>
      </trkpt>
      <trkpt lat="43.10064" lon="-0.04491">
        <ele>412</ele>
        <time>2018-06-25T09:24:11.228Z</time>
      </trkpt>
      <trkpt lat="43.10057" lon="-0.04492">
        <ele>412</ele>
        <time>2018-06-25T09:24:12.228Z</time>
      </trkpt>
      <trkpt lat="43.10028" lon="-0.04511">
        <ele>411</ele>
        <time>2018-06-25T09:24:13.228Z</time>
      </trkpt>
      <trkpt lat="43.09967" lon="-0.04528">
        <ele>407</ele>
        <time>2018-06-25T09:24:14.228Z</time>
      </trkpt>
      <trkpt lat="43.09952" lon="-0.04539">
        <ele>406</ele>
        <time>2018-06-25T09:24:15.228Z</time>
      </trkpt>
      <trkpt lat="43.0994" lon="-0.04536">
        <ele>405</ele>
        <time>2018-06-25T09:24:16.228Z</time>
      </trkpt>
      <trkpt lat="43.09933" lon="-0.04526">
        <ele>404</ele>
        <time>2018-06-25T09:24:17.228Z</time>
      </trkpt>
      <trkpt lat="43.09593" lon="-0.04623">
        <ele>406</ele>
        <time>2018-06-25T09:24:18.228Z</time>
      </trkpt>
      <trkpt lat="43.09555" lon="-0.0463">
        <ele>408</ele>
        <time>2018-06-25T09:24:19.228Z</time>
      </trkpt>
      <trkpt lat="43.09495" lon="-0.04615">
        <ele>410</ele>
        <time>2018-06-25T09:24:20.228Z</time>
      </trkpt>
      <trkpt lat="43.09434" lon="-0.04615">
        <ele>408</ele>
        <time>2018-06-25T09:24:21.228Z</time>
      </trkpt>
      <trkpt lat="43.09347" lon="-0.0462">
        <ele>405</ele>
        <time>2018-06-25T09:24:22.228Z</time>
      </trkpt>
      <trkpt lat="43.0897" lon="-0.04615">
        <ele>406</ele>
        <time>2018-06-25T09:24:23.228Z</time>
      </trkpt>
      <trkpt lat="43.08934" lon="-0.04687">
        <ele>407</ele>
        <time>2018-06-25T09:24:24.228Z</time>
      </trkpt>
      <trkpt lat="43.08955" lon="-0.04754">
        <ele>408</ele>
        <time>2018-06-25T09:24:25.228Z</time>
      </trkpt>
      <trkpt lat="43.08938" lon="-0.04831">
        <ele>404</ele>
        <time>2018-06-25T09:24:26.228Z</time>
      </trkpt>
      <trkpt lat="43.08898" lon="-0.04896">
        <ele>401</ele>
        <time>2018-06-25T09:24:27.228Z</time>
      </trkpt>
      <trkpt lat="43.08888" lon="-0.04982">
        <ele>396</ele>
        <time>2018-06-25T09:24:28.228Z</time>
      </trkpt>
      <trkpt lat="43.08905" lon="-0.05064">
        <ele>391</ele>
        <time>2018-06-25T09:24:29.228Z</time>
      </trkpt>
      <trkpt lat="43.08991" lon="-0.05377">
        <ele>380</ele>
        <time>2018-06-25T09:24:30.228Z</time>
      </trkpt>
      <trkpt lat="43.09129" lon="-0.05451">
        <ele>381</ele>
        <time>2018-06-25T09:24:31.228Z</time>
      </trkpt>
      <trkpt lat="43.09129" lon="-0.05446">
        <ele>382</ele>
        <time>2018-06-25T09:24:32.228Z</time>
      </trkpt>
      <trkpt lat="43.09131" lon="-0.05457">
        <ele>381</ele>
        <time>2018-06-25T08:59:44.351Z</time>
      </trkpt>
      <trkpt lat="43.09202" lon="-0.05489">
        <ele>381</ele>
        <time>2018-06-25T08:59:45.351Z</time>
      </trkpt>
      <trkpt lat="43.09196" lon="-0.05507">
        <ele>381</ele>
        <time>2018-06-25T08:59:46.351Z</time>
      </trkpt>
      <trkpt lat="43.0922" lon="-0.05564">
        <ele>383</ele>
        <time>2018-06-25T08:59:47.351Z</time>
      </trkpt>
      <trkpt lat="43.09411" lon="-0.05386">
        <ele>382</ele>
        <time>2018-06-25T08:59:48.351Z</time>
      </trkpt>
      <trkpt lat="43.0949" lon="-0.05539">
        <ele>394</ele>
        <time>2018-06-25T08:59:49.351Z</time>
      </trkpt>
      <trkpt lat="43.09451" lon="-0.05553">
        <ele>395</ele>
        <time>2018-06-25T08:59:50.351Z</time>
      </trkpt>
      <trkpt lat="43.09449" lon="-0.05639">
        <ele>401</ele>
        <time>2018-06-25T08:59:51.351Z</time>
      </trkpt>
      <trkpt lat="43.09526" lon="-0.05615">
        <ele>398</ele>
        <time>2018-06-25T08:59:52.351Z</time>
      </trkpt>
      <trkpt lat="43.09532" lon="-0.05592">
        <ele>395</ele>
        <time>2018-06-25T08:59:53.351Z</time>
      </trkpt>
      <trkpt lat="43.09647" lon="-0.05531">
        <ele>386</ele>
        <time>2018-06-25T08:59:54.351Z</time>
      </trkpt>
      <trkpt lat="43.09663" lon="-0.05442">
        <ele>383</ele>
        <time>2018-06-25T08:59:55.351Z</time>
      </trkpt>
      <trkpt lat="43.0952" lon="-0.05312">
        <ele>382</ele>
        <time>2018-06-25T08:59:56.351Z</time>
      </trkpt>
      <trkpt lat="43.0951" lon="-0.05255">
        <ele>384</ele>
        <time>2018-06-25T08:59:57.351Z</time>
      </trkpt>
      <trkpt lat="43.09566" lon="-0.05139">
        <ele>390</ele>
        <time>2018-06-25T08:59:58.351Z</time>
      </trkpt>
      <trkpt lat="43.09501" lon="-0.04925">
        <ele>408</ele>
        <time>2018-06-25T08:59:59.351Z</time>
      </trkpt>
      <trkpt lat="43.09506" lon="-0.04821">
        <ele>411</ele>
        <time>2018-06-25T09:00:00.351Z</time>
      </trkpt>
      <trkpt lat="43.0956" lon="-0.04638">
        <ele>407</ele>
        <time>2018-06-25T09:00:01.351Z</time>
      </trkpt>
      <trkpt lat="43.09594" lon="-0.04632">
        <ele>406</ele>
        <time>2018-06-25T09:00:02.351Z</time>
      </trkpt>
      <trkpt lat="43.09606" lon="-0.04662">
        <ele>405</ele>
        <time>2018-06-25T09:00:03.351Z</time>
      </trkpt>
      <trkpt lat="43.0974" lon="-0.04681">
        <ele>400</ele>
        <time>2018-06-25T09:00:04.351Z</time>
      </trkpt>
      <trkpt lat="43.09939" lon="-0.04616">
        <ele>406</ele>
        <time>2018-06-25T09:00:05.351Z</time>
      </trkpt>
      <trkpt lat="43.0985" lon="-0.04703">
        <ele>401</ele>
        <time>2018-06-25T09:00:06.351Z</time>
      </trkpt>
      <trkpt lat="43.09977" lon="-0.0525">
        <ele>400</ele>
        <time>2018-06-25T09:00:07.351Z</time>
      </trkpt>
      <trkpt lat="43.09957" lon="-0.05373">
        <ele>397</ele>
        <time>2018-06-25T09:00:08.351Z</time>
      </trkpt>
      <trkpt lat="43.10072" lon="-0.06621">
        <ele>380</ele>
        <time>2018-06-25T09:00:09.351Z</time>
      </trkpt>
      <trkpt lat="43.09944" lon="-0.06711">
        <ele>375</ele>
        <time>2018-06-25T09:00:10.351Z</time>
      </trkpt>
      <trkpt lat="43.09878" lon="-0.06926">
        <ele>375</ele>
        <time>2018-06-25T09:00:11.351Z</time>
      </trkpt>
      <trkpt lat="43.09794" lon="-0.06988">
        <ele>378</ele>
        <time>2018-06-25T09:00:12.351Z</time>
      </trkpt>
      <trkpt lat="43.09735" lon="-0.07093">
        <ele>376</ele>
        <time>2018-06-25T09:00:13.351Z</time>
      </trkpt>
      <trkpt lat="43.09704" lon="-0.07348">
        <ele>372</ele>
        <time>2018-06-25T09:00:14.351Z</time>
      </trkpt>
      <trkpt lat="43.09711" lon="-0.07485">
        <ele>380</ele>
        <time>2018-06-25T09:00:15.351Z</time>
      </trkpt>
      <trkpt lat="43.0981" lon="-0.07995">
        <ele>396</ele>
        <time>2018-06-25T09:00:16.351Z</time>
      </trkpt>
      <trkpt lat="43.09967" lon="-0.08328">
        <ele>382</ele>
        <time>2018-06-25T09:00:17.351Z</time>
      </trkpt>
      <trkpt lat="43.09998" lon="-0.0855">
        <ele>367</ele>
        <time>2018-06-25T09:00:18.351Z</time>
      </trkpt>
      <trkpt lat="43.09993" lon="-0.088">
        <ele>368</ele>
        <time>2018-06-25T09:00:19.351Z</time>
      </trkpt>
      <trkpt lat="43.09909" lon="-0.09388">
        <ele>380</ele>
        <time>2018-06-25T09:00:20.351Z</time>
      </trkpt>
      <trkpt lat="43.09925" lon="-0.09686">
        <ele>392</ele>
        <time>2018-06-25T09:00:21.351Z</time>
      </trkpt>
      <trkpt lat="43.10037" lon="-0.09947">
        <ele>384</ele>
        <time>2018-06-25T09:00:22.351Z</time>
      </trkpt>
      <trkpt lat="43.10099" lon="-0.10167">
        <ele>383</ele>
        <time>2018-06-25T09:00:23.351Z</time>
      </trkpt>
      <trkpt lat="43.10139" lon="-0.10545">
        <ele>389</ele>
        <time>2018-06-25T09:00:24.351Z</time>
      </trkpt>
      <trkpt lat="43.10248" lon="-0.11147">
        <ele>372</ele>
        <time>2018-06-25T09:00:25.351Z</time>
      </trkpt>
      <trkpt lat="43.10249" lon="-0.115">
        <ele>369</ele>
        <time>2018-06-25T09:00:26.351Z</time>
      </trkpt>
      <trkpt lat="43.10205" lon="-0.11892">
        <ele>364</ele>
        <time>2018-06-25T09:00:27.351Z</time>
      </trkpt>
      <trkpt lat="43.10134" lon="-0.12068">
        <ele>363</ele>
        <time>2018-06-25T09:00:28.351Z</time>
      </trkpt>
      <trkpt lat="43.10086" lon="-0.12311">
        <ele>372</ele>
        <time>2018-06-25T09:00:29.351Z</time>
      </trkpt>
      <trkpt lat="43.1" lon="-0.12466">
        <ele>368</ele>
        <time>2018-06-25T09:00:30.351Z</time>
      </trkpt>
      <trkpt lat="43.09825" lon="-0.126">
        <ele>374</ele>
        <time>2018-06-25T09:00:31.351Z</time>
      </trkpt>
      <trkpt lat="43.0978" lon="-0.12819">
        <ele>380</ele>
        <time>2018-06-25T09:00:32.351Z</time>
      </trkpt>
      <trkpt lat="43.09817" lon="-0.13059">
        <ele>382</ele>
        <time>2018-06-25T09:00:33.351Z</time>
      </trkpt>
      <trkpt lat="43.09946" lon="-0.1329">
        <ele>358</ele>
        <time>2018-06-25T09:00:34.351Z</time>
      </trkpt>
      <trkpt lat="43.10006" lon="-0.1347">
        <ele>359</ele>
        <time>2018-06-25T09:00:35.351Z</time>
      </trkpt>
      <trkpt lat="43.09946" lon="-0.13823">
        <ele>359</ele>
        <time>2018-06-25T09:00:36.351Z</time>
      </trkpt>
      <trkpt lat="43.10019" lon="-0.13858">
        <ele>358</ele>
        <time>2018-06-25T09:00:37.351Z</time>
      </trkpt>
      <trkpt lat="43.10027" lon="-0.14073">
        <ele>357</ele>
        <time>2018-06-25T09:00:38.351Z</time>
      </trkpt>
      <trkpt lat="43.10049" lon="-0.1409">
        <ele>358</ele>
        <time>2018-06-25T09:00:39.351Z</time>
      </trkpt>
      <trkpt lat="43.1006" lon="-0.14177">
        <ele>356</ele>
        <time>2018-06-25T09:00:40.351Z</time>
      </trkpt>
      <trkpt lat="43.10132" lon="-0.14192">
        <ele>353</ele>
        <time>2018-06-25T09:00:41.351Z</time>
      </trkpt>
      <trkpt lat="43.10266" lon="-0.14336">
        <ele>346</ele>
        <time>2018-06-25T09:00:42.351Z</time>
      </trkpt>
      <trkpt lat="43.10306" lon="-0.1442">
        <ele>359</ele>
        <time>2018-06-25T09:00:43.351Z</time>
      </trkpt>
      <trkpt lat="43.10282" lon="-0.14482">
        <ele>364</ele>
        <time>2018-06-25T09:00:44.351Z</time>
      </trkpt>
      <trkpt lat="43.10302" lon="-0.14505">
        <ele>370</ele>
        <time>2018-06-25T09:00:45.351Z</time>
      </trkpt>
      <trkpt lat="43.10329" lon="-0.14706">
        <ele>392</ele>
        <time>2018-06-25T09:00:46.351Z</time>
      </trkpt>
      <trkpt lat="43.10315" lon="-0.14834">
        <ele>398</ele>
        <time>2018-06-25T09:00:47.351Z</time>
      </trkpt>
      <trkpt lat="43.10328" lon="-0.14983">
        <ele>409</ele>
        <time>2018-06-25T09:00:48.351Z</time>
      </trkpt>
      <trkpt lat="43.10237" lon="-0.15107">
        <ele>408</ele>
        <time>2018-06-25T09:00:49.351Z</time>
      </trkpt>
      <trkpt lat="43.1015" lon="-0.15486">
        <ele>396</ele>
        <time>2018-06-25T09:00:50.351Z</time>
      </trkpt>
      <trkpt lat="43.10177" lon="-0.15718">
        <ele>371</ele>
        <time>2018-06-25T09:00:51.351Z</time>
      </trkpt>
      <trkpt lat="43.10215" lon="-0.15802">
        <ele>364</ele>
        <time>2018-06-25T09:00:52.351Z</time>
      </trkpt>
      <trkpt lat="43.10262" lon="-0.15828">
        <ele>363</ele>
        <time>2018-06-25T09:00:53.351Z</time>
      </trkpt>
      <trkpt lat="43.10473" lon="-0.15783">
        <ele>359</ele>
        <time>2018-06-25T09:00:54.351Z</time>
      </trkpt>
      <trkpt lat="43.10453" lon="-0.15884">
        <ele>356</ele>
        <time>2018-06-25T09:00:55.351Z</time>
      </trkpt>
      <trkpt lat="43.10429" lon="-0.15913">
        <ele>357</ele>
        <time>2018-06-25T09:00:56.351Z</time>
      </trkpt>
      <trkpt lat="43.10296" lon="-0.1592">
        <ele>358</ele>
        <time>2018-06-25T09:00:57.351Z</time>
      </trkpt>
      <trkpt lat="43.10162" lon="-0.15781">
        <ele>357</ele>
        <time>2018-06-25T09:00:58.351Z</time>
      </trkpt>
      <trkpt lat="43.10158" lon="-0.15878">
        <ele>347</ele>
        <time>2018-06-25T09:00:59.351Z</time>
      </trkpt>
      <trkpt lat="43.10262" lon="-0.16083">
        <ele>346</ele>
        <time>2018-06-25T09:01:00.351Z</time>
      </trkpt>
      <trkpt lat="43.10253" lon="-0.16194">
        <ele>339</ele>
        <time>2018-06-25T09:01:01.351Z</time>
      </trkpt>
      <trkpt lat="43.10215" lon="-0.16268">
        <ele>337</ele>
        <time>2018-06-25T09:01:02.351Z</time>
      </trkpt>
      <trkpt lat="43.10246" lon="-0.16372">
        <ele>340</ele>
        <time>2018-06-25T09:01:03.351Z</time>
      </trkpt>
      <trkpt lat="43.10232" lon="-0.16613">
        <ele>340</ele>
        <time>2018-06-25T09:01:04.351Z</time>
      </trkpt>
      <trkpt lat="43.10111" lon="-0.16595">
        <ele>337</ele>
        <time>2018-06-25T09:01:05.351Z</time>
      </trkpt>
      <trkpt lat="43.10017" lon="-0.16873">
        <ele>335</ele>
        <time>2018-06-25T09:01:06.351Z</time>
      </trkpt>
      <trkpt lat="43.09954" lon="-0.16996">
        <ele>334</ele>
        <time>2018-06-25T09:01:07.351Z</time>
      </trkpt>
      <trkpt lat="43.09908" lon="-0.17311">
        <ele>333</ele>
        <time>2018-06-25T09:01:08.351Z</time>
      </trkpt>
      <trkpt lat="43.09936" lon="-0.17456">
        <ele>347</ele>
        <time>2018-06-25T09:01:09.351Z</time>
      </trkpt>
      <trkpt lat="43.10027" lon="-0.17544">
        <ele>336</ele>
        <time>2018-06-25T09:01:10.351Z</time>
      </trkpt>
      <trkpt lat="43.10023" lon="-0.17701">
        <ele>362</ele>
        <time>2018-06-25T09:01:11.351Z</time>
      </trkpt>
      <trkpt lat="43.10068" lon="-0.17887">
        <ele>355</ele>
        <time>2018-06-25T09:01:12.351Z</time>
      </trkpt>
      <trkpt lat="43.10129" lon="-0.18031">
        <ele>350</ele>
        <time>2018-06-25T09:01:13.351Z</time>
      </trkpt>
      <trkpt lat="43.10208" lon="-0.18135">
        <ele>339</ele>
        <time>2018-06-25T09:01:14.351Z</time>
      </trkpt>
      <trkpt lat="43.10241" lon="-0.18234">
        <ele>336</ele>
        <time>2018-06-25T09:01:15.351Z</time>
      </trkpt>
      <trkpt lat="43.10225" lon="-0.18608">
        <ele>335</ele>
        <time>2018-06-25T09:01:16.351Z</time>
      </trkpt>
      <trkpt lat="43.10269" lon="-0.1876">
        <ele>327</ele>
        <time>2018-06-25T09:01:17.351Z</time>
      </trkpt>
      <trkpt lat="43.10414" lon="-0.18976">
        <ele>325</ele>
        <time>2018-06-25T09:01:18.351Z</time>
      </trkpt>
      <trkpt lat="43.10499" lon="-0.19189">
        <ele>336</ele>
        <time>2018-06-25T09:01:19.351Z</time>
      </trkpt>
      <trkpt lat="43.10815" lon="-0.19237">
        <ele>322</ele>
        <time>2018-06-25T09:01:20.351Z</time>
      </trkpt>
      <trkpt lat="43.10833" lon="-0.1926">
        <ele>321</ele>
        <time>2018-06-25T09:01:21.351Z</time>
      </trkpt>
      <trkpt lat="43.11207" lon="-0.19352">
        <ele>317</ele>
        <time>2018-06-25T09:01:22.351Z</time>
      </trkpt>
      <trkpt lat="43.11351" lon="-0.19469">
        <ele>316</ele>
        <time>2018-06-25T09:01:23.351Z</time>
      </trkpt>
      <trkpt lat="43.11592" lon="-0.19555">
        <ele>315</ele>
        <time>2018-06-25T09:01:24.351Z</time>
      </trkpt>
      <trkpt lat="43.11825" lon="-0.19884">
        <ele>314</ele>
        <time>2018-06-25T09:01:25.351Z</time>
      </trkpt>
      <trkpt lat="43.11902" lon="-0.20202">
        <ele>332</ele>
        <time>2018-06-25T09:01:26.351Z</time>
      </trkpt>
      <trkpt lat="43.11947" lon="-0.20297">
        <ele>336</ele>
        <time>2018-06-25T09:01:27.351Z</time>
      </trkpt>
      <trkpt lat="43.12312" lon="-0.20715">
        <ele>320</ele>
        <time>2018-06-25T09:01:28.351Z</time>
      </trkpt>
      <trkpt lat="43.12455" lon="-0.20747">
        <ele>313</ele>
        <time>2018-06-25T09:01:29.351Z</time>
      </trkpt>
      <trkpt lat="43.12532" lon="-0.20712">
        <ele>307</ele>
        <time>2018-06-25T09:01:30.351Z</time>
      </trkpt>
      <trkpt lat="43.12633" lon="-0.20714">
        <ele>304</ele>
        <time>2018-06-25T09:01:31.351Z</time>
      </trkpt>
      <trkpt lat="43.12905" lon="-0.20541">
        <ele>299</ele>
        <time>2018-06-25T09:01:32.351Z</time>
      </trkpt>
      <trkpt lat="43.12968" lon="-0.20534">
        <ele>301</ele>
        <time>2018-06-25T09:01:33.351Z</time>
      </trkpt>
      <trkpt lat="43.13034" lon="-0.20568">
        <ele>301</ele>
        <time>2018-06-25T09:01:34.351Z</time>
      </trkpt>
      <trkpt lat="43.13133" lon="-0.20698">
        <ele>298</ele>
        <time>2018-06-25T09:01:35.351Z</time>
      </trkpt>
      <trkpt lat="43.13197" lon="-0.20846">
        <ele>300</ele>
        <time>2018-06-25T09:01:36.351Z</time>
      </trkpt>
      <trkpt lat="43.13119" lon="-0.20968">
        <ele>306</ele>
        <time>2018-06-25T09:01:37.351Z</time>
      </trkpt>
      <trkpt lat="43.13162" lon="-0.21062">
        <ele>303</ele>
        <time>2018-06-25T09:01:38.351Z</time>
      </trkpt>
      <trkpt lat="43.13106" lon="-0.21209">
        <ele>300</ele>
        <time>2018-06-25T09:01:39.351Z</time>
      </trkpt>
      <trkpt lat="43.13024" lon="-0.21122">
        <ele>307</ele>
        <time>2018-06-25T09:01:40.351Z</time>
      </trkpt>
      <trkpt lat="43.12947" lon="-0.21289">
        <ele>310</ele>
        <time>2018-06-25T09:01:41.351Z</time>
      </trkpt>
      <trkpt lat="43.12931" lon="-0.215">
        <ele>315</ele>
        <time>2018-06-25T09:01:42.351Z</time>
      </trkpt>
      <trkpt lat="43.12857" lon="-0.2165">
        <ele>326</ele>
        <time>2018-06-25T09:01:43.351Z</time>
      </trkpt>
      <trkpt lat="43.12847" lon="-0.2188">
        <ele>344</ele>
        <time>2018-06-25T09:01:44.351Z</time>
      </trkpt>
      <trkpt lat="43.12713" lon="-0.21948">
        <ele>357</ele>
        <time>2018-06-25T09:01:45.351Z</time>
      </trkpt>
      <trkpt lat="43.12575" lon="-0.22228">
        <ele>371</ele>
        <time>2018-06-25T09:01:46.351Z</time>
      </trkpt>
      <trkpt lat="43.12579" lon="-0.22311">
        <ele>378</ele>
        <time>2018-06-25T09:01:47.351Z</time>
      </trkpt>
      <trkpt lat="43.12656" lon="-0.22357">
        <ele>365</ele>
        <time>2018-06-25T09:01:48.351Z</time>
      </trkpt>
      <trkpt lat="43.12759" lon="-0.22618">
        <ele>358</ele>
        <time>2018-06-25T09:01:49.351Z</time>
      </trkpt>
      <trkpt lat="43.12792" lon="-0.22757">
        <ele>353</ele>
        <time>2018-06-25T09:01:50.351Z</time>
      </trkpt>
      <trkpt lat="43.12747" lon="-0.22996">
        <ele>351</ele>
        <time>2018-06-25T09:01:51.351Z</time>
      </trkpt>
      <trkpt lat="43.12759" lon="-0.23033">
        <ele>351</ele>
        <time>2018-06-25T09:01:52.351Z</time>
      </trkpt>
      <trkpt lat="43.1274" lon="-0.23259">
        <ele>337</ele>
        <time>2018-06-25T09:01:53.351Z</time>
      </trkpt>
      <trkpt lat="43.1271" lon="-0.23319">
        <ele>333</ele>
        <time>2018-06-25T09:01:54.351Z</time>
      </trkpt>
      <trkpt lat="43.12641" lon="-0.23369">
        <ele>331</ele>
        <time>2018-06-25T09:01:55.351Z</time>
      </trkpt>
      <trkpt lat="43.12571" lon="-0.23344">
        <ele>330</ele>
        <time>2018-06-25T09:01:56.351Z</time>
      </trkpt>
      <trkpt lat="43.12527" lon="-0.23384">
        <ele>326</ele>
        <time>2018-06-25T09:01:57.351Z</time>
      </trkpt>
      <trkpt lat="43.12543" lon="-0.2343">
        <ele>326</ele>
        <time>2018-06-25T09:01:58.351Z</time>
      </trkpt>
      <trkpt lat="43.1251" lon="-0.2362">
        <ele>345</ele>
        <time>2018-06-25T09:01:59.351Z</time>
      </trkpt>
      <trkpt lat="43.12556" lon="-0.24087">
        <ele>366</ele>
        <time>2018-06-25T09:02:00.351Z</time>
      </trkpt>
      <trkpt lat="43.12516" lon="-0.24212">
        <ele>362</ele>
        <time>2018-06-25T09:02:01.351Z</time>
      </trkpt>
      <trkpt lat="43.12407" lon="-0.24426">
        <ele>356</ele>
        <time>2018-06-25T09:02:02.351Z</time>
      </trkpt>
      <trkpt lat="43.1224" lon="-0.2466">
        <ele>345</ele>
        <time>2018-06-25T09:02:03.351Z</time>
      </trkpt>
      <trkpt lat="43.1215" lon="-0.24728">
        <ele>334</ele>
        <time>2018-06-25T09:02:04.351Z</time>
      </trkpt>
      <trkpt lat="43.12289" lon="-0.24644">
        <ele>338</ele>
        <time>2018-06-25T09:02:05.351Z</time>
      </trkpt>
      <trkpt lat="43.12351" lon="-0.2465">
        <ele>329</ele>
        <time>2018-06-25T09:02:06.351Z</time>
      </trkpt>
      <trkpt lat="43.12402" lon="-0.24705">
        <ele>330</ele>
        <time>2018-06-25T09:02:07.351Z</time>
      </trkpt>
      <trkpt lat="43.1245" lon="-0.24851">
        <ele>325</ele>
        <time>2018-06-25T09:02:08.351Z</time>
      </trkpt>
      <trkpt lat="43.12506" lon="-0.24898">
        <ele>329</ele>
        <time>2018-06-25T09:02:09.351Z</time>
      </trkpt>
      <trkpt lat="43.12786" lon="-0.2492">
        <ele>319</ele>
        <time>2018-06-25T09:02:10.351Z</time>
      </trkpt>
      <trkpt lat="43.13494" lon="-0.2489">
        <ele>320</ele>
        <time>2018-06-25T09:02:11.351Z</time>
      </trkpt>
      <trkpt lat="43.13667" lon="-0.24949">
        <ele>315</ele>
        <time>2018-06-25T09:02:12.351Z</time>
      </trkpt>
      <trkpt lat="43.13832" lon="-0.24903">
        <ele>315</ele>
        <time>2018-06-25T09:02:13.351Z</time>
      </trkpt>
      <trkpt lat="43.13915" lon="-0.24932">
        <ele>313</ele>
        <time>2018-06-25T09:02:14.351Z</time>
      </trkpt>
      <trkpt lat="43.14041" lon="-0.25047">
        <ele>305</ele>
        <time>2018-06-25T09:02:15.351Z</time>
      </trkpt>
      <trkpt lat="43.14064" lon="-0.25037">
        <ele>305</ele>
        <time>2018-06-25T09:02:16.351Z</time>
      </trkpt>
      <trkpt lat="43.14072" lon="-0.25378">
        <ele>307</ele>
        <time>2018-06-25T09:02:17.351Z</time>
      </trkpt>
      <trkpt lat="43.14039" lon="-0.25497">
        <ele>322</ele>
        <time>2018-06-25T09:02:18.351Z</time>
      </trkpt>
      <trkpt lat="43.14095" lon="-0.25527">
        <ele>321</ele>
        <time>2018-06-25T09:02:19.351Z</time>
      </trkpt>
      <trkpt lat="43.14207" lon="-0.25713">
        <ele>325</ele>
        <time>2018-06-25T09:02:20.351Z</time>
      </trkpt>
      <trkpt lat="43.14255" lon="-0.2575">
        <ele>324</ele>
        <time>2018-06-25T09:02:21.351Z</time>
      </trkpt>
      <trkpt lat="43.14241" lon="-0.25772">
        <ele>325</ele>
        <time>2018-06-25T09:02:22.351Z</time>
      </trkpt>
      <trkpt lat="43.14085" lon="-0.25797">
        <ele>327</ele>
        <time>2018-06-25T09:02:23.351Z</time>
      </trkpt>
      <trkpt lat="43.14039" lon="-0.25899">
        <ele>329</ele>
        <time>2018-06-25T09:02:24.351Z</time>
      </trkpt>
      <trkpt lat="43.13884" lon="-0.25977">
        <ele>333</ele>
        <time>2018-06-25T09:02:25.351Z</time>
      </trkpt>
      <trkpt lat="43.13814" lon="-0.26044">
        <ele>334</ele>
        <time>2018-06-25T09:02:26.351Z</time>
      </trkpt>
      <trkpt lat="43.13775" lon="-0.2617">
        <ele>334</ele>
        <time>2018-06-25T09:02:27.351Z</time>
      </trkpt>
      <trkpt lat="43.13695" lon="-0.26315">
        <ele>334</ele>
        <time>2018-06-25T09:02:28.351Z</time>
      </trkpt>
      <trkpt lat="43.1353" lon="-0.26451">
        <ele>337</ele>
        <time>2018-06-25T09:02:29.351Z</time>
      </trkpt>
      <trkpt lat="43.13444" lon="-0.26695">
        <ele>344</ele>
        <time>2018-06-25T09:02:30.351Z</time>
      </trkpt>
      <trkpt lat="43.13411" lon="-0.26741">
        <ele>348</ele>
        <time>2018-06-25T09:02:31.351Z</time>
      </trkpt>
      <trkpt lat="43.13336" lon="-0.26714">
        <ele>343</ele>
        <time>2018-06-25T09:02:32.351Z</time>
      </trkpt>
      <trkpt lat="43.13265" lon="-0.26952">
        <ele>325</ele>
        <time>2018-06-25T09:02:33.351Z</time>
      </trkpt>
      <trkpt lat="43.13133" lon="-0.27108">
        <ele>315</ele>
        <time>2018-06-25T09:02:34.351Z</time>
      </trkpt>
      <trkpt lat="43.13148" lon="-0.27248">
        <ele>314</ele>
        <time>2018-06-25T09:02:35.351Z</time>
      </trkpt>
      <trkpt lat="43.13132" lon="-0.27355">
        <ele>313</ele>
        <time>2018-06-25T09:02:36.351Z</time>
      </trkpt>
      <trkpt lat="43.13145" lon="-0.27644">
        <ele>307</ele>
        <time>2018-06-25T09:02:37.351Z</time>
      </trkpt>
      <trkpt lat="43.13091" lon="-0.27875">
        <ele>314</ele>
        <time>2018-06-25T09:02:38.351Z</time>
      </trkpt>
      <trkpt lat="43.13023" lon="-0.28">
        <ele>311</ele>
        <time>2018-06-25T09:02:39.351Z</time>
      </trkpt>
      <trkpt lat="43.12888" lon="-0.28145">
        <ele>308</ele>
        <time>2018-06-25T09:02:40.351Z</time>
      </trkpt>
      <trkpt lat="43.12813" lon="-0.28178">
        <ele>309</ele>
        <time>2018-06-25T09:02:41.351Z</time>
      </trkpt>
      <trkpt lat="43.12515" lon="-0.28206">
        <ele>305</ele>
        <time>2018-06-25T09:02:42.351Z</time>
      </trkpt>
      <trkpt lat="43.12503" lon="-0.28279">
        <ele>306</ele>
        <time>2018-06-25T09:02:43.351Z</time>
      </trkpt>
      <trkpt lat="43.12558" lon="-0.28325">
        <ele>303</ele>
        <time>2018-06-25T09:02:44.351Z</time>
      </trkpt>
      <trkpt lat="43.12586" lon="-0.28399">
        <ele>305</ele>
        <time>2018-06-25T09:02:45.351Z</time>
      </trkpt>
      <trkpt lat="43.12598" lon="-0.28583">
        <ele>307</ele>
        <time>2018-06-25T09:02:46.351Z</time>
      </trkpt>
      <trkpt lat="43.12581" lon="-0.28652">
        <ele>309</ele>
        <time>2018-06-25T09:02:47.351Z</time>
      </trkpt>
      <trkpt lat="43.12609" lon="-0.28706">
        <ele>311</ele>
        <time>2018-06-25T09:02:48.351Z</time>
      </trkpt>
      <trkpt lat="43.12662" lon="-0.28716">
        <ele>309</ele>
        <time>2018-06-25T09:02:49.351Z</time>
      </trkpt>
      <trkpt lat="43.12695" lon="-0.2894">
        <ele>319</ele>
        <time>2018-06-25T09:02:50.351Z</time>
      </trkpt>
      <trkpt lat="43.12753" lon="-0.291">
        <ele>322</ele>
        <time>2018-06-25T09:02:51.351Z</time>
      </trkpt>
      <trkpt lat="43.12782" lon="-0.29266">
        <ele>316</ele>
        <time>2018-06-25T09:02:52.351Z</time>
      </trkpt>
      <trkpt lat="43.12891" lon="-0.29382">
        <ele>311</ele>
        <time>2018-06-25T09:02:53.351Z</time>
      </trkpt>
      <trkpt lat="43.1286" lon="-0.29466">
        <ele>320</ele>
        <time>2018-06-25T09:02:54.351Z</time>
      </trkpt>
      <trkpt lat="43.12919" lon="-0.29704">
        <ele>319</ele>
        <time>2018-06-25T09:02:55.351Z</time>
      </trkpt>
      <trkpt lat="43.12862" lon="-0.299">
        <ele>324</ele>
        <time>2018-06-25T09:02:56.351Z</time>
      </trkpt>
      <trkpt lat="43.12683" lon="-0.30053">
        <ele>318</ele>
        <time>2018-06-25T09:02:57.351Z</time>
      </trkpt>
      <trkpt lat="43.12618" lon="-0.30156">
        <ele>315</ele>
        <time>2018-06-25T09:02:58.351Z</time>
      </trkpt>
      <trkpt lat="43.1268" lon="-0.30222">
        <ele>311</ele>
        <time>2018-06-25T09:02:59.351Z</time>
      </trkpt>
      <trkpt lat="43.12704" lon="-0.30321">
        <ele>312</ele>
        <time>2018-06-25T09:03:00.351Z</time>
      </trkpt>
      <trkpt lat="43.12725" lon="-0.30474">
        <ele>314</ele>
        <time>2018-06-25T09:03:01.351Z</time>
      </trkpt>
      <trkpt lat="43.12714" lon="-0.30387">
        <ele>314</ele>
        <time>2018-06-25T09:03:02.351Z</time>
      </trkpt>
      <trkpt lat="43.12755" lon="-0.30752">
        <ele>320</ele>
        <time>2018-06-25T09:03:03.351Z</time>
      </trkpt>
      <trkpt lat="43.12744" lon="-0.30781">
        <ele>322</ele>
        <time>2018-06-25T09:03:04.351Z</time>
      </trkpt>
      <trkpt lat="43.127" lon="-0.30798">
        <ele>326</ele>
        <time>2018-06-25T09:03:05.351Z</time>
      </trkpt>
      <trkpt lat="43.1268" lon="-0.30915">
        <ele>334</ele>
        <time>2018-06-25T09:03:06.351Z</time>
      </trkpt>
      <trkpt lat="43.12748" lon="-0.3129">
        <ele>333</ele>
        <time>2018-06-25T09:03:07.351Z</time>
      </trkpt>
      <trkpt lat="43.12735" lon="-0.3134">
        <ele>331</ele>
        <time>2018-06-25T09:03:08.351Z</time>
      </trkpt>
      <trkpt lat="43.12594" lon="-0.31501">
        <ele>320</ele>
        <time>2018-06-25T09:03:09.351Z</time>
      </trkpt>
      <trkpt lat="43.12583" lon="-0.31581">
        <ele>319</ele>
        <time>2018-06-25T09:03:10.351Z</time>
      </trkpt>
      <trkpt lat="43.12599" lon="-0.31731">
        <ele>319</ele>
        <time>2018-06-25T09:03:11.351Z</time>
      </trkpt>
      <trkpt lat="43.12546" lon="-0.31903">
        <ele>320</ele>
        <time>2018-06-25T09:03:12.351Z</time>
      </trkpt>
      <trkpt lat="43.12572" lon="-0.32329">
        <ele>339</ele>
        <time>2018-06-25T09:03:13.351Z</time>
      </trkpt>
      <trkpt lat="43.1255" lon="-0.32629">
        <ele>347</ele>
        <time>2018-06-25T09:03:14.351Z</time>
      </trkpt>
      <trkpt lat="43.12615" lon="-0.32901">
        <ele>343</ele>
        <time>2018-06-25T09:03:15.351Z</time>
      </trkpt>
      <trkpt lat="43.12772" lon="-0.33141">
        <ele>346</ele>
        <time>2018-06-25T09:03:16.351Z</time>
      </trkpt>
      <trkpt lat="43.12718" lon="-0.33462">
        <ele>346</ele>
        <time>2018-06-25T09:03:17.351Z</time>
      </trkpt>
      <trkpt lat="43.12769" lon="-0.3378">
        <ele>345</ele>
        <time>2018-06-25T09:03:18.351Z</time>
      </trkpt>
      <trkpt lat="43.12768" lon="-0.33968">
        <ele>343</ele>
        <time>2018-06-25T09:03:19.351Z</time>
      </trkpt>
      <trkpt lat="43.12803" lon="-0.34069">
        <ele>346</ele>
        <time>2018-06-25T09:03:20.351Z</time>
      </trkpt>
      <trkpt lat="43.12839" lon="-0.34281">
        <ele>342</ele>
        <time>2018-06-25T09:03:21.351Z</time>
      </trkpt>
      <trkpt lat="43.13004" lon="-0.34718">
        <ele>344</ele>
        <time>2018-06-25T09:03:22.351Z</time>
      </trkpt>
      <trkpt lat="43.12984" lon="-0.3482">
        <ele>341</ele>
        <time>2018-06-25T09:03:23.351Z</time>
      </trkpt>
      <trkpt lat="43.13002" lon="-0.35077">
        <ele>346</ele>
        <time>2018-06-25T09:03:24.351Z</time>
      </trkpt>
      <trkpt lat="43.13027" lon="-0.3528">
        <ele>345</ele>
        <time>2018-06-25T09:03:25.351Z</time>
      </trkpt>
      <trkpt lat="43.1286" lon="-0.35308">
        <ele>343</ele>
        <time>2018-06-25T09:03:26.351Z</time>
      </trkpt>
      <trkpt lat="43.1287" lon="-0.35601">
        <ele>345</ele>
        <time>2018-06-25T09:03:27.351Z</time>
      </trkpt>
      <trkpt lat="43.12822" lon="-0.35871">
        <ele>349</ele>
        <time>2018-06-25T09:03:28.351Z</time>
      </trkpt>
      <trkpt lat="43.12871" lon="-0.35981">
        <ele>354</ele>
        <time>2018-06-25T09:03:29.351Z</time>
      </trkpt>
      <trkpt lat="43.12811" lon="-0.36165">
        <ele>356</ele>
        <time>2018-06-25T09:03:30.351Z</time>
      </trkpt>
      <trkpt lat="43.12788" lon="-0.36407">
        <ele>360</ele>
        <time>2018-06-25T09:03:31.351Z</time>
      </trkpt>
      <trkpt lat="43.12748" lon="-0.36458">
        <ele>359</ele>
        <time>2018-06-25T09:03:32.351Z</time>
      </trkpt>
      <trkpt lat="43.12733" lon="-0.36575">
        <ele>365</ele>
        <time>2018-06-25T09:03:33.351Z</time>
      </trkpt>
      <trkpt lat="43.1266" lon="-0.36707">
        <ele>366</ele>
        <time>2018-06-25T09:03:34.351Z</time>
      </trkpt>
      <trkpt lat="43.12551" lon="-0.36993">
        <ele>377</ele>
        <time>2018-06-25T09:03:35.351Z</time>
      </trkpt>
      <trkpt lat="43.12404" lon="-0.37124">
        <ele>367</ele>
        <time>2018-06-25T09:03:36.351Z</time>
      </trkpt>
      <trkpt lat="43.12395" lon="-0.37209">
        <ele>371</ele>
        <time>2018-06-25T09:03:37.351Z</time>
      </trkpt>
      <trkpt lat="43.12424" lon="-0.37256">
        <ele>375</ele>
        <time>2018-06-25T09:03:38.351Z</time>
      </trkpt>
      <trkpt lat="43.12491" lon="-0.37508">
        <ele>393</ele>
        <time>2018-06-25T09:03:39.351Z</time>
      </trkpt>
      <trkpt lat="43.12535" lon="-0.37591">
        <ele>402</ele>
        <time>2018-06-25T09:03:40.351Z</time>
      </trkpt>
      <trkpt lat="43.12561" lon="-0.37761">
        <ele>420</ele>
        <time>2018-06-25T09:03:41.351Z</time>
      </trkpt>
      <trkpt lat="43.12535" lon="-0.37807">
        <ele>427</ele>
        <time>2018-06-25T09:03:42.351Z</time>
      </trkpt>
      <trkpt lat="43.12524" lon="-0.37913">
        <ele>436</ele>
        <time>2018-06-25T09:03:43.351Z</time>
      </trkpt>
      <trkpt lat="43.12564" lon="-0.37949">
        <ele>433</ele>
        <time>2018-06-25T09:03:44.351Z</time>
      </trkpt>
      <trkpt lat="43.12607" lon="-0.37949">
        <ele>433</ele>
        <time>2018-06-25T09:03:45.351Z</time>
      </trkpt>
      <trkpt lat="43.12584" lon="-0.37999">
        <ele>436</ele>
        <time>2018-06-25T09:03:46.351Z</time>
      </trkpt>
      <trkpt lat="43.1245" lon="-0.38007">
        <ele>443</ele>
        <time>2018-06-25T09:03:47.351Z</time>
      </trkpt>
      <trkpt lat="43.12357" lon="-0.38135">
        <ele>447</ele>
        <time>2018-06-25T09:03:48.351Z</time>
      </trkpt>
      <trkpt lat="43.12337" lon="-0.38274">
        <ele>456</ele>
        <time>2018-06-25T09:03:49.351Z</time>
      </trkpt>
      <trkpt lat="43.12293" lon="-0.38333">
        <ele>458</ele>
        <time>2018-06-25T09:03:50.351Z</time>
      </trkpt>
      <trkpt lat="43.12246" lon="-0.38463">
        <ele>466</ele>
        <time>2018-06-25T09:03:51.351Z</time>
      </trkpt>
      <trkpt lat="43.12254" lon="-0.38693">
        <ele>467</ele>
        <time>2018-06-25T09:03:52.351Z</time>
      </trkpt>
      <trkpt lat="43.12186" lon="-0.38718">
        <ele>480</ele>
        <time>2018-06-25T09:03:53.351Z</time>
      </trkpt>
      <trkpt lat="43.12161" lon="-0.38763">
        <ele>483</ele>
        <time>2018-06-25T09:03:54.351Z</time>
      </trkpt>
      <trkpt lat="43.12178" lon="-0.38841">
        <ele>479</ele>
        <time>2018-06-25T09:03:55.351Z</time>
      </trkpt>
      <trkpt lat="43.12242" lon="-0.38931">
        <ele>478</ele>
        <time>2018-06-25T09:03:56.351Z</time>
      </trkpt>
      <trkpt lat="43.12245" lon="-0.39063">
        <ele>479</ele>
        <time>2018-06-25T09:03:57.351Z</time>
      </trkpt>
      <trkpt lat="43.12209" lon="-0.39103">
        <ele>479</ele>
        <time>2018-06-25T09:03:58.351Z</time>
      </trkpt>
      <trkpt lat="43.12046" lon="-0.39138">
        <ele>485</ele>
        <time>2018-06-25T09:03:59.351Z</time>
      </trkpt>
      <trkpt lat="43.11988" lon="-0.39271">
        <ele>478</ele>
        <time>2018-06-25T09:04:00.351Z</time>
      </trkpt>
      <trkpt lat="43.11871" lon="-0.39234">
        <ele>488</ele>
        <time>2018-06-25T09:04:01.351Z</time>
      </trkpt>
      <trkpt lat="43.11803" lon="-0.3925">
        <ele>484</ele>
        <time>2018-06-25T09:04:02.351Z</time>
      </trkpt>
      <trkpt lat="43.1167" lon="-0.39198">
        <ele>494</ele>
        <time>2018-06-25T09:04:03.351Z</time>
      </trkpt>
      <trkpt lat="43.1162" lon="-0.39239">
        <ele>491</ele>
        <time>2018-06-25T09:04:04.351Z</time>
      </trkpt>
      <trkpt lat="43.11508" lon="-0.39195">
        <ele>498</ele>
        <time>2018-06-25T09:04:05.351Z</time>
      </trkpt>
      <trkpt lat="43.11459" lon="-0.39215">
        <ele>497</ele>
        <time>2018-06-25T09:04:06.351Z</time>
      </trkpt>
      <trkpt lat="43.11443" lon="-0.3928">
        <ele>492</ele>
        <time>2018-06-25T09:04:07.351Z</time>
      </trkpt>
      <trkpt lat="43.11383" lon="-0.39345">
        <ele>491</ele>
        <time>2018-06-25T09:04:08.351Z</time>
      </trkpt>
      <trkpt lat="43.11328" lon="-0.39363">
        <ele>493</ele>
        <time>2018-06-25T09:04:09.351Z</time>
      </trkpt>
      <trkpt lat="43.11137" lon="-0.3978">
        <ele>496</ele>
        <time>2018-06-25T09:04:10.351Z</time>
      </trkpt>
      <trkpt lat="43.10839" lon="-0.39879">
        <ele>511</ele>
        <time>2018-06-25T09:04:11.351Z</time>
      </trkpt>
      <trkpt lat="43.10638" lon="-0.40144">
        <ele>525</ele>
        <time>2018-06-25T09:04:12.351Z</time>
      </trkpt>
      <trkpt lat="43.10593" lon="-0.40175">
        <ele>526</ele>
        <time>2018-06-25T09:04:13.351Z</time>
      </trkpt>
      <trkpt lat="43.10292" lon="-0.40235">
        <ele>535</ele>
        <time>2018-06-25T09:04:14.351Z</time>
      </trkpt>
      <trkpt lat="43.10273" lon="-0.40335">
        <ele>544</ele>
        <time>2018-06-25T09:04:15.351Z</time>
      </trkpt>
      <trkpt lat="43.10208" lon="-0.40372">
        <ele>544</ele>
        <time>2018-06-25T09:04:16.351Z</time>
      </trkpt>
      <trkpt lat="43.10174" lon="-0.40461">
        <ele>542</ele>
        <time>2018-06-25T09:04:17.351Z</time>
      </trkpt>
      <trkpt lat="43.10125" lon="-0.40505">
        <ele>535</ele>
        <time>2018-06-25T09:04:18.351Z</time>
      </trkpt>
      <trkpt lat="43.10125" lon="-0.406">
        <ele>530</ele>
        <time>2018-06-25T09:04:19.351Z</time>
      </trkpt>
      <trkpt lat="43.10237" lon="-0.40925">
        <ele>513</ele>
        <time>2018-06-25T09:04:20.351Z</time>
      </trkpt>
      <trkpt lat="43.10267" lon="-0.41124">
        <ele>491</ele>
        <time>2018-06-25T09:04:21.351Z</time>
      </trkpt>
      <trkpt lat="43.103" lon="-0.4115">
        <ele>486</ele>
        <time>2018-06-25T09:04:22.351Z</time>
      </trkpt>
      <trkpt lat="43.10482" lon="-0.41068">
        <ele>488</ele>
        <time>2018-06-25T09:04:23.351Z</time>
      </trkpt>
      <trkpt lat="43.10516" lon="-0.41074">
        <ele>486</ele>
        <time>2018-06-25T09:04:24.351Z</time>
      </trkpt>
      <trkpt lat="43.10632" lon="-0.4118">
        <ele>464</ele>
        <time>2018-06-25T09:04:25.351Z</time>
      </trkpt>
      <trkpt lat="43.10754" lon="-0.41164">
        <ele>457</ele>
        <time>2018-06-25T09:04:26.351Z</time>
      </trkpt>
      <trkpt lat="43.10892" lon="-0.4107">
        <ele>484</ele>
        <time>2018-06-25T09:04:27.351Z</time>
      </trkpt>
      <trkpt lat="43.11183" lon="-0.41073">
        <ele>481</ele>
        <time>2018-06-25T09:04:28.351Z</time>
      </trkpt>
      <trkpt lat="43.11326" lon="-0.41142">
        <ele>471</ele>
        <time>2018-06-25T09:04:29.351Z</time>
      </trkpt>
      <trkpt lat="43.11426" lon="-0.41126">
        <ele>477</ele>
        <time>2018-06-25T09:04:30.351Z</time>
      </trkpt>
      <trkpt lat="43.11468" lon="-0.41182">
        <ele>484</ele>
        <time>2018-06-25T09:04:31.351Z</time>
      </trkpt>
      <trkpt lat="43.11654" lon="-0.41152">
        <ele>516</ele>
        <time>2018-06-25T09:04:32.351Z</time>
      </trkpt>
      <trkpt lat="43.11845" lon="-0.41066">
        <ele>548</ele>
        <time>2018-06-25T09:04:33.351Z</time>
      </trkpt>
      <trkpt lat="43.11863" lon="-0.41196">
        <ele>562</ele>
        <time>2018-06-25T09:04:34.351Z</time>
      </trkpt>
      <trkpt lat="43.11889" lon="-0.41231">
        <ele>566</ele>
        <time>2018-06-25T09:04:35.351Z</time>
      </trkpt>
      <trkpt lat="43.12004" lon="-0.41284">
        <ele>566</ele>
        <time>2018-06-25T09:04:36.351Z</time>
      </trkpt>
      <trkpt lat="43.12046" lon="-0.41345">
        <ele>564</ele>
        <time>2018-06-25T09:04:37.351Z</time>
      </trkpt>
      <trkpt lat="43.12353" lon="-0.41403">
        <ele>547</ele>
        <time>2018-06-25T09:04:38.351Z</time>
      </trkpt>
      <trkpt lat="43.12413" lon="-0.41354">
        <ele>532</ele>
        <time>2018-06-25T09:04:39.351Z</time>
      </trkpt>
      <trkpt lat="43.12567" lon="-0.41492">
        <ele>520</ele>
        <time>2018-06-25T09:04:40.351Z</time>
      </trkpt>
      <trkpt lat="43.12738" lon="-0.41493">
        <ele>506</ele>
        <time>2018-06-25T09:04:41.351Z</time>
      </trkpt>
      <trkpt lat="43.12921" lon="-0.41552">
        <ele>506</ele>
        <time>2018-06-25T09:04:42.351Z</time>
      </trkpt>
      <trkpt lat="43.13279" lon="-0.41509">
        <ele>495</ele>
        <time>2018-06-25T09:04:43.351Z</time>
      </trkpt>
      <trkpt lat="43.13458" lon="-0.41543">
        <ele>492</ele>
        <time>2018-06-25T09:04:44.351Z</time>
      </trkpt>
      <trkpt lat="43.13893" lon="-0.41523">
        <ele>475</ele>
        <time>2018-06-25T09:04:45.351Z</time>
      </trkpt>
      <trkpt lat="43.14315" lon="-0.41741">
        <ele>465</ele>
        <time>2018-06-25T09:04:46.351Z</time>
      </trkpt>
      <trkpt lat="43.1527" lon="-0.42503">
        <ele>461</ele>
        <time>2018-06-25T09:04:47.351Z</time>
      </trkpt>
      <trkpt lat="43.15352" lon="-0.42521">
        <ele>457</ele>
        <time>2018-06-25T09:04:48.351Z</time>
      </trkpt>
      <trkpt lat="43.15484" lon="-0.42497">
        <ele>456</ele>
        <time>2018-06-25T09:04:49.351Z</time>
      </trkpt>
      <trkpt lat="43.15617" lon="-0.4251">
        <ele>451</ele>
        <time>2018-06-25T09:04:50.351Z</time>
      </trkpt>
      <trkpt lat="43.15984" lon="-0.42615">
        <ele>455</ele>
        <time>2018-06-25T09:04:51.351Z</time>
      </trkpt>
      <trkpt lat="43.16014" lon="-0.42625">
        <ele>458</ele>
        <time>2018-06-25T09:04:52.351Z</time>
      </trkpt>
      <trkpt lat="43.16017" lon="-0.42836">
        <ele>468</ele>
        <time>2018-06-25T09:04:53.351Z</time>
      </trkpt>
      <trkpt lat="43.15987" lon="-0.42892">
        <ele>469</ele>
        <time>2018-06-25T09:04:54.351Z</time>
      </trkpt>
      <trkpt lat="43.15953" lon="-0.43304">
        <ele>468</ele>
        <time>2018-06-25T09:04:55.351Z</time>
      </trkpt>
      <trkpt lat="43.1597" lon="-0.43436">
        <ele>471</ele>
        <time>2018-06-25T09:04:56.351Z</time>
      </trkpt>
      <trkpt lat="43.16034" lon="-0.43582">
        <ele>469</ele>
        <time>2018-06-25T09:04:57.351Z</time>
      </trkpt>
      <trkpt lat="43.16096" lon="-0.43853">
        <ele>465</ele>
        <time>2018-06-25T09:04:58.351Z</time>
      </trkpt>
      <trkpt lat="43.16092" lon="-0.43986">
        <ele>461</ele>
        <time>2018-06-25T09:04:59.351Z</time>
      </trkpt>
      <trkpt lat="43.16146" lon="-0.44243">
        <ele>450</ele>
        <time>2018-06-25T09:05:00.351Z</time>
      </trkpt>
      <trkpt lat="43.16255" lon="-0.44443">
        <ele>455</ele>
        <time>2018-06-25T09:05:01.351Z</time>
      </trkpt>
      <trkpt lat="43.16288" lon="-0.44719">
        <ele>450</ele>
        <time>2018-06-25T09:05:02.351Z</time>
      </trkpt>
      <trkpt lat="43.16258" lon="-0.45171">
        <ele>435</ele>
        <time>2018-06-25T09:05:03.351Z</time>
      </trkpt>
      <trkpt lat="43.16271" lon="-0.45423">
        <ele>430</ele>
        <time>2018-06-25T09:05:04.351Z</time>
      </trkpt>
      <trkpt lat="43.16334" lon="-0.45756">
        <ele>429</ele>
        <time>2018-06-25T09:05:05.351Z</time>
      </trkpt>
      <trkpt lat="43.16396" lon="-0.45927">
        <ele>433</ele>
        <time>2018-06-25T09:05:06.351Z</time>
      </trkpt>
      <trkpt lat="43.16504" lon="-0.46349">
        <ele>449</ele>
        <time>2018-06-25T09:05:07.351Z</time>
      </trkpt>
      <trkpt lat="43.16473" lon="-0.46438">
        <ele>453</ele>
        <time>2018-06-25T09:05:08.351Z</time>
      </trkpt>
      <trkpt lat="43.16449" lon="-0.46443">
        <ele>450</ele>
        <time>2018-06-25T09:05:09.351Z</time>
      </trkpt>
      <trkpt lat="43.1639" lon="-0.46534">
        <ele>444</ele>
        <time>2018-06-25T09:05:10.351Z</time>
      </trkpt>
      <trkpt lat="43.1632" lon="-0.4688">
        <ele>425</ele>
        <time>2018-06-25T09:05:11.351Z</time>
      </trkpt>
      <trkpt lat="43.16178" lon="-0.46657">
        <ele>398</ele>
        <time>2018-06-25T09:05:12.351Z</time>
      </trkpt>
      <trkpt lat="43.16134" lon="-0.4664">
        <ele>389</ele>
        <time>2018-06-25T09:05:13.351Z</time>
      </trkpt>
      <trkpt lat="43.16056" lon="-0.46791">
        <ele>370</ele>
        <time>2018-06-25T09:05:14.351Z</time>
      </trkpt>
      <trkpt lat="43.15992" lon="-0.46838">
        <ele>364</ele>
        <time>2018-06-25T09:05:15.351Z</time>
      </trkpt>
      <trkpt lat="43.15974" lon="-0.4688">
        <ele>363</ele>
        <time>2018-06-25T09:05:16.351Z</time>
      </trkpt>
      <trkpt lat="43.15758" lon="-0.47042">
        <ele>354</ele>
        <time>2018-06-25T09:05:17.351Z</time>
      </trkpt>
      <trkpt lat="43.1549" lon="-0.47121">
        <ele>351</ele>
        <time>2018-06-25T09:05:18.351Z</time>
      </trkpt>
      <trkpt lat="43.15396" lon="-0.47175">
        <ele>352</ele>
        <time>2018-06-25T09:05:19.351Z</time>
      </trkpt>
      <trkpt lat="43.15093" lon="-0.47533">
        <ele>366</ele>
        <time>2018-06-25T09:05:20.351Z</time>
      </trkpt>
      <trkpt lat="43.14908" lon="-0.47472">
        <ele>369</ele>
        <time>2018-06-25T09:05:21.351Z</time>
      </trkpt>
      <trkpt lat="43.14915" lon="-0.4755">
        <ele>367</ele>
        <time>2018-06-25T09:05:22.351Z</time>
      </trkpt>
      <trkpt lat="43.15027" lon="-0.47662">
        <ele>365</ele>
        <time>2018-06-25T09:05:23.351Z</time>
      </trkpt>
      <trkpt lat="43.15012" lon="-0.47721">
        <ele>365</ele>
        <time>2018-06-25T09:05:24.351Z</time>
      </trkpt>
      <trkpt lat="43.15055" lon="-0.47763">
        <ele>365</ele>
        <time>2018-06-25T09:05:25.351Z</time>
      </trkpt>
      <trkpt lat="43.14949" lon="-0.47872">
        <ele>366</ele>
        <time>2018-06-25T09:05:26.351Z</time>
      </trkpt>
      <trkpt lat="43.14909" lon="-0.47851">
        <ele>366</ele>
        <time>2018-06-25T09:05:27.351Z</time>
      </trkpt>
      <trkpt lat="43.14738" lon="-0.48121">
        <ele>362</ele>
        <time>2018-06-25T09:05:28.351Z</time>
      </trkpt>
      <trkpt lat="43.14758" lon="-0.48202">
        <ele>358</ele>
        <time>2018-06-25T09:05:29.351Z</time>
      </trkpt>
      <trkpt lat="43.1464" lon="-0.4811">
        <ele>347</ele>
        <time>2018-06-25T09:05:30.351Z</time>
      </trkpt>
      <trkpt lat="43.14596" lon="-0.48135">
        <ele>343</ele>
        <time>2018-06-25T09:05:31.351Z</time>
      </trkpt>
      <trkpt lat="43.14504" lon="-0.48106">
        <ele>340</ele>
        <time>2018-06-25T09:05:32.351Z</time>
      </trkpt>
      <trkpt lat="43.14356" lon="-0.4816">
        <ele>339</ele>
        <time>2018-06-25T09:05:33.351Z</time>
      </trkpt>
      <trkpt lat="43.14247" lon="-0.47987">
        <ele>342</ele>
        <time>2018-06-25T09:05:34.351Z</time>
      </trkpt>
      <trkpt lat="43.14198" lon="-0.47849">
        <ele>342</ele>
        <time>2018-06-25T09:05:35.351Z</time>
      </trkpt>
      <trkpt lat="43.14124" lon="-0.47893">
        <ele>341</ele>
        <time>2018-06-25T09:05:36.351Z</time>
      </trkpt>
      <trkpt lat="43.13974" lon="-0.4774">
        <ele>345</ele>
        <time>2018-06-25T09:05:37.351Z</time>
      </trkpt>
      <trkpt lat="43.13915" lon="-0.47738">
        <ele>345</ele>
        <time>2018-06-25T09:05:38.351Z</time>
      </trkpt>
      <trkpt lat="43.13884" lon="-0.47647">
        <ele>347</ele>
        <time>2018-06-25T09:05:39.351Z</time>
      </trkpt>
      <trkpt lat="43.13863" lon="-0.4764">
        <ele>347</ele>
        <time>2018-06-25T09:05:40.351Z</time>
      </trkpt>
      <trkpt lat="43.13801" lon="-0.47717">
        <ele>346</ele>
        <time>2018-06-25T09:05:41.351Z</time>
      </trkpt>
      <trkpt lat="43.1368" lon="-0.47727">
        <ele>346</ele>
        <time>2018-06-25T09:05:42.351Z</time>
      </trkpt>
      <trkpt lat="43.13587" lon="-0.47774">
        <ele>344</ele>
        <time>2018-06-25T09:05:43.351Z</time>
      </trkpt>
      <trkpt lat="43.13538" lon="-0.47857">
        <ele>345</ele>
        <time>2018-06-25T09:05:44.351Z</time>
      </trkpt>
      <trkpt lat="43.13613" lon="-0.48113">
        <ele>345</ele>
        <time>2018-06-25T09:05:45.351Z</time>
      </trkpt>
      <trkpt lat="43.13605" lon="-0.48232">
        <ele>348</ele>
        <time>2018-06-25T09:05:46.351Z</time>
      </trkpt>
      <trkpt lat="43.13665" lon="-0.48328">
        <ele>356</ele>
        <time>2018-06-25T09:05:47.351Z</time>
      </trkpt>
      <trkpt lat="43.13759" lon="-0.48658">
        <ele>344</ele>
        <time>2018-06-25T09:05:48.351Z</time>
      </trkpt>
      <trkpt lat="43.13819" lon="-0.48643">
        <ele>341</ele>
        <time>2018-06-25T09:05:49.351Z</time>
      </trkpt>
      <trkpt lat="43.13863" lon="-0.48757">
        <ele>338</ele>
        <time>2018-06-25T09:05:50.351Z</time>
      </trkpt>
      <trkpt lat="43.13966" lon="-0.48913">
        <ele>336</ele>
        <time>2018-06-25T09:05:51.351Z</time>
      </trkpt>
      <trkpt lat="43.14146" lon="-0.49268">
        <ele>332</ele>
        <time>2018-06-25T09:05:52.351Z</time>
      </trkpt>
      <trkpt lat="43.14297" lon="-0.49464">
        <ele>330</ele>
        <time>2018-06-25T09:05:53.351Z</time>
      </trkpt>
      <trkpt lat="43.14505" lon="-0.49833">
        <ele>326</ele>
        <time>2018-06-25T09:05:54.351Z</time>
      </trkpt>
      <trkpt lat="43.14614" lon="-0.5021">
        <ele>323</ele>
        <time>2018-06-25T09:05:55.351Z</time>
      </trkpt>
      <trkpt lat="43.14689" lon="-0.5033">
        <ele>321</ele>
        <time>2018-06-25T09:05:56.351Z</time>
      </trkpt>
      <trkpt lat="43.14722" lon="-0.50456">
        <ele>320</ele>
        <time>2018-06-25T09:05:57.351Z</time>
      </trkpt>
      <trkpt lat="43.14721" lon="-0.50534">
        <ele>319</ele>
        <time>2018-06-25T09:05:58.351Z</time>
      </trkpt>
      <trkpt lat="43.14642" lon="-0.50629">
        <ele>321</ele>
        <time>2018-06-25T09:05:59.351Z</time>
      </trkpt>
      <trkpt lat="43.14613" lon="-0.50708">
        <ele>321</ele>
        <time>2018-06-25T09:06:00.351Z</time>
      </trkpt>
      <trkpt lat="43.14529" lon="-0.5076">
        <ele>323</ele>
        <time>2018-06-25T09:06:01.351Z</time>
      </trkpt>
      <trkpt lat="43.14457" lon="-0.50717">
        <ele>326</ele>
        <time>2018-06-25T09:06:02.351Z</time>
      </trkpt>
      <trkpt lat="43.14412" lon="-0.50753">
        <ele>331</ele>
        <time>2018-06-25T09:06:03.351Z</time>
      </trkpt>
      <trkpt lat="43.14374" lon="-0.51">
        <ele>350</ele>
        <time>2018-06-25T09:06:04.351Z</time>
      </trkpt>
      <trkpt lat="43.14282" lon="-0.5119">
        <ele>349</ele>
        <time>2018-06-25T09:06:05.351Z</time>
      </trkpt>
      <trkpt lat="43.14288" lon="-0.51301">
        <ele>348</ele>
        <time>2018-06-25T09:06:06.351Z</time>
      </trkpt>
      <trkpt lat="43.14326" lon="-0.51449">
        <ele>346</ele>
        <time>2018-06-25T09:06:07.351Z</time>
      </trkpt>
      <trkpt lat="43.14547" lon="-0.51848">
        <ele>342</ele>
        <time>2018-06-25T09:06:08.351Z</time>
      </trkpt>
      <trkpt lat="43.14677" lon="-0.51928">
        <ele>342</ele>
        <time>2018-06-25T09:06:09.351Z</time>
      </trkpt>
      <trkpt lat="43.14717" lon="-0.5199">
        <ele>344</ele>
        <time>2018-06-25T09:06:10.351Z</time>
      </trkpt>
      <trkpt lat="43.14695" lon="-0.52243">
        <ele>340</ele>
        <time>2018-06-25T09:06:11.351Z</time>
      </trkpt>
      <trkpt lat="43.14699" lon="-0.52555">
        <ele>332</ele>
        <time>2018-06-25T09:06:12.351Z</time>
      </trkpt>
      <trkpt lat="43.14788" lon="-0.5284">
        <ele>329</ele>
        <time>2018-06-25T09:06:13.351Z</time>
      </trkpt>
      <trkpt lat="43.14961" lon="-0.5315">
        <ele>329</ele>
        <time>2018-06-25T09:06:14.351Z</time>
      </trkpt>
      <trkpt lat="43.15016" lon="-0.53195">
        <ele>329</ele>
        <time>2018-06-25T09:06:15.351Z</time>
      </trkpt>
      <trkpt lat="43.15207" lon="-0.53121">
        <ele>325</ele>
        <time>2018-06-25T09:06:16.351Z</time>
      </trkpt>
      <trkpt lat="43.15285" lon="-0.53035">
        <ele>328</ele>
        <time>2018-06-25T09:06:17.351Z</time>
      </trkpt>
      <trkpt lat="43.15305" lon="-0.53214">
        <ele>326</ele>
        <time>2018-06-25T09:06:18.351Z</time>
      </trkpt>
      <trkpt lat="43.15354" lon="-0.53301">
        <ele>326</ele>
        <time>2018-06-25T09:06:19.351Z</time>
      </trkpt>
      <trkpt lat="43.15264" lon="-0.53334">
        <ele>325</ele>
        <time>2018-06-25T09:06:20.351Z</time>
      </trkpt>
      <trkpt lat="43.15165" lon="-0.53429">
        <ele>327</ele>
        <time>2018-06-25T09:06:21.351Z</time>
      </trkpt>
      <trkpt lat="43.15049" lon="-0.53602">
        <ele>328</ele>
        <time>2018-06-25T09:06:22.351Z</time>
      </trkpt>
      <trkpt lat="43.15005" lon="-0.53708">
        <ele>333</ele>
        <time>2018-06-25T09:06:23.351Z</time>
      </trkpt>
      <trkpt lat="43.14998" lon="-0.53929">
        <ele>342</ele>
        <time>2018-06-25T09:06:24.351Z</time>
      </trkpt>
      <trkpt lat="43.1502" lon="-0.54094">
        <ele>334</ele>
        <time>2018-06-25T09:06:25.351Z</time>
      </trkpt>
      <trkpt lat="43.14912" lon="-0.54169">
        <ele>321</ele>
        <time>2018-06-25T09:06:26.351Z</time>
      </trkpt>
      <trkpt lat="43.1483" lon="-0.54115">
        <ele>311</ele>
        <time>2018-06-25T09:06:27.351Z</time>
      </trkpt>
      <trkpt lat="43.14788" lon="-0.54115">
        <ele>308</ele>
        <time>2018-06-25T09:06:28.351Z</time>
      </trkpt>
      <trkpt lat="43.14518" lon="-0.54465">
        <ele>300</ele>
        <time>2018-06-25T09:06:29.351Z</time>
      </trkpt>
      <trkpt lat="43.14512" lon="-0.54564">
        <ele>305</ele>
        <time>2018-06-25T09:06:30.351Z</time>
      </trkpt>
      <trkpt lat="43.14487" lon="-0.54619">
        <ele>307</ele>
        <time>2018-06-25T09:06:31.351Z</time>
      </trkpt>
      <trkpt lat="43.14422" lon="-0.54661">
        <ele>308</ele>
        <time>2018-06-25T09:06:32.351Z</time>
      </trkpt>
      <trkpt lat="43.14391" lon="-0.54785">
        <ele>310</ele>
        <time>2018-06-25T09:06:33.351Z</time>
      </trkpt>
      <trkpt lat="43.14443" lon="-0.54985">
        <ele>307</ele>
        <time>2018-06-25T09:06:34.351Z</time>
      </trkpt>
      <trkpt lat="43.14544" lon="-0.55066">
        <ele>297</ele>
        <time>2018-06-25T09:06:35.351Z</time>
      </trkpt>
      <trkpt lat="43.14561" lon="-0.55228">
        <ele>278</ele>
        <time>2018-06-25T09:06:36.351Z</time>
      </trkpt>
      <trkpt lat="43.14616" lon="-0.55331">
        <ele>270</ele>
        <time>2018-06-25T09:06:37.351Z</time>
      </trkpt>
      <trkpt lat="43.14659" lon="-0.55609">
        <ele>274</ele>
        <time>2018-06-25T09:06:38.351Z</time>
      </trkpt>
      <trkpt lat="43.14633" lon="-0.55773">
        <ele>270</ele>
        <time>2018-06-25T09:06:39.351Z</time>
      </trkpt>
      <trkpt lat="43.14653" lon="-0.55832">
        <ele>269</ele>
        <time>2018-06-25T09:06:40.351Z</time>
      </trkpt>
      <trkpt lat="43.14728" lon="-0.55912">
        <ele>269</ele>
        <time>2018-06-25T09:06:41.351Z</time>
      </trkpt>
      <trkpt lat="43.14827" lon="-0.55926">
        <ele>268</ele>
        <time>2018-06-25T09:06:42.351Z</time>
      </trkpt>
      <trkpt lat="43.1505" lon="-0.55905">
        <ele>263</ele>
        <time>2018-06-25T09:06:43.351Z</time>
      </trkpt>
      <trkpt lat="43.15254" lon="-0.56025">
        <ele>265</ele>
        <time>2018-06-25T09:06:44.351Z</time>
      </trkpt>
      <trkpt lat="43.15636" lon="-0.56426">
        <ele>257</ele>
        <time>2018-06-25T09:06:45.351Z</time>
      </trkpt>
      <trkpt lat="43.15807" lon="-0.56409">
        <ele>256</ele>
        <time>2018-06-25T09:06:46.351Z</time>
      </trkpt>
      <trkpt lat="43.15852" lon="-0.56473">
        <ele>256</ele>
        <time>2018-06-25T09:06:47.351Z</time>
      </trkpt>
      <trkpt lat="43.15877" lon="-0.566">
        <ele>255</ele>
        <time>2018-06-25T09:06:48.351Z</time>
      </trkpt>
      <trkpt lat="43.15986" lon="-0.5677">
        <ele>261</ele>
        <time>2018-06-25T09:06:49.351Z</time>
      </trkpt>
      <trkpt lat="43.16065" lon="-0.57051">
        <ele>254</ele>
        <time>2018-06-25T09:06:50.351Z</time>
      </trkpt>
      <trkpt lat="43.16111" lon="-0.57108">
        <ele>252</ele>
        <time>2018-06-25T09:06:51.351Z</time>
      </trkpt>
      <trkpt lat="43.16212" lon="-0.57126">
        <ele>253</ele>
        <time>2018-06-25T09:06:52.351Z</time>
      </trkpt>
      <trkpt lat="43.1636" lon="-0.57038">
        <ele>256</ele>
        <time>2018-06-25T09:06:53.351Z</time>
      </trkpt>
      <trkpt lat="43.16386" lon="-0.56988">
        <ele>261</ele>
        <time>2018-06-25T09:06:54.351Z</time>
      </trkpt>
      <trkpt lat="43.16651" lon="-0.56994">
        <ele>253</ele>
        <time>2018-06-25T09:06:55.351Z</time>
      </trkpt>
      <trkpt lat="43.1676" lon="-0.57044">
        <ele>256</ele>
        <time>2018-06-25T09:06:56.351Z</time>
      </trkpt>
      <trkpt lat="43.16806" lon="-0.57128">
        <ele>254</ele>
        <time>2018-06-25T09:06:57.351Z</time>
      </trkpt>
      <trkpt lat="43.16822" lon="-0.57236">
        <ele>248</ele>
        <time>2018-06-25T09:06:58.351Z</time>
      </trkpt>
      <trkpt lat="43.16765" lon="-0.57277">
        <ele>243</ele>
        <time>2018-06-25T09:06:59.351Z</time>
      </trkpt>
      <trkpt lat="43.16755" lon="-0.57371">
        <ele>241</ele>
        <time>2018-06-25T09:07:00.351Z</time>
      </trkpt>
      <trkpt lat="43.1679" lon="-0.57601">
        <ele>248</ele>
        <time>2018-06-25T09:07:01.351Z</time>
      </trkpt>
      <trkpt lat="43.16865" lon="-0.57658">
        <ele>246</ele>
        <time>2018-06-25T09:07:02.351Z</time>
      </trkpt>
      <trkpt lat="43.17104" lon="-0.57653">
        <ele>246</ele>
        <time>2018-06-25T09:07:03.351Z</time>
      </trkpt>
      <trkpt lat="43.17173" lon="-0.5769">
        <ele>248</ele>
        <time>2018-06-25T09:07:04.351Z</time>
      </trkpt>
      <trkpt lat="43.17255" lon="-0.57818">
        <ele>249</ele>
        <time>2018-06-25T09:07:05.351Z</time>
      </trkpt>
      <trkpt lat="43.1742" lon="-0.58472">
        <ele>244</ele>
        <time>2018-06-25T09:07:06.351Z</time>
      </trkpt>
      <trkpt lat="43.17424" lon="-0.58905">
        <ele>252</ele>
        <time>2018-06-25T09:07:07.351Z</time>
      </trkpt>
      <trkpt lat="43.17471" lon="-0.59167">
        <ele>257</ele>
        <time>2018-06-25T09:07:08.351Z</time>
      </trkpt>
      <trkpt lat="43.17559" lon="-0.59247">
        <ele>254</ele>
        <time>2018-06-25T09:07:09.351Z</time>
      </trkpt>
      <trkpt lat="43.17602" lon="-0.59421">
        <ele>270</ele>
        <time>2018-06-25T09:07:10.351Z</time>
      </trkpt>
      <trkpt lat="43.17581" lon="-0.59471">
        <ele>273</ele>
        <time>2018-06-25T09:07:11.351Z</time>
      </trkpt>
      <trkpt lat="43.17597" lon="-0.59505">
        <ele>272</ele>
        <time>2018-06-25T09:07:12.351Z</time>
      </trkpt>
      <trkpt lat="43.1774" lon="-0.59589">
        <ele>268</ele>
        <time>2018-06-25T09:07:13.351Z</time>
      </trkpt>
      <trkpt lat="43.17884" lon="-0.59716">
        <ele>275</ele>
        <time>2018-06-25T09:07:14.351Z</time>
      </trkpt>
      <trkpt lat="43.17966" lon="-0.5986">
        <ele>280</ele>
        <time>2018-06-25T09:07:15.351Z</time>
      </trkpt>
      <trkpt lat="43.18265" lon="-0.59859">
        <ele>279</ele>
        <time>2018-06-25T09:07:16.351Z</time>
      </trkpt>
      <trkpt lat="43.18431" lon="-0.59917">
        <ele>280</ele>
        <time>2018-06-25T09:07:17.351Z</time>
      </trkpt>
      <trkpt lat="43.18854" lon="-0.60388">
        <ele>264</ele>
        <time>2018-06-25T09:07:18.351Z</time>
      </trkpt>
      <trkpt lat="43.18895" lon="-0.60501">
        <ele>267</ele>
        <time>2018-06-25T09:07:19.351Z</time>
      </trkpt>
      <trkpt lat="43.18926" lon="-0.60542">
        <ele>269</ele>
        <time>2018-06-25T09:07:20.351Z</time>
      </trkpt>
      <trkpt lat="43.18925" lon="-0.60621">
        <ele>271</ele>
        <time>2018-06-25T09:07:21.351Z</time>
      </trkpt>
      <trkpt lat="43.1898" lon="-0.60666">
        <ele>264</ele>
        <time>2018-06-25T09:07:22.351Z</time>
      </trkpt>
      <trkpt lat="43.18964" lon="-0.60717">
        <ele>259</ele>
        <time>2018-06-25T09:07:23.351Z</time>
      </trkpt>
      <trkpt lat="43.19023" lon="-0.60745">
        <ele>250</ele>
        <time>2018-06-25T09:07:24.351Z</time>
      </trkpt>
      <trkpt lat="43.19056" lon="-0.60694">
        <ele>250</ele>
        <time>2018-06-25T09:07:25.351Z</time>
      </trkpt>
      <trkpt lat="43.19086" lon="-0.60698">
        <ele>244</ele>
        <time>2018-06-25T09:07:26.351Z</time>
      </trkpt>
      <trkpt lat="43.19089" lon="-0.60713">
        <ele>241</ele>
        <time>2018-06-25T09:07:27.351Z</time>
      </trkpt>
      <trkpt lat="43.19229" lon="-0.60704">
        <ele>222</ele>
        <time>2018-06-25T09:07:28.351Z</time>
      </trkpt>
      <trkpt lat="43.19228" lon="-0.60698">
        <ele>223</ele>
        <time>2018-06-25T09:07:29.351Z</time>
      </trkpt>
      <trkpt lat="43.19249" lon="-0.60624">
        <ele>220</ele>
        <time>2018-06-25T09:07:30.351Z</time>
      </trkpt>
      <trkpt lat="43.19334" lon="-0.60485">
        <ele>225</ele>
        <time>2018-06-25T09:07:31.351Z</time>
      </trkpt>
      <trkpt lat="43.19321" lon="-0.60438">
        <ele>229</ele>
        <time>2018-06-25T09:07:32.351Z</time>
      </trkpt>
      <trkpt lat="43.19357" lon="-0.60397">
        <ele>234</ele>
        <time>2018-06-25T09:07:33.351Z</time>
      </trkpt>
      <trkpt lat="43.19457" lon="-0.60444">
        <ele>234</ele>
        <time>2018-06-25T09:07:34.351Z</time>
      </trkpt>
      <trkpt lat="43.19559" lon="-0.60404">
        <ele>237</ele>
        <time>2018-06-25T09:07:35.351Z</time>
      </trkpt>
      <trkpt lat="43.19757" lon="-0.60412">
        <ele>231</ele>
        <time>2018-06-25T09:07:36.351Z</time>
      </trkpt>
      <trkpt lat="43.19781" lon="-0.60443">
        <ele>231</ele>
        <time>2018-06-25T09:07:37.351Z</time>
      </trkpt>
      <trkpt lat="43.20273" lon="-0.6041">
        <ele>227</ele>
        <time>2018-06-25T09:07:38.351Z</time>
      </trkpt>
      <trkpt lat="43.20334" lon="-0.60441">
        <ele>223</ele>
        <time>2018-06-25T09:07:39.351Z</time>
      </trkpt>
      <trkpt lat="43.2041" lon="-0.60605">
        <ele>221</ele>
        <time>2018-06-25T09:07:40.351Z</time>
      </trkpt>
      <trkpt lat="43.20191" lon="-0.61014">
        <ele>216</ele>
        <time>2018-06-25T09:07:41.351Z</time>
      </trkpt>
      <trkpt lat="43.20253" lon="-0.6125">
        <ele>215</ele>
        <time>2018-06-25T09:07:42.351Z</time>
      </trkpt>
      <trkpt lat="43.20411" lon="-0.61641">
        <ele>213</ele>
        <time>2018-06-25T09:07:43.351Z</time>
      </trkpt>
      <trkpt lat="43.20473" lon="-0.61732">
        <ele>211</ele>
        <time>2018-06-25T09:07:44.351Z</time>
      </trkpt>
      <trkpt lat="43.20627" lon="-0.6207">
        <ele>207</ele>
        <time>2018-06-25T09:07:45.351Z</time>
      </trkpt>
      <trkpt lat="43.20742" lon="-0.6215">
        <ele>209</ele>
        <time>2018-06-25T09:07:46.351Z</time>
      </trkpt>
      <trkpt lat="43.2084" lon="-0.62265">
        <ele>208</ele>
        <time>2018-06-25T09:07:47.351Z</time>
      </trkpt>
      <trkpt lat="43.20946" lon="-0.62468">
        <ele>207</ele>
        <time>2018-06-25T09:07:48.351Z</time>
      </trkpt>
      <trkpt lat="43.21023" lon="-0.62503">
        <ele>208</ele>
        <time>2018-06-25T09:07:49.351Z</time>
      </trkpt>
      <trkpt lat="43.21139" lon="-0.62604">
        <ele>207</ele>
        <time>2018-06-25T09:07:50.351Z</time>
      </trkpt>
      <trkpt lat="43.21235" lon="-0.62616">
        <ele>208</ele>
        <time>2018-06-25T09:07:51.351Z</time>
      </trkpt>
      <trkpt lat="43.21344" lon="-0.62899">
        <ele>207</ele>
        <time>2018-06-25T09:07:52.351Z</time>
      </trkpt>
      <trkpt lat="43.21347" lon="-0.62861">
        <ele>208</ele>
        <time>2018-06-25T09:07:53.351Z</time>
      </trkpt>
      <trkpt lat="43.21478" lon="-0.62922">
        <ele>207</ele>
        <time>2018-06-25T09:07:54.351Z</time>
      </trkpt>
      <trkpt lat="43.21574" lon="-0.63103">
        <ele>207</ele>
        <time>2018-06-25T09:07:55.351Z</time>
      </trkpt>
      <trkpt lat="43.21621" lon="-0.63247">
        <ele>206</ele>
        <time>2018-06-25T09:07:56.351Z</time>
      </trkpt>
      <trkpt lat="43.21725" lon="-0.63375">
        <ele>204</ele>
        <time>2018-06-25T09:07:57.351Z</time>
      </trkpt>
      <trkpt lat="43.21757" lon="-0.63381">
        <ele>204</ele>
        <time>2018-06-25T09:07:58.351Z</time>
      </trkpt>
      <trkpt lat="43.21845" lon="-0.63568">
        <ele>201</ele>
        <time>2018-06-25T09:07:59.351Z</time>
      </trkpt>
      <trkpt lat="43.2193" lon="-0.63676">
        <ele>200</ele>
        <time>2018-06-25T09:08:00.351Z</time>
      </trkpt>
      <trkpt lat="43.2205" lon="-0.63907">
        <ele>201</ele>
        <time>2018-06-25T09:08:01.351Z</time>
      </trkpt>
      <trkpt lat="43.22433" lon="-0.64319">
        <ele>204</ele>
        <time>2018-06-25T09:08:02.351Z</time>
      </trkpt>
      <trkpt lat="43.22525" lon="-0.64464">
        <ele>206</ele>
        <time>2018-06-25T09:08:03.351Z</time>
      </trkpt>
      <trkpt lat="43.22616" lon="-0.64514">
        <ele>205</ele>
        <time>2018-06-25T09:08:04.351Z</time>
      </trkpt>
      <trkpt lat="43.22619" lon="-0.64494">
        <ele>205</ele>
        <time>2018-06-25T09:08:05.351Z</time>
      </trkpt>
      <trkpt lat="43.22647" lon="-0.64506">
        <ele>205</ele>
        <time>2018-06-25T09:08:06.351Z</time>
      </trkpt>
      <trkpt lat="43.22698" lon="-0.64665">
        <ele>202</ele>
        <time>2018-06-25T09:08:07.351Z</time>
      </trkpt>
      <trkpt lat="43.23019" lon="-0.65037">
        <ele>202</ele>
        <time>2018-06-25T09:08:08.351Z</time>
      </trkpt>
      <trkpt lat="43.23248" lon="-0.65509">
        <ele>196</ele>
        <time>2018-06-25T09:08:09.351Z</time>
      </trkpt>
      <trkpt lat="43.2355" lon="-0.65908">
        <ele>190</ele>
        <time>2018-06-25T09:08:10.351Z</time>
      </trkpt>
      <trkpt lat="43.23721" lon="-0.66038">
        <ele>194</ele>
        <time>2018-06-25T09:08:11.351Z</time>
      </trkpt>
      <trkpt lat="43.23772" lon="-0.66128">
        <ele>188</ele>
        <time>2018-06-25T09:08:12.351Z</time>
      </trkpt>
      <trkpt lat="43.23798" lon="-0.66267">
        <ele>179</ele>
        <time>2018-06-25T09:08:13.351Z</time>
      </trkpt>
      <trkpt lat="43.24022" lon="-0.66577">
        <ele>177</ele>
        <time>2018-06-25T09:08:14.351Z</time>
      </trkpt>
      <trkpt lat="43.24124" lon="-0.66762">
        <ele>181</ele>
        <time>2018-06-25T09:08:15.351Z</time>
      </trkpt>
      <trkpt lat="43.24096" lon="-0.66801">
        <ele>176</ele>
        <time>2018-06-25T09:08:16.351Z</time>
      </trkpt>
      <trkpt lat="43.24147" lon="-0.6691">
        <ele>174</ele>
        <time>2018-06-25T09:08:17.351Z</time>
      </trkpt>
      <trkpt lat="43.24301" lon="-0.67126">
        <ele>178</ele>
        <time>2018-06-25T09:08:18.351Z</time>
      </trkpt>
      <trkpt lat="43.24299" lon="-0.67221">
        <ele>172</ele>
        <time>2018-06-25T09:08:19.351Z</time>
      </trkpt>
      <trkpt lat="43.24328" lon="-0.67309">
        <ele>170</ele>
        <time>2018-06-25T09:08:20.351Z</time>
      </trkpt>
      <trkpt lat="43.24584" lon="-0.67556">
        <ele>176</ele>
        <time>2018-06-25T09:08:21.351Z</time>
      </trkpt>
      <trkpt lat="43.24727" lon="-0.67585">
        <ele>173</ele>
        <time>2018-06-25T09:08:22.351Z</time>
      </trkpt>
      <trkpt lat="43.24725" lon="-0.67589">
        <ele>173</ele>
        <time>2018-06-25T09:08:23.351Z</time>
      </trkpt>
      <trkpt lat="43.24852" lon="-0.67477">
        <ele>194</ele>
        <time>2018-06-25T09:08:24.351Z</time>
      </trkpt>
      <trkpt lat="43.25049" lon="-0.67431">
        <ele>203</ele>
        <time>2018-06-25T09:08:25.351Z</time>
      </trkpt>
      <trkpt lat="43.25242" lon="-0.67476">
        <ele>191</ele>
        <time>2018-06-25T09:08:26.351Z</time>
      </trkpt>
      <trkpt lat="43.25323" lon="-0.67443">
        <ele>202</ele>
        <time>2018-06-25T09:08:27.351Z</time>
      </trkpt>
      <trkpt lat="43.25326" lon="-0.67368">
        <ele>212</ele>
        <time>2018-06-25T09:08:28.351Z</time>
      </trkpt>
      <trkpt lat="43.25359" lon="-0.67344">
        <ele>213</ele>
        <time>2018-06-25T09:08:29.351Z</time>
      </trkpt>
      <trkpt lat="43.25492" lon="-0.67375">
        <ele>207</ele>
        <time>2018-06-25T09:08:30.351Z</time>
      </trkpt>
      <trkpt lat="43.2557" lon="-0.67486">
        <ele>202</ele>
        <time>2018-06-25T09:08:31.351Z</time>
      </trkpt>
      <trkpt lat="43.25606" lon="-0.67495">
        <ele>197</ele>
        <time>2018-06-25T09:08:32.351Z</time>
      </trkpt>
      <trkpt lat="43.25636" lon="-0.67607">
        <ele>181</ele>
        <time>2018-06-25T09:08:33.351Z</time>
      </trkpt>
      <trkpt lat="43.25758" lon="-0.67582">
        <ele>185</ele>
        <time>2018-06-25T09:08:34.351Z</time>
      </trkpt>
      <trkpt lat="43.25834" lon="-0.67421">
        <ele>208</ele>
        <time>2018-06-25T09:08:35.351Z</time>
      </trkpt>
      <trkpt lat="43.25816" lon="-0.67237">
        <ele>210</ele>
        <time>2018-06-25T09:08:36.351Z</time>
      </trkpt>
      <trkpt lat="43.25958" lon="-0.67089">
        <ele>220</ele>
        <time>2018-06-25T09:08:37.351Z</time>
      </trkpt>
      <trkpt lat="43.2589" lon="-0.67006">
        <ele>213</ele>
        <time>2018-06-25T09:08:38.351Z</time>
      </trkpt>
      <trkpt lat="43.26036" lon="-0.66908">
        <ele>205</ele>
        <time>2018-06-25T09:08:39.351Z</time>
      </trkpt>
      <trkpt lat="43.26181" lon="-0.6703">
        <ele>197</ele>
        <time>2018-06-25T09:08:40.351Z</time>
      </trkpt>
      <trkpt lat="43.26337" lon="-0.66877">
        <ele>182</ele>
        <time>2018-06-25T09:08:41.351Z</time>
      </trkpt>
      <trkpt lat="43.26487" lon="-0.67242">
        <ele>183</ele>
        <time>2018-06-25T09:08:42.351Z</time>
      </trkpt>
      <trkpt lat="43.26693" lon="-0.67413">
        <ele>177</ele>
        <time>2018-06-25T09:08:43.351Z</time>
      </trkpt>
      <trkpt lat="43.26748" lon="-0.67486">
        <ele>176</ele>
        <time>2018-06-25T09:08:44.351Z</time>
      </trkpt>
      <trkpt lat="43.26835" lon="-0.67527">
        <ele>175</ele>
        <time>2018-06-25T09:08:45.351Z</time>
      </trkpt>
      <trkpt lat="43.26878" lon="-0.67505">
        <ele>173</ele>
        <time>2018-06-25T09:08:46.351Z</time>
      </trkpt>
      <trkpt lat="43.27045" lon="-0.6786">
        <ele>172</ele>
        <time>2018-06-25T09:08:47.351Z</time>
      </trkpt>
      <trkpt lat="43.27011" lon="-0.67955">
        <ele>172</ele>
        <time>2018-06-25T09:08:48.351Z</time>
      </trkpt>
      <trkpt lat="43.27018" lon="-0.68122">
        <ele>171</ele>
        <time>2018-06-25T09:08:49.351Z</time>
      </trkpt>
      <trkpt lat="43.26893" lon="-0.68632">
        <ele>161</ele>
        <time>2018-06-25T09:08:50.351Z</time>
      </trkpt>
      <trkpt lat="43.26782" lon="-0.68768">
        <ele>160</ele>
        <time>2018-06-25T09:08:51.351Z</time>
      </trkpt>
      <trkpt lat="43.26775" lon="-0.68851">
        <ele>158</ele>
        <time>2018-06-25T09:08:52.351Z</time>
      </trkpt>
      <trkpt lat="43.26871" lon="-0.69019">
        <ele>157</ele>
        <time>2018-06-25T09:08:53.351Z</time>
      </trkpt>
      <trkpt lat="43.26904" lon="-0.69136">
        <ele>155</ele>
        <time>2018-06-25T09:08:54.351Z</time>
      </trkpt>
      <trkpt lat="43.26917" lon="-0.69313">
        <ele>158</ele>
        <time>2018-06-25T09:08:55.351Z</time>
      </trkpt>
      <trkpt lat="43.26985" lon="-0.69525">
        <ele>155</ele>
        <time>2018-06-25T09:08:56.351Z</time>
      </trkpt>
      <trkpt lat="43.27008" lon="-0.6973">
        <ele>154</ele>
        <time>2018-06-25T09:08:57.351Z</time>
      </trkpt>
      <trkpt lat="43.27013" lon="-0.70087">
        <ele>154</ele>
        <time>2018-06-25T09:08:58.351Z</time>
      </trkpt>
      <trkpt lat="43.27054" lon="-0.70203">
        <ele>151</ele>
        <time>2018-06-25T09:08:59.351Z</time>
      </trkpt>
      <trkpt lat="43.27229" lon="-0.71013">
        <ele>148</ele>
        <time>2018-06-25T09:09:00.351Z</time>
      </trkpt>
      <trkpt lat="43.27245" lon="-0.71447">
        <ele>152</ele>
        <time>2018-06-25T09:09:01.351Z</time>
      </trkpt>
      <trkpt lat="43.2718" lon="-0.71479">
        <ele>150</ele>
        <time>2018-06-25T09:09:02.351Z</time>
      </trkpt>
      <trkpt lat="43.27156" lon="-0.71527">
        <ele>152</ele>
        <time>2018-06-25T09:09:03.351Z</time>
      </trkpt>
      <trkpt lat="43.27233" lon="-0.71647">
        <ele>154</ele>
        <time>2018-06-25T09:09:04.351Z</time>
      </trkpt>
      <trkpt lat="43.27366" lon="-0.7172">
        <ele>155</ele>
        <time>2018-06-25T09:09:05.351Z</time>
      </trkpt>
      <trkpt lat="43.27409" lon="-0.7171">
        <ele>156</ele>
        <time>2018-06-25T09:09:06.351Z</time>
      </trkpt>
      <trkpt lat="43.27494" lon="-0.71777">
        <ele>157</ele>
        <time>2018-06-25T09:09:07.351Z</time>
      </trkpt>
      <trkpt lat="43.27571" lon="-0.71758">
        <ele>155</ele>
        <time>2018-06-25T09:09:08.351Z</time>
      </trkpt>
      <trkpt lat="43.27643" lon="-0.71911">
        <ele>155</ele>
        <time>2018-06-25T09:09:09.351Z</time>
      </trkpt>
      <trkpt lat="43.27796" lon="-0.72038">
        <ele>156</ele>
        <time>2018-06-25T09:09:10.351Z</time>
      </trkpt>
      <trkpt lat="43.28011" lon="-0.72168">
        <ele>152</ele>
        <time>2018-06-25T09:09:11.351Z</time>
      </trkpt>
      <trkpt lat="43.28454" lon="-0.72781">
        <ele>153</ele>
        <time>2018-06-25T09:09:12.351Z</time>
      </trkpt>
      <trkpt lat="43.28628" lon="-0.72973">
        <ele>152</ele>
        <time>2018-06-25T09:09:13.351Z</time>
      </trkpt>
      <trkpt lat="43.2874" lon="-0.73053">
        <ele>152</ele>
        <time>2018-06-25T09:09:14.351Z</time>
      </trkpt>
      <trkpt lat="43.2883" lon="-0.73307">
        <ele>151</ele>
        <time>2018-06-25T09:09:15.351Z</time>
      </trkpt>
      <trkpt lat="43.28816" lon="-0.7363">
        <ele>149</ele>
        <time>2018-06-25T09:09:16.351Z</time>
      </trkpt>
      <trkpt lat="43.2886" lon="-0.73922">
        <ele>148</ele>
        <time>2018-06-25T09:09:17.351Z</time>
      </trkpt>
      <trkpt lat="43.28924" lon="-0.74151">
        <ele>149</ele>
        <time>2018-06-25T09:09:18.351Z</time>
      </trkpt>
      <trkpt lat="43.28921" lon="-0.74271">
        <ele>148</ele>
        <time>2018-06-25T09:09:19.351Z</time>
      </trkpt>
      <trkpt lat="43.28997" lon="-0.74381">
        <ele>147</ele>
        <time>2018-06-25T09:09:20.351Z</time>
      </trkpt>
      <trkpt lat="43.29028" lon="-0.74371">
        <ele>147</ele>
        <time>2018-06-25T09:09:21.351Z</time>
      </trkpt>
      <trkpt lat="43.29044" lon="-0.74367">
        <ele>146</ele>
        <time>2018-06-25T09:09:22.351Z</time>
      </trkpt>
      <trkpt lat="43.29137" lon="-0.74465">
        <ele>147</ele>
        <time>2018-06-25T09:09:23.351Z</time>
      </trkpt>
      <trkpt lat="43.29179" lon="-0.74478">
        <ele>147</ele>
        <time>2018-06-25T09:09:24.351Z</time>
      </trkpt>
      <trkpt lat="43.29578" lon="-0.74247">
        <ele>141</ele>
        <time>2018-06-25T09:09:25.351Z</time>
      </trkpt>
      <trkpt lat="43.29663" lon="-0.74164">
        <ele>145</ele>
        <time>2018-06-25T09:09:26.351Z</time>
      </trkpt>
      <trkpt lat="43.29784" lon="-0.74113">
        <ele>147</ele>
        <time>2018-06-25T09:09:27.351Z</time>
      </trkpt>
      <trkpt lat="43.30122" lon="-0.74264">
        <ele>144</ele>
        <time>2018-06-25T09:09:28.351Z</time>
      </trkpt>
      <trkpt lat="43.30196" lon="-0.74328">
        <ele>142</ele>
        <time>2018-06-25T09:09:29.351Z</time>
      </trkpt>
      <trkpt lat="43.30365" lon="-0.74354">
        <ele>145</ele>
        <time>2018-06-25T09:09:30.351Z</time>
      </trkpt>
      <trkpt lat="43.30431" lon="-0.7439">
        <ele>145</ele>
        <time>2018-06-25T09:09:31.351Z</time>
      </trkpt>
      <trkpt lat="43.30503" lon="-0.74389">
        <ele>145</ele>
        <time>2018-06-25T09:09:32.351Z</time>
      </trkpt>
      <trkpt lat="43.30573" lon="-0.74431">
        <ele>146</ele>
        <time>2018-06-25T09:09:33.351Z</time>
      </trkpt>
      <trkpt lat="43.30655" lon="-0.74416">
        <ele>143</ele>
        <time>2018-06-25T09:09:34.351Z</time>
      </trkpt>
      <trkpt lat="43.30754" lon="-0.7455">
        <ele>143</ele>
        <time>2018-06-25T09:09:35.351Z</time>
      </trkpt>
      <trkpt lat="43.30912" lon="-0.74632">
        <ele>142</ele>
        <time>2018-06-25T09:09:36.351Z</time>
      </trkpt>
      <trkpt lat="43.3095" lon="-0.74572">
        <ele>145</ele>
        <time>2018-06-25T09:09:37.351Z</time>
      </trkpt>
      <trkpt lat="43.31013" lon="-0.7467">
        <ele>141</ele>
        <time>2018-06-25T09:09:38.351Z</time>
      </trkpt>
      <trkpt lat="43.31119" lon="-0.74681">
        <ele>144</ele>
        <time>2018-06-25T09:09:39.351Z</time>
      </trkpt>
      <trkpt lat="43.3128" lon="-0.74803">
        <ele>142</ele>
        <time>2018-06-25T09:09:40.351Z</time>
      </trkpt>
      <trkpt lat="43.31588" lon="-0.74915">
        <ele>140</ele>
        <time>2018-06-25T09:09:41.351Z</time>
      </trkpt>
      <trkpt lat="43.31767" lon="-0.75038">
        <ele>138</ele>
        <time>2018-06-25T09:09:42.351Z</time>
      </trkpt>
      <trkpt lat="43.31851" lon="-0.75027">
        <ele>138</ele>
        <time>2018-06-25T09:09:43.351Z</time>
      </trkpt>
      <trkpt lat="43.32" lon="-0.75174">
        <ele>137</ele>
        <time>2018-06-25T09:09:44.351Z</time>
      </trkpt>
      <trkpt lat="43.32001" lon="-0.7526">
        <ele>136</ele>
        <time>2018-06-25T09:09:45.351Z</time>
      </trkpt>
      <trkpt lat="43.32066" lon="-0.75531">
        <ele>134</ele>
        <time>2018-06-25T09:09:46.351Z</time>
      </trkpt>
      <trkpt lat="43.32035" lon="-0.75636">
        <ele>130</ele>
        <time>2018-06-25T09:09:47.351Z</time>
      </trkpt>
      <trkpt lat="43.3213" lon="-0.75918">
        <ele>129</ele>
        <time>2018-06-25T09:09:48.351Z</time>
      </trkpt>
      <trkpt lat="43.32225" lon="-0.76042">
        <ele>130</ele>
        <time>2018-06-25T09:09:49.351Z</time>
      </trkpt>
      <trkpt lat="43.32193" lon="-0.761">
        <ele>130</ele>
        <time>2018-06-25T09:09:50.351Z</time>
      </trkpt>
      <trkpt lat="43.32215" lon="-0.76132">
        <ele>130</ele>
        <time>2018-06-25T09:09:51.351Z</time>
      </trkpt>
      <trkpt lat="43.32237" lon="-0.76108">
        <ele>130</ele>
        <time>2018-06-25T09:09:52.351Z</time>
      </trkpt>
      <trkpt lat="43.32237" lon="-0.76109">
        <ele>130</ele>
        <time>2018-06-25T09:09:53.351Z</time>
      </trkpt>
      <trkpt lat="43.32252" lon="-0.76128">
        <ele>130</ele>
        <time>2018-06-25T09:09:54.351Z</time>
      </trkpt>
      <trkpt lat="43.32246" lon="-0.76134">
        <ele>130</ele>
        <time>2018-06-25T09:09:55.351Z</time>
      </trkpt>
      <trkpt lat="43.32261" lon="-0.76152">
        <ele>130</ele>
        <time>2018-06-25T09:09:56.351Z</time>
      </trkpt>
      <trkpt lat="43.32261" lon="-0.76152">
        <ele>130</ele>
        <time>2018-06-25T09:09:57.351Z</time>
      </trkpt>
      <trkpt lat="43.32272" lon="-0.76164">
        <ele>130</ele>
        <time>2018-06-25T09:09:58.351Z</time>
      </trkpt>
      <trkpt lat="43.32293" lon="-0.76135">
        <ele>129</ele>
        <time>2018-06-25T09:09:59.351Z</time>
      </trkpt>
      <trkpt lat="43.32338" lon="-0.76194">
        <ele>128</ele>
        <time>2018-06-25T09:10:00.351Z</time>
      </trkpt>
      <trkpt lat="43.32308" lon="-0.76238">
        <ele>127</ele>
        <time>2018-06-25T09:10:01.351Z</time>
      </trkpt>
      <trkpt lat="43.32308" lon="-0.76244">
        <ele>127</ele>
        <time>2018-06-25T09:10:02.351Z</time>
      </trkpt>
      <trkpt lat="43.32302" lon="-0.76253">
        <ele>126</ele>
        <time>2018-06-25T09:10:03.351Z</time>
      </trkpt>
      <trkpt lat="43.32273" lon="-0.76265">
        <ele>124</ele>
        <time>2018-06-25T09:10:04.351Z</time>
      </trkpt>
      <trkpt lat="43.32271" lon="-0.76273">
        <ele>123</ele>
        <time>2018-06-25T09:10:05.351Z</time>
      </trkpt>
      <trkpt lat="43.32263" lon="-0.76281">
        <ele>122</ele>
        <time>2018-06-25T09:10:06.351Z</time>
      </trkpt>
      <trkpt lat="43.32263" lon="-0.76281">
        <ele>122</ele>
        <time>2018-06-25T09:10:07.351Z</time>
      </trkpt>
      <trkpt lat="43.32244" lon="-0.76283">
        <ele>121</ele>
        <time>2018-06-25T09:10:08.351Z</time>
      </trkpt>
      <trkpt lat="43.3223" lon="-0.76304">
        <ele>118</ele>
        <time>2018-06-25T09:10:09.351Z</time>
      </trkpt>
      <trkpt lat="43.32231" lon="-0.76304">
        <ele>118</ele>
        <time>2018-06-25T09:10:10.351Z</time>
      </trkpt>
      <trkpt lat="43.32233" lon="-0.76334">
        <ele>114</ele>
        <time>2018-06-25T09:10:11.351Z</time>
      </trkpt>
      <trkpt lat="43.32266" lon="-0.76475">
        <ele>110</ele>
        <time>2018-06-25T09:10:12.351Z</time>
      </trkpt>
      <trkpt lat="43.3227" lon="-0.76523">
        <ele>114</ele>
        <time>2018-06-25T09:10:13.351Z</time>
      </trkpt>
      <trkpt lat="43.32273" lon="-0.76529">
        <ele>114</ele>
        <time>2018-06-25T09:10:14.351Z</time>
      </trkpt>
      <trkpt lat="43.32404" lon="-0.76662">
        <ele>121</ele>
        <time>2018-06-25T09:10:15.351Z</time>
      </trkpt>
      <trkpt lat="43.32499" lon="-0.77004">
        <ele>123</ele>
        <time>2018-06-25T09:10:16.351Z</time>
      </trkpt>
      <trkpt lat="43.3252" lon="-0.77334">
        <ele>125</ele>
        <time>2018-06-25T09:10:17.351Z</time>
      </trkpt>
      <trkpt lat="43.32486" lon="-0.77433">
        <ele>124</ele>
        <time>2018-06-25T09:10:18.351Z</time>
      </trkpt>
      <trkpt lat="43.32388" lon="-0.7798">
        <ele>135</ele>
        <time>2018-06-25T09:10:19.351Z</time>
      </trkpt>
      <trkpt lat="43.32432" lon="-0.78048">
        <ele>142</ele>
        <time>2018-06-25T09:10:20.351Z</time>
      </trkpt>
      <trkpt lat="43.32571" lon="-0.78103">
        <ele>148</ele>
        <time>2018-06-25T09:10:21.351Z</time>
      </trkpt>
      <trkpt lat="43.32619" lon="-0.78086">
        <ele>150</ele>
        <time>2018-06-25T09:10:22.351Z</time>
      </trkpt>
      <trkpt lat="43.32647" lon="-0.78135">
        <ele>155</ele>
        <time>2018-06-25T09:10:23.351Z</time>
      </trkpt>
      <trkpt lat="43.32619" lon="-0.78199">
        <ele>157</ele>
        <time>2018-06-25T09:10:24.351Z</time>
      </trkpt>
      <trkpt lat="43.32779" lon="-0.78203">
        <ele>156</ele>
        <time>2018-06-25T09:10:25.351Z</time>
      </trkpt>
      <trkpt lat="43.32852" lon="-0.78232">
        <ele>156</ele>
        <time>2018-06-25T09:10:26.351Z</time>
      </trkpt>
      <trkpt lat="43.3285" lon="-0.78382">
        <ele>157</ele>
        <time>2018-06-25T09:10:27.351Z</time>
      </trkpt>
      <trkpt lat="43.3289" lon="-0.78723">
        <ele>158</ele>
        <time>2018-06-25T09:10:28.351Z</time>
      </trkpt>
      <trkpt lat="43.33062" lon="-0.79005">
        <ele>155</ele>
        <time>2018-06-25T09:10:29.351Z</time>
      </trkpt>
      <trkpt lat="43.33029" lon="-0.79048">
        <ele>151</ele>
        <time>2018-06-25T09:10:30.351Z</time>
      </trkpt>
      <trkpt lat="43.33033" lon="-0.79166">
        <ele>147</ele>
        <time>2018-06-25T09:10:31.351Z</time>
      </trkpt>
      <trkpt lat="43.32981" lon="-0.79251">
        <ele>145</ele>
        <time>2018-06-25T09:10:32.351Z</time>
      </trkpt>
      <trkpt lat="43.32966" lon="-0.79478">
        <ele>132</ele>
        <time>2018-06-25T09:10:33.351Z</time>
      </trkpt>
      <trkpt lat="43.32905" lon="-0.79585">
        <ele>130</ele>
        <time>2018-06-25T09:10:34.351Z</time>
      </trkpt>
      <trkpt lat="43.32664" lon="-0.79738">
        <ele>125</ele>
        <time>2018-06-25T09:10:35.351Z</time>
      </trkpt>
      <trkpt lat="43.32635" lon="-0.79786">
        <ele>124</ele>
        <time>2018-06-25T09:10:36.351Z</time>
      </trkpt>
      <trkpt lat="43.32554" lon="-0.79836">
        <ele>125</ele>
        <time>2018-06-25T09:10:37.351Z</time>
      </trkpt>
      <trkpt lat="43.32614" lon="-0.79965">
        <ele>118</ele>
        <time>2018-06-25T09:10:38.351Z</time>
      </trkpt>
      <trkpt lat="43.32659" lon="-0.80241">
        <ele>123</ele>
        <time>2018-06-25T09:10:39.351Z</time>
      </trkpt>
      <trkpt lat="43.32595" lon="-0.80494">
        <ele>136</ele>
        <time>2018-06-25T09:10:40.351Z</time>
      </trkpt>
      <trkpt lat="43.32661" lon="-0.80612">
        <ele>149</ele>
        <time>2018-06-25T09:10:41.351Z</time>
      </trkpt>
      <trkpt lat="43.32765" lon="-0.80597">
        <ele>145</ele>
        <time>2018-06-25T09:10:42.351Z</time>
      </trkpt>
      <trkpt lat="43.3286" lon="-0.80661">
        <ele>138</ele>
        <time>2018-06-25T09:10:43.351Z</time>
      </trkpt>
      <trkpt lat="43.32901" lon="-0.80717">
        <ele>131</ele>
        <time>2018-06-25T09:10:44.351Z</time>
      </trkpt>
      <trkpt lat="43.32954" lon="-0.80737">
        <ele>128</ele>
        <time>2018-06-25T09:10:45.351Z</time>
      </trkpt>
      <trkpt lat="43.32912" lon="-0.80915">
        <ele>128</ele>
        <time>2018-06-25T09:10:46.351Z</time>
      </trkpt>
      <trkpt lat="43.32721" lon="-0.81056">
        <ele>131</ele>
        <time>2018-06-25T09:10:47.351Z</time>
      </trkpt>
      <trkpt lat="43.32656" lon="-0.81153">
        <ele>128</ele>
        <time>2018-06-25T09:10:48.351Z</time>
      </trkpt>
      <trkpt lat="43.32599" lon="-0.81309">
        <ele>130</ele>
        <time>2018-06-25T09:10:49.351Z</time>
      </trkpt>
      <trkpt lat="43.32484" lon="-0.81479">
        <ele>132</ele>
        <time>2018-06-25T09:10:50.351Z</time>
      </trkpt>
      <trkpt lat="43.32477" lon="-0.81559">
        <ele>133</ele>
        <time>2018-06-25T09:10:51.351Z</time>
      </trkpt>
      <trkpt lat="43.32508" lon="-0.81785">
        <ele>137</ele>
        <time>2018-06-25T09:10:52.351Z</time>
      </trkpt>
      <trkpt lat="43.32462" lon="-0.82026">
        <ele>138</ele>
        <time>2018-06-25T09:10:53.351Z</time>
      </trkpt>
      <trkpt lat="43.32481" lon="-0.82055">
        <ele>138</ele>
        <time>2018-06-25T09:10:54.351Z</time>
      </trkpt>
      <trkpt lat="43.32484" lon="-0.82138">
        <ele>138</ele>
        <time>2018-06-25T09:10:55.351Z</time>
      </trkpt>
      <trkpt lat="43.32763" lon="-0.82612">
        <ele>156</ele>
        <time>2018-06-25T09:10:56.351Z</time>
      </trkpt>
      <trkpt lat="43.3281" lon="-0.8257">
        <ele>157</ele>
        <time>2018-06-25T09:10:57.351Z</time>
      </trkpt>
      <trkpt lat="43.33096" lon="-0.82848">
        <ele>171</ele>
        <time>2018-06-25T09:10:58.351Z</time>
      </trkpt>
      <trkpt lat="43.33155" lon="-0.82971">
        <ele>177</ele>
        <time>2018-06-25T09:10:59.351Z</time>
      </trkpt>
      <trkpt lat="43.3316" lon="-0.83074">
        <ele>178</ele>
        <time>2018-06-25T09:11:00.351Z</time>
      </trkpt>
      <trkpt lat="43.33026" lon="-0.83004">
        <ele>167</ele>
        <time>2018-06-25T09:11:01.351Z</time>
      </trkpt>
      <trkpt lat="43.32902" lon="-0.83003">
        <ele>160</ele>
        <time>2018-06-25T09:11:02.351Z</time>
      </trkpt>
      <trkpt lat="43.32697" lon="-0.82936">
        <ele>138</ele>
        <time>2018-06-25T09:11:03.351Z</time>
      </trkpt>
      <trkpt lat="43.32631" lon="-0.83018">
        <ele>141</ele>
        <time>2018-06-25T09:11:04.351Z</time>
      </trkpt>
      <trkpt lat="43.32644" lon="-0.83077">
        <ele>143</ele>
        <time>2018-06-25T09:11:05.351Z</time>
      </trkpt>
      <trkpt lat="43.32604" lon="-0.83157">
        <ele>148</ele>
        <time>2018-06-25T09:11:06.351Z</time>
      </trkpt>
      <trkpt lat="43.32573" lon="-0.83169">
        <ele>152</ele>
        <time>2018-06-25T09:11:07.351Z</time>
      </trkpt>
      <trkpt lat="43.32533" lon="-0.83142">
        <ele>157</ele>
        <time>2018-06-25T09:11:08.351Z</time>
      </trkpt>
      <trkpt lat="43.32429" lon="-0.8332">
        <ele>169</ele>
        <time>2018-06-25T09:11:09.351Z</time>
      </trkpt>
      <trkpt lat="43.32437" lon="-0.83359">
        <ele>167</ele>
        <time>2018-06-25T09:11:10.351Z</time>
      </trkpt>
      <trkpt lat="43.32378" lon="-0.83432">
        <ele>167</ele>
        <time>2018-06-25T09:11:11.351Z</time>
      </trkpt>
      <trkpt lat="43.32207" lon="-0.835">
        <ele>172</ele>
        <time>2018-06-25T09:11:12.351Z</time>
      </trkpt>
      <trkpt lat="43.32026" lon="-0.83531">
        <ele>175</ele>
        <time>2018-06-25T09:11:13.351Z</time>
      </trkpt>
      <trkpt lat="43.3175" lon="-0.83628">
        <ele>190</ele>
        <time>2018-06-25T09:11:14.351Z</time>
      </trkpt>
      <trkpt lat="43.31594" lon="-0.83961">
        <ele>178</ele>
        <time>2018-06-25T09:11:15.351Z</time>
      </trkpt>
      <trkpt lat="43.3153" lon="-0.84039">
        <ele>173</ele>
        <time>2018-06-25T09:11:16.351Z</time>
      </trkpt>
      <trkpt lat="43.31199" lon="-0.8414">
        <ele>168</ele>
        <time>2018-06-25T09:11:17.351Z</time>
      </trkpt>
      <trkpt lat="43.31204" lon="-0.84303">
        <ele>161</ele>
        <time>2018-06-25T09:11:18.351Z</time>
      </trkpt>
      <trkpt lat="43.31187" lon="-0.84411">
        <ele>154</ele>
        <time>2018-06-25T09:11:19.351Z</time>
      </trkpt>
      <trkpt lat="43.3107" lon="-0.84699">
        <ele>131</ele>
        <time>2018-06-25T09:11:20.351Z</time>
      </trkpt>
      <trkpt lat="43.31076" lon="-0.84772">
        <ele>126</ele>
        <time>2018-06-25T09:11:21.351Z</time>
      </trkpt>
      <trkpt lat="43.30934" lon="-0.85116">
        <ele>120</ele>
        <time>2018-06-25T09:11:22.351Z</time>
      </trkpt>
      <trkpt lat="43.30929" lon="-0.85258">
        <ele>121</ele>
        <time>2018-06-25T09:11:23.351Z</time>
      </trkpt>
      <trkpt lat="43.30976" lon="-0.85456">
        <ele>122</ele>
        <time>2018-06-25T09:11:24.351Z</time>
      </trkpt>
      <trkpt lat="43.31022" lon="-0.85552">
        <ele>121</ele>
        <time>2018-06-25T09:11:25.351Z</time>
      </trkpt>
      <trkpt lat="43.30963" lon="-0.86011">
        <ele>126</ele>
        <time>2018-06-25T09:11:26.351Z</time>
      </trkpt>
      <trkpt lat="43.30969" lon="-0.86087">
        <ele>132</ele>
        <time>2018-06-25T09:11:27.351Z</time>
      </trkpt>
      <trkpt lat="43.31064" lon="-0.8632">
        <ele>122</ele>
        <time>2018-06-25T09:11:28.351Z</time>
      </trkpt>
      <trkpt lat="43.31075" lon="-0.86408">
        <ele>115</ele>
        <time>2018-06-25T09:11:29.351Z</time>
      </trkpt>
      <trkpt lat="43.31039" lon="-0.86494">
        <ele>118</ele>
        <time>2018-06-25T09:11:30.351Z</time>
      </trkpt>
      <trkpt lat="43.31005" lon="-0.86821">
        <ele>103</ele>
        <time>2018-06-25T09:11:31.351Z</time>
      </trkpt>
      <trkpt lat="43.31068" lon="-0.86881">
        <ele>103</ele>
        <time>2018-06-25T09:11:32.351Z</time>
      </trkpt>
      <trkpt lat="43.31314" lon="-0.86882">
        <ele>102</ele>
        <time>2018-06-25T09:11:33.351Z</time>
      </trkpt>
      <trkpt lat="43.31314" lon="-0.86989">
        <ele>102</ele>
        <time>2018-06-25T09:11:34.351Z</time>
      </trkpt>
      <trkpt lat="43.30787" lon="-0.86897">
        <ele>99</ele>
        <time>2018-06-25T09:11:35.351Z</time>
      </trkpt>
      <trkpt lat="43.30722" lon="-0.86907">
        <ele>99</ele>
        <time>2018-06-25T09:11:36.351Z</time>
      </trkpt>
      <trkpt lat="43.3045" lon="-0.87269">
        <ele>107</ele>
        <time>2018-06-25T09:11:37.351Z</time>
      </trkpt>
      <trkpt lat="43.30442" lon="-0.87379">
        <ele>112</ele>
        <time>2018-06-25T09:11:38.351Z</time>
      </trkpt>
      <trkpt lat="43.30412" lon="-0.87411">
        <ele>114</ele>
        <time>2018-06-25T09:11:39.351Z</time>
      </trkpt>
      <trkpt lat="43.30401" lon="-0.87471">
        <ele>111</ele>
        <time>2018-06-25T09:11:40.351Z</time>
      </trkpt>
      <trkpt lat="43.30439" lon="-0.87597">
        <ele>109</ele>
        <time>2018-06-25T09:11:41.351Z</time>
      </trkpt>
      <trkpt lat="43.30431" lon="-0.87667">
        <ele>112</ele>
        <time>2018-06-25T09:11:42.351Z</time>
      </trkpt>
      <trkpt lat="43.30592" lon="-0.87911">
        <ele>114</ele>
        <time>2018-06-25T09:11:43.351Z</time>
      </trkpt>
      <trkpt lat="43.30698" lon="-0.88009">
        <ele>117</ele>
        <time>2018-06-25T09:11:44.351Z</time>
      </trkpt>
      <trkpt lat="43.30898" lon="-0.8837">
        <ele>116</ele>
        <time>2018-06-25T09:11:45.351Z</time>
      </trkpt>
      <trkpt lat="43.31089" lon="-0.88851">
        <ele>124</ele>
        <time>2018-06-25T09:11:46.351Z</time>
      </trkpt>
      <trkpt lat="43.31144" lon="-0.89109">
        <ele>130</ele>
        <time>2018-06-25T09:11:47.351Z</time>
      </trkpt>
      <trkpt lat="43.31292" lon="-0.89433">
        <ele>152</ele>
        <time>2018-06-25T09:11:48.351Z</time>
      </trkpt>
      <trkpt lat="43.31367" lon="-0.89821">
        <ele>174</ele>
        <time>2018-06-25T09:11:49.351Z</time>
      </trkpt>
      <trkpt lat="43.31336" lon="-0.89843">
        <ele>177</ele>
        <time>2018-06-25T09:11:50.351Z</time>
      </trkpt>
      <trkpt lat="43.31259" lon="-0.89827">
        <ele>175</ele>
        <time>2018-06-25T09:11:51.351Z</time>
      </trkpt>
      <trkpt lat="43.31198" lon="-0.89861">
        <ele>177</ele>
        <time>2018-06-25T09:11:52.351Z</time>
      </trkpt>
      <trkpt lat="43.31004" lon="-0.89835">
        <ele>169</ele>
        <time>2018-06-25T09:11:53.351Z</time>
      </trkpt>
      <trkpt lat="43.30929" lon="-0.89784">
        <ele>166</ele>
        <time>2018-06-25T09:11:54.351Z</time>
      </trkpt>
      <trkpt lat="43.3075" lon="-0.8976">
        <ele>165</ele>
        <time>2018-06-25T09:11:55.351Z</time>
      </trkpt>
      <trkpt lat="43.30865" lon="-0.90414">
        <ele>133</ele>
        <time>2018-06-25T09:11:56.351Z</time>
      </trkpt>
      <trkpt lat="43.30843" lon="-0.90417">
        <ele>134</ele>
        <time>2018-06-25T09:11:57.351Z</time>
      </trkpt>
      <trkpt lat="43.30911" lon="-0.90552">
        <ele>118</ele>
        <time>2018-06-25T09:11:58.351Z</time>
      </trkpt>
      <trkpt lat="43.31001" lon="-0.90609">
        <ele>111</ele>
        <time>2018-06-25T09:11:59.351Z</time>
      </trkpt>
      <trkpt lat="43.31291" lon="-0.90896">
        <ele>103</ele>
        <time>2018-06-25T09:12:00.351Z</time>
      </trkpt>
      <trkpt lat="43.3135" lon="-0.91245">
        <ele>104</ele>
        <time>2018-06-25T09:12:01.351Z</time>
      </trkpt>
      <trkpt lat="43.31425" lon="-0.9148">
        <ele>109</ele>
        <time>2018-06-25T09:12:02.351Z</time>
      </trkpt>
      <trkpt lat="43.31333" lon="-0.9147">
        <ele>107</ele>
        <time>2018-06-25T09:12:03.351Z</time>
      </trkpt>
      <trkpt lat="43.3089" lon="-0.91706">
        <ele>111</ele>
        <time>2018-06-25T09:12:04.351Z</time>
      </trkpt>
      <trkpt lat="43.30787" lon="-0.91796">
        <ele>112</ele>
        <time>2018-06-25T09:12:05.351Z</time>
      </trkpt>
      <trkpt lat="43.30666" lon="-0.92113">
        <ele>111</ele>
        <time>2018-06-25T09:12:06.351Z</time>
      </trkpt>
      <trkpt lat="43.3059" lon="-0.9225">
        <ele>114</ele>
        <time>2018-06-25T09:12:07.351Z</time>
      </trkpt>
      <trkpt lat="43.30482" lon="-0.92334">
        <ele>112</ele>
        <time>2018-06-25T09:12:08.351Z</time>
      </trkpt>
      <trkpt lat="43.30397" lon="-0.92357">
        <ele>111</ele>
        <time>2018-06-25T09:12:09.351Z</time>
      </trkpt>
      <trkpt lat="43.30326" lon="-0.92308">
        <ele>111</ele>
        <time>2018-06-25T09:12:10.351Z</time>
      </trkpt>
      <trkpt lat="43.30236" lon="-0.92287">
        <ele>112</ele>
        <time>2018-06-25T09:12:11.351Z</time>
      </trkpt>
      <trkpt lat="43.29974" lon="-0.9235">
        <ele>119</ele>
        <time>2018-06-25T09:12:12.351Z</time>
      </trkpt>
      <trkpt lat="43.29903" lon="-0.92398">
        <ele>120</ele>
        <time>2018-06-25T09:12:13.351Z</time>
      </trkpt>
      <trkpt lat="43.29829" lon="-0.92365">
        <ele>119</ele>
        <time>2018-06-25T09:12:14.351Z</time>
      </trkpt>
      <trkpt lat="43.29776" lon="-0.92371">
        <ele>122</ele>
        <time>2018-06-25T09:12:15.351Z</time>
      </trkpt>
      <trkpt lat="43.29764" lon="-0.92461">
        <ele>131</ele>
        <time>2018-06-25T09:12:16.351Z</time>
      </trkpt>
      <trkpt lat="43.29596" lon="-0.92768">
        <ele>160</ele>
        <time>2018-06-25T09:12:17.351Z</time>
      </trkpt>
      <trkpt lat="43.29471" lon="-0.92867">
        <ele>176</ele>
        <time>2018-06-25T09:12:18.351Z</time>
      </trkpt>
      <trkpt lat="43.29416" lon="-0.93078">
        <ele>191</ele>
        <time>2018-06-25T09:12:19.351Z</time>
      </trkpt>
      <trkpt lat="43.29532" lon="-0.93412">
        <ele>203</ele>
        <time>2018-06-25T09:12:20.351Z</time>
      </trkpt>
      <trkpt lat="43.29541" lon="-0.93583">
        <ele>208</ele>
        <time>2018-06-25T09:12:21.351Z</time>
      </trkpt>
      <trkpt lat="43.29414" lon="-0.9387">
        <ele>191</ele>
        <time>2018-06-25T09:12:22.351Z</time>
      </trkpt>
      <trkpt lat="43.29447" lon="-0.94027">
        <ele>185</ele>
        <time>2018-06-25T09:12:23.351Z</time>
      </trkpt>
      <trkpt lat="43.29568" lon="-0.94114">
        <ele>183</ele>
        <time>2018-06-25T09:12:24.351Z</time>
      </trkpt>
      <trkpt lat="43.29696" lon="-0.94054">
        <ele>186</ele>
        <time>2018-06-25T09:12:25.351Z</time>
      </trkpt>
      <trkpt lat="43.29845" lon="-0.93929">
        <ele>173</ele>
        <time>2018-06-25T09:12:26.351Z</time>
      </trkpt>
      <trkpt lat="43.29889" lon="-0.93946">
        <ele>172</ele>
        <time>2018-06-25T09:12:27.351Z</time>
      </trkpt>
      <trkpt lat="43.3001" lon="-0.93905">
        <ele>173</ele>
        <time>2018-06-25T09:12:28.351Z</time>
      </trkpt>
      <trkpt lat="43.30047" lon="-0.93833">
        <ele>180</ele>
        <time>2018-06-25T09:12:29.351Z</time>
      </trkpt>
      <trkpt lat="43.30045" lon="-0.93778">
        <ele>181</ele>
        <time>2018-06-25T09:12:30.351Z</time>
      </trkpt>
      <trkpt lat="43.30069" lon="-0.93735">
        <ele>184</ele>
        <time>2018-06-25T09:12:31.351Z</time>
      </trkpt>
      <trkpt lat="43.30137" lon="-0.93746">
        <ele>189</ele>
        <time>2018-06-25T09:12:32.351Z</time>
      </trkpt>
      <trkpt lat="43.30224" lon="-0.9363">
        <ele>172</ele>
        <time>2018-06-25T09:12:33.351Z</time>
      </trkpt>
      <trkpt lat="43.30339" lon="-0.93571">
        <ele>161</ele>
        <time>2018-06-25T09:12:34.351Z</time>
      </trkpt>
      <trkpt lat="43.30295" lon="-0.93661">
        <ele>162</ele>
        <time>2018-06-25T09:12:35.351Z</time>
      </trkpt>
      <trkpt lat="43.30318" lon="-0.93737">
        <ele>155</ele>
        <time>2018-06-25T09:12:36.351Z</time>
      </trkpt>
      <trkpt lat="43.30473" lon="-0.94027">
        <ele>129</ele>
        <time>2018-06-25T09:12:37.351Z</time>
      </trkpt>
      <trkpt lat="43.30465" lon="-0.94184">
        <ele>120</ele>
        <time>2018-06-25T09:12:38.351Z</time>
      </trkpt>
      <trkpt lat="43.30631" lon="-0.94338">
        <ele>109</ele>
        <time>2018-06-25T09:12:39.351Z</time>
      </trkpt>
      <trkpt lat="43.307" lon="-0.94442">
        <ele>104</ele>
        <time>2018-06-25T09:12:40.351Z</time>
      </trkpt>
      <trkpt lat="43.3081" lon="-0.94456">
        <ele>103</ele>
        <time>2018-06-25T09:12:41.351Z</time>
      </trkpt>
      <trkpt lat="43.30889" lon="-0.9463">
        <ele>100</ele>
        <time>2018-06-25T09:12:42.351Z</time>
      </trkpt>
      <trkpt lat="43.30961" lon="-0.94607">
        <ele>99</ele>
        <time>2018-06-25T09:12:43.351Z</time>
      </trkpt>
      <trkpt lat="43.30946" lon="-0.94736">
        <ele>105</ele>
        <time>2018-06-25T09:12:44.351Z</time>
      </trkpt>
      <trkpt lat="43.30954" lon="-0.94859">
        <ele>108</ele>
        <time>2018-06-25T09:12:45.351Z</time>
      </trkpt>
      <trkpt lat="43.30939" lon="-0.94916">
        <ele>108</ele>
        <time>2018-06-25T09:12:46.351Z</time>
      </trkpt>
      <trkpt lat="43.30787" lon="-0.95111">
        <ele>110</ele>
        <time>2018-06-25T09:12:47.351Z</time>
      </trkpt>
      <trkpt lat="43.30742" lon="-0.95345">
        <ele>118</ele>
        <time>2018-06-25T09:12:48.351Z</time>
      </trkpt>
      <trkpt lat="43.30645" lon="-0.95544">
        <ele>120</ele>
        <time>2018-06-25T09:12:49.351Z</time>
      </trkpt>
      <trkpt lat="43.30573" lon="-0.95576">
        <ele>116</ele>
        <time>2018-06-25T09:12:50.351Z</time>
      </trkpt>
      <trkpt lat="43.30635" lon="-0.9584">
        <ele>131</ele>
        <time>2018-06-25T09:12:51.351Z</time>
      </trkpt>
      <trkpt lat="43.30578" lon="-0.95909">
        <ele>138</ele>
        <time>2018-06-25T09:12:52.351Z</time>
      </trkpt>
      <trkpt lat="43.30755" lon="-0.96195">
        <ele>139</ele>
        <time>2018-06-25T09:12:53.351Z</time>
      </trkpt>
      <trkpt lat="43.30848" lon="-0.96457">
        <ele>134</ele>
        <time>2018-06-25T09:12:54.351Z</time>
      </trkpt>
      <trkpt lat="43.3085" lon="-0.96559">
        <ele>134</ele>
        <time>2018-06-25T09:12:55.351Z</time>
      </trkpt>
      <trkpt lat="43.30885" lon="-0.96559">
        <ele>131</ele>
        <time>2018-06-25T09:12:56.351Z</time>
      </trkpt>
      <trkpt lat="43.30747" lon="-0.96715">
        <ele>139</ele>
        <time>2018-06-25T09:12:57.351Z</time>
      </trkpt>
      <trkpt lat="43.30746" lon="-0.96716">
        <ele>139</ele>
        <time>2018-06-25T09:12:58.351Z</time>
      </trkpt>
      <trkpt lat="43.30682" lon="-0.96749">
        <ele>146</ele>
        <time>2018-06-25T09:12:59.351Z</time>
      </trkpt>
      <trkpt lat="43.30553" lon="-0.968">
        <ele>159</ele>
        <time>2018-06-25T09:13:00.351Z</time>
      </trkpt>
      <trkpt lat="43.30495" lon="-0.96843">
        <ele>161</ele>
        <time>2018-06-25T09:13:01.351Z</time>
      </trkpt>
      <trkpt lat="43.30462" lon="-0.96855">
        <ele>158</ele>
        <time>2018-06-25T09:13:02.351Z</time>
      </trkpt>
      <trkpt lat="43.3044" lon="-0.9685">
        <ele>157</ele>
        <time>2018-06-25T09:13:03.351Z</time>
      </trkpt>
      <trkpt lat="43.30422" lon="-0.96832">
        <ele>157</ele>
        <time>2018-06-25T09:13:04.351Z</time>
      </trkpt>
      <trkpt lat="43.30379" lon="-0.96769">
        <ele>160</ele>
        <time>2018-06-25T09:13:05.351Z</time>
      </trkpt>
      <trkpt lat="43.30352" lon="-0.96744">
        <ele>161</ele>
        <time>2018-06-25T09:13:06.351Z</time>
      </trkpt>
      <trkpt lat="43.30299" lon="-0.96736">
        <ele>160</ele>
        <time>2018-06-25T09:13:07.351Z</time>
      </trkpt>
      <trkpt lat="43.30267" lon="-0.96718">
        <ele>160</ele>
        <time>2018-06-25T09:13:08.351Z</time>
      </trkpt>
      <trkpt lat="43.30201" lon="-0.96659">
        <ele>160</ele>
        <time>2018-06-25T09:13:09.351Z</time>
      </trkpt>
      <trkpt lat="43.30165" lon="-0.96634">
        <ele>160</ele>
        <time>2018-06-25T09:13:10.351Z</time>
      </trkpt>
      <trkpt lat="43.30077" lon="-0.96612">
        <ele>158</ele>
        <time>2018-06-25T09:13:11.351Z</time>
      </trkpt>
      <trkpt lat="43.30031" lon="-0.96605">
        <ele>158</ele>
        <time>2018-06-25T09:13:12.351Z</time>
      </trkpt>
      <trkpt lat="43.30031" lon="-0.96605">
        <ele>158</ele>
        <time>2018-06-25T09:13:13.351Z</time>
      </trkpt>
      <trkpt lat="43.2999" lon="-0.96607">
        <ele>160</ele>
        <time>2018-06-25T09:13:14.351Z</time>
      </trkpt>
      <trkpt lat="43.29897" lon="-0.96633">
        <ele>170</ele>
        <time>2018-06-25T09:13:15.351Z</time>
      </trkpt>
      <trkpt lat="43.29887" lon="-0.96645">
        <ele>170</ele>
        <time>2018-06-25T09:13:16.351Z</time>
      </trkpt>
      <trkpt lat="43.29878" lon="-0.9666">
        <ele>170</ele>
        <time>2018-06-25T09:13:17.351Z</time>
      </trkpt>
      <trkpt lat="43.2986" lon="-0.96698">
        <ele>172</ele>
        <time>2018-06-25T09:13:18.351Z</time>
      </trkpt>
      <trkpt lat="43.2985" lon="-0.96725">
        <ele>174</ele>
        <time>2018-06-25T09:13:19.351Z</time>
      </trkpt>
      <trkpt lat="43.29788" lon="-0.9682">
        <ele>180</ele>
        <time>2018-06-25T09:13:20.351Z</time>
      </trkpt>
      <trkpt lat="43.29765" lon="-0.96872">
        <ele>180</ele>
        <time>2018-06-25T09:13:21.351Z</time>
      </trkpt>
      <trkpt lat="43.29732" lon="-0.9695">
        <ele>181</ele>
        <time>2018-06-25T09:13:22.351Z</time>
      </trkpt>
      <trkpt lat="43.2972" lon="-0.96965">
        <ele>181</ele>
        <time>2018-06-25T09:13:23.351Z</time>
      </trkpt>
      <trkpt lat="43.29703" lon="-0.9697">
        <ele>180</ele>
        <time>2018-06-25T09:13:24.351Z</time>
      </trkpt>
      <trkpt lat="43.29671" lon="-0.9697">
        <ele>178</ele>
        <time>2018-06-25T09:13:25.351Z</time>
      </trkpt>
      <trkpt lat="43.29506" lon="-0.97068">
        <ele>178</ele>
        <time>2018-06-25T09:13:26.351Z</time>
      </trkpt>
      <trkpt lat="43.29479" lon="-0.97087">
        <ele>181</ele>
        <time>2018-06-25T09:13:27.351Z</time>
      </trkpt>
      <trkpt lat="43.29463" lon="-0.97134">
        <ele>183</ele>
        <time>2018-06-25T09:13:28.351Z</time>
      </trkpt>
      <trkpt lat="43.29459" lon="-0.972">
        <ele>182</ele>
        <time>2018-06-25T09:13:29.351Z</time>
      </trkpt>
      <trkpt lat="43.29448" lon="-0.97221">
        <ele>182</ele>
        <time>2018-06-25T09:13:30.351Z</time>
      </trkpt>
      <trkpt lat="43.29436" lon="-0.97236">
        <ele>182</ele>
        <time>2018-06-25T09:13:31.351Z</time>
      </trkpt>
      <trkpt lat="43.29385" lon="-0.97247">
        <ele>183</ele>
        <time>2018-06-25T09:13:32.351Z</time>
      </trkpt>
      <trkpt lat="43.29374" lon="-0.97256">
        <ele>183</ele>
        <time>2018-06-25T09:13:33.351Z</time>
      </trkpt>
      <trkpt lat="43.29374" lon="-0.97256">
        <ele>183</ele>
        <time>2018-06-25T09:13:34.351Z</time>
      </trkpt>
      <trkpt lat="43.29353" lon="-0.97273">
        <ele>182</ele>
        <time>2018-06-25T09:13:35.351Z</time>
      </trkpt>
      <trkpt lat="43.29333" lon="-0.97308">
        <ele>181</ele>
        <time>2018-06-25T09:13:36.351Z</time>
      </trkpt>
      <trkpt lat="43.29315" lon="-0.97351">
        <ele>179</ele>
        <time>2018-06-25T09:13:37.351Z</time>
      </trkpt>
      <trkpt lat="43.29271" lon="-0.97486">
        <ele>188</ele>
        <time>2018-06-25T09:13:38.351Z</time>
      </trkpt>
      <trkpt lat="43.29251" lon="-0.97581">
        <ele>193</ele>
        <time>2018-06-25T09:13:39.351Z</time>
      </trkpt>
      <trkpt lat="43.29235" lon="-0.97636">
        <ele>191</ele>
        <time>2018-06-25T09:13:40.351Z</time>
      </trkpt>
      <trkpt lat="43.29223" lon="-0.97658">
        <ele>190</ele>
        <time>2018-06-25T09:13:41.351Z</time>
      </trkpt>
      <trkpt lat="43.29187" lon="-0.97689">
        <ele>187</ele>
        <time>2018-06-25T09:13:42.351Z</time>
      </trkpt>
      <trkpt lat="43.29204" lon="-0.97702">
        <ele>185</ele>
        <time>2018-06-25T09:13:43.351Z</time>
      </trkpt>
      <trkpt lat="43.29271" lon="-0.97817">
        <ele>179</ele>
        <time>2018-06-25T09:13:44.351Z</time>
      </trkpt>
      <trkpt lat="43.29254" lon="-0.97846">
        <ele>178</ele>
        <time>2018-06-25T09:13:45.351Z</time>
      </trkpt>
      <trkpt lat="43.29245" lon="-0.97884">
        <ele>178</ele>
        <time>2018-06-25T09:13:46.351Z</time>
      </trkpt>
      <trkpt lat="43.29214" lon="-0.97921">
        <ele>173</ele>
        <time>2018-06-25T09:13:47.351Z</time>
      </trkpt>
      <trkpt lat="43.29196" lon="-0.97934">
        <ele>171</ele>
        <time>2018-06-25T09:13:48.351Z</time>
      </trkpt>
      <trkpt lat="43.29157" lon="-0.97945">
        <ele>165</ele>
        <time>2018-06-25T09:13:49.351Z</time>
      </trkpt>
      <trkpt lat="43.29105" lon="-0.9795">
        <ele>155</ele>
        <time>2018-06-25T09:13:50.351Z</time>
      </trkpt>
      <trkpt lat="43.29039" lon="-0.97976">
        <ele>146</ele>
        <time>2018-06-25T09:13:51.351Z</time>
      </trkpt>
      <trkpt lat="43.29008" lon="-0.9801">
        <ele>139</ele>
        <time>2018-06-25T09:13:52.351Z</time>
      </trkpt>
      <trkpt lat="43.28997" lon="-0.98025">
        <ele>138</ele>
        <time>2018-06-25T09:13:53.351Z</time>
      </trkpt>
      <trkpt lat="43.28987" lon="-0.9805">
        <ele>139</ele>
        <time>2018-06-25T09:13:54.351Z</time>
      </trkpt>
      <trkpt lat="43.28978" lon="-0.98078">
        <ele>138</ele>
        <time>2018-06-25T09:13:55.351Z</time>
      </trkpt>
      <trkpt lat="43.28962" lon="-0.98109">
        <ele>139</ele>
        <time>2018-06-25T09:13:56.351Z</time>
      </trkpt>
      <trkpt lat="43.28945" lon="-0.98137">
        <ele>139</ele>
        <time>2018-06-25T09:13:57.351Z</time>
      </trkpt>
      <trkpt lat="43.2892" lon="-0.98171">
        <ele>136</ele>
        <time>2018-06-25T09:13:58.351Z</time>
      </trkpt>
      <trkpt lat="43.28842" lon="-0.9825">
        <ele>129</ele>
        <time>2018-06-25T09:13:59.351Z</time>
      </trkpt>
      <trkpt lat="43.28812" lon="-0.98278">
        <ele>129</ele>
        <time>2018-06-25T09:14:00.351Z</time>
      </trkpt>
      <trkpt lat="43.28786" lon="-0.98291">
        <ele>129</ele>
        <time>2018-06-25T09:14:01.351Z</time>
      </trkpt>
      <trkpt lat="43.28769" lon="-0.98309">
        <ele>127</ele>
        <time>2018-06-25T09:14:02.351Z</time>
      </trkpt>
      <trkpt lat="43.28752" lon="-0.98332">
        <ele>122</ele>
        <time>2018-06-25T09:14:03.351Z</time>
      </trkpt>
      <trkpt lat="43.28741" lon="-0.98361">
        <ele>122</ele>
        <time>2018-06-25T09:14:04.351Z</time>
      </trkpt>
      <trkpt lat="43.28733" lon="-0.98423">
        <ele>118</ele>
        <time>2018-06-25T09:14:05.351Z</time>
      </trkpt>
      <trkpt lat="43.2872" lon="-0.98464">
        <ele>118</ele>
        <time>2018-06-25T09:14:06.351Z</time>
      </trkpt>
      <trkpt lat="43.28717" lon="-0.9848">
        <ele>118</ele>
        <time>2018-06-25T09:14:07.351Z</time>
      </trkpt>
      <trkpt lat="43.28718" lon="-0.98481">
        <ele>117</ele>
        <time>2018-06-25T09:14:08.351Z</time>
      </trkpt>
      <trkpt lat="43.28712" lon="-0.98508">
        <ele>117</ele>
        <time>2018-06-25T09:14:09.351Z</time>
      </trkpt>
      <trkpt lat="43.28699" lon="-0.98554">
        <ele>117</ele>
        <time>2018-06-25T09:14:10.351Z</time>
      </trkpt>
      <trkpt lat="43.28695" lon="-0.98586">
        <ele>117</ele>
        <time>2018-06-25T09:14:11.351Z</time>
      </trkpt>
      <trkpt lat="43.287" lon="-0.98644">
        <ele>116</ele>
        <time>2018-06-25T09:14:12.351Z</time>
      </trkpt>
      <trkpt lat="43.28704" lon="-0.98769">
        <ele>115</ele>
        <time>2018-06-25T09:14:13.351Z</time>
      </trkpt>
      <trkpt lat="43.28702" lon="-0.98803">
        <ele>113</ele>
        <time>2018-06-25T09:14:14.351Z</time>
      </trkpt>
      <trkpt lat="43.28668" lon="-0.99">
        <ele>96</ele>
        <time>2018-06-25T09:14:15.351Z</time>
      </trkpt>
      <trkpt lat="43.28692" lon="-0.99005">
        <ele>99</ele>
        <time>2018-06-25T09:14:16.351Z</time>
      </trkpt>
      <trkpt lat="43.28708" lon="-0.99025">
        <ele>100</ele>
        <time>2018-06-25T09:14:17.351Z</time>
      </trkpt>
      <trkpt lat="43.28836" lon="-0.99252">
        <ele>93</ele>
        <time>2018-06-25T09:14:18.351Z</time>
      </trkpt>
      <trkpt lat="43.28847" lon="-0.9928">
        <ele>94</ele>
        <time>2018-06-25T09:14:19.351Z</time>
      </trkpt>
      <trkpt lat="43.28906" lon="-0.99463">
        <ele>90</ele>
        <time>2018-06-25T09:14:20.351Z</time>
      </trkpt>
      <trkpt lat="43.28999" lon="-0.99736">
        <ele>90</ele>
        <time>2018-06-25T09:14:21.351Z</time>
      </trkpt>
      <trkpt lat="43.2902" lon="-0.99772">
        <ele>90</ele>
        <time>2018-06-25T09:14:22.351Z</time>
      </trkpt>
      <trkpt lat="43.29204" lon="-0.99953">
        <ele>87</ele>
        <time>2018-06-25T09:14:23.351Z</time>
      </trkpt>
      <trkpt lat="43.29227" lon="-0.99961">
        <ele>86</ele>
        <time>2018-06-25T09:14:24.351Z</time>
      </trkpt>
      <trkpt lat="43.29255" lon="-1.00046">
        <ele>89</ele>
        <time>2018-06-25T09:14:25.351Z</time>
      </trkpt>
      <trkpt lat="43.29253" lon="-1.00076">
        <ele>90</ele>
        <time>2018-06-25T09:14:26.351Z</time>
      </trkpt>
      <trkpt lat="43.29241" lon="-1.00097">
        <ele>91</ele>
        <time>2018-06-25T09:14:27.351Z</time>
      </trkpt>
      <trkpt lat="43.29124" lon="-1.00278">
        <ele>104</ele>
        <time>2018-06-25T09:14:28.351Z</time>
      </trkpt>
      <trkpt lat="43.29043" lon="-1.00427">
        <ele>110</ele>
        <time>2018-06-25T09:14:29.351Z</time>
      </trkpt>
      <trkpt lat="43.29044" lon="-1.0058">
        <ele>120</ele>
        <time>2018-06-25T09:14:30.351Z</time>
      </trkpt>
      <trkpt lat="43.29062" lon="-1.00694">
        <ele>128</ele>
        <time>2018-06-25T09:14:31.351Z</time>
      </trkpt>
      <trkpt lat="43.2909" lon="-1.00768">
        <ele>133</ele>
        <time>2018-06-25T09:14:32.351Z</time>
      </trkpt>
      <trkpt lat="43.29103" lon="-1.00792">
        <ele>133</ele>
        <time>2018-06-25T09:14:33.351Z</time>
      </trkpt>
      <trkpt lat="43.29103" lon="-1.0082">
        <ele>134</ele>
        <time>2018-06-25T09:14:34.351Z</time>
      </trkpt>
      <trkpt lat="43.29098" lon="-1.00874">
        <ele>138</ele>
        <time>2018-06-25T09:14:35.351Z</time>
      </trkpt>
      <trkpt lat="43.29134" lon="-1.01144">
        <ele>133</ele>
        <time>2018-06-25T09:14:36.351Z</time>
      </trkpt>
      <trkpt lat="43.2914" lon="-1.01175">
        <ele>131</ele>
        <time>2018-06-25T09:14:37.351Z</time>
      </trkpt>
      <trkpt lat="43.29147" lon="-1.0119">
        <ele>131</ele>
        <time>2018-06-25T09:14:38.351Z</time>
      </trkpt>
      <trkpt lat="43.29162" lon="-1.01206">
        <ele>129</ele>
        <time>2018-06-25T09:14:39.351Z</time>
      </trkpt>
      <trkpt lat="43.29241" lon="-1.01231">
        <ele>125</ele>
        <time>2018-06-25T09:14:40.351Z</time>
      </trkpt>
      <trkpt lat="43.29263" lon="-1.0124">
        <ele>124</ele>
        <time>2018-06-25T09:14:41.351Z</time>
      </trkpt>
      <trkpt lat="43.29266" lon="-1.0126">
        <ele>124</ele>
        <time>2018-06-25T09:14:42.351Z</time>
      </trkpt>
      <trkpt lat="43.29259" lon="-1.01303">
        <ele>122</ele>
        <time>2018-06-25T09:14:43.351Z</time>
      </trkpt>
      <trkpt lat="43.29252" lon="-1.01323">
        <ele>121</ele>
        <time>2018-06-25T09:14:44.351Z</time>
      </trkpt>
      <trkpt lat="43.29251" lon="-1.01349">
        <ele>120</ele>
        <time>2018-06-25T09:14:45.351Z</time>
      </trkpt>
      <trkpt lat="43.29261" lon="-1.01387">
        <ele>117</ele>
        <time>2018-06-25T09:14:46.351Z</time>
      </trkpt>
      <trkpt lat="43.29258" lon="-1.01438">
        <ele>116</ele>
        <time>2018-06-25T09:14:47.351Z</time>
      </trkpt>
      <trkpt lat="43.29278" lon="-1.01511">
        <ele>111</ele>
        <time>2018-06-25T09:14:48.351Z</time>
      </trkpt>
      <trkpt lat="43.29315" lon="-1.01549">
        <ele>104</ele>
        <time>2018-06-25T09:14:49.351Z</time>
      </trkpt>
      <trkpt lat="43.29348" lon="-1.01593">
        <ele>98</ele>
        <time>2018-06-25T09:14:50.351Z</time>
      </trkpt>
      <trkpt lat="43.29365" lon="-1.01635">
        <ele>95</ele>
        <time>2018-06-25T09:14:51.351Z</time>
      </trkpt>
      <trkpt lat="43.29372" lon="-1.0166">
        <ele>93</ele>
        <time>2018-06-25T09:14:52.351Z</time>
      </trkpt>
      <trkpt lat="43.29376" lon="-1.01688">
        <ele>91</ele>
        <time>2018-06-25T09:14:53.351Z</time>
      </trkpt>
      <trkpt lat="43.29377" lon="-1.01689">
        <ele>90</ele>
        <time>2018-06-25T09:14:54.351Z</time>
      </trkpt>
      <trkpt lat="43.29381" lon="-1.01713">
        <ele>88</ele>
        <time>2018-06-25T09:14:55.351Z</time>
      </trkpt>
      <trkpt lat="43.294" lon="-1.01764">
        <ele>86</ele>
        <time>2018-06-25T09:14:56.351Z</time>
      </trkpt>
      <trkpt lat="43.29408" lon="-1.01779">
        <ele>85</ele>
        <time>2018-06-25T09:14:57.351Z</time>
      </trkpt>
      <trkpt lat="43.29445" lon="-1.01828">
        <ele>84</ele>
        <time>2018-06-25T09:14:58.351Z</time>
      </trkpt>
      <trkpt lat="43.29481" lon="-1.01868">
        <ele>84</ele>
        <time>2018-06-25T09:14:59.351Z</time>
      </trkpt>
      <trkpt lat="43.29492" lon="-1.01867">
        <ele>85</ele>
        <time>2018-06-25T09:15:00.351Z</time>
      </trkpt>
      <trkpt lat="43.29596" lon="-1.02154">
        <ele>80</ele>
        <time>2018-06-25T09:15:01.351Z</time>
      </trkpt>
      <trkpt lat="43.29594" lon="-1.02156">
        <ele>80</ele>
        <time>2018-06-25T09:15:02.351Z</time>
      </trkpt>
      <trkpt lat="43.296" lon="-1.0217">
        <ele>80</ele>
        <time>2018-06-25T09:15:03.351Z</time>
      </trkpt>
      <trkpt lat="43.29627" lon="-1.02159">
        <ele>80</ele>
        <time>2018-06-25T09:15:04.351Z</time>
      </trkpt>
      <trkpt lat="43.29647" lon="-1.02181">
        <ele>80</ele>
        <time>2018-06-25T09:15:05.351Z</time>
      </trkpt>
      <trkpt lat="43.29659" lon="-1.02184">
        <ele>81</ele>
        <time>2018-06-25T09:15:06.351Z</time>
      </trkpt>
      <trkpt lat="43.2968" lon="-1.02168">
        <ele>78</ele>
        <time>2018-06-25T09:15:07.351Z</time>
      </trkpt>
      <trkpt lat="43.29689" lon="-1.02167">
        <ele>77</ele>
        <time>2018-06-25T09:15:08.351Z</time>
      </trkpt>
      <trkpt lat="43.29719" lon="-1.02171">
        <ele>74</ele>
        <time>2018-06-25T09:15:09.351Z</time>
      </trkpt>
      <trkpt lat="43.29745" lon="-1.02158">
        <ele>70</ele>
        <time>2018-06-25T09:15:10.351Z</time>
      </trkpt>
      <trkpt lat="43.29758" lon="-1.02161">
        <ele>69</ele>
        <time>2018-06-25T09:15:11.351Z</time>
      </trkpt>
      <trkpt lat="43.29777" lon="-1.02176">
        <ele>68</ele>
        <time>2018-06-25T09:15:12.351Z</time>
      </trkpt>
      <trkpt lat="43.29526" lon="-1.01941">
        <ele>81</ele>
        <time>2018-06-25T08:59:54.326Z</time>
      </trkpt>
      <trkpt lat="43.29524" lon="-1.01944">
        <ele>81</ele>
        <time>2018-06-25T08:59:55.326Z</time>
      </trkpt>
      <trkpt lat="43.29549" lon="-1.0199">
        <ele>79</ele>
        <time>2018-06-25T08:59:56.326Z</time>
      </trkpt>
      <trkpt lat="43.29584" lon="-1.02102">
        <ele>81</ele>
        <time>2018-06-25T08:59:57.326Z</time>
      </trkpt>
      <trkpt lat="43.29589" lon="-1.02145">
        <ele>80</ele>
        <time>2018-06-25T08:59:58.326Z</time>
      </trkpt>
      <trkpt lat="43.296" lon="-1.02169">
        <ele>80</ele>
        <time>2018-06-25T08:59:59.326Z</time>
      </trkpt>
      <trkpt lat="43.29627" lon="-1.02158">
        <ele>80</ele>
        <time>2018-06-25T09:00:00.326Z</time>
      </trkpt>
      <trkpt lat="43.29647" lon="-1.0218">
        <ele>80</ele>
        <time>2018-06-25T09:00:01.326Z</time>
      </trkpt>
      <trkpt lat="43.29659" lon="-1.02183">
        <ele>81</ele>
        <time>2018-06-25T09:00:02.326Z</time>
      </trkpt>
      <trkpt lat="43.2968" lon="-1.02168">
        <ele>78</ele>
        <time>2018-06-25T09:00:03.326Z</time>
      </trkpt>
      <trkpt lat="43.29689" lon="-1.02166">
        <ele>77</ele>
        <time>2018-06-25T09:00:04.326Z</time>
      </trkpt>
      <trkpt lat="43.29719" lon="-1.02171">
        <ele>74</ele>
        <time>2018-06-25T09:00:05.326Z</time>
      </trkpt>
      <trkpt lat="43.29745" lon="-1.02158">
        <ele>70</ele>
        <time>2018-06-25T09:00:06.326Z</time>
      </trkpt>
      <trkpt lat="43.29758" lon="-1.02161">
        <ele>69</ele>
        <time>2018-06-25T09:00:07.326Z</time>
      </trkpt>
      <trkpt lat="43.2978" lon="-1.02178">
        <ele>68</ele>
        <time>2018-06-25T09:00:08.326Z</time>
      </trkpt>
      <trkpt lat="43.298" lon="-1.02196">
        <ele>67</ele>
        <time>2018-06-25T09:00:09.326Z</time>
      </trkpt>
      <trkpt lat="43.29806" lon="-1.02214">
        <ele>66</ele>
        <time>2018-06-25T09:00:10.326Z</time>
      </trkpt>
      <trkpt lat="43.29804" lon="-1.02295">
        <ele>67</ele>
        <time>2018-06-25T09:00:11.326Z</time>
      </trkpt>
      <trkpt lat="43.29836" lon="-1.02309">
        <ele>69</ele>
        <time>2018-06-25T09:00:12.326Z</time>
      </trkpt>
      <trkpt lat="43.29859" lon="-1.02322">
        <ele>75</ele>
        <time>2018-06-25T09:00:13.326Z</time>
      </trkpt>
      <trkpt lat="43.29869" lon="-1.02344">
        <ele>78</ele>
        <time>2018-06-25T09:00:14.326Z</time>
      </trkpt>
      <trkpt lat="43.29869" lon="-1.02392">
        <ele>79</ele>
        <time>2018-06-25T09:00:15.326Z</time>
      </trkpt>
      <trkpt lat="43.29878" lon="-1.02403">
        <ele>81</ele>
        <time>2018-06-25T09:00:16.326Z</time>
      </trkpt>
      <trkpt lat="43.29875" lon="-1.02484">
        <ele>82</ele>
        <time>2018-06-25T09:00:17.326Z</time>
      </trkpt>
      <trkpt lat="43.29905" lon="-1.02577">
        <ele>91</ele>
        <time>2018-06-25T09:00:18.326Z</time>
      </trkpt>
      <trkpt lat="43.29893" lon="-1.02608">
        <ele>89</ele>
        <time>2018-06-25T09:00:19.326Z</time>
      </trkpt>
      <trkpt lat="43.29892" lon="-1.02655">
        <ele>90</ele>
        <time>2018-06-25T09:00:20.326Z</time>
      </trkpt>
      <trkpt lat="43.29938" lon="-1.02724">
        <ele>106</ele>
        <time>2018-06-25T09:00:21.326Z</time>
      </trkpt>
      <trkpt lat="43.29933" lon="-1.02754">
        <ele>109</ele>
        <time>2018-06-25T09:00:22.326Z</time>
      </trkpt>
      <trkpt lat="43.29885" lon="-1.0283">
        <ele>110</ele>
        <time>2018-06-25T09:00:23.326Z</time>
      </trkpt>
      <trkpt lat="43.29889" lon="-1.02876">
        <ele>120</ele>
        <time>2018-06-25T09:00:24.326Z</time>
      </trkpt>
      <trkpt lat="43.29882" lon="-1.02919">
        <ele>126</ele>
        <time>2018-06-25T09:00:25.326Z</time>
      </trkpt>
      <trkpt lat="43.29889" lon="-1.02974">
        <ele>135</ele>
        <time>2018-06-25T09:00:26.326Z</time>
      </trkpt>
      <trkpt lat="43.29883" lon="-1.03017">
        <ele>139</ele>
        <time>2018-06-25T09:00:27.326Z</time>
      </trkpt>
      <trkpt lat="43.29864" lon="-1.03038">
        <ele>137</ele>
        <time>2018-06-25T09:00:28.326Z</time>
      </trkpt>
      <trkpt lat="43.29862" lon="-1.03105">
        <ele>141</ele>
        <time>2018-06-25T09:00:29.326Z</time>
      </trkpt>
      <trkpt lat="43.2988" lon="-1.03298">
        <ele>144</ele>
        <time>2018-06-25T09:00:30.326Z</time>
      </trkpt>
      <trkpt lat="43.29876" lon="-1.0342">
        <ele>145</ele>
        <time>2018-06-25T09:00:31.326Z</time>
      </trkpt>
      <trkpt lat="43.29919" lon="-1.03555">
        <ele>150</ele>
        <time>2018-06-25T09:00:32.326Z</time>
      </trkpt>
      <trkpt lat="43.29912" lon="-1.03567">
        <ele>150</ele>
        <time>2018-06-25T09:00:33.326Z</time>
      </trkpt>
      <trkpt lat="43.29663" lon="-1.03751">
        <ele>172</ele>
        <time>2018-06-25T09:00:34.326Z</time>
      </trkpt>
      <trkpt lat="43.29538" lon="-1.03813">
        <ele>191</ele>
        <time>2018-06-25T09:00:35.326Z</time>
      </trkpt>
      <trkpt lat="43.29384" lon="-1.03951">
        <ele>220</ele>
        <time>2018-06-25T09:00:36.326Z</time>
      </trkpt>
      <trkpt lat="43.29293" lon="-1.04007">
        <ele>234</ele>
        <time>2018-06-25T09:00:37.326Z</time>
      </trkpt>
      <trkpt lat="43.29195" lon="-1.04087">
        <ele>255</ele>
        <time>2018-06-25T09:00:38.326Z</time>
      </trkpt>
      <trkpt lat="43.29153" lon="-1.041">
        <ele>259</ele>
        <time>2018-06-25T09:00:39.326Z</time>
      </trkpt>
      <trkpt lat="43.29051" lon="-1.04112">
        <ele>266</ele>
        <time>2018-06-25T09:00:40.326Z</time>
      </trkpt>
      <trkpt lat="43.28856" lon="-1.04195">
        <ele>280</ele>
        <time>2018-06-25T09:00:41.326Z</time>
      </trkpt>
      <trkpt lat="43.28825" lon="-1.0419">
        <ele>280</ele>
        <time>2018-06-25T09:00:42.326Z</time>
      </trkpt>
      <trkpt lat="43.28587" lon="-1.04222">
        <ele>271</ele>
        <time>2018-06-25T09:00:43.326Z</time>
      </trkpt>
      <trkpt lat="43.28444" lon="-1.04342">
        <ele>284</ele>
        <time>2018-06-25T09:00:44.326Z</time>
      </trkpt>
      <trkpt lat="43.28405" lon="-1.04366">
        <ele>288</ele>
        <time>2018-06-25T09:00:45.326Z</time>
      </trkpt>
      <trkpt lat="43.28364" lon="-1.04453">
        <ele>293</ele>
        <time>2018-06-25T09:00:46.326Z</time>
      </trkpt>
      <trkpt lat="43.28332" lon="-1.04576">
        <ele>299</ele>
        <time>2018-06-25T09:00:47.326Z</time>
      </trkpt>
      <trkpt lat="43.28328" lon="-1.04668">
        <ele>298</ele>
        <time>2018-06-25T09:00:48.326Z</time>
      </trkpt>
      <trkpt lat="43.28356" lon="-1.0477">
        <ele>298</ele>
        <time>2018-06-25T09:00:49.326Z</time>
      </trkpt>
      <trkpt lat="43.283" lon="-1.04878">
        <ele>294</ele>
        <time>2018-06-25T09:00:50.326Z</time>
      </trkpt>
      <trkpt lat="43.28301" lon="-1.04879">
        <ele>295</ele>
        <time>2018-06-25T09:00:51.326Z</time>
      </trkpt>
      <trkpt lat="43.28281" lon="-1.0505">
        <ele>291</ele>
        <time>2018-06-25T09:00:52.326Z</time>
      </trkpt>
      <trkpt lat="43.28281" lon="-1.0505">
        <ele>291</ele>
        <time>2018-06-25T09:00:53.326Z</time>
      </trkpt>
      <trkpt lat="43.28273" lon="-1.05061">
        <ele>290</ele>
        <time>2018-06-25T09:00:54.326Z</time>
      </trkpt>
      <trkpt lat="43.2827" lon="-1.05066">
        <ele>290</ele>
        <time>2018-06-25T09:00:55.326Z</time>
      </trkpt>
      <trkpt lat="43.28271" lon="-1.05065">
        <ele>290</ele>
        <time>2018-06-25T09:00:56.326Z</time>
      </trkpt>
      <trkpt lat="43.28267" lon="-1.05074">
        <ele>290</ele>
        <time>2018-06-25T09:00:57.326Z</time>
      </trkpt>
      <trkpt lat="43.28255" lon="-1.05218">
        <ele>273</ele>
        <time>2018-06-25T09:00:58.326Z</time>
      </trkpt>
      <trkpt lat="43.28246" lon="-1.0529">
        <ele>265</ele>
        <time>2018-06-25T09:00:59.326Z</time>
      </trkpt>
      <trkpt lat="43.28243" lon="-1.05324">
        <ele>263</ele>
        <time>2018-06-25T09:01:00.326Z</time>
      </trkpt>
      <trkpt lat="43.28237" lon="-1.05362">
        <ele>262</ele>
        <time>2018-06-25T09:01:01.326Z</time>
      </trkpt>
      <trkpt lat="43.28192" lon="-1.05519">
        <ele>259</ele>
        <time>2018-06-25T09:01:02.326Z</time>
      </trkpt>
      <trkpt lat="43.28211" lon="-1.05661">
        <ele>248</ele>
        <time>2018-06-25T09:01:03.326Z</time>
      </trkpt>
      <trkpt lat="43.28247" lon="-1.05793">
        <ele>239</ele>
        <time>2018-06-25T09:01:04.326Z</time>
      </trkpt>
      <trkpt lat="43.28238" lon="-1.05891">
        <ele>239</ele>
        <time>2018-06-25T09:01:05.326Z</time>
      </trkpt>
      <trkpt lat="43.28138" lon="-1.06212">
        <ele>194</ele>
        <time>2018-06-25T09:01:06.326Z</time>
      </trkpt>
      <trkpt lat="43.28089" lon="-1.06306">
        <ele>181</ele>
        <time>2018-06-25T09:01:07.326Z</time>
      </trkpt>
      <trkpt lat="43.27971" lon="-1.06339">
        <ele>181</ele>
        <time>2018-06-25T09:01:08.326Z</time>
      </trkpt>
      <trkpt lat="43.27911" lon="-1.06379">
        <ele>190</ele>
        <time>2018-06-25T09:01:09.326Z</time>
      </trkpt>
      <trkpt lat="43.27884" lon="-1.06428">
        <ele>198</ele>
        <time>2018-06-25T09:01:10.326Z</time>
      </trkpt>
      <trkpt lat="43.27852" lon="-1.06431">
        <ele>200</ele>
        <time>2018-06-25T09:01:11.326Z</time>
      </trkpt>
      <trkpt lat="43.27797" lon="-1.06388">
        <ele>195</ele>
        <time>2018-06-25T09:01:12.326Z</time>
      </trkpt>
      <trkpt lat="43.27768" lon="-1.06424">
        <ele>196</ele>
        <time>2018-06-25T09:01:13.326Z</time>
      </trkpt>
      <trkpt lat="43.27771" lon="-1.06667">
        <ele>192</ele>
        <time>2018-06-25T09:01:14.326Z</time>
      </trkpt>
      <trkpt lat="43.27732" lon="-1.06885">
        <ele>198</ele>
        <time>2018-06-25T09:01:15.326Z</time>
      </trkpt>
      <trkpt lat="43.27718" lon="-1.06916">
        <ele>201</ele>
        <time>2018-06-25T09:01:16.326Z</time>
      </trkpt>
      <trkpt lat="43.27692" lon="-1.06947">
        <ele>204</ele>
        <time>2018-06-25T09:01:17.326Z</time>
      </trkpt>
      <trkpt lat="43.2764" lon="-1.06977">
        <ele>213</ele>
        <time>2018-06-25T09:01:18.326Z</time>
      </trkpt>
      <trkpt lat="43.27621" lon="-1.06939">
        <ele>210</ele>
        <time>2018-06-25T09:01:19.326Z</time>
      </trkpt>
      <trkpt lat="43.27583" lon="-1.06909">
        <ele>211</ele>
        <time>2018-06-25T09:01:20.326Z</time>
      </trkpt>
      <trkpt lat="43.27466" lon="-1.06897">
        <ele>227</ele>
        <time>2018-06-25T09:01:21.326Z</time>
      </trkpt>
      <trkpt lat="43.27431" lon="-1.06917">
        <ele>236</ele>
        <time>2018-06-25T09:01:22.326Z</time>
      </trkpt>
      <trkpt lat="43.27376" lon="-1.06918">
        <ele>244</ele>
        <time>2018-06-25T09:01:23.326Z</time>
      </trkpt>
      <trkpt lat="43.27345" lon="-1.06818">
        <ele>222</ele>
        <time>2018-06-25T09:01:24.326Z</time>
      </trkpt>
      <trkpt lat="43.27315" lon="-1.06785">
        <ele>221</ele>
        <time>2018-06-25T09:01:25.326Z</time>
      </trkpt>
      <trkpt lat="43.27277" lon="-1.06771">
        <ele>226</ele>
        <time>2018-06-25T09:01:26.326Z</time>
      </trkpt>
      <trkpt lat="43.27173" lon="-1.06543">
        <ele>220</ele>
        <time>2018-06-25T09:01:27.326Z</time>
      </trkpt>
      <trkpt lat="43.27169" lon="-1.06549">
        <ele>221</ele>
        <time>2018-06-25T09:01:28.326Z</time>
      </trkpt>
      <trkpt lat="43.27156" lon="-1.06476">
        <ele>215</ele>
        <time>2018-06-25T09:01:29.326Z</time>
      </trkpt>
      <trkpt lat="43.27119" lon="-1.06388">
        <ele>204</ele>
        <time>2018-06-25T09:01:30.326Z</time>
      </trkpt>
      <trkpt lat="43.27118" lon="-1.06365">
        <ele>201</ele>
        <time>2018-06-25T09:01:31.326Z</time>
      </trkpt>
      <trkpt lat="43.27144" lon="-1.06227">
        <ele>189</ele>
        <time>2018-06-25T09:01:32.326Z</time>
      </trkpt>
      <trkpt lat="43.27128" lon="-1.06117">
        <ele>185</ele>
        <time>2018-06-25T09:01:33.326Z</time>
      </trkpt>
      <trkpt lat="43.2713" lon="-1.06">
        <ele>186</ele>
        <time>2018-06-25T09:01:34.326Z</time>
      </trkpt>
      <trkpt lat="43.27099" lon="-1.05957">
        <ele>187</ele>
        <time>2018-06-25T09:01:35.326Z</time>
      </trkpt>
      <trkpt lat="43.27051" lon="-1.05927">
        <ele>189</ele>
        <time>2018-06-25T09:01:36.326Z</time>
      </trkpt>
      <trkpt lat="43.27015" lon="-1.05879">
        <ele>190</ele>
        <time>2018-06-25T09:01:37.326Z</time>
      </trkpt>
      <trkpt lat="43.26998" lon="-1.05732">
        <ele>185</ele>
        <time>2018-06-25T09:01:38.326Z</time>
      </trkpt>
      <trkpt lat="43.26897" lon="-1.05556">
        <ele>182</ele>
        <time>2018-06-25T09:01:39.326Z</time>
      </trkpt>
      <trkpt lat="43.26822" lon="-1.05494">
        <ele>181</ele>
        <time>2018-06-25T09:01:40.326Z</time>
      </trkpt>
      <trkpt lat="43.26709" lon="-1.05463">
        <ele>175</ele>
        <time>2018-06-25T09:01:41.326Z</time>
      </trkpt>
      <trkpt lat="43.26698" lon="-1.05389">
        <ele>171</ele>
        <time>2018-06-25T09:01:42.326Z</time>
      </trkpt>
      <trkpt lat="43.26656" lon="-1.0533">
        <ele>166</ele>
        <time>2018-06-25T09:01:43.326Z</time>
      </trkpt>
      <trkpt lat="43.26642" lon="-1.0532">
        <ele>164</ele>
        <time>2018-06-25T09:01:44.326Z</time>
      </trkpt>
      <trkpt lat="43.26625" lon="-1.05321">
        <ele>162</ele>
        <time>2018-06-25T09:01:45.326Z</time>
      </trkpt>
      <trkpt lat="43.26604" lon="-1.05342">
        <ele>161</ele>
        <time>2018-06-25T09:01:46.326Z</time>
      </trkpt>
      <trkpt lat="43.26517" lon="-1.0547">
        <ele>149</ele>
        <time>2018-06-25T09:01:47.326Z</time>
      </trkpt>
      <trkpt lat="43.26514" lon="-1.05519">
        <ele>146</ele>
        <time>2018-06-25T09:01:48.326Z</time>
      </trkpt>
      <trkpt lat="43.26506" lon="-1.05538">
        <ele>145</ele>
        <time>2018-06-25T09:01:49.326Z</time>
      </trkpt>
      <trkpt lat="43.2649" lon="-1.05548">
        <ele>142</ele>
        <time>2018-06-25T09:01:50.326Z</time>
      </trkpt>
      <trkpt lat="43.26462" lon="-1.05548">
        <ele>141</ele>
        <time>2018-06-25T09:01:51.326Z</time>
      </trkpt>
      <trkpt lat="43.26436" lon="-1.05563">
        <ele>139</ele>
        <time>2018-06-25T09:01:52.326Z</time>
      </trkpt>
      <trkpt lat="43.26408" lon="-1.056">
        <ele>136</ele>
        <time>2018-06-25T09:01:53.326Z</time>
      </trkpt>
      <trkpt lat="43.26359" lon="-1.05686">
        <ele>131</ele>
        <time>2018-06-25T09:01:54.326Z</time>
      </trkpt>
      <trkpt lat="43.26344" lon="-1.057">
        <ele>130</ele>
        <time>2018-06-25T09:01:55.326Z</time>
      </trkpt>
      <trkpt lat="43.26238" lon="-1.05687">
        <ele>136</ele>
        <time>2018-06-25T09:01:56.326Z</time>
      </trkpt>
      <trkpt lat="43.26195" lon="-1.05646">
        <ele>136</ele>
        <time>2018-06-25T09:01:57.326Z</time>
      </trkpt>
      <trkpt lat="43.26156" lon="-1.05635">
        <ele>138</ele>
        <time>2018-06-25T09:01:58.326Z</time>
      </trkpt>
      <trkpt lat="43.26146" lon="-1.05642">
        <ele>139</ele>
        <time>2018-06-25T09:01:59.326Z</time>
      </trkpt>
      <trkpt lat="43.26135" lon="-1.05843">
        <ele>150</ele>
        <time>2018-06-25T09:02:00.326Z</time>
      </trkpt>
      <trkpt lat="43.26097" lon="-1.05908">
        <ele>155</ele>
        <time>2018-06-25T09:02:01.326Z</time>
      </trkpt>
      <trkpt lat="43.26074" lon="-1.05982">
        <ele>159</ele>
        <time>2018-06-25T09:02:02.326Z</time>
      </trkpt>
      <trkpt lat="43.26034" lon="-1.06043">
        <ele>161</ele>
        <time>2018-06-25T09:02:03.326Z</time>
      </trkpt>
      <trkpt lat="43.25999" lon="-1.06141">
        <ele>167</ele>
        <time>2018-06-25T09:02:04.326Z</time>
      </trkpt>
      <trkpt lat="43.25937" lon="-1.06381">
        <ele>174</ele>
        <time>2018-06-25T09:02:05.326Z</time>
      </trkpt>
      <trkpt lat="43.25937" lon="-1.06598">
        <ele>161</ele>
        <time>2018-06-25T09:02:06.326Z</time>
      </trkpt>
      <trkpt lat="43.25954" lon="-1.06657">
        <ele>158</ele>
        <time>2018-06-25T09:02:07.326Z</time>
      </trkpt>
      <trkpt lat="43.25917" lon="-1.06697">
        <ele>150</ele>
        <time>2018-06-25T09:02:08.326Z</time>
      </trkpt>
      <trkpt lat="43.25896" lon="-1.06703">
        <ele>148</ele>
        <time>2018-06-25T09:02:09.326Z</time>
      </trkpt>
      <trkpt lat="43.25885" lon="-1.06737">
        <ele>144</ele>
        <time>2018-06-25T09:02:10.326Z</time>
      </trkpt>
      <trkpt lat="43.25798" lon="-1.0678">
        <ele>136</ele>
        <time>2018-06-25T09:02:11.326Z</time>
      </trkpt>
      <trkpt lat="43.2568" lon="-1.06821">
        <ele>129</ele>
        <time>2018-06-25T09:02:12.326Z</time>
      </trkpt>
      <trkpt lat="43.25669" lon="-1.06838">
        <ele>128</ele>
        <time>2018-06-25T09:02:13.326Z</time>
      </trkpt>
      <trkpt lat="43.25647" lon="-1.0685">
        <ele>129</ele>
        <time>2018-06-25T09:02:14.326Z</time>
      </trkpt>
      <trkpt lat="43.25621" lon="-1.06848">
        <ele>129</ele>
        <time>2018-06-25T09:02:15.326Z</time>
      </trkpt>
      <trkpt lat="43.25511" lon="-1.06882">
        <ele>132</ele>
        <time>2018-06-25T09:02:16.326Z</time>
      </trkpt>
      <trkpt lat="43.25462" lon="-1.06911">
        <ele>134</ele>
        <time>2018-06-25T09:02:17.326Z</time>
      </trkpt>
      <trkpt lat="43.25449" lon="-1.06931">
        <ele>134</ele>
        <time>2018-06-25T09:02:18.326Z</time>
      </trkpt>
      <trkpt lat="43.25463" lon="-1.06986">
        <ele>141</ele>
        <time>2018-06-25T09:02:19.326Z</time>
      </trkpt>
      <trkpt lat="43.25495" lon="-1.06969">
        <ele>145</ele>
        <time>2018-06-25T09:02:20.326Z</time>
      </trkpt>
      <trkpt lat="43.25504" lon="-1.06975">
        <ele>146</ele>
        <time>2018-06-25T09:02:21.326Z</time>
      </trkpt>
      <trkpt lat="43.25539" lon="-1.07079">
        <ele>156</ele>
        <time>2018-06-25T09:02:22.326Z</time>
      </trkpt>
      <trkpt lat="43.2555" lon="-1.07084">
        <ele>157</ele>
        <time>2018-06-25T09:02:23.326Z</time>
      </trkpt>
      <trkpt lat="43.25539" lon="-1.07087">
        <ele>156</ele>
        <time>2018-06-25T09:02:24.326Z</time>
      </trkpt>
      <trkpt lat="43.25559" lon="-1.07126">
        <ele>159</ele>
        <time>2018-06-25T09:02:25.326Z</time>
      </trkpt>
      <trkpt lat="43.25558" lon="-1.07207">
        <ele>162</ele>
        <time>2018-06-25T09:02:26.326Z</time>
      </trkpt>
      <trkpt lat="43.25553" lon="-1.0722">
        <ele>162</ele>
        <time>2018-06-25T09:02:27.326Z</time>
      </trkpt>
      <trkpt lat="43.25516" lon="-1.07254">
        <ele>155</ele>
        <time>2018-06-25T09:02:28.326Z</time>
      </trkpt>
      <trkpt lat="43.25492" lon="-1.07311">
        <ele>154</ele>
        <time>2018-06-25T09:02:29.326Z</time>
      </trkpt>
      <trkpt lat="43.2548" lon="-1.07407">
        <ele>157</ele>
        <time>2018-06-25T09:02:30.326Z</time>
      </trkpt>
      <trkpt lat="43.25473" lon="-1.07422">
        <ele>157</ele>
        <time>2018-06-25T09:02:31.326Z</time>
      </trkpt>
      <trkpt lat="43.25394" lon="-1.0749">
        <ele>152</ele>
        <time>2018-06-25T09:02:32.326Z</time>
      </trkpt>
      <trkpt lat="43.25369" lon="-1.07529">
        <ele>152</ele>
        <time>2018-06-25T09:02:33.326Z</time>
      </trkpt>
      <trkpt lat="43.25319" lon="-1.07584">
        <ele>149</ele>
        <time>2018-06-25T09:02:34.326Z</time>
      </trkpt>
      <trkpt lat="43.25274" lon="-1.07621">
        <ele>146</ele>
        <time>2018-06-25T09:02:35.326Z</time>
      </trkpt>
      <trkpt lat="43.25107" lon="-1.07822">
        <ele>140</ele>
        <time>2018-06-25T09:02:36.326Z</time>
      </trkpt>
      <trkpt lat="43.24993" lon="-1.07862">
        <ele>145</ele>
        <time>2018-06-25T09:02:37.326Z</time>
      </trkpt>
      <trkpt lat="43.24916" lon="-1.07909">
        <ele>155</ele>
        <time>2018-06-25T09:02:38.326Z</time>
      </trkpt>
      <trkpt lat="43.24811" lon="-1.07936">
        <ele>161</ele>
        <time>2018-06-25T09:02:39.326Z</time>
      </trkpt>
      <trkpt lat="43.24757" lon="-1.07984">
        <ele>166</ele>
        <time>2018-06-25T09:02:40.326Z</time>
      </trkpt>
      <trkpt lat="43.24682" lon="-1.0808">
        <ele>169</ele>
        <time>2018-06-25T09:02:41.326Z</time>
      </trkpt>
      <trkpt lat="43.24646" lon="-1.08175">
        <ele>165</ele>
        <time>2018-06-25T09:02:42.326Z</time>
      </trkpt>
      <trkpt lat="43.24639" lon="-1.08245">
        <ele>165</ele>
        <time>2018-06-25T09:02:43.326Z</time>
      </trkpt>
      <trkpt lat="43.24609" lon="-1.08338">
        <ele>156</ele>
        <time>2018-06-25T09:02:44.326Z</time>
      </trkpt>
      <trkpt lat="43.24596" lon="-1.0842">
        <ele>150</ele>
        <time>2018-06-25T09:02:45.326Z</time>
      </trkpt>
      <trkpt lat="43.24561" lon="-1.08482">
        <ele>148</ele>
        <time>2018-06-25T09:02:46.326Z</time>
      </trkpt>
      <trkpt lat="43.24453" lon="-1.08566">
        <ele>151</ele>
        <time>2018-06-25T09:02:47.326Z</time>
      </trkpt>
      <trkpt lat="43.24336" lon="-1.08731">
        <ele>145</ele>
        <time>2018-06-25T09:02:48.326Z</time>
      </trkpt>
      <trkpt lat="43.24261" lon="-1.08803">
        <ele>145</ele>
        <time>2018-06-25T09:02:49.326Z</time>
      </trkpt>
      <trkpt lat="43.24204" lon="-1.08835">
        <ele>147</ele>
        <time>2018-06-25T09:02:50.326Z</time>
      </trkpt>
      <trkpt lat="43.2414" lon="-1.08896">
        <ele>148</ele>
        <time>2018-06-25T09:02:51.326Z</time>
      </trkpt>
      <trkpt lat="43.24087" lon="-1.08931">
        <ele>150</ele>
        <time>2018-06-25T09:02:52.326Z</time>
      </trkpt>
      <trkpt lat="43.24044" lon="-1.08945">
        <ele>152</ele>
        <time>2018-06-25T09:02:53.326Z</time>
      </trkpt>
      <trkpt lat="43.2397" lon="-1.08942">
        <ele>153</ele>
        <time>2018-06-25T09:02:54.326Z</time>
      </trkpt>
      <trkpt lat="43.23896" lon="-1.08966">
        <ele>154</ele>
        <time>2018-06-25T09:02:55.326Z</time>
      </trkpt>
      <trkpt lat="43.23885" lon="-1.0896">
        <ele>154</ele>
        <time>2018-06-25T09:02:56.326Z</time>
      </trkpt>
      <trkpt lat="43.23788" lon="-1.08757">
        <ele>149</ele>
        <time>2018-06-25T09:02:57.326Z</time>
      </trkpt>
      <trkpt lat="43.23776" lon="-1.0876">
        <ele>149</ele>
        <time>2018-06-25T09:02:58.326Z</time>
      </trkpt>
      <trkpt lat="43.23551" lon="-1.09187">
        <ele>157</ele>
        <time>2018-06-25T09:02:59.326Z</time>
      </trkpt>
      <trkpt lat="43.2358" lon="-1.09283">
        <ele>163</ele>
        <time>2018-06-25T09:03:00.326Z</time>
      </trkpt>
      <trkpt lat="43.23535" lon="-1.09383">
        <ele>167</ele>
        <time>2018-06-25T09:03:01.326Z</time>
      </trkpt>
      <trkpt lat="43.2347" lon="-1.09498">
        <ele>171</ele>
        <time>2018-06-25T09:03:02.326Z</time>
      </trkpt>
      <trkpt lat="43.23456" lon="-1.09561">
        <ele>173</ele>
        <time>2018-06-25T09:03:03.326Z</time>
      </trkpt>
      <trkpt lat="43.23437" lon="-1.09599">
        <ele>172</ele>
        <time>2018-06-25T09:03:04.326Z</time>
      </trkpt>
      <trkpt lat="43.23444" lon="-1.09617">
        <ele>175</ele>
        <time>2018-06-25T09:03:05.326Z</time>
      </trkpt>
      <trkpt lat="43.23467" lon="-1.09897">
        <ele>190</ele>
        <time>2018-06-25T09:03:06.326Z</time>
      </trkpt>
      <trkpt lat="43.23461" lon="-1.09922">
        <ele>189</ele>
        <time>2018-06-25T09:03:07.326Z</time>
      </trkpt>
      <trkpt lat="43.23426" lon="-1.09982">
        <ele>184</ele>
        <time>2018-06-25T09:03:08.326Z</time>
      </trkpt>
      <trkpt lat="43.23383" lon="-1.10037">
        <ele>183</ele>
        <time>2018-06-25T09:03:09.326Z</time>
      </trkpt>
      <trkpt lat="43.23308" lon="-1.10108">
        <ele>181</ele>
        <time>2018-06-25T09:03:10.326Z</time>
      </trkpt>
      <trkpt lat="43.2319" lon="-1.10169">
        <ele>178</ele>
        <time>2018-06-25T09:03:11.326Z</time>
      </trkpt>
      <trkpt lat="43.23121" lon="-1.10231">
        <ele>172</ele>
        <time>2018-06-25T09:03:12.326Z</time>
      </trkpt>
      <trkpt lat="43.23099" lon="-1.10244">
        <ele>170</ele>
        <time>2018-06-25T09:03:13.326Z</time>
      </trkpt>
      <trkpt lat="43.23097" lon="-1.10268">
        <ele>169</ele>
        <time>2018-06-25T09:03:14.326Z</time>
      </trkpt>
      <trkpt lat="43.23046" lon="-1.10392">
        <ele>163</ele>
        <time>2018-06-25T09:03:15.326Z</time>
      </trkpt>
      <trkpt lat="43.23007" lon="-1.10601">
        <ele>156</ele>
        <time>2018-06-25T09:03:16.326Z</time>
      </trkpt>
      <trkpt lat="43.22982" lon="-1.10667">
        <ele>158</ele>
        <time>2018-06-25T09:03:17.326Z</time>
      </trkpt>
      <trkpt lat="43.22955" lon="-1.10709">
        <ele>160</ele>
        <time>2018-06-25T09:03:18.326Z</time>
      </trkpt>
      <trkpt lat="43.22864" lon="-1.10913">
        <ele>173</ele>
        <time>2018-06-25T09:03:19.326Z</time>
      </trkpt>
      <trkpt lat="43.22837" lon="-1.10929">
        <ele>172</ele>
        <time>2018-06-25T09:03:20.326Z</time>
      </trkpt>
      <trkpt lat="43.22783" lon="-1.11035">
        <ele>175</ele>
        <time>2018-06-25T09:03:21.326Z</time>
      </trkpt>
      <trkpt lat="43.22742" lon="-1.11153">
        <ele>177</ele>
        <time>2018-06-25T09:03:22.326Z</time>
      </trkpt>
      <trkpt lat="43.22732" lon="-1.11264">
        <ele>180</ele>
        <time>2018-06-25T09:03:23.326Z</time>
      </trkpt>
      <trkpt lat="43.22639" lon="-1.11417">
        <ele>185</ele>
        <time>2018-06-25T09:03:24.326Z</time>
      </trkpt>
      <trkpt lat="43.22604" lon="-1.11492">
        <ele>185</ele>
        <time>2018-06-25T09:03:25.326Z</time>
      </trkpt>
      <trkpt lat="43.22574" lon="-1.11619">
        <ele>184</ele>
        <time>2018-06-25T09:03:26.326Z</time>
      </trkpt>
      <trkpt lat="43.22523" lon="-1.11656">
        <ele>177</ele>
        <time>2018-06-25T09:03:27.326Z</time>
      </trkpt>
      <trkpt lat="43.22508" lon="-1.11678">
        <ele>175</ele>
        <time>2018-06-25T09:03:28.326Z</time>
      </trkpt>
      <trkpt lat="43.22487" lon="-1.1194">
        <ele>177</ele>
        <time>2018-06-25T09:03:29.326Z</time>
      </trkpt>
      <trkpt lat="43.22476" lon="-1.11961">
        <ele>177</ele>
        <time>2018-06-25T09:03:30.326Z</time>
      </trkpt>
      <trkpt lat="43.2245" lon="-1.11973">
        <ele>177</ele>
        <time>2018-06-25T09:03:31.326Z</time>
      </trkpt>
      <trkpt lat="43.22388" lon="-1.11964">
        <ele>180</ele>
        <time>2018-06-25T09:03:32.326Z</time>
      </trkpt>
      <trkpt lat="43.22287" lon="-1.11906">
        <ele>182</ele>
        <time>2018-06-25T09:03:33.326Z</time>
      </trkpt>
      <trkpt lat="43.2224" lon="-1.1189">
        <ele>184</ele>
        <time>2018-06-25T09:03:34.326Z</time>
      </trkpt>
      <trkpt lat="43.22204" lon="-1.11888">
        <ele>184</ele>
        <time>2018-06-25T09:03:35.326Z</time>
      </trkpt>
      <trkpt lat="43.2213" lon="-1.11919">
        <ele>182</ele>
        <time>2018-06-25T09:03:36.326Z</time>
      </trkpt>
      <trkpt lat="43.22037" lon="-1.12051">
        <ele>182</ele>
        <time>2018-06-25T09:03:37.326Z</time>
      </trkpt>
      <trkpt lat="43.21826" lon="-1.12274">
        <ele>177</ele>
        <time>2018-06-25T09:03:38.326Z</time>
      </trkpt>
      <trkpt lat="43.2182" lon="-1.12288">
        <ele>178</ele>
        <time>2018-06-25T09:03:39.326Z</time>
      </trkpt>
      <trkpt lat="43.2184" lon="-1.12333">
        <ele>181</ele>
        <time>2018-06-25T09:03:40.326Z</time>
      </trkpt>
      <trkpt lat="43.21824" lon="-1.12348">
        <ele>184</ele>
        <time>2018-06-25T09:03:41.326Z</time>
      </trkpt>
      <trkpt lat="43.21768" lon="-1.12362">
        <ele>187</ele>
        <time>2018-06-25T09:03:42.326Z</time>
      </trkpt>
      <trkpt lat="43.21667" lon="-1.125">
        <ele>210</ele>
        <time>2018-06-25T09:03:43.326Z</time>
      </trkpt>
      <trkpt lat="43.21638" lon="-1.12552">
        <ele>217</ele>
        <time>2018-06-25T09:03:44.326Z</time>
      </trkpt>
      <trkpt lat="43.2156" lon="-1.12642">
        <ele>219</ele>
        <time>2018-06-25T09:03:45.326Z</time>
      </trkpt>
      <trkpt lat="43.21541" lon="-1.12675">
        <ele>219</ele>
        <time>2018-06-25T09:03:46.326Z</time>
      </trkpt>
      <trkpt lat="43.21524" lon="-1.12764">
        <ele>221</ele>
        <time>2018-06-25T09:03:47.326Z</time>
      </trkpt>
      <trkpt lat="43.21526" lon="-1.1283">
        <ele>226</ele>
        <time>2018-06-25T09:03:48.326Z</time>
      </trkpt>
      <trkpt lat="43.21503" lon="-1.1284">
        <ele>221</ele>
        <time>2018-06-25T09:03:49.326Z</time>
      </trkpt>
      <trkpt lat="43.21484" lon="-1.12831">
        <ele>216</ele>
        <time>2018-06-25T09:03:50.326Z</time>
      </trkpt>
      <trkpt lat="43.21398" lon="-1.12965">
        <ele>225</ele>
        <time>2018-06-25T09:03:51.326Z</time>
      </trkpt>
      <trkpt lat="43.21383" lon="-1.13009">
        <ele>227</ele>
        <time>2018-06-25T09:03:52.326Z</time>
      </trkpt>
      <trkpt lat="43.21371" lon="-1.13238">
        <ele>242</ele>
        <time>2018-06-25T09:03:53.326Z</time>
      </trkpt>
      <trkpt lat="43.21351" lon="-1.1334">
        <ele>243</ele>
        <time>2018-06-25T09:03:54.326Z</time>
      </trkpt>
      <trkpt lat="43.21334" lon="-1.1339">
        <ele>243</ele>
        <time>2018-06-25T09:03:55.326Z</time>
      </trkpt>
      <trkpt lat="43.21231" lon="-1.13564">
        <ele>264</ele>
        <time>2018-06-25T09:03:56.326Z</time>
      </trkpt>
      <trkpt lat="43.21184" lon="-1.13616">
        <ele>271</ele>
        <time>2018-06-25T09:03:57.326Z</time>
      </trkpt>
      <trkpt lat="43.21143" lon="-1.13644">
        <ele>273</ele>
        <time>2018-06-25T09:03:58.326Z</time>
      </trkpt>
      <trkpt lat="43.21037" lon="-1.1376">
        <ele>267</ele>
        <time>2018-06-25T09:03:59.326Z</time>
      </trkpt>
      <trkpt lat="43.20842" lon="-1.13834">
        <ele>262</ele>
        <time>2018-06-25T09:04:00.326Z</time>
      </trkpt>
      <trkpt lat="43.20713" lon="-1.13926">
        <ele>265</ele>
        <time>2018-06-25T09:04:01.326Z</time>
      </trkpt>
      <trkpt lat="43.20679" lon="-1.13939">
        <ele>266</ele>
        <time>2018-06-25T09:04:02.326Z</time>
      </trkpt>
      <trkpt lat="43.20529" lon="-1.13965">
        <ele>264</ele>
        <time>2018-06-25T09:04:03.326Z</time>
      </trkpt>
      <trkpt lat="43.2054" lon="-1.13953">
        <ele>264</ele>
        <time>2018-06-25T09:04:04.326Z</time>
      </trkpt>
      <trkpt lat="43.20529" lon="-1.13967">
        <ele>264</ele>
        <time>2018-06-25T09:04:05.326Z</time>
      </trkpt>
      <trkpt lat="43.2044" lon="-1.14001">
        <ele>260</ele>
        <time>2018-06-25T09:04:06.326Z</time>
      </trkpt>
      <trkpt lat="43.20369" lon="-1.14095">
        <ele>254</ele>
        <time>2018-06-25T09:04:07.326Z</time>
      </trkpt>
      <trkpt lat="43.20337" lon="-1.14116">
        <ele>249</ele>
        <time>2018-06-25T09:04:08.326Z</time>
      </trkpt>
      <trkpt lat="43.20313" lon="-1.14145">
        <ele>246</ele>
        <time>2018-06-25T09:04:09.326Z</time>
      </trkpt>
      <trkpt lat="43.20308" lon="-1.14086">
        <ele>243</ele>
        <time>2018-06-25T09:04:10.326Z</time>
      </trkpt>
      <trkpt lat="43.20299" lon="-1.14084">
        <ele>242</ele>
        <time>2018-06-25T09:04:11.326Z</time>
      </trkpt>
      <trkpt lat="43.20269" lon="-1.14135">
        <ele>238</ele>
        <time>2018-06-25T09:04:12.326Z</time>
      </trkpt>
      <trkpt lat="43.20204" lon="-1.14211">
        <ele>233</ele>
        <time>2018-06-25T09:04:13.326Z</time>
      </trkpt>
      <trkpt lat="43.20169" lon="-1.14239">
        <ele>231</ele>
        <time>2018-06-25T09:04:14.326Z</time>
      </trkpt>
      <trkpt lat="43.20168" lon="-1.14252">
        <ele>231</ele>
        <time>2018-06-25T09:04:15.326Z</time>
      </trkpt>
      <trkpt lat="43.20193" lon="-1.14307">
        <ele>235</ele>
        <time>2018-06-25T09:04:16.326Z</time>
      </trkpt>
      <trkpt lat="43.20189" lon="-1.14333">
        <ele>236</ele>
        <time>2018-06-25T09:04:17.326Z</time>
      </trkpt>
      <trkpt lat="43.20162" lon="-1.14373">
        <ele>237</ele>
        <time>2018-06-25T09:04:18.326Z</time>
      </trkpt>
      <trkpt lat="43.20099" lon="-1.14401">
        <ele>238</ele>
        <time>2018-06-25T09:04:19.326Z</time>
      </trkpt>
      <trkpt lat="43.2007" lon="-1.14426">
        <ele>239</ele>
        <time>2018-06-25T09:04:20.326Z</time>
      </trkpt>
      <trkpt lat="43.20011" lon="-1.14504">
        <ele>237</ele>
        <time>2018-06-25T09:04:21.326Z</time>
      </trkpt>
      <trkpt lat="43.19973" lon="-1.14641">
        <ele>242</ele>
        <time>2018-06-25T09:04:22.326Z</time>
      </trkpt>
      <trkpt lat="43.19913" lon="-1.14763">
        <ele>242</ele>
        <time>2018-06-25T09:04:23.326Z</time>
      </trkpt>
      <trkpt lat="43.19846" lon="-1.15001">
        <ele>234</ele>
        <time>2018-06-25T09:04:24.326Z</time>
      </trkpt>
      <trkpt lat="43.19851" lon="-1.1508">
        <ele>235</ele>
        <time>2018-06-25T09:04:25.326Z</time>
      </trkpt>
      <trkpt lat="43.19868" lon="-1.1515">
        <ele>234</ele>
        <time>2018-06-25T09:04:26.326Z</time>
      </trkpt>
      <trkpt lat="43.19835" lon="-1.15218">
        <ele>235</ele>
        <time>2018-06-25T09:04:27.326Z</time>
      </trkpt>
      <trkpt lat="43.19806" lon="-1.15313">
        <ele>232</ele>
        <time>2018-06-25T09:04:28.326Z</time>
      </trkpt>
      <trkpt lat="43.19784" lon="-1.15381">
        <ele>229</ele>
        <time>2018-06-25T09:04:29.326Z</time>
      </trkpt>
      <trkpt lat="43.19726" lon="-1.15344">
        <ele>227</ele>
        <time>2018-06-25T09:04:30.326Z</time>
      </trkpt>
      <trkpt lat="43.19673" lon="-1.15232">
        <ele>221</ele>
        <time>2018-06-25T09:04:31.326Z</time>
      </trkpt>
      <trkpt lat="43.19628" lon="-1.15182">
        <ele>219</ele>
        <time>2018-06-25T09:04:32.326Z</time>
      </trkpt>
      <trkpt lat="43.19579" lon="-1.15091">
        <ele>219</ele>
        <time>2018-06-25T09:04:33.326Z</time>
      </trkpt>
      <trkpt lat="43.19555" lon="-1.15073">
        <ele>220</ele>
        <time>2018-06-25T09:04:34.326Z</time>
      </trkpt>
      <trkpt lat="43.19468" lon="-1.15043">
        <ele>222</ele>
        <time>2018-06-25T09:04:35.326Z</time>
      </trkpt>
      <trkpt lat="43.19419" lon="-1.14981">
        <ele>227</ele>
        <time>2018-06-25T09:04:36.326Z</time>
      </trkpt>
      <trkpt lat="43.19359" lon="-1.14939">
        <ele>229</ele>
        <time>2018-06-25T09:04:37.326Z</time>
      </trkpt>
      <trkpt lat="43.19226" lon="-1.15196">
        <ele>224</ele>
        <time>2018-06-25T09:04:38.326Z</time>
      </trkpt>
      <trkpt lat="43.19216" lon="-1.15232">
        <ele>224</ele>
        <time>2018-06-25T09:04:39.326Z</time>
      </trkpt>
      <trkpt lat="43.19166" lon="-1.15285">
        <ele>225</ele>
        <time>2018-06-25T09:04:40.326Z</time>
      </trkpt>
      <trkpt lat="43.19122" lon="-1.15293">
        <ele>227</ele>
        <time>2018-06-25T09:04:41.326Z</time>
      </trkpt>
      <trkpt lat="43.19108" lon="-1.15303">
        <ele>227</ele>
        <time>2018-06-25T09:04:42.326Z</time>
      </trkpt>
      <trkpt lat="43.1907" lon="-1.15431">
        <ele>223</ele>
        <time>2018-06-25T09:04:43.326Z</time>
      </trkpt>
      <trkpt lat="43.1893" lon="-1.15564">
        <ele>217</ele>
        <time>2018-06-25T09:04:44.326Z</time>
      </trkpt>
      <trkpt lat="43.18914" lon="-1.15562">
        <ele>218</ele>
        <time>2018-06-25T09:04:45.326Z</time>
      </trkpt>
      <trkpt lat="43.18889" lon="-1.15545">
        <ele>221</ele>
        <time>2018-06-25T09:04:46.326Z</time>
      </trkpt>
      <trkpt lat="43.18876" lon="-1.1555">
        <ele>221</ele>
        <time>2018-06-25T09:04:47.326Z</time>
      </trkpt>
      <trkpt lat="43.18801" lon="-1.15739">
        <ele>218</ele>
        <time>2018-06-25T09:04:48.326Z</time>
      </trkpt>
      <trkpt lat="43.18754" lon="-1.15824">
        <ele>215</ele>
        <time>2018-06-25T09:04:49.326Z</time>
      </trkpt>
      <trkpt lat="43.18735" lon="-1.15904">
        <ele>212</ele>
        <time>2018-06-25T09:04:50.326Z</time>
      </trkpt>
      <trkpt lat="43.18727" lon="-1.15912">
        <ele>212</ele>
        <time>2018-06-25T09:04:51.326Z</time>
      </trkpt>
      <trkpt lat="43.18661" lon="-1.15898">
        <ele>213</ele>
        <time>2018-06-25T09:04:52.326Z</time>
      </trkpt>
      <trkpt lat="43.1864" lon="-1.15912">
        <ele>213</ele>
        <time>2018-06-25T09:04:53.326Z</time>
      </trkpt>
      <trkpt lat="43.18609" lon="-1.15968">
        <ele>213</ele>
        <time>2018-06-25T09:04:54.326Z</time>
      </trkpt>
      <trkpt lat="43.18534" lon="-1.15945">
        <ele>221</ele>
        <time>2018-06-25T09:04:55.326Z</time>
      </trkpt>
      <trkpt lat="43.18483" lon="-1.15982">
        <ele>228</ele>
        <time>2018-06-25T09:04:56.326Z</time>
      </trkpt>
      <trkpt lat="43.18479" lon="-1.15996">
        <ele>228</ele>
        <time>2018-06-25T09:04:57.326Z</time>
      </trkpt>
      <trkpt lat="43.18486" lon="-1.16052">
        <ele>228</ele>
        <time>2018-06-25T09:04:58.326Z</time>
      </trkpt>
      <trkpt lat="43.1843" lon="-1.16242">
        <ele>232</ele>
        <time>2018-06-25T09:04:59.326Z</time>
      </trkpt>
      <trkpt lat="43.18404" lon="-1.1627">
        <ele>237</ele>
        <time>2018-06-25T09:05:00.326Z</time>
      </trkpt>
      <trkpt lat="43.18382" lon="-1.16311">
        <ele>239</ele>
        <time>2018-06-25T09:05:01.326Z</time>
      </trkpt>
      <trkpt lat="43.18379" lon="-1.16354">
        <ele>237</ele>
        <time>2018-06-25T09:05:02.326Z</time>
      </trkpt>
      <trkpt lat="43.18341" lon="-1.16512">
        <ele>234</ele>
        <time>2018-06-25T09:05:03.326Z</time>
      </trkpt>
      <trkpt lat="43.18338" lon="-1.16557">
        <ele>230</ele>
        <time>2018-06-25T09:05:04.326Z</time>
      </trkpt>
      <trkpt lat="43.18311" lon="-1.16648">
        <ele>227</ele>
        <time>2018-06-25T09:05:05.326Z</time>
      </trkpt>
      <trkpt lat="43.18296" lon="-1.16776">
        <ele>216</ele>
        <time>2018-06-25T09:05:06.326Z</time>
      </trkpt>
      <trkpt lat="43.18317" lon="-1.16824">
        <ele>212</ele>
        <time>2018-06-25T09:05:07.326Z</time>
      </trkpt>
      <trkpt lat="43.18318" lon="-1.16845">
        <ele>211</ele>
        <time>2018-06-25T09:05:08.326Z</time>
      </trkpt>
      <trkpt lat="43.18296" lon="-1.16907">
        <ele>209</ele>
        <time>2018-06-25T09:05:09.326Z</time>
      </trkpt>
      <trkpt lat="43.183" lon="-1.16924">
        <ele>207</ele>
        <time>2018-06-25T09:05:10.326Z</time>
      </trkpt>
      <trkpt lat="43.18344" lon="-1.16974">
        <ele>202</ele>
        <time>2018-06-25T09:05:11.326Z</time>
      </trkpt>
      <trkpt lat="43.18343" lon="-1.16985">
        <ele>201</ele>
        <time>2018-06-25T09:05:12.326Z</time>
      </trkpt>
      <trkpt lat="43.18277" lon="-1.16963">
        <ele>207</ele>
        <time>2018-06-25T09:05:13.326Z</time>
      </trkpt>
      <trkpt lat="43.18255" lon="-1.16965">
        <ele>208</ele>
        <time>2018-06-25T09:05:14.326Z</time>
      </trkpt>
      <trkpt lat="43.18224" lon="-1.16999">
        <ele>210</ele>
        <time>2018-06-25T09:05:15.326Z</time>
      </trkpt>
      <trkpt lat="43.18152" lon="-1.17021">
        <ele>220</ele>
        <time>2018-06-25T09:05:16.326Z</time>
      </trkpt>
      <trkpt lat="43.1808" lon="-1.17023">
        <ele>234</ele>
        <time>2018-06-25T09:05:17.326Z</time>
      </trkpt>
      <trkpt lat="43.18026" lon="-1.17034">
        <ele>246</ele>
        <time>2018-06-25T09:05:18.326Z</time>
      </trkpt>
      <trkpt lat="43.18009" lon="-1.1709">
        <ele>240</ele>
        <time>2018-06-25T09:05:19.326Z</time>
      </trkpt>
      <trkpt lat="43.17961" lon="-1.17112">
        <ele>245</ele>
        <time>2018-06-25T09:05:20.326Z</time>
      </trkpt>
      <trkpt lat="43.17922" lon="-1.17117">
        <ele>251</ele>
        <time>2018-06-25T09:05:21.326Z</time>
      </trkpt>
      <trkpt lat="43.17911" lon="-1.17128">
        <ele>251</ele>
        <time>2018-06-25T09:05:22.326Z</time>
      </trkpt>
      <trkpt lat="43.17839" lon="-1.17272">
        <ele>250</ele>
        <time>2018-06-25T09:05:23.326Z</time>
      </trkpt>
      <trkpt lat="43.17824" lon="-1.17279">
        <ele>251</ele>
        <time>2018-06-25T09:05:24.326Z</time>
      </trkpt>
      <trkpt lat="43.17699" lon="-1.17261">
        <ele>266</ele>
        <time>2018-06-25T09:05:25.326Z</time>
      </trkpt>
      <trkpt lat="43.17566" lon="-1.17296">
        <ele>272</ele>
        <time>2018-06-25T09:05:26.326Z</time>
      </trkpt>
      <trkpt lat="43.17429" lon="-1.17247">
        <ele>254</ele>
        <time>2018-06-25T09:05:27.326Z</time>
      </trkpt>
      <trkpt lat="43.17403" lon="-1.1721">
        <ele>250</ele>
        <time>2018-06-25T09:05:28.326Z</time>
      </trkpt>
      <trkpt lat="43.17387" lon="-1.17205">
        <ele>248</ele>
        <time>2018-06-25T09:05:29.326Z</time>
      </trkpt>
      <trkpt lat="43.17377" lon="-1.17215">
        <ele>246</ele>
        <time>2018-06-25T09:05:30.326Z</time>
      </trkpt>
      <trkpt lat="43.17368" lon="-1.17251">
        <ele>244</ele>
        <time>2018-06-25T09:05:31.326Z</time>
      </trkpt>
      <trkpt lat="43.17343" lon="-1.17257">
        <ele>241</ele>
        <time>2018-06-25T09:05:32.326Z</time>
      </trkpt>
      <trkpt lat="43.17295" lon="-1.17244">
        <ele>235</ele>
        <time>2018-06-25T09:05:33.326Z</time>
      </trkpt>
      <trkpt lat="43.17162" lon="-1.17138">
        <ele>221</ele>
        <time>2018-06-25T09:05:34.326Z</time>
      </trkpt>
      <trkpt lat="43.17118" lon="-1.17086">
        <ele>219</ele>
        <time>2018-06-25T09:05:35.326Z</time>
      </trkpt>
      <trkpt lat="43.17079" lon="-1.17064">
        <ele>219</ele>
        <time>2018-06-25T09:05:36.326Z</time>
      </trkpt>
      <trkpt lat="43.16999" lon="-1.17076">
        <ele>220</ele>
        <time>2018-06-25T09:05:37.326Z</time>
      </trkpt>
      <trkpt lat="43.16944" lon="-1.17102">
        <ele>220</ele>
        <time>2018-06-25T09:05:38.326Z</time>
      </trkpt>
      <trkpt lat="43.16884" lon="-1.17113">
        <ele>221</ele>
        <time>2018-06-25T09:05:39.326Z</time>
      </trkpt>
      <trkpt lat="43.16827" lon="-1.1711">
        <ele>222</ele>
        <time>2018-06-25T09:05:40.326Z</time>
      </trkpt>
      <trkpt lat="43.16725" lon="-1.17164">
        <ele>219</ele>
        <time>2018-06-25T09:05:41.326Z</time>
      </trkpt>
      <trkpt lat="43.16673" lon="-1.17207">
        <ele>217</ele>
        <time>2018-06-25T09:05:42.326Z</time>
      </trkpt>
      <trkpt lat="43.16645" lon="-1.17214">
        <ele>217</ele>
        <time>2018-06-25T09:05:43.326Z</time>
      </trkpt>
      <trkpt lat="43.16504" lon="-1.17291">
        <ele>212</ele>
        <time>2018-06-25T09:05:44.326Z</time>
      </trkpt>
      <trkpt lat="43.16438" lon="-1.17358">
        <ele>208</ele>
        <time>2018-06-25T09:05:45.326Z</time>
      </trkpt>
      <trkpt lat="43.1635" lon="-1.17414">
        <ele>203</ele>
        <time>2018-06-25T09:05:46.326Z</time>
      </trkpt>
      <trkpt lat="43.16212" lon="-1.17669">
        <ele>203</ele>
        <time>2018-06-25T09:05:47.326Z</time>
      </trkpt>
      <trkpt lat="43.16058" lon="-1.17998">
        <ele>207</ele>
        <time>2018-06-25T09:05:48.326Z</time>
      </trkpt>
      <trkpt lat="43.1606" lon="-1.18044">
        <ele>209</ele>
        <time>2018-06-25T09:05:49.326Z</time>
      </trkpt>
      <trkpt lat="43.16098" lon="-1.18173">
        <ele>214</ele>
        <time>2018-06-25T09:05:50.326Z</time>
      </trkpt>
      <trkpt lat="43.1614" lon="-1.18213">
        <ele>215</ele>
        <time>2018-06-25T09:05:51.326Z</time>
      </trkpt>
      <trkpt lat="43.16177" lon="-1.18267">
        <ele>218</ele>
        <time>2018-06-25T09:05:52.326Z</time>
      </trkpt>
      <trkpt lat="43.162" lon="-1.1834">
        <ele>219</ele>
        <time>2018-06-25T09:05:53.326Z</time>
      </trkpt>
      <trkpt lat="43.16211" lon="-1.18409">
        <ele>221</ele>
        <time>2018-06-25T09:05:54.326Z</time>
      </trkpt>
      <trkpt lat="43.1624" lon="-1.1851">
        <ele>221</ele>
        <time>2018-06-25T09:05:55.326Z</time>
      </trkpt>
      <trkpt lat="43.16333" lon="-1.18675">
        <ele>217</ele>
        <time>2018-06-25T09:05:56.326Z</time>
      </trkpt>
      <trkpt lat="43.16419" lon="-1.18892">
        <ele>209</ele>
        <time>2018-06-25T09:05:57.326Z</time>
      </trkpt>
      <trkpt lat="43.16437" lon="-1.18955">
        <ele>207</ele>
        <time>2018-06-25T09:05:58.326Z</time>
      </trkpt>
      <trkpt lat="43.16444" lon="-1.19032">
        <ele>204</ele>
        <time>2018-06-25T09:05:59.326Z</time>
      </trkpt>
      <trkpt lat="43.16462" lon="-1.19107">
        <ele>203</ele>
        <time>2018-06-25T09:06:00.326Z</time>
      </trkpt>
      <trkpt lat="43.16461" lon="-1.19126">
        <ele>203</ele>
        <time>2018-06-25T09:06:01.326Z</time>
      </trkpt>
      <trkpt lat="43.16435" lon="-1.19188">
        <ele>202</ele>
        <time>2018-06-25T09:06:02.326Z</time>
      </trkpt>
      <trkpt lat="43.1644" lon="-1.19317">
        <ele>203</ele>
        <time>2018-06-25T09:06:03.326Z</time>
      </trkpt>
      <trkpt lat="43.16448" lon="-1.19334">
        <ele>203</ele>
        <time>2018-06-25T09:06:04.326Z</time>
      </trkpt>
      <trkpt lat="43.16561" lon="-1.19386">
        <ele>205</ele>
        <time>2018-06-25T09:06:05.326Z</time>
      </trkpt>
      <trkpt lat="43.16561" lon="-1.19395">
        <ele>205</ele>
        <time>2018-06-25T09:06:06.326Z</time>
      </trkpt>
      <trkpt lat="43.16577" lon="-1.19398">
        <ele>205</ele>
        <time>2018-06-25T09:06:07.326Z</time>
      </trkpt>
      <trkpt lat="43.16647" lon="-1.19498">
        <ele>203</ele>
        <time>2018-06-25T09:06:08.326Z</time>
      </trkpt>
      <trkpt lat="43.16659" lon="-1.19533">
        <ele>202</ele>
        <time>2018-06-25T09:06:09.326Z</time>
      </trkpt>
      <trkpt lat="43.16679" lon="-1.19674">
        <ele>201</ele>
        <time>2018-06-25T09:06:10.326Z</time>
      </trkpt>
      <trkpt lat="43.1671" lon="-1.19712">
        <ele>200</ele>
        <time>2018-06-25T09:06:11.326Z</time>
      </trkpt>
      <trkpt lat="43.1672" lon="-1.19887">
        <ele>198</ele>
        <time>2018-06-25T09:06:12.326Z</time>
      </trkpt>
      <trkpt lat="43.16743" lon="-1.20015">
        <ele>198</ele>
        <time>2018-06-25T09:06:13.326Z</time>
      </trkpt>
      <trkpt lat="43.16768" lon="-1.20049">
        <ele>199</ele>
        <time>2018-06-25T09:06:14.326Z</time>
      </trkpt>
      <trkpt lat="43.16764" lon="-1.20097">
        <ele>199</ele>
        <time>2018-06-25T09:06:15.326Z</time>
      </trkpt>
      <trkpt lat="43.16778" lon="-1.20186">
        <ele>197</ele>
        <time>2018-06-25T09:06:16.326Z</time>
      </trkpt>
      <trkpt lat="43.16815" lon="-1.20319">
        <ele>198</ele>
        <time>2018-06-25T09:06:17.326Z</time>
      </trkpt>
      <trkpt lat="43.16897" lon="-1.20478">
        <ele>195</ele>
        <time>2018-06-25T09:06:18.326Z</time>
      </trkpt>
      <trkpt lat="43.16812" lon="-1.20659">
        <ele>192</ele>
        <time>2018-06-25T09:06:19.326Z</time>
      </trkpt>
      <trkpt lat="43.16787" lon="-1.20753">
        <ele>189</ele>
        <time>2018-06-25T09:06:20.326Z</time>
      </trkpt>
      <trkpt lat="43.16749" lon="-1.20991">
        <ele>182</ele>
        <time>2018-06-25T09:06:21.326Z</time>
      </trkpt>
      <trkpt lat="43.16721" lon="-1.21034">
        <ele>182</ele>
        <time>2018-06-25T09:06:22.326Z</time>
      </trkpt>
      <trkpt lat="43.16718" lon="-1.2106">
        <ele>181</ele>
        <time>2018-06-25T09:06:23.326Z</time>
      </trkpt>
      <trkpt lat="43.16711" lon="-1.21071">
        <ele>181</ele>
        <time>2018-06-25T09:06:24.326Z</time>
      </trkpt>
      <trkpt lat="43.16669" lon="-1.21073">
        <ele>181</ele>
        <time>2018-06-25T09:06:25.326Z</time>
      </trkpt>
      <trkpt lat="43.16663" lon="-1.2103">
        <ele>182</ele>
        <time>2018-06-25T09:06:26.326Z</time>
      </trkpt>
      <trkpt lat="43.16606" lon="-1.21043">
        <ele>185</ele>
        <time>2018-06-25T09:06:27.326Z</time>
      </trkpt>
      <trkpt lat="43.16546" lon="-1.21076">
        <ele>187</ele>
        <time>2018-06-25T09:06:28.326Z</time>
      </trkpt>
      <trkpt lat="43.16539" lon="-1.21096">
        <ele>186</ele>
        <time>2018-06-25T09:06:29.326Z</time>
      </trkpt>
      <trkpt lat="43.16577" lon="-1.21392">
        <ele>177</ele>
        <time>2018-06-25T09:06:30.326Z</time>
      </trkpt>
      <trkpt lat="43.16613" lon="-1.21543">
        <ele>175</ele>
        <time>2018-06-25T09:06:31.326Z</time>
      </trkpt>
      <trkpt lat="43.16621" lon="-1.21647">
        <ele>174</ele>
        <time>2018-06-25T09:06:32.326Z</time>
      </trkpt>
      <trkpt lat="43.1662" lon="-1.21744">
        <ele>173</ele>
        <time>2018-06-25T09:06:33.326Z</time>
      </trkpt>
      <trkpt lat="43.16609" lon="-1.2177">
        <ele>172</ele>
        <time>2018-06-25T09:06:34.326Z</time>
      </trkpt>
      <trkpt lat="43.16572" lon="-1.21799">
        <ele>171</ele>
        <time>2018-06-25T09:06:35.326Z</time>
      </trkpt>
      <trkpt lat="43.16506" lon="-1.21888">
        <ele>170</ele>
        <time>2018-06-25T09:06:36.326Z</time>
      </trkpt>
      <trkpt lat="43.16473" lon="-1.2198">
        <ele>169</ele>
        <time>2018-06-25T09:06:37.326Z</time>
      </trkpt>
      <trkpt lat="43.16478" lon="-1.22025">
        <ele>169</ele>
        <time>2018-06-25T09:06:38.326Z</time>
      </trkpt>
      <trkpt lat="43.16444" lon="-1.22161">
        <ele>166</ele>
        <time>2018-06-25T09:06:39.326Z</time>
      </trkpt>
      <trkpt lat="43.1641" lon="-1.22403">
        <ele>169</ele>
        <time>2018-06-25T09:06:40.326Z</time>
      </trkpt>
      <trkpt lat="43.16366" lon="-1.22591">
        <ele>178</ele>
        <time>2018-06-25T09:06:41.326Z</time>
      </trkpt>
      <trkpt lat="43.1633" lon="-1.22797">
        <ele>176</ele>
        <time>2018-06-25T09:06:42.326Z</time>
      </trkpt>
      <trkpt lat="43.16283" lon="-1.22888">
        <ele>178</ele>
        <time>2018-06-25T09:06:43.326Z</time>
      </trkpt>
      <trkpt lat="43.16238" lon="-1.23072">
        <ele>196</ele>
        <time>2018-06-25T09:06:44.326Z</time>
      </trkpt>
      <trkpt lat="43.16233" lon="-1.23112">
        <ele>201</ele>
        <time>2018-06-25T09:06:45.326Z</time>
      </trkpt>
      <trkpt lat="43.16242" lon="-1.23149">
        <ele>204</ele>
        <time>2018-06-25T09:06:46.326Z</time>
      </trkpt>
      <trkpt lat="43.16339" lon="-1.23365">
        <ele>201</ele>
        <time>2018-06-25T09:06:47.326Z</time>
      </trkpt>
      <trkpt lat="43.16366" lon="-1.23438">
        <ele>194</ele>
        <time>2018-06-25T09:06:48.326Z</time>
      </trkpt>
      <trkpt lat="43.16368" lon="-1.23486">
        <ele>191</ele>
        <time>2018-06-25T09:06:49.326Z</time>
      </trkpt>
      <trkpt lat="43.16357" lon="-1.23536">
        <ele>191</ele>
        <time>2018-06-25T09:06:50.326Z</time>
      </trkpt>
      <trkpt lat="43.16319" lon="-1.23611">
        <ele>187</ele>
        <time>2018-06-25T09:06:51.326Z</time>
      </trkpt>
      <trkpt lat="43.16312" lon="-1.23642">
        <ele>183</ele>
        <time>2018-06-25T09:06:52.326Z</time>
      </trkpt>
      <trkpt lat="43.16284" lon="-1.23695">
        <ele>175</ele>
        <time>2018-06-25T09:06:53.326Z</time>
      </trkpt>
      <trkpt lat="43.16257" lon="-1.23721">
        <ele>172</ele>
        <time>2018-06-25T09:06:54.326Z</time>
      </trkpt>
      <trkpt lat="43.16231" lon="-1.23727">
        <ele>171</ele>
        <time>2018-06-25T09:06:55.326Z</time>
      </trkpt>
      <trkpt lat="43.16234" lon="-1.23721">
        <ele>171</ele>
        <time>2018-06-25T09:06:56.326Z</time>
      </trkpt>
      <trkpt lat="43.16177" lon="-1.23558">
        <ele>178</ele>
        <time>2018-06-25T09:06:57.326Z</time>
      </trkpt>
      <trkpt lat="43.16156" lon="-1.23523">
        <ele>181</ele>
        <time>2018-06-25T09:06:58.326Z</time>
      </trkpt>
      <trkpt lat="43.16068" lon="-1.23483">
        <ele>170</ele>
        <time>2018-06-25T09:06:59.326Z</time>
      </trkpt>
      <trkpt lat="43.15987" lon="-1.23489">
        <ele>168</ele>
        <time>2018-06-25T09:07:00.326Z</time>
      </trkpt>
      <trkpt lat="43.15949" lon="-1.23502">
        <ele>169</ele>
        <time>2018-06-25T09:07:01.326Z</time>
      </trkpt>
      <trkpt lat="43.15943" lon="-1.23515">
        <ele>170</ele>
        <time>2018-06-25T09:07:02.326Z</time>
      </trkpt>
      <trkpt lat="43.15905" lon="-1.23536">
        <ele>171</ele>
        <time>2018-06-25T09:07:03.326Z</time>
      </trkpt>
      <trkpt lat="43.15905" lon="-1.23611">
        <ele>173</ele>
        <time>2018-06-25T09:07:04.326Z</time>
      </trkpt>
      <trkpt lat="43.15892" lon="-1.23702">
        <ele>178</ele>
        <time>2018-06-25T09:07:05.326Z</time>
      </trkpt>
      <trkpt lat="43.15892" lon="-1.23833">
        <ele>186</ele>
        <time>2018-06-25T09:07:06.326Z</time>
      </trkpt>
      <trkpt lat="43.15885" lon="-1.23859">
        <ele>188</ele>
        <time>2018-06-25T09:07:07.326Z</time>
      </trkpt>
      <trkpt lat="43.15914" lon="-1.23879">
        <ele>187</ele>
        <time>2018-06-25T09:07:08.326Z</time>
      </trkpt>
      <trkpt lat="43.15955" lon="-1.23885">
        <ele>184</ele>
        <time>2018-06-25T09:07:09.326Z</time>
      </trkpt>
      <trkpt lat="43.15981" lon="-1.23978">
        <ele>192</ele>
        <time>2018-06-25T09:07:10.326Z</time>
      </trkpt>
      <trkpt lat="43.16041" lon="-1.24097">
        <ele>192</ele>
        <time>2018-06-25T09:07:11.326Z</time>
      </trkpt>
      <trkpt lat="43.16054" lon="-1.24161">
        <ele>192</ele>
        <time>2018-06-25T09:07:12.326Z</time>
      </trkpt>
      <trkpt lat="43.16027" lon="-1.24251">
        <ele>200</ele>
        <time>2018-06-25T09:07:13.326Z</time>
      </trkpt>
      <trkpt lat="43.16013" lon="-1.24341">
        <ele>202</ele>
        <time>2018-06-25T09:07:14.326Z</time>
      </trkpt>
      <trkpt lat="43.15991" lon="-1.24417">
        <ele>195</ele>
        <time>2018-06-25T09:07:15.326Z</time>
      </trkpt>
      <trkpt lat="43.15924" lon="-1.2453">
        <ele>193</ele>
        <time>2018-06-25T09:07:16.326Z</time>
      </trkpt>
      <trkpt lat="43.15821" lon="-1.24776">
        <ele>187</ele>
        <time>2018-06-25T09:07:17.326Z</time>
      </trkpt>
      <trkpt lat="43.15791" lon="-1.24824">
        <ele>186</ele>
        <time>2018-06-25T09:07:18.326Z</time>
      </trkpt>
      <trkpt lat="43.15758" lon="-1.24898">
        <ele>180</ele>
        <time>2018-06-25T09:07:19.326Z</time>
      </trkpt>
      <trkpt lat="43.15731" lon="-1.24925">
        <ele>177</ele>
        <time>2018-06-25T09:07:20.326Z</time>
      </trkpt>
      <trkpt lat="43.15693" lon="-1.24944">
        <ele>175</ele>
        <time>2018-06-25T09:07:21.326Z</time>
      </trkpt>
      <trkpt lat="43.15583" lon="-1.24922">
        <ele>177</ele>
        <time>2018-06-25T09:07:22.326Z</time>
      </trkpt>
      <trkpt lat="43.15514" lon="-1.24927">
        <ele>179</ele>
        <time>2018-06-25T09:07:23.326Z</time>
      </trkpt>
      <trkpt lat="43.15481" lon="-1.24942">
        <ele>179</ele>
        <time>2018-06-25T09:07:24.326Z</time>
      </trkpt>
      <trkpt lat="43.15477" lon="-1.24959">
        <ele>176</ele>
        <time>2018-06-25T09:07:25.326Z</time>
      </trkpt>
      <trkpt lat="43.1549" lon="-1.25026">
        <ele>170</ele>
        <time>2018-06-25T09:07:26.326Z</time>
      </trkpt>
      <trkpt lat="43.15483" lon="-1.25053">
        <ele>171</ele>
        <time>2018-06-25T09:07:27.326Z</time>
      </trkpt>
      <trkpt lat="43.15444" lon="-1.25093">
        <ele>171</ele>
        <time>2018-06-25T09:07:28.326Z</time>
      </trkpt>
      <trkpt lat="43.15446" lon="-1.25334">
        <ele>179</ele>
        <time>2018-06-25T09:07:29.326Z</time>
      </trkpt>
      <trkpt lat="43.15432" lon="-1.25405">
        <ele>183</ele>
        <time>2018-06-25T09:07:30.326Z</time>
      </trkpt>
      <trkpt lat="43.15361" lon="-1.25505">
        <ele>190</ele>
        <time>2018-06-25T09:07:31.326Z</time>
      </trkpt>
      <trkpt lat="43.15346" lon="-1.2551">
        <ele>190</ele>
        <time>2018-06-25T09:07:32.326Z</time>
      </trkpt>
      <trkpt lat="43.15379" lon="-1.25522">
        <ele>190</ele>
        <time>2018-06-25T09:07:33.326Z</time>
      </trkpt>
      <trkpt lat="43.15497" lon="-1.25602">
        <ele>189</ele>
        <time>2018-06-25T09:07:34.326Z</time>
      </trkpt>
      <trkpt lat="43.15588" lon="-1.25618">
        <ele>184</ele>
        <time>2018-06-25T09:07:35.326Z</time>
      </trkpt>
      <trkpt lat="43.15708" lon="-1.25698">
        <ele>188</ele>
        <time>2018-06-25T09:07:36.326Z</time>
      </trkpt>
      <trkpt lat="43.15715" lon="-1.25711">
        <ele>189</ele>
        <time>2018-06-25T09:07:37.326Z</time>
      </trkpt>
      <trkpt lat="43.15743" lon="-1.25885">
        <ele>198</ele>
        <time>2018-06-25T09:07:38.326Z</time>
      </trkpt>
      <trkpt lat="43.15714" lon="-1.2596">
        <ele>199</ele>
        <time>2018-06-25T09:07:39.326Z</time>
      </trkpt>
      <trkpt lat="43.15718" lon="-1.26013">
        <ele>202</ele>
        <time>2018-06-25T09:07:40.326Z</time>
      </trkpt>
      <trkpt lat="43.15708" lon="-1.26045">
        <ele>203</ele>
        <time>2018-06-25T09:07:41.326Z</time>
      </trkpt>
      <trkpt lat="43.15704" lon="-1.26101">
        <ele>208</ele>
        <time>2018-06-25T09:07:42.326Z</time>
      </trkpt>
      <trkpt lat="43.15724" lon="-1.26265">
        <ele>218</ele>
        <time>2018-06-25T09:07:43.326Z</time>
      </trkpt>
      <trkpt lat="43.15705" lon="-1.26557">
        <ele>223</ele>
        <time>2018-06-25T09:07:44.326Z</time>
      </trkpt>
      <trkpt lat="43.15722" lon="-1.26748">
        <ele>231</ele>
        <time>2018-06-25T09:07:45.326Z</time>
      </trkpt>
      <trkpt lat="43.15688" lon="-1.26767">
        <ele>235</ele>
        <time>2018-06-25T09:07:46.326Z</time>
      </trkpt>
      <trkpt lat="43.15685" lon="-1.26782">
        <ele>236</ele>
        <time>2018-06-25T09:07:47.326Z</time>
      </trkpt>
      <trkpt lat="43.15693" lon="-1.26795">
        <ele>237</ele>
        <time>2018-06-25T09:07:48.326Z</time>
      </trkpt>
      <trkpt lat="43.15701" lon="-1.26858">
        <ele>243</ele>
        <time>2018-06-25T09:07:49.326Z</time>
      </trkpt>
      <trkpt lat="43.15703" lon="-1.26871">
        <ele>244</ele>
        <time>2018-06-25T09:07:50.326Z</time>
      </trkpt>
      <trkpt lat="43.15696" lon="-1.26871">
        <ele>245</ele>
        <time>2018-06-25T09:07:51.326Z</time>
      </trkpt>
      <trkpt lat="43.1563" lon="-1.2704">
        <ele>262</ele>
        <time>2018-06-25T09:07:52.326Z</time>
      </trkpt>
      <trkpt lat="43.15595" lon="-1.27081">
        <ele>264</ele>
        <time>2018-06-25T09:07:53.326Z</time>
      </trkpt>
      <trkpt lat="43.15575" lon="-1.27117">
        <ele>266</ele>
        <time>2018-06-25T09:07:54.326Z</time>
      </trkpt>
      <trkpt lat="43.15555" lon="-1.272">
        <ele>276</ele>
        <time>2018-06-25T09:07:55.326Z</time>
      </trkpt>
      <trkpt lat="43.15556" lon="-1.27236">
        <ele>281</ele>
        <time>2018-06-25T09:07:56.326Z</time>
      </trkpt>
      <trkpt lat="43.15525" lon="-1.27265">
        <ele>285</ele>
        <time>2018-06-25T09:07:57.326Z</time>
      </trkpt>
      <trkpt lat="43.15495" lon="-1.27314">
        <ele>289</ele>
        <time>2018-06-25T09:07:58.326Z</time>
      </trkpt>
      <trkpt lat="43.15465" lon="-1.27425">
        <ele>295</ele>
        <time>2018-06-25T09:07:59.326Z</time>
      </trkpt>
      <trkpt lat="43.15471" lon="-1.27531">
        <ele>297</ele>
        <time>2018-06-25T09:08:00.326Z</time>
      </trkpt>
      <trkpt lat="43.1546" lon="-1.27681">
        <ele>303</ele>
        <time>2018-06-25T09:08:01.326Z</time>
      </trkpt>
      <trkpt lat="43.15468" lon="-1.2774">
        <ele>308</ele>
        <time>2018-06-25T09:08:02.326Z</time>
      </trkpt>
      <trkpt lat="43.15466" lon="-1.2787">
        <ele>312</ele>
        <time>2018-06-25T09:08:03.326Z</time>
      </trkpt>
      <trkpt lat="43.15474" lon="-1.2791">
        <ele>314</ele>
        <time>2018-06-25T09:08:04.326Z</time>
      </trkpt>
      <trkpt lat="43.15534" lon="-1.28071">
        <ele>309</ele>
        <time>2018-06-25T09:08:05.326Z</time>
      </trkpt>
      <trkpt lat="43.15532" lon="-1.28114">
        <ele>310</ele>
        <time>2018-06-25T09:08:06.326Z</time>
      </trkpt>
      <trkpt lat="43.15504" lon="-1.2818">
        <ele>310</ele>
        <time>2018-06-25T09:08:07.326Z</time>
      </trkpt>
      <trkpt lat="43.15491" lon="-1.28263">
        <ele>310</ele>
        <time>2018-06-25T09:08:08.326Z</time>
      </trkpt>
      <trkpt lat="43.15494" lon="-1.28294">
        <ele>311</ele>
        <time>2018-06-25T09:08:09.326Z</time>
      </trkpt>
      <trkpt lat="43.15522" lon="-1.28372">
        <ele>318</ele>
        <time>2018-06-25T09:08:10.326Z</time>
      </trkpt>
      <trkpt lat="43.15547" lon="-1.28362">
        <ele>320</ele>
        <time>2018-06-25T09:08:11.326Z</time>
      </trkpt>
      <trkpt lat="43.15582" lon="-1.28362">
        <ele>323</ele>
        <time>2018-06-25T09:08:12.326Z</time>
      </trkpt>
      <trkpt lat="43.15601" lon="-1.28384">
        <ele>321</ele>
        <time>2018-06-25T09:08:13.326Z</time>
      </trkpt>
      <trkpt lat="43.15592" lon="-1.28396">
        <ele>322</ele>
        <time>2018-06-25T09:08:14.326Z</time>
      </trkpt>
      <trkpt lat="43.15601" lon="-1.28428">
        <ele>322</ele>
        <time>2018-06-25T09:08:15.326Z</time>
      </trkpt>
      <trkpt lat="43.1561" lon="-1.28526">
        <ele>321</ele>
        <time>2018-06-25T09:08:16.326Z</time>
      </trkpt>
      <trkpt lat="43.1565" lon="-1.28672">
        <ele>319</ele>
        <time>2018-06-25T09:08:17.326Z</time>
      </trkpt>
      <trkpt lat="43.15653" lon="-1.28709">
        <ele>317</ele>
        <time>2018-06-25T09:08:18.326Z</time>
      </trkpt>
      <trkpt lat="43.15585" lon="-1.28847">
        <ele>311</ele>
        <time>2018-06-25T09:08:19.326Z</time>
      </trkpt>
      <trkpt lat="43.15543" lon="-1.28891">
        <ele>312</ele>
        <time>2018-06-25T09:08:20.326Z</time>
      </trkpt>
      <trkpt lat="43.15541" lon="-1.28906">
        <ele>311</ele>
        <time>2018-06-25T09:08:21.326Z</time>
      </trkpt>
      <trkpt lat="43.15555" lon="-1.28966">
        <ele>305</ele>
        <time>2018-06-25T09:08:22.326Z</time>
      </trkpt>
      <trkpt lat="43.15538" lon="-1.29021">
        <ele>304</ele>
        <time>2018-06-25T09:08:23.326Z</time>
      </trkpt>
      <trkpt lat="43.15542" lon="-1.2903">
        <ele>304</ele>
        <time>2018-06-25T09:08:24.326Z</time>
      </trkpt>
      <trkpt lat="43.15562" lon="-1.29039">
        <ele>303</ele>
        <time>2018-06-25T09:08:25.326Z</time>
      </trkpt>
      <trkpt lat="43.15599" lon="-1.29039">
        <ele>300</ele>
        <time>2018-06-25T09:08:26.326Z</time>
      </trkpt>
      <trkpt lat="43.15625" lon="-1.29059">
        <ele>300</ele>
        <time>2018-06-25T09:08:27.326Z</time>
      </trkpt>
      <trkpt lat="43.15661" lon="-1.29052">
        <ele>299</ele>
        <time>2018-06-25T09:08:28.326Z</time>
      </trkpt>
      <trkpt lat="43.15697" lon="-1.29032">
        <ele>295</ele>
        <time>2018-06-25T09:08:29.326Z</time>
      </trkpt>
      <trkpt lat="43.15741" lon="-1.2904">
        <ele>293</ele>
        <time>2018-06-25T09:08:30.326Z</time>
      </trkpt>
      <trkpt lat="43.1586" lon="-1.29083">
        <ele>290</ele>
        <time>2018-06-25T09:08:31.326Z</time>
      </trkpt>
      <trkpt lat="43.15904" lon="-1.29088">
        <ele>291</ele>
        <time>2018-06-25T09:08:32.326Z</time>
      </trkpt>
      <trkpt lat="43.15989" lon="-1.29024">
        <ele>290</ele>
        <time>2018-06-25T09:08:33.326Z</time>
      </trkpt>
      <trkpt lat="43.16017" lon="-1.29014">
        <ele>288</ele>
        <time>2018-06-25T09:08:34.326Z</time>
      </trkpt>
      <trkpt lat="43.16071" lon="-1.29016">
        <ele>282</ele>
        <time>2018-06-25T09:08:35.326Z</time>
      </trkpt>
      <trkpt lat="43.16171" lon="-1.28978">
        <ele>278</ele>
        <time>2018-06-25T09:08:36.326Z</time>
      </trkpt>
      <trkpt lat="43.16239" lon="-1.28911">
        <ele>284</ele>
        <time>2018-06-25T09:08:37.326Z</time>
      </trkpt>
      <trkpt lat="43.16319" lon="-1.28894">
        <ele>286</ele>
        <time>2018-06-25T09:08:38.326Z</time>
      </trkpt>
      <trkpt lat="43.16372" lon="-1.289">
        <ele>284</ele>
        <time>2018-06-25T09:08:39.326Z</time>
      </trkpt>
      <trkpt lat="43.16532" lon="-1.28829">
        <ele>268</ele>
        <time>2018-06-25T09:08:40.326Z</time>
      </trkpt>
      <trkpt lat="43.16557" lon="-1.2881">
        <ele>266</ele>
        <time>2018-06-25T09:08:41.326Z</time>
      </trkpt>
      <trkpt lat="43.16589" lon="-1.28823">
        <ele>260</ele>
        <time>2018-06-25T09:08:42.326Z</time>
      </trkpt>
      <trkpt lat="43.16648" lon="-1.2887">
        <ele>250</ele>
        <time>2018-06-25T09:08:43.326Z</time>
      </trkpt>
      <trkpt lat="43.16723" lon="-1.28904">
        <ele>236</ele>
        <time>2018-06-25T09:08:44.326Z</time>
      </trkpt>
      <trkpt lat="43.16761" lon="-1.28885">
        <ele>234</ele>
        <time>2018-06-25T09:08:45.326Z</time>
      </trkpt>
      <trkpt lat="43.16766" lon="-1.28897">
        <ele>231</ele>
        <time>2018-06-25T09:08:46.326Z</time>
      </trkpt>
      <trkpt lat="43.16722" lon="-1.28954">
        <ele>229</ele>
        <time>2018-06-25T09:08:47.326Z</time>
      </trkpt>
      <trkpt lat="43.16725" lon="-1.28979">
        <ele>225</ele>
        <time>2018-06-25T09:08:48.326Z</time>
      </trkpt>
      <trkpt lat="43.16744" lon="-1.28984">
        <ele>222</ele>
        <time>2018-06-25T09:08:49.326Z</time>
      </trkpt>
      <trkpt lat="43.16812" lon="-1.2897">
        <ele>214</ele>
        <time>2018-06-25T09:08:50.326Z</time>
      </trkpt>
      <trkpt lat="43.16833" lon="-1.28992">
        <ele>210</ele>
        <time>2018-06-25T09:08:51.326Z</time>
      </trkpt>
      <trkpt lat="43.16857" lon="-1.29039">
        <ele>209</ele>
        <time>2018-06-25T09:08:52.326Z</time>
      </trkpt>
      <trkpt lat="43.16886" lon="-1.29063">
        <ele>209</ele>
        <time>2018-06-25T09:08:53.326Z</time>
      </trkpt>
      <trkpt lat="43.16946" lon="-1.29066">
        <ele>208</ele>
        <time>2018-06-25T09:08:54.326Z</time>
      </trkpt>
      <trkpt lat="43.17059" lon="-1.29039">
        <ele>203</ele>
        <time>2018-06-25T09:08:55.326Z</time>
      </trkpt>
      <trkpt lat="43.17138" lon="-1.29141">
        <ele>195</ele>
        <time>2018-06-25T09:08:56.326Z</time>
      </trkpt>
      <trkpt lat="43.17319" lon="-1.29427">
        <ele>195</ele>
        <time>2018-06-25T09:08:57.326Z</time>
      </trkpt>
      <trkpt lat="43.1735" lon="-1.29491">
        <ele>198</ele>
        <time>2018-06-25T09:08:58.326Z</time>
      </trkpt>
      <trkpt lat="43.17487" lon="-1.29642">
        <ele>206</ele>
        <time>2018-06-25T09:08:59.326Z</time>
      </trkpt>
      <trkpt lat="43.17551" lon="-1.29658">
        <ele>203</ele>
        <time>2018-06-25T09:09:00.326Z</time>
      </trkpt>
      <trkpt lat="43.17581" lon="-1.29657">
        <ele>201</ele>
        <time>2018-06-25T09:09:01.326Z</time>
      </trkpt>
      <trkpt lat="43.17639" lon="-1.29716">
        <ele>203</ele>
        <time>2018-06-25T09:09:02.326Z</time>
      </trkpt>
      <trkpt lat="43.1766" lon="-1.29785">
        <ele>205</ele>
        <time>2018-06-25T09:09:03.326Z</time>
      </trkpt>
      <trkpt lat="43.17678" lon="-1.29806">
        <ele>206</ele>
        <time>2018-06-25T09:09:04.326Z</time>
      </trkpt>
      <trkpt lat="43.177" lon="-1.29856">
        <ele>208</ele>
        <time>2018-06-25T09:09:05.326Z</time>
      </trkpt>
      <trkpt lat="43.17729" lon="-1.29886">
        <ele>208</ele>
        <time>2018-06-25T09:09:06.326Z</time>
      </trkpt>
      <trkpt lat="43.17748" lon="-1.29946">
        <ele>211</ele>
        <time>2018-06-25T09:09:07.326Z</time>
      </trkpt>
      <trkpt lat="43.17749" lon="-1.29948">
        <ele>211</ele>
        <time>2018-06-25T09:09:08.326Z</time>
      </trkpt>
      <trkpt lat="43.17777" lon="-1.30035">
        <ele>216</ele>
        <time>2018-06-25T09:09:09.326Z</time>
      </trkpt>
      <trkpt lat="43.17835" lon="-1.30017">
        <ele>215</ele>
        <time>2018-06-25T09:09:10.326Z</time>
      </trkpt>
      <trkpt lat="43.17976" lon="-1.3">
        <ele>214</ele>
        <time>2018-06-25T09:09:11.326Z</time>
      </trkpt>
      <trkpt lat="43.18015" lon="-1.30023">
        <ele>216</ele>
        <time>2018-06-25T09:09:12.326Z</time>
      </trkpt>
      <trkpt lat="43.18046" lon="-1.3002">
        <ele>218</ele>
        <time>2018-06-25T09:09:13.326Z</time>
      </trkpt>
      <trkpt lat="43.18082" lon="-1.3003">
        <ele>220</ele>
        <time>2018-06-25T09:09:14.326Z</time>
      </trkpt>
      <trkpt lat="43.18093" lon="-1.30055">
        <ele>221</ele>
        <time>2018-06-25T09:09:15.326Z</time>
      </trkpt>
      <trkpt lat="43.18133" lon="-1.30094">
        <ele>224</ele>
        <time>2018-06-25T09:09:16.326Z</time>
      </trkpt>
      <trkpt lat="43.1825" lon="-1.30237">
        <ele>230</ele>
        <time>2018-06-25T09:09:17.326Z</time>
      </trkpt>
      <trkpt lat="43.18314" lon="-1.303">
        <ele>243</ele>
        <time>2018-06-25T09:09:18.326Z</time>
      </trkpt>
      <trkpt lat="43.18352" lon="-1.30354">
        <ele>250</ele>
        <time>2018-06-25T09:09:19.326Z</time>
      </trkpt>
      <trkpt lat="43.18416" lon="-1.30403">
        <ele>258</ele>
        <time>2018-06-25T09:09:20.326Z</time>
      </trkpt>
      <trkpt lat="43.18464" lon="-1.30455">
        <ele>258</ele>
        <time>2018-06-25T09:09:21.326Z</time>
      </trkpt>
      <trkpt lat="43.1849" lon="-1.30469">
        <ele>256</ele>
        <time>2018-06-25T09:09:22.326Z</time>
      </trkpt>
      <trkpt lat="43.18517" lon="-1.3047">
        <ele>255</ele>
        <time>2018-06-25T09:09:23.326Z</time>
      </trkpt>
      <trkpt lat="43.18606" lon="-1.30447">
        <ele>252</ele>
        <time>2018-06-25T09:09:24.326Z</time>
      </trkpt>
      <trkpt lat="43.18613" lon="-1.30461">
        <ele>250</ele>
        <time>2018-06-25T09:09:25.326Z</time>
      </trkpt>
      <trkpt lat="43.18619" lon="-1.30568">
        <ele>242</ele>
        <time>2018-06-25T09:09:26.326Z</time>
      </trkpt>
      <trkpt lat="43.18637" lon="-1.3062">
        <ele>241</ele>
        <time>2018-06-25T09:09:27.326Z</time>
      </trkpt>
      <trkpt lat="43.18677" lon="-1.30667">
        <ele>239</ele>
        <time>2018-06-25T09:09:28.326Z</time>
      </trkpt>
      <trkpt lat="43.18723" lon="-1.30775">
        <ele>238</ele>
        <time>2018-06-25T09:09:29.326Z</time>
      </trkpt>
      <trkpt lat="43.18745" lon="-1.30857">
        <ele>232</ele>
        <time>2018-06-25T09:09:30.326Z</time>
      </trkpt>
      <trkpt lat="43.18784" lon="-1.30945">
        <ele>229</ele>
        <time>2018-06-25T09:09:31.326Z</time>
      </trkpt>
      <trkpt lat="43.18807" lon="-1.31047">
        <ele>229</ele>
        <time>2018-06-25T09:09:32.326Z</time>
      </trkpt>
      <trkpt lat="43.18858" lon="-1.31144">
        <ele>227</ele>
        <time>2018-06-25T09:09:33.326Z</time>
      </trkpt>
      <trkpt lat="43.18899" lon="-1.3125">
        <ele>222</ele>
        <time>2018-06-25T09:09:34.326Z</time>
      </trkpt>
      <trkpt lat="43.18924" lon="-1.31287">
        <ele>219</ele>
        <time>2018-06-25T09:09:35.326Z</time>
      </trkpt>
      <trkpt lat="43.18932" lon="-1.31317">
        <ele>219</ele>
        <time>2018-06-25T09:09:36.326Z</time>
      </trkpt>
      <trkpt lat="43.1892" lon="-1.31389">
        <ele>214</ele>
        <time>2018-06-25T09:09:37.326Z</time>
      </trkpt>
      <trkpt lat="43.18903" lon="-1.31421">
        <ele>218</ele>
        <time>2018-06-25T09:09:38.326Z</time>
      </trkpt>
      <trkpt lat="43.18886" lon="-1.31475">
        <ele>224</ele>
        <time>2018-06-25T09:09:39.326Z</time>
      </trkpt>
      <trkpt lat="43.18923" lon="-1.31607">
        <ele>206</ele>
        <time>2018-06-25T09:09:40.326Z</time>
      </trkpt>
      <trkpt lat="43.18949" lon="-1.3166">
        <ele>204</ele>
        <time>2018-06-25T09:09:41.326Z</time>
      </trkpt>
      <trkpt lat="43.1895" lon="-1.31696">
        <ele>203</ele>
        <time>2018-06-25T09:09:42.326Z</time>
      </trkpt>
      <trkpt lat="43.18914" lon="-1.31818">
        <ele>199</ele>
        <time>2018-06-25T09:09:43.326Z</time>
      </trkpt>
      <trkpt lat="43.18917" lon="-1.3189">
        <ele>191</ele>
        <time>2018-06-25T09:09:44.326Z</time>
      </trkpt>
      <trkpt lat="43.18902" lon="-1.31923">
        <ele>195</ele>
        <time>2018-06-25T09:09:45.326Z</time>
      </trkpt>
      <trkpt lat="43.18874" lon="-1.32035">
        <ele>194</ele>
        <time>2018-06-25T09:09:46.326Z</time>
      </trkpt>
      <trkpt lat="43.18883" lon="-1.32153">
        <ele>179</ele>
        <time>2018-06-25T09:09:47.326Z</time>
      </trkpt>
      <trkpt lat="43.18876" lon="-1.32231">
        <ele>175</ele>
        <time>2018-06-25T09:09:48.326Z</time>
      </trkpt>
      <trkpt lat="43.18887" lon="-1.3225">
        <ele>171</ele>
        <time>2018-06-25T09:09:49.326Z</time>
      </trkpt>
      <trkpt lat="43.1889" lon="-1.32451">
        <ele>163</ele>
        <time>2018-06-25T09:09:50.326Z</time>
      </trkpt>
      <trkpt lat="43.18876" lon="-1.32506">
        <ele>163</ele>
        <time>2018-06-25T09:09:51.326Z</time>
      </trkpt>
      <trkpt lat="43.18851" lon="-1.32559">
        <ele>159</ele>
        <time>2018-06-25T09:09:52.326Z</time>
      </trkpt>
      <trkpt lat="43.18842" lon="-1.32637">
        <ele>154</ele>
        <time>2018-06-25T09:09:53.326Z</time>
      </trkpt>
      <trkpt lat="43.18857" lon="-1.32711">
        <ele>152</ele>
        <time>2018-06-25T09:09:54.326Z</time>
      </trkpt>
      <trkpt lat="43.18857" lon="-1.32764">
        <ele>152</ele>
        <time>2018-06-25T09:09:55.326Z</time>
      </trkpt>
      <trkpt lat="43.18869" lon="-1.32802">
        <ele>151</ele>
        <time>2018-06-25T09:09:56.326Z</time>
      </trkpt>
      <trkpt lat="43.18897" lon="-1.32841">
        <ele>150</ele>
        <time>2018-06-25T09:09:57.326Z</time>
      </trkpt>
      <trkpt lat="43.18911" lon="-1.3285">
        <ele>150</ele>
        <time>2018-06-25T09:09:58.326Z</time>
      </trkpt>
      <trkpt lat="43.18962" lon="-1.32852">
        <ele>153</ele>
        <time>2018-06-25T09:09:59.326Z</time>
      </trkpt>
      <trkpt lat="43.19001" lon="-1.32863">
        <ele>155</ele>
        <time>2018-06-25T09:10:00.326Z</time>
      </trkpt>
      <trkpt lat="43.19048" lon="-1.32915">
        <ele>157</ele>
        <time>2018-06-25T09:10:01.326Z</time>
      </trkpt>
      <trkpt lat="43.19077" lon="-1.32974">
        <ele>156</ele>
        <time>2018-06-25T09:10:02.326Z</time>
      </trkpt>
      <trkpt lat="43.19153" lon="-1.33059">
        <ele>153</ele>
        <time>2018-06-25T09:10:03.326Z</time>
      </trkpt>
      <trkpt lat="43.19277" lon="-1.33092">
        <ele>153</ele>
        <time>2018-06-25T09:10:04.326Z</time>
      </trkpt>
      <trkpt lat="43.19298" lon="-1.33091">
        <ele>154</ele>
        <time>2018-06-25T09:10:05.326Z</time>
      </trkpt>
      <trkpt lat="43.19456" lon="-1.33033">
        <ele>159</ele>
        <time>2018-06-25T09:10:06.326Z</time>
      </trkpt>
      <trkpt lat="43.19549" lon="-1.3312">
        <ele>147</ele>
        <time>2018-06-25T09:10:07.326Z</time>
      </trkpt>
      <trkpt lat="43.19649" lon="-1.33166">
        <ele>145</ele>
        <time>2018-06-25T09:10:08.326Z</time>
      </trkpt>
      <trkpt lat="43.19637" lon="-1.33229">
        <ele>138</ele>
        <time>2018-06-25T09:10:09.326Z</time>
      </trkpt>
      <trkpt lat="43.19663" lon="-1.33277">
        <ele>138</ele>
        <time>2018-06-25T09:10:10.326Z</time>
      </trkpt>
      <trkpt lat="43.19658" lon="-1.3329">
        <ele>139</ele>
        <time>2018-06-25T09:10:11.326Z</time>
      </trkpt>
      <trkpt lat="43.19631" lon="-1.33294">
        <ele>139</ele>
        <time>2018-06-25T09:10:12.326Z</time>
      </trkpt>
      <trkpt lat="43.19626" lon="-1.33303">
        <ele>140</ele>
        <time>2018-06-25T09:10:13.326Z</time>
      </trkpt>
      <trkpt lat="43.19633" lon="-1.3332">
        <ele>141</ele>
        <time>2018-06-25T09:10:14.326Z</time>
      </trkpt>
      <trkpt lat="43.19693" lon="-1.33321">
        <ele>140</ele>
        <time>2018-06-25T09:10:15.326Z</time>
      </trkpt>
      <trkpt lat="43.19875" lon="-1.33388">
        <ele>145</ele>
        <time>2018-06-25T09:10:16.326Z</time>
      </trkpt>
      <trkpt lat="43.19988" lon="-1.33344">
        <ele>138</ele>
        <time>2018-06-25T09:10:17.326Z</time>
      </trkpt>
      <trkpt lat="43.20105" lon="-1.334">
        <ele>141</ele>
        <time>2018-06-25T09:10:18.326Z</time>
      </trkpt>
      <trkpt lat="43.20197" lon="-1.33391">
        <ele>145</ele>
        <time>2018-06-25T09:10:19.326Z</time>
      </trkpt>
      <trkpt lat="43.20289" lon="-1.33331">
        <ele>149</ele>
        <time>2018-06-25T09:10:20.326Z</time>
      </trkpt>
      <trkpt lat="43.20322" lon="-1.33276">
        <ele>150</ele>
        <time>2018-06-25T09:10:21.326Z</time>
      </trkpt>
      <trkpt lat="43.20345" lon="-1.33256">
        <ele>151</ele>
        <time>2018-06-25T09:10:22.326Z</time>
      </trkpt>
      <trkpt lat="43.2037" lon="-1.33254">
        <ele>151</ele>
        <time>2018-06-25T09:10:23.326Z</time>
      </trkpt>
      <trkpt lat="43.20397" lon="-1.33277">
        <ele>153</ele>
        <time>2018-06-25T09:10:24.326Z</time>
      </trkpt>
      <trkpt lat="43.20428" lon="-1.33404">
        <ele>165</ele>
        <time>2018-06-25T09:10:25.326Z</time>
      </trkpt>
      <trkpt lat="43.20447" lon="-1.33441">
        <ele>165</ele>
        <time>2018-06-25T09:10:26.326Z</time>
      </trkpt>
      <trkpt lat="43.20558" lon="-1.33588">
        <ele>155</ele>
        <time>2018-06-25T09:10:27.326Z</time>
      </trkpt>
      <trkpt lat="43.20568" lon="-1.33638">
        <ele>158</ele>
        <time>2018-06-25T09:10:28.326Z</time>
      </trkpt>
      <trkpt lat="43.2058" lon="-1.33658">
        <ele>157</ele>
        <time>2018-06-25T09:10:29.326Z</time>
      </trkpt>
      <trkpt lat="43.20621" lon="-1.3367">
        <ele>156</ele>
        <time>2018-06-25T09:10:30.326Z</time>
      </trkpt>
      <trkpt lat="43.20663" lon="-1.33645">
        <ele>152</ele>
        <time>2018-06-25T09:10:31.326Z</time>
      </trkpt>
      <trkpt lat="43.207" lon="-1.33702">
        <ele>158</ele>
        <time>2018-06-25T09:10:32.326Z</time>
      </trkpt>
      <trkpt lat="43.20764" lon="-1.33758">
        <ele>159</ele>
        <time>2018-06-25T09:10:33.326Z</time>
      </trkpt>
      <trkpt lat="43.20766" lon="-1.33829">
        <ele>168</ele>
        <time>2018-06-25T09:10:34.326Z</time>
      </trkpt>
      <trkpt lat="43.20777" lon="-1.33864">
        <ele>172</ele>
        <time>2018-06-25T09:10:35.326Z</time>
      </trkpt>
      <trkpt lat="43.20822" lon="-1.3392">
        <ele>169</ele>
        <time>2018-06-25T09:10:36.326Z</time>
      </trkpt>
      <trkpt lat="43.20828" lon="-1.33972">
        <ele>176</ele>
        <time>2018-06-25T09:10:37.326Z</time>
      </trkpt>
      <trkpt lat="43.20837" lon="-1.33989">
        <ele>178</ele>
        <time>2018-06-25T09:10:38.326Z</time>
      </trkpt>
      <trkpt lat="43.2085" lon="-1.3399">
        <ele>179</ele>
        <time>2018-06-25T09:10:39.326Z</time>
      </trkpt>
      <trkpt lat="43.20907" lon="-1.33887">
        <ele>174</ele>
        <time>2018-06-25T09:10:40.326Z</time>
      </trkpt>
      <trkpt lat="43.20904" lon="-1.33839">
        <ele>169</ele>
        <time>2018-06-25T09:10:41.326Z</time>
      </trkpt>
      <trkpt lat="43.20915" lon="-1.33816">
        <ele>168</ele>
        <time>2018-06-25T09:10:42.326Z</time>
      </trkpt>
      <trkpt lat="43.20968" lon="-1.33829">
        <ele>176</ele>
        <time>2018-06-25T09:10:43.326Z</time>
      </trkpt>
      <trkpt lat="43.21009" lon="-1.33816">
        <ele>178</ele>
        <time>2018-06-25T09:10:44.326Z</time>
      </trkpt>
      <trkpt lat="43.21043" lon="-1.33831">
        <ele>181</ele>
        <time>2018-06-25T09:10:45.326Z</time>
      </trkpt>
      <trkpt lat="43.21086" lon="-1.33882">
        <ele>199</ele>
        <time>2018-06-25T09:10:46.326Z</time>
      </trkpt>
      <trkpt lat="43.2115" lon="-1.33874">
        <ele>189</ele>
        <time>2018-06-25T09:10:47.326Z</time>
      </trkpt>
      <trkpt lat="43.21197" lon="-1.33878">
        <ele>184</ele>
        <time>2018-06-25T09:10:48.326Z</time>
      </trkpt>
      <trkpt lat="43.21256" lon="-1.33926">
        <ele>180</ele>
        <time>2018-06-25T09:10:49.326Z</time>
      </trkpt>
      <trkpt lat="43.21271" lon="-1.3393">
        <ele>181</ele>
        <time>2018-06-25T09:10:50.326Z</time>
      </trkpt>
      <trkpt lat="43.21314" lon="-1.33898">
        <ele>179</ele>
        <time>2018-06-25T09:10:51.326Z</time>
      </trkpt>
      <trkpt lat="43.2133" lon="-1.33899">
        <ele>179</ele>
        <time>2018-06-25T09:10:52.326Z</time>
      </trkpt>
      <trkpt lat="43.21384" lon="-1.33948">
        <ele>183</ele>
        <time>2018-06-25T09:10:53.326Z</time>
      </trkpt>
      <trkpt lat="43.21433" lon="-1.33959">
        <ele>190</ele>
        <time>2018-06-25T09:10:54.326Z</time>
      </trkpt>
      <trkpt lat="43.21498" lon="-1.34013">
        <ele>190</ele>
        <time>2018-06-25T09:10:55.326Z</time>
      </trkpt>
      <trkpt lat="43.21583" lon="-1.34052">
        <ele>198</ele>
        <time>2018-06-25T09:10:56.326Z</time>
      </trkpt>
      <trkpt lat="43.21662" lon="-1.34114">
        <ele>196</ele>
        <time>2018-06-25T09:10:57.326Z</time>
      </trkpt>
      <trkpt lat="43.21737" lon="-1.34134">
        <ele>199</ele>
        <time>2018-06-25T09:10:58.326Z</time>
      </trkpt>
      <trkpt lat="43.21795" lon="-1.34206">
        <ele>197</ele>
        <time>2018-06-25T09:10:59.326Z</time>
      </trkpt>
      <trkpt lat="43.21917" lon="-1.34265">
        <ele>200</ele>
        <time>2018-06-25T09:11:00.326Z</time>
      </trkpt>
      <trkpt lat="43.21975" lon="-1.34308">
        <ele>204</ele>
        <time>2018-06-25T09:11:01.326Z</time>
      </trkpt>
      <trkpt lat="43.22003" lon="-1.34348">
        <ele>203</ele>
        <time>2018-06-25T09:11:02.326Z</time>
      </trkpt>
      <trkpt lat="43.22056" lon="-1.34384">
        <ele>207</ele>
        <time>2018-06-25T09:11:03.326Z</time>
      </trkpt>
      <trkpt lat="43.22091" lon="-1.34396">
        <ele>209</ele>
        <time>2018-06-25T09:11:04.326Z</time>
      </trkpt>
      <trkpt lat="43.22153" lon="-1.34395">
        <ele>216</ele>
        <time>2018-06-25T09:11:05.326Z</time>
      </trkpt>
      <trkpt lat="43.222" lon="-1.34413">
        <ele>220</ele>
        <time>2018-06-25T09:11:06.326Z</time>
      </trkpt>
      <trkpt lat="43.2224" lon="-1.34412">
        <ele>225</ele>
        <time>2018-06-25T09:11:07.326Z</time>
      </trkpt>
      <trkpt lat="43.22263" lon="-1.34423">
        <ele>227</ele>
        <time>2018-06-25T09:11:08.326Z</time>
      </trkpt>
      <trkpt lat="43.22391" lon="-1.34388">
        <ele>243</ele>
        <time>2018-06-25T09:11:09.326Z</time>
      </trkpt>
      <trkpt lat="43.22416" lon="-1.344">
        <ele>245</ele>
        <time>2018-06-25T09:11:10.326Z</time>
      </trkpt>
      <trkpt lat="43.22448" lon="-1.34436">
        <ele>251</ele>
        <time>2018-06-25T09:11:11.326Z</time>
      </trkpt>
      <trkpt lat="43.22522" lon="-1.34498">
        <ele>262</ele>
        <time>2018-06-25T09:11:12.326Z</time>
      </trkpt>
      <trkpt lat="43.22578" lon="-1.34563">
        <ele>265</ele>
        <time>2018-06-25T09:11:13.326Z</time>
      </trkpt>
      <trkpt lat="43.22612" lon="-1.34579">
        <ele>267</ele>
        <time>2018-06-25T09:11:14.326Z</time>
      </trkpt>
      <trkpt lat="43.22641" lon="-1.34639">
        <ele>272</ele>
        <time>2018-06-25T09:11:15.326Z</time>
      </trkpt>
      <trkpt lat="43.22692" lon="-1.34682">
        <ele>279</ele>
        <time>2018-06-25T09:11:16.326Z</time>
      </trkpt>
      <trkpt lat="43.22715" lon="-1.34717">
        <ele>285</ele>
        <time>2018-06-25T09:11:17.326Z</time>
      </trkpt>
      <trkpt lat="43.22796" lon="-1.34806">
        <ele>292</ele>
        <time>2018-06-25T09:11:18.326Z</time>
      </trkpt>
      <trkpt lat="43.22866" lon="-1.34833">
        <ele>298</ele>
        <time>2018-06-25T09:11:19.326Z</time>
      </trkpt>
      <trkpt lat="43.22872" lon="-1.34853">
        <ele>302</ele>
        <time>2018-06-25T09:11:20.326Z</time>
      </trkpt>
      <trkpt lat="43.22871" lon="-1.3491">
        <ele>311</ele>
        <time>2018-06-25T09:11:21.326Z</time>
      </trkpt>
      <trkpt lat="43.22884" lon="-1.35036">
        <ele>321</ele>
        <time>2018-06-25T09:11:22.326Z</time>
      </trkpt>
      <trkpt lat="43.22928" lon="-1.35175">
        <ele>316</ele>
        <time>2018-06-25T09:11:23.326Z</time>
      </trkpt>
      <trkpt lat="43.22983" lon="-1.35244">
        <ele>326</ele>
        <time>2018-06-25T09:11:24.326Z</time>
      </trkpt>
      <trkpt lat="43.23001" lon="-1.35284">
        <ele>326</ele>
        <time>2018-06-25T09:11:25.326Z</time>
      </trkpt>
      <trkpt lat="43.23106" lon="-1.35374">
        <ele>334</ele>
        <time>2018-06-25T09:11:26.326Z</time>
      </trkpt>
      <trkpt lat="43.23162" lon="-1.35385">
        <ele>340</ele>
        <time>2018-06-25T09:11:27.326Z</time>
      </trkpt>
      <trkpt lat="43.23235" lon="-1.3542">
        <ele>345</ele>
        <time>2018-06-25T09:11:28.326Z</time>
      </trkpt>
      <trkpt lat="43.23257" lon="-1.35455">
        <ele>343</ele>
        <time>2018-06-25T09:11:29.326Z</time>
      </trkpt>
      <trkpt lat="43.2334" lon="-1.35535">
        <ele>352</ele>
        <time>2018-06-25T09:11:30.326Z</time>
      </trkpt>
      <trkpt lat="43.23354" lon="-1.35543">
        <ele>353</ele>
        <time>2018-06-25T09:11:31.326Z</time>
      </trkpt>
      <trkpt lat="43.23386" lon="-1.3558">
        <ele>351</ele>
        <time>2018-06-25T09:11:32.326Z</time>
      </trkpt>
      <trkpt lat="43.23404" lon="-1.35615">
        <ele>354</ele>
        <time>2018-06-25T09:11:33.326Z</time>
      </trkpt>
      <trkpt lat="43.23505" lon="-1.35668">
        <ele>339</ele>
        <time>2018-06-25T09:11:34.326Z</time>
      </trkpt>
      <trkpt lat="43.23593" lon="-1.35691">
        <ele>336</ele>
        <time>2018-06-25T09:11:35.326Z</time>
      </trkpt>
      <trkpt lat="43.23642" lon="-1.35693">
        <ele>328</ele>
        <time>2018-06-25T09:11:36.326Z</time>
      </trkpt>
      <trkpt lat="43.23692" lon="-1.35674">
        <ele>316</ele>
        <time>2018-06-25T09:11:37.326Z</time>
      </trkpt>
      <trkpt lat="43.23733" lon="-1.35631">
        <ele>314</ele>
        <time>2018-06-25T09:11:38.326Z</time>
      </trkpt>
      <trkpt lat="43.23856" lon="-1.35543">
        <ele>305</ele>
        <time>2018-06-25T09:11:39.326Z</time>
      </trkpt>
      <trkpt lat="43.23876" lon="-1.35537">
        <ele>305</ele>
        <time>2018-06-25T09:11:40.326Z</time>
      </trkpt>
      <trkpt lat="43.23981" lon="-1.35595">
        <ele>284</ele>
        <time>2018-06-25T09:11:41.326Z</time>
      </trkpt>
      <trkpt lat="43.24054" lon="-1.35623">
        <ele>275</ele>
        <time>2018-06-25T09:11:42.326Z</time>
      </trkpt>
      <trkpt lat="43.24071" lon="-1.35621">
        <ele>275</ele>
        <time>2018-06-25T09:11:43.326Z</time>
      </trkpt>
      <trkpt lat="43.24194" lon="-1.35553">
        <ele>262</ele>
        <time>2018-06-25T09:11:44.326Z</time>
      </trkpt>
      <trkpt lat="43.24274" lon="-1.35557">
        <ele>247</ele>
        <time>2018-06-25T09:11:45.326Z</time>
      </trkpt>
      <trkpt lat="43.24307" lon="-1.35531">
        <ele>243</ele>
        <time>2018-06-25T09:11:46.326Z</time>
      </trkpt>
      <trkpt lat="43.24379" lon="-1.35388">
        <ele>232</ele>
        <time>2018-06-25T09:11:47.326Z</time>
      </trkpt>
      <trkpt lat="43.24391" lon="-1.35374">
        <ele>228</ele>
        <time>2018-06-25T09:11:48.326Z</time>
      </trkpt>
      <trkpt lat="43.2443" lon="-1.35375">
        <ele>218</ele>
        <time>2018-06-25T09:11:49.326Z</time>
      </trkpt>
      <trkpt lat="43.24449" lon="-1.35303">
        <ele>216</ele>
        <time>2018-06-25T09:11:50.326Z</time>
      </trkpt>
      <trkpt lat="43.24506" lon="-1.35221">
        <ele>211</ele>
        <time>2018-06-25T09:11:51.326Z</time>
      </trkpt>
      <trkpt lat="43.24575" lon="-1.35157">
        <ele>205</ele>
        <time>2018-06-25T09:11:52.326Z</time>
      </trkpt>
      <trkpt lat="43.24613" lon="-1.35106">
        <ele>204</ele>
        <time>2018-06-25T09:11:53.326Z</time>
      </trkpt>
      <trkpt lat="43.247" lon="-1.35048">
        <ele>192</ele>
        <time>2018-06-25T09:11:54.326Z</time>
      </trkpt>
      <trkpt lat="43.24728" lon="-1.35016">
        <ele>189</ele>
        <time>2018-06-25T09:11:55.326Z</time>
      </trkpt>
      <trkpt lat="43.24786" lon="-1.35009">
        <ele>187</ele>
        <time>2018-06-25T09:11:56.326Z</time>
      </trkpt>
      <trkpt lat="43.24887" lon="-1.34943">
        <ele>192</ele>
        <time>2018-06-25T09:11:57.326Z</time>
      </trkpt>
      <trkpt lat="43.24998" lon="-1.34907">
        <ele>176</ele>
        <time>2018-06-25T09:11:58.326Z</time>
      </trkpt>
      <trkpt lat="43.25095" lon="-1.34947">
        <ele>163</ele>
        <time>2018-06-25T09:11:59.326Z</time>
      </trkpt>
      <trkpt lat="43.25139" lon="-1.34928">
        <ele>155</ele>
        <time>2018-06-25T09:12:00.326Z</time>
      </trkpt>
      <trkpt lat="43.25192" lon="-1.34932">
        <ele>151</ele>
        <time>2018-06-25T09:12:01.326Z</time>
      </trkpt>
      <trkpt lat="43.25278" lon="-1.34896">
        <ele>151</ele>
        <time>2018-06-25T09:12:02.326Z</time>
      </trkpt>
      <trkpt lat="43.2544" lon="-1.34942">
        <ele>138</ele>
        <time>2018-06-25T09:12:03.326Z</time>
      </trkpt>
      <trkpt lat="43.255" lon="-1.34925">
        <ele>132</ele>
        <time>2018-06-25T09:12:04.326Z</time>
      </trkpt>
      <trkpt lat="43.25593" lon="-1.34918">
        <ele>127</ele>
        <time>2018-06-25T09:12:05.326Z</time>
      </trkpt>
      <trkpt lat="43.25708" lon="-1.34945">
        <ele>127</ele>
        <time>2018-06-25T09:12:06.326Z</time>
      </trkpt>
      <trkpt lat="43.25759" lon="-1.3499">
        <ele>122</ele>
        <time>2018-06-25T09:12:07.326Z</time>
      </trkpt>
      <trkpt lat="43.25756" lon="-1.34996">
        <ele>122</ele>
        <time>2018-06-25T09:12:08.326Z</time>
      </trkpt>
      <trkpt lat="43.25828" lon="-1.35035">
        <ele>133</ele>
        <time>2018-06-25T09:12:09.326Z</time>
      </trkpt>
      <trkpt lat="43.25862" lon="-1.35039">
        <ele>137</ele>
        <time>2018-06-25T09:12:10.326Z</time>
      </trkpt>
      <trkpt lat="43.25884" lon="-1.3502">
        <ele>136</ele>
        <time>2018-06-25T09:12:11.326Z</time>
      </trkpt>
      <trkpt lat="43.26023" lon="-1.3502">
        <ele>146</ele>
        <time>2018-06-25T09:12:12.326Z</time>
      </trkpt>
      <trkpt lat="43.26078" lon="-1.35005">
        <ele>147</ele>
        <time>2018-06-25T09:12:13.326Z</time>
      </trkpt>
      <trkpt lat="43.26161" lon="-1.35029">
        <ele>149</ele>
        <time>2018-06-25T09:12:14.326Z</time>
      </trkpt>
      <trkpt lat="43.26205" lon="-1.35079">
        <ele>149</ele>
        <time>2018-06-25T09:12:15.326Z</time>
      </trkpt>
      <trkpt lat="43.26259" lon="-1.35104">
        <ele>148</ele>
        <time>2018-06-25T09:12:16.326Z</time>
      </trkpt>
      <trkpt lat="43.26356" lon="-1.35109">
        <ele>145</ele>
        <time>2018-06-25T09:12:17.326Z</time>
      </trkpt>
      <trkpt lat="43.26419" lon="-1.35137">
        <ele>146</ele>
        <time>2018-06-25T09:12:18.326Z</time>
      </trkpt>
      <trkpt lat="43.26497" lon="-1.35107">
        <ele>140</ele>
        <time>2018-06-25T09:12:19.326Z</time>
      </trkpt>
      <trkpt lat="43.26519" lon="-1.35085">
        <ele>136</ele>
        <time>2018-06-25T09:12:20.326Z</time>
      </trkpt>
      <trkpt lat="43.26525" lon="-1.35062">
        <ele>136</ele>
        <time>2018-06-25T09:12:21.326Z</time>
      </trkpt>
      <trkpt lat="43.26552" lon="-1.34858">
        <ele>140</ele>
        <time>2018-06-25T09:12:22.326Z</time>
      </trkpt>
      <trkpt lat="43.26576" lon="-1.34775">
        <ele>139</ele>
        <time>2018-06-25T09:12:23.326Z</time>
      </trkpt>
      <trkpt lat="43.26558" lon="-1.34698">
        <ele>135</ele>
        <time>2018-06-25T09:12:24.326Z</time>
      </trkpt>
      <trkpt lat="43.26518" lon="-1.34631">
        <ele>120</ele>
        <time>2018-06-25T09:12:25.326Z</time>
      </trkpt>
      <trkpt lat="43.2656" lon="-1.34498">
        <ele>109</ele>
        <time>2018-06-25T09:12:26.326Z</time>
      </trkpt>
      <trkpt lat="43.2657" lon="-1.34481">
        <ele>107</ele>
        <time>2018-06-25T09:12:27.326Z</time>
      </trkpt>
      <trkpt lat="43.26603" lon="-1.34455">
        <ele>102</ele>
        <time>2018-06-25T09:12:28.326Z</time>
      </trkpt>
      <trkpt lat="43.26638" lon="-1.34449">
        <ele>99</ele>
        <time>2018-06-25T09:12:29.326Z</time>
      </trkpt>
      <trkpt lat="43.2667" lon="-1.34458">
        <ele>99</ele>
        <time>2018-06-25T09:12:30.326Z</time>
      </trkpt>
      <trkpt lat="43.26729" lon="-1.34493">
        <ele>92</ele>
        <time>2018-06-25T09:12:31.326Z</time>
      </trkpt>
      <trkpt lat="43.26728" lon="-1.34494">
        <ele>92</ele>
        <time>2018-06-25T09:12:32.326Z</time>
      </trkpt>
      <trkpt lat="43.26747" lon="-1.34526">
        <ele>92</ele>
        <time>2018-06-25T09:12:33.326Z</time>
      </trkpt>
      <trkpt lat="43.2676" lon="-1.34554">
        <ele>94</ele>
        <time>2018-06-25T09:12:34.326Z</time>
      </trkpt>
      <trkpt lat="43.26815" lon="-1.34656">
        <ele>97</ele>
        <time>2018-06-25T09:12:35.326Z</time>
      </trkpt>
      <trkpt lat="43.26909" lon="-1.34781">
        <ele>87</ele>
        <time>2018-06-25T09:12:36.326Z</time>
      </trkpt>
      <trkpt lat="43.26919" lon="-1.34798">
        <ele>84</ele>
        <time>2018-06-25T09:12:37.326Z</time>
      </trkpt>
      <trkpt lat="43.26921" lon="-1.34817">
        <ele>85</ele>
        <time>2018-06-25T09:12:38.326Z</time>
      </trkpt>
      <trkpt lat="43.26919" lon="-1.34829">
        <ele>85</ele>
        <time>2018-06-25T09:12:39.326Z</time>
      </trkpt>
      <trkpt lat="43.26919" lon="-1.3483">
        <ele>85</ele>
        <time>2018-06-25T09:12:40.326Z</time>
      </trkpt>
      <trkpt lat="43.26916" lon="-1.34851">
        <ele>84</ele>
        <time>2018-06-25T09:12:41.326Z</time>
      </trkpt>
      <trkpt lat="43.2691" lon="-1.34969">
        <ele>81</ele>
        <time>2018-06-25T09:12:42.326Z</time>
      </trkpt>
      <trkpt lat="43.26943" lon="-1.34973">
        <ele>81</ele>
        <time>2018-06-25T09:12:43.326Z</time>
      </trkpt>
      <trkpt lat="43.26949" lon="-1.34981">
        <ele>81</ele>
        <time>2018-06-25T09:12:44.326Z</time>
      </trkpt>
      <trkpt lat="43.26961" lon="-1.35022">
        <ele>81</ele>
        <time>2018-06-25T09:12:45.326Z</time>
      </trkpt>
      <trkpt lat="43.27027" lon="-1.35038">
        <ele>82</ele>
        <time>2018-06-25T09:12:46.326Z</time>
      </trkpt>
      <trkpt lat="43.27071" lon="-1.35026">
        <ele>84</ele>
        <time>2018-06-25T09:12:47.326Z</time>
      </trkpt>
      <trkpt lat="43.27084" lon="-1.35011">
        <ele>85</ele>
        <time>2018-06-25T09:12:48.326Z</time>
      </trkpt>
      <trkpt lat="43.27093" lon="-1.3499">
        <ele>87</ele>
        <time>2018-06-25T09:12:49.326Z</time>
      </trkpt>
      <trkpt lat="43.27102" lon="-1.34985">
        <ele>89</ele>
        <time>2018-06-25T09:12:50.326Z</time>
      </trkpt>
      <trkpt lat="43.27131" lon="-1.34989">
        <ele>92</ele>
        <time>2018-06-25T09:12:51.326Z</time>
      </trkpt>
      <trkpt lat="43.27147" lon="-1.34994">
        <ele>94</ele>
        <time>2018-06-25T09:12:52.326Z</time>
      </trkpt>
      <trkpt lat="43.27167" lon="-1.35004">
        <ele>96</ele>
        <time>2018-06-25T09:12:53.326Z</time>
      </trkpt>
      <trkpt lat="43.27179" lon="-1.35005">
        <ele>94</ele>
        <time>2018-06-25T09:12:54.326Z</time>
      </trkpt>
      <trkpt lat="43.27183" lon="-1.35014">
        <ele>93</ele>
        <time>2018-06-25T09:12:55.326Z</time>
      </trkpt>
      <trkpt lat="43.2719" lon="-1.3504">
        <ele>91</ele>
        <time>2018-06-25T09:12:56.326Z</time>
      </trkpt>
      <trkpt lat="43.27188" lon="-1.35075">
        <ele>91</ele>
        <time>2018-06-25T09:12:57.326Z</time>
      </trkpt>
      <trkpt lat="43.27193" lon="-1.35076">
        <ele>91</ele>
        <time>2018-06-25T09:12:58.326Z</time>
      </trkpt>
      <trkpt lat="43.27216" lon="-1.35119">
        <ele>93</ele>
        <time>2018-06-25T09:12:59.326Z</time>
      </trkpt>
      <trkpt lat="43.27244" lon="-1.35164">
        <ele>98</ele>
        <time>2018-06-25T09:13:00.326Z</time>
      </trkpt>
      <trkpt lat="43.2732" lon="-1.35214">
        <ele>93</ele>
        <time>2018-06-25T09:13:01.326Z</time>
      </trkpt>
      <trkpt lat="43.27344" lon="-1.35241">
        <ele>97</ele>
        <time>2018-06-25T09:13:02.326Z</time>
      </trkpt>
      <trkpt lat="43.27352" lon="-1.35245">
        <ele>97</ele>
        <time>2018-06-25T09:13:03.326Z</time>
      </trkpt>
      <trkpt lat="43.27377" lon="-1.3523">
        <ele>93</ele>
        <time>2018-06-25T09:13:04.326Z</time>
      </trkpt>
      <trkpt lat="43.27437" lon="-1.35247">
        <ele>94</ele>
        <time>2018-06-25T09:13:05.326Z</time>
      </trkpt>
      <trkpt lat="43.27458" lon="-1.35256">
        <ele>95</ele>
        <time>2018-06-25T09:13:06.326Z</time>
      </trkpt>
      <trkpt lat="43.27476" lon="-1.35255">
        <ele>93</ele>
        <time>2018-06-25T09:13:07.326Z</time>
      </trkpt>
      <trkpt lat="43.27499" lon="-1.3525">
        <ele>89</ele>
        <time>2018-06-25T09:13:08.326Z</time>
      </trkpt>
      <trkpt lat="43.27538" lon="-1.35259">
        <ele>89</ele>
        <time>2018-06-25T09:13:09.326Z</time>
      </trkpt>
      <trkpt lat="43.27599" lon="-1.35282">
        <ele>91</ele>
        <time>2018-06-25T09:13:10.326Z</time>
      </trkpt>
      <trkpt lat="43.27639" lon="-1.35306">
        <ele>92</ele>
        <time>2018-06-25T09:13:11.326Z</time>
      </trkpt>
      <trkpt lat="43.27659" lon="-1.35324">
        <ele>92</ele>
        <time>2018-06-25T09:13:12.326Z</time>
      </trkpt>
      <trkpt lat="43.2768" lon="-1.35338">
        <ele>91</ele>
        <time>2018-06-25T09:13:13.326Z</time>
      </trkpt>
      <trkpt lat="43.27704" lon="-1.35358">
        <ele>90</ele>
        <time>2018-06-25T09:13:14.326Z</time>
      </trkpt>
      <trkpt lat="43.27727" lon="-1.35387">
        <ele>90</ele>
        <time>2018-06-25T09:13:15.326Z</time>
      </trkpt>
      <trkpt lat="43.27799" lon="-1.35445">
        <ele>88</ele>
        <time>2018-06-25T09:13:16.326Z</time>
      </trkpt>
      <trkpt lat="43.27799" lon="-1.35446">
        <ele>89</ele>
        <time>2018-06-25T09:13:17.326Z</time>
      </trkpt>
      <trkpt lat="43.27831" lon="-1.35458">
        <ele>87</ele>
        <time>2018-06-25T09:13:18.326Z</time>
      </trkpt>
      <trkpt lat="43.27869" lon="-1.35466">
        <ele>85</ele>
        <time>2018-06-25T09:13:19.326Z</time>
      </trkpt>
      <trkpt lat="43.27886" lon="-1.35473">
        <ele>84</ele>
        <time>2018-06-25T09:13:20.326Z</time>
      </trkpt>
      <trkpt lat="43.27943" lon="-1.35521">
        <ele>88</ele>
        <time>2018-06-25T09:13:21.326Z</time>
      </trkpt>
      <trkpt lat="43.2809" lon="-1.35555">
        <ele>93</ele>
        <time>2018-06-25T09:13:22.326Z</time>
      </trkpt>
      <trkpt lat="43.2815" lon="-1.35554">
        <ele>87</ele>
        <time>2018-06-25T09:13:23.326Z</time>
      </trkpt>
      <trkpt lat="43.28218" lon="-1.35569">
        <ele>88</ele>
        <time>2018-06-25T09:13:24.326Z</time>
      </trkpt>
      <trkpt lat="43.28379" lon="-1.35576">
        <ele>86</ele>
        <time>2018-06-25T09:13:25.326Z</time>
      </trkpt>
      <trkpt lat="43.28452" lon="-1.35568">
        <ele>84</ele>
        <time>2018-06-25T09:13:26.326Z</time>
      </trkpt>
      <trkpt lat="43.28516" lon="-1.35569">
        <ele>88</ele>
        <time>2018-06-25T09:13:27.326Z</time>
      </trkpt>
      <trkpt lat="43.28532" lon="-1.35562">
        <ele>91</ele>
        <time>2018-06-25T09:13:28.326Z</time>
      </trkpt>
      <trkpt lat="43.28547" lon="-1.35539">
        <ele>91</ele>
        <time>2018-06-25T09:13:29.326Z</time>
      </trkpt>
      <trkpt lat="43.28553" lon="-1.3552">
        <ele>90</ele>
        <time>2018-06-25T09:13:30.326Z</time>
      </trkpt>
      <trkpt lat="43.28573" lon="-1.35479">
        <ele>89</ele>
        <time>2018-06-25T09:13:31.326Z</time>
      </trkpt>
      <trkpt lat="43.28621" lon="-1.35416">
        <ele>98</ele>
        <time>2018-06-25T09:13:32.326Z</time>
      </trkpt>
      <trkpt lat="43.28641" lon="-1.35358">
        <ele>99</ele>
        <time>2018-06-25T09:13:33.326Z</time>
      </trkpt>
      <trkpt lat="43.28655" lon="-1.35335">
        <ele>100</ele>
        <time>2018-06-25T09:13:34.326Z</time>
      </trkpt>
      <trkpt lat="43.28677" lon="-1.35323">
        <ele>101</ele>
        <time>2018-06-25T09:13:35.326Z</time>
      </trkpt>
      <trkpt lat="43.28693" lon="-1.35323">
        <ele>102</ele>
        <time>2018-06-25T09:13:36.326Z</time>
      </trkpt>
      <trkpt lat="43.28738" lon="-1.35326">
        <ele>104</ele>
        <time>2018-06-25T09:13:37.326Z</time>
      </trkpt>
      <trkpt lat="43.28785" lon="-1.35344">
        <ele>107</ele>
        <time>2018-06-25T09:13:38.326Z</time>
      </trkpt>
      <trkpt lat="43.28808" lon="-1.35355">
        <ele>108</ele>
        <time>2018-06-25T09:13:39.326Z</time>
      </trkpt>
      <trkpt lat="43.28841" lon="-1.35363">
        <ele>106</ele>
        <time>2018-06-25T09:13:40.326Z</time>
      </trkpt>
      <trkpt lat="43.28894" lon="-1.3539">
        <ele>101</ele>
        <time>2018-06-25T09:13:41.326Z</time>
      </trkpt>
      <trkpt lat="43.28906" lon="-1.354">
        <ele>102</ele>
        <time>2018-06-25T09:13:42.326Z</time>
      </trkpt>
      <trkpt lat="43.28917" lon="-1.35417">
        <ele>104</ele>
        <time>2018-06-25T09:13:43.326Z</time>
      </trkpt>
      <trkpt lat="43.28921" lon="-1.35449">
        <ele>109</ele>
        <time>2018-06-25T09:13:44.326Z</time>
      </trkpt>
      <trkpt lat="43.28932" lon="-1.35466">
        <ele>111</ele>
        <time>2018-06-25T09:13:45.326Z</time>
      </trkpt>
      <trkpt lat="43.28946" lon="-1.3547">
        <ele>111</ele>
        <time>2018-06-25T09:13:46.326Z</time>
      </trkpt>
      <trkpt lat="43.28952" lon="-1.35464">
        <ele>110</ele>
        <time>2018-06-25T09:13:47.326Z</time>
      </trkpt>
      <trkpt lat="43.28988" lon="-1.35458">
        <ele>107</ele>
        <time>2018-06-25T09:13:48.326Z</time>
      </trkpt>
      <trkpt lat="43.29021" lon="-1.3547">
        <ele>108</ele>
        <time>2018-06-25T09:13:49.326Z</time>
      </trkpt>
      <trkpt lat="43.29069" lon="-1.35453">
        <ele>101</ele>
        <time>2018-06-25T09:13:50.326Z</time>
      </trkpt>
      <trkpt lat="43.29093" lon="-1.35466">
        <ele>104</ele>
        <time>2018-06-25T09:13:51.326Z</time>
      </trkpt>
      <trkpt lat="43.29133" lon="-1.35475">
        <ele>103</ele>
        <time>2018-06-25T09:13:52.326Z</time>
      </trkpt>
      <trkpt lat="43.2917" lon="-1.35467">
        <ele>96</ele>
        <time>2018-06-25T09:13:53.326Z</time>
      </trkpt>
      <trkpt lat="43.29199" lon="-1.35497">
        <ele>105</ele>
        <time>2018-06-25T09:13:54.326Z</time>
      </trkpt>
      <trkpt lat="43.29209" lon="-1.35496">
        <ele>104</ele>
        <time>2018-06-25T09:13:55.326Z</time>
      </trkpt>
      <trkpt lat="43.29223" lon="-1.35483">
        <ele>100</ele>
        <time>2018-06-25T09:13:56.326Z</time>
      </trkpt>
      <trkpt lat="43.29248" lon="-1.35452">
        <ele>92</ele>
        <time>2018-06-25T09:13:57.326Z</time>
      </trkpt>
      <trkpt lat="43.29291" lon="-1.35441">
        <ele>96</ele>
        <time>2018-06-25T09:13:58.326Z</time>
      </trkpt>
      <trkpt lat="43.29345" lon="-1.35401">
        <ele>93</ele>
        <time>2018-06-25T09:13:59.326Z</time>
      </trkpt>
      <trkpt lat="43.29454" lon="-1.35289">
        <ele>91</ele>
        <time>2018-06-25T09:14:00.326Z</time>
      </trkpt>
      <trkpt lat="43.29532" lon="-1.35238">
        <ele>93</ele>
        <time>2018-06-25T09:14:01.326Z</time>
      </trkpt>
      <trkpt lat="43.29582" lon="-1.35209">
        <ele>95</ele>
        <time>2018-06-25T09:14:02.326Z</time>
      </trkpt>
      <trkpt lat="43.29629" lon="-1.35195">
        <ele>94</ele>
        <time>2018-06-25T09:14:03.326Z</time>
      </trkpt>
      <trkpt lat="43.29629" lon="-1.35195">
        <ele>94</ele>
        <time>2018-06-25T09:14:04.326Z</time>
      </trkpt>
      <trkpt lat="43.29647" lon="-1.35189">
        <ele>93</ele>
        <time>2018-06-25T09:14:05.326Z</time>
      </trkpt>
      <trkpt lat="43.29674" lon="-1.35198">
        <ele>97</ele>
        <time>2018-06-25T09:14:06.326Z</time>
      </trkpt>
      <trkpt lat="43.29738" lon="-1.35235">
        <ele>100</ele>
        <time>2018-06-25T09:14:07.326Z</time>
      </trkpt>
      <trkpt lat="43.29759" lon="-1.3526">
        <ele>102</ele>
        <time>2018-06-25T09:14:08.326Z</time>
      </trkpt>
      <trkpt lat="43.29776" lon="-1.35304">
        <ele>110</ele>
        <time>2018-06-25T09:14:09.326Z</time>
      </trkpt>
      <trkpt lat="43.29783" lon="-1.3531">
        <ele>110</ele>
        <time>2018-06-25T09:14:10.326Z</time>
      </trkpt>
      <trkpt lat="43.29815" lon="-1.3531">
        <ele>105</ele>
        <time>2018-06-25T09:14:11.326Z</time>
      </trkpt>
      <trkpt lat="43.29826" lon="-1.35323">
        <ele>107</ele>
        <time>2018-06-25T09:14:12.326Z</time>
      </trkpt>
      <trkpt lat="43.2989" lon="-1.35385">
        <ele>112</ele>
        <time>2018-06-25T09:14:13.326Z</time>
      </trkpt>
      <trkpt lat="43.2992" lon="-1.35431">
        <ele>115</ele>
        <time>2018-06-25T09:14:14.326Z</time>
      </trkpt>
      <trkpt lat="43.30032" lon="-1.35565">
        <ele>99</ele>
        <time>2018-06-25T09:14:15.326Z</time>
      </trkpt>
      <trkpt lat="43.3004" lon="-1.35606">
        <ele>93</ele>
        <time>2018-06-25T09:14:16.326Z</time>
      </trkpt>
      <trkpt lat="43.30027" lon="-1.35652">
        <ele>92</ele>
        <time>2018-06-25T09:14:17.326Z</time>
      </trkpt>
      <trkpt lat="43.29995" lon="-1.35696">
        <ele>100</ele>
        <time>2018-06-25T09:14:18.326Z</time>
      </trkpt>
      <trkpt lat="43.29997" lon="-1.35734">
        <ele>93</ele>
        <time>2018-06-25T09:14:19.326Z</time>
      </trkpt>
      <trkpt lat="43.29989" lon="-1.35778">
        <ele>90</ele>
        <time>2018-06-25T09:14:20.326Z</time>
      </trkpt>
      <trkpt lat="43.29967" lon="-1.35811">
        <ele>98</ele>
        <time>2018-06-25T09:14:21.326Z</time>
      </trkpt>
      <trkpt lat="43.2996" lon="-1.35849">
        <ele>97</ele>
        <time>2018-06-25T09:14:22.326Z</time>
      </trkpt>
      <trkpt lat="43.29952" lon="-1.35951">
        <ele>92</ele>
        <time>2018-06-25T09:14:23.326Z</time>
      </trkpt>
      <trkpt lat="43.29953" lon="-1.36146">
        <ele>91</ele>
        <time>2018-06-25T09:14:24.326Z</time>
      </trkpt>
      <trkpt lat="43.29987" lon="-1.36229">
        <ele>88</ele>
        <time>2018-06-25T09:14:25.326Z</time>
      </trkpt>
      <trkpt lat="43.29987" lon="-1.36268">
        <ele>91</ele>
        <time>2018-06-25T09:14:26.326Z</time>
      </trkpt>
      <trkpt lat="43.29991" lon="-1.36304">
        <ele>89</ele>
        <time>2018-06-25T09:14:27.326Z</time>
      </trkpt>
      <trkpt lat="43.29978" lon="-1.36355">
        <ele>91</ele>
        <time>2018-06-25T09:14:28.326Z</time>
      </trkpt>
      <trkpt lat="43.29946" lon="-1.36371">
        <ele>96</ele>
        <time>2018-06-25T09:14:29.326Z</time>
      </trkpt>
      <trkpt lat="43.29917" lon="-1.36366">
        <ele>103</ele>
        <time>2018-06-25T09:14:30.326Z</time>
      </trkpt>
      <trkpt lat="43.29908" lon="-1.36363">
        <ele>106</ele>
        <time>2018-06-25T09:14:31.326Z</time>
      </trkpt>
      <trkpt lat="43.29893" lon="-1.36368">
        <ele>108</ele>
        <time>2018-06-25T09:14:32.326Z</time>
      </trkpt>
      <trkpt lat="43.29874" lon="-1.36378">
        <ele>110</ele>
        <time>2018-06-25T09:14:33.326Z</time>
      </trkpt>
      <trkpt lat="43.29861" lon="-1.36389">
        <ele>111</ele>
        <time>2018-06-25T09:14:34.326Z</time>
      </trkpt>
      <trkpt lat="43.29853" lon="-1.36408">
        <ele>110</ele>
        <time>2018-06-25T09:14:35.326Z</time>
      </trkpt>
      <trkpt lat="43.29852" lon="-1.36422">
        <ele>108</ele>
        <time>2018-06-25T09:14:36.326Z</time>
      </trkpt>
      <trkpt lat="43.29853" lon="-1.36457">
        <ele>108</ele>
        <time>2018-06-25T09:14:37.326Z</time>
      </trkpt>
      <trkpt lat="43.29843" lon="-1.36476">
        <ele>109</ele>
        <time>2018-06-25T09:14:38.326Z</time>
      </trkpt>
      <trkpt lat="43.29841" lon="-1.36484">
        <ele>109</ele>
        <time>2018-06-25T09:14:39.326Z</time>
      </trkpt>
      <trkpt lat="43.29832" lon="-1.36489">
        <ele>110</ele>
        <time>2018-06-25T09:14:40.326Z</time>
      </trkpt>
      <trkpt lat="43.29811" lon="-1.36493">
        <ele>113</ele>
        <time>2018-06-25T09:14:41.326Z</time>
      </trkpt>
      <trkpt lat="43.29774" lon="-1.36496">
        <ele>117</ele>
        <time>2018-06-25T09:14:42.326Z</time>
      </trkpt>
      <trkpt lat="43.29754" lon="-1.36506">
        <ele>119</ele>
        <time>2018-06-25T09:14:43.326Z</time>
      </trkpt>
      <trkpt lat="43.29736" lon="-1.36522">
        <ele>124</ele>
        <time>2018-06-25T09:14:44.326Z</time>
      </trkpt>
      <trkpt lat="43.29724" lon="-1.36552">
        <ele>126</ele>
        <time>2018-06-25T09:14:45.326Z</time>
      </trkpt>
      <trkpt lat="43.29725" lon="-1.36567">
        <ele>125</ele>
        <time>2018-06-25T09:14:46.326Z</time>
      </trkpt>
      <trkpt lat="43.29737" lon="-1.36567">
        <ele>123</ele>
        <time>2018-06-25T09:14:47.326Z</time>
      </trkpt>
      <trkpt lat="43.29749" lon="-1.36564">
        <ele>120</ele>
        <time>2018-06-25T09:14:48.326Z</time>
      </trkpt>
      <trkpt lat="43.29772" lon="-1.36563">
        <ele>119</ele>
        <time>2018-06-25T09:14:49.326Z</time>
      </trkpt>
      <trkpt lat="43.29782" lon="-1.36571">
        <ele>118</ele>
        <time>2018-06-25T09:14:50.326Z</time>
      </trkpt>
      <trkpt lat="43.29815" lon="-1.36608">
        <ele>123</ele>
        <time>2018-06-25T09:14:51.326Z</time>
      </trkpt>
      <trkpt lat="43.29838" lon="-1.36643">
        <ele>131</ele>
        <time>2018-06-25T09:14:52.326Z</time>
      </trkpt>
      <trkpt lat="43.29878" lon="-1.36638">
        <ele>131</ele>
        <time>2018-06-25T09:14:53.326Z</time>
      </trkpt>
      <trkpt lat="43.29918" lon="-1.36616">
        <ele>128</ele>
        <time>2018-06-25T09:14:54.326Z</time>
      </trkpt>
      <trkpt lat="43.29959" lon="-1.36625">
        <ele>124</ele>
        <time>2018-06-25T09:14:55.326Z</time>
      </trkpt>
      <trkpt lat="43.29971" lon="-1.36636">
        <ele>124</ele>
        <time>2018-06-25T09:14:56.326Z</time>
      </trkpt>
      <trkpt lat="43.30021" lon="-1.36667">
        <ele>123</ele>
        <time>2018-06-25T09:14:57.326Z</time>
      </trkpt>
      <trkpt lat="43.30181" lon="-1.36704">
        <ele>110</ele>
        <time>2018-06-25T09:14:58.326Z</time>
      </trkpt>
      <trkpt lat="43.30238" lon="-1.36696">
        <ele>107</ele>
        <time>2018-06-25T09:14:59.326Z</time>
      </trkpt>
      <trkpt lat="43.30286" lon="-1.36672">
        <ele>100</ele>
        <time>2018-06-25T09:15:00.326Z</time>
      </trkpt>
      <trkpt lat="43.30328" lon="-1.36677">
        <ele>100</ele>
        <time>2018-06-25T09:15:01.326Z</time>
      </trkpt>
      <trkpt lat="43.30356" lon="-1.36686">
        <ele>96</ele>
        <time>2018-06-25T09:15:02.326Z</time>
      </trkpt>
      <trkpt lat="43.30439" lon="-1.36694">
        <ele>80</ele>
        <time>2018-06-25T09:15:03.326Z</time>
      </trkpt>
      <trkpt lat="43.30439" lon="-1.36695">
        <ele>80</ele>
        <time>2018-06-25T09:15:04.326Z</time>
      </trkpt>
      <trkpt lat="43.30444" lon="-1.36696">
        <ele>79</ele>
        <time>2018-06-25T09:15:05.326Z</time>
      </trkpt>
      <trkpt lat="43.30508" lon="-1.36727">
        <ele>73</ele>
        <time>2018-06-25T09:15:06.326Z</time>
      </trkpt>
      <trkpt lat="43.30538" lon="-1.36732">
        <ele>71</ele>
        <time>2018-06-25T09:15:07.326Z</time>
      </trkpt>
      <trkpt lat="43.30571" lon="-1.36751">
        <ele>69</ele>
        <time>2018-06-25T09:15:08.326Z</time>
      </trkpt>
      <trkpt lat="43.30618" lon="-1.3679">
        <ele>67</ele>
        <time>2018-06-25T09:15:09.326Z</time>
      </trkpt>
      <trkpt lat="43.30645" lon="-1.36805">
        <ele>67</ele>
        <time>2018-06-25T09:15:10.326Z</time>
      </trkpt>
      <trkpt lat="43.30688" lon="-1.36814">
        <ele>65</ele>
        <time>2018-06-25T09:15:11.326Z</time>
      </trkpt>
      <trkpt lat="43.30714" lon="-1.36826">
        <ele>64</ele>
        <time>2018-06-25T09:15:12.326Z</time>
      </trkpt>
      <trkpt lat="43.30762" lon="-1.3686">
        <ele>62</ele>
        <time>2018-06-25T09:15:13.326Z</time>
      </trkpt>
      <trkpt lat="43.3078" lon="-1.36879">
        <ele>62</ele>
        <time>2018-06-25T09:15:14.326Z</time>
      </trkpt>
      <trkpt lat="43.30797" lon="-1.36904">
        <ele>61</ele>
        <time>2018-06-25T09:15:15.326Z</time>
      </trkpt>
      <trkpt lat="43.30802" lon="-1.36923">
        <ele>62</ele>
        <time>2018-06-25T09:15:16.326Z</time>
      </trkpt>
      <trkpt lat="43.30802" lon="-1.36946">
        <ele>61</ele>
        <time>2018-06-25T09:15:17.326Z</time>
      </trkpt>
      <trkpt lat="43.30788" lon="-1.36988">
        <ele>62</ele>
        <time>2018-06-25T09:15:18.326Z</time>
      </trkpt>
      <trkpt lat="43.3079" lon="-1.37007">
        <ele>62</ele>
        <time>2018-06-25T09:15:19.326Z</time>
      </trkpt>
      <trkpt lat="43.30803" lon="-1.37046">
        <ele>62</ele>
        <time>2018-06-25T09:15:20.326Z</time>
      </trkpt>
      <trkpt lat="43.3081" lon="-1.37062">
        <ele>62</ele>
        <time>2018-06-25T09:15:21.326Z</time>
      </trkpt>
      <trkpt lat="43.30822" lon="-1.37082">
        <ele>61</ele>
        <time>2018-06-25T09:15:22.326Z</time>
      </trkpt>
      <trkpt lat="43.30835" lon="-1.37121">
        <ele>63</ele>
        <time>2018-06-25T09:15:23.326Z</time>
      </trkpt>
      <trkpt lat="43.30851" lon="-1.37164">
        <ele>65</ele>
        <time>2018-06-25T09:15:24.326Z</time>
      </trkpt>
      <trkpt lat="43.30876" lon="-1.37202">
        <ele>64</ele>
        <time>2018-06-25T09:15:25.326Z</time>
      </trkpt>
      <trkpt lat="43.30894" lon="-1.37238">
        <ele>63</ele>
        <time>2018-06-25T09:15:26.326Z</time>
      </trkpt>
      <trkpt lat="43.30893" lon="-1.37284">
        <ele>64</ele>
        <time>2018-06-25T09:15:27.326Z</time>
      </trkpt>
      <trkpt lat="43.3088" lon="-1.37369">
        <ele>65</ele>
        <time>2018-06-25T09:15:28.326Z</time>
      </trkpt>
      <trkpt lat="43.30884" lon="-1.37421">
        <ele>64</ele>
        <time>2018-06-25T09:15:29.326Z</time>
      </trkpt>
      <trkpt lat="43.30904" lon="-1.37496">
        <ele>60</ele>
        <time>2018-06-25T09:15:30.326Z</time>
      </trkpt>
      <trkpt lat="43.30906" lon="-1.37574">
        <ele>55</ele>
        <time>2018-06-25T09:15:31.326Z</time>
      </trkpt>
      <trkpt lat="43.30913" lon="-1.37629">
        <ele>54</ele>
        <time>2018-06-25T09:15:32.326Z</time>
      </trkpt>
      <trkpt lat="43.30925" lon="-1.37703">
        <ele>54</ele>
        <time>2018-06-25T09:15:33.326Z</time>
      </trkpt>
      <trkpt lat="43.30929" lon="-1.37741">
        <ele>54</ele>
        <time>2018-06-25T09:15:34.326Z</time>
      </trkpt>
      <trkpt lat="43.3092" lon="-1.37861">
        <ele>53</ele>
        <time>2018-06-25T09:15:35.326Z</time>
      </trkpt>
      <trkpt lat="43.30898" lon="-1.37947">
        <ele>54</ele>
        <time>2018-06-25T09:15:36.326Z</time>
      </trkpt>
      <trkpt lat="43.30874" lon="-1.38007">
        <ele>57</ele>
        <time>2018-06-25T09:15:37.326Z</time>
      </trkpt>
      <trkpt lat="43.30854" lon="-1.38028">
        <ele>59</ele>
        <time>2018-06-25T09:15:38.326Z</time>
      </trkpt>
      <trkpt lat="43.30832" lon="-1.38036">
        <ele>60</ele>
        <time>2018-06-25T09:15:39.326Z</time>
      </trkpt>
      <trkpt lat="43.30828" lon="-1.38049">
        <ele>61</ele>
        <time>2018-06-25T09:15:40.326Z</time>
      </trkpt>
      <trkpt lat="43.30802" lon="-1.38231">
        <ele>68</ele>
        <time>2018-06-25T09:15:41.326Z</time>
      </trkpt>
      <trkpt lat="43.30802" lon="-1.38249">
        <ele>67</ele>
        <time>2018-06-25T09:15:42.326Z</time>
      </trkpt>
      <trkpt lat="43.30805" lon="-1.38265">
        <ele>65</ele>
        <time>2018-06-25T09:15:43.326Z</time>
      </trkpt>
      <trkpt lat="43.30807" lon="-1.38273">
        <ele>64</ele>
        <time>2018-06-25T09:15:44.326Z</time>
      </trkpt>
      <trkpt lat="43.30824" lon="-1.3829">
        <ele>58</ele>
        <time>2018-06-25T09:15:45.326Z</time>
      </trkpt>
      <trkpt lat="43.30882" lon="-1.38313">
        <ele>58</ele>
        <time>2018-06-25T09:15:46.326Z</time>
      </trkpt>
      <trkpt lat="43.30882" lon="-1.38313">
        <ele>58</ele>
        <time>2018-06-25T09:15:47.326Z</time>
      </trkpt>
      <trkpt lat="43.30898" lon="-1.38318">
        <ele>59</ele>
        <time>2018-06-25T09:15:48.326Z</time>
      </trkpt>
      <trkpt lat="43.3091" lon="-1.38317">
        <ele>60</ele>
        <time>2018-06-25T09:15:49.326Z</time>
      </trkpt>
      <trkpt lat="43.30919" lon="-1.3831">
        <ele>60</ele>
        <time>2018-06-25T09:15:50.326Z</time>
      </trkpt>
      <trkpt lat="43.30943" lon="-1.38276">
        <ele>62</ele>
        <time>2018-06-25T09:15:51.326Z</time>
      </trkpt>
      <trkpt lat="43.30957" lon="-1.38261">
        <ele>64</ele>
        <time>2018-06-25T09:15:52.326Z</time>
      </trkpt>
      <trkpt lat="43.30965" lon="-1.38256">
        <ele>65</ele>
        <time>2018-06-25T09:15:53.326Z</time>
      </trkpt>
      <trkpt lat="43.31003" lon="-1.38251">
        <ele>72</ele>
        <time>2018-06-25T09:15:54.326Z</time>
      </trkpt>
      <trkpt lat="43.31053" lon="-1.38231">
        <ele>80</ele>
        <time>2018-06-25T09:15:55.326Z</time>
      </trkpt>
      <trkpt lat="43.31082" lon="-1.38198">
        <ele>83</ele>
        <time>2018-06-25T09:15:56.326Z</time>
      </trkpt>
      <trkpt lat="43.31087" lon="-1.38194">
        <ele>83</ele>
        <time>2018-06-25T09:15:57.326Z</time>
      </trkpt>
      <trkpt lat="43.31086" lon="-1.38195">
        <ele>83</ele>
        <time>2018-06-25T09:15:58.326Z</time>
      </trkpt>
      <trkpt lat="43.31128" lon="-1.38164">
        <ele>91</ele>
        <time>2018-06-25T09:15:59.326Z</time>
      </trkpt>
      <trkpt lat="43.31162" lon="-1.38103">
        <ele>96</ele>
        <time>2018-06-25T09:16:00.326Z</time>
      </trkpt>
      <trkpt lat="43.31187" lon="-1.38073">
        <ele>100</ele>
        <time>2018-06-25T09:16:01.326Z</time>
      </trkpt>
      <trkpt lat="43.31186" lon="-1.38083">
        <ele>101</ele>
        <time>2018-06-25T09:16:02.326Z</time>
      </trkpt>
      <trkpt lat="43.3118" lon="-1.38098">
        <ele>100</ele>
        <time>2018-06-25T09:16:03.326Z</time>
      </trkpt>
      <trkpt lat="43.31173" lon="-1.38129">
        <ele>99</ele>
        <time>2018-06-25T09:16:04.326Z</time>
      </trkpt>
      <trkpt lat="43.31187" lon="-1.3816">
        <ele>104</ele>
        <time>2018-06-25T09:16:05.326Z</time>
      </trkpt>
      <trkpt lat="43.31222" lon="-1.38158">
        <ele>113</ele>
        <time>2018-06-25T09:16:06.326Z</time>
      </trkpt>
      <trkpt lat="43.31258" lon="-1.38176">
        <ele>123</ele>
        <time>2018-06-25T09:16:07.326Z</time>
      </trkpt>
      <trkpt lat="43.31294" lon="-1.38212">
        <ele>134</ele>
        <time>2018-06-25T09:16:08.326Z</time>
      </trkpt>
      <trkpt lat="43.31286" lon="-1.38232">
        <ele>133</ele>
        <time>2018-06-25T09:16:09.326Z</time>
      </trkpt>
      <trkpt lat="43.31269" lon="-1.38243">
        <ele>129</ele>
        <time>2018-06-25T09:16:10.326Z</time>
      </trkpt>
      <trkpt lat="43.31208" lon="-1.38403">
        <ele>139</ele>
        <time>2018-06-25T09:16:11.326Z</time>
      </trkpt>
      <trkpt lat="43.31193" lon="-1.385">
        <ele>145</ele>
        <time>2018-06-25T09:16:12.326Z</time>
      </trkpt>
      <trkpt lat="43.312" lon="-1.38516">
        <ele>145</ele>
        <time>2018-06-25T09:16:13.326Z</time>
      </trkpt>
      <trkpt lat="43.31291" lon="-1.38536">
        <ele>162</ele>
        <time>2018-06-25T09:16:14.326Z</time>
      </trkpt>
      <trkpt lat="43.31311" lon="-1.38548">
        <ele>166</ele>
        <time>2018-06-25T09:16:15.326Z</time>
      </trkpt>
      <trkpt lat="43.31337" lon="-1.38583">
        <ele>171</ele>
        <time>2018-06-25T09:16:16.326Z</time>
      </trkpt>
      <trkpt lat="43.31346" lon="-1.38608">
        <ele>175</ele>
        <time>2018-06-25T09:16:17.326Z</time>
      </trkpt>
      <trkpt lat="43.31351" lon="-1.38664">
        <ele>178</ele>
        <time>2018-06-25T09:16:18.326Z</time>
      </trkpt>
      <trkpt lat="43.3138" lon="-1.38729">
        <ele>185</ele>
        <time>2018-06-25T09:16:19.326Z</time>
      </trkpt>
      <trkpt lat="43.31386" lon="-1.38729">
        <ele>187</ele>
        <time>2018-06-25T09:16:20.326Z</time>
      </trkpt>
      <trkpt lat="43.31389" lon="-1.38673">
        <ele>192</ele>
        <time>2018-06-25T09:16:21.326Z</time>
      </trkpt>
      <trkpt lat="43.31418" lon="-1.3859">
        <ele>203</ele>
        <time>2018-06-25T09:16:22.326Z</time>
      </trkpt>
      <trkpt lat="43.31422" lon="-1.38527">
        <ele>204</ele>
        <time>2018-06-25T09:16:23.326Z</time>
      </trkpt>
      <trkpt lat="43.31442" lon="-1.38465">
        <ele>208</ele>
        <time>2018-06-25T09:16:24.326Z</time>
      </trkpt>
      <trkpt lat="43.31528" lon="-1.3835">
        <ele>223</ele>
        <time>2018-06-25T09:16:25.326Z</time>
      </trkpt>
      <trkpt lat="43.31597" lon="-1.38158">
        <ele>234</ele>
        <time>2018-06-25T09:16:26.326Z</time>
      </trkpt>
      <trkpt lat="43.31634" lon="-1.37991">
        <ele>242</ele>
        <time>2018-06-25T09:16:27.326Z</time>
      </trkpt>
      <trkpt lat="43.3168" lon="-1.37851">
        <ele>240</ele>
        <time>2018-06-25T09:16:28.326Z</time>
      </trkpt>
      <trkpt lat="43.31724" lon="-1.37661">
        <ele>235</ele>
        <time>2018-06-25T09:16:29.326Z</time>
      </trkpt>
      <trkpt lat="43.31701" lon="-1.37491">
        <ele>236</ele>
        <time>2018-06-25T09:16:30.326Z</time>
      </trkpt>
      <trkpt lat="43.31606" lon="-1.37037">
        <ele>241</ele>
        <time>2018-06-25T09:16:31.326Z</time>
      </trkpt>
      <trkpt lat="43.31605" lon="-1.36857">
        <ele>236</ele>
        <time>2018-06-25T09:16:32.326Z</time>
      </trkpt>
      <trkpt lat="43.31611" lon="-1.368">
        <ele>233</ele>
        <time>2018-06-25T09:16:33.326Z</time>
      </trkpt>
      <trkpt lat="43.31638" lon="-1.36711">
        <ele>229</ele>
        <time>2018-06-25T09:16:34.326Z</time>
      </trkpt>
      <trkpt lat="43.31629" lon="-1.36563">
        <ele>219</ele>
        <time>2018-06-25T09:16:35.326Z</time>
      </trkpt>
      <trkpt lat="43.3161" lon="-1.36513">
        <ele>217</ele>
        <time>2018-06-25T09:16:36.326Z</time>
      </trkpt>
      <trkpt lat="43.31526" lon="-1.36449">
        <ele>215</ele>
        <time>2018-06-25T09:16:37.326Z</time>
      </trkpt>
      <trkpt lat="43.31495" lon="-1.36401">
        <ele>214</ele>
        <time>2018-06-25T09:16:38.326Z</time>
      </trkpt>
      <trkpt lat="43.315" lon="-1.36353">
        <ele>213</ele>
        <time>2018-06-25T09:16:39.326Z</time>
      </trkpt>
      <trkpt lat="43.31483" lon="-1.36309">
        <ele>210</ele>
        <time>2018-06-25T09:16:40.326Z</time>
      </trkpt>
      <trkpt lat="43.31449" lon="-1.36147">
        <ele>191</ele>
        <time>2018-06-25T09:16:41.326Z</time>
      </trkpt>
      <trkpt lat="43.31441" lon="-1.3598">
        <ele>179</ele>
        <time>2018-06-25T09:16:42.326Z</time>
      </trkpt>
      <trkpt lat="43.31463" lon="-1.35932">
        <ele>178</ele>
        <time>2018-06-25T09:16:43.326Z</time>
      </trkpt>
      <trkpt lat="43.31476" lon="-1.35872">
        <ele>174</ele>
        <time>2018-06-25T09:16:44.326Z</time>
      </trkpt>
      <trkpt lat="43.31506" lon="-1.35795">
        <ele>163</ele>
        <time>2018-06-25T09:16:45.326Z</time>
      </trkpt>
      <trkpt lat="43.31508" lon="-1.35702">
        <ele>157</ele>
        <time>2018-06-25T09:16:46.326Z</time>
      </trkpt>
      <trkpt lat="43.31514" lon="-1.35684">
        <ele>154</ele>
        <time>2018-06-25T09:16:47.326Z</time>
      </trkpt>
      <trkpt lat="43.31536" lon="-1.35675">
        <ele>147</ele>
        <time>2018-06-25T09:16:48.326Z</time>
      </trkpt>
      <trkpt lat="43.31639" lon="-1.35723">
        <ele>129</ele>
        <time>2018-06-25T09:16:49.326Z</time>
      </trkpt>
      <trkpt lat="43.31669" lon="-1.35719">
        <ele>125</ele>
        <time>2018-06-25T09:16:50.326Z</time>
      </trkpt>
      <trkpt lat="43.31661" lon="-1.35674">
        <ele>123</ele>
        <time>2018-06-25T09:16:51.326Z</time>
      </trkpt>
      <trkpt lat="43.31653" lon="-1.35407">
        <ele>114</ele>
        <time>2018-06-25T09:16:52.326Z</time>
      </trkpt>
      <trkpt lat="43.31633" lon="-1.35118">
        <ele>109</ele>
        <time>2018-06-25T09:16:53.326Z</time>
      </trkpt>
      <trkpt lat="43.31633" lon="-1.35118">
        <ele>109</ele>
        <time>2018-06-25T09:16:54.326Z</time>
      </trkpt>
      <trkpt lat="43.31615" lon="-1.35041">
        <ele>107</ele>
        <time>2018-06-25T09:16:55.326Z</time>
      </trkpt>
      <trkpt lat="43.31615" lon="-1.35041">
        <ele>107</ele>
        <time>2018-06-25T09:16:56.326Z</time>
      </trkpt>
      <trkpt lat="43.31614" lon="-1.35035">
        <ele>106</ele>
        <time>2018-06-25T09:16:57.326Z</time>
      </trkpt>
      <trkpt lat="43.31621" lon="-1.35032">
        <ele>107</ele>
        <time>2018-06-25T09:16:58.326Z</time>
      </trkpt>
      <trkpt lat="43.3166" lon="-1.35012">
        <ele>109</ele>
        <time>2018-06-25T09:16:59.326Z</time>
      </trkpt>
      <trkpt lat="43.31678" lon="-1.34989">
        <ele>110</ele>
        <time>2018-06-25T09:17:00.326Z</time>
      </trkpt>
      <trkpt lat="43.31733" lon="-1.34824">
        <ele>109</ele>
        <time>2018-06-25T09:17:01.326Z</time>
      </trkpt>
      <trkpt lat="43.31739" lon="-1.34771">
        <ele>107</ele>
        <time>2018-06-25T09:17:02.326Z</time>
      </trkpt>
      <trkpt lat="43.31704" lon="-1.34558">
        <ele>102</ele>
        <time>2018-06-25T09:17:03.326Z</time>
      </trkpt>
      <trkpt lat="43.31719" lon="-1.34467">
        <ele>104</ele>
        <time>2018-06-25T09:17:04.326Z</time>
      </trkpt>
      <trkpt lat="43.31748" lon="-1.3438">
        <ele>105</ele>
        <time>2018-06-25T09:17:05.326Z</time>
      </trkpt>
      <trkpt lat="43.31768" lon="-1.34246">
        <ele>108</ele>
        <time>2018-06-25T09:17:06.326Z</time>
      </trkpt>
      <trkpt lat="43.31767" lon="-1.34055">
        <ele>113</ele>
        <time>2018-06-25T09:17:07.326Z</time>
      </trkpt>
      <trkpt lat="43.31795" lon="-1.33998">
        <ele>122</ele>
        <time>2018-06-25T09:17:08.326Z</time>
      </trkpt>
      <trkpt lat="43.31847" lon="-1.33951">
        <ele>130</ele>
        <time>2018-06-25T09:17:09.326Z</time>
      </trkpt>
      <trkpt lat="43.31872" lon="-1.33911">
        <ele>129</ele>
        <time>2018-06-25T09:17:10.326Z</time>
      </trkpt>
      <trkpt lat="43.31901" lon="-1.33805">
        <ele>126</ele>
        <time>2018-06-25T09:17:11.326Z</time>
      </trkpt>
      <trkpt lat="43.31919" lon="-1.33779">
        <ele>124</ele>
        <time>2018-06-25T09:17:12.326Z</time>
      </trkpt>
      <trkpt lat="43.31994" lon="-1.33721">
        <ele>129</ele>
        <time>2018-06-25T09:17:13.326Z</time>
      </trkpt>
      <trkpt lat="43.32023" lon="-1.33681">
        <ele>130</ele>
        <time>2018-06-25T09:17:14.326Z</time>
      </trkpt>
      <trkpt lat="43.3206" lon="-1.33589">
        <ele>139</ele>
        <time>2018-06-25T09:17:15.326Z</time>
      </trkpt>
      <trkpt lat="43.32097" lon="-1.33527">
        <ele>145</ele>
        <time>2018-06-25T09:17:16.326Z</time>
      </trkpt>
      <trkpt lat="43.32191" lon="-1.33445">
        <ele>144</ele>
        <time>2018-06-25T09:17:17.326Z</time>
      </trkpt>
      <trkpt lat="43.32233" lon="-1.33444">
        <ele>141</ele>
        <time>2018-06-25T09:17:18.326Z</time>
      </trkpt>
      <trkpt lat="43.32253" lon="-1.33454">
        <ele>139</ele>
        <time>2018-06-25T09:17:19.326Z</time>
      </trkpt>
      <trkpt lat="43.32287" lon="-1.33488">
        <ele>141</ele>
        <time>2018-06-25T09:17:20.326Z</time>
      </trkpt>
      <trkpt lat="43.32326" lon="-1.335">
        <ele>144</ele>
        <time>2018-06-25T09:17:21.326Z</time>
      </trkpt>
      <trkpt lat="43.32511" lon="-1.33469">
        <ele>165</ele>
        <time>2018-06-25T09:17:22.326Z</time>
      </trkpt>
      <trkpt lat="43.3256" lon="-1.33481">
        <ele>173</ele>
        <time>2018-06-25T09:17:23.326Z</time>
      </trkpt>
      <trkpt lat="43.32634" lon="-1.33544">
        <ele>177</ele>
        <time>2018-06-25T09:17:24.326Z</time>
      </trkpt>
      <trkpt lat="43.32667" lon="-1.33553">
        <ele>176</ele>
        <time>2018-06-25T09:17:25.326Z</time>
      </trkpt>
      <trkpt lat="43.32783" lon="-1.3352">
        <ele>176</ele>
        <time>2018-06-25T09:17:26.326Z</time>
      </trkpt>
      <trkpt lat="43.32809" lon="-1.33499">
        <ele>173</ele>
        <time>2018-06-25T09:17:27.326Z</time>
      </trkpt>
      <trkpt lat="43.32843" lon="-1.33433">
        <ele>170</ele>
        <time>2018-06-25T09:17:28.326Z</time>
      </trkpt>
      <trkpt lat="43.32885" lon="-1.33228">
        <ele>177</ele>
        <time>2018-06-25T09:17:29.326Z</time>
      </trkpt>
      <trkpt lat="43.32912" lon="-1.33008">
        <ele>191</ele>
        <time>2018-06-25T09:17:30.326Z</time>
      </trkpt>
      <trkpt lat="43.32942" lon="-1.32927">
        <ele>197</ele>
        <time>2018-06-25T09:17:31.326Z</time>
      </trkpt>
      <trkpt lat="43.32987" lon="-1.32723">
        <ele>212</ele>
        <time>2018-06-25T09:17:32.326Z</time>
      </trkpt>
      <trkpt lat="43.32991" lon="-1.32614">
        <ele>213</ele>
        <time>2018-06-25T09:17:33.326Z</time>
      </trkpt>
      <trkpt lat="43.33008" lon="-1.32482">
        <ele>212</ele>
        <time>2018-06-25T09:17:34.326Z</time>
      </trkpt>
      <trkpt lat="43.33068" lon="-1.32362">
        <ele>217</ele>
        <time>2018-06-25T09:17:35.326Z</time>
      </trkpt>
      <trkpt lat="43.33101" lon="-1.32204">
        <ele>220</ele>
        <time>2018-06-25T09:17:36.326Z</time>
      </trkpt>
      <trkpt lat="43.33088" lon="-1.32138">
        <ele>218</ele>
        <time>2018-06-25T09:17:37.326Z</time>
      </trkpt>
      <trkpt lat="43.33053" lon="-1.32051">
        <ele>217</ele>
        <time>2018-06-25T09:17:38.326Z</time>
      </trkpt>
      <trkpt lat="43.33031" lon="-1.31949">
        <ele>213</ele>
        <time>2018-06-25T09:17:39.326Z</time>
      </trkpt>
      <trkpt lat="43.33016" lon="-1.31917">
        <ele>211</ele>
        <time>2018-06-25T09:17:40.326Z</time>
      </trkpt>
      <trkpt lat="43.32993" lon="-1.31893">
        <ele>208</ele>
        <time>2018-06-25T09:17:41.326Z</time>
      </trkpt>
      <trkpt lat="43.3293" lon="-1.3186">
        <ele>206</ele>
        <time>2018-06-25T09:17:42.326Z</time>
      </trkpt>
      <trkpt lat="43.32914" lon="-1.31831">
        <ele>206</ele>
        <time>2018-06-25T09:17:43.326Z</time>
      </trkpt>
      <trkpt lat="43.32856" lon="-1.31603">
        <ele>227</ele>
        <time>2018-06-25T09:17:44.326Z</time>
      </trkpt>
      <trkpt lat="43.32861" lon="-1.31539">
        <ele>220</ele>
        <time>2018-06-25T09:17:45.326Z</time>
      </trkpt>
      <trkpt lat="43.32881" lon="-1.31434">
        <ele>210</ele>
        <time>2018-06-25T09:17:46.326Z</time>
      </trkpt>
      <trkpt lat="43.32903" lon="-1.31359">
        <ele>206</ele>
        <time>2018-06-25T09:17:47.326Z</time>
      </trkpt>
      <trkpt lat="43.32969" lon="-1.31229">
        <ele>194</ele>
        <time>2018-06-25T09:17:48.326Z</time>
      </trkpt>
      <trkpt lat="43.3299" lon="-1.3115">
        <ele>193</ele>
        <time>2018-06-25T09:17:49.326Z</time>
      </trkpt>
      <trkpt lat="43.33001" lon="-1.31044">
        <ele>190</ele>
        <time>2018-06-25T09:17:50.326Z</time>
      </trkpt>
      <trkpt lat="43.3302" lon="-1.30998">
        <ele>185</ele>
        <time>2018-06-25T09:17:51.326Z</time>
      </trkpt>
      <trkpt lat="43.33028" lon="-1.30945">
        <ele>181</ele>
        <time>2018-06-25T09:17:52.326Z</time>
      </trkpt>
      <trkpt lat="43.3302" lon="-1.30893">
        <ele>180</ele>
        <time>2018-06-25T09:17:53.326Z</time>
      </trkpt>
      <trkpt lat="43.33002" lon="-1.30844">
        <ele>178</ele>
        <time>2018-06-25T09:17:54.326Z</time>
      </trkpt>
      <trkpt lat="43.33006" lon="-1.30792">
        <ele>180</ele>
        <time>2018-06-25T09:17:55.326Z</time>
      </trkpt>
      <trkpt lat="43.33129" lon="-1.3062">
        <ele>175</ele>
        <time>2018-06-25T09:17:56.326Z</time>
      </trkpt>
      <trkpt lat="43.33162" lon="-1.30587">
        <ele>171</ele>
        <time>2018-06-25T09:17:57.326Z</time>
      </trkpt>
      <trkpt lat="43.33216" lon="-1.30509">
        <ele>166</ele>
        <time>2018-06-25T09:17:58.326Z</time>
      </trkpt>
      <trkpt lat="43.33282" lon="-1.30444">
        <ele>162</ele>
        <time>2018-06-25T09:17:59.326Z</time>
      </trkpt>
      <trkpt lat="43.3339" lon="-1.30293">
        <ele>163</ele>
        <time>2018-06-25T09:18:00.326Z</time>
      </trkpt>
      <trkpt lat="43.33414" lon="-1.30276">
        <ele>155</ele>
        <time>2018-06-25T09:18:01.326Z</time>
      </trkpt>
      <trkpt lat="43.33566" lon="-1.30268">
        <ele>143</ele>
        <time>2018-06-25T09:18:02.326Z</time>
      </trkpt>
      <trkpt lat="43.33596" lon="-1.30244">
        <ele>143</ele>
        <time>2018-06-25T09:18:03.326Z</time>
      </trkpt>
      <trkpt lat="43.33636" lon="-1.30176">
        <ele>142</ele>
        <time>2018-06-25T09:18:04.326Z</time>
      </trkpt>
      <trkpt lat="43.33676" lon="-1.30132">
        <ele>143</ele>
        <time>2018-06-25T09:18:05.326Z</time>
      </trkpt>
      <trkpt lat="43.33708" lon="-1.30012">
        <ele>146</ele>
        <time>2018-06-25T09:18:06.326Z</time>
      </trkpt>
      <trkpt lat="43.33722" lon="-1.29985">
        <ele>147</ele>
        <time>2018-06-25T09:18:07.326Z</time>
      </trkpt>
      <trkpt lat="43.3374" lon="-1.29976">
        <ele>148</ele>
        <time>2018-06-25T09:18:08.326Z</time>
      </trkpt>
      <trkpt lat="43.33912" lon="-1.30005">
        <ele>160</ele>
        <time>2018-06-25T09:18:09.326Z</time>
      </trkpt>
      <trkpt lat="43.33955" lon="-1.30002">
        <ele>163</ele>
        <time>2018-06-25T09:18:10.326Z</time>
      </trkpt>
      <trkpt lat="43.33984" lon="-1.29976">
        <ele>166</ele>
        <time>2018-06-25T09:18:11.326Z</time>
      </trkpt>
      <trkpt lat="43.34004" lon="-1.2984">
        <ele>170</ele>
        <time>2018-06-25T09:18:12.326Z</time>
      </trkpt>
      <trkpt lat="43.34016" lon="-1.29835">
        <ele>170</ele>
        <time>2018-06-25T09:18:13.326Z</time>
      </trkpt>
      <trkpt lat="43.34052" lon="-1.29879">
        <ele>171</ele>
        <time>2018-06-25T09:18:14.326Z</time>
      </trkpt>
    </trkseg>
  </trk>
</gpx>